<?xml version="1.0" encoding="UTF-8" standalone="no" ?>
<gpx xmlns="http://www.topografix.com/GPX/1/1" xmlns:xsi="http://www.w3.org/2001/XMLSchema-instance" xsi:schemaLocation="http://www.topografix.com/GPX/1/1 http://www.topografix.com/GPX/1/1/gpx.xsd" version="1.1" creator="VisuGPX - https://www.visugpx.com">
  <metadata>
    <name>Et-Malh (2417m) + points cotés 2453m, 2443m et 2329m, à partir du lac d'Estaing</name>
    <desc><![CDATA[Le soum Et-Malh, visible au SO du Col d'Ilhéou, n'est pas très spectaculaire en soi, mais quel belvédère ! Merci à Patrick Espel de l'avoir signalé dans son topoguide "Azun". On y accède hors sentier à partir du col, en s'aidant de quelques cairns. Les points cotés 2453 et 2443 rapprochent encore un peu du Grand Barbat. J'ai dû renoncer à accéder au point coté 2613 : ce n'est plus de la randonnée, mais de l'escalade rocheuse. Une fois revenu au Col d'Ilhéou, le point coté 2329m, aisémnt accessible par les sentes de mouton, mérite amplement le détour car il ouvre la vue vers l'E et le S.]]></desc>
  </metadata>
  <trk>
    <name><![CDATA[Et-Malh 15 07 26]]></name>
    <trkseg>
      <trkpt lat="42.90702" lon="-0.20384">
        <ele>1165.5</ele>
        <time>2026-07-15T06:17:20Z</time>
      </trkpt>
      <trkpt lat="42.90702" lon="-0.20384">
        <ele>1165.5</ele>
        <time>2026-07-15T06:17:21Z</time>
      </trkpt>
      <trkpt lat="42.90702" lon="-0.20384">
        <ele>1168.5</ele>
        <time>2026-07-15T06:17:22Z</time>
      </trkpt>
      <trkpt lat="42.90702" lon="-0.20384">
        <ele>1168.5</ele>
        <time>2026-07-15T06:17:23Z</time>
      </trkpt>
      <trkpt lat="42.90701" lon="-0.20383">
        <ele>1169.5</ele>
        <time>2026-07-15T06:17:23Z</time>
      </trkpt>
      <trkpt lat="42.90701" lon="-0.20383">
        <ele>1169.5</ele>
        <time>2026-07-15T06:17:24Z</time>
      </trkpt>
      <trkpt lat="42.90701" lon="-0.20383">
        <ele>1171.5</ele>
        <time>2026-07-15T06:17:25Z</time>
      </trkpt>
      <trkpt lat="42.907" lon="-0.20383">
        <ele>1171.5</ele>
        <time>2026-07-15T06:17:25Z</time>
      </trkpt>
      <trkpt lat="42.90698" lon="-0.20382">
        <ele>1171.5</ele>
        <time>2026-07-15T06:17:26Z</time>
      </trkpt>
      <trkpt lat="42.90696" lon="-0.20381">
        <ele>1173.5</ele>
        <time>2026-07-15T06:17:27Z</time>
      </trkpt>
      <trkpt lat="42.90694" lon="-0.20381">
        <ele>1173.5</ele>
        <time>2026-07-15T06:17:27Z</time>
      </trkpt>
      <trkpt lat="42.90693" lon="-0.20381">
        <ele>1174.5</ele>
        <time>2026-07-15T06:17:28Z</time>
      </trkpt>
      <trkpt lat="42.90692" lon="-0.20381">
        <ele>1174.5</ele>
        <time>2026-07-15T06:17:29Z</time>
      </trkpt>
      <trkpt lat="42.90691" lon="-0.20381">
        <ele>1174.5</ele>
        <time>2026-07-15T06:17:30Z</time>
      </trkpt>
      <trkpt lat="42.9069" lon="-0.20381">
        <ele>1173.5</ele>
        <time>2026-07-15T06:17:31Z</time>
      </trkpt>
      <trkpt lat="42.90689" lon="-0.20382">
        <ele>1173.5</ele>
        <time>2026-07-15T06:17:32Z</time>
      </trkpt>
      <trkpt lat="42.90688" lon="-0.20382">
        <ele>1173.5</ele>
        <time>2026-07-15T06:17:33Z</time>
      </trkpt>
      <trkpt lat="42.90687" lon="-0.20382">
        <ele>1173.5</ele>
        <time>2026-07-15T06:17:33Z</time>
      </trkpt>
      <trkpt lat="42.90687" lon="-0.20382">
        <ele>1173.5</ele>
        <time>2026-07-15T06:17:34Z</time>
      </trkpt>
      <trkpt lat="42.90686" lon="-0.20382">
        <ele>1174.5</ele>
        <time>2026-07-15T06:17:34Z</time>
      </trkpt>
      <trkpt lat="42.90685" lon="-0.20383">
        <ele>1174.5</ele>
        <time>2026-07-15T06:17:35Z</time>
      </trkpt>
      <trkpt lat="42.90683" lon="-0.20383">
        <ele>1177.5</ele>
        <time>2026-07-15T06:17:36Z</time>
      </trkpt>
      <trkpt lat="42.90682" lon="-0.20385">
        <ele>1179.5</ele>
        <time>2026-07-15T06:17:37Z</time>
      </trkpt>
      <trkpt lat="42.90681" lon="-0.20385">
        <ele>1179.5</ele>
        <time>2026-07-15T06:17:38Z</time>
      </trkpt>
      <trkpt lat="42.9068" lon="-0.20386">
        <ele>1179.5</ele>
        <time>2026-07-15T06:17:39Z</time>
      </trkpt>
      <trkpt lat="42.90679" lon="-0.20386">
        <ele>1179.5</ele>
        <time>2026-07-15T06:17:39Z</time>
      </trkpt>
      <trkpt lat="42.90678" lon="-0.20386">
        <ele>1179.5</ele>
        <time>2026-07-15T06:17:40Z</time>
      </trkpt>
      <trkpt lat="42.90677" lon="-0.20386">
        <ele>1178.5</ele>
        <time>2026-07-15T06:17:40Z</time>
      </trkpt>
      <trkpt lat="42.90677" lon="-0.20387">
        <ele>1178.5</ele>
        <time>2026-07-15T06:17:41Z</time>
      </trkpt>
      <trkpt lat="42.90676" lon="-0.20387">
        <ele>1179.5</ele>
        <time>2026-07-15T06:17:41Z</time>
      </trkpt>
      <trkpt lat="42.90675" lon="-0.20387">
        <ele>1179.5</ele>
        <time>2026-07-15T06:17:42Z</time>
      </trkpt>
      <trkpt lat="42.90673" lon="-0.20386">
        <ele>1178.5</ele>
        <time>2026-07-15T06:17:43Z</time>
      </trkpt>
      <trkpt lat="42.90672" lon="-0.20385">
        <ele>1178.5</ele>
        <time>2026-07-15T06:17:44Z</time>
      </trkpt>
      <trkpt lat="42.9067" lon="-0.20384">
        <ele>1177.5</ele>
        <time>2026-07-15T06:17:45Z</time>
      </trkpt>
      <trkpt lat="42.90669" lon="-0.20384">
        <ele>1177.5</ele>
        <time>2026-07-15T06:17:46Z</time>
      </trkpt>
      <trkpt lat="42.90667" lon="-0.20384">
        <ele>1177.5</ele>
        <time>2026-07-15T06:17:47Z</time>
      </trkpt>
      <trkpt lat="42.90666" lon="-0.20384">
        <ele>1175.5</ele>
        <time>2026-07-15T06:17:48Z</time>
      </trkpt>
      <trkpt lat="42.90665" lon="-0.20384">
        <ele>1175.5</ele>
        <time>2026-07-15T06:17:49Z</time>
      </trkpt>
      <trkpt lat="42.90664" lon="-0.20385">
        <ele>1174.5</ele>
        <time>2026-07-15T06:17:49Z</time>
      </trkpt>
      <trkpt lat="42.90664" lon="-0.20385">
        <ele>1174.5</ele>
        <time>2026-07-15T06:17:50Z</time>
      </trkpt>
      <trkpt lat="42.90662" lon="-0.20386">
        <ele>1174.5</ele>
        <time>2026-07-15T06:17:51Z</time>
      </trkpt>
      <trkpt lat="42.90661" lon="-0.20386">
        <ele>1173.5</ele>
        <time>2026-07-15T06:17:51Z</time>
      </trkpt>
      <trkpt lat="42.90661" lon="-0.20386">
        <ele>1173.5</ele>
        <time>2026-07-15T06:17:52Z</time>
      </trkpt>
      <trkpt lat="42.9066" lon="-0.20387">
        <ele>1173.5</ele>
        <time>2026-07-15T06:17:52Z</time>
      </trkpt>
      <trkpt lat="42.90659" lon="-0.20387">
        <ele>1173.5</ele>
        <time>2026-07-15T06:17:53Z</time>
      </trkpt>
      <trkpt lat="42.90658" lon="-0.20386">
        <ele>1173.5</ele>
        <time>2026-07-15T06:17:54Z</time>
      </trkpt>
      <trkpt lat="42.90658" lon="-0.20386">
        <ele>1173.5</ele>
        <time>2026-07-15T06:17:55Z</time>
      </trkpt>
      <trkpt lat="42.90657" lon="-0.20386">
        <ele>1173.5</ele>
        <time>2026-07-15T06:17:55Z</time>
      </trkpt>
      <trkpt lat="42.90657" lon="-0.20386">
        <ele>1173.5</ele>
        <time>2026-07-15T06:17:56Z</time>
      </trkpt>
      <trkpt lat="42.90656" lon="-0.20387">
        <ele>1174.5</ele>
        <time>2026-07-15T06:17:57Z</time>
      </trkpt>
      <trkpt lat="42.90655" lon="-0.20387">
        <ele>1173.5</ele>
        <time>2026-07-15T06:17:57Z</time>
      </trkpt>
      <trkpt lat="42.90655" lon="-0.20387">
        <ele>1174.5</ele>
        <time>2026-07-15T06:17:58Z</time>
      </trkpt>
      <trkpt lat="42.90654" lon="-0.20387">
        <ele>1174.5</ele>
        <time>2026-07-15T06:17:59Z</time>
      </trkpt>
      <trkpt lat="42.90653" lon="-0.20388">
        <ele>1174.5</ele>
        <time>2026-07-15T06:18:00Z</time>
      </trkpt>
      <trkpt lat="42.90653" lon="-0.20388">
        <ele>1174.5</ele>
        <time>2026-07-15T06:18:00Z</time>
      </trkpt>
      <trkpt lat="42.90652" lon="-0.20388">
        <ele>1174.5</ele>
        <time>2026-07-15T06:18:01Z</time>
      </trkpt>
      <trkpt lat="42.90652" lon="-0.20388">
        <ele>1175.5</ele>
        <time>2026-07-15T06:18:01Z</time>
      </trkpt>
      <trkpt lat="42.90651" lon="-0.20388">
        <ele>1175.5</ele>
        <time>2026-07-15T06:18:02Z</time>
      </trkpt>
      <trkpt lat="42.9065" lon="-0.20389">
        <ele>1174.5</ele>
        <time>2026-07-15T06:18:03Z</time>
      </trkpt>
      <trkpt lat="42.9065" lon="-0.20389">
        <ele>1174.5</ele>
        <time>2026-07-15T06:18:03Z</time>
      </trkpt>
      <trkpt lat="42.90649" lon="-0.20389">
        <ele>1174.5</ele>
        <time>2026-07-15T06:18:04Z</time>
      </trkpt>
      <trkpt lat="42.90648" lon="-0.2039">
        <ele>1174.5</ele>
        <time>2026-07-15T06:18:05Z</time>
      </trkpt>
      <trkpt lat="42.90648" lon="-0.2039">
        <ele>1174.5</ele>
        <time>2026-07-15T06:18:06Z</time>
      </trkpt>
      <trkpt lat="42.90647" lon="-0.2039">
        <ele>1174.5</ele>
        <time>2026-07-15T06:18:07Z</time>
      </trkpt>
      <trkpt lat="42.90647" lon="-0.20391">
        <ele>1175.5</ele>
        <time>2026-07-15T06:18:07Z</time>
      </trkpt>
      <trkpt lat="42.90646" lon="-0.20391">
        <ele>1175.5</ele>
        <time>2026-07-15T06:18:08Z</time>
      </trkpt>
      <trkpt lat="42.90646" lon="-0.20393">
        <ele>1174.5</ele>
        <time>2026-07-15T06:18:09Z</time>
      </trkpt>
      <trkpt lat="42.90646" lon="-0.20394">
        <ele>1174.5</ele>
        <time>2026-07-15T06:18:10Z</time>
      </trkpt>
      <trkpt lat="42.90646" lon="-0.20396">
        <ele>1174.5</ele>
        <time>2026-07-15T06:18:11Z</time>
      </trkpt>
      <trkpt lat="42.90645" lon="-0.20397">
        <ele>1174.5</ele>
        <time>2026-07-15T06:18:12Z</time>
      </trkpt>
      <trkpt lat="42.90645" lon="-0.20397">
        <ele>1174.5</ele>
        <time>2026-07-15T06:18:12Z</time>
      </trkpt>
      <trkpt lat="42.90645" lon="-0.20399">
        <ele>1174.5</ele>
        <time>2026-07-15T06:18:13Z</time>
      </trkpt>
      <trkpt lat="42.90645" lon="-0.20399">
        <ele>1173.5</ele>
        <time>2026-07-15T06:18:13Z</time>
      </trkpt>
      <trkpt lat="42.90644" lon="-0.204">
        <ele>1173.5</ele>
        <time>2026-07-15T06:18:14Z</time>
      </trkpt>
      <trkpt lat="42.90644" lon="-0.20401">
        <ele>1173.5</ele>
        <time>2026-07-15T06:18:15Z</time>
      </trkpt>
      <trkpt lat="42.90644" lon="-0.20402">
        <ele>1172.5</ele>
        <time>2026-07-15T06:18:15Z</time>
      </trkpt>
      <trkpt lat="42.90643" lon="-0.20403">
        <ele>1172.5</ele>
        <time>2026-07-15T06:18:16Z</time>
      </trkpt>
      <trkpt lat="42.90643" lon="-0.20404">
        <ele>1172.5</ele>
        <time>2026-07-15T06:18:17Z</time>
      </trkpt>
      <trkpt lat="42.90642" lon="-0.20406">
        <ele>1171.5</ele>
        <time>2026-07-15T06:18:18Z</time>
      </trkpt>
      <trkpt lat="42.90642" lon="-0.20407">
        <ele>1171.5</ele>
        <time>2026-07-15T06:18:19Z</time>
      </trkpt>
      <trkpt lat="42.90641" lon="-0.20408">
        <ele>1171.5</ele>
        <time>2026-07-15T06:18:20Z</time>
      </trkpt>
      <trkpt lat="42.90641" lon="-0.2041">
        <ele>1171.5</ele>
        <time>2026-07-15T06:18:21Z</time>
      </trkpt>
      <trkpt lat="42.9064" lon="-0.20412">
        <ele>1170.5</ele>
        <time>2026-07-15T06:18:22Z</time>
      </trkpt>
      <trkpt lat="42.9064" lon="-0.20412">
        <ele>1170.5</ele>
        <time>2026-07-15T06:18:23Z</time>
      </trkpt>
      <trkpt lat="42.9064" lon="-0.20413">
        <ele>1170.5</ele>
        <time>2026-07-15T06:18:23Z</time>
      </trkpt>
      <trkpt lat="42.90639" lon="-0.20414">
        <ele>1170.5</ele>
        <time>2026-07-15T06:18:24Z</time>
      </trkpt>
      <trkpt lat="42.90639" lon="-0.20415">
        <ele>1170.5</ele>
        <time>2026-07-15T06:18:24Z</time>
      </trkpt>
      <trkpt lat="42.90639" lon="-0.20416">
        <ele>1170.5</ele>
        <time>2026-07-15T06:18:25Z</time>
      </trkpt>
      <trkpt lat="42.90638" lon="-0.20417">
        <ele>1170.5</ele>
        <time>2026-07-15T06:18:26Z</time>
      </trkpt>
      <trkpt lat="42.90637" lon="-0.20418">
        <ele>1170.5</ele>
        <time>2026-07-15T06:18:26Z</time>
      </trkpt>
      <trkpt lat="42.90637" lon="-0.20419">
        <ele>1170.5</ele>
        <time>2026-07-15T06:18:27Z</time>
      </trkpt>
      <trkpt lat="42.90637" lon="-0.2042">
        <ele>1170.5</ele>
        <time>2026-07-15T06:18:28Z</time>
      </trkpt>
      <trkpt lat="42.90637" lon="-0.20421">
        <ele>1169.5</ele>
        <time>2026-07-15T06:18:29Z</time>
      </trkpt>
      <trkpt lat="42.90637" lon="-0.20422">
        <ele>1169.5</ele>
        <time>2026-07-15T06:18:29Z</time>
      </trkpt>
      <trkpt lat="42.90637" lon="-0.20424">
        <ele>1169.5</ele>
        <time>2026-07-15T06:18:30Z</time>
      </trkpt>
      <trkpt lat="42.90637" lon="-0.20424">
        <ele>1170.5</ele>
        <time>2026-07-15T06:18:30Z</time>
      </trkpt>
      <trkpt lat="42.90636" lon="-0.20425">
        <ele>1170.5</ele>
        <time>2026-07-15T06:18:31Z</time>
      </trkpt>
      <trkpt lat="42.90636" lon="-0.20426">
        <ele>1169.5</ele>
        <time>2026-07-15T06:18:32Z</time>
      </trkpt>
      <trkpt lat="42.90635" lon="-0.20427">
        <ele>1169.5</ele>
        <time>2026-07-15T06:18:33Z</time>
      </trkpt>
      <trkpt lat="42.90635" lon="-0.20427">
        <ele>1170.5</ele>
        <time>2026-07-15T06:18:33Z</time>
      </trkpt>
      <trkpt lat="42.90634" lon="-0.20428">
        <ele>1170.5</ele>
        <time>2026-07-15T06:18:34Z</time>
      </trkpt>
      <trkpt lat="42.90634" lon="-0.20428">
        <ele>1170.5</ele>
        <time>2026-07-15T06:18:34Z</time>
      </trkpt>
      <trkpt lat="42.90633" lon="-0.20429">
        <ele>1170.5</ele>
        <time>2026-07-15T06:18:35Z</time>
      </trkpt>
      <trkpt lat="42.90633" lon="-0.2043">
        <ele>1170.5</ele>
        <time>2026-07-15T06:18:36Z</time>
      </trkpt>
      <trkpt lat="42.90632" lon="-0.2043">
        <ele>1170.5</ele>
        <time>2026-07-15T06:18:36Z</time>
      </trkpt>
      <trkpt lat="42.90632" lon="-0.20431">
        <ele>1170.5</ele>
        <time>2026-07-15T06:18:37Z</time>
      </trkpt>
      <trkpt lat="42.90632" lon="-0.20431">
        <ele>1170.5</ele>
        <time>2026-07-15T06:18:37Z</time>
      </trkpt>
      <trkpt lat="42.90631" lon="-0.20432">
        <ele>1170.5</ele>
        <time>2026-07-15T06:18:38Z</time>
      </trkpt>
      <trkpt lat="42.90631" lon="-0.20433">
        <ele>1170.5</ele>
        <time>2026-07-15T06:18:39Z</time>
      </trkpt>
      <trkpt lat="42.9063" lon="-0.20433">
        <ele>1169.5</ele>
        <time>2026-07-15T06:18:39Z</time>
      </trkpt>
      <trkpt lat="42.9063" lon="-0.20434">
        <ele>1169.5</ele>
        <time>2026-07-15T06:18:40Z</time>
      </trkpt>
      <trkpt lat="42.9063" lon="-0.20435">
        <ele>1169.5</ele>
        <time>2026-07-15T06:18:40Z</time>
      </trkpt>
      <trkpt lat="42.9063" lon="-0.20435">
        <ele>1169.5</ele>
        <time>2026-07-15T06:18:41Z</time>
      </trkpt>
      <trkpt lat="42.90629" lon="-0.20436">
        <ele>1170.5</ele>
        <time>2026-07-15T06:18:42Z</time>
      </trkpt>
      <trkpt lat="42.90629" lon="-0.20436">
        <ele>1170.5</ele>
        <time>2026-07-15T06:18:42Z</time>
      </trkpt>
      <trkpt lat="42.90629" lon="-0.20437">
        <ele>1170.5</ele>
        <time>2026-07-15T06:18:43Z</time>
      </trkpt>
      <trkpt lat="42.90629" lon="-0.20438">
        <ele>1171.5</ele>
        <time>2026-07-15T06:18:44Z</time>
      </trkpt>
      <trkpt lat="42.90629" lon="-0.20438">
        <ele>1171.5</ele>
        <time>2026-07-15T06:18:44Z</time>
      </trkpt>
      <trkpt lat="42.90629" lon="-0.20439">
        <ele>1171.5</ele>
        <time>2026-07-15T06:18:45Z</time>
      </trkpt>
      <trkpt lat="42.90629" lon="-0.20439">
        <ele>1171.5</ele>
        <time>2026-07-15T06:18:46Z</time>
      </trkpt>
      <trkpt lat="42.90629" lon="-0.2044">
        <ele>1171.5</ele>
        <time>2026-07-15T06:18:47Z</time>
      </trkpt>
      <trkpt lat="42.90629" lon="-0.2044">
        <ele>1171.5</ele>
        <time>2026-07-15T06:18:48Z</time>
      </trkpt>
      <trkpt lat="42.90629" lon="-0.20441">
        <ele>1171.5</ele>
        <time>2026-07-15T06:18:48Z</time>
      </trkpt>
      <trkpt lat="42.90629" lon="-0.20441">
        <ele>1171.5</ele>
        <time>2026-07-15T06:18:49Z</time>
      </trkpt>
      <trkpt lat="42.90629" lon="-0.20442">
        <ele>1171.5</ele>
        <time>2026-07-15T06:18:49Z</time>
      </trkpt>
      <trkpt lat="42.9063" lon="-0.20443">
        <ele>1171.5</ele>
        <time>2026-07-15T06:18:50Z</time>
      </trkpt>
      <trkpt lat="42.9063" lon="-0.20443">
        <ele>1171.5</ele>
        <time>2026-07-15T06:18:51Z</time>
      </trkpt>
      <trkpt lat="42.9063" lon="-0.20444">
        <ele>1171.5</ele>
        <time>2026-07-15T06:18:51Z</time>
      </trkpt>
      <trkpt lat="42.90631" lon="-0.20444">
        <ele>1171.5</ele>
        <time>2026-07-15T06:18:52Z</time>
      </trkpt>
      <trkpt lat="42.90631" lon="-0.20445">
        <ele>1171.5</ele>
        <time>2026-07-15T06:18:53Z</time>
      </trkpt>
      <trkpt lat="42.90632" lon="-0.20445">
        <ele>1171.5</ele>
        <time>2026-07-15T06:18:54Z</time>
      </trkpt>
      <trkpt lat="42.90632" lon="-0.20446">
        <ele>1171.5</ele>
        <time>2026-07-15T06:18:54Z</time>
      </trkpt>
      <trkpt lat="42.90632" lon="-0.20446">
        <ele>1171.5</ele>
        <time>2026-07-15T06:18:55Z</time>
      </trkpt>
      <trkpt lat="42.90632" lon="-0.20447">
        <ele>1170.5</ele>
        <time>2026-07-15T06:18:56Z</time>
      </trkpt>
      <trkpt lat="42.90632" lon="-0.20448">
        <ele>1170.5</ele>
        <time>2026-07-15T06:18:56Z</time>
      </trkpt>
      <trkpt lat="42.90632" lon="-0.20448">
        <ele>1170.5</ele>
        <time>2026-07-15T06:18:57Z</time>
      </trkpt>
      <trkpt lat="42.90632" lon="-0.20449">
        <ele>1170.5</ele>
        <time>2026-07-15T06:18:58Z</time>
      </trkpt>
      <trkpt lat="42.90632" lon="-0.20449">
        <ele>1170.5</ele>
        <time>2026-07-15T06:18:58Z</time>
      </trkpt>
      <trkpt lat="42.90632" lon="-0.2045">
        <ele>1170.5</ele>
        <time>2026-07-15T06:18:59Z</time>
      </trkpt>
      <trkpt lat="42.90632" lon="-0.20451">
        <ele>1169.5</ele>
        <time>2026-07-15T06:18:59Z</time>
      </trkpt>
      <trkpt lat="42.90632" lon="-0.20451">
        <ele>1169.5</ele>
        <time>2026-07-15T06:19:00Z</time>
      </trkpt>
      <trkpt lat="42.90632" lon="-0.20452">
        <ele>1169.5</ele>
        <time>2026-07-15T06:19:01Z</time>
      </trkpt>
      <trkpt lat="42.90632" lon="-0.20453">
        <ele>1168.5</ele>
        <time>2026-07-15T06:19:01Z</time>
      </trkpt>
      <trkpt lat="42.90633" lon="-0.20454">
        <ele>1168.5</ele>
        <time>2026-07-15T06:19:02Z</time>
      </trkpt>
      <trkpt lat="42.90632" lon="-0.20455">
        <ele>1168.5</ele>
        <time>2026-07-15T06:19:02Z</time>
      </trkpt>
      <trkpt lat="42.90633" lon="-0.20455">
        <ele>1168.5</ele>
        <time>2026-07-15T06:19:03Z</time>
      </trkpt>
      <trkpt lat="42.90632" lon="-0.20457">
        <ele>1168.5</ele>
        <time>2026-07-15T06:19:04Z</time>
      </trkpt>
      <trkpt lat="42.90632" lon="-0.20457">
        <ele>1168.5</ele>
        <time>2026-07-15T06:19:04Z</time>
      </trkpt>
      <trkpt lat="42.90632" lon="-0.20458">
        <ele>1168.5</ele>
        <time>2026-07-15T06:19:05Z</time>
      </trkpt>
      <trkpt lat="42.90632" lon="-0.20459">
        <ele>1168.5</ele>
        <time>2026-07-15T06:19:05Z</time>
      </trkpt>
      <trkpt lat="42.90632" lon="-0.2046">
        <ele>1168.5</ele>
        <time>2026-07-15T06:19:06Z</time>
      </trkpt>
      <trkpt lat="42.90632" lon="-0.20461">
        <ele>1168.5</ele>
        <time>2026-07-15T06:19:06Z</time>
      </trkpt>
      <trkpt lat="42.90632" lon="-0.20462">
        <ele>1168.5</ele>
        <time>2026-07-15T06:19:07Z</time>
      </trkpt>
      <trkpt lat="42.90631" lon="-0.20464">
        <ele>1168.5</ele>
        <time>2026-07-15T06:19:08Z</time>
      </trkpt>
      <trkpt lat="42.90631" lon="-0.20465">
        <ele>1168.5</ele>
        <time>2026-07-15T06:19:08Z</time>
      </trkpt>
      <trkpt lat="42.9063" lon="-0.20466">
        <ele>1168.5</ele>
        <time>2026-07-15T06:19:09Z</time>
      </trkpt>
      <trkpt lat="42.9063" lon="-0.20467">
        <ele>1168.5</ele>
        <time>2026-07-15T06:19:09Z</time>
      </trkpt>
      <trkpt lat="42.9063" lon="-0.20468">
        <ele>1168.5</ele>
        <time>2026-07-15T06:19:10Z</time>
      </trkpt>
      <trkpt lat="42.90629" lon="-0.20469">
        <ele>1167.5</ele>
        <time>2026-07-15T06:19:10Z</time>
      </trkpt>
      <trkpt lat="42.90629" lon="-0.20469">
        <ele>1167.5</ele>
        <time>2026-07-15T06:19:11Z</time>
      </trkpt>
      <trkpt lat="42.90629" lon="-0.2047">
        <ele>1168.5</ele>
        <time>2026-07-15T06:19:11Z</time>
      </trkpt>
      <trkpt lat="42.90628" lon="-0.20471">
        <ele>1168.5</ele>
        <time>2026-07-15T06:19:12Z</time>
      </trkpt>
      <trkpt lat="42.90628" lon="-0.20472">
        <ele>1167.5</ele>
        <time>2026-07-15T06:19:13Z</time>
      </trkpt>
      <trkpt lat="42.90627" lon="-0.20473">
        <ele>1167.5</ele>
        <time>2026-07-15T06:19:13Z</time>
      </trkpt>
      <trkpt lat="42.90627" lon="-0.20474">
        <ele>1167.5</ele>
        <time>2026-07-15T06:19:14Z</time>
      </trkpt>
      <trkpt lat="42.90627" lon="-0.20475">
        <ele>1167.5</ele>
        <time>2026-07-15T06:19:14Z</time>
      </trkpt>
      <trkpt lat="42.90626" lon="-0.20476">
        <ele>1167.5</ele>
        <time>2026-07-15T06:19:15Z</time>
      </trkpt>
      <trkpt lat="42.90626" lon="-0.20477">
        <ele>1167.5</ele>
        <time>2026-07-15T06:19:16Z</time>
      </trkpt>
      <trkpt lat="42.90625" lon="-0.20478">
        <ele>1166.5</ele>
        <time>2026-07-15T06:19:16Z</time>
      </trkpt>
      <trkpt lat="42.90625" lon="-0.20479">
        <ele>1166.5</ele>
        <time>2026-07-15T06:19:17Z</time>
      </trkpt>
      <trkpt lat="42.90624" lon="-0.2048">
        <ele>1166.5</ele>
        <time>2026-07-15T06:19:17Z</time>
      </trkpt>
      <trkpt lat="42.90624" lon="-0.2048">
        <ele>1166.5</ele>
        <time>2026-07-15T06:19:18Z</time>
      </trkpt>
      <trkpt lat="42.90623" lon="-0.20481">
        <ele>1166.5</ele>
        <time>2026-07-15T06:19:18Z</time>
      </trkpt>
      <trkpt lat="42.90623" lon="-0.20482">
        <ele>1166.5</ele>
        <time>2026-07-15T06:19:19Z</time>
      </trkpt>
      <trkpt lat="42.90622" lon="-0.20483">
        <ele>1166.5</ele>
        <time>2026-07-15T06:19:20Z</time>
      </trkpt>
      <trkpt lat="42.90621" lon="-0.20484">
        <ele>1166.5</ele>
        <time>2026-07-15T06:19:20Z</time>
      </trkpt>
      <trkpt lat="42.9062" lon="-0.20485">
        <ele>1166.5</ele>
        <time>2026-07-15T06:19:21Z</time>
      </trkpt>
      <trkpt lat="42.90619" lon="-0.20486">
        <ele>1166.5</ele>
        <time>2026-07-15T06:19:21Z</time>
      </trkpt>
      <trkpt lat="42.90619" lon="-0.20487">
        <ele>1166.5</ele>
        <time>2026-07-15T06:19:22Z</time>
      </trkpt>
      <trkpt lat="42.90618" lon="-0.20487">
        <ele>1166.5</ele>
        <time>2026-07-15T06:19:22Z</time>
      </trkpt>
      <trkpt lat="42.90618" lon="-0.20488">
        <ele>1166.5</ele>
        <time>2026-07-15T06:19:23Z</time>
      </trkpt>
      <trkpt lat="42.90617" lon="-0.20489">
        <ele>1166.5</ele>
        <time>2026-07-15T06:19:24Z</time>
      </trkpt>
      <trkpt lat="42.90616" lon="-0.20489">
        <ele>1166.5</ele>
        <time>2026-07-15T06:19:24Z</time>
      </trkpt>
      <trkpt lat="42.90616" lon="-0.2049">
        <ele>1166.5</ele>
        <time>2026-07-15T06:19:25Z</time>
      </trkpt>
      <trkpt lat="42.90615" lon="-0.20491">
        <ele>1165.5</ele>
        <time>2026-07-15T06:19:25Z</time>
      </trkpt>
      <trkpt lat="42.90615" lon="-0.20492">
        <ele>1165.5</ele>
        <time>2026-07-15T06:19:26Z</time>
      </trkpt>
      <trkpt lat="42.90615" lon="-0.20493">
        <ele>1165.5</ele>
        <time>2026-07-15T06:19:27Z</time>
      </trkpt>
      <trkpt lat="42.90614" lon="-0.20494">
        <ele>1165.5</ele>
        <time>2026-07-15T06:19:27Z</time>
      </trkpt>
      <trkpt lat="42.90614" lon="-0.20495">
        <ele>1166.5</ele>
        <time>2026-07-15T06:19:28Z</time>
      </trkpt>
      <trkpt lat="42.90614" lon="-0.20495">
        <ele>1167.5</ele>
        <time>2026-07-15T06:19:28Z</time>
      </trkpt>
      <trkpt lat="42.90614" lon="-0.20496">
        <ele>1167.5</ele>
        <time>2026-07-15T06:19:29Z</time>
      </trkpt>
      <trkpt lat="42.90614" lon="-0.20497">
        <ele>1167.5</ele>
        <time>2026-07-15T06:19:29Z</time>
      </trkpt>
      <trkpt lat="42.90613" lon="-0.20498">
        <ele>1167.5</ele>
        <time>2026-07-15T06:19:30Z</time>
      </trkpt>
      <trkpt lat="42.90614" lon="-0.20499">
        <ele>1168.5</ele>
        <time>2026-07-15T06:19:31Z</time>
      </trkpt>
      <trkpt lat="42.90614" lon="-0.205">
        <ele>1168.5</ele>
        <time>2026-07-15T06:19:31Z</time>
      </trkpt>
      <trkpt lat="42.90614" lon="-0.20501">
        <ele>1168.5</ele>
        <time>2026-07-15T06:19:32Z</time>
      </trkpt>
      <trkpt lat="42.90614" lon="-0.20502">
        <ele>1168.5</ele>
        <time>2026-07-15T06:19:32Z</time>
      </trkpt>
      <trkpt lat="42.90614" lon="-0.20503">
        <ele>1168.5</ele>
        <time>2026-07-15T06:19:33Z</time>
      </trkpt>
      <trkpt lat="42.90614" lon="-0.20503">
        <ele>1168.5</ele>
        <time>2026-07-15T06:19:33Z</time>
      </trkpt>
      <trkpt lat="42.90614" lon="-0.20504">
        <ele>1168.5</ele>
        <time>2026-07-15T06:19:34Z</time>
      </trkpt>
      <trkpt lat="42.90613" lon="-0.20505">
        <ele>1168.5</ele>
        <time>2026-07-15T06:19:35Z</time>
      </trkpt>
      <trkpt lat="42.90614" lon="-0.20506">
        <ele>1168.5</ele>
        <time>2026-07-15T06:19:35Z</time>
      </trkpt>
      <trkpt lat="42.90613" lon="-0.20507">
        <ele>1168.5</ele>
        <time>2026-07-15T06:19:36Z</time>
      </trkpt>
      <trkpt lat="42.90613" lon="-0.20508">
        <ele>1168.5</ele>
        <time>2026-07-15T06:19:36Z</time>
      </trkpt>
      <trkpt lat="42.90613" lon="-0.20509">
        <ele>1168.5</ele>
        <time>2026-07-15T06:19:37Z</time>
      </trkpt>
      <trkpt lat="42.90613" lon="-0.20509">
        <ele>1168.5</ele>
        <time>2026-07-15T06:19:38Z</time>
      </trkpt>
      <trkpt lat="42.90613" lon="-0.2051">
        <ele>1168.5</ele>
        <time>2026-07-15T06:19:38Z</time>
      </trkpt>
      <trkpt lat="42.90612" lon="-0.20511">
        <ele>1168.5</ele>
        <time>2026-07-15T06:19:39Z</time>
      </trkpt>
      <trkpt lat="42.90612" lon="-0.20511">
        <ele>1168.5</ele>
        <time>2026-07-15T06:19:39Z</time>
      </trkpt>
      <trkpt lat="42.90612" lon="-0.20512">
        <ele>1168.5</ele>
        <time>2026-07-15T06:19:40Z</time>
      </trkpt>
      <trkpt lat="42.90611" lon="-0.20513">
        <ele>1168.5</ele>
        <time>2026-07-15T06:19:40Z</time>
      </trkpt>
      <trkpt lat="42.90611" lon="-0.20514">
        <ele>1168.5</ele>
        <time>2026-07-15T06:19:41Z</time>
      </trkpt>
      <trkpt lat="42.9061" lon="-0.20515">
        <ele>1168.5</ele>
        <time>2026-07-15T06:19:42Z</time>
      </trkpt>
      <trkpt lat="42.9061" lon="-0.20516">
        <ele>1168.5</ele>
        <time>2026-07-15T06:19:43Z</time>
      </trkpt>
      <trkpt lat="42.9061" lon="-0.20517">
        <ele>1168.5</ele>
        <time>2026-07-15T06:19:43Z</time>
      </trkpt>
      <trkpt lat="42.90609" lon="-0.20517">
        <ele>1168.5</ele>
        <time>2026-07-15T06:19:44Z</time>
      </trkpt>
      <trkpt lat="42.90609" lon="-0.20518">
        <ele>1168.5</ele>
        <time>2026-07-15T06:19:45Z</time>
      </trkpt>
      <trkpt lat="42.90609" lon="-0.20519">
        <ele>1167.5</ele>
        <time>2026-07-15T06:19:45Z</time>
      </trkpt>
      <trkpt lat="42.90608" lon="-0.2052">
        <ele>1167.5</ele>
        <time>2026-07-15T06:19:46Z</time>
      </trkpt>
      <trkpt lat="42.90608" lon="-0.2052">
        <ele>1168.5</ele>
        <time>2026-07-15T06:19:46Z</time>
      </trkpt>
      <trkpt lat="42.90608" lon="-0.20521">
        <ele>1168.5</ele>
        <time>2026-07-15T06:19:47Z</time>
      </trkpt>
      <trkpt lat="42.90607" lon="-0.20522">
        <ele>1168.5</ele>
        <time>2026-07-15T06:19:47Z</time>
      </trkpt>
      <trkpt lat="42.90607" lon="-0.20523">
        <ele>1168.5</ele>
        <time>2026-07-15T06:19:48Z</time>
      </trkpt>
      <trkpt lat="42.90607" lon="-0.20523">
        <ele>1168.5</ele>
        <time>2026-07-15T06:19:49Z</time>
      </trkpt>
      <trkpt lat="42.90606" lon="-0.20524">
        <ele>1168.5</ele>
        <time>2026-07-15T06:19:49Z</time>
      </trkpt>
      <trkpt lat="42.90606" lon="-0.20525">
        <ele>1168.5</ele>
        <time>2026-07-15T06:19:50Z</time>
      </trkpt>
      <trkpt lat="42.90605" lon="-0.20525">
        <ele>1168.5</ele>
        <time>2026-07-15T06:19:50Z</time>
      </trkpt>
      <trkpt lat="42.90605" lon="-0.20526">
        <ele>1168.5</ele>
        <time>2026-07-15T06:19:51Z</time>
      </trkpt>
      <trkpt lat="42.90604" lon="-0.20527">
        <ele>1168.5</ele>
        <time>2026-07-15T06:19:51Z</time>
      </trkpt>
      <trkpt lat="42.90604" lon="-0.20527">
        <ele>1168.5</ele>
        <time>2026-07-15T06:19:52Z</time>
      </trkpt>
      <trkpt lat="42.90603" lon="-0.20528">
        <ele>1168.5</ele>
        <time>2026-07-15T06:19:52Z</time>
      </trkpt>
      <trkpt lat="42.90603" lon="-0.20529">
        <ele>1168.5</ele>
        <time>2026-07-15T06:19:53Z</time>
      </trkpt>
      <trkpt lat="42.90602" lon="-0.2053">
        <ele>1167.5</ele>
        <time>2026-07-15T06:19:54Z</time>
      </trkpt>
      <trkpt lat="42.90602" lon="-0.2053">
        <ele>1167.5</ele>
        <time>2026-07-15T06:19:54Z</time>
      </trkpt>
      <trkpt lat="42.90601" lon="-0.20531">
        <ele>1167.5</ele>
        <time>2026-07-15T06:19:55Z</time>
      </trkpt>
      <trkpt lat="42.90601" lon="-0.20532">
        <ele>1167.5</ele>
        <time>2026-07-15T06:19:55Z</time>
      </trkpt>
      <trkpt lat="42.90601" lon="-0.20533">
        <ele>1167.5</ele>
        <time>2026-07-15T06:19:56Z</time>
      </trkpt>
      <trkpt lat="42.906" lon="-0.20534">
        <ele>1166.5</ele>
        <time>2026-07-15T06:19:56Z</time>
      </trkpt>
      <trkpt lat="42.906" lon="-0.20534">
        <ele>1166.5</ele>
        <time>2026-07-15T06:19:57Z</time>
      </trkpt>
      <trkpt lat="42.90599" lon="-0.20535">
        <ele>1166.5</ele>
        <time>2026-07-15T06:19:58Z</time>
      </trkpt>
      <trkpt lat="42.90599" lon="-0.20536">
        <ele>1166.5</ele>
        <time>2026-07-15T06:19:58Z</time>
      </trkpt>
      <trkpt lat="42.90598" lon="-0.20536">
        <ele>1166.5</ele>
        <time>2026-07-15T06:19:59Z</time>
      </trkpt>
      <trkpt lat="42.90598" lon="-0.20537">
        <ele>1166.5</ele>
        <time>2026-07-15T06:19:59Z</time>
      </trkpt>
      <trkpt lat="42.90597" lon="-0.20538">
        <ele>1166.5</ele>
        <time>2026-07-15T06:20:00Z</time>
      </trkpt>
      <trkpt lat="42.90597" lon="-0.20539">
        <ele>1166.5</ele>
        <time>2026-07-15T06:20:00Z</time>
      </trkpt>
      <trkpt lat="42.90597" lon="-0.20539">
        <ele>1166.5</ele>
        <time>2026-07-15T06:20:01Z</time>
      </trkpt>
      <trkpt lat="42.90596" lon="-0.2054">
        <ele>1166.5</ele>
        <time>2026-07-15T06:20:02Z</time>
      </trkpt>
      <trkpt lat="42.90596" lon="-0.20541">
        <ele>1166.5</ele>
        <time>2026-07-15T06:20:02Z</time>
      </trkpt>
      <trkpt lat="42.90596" lon="-0.20542">
        <ele>1166.5</ele>
        <time>2026-07-15T06:20:03Z</time>
      </trkpt>
      <trkpt lat="42.90595" lon="-0.20543">
        <ele>1167.5</ele>
        <time>2026-07-15T06:20:04Z</time>
      </trkpt>
      <trkpt lat="42.90595" lon="-0.20544">
        <ele>1167.5</ele>
        <time>2026-07-15T06:20:04Z</time>
      </trkpt>
      <trkpt lat="42.90595" lon="-0.20545">
        <ele>1167.5</ele>
        <time>2026-07-15T06:20:05Z</time>
      </trkpt>
      <trkpt lat="42.90594" lon="-0.20545">
        <ele>1167.5</ele>
        <time>2026-07-15T06:20:05Z</time>
      </trkpt>
      <trkpt lat="42.90594" lon="-0.20546">
        <ele>1167.5</ele>
        <time>2026-07-15T06:20:06Z</time>
      </trkpt>
      <trkpt lat="42.90594" lon="-0.20547">
        <ele>1167.5</ele>
        <time>2026-07-15T06:20:06Z</time>
      </trkpt>
      <trkpt lat="42.90594" lon="-0.20548">
        <ele>1167.5</ele>
        <time>2026-07-15T06:20:07Z</time>
      </trkpt>
      <trkpt lat="42.90594" lon="-0.20549">
        <ele>1167.5</ele>
        <time>2026-07-15T06:20:08Z</time>
      </trkpt>
      <trkpt lat="42.90594" lon="-0.20549">
        <ele>1167.5</ele>
        <time>2026-07-15T06:20:08Z</time>
      </trkpt>
      <trkpt lat="42.90594" lon="-0.2055">
        <ele>1167.5</ele>
        <time>2026-07-15T06:20:09Z</time>
      </trkpt>
      <trkpt lat="42.90594" lon="-0.20551">
        <ele>1167.5</ele>
        <time>2026-07-15T06:20:09Z</time>
      </trkpt>
      <trkpt lat="42.90593" lon="-0.20552">
        <ele>1167.5</ele>
        <time>2026-07-15T06:20:10Z</time>
      </trkpt>
      <trkpt lat="42.90593" lon="-0.20553">
        <ele>1166.5</ele>
        <time>2026-07-15T06:20:11Z</time>
      </trkpt>
      <trkpt lat="42.90593" lon="-0.20554">
        <ele>1166.5</ele>
        <time>2026-07-15T06:20:11Z</time>
      </trkpt>
      <trkpt lat="42.90593" lon="-0.20555">
        <ele>1166.5</ele>
        <time>2026-07-15T06:20:12Z</time>
      </trkpt>
      <trkpt lat="42.90592" lon="-0.20555">
        <ele>1165.5</ele>
        <time>2026-07-15T06:20:12Z</time>
      </trkpt>
      <trkpt lat="42.90592" lon="-0.20556">
        <ele>1165.5</ele>
        <time>2026-07-15T06:20:13Z</time>
      </trkpt>
      <trkpt lat="42.90592" lon="-0.20557">
        <ele>1166.5</ele>
        <time>2026-07-15T06:20:13Z</time>
      </trkpt>
      <trkpt lat="42.90592" lon="-0.20558">
        <ele>1166.5</ele>
        <time>2026-07-15T06:20:14Z</time>
      </trkpt>
      <trkpt lat="42.90591" lon="-0.20559">
        <ele>1166.5</ele>
        <time>2026-07-15T06:20:15Z</time>
      </trkpt>
      <trkpt lat="42.90591" lon="-0.2056">
        <ele>1166.5</ele>
        <time>2026-07-15T06:20:15Z</time>
      </trkpt>
      <trkpt lat="42.90591" lon="-0.20561">
        <ele>1166.5</ele>
        <time>2026-07-15T06:20:16Z</time>
      </trkpt>
      <trkpt lat="42.90591" lon="-0.20561">
        <ele>1166.5</ele>
        <time>2026-07-15T06:20:16Z</time>
      </trkpt>
      <trkpt lat="42.9059" lon="-0.20562">
        <ele>1166.5</ele>
        <time>2026-07-15T06:20:17Z</time>
      </trkpt>
      <trkpt lat="42.9059" lon="-0.20563">
        <ele>1165.5</ele>
        <time>2026-07-15T06:20:17Z</time>
      </trkpt>
      <trkpt lat="42.9059" lon="-0.20564">
        <ele>1166.5</ele>
        <time>2026-07-15T06:20:18Z</time>
      </trkpt>
      <trkpt lat="42.9059" lon="-0.20565">
        <ele>1166.5</ele>
        <time>2026-07-15T06:20:19Z</time>
      </trkpt>
      <trkpt lat="42.9059" lon="-0.20565">
        <ele>1165.5</ele>
        <time>2026-07-15T06:20:19Z</time>
      </trkpt>
      <trkpt lat="42.9059" lon="-0.20566">
        <ele>1165.5</ele>
        <time>2026-07-15T06:20:20Z</time>
      </trkpt>
      <trkpt lat="42.90589" lon="-0.20567">
        <ele>1164.5</ele>
        <time>2026-07-15T06:20:20Z</time>
      </trkpt>
      <trkpt lat="42.90589" lon="-0.20567">
        <ele>1164.5</ele>
        <time>2026-07-15T06:20:21Z</time>
      </trkpt>
      <trkpt lat="42.90589" lon="-0.20568">
        <ele>1164.5</ele>
        <time>2026-07-15T06:20:22Z</time>
      </trkpt>
      <trkpt lat="42.90588" lon="-0.20569">
        <ele>1163.5</ele>
        <time>2026-07-15T06:20:22Z</time>
      </trkpt>
      <trkpt lat="42.90588" lon="-0.20569">
        <ele>1163.5</ele>
        <time>2026-07-15T06:20:23Z</time>
      </trkpt>
      <trkpt lat="42.90588" lon="-0.2057">
        <ele>1163.5</ele>
        <time>2026-07-15T06:20:23Z</time>
      </trkpt>
      <trkpt lat="42.90587" lon="-0.2057">
        <ele>1163.5</ele>
        <time>2026-07-15T06:20:24Z</time>
      </trkpt>
      <trkpt lat="42.90587" lon="-0.20571">
        <ele>1163.5</ele>
        <time>2026-07-15T06:20:25Z</time>
      </trkpt>
      <trkpt lat="42.90587" lon="-0.20571">
        <ele>1163.5</ele>
        <time>2026-07-15T06:20:25Z</time>
      </trkpt>
      <trkpt lat="42.90586" lon="-0.20571">
        <ele>1163.5</ele>
        <time>2026-07-15T06:20:26Z</time>
      </trkpt>
      <trkpt lat="42.90585" lon="-0.20572">
        <ele>1163.5</ele>
        <time>2026-07-15T06:20:27Z</time>
      </trkpt>
      <trkpt lat="42.90585" lon="-0.20572">
        <ele>1164.5</ele>
        <time>2026-07-15T06:20:27Z</time>
      </trkpt>
      <trkpt lat="42.90585" lon="-0.20572">
        <ele>1164.5</ele>
        <time>2026-07-15T06:20:28Z</time>
      </trkpt>
      <trkpt lat="42.90584" lon="-0.20573">
        <ele>1164.5</ele>
        <time>2026-07-15T06:20:29Z</time>
      </trkpt>
      <trkpt lat="42.90584" lon="-0.20573">
        <ele>1164.5</ele>
        <time>2026-07-15T06:20:29Z</time>
      </trkpt>
      <trkpt lat="42.90584" lon="-0.20574">
        <ele>1164.5</ele>
        <time>2026-07-15T06:20:30Z</time>
      </trkpt>
      <trkpt lat="42.90583" lon="-0.20574">
        <ele>1164.5</ele>
        <time>2026-07-15T06:20:31Z</time>
      </trkpt>
      <trkpt lat="42.90583" lon="-0.20575">
        <ele>1164.5</ele>
        <time>2026-07-15T06:20:31Z</time>
      </trkpt>
      <trkpt lat="42.90583" lon="-0.20575">
        <ele>1164.5</ele>
        <time>2026-07-15T06:20:32Z</time>
      </trkpt>
      <trkpt lat="42.90582" lon="-0.20576">
        <ele>1163.5</ele>
        <time>2026-07-15T06:20:33Z</time>
      </trkpt>
      <trkpt lat="42.90582" lon="-0.20576">
        <ele>1163.5</ele>
        <time>2026-07-15T06:20:33Z</time>
      </trkpt>
      <trkpt lat="42.90581" lon="-0.20577">
        <ele>1163.5</ele>
        <time>2026-07-15T06:20:34Z</time>
      </trkpt>
      <trkpt lat="42.90581" lon="-0.20577">
        <ele>1163.5</ele>
        <time>2026-07-15T06:20:35Z</time>
      </trkpt>
      <trkpt lat="42.9058" lon="-0.20578">
        <ele>1163.5</ele>
        <time>2026-07-15T06:20:36Z</time>
      </trkpt>
      <trkpt lat="42.9058" lon="-0.20578">
        <ele>1164.5</ele>
        <time>2026-07-15T06:20:36Z</time>
      </trkpt>
      <trkpt lat="42.90579" lon="-0.20579">
        <ele>1164.5</ele>
        <time>2026-07-15T06:20:37Z</time>
      </trkpt>
      <trkpt lat="42.90579" lon="-0.20579">
        <ele>1164.5</ele>
        <time>2026-07-15T06:20:38Z</time>
      </trkpt>
      <trkpt lat="42.90579" lon="-0.20579">
        <ele>1164.5</ele>
        <time>2026-07-15T06:20:38Z</time>
      </trkpt>
      <trkpt lat="42.90578" lon="-0.20579">
        <ele>1164.5</ele>
        <time>2026-07-15T06:20:39Z</time>
      </trkpt>
      <trkpt lat="42.90577" lon="-0.2058">
        <ele>1165.5</ele>
        <time>2026-07-15T06:20:40Z</time>
      </trkpt>
      <trkpt lat="42.90577" lon="-0.2058">
        <ele>1165.5</ele>
        <time>2026-07-15T06:20:40Z</time>
      </trkpt>
      <trkpt lat="42.90577" lon="-0.20581">
        <ele>1165.5</ele>
        <time>2026-07-15T06:20:41Z</time>
      </trkpt>
      <trkpt lat="42.90577" lon="-0.20582">
        <ele>1165.5</ele>
        <time>2026-07-15T06:20:42Z</time>
      </trkpt>
      <trkpt lat="42.90577" lon="-0.20583">
        <ele>1166.5</ele>
        <time>2026-07-15T06:20:43Z</time>
      </trkpt>
      <trkpt lat="42.90578" lon="-0.20583">
        <ele>1166.5</ele>
        <time>2026-07-15T06:20:43Z</time>
      </trkpt>
      <trkpt lat="42.90578" lon="-0.20584">
        <ele>1166.5</ele>
        <time>2026-07-15T06:20:44Z</time>
      </trkpt>
      <trkpt lat="42.90578" lon="-0.20585">
        <ele>1166.5</ele>
        <time>2026-07-15T06:20:45Z</time>
      </trkpt>
      <trkpt lat="42.90578" lon="-0.20585">
        <ele>1166.5</ele>
        <time>2026-07-15T06:20:45Z</time>
      </trkpt>
      <trkpt lat="42.90579" lon="-0.20586">
        <ele>1167.5</ele>
        <time>2026-07-15T06:20:46Z</time>
      </trkpt>
      <trkpt lat="42.90579" lon="-0.20587">
        <ele>1167.5</ele>
        <time>2026-07-15T06:20:47Z</time>
      </trkpt>
      <trkpt lat="42.90579" lon="-0.20588">
        <ele>1167.5</ele>
        <time>2026-07-15T06:20:48Z</time>
      </trkpt>
      <trkpt lat="42.90579" lon="-0.20588">
        <ele>1167.5</ele>
        <time>2026-07-15T06:20:48Z</time>
      </trkpt>
      <trkpt lat="42.90579" lon="-0.20589">
        <ele>1167.5</ele>
        <time>2026-07-15T06:20:49Z</time>
      </trkpt>
      <trkpt lat="42.90579" lon="-0.2059">
        <ele>1167.5</ele>
        <time>2026-07-15T06:20:49Z</time>
      </trkpt>
      <trkpt lat="42.90578" lon="-0.2059">
        <ele>1167.5</ele>
        <time>2026-07-15T06:20:50Z</time>
      </trkpt>
      <trkpt lat="42.90578" lon="-0.20591">
        <ele>1167.5</ele>
        <time>2026-07-15T06:20:51Z</time>
      </trkpt>
      <trkpt lat="42.90578" lon="-0.20592">
        <ele>1167.5</ele>
        <time>2026-07-15T06:20:52Z</time>
      </trkpt>
      <trkpt lat="42.90578" lon="-0.20593">
        <ele>1167.5</ele>
        <time>2026-07-15T06:20:52Z</time>
      </trkpt>
      <trkpt lat="42.90577" lon="-0.20593">
        <ele>1167.5</ele>
        <time>2026-07-15T06:20:53Z</time>
      </trkpt>
      <trkpt lat="42.90577" lon="-0.20594">
        <ele>1168.5</ele>
        <time>2026-07-15T06:20:54Z</time>
      </trkpt>
      <trkpt lat="42.90577" lon="-0.20594">
        <ele>1167.5</ele>
        <time>2026-07-15T06:20:54Z</time>
      </trkpt>
      <trkpt lat="42.90577" lon="-0.20596">
        <ele>1167.5</ele>
        <time>2026-07-15T06:20:55Z</time>
      </trkpt>
      <trkpt lat="42.90578" lon="-0.20596">
        <ele>1167.5</ele>
        <time>2026-07-15T06:20:56Z</time>
      </trkpt>
      <trkpt lat="42.90578" lon="-0.20597">
        <ele>1168.5</ele>
        <time>2026-07-15T06:20:56Z</time>
      </trkpt>
      <trkpt lat="42.90578" lon="-0.20597">
        <ele>1168.5</ele>
        <time>2026-07-15T06:20:57Z</time>
      </trkpt>
      <trkpt lat="42.90578" lon="-0.20598">
        <ele>1167.5</ele>
        <time>2026-07-15T06:20:57Z</time>
      </trkpt>
      <trkpt lat="42.90578" lon="-0.20598">
        <ele>1167.5</ele>
        <time>2026-07-15T06:20:58Z</time>
      </trkpt>
      <trkpt lat="42.90578" lon="-0.20599">
        <ele>1167.5</ele>
        <time>2026-07-15T06:20:59Z</time>
      </trkpt>
      <trkpt lat="42.90578" lon="-0.206">
        <ele>1167.5</ele>
        <time>2026-07-15T06:21:00Z</time>
      </trkpt>
      <trkpt lat="42.90578" lon="-0.206">
        <ele>1167.5</ele>
        <time>2026-07-15T06:21:00Z</time>
      </trkpt>
      <trkpt lat="42.90578" lon="-0.20601">
        <ele>1167.5</ele>
        <time>2026-07-15T06:21:01Z</time>
      </trkpt>
      <trkpt lat="42.90578" lon="-0.20602">
        <ele>1167.5</ele>
        <time>2026-07-15T06:21:02Z</time>
      </trkpt>
      <trkpt lat="42.90577" lon="-0.20602">
        <ele>1167.5</ele>
        <time>2026-07-15T06:21:02Z</time>
      </trkpt>
      <trkpt lat="42.90577" lon="-0.20603">
        <ele>1167.5</ele>
        <time>2026-07-15T06:21:03Z</time>
      </trkpt>
      <trkpt lat="42.90576" lon="-0.20603">
        <ele>1167.5</ele>
        <time>2026-07-15T06:21:04Z</time>
      </trkpt>
      <trkpt lat="42.90576" lon="-0.20604">
        <ele>1167.5</ele>
        <time>2026-07-15T06:21:04Z</time>
      </trkpt>
      <trkpt lat="42.90575" lon="-0.20604">
        <ele>1167.5</ele>
        <time>2026-07-15T06:21:05Z</time>
      </trkpt>
      <trkpt lat="42.90575" lon="-0.20605">
        <ele>1167.5</ele>
        <time>2026-07-15T06:21:06Z</time>
      </trkpt>
      <trkpt lat="42.90575" lon="-0.20606">
        <ele>1167.5</ele>
        <time>2026-07-15T06:21:07Z</time>
      </trkpt>
      <trkpt lat="42.90574" lon="-0.20606">
        <ele>1167.5</ele>
        <time>2026-07-15T06:21:07Z</time>
      </trkpt>
      <trkpt lat="42.90574" lon="-0.20607">
        <ele>1167.5</ele>
        <time>2026-07-15T06:21:08Z</time>
      </trkpt>
      <trkpt lat="42.90574" lon="-0.20607">
        <ele>1166.5</ele>
        <time>2026-07-15T06:21:08Z</time>
      </trkpt>
      <trkpt lat="42.90574" lon="-0.20608">
        <ele>1166.5</ele>
        <time>2026-07-15T06:21:09Z</time>
      </trkpt>
      <trkpt lat="42.90573" lon="-0.20608">
        <ele>1166.5</ele>
        <time>2026-07-15T06:21:10Z</time>
      </trkpt>
      <trkpt lat="42.90573" lon="-0.20609">
        <ele>1166.5</ele>
        <time>2026-07-15T06:21:11Z</time>
      </trkpt>
      <trkpt lat="42.90573" lon="-0.20609">
        <ele>1167.5</ele>
        <time>2026-07-15T06:21:11Z</time>
      </trkpt>
      <trkpt lat="42.90572" lon="-0.2061">
        <ele>1167.5</ele>
        <time>2026-07-15T06:21:12Z</time>
      </trkpt>
      <trkpt lat="42.90572" lon="-0.2061">
        <ele>1167.5</ele>
        <time>2026-07-15T06:21:13Z</time>
      </trkpt>
      <trkpt lat="42.90571" lon="-0.20611">
        <ele>1167.5</ele>
        <time>2026-07-15T06:21:13Z</time>
      </trkpt>
      <trkpt lat="42.90571" lon="-0.20611">
        <ele>1167.5</ele>
        <time>2026-07-15T06:21:14Z</time>
      </trkpt>
      <trkpt lat="42.9057" lon="-0.20611">
        <ele>1167.5</ele>
        <time>2026-07-15T06:21:15Z</time>
      </trkpt>
      <trkpt lat="42.90569" lon="-0.20611">
        <ele>1167.5</ele>
        <time>2026-07-15T06:21:16Z</time>
      </trkpt>
      <trkpt lat="42.90569" lon="-0.2061">
        <ele>1167.5</ele>
        <time>2026-07-15T06:21:17Z</time>
      </trkpt>
      <trkpt lat="42.90568" lon="-0.2061">
        <ele>1167.5</ele>
        <time>2026-07-15T06:21:17Z</time>
      </trkpt>
      <trkpt lat="42.90567" lon="-0.20609">
        <ele>1168.5</ele>
        <time>2026-07-15T06:21:18Z</time>
      </trkpt>
      <trkpt lat="42.90566" lon="-0.20609">
        <ele>1168.5</ele>
        <time>2026-07-15T06:21:19Z</time>
      </trkpt>
      <trkpt lat="42.90566" lon="-0.20609">
        <ele>1168.5</ele>
        <time>2026-07-15T06:21:20Z</time>
      </trkpt>
      <trkpt lat="42.90565" lon="-0.20608">
        <ele>1168.5</ele>
        <time>2026-07-15T06:21:20Z</time>
      </trkpt>
      <trkpt lat="42.90565" lon="-0.20608">
        <ele>1168.5</ele>
        <time>2026-07-15T06:21:21Z</time>
      </trkpt>
      <trkpt lat="42.90564" lon="-0.20608">
        <ele>1168.5</ele>
        <time>2026-07-15T06:21:22Z</time>
      </trkpt>
      <trkpt lat="42.90563" lon="-0.20608">
        <ele>1168.5</ele>
        <time>2026-07-15T06:21:23Z</time>
      </trkpt>
      <trkpt lat="42.90563" lon="-0.20609">
        <ele>1169.5</ele>
        <time>2026-07-15T06:21:23Z</time>
      </trkpt>
      <trkpt lat="42.90562" lon="-0.20609">
        <ele>1169.5</ele>
        <time>2026-07-15T06:21:24Z</time>
      </trkpt>
      <trkpt lat="42.90562" lon="-0.20609">
        <ele>1168.5</ele>
        <time>2026-07-15T06:21:25Z</time>
      </trkpt>
      <trkpt lat="42.90561" lon="-0.20609">
        <ele>1169.5</ele>
        <time>2026-07-15T06:21:26Z</time>
      </trkpt>
      <trkpt lat="42.90561" lon="-0.2061">
        <ele>1168.5</ele>
        <time>2026-07-15T06:21:26Z</time>
      </trkpt>
      <trkpt lat="42.9056" lon="-0.2061">
        <ele>1168.5</ele>
        <time>2026-07-15T06:21:27Z</time>
      </trkpt>
      <trkpt lat="42.9056" lon="-0.20611">
        <ele>1169.5</ele>
        <time>2026-07-15T06:21:28Z</time>
      </trkpt>
      <trkpt lat="42.90559" lon="-0.20611">
        <ele>1168.5</ele>
        <time>2026-07-15T06:21:28Z</time>
      </trkpt>
      <trkpt lat="42.90559" lon="-0.20611">
        <ele>1168.5</ele>
        <time>2026-07-15T06:21:29Z</time>
      </trkpt>
      <trkpt lat="42.90558" lon="-0.20611">
        <ele>1168.5</ele>
        <time>2026-07-15T06:21:30Z</time>
      </trkpt>
      <trkpt lat="42.90558" lon="-0.20612">
        <ele>1168.5</ele>
        <time>2026-07-15T06:21:31Z</time>
      </trkpt>
      <trkpt lat="42.90557" lon="-0.20612">
        <ele>1168.5</ele>
        <time>2026-07-15T06:21:32Z</time>
      </trkpt>
      <trkpt lat="42.90556" lon="-0.20612">
        <ele>1167.5</ele>
        <time>2026-07-15T06:21:32Z</time>
      </trkpt>
      <trkpt lat="42.90556" lon="-0.20612">
        <ele>1168.5</ele>
        <time>2026-07-15T06:21:33Z</time>
      </trkpt>
      <trkpt lat="42.90555" lon="-0.20612">
        <ele>1168.5</ele>
        <time>2026-07-15T06:21:34Z</time>
      </trkpt>
      <trkpt lat="42.90555" lon="-0.20613">
        <ele>1168.5</ele>
        <time>2026-07-15T06:21:35Z</time>
      </trkpt>
      <trkpt lat="42.90555" lon="-0.20613">
        <ele>1168.5</ele>
        <time>2026-07-15T06:21:36Z</time>
      </trkpt>
      <trkpt lat="42.90554" lon="-0.20613">
        <ele>1169.5</ele>
        <time>2026-07-15T06:21:36Z</time>
      </trkpt>
      <trkpt lat="42.90554" lon="-0.20614">
        <ele>1169.5</ele>
        <time>2026-07-15T06:21:37Z</time>
      </trkpt>
      <trkpt lat="42.90554" lon="-0.20614">
        <ele>1168.5</ele>
        <time>2026-07-15T06:21:38Z</time>
      </trkpt>
      <trkpt lat="42.90554" lon="-0.20615">
        <ele>1168.5</ele>
        <time>2026-07-15T06:21:39Z</time>
      </trkpt>
      <trkpt lat="42.90553" lon="-0.20615">
        <ele>1168.5</ele>
        <time>2026-07-15T06:21:39Z</time>
      </trkpt>
      <trkpt lat="42.90553" lon="-0.20616">
        <ele>1168.5</ele>
        <time>2026-07-15T06:21:40Z</time>
      </trkpt>
      <trkpt lat="42.90553" lon="-0.20616">
        <ele>1168.5</ele>
        <time>2026-07-15T06:21:41Z</time>
      </trkpt>
      <trkpt lat="42.90552" lon="-0.20617">
        <ele>1168.5</ele>
        <time>2026-07-15T06:21:41Z</time>
      </trkpt>
      <trkpt lat="42.90552" lon="-0.20617">
        <ele>1168.5</ele>
        <time>2026-07-15T06:21:42Z</time>
      </trkpt>
      <trkpt lat="42.90551" lon="-0.20617">
        <ele>1168.5</ele>
        <time>2026-07-15T06:21:43Z</time>
      </trkpt>
      <trkpt lat="42.9055" lon="-0.20617">
        <ele>1167.5</ele>
        <time>2026-07-15T06:21:43Z</time>
      </trkpt>
      <trkpt lat="42.9055" lon="-0.20617">
        <ele>1167.5</ele>
        <time>2026-07-15T06:21:44Z</time>
      </trkpt>
      <trkpt lat="42.90549" lon="-0.20617">
        <ele>1167.5</ele>
        <time>2026-07-15T06:21:45Z</time>
      </trkpt>
      <trkpt lat="42.90549" lon="-0.20617">
        <ele>1167.5</ele>
        <time>2026-07-15T06:21:45Z</time>
      </trkpt>
      <trkpt lat="42.90548" lon="-0.20617">
        <ele>1167.5</ele>
        <time>2026-07-15T06:21:46Z</time>
      </trkpt>
      <trkpt lat="42.90547" lon="-0.20618">
        <ele>1167.5</ele>
        <time>2026-07-15T06:21:47Z</time>
      </trkpt>
      <trkpt lat="42.90547" lon="-0.20618">
        <ele>1167.5</ele>
        <time>2026-07-15T06:21:47Z</time>
      </trkpt>
      <trkpt lat="42.90547" lon="-0.20618">
        <ele>1167.5</ele>
        <time>2026-07-15T06:21:48Z</time>
      </trkpt>
      <trkpt lat="42.90546" lon="-0.20618">
        <ele>1167.5</ele>
        <time>2026-07-15T06:21:49Z</time>
      </trkpt>
      <trkpt lat="42.90546" lon="-0.20619">
        <ele>1167.5</ele>
        <time>2026-07-15T06:21:49Z</time>
      </trkpt>
      <trkpt lat="42.90545" lon="-0.20619">
        <ele>1167.5</ele>
        <time>2026-07-15T06:21:50Z</time>
      </trkpt>
      <trkpt lat="42.90545" lon="-0.2062">
        <ele>1167.5</ele>
        <time>2026-07-15T06:21:51Z</time>
      </trkpt>
      <trkpt lat="42.90544" lon="-0.2062">
        <ele>1167.5</ele>
        <time>2026-07-15T06:21:52Z</time>
      </trkpt>
      <trkpt lat="42.90544" lon="-0.20621">
        <ele>1168.5</ele>
        <time>2026-07-15T06:21:52Z</time>
      </trkpt>
      <trkpt lat="42.90544" lon="-0.20621">
        <ele>1168.5</ele>
        <time>2026-07-15T06:21:53Z</time>
      </trkpt>
      <trkpt lat="42.90543" lon="-0.20622">
        <ele>1168.5</ele>
        <time>2026-07-15T06:21:54Z</time>
      </trkpt>
      <trkpt lat="42.90543" lon="-0.20622">
        <ele>1168.5</ele>
        <time>2026-07-15T06:21:54Z</time>
      </trkpt>
      <trkpt lat="42.90543" lon="-0.20623">
        <ele>1168.5</ele>
        <time>2026-07-15T06:21:55Z</time>
      </trkpt>
      <trkpt lat="42.90542" lon="-0.20623">
        <ele>1168.5</ele>
        <time>2026-07-15T06:21:56Z</time>
      </trkpt>
      <trkpt lat="42.90542" lon="-0.20624">
        <ele>1168.5</ele>
        <time>2026-07-15T06:21:56Z</time>
      </trkpt>
      <trkpt lat="42.90542" lon="-0.20625">
        <ele>1168.5</ele>
        <time>2026-07-15T06:21:57Z</time>
      </trkpt>
      <trkpt lat="42.90542" lon="-0.20626">
        <ele>1168.5</ele>
        <time>2026-07-15T06:21:58Z</time>
      </trkpt>
      <trkpt lat="42.90541" lon="-0.20626">
        <ele>1168.5</ele>
        <time>2026-07-15T06:21:58Z</time>
      </trkpt>
      <trkpt lat="42.90541" lon="-0.20627">
        <ele>1168.5</ele>
        <time>2026-07-15T06:21:59Z</time>
      </trkpt>
      <trkpt lat="42.90541" lon="-0.20628">
        <ele>1168.5</ele>
        <time>2026-07-15T06:21:59Z</time>
      </trkpt>
      <trkpt lat="42.90541" lon="-0.20629">
        <ele>1167.5</ele>
        <time>2026-07-15T06:22:00Z</time>
      </trkpt>
      <trkpt lat="42.90541" lon="-0.20629">
        <ele>1167.5</ele>
        <time>2026-07-15T06:22:01Z</time>
      </trkpt>
      <trkpt lat="42.9054" lon="-0.2063">
        <ele>1167.5</ele>
        <time>2026-07-15T06:22:01Z</time>
      </trkpt>
      <trkpt lat="42.9054" lon="-0.2063">
        <ele>1167.5</ele>
        <time>2026-07-15T06:22:02Z</time>
      </trkpt>
      <trkpt lat="42.9054" lon="-0.20631">
        <ele>1167.5</ele>
        <time>2026-07-15T06:22:03Z</time>
      </trkpt>
      <trkpt lat="42.90539" lon="-0.20632">
        <ele>1167.5</ele>
        <time>2026-07-15T06:22:04Z</time>
      </trkpt>
      <trkpt lat="42.90539" lon="-0.20632">
        <ele>1167.5</ele>
        <time>2026-07-15T06:22:04Z</time>
      </trkpt>
      <trkpt lat="42.90539" lon="-0.20633">
        <ele>1167.5</ele>
        <time>2026-07-15T06:22:05Z</time>
      </trkpt>
      <trkpt lat="42.90539" lon="-0.20634">
        <ele>1167.5</ele>
        <time>2026-07-15T06:22:06Z</time>
      </trkpt>
      <trkpt lat="42.90538" lon="-0.20634">
        <ele>1167.5</ele>
        <time>2026-07-15T06:22:06Z</time>
      </trkpt>
      <trkpt lat="42.90538" lon="-0.20635">
        <ele>1167.5</ele>
        <time>2026-07-15T06:22:07Z</time>
      </trkpt>
      <trkpt lat="42.90538" lon="-0.20636">
        <ele>1167.5</ele>
        <time>2026-07-15T06:22:08Z</time>
      </trkpt>
      <trkpt lat="42.90538" lon="-0.20636">
        <ele>1167.5</ele>
        <time>2026-07-15T06:22:09Z</time>
      </trkpt>
      <trkpt lat="42.90538" lon="-0.20636">
        <ele>1168.5</ele>
        <time>2026-07-15T06:22:09Z</time>
      </trkpt>
      <trkpt lat="42.90537" lon="-0.20637">
        <ele>1168.5</ele>
        <time>2026-07-15T06:22:10Z</time>
      </trkpt>
      <trkpt lat="42.90537" lon="-0.20638">
        <ele>1168.5</ele>
        <time>2026-07-15T06:22:11Z</time>
      </trkpt>
      <trkpt lat="42.90537" lon="-0.20639">
        <ele>1168.5</ele>
        <time>2026-07-15T06:22:11Z</time>
      </trkpt>
      <trkpt lat="42.90537" lon="-0.20639">
        <ele>1168.5</ele>
        <time>2026-07-15T06:22:12Z</time>
      </trkpt>
      <trkpt lat="42.90536" lon="-0.2064">
        <ele>1169.5</ele>
        <time>2026-07-15T06:22:13Z</time>
      </trkpt>
      <trkpt lat="42.90536" lon="-0.20641">
        <ele>1168.5</ele>
        <time>2026-07-15T06:22:14Z</time>
      </trkpt>
      <trkpt lat="42.90536" lon="-0.20641">
        <ele>1168.5</ele>
        <time>2026-07-15T06:22:14Z</time>
      </trkpt>
      <trkpt lat="42.90536" lon="-0.20642">
        <ele>1168.5</ele>
        <time>2026-07-15T06:22:15Z</time>
      </trkpt>
      <trkpt lat="42.90536" lon="-0.20643">
        <ele>1168.5</ele>
        <time>2026-07-15T06:22:16Z</time>
      </trkpt>
      <trkpt lat="42.90535" lon="-0.20643">
        <ele>1169.5</ele>
        <time>2026-07-15T06:22:16Z</time>
      </trkpt>
      <trkpt lat="42.90535" lon="-0.20644">
        <ele>1169.5</ele>
        <time>2026-07-15T06:22:17Z</time>
      </trkpt>
      <trkpt lat="42.90535" lon="-0.20644">
        <ele>1168.5</ele>
        <time>2026-07-15T06:22:18Z</time>
      </trkpt>
      <trkpt lat="42.90535" lon="-0.20645">
        <ele>1169.5</ele>
        <time>2026-07-15T06:22:19Z</time>
      </trkpt>
      <trkpt lat="42.90535" lon="-0.20645">
        <ele>1169.5</ele>
        <time>2026-07-15T06:22:19Z</time>
      </trkpt>
      <trkpt lat="42.90535" lon="-0.20646">
        <ele>1169.5</ele>
        <time>2026-07-15T06:22:20Z</time>
      </trkpt>
      <trkpt lat="42.90535" lon="-0.20647">
        <ele>1169.5</ele>
        <time>2026-07-15T06:22:21Z</time>
      </trkpt>
      <trkpt lat="42.90535" lon="-0.20647">
        <ele>1169.5</ele>
        <time>2026-07-15T06:22:22Z</time>
      </trkpt>
      <trkpt lat="42.90535" lon="-0.20648">
        <ele>1169.5</ele>
        <time>2026-07-15T06:22:23Z</time>
      </trkpt>
      <trkpt lat="42.90535" lon="-0.20648">
        <ele>1169.5</ele>
        <time>2026-07-15T06:22:23Z</time>
      </trkpt>
      <trkpt lat="42.90535" lon="-0.20648">
        <ele>1169.5</ele>
        <time>2026-07-15T06:22:24Z</time>
      </trkpt>
      <trkpt lat="42.90535" lon="-0.20649">
        <ele>1169.5</ele>
        <time>2026-07-15T06:22:25Z</time>
      </trkpt>
      <trkpt lat="42.90535" lon="-0.20649">
        <ele>1169.5</ele>
        <time>2026-07-15T06:22:26Z</time>
      </trkpt>
      <trkpt lat="42.90534" lon="-0.2065">
        <ele>1170.5</ele>
        <time>2026-07-15T06:22:27Z</time>
      </trkpt>
      <trkpt lat="42.90534" lon="-0.2065">
        <ele>1170.5</ele>
        <time>2026-07-15T06:22:27Z</time>
      </trkpt>
      <trkpt lat="42.90534" lon="-0.20651">
        <ele>1170.5</ele>
        <time>2026-07-15T06:22:28Z</time>
      </trkpt>
      <trkpt lat="42.90534" lon="-0.20652">
        <ele>1171.5</ele>
        <time>2026-07-15T06:22:29Z</time>
      </trkpt>
      <trkpt lat="42.90534" lon="-0.20652">
        <ele>1170.5</ele>
        <time>2026-07-15T06:22:30Z</time>
      </trkpt>
      <trkpt lat="42.90534" lon="-0.20652">
        <ele>1170.5</ele>
        <time>2026-07-15T06:22:30Z</time>
      </trkpt>
      <trkpt lat="42.90533" lon="-0.20653">
        <ele>1170.5</ele>
        <time>2026-07-15T06:22:31Z</time>
      </trkpt>
      <trkpt lat="42.90533" lon="-0.20653">
        <ele>1171.5</ele>
        <time>2026-07-15T06:22:32Z</time>
      </trkpt>
      <trkpt lat="42.90533" lon="-0.20654">
        <ele>1171.5</ele>
        <time>2026-07-15T06:22:33Z</time>
      </trkpt>
      <trkpt lat="42.90533" lon="-0.20654">
        <ele>1171.5</ele>
        <time>2026-07-15T06:22:33Z</time>
      </trkpt>
      <trkpt lat="42.90533" lon="-0.20655">
        <ele>1171.5</ele>
        <time>2026-07-15T06:22:34Z</time>
      </trkpt>
      <trkpt lat="42.90533" lon="-0.20656">
        <ele>1170.5</ele>
        <time>2026-07-15T06:22:35Z</time>
      </trkpt>
      <trkpt lat="42.90533" lon="-0.20656">
        <ele>1170.5</ele>
        <time>2026-07-15T06:22:36Z</time>
      </trkpt>
      <trkpt lat="42.90533" lon="-0.20657">
        <ele>1171.5</ele>
        <time>2026-07-15T06:22:36Z</time>
      </trkpt>
      <trkpt lat="42.90532" lon="-0.20658">
        <ele>1171.5</ele>
        <time>2026-07-15T06:22:37Z</time>
      </trkpt>
      <trkpt lat="42.90532" lon="-0.20658">
        <ele>1171.5</ele>
        <time>2026-07-15T06:22:38Z</time>
      </trkpt>
      <trkpt lat="42.90531" lon="-0.20659">
        <ele>1171.5</ele>
        <time>2026-07-15T06:22:39Z</time>
      </trkpt>
      <trkpt lat="42.90531" lon="-0.20659">
        <ele>1171.5</ele>
        <time>2026-07-15T06:22:39Z</time>
      </trkpt>
      <trkpt lat="42.90531" lon="-0.2066">
        <ele>1171.5</ele>
        <time>2026-07-15T06:22:40Z</time>
      </trkpt>
      <trkpt lat="42.90531" lon="-0.2066">
        <ele>1171.5</ele>
        <time>2026-07-15T06:22:41Z</time>
      </trkpt>
      <trkpt lat="42.9053" lon="-0.20661">
        <ele>1171.5</ele>
        <time>2026-07-15T06:22:42Z</time>
      </trkpt>
      <trkpt lat="42.9053" lon="-0.20662">
        <ele>1171.5</ele>
        <time>2026-07-15T06:22:43Z</time>
      </trkpt>
      <trkpt lat="42.9053" lon="-0.20663">
        <ele>1171.5</ele>
        <time>2026-07-15T06:22:44Z</time>
      </trkpt>
      <trkpt lat="42.9053" lon="-0.20663">
        <ele>1171.5</ele>
        <time>2026-07-15T06:22:44Z</time>
      </trkpt>
      <trkpt lat="42.9053" lon="-0.20664">
        <ele>1172.5</ele>
        <time>2026-07-15T06:22:45Z</time>
      </trkpt>
      <trkpt lat="42.90529" lon="-0.20664">
        <ele>1172.5</ele>
        <time>2026-07-15T06:22:46Z</time>
      </trkpt>
      <trkpt lat="42.90529" lon="-0.20665">
        <ele>1172.5</ele>
        <time>2026-07-15T06:22:47Z</time>
      </trkpt>
      <trkpt lat="42.90528" lon="-0.20665">
        <ele>1173.5</ele>
        <time>2026-07-15T06:22:48Z</time>
      </trkpt>
      <trkpt lat="42.90528" lon="-0.20665">
        <ele>1174.5</ele>
        <time>2026-07-15T06:22:49Z</time>
      </trkpt>
      <trkpt lat="42.90527" lon="-0.20665">
        <ele>1175.5</ele>
        <time>2026-07-15T06:22:50Z</time>
      </trkpt>
      <trkpt lat="42.90527" lon="-0.20664">
        <ele>1176.5</ele>
        <time>2026-07-15T06:22:50Z</time>
      </trkpt>
      <trkpt lat="42.90526" lon="-0.20665">
        <ele>1176.5</ele>
        <time>2026-07-15T06:22:51Z</time>
      </trkpt>
      <trkpt lat="42.90526" lon="-0.20665">
        <ele>1176.5</ele>
        <time>2026-07-15T06:22:52Z</time>
      </trkpt>
      <trkpt lat="42.90525" lon="-0.20666">
        <ele>1176.5</ele>
        <time>2026-07-15T06:22:53Z</time>
      </trkpt>
      <trkpt lat="42.90525" lon="-0.20667">
        <ele>1176.5</ele>
        <time>2026-07-15T06:22:53Z</time>
      </trkpt>
      <trkpt lat="42.90525" lon="-0.20667">
        <ele>1176.5</ele>
        <time>2026-07-15T06:22:54Z</time>
      </trkpt>
      <trkpt lat="42.90525" lon="-0.20668">
        <ele>1176.5</ele>
        <time>2026-07-15T06:22:55Z</time>
      </trkpt>
      <trkpt lat="42.90524" lon="-0.20669">
        <ele>1176.5</ele>
        <time>2026-07-15T06:22:56Z</time>
      </trkpt>
      <trkpt lat="42.90524" lon="-0.20669">
        <ele>1175.5</ele>
        <time>2026-07-15T06:22:57Z</time>
      </trkpt>
      <trkpt lat="42.90524" lon="-0.20669">
        <ele>1175.5</ele>
        <time>2026-07-15T06:22:57Z</time>
      </trkpt>
      <trkpt lat="42.90523" lon="-0.2067">
        <ele>1175.5</ele>
        <time>2026-07-15T06:22:58Z</time>
      </trkpt>
      <trkpt lat="42.90523" lon="-0.20671">
        <ele>1175.5</ele>
        <time>2026-07-15T06:22:59Z</time>
      </trkpt>
      <trkpt lat="42.90522" lon="-0.20672">
        <ele>1175.5</ele>
        <time>2026-07-15T06:23:00Z</time>
      </trkpt>
      <trkpt lat="42.90522" lon="-0.20672">
        <ele>1176.5</ele>
        <time>2026-07-15T06:23:00Z</time>
      </trkpt>
      <trkpt lat="42.90522" lon="-0.20672">
        <ele>1176.5</ele>
        <time>2026-07-15T06:23:01Z</time>
      </trkpt>
      <trkpt lat="42.90521" lon="-0.20673">
        <ele>1176.5</ele>
        <time>2026-07-15T06:23:02Z</time>
      </trkpt>
      <trkpt lat="42.90521" lon="-0.20673">
        <ele>1176.5</ele>
        <time>2026-07-15T06:23:03Z</time>
      </trkpt>
      <trkpt lat="42.90521" lon="-0.20673">
        <ele>1176.5</ele>
        <time>2026-07-15T06:23:03Z</time>
      </trkpt>
      <trkpt lat="42.90522" lon="-0.20673">
        <ele>1176.5</ele>
        <time>2026-07-15T06:23:04Z</time>
      </trkpt>
      <trkpt lat="42.90522" lon="-0.20673">
        <ele>1176.5</ele>
        <time>2026-07-15T06:23:05Z</time>
      </trkpt>
      <trkpt lat="42.90521" lon="-0.20673">
        <ele>1176.5</ele>
        <time>2026-07-15T06:23:06Z</time>
      </trkpt>
      <trkpt lat="42.90521" lon="-0.20673">
        <ele>1176.5</ele>
        <time>2026-07-15T06:23:07Z</time>
      </trkpt>
      <trkpt lat="42.9052" lon="-0.20672">
        <ele>1176.5</ele>
        <time>2026-07-15T06:23:08Z</time>
      </trkpt>
      <trkpt lat="42.90519" lon="-0.20672">
        <ele>1176.5</ele>
        <time>2026-07-15T06:23:08Z</time>
      </trkpt>
      <trkpt lat="42.90519" lon="-0.20671">
        <ele>1176.5</ele>
        <time>2026-07-15T06:23:09Z</time>
      </trkpt>
      <trkpt lat="42.90518" lon="-0.20671">
        <ele>1177.5</ele>
        <time>2026-07-15T06:23:10Z</time>
      </trkpt>
      <trkpt lat="42.90517" lon="-0.2067">
        <ele>1177.5</ele>
        <time>2026-07-15T06:23:11Z</time>
      </trkpt>
      <trkpt lat="42.90517" lon="-0.20671">
        <ele>1177.5</ele>
        <time>2026-07-15T06:23:12Z</time>
      </trkpt>
      <trkpt lat="42.90517" lon="-0.20671">
        <ele>1178.5</ele>
        <time>2026-07-15T06:23:13Z</time>
      </trkpt>
      <trkpt lat="42.90517" lon="-0.20672">
        <ele>1178.5</ele>
        <time>2026-07-15T06:23:13Z</time>
      </trkpt>
      <trkpt lat="42.90517" lon="-0.20673">
        <ele>1178.5</ele>
        <time>2026-07-15T06:23:14Z</time>
      </trkpt>
      <trkpt lat="42.90517" lon="-0.20673">
        <ele>1178.5</ele>
        <time>2026-07-15T06:23:15Z</time>
      </trkpt>
      <trkpt lat="42.90518" lon="-0.20674">
        <ele>1178.5</ele>
        <time>2026-07-15T06:23:16Z</time>
      </trkpt>
      <trkpt lat="42.90518" lon="-0.20674">
        <ele>1177.5</ele>
        <time>2026-07-15T06:23:16Z</time>
      </trkpt>
      <trkpt lat="42.90518" lon="-0.20675">
        <ele>1177.5</ele>
        <time>2026-07-15T06:23:17Z</time>
      </trkpt>
      <trkpt lat="42.90518" lon="-0.20676">
        <ele>1177.5</ele>
        <time>2026-07-15T06:23:18Z</time>
      </trkpt>
      <trkpt lat="42.90518" lon="-0.20677">
        <ele>1177.5</ele>
        <time>2026-07-15T06:23:19Z</time>
      </trkpt>
      <trkpt lat="42.90518" lon="-0.20677">
        <ele>1177.5</ele>
        <time>2026-07-15T06:23:20Z</time>
      </trkpt>
      <trkpt lat="42.90518" lon="-0.20678">
        <ele>1176.5</ele>
        <time>2026-07-15T06:23:20Z</time>
      </trkpt>
      <trkpt lat="42.90518" lon="-0.20679">
        <ele>1177.5</ele>
        <time>2026-07-15T06:23:21Z</time>
      </trkpt>
      <trkpt lat="42.90518" lon="-0.2068">
        <ele>1177.5</ele>
        <time>2026-07-15T06:23:22Z</time>
      </trkpt>
      <trkpt lat="42.90518" lon="-0.2068">
        <ele>1177.5</ele>
        <time>2026-07-15T06:23:23Z</time>
      </trkpt>
      <trkpt lat="42.90518" lon="-0.20681">
        <ele>1176.5</ele>
        <time>2026-07-15T06:23:24Z</time>
      </trkpt>
      <trkpt lat="42.90518" lon="-0.20682">
        <ele>1176.5</ele>
        <time>2026-07-15T06:23:25Z</time>
      </trkpt>
      <trkpt lat="42.90518" lon="-0.20682">
        <ele>1177.5</ele>
        <time>2026-07-15T06:23:25Z</time>
      </trkpt>
      <trkpt lat="42.90517" lon="-0.20683">
        <ele>1177.5</ele>
        <time>2026-07-15T06:23:26Z</time>
      </trkpt>
      <trkpt lat="42.90517" lon="-0.20683">
        <ele>1177.5</ele>
        <time>2026-07-15T06:23:27Z</time>
      </trkpt>
      <trkpt lat="42.90517" lon="-0.20684">
        <ele>1177.5</ele>
        <time>2026-07-15T06:23:27Z</time>
      </trkpt>
      <trkpt lat="42.90517" lon="-0.20684">
        <ele>1177.5</ele>
        <time>2026-07-15T06:23:28Z</time>
      </trkpt>
      <trkpt lat="42.90517" lon="-0.20685">
        <ele>1177.5</ele>
        <time>2026-07-15T06:23:29Z</time>
      </trkpt>
      <trkpt lat="42.90517" lon="-0.20686">
        <ele>1177.5</ele>
        <time>2026-07-15T06:23:30Z</time>
      </trkpt>
      <trkpt lat="42.90517" lon="-0.20687">
        <ele>1178.5</ele>
        <time>2026-07-15T06:23:31Z</time>
      </trkpt>
      <trkpt lat="42.90517" lon="-0.20687">
        <ele>1178.5</ele>
        <time>2026-07-15T06:23:31Z</time>
      </trkpt>
      <trkpt lat="42.90516" lon="-0.20688">
        <ele>1178.5</ele>
        <time>2026-07-15T06:23:32Z</time>
      </trkpt>
      <trkpt lat="42.90517" lon="-0.20689">
        <ele>1178.5</ele>
        <time>2026-07-15T06:23:33Z</time>
      </trkpt>
      <trkpt lat="42.90517" lon="-0.2069">
        <ele>1179.5</ele>
        <time>2026-07-15T06:23:34Z</time>
      </trkpt>
      <trkpt lat="42.90517" lon="-0.2069">
        <ele>1179.5</ele>
        <time>2026-07-15T06:23:34Z</time>
      </trkpt>
      <trkpt lat="42.90518" lon="-0.20691">
        <ele>1179.5</ele>
        <time>2026-07-15T06:23:35Z</time>
      </trkpt>
      <trkpt lat="42.90518" lon="-0.20691">
        <ele>1179.5</ele>
        <time>2026-07-15T06:23:35Z</time>
      </trkpt>
      <trkpt lat="42.90518" lon="-0.20692">
        <ele>1179.5</ele>
        <time>2026-07-15T06:23:36Z</time>
      </trkpt>
      <trkpt lat="42.90518" lon="-0.20693">
        <ele>1178.5</ele>
        <time>2026-07-15T06:23:37Z</time>
      </trkpt>
      <trkpt lat="42.90518" lon="-0.20694">
        <ele>1178.5</ele>
        <time>2026-07-15T06:23:37Z</time>
      </trkpt>
      <trkpt lat="42.90518" lon="-0.20694">
        <ele>1178.5</ele>
        <time>2026-07-15T06:23:38Z</time>
      </trkpt>
      <trkpt lat="42.90518" lon="-0.20695">
        <ele>1178.5</ele>
        <time>2026-07-15T06:23:39Z</time>
      </trkpt>
      <trkpt lat="42.90518" lon="-0.20695">
        <ele>1178.5</ele>
        <time>2026-07-15T06:23:39Z</time>
      </trkpt>
      <trkpt lat="42.90519" lon="-0.20695">
        <ele>1178.5</ele>
        <time>2026-07-15T06:23:40Z</time>
      </trkpt>
      <trkpt lat="42.90519" lon="-0.20696">
        <ele>1177.5</ele>
        <time>2026-07-15T06:23:40Z</time>
      </trkpt>
      <trkpt lat="42.90519" lon="-0.20696">
        <ele>1177.5</ele>
        <time>2026-07-15T06:23:41Z</time>
      </trkpt>
      <trkpt lat="42.90519" lon="-0.20697">
        <ele>1178.5</ele>
        <time>2026-07-15T06:23:41Z</time>
      </trkpt>
      <trkpt lat="42.90519" lon="-0.20698">
        <ele>1179.5</ele>
        <time>2026-07-15T06:23:42Z</time>
      </trkpt>
      <trkpt lat="42.90519" lon="-0.20698">
        <ele>1179.5</ele>
        <time>2026-07-15T06:23:43Z</time>
      </trkpt>
      <trkpt lat="42.90518" lon="-0.20699">
        <ele>1179.5</ele>
        <time>2026-07-15T06:23:43Z</time>
      </trkpt>
      <trkpt lat="42.90518" lon="-0.20699">
        <ele>1179.5</ele>
        <time>2026-07-15T06:23:44Z</time>
      </trkpt>
      <trkpt lat="42.90518" lon="-0.207">
        <ele>1179.5</ele>
        <time>2026-07-15T06:23:45Z</time>
      </trkpt>
      <trkpt lat="42.90517" lon="-0.207">
        <ele>1179.5</ele>
        <time>2026-07-15T06:23:45Z</time>
      </trkpt>
      <trkpt lat="42.90517" lon="-0.207">
        <ele>1179.5</ele>
        <time>2026-07-15T06:23:46Z</time>
      </trkpt>
      <trkpt lat="42.90516" lon="-0.20701">
        <ele>1179.5</ele>
        <time>2026-07-15T06:23:47Z</time>
      </trkpt>
      <trkpt lat="42.90515" lon="-0.20701">
        <ele>1180.5</ele>
        <time>2026-07-15T06:23:48Z</time>
      </trkpt>
      <trkpt lat="42.90514" lon="-0.20701">
        <ele>1180.5</ele>
        <time>2026-07-15T06:23:49Z</time>
      </trkpt>
      <trkpt lat="42.90514" lon="-0.20702">
        <ele>1180.5</ele>
        <time>2026-07-15T06:23:50Z</time>
      </trkpt>
      <trkpt lat="42.90514" lon="-0.20702">
        <ele>1180.5</ele>
        <time>2026-07-15T06:23:51Z</time>
      </trkpt>
      <trkpt lat="42.90514" lon="-0.20703">
        <ele>1181.5</ele>
        <time>2026-07-15T06:23:52Z</time>
      </trkpt>
      <trkpt lat="42.90514" lon="-0.20703">
        <ele>1181.5</ele>
        <time>2026-07-15T06:23:52Z</time>
      </trkpt>
      <trkpt lat="42.90513" lon="-0.20704">
        <ele>1181.5</ele>
        <time>2026-07-15T06:23:53Z</time>
      </trkpt>
      <trkpt lat="42.90513" lon="-0.20705">
        <ele>1182.5</ele>
        <time>2026-07-15T06:23:54Z</time>
      </trkpt>
      <trkpt lat="42.90514" lon="-0.20705">
        <ele>1183.5</ele>
        <time>2026-07-15T06:23:55Z</time>
      </trkpt>
      <trkpt lat="42.90513" lon="-0.20706">
        <ele>1183.5</ele>
        <time>2026-07-15T06:23:55Z</time>
      </trkpt>
      <trkpt lat="42.90513" lon="-0.20707">
        <ele>1183.5</ele>
        <time>2026-07-15T06:23:56Z</time>
      </trkpt>
      <trkpt lat="42.90513" lon="-0.20708">
        <ele>1183.5</ele>
        <time>2026-07-15T06:23:57Z</time>
      </trkpt>
      <trkpt lat="42.90514" lon="-0.20708">
        <ele>1183.5</ele>
        <time>2026-07-15T06:23:58Z</time>
      </trkpt>
      <trkpt lat="42.90514" lon="-0.20708">
        <ele>1184.5</ele>
        <time>2026-07-15T06:23:58Z</time>
      </trkpt>
      <trkpt lat="42.90514" lon="-0.20709">
        <ele>1184.5</ele>
        <time>2026-07-15T06:23:59Z</time>
      </trkpt>
      <trkpt lat="42.90514" lon="-0.20709">
        <ele>1184.5</ele>
        <time>2026-07-15T06:24:00Z</time>
      </trkpt>
      <trkpt lat="42.90514" lon="-0.2071">
        <ele>1184.5</ele>
        <time>2026-07-15T06:24:01Z</time>
      </trkpt>
      <trkpt lat="42.90514" lon="-0.20711">
        <ele>1184.5</ele>
        <time>2026-07-15T06:24:01Z</time>
      </trkpt>
      <trkpt lat="42.90514" lon="-0.20711">
        <ele>1183.5</ele>
        <time>2026-07-15T06:24:02Z</time>
      </trkpt>
      <trkpt lat="42.90513" lon="-0.20712">
        <ele>1183.5</ele>
        <time>2026-07-15T06:24:03Z</time>
      </trkpt>
      <trkpt lat="42.90513" lon="-0.20712">
        <ele>1183.5</ele>
        <time>2026-07-15T06:24:03Z</time>
      </trkpt>
      <trkpt lat="42.90512" lon="-0.20713">
        <ele>1183.5</ele>
        <time>2026-07-15T06:24:04Z</time>
      </trkpt>
      <trkpt lat="42.90512" lon="-0.20713">
        <ele>1183.5</ele>
        <time>2026-07-15T06:24:05Z</time>
      </trkpt>
      <trkpt lat="42.90511" lon="-0.20714">
        <ele>1183.5</ele>
        <time>2026-07-15T06:24:06Z</time>
      </trkpt>
      <trkpt lat="42.9051" lon="-0.20714">
        <ele>1183.5</ele>
        <time>2026-07-15T06:24:06Z</time>
      </trkpt>
      <trkpt lat="42.9051" lon="-0.20715">
        <ele>1183.5</ele>
        <time>2026-07-15T06:24:07Z</time>
      </trkpt>
      <trkpt lat="42.9051" lon="-0.20715">
        <ele>1183.5</ele>
        <time>2026-07-15T06:24:08Z</time>
      </trkpt>
      <trkpt lat="42.90509" lon="-0.20716">
        <ele>1183.5</ele>
        <time>2026-07-15T06:24:08Z</time>
      </trkpt>
      <trkpt lat="42.90509" lon="-0.20716">
        <ele>1183.5</ele>
        <time>2026-07-15T06:24:09Z</time>
      </trkpt>
      <trkpt lat="42.90508" lon="-0.20717">
        <ele>1183.5</ele>
        <time>2026-07-15T06:24:10Z</time>
      </trkpt>
      <trkpt lat="42.90508" lon="-0.20717">
        <ele>1183.5</ele>
        <time>2026-07-15T06:24:11Z</time>
      </trkpt>
      <trkpt lat="42.90508" lon="-0.20717">
        <ele>1184.5</ele>
        <time>2026-07-15T06:24:11Z</time>
      </trkpt>
      <trkpt lat="42.90507" lon="-0.20718">
        <ele>1184.5</ele>
        <time>2026-07-15T06:24:12Z</time>
      </trkpt>
      <trkpt lat="42.90506" lon="-0.20718">
        <ele>1184.5</ele>
        <time>2026-07-15T06:24:13Z</time>
      </trkpt>
      <trkpt lat="42.90506" lon="-0.20719">
        <ele>1184.5</ele>
        <time>2026-07-15T06:24:13Z</time>
      </trkpt>
      <trkpt lat="42.90505" lon="-0.20719">
        <ele>1184.5</ele>
        <time>2026-07-15T06:24:14Z</time>
      </trkpt>
      <trkpt lat="42.90505" lon="-0.20719">
        <ele>1184.5</ele>
        <time>2026-07-15T06:24:15Z</time>
      </trkpt>
      <trkpt lat="42.90504" lon="-0.20719">
        <ele>1185.5</ele>
        <time>2026-07-15T06:24:16Z</time>
      </trkpt>
      <trkpt lat="42.90504" lon="-0.20719">
        <ele>1187.5</ele>
        <time>2026-07-15T06:24:16Z</time>
      </trkpt>
      <trkpt lat="42.90503" lon="-0.20718">
        <ele>1187.5</ele>
        <time>2026-07-15T06:24:17Z</time>
      </trkpt>
      <trkpt lat="42.90502" lon="-0.20718">
        <ele>1188.5</ele>
        <time>2026-07-15T06:24:18Z</time>
      </trkpt>
      <trkpt lat="42.90502" lon="-0.20718">
        <ele>1188.5</ele>
        <time>2026-07-15T06:24:19Z</time>
      </trkpt>
      <trkpt lat="42.90501" lon="-0.20718">
        <ele>1188.5</ele>
        <time>2026-07-15T06:24:20Z</time>
      </trkpt>
      <trkpt lat="42.90501" lon="-0.20718">
        <ele>1188.5</ele>
        <time>2026-07-15T06:24:20Z</time>
      </trkpt>
      <trkpt lat="42.905" lon="-0.20718">
        <ele>1189.5</ele>
        <time>2026-07-15T06:24:21Z</time>
      </trkpt>
      <trkpt lat="42.905" lon="-0.20718">
        <ele>1189.5</ele>
        <time>2026-07-15T06:24:22Z</time>
      </trkpt>
      <trkpt lat="42.90499" lon="-0.20719">
        <ele>1190.5</ele>
        <time>2026-07-15T06:24:23Z</time>
      </trkpt>
      <trkpt lat="42.90499" lon="-0.20719">
        <ele>1190.5</ele>
        <time>2026-07-15T06:24:24Z</time>
      </trkpt>
      <trkpt lat="42.90498" lon="-0.20719">
        <ele>1190.5</ele>
        <time>2026-07-15T06:24:24Z</time>
      </trkpt>
      <trkpt lat="42.90498" lon="-0.20719">
        <ele>1190.5</ele>
        <time>2026-07-15T06:24:25Z</time>
      </trkpt>
      <trkpt lat="42.90497" lon="-0.20719">
        <ele>1190.5</ele>
        <time>2026-07-15T06:24:26Z</time>
      </trkpt>
      <trkpt lat="42.90496" lon="-0.20719">
        <ele>1191.5</ele>
        <time>2026-07-15T06:24:27Z</time>
      </trkpt>
      <trkpt lat="42.90496" lon="-0.2072">
        <ele>1191.5</ele>
        <time>2026-07-15T06:24:28Z</time>
      </trkpt>
      <trkpt lat="42.90495" lon="-0.2072">
        <ele>1191.5</ele>
        <time>2026-07-15T06:24:28Z</time>
      </trkpt>
      <trkpt lat="42.90495" lon="-0.2072">
        <ele>1191.5</ele>
        <time>2026-07-15T06:24:29Z</time>
      </trkpt>
      <trkpt lat="42.90494" lon="-0.20721">
        <ele>1191.5</ele>
        <time>2026-07-15T06:24:30Z</time>
      </trkpt>
      <trkpt lat="42.90493" lon="-0.20721">
        <ele>1191.5</ele>
        <time>2026-07-15T06:24:31Z</time>
      </trkpt>
      <trkpt lat="42.90493" lon="-0.20721">
        <ele>1190.5</ele>
        <time>2026-07-15T06:24:32Z</time>
      </trkpt>
      <trkpt lat="42.90492" lon="-0.20722">
        <ele>1191.5</ele>
        <time>2026-07-15T06:24:32Z</time>
      </trkpt>
      <trkpt lat="42.90492" lon="-0.20722">
        <ele>1192.5</ele>
        <time>2026-07-15T06:24:33Z</time>
      </trkpt>
      <trkpt lat="42.90491" lon="-0.20722">
        <ele>1192.5</ele>
        <time>2026-07-15T06:24:34Z</time>
      </trkpt>
      <trkpt lat="42.9049" lon="-0.20722">
        <ele>1192.5</ele>
        <time>2026-07-15T06:24:35Z</time>
      </trkpt>
      <trkpt lat="42.9049" lon="-0.20723">
        <ele>1192.5</ele>
        <time>2026-07-15T06:24:36Z</time>
      </trkpt>
      <trkpt lat="42.90489" lon="-0.20723">
        <ele>1193.5</ele>
        <time>2026-07-15T06:24:36Z</time>
      </trkpt>
      <trkpt lat="42.90488" lon="-0.20723">
        <ele>1192.5</ele>
        <time>2026-07-15T06:24:37Z</time>
      </trkpt>
      <trkpt lat="42.90488" lon="-0.20723">
        <ele>1192.5</ele>
        <time>2026-07-15T06:24:38Z</time>
      </trkpt>
      <trkpt lat="42.90487" lon="-0.20724">
        <ele>1193.5</ele>
        <time>2026-07-15T06:24:39Z</time>
      </trkpt>
      <trkpt lat="42.90487" lon="-0.20724">
        <ele>1193.5</ele>
        <time>2026-07-15T06:24:39Z</time>
      </trkpt>
      <trkpt lat="42.90486" lon="-0.20724">
        <ele>1194.5</ele>
        <time>2026-07-15T06:24:40Z</time>
      </trkpt>
      <trkpt lat="42.90486" lon="-0.20725">
        <ele>1194.5</ele>
        <time>2026-07-15T06:24:41Z</time>
      </trkpt>
      <trkpt lat="42.90485" lon="-0.20725">
        <ele>1194.5</ele>
        <time>2026-07-15T06:24:42Z</time>
      </trkpt>
      <trkpt lat="42.90484" lon="-0.20726">
        <ele>1194.5</ele>
        <time>2026-07-15T06:24:42Z</time>
      </trkpt>
      <trkpt lat="42.90484" lon="-0.20726">
        <ele>1194.5</ele>
        <time>2026-07-15T06:24:43Z</time>
      </trkpt>
      <trkpt lat="42.90483" lon="-0.20726">
        <ele>1194.5</ele>
        <time>2026-07-15T06:24:44Z</time>
      </trkpt>
      <trkpt lat="42.90482" lon="-0.20726">
        <ele>1194.5</ele>
        <time>2026-07-15T06:24:45Z</time>
      </trkpt>
      <trkpt lat="42.90482" lon="-0.20725">
        <ele>1194.5</ele>
        <time>2026-07-15T06:24:46Z</time>
      </trkpt>
      <trkpt lat="42.90481" lon="-0.20725">
        <ele>1194.5</ele>
        <time>2026-07-15T06:24:46Z</time>
      </trkpt>
      <trkpt lat="42.90481" lon="-0.20725">
        <ele>1195.5</ele>
        <time>2026-07-15T06:24:47Z</time>
      </trkpt>
      <trkpt lat="42.9048" lon="-0.20724">
        <ele>1195.5</ele>
        <time>2026-07-15T06:24:48Z</time>
      </trkpt>
      <trkpt lat="42.9048" lon="-0.20724">
        <ele>1195.5</ele>
        <time>2026-07-15T06:24:49Z</time>
      </trkpt>
      <trkpt lat="42.9048" lon="-0.20724">
        <ele>1195.5</ele>
        <time>2026-07-15T06:24:50Z</time>
      </trkpt>
      <trkpt lat="42.90479" lon="-0.20724">
        <ele>1195.5</ele>
        <time>2026-07-15T06:24:50Z</time>
      </trkpt>
      <trkpt lat="42.90479" lon="-0.20724">
        <ele>1196.5</ele>
        <time>2026-07-15T06:24:51Z</time>
      </trkpt>
      <trkpt lat="42.90479" lon="-0.20724">
        <ele>1196.5</ele>
        <time>2026-07-15T06:24:52Z</time>
      </trkpt>
      <trkpt lat="42.90479" lon="-0.20725">
        <ele>1196.5</ele>
        <time>2026-07-15T06:24:52Z</time>
      </trkpt>
      <trkpt lat="42.90478" lon="-0.20725">
        <ele>1197.5</ele>
        <time>2026-07-15T06:24:53Z</time>
      </trkpt>
      <trkpt lat="42.90478" lon="-0.20725">
        <ele>1197.5</ele>
        <time>2026-07-15T06:24:54Z</time>
      </trkpt>
      <trkpt lat="42.90477" lon="-0.20725">
        <ele>1196.5</ele>
        <time>2026-07-15T06:24:54Z</time>
      </trkpt>
      <trkpt lat="42.90477" lon="-0.20726">
        <ele>1197.5</ele>
        <time>2026-07-15T06:24:55Z</time>
      </trkpt>
      <trkpt lat="42.90476" lon="-0.20726">
        <ele>1197.5</ele>
        <time>2026-07-15T06:24:56Z</time>
      </trkpt>
      <trkpt lat="42.90476" lon="-0.20726">
        <ele>1198.5</ele>
        <time>2026-07-15T06:24:57Z</time>
      </trkpt>
      <trkpt lat="42.90475" lon="-0.20726">
        <ele>1199.5</ele>
        <time>2026-07-15T06:24:57Z</time>
      </trkpt>
      <trkpt lat="42.90475" lon="-0.20727">
        <ele>1199.5</ele>
        <time>2026-07-15T06:24:58Z</time>
      </trkpt>
      <trkpt lat="42.90474" lon="-0.20727">
        <ele>1199.5</ele>
        <time>2026-07-15T06:24:59Z</time>
      </trkpt>
      <trkpt lat="42.90474" lon="-0.20727">
        <ele>1199.5</ele>
        <time>2026-07-15T06:24:59Z</time>
      </trkpt>
      <trkpt lat="42.90473" lon="-0.20728">
        <ele>1199.5</ele>
        <time>2026-07-15T06:25:00Z</time>
      </trkpt>
      <trkpt lat="42.90472" lon="-0.20728">
        <ele>1199.5</ele>
        <time>2026-07-15T06:25:01Z</time>
      </trkpt>
      <trkpt lat="42.90472" lon="-0.20728">
        <ele>1199.5</ele>
        <time>2026-07-15T06:25:02Z</time>
      </trkpt>
      <trkpt lat="42.90472" lon="-0.20728">
        <ele>1200.5</ele>
        <time>2026-07-15T06:25:02Z</time>
      </trkpt>
      <trkpt lat="42.90471" lon="-0.20728">
        <ele>1200.5</ele>
        <time>2026-07-15T06:25:03Z</time>
      </trkpt>
      <trkpt lat="42.9047" lon="-0.20728">
        <ele>1200.5</ele>
        <time>2026-07-15T06:25:04Z</time>
      </trkpt>
      <trkpt lat="42.9047" lon="-0.20729">
        <ele>1200.5</ele>
        <time>2026-07-15T06:25:04Z</time>
      </trkpt>
      <trkpt lat="42.90469" lon="-0.20729">
        <ele>1200.5</ele>
        <time>2026-07-15T06:25:05Z</time>
      </trkpt>
      <trkpt lat="42.90468" lon="-0.20729">
        <ele>1200.5</ele>
        <time>2026-07-15T06:25:06Z</time>
      </trkpt>
      <trkpt lat="42.90468" lon="-0.20729">
        <ele>1201.5</ele>
        <time>2026-07-15T06:25:07Z</time>
      </trkpt>
      <trkpt lat="42.90467" lon="-0.2073">
        <ele>1202.5</ele>
        <time>2026-07-15T06:25:08Z</time>
      </trkpt>
      <trkpt lat="42.90467" lon="-0.2073">
        <ele>1202.5</ele>
        <time>2026-07-15T06:25:08Z</time>
      </trkpt>
      <trkpt lat="42.90467" lon="-0.2073">
        <ele>1203.5</ele>
        <time>2026-07-15T06:25:09Z</time>
      </trkpt>
      <trkpt lat="42.90467" lon="-0.2073">
        <ele>1203.5</ele>
        <time>2026-07-15T06:25:10Z</time>
      </trkpt>
      <trkpt lat="42.90467" lon="-0.2073">
        <ele>1203.5</ele>
        <time>2026-07-15T06:25:11Z</time>
      </trkpt>
      <trkpt lat="42.90467" lon="-0.2073">
        <ele>1204.5</ele>
        <time>2026-07-15T06:25:12Z</time>
      </trkpt>
      <trkpt lat="42.90467" lon="-0.2073">
        <ele>1204.5</ele>
        <time>2026-07-15T06:25:12Z</time>
      </trkpt>
      <trkpt lat="42.90467" lon="-0.20731">
        <ele>1204.5</ele>
        <time>2026-07-15T06:25:13Z</time>
      </trkpt>
      <trkpt lat="42.90467" lon="-0.20731">
        <ele>1204.5</ele>
        <time>2026-07-15T06:25:14Z</time>
      </trkpt>
      <trkpt lat="42.90467" lon="-0.20731">
        <ele>1205.5</ele>
        <time>2026-07-15T06:25:15Z</time>
      </trkpt>
      <trkpt lat="42.90468" lon="-0.20731">
        <ele>1206.5</ele>
        <time>2026-07-15T06:25:15Z</time>
      </trkpt>
      <trkpt lat="42.90468" lon="-0.20731">
        <ele>1206.5</ele>
        <time>2026-07-15T06:25:16Z</time>
      </trkpt>
      <trkpt lat="42.90468" lon="-0.20731">
        <ele>1206.5</ele>
        <time>2026-07-15T06:25:17Z</time>
      </trkpt>
      <trkpt lat="42.90468" lon="-0.20731">
        <ele>1206.5</ele>
        <time>2026-07-15T06:25:18Z</time>
      </trkpt>
      <trkpt lat="42.90468" lon="-0.20731">
        <ele>1206.5</ele>
        <time>2026-07-15T06:25:18Z</time>
      </trkpt>
      <trkpt lat="42.90468" lon="-0.20731">
        <ele>1206.5</ele>
        <time>2026-07-15T06:25:19Z</time>
      </trkpt>
      <trkpt lat="42.90468" lon="-0.20731">
        <ele>1206.5</ele>
        <time>2026-07-15T06:25:20Z</time>
      </trkpt>
      <trkpt lat="42.90467" lon="-0.20732">
        <ele>1206.5</ele>
        <time>2026-07-15T06:25:21Z</time>
      </trkpt>
      <trkpt lat="42.90467" lon="-0.20731">
        <ele>1207.5</ele>
        <time>2026-07-15T06:25:22Z</time>
      </trkpt>
      <trkpt lat="42.90466" lon="-0.20731">
        <ele>1207.5</ele>
        <time>2026-07-15T06:25:22Z</time>
      </trkpt>
      <trkpt lat="42.90466" lon="-0.20731">
        <ele>1207.5</ele>
        <time>2026-07-15T06:25:23Z</time>
      </trkpt>
      <trkpt lat="42.90465" lon="-0.20731">
        <ele>1207.5</ele>
        <time>2026-07-15T06:25:24Z</time>
      </trkpt>
      <trkpt lat="42.90465" lon="-0.20731">
        <ele>1207.5</ele>
        <time>2026-07-15T06:25:25Z</time>
      </trkpt>
      <trkpt lat="42.90464" lon="-0.20731">
        <ele>1207.5</ele>
        <time>2026-07-15T06:25:25Z</time>
      </trkpt>
      <trkpt lat="42.90464" lon="-0.20731">
        <ele>1207.5</ele>
        <time>2026-07-15T06:25:26Z</time>
      </trkpt>
      <trkpt lat="42.90463" lon="-0.20731">
        <ele>1207.5</ele>
        <time>2026-07-15T06:25:27Z</time>
      </trkpt>
      <trkpt lat="42.90462" lon="-0.2073">
        <ele>1207.5</ele>
        <time>2026-07-15T06:25:28Z</time>
      </trkpt>
      <trkpt lat="42.90462" lon="-0.2073">
        <ele>1207.5</ele>
        <time>2026-07-15T06:25:28Z</time>
      </trkpt>
      <trkpt lat="42.90461" lon="-0.2073">
        <ele>1207.5</ele>
        <time>2026-07-15T06:25:29Z</time>
      </trkpt>
      <trkpt lat="42.9046" lon="-0.20731">
        <ele>1207.5</ele>
        <time>2026-07-15T06:25:30Z</time>
      </trkpt>
      <trkpt lat="42.9046" lon="-0.20731">
        <ele>1207.5</ele>
        <time>2026-07-15T06:25:31Z</time>
      </trkpt>
      <trkpt lat="42.90459" lon="-0.20731">
        <ele>1208.5</ele>
        <time>2026-07-15T06:25:31Z</time>
      </trkpt>
      <trkpt lat="42.90459" lon="-0.20732">
        <ele>1208.5</ele>
        <time>2026-07-15T06:25:32Z</time>
      </trkpt>
      <trkpt lat="42.90459" lon="-0.20731">
        <ele>1208.5</ele>
        <time>2026-07-15T06:25:33Z</time>
      </trkpt>
      <trkpt lat="42.90458" lon="-0.20731">
        <ele>1208.5</ele>
        <time>2026-07-15T06:25:34Z</time>
      </trkpt>
      <trkpt lat="42.90458" lon="-0.20731">
        <ele>1208.5</ele>
        <time>2026-07-15T06:25:34Z</time>
      </trkpt>
      <trkpt lat="42.90458" lon="-0.20731">
        <ele>1208.5</ele>
        <time>2026-07-15T06:25:35Z</time>
      </trkpt>
      <trkpt lat="42.90457" lon="-0.20731">
        <ele>1209.5</ele>
        <time>2026-07-15T06:25:36Z</time>
      </trkpt>
      <trkpt lat="42.90457" lon="-0.20731">
        <ele>1208.5</ele>
        <time>2026-07-15T06:25:36Z</time>
      </trkpt>
      <trkpt lat="42.90457" lon="-0.20732">
        <ele>1209.5</ele>
        <time>2026-07-15T06:25:37Z</time>
      </trkpt>
      <trkpt lat="42.90456" lon="-0.20732">
        <ele>1209.5</ele>
        <time>2026-07-15T06:25:38Z</time>
      </trkpt>
      <trkpt lat="42.90456" lon="-0.20733">
        <ele>1208.5</ele>
        <time>2026-07-15T06:25:39Z</time>
      </trkpt>
      <trkpt lat="42.90456" lon="-0.20733">
        <ele>1208.5</ele>
        <time>2026-07-15T06:25:39Z</time>
      </trkpt>
      <trkpt lat="42.90456" lon="-0.20733">
        <ele>1208.5</ele>
        <time>2026-07-15T06:25:40Z</time>
      </trkpt>
      <trkpt lat="42.90456" lon="-0.20734">
        <ele>1208.5</ele>
        <time>2026-07-15T06:25:41Z</time>
      </trkpt>
      <trkpt lat="42.90455" lon="-0.20735">
        <ele>1208.5</ele>
        <time>2026-07-15T06:25:42Z</time>
      </trkpt>
      <trkpt lat="42.90455" lon="-0.20735">
        <ele>1207.5</ele>
        <time>2026-07-15T06:25:42Z</time>
      </trkpt>
      <trkpt lat="42.90455" lon="-0.20736">
        <ele>1207.5</ele>
        <time>2026-07-15T06:25:43Z</time>
      </trkpt>
      <trkpt lat="42.90454" lon="-0.20737">
        <ele>1208.5</ele>
        <time>2026-07-15T06:25:44Z</time>
      </trkpt>
      <trkpt lat="42.90454" lon="-0.20737">
        <ele>1208.5</ele>
        <time>2026-07-15T06:25:45Z</time>
      </trkpt>
      <trkpt lat="42.90454" lon="-0.20737">
        <ele>1207.5</ele>
        <time>2026-07-15T06:25:46Z</time>
      </trkpt>
      <trkpt lat="42.90453" lon="-0.20738">
        <ele>1207.5</ele>
        <time>2026-07-15T06:25:46Z</time>
      </trkpt>
      <trkpt lat="42.90453" lon="-0.20738">
        <ele>1207.5</ele>
        <time>2026-07-15T06:25:47Z</time>
      </trkpt>
      <trkpt lat="42.90452" lon="-0.20738">
        <ele>1207.5</ele>
        <time>2026-07-15T06:25:48Z</time>
      </trkpt>
      <trkpt lat="42.90452" lon="-0.20738">
        <ele>1208.5</ele>
        <time>2026-07-15T06:25:49Z</time>
      </trkpt>
      <trkpt lat="42.90452" lon="-0.20739">
        <ele>1208.5</ele>
        <time>2026-07-15T06:25:50Z</time>
      </trkpt>
      <trkpt lat="42.90451" lon="-0.20738">
        <ele>1209.5</ele>
        <time>2026-07-15T06:25:50Z</time>
      </trkpt>
      <trkpt lat="42.9045" lon="-0.20739">
        <ele>1209.5</ele>
        <time>2026-07-15T06:25:51Z</time>
      </trkpt>
      <trkpt lat="42.9045" lon="-0.20739">
        <ele>1209.5</ele>
        <time>2026-07-15T06:25:52Z</time>
      </trkpt>
      <trkpt lat="42.90449" lon="-0.20739">
        <ele>1210.5</ele>
        <time>2026-07-15T06:25:53Z</time>
      </trkpt>
      <trkpt lat="42.90449" lon="-0.20739">
        <ele>1210.5</ele>
        <time>2026-07-15T06:25:54Z</time>
      </trkpt>
      <trkpt lat="42.90448" lon="-0.20739">
        <ele>1210.5</ele>
        <time>2026-07-15T06:25:54Z</time>
      </trkpt>
      <trkpt lat="42.90448" lon="-0.20739">
        <ele>1210.5</ele>
        <time>2026-07-15T06:25:55Z</time>
      </trkpt>
      <trkpt lat="42.90447" lon="-0.20739">
        <ele>1210.5</ele>
        <time>2026-07-15T06:25:56Z</time>
      </trkpt>
      <trkpt lat="42.90447" lon="-0.20738">
        <ele>1211.5</ele>
        <time>2026-07-15T06:25:56Z</time>
      </trkpt>
      <trkpt lat="42.90447" lon="-0.20738">
        <ele>1211.5</ele>
        <time>2026-07-15T06:25:57Z</time>
      </trkpt>
      <trkpt lat="42.90446" lon="-0.20737">
        <ele>1211.5</ele>
        <time>2026-07-15T06:25:58Z</time>
      </trkpt>
      <trkpt lat="42.90446" lon="-0.20737">
        <ele>1211.5</ele>
        <time>2026-07-15T06:25:58Z</time>
      </trkpt>
      <trkpt lat="42.90445" lon="-0.20737">
        <ele>1211.5</ele>
        <time>2026-07-15T06:25:59Z</time>
      </trkpt>
      <trkpt lat="42.90445" lon="-0.20736">
        <ele>1212.5</ele>
        <time>2026-07-15T06:26:00Z</time>
      </trkpt>
      <trkpt lat="42.90444" lon="-0.20735">
        <ele>1212.5</ele>
        <time>2026-07-15T06:26:00Z</time>
      </trkpt>
      <trkpt lat="42.90444" lon="-0.20735">
        <ele>1212.5</ele>
        <time>2026-07-15T06:26:01Z</time>
      </trkpt>
      <trkpt lat="42.90443" lon="-0.20734">
        <ele>1212.5</ele>
        <time>2026-07-15T06:26:02Z</time>
      </trkpt>
      <trkpt lat="42.90443" lon="-0.20734">
        <ele>1213.5</ele>
        <time>2026-07-15T06:26:03Z</time>
      </trkpt>
      <trkpt lat="42.90443" lon="-0.20734">
        <ele>1214.5</ele>
        <time>2026-07-15T06:26:03Z</time>
      </trkpt>
      <trkpt lat="42.90442" lon="-0.20733">
        <ele>1214.5</ele>
        <time>2026-07-15T06:26:04Z</time>
      </trkpt>
      <trkpt lat="42.90442" lon="-0.20733">
        <ele>1214.5</ele>
        <time>2026-07-15T06:26:05Z</time>
      </trkpt>
      <trkpt lat="42.90441" lon="-0.20733">
        <ele>1213.5</ele>
        <time>2026-07-15T06:26:05Z</time>
      </trkpt>
      <trkpt lat="42.90441" lon="-0.20733">
        <ele>1213.5</ele>
        <time>2026-07-15T06:26:06Z</time>
      </trkpt>
      <trkpt lat="42.9044" lon="-0.20732">
        <ele>1213.5</ele>
        <time>2026-07-15T06:26:07Z</time>
      </trkpt>
      <trkpt lat="42.90439" lon="-0.20732">
        <ele>1213.5</ele>
        <time>2026-07-15T06:26:08Z</time>
      </trkpt>
      <trkpt lat="42.90439" lon="-0.20732">
        <ele>1213.5</ele>
        <time>2026-07-15T06:26:08Z</time>
      </trkpt>
      <trkpt lat="42.90439" lon="-0.20731">
        <ele>1213.5</ele>
        <time>2026-07-15T06:26:09Z</time>
      </trkpt>
      <trkpt lat="42.90438" lon="-0.20731">
        <ele>1213.5</ele>
        <time>2026-07-15T06:26:10Z</time>
      </trkpt>
      <trkpt lat="42.90437" lon="-0.20732">
        <ele>1213.5</ele>
        <time>2026-07-15T06:26:11Z</time>
      </trkpt>
      <trkpt lat="42.90437" lon="-0.20732">
        <ele>1215.5</ele>
        <time>2026-07-15T06:26:12Z</time>
      </trkpt>
      <trkpt lat="42.90437" lon="-0.20733">
        <ele>1215.5</ele>
        <time>2026-07-15T06:26:12Z</time>
      </trkpt>
      <trkpt lat="42.90437" lon="-0.20733">
        <ele>1215.5</ele>
        <time>2026-07-15T06:26:13Z</time>
      </trkpt>
      <trkpt lat="42.90436" lon="-0.20734">
        <ele>1215.5</ele>
        <time>2026-07-15T06:26:14Z</time>
      </trkpt>
      <trkpt lat="42.90436" lon="-0.20734">
        <ele>1215.5</ele>
        <time>2026-07-15T06:26:14Z</time>
      </trkpt>
      <trkpt lat="42.90436" lon="-0.20734">
        <ele>1215.5</ele>
        <time>2026-07-15T06:26:15Z</time>
      </trkpt>
      <trkpt lat="42.90436" lon="-0.20735">
        <ele>1215.5</ele>
        <time>2026-07-15T06:26:16Z</time>
      </trkpt>
      <trkpt lat="42.90436" lon="-0.20735">
        <ele>1215.5</ele>
        <time>2026-07-15T06:26:17Z</time>
      </trkpt>
      <trkpt lat="42.90436" lon="-0.20736">
        <ele>1214.5</ele>
        <time>2026-07-15T06:26:17Z</time>
      </trkpt>
      <trkpt lat="42.90436" lon="-0.20736">
        <ele>1214.5</ele>
        <time>2026-07-15T06:26:18Z</time>
      </trkpt>
      <trkpt lat="42.90435" lon="-0.20737">
        <ele>1214.5</ele>
        <time>2026-07-15T06:26:19Z</time>
      </trkpt>
      <trkpt lat="42.90435" lon="-0.20737">
        <ele>1215.5</ele>
        <time>2026-07-15T06:26:20Z</time>
      </trkpt>
      <trkpt lat="42.90434" lon="-0.20737">
        <ele>1215.5</ele>
        <time>2026-07-15T06:26:21Z</time>
      </trkpt>
      <trkpt lat="42.90434" lon="-0.20737">
        <ele>1215.5</ele>
        <time>2026-07-15T06:26:21Z</time>
      </trkpt>
      <trkpt lat="42.90433" lon="-0.20737">
        <ele>1215.5</ele>
        <time>2026-07-15T06:26:22Z</time>
      </trkpt>
      <trkpt lat="42.90433" lon="-0.20738">
        <ele>1215.5</ele>
        <time>2026-07-15T06:26:23Z</time>
      </trkpt>
      <trkpt lat="42.90432" lon="-0.20737">
        <ele>1216.5</ele>
        <time>2026-07-15T06:26:24Z</time>
      </trkpt>
      <trkpt lat="42.90432" lon="-0.20737">
        <ele>1217.5</ele>
        <time>2026-07-15T06:26:25Z</time>
      </trkpt>
      <trkpt lat="42.90431" lon="-0.20737">
        <ele>1218.5</ele>
        <time>2026-07-15T06:26:25Z</time>
      </trkpt>
      <trkpt lat="42.90431" lon="-0.20737">
        <ele>1218.5</ele>
        <time>2026-07-15T06:26:26Z</time>
      </trkpt>
      <trkpt lat="42.9043" lon="-0.20737">
        <ele>1218.5</ele>
        <time>2026-07-15T06:26:27Z</time>
      </trkpt>
      <trkpt lat="42.90429" lon="-0.20737">
        <ele>1218.5</ele>
        <time>2026-07-15T06:26:27Z</time>
      </trkpt>
      <trkpt lat="42.90429" lon="-0.20737">
        <ele>1218.5</ele>
        <time>2026-07-15T06:26:28Z</time>
      </trkpt>
      <trkpt lat="42.90428" lon="-0.20737">
        <ele>1218.5</ele>
        <time>2026-07-15T06:26:29Z</time>
      </trkpt>
      <trkpt lat="42.90428" lon="-0.20736">
        <ele>1219.5</ele>
        <time>2026-07-15T06:26:30Z</time>
      </trkpt>
      <trkpt lat="42.90428" lon="-0.20736">
        <ele>1220.5</ele>
        <time>2026-07-15T06:26:31Z</time>
      </trkpt>
      <trkpt lat="42.90427" lon="-0.20736">
        <ele>1220.5</ele>
        <time>2026-07-15T06:26:31Z</time>
      </trkpt>
      <trkpt lat="42.90427" lon="-0.20736">
        <ele>1221.5</ele>
        <time>2026-07-15T06:26:32Z</time>
      </trkpt>
      <trkpt lat="42.90427" lon="-0.20736">
        <ele>1221.5</ele>
        <time>2026-07-15T06:26:33Z</time>
      </trkpt>
      <trkpt lat="42.90426" lon="-0.20736">
        <ele>1222.5</ele>
        <time>2026-07-15T06:26:34Z</time>
      </trkpt>
      <trkpt lat="42.90426" lon="-0.20736">
        <ele>1222.5</ele>
        <time>2026-07-15T06:26:34Z</time>
      </trkpt>
      <trkpt lat="42.90425" lon="-0.20736">
        <ele>1223.5</ele>
        <time>2026-07-15T06:26:35Z</time>
      </trkpt>
      <trkpt lat="42.90425" lon="-0.20736">
        <ele>1224.5</ele>
        <time>2026-07-15T06:26:36Z</time>
      </trkpt>
      <trkpt lat="42.90424" lon="-0.20737">
        <ele>1224.5</ele>
        <time>2026-07-15T06:26:37Z</time>
      </trkpt>
      <trkpt lat="42.90424" lon="-0.20737">
        <ele>1224.5</ele>
        <time>2026-07-15T06:26:38Z</time>
      </trkpt>
      <trkpt lat="42.90424" lon="-0.20737">
        <ele>1224.5</ele>
        <time>2026-07-15T06:26:38Z</time>
      </trkpt>
      <trkpt lat="42.90423" lon="-0.20737">
        <ele>1223.5</ele>
        <time>2026-07-15T06:26:39Z</time>
      </trkpt>
      <trkpt lat="42.90422" lon="-0.20737">
        <ele>1223.5</ele>
        <time>2026-07-15T06:26:40Z</time>
      </trkpt>
      <trkpt lat="42.90422" lon="-0.20737">
        <ele>1224.5</ele>
        <time>2026-07-15T06:26:41Z</time>
      </trkpt>
      <trkpt lat="42.90421" lon="-0.20737">
        <ele>1224.5</ele>
        <time>2026-07-15T06:26:42Z</time>
      </trkpt>
      <trkpt lat="42.90421" lon="-0.20737">
        <ele>1224.5</ele>
        <time>2026-07-15T06:26:42Z</time>
      </trkpt>
      <trkpt lat="42.9042" lon="-0.20737">
        <ele>1224.5</ele>
        <time>2026-07-15T06:26:43Z</time>
      </trkpt>
      <trkpt lat="42.9042" lon="-0.20737">
        <ele>1224.5</ele>
        <time>2026-07-15T06:26:44Z</time>
      </trkpt>
      <trkpt lat="42.90419" lon="-0.20737">
        <ele>1224.5</ele>
        <time>2026-07-15T06:26:44Z</time>
      </trkpt>
      <trkpt lat="42.90419" lon="-0.20737">
        <ele>1224.5</ele>
        <time>2026-07-15T06:26:45Z</time>
      </trkpt>
      <trkpt lat="42.90418" lon="-0.20737">
        <ele>1224.5</ele>
        <time>2026-07-15T06:26:46Z</time>
      </trkpt>
      <trkpt lat="42.90418" lon="-0.20737">
        <ele>1223.5</ele>
        <time>2026-07-15T06:26:47Z</time>
      </trkpt>
      <trkpt lat="42.90417" lon="-0.20737">
        <ele>1224.5</ele>
        <time>2026-07-15T06:26:48Z</time>
      </trkpt>
      <trkpt lat="42.90417" lon="-0.20737">
        <ele>1224.5</ele>
        <time>2026-07-15T06:26:48Z</time>
      </trkpt>
      <trkpt lat="42.90416" lon="-0.20737">
        <ele>1224.5</ele>
        <time>2026-07-15T06:26:49Z</time>
      </trkpt>
      <trkpt lat="42.90416" lon="-0.20738">
        <ele>1224.5</ele>
        <time>2026-07-15T06:26:50Z</time>
      </trkpt>
      <trkpt lat="42.90415" lon="-0.20738">
        <ele>1224.5</ele>
        <time>2026-07-15T06:26:51Z</time>
      </trkpt>
      <trkpt lat="42.90414" lon="-0.20738">
        <ele>1224.5</ele>
        <time>2026-07-15T06:26:51Z</time>
      </trkpt>
      <trkpt lat="42.90414" lon="-0.20738">
        <ele>1224.5</ele>
        <time>2026-07-15T06:26:52Z</time>
      </trkpt>
      <trkpt lat="42.90413" lon="-0.20738">
        <ele>1224.5</ele>
        <time>2026-07-15T06:26:53Z</time>
      </trkpt>
      <trkpt lat="42.90412" lon="-0.20738">
        <ele>1224.5</ele>
        <time>2026-07-15T06:26:54Z</time>
      </trkpt>
      <trkpt lat="42.90412" lon="-0.20738">
        <ele>1224.5</ele>
        <time>2026-07-15T06:26:54Z</time>
      </trkpt>
      <trkpt lat="42.90411" lon="-0.20738">
        <ele>1224.5</ele>
        <time>2026-07-15T06:26:55Z</time>
      </trkpt>
      <trkpt lat="42.9041" lon="-0.20738">
        <ele>1224.5</ele>
        <time>2026-07-15T06:26:56Z</time>
      </trkpt>
      <trkpt lat="42.9041" lon="-0.20738">
        <ele>1224.5</ele>
        <time>2026-07-15T06:26:57Z</time>
      </trkpt>
      <trkpt lat="42.90409" lon="-0.20738">
        <ele>1224.5</ele>
        <time>2026-07-15T06:26:57Z</time>
      </trkpt>
      <trkpt lat="42.90408" lon="-0.20738">
        <ele>1224.5</ele>
        <time>2026-07-15T06:26:58Z</time>
      </trkpt>
      <trkpt lat="42.90408" lon="-0.20738">
        <ele>1224.5</ele>
        <time>2026-07-15T06:26:59Z</time>
      </trkpt>
      <trkpt lat="42.90407" lon="-0.20738">
        <ele>1224.5</ele>
        <time>2026-07-15T06:27:00Z</time>
      </trkpt>
      <trkpt lat="42.90407" lon="-0.20737">
        <ele>1223.5</ele>
        <time>2026-07-15T06:27:00Z</time>
      </trkpt>
      <trkpt lat="42.90406" lon="-0.20737">
        <ele>1223.5</ele>
        <time>2026-07-15T06:27:01Z</time>
      </trkpt>
      <trkpt lat="42.90406" lon="-0.20737">
        <ele>1223.5</ele>
        <time>2026-07-15T06:27:02Z</time>
      </trkpt>
      <trkpt lat="42.90406" lon="-0.20737">
        <ele>1223.5</ele>
        <time>2026-07-15T06:27:03Z</time>
      </trkpt>
      <trkpt lat="42.90405" lon="-0.20736">
        <ele>1223.5</ele>
        <time>2026-07-15T06:27:03Z</time>
      </trkpt>
      <trkpt lat="42.90404" lon="-0.20736">
        <ele>1223.5</ele>
        <time>2026-07-15T06:27:04Z</time>
      </trkpt>
      <trkpt lat="42.90404" lon="-0.20736">
        <ele>1223.5</ele>
        <time>2026-07-15T06:27:05Z</time>
      </trkpt>
      <trkpt lat="42.90403" lon="-0.20735">
        <ele>1223.5</ele>
        <time>2026-07-15T06:27:05Z</time>
      </trkpt>
      <trkpt lat="42.90403" lon="-0.20735">
        <ele>1223.5</ele>
        <time>2026-07-15T06:27:06Z</time>
      </trkpt>
      <trkpt lat="42.90403" lon="-0.20735">
        <ele>1223.5</ele>
        <time>2026-07-15T06:27:07Z</time>
      </trkpt>
      <trkpt lat="42.90402" lon="-0.20735">
        <ele>1222.5</ele>
        <time>2026-07-15T06:27:08Z</time>
      </trkpt>
      <trkpt lat="42.90402" lon="-0.20734">
        <ele>1222.5</ele>
        <time>2026-07-15T06:27:08Z</time>
      </trkpt>
      <trkpt lat="42.90402" lon="-0.20734">
        <ele>1222.5</ele>
        <time>2026-07-15T06:27:09Z</time>
      </trkpt>
      <trkpt lat="42.90401" lon="-0.20734">
        <ele>1222.5</ele>
        <time>2026-07-15T06:27:10Z</time>
      </trkpt>
      <trkpt lat="42.904" lon="-0.20733">
        <ele>1222.5</ele>
        <time>2026-07-15T06:27:11Z</time>
      </trkpt>
      <trkpt lat="42.904" lon="-0.20733">
        <ele>1222.5</ele>
        <time>2026-07-15T06:27:11Z</time>
      </trkpt>
      <trkpt lat="42.904" lon="-0.20733">
        <ele>1222.5</ele>
        <time>2026-07-15T06:27:12Z</time>
      </trkpt>
      <trkpt lat="42.90399" lon="-0.20732">
        <ele>1222.5</ele>
        <time>2026-07-15T06:27:13Z</time>
      </trkpt>
      <trkpt lat="42.90399" lon="-0.20731">
        <ele>1222.5</ele>
        <time>2026-07-15T06:27:14Z</time>
      </trkpt>
      <trkpt lat="42.90399" lon="-0.20731">
        <ele>1222.5</ele>
        <time>2026-07-15T06:27:14Z</time>
      </trkpt>
      <trkpt lat="42.90398" lon="-0.2073">
        <ele>1222.5</ele>
        <time>2026-07-15T06:27:15Z</time>
      </trkpt>
      <trkpt lat="42.90398" lon="-0.2073">
        <ele>1222.5</ele>
        <time>2026-07-15T06:27:16Z</time>
      </trkpt>
      <trkpt lat="42.90397" lon="-0.2073">
        <ele>1223.5</ele>
        <time>2026-07-15T06:27:17Z</time>
      </trkpt>
      <trkpt lat="42.90397" lon="-0.2073">
        <ele>1223.5</ele>
        <time>2026-07-15T06:27:17Z</time>
      </trkpt>
      <trkpt lat="42.90396" lon="-0.2073">
        <ele>1223.5</ele>
        <time>2026-07-15T06:27:18Z</time>
      </trkpt>
      <trkpt lat="42.90396" lon="-0.2073">
        <ele>1223.5</ele>
        <time>2026-07-15T06:27:19Z</time>
      </trkpt>
      <trkpt lat="42.90396" lon="-0.20731">
        <ele>1223.5</ele>
        <time>2026-07-15T06:27:19Z</time>
      </trkpt>
      <trkpt lat="42.90395" lon="-0.20731">
        <ele>1223.5</ele>
        <time>2026-07-15T06:27:20Z</time>
      </trkpt>
      <trkpt lat="42.90395" lon="-0.20732">
        <ele>1223.5</ele>
        <time>2026-07-15T06:27:21Z</time>
      </trkpt>
      <trkpt lat="42.90394" lon="-0.20732">
        <ele>1224.5</ele>
        <time>2026-07-15T06:27:22Z</time>
      </trkpt>
      <trkpt lat="42.90394" lon="-0.20733">
        <ele>1224.5</ele>
        <time>2026-07-15T06:27:22Z</time>
      </trkpt>
      <trkpt lat="42.90394" lon="-0.20734">
        <ele>1224.5</ele>
        <time>2026-07-15T06:27:23Z</time>
      </trkpt>
      <trkpt lat="42.90393" lon="-0.20734">
        <ele>1224.5</ele>
        <time>2026-07-15T06:27:24Z</time>
      </trkpt>
      <trkpt lat="42.90393" lon="-0.20735">
        <ele>1225.5</ele>
        <time>2026-07-15T06:27:25Z</time>
      </trkpt>
      <trkpt lat="42.90393" lon="-0.20736">
        <ele>1225.5</ele>
        <time>2026-07-15T06:27:25Z</time>
      </trkpt>
      <trkpt lat="42.90393" lon="-0.20736">
        <ele>1225.5</ele>
        <time>2026-07-15T06:27:26Z</time>
      </trkpt>
      <trkpt lat="42.90393" lon="-0.20737">
        <ele>1225.5</ele>
        <time>2026-07-15T06:27:27Z</time>
      </trkpt>
      <trkpt lat="42.90393" lon="-0.20738">
        <ele>1225.5</ele>
        <time>2026-07-15T06:27:28Z</time>
      </trkpt>
      <trkpt lat="42.90393" lon="-0.20739">
        <ele>1224.5</ele>
        <time>2026-07-15T06:27:28Z</time>
      </trkpt>
      <trkpt lat="42.90393" lon="-0.20739">
        <ele>1224.5</ele>
        <time>2026-07-15T06:27:29Z</time>
      </trkpt>
      <trkpt lat="42.90393" lon="-0.2074">
        <ele>1224.5</ele>
        <time>2026-07-15T06:27:30Z</time>
      </trkpt>
      <trkpt lat="42.90393" lon="-0.20741">
        <ele>1224.5</ele>
        <time>2026-07-15T06:27:31Z</time>
      </trkpt>
      <trkpt lat="42.90393" lon="-0.20742">
        <ele>1224.5</ele>
        <time>2026-07-15T06:27:32Z</time>
      </trkpt>
      <trkpt lat="42.90393" lon="-0.20743">
        <ele>1224.5</ele>
        <time>2026-07-15T06:27:32Z</time>
      </trkpt>
      <trkpt lat="42.90393" lon="-0.20744">
        <ele>1224.5</ele>
        <time>2026-07-15T06:27:33Z</time>
      </trkpt>
      <trkpt lat="42.90393" lon="-0.20745">
        <ele>1224.5</ele>
        <time>2026-07-15T06:27:34Z</time>
      </trkpt>
      <trkpt lat="42.90394" lon="-0.20745">
        <ele>1224.5</ele>
        <time>2026-07-15T06:27:35Z</time>
      </trkpt>
      <trkpt lat="42.90395" lon="-0.20744">
        <ele>1225.5</ele>
        <time>2026-07-15T06:27:35Z</time>
      </trkpt>
      <trkpt lat="42.90395" lon="-0.20745">
        <ele>1226.5</ele>
        <time>2026-07-15T06:27:36Z</time>
      </trkpt>
      <trkpt lat="42.90396" lon="-0.20745">
        <ele>1226.5</ele>
        <time>2026-07-15T06:27:37Z</time>
      </trkpt>
      <trkpt lat="42.90397" lon="-0.20745">
        <ele>1226.5</ele>
        <time>2026-07-15T06:27:38Z</time>
      </trkpt>
      <trkpt lat="42.90397" lon="-0.20745">
        <ele>1225.5</ele>
        <time>2026-07-15T06:27:39Z</time>
      </trkpt>
      <trkpt lat="42.90397" lon="-0.20745">
        <ele>1225.5</ele>
        <time>2026-07-15T06:27:39Z</time>
      </trkpt>
      <trkpt lat="42.90398" lon="-0.20746">
        <ele>1225.5</ele>
        <time>2026-07-15T06:27:40Z</time>
      </trkpt>
      <trkpt lat="42.90397" lon="-0.20746">
        <ele>1225.5</ele>
        <time>2026-07-15T06:27:41Z</time>
      </trkpt>
      <trkpt lat="42.90397" lon="-0.20747">
        <ele>1225.5</ele>
        <time>2026-07-15T06:27:42Z</time>
      </trkpt>
      <trkpt lat="42.90397" lon="-0.20747">
        <ele>1224.5</ele>
        <time>2026-07-15T06:27:43Z</time>
      </trkpt>
      <trkpt lat="42.90397" lon="-0.20748">
        <ele>1224.5</ele>
        <time>2026-07-15T06:27:43Z</time>
      </trkpt>
      <trkpt lat="42.90397" lon="-0.20748">
        <ele>1224.5</ele>
        <time>2026-07-15T06:27:44Z</time>
      </trkpt>
      <trkpt lat="42.90397" lon="-0.20749">
        <ele>1224.5</ele>
        <time>2026-07-15T06:27:45Z</time>
      </trkpt>
      <trkpt lat="42.90398" lon="-0.20749">
        <ele>1224.5</ele>
        <time>2026-07-15T06:27:46Z</time>
      </trkpt>
      <trkpt lat="42.90398" lon="-0.2075">
        <ele>1224.5</ele>
        <time>2026-07-15T06:27:46Z</time>
      </trkpt>
      <trkpt lat="42.90399" lon="-0.2075">
        <ele>1224.5</ele>
        <time>2026-07-15T06:27:47Z</time>
      </trkpt>
      <trkpt lat="42.90399" lon="-0.20751">
        <ele>1224.5</ele>
        <time>2026-07-15T06:27:48Z</time>
      </trkpt>
      <trkpt lat="42.904" lon="-0.20751">
        <ele>1225.5</ele>
        <time>2026-07-15T06:27:49Z</time>
      </trkpt>
      <trkpt lat="42.904" lon="-0.20752">
        <ele>1225.5</ele>
        <time>2026-07-15T06:27:49Z</time>
      </trkpt>
      <trkpt lat="42.904" lon="-0.20752">
        <ele>1225.5</ele>
        <time>2026-07-15T06:27:50Z</time>
      </trkpt>
      <trkpt lat="42.90399" lon="-0.20752">
        <ele>1225.5</ele>
        <time>2026-07-15T06:27:51Z</time>
      </trkpt>
      <trkpt lat="42.90399" lon="-0.20753">
        <ele>1225.5</ele>
        <time>2026-07-15T06:27:52Z</time>
      </trkpt>
      <trkpt lat="42.90398" lon="-0.20752">
        <ele>1226.5</ele>
        <time>2026-07-15T06:27:52Z</time>
      </trkpt>
      <trkpt lat="42.90398" lon="-0.20752">
        <ele>1227.5</ele>
        <time>2026-07-15T06:27:53Z</time>
      </trkpt>
      <trkpt lat="42.90397" lon="-0.20752">
        <ele>1227.5</ele>
        <time>2026-07-15T06:27:54Z</time>
      </trkpt>
      <trkpt lat="42.90396" lon="-0.20752">
        <ele>1228.5</ele>
        <time>2026-07-15T06:27:55Z</time>
      </trkpt>
      <trkpt lat="42.90396" lon="-0.20752">
        <ele>1229.5</ele>
        <time>2026-07-15T06:27:56Z</time>
      </trkpt>
      <trkpt lat="42.90395" lon="-0.20752">
        <ele>1228.5</ele>
        <time>2026-07-15T06:27:56Z</time>
      </trkpt>
      <trkpt lat="42.90395" lon="-0.20753">
        <ele>1228.5</ele>
        <time>2026-07-15T06:27:57Z</time>
      </trkpt>
      <trkpt lat="42.90394" lon="-0.20753">
        <ele>1228.5</ele>
        <time>2026-07-15T06:27:58Z</time>
      </trkpt>
      <trkpt lat="42.90394" lon="-0.20753">
        <ele>1228.5</ele>
        <time>2026-07-15T06:27:59Z</time>
      </trkpt>
      <trkpt lat="42.90394" lon="-0.20753">
        <ele>1228.5</ele>
        <time>2026-07-15T06:27:59Z</time>
      </trkpt>
      <trkpt lat="42.90393" lon="-0.20754">
        <ele>1229.5</ele>
        <time>2026-07-15T06:28:00Z</time>
      </trkpt>
      <trkpt lat="42.90393" lon="-0.20754">
        <ele>1229.5</ele>
        <time>2026-07-15T06:28:01Z</time>
      </trkpt>
      <trkpt lat="42.90393" lon="-0.20755">
        <ele>1229.5</ele>
        <time>2026-07-15T06:28:02Z</time>
      </trkpt>
      <trkpt lat="42.90393" lon="-0.20755">
        <ele>1228.5</ele>
        <time>2026-07-15T06:28:03Z</time>
      </trkpt>
      <trkpt lat="42.90392" lon="-0.20755">
        <ele>1228.5</ele>
        <time>2026-07-15T06:28:03Z</time>
      </trkpt>
      <trkpt lat="42.90392" lon="-0.20756">
        <ele>1228.5</ele>
        <time>2026-07-15T06:28:04Z</time>
      </trkpt>
      <trkpt lat="42.90391" lon="-0.20755">
        <ele>1228.5</ele>
        <time>2026-07-15T06:28:05Z</time>
      </trkpt>
      <trkpt lat="42.90391" lon="-0.20755">
        <ele>1229.5</ele>
        <time>2026-07-15T06:28:05Z</time>
      </trkpt>
      <trkpt lat="42.9039" lon="-0.20755">
        <ele>1230.5</ele>
        <time>2026-07-15T06:28:06Z</time>
      </trkpt>
      <trkpt lat="42.90389" lon="-0.20754">
        <ele>1230.5</ele>
        <time>2026-07-15T06:28:07Z</time>
      </trkpt>
      <trkpt lat="42.90388" lon="-0.20754">
        <ele>1230.5</ele>
        <time>2026-07-15T06:28:08Z</time>
      </trkpt>
      <trkpt lat="42.90388" lon="-0.20754">
        <ele>1230.5</ele>
        <time>2026-07-15T06:28:08Z</time>
      </trkpt>
      <trkpt lat="42.90387" lon="-0.20754">
        <ele>1229.5</ele>
        <time>2026-07-15T06:28:09Z</time>
      </trkpt>
      <trkpt lat="42.90386" lon="-0.20754">
        <ele>1229.5</ele>
        <time>2026-07-15T06:28:10Z</time>
      </trkpt>
      <trkpt lat="42.90386" lon="-0.20754">
        <ele>1229.5</ele>
        <time>2026-07-15T06:28:11Z</time>
      </trkpt>
      <trkpt lat="42.90385" lon="-0.20754">
        <ele>1230.5</ele>
        <time>2026-07-15T06:28:12Z</time>
      </trkpt>
      <trkpt lat="42.90385" lon="-0.20754">
        <ele>1230.5</ele>
        <time>2026-07-15T06:28:12Z</time>
      </trkpt>
      <trkpt lat="42.90384" lon="-0.20755">
        <ele>1230.5</ele>
        <time>2026-07-15T06:28:13Z</time>
      </trkpt>
      <trkpt lat="42.90384" lon="-0.20755">
        <ele>1230.5</ele>
        <time>2026-07-15T06:28:14Z</time>
      </trkpt>
      <trkpt lat="42.90383" lon="-0.20756">
        <ele>1230.5</ele>
        <time>2026-07-15T06:28:15Z</time>
      </trkpt>
      <trkpt lat="42.90383" lon="-0.20756">
        <ele>1231.5</ele>
        <time>2026-07-15T06:28:15Z</time>
      </trkpt>
      <trkpt lat="42.90382" lon="-0.20756">
        <ele>1231.5</ele>
        <time>2026-07-15T06:28:16Z</time>
      </trkpt>
      <trkpt lat="42.90382" lon="-0.20757">
        <ele>1231.5</ele>
        <time>2026-07-15T06:28:17Z</time>
      </trkpt>
      <trkpt lat="42.90382" lon="-0.20758">
        <ele>1233.5</ele>
        <time>2026-07-15T06:28:18Z</time>
      </trkpt>
      <trkpt lat="42.90382" lon="-0.20758">
        <ele>1233.5</ele>
        <time>2026-07-15T06:28:19Z</time>
      </trkpt>
      <trkpt lat="42.90381" lon="-0.20758">
        <ele>1233.5</ele>
        <time>2026-07-15T06:28:19Z</time>
      </trkpt>
      <trkpt lat="42.90381" lon="-0.20758">
        <ele>1234.5</ele>
        <time>2026-07-15T06:28:20Z</time>
      </trkpt>
      <trkpt lat="42.90381" lon="-0.20759">
        <ele>1234.5</ele>
        <time>2026-07-15T06:28:21Z</time>
      </trkpt>
      <trkpt lat="42.9038" lon="-0.20759">
        <ele>1233.5</ele>
        <time>2026-07-15T06:28:22Z</time>
      </trkpt>
      <trkpt lat="42.9038" lon="-0.20758">
        <ele>1233.5</ele>
        <time>2026-07-15T06:28:22Z</time>
      </trkpt>
      <trkpt lat="42.9038" lon="-0.20758">
        <ele>1233.5</ele>
        <time>2026-07-15T06:28:23Z</time>
      </trkpt>
      <trkpt lat="42.90379" lon="-0.20759">
        <ele>1233.5</ele>
        <time>2026-07-15T06:28:24Z</time>
      </trkpt>
      <trkpt lat="42.90379" lon="-0.20759">
        <ele>1233.5</ele>
        <time>2026-07-15T06:28:25Z</time>
      </trkpt>
      <trkpt lat="42.90378" lon="-0.2076">
        <ele>1233.5</ele>
        <time>2026-07-15T06:28:26Z</time>
      </trkpt>
      <trkpt lat="42.90378" lon="-0.2076">
        <ele>1233.5</ele>
        <time>2026-07-15T06:28:26Z</time>
      </trkpt>
      <trkpt lat="42.90378" lon="-0.2076">
        <ele>1233.5</ele>
        <time>2026-07-15T06:28:27Z</time>
      </trkpt>
      <trkpt lat="42.90377" lon="-0.2076">
        <ele>1233.5</ele>
        <time>2026-07-15T06:28:28Z</time>
      </trkpt>
      <trkpt lat="42.90377" lon="-0.2076">
        <ele>1233.5</ele>
        <time>2026-07-15T06:28:28Z</time>
      </trkpt>
      <trkpt lat="42.90377" lon="-0.20759">
        <ele>1234.5</ele>
        <time>2026-07-15T06:28:29Z</time>
      </trkpt>
      <trkpt lat="42.90377" lon="-0.2076">
        <ele>1234.5</ele>
        <time>2026-07-15T06:28:30Z</time>
      </trkpt>
      <trkpt lat="42.90376" lon="-0.2076">
        <ele>1234.5</ele>
        <time>2026-07-15T06:28:31Z</time>
      </trkpt>
      <trkpt lat="42.90376" lon="-0.2076">
        <ele>1235.5</ele>
        <time>2026-07-15T06:28:31Z</time>
      </trkpt>
      <trkpt lat="42.90376" lon="-0.20761">
        <ele>1235.5</ele>
        <time>2026-07-15T06:28:32Z</time>
      </trkpt>
      <trkpt lat="42.90375" lon="-0.20761">
        <ele>1235.5</ele>
        <time>2026-07-15T06:28:33Z</time>
      </trkpt>
      <trkpt lat="42.90375" lon="-0.20761">
        <ele>1235.5</ele>
        <time>2026-07-15T06:28:34Z</time>
      </trkpt>
      <trkpt lat="42.90374" lon="-0.20762">
        <ele>1235.5</ele>
        <time>2026-07-15T06:28:34Z</time>
      </trkpt>
      <trkpt lat="42.90373" lon="-0.20762">
        <ele>1235.5</ele>
        <time>2026-07-15T06:28:35Z</time>
      </trkpt>
      <trkpt lat="42.90373" lon="-0.20762">
        <ele>1235.5</ele>
        <time>2026-07-15T06:28:36Z</time>
      </trkpt>
      <trkpt lat="42.90373" lon="-0.20763">
        <ele>1235.5</ele>
        <time>2026-07-15T06:28:37Z</time>
      </trkpt>
      <trkpt lat="42.90373" lon="-0.20763">
        <ele>1235.5</ele>
        <time>2026-07-15T06:28:37Z</time>
      </trkpt>
      <trkpt lat="42.90373" lon="-0.20763">
        <ele>1236.5</ele>
        <time>2026-07-15T06:28:38Z</time>
      </trkpt>
      <trkpt lat="42.90372" lon="-0.20764">
        <ele>1237.5</ele>
        <time>2026-07-15T06:28:39Z</time>
      </trkpt>
      <trkpt lat="42.90372" lon="-0.20765">
        <ele>1237.5</ele>
        <time>2026-07-15T06:28:40Z</time>
      </trkpt>
      <trkpt lat="42.90371" lon="-0.20765">
        <ele>1237.5</ele>
        <time>2026-07-15T06:28:41Z</time>
      </trkpt>
      <trkpt lat="42.90371" lon="-0.20766">
        <ele>1236.5</ele>
        <time>2026-07-15T06:28:41Z</time>
      </trkpt>
      <trkpt lat="42.90371" lon="-0.20766">
        <ele>1236.5</ele>
        <time>2026-07-15T06:28:42Z</time>
      </trkpt>
      <trkpt lat="42.90371" lon="-0.20766">
        <ele>1236.5</ele>
        <time>2026-07-15T06:28:43Z</time>
      </trkpt>
      <trkpt lat="42.9037" lon="-0.20767">
        <ele>1236.5</ele>
        <time>2026-07-15T06:28:44Z</time>
      </trkpt>
      <trkpt lat="42.9037" lon="-0.20767">
        <ele>1236.5</ele>
        <time>2026-07-15T06:28:44Z</time>
      </trkpt>
      <trkpt lat="42.90369" lon="-0.20768">
        <ele>1236.5</ele>
        <time>2026-07-15T06:28:45Z</time>
      </trkpt>
      <trkpt lat="42.90369" lon="-0.20768">
        <ele>1236.5</ele>
        <time>2026-07-15T06:28:46Z</time>
      </trkpt>
      <trkpt lat="42.90368" lon="-0.20768">
        <ele>1236.5</ele>
        <time>2026-07-15T06:28:47Z</time>
      </trkpt>
      <trkpt lat="42.90368" lon="-0.20767">
        <ele>1236.5</ele>
        <time>2026-07-15T06:28:47Z</time>
      </trkpt>
      <trkpt lat="42.90368" lon="-0.20767">
        <ele>1236.5</ele>
        <time>2026-07-15T06:28:48Z</time>
      </trkpt>
      <trkpt lat="42.90367" lon="-0.20767">
        <ele>1236.5</ele>
        <time>2026-07-15T06:28:49Z</time>
      </trkpt>
      <trkpt lat="42.90366" lon="-0.20767">
        <ele>1236.5</ele>
        <time>2026-07-15T06:28:49Z</time>
      </trkpt>
      <trkpt lat="42.90366" lon="-0.20767">
        <ele>1236.5</ele>
        <time>2026-07-15T06:28:50Z</time>
      </trkpt>
      <trkpt lat="42.90365" lon="-0.20766">
        <ele>1236.5</ele>
        <time>2026-07-15T06:28:51Z</time>
      </trkpt>
      <trkpt lat="42.90365" lon="-0.20766">
        <ele>1236.5</ele>
        <time>2026-07-15T06:28:52Z</time>
      </trkpt>
      <trkpt lat="42.90364" lon="-0.20766">
        <ele>1236.5</ele>
        <time>2026-07-15T06:28:52Z</time>
      </trkpt>
      <trkpt lat="42.90364" lon="-0.20766">
        <ele>1236.5</ele>
        <time>2026-07-15T06:28:53Z</time>
      </trkpt>
      <trkpt lat="42.90363" lon="-0.20765">
        <ele>1237.5</ele>
        <time>2026-07-15T06:28:54Z</time>
      </trkpt>
      <trkpt lat="42.90362" lon="-0.20765">
        <ele>1237.5</ele>
        <time>2026-07-15T06:28:55Z</time>
      </trkpt>
      <trkpt lat="42.90362" lon="-0.20764">
        <ele>1237.5</ele>
        <time>2026-07-15T06:28:55Z</time>
      </trkpt>
      <trkpt lat="42.90361" lon="-0.20764">
        <ele>1237.5</ele>
        <time>2026-07-15T06:28:56Z</time>
      </trkpt>
      <trkpt lat="42.90361" lon="-0.20764">
        <ele>1237.5</ele>
        <time>2026-07-15T06:28:57Z</time>
      </trkpt>
      <trkpt lat="42.90361" lon="-0.20763">
        <ele>1236.5</ele>
        <time>2026-07-15T06:28:57Z</time>
      </trkpt>
      <trkpt lat="42.9036" lon="-0.20763">
        <ele>1236.5</ele>
        <time>2026-07-15T06:28:58Z</time>
      </trkpt>
      <trkpt lat="42.9036" lon="-0.20763">
        <ele>1236.5</ele>
        <time>2026-07-15T06:28:59Z</time>
      </trkpt>
      <trkpt lat="42.9036" lon="-0.20762">
        <ele>1236.5</ele>
        <time>2026-07-15T06:29:00Z</time>
      </trkpt>
      <trkpt lat="42.90359" lon="-0.20762">
        <ele>1236.5</ele>
        <time>2026-07-15T06:29:00Z</time>
      </trkpt>
      <trkpt lat="42.90359" lon="-0.20761">
        <ele>1237.5</ele>
        <time>2026-07-15T06:29:01Z</time>
      </trkpt>
      <trkpt lat="42.90358" lon="-0.20761">
        <ele>1237.5</ele>
        <time>2026-07-15T06:29:02Z</time>
      </trkpt>
      <trkpt lat="42.90358" lon="-0.2076">
        <ele>1237.5</ele>
        <time>2026-07-15T06:29:03Z</time>
      </trkpt>
      <trkpt lat="42.90358" lon="-0.2076">
        <ele>1237.5</ele>
        <time>2026-07-15T06:29:03Z</time>
      </trkpt>
      <trkpt lat="42.90357" lon="-0.20759">
        <ele>1237.5</ele>
        <time>2026-07-15T06:29:04Z</time>
      </trkpt>
      <trkpt lat="42.90357" lon="-0.20758">
        <ele>1237.5</ele>
        <time>2026-07-15T06:29:05Z</time>
      </trkpt>
      <trkpt lat="42.90357" lon="-0.20758">
        <ele>1238.5</ele>
        <time>2026-07-15T06:29:06Z</time>
      </trkpt>
      <trkpt lat="42.90357" lon="-0.20757">
        <ele>1238.5</ele>
        <time>2026-07-15T06:29:06Z</time>
      </trkpt>
      <trkpt lat="42.90357" lon="-0.20757">
        <ele>1239.5</ele>
        <time>2026-07-15T06:29:07Z</time>
      </trkpt>
      <trkpt lat="42.90356" lon="-0.20756">
        <ele>1239.5</ele>
        <time>2026-07-15T06:29:08Z</time>
      </trkpt>
      <trkpt lat="42.90356" lon="-0.20755">
        <ele>1239.5</ele>
        <time>2026-07-15T06:29:09Z</time>
      </trkpt>
      <trkpt lat="42.90356" lon="-0.20754">
        <ele>1239.5</ele>
        <time>2026-07-15T06:29:09Z</time>
      </trkpt>
      <trkpt lat="42.90355" lon="-0.20754">
        <ele>1240.5</ele>
        <time>2026-07-15T06:29:10Z</time>
      </trkpt>
      <trkpt lat="42.90355" lon="-0.20753">
        <ele>1240.5</ele>
        <time>2026-07-15T06:29:11Z</time>
      </trkpt>
      <trkpt lat="42.90355" lon="-0.20753">
        <ele>1241.5</ele>
        <time>2026-07-15T06:29:12Z</time>
      </trkpt>
      <trkpt lat="42.90354" lon="-0.20753">
        <ele>1241.5</ele>
        <time>2026-07-15T06:29:12Z</time>
      </trkpt>
      <trkpt lat="42.90354" lon="-0.20753">
        <ele>1241.5</ele>
        <time>2026-07-15T06:29:13Z</time>
      </trkpt>
      <trkpt lat="42.90354" lon="-0.20752">
        <ele>1241.5</ele>
        <time>2026-07-15T06:29:14Z</time>
      </trkpt>
      <trkpt lat="42.90354" lon="-0.20752">
        <ele>1241.5</ele>
        <time>2026-07-15T06:29:15Z</time>
      </trkpt>
      <trkpt lat="42.90354" lon="-0.20751">
        <ele>1241.5</ele>
        <time>2026-07-15T06:29:15Z</time>
      </trkpt>
      <trkpt lat="42.90354" lon="-0.20751">
        <ele>1240.5</ele>
        <time>2026-07-15T06:29:16Z</time>
      </trkpt>
      <trkpt lat="42.90353" lon="-0.2075">
        <ele>1240.5</ele>
        <time>2026-07-15T06:29:17Z</time>
      </trkpt>
      <trkpt lat="42.90353" lon="-0.2075">
        <ele>1240.5</ele>
        <time>2026-07-15T06:29:18Z</time>
      </trkpt>
      <trkpt lat="42.90353" lon="-0.2075">
        <ele>1240.5</ele>
        <time>2026-07-15T06:29:18Z</time>
      </trkpt>
      <trkpt lat="42.90353" lon="-0.2075">
        <ele>1239.5</ele>
        <time>2026-07-15T06:29:19Z</time>
      </trkpt>
      <trkpt lat="42.90352" lon="-0.20749">
        <ele>1239.5</ele>
        <time>2026-07-15T06:29:20Z</time>
      </trkpt>
      <trkpt lat="42.90352" lon="-0.20749">
        <ele>1240.5</ele>
        <time>2026-07-15T06:29:21Z</time>
      </trkpt>
      <trkpt lat="42.90352" lon="-0.20748">
        <ele>1240.5</ele>
        <time>2026-07-15T06:29:21Z</time>
      </trkpt>
      <trkpt lat="42.90351" lon="-0.20748">
        <ele>1239.5</ele>
        <time>2026-07-15T06:29:22Z</time>
      </trkpt>
      <trkpt lat="42.9035" lon="-0.20748">
        <ele>1239.5</ele>
        <time>2026-07-15T06:29:23Z</time>
      </trkpt>
      <trkpt lat="42.9035" lon="-0.20748">
        <ele>1239.5</ele>
        <time>2026-07-15T06:29:24Z</time>
      </trkpt>
      <trkpt lat="42.90349" lon="-0.20747">
        <ele>1239.5</ele>
        <time>2026-07-15T06:29:24Z</time>
      </trkpt>
      <trkpt lat="42.90349" lon="-0.20748">
        <ele>1239.5</ele>
        <time>2026-07-15T06:29:25Z</time>
      </trkpt>
      <trkpt lat="42.90348" lon="-0.20748">
        <ele>1239.5</ele>
        <time>2026-07-15T06:29:26Z</time>
      </trkpt>
      <trkpt lat="42.90347" lon="-0.20748">
        <ele>1240.5</ele>
        <time>2026-07-15T06:29:27Z</time>
      </trkpt>
      <trkpt lat="42.90347" lon="-0.20748">
        <ele>1239.5</ele>
        <time>2026-07-15T06:29:27Z</time>
      </trkpt>
      <trkpt lat="42.90346" lon="-0.20748">
        <ele>1240.5</ele>
        <time>2026-07-15T06:29:28Z</time>
      </trkpt>
      <trkpt lat="42.90345" lon="-0.20748">
        <ele>1240.5</ele>
        <time>2026-07-15T06:29:29Z</time>
      </trkpt>
      <trkpt lat="42.90345" lon="-0.20749">
        <ele>1240.5</ele>
        <time>2026-07-15T06:29:30Z</time>
      </trkpt>
      <trkpt lat="42.90344" lon="-0.20749">
        <ele>1241.5</ele>
        <time>2026-07-15T06:29:30Z</time>
      </trkpt>
      <trkpt lat="42.90343" lon="-0.20749">
        <ele>1241.5</ele>
        <time>2026-07-15T06:29:31Z</time>
      </trkpt>
      <trkpt lat="42.90343" lon="-0.2075">
        <ele>1240.5</ele>
        <time>2026-07-15T06:29:32Z</time>
      </trkpt>
      <trkpt lat="42.90342" lon="-0.2075">
        <ele>1240.5</ele>
        <time>2026-07-15T06:29:33Z</time>
      </trkpt>
      <trkpt lat="42.90342" lon="-0.2075">
        <ele>1240.5</ele>
        <time>2026-07-15T06:29:33Z</time>
      </trkpt>
      <trkpt lat="42.90341" lon="-0.2075">
        <ele>1240.5</ele>
        <time>2026-07-15T06:29:34Z</time>
      </trkpt>
      <trkpt lat="42.90341" lon="-0.2075">
        <ele>1239.5</ele>
        <time>2026-07-15T06:29:35Z</time>
      </trkpt>
      <trkpt lat="42.90341" lon="-0.20751">
        <ele>1240.5</ele>
        <time>2026-07-15T06:29:35Z</time>
      </trkpt>
      <trkpt lat="42.90341" lon="-0.20751">
        <ele>1240.5</ele>
        <time>2026-07-15T06:29:36Z</time>
      </trkpt>
      <trkpt lat="42.9034" lon="-0.20752">
        <ele>1240.5</ele>
        <time>2026-07-15T06:29:37Z</time>
      </trkpt>
      <trkpt lat="42.9034" lon="-0.20752">
        <ele>1240.5</ele>
        <time>2026-07-15T06:29:38Z</time>
      </trkpt>
      <trkpt lat="42.90339" lon="-0.20753">
        <ele>1241.5</ele>
        <time>2026-07-15T06:29:39Z</time>
      </trkpt>
      <trkpt lat="42.90338" lon="-0.20753">
        <ele>1241.5</ele>
        <time>2026-07-15T06:29:39Z</time>
      </trkpt>
      <trkpt lat="42.90338" lon="-0.20753">
        <ele>1241.5</ele>
        <time>2026-07-15T06:29:40Z</time>
      </trkpt>
      <trkpt lat="42.90337" lon="-0.20754">
        <ele>1241.5</ele>
        <time>2026-07-15T06:29:41Z</time>
      </trkpt>
      <trkpt lat="42.90337" lon="-0.20754">
        <ele>1241.5</ele>
        <time>2026-07-15T06:29:41Z</time>
      </trkpt>
      <trkpt lat="42.90336" lon="-0.20754">
        <ele>1241.5</ele>
        <time>2026-07-15T06:29:42Z</time>
      </trkpt>
      <trkpt lat="42.90335" lon="-0.20754">
        <ele>1241.5</ele>
        <time>2026-07-15T06:29:43Z</time>
      </trkpt>
      <trkpt lat="42.90335" lon="-0.20754">
        <ele>1241.5</ele>
        <time>2026-07-15T06:29:44Z</time>
      </trkpt>
      <trkpt lat="42.90335" lon="-0.20754">
        <ele>1241.5</ele>
        <time>2026-07-15T06:29:45Z</time>
      </trkpt>
      <trkpt lat="42.90334" lon="-0.20754">
        <ele>1241.5</ele>
        <time>2026-07-15T06:29:45Z</time>
      </trkpt>
      <trkpt lat="42.90334" lon="-0.20754">
        <ele>1241.5</ele>
        <time>2026-07-15T06:29:46Z</time>
      </trkpt>
      <trkpt lat="42.90333" lon="-0.20754">
        <ele>1241.5</ele>
        <time>2026-07-15T06:29:47Z</time>
      </trkpt>
      <trkpt lat="42.90333" lon="-0.20754">
        <ele>1241.5</ele>
        <time>2026-07-15T06:29:48Z</time>
      </trkpt>
      <trkpt lat="42.90332" lon="-0.20753">
        <ele>1241.5</ele>
        <time>2026-07-15T06:29:48Z</time>
      </trkpt>
      <trkpt lat="42.90332" lon="-0.20753">
        <ele>1242.5</ele>
        <time>2026-07-15T06:29:49Z</time>
      </trkpt>
      <trkpt lat="42.90332" lon="-0.20753">
        <ele>1242.5</ele>
        <time>2026-07-15T06:29:50Z</time>
      </trkpt>
      <trkpt lat="42.90331" lon="-0.20752">
        <ele>1242.5</ele>
        <time>2026-07-15T06:29:51Z</time>
      </trkpt>
      <trkpt lat="42.90331" lon="-0.20751">
        <ele>1242.5</ele>
        <time>2026-07-15T06:29:51Z</time>
      </trkpt>
      <trkpt lat="42.90331" lon="-0.20751">
        <ele>1242.5</ele>
        <time>2026-07-15T06:29:52Z</time>
      </trkpt>
      <trkpt lat="42.9033" lon="-0.20751">
        <ele>1242.5</ele>
        <time>2026-07-15T06:29:53Z</time>
      </trkpt>
      <trkpt lat="42.9033" lon="-0.20751">
        <ele>1241.5</ele>
        <time>2026-07-15T06:29:54Z</time>
      </trkpt>
      <trkpt lat="42.90329" lon="-0.2075">
        <ele>1241.5</ele>
        <time>2026-07-15T06:29:55Z</time>
      </trkpt>
      <trkpt lat="42.90329" lon="-0.2075">
        <ele>1241.5</ele>
        <time>2026-07-15T06:29:55Z</time>
      </trkpt>
      <trkpt lat="42.90328" lon="-0.2075">
        <ele>1241.5</ele>
        <time>2026-07-15T06:29:56Z</time>
      </trkpt>
      <trkpt lat="42.90328" lon="-0.20749">
        <ele>1241.5</ele>
        <time>2026-07-15T06:29:57Z</time>
      </trkpt>
      <trkpt lat="42.90327" lon="-0.20749">
        <ele>1242.5</ele>
        <time>2026-07-15T06:29:58Z</time>
      </trkpt>
      <trkpt lat="42.90327" lon="-0.20748">
        <ele>1242.5</ele>
        <time>2026-07-15T06:29:58Z</time>
      </trkpt>
      <trkpt lat="42.90327" lon="-0.20747">
        <ele>1242.5</ele>
        <time>2026-07-15T06:29:59Z</time>
      </trkpt>
      <trkpt lat="42.90327" lon="-0.20746">
        <ele>1242.5</ele>
        <time>2026-07-15T06:30:00Z</time>
      </trkpt>
      <trkpt lat="42.90326" lon="-0.20745">
        <ele>1243.5</ele>
        <time>2026-07-15T06:30:01Z</time>
      </trkpt>
      <trkpt lat="42.90326" lon="-0.20745">
        <ele>1243.5</ele>
        <time>2026-07-15T06:30:02Z</time>
      </trkpt>
      <trkpt lat="42.90326" lon="-0.20744">
        <ele>1243.5</ele>
        <time>2026-07-15T06:30:02Z</time>
      </trkpt>
      <trkpt lat="42.90325" lon="-0.20744">
        <ele>1243.5</ele>
        <time>2026-07-15T06:30:03Z</time>
      </trkpt>
      <trkpt lat="42.90325" lon="-0.20743">
        <ele>1243.5</ele>
        <time>2026-07-15T06:30:04Z</time>
      </trkpt>
      <trkpt lat="42.90325" lon="-0.20743">
        <ele>1243.5</ele>
        <time>2026-07-15T06:30:05Z</time>
      </trkpt>
      <trkpt lat="42.90324" lon="-0.20743">
        <ele>1243.5</ele>
        <time>2026-07-15T06:30:05Z</time>
      </trkpt>
      <trkpt lat="42.90324" lon="-0.20743">
        <ele>1244.5</ele>
        <time>2026-07-15T06:30:06Z</time>
      </trkpt>
      <trkpt lat="42.90323" lon="-0.20742">
        <ele>1244.5</ele>
        <time>2026-07-15T06:30:07Z</time>
      </trkpt>
      <trkpt lat="42.90323" lon="-0.20743">
        <ele>1244.5</ele>
        <time>2026-07-15T06:30:08Z</time>
      </trkpt>
      <trkpt lat="42.90322" lon="-0.20743">
        <ele>1244.5</ele>
        <time>2026-07-15T06:30:09Z</time>
      </trkpt>
      <trkpt lat="42.90322" lon="-0.20743">
        <ele>1244.5</ele>
        <time>2026-07-15T06:30:09Z</time>
      </trkpt>
      <trkpt lat="42.90321" lon="-0.20743">
        <ele>1244.5</ele>
        <time>2026-07-15T06:30:10Z</time>
      </trkpt>
      <trkpt lat="42.90321" lon="-0.20743">
        <ele>1244.5</ele>
        <time>2026-07-15T06:30:11Z</time>
      </trkpt>
      <trkpt lat="42.9032" lon="-0.20743">
        <ele>1244.5</ele>
        <time>2026-07-15T06:30:12Z</time>
      </trkpt>
      <trkpt lat="42.9032" lon="-0.20743">
        <ele>1244.5</ele>
        <time>2026-07-15T06:30:12Z</time>
      </trkpt>
      <trkpt lat="42.9032" lon="-0.20743">
        <ele>1244.5</ele>
        <time>2026-07-15T06:30:13Z</time>
      </trkpt>
      <trkpt lat="42.9032" lon="-0.20744">
        <ele>1244.5</ele>
        <time>2026-07-15T06:30:14Z</time>
      </trkpt>
      <trkpt lat="42.90319" lon="-0.20744">
        <ele>1244.5</ele>
        <time>2026-07-15T06:30:15Z</time>
      </trkpt>
      <trkpt lat="42.90318" lon="-0.20744">
        <ele>1244.5</ele>
        <time>2026-07-15T06:30:16Z</time>
      </trkpt>
      <trkpt lat="42.90318" lon="-0.20744">
        <ele>1246.5</ele>
        <time>2026-07-15T06:30:16Z</time>
      </trkpt>
      <trkpt lat="42.90318" lon="-0.20744">
        <ele>1246.5</ele>
        <time>2026-07-15T06:30:17Z</time>
      </trkpt>
      <trkpt lat="42.90318" lon="-0.20743">
        <ele>1247.5</ele>
        <time>2026-07-15T06:30:17Z</time>
      </trkpt>
      <trkpt lat="42.90317" lon="-0.20744">
        <ele>1247.5</ele>
        <time>2026-07-15T06:30:18Z</time>
      </trkpt>
      <trkpt lat="42.90316" lon="-0.20743">
        <ele>1248.5</ele>
        <time>2026-07-15T06:30:19Z</time>
      </trkpt>
      <trkpt lat="42.90316" lon="-0.20743">
        <ele>1248.5</ele>
        <time>2026-07-15T06:30:20Z</time>
      </trkpt>
      <trkpt lat="42.90316" lon="-0.20743">
        <ele>1248.5</ele>
        <time>2026-07-15T06:30:21Z</time>
      </trkpt>
      <trkpt lat="42.90315" lon="-0.20743">
        <ele>1249.5</ele>
        <time>2026-07-15T06:30:21Z</time>
      </trkpt>
      <trkpt lat="42.90315" lon="-0.20742">
        <ele>1249.5</ele>
        <time>2026-07-15T06:30:22Z</time>
      </trkpt>
      <trkpt lat="42.90314" lon="-0.20742">
        <ele>1249.5</ele>
        <time>2026-07-15T06:30:23Z</time>
      </trkpt>
      <trkpt lat="42.90314" lon="-0.20741">
        <ele>1249.5</ele>
        <time>2026-07-15T06:30:24Z</time>
      </trkpt>
      <trkpt lat="42.90314" lon="-0.20741">
        <ele>1248.5</ele>
        <time>2026-07-15T06:30:24Z</time>
      </trkpt>
      <trkpt lat="42.90314" lon="-0.20741">
        <ele>1249.5</ele>
        <time>2026-07-15T06:30:25Z</time>
      </trkpt>
      <trkpt lat="42.90313" lon="-0.20741">
        <ele>1249.5</ele>
        <time>2026-07-15T06:30:26Z</time>
      </trkpt>
      <trkpt lat="42.90313" lon="-0.20741">
        <ele>1249.5</ele>
        <time>2026-07-15T06:30:27Z</time>
      </trkpt>
      <trkpt lat="42.90313" lon="-0.20741">
        <ele>1251.5</ele>
        <time>2026-07-15T06:30:27Z</time>
      </trkpt>
      <trkpt lat="42.90313" lon="-0.20741">
        <ele>1250.5</ele>
        <time>2026-07-15T06:30:28Z</time>
      </trkpt>
      <trkpt lat="42.90314" lon="-0.20742">
        <ele>1250.5</ele>
        <time>2026-07-15T06:30:29Z</time>
      </trkpt>
      <trkpt lat="42.90314" lon="-0.20742">
        <ele>1251.5</ele>
        <time>2026-07-15T06:30:30Z</time>
      </trkpt>
      <trkpt lat="42.90315" lon="-0.20742">
        <ele>1252.5</ele>
        <time>2026-07-15T06:30:31Z</time>
      </trkpt>
      <trkpt lat="42.90314" lon="-0.20742">
        <ele>1253.5</ele>
        <time>2026-07-15T06:30:31Z</time>
      </trkpt>
      <trkpt lat="42.90314" lon="-0.20743">
        <ele>1253.5</ele>
        <time>2026-07-15T06:30:32Z</time>
      </trkpt>
      <trkpt lat="42.90314" lon="-0.20743">
        <ele>1253.5</ele>
        <time>2026-07-15T06:30:33Z</time>
      </trkpt>
      <trkpt lat="42.90313" lon="-0.20743">
        <ele>1254.5</ele>
        <time>2026-07-15T06:30:34Z</time>
      </trkpt>
      <trkpt lat="42.90314" lon="-0.20743">
        <ele>1255.5</ele>
        <time>2026-07-15T06:30:34Z</time>
      </trkpt>
      <trkpt lat="42.90314" lon="-0.20743">
        <ele>1255.5</ele>
        <time>2026-07-15T06:30:35Z</time>
      </trkpt>
      <trkpt lat="42.90314" lon="-0.20743">
        <ele>1255.5</ele>
        <time>2026-07-15T06:30:36Z</time>
      </trkpt>
      <trkpt lat="42.90313" lon="-0.20743">
        <ele>1255.5</ele>
        <time>2026-07-15T06:30:37Z</time>
      </trkpt>
      <trkpt lat="42.90313" lon="-0.20743">
        <ele>1256.5</ele>
        <time>2026-07-15T06:30:38Z</time>
      </trkpt>
      <trkpt lat="42.90314" lon="-0.20744">
        <ele>1257.5</ele>
        <time>2026-07-15T06:30:39Z</time>
      </trkpt>
      <trkpt lat="42.90314" lon="-0.20744">
        <ele>1258.5</ele>
        <time>2026-07-15T06:30:40Z</time>
      </trkpt>
      <trkpt lat="42.90314" lon="-0.20745">
        <ele>1259.5</ele>
        <time>2026-07-15T06:30:40Z</time>
      </trkpt>
      <trkpt lat="42.90314" lon="-0.20745">
        <ele>1259.5</ele>
        <time>2026-07-15T06:30:41Z</time>
      </trkpt>
      <trkpt lat="42.90314" lon="-0.20746">
        <ele>1261.5</ele>
        <time>2026-07-15T06:30:41Z</time>
      </trkpt>
      <trkpt lat="42.90314" lon="-0.20746">
        <ele>1261.5</ele>
        <time>2026-07-15T06:30:42Z</time>
      </trkpt>
      <trkpt lat="42.90314" lon="-0.20747">
        <ele>1261.5</ele>
        <time>2026-07-15T06:30:43Z</time>
      </trkpt>
      <trkpt lat="42.90314" lon="-0.20747">
        <ele>1260.5</ele>
        <time>2026-07-15T06:30:43Z</time>
      </trkpt>
      <trkpt lat="42.90314" lon="-0.20749">
        <ele>1260.5</ele>
        <time>2026-07-15T06:30:44Z</time>
      </trkpt>
      <trkpt lat="42.90314" lon="-0.20749">
        <ele>1261.5</ele>
        <time>2026-07-15T06:30:45Z</time>
      </trkpt>
      <trkpt lat="42.90314" lon="-0.2075">
        <ele>1261.5</ele>
        <time>2026-07-15T06:30:46Z</time>
      </trkpt>
      <trkpt lat="42.90314" lon="-0.20751">
        <ele>1261.5</ele>
        <time>2026-07-15T06:30:46Z</time>
      </trkpt>
      <trkpt lat="42.90314" lon="-0.20751">
        <ele>1261.5</ele>
        <time>2026-07-15T06:30:47Z</time>
      </trkpt>
      <trkpt lat="42.90313" lon="-0.20752">
        <ele>1260.5</ele>
        <time>2026-07-15T06:30:48Z</time>
      </trkpt>
      <trkpt lat="42.90313" lon="-0.20752">
        <ele>1260.5</ele>
        <time>2026-07-15T06:30:49Z</time>
      </trkpt>
      <trkpt lat="42.90312" lon="-0.20752">
        <ele>1261.5</ele>
        <time>2026-07-15T06:30:50Z</time>
      </trkpt>
      <trkpt lat="42.90312" lon="-0.20752">
        <ele>1262.5</ele>
        <time>2026-07-15T06:30:51Z</time>
      </trkpt>
      <trkpt lat="42.90311" lon="-0.20751">
        <ele>1262.5</ele>
        <time>2026-07-15T06:30:51Z</time>
      </trkpt>
      <trkpt lat="42.90311" lon="-0.20751">
        <ele>1262.5</ele>
        <time>2026-07-15T06:30:52Z</time>
      </trkpt>
      <trkpt lat="42.9031" lon="-0.20751">
        <ele>1263.5</ele>
        <time>2026-07-15T06:30:52Z</time>
      </trkpt>
      <trkpt lat="42.9031" lon="-0.20751">
        <ele>1263.5</ele>
        <time>2026-07-15T06:30:53Z</time>
      </trkpt>
      <trkpt lat="42.90309" lon="-0.2075">
        <ele>1263.5</ele>
        <time>2026-07-15T06:30:54Z</time>
      </trkpt>
      <trkpt lat="42.90309" lon="-0.2075">
        <ele>1263.5</ele>
        <time>2026-07-15T06:30:54Z</time>
      </trkpt>
      <trkpt lat="42.90308" lon="-0.20749">
        <ele>1263.5</ele>
        <time>2026-07-15T06:30:55Z</time>
      </trkpt>
      <trkpt lat="42.90308" lon="-0.20749">
        <ele>1263.5</ele>
        <time>2026-07-15T06:30:56Z</time>
      </trkpt>
      <trkpt lat="42.90307" lon="-0.20748">
        <ele>1264.5</ele>
        <time>2026-07-15T06:30:57Z</time>
      </trkpt>
      <trkpt lat="42.90307" lon="-0.20747">
        <ele>1264.5</ele>
        <time>2026-07-15T06:30:58Z</time>
      </trkpt>
      <trkpt lat="42.90307" lon="-0.20747">
        <ele>1264.5</ele>
        <time>2026-07-15T06:30:58Z</time>
      </trkpt>
      <trkpt lat="42.90306" lon="-0.20747">
        <ele>1264.5</ele>
        <time>2026-07-15T06:30:59Z</time>
      </trkpt>
      <trkpt lat="42.90306" lon="-0.20748">
        <ele>1264.5</ele>
        <time>2026-07-15T06:31:00Z</time>
      </trkpt>
      <trkpt lat="42.90306" lon="-0.20749">
        <ele>1264.5</ele>
        <time>2026-07-15T06:31:01Z</time>
      </trkpt>
      <trkpt lat="42.90305" lon="-0.20749">
        <ele>1264.5</ele>
        <time>2026-07-15T06:31:02Z</time>
      </trkpt>
      <trkpt lat="42.90305" lon="-0.2075">
        <ele>1263.5</ele>
        <time>2026-07-15T06:31:03Z</time>
      </trkpt>
      <trkpt lat="42.90305" lon="-0.2075">
        <ele>1264.5</ele>
        <time>2026-07-15T06:31:04Z</time>
      </trkpt>
      <trkpt lat="42.90305" lon="-0.20751">
        <ele>1263.5</ele>
        <time>2026-07-15T06:31:05Z</time>
      </trkpt>
      <trkpt lat="42.90305" lon="-0.20752">
        <ele>1264.5</ele>
        <time>2026-07-15T06:31:06Z</time>
      </trkpt>
      <trkpt lat="42.90304" lon="-0.20753">
        <ele>1264.5</ele>
        <time>2026-07-15T06:31:07Z</time>
      </trkpt>
      <trkpt lat="42.90304" lon="-0.20753">
        <ele>1264.5</ele>
        <time>2026-07-15T06:31:07Z</time>
      </trkpt>
      <trkpt lat="42.90304" lon="-0.20754">
        <ele>1264.5</ele>
        <time>2026-07-15T06:31:08Z</time>
      </trkpt>
      <trkpt lat="42.90304" lon="-0.20753">
        <ele>1264.5</ele>
        <time>2026-07-15T06:31:08Z</time>
      </trkpt>
      <trkpt lat="42.90305" lon="-0.20754">
        <ele>1264.5</ele>
        <time>2026-07-15T06:31:09Z</time>
      </trkpt>
      <trkpt lat="42.90305" lon="-0.20755">
        <ele>1264.5</ele>
        <time>2026-07-15T06:31:10Z</time>
      </trkpt>
      <trkpt lat="42.90304" lon="-0.20755">
        <ele>1264.5</ele>
        <time>2026-07-15T06:31:11Z</time>
      </trkpt>
      <trkpt lat="42.90304" lon="-0.20755">
        <ele>1264.5</ele>
        <time>2026-07-15T06:31:12Z</time>
      </trkpt>
      <trkpt lat="42.90304" lon="-0.20755">
        <ele>1265.5</ele>
        <time>2026-07-15T06:31:13Z</time>
      </trkpt>
      <trkpt lat="42.90303" lon="-0.20755">
        <ele>1265.5</ele>
        <time>2026-07-15T06:31:14Z</time>
      </trkpt>
      <trkpt lat="42.90303" lon="-0.20755">
        <ele>1265.5</ele>
        <time>2026-07-15T06:31:15Z</time>
      </trkpt>
      <trkpt lat="42.90302" lon="-0.20756">
        <ele>1265.5</ele>
        <time>2026-07-15T06:31:15Z</time>
      </trkpt>
      <trkpt lat="42.90302" lon="-0.20755">
        <ele>1265.5</ele>
        <time>2026-07-15T06:31:16Z</time>
      </trkpt>
      <trkpt lat="42.90301" lon="-0.20755">
        <ele>1265.5</ele>
        <time>2026-07-15T06:31:17Z</time>
      </trkpt>
      <trkpt lat="42.90301" lon="-0.20755">
        <ele>1266.5</ele>
        <time>2026-07-15T06:31:18Z</time>
      </trkpt>
      <trkpt lat="42.903" lon="-0.20755">
        <ele>1266.5</ele>
        <time>2026-07-15T06:31:18Z</time>
      </trkpt>
      <trkpt lat="42.903" lon="-0.20755">
        <ele>1266.5</ele>
        <time>2026-07-15T06:31:19Z</time>
      </trkpt>
      <trkpt lat="42.903" lon="-0.20755">
        <ele>1266.5</ele>
        <time>2026-07-15T06:31:20Z</time>
      </trkpt>
      <trkpt lat="42.903" lon="-0.20756">
        <ele>1266.5</ele>
        <time>2026-07-15T06:31:21Z</time>
      </trkpt>
      <trkpt lat="42.903" lon="-0.20756">
        <ele>1266.5</ele>
        <time>2026-07-15T06:31:22Z</time>
      </trkpt>
      <trkpt lat="42.903" lon="-0.20756">
        <ele>1266.5</ele>
        <time>2026-07-15T06:31:23Z</time>
      </trkpt>
      <trkpt lat="42.903" lon="-0.20756">
        <ele>1267.5</ele>
        <time>2026-07-15T06:31:23Z</time>
      </trkpt>
      <trkpt lat="42.90299" lon="-0.20757">
        <ele>1267.5</ele>
        <time>2026-07-15T06:31:24Z</time>
      </trkpt>
      <trkpt lat="42.90299" lon="-0.20758">
        <ele>1267.5</ele>
        <time>2026-07-15T06:31:25Z</time>
      </trkpt>
      <trkpt lat="42.90298" lon="-0.20758">
        <ele>1266.5</ele>
        <time>2026-07-15T06:31:26Z</time>
      </trkpt>
      <trkpt lat="42.90298" lon="-0.20757">
        <ele>1267.5</ele>
        <time>2026-07-15T06:31:27Z</time>
      </trkpt>
      <trkpt lat="42.90297" lon="-0.20757">
        <ele>1267.5</ele>
        <time>2026-07-15T06:31:27Z</time>
      </trkpt>
      <trkpt lat="42.90297" lon="-0.20757">
        <ele>1267.5</ele>
        <time>2026-07-15T06:31:28Z</time>
      </trkpt>
      <trkpt lat="42.90297" lon="-0.20757">
        <ele>1268.5</ele>
        <time>2026-07-15T06:31:28Z</time>
      </trkpt>
      <trkpt lat="42.90296" lon="-0.20757">
        <ele>1268.5</ele>
        <time>2026-07-15T06:31:29Z</time>
      </trkpt>
      <trkpt lat="42.90296" lon="-0.20758">
        <ele>1268.5</ele>
        <time>2026-07-15T06:31:30Z</time>
      </trkpt>
      <trkpt lat="42.90296" lon="-0.20757">
        <ele>1268.5</ele>
        <time>2026-07-15T06:31:31Z</time>
      </trkpt>
      <trkpt lat="42.90296" lon="-0.20757">
        <ele>1268.5</ele>
        <time>2026-07-15T06:31:31Z</time>
      </trkpt>
      <trkpt lat="42.90296" lon="-0.20758">
        <ele>1268.5</ele>
        <time>2026-07-15T06:31:32Z</time>
      </trkpt>
      <trkpt lat="42.90295" lon="-0.20759">
        <ele>1268.5</ele>
        <time>2026-07-15T06:31:33Z</time>
      </trkpt>
      <trkpt lat="42.90295" lon="-0.20759">
        <ele>1268.5</ele>
        <time>2026-07-15T06:31:34Z</time>
      </trkpt>
      <trkpt lat="42.90295" lon="-0.20759">
        <ele>1268.5</ele>
        <time>2026-07-15T06:31:35Z</time>
      </trkpt>
      <trkpt lat="42.90295" lon="-0.2076">
        <ele>1268.5</ele>
        <time>2026-07-15T06:31:35Z</time>
      </trkpt>
      <trkpt lat="42.90294" lon="-0.20761">
        <ele>1268.5</ele>
        <time>2026-07-15T06:31:36Z</time>
      </trkpt>
      <trkpt lat="42.90294" lon="-0.20761">
        <ele>1268.5</ele>
        <time>2026-07-15T06:31:37Z</time>
      </trkpt>
      <trkpt lat="42.90293" lon="-0.20762">
        <ele>1269.5</ele>
        <time>2026-07-15T06:31:38Z</time>
      </trkpt>
      <trkpt lat="42.90293" lon="-0.20762">
        <ele>1268.5</ele>
        <time>2026-07-15T06:31:38Z</time>
      </trkpt>
      <trkpt lat="42.90293" lon="-0.20763">
        <ele>1268.5</ele>
        <time>2026-07-15T06:31:39Z</time>
      </trkpt>
      <trkpt lat="42.90292" lon="-0.20763">
        <ele>1268.5</ele>
        <time>2026-07-15T06:31:40Z</time>
      </trkpt>
      <trkpt lat="42.90292" lon="-0.20763">
        <ele>1268.5</ele>
        <time>2026-07-15T06:31:41Z</time>
      </trkpt>
      <trkpt lat="42.90291" lon="-0.20763">
        <ele>1268.5</ele>
        <time>2026-07-15T06:31:42Z</time>
      </trkpt>
      <trkpt lat="42.90291" lon="-0.20762">
        <ele>1269.5</ele>
        <time>2026-07-15T06:31:42Z</time>
      </trkpt>
      <trkpt lat="42.9029" lon="-0.20762">
        <ele>1269.5</ele>
        <time>2026-07-15T06:31:43Z</time>
      </trkpt>
      <trkpt lat="42.9029" lon="-0.20762">
        <ele>1269.5</ele>
        <time>2026-07-15T06:31:44Z</time>
      </trkpt>
      <trkpt lat="42.9029" lon="-0.20761">
        <ele>1269.5</ele>
        <time>2026-07-15T06:31:44Z</time>
      </trkpt>
      <trkpt lat="42.90289" lon="-0.20761">
        <ele>1269.5</ele>
        <time>2026-07-15T06:31:45Z</time>
      </trkpt>
      <trkpt lat="42.90289" lon="-0.20761">
        <ele>1270.5</ele>
        <time>2026-07-15T06:31:45Z</time>
      </trkpt>
      <trkpt lat="42.90289" lon="-0.20761">
        <ele>1269.5</ele>
        <time>2026-07-15T06:31:46Z</time>
      </trkpt>
      <trkpt lat="42.90288" lon="-0.20761">
        <ele>1269.5</ele>
        <time>2026-07-15T06:31:47Z</time>
      </trkpt>
      <trkpt lat="42.90288" lon="-0.20762">
        <ele>1270.5</ele>
        <time>2026-07-15T06:31:48Z</time>
      </trkpt>
      <trkpt lat="42.90287" lon="-0.20762">
        <ele>1270.5</ele>
        <time>2026-07-15T06:31:48Z</time>
      </trkpt>
      <trkpt lat="42.90287" lon="-0.20763">
        <ele>1270.5</ele>
        <time>2026-07-15T06:31:49Z</time>
      </trkpt>
      <trkpt lat="42.90287" lon="-0.20763">
        <ele>1270.5</ele>
        <time>2026-07-15T06:31:50Z</time>
      </trkpt>
      <trkpt lat="42.90287" lon="-0.20764">
        <ele>1271.5</ele>
        <time>2026-07-15T06:31:51Z</time>
      </trkpt>
      <trkpt lat="42.90286" lon="-0.20765">
        <ele>1271.5</ele>
        <time>2026-07-15T06:31:51Z</time>
      </trkpt>
      <trkpt lat="42.90286" lon="-0.20765">
        <ele>1272.5</ele>
        <time>2026-07-15T06:31:52Z</time>
      </trkpt>
      <trkpt lat="42.90286" lon="-0.20766">
        <ele>1272.5</ele>
        <time>2026-07-15T06:31:53Z</time>
      </trkpt>
      <trkpt lat="42.90286" lon="-0.20766">
        <ele>1272.5</ele>
        <time>2026-07-15T06:31:54Z</time>
      </trkpt>
      <trkpt lat="42.90285" lon="-0.20767">
        <ele>1273.5</ele>
        <time>2026-07-15T06:31:54Z</time>
      </trkpt>
      <trkpt lat="42.90285" lon="-0.20767">
        <ele>1272.5</ele>
        <time>2026-07-15T06:31:55Z</time>
      </trkpt>
      <trkpt lat="42.90285" lon="-0.20768">
        <ele>1272.5</ele>
        <time>2026-07-15T06:31:56Z</time>
      </trkpt>
      <trkpt lat="42.90284" lon="-0.20768">
        <ele>1272.5</ele>
        <time>2026-07-15T06:31:57Z</time>
      </trkpt>
      <trkpt lat="42.90284" lon="-0.20769">
        <ele>1272.5</ele>
        <time>2026-07-15T06:31:58Z</time>
      </trkpt>
      <trkpt lat="42.90284" lon="-0.20769">
        <ele>1272.5</ele>
        <time>2026-07-15T06:31:58Z</time>
      </trkpt>
      <trkpt lat="42.90284" lon="-0.2077">
        <ele>1271.5</ele>
        <time>2026-07-15T06:31:59Z</time>
      </trkpt>
      <trkpt lat="42.90283" lon="-0.20771">
        <ele>1271.5</ele>
        <time>2026-07-15T06:32:00Z</time>
      </trkpt>
      <trkpt lat="42.90283" lon="-0.20771">
        <ele>1271.5</ele>
        <time>2026-07-15T06:32:01Z</time>
      </trkpt>
      <trkpt lat="42.90282" lon="-0.20772">
        <ele>1271.5</ele>
        <time>2026-07-15T06:32:02Z</time>
      </trkpt>
      <trkpt lat="42.90282" lon="-0.20773">
        <ele>1271.5</ele>
        <time>2026-07-15T06:32:02Z</time>
      </trkpt>
      <trkpt lat="42.90282" lon="-0.20773">
        <ele>1271.5</ele>
        <time>2026-07-15T06:32:03Z</time>
      </trkpt>
      <trkpt lat="42.90282" lon="-0.20773">
        <ele>1271.5</ele>
        <time>2026-07-15T06:32:04Z</time>
      </trkpt>
      <trkpt lat="42.90281" lon="-0.20773">
        <ele>1271.5</ele>
        <time>2026-07-15T06:32:05Z</time>
      </trkpt>
      <trkpt lat="42.90281" lon="-0.20773">
        <ele>1271.5</ele>
        <time>2026-07-15T06:32:06Z</time>
      </trkpt>
      <trkpt lat="42.90281" lon="-0.20773">
        <ele>1271.5</ele>
        <time>2026-07-15T06:32:06Z</time>
      </trkpt>
      <trkpt lat="42.9028" lon="-0.20774">
        <ele>1271.5</ele>
        <time>2026-07-15T06:32:07Z</time>
      </trkpt>
      <trkpt lat="42.9028" lon="-0.20774">
        <ele>1271.5</ele>
        <time>2026-07-15T06:32:08Z</time>
      </trkpt>
      <trkpt lat="42.90279" lon="-0.20774">
        <ele>1271.5</ele>
        <time>2026-07-15T06:32:09Z</time>
      </trkpt>
      <trkpt lat="42.90279" lon="-0.20775">
        <ele>1271.5</ele>
        <time>2026-07-15T06:32:09Z</time>
      </trkpt>
      <trkpt lat="42.90278" lon="-0.20775">
        <ele>1271.5</ele>
        <time>2026-07-15T06:32:10Z</time>
      </trkpt>
      <trkpt lat="42.90278" lon="-0.20775">
        <ele>1271.5</ele>
        <time>2026-07-15T06:32:11Z</time>
      </trkpt>
      <trkpt lat="42.90277" lon="-0.20775">
        <ele>1271.5</ele>
        <time>2026-07-15T06:32:12Z</time>
      </trkpt>
      <trkpt lat="42.90277" lon="-0.20775">
        <ele>1272.5</ele>
        <time>2026-07-15T06:32:13Z</time>
      </trkpt>
      <trkpt lat="42.90277" lon="-0.20774">
        <ele>1272.5</ele>
        <time>2026-07-15T06:32:13Z</time>
      </trkpt>
      <trkpt lat="42.90276" lon="-0.20774">
        <ele>1272.5</ele>
        <time>2026-07-15T06:32:14Z</time>
      </trkpt>
      <trkpt lat="42.90276" lon="-0.20774">
        <ele>1272.5</ele>
        <time>2026-07-15T06:32:15Z</time>
      </trkpt>
      <trkpt lat="42.90275" lon="-0.20774">
        <ele>1272.5</ele>
        <time>2026-07-15T06:32:16Z</time>
      </trkpt>
      <trkpt lat="42.90275" lon="-0.20774">
        <ele>1272.5</ele>
        <time>2026-07-15T06:32:17Z</time>
      </trkpt>
      <trkpt lat="42.90274" lon="-0.20773">
        <ele>1271.5</ele>
        <time>2026-07-15T06:32:17Z</time>
      </trkpt>
      <trkpt lat="42.90274" lon="-0.20772">
        <ele>1271.5</ele>
        <time>2026-07-15T06:32:18Z</time>
      </trkpt>
      <trkpt lat="42.90273" lon="-0.20771">
        <ele>1272.5</ele>
        <time>2026-07-15T06:32:19Z</time>
      </trkpt>
      <trkpt lat="42.90273" lon="-0.2077">
        <ele>1272.5</ele>
        <time>2026-07-15T06:32:20Z</time>
      </trkpt>
      <trkpt lat="42.90273" lon="-0.20769">
        <ele>1273.5</ele>
        <time>2026-07-15T06:32:20Z</time>
      </trkpt>
      <trkpt lat="42.90272" lon="-0.20768">
        <ele>1273.5</ele>
        <time>2026-07-15T06:32:21Z</time>
      </trkpt>
      <trkpt lat="42.90272" lon="-0.20767">
        <ele>1273.5</ele>
        <time>2026-07-15T06:32:22Z</time>
      </trkpt>
      <trkpt lat="42.90272" lon="-0.20766">
        <ele>1273.5</ele>
        <time>2026-07-15T06:32:23Z</time>
      </trkpt>
      <trkpt lat="42.90271" lon="-0.20766">
        <ele>1273.5</ele>
        <time>2026-07-15T06:32:24Z</time>
      </trkpt>
      <trkpt lat="42.90271" lon="-0.20765">
        <ele>1273.5</ele>
        <time>2026-07-15T06:32:25Z</time>
      </trkpt>
      <trkpt lat="42.9027" lon="-0.20765">
        <ele>1273.5</ele>
        <time>2026-07-15T06:32:25Z</time>
      </trkpt>
      <trkpt lat="42.9027" lon="-0.20765">
        <ele>1273.5</ele>
        <time>2026-07-15T06:32:26Z</time>
      </trkpt>
      <trkpt lat="42.90269" lon="-0.20765">
        <ele>1273.5</ele>
        <time>2026-07-15T06:32:27Z</time>
      </trkpt>
      <trkpt lat="42.90268" lon="-0.20764">
        <ele>1273.5</ele>
        <time>2026-07-15T06:32:28Z</time>
      </trkpt>
      <trkpt lat="42.90268" lon="-0.20764">
        <ele>1272.5</ele>
        <time>2026-07-15T06:32:28Z</time>
      </trkpt>
      <trkpt lat="42.90267" lon="-0.20765">
        <ele>1272.5</ele>
        <time>2026-07-15T06:32:29Z</time>
      </trkpt>
      <trkpt lat="42.90267" lon="-0.20765">
        <ele>1272.5</ele>
        <time>2026-07-15T06:32:30Z</time>
      </trkpt>
      <trkpt lat="42.90266" lon="-0.20765">
        <ele>1272.5</ele>
        <time>2026-07-15T06:32:31Z</time>
      </trkpt>
      <trkpt lat="42.90266" lon="-0.20766">
        <ele>1272.5</ele>
        <time>2026-07-15T06:32:32Z</time>
      </trkpt>
      <trkpt lat="42.90266" lon="-0.20766">
        <ele>1273.5</ele>
        <time>2026-07-15T06:32:32Z</time>
      </trkpt>
      <trkpt lat="42.90265" lon="-0.20766">
        <ele>1273.5</ele>
        <time>2026-07-15T06:32:33Z</time>
      </trkpt>
      <trkpt lat="42.90264" lon="-0.20767">
        <ele>1273.5</ele>
        <time>2026-07-15T06:32:34Z</time>
      </trkpt>
      <trkpt lat="42.90263" lon="-0.20767">
        <ele>1273.5</ele>
        <time>2026-07-15T06:32:35Z</time>
      </trkpt>
      <trkpt lat="42.90263" lon="-0.20767">
        <ele>1273.5</ele>
        <time>2026-07-15T06:32:36Z</time>
      </trkpt>
      <trkpt lat="42.90262" lon="-0.20767">
        <ele>1273.5</ele>
        <time>2026-07-15T06:32:36Z</time>
      </trkpt>
      <trkpt lat="42.90262" lon="-0.20767">
        <ele>1273.5</ele>
        <time>2026-07-15T06:32:37Z</time>
      </trkpt>
      <trkpt lat="42.90261" lon="-0.20767">
        <ele>1273.5</ele>
        <time>2026-07-15T06:32:38Z</time>
      </trkpt>
      <trkpt lat="42.9026" lon="-0.20766">
        <ele>1273.5</ele>
        <time>2026-07-15T06:32:39Z</time>
      </trkpt>
      <trkpt lat="42.90259" lon="-0.20766">
        <ele>1273.5</ele>
        <time>2026-07-15T06:32:40Z</time>
      </trkpt>
      <trkpt lat="42.90259" lon="-0.20766">
        <ele>1273.5</ele>
        <time>2026-07-15T06:32:40Z</time>
      </trkpt>
      <trkpt lat="42.90259" lon="-0.20766">
        <ele>1273.5</ele>
        <time>2026-07-15T06:32:41Z</time>
      </trkpt>
      <trkpt lat="42.90258" lon="-0.20765">
        <ele>1273.5</ele>
        <time>2026-07-15T06:32:42Z</time>
      </trkpt>
      <trkpt lat="42.90258" lon="-0.20765">
        <ele>1273.5</ele>
        <time>2026-07-15T06:32:43Z</time>
      </trkpt>
      <trkpt lat="42.90258" lon="-0.20764">
        <ele>1274.5</ele>
        <time>2026-07-15T06:32:44Z</time>
      </trkpt>
      <trkpt lat="42.90258" lon="-0.20765">
        <ele>1274.5</ele>
        <time>2026-07-15T06:32:45Z</time>
      </trkpt>
      <trkpt lat="42.90257" lon="-0.20764">
        <ele>1275.5</ele>
        <time>2026-07-15T06:32:45Z</time>
      </trkpt>
      <trkpt lat="42.90257" lon="-0.20764">
        <ele>1275.5</ele>
        <time>2026-07-15T06:32:46Z</time>
      </trkpt>
      <trkpt lat="42.90256" lon="-0.20764">
        <ele>1275.5</ele>
        <time>2026-07-15T06:32:47Z</time>
      </trkpt>
      <trkpt lat="42.90255" lon="-0.20764">
        <ele>1275.5</ele>
        <time>2026-07-15T06:32:48Z</time>
      </trkpt>
      <trkpt lat="42.90255" lon="-0.20764">
        <ele>1276.5</ele>
        <time>2026-07-15T06:32:49Z</time>
      </trkpt>
      <trkpt lat="42.90255" lon="-0.20765">
        <ele>1276.5</ele>
        <time>2026-07-15T06:32:50Z</time>
      </trkpt>
      <trkpt lat="42.90255" lon="-0.20765">
        <ele>1276.5</ele>
        <time>2026-07-15T06:32:51Z</time>
      </trkpt>
      <trkpt lat="42.90255" lon="-0.20766">
        <ele>1277.5</ele>
        <time>2026-07-15T06:32:51Z</time>
      </trkpt>
      <trkpt lat="42.90255" lon="-0.20766">
        <ele>1276.5</ele>
        <time>2026-07-15T06:32:52Z</time>
      </trkpt>
      <trkpt lat="42.90254" lon="-0.20766">
        <ele>1276.5</ele>
        <time>2026-07-15T06:32:53Z</time>
      </trkpt>
      <trkpt lat="42.90254" lon="-0.20767">
        <ele>1277.5</ele>
        <time>2026-07-15T06:32:54Z</time>
      </trkpt>
      <trkpt lat="42.90253" lon="-0.20767">
        <ele>1277.5</ele>
        <time>2026-07-15T06:32:55Z</time>
      </trkpt>
      <trkpt lat="42.90253" lon="-0.20768">
        <ele>1277.5</ele>
        <time>2026-07-15T06:32:55Z</time>
      </trkpt>
      <trkpt lat="42.90253" lon="-0.20768">
        <ele>1277.5</ele>
        <time>2026-07-15T06:32:56Z</time>
      </trkpt>
      <trkpt lat="42.90252" lon="-0.20769">
        <ele>1277.5</ele>
        <time>2026-07-15T06:32:57Z</time>
      </trkpt>
      <trkpt lat="42.90252" lon="-0.20769">
        <ele>1277.5</ele>
        <time>2026-07-15T06:32:58Z</time>
      </trkpt>
      <trkpt lat="42.90252" lon="-0.2077">
        <ele>1277.5</ele>
        <time>2026-07-15T06:32:59Z</time>
      </trkpt>
      <trkpt lat="42.90251" lon="-0.2077">
        <ele>1277.5</ele>
        <time>2026-07-15T06:32:59Z</time>
      </trkpt>
      <trkpt lat="42.90251" lon="-0.20771">
        <ele>1277.5</ele>
        <time>2026-07-15T06:33:00Z</time>
      </trkpt>
      <trkpt lat="42.9025" lon="-0.20771">
        <ele>1277.5</ele>
        <time>2026-07-15T06:33:01Z</time>
      </trkpt>
      <trkpt lat="42.9025" lon="-0.20771">
        <ele>1277.5</ele>
        <time>2026-07-15T06:33:02Z</time>
      </trkpt>
      <trkpt lat="42.90249" lon="-0.20772">
        <ele>1277.5</ele>
        <time>2026-07-15T06:33:03Z</time>
      </trkpt>
      <trkpt lat="42.90248" lon="-0.20772">
        <ele>1277.5</ele>
        <time>2026-07-15T06:33:04Z</time>
      </trkpt>
      <trkpt lat="42.90248" lon="-0.20772">
        <ele>1277.5</ele>
        <time>2026-07-15T06:33:04Z</time>
      </trkpt>
      <trkpt lat="42.90247" lon="-0.20772">
        <ele>1278.5</ele>
        <time>2026-07-15T06:33:05Z</time>
      </trkpt>
      <trkpt lat="42.90247" lon="-0.20773">
        <ele>1278.5</ele>
        <time>2026-07-15T06:33:06Z</time>
      </trkpt>
      <trkpt lat="42.90247" lon="-0.20773">
        <ele>1278.5</ele>
        <time>2026-07-15T06:33:07Z</time>
      </trkpt>
      <trkpt lat="42.90247" lon="-0.20772">
        <ele>1278.5</ele>
        <time>2026-07-15T06:33:08Z</time>
      </trkpt>
      <trkpt lat="42.90246" lon="-0.20772">
        <ele>1278.5</ele>
        <time>2026-07-15T06:33:09Z</time>
      </trkpt>
      <trkpt lat="42.90246" lon="-0.20772">
        <ele>1279.5</ele>
        <time>2026-07-15T06:33:09Z</time>
      </trkpt>
      <trkpt lat="42.90245" lon="-0.20771">
        <ele>1279.5</ele>
        <time>2026-07-15T06:33:10Z</time>
      </trkpt>
      <trkpt lat="42.90245" lon="-0.20771">
        <ele>1279.5</ele>
        <time>2026-07-15T06:33:11Z</time>
      </trkpt>
      <trkpt lat="42.90244" lon="-0.2077">
        <ele>1279.5</ele>
        <time>2026-07-15T06:33:12Z</time>
      </trkpt>
      <trkpt lat="42.90244" lon="-0.2077">
        <ele>1279.5</ele>
        <time>2026-07-15T06:33:13Z</time>
      </trkpt>
      <trkpt lat="42.90244" lon="-0.20769">
        <ele>1279.5</ele>
        <time>2026-07-15T06:33:13Z</time>
      </trkpt>
      <trkpt lat="42.90243" lon="-0.20769">
        <ele>1279.5</ele>
        <time>2026-07-15T06:33:14Z</time>
      </trkpt>
      <trkpt lat="42.90243" lon="-0.20768">
        <ele>1279.5</ele>
        <time>2026-07-15T06:33:15Z</time>
      </trkpt>
      <trkpt lat="42.90243" lon="-0.20768">
        <ele>1279.5</ele>
        <time>2026-07-15T06:33:16Z</time>
      </trkpt>
      <trkpt lat="42.90242" lon="-0.20767">
        <ele>1280.5</ele>
        <time>2026-07-15T06:33:17Z</time>
      </trkpt>
      <trkpt lat="42.90242" lon="-0.20767">
        <ele>1280.5</ele>
        <time>2026-07-15T06:33:17Z</time>
      </trkpt>
      <trkpt lat="42.90241" lon="-0.20767">
        <ele>1281.5</ele>
        <time>2026-07-15T06:33:18Z</time>
      </trkpt>
      <trkpt lat="42.90241" lon="-0.20766">
        <ele>1281.5</ele>
        <time>2026-07-15T06:33:19Z</time>
      </trkpt>
      <trkpt lat="42.9024" lon="-0.20766">
        <ele>1281.5</ele>
        <time>2026-07-15T06:33:20Z</time>
      </trkpt>
      <trkpt lat="42.9024" lon="-0.20766">
        <ele>1281.5</ele>
        <time>2026-07-15T06:33:21Z</time>
      </trkpt>
      <trkpt lat="42.90239" lon="-0.20766">
        <ele>1281.5</ele>
        <time>2026-07-15T06:33:22Z</time>
      </trkpt>
      <trkpt lat="42.90239" lon="-0.20766">
        <ele>1281.5</ele>
        <time>2026-07-15T06:33:22Z</time>
      </trkpt>
      <trkpt lat="42.90238" lon="-0.20766">
        <ele>1281.5</ele>
        <time>2026-07-15T06:33:23Z</time>
      </trkpt>
      <trkpt lat="42.90237" lon="-0.20765">
        <ele>1281.5</ele>
        <time>2026-07-15T06:33:24Z</time>
      </trkpt>
      <trkpt lat="42.90237" lon="-0.20765">
        <ele>1282.5</ele>
        <time>2026-07-15T06:33:25Z</time>
      </trkpt>
      <trkpt lat="42.90237" lon="-0.20765">
        <ele>1281.5</ele>
        <time>2026-07-15T06:33:26Z</time>
      </trkpt>
      <trkpt lat="42.90237" lon="-0.20765">
        <ele>1282.5</ele>
        <time>2026-07-15T06:33:27Z</time>
      </trkpt>
      <trkpt lat="42.90236" lon="-0.20765">
        <ele>1282.5</ele>
        <time>2026-07-15T06:33:27Z</time>
      </trkpt>
      <trkpt lat="42.90236" lon="-0.20764">
        <ele>1282.5</ele>
        <time>2026-07-15T06:33:28Z</time>
      </trkpt>
      <trkpt lat="42.90235" lon="-0.20764">
        <ele>1282.5</ele>
        <time>2026-07-15T06:33:29Z</time>
      </trkpt>
      <trkpt lat="42.90234" lon="-0.20764">
        <ele>1282.5</ele>
        <time>2026-07-15T06:33:30Z</time>
      </trkpt>
      <trkpt lat="42.90235" lon="-0.20763">
        <ele>1282.5</ele>
        <time>2026-07-15T06:33:30Z</time>
      </trkpt>
      <trkpt lat="42.90236" lon="-0.20763">
        <ele>1282.5</ele>
        <time>2026-07-15T06:33:31Z</time>
      </trkpt>
      <trkpt lat="42.90236" lon="-0.20762">
        <ele>1282.5</ele>
        <time>2026-07-15T06:33:32Z</time>
      </trkpt>
      <trkpt lat="42.90235" lon="-0.20761">
        <ele>1282.5</ele>
        <time>2026-07-15T06:33:33Z</time>
      </trkpt>
      <trkpt lat="42.90236" lon="-0.20761">
        <ele>1283.5</ele>
        <time>2026-07-15T06:33:34Z</time>
      </trkpt>
      <trkpt lat="42.90236" lon="-0.2076">
        <ele>1283.5</ele>
        <time>2026-07-15T06:33:35Z</time>
      </trkpt>
      <trkpt lat="42.90237" lon="-0.2076">
        <ele>1283.5</ele>
        <time>2026-07-15T06:33:35Z</time>
      </trkpt>
      <trkpt lat="42.90236" lon="-0.20759">
        <ele>1282.5</ele>
        <time>2026-07-15T06:33:36Z</time>
      </trkpt>
      <trkpt lat="42.90237" lon="-0.20759">
        <ele>1282.5</ele>
        <time>2026-07-15T06:33:37Z</time>
      </trkpt>
      <trkpt lat="42.90237" lon="-0.20759">
        <ele>1283.5</ele>
        <time>2026-07-15T06:33:38Z</time>
      </trkpt>
      <trkpt lat="42.90237" lon="-0.20758">
        <ele>1283.5</ele>
        <time>2026-07-15T06:33:39Z</time>
      </trkpt>
      <trkpt lat="42.90236" lon="-0.20758">
        <ele>1283.5</ele>
        <time>2026-07-15T06:33:40Z</time>
      </trkpt>
      <trkpt lat="42.90236" lon="-0.20758">
        <ele>1283.5</ele>
        <time>2026-07-15T06:33:40Z</time>
      </trkpt>
      <trkpt lat="42.90236" lon="-0.20758">
        <ele>1284.5</ele>
        <time>2026-07-15T06:33:41Z</time>
      </trkpt>
      <trkpt lat="42.90235" lon="-0.20758">
        <ele>1284.5</ele>
        <time>2026-07-15T06:33:42Z</time>
      </trkpt>
      <trkpt lat="42.90235" lon="-0.20757">
        <ele>1284.5</ele>
        <time>2026-07-15T06:33:43Z</time>
      </trkpt>
      <trkpt lat="42.90235" lon="-0.20757">
        <ele>1284.5</ele>
        <time>2026-07-15T06:33:44Z</time>
      </trkpt>
      <trkpt lat="42.90235" lon="-0.20757">
        <ele>1284.5</ele>
        <time>2026-07-15T06:33:44Z</time>
      </trkpt>
      <trkpt lat="42.90234" lon="-0.20756">
        <ele>1284.5</ele>
        <time>2026-07-15T06:33:45Z</time>
      </trkpt>
      <trkpt lat="42.90234" lon="-0.20756">
        <ele>1284.5</ele>
        <time>2026-07-15T06:33:46Z</time>
      </trkpt>
      <trkpt lat="42.90233" lon="-0.20755">
        <ele>1284.5</ele>
        <time>2026-07-15T06:33:47Z</time>
      </trkpt>
      <trkpt lat="42.90233" lon="-0.20755">
        <ele>1284.5</ele>
        <time>2026-07-15T06:33:48Z</time>
      </trkpt>
      <trkpt lat="42.90233" lon="-0.20754">
        <ele>1284.5</ele>
        <time>2026-07-15T06:33:48Z</time>
      </trkpt>
      <trkpt lat="42.90232" lon="-0.20754">
        <ele>1284.5</ele>
        <time>2026-07-15T06:33:49Z</time>
      </trkpt>
      <trkpt lat="42.90232" lon="-0.20753">
        <ele>1284.5</ele>
        <time>2026-07-15T06:33:50Z</time>
      </trkpt>
      <trkpt lat="42.90233" lon="-0.20752">
        <ele>1284.5</ele>
        <time>2026-07-15T06:33:51Z</time>
      </trkpt>
      <trkpt lat="42.90233" lon="-0.20752">
        <ele>1285.5</ele>
        <time>2026-07-15T06:33:52Z</time>
      </trkpt>
      <trkpt lat="42.90233" lon="-0.20751">
        <ele>1284.5</ele>
        <time>2026-07-15T06:33:52Z</time>
      </trkpt>
      <trkpt lat="42.90233" lon="-0.20751">
        <ele>1284.5</ele>
        <time>2026-07-15T06:33:53Z</time>
      </trkpt>
      <trkpt lat="42.90232" lon="-0.2075">
        <ele>1284.5</ele>
        <time>2026-07-15T06:33:54Z</time>
      </trkpt>
      <trkpt lat="42.90232" lon="-0.2075">
        <ele>1284.5</ele>
        <time>2026-07-15T06:33:55Z</time>
      </trkpt>
      <trkpt lat="42.90231" lon="-0.20749">
        <ele>1284.5</ele>
        <time>2026-07-15T06:33:56Z</time>
      </trkpt>
      <trkpt lat="42.90232" lon="-0.20748">
        <ele>1284.5</ele>
        <time>2026-07-15T06:33:56Z</time>
      </trkpt>
      <trkpt lat="42.90232" lon="-0.20747">
        <ele>1284.5</ele>
        <time>2026-07-15T06:33:57Z</time>
      </trkpt>
      <trkpt lat="42.90232" lon="-0.20747">
        <ele>1284.5</ele>
        <time>2026-07-15T06:33:58Z</time>
      </trkpt>
      <trkpt lat="42.90232" lon="-0.20746">
        <ele>1284.5</ele>
        <time>2026-07-15T06:33:59Z</time>
      </trkpt>
      <trkpt lat="42.90232" lon="-0.20745">
        <ele>1284.5</ele>
        <time>2026-07-15T06:34:00Z</time>
      </trkpt>
      <trkpt lat="42.90232" lon="-0.20744">
        <ele>1284.5</ele>
        <time>2026-07-15T06:34:01Z</time>
      </trkpt>
      <trkpt lat="42.90232" lon="-0.20744">
        <ele>1284.5</ele>
        <time>2026-07-15T06:34:01Z</time>
      </trkpt>
      <trkpt lat="42.90232" lon="-0.20743">
        <ele>1284.5</ele>
        <time>2026-07-15T06:34:02Z</time>
      </trkpt>
      <trkpt lat="42.90232" lon="-0.20742">
        <ele>1284.5</ele>
        <time>2026-07-15T06:34:03Z</time>
      </trkpt>
      <trkpt lat="42.90231" lon="-0.20741">
        <ele>1284.5</ele>
        <time>2026-07-15T06:34:04Z</time>
      </trkpt>
      <trkpt lat="42.90231" lon="-0.2074">
        <ele>1284.5</ele>
        <time>2026-07-15T06:34:05Z</time>
      </trkpt>
      <trkpt lat="42.90231" lon="-0.2074">
        <ele>1283.5</ele>
        <time>2026-07-15T06:34:05Z</time>
      </trkpt>
      <trkpt lat="42.9023" lon="-0.20739">
        <ele>1283.5</ele>
        <time>2026-07-15T06:34:06Z</time>
      </trkpt>
      <trkpt lat="42.9023" lon="-0.20739">
        <ele>1284.5</ele>
        <time>2026-07-15T06:34:07Z</time>
      </trkpt>
      <trkpt lat="42.9023" lon="-0.20739">
        <ele>1284.5</ele>
        <time>2026-07-15T06:34:08Z</time>
      </trkpt>
      <trkpt lat="42.9023" lon="-0.20739">
        <ele>1284.5</ele>
        <time>2026-07-15T06:34:08Z</time>
      </trkpt>
      <trkpt lat="42.9023" lon="-0.20739">
        <ele>1284.5</ele>
        <time>2026-07-15T06:34:09Z</time>
      </trkpt>
      <trkpt lat="42.90229" lon="-0.20738">
        <ele>1284.5</ele>
        <time>2026-07-15T06:34:10Z</time>
      </trkpt>
      <trkpt lat="42.90229" lon="-0.20738">
        <ele>1285.5</ele>
        <time>2026-07-15T06:34:11Z</time>
      </trkpt>
      <trkpt lat="42.90229" lon="-0.20737">
        <ele>1286.5</ele>
        <time>2026-07-15T06:34:12Z</time>
      </trkpt>
      <trkpt lat="42.90229" lon="-0.20737">
        <ele>1286.5</ele>
        <time>2026-07-15T06:34:12Z</time>
      </trkpt>
      <trkpt lat="42.90229" lon="-0.20737">
        <ele>1287.5</ele>
        <time>2026-07-15T06:34:13Z</time>
      </trkpt>
      <trkpt lat="42.90229" lon="-0.20736">
        <ele>1287.5</ele>
        <time>2026-07-15T06:34:14Z</time>
      </trkpt>
      <trkpt lat="42.90228" lon="-0.20736">
        <ele>1287.5</ele>
        <time>2026-07-15T06:34:15Z</time>
      </trkpt>
      <trkpt lat="42.90228" lon="-0.20736">
        <ele>1287.5</ele>
        <time>2026-07-15T06:34:16Z</time>
      </trkpt>
      <trkpt lat="42.90228" lon="-0.20736">
        <ele>1287.5</ele>
        <time>2026-07-15T06:34:16Z</time>
      </trkpt>
      <trkpt lat="42.90228" lon="-0.20735">
        <ele>1287.5</ele>
        <time>2026-07-15T06:34:17Z</time>
      </trkpt>
      <trkpt lat="42.90228" lon="-0.20734">
        <ele>1287.5</ele>
        <time>2026-07-15T06:34:18Z</time>
      </trkpt>
      <trkpt lat="42.90227" lon="-0.20734">
        <ele>1287.5</ele>
        <time>2026-07-15T06:34:19Z</time>
      </trkpt>
      <trkpt lat="42.90227" lon="-0.20734">
        <ele>1287.5</ele>
        <time>2026-07-15T06:34:20Z</time>
      </trkpt>
      <trkpt lat="42.90227" lon="-0.20734">
        <ele>1287.5</ele>
        <time>2026-07-15T06:34:20Z</time>
      </trkpt>
      <trkpt lat="42.90227" lon="-0.20733">
        <ele>1287.5</ele>
        <time>2026-07-15T06:34:21Z</time>
      </trkpt>
      <trkpt lat="42.90227" lon="-0.20732">
        <ele>1287.5</ele>
        <time>2026-07-15T06:34:22Z</time>
      </trkpt>
      <trkpt lat="42.90227" lon="-0.20732">
        <ele>1287.5</ele>
        <time>2026-07-15T06:34:23Z</time>
      </trkpt>
      <trkpt lat="42.90227" lon="-0.20731">
        <ele>1288.5</ele>
        <time>2026-07-15T06:34:23Z</time>
      </trkpt>
      <trkpt lat="42.90227" lon="-0.20731">
        <ele>1288.5</ele>
        <time>2026-07-15T06:34:24Z</time>
      </trkpt>
      <trkpt lat="42.90226" lon="-0.2073">
        <ele>1288.5</ele>
        <time>2026-07-15T06:34:25Z</time>
      </trkpt>
      <trkpt lat="42.90226" lon="-0.20729">
        <ele>1288.5</ele>
        <time>2026-07-15T06:34:26Z</time>
      </trkpt>
      <trkpt lat="42.90226" lon="-0.20728">
        <ele>1288.5</ele>
        <time>2026-07-15T06:34:27Z</time>
      </trkpt>
      <trkpt lat="42.90226" lon="-0.20728">
        <ele>1287.5</ele>
        <time>2026-07-15T06:34:28Z</time>
      </trkpt>
      <trkpt lat="42.90226" lon="-0.20727">
        <ele>1287.5</ele>
        <time>2026-07-15T06:34:28Z</time>
      </trkpt>
      <trkpt lat="42.90226" lon="-0.20727">
        <ele>1287.5</ele>
        <time>2026-07-15T06:34:29Z</time>
      </trkpt>
      <trkpt lat="42.90225" lon="-0.20726">
        <ele>1287.5</ele>
        <time>2026-07-15T06:34:30Z</time>
      </trkpt>
      <trkpt lat="42.90225" lon="-0.20725">
        <ele>1287.5</ele>
        <time>2026-07-15T06:34:31Z</time>
      </trkpt>
      <trkpt lat="42.90225" lon="-0.20725">
        <ele>1287.5</ele>
        <time>2026-07-15T06:34:31Z</time>
      </trkpt>
      <trkpt lat="42.90224" lon="-0.20724">
        <ele>1287.5</ele>
        <time>2026-07-15T06:34:32Z</time>
      </trkpt>
      <trkpt lat="42.90224" lon="-0.20724">
        <ele>1287.5</ele>
        <time>2026-07-15T06:34:33Z</time>
      </trkpt>
      <trkpt lat="42.90224" lon="-0.20723">
        <ele>1287.5</ele>
        <time>2026-07-15T06:34:34Z</time>
      </trkpt>
      <trkpt lat="42.90223" lon="-0.20723">
        <ele>1288.5</ele>
        <time>2026-07-15T06:34:35Z</time>
      </trkpt>
      <trkpt lat="42.90223" lon="-0.20722">
        <ele>1289.5</ele>
        <time>2026-07-15T06:34:36Z</time>
      </trkpt>
      <trkpt lat="42.90223" lon="-0.20722">
        <ele>1289.5</ele>
        <time>2026-07-15T06:34:36Z</time>
      </trkpt>
      <trkpt lat="42.90223" lon="-0.20722">
        <ele>1289.5</ele>
        <time>2026-07-15T06:34:37Z</time>
      </trkpt>
      <trkpt lat="42.90222" lon="-0.20721">
        <ele>1289.5</ele>
        <time>2026-07-15T06:34:38Z</time>
      </trkpt>
      <trkpt lat="42.90222" lon="-0.2072">
        <ele>1289.5</ele>
        <time>2026-07-15T06:34:39Z</time>
      </trkpt>
      <trkpt lat="42.90221" lon="-0.20719">
        <ele>1289.5</ele>
        <time>2026-07-15T06:34:40Z</time>
      </trkpt>
      <trkpt lat="42.90221" lon="-0.20719">
        <ele>1289.5</ele>
        <time>2026-07-15T06:34:41Z</time>
      </trkpt>
      <trkpt lat="42.90221" lon="-0.20719">
        <ele>1290.5</ele>
        <time>2026-07-15T06:34:41Z</time>
      </trkpt>
      <trkpt lat="42.90221" lon="-0.20719">
        <ele>1290.5</ele>
        <time>2026-07-15T06:34:42Z</time>
      </trkpt>
      <trkpt lat="42.9022" lon="-0.20718">
        <ele>1290.5</ele>
        <time>2026-07-15T06:34:43Z</time>
      </trkpt>
      <trkpt lat="42.9022" lon="-0.20718">
        <ele>1290.5</ele>
        <time>2026-07-15T06:34:44Z</time>
      </trkpt>
      <trkpt lat="42.9022" lon="-0.20717">
        <ele>1290.5</ele>
        <time>2026-07-15T06:34:45Z</time>
      </trkpt>
      <trkpt lat="42.9022" lon="-0.20717">
        <ele>1291.5</ele>
        <time>2026-07-15T06:34:45Z</time>
      </trkpt>
      <trkpt lat="42.90219" lon="-0.20717">
        <ele>1291.5</ele>
        <time>2026-07-15T06:34:46Z</time>
      </trkpt>
      <trkpt lat="42.90219" lon="-0.20716">
        <ele>1292.5</ele>
        <time>2026-07-15T06:34:47Z</time>
      </trkpt>
      <trkpt lat="42.90218" lon="-0.20716">
        <ele>1292.5</ele>
        <time>2026-07-15T06:34:48Z</time>
      </trkpt>
      <trkpt lat="42.90218" lon="-0.20715">
        <ele>1291.5</ele>
        <time>2026-07-15T06:34:49Z</time>
      </trkpt>
      <trkpt lat="42.90218" lon="-0.20715">
        <ele>1291.5</ele>
        <time>2026-07-15T06:34:50Z</time>
      </trkpt>
      <trkpt lat="42.90217" lon="-0.20714">
        <ele>1291.5</ele>
        <time>2026-07-15T06:34:50Z</time>
      </trkpt>
      <trkpt lat="42.90217" lon="-0.20714">
        <ele>1292.5</ele>
        <time>2026-07-15T06:34:51Z</time>
      </trkpt>
      <trkpt lat="42.90217" lon="-0.20713">
        <ele>1292.5</ele>
        <time>2026-07-15T06:34:52Z</time>
      </trkpt>
      <trkpt lat="42.90217" lon="-0.20713">
        <ele>1292.5</ele>
        <time>2026-07-15T06:34:53Z</time>
      </trkpt>
      <trkpt lat="42.90216" lon="-0.20713">
        <ele>1292.5</ele>
        <time>2026-07-15T06:34:54Z</time>
      </trkpt>
      <trkpt lat="42.90216" lon="-0.20712">
        <ele>1291.5</ele>
        <time>2026-07-15T06:34:54Z</time>
      </trkpt>
      <trkpt lat="42.90216" lon="-0.20712">
        <ele>1292.5</ele>
        <time>2026-07-15T06:34:55Z</time>
      </trkpt>
      <trkpt lat="42.90215" lon="-0.20711">
        <ele>1293.5</ele>
        <time>2026-07-15T06:34:56Z</time>
      </trkpt>
      <trkpt lat="42.90214" lon="-0.20711">
        <ele>1293.5</ele>
        <time>2026-07-15T06:34:57Z</time>
      </trkpt>
      <trkpt lat="42.90214" lon="-0.2071">
        <ele>1292.5</ele>
        <time>2026-07-15T06:34:58Z</time>
      </trkpt>
      <trkpt lat="42.90213" lon="-0.2071">
        <ele>1292.5</ele>
        <time>2026-07-15T06:34:58Z</time>
      </trkpt>
      <trkpt lat="42.90213" lon="-0.20709">
        <ele>1293.5</ele>
        <time>2026-07-15T06:34:59Z</time>
      </trkpt>
      <trkpt lat="42.90213" lon="-0.20708">
        <ele>1293.5</ele>
        <time>2026-07-15T06:35:00Z</time>
      </trkpt>
      <trkpt lat="42.90212" lon="-0.20708">
        <ele>1294.5</ele>
        <time>2026-07-15T06:35:01Z</time>
      </trkpt>
      <trkpt lat="42.90212" lon="-0.20707">
        <ele>1294.5</ele>
        <time>2026-07-15T06:35:02Z</time>
      </trkpt>
      <trkpt lat="42.90211" lon="-0.20707">
        <ele>1294.5</ele>
        <time>2026-07-15T06:35:02Z</time>
      </trkpt>
      <trkpt lat="42.90211" lon="-0.20706">
        <ele>1294.5</ele>
        <time>2026-07-15T06:35:03Z</time>
      </trkpt>
      <trkpt lat="42.9021" lon="-0.20705">
        <ele>1294.5</ele>
        <time>2026-07-15T06:35:04Z</time>
      </trkpt>
      <trkpt lat="42.9021" lon="-0.20705">
        <ele>1294.5</ele>
        <time>2026-07-15T06:35:05Z</time>
      </trkpt>
      <trkpt lat="42.9021" lon="-0.20704">
        <ele>1295.5</ele>
        <time>2026-07-15T06:35:05Z</time>
      </trkpt>
      <trkpt lat="42.90209" lon="-0.20704">
        <ele>1296.5</ele>
        <time>2026-07-15T06:35:06Z</time>
      </trkpt>
      <trkpt lat="42.90209" lon="-0.20703">
        <ele>1296.5</ele>
        <time>2026-07-15T06:35:07Z</time>
      </trkpt>
      <trkpt lat="42.90209" lon="-0.20702">
        <ele>1297.5</ele>
        <time>2026-07-15T06:35:08Z</time>
      </trkpt>
      <trkpt lat="42.90209" lon="-0.20702">
        <ele>1297.5</ele>
        <time>2026-07-15T06:35:09Z</time>
      </trkpt>
      <trkpt lat="42.90209" lon="-0.20701">
        <ele>1297.5</ele>
        <time>2026-07-15T06:35:09Z</time>
      </trkpt>
      <trkpt lat="42.90208" lon="-0.207">
        <ele>1297.5</ele>
        <time>2026-07-15T06:35:10Z</time>
      </trkpt>
      <trkpt lat="42.90208" lon="-0.207">
        <ele>1297.5</ele>
        <time>2026-07-15T06:35:11Z</time>
      </trkpt>
      <trkpt lat="42.90208" lon="-0.20699">
        <ele>1297.5</ele>
        <time>2026-07-15T06:35:12Z</time>
      </trkpt>
      <trkpt lat="42.90207" lon="-0.20698">
        <ele>1297.5</ele>
        <time>2026-07-15T06:35:12Z</time>
      </trkpt>
      <trkpt lat="42.90207" lon="-0.20698">
        <ele>1297.5</ele>
        <time>2026-07-15T06:35:13Z</time>
      </trkpt>
      <trkpt lat="42.90207" lon="-0.20697">
        <ele>1297.5</ele>
        <time>2026-07-15T06:35:14Z</time>
      </trkpt>
      <trkpt lat="42.90207" lon="-0.20696">
        <ele>1297.5</ele>
        <time>2026-07-15T06:35:15Z</time>
      </trkpt>
      <trkpt lat="42.90206" lon="-0.20696">
        <ele>1296.5</ele>
        <time>2026-07-15T06:35:16Z</time>
      </trkpt>
      <trkpt lat="42.90206" lon="-0.20695">
        <ele>1297.5</ele>
        <time>2026-07-15T06:35:16Z</time>
      </trkpt>
      <trkpt lat="42.90206" lon="-0.20695">
        <ele>1298.5</ele>
        <time>2026-07-15T06:35:17Z</time>
      </trkpt>
      <trkpt lat="42.90206" lon="-0.20694">
        <ele>1298.5</ele>
        <time>2026-07-15T06:35:18Z</time>
      </trkpt>
      <trkpt lat="42.90206" lon="-0.20693">
        <ele>1298.5</ele>
        <time>2026-07-15T06:35:19Z</time>
      </trkpt>
      <trkpt lat="42.90206" lon="-0.20692">
        <ele>1299.5</ele>
        <time>2026-07-15T06:35:20Z</time>
      </trkpt>
      <trkpt lat="42.90206" lon="-0.20692">
        <ele>1300.5</ele>
        <time>2026-07-15T06:35:20Z</time>
      </trkpt>
      <trkpt lat="42.90206" lon="-0.20692">
        <ele>1299.5</ele>
        <time>2026-07-15T06:35:21Z</time>
      </trkpt>
      <trkpt lat="42.90205" lon="-0.20691">
        <ele>1299.5</ele>
        <time>2026-07-15T06:35:22Z</time>
      </trkpt>
      <trkpt lat="42.90205" lon="-0.2069">
        <ele>1299.5</ele>
        <time>2026-07-15T06:35:23Z</time>
      </trkpt>
      <trkpt lat="42.90205" lon="-0.20689">
        <ele>1298.5</ele>
        <time>2026-07-15T06:35:24Z</time>
      </trkpt>
      <trkpt lat="42.90205" lon="-0.20689">
        <ele>1298.5</ele>
        <time>2026-07-15T06:35:24Z</time>
      </trkpt>
      <trkpt lat="42.90204" lon="-0.20689">
        <ele>1298.5</ele>
        <time>2026-07-15T06:35:25Z</time>
      </trkpt>
      <trkpt lat="42.90204" lon="-0.20688">
        <ele>1298.5</ele>
        <time>2026-07-15T06:35:26Z</time>
      </trkpt>
      <trkpt lat="42.90204" lon="-0.20687">
        <ele>1298.5</ele>
        <time>2026-07-15T06:35:27Z</time>
      </trkpt>
      <trkpt lat="42.90203" lon="-0.20686">
        <ele>1298.5</ele>
        <time>2026-07-15T06:35:28Z</time>
      </trkpt>
      <trkpt lat="42.90203" lon="-0.20686">
        <ele>1299.5</ele>
        <time>2026-07-15T06:35:28Z</time>
      </trkpt>
      <trkpt lat="42.90203" lon="-0.20685">
        <ele>1299.5</ele>
        <time>2026-07-15T06:35:29Z</time>
      </trkpt>
      <trkpt lat="42.90203" lon="-0.20685">
        <ele>1299.5</ele>
        <time>2026-07-15T06:35:30Z</time>
      </trkpt>
      <trkpt lat="42.90203" lon="-0.20684">
        <ele>1299.5</ele>
        <time>2026-07-15T06:35:31Z</time>
      </trkpt>
      <trkpt lat="42.90204" lon="-0.20683">
        <ele>1299.5</ele>
        <time>2026-07-15T06:35:31Z</time>
      </trkpt>
      <trkpt lat="42.90203" lon="-0.20683">
        <ele>1299.5</ele>
        <time>2026-07-15T06:35:32Z</time>
      </trkpt>
      <trkpt lat="42.90203" lon="-0.20682">
        <ele>1299.5</ele>
        <time>2026-07-15T06:35:33Z</time>
      </trkpt>
      <trkpt lat="42.90203" lon="-0.20681">
        <ele>1298.5</ele>
        <time>2026-07-15T06:35:34Z</time>
      </trkpt>
      <trkpt lat="42.90203" lon="-0.2068">
        <ele>1298.5</ele>
        <time>2026-07-15T06:35:35Z</time>
      </trkpt>
      <trkpt lat="42.90203" lon="-0.2068">
        <ele>1299.5</ele>
        <time>2026-07-15T06:35:35Z</time>
      </trkpt>
      <trkpt lat="42.90204" lon="-0.2068">
        <ele>1299.5</ele>
        <time>2026-07-15T06:35:36Z</time>
      </trkpt>
      <trkpt lat="42.90204" lon="-0.20679">
        <ele>1299.5</ele>
        <time>2026-07-15T06:35:37Z</time>
      </trkpt>
      <trkpt lat="42.90204" lon="-0.20679">
        <ele>1299.5</ele>
        <time>2026-07-15T06:35:38Z</time>
      </trkpt>
      <trkpt lat="42.90204" lon="-0.20678">
        <ele>1299.5</ele>
        <time>2026-07-15T06:35:39Z</time>
      </trkpt>
      <trkpt lat="42.90204" lon="-0.20678">
        <ele>1299.5</ele>
        <time>2026-07-15T06:35:39Z</time>
      </trkpt>
      <trkpt lat="42.90204" lon="-0.20677">
        <ele>1299.5</ele>
        <time>2026-07-15T06:35:40Z</time>
      </trkpt>
      <trkpt lat="42.90203" lon="-0.20676">
        <ele>1299.5</ele>
        <time>2026-07-15T06:35:41Z</time>
      </trkpt>
      <trkpt lat="42.90203" lon="-0.20675">
        <ele>1299.5</ele>
        <time>2026-07-15T06:35:42Z</time>
      </trkpt>
      <trkpt lat="42.90203" lon="-0.20675">
        <ele>1299.5</ele>
        <time>2026-07-15T06:35:43Z</time>
      </trkpt>
      <trkpt lat="42.90203" lon="-0.20674">
        <ele>1299.5</ele>
        <time>2026-07-15T06:35:43Z</time>
      </trkpt>
      <trkpt lat="42.90203" lon="-0.20673">
        <ele>1299.5</ele>
        <time>2026-07-15T06:35:44Z</time>
      </trkpt>
      <trkpt lat="42.90203" lon="-0.20672">
        <ele>1299.5</ele>
        <time>2026-07-15T06:35:45Z</time>
      </trkpt>
      <trkpt lat="42.90203" lon="-0.20672">
        <ele>1300.5</ele>
        <time>2026-07-15T06:35:46Z</time>
      </trkpt>
      <trkpt lat="42.90204" lon="-0.20672">
        <ele>1300.5</ele>
        <time>2026-07-15T06:35:47Z</time>
      </trkpt>
      <trkpt lat="42.90204" lon="-0.20672">
        <ele>1300.5</ele>
        <time>2026-07-15T06:35:48Z</time>
      </trkpt>
      <trkpt lat="42.90204" lon="-0.20671">
        <ele>1301.5</ele>
        <time>2026-07-15T06:35:48Z</time>
      </trkpt>
      <trkpt lat="42.90204" lon="-0.20671">
        <ele>1301.5</ele>
        <time>2026-07-15T06:35:49Z</time>
      </trkpt>
      <trkpt lat="42.90204" lon="-0.2067">
        <ele>1301.5</ele>
        <time>2026-07-15T06:35:50Z</time>
      </trkpt>
      <trkpt lat="42.90204" lon="-0.20669">
        <ele>1301.5</ele>
        <time>2026-07-15T06:35:51Z</time>
      </trkpt>
      <trkpt lat="42.90203" lon="-0.20668">
        <ele>1301.5</ele>
        <time>2026-07-15T06:35:52Z</time>
      </trkpt>
      <trkpt lat="42.90203" lon="-0.20667">
        <ele>1301.5</ele>
        <time>2026-07-15T06:35:52Z</time>
      </trkpt>
      <trkpt lat="42.90203" lon="-0.20667">
        <ele>1302.5</ele>
        <time>2026-07-15T06:35:53Z</time>
      </trkpt>
      <trkpt lat="42.90203" lon="-0.20667">
        <ele>1302.5</ele>
        <time>2026-07-15T06:35:54Z</time>
      </trkpt>
      <trkpt lat="42.90203" lon="-0.20666">
        <ele>1302.5</ele>
        <time>2026-07-15T06:35:55Z</time>
      </trkpt>
      <trkpt lat="42.90203" lon="-0.20666">
        <ele>1302.5</ele>
        <time>2026-07-15T06:35:56Z</time>
      </trkpt>
      <trkpt lat="42.90203" lon="-0.20665">
        <ele>1302.5</ele>
        <time>2026-07-15T06:35:56Z</time>
      </trkpt>
      <trkpt lat="42.90202" lon="-0.20665">
        <ele>1302.5</ele>
        <time>2026-07-15T06:35:57Z</time>
      </trkpt>
      <trkpt lat="42.90202" lon="-0.20664">
        <ele>1302.5</ele>
        <time>2026-07-15T06:35:58Z</time>
      </trkpt>
      <trkpt lat="42.90202" lon="-0.20664">
        <ele>1302.5</ele>
        <time>2026-07-15T06:35:59Z</time>
      </trkpt>
      <trkpt lat="42.90202" lon="-0.20663">
        <ele>1302.5</ele>
        <time>2026-07-15T06:36:00Z</time>
      </trkpt>
      <trkpt lat="42.90201" lon="-0.20662">
        <ele>1302.5</ele>
        <time>2026-07-15T06:36:00Z</time>
      </trkpt>
      <trkpt lat="42.90201" lon="-0.20661">
        <ele>1302.5</ele>
        <time>2026-07-15T06:36:01Z</time>
      </trkpt>
      <trkpt lat="42.90201" lon="-0.20661">
        <ele>1303.5</ele>
        <time>2026-07-15T06:36:02Z</time>
      </trkpt>
      <trkpt lat="42.902" lon="-0.20661">
        <ele>1303.5</ele>
        <time>2026-07-15T06:36:03Z</time>
      </trkpt>
      <trkpt lat="42.90199" lon="-0.20661">
        <ele>1303.5</ele>
        <time>2026-07-15T06:36:04Z</time>
      </trkpt>
      <trkpt lat="42.90199" lon="-0.2066">
        <ele>1304.5</ele>
        <time>2026-07-15T06:36:05Z</time>
      </trkpt>
      <trkpt lat="42.90199" lon="-0.2066">
        <ele>1304.5</ele>
        <time>2026-07-15T06:36:05Z</time>
      </trkpt>
      <trkpt lat="42.90198" lon="-0.2066">
        <ele>1304.5</ele>
        <time>2026-07-15T06:36:06Z</time>
      </trkpt>
      <trkpt lat="42.90198" lon="-0.2066">
        <ele>1304.5</ele>
        <time>2026-07-15T06:36:07Z</time>
      </trkpt>
      <trkpt lat="42.90198" lon="-0.2066">
        <ele>1304.5</ele>
        <time>2026-07-15T06:36:08Z</time>
      </trkpt>
      <trkpt lat="42.90198" lon="-0.2066">
        <ele>1305.5</ele>
        <time>2026-07-15T06:36:09Z</time>
      </trkpt>
      <trkpt lat="42.90197" lon="-0.20659">
        <ele>1305.5</ele>
        <time>2026-07-15T06:36:09Z</time>
      </trkpt>
      <trkpt lat="42.90197" lon="-0.20659">
        <ele>1306.5</ele>
        <time>2026-07-15T06:36:10Z</time>
      </trkpt>
      <trkpt lat="42.90197" lon="-0.20659">
        <ele>1306.5</ele>
        <time>2026-07-15T06:36:11Z</time>
      </trkpt>
      <trkpt lat="42.90196" lon="-0.20658">
        <ele>1306.5</ele>
        <time>2026-07-15T06:36:12Z</time>
      </trkpt>
      <trkpt lat="42.90196" lon="-0.20657">
        <ele>1307.5</ele>
        <time>2026-07-15T06:36:13Z</time>
      </trkpt>
      <trkpt lat="42.90196" lon="-0.20657">
        <ele>1307.5</ele>
        <time>2026-07-15T06:36:14Z</time>
      </trkpt>
      <trkpt lat="42.90196" lon="-0.20656">
        <ele>1308.5</ele>
        <time>2026-07-15T06:36:15Z</time>
      </trkpt>
      <trkpt lat="42.90195" lon="-0.20656">
        <ele>1308.5</ele>
        <time>2026-07-15T06:36:15Z</time>
      </trkpt>
      <trkpt lat="42.90195" lon="-0.20655">
        <ele>1308.5</ele>
        <time>2026-07-15T06:36:16Z</time>
      </trkpt>
      <trkpt lat="42.90195" lon="-0.20654">
        <ele>1308.5</ele>
        <time>2026-07-15T06:36:17Z</time>
      </trkpt>
      <trkpt lat="42.90195" lon="-0.20654">
        <ele>1307.5</ele>
        <time>2026-07-15T06:36:18Z</time>
      </trkpt>
      <trkpt lat="42.90195" lon="-0.20654">
        <ele>1307.5</ele>
        <time>2026-07-15T06:36:18Z</time>
      </trkpt>
      <trkpt lat="42.90195" lon="-0.20654">
        <ele>1307.5</ele>
        <time>2026-07-15T06:36:19Z</time>
      </trkpt>
      <trkpt lat="42.90195" lon="-0.20654">
        <ele>1307.5</ele>
        <time>2026-07-15T06:36:20Z</time>
      </trkpt>
      <trkpt lat="42.90195" lon="-0.20653">
        <ele>1306.5</ele>
        <time>2026-07-15T06:36:21Z</time>
      </trkpt>
      <trkpt lat="42.90196" lon="-0.20653">
        <ele>1306.5</ele>
        <time>2026-07-15T06:36:22Z</time>
      </trkpt>
      <trkpt lat="42.90196" lon="-0.20653">
        <ele>1307.5</ele>
        <time>2026-07-15T06:36:22Z</time>
      </trkpt>
      <trkpt lat="42.90195" lon="-0.20652">
        <ele>1307.5</ele>
        <time>2026-07-15T06:36:23Z</time>
      </trkpt>
      <trkpt lat="42.90195" lon="-0.20652">
        <ele>1307.5</ele>
        <time>2026-07-15T06:36:24Z</time>
      </trkpt>
      <trkpt lat="42.90195" lon="-0.20651">
        <ele>1306.5</ele>
        <time>2026-07-15T06:36:25Z</time>
      </trkpt>
      <trkpt lat="42.90195" lon="-0.20651">
        <ele>1307.5</ele>
        <time>2026-07-15T06:36:25Z</time>
      </trkpt>
      <trkpt lat="42.90194" lon="-0.20651">
        <ele>1308.5</ele>
        <time>2026-07-15T06:36:26Z</time>
      </trkpt>
      <trkpt lat="42.90194" lon="-0.2065">
        <ele>1308.5</ele>
        <time>2026-07-15T06:36:27Z</time>
      </trkpt>
      <trkpt lat="42.90194" lon="-0.20649">
        <ele>1308.5</ele>
        <time>2026-07-15T06:36:28Z</time>
      </trkpt>
      <trkpt lat="42.90194" lon="-0.20649">
        <ele>1308.5</ele>
        <time>2026-07-15T06:36:29Z</time>
      </trkpt>
      <trkpt lat="42.90194" lon="-0.20649">
        <ele>1308.5</ele>
        <time>2026-07-15T06:36:29Z</time>
      </trkpt>
      <trkpt lat="42.90194" lon="-0.20648">
        <ele>1308.5</ele>
        <time>2026-07-15T06:36:30Z</time>
      </trkpt>
      <trkpt lat="42.90194" lon="-0.20647">
        <ele>1308.5</ele>
        <time>2026-07-15T06:36:31Z</time>
      </trkpt>
      <trkpt lat="42.90194" lon="-0.20647">
        <ele>1308.5</ele>
        <time>2026-07-15T06:36:32Z</time>
      </trkpt>
      <trkpt lat="42.90194" lon="-0.20646">
        <ele>1308.5</ele>
        <time>2026-07-15T06:36:32Z</time>
      </trkpt>
      <trkpt lat="42.90194" lon="-0.20646">
        <ele>1308.5</ele>
        <time>2026-07-15T06:36:33Z</time>
      </trkpt>
      <trkpt lat="42.90193" lon="-0.20645">
        <ele>1308.5</ele>
        <time>2026-07-15T06:36:34Z</time>
      </trkpt>
      <trkpt lat="42.90193" lon="-0.20644">
        <ele>1308.5</ele>
        <time>2026-07-15T06:36:35Z</time>
      </trkpt>
      <trkpt lat="42.90193" lon="-0.20644">
        <ele>1309.5</ele>
        <time>2026-07-15T06:36:36Z</time>
      </trkpt>
      <trkpt lat="42.90192" lon="-0.20643">
        <ele>1309.5</ele>
        <time>2026-07-15T06:36:36Z</time>
      </trkpt>
      <trkpt lat="42.90192" lon="-0.20643">
        <ele>1309.5</ele>
        <time>2026-07-15T06:36:37Z</time>
      </trkpt>
      <trkpt lat="42.90191" lon="-0.20642">
        <ele>1309.5</ele>
        <time>2026-07-15T06:36:38Z</time>
      </trkpt>
      <trkpt lat="42.90191" lon="-0.20642">
        <ele>1309.5</ele>
        <time>2026-07-15T06:36:39Z</time>
      </trkpt>
      <trkpt lat="42.90191" lon="-0.20641">
        <ele>1309.5</ele>
        <time>2026-07-15T06:36:39Z</time>
      </trkpt>
      <trkpt lat="42.9019" lon="-0.20641">
        <ele>1309.5</ele>
        <time>2026-07-15T06:36:40Z</time>
      </trkpt>
      <trkpt lat="42.9019" lon="-0.2064">
        <ele>1309.5</ele>
        <time>2026-07-15T06:36:41Z</time>
      </trkpt>
      <trkpt lat="42.90189" lon="-0.20639">
        <ele>1309.5</ele>
        <time>2026-07-15T06:36:42Z</time>
      </trkpt>
      <trkpt lat="42.90188" lon="-0.20639">
        <ele>1309.5</ele>
        <time>2026-07-15T06:36:42Z</time>
      </trkpt>
      <trkpt lat="42.90188" lon="-0.20638">
        <ele>1309.5</ele>
        <time>2026-07-15T06:36:43Z</time>
      </trkpt>
      <trkpt lat="42.90188" lon="-0.20638">
        <ele>1309.5</ele>
        <time>2026-07-15T06:36:44Z</time>
      </trkpt>
      <trkpt lat="42.90188" lon="-0.20637">
        <ele>1309.5</ele>
        <time>2026-07-15T06:36:45Z</time>
      </trkpt>
      <trkpt lat="42.90187" lon="-0.20637">
        <ele>1310.5</ele>
        <time>2026-07-15T06:36:46Z</time>
      </trkpt>
      <trkpt lat="42.90187" lon="-0.20637">
        <ele>1310.5</ele>
        <time>2026-07-15T06:36:46Z</time>
      </trkpt>
      <trkpt lat="42.90187" lon="-0.20636">
        <ele>1310.5</ele>
        <time>2026-07-15T06:36:47Z</time>
      </trkpt>
      <trkpt lat="42.90186" lon="-0.20636">
        <ele>1310.5</ele>
        <time>2026-07-15T06:36:48Z</time>
      </trkpt>
      <trkpt lat="42.90186" lon="-0.20636">
        <ele>1311.5</ele>
        <time>2026-07-15T06:36:49Z</time>
      </trkpt>
      <trkpt lat="42.90186" lon="-0.20636">
        <ele>1310.5</ele>
        <time>2026-07-15T06:36:50Z</time>
      </trkpt>
      <trkpt lat="42.90186" lon="-0.20635">
        <ele>1311.5</ele>
        <time>2026-07-15T06:36:50Z</time>
      </trkpt>
      <trkpt lat="42.90186" lon="-0.20635">
        <ele>1310.5</ele>
        <time>2026-07-15T06:36:51Z</time>
      </trkpt>
      <trkpt lat="42.90185" lon="-0.20635">
        <ele>1310.5</ele>
        <time>2026-07-15T06:36:52Z</time>
      </trkpt>
      <trkpt lat="42.90185" lon="-0.20635">
        <ele>1310.5</ele>
        <time>2026-07-15T06:36:53Z</time>
      </trkpt>
      <trkpt lat="42.90185" lon="-0.20635">
        <ele>1310.5</ele>
        <time>2026-07-15T06:36:53Z</time>
      </trkpt>
      <trkpt lat="42.90185" lon="-0.20635">
        <ele>1310.5</ele>
        <time>2026-07-15T06:36:54Z</time>
      </trkpt>
      <trkpt lat="42.90185" lon="-0.20636">
        <ele>1310.5</ele>
        <time>2026-07-15T06:36:55Z</time>
      </trkpt>
      <trkpt lat="42.90184" lon="-0.20636">
        <ele>1310.5</ele>
        <time>2026-07-15T06:36:56Z</time>
      </trkpt>
      <trkpt lat="42.90183" lon="-0.20636">
        <ele>1310.5</ele>
        <time>2026-07-15T06:36:57Z</time>
      </trkpt>
      <trkpt lat="42.90183" lon="-0.20636">
        <ele>1310.5</ele>
        <time>2026-07-15T06:36:58Z</time>
      </trkpt>
      <trkpt lat="42.90183" lon="-0.20636">
        <ele>1311.5</ele>
        <time>2026-07-15T06:36:58Z</time>
      </trkpt>
      <trkpt lat="42.90182" lon="-0.20636">
        <ele>1311.5</ele>
        <time>2026-07-15T06:36:59Z</time>
      </trkpt>
      <trkpt lat="42.90182" lon="-0.20636">
        <ele>1311.5</ele>
        <time>2026-07-15T06:37:00Z</time>
      </trkpt>
      <trkpt lat="42.90181" lon="-0.20636">
        <ele>1312.5</ele>
        <time>2026-07-15T06:37:01Z</time>
      </trkpt>
      <trkpt lat="42.90181" lon="-0.20636">
        <ele>1312.5</ele>
        <time>2026-07-15T06:37:01Z</time>
      </trkpt>
      <trkpt lat="42.90182" lon="-0.20635">
        <ele>1312.5</ele>
        <time>2026-07-15T06:37:02Z</time>
      </trkpt>
      <trkpt lat="42.90181" lon="-0.20635">
        <ele>1312.5</ele>
        <time>2026-07-15T06:37:03Z</time>
      </trkpt>
      <trkpt lat="42.90181" lon="-0.20634">
        <ele>1312.5</ele>
        <time>2026-07-15T06:37:04Z</time>
      </trkpt>
      <trkpt lat="42.90181" lon="-0.20633">
        <ele>1312.5</ele>
        <time>2026-07-15T06:37:04Z</time>
      </trkpt>
      <trkpt lat="42.90181" lon="-0.20633">
        <ele>1312.5</ele>
        <time>2026-07-15T06:37:05Z</time>
      </trkpt>
      <trkpt lat="42.90181" lon="-0.20633">
        <ele>1312.5</ele>
        <time>2026-07-15T06:37:06Z</time>
      </trkpt>
      <trkpt lat="42.9018" lon="-0.20633">
        <ele>1312.5</ele>
        <time>2026-07-15T06:37:07Z</time>
      </trkpt>
      <trkpt lat="42.9018" lon="-0.20633">
        <ele>1313.5</ele>
        <time>2026-07-15T06:37:08Z</time>
      </trkpt>
      <trkpt lat="42.90179" lon="-0.20632">
        <ele>1313.5</ele>
        <time>2026-07-15T06:37:09Z</time>
      </trkpt>
      <trkpt lat="42.90179" lon="-0.20632">
        <ele>1313.5</ele>
        <time>2026-07-15T06:37:09Z</time>
      </trkpt>
      <trkpt lat="42.90179" lon="-0.20632">
        <ele>1313.5</ele>
        <time>2026-07-15T06:37:10Z</time>
      </trkpt>
      <trkpt lat="42.90178" lon="-0.20632">
        <ele>1313.5</ele>
        <time>2026-07-15T06:37:11Z</time>
      </trkpt>
      <trkpt lat="42.90178" lon="-0.20631">
        <ele>1313.5</ele>
        <time>2026-07-15T06:37:12Z</time>
      </trkpt>
      <trkpt lat="42.90177" lon="-0.20631">
        <ele>1313.5</ele>
        <time>2026-07-15T06:37:13Z</time>
      </trkpt>
      <trkpt lat="42.90177" lon="-0.20631">
        <ele>1313.5</ele>
        <time>2026-07-15T06:37:13Z</time>
      </trkpt>
      <trkpt lat="42.90176" lon="-0.2063">
        <ele>1313.5</ele>
        <time>2026-07-15T06:37:14Z</time>
      </trkpt>
      <trkpt lat="42.90176" lon="-0.2063">
        <ele>1313.5</ele>
        <time>2026-07-15T06:37:15Z</time>
      </trkpt>
      <trkpt lat="42.90176" lon="-0.2063">
        <ele>1313.5</ele>
        <time>2026-07-15T06:37:16Z</time>
      </trkpt>
      <trkpt lat="42.90176" lon="-0.2063">
        <ele>1313.5</ele>
        <time>2026-07-15T06:37:17Z</time>
      </trkpt>
      <trkpt lat="42.90175" lon="-0.2063">
        <ele>1313.5</ele>
        <time>2026-07-15T06:37:17Z</time>
      </trkpt>
      <trkpt lat="42.90175" lon="-0.20629">
        <ele>1313.5</ele>
        <time>2026-07-15T06:37:18Z</time>
      </trkpt>
      <trkpt lat="42.90174" lon="-0.20629">
        <ele>1313.5</ele>
        <time>2026-07-15T06:37:19Z</time>
      </trkpt>
      <trkpt lat="42.90174" lon="-0.20629">
        <ele>1312.5</ele>
        <time>2026-07-15T06:37:20Z</time>
      </trkpt>
      <trkpt lat="42.90174" lon="-0.20628">
        <ele>1312.5</ele>
        <time>2026-07-15T06:37:20Z</time>
      </trkpt>
      <trkpt lat="42.90174" lon="-0.20628">
        <ele>1311.5</ele>
        <time>2026-07-15T06:37:21Z</time>
      </trkpt>
      <trkpt lat="42.90173" lon="-0.20627">
        <ele>1311.5</ele>
        <time>2026-07-15T06:37:22Z</time>
      </trkpt>
      <trkpt lat="42.90173" lon="-0.20627">
        <ele>1311.5</ele>
        <time>2026-07-15T06:37:23Z</time>
      </trkpt>
      <trkpt lat="42.90173" lon="-0.20627">
        <ele>1311.5</ele>
        <time>2026-07-15T06:37:24Z</time>
      </trkpt>
      <trkpt lat="42.90172" lon="-0.20627">
        <ele>1310.5</ele>
        <time>2026-07-15T06:37:24Z</time>
      </trkpt>
      <trkpt lat="42.90172" lon="-0.20627">
        <ele>1310.5</ele>
        <time>2026-07-15T06:37:25Z</time>
      </trkpt>
      <trkpt lat="42.90171" lon="-0.20627">
        <ele>1311.5</ele>
        <time>2026-07-15T06:37:26Z</time>
      </trkpt>
      <trkpt lat="42.90171" lon="-0.20627">
        <ele>1311.5</ele>
        <time>2026-07-15T06:37:26Z</time>
      </trkpt>
      <trkpt lat="42.90171" lon="-0.20627">
        <ele>1310.5</ele>
        <time>2026-07-15T06:37:27Z</time>
      </trkpt>
      <trkpt lat="42.90171" lon="-0.20626">
        <ele>1310.5</ele>
        <time>2026-07-15T06:37:28Z</time>
      </trkpt>
      <trkpt lat="42.90171" lon="-0.20626">
        <ele>1310.5</ele>
        <time>2026-07-15T06:37:29Z</time>
      </trkpt>
      <trkpt lat="42.90171" lon="-0.20626">
        <ele>1310.5</ele>
        <time>2026-07-15T06:37:30Z</time>
      </trkpt>
      <trkpt lat="42.9017" lon="-0.20626">
        <ele>1310.5</ele>
        <time>2026-07-15T06:37:31Z</time>
      </trkpt>
      <trkpt lat="42.9017" lon="-0.20626">
        <ele>1310.5</ele>
        <time>2026-07-15T06:37:31Z</time>
      </trkpt>
      <trkpt lat="42.90169" lon="-0.20625">
        <ele>1310.5</ele>
        <time>2026-07-15T06:37:32Z</time>
      </trkpt>
      <trkpt lat="42.90169" lon="-0.20625">
        <ele>1309.5</ele>
        <time>2026-07-15T06:37:33Z</time>
      </trkpt>
      <trkpt lat="42.90168" lon="-0.20625">
        <ele>1310.5</ele>
        <time>2026-07-15T06:37:34Z</time>
      </trkpt>
      <trkpt lat="42.90168" lon="-0.20625">
        <ele>1309.5</ele>
        <time>2026-07-15T06:37:34Z</time>
      </trkpt>
      <trkpt lat="42.90168" lon="-0.20625">
        <ele>1309.5</ele>
        <time>2026-07-15T06:37:35Z</time>
      </trkpt>
      <trkpt lat="42.90167" lon="-0.20624">
        <ele>1309.5</ele>
        <time>2026-07-15T06:37:36Z</time>
      </trkpt>
      <trkpt lat="42.90167" lon="-0.20624">
        <ele>1309.5</ele>
        <time>2026-07-15T06:37:37Z</time>
      </trkpt>
      <trkpt lat="42.90166" lon="-0.20624">
        <ele>1309.5</ele>
        <time>2026-07-15T06:37:37Z</time>
      </trkpt>
      <trkpt lat="42.90166" lon="-0.20624">
        <ele>1309.5</ele>
        <time>2026-07-15T06:37:38Z</time>
      </trkpt>
      <trkpt lat="42.90165" lon="-0.20623">
        <ele>1309.5</ele>
        <time>2026-07-15T06:37:39Z</time>
      </trkpt>
      <trkpt lat="42.90165" lon="-0.20623">
        <ele>1309.5</ele>
        <time>2026-07-15T06:37:40Z</time>
      </trkpt>
      <trkpt lat="42.90164" lon="-0.20623">
        <ele>1309.5</ele>
        <time>2026-07-15T06:37:41Z</time>
      </trkpt>
      <trkpt lat="42.90164" lon="-0.20622">
        <ele>1309.5</ele>
        <time>2026-07-15T06:37:41Z</time>
      </trkpt>
      <trkpt lat="42.90164" lon="-0.20622">
        <ele>1309.5</ele>
        <time>2026-07-15T06:37:42Z</time>
      </trkpt>
      <trkpt lat="42.90163" lon="-0.20621">
        <ele>1309.5</ele>
        <time>2026-07-15T06:37:43Z</time>
      </trkpt>
      <trkpt lat="42.90163" lon="-0.20621">
        <ele>1310.5</ele>
        <time>2026-07-15T06:37:44Z</time>
      </trkpt>
      <trkpt lat="42.90163" lon="-0.20621">
        <ele>1310.5</ele>
        <time>2026-07-15T06:37:45Z</time>
      </trkpt>
      <trkpt lat="42.90163" lon="-0.20621">
        <ele>1310.5</ele>
        <time>2026-07-15T06:37:45Z</time>
      </trkpt>
      <trkpt lat="42.90163" lon="-0.20621">
        <ele>1310.5</ele>
        <time>2026-07-15T06:37:46Z</time>
      </trkpt>
      <trkpt lat="42.90162" lon="-0.20621">
        <ele>1310.5</ele>
        <time>2026-07-15T06:37:47Z</time>
      </trkpt>
      <trkpt lat="42.90162" lon="-0.20621">
        <ele>1310.5</ele>
        <time>2026-07-15T06:37:48Z</time>
      </trkpt>
      <trkpt lat="42.90161" lon="-0.20621">
        <ele>1310.5</ele>
        <time>2026-07-15T06:37:49Z</time>
      </trkpt>
      <trkpt lat="42.90161" lon="-0.20621">
        <ele>1310.5</ele>
        <time>2026-07-15T06:37:49Z</time>
      </trkpt>
      <trkpt lat="42.90161" lon="-0.2062">
        <ele>1311.5</ele>
        <time>2026-07-15T06:37:50Z</time>
      </trkpt>
      <trkpt lat="42.90161" lon="-0.20618">
        <ele>1311.5</ele>
        <time>2026-07-15T06:37:51Z</time>
      </trkpt>
      <trkpt lat="42.90161" lon="-0.20617">
        <ele>1311.5</ele>
        <time>2026-07-15T06:37:52Z</time>
      </trkpt>
      <trkpt lat="42.90161" lon="-0.20616">
        <ele>1312.5</ele>
        <time>2026-07-15T06:37:53Z</time>
      </trkpt>
      <trkpt lat="42.90161" lon="-0.20615">
        <ele>1313.5</ele>
        <time>2026-07-15T06:37:54Z</time>
      </trkpt>
      <trkpt lat="42.90161" lon="-0.20614">
        <ele>1313.5</ele>
        <time>2026-07-15T06:37:54Z</time>
      </trkpt>
      <trkpt lat="42.90161" lon="-0.20612">
        <ele>1314.5</ele>
        <time>2026-07-15T06:37:55Z</time>
      </trkpt>
      <trkpt lat="42.90161" lon="-0.20611">
        <ele>1314.5</ele>
        <time>2026-07-15T06:37:56Z</time>
      </trkpt>
      <trkpt lat="42.90162" lon="-0.2061">
        <ele>1314.5</ele>
        <time>2026-07-15T06:37:57Z</time>
      </trkpt>
      <trkpt lat="42.90161" lon="-0.20609">
        <ele>1314.5</ele>
        <time>2026-07-15T06:37:58Z</time>
      </trkpt>
      <trkpt lat="42.90161" lon="-0.20608">
        <ele>1314.5</ele>
        <time>2026-07-15T06:37:58Z</time>
      </trkpt>
      <trkpt lat="42.90161" lon="-0.20607">
        <ele>1315.5</ele>
        <time>2026-07-15T06:37:59Z</time>
      </trkpt>
      <trkpt lat="42.90161" lon="-0.20606">
        <ele>1316.5</ele>
        <time>2026-07-15T06:38:00Z</time>
      </trkpt>
      <trkpt lat="42.90161" lon="-0.20606">
        <ele>1316.5</ele>
        <time>2026-07-15T06:38:01Z</time>
      </trkpt>
      <trkpt lat="42.90161" lon="-0.20605">
        <ele>1316.5</ele>
        <time>2026-07-15T06:38:02Z</time>
      </trkpt>
      <trkpt lat="42.90161" lon="-0.20605">
        <ele>1316.5</ele>
        <time>2026-07-15T06:38:03Z</time>
      </trkpt>
      <trkpt lat="42.90162" lon="-0.20604">
        <ele>1317.5</ele>
        <time>2026-07-15T06:38:03Z</time>
      </trkpt>
      <trkpt lat="42.90162" lon="-0.20604">
        <ele>1317.5</ele>
        <time>2026-07-15T06:38:04Z</time>
      </trkpt>
      <trkpt lat="42.90161" lon="-0.20604">
        <ele>1317.5</ele>
        <time>2026-07-15T06:38:05Z</time>
      </trkpt>
      <trkpt lat="42.90161" lon="-0.20603">
        <ele>1318.5</ele>
        <time>2026-07-15T06:38:06Z</time>
      </trkpt>
      <trkpt lat="42.90161" lon="-0.20603">
        <ele>1318.5</ele>
        <time>2026-07-15T06:38:07Z</time>
      </trkpt>
      <trkpt lat="42.9016" lon="-0.20603">
        <ele>1318.5</ele>
        <time>2026-07-15T06:38:08Z</time>
      </trkpt>
      <trkpt lat="42.9016" lon="-0.20602">
        <ele>1318.5</ele>
        <time>2026-07-15T06:38:08Z</time>
      </trkpt>
      <trkpt lat="42.9016" lon="-0.20602">
        <ele>1318.5</ele>
        <time>2026-07-15T06:38:09Z</time>
      </trkpt>
      <trkpt lat="42.90159" lon="-0.20601">
        <ele>1318.5</ele>
        <time>2026-07-15T06:38:10Z</time>
      </trkpt>
      <trkpt lat="42.90159" lon="-0.20601">
        <ele>1319.5</ele>
        <time>2026-07-15T06:38:11Z</time>
      </trkpt>
      <trkpt lat="42.90159" lon="-0.20601">
        <ele>1319.5</ele>
        <time>2026-07-15T06:38:11Z</time>
      </trkpt>
      <trkpt lat="42.90158" lon="-0.20601">
        <ele>1319.5</ele>
        <time>2026-07-15T06:38:12Z</time>
      </trkpt>
      <trkpt lat="42.90158" lon="-0.20601">
        <ele>1319.5</ele>
        <time>2026-07-15T06:38:13Z</time>
      </trkpt>
      <trkpt lat="42.90157" lon="-0.206">
        <ele>1319.5</ele>
        <time>2026-07-15T06:38:14Z</time>
      </trkpt>
      <trkpt lat="42.90157" lon="-0.206">
        <ele>1319.5</ele>
        <time>2026-07-15T06:38:15Z</time>
      </trkpt>
      <trkpt lat="42.90156" lon="-0.20601">
        <ele>1320.5</ele>
        <time>2026-07-15T06:38:16Z</time>
      </trkpt>
      <trkpt lat="42.90156" lon="-0.20601">
        <ele>1320.5</ele>
        <time>2026-07-15T06:38:16Z</time>
      </trkpt>
      <trkpt lat="42.90155" lon="-0.206">
        <ele>1321.5</ele>
        <time>2026-07-15T06:38:17Z</time>
      </trkpt>
      <trkpt lat="42.90154" lon="-0.206">
        <ele>1321.5</ele>
        <time>2026-07-15T06:38:18Z</time>
      </trkpt>
      <trkpt lat="42.90154" lon="-0.206">
        <ele>1321.5</ele>
        <time>2026-07-15T06:38:19Z</time>
      </trkpt>
      <trkpt lat="42.90153" lon="-0.20599">
        <ele>1321.5</ele>
        <time>2026-07-15T06:38:20Z</time>
      </trkpt>
      <trkpt lat="42.90153" lon="-0.20599">
        <ele>1321.5</ele>
        <time>2026-07-15T06:38:20Z</time>
      </trkpt>
      <trkpt lat="42.90152" lon="-0.20598">
        <ele>1322.5</ele>
        <time>2026-07-15T06:38:21Z</time>
      </trkpt>
      <trkpt lat="42.90152" lon="-0.20598">
        <ele>1322.5</ele>
        <time>2026-07-15T06:38:22Z</time>
      </trkpt>
      <trkpt lat="42.90151" lon="-0.20598">
        <ele>1322.5</ele>
        <time>2026-07-15T06:38:23Z</time>
      </trkpt>
      <trkpt lat="42.90151" lon="-0.20597">
        <ele>1322.5</ele>
        <time>2026-07-15T06:38:24Z</time>
      </trkpt>
      <trkpt lat="42.9015" lon="-0.20597">
        <ele>1322.5</ele>
        <time>2026-07-15T06:38:25Z</time>
      </trkpt>
      <trkpt lat="42.9015" lon="-0.20597">
        <ele>1323.5</ele>
        <time>2026-07-15T06:38:25Z</time>
      </trkpt>
      <trkpt lat="42.9015" lon="-0.20597">
        <ele>1323.5</ele>
        <time>2026-07-15T06:38:26Z</time>
      </trkpt>
      <trkpt lat="42.90149" lon="-0.20596">
        <ele>1323.5</ele>
        <time>2026-07-15T06:38:27Z</time>
      </trkpt>
      <trkpt lat="42.90149" lon="-0.20595">
        <ele>1323.5</ele>
        <time>2026-07-15T06:38:28Z</time>
      </trkpt>
      <trkpt lat="42.90149" lon="-0.20595">
        <ele>1323.5</ele>
        <time>2026-07-15T06:38:28Z</time>
      </trkpt>
      <trkpt lat="42.90149" lon="-0.20594">
        <ele>1323.5</ele>
        <time>2026-07-15T06:38:29Z</time>
      </trkpt>
      <trkpt lat="42.90149" lon="-0.20594">
        <ele>1323.5</ele>
        <time>2026-07-15T06:38:30Z</time>
      </trkpt>
      <trkpt lat="42.90148" lon="-0.20593">
        <ele>1324.5</ele>
        <time>2026-07-15T06:38:31Z</time>
      </trkpt>
      <trkpt lat="42.90148" lon="-0.20593">
        <ele>1325.5</ele>
        <time>2026-07-15T06:38:32Z</time>
      </trkpt>
      <trkpt lat="42.90148" lon="-0.20592">
        <ele>1325.5</ele>
        <time>2026-07-15T06:38:32Z</time>
      </trkpt>
      <trkpt lat="42.90147" lon="-0.20592">
        <ele>1325.5</ele>
        <time>2026-07-15T06:38:33Z</time>
      </trkpt>
      <trkpt lat="42.90147" lon="-0.20592">
        <ele>1325.5</ele>
        <time>2026-07-15T06:38:34Z</time>
      </trkpt>
      <trkpt lat="42.90146" lon="-0.20591">
        <ele>1325.5</ele>
        <time>2026-07-15T06:38:35Z</time>
      </trkpt>
      <trkpt lat="42.90146" lon="-0.20591">
        <ele>1326.5</ele>
        <time>2026-07-15T06:38:36Z</time>
      </trkpt>
      <trkpt lat="42.90145" lon="-0.2059">
        <ele>1325.5</ele>
        <time>2026-07-15T06:38:37Z</time>
      </trkpt>
      <trkpt lat="42.90145" lon="-0.2059">
        <ele>1325.5</ele>
        <time>2026-07-15T06:38:38Z</time>
      </trkpt>
      <trkpt lat="42.90145" lon="-0.2059">
        <ele>1326.5</ele>
        <time>2026-07-15T06:38:38Z</time>
      </trkpt>
      <trkpt lat="42.90145" lon="-0.20589">
        <ele>1325.5</ele>
        <time>2026-07-15T06:38:39Z</time>
      </trkpt>
      <trkpt lat="42.90144" lon="-0.20589">
        <ele>1325.5</ele>
        <time>2026-07-15T06:38:40Z</time>
      </trkpt>
      <trkpt lat="42.90144" lon="-0.20588">
        <ele>1325.5</ele>
        <time>2026-07-15T06:38:41Z</time>
      </trkpt>
      <trkpt lat="42.90143" lon="-0.20588">
        <ele>1325.5</ele>
        <time>2026-07-15T06:38:42Z</time>
      </trkpt>
      <trkpt lat="42.90143" lon="-0.20588">
        <ele>1325.5</ele>
        <time>2026-07-15T06:38:43Z</time>
      </trkpt>
      <trkpt lat="42.90142" lon="-0.20587">
        <ele>1325.5</ele>
        <time>2026-07-15T06:38:43Z</time>
      </trkpt>
      <trkpt lat="42.90142" lon="-0.20587">
        <ele>1325.5</ele>
        <time>2026-07-15T06:38:44Z</time>
      </trkpt>
      <trkpt lat="42.90141" lon="-0.20587">
        <ele>1325.5</ele>
        <time>2026-07-15T06:38:45Z</time>
      </trkpt>
      <trkpt lat="42.90141" lon="-0.20586">
        <ele>1325.5</ele>
        <time>2026-07-15T06:38:46Z</time>
      </trkpt>
      <trkpt lat="42.9014" lon="-0.20586">
        <ele>1325.5</ele>
        <time>2026-07-15T06:38:47Z</time>
      </trkpt>
      <trkpt lat="42.9014" lon="-0.20586">
        <ele>1324.5</ele>
        <time>2026-07-15T06:38:48Z</time>
      </trkpt>
      <trkpt lat="42.90139" lon="-0.20586">
        <ele>1324.5</ele>
        <time>2026-07-15T06:38:48Z</time>
      </trkpt>
      <trkpt lat="42.90139" lon="-0.20585">
        <ele>1324.5</ele>
        <time>2026-07-15T06:38:49Z</time>
      </trkpt>
      <trkpt lat="42.90139" lon="-0.20585">
        <ele>1324.5</ele>
        <time>2026-07-15T06:38:50Z</time>
      </trkpt>
      <trkpt lat="42.90139" lon="-0.20584">
        <ele>1325.5</ele>
        <time>2026-07-15T06:38:51Z</time>
      </trkpt>
      <trkpt lat="42.90139" lon="-0.20584">
        <ele>1325.5</ele>
        <time>2026-07-15T06:38:52Z</time>
      </trkpt>
      <trkpt lat="42.90139" lon="-0.20583">
        <ele>1326.5</ele>
        <time>2026-07-15T06:38:53Z</time>
      </trkpt>
      <trkpt lat="42.9014" lon="-0.20583">
        <ele>1326.5</ele>
        <time>2026-07-15T06:38:53Z</time>
      </trkpt>
      <trkpt lat="42.9014" lon="-0.20584">
        <ele>1327.5</ele>
        <time>2026-07-15T06:38:54Z</time>
      </trkpt>
      <trkpt lat="42.9014" lon="-0.20584">
        <ele>1327.5</ele>
        <time>2026-07-15T06:38:55Z</time>
      </trkpt>
      <trkpt lat="42.90139" lon="-0.20584">
        <ele>1327.5</ele>
        <time>2026-07-15T06:38:56Z</time>
      </trkpt>
      <trkpt lat="42.90139" lon="-0.20583">
        <ele>1326.5</ele>
        <time>2026-07-15T06:38:57Z</time>
      </trkpt>
      <trkpt lat="42.90139" lon="-0.20583">
        <ele>1326.5</ele>
        <time>2026-07-15T06:38:57Z</time>
      </trkpt>
      <trkpt lat="42.90139" lon="-0.20583">
        <ele>1327.5</ele>
        <time>2026-07-15T06:38:58Z</time>
      </trkpt>
      <trkpt lat="42.90139" lon="-0.20583">
        <ele>1327.5</ele>
        <time>2026-07-15T06:38:59Z</time>
      </trkpt>
      <trkpt lat="42.90138" lon="-0.20583">
        <ele>1327.5</ele>
        <time>2026-07-15T06:39:00Z</time>
      </trkpt>
      <trkpt lat="42.90138" lon="-0.20583">
        <ele>1327.5</ele>
        <time>2026-07-15T06:39:01Z</time>
      </trkpt>
      <trkpt lat="42.90138" lon="-0.20582">
        <ele>1327.5</ele>
        <time>2026-07-15T06:39:02Z</time>
      </trkpt>
      <trkpt lat="42.90138" lon="-0.20581">
        <ele>1327.5</ele>
        <time>2026-07-15T06:39:03Z</time>
      </trkpt>
      <trkpt lat="42.90138" lon="-0.20581">
        <ele>1327.5</ele>
        <time>2026-07-15T06:39:03Z</time>
      </trkpt>
      <trkpt lat="42.90138" lon="-0.2058">
        <ele>1327.5</ele>
        <time>2026-07-15T06:39:04Z</time>
      </trkpt>
      <trkpt lat="42.90138" lon="-0.20579">
        <ele>1327.5</ele>
        <time>2026-07-15T06:39:05Z</time>
      </trkpt>
      <trkpt lat="42.90138" lon="-0.20579">
        <ele>1327.5</ele>
        <time>2026-07-15T06:39:06Z</time>
      </trkpt>
      <trkpt lat="42.90138" lon="-0.20579">
        <ele>1328.5</ele>
        <time>2026-07-15T06:39:06Z</time>
      </trkpt>
      <trkpt lat="42.90138" lon="-0.20578">
        <ele>1328.5</ele>
        <time>2026-07-15T06:39:07Z</time>
      </trkpt>
      <trkpt lat="42.90138" lon="-0.20577">
        <ele>1328.5</ele>
        <time>2026-07-15T06:39:08Z</time>
      </trkpt>
      <trkpt lat="42.90138" lon="-0.20577">
        <ele>1329.5</ele>
        <time>2026-07-15T06:39:09Z</time>
      </trkpt>
      <trkpt lat="42.90138" lon="-0.20576">
        <ele>1329.5</ele>
        <time>2026-07-15T06:39:10Z</time>
      </trkpt>
      <trkpt lat="42.90138" lon="-0.20575">
        <ele>1329.5</ele>
        <time>2026-07-15T06:39:11Z</time>
      </trkpt>
      <trkpt lat="42.90138" lon="-0.20575">
        <ele>1330.5</ele>
        <time>2026-07-15T06:39:12Z</time>
      </trkpt>
      <trkpt lat="42.90138" lon="-0.20574">
        <ele>1330.5</ele>
        <time>2026-07-15T06:39:12Z</time>
      </trkpt>
      <trkpt lat="42.90138" lon="-0.20573">
        <ele>1330.5</ele>
        <time>2026-07-15T06:39:13Z</time>
      </trkpt>
      <trkpt lat="42.90138" lon="-0.20573">
        <ele>1330.5</ele>
        <time>2026-07-15T06:39:14Z</time>
      </trkpt>
      <trkpt lat="42.90138" lon="-0.20572">
        <ele>1330.5</ele>
        <time>2026-07-15T06:39:15Z</time>
      </trkpt>
      <trkpt lat="42.90138" lon="-0.20571">
        <ele>1331.5</ele>
        <time>2026-07-15T06:39:16Z</time>
      </trkpt>
      <trkpt lat="42.90138" lon="-0.2057">
        <ele>1331.5</ele>
        <time>2026-07-15T06:39:17Z</time>
      </trkpt>
      <trkpt lat="42.90138" lon="-0.2057">
        <ele>1331.5</ele>
        <time>2026-07-15T06:39:17Z</time>
      </trkpt>
      <trkpt lat="42.90138" lon="-0.20569">
        <ele>1331.5</ele>
        <time>2026-07-15T06:39:18Z</time>
      </trkpt>
      <trkpt lat="42.90138" lon="-0.20568">
        <ele>1331.5</ele>
        <time>2026-07-15T06:39:19Z</time>
      </trkpt>
      <trkpt lat="42.90138" lon="-0.20567">
        <ele>1331.5</ele>
        <time>2026-07-15T06:39:20Z</time>
      </trkpt>
      <trkpt lat="42.90137" lon="-0.20567">
        <ele>1331.5</ele>
        <time>2026-07-15T06:39:21Z</time>
      </trkpt>
      <trkpt lat="42.90137" lon="-0.20566">
        <ele>1332.5</ele>
        <time>2026-07-15T06:39:22Z</time>
      </trkpt>
      <trkpt lat="42.90137" lon="-0.20565">
        <ele>1332.5</ele>
        <time>2026-07-15T06:39:22Z</time>
      </trkpt>
      <trkpt lat="42.90137" lon="-0.20564">
        <ele>1333.5</ele>
        <time>2026-07-15T06:39:23Z</time>
      </trkpt>
      <trkpt lat="42.90137" lon="-0.20563">
        <ele>1333.5</ele>
        <time>2026-07-15T06:39:24Z</time>
      </trkpt>
      <trkpt lat="42.90137" lon="-0.20562">
        <ele>1332.5</ele>
        <time>2026-07-15T06:39:25Z</time>
      </trkpt>
      <trkpt lat="42.90137" lon="-0.20561">
        <ele>1333.5</ele>
        <time>2026-07-15T06:39:25Z</time>
      </trkpt>
      <trkpt lat="42.90137" lon="-0.20561">
        <ele>1333.5</ele>
        <time>2026-07-15T06:39:26Z</time>
      </trkpt>
      <trkpt lat="42.90136" lon="-0.2056">
        <ele>1333.5</ele>
        <time>2026-07-15T06:39:27Z</time>
      </trkpt>
      <trkpt lat="42.90136" lon="-0.20559">
        <ele>1333.5</ele>
        <time>2026-07-15T06:39:28Z</time>
      </trkpt>
      <trkpt lat="42.90135" lon="-0.20559">
        <ele>1333.5</ele>
        <time>2026-07-15T06:39:29Z</time>
      </trkpt>
      <trkpt lat="42.90135" lon="-0.20558">
        <ele>1333.5</ele>
        <time>2026-07-15T06:39:30Z</time>
      </trkpt>
      <trkpt lat="42.90135" lon="-0.20557">
        <ele>1334.5</ele>
        <time>2026-07-15T06:39:30Z</time>
      </trkpt>
      <trkpt lat="42.90135" lon="-0.20557">
        <ele>1334.5</ele>
        <time>2026-07-15T06:39:31Z</time>
      </trkpt>
      <trkpt lat="42.90135" lon="-0.20556">
        <ele>1334.5</ele>
        <time>2026-07-15T06:39:32Z</time>
      </trkpt>
      <trkpt lat="42.90134" lon="-0.20555">
        <ele>1334.5</ele>
        <time>2026-07-15T06:39:33Z</time>
      </trkpt>
      <trkpt lat="42.90134" lon="-0.20554">
        <ele>1335.5</ele>
        <time>2026-07-15T06:39:34Z</time>
      </trkpt>
      <trkpt lat="42.90134" lon="-0.20554">
        <ele>1335.5</ele>
        <time>2026-07-15T06:39:34Z</time>
      </trkpt>
      <trkpt lat="42.90135" lon="-0.20554">
        <ele>1335.5</ele>
        <time>2026-07-15T06:39:35Z</time>
      </trkpt>
      <trkpt lat="42.90135" lon="-0.20554">
        <ele>1334.5</ele>
        <time>2026-07-15T06:39:36Z</time>
      </trkpt>
      <trkpt lat="42.90135" lon="-0.20553">
        <ele>1334.5</ele>
        <time>2026-07-15T06:39:37Z</time>
      </trkpt>
      <trkpt lat="42.90134" lon="-0.20552">
        <ele>1335.5</ele>
        <time>2026-07-15T06:39:38Z</time>
      </trkpt>
      <trkpt lat="42.90134" lon="-0.20552">
        <ele>1335.5</ele>
        <time>2026-07-15T06:39:39Z</time>
      </trkpt>
      <trkpt lat="42.90134" lon="-0.20551">
        <ele>1336.5</ele>
        <time>2026-07-15T06:39:39Z</time>
      </trkpt>
      <trkpt lat="42.90134" lon="-0.20551">
        <ele>1336.5</ele>
        <time>2026-07-15T06:39:40Z</time>
      </trkpt>
      <trkpt lat="42.90134" lon="-0.20551">
        <ele>1336.5</ele>
        <time>2026-07-15T06:39:40Z</time>
      </trkpt>
      <trkpt lat="42.90133" lon="-0.2055">
        <ele>1337.5</ele>
        <time>2026-07-15T06:39:41Z</time>
      </trkpt>
      <trkpt lat="42.90133" lon="-0.20549">
        <ele>1337.5</ele>
        <time>2026-07-15T06:39:42Z</time>
      </trkpt>
      <trkpt lat="42.90133" lon="-0.20549">
        <ele>1337.5</ele>
        <time>2026-07-15T06:39:43Z</time>
      </trkpt>
      <trkpt lat="42.90132" lon="-0.20548">
        <ele>1337.5</ele>
        <time>2026-07-15T06:39:44Z</time>
      </trkpt>
      <trkpt lat="42.90132" lon="-0.20547">
        <ele>1337.5</ele>
        <time>2026-07-15T06:39:45Z</time>
      </trkpt>
      <trkpt lat="42.90132" lon="-0.20547">
        <ele>1337.5</ele>
        <time>2026-07-15T06:39:45Z</time>
      </trkpt>
      <trkpt lat="42.90132" lon="-0.20546">
        <ele>1337.5</ele>
        <time>2026-07-15T06:39:46Z</time>
      </trkpt>
      <trkpt lat="42.90131" lon="-0.20546">
        <ele>1336.5</ele>
        <time>2026-07-15T06:39:47Z</time>
      </trkpt>
      <trkpt lat="42.90131" lon="-0.20546">
        <ele>1336.5</ele>
        <time>2026-07-15T06:39:48Z</time>
      </trkpt>
      <trkpt lat="42.90131" lon="-0.20545">
        <ele>1336.5</ele>
        <time>2026-07-15T06:39:49Z</time>
      </trkpt>
      <trkpt lat="42.90131" lon="-0.20545">
        <ele>1336.5</ele>
        <time>2026-07-15T06:39:50Z</time>
      </trkpt>
      <trkpt lat="42.9013" lon="-0.20545">
        <ele>1337.5</ele>
        <time>2026-07-15T06:39:50Z</time>
      </trkpt>
      <trkpt lat="42.9013" lon="-0.20545">
        <ele>1336.5</ele>
        <time>2026-07-15T06:39:51Z</time>
      </trkpt>
      <trkpt lat="42.90129" lon="-0.20545">
        <ele>1337.5</ele>
        <time>2026-07-15T06:39:52Z</time>
      </trkpt>
      <trkpt lat="42.90129" lon="-0.20545">
        <ele>1337.5</ele>
        <time>2026-07-15T06:39:53Z</time>
      </trkpt>
      <trkpt lat="42.90128" lon="-0.20545">
        <ele>1336.5</ele>
        <time>2026-07-15T06:39:54Z</time>
      </trkpt>
      <trkpt lat="42.90128" lon="-0.20545">
        <ele>1336.5</ele>
        <time>2026-07-15T06:39:55Z</time>
      </trkpt>
      <trkpt lat="42.90127" lon="-0.20545">
        <ele>1337.5</ele>
        <time>2026-07-15T06:39:55Z</time>
      </trkpt>
      <trkpt lat="42.90127" lon="-0.20544">
        <ele>1337.5</ele>
        <time>2026-07-15T06:39:56Z</time>
      </trkpt>
      <trkpt lat="42.90127" lon="-0.20544">
        <ele>1337.5</ele>
        <time>2026-07-15T06:39:57Z</time>
      </trkpt>
      <trkpt lat="42.90126" lon="-0.20543">
        <ele>1337.5</ele>
        <time>2026-07-15T06:39:58Z</time>
      </trkpt>
      <trkpt lat="42.90126" lon="-0.20543">
        <ele>1337.5</ele>
        <time>2026-07-15T06:39:59Z</time>
      </trkpt>
      <trkpt lat="42.90125" lon="-0.20544">
        <ele>1337.5</ele>
        <time>2026-07-15T06:39:59Z</time>
      </trkpt>
      <trkpt lat="42.90125" lon="-0.20544">
        <ele>1338.5</ele>
        <time>2026-07-15T06:40:00Z</time>
      </trkpt>
      <trkpt lat="42.90125" lon="-0.20545">
        <ele>1338.5</ele>
        <time>2026-07-15T06:40:01Z</time>
      </trkpt>
      <trkpt lat="42.90125" lon="-0.20546">
        <ele>1338.5</ele>
        <time>2026-07-15T06:40:02Z</time>
      </trkpt>
      <trkpt lat="42.90125" lon="-0.20546">
        <ele>1338.5</ele>
        <time>2026-07-15T06:40:03Z</time>
      </trkpt>
      <trkpt lat="42.90125" lon="-0.20547">
        <ele>1338.5</ele>
        <time>2026-07-15T06:40:03Z</time>
      </trkpt>
      <trkpt lat="42.90125" lon="-0.20547">
        <ele>1338.5</ele>
        <time>2026-07-15T06:40:04Z</time>
      </trkpt>
      <trkpt lat="42.90125" lon="-0.20548">
        <ele>1339.5</ele>
        <time>2026-07-15T06:40:04Z</time>
      </trkpt>
      <trkpt lat="42.90125" lon="-0.20548">
        <ele>1340.5</ele>
        <time>2026-07-15T06:40:05Z</time>
      </trkpt>
      <trkpt lat="42.90125" lon="-0.20548">
        <ele>1340.5</ele>
        <time>2026-07-15T06:40:06Z</time>
      </trkpt>
      <trkpt lat="42.90124" lon="-0.20549">
        <ele>1340.5</ele>
        <time>2026-07-15T06:40:07Z</time>
      </trkpt>
      <trkpt lat="42.90124" lon="-0.20549">
        <ele>1340.5</ele>
        <time>2026-07-15T06:40:08Z</time>
      </trkpt>
      <trkpt lat="42.90124" lon="-0.20549">
        <ele>1340.5</ele>
        <time>2026-07-15T06:40:09Z</time>
      </trkpt>
      <trkpt lat="42.90124" lon="-0.20549">
        <ele>1340.5</ele>
        <time>2026-07-15T06:40:10Z</time>
      </trkpt>
      <trkpt lat="42.90124" lon="-0.20549">
        <ele>1340.5</ele>
        <time>2026-07-15T06:40:10Z</time>
      </trkpt>
      <trkpt lat="42.90123" lon="-0.20549">
        <ele>1340.5</ele>
        <time>2026-07-15T06:40:11Z</time>
      </trkpt>
      <trkpt lat="42.90123" lon="-0.2055">
        <ele>1340.5</ele>
        <time>2026-07-15T06:40:12Z</time>
      </trkpt>
      <trkpt lat="42.90123" lon="-0.2055">
        <ele>1340.5</ele>
        <time>2026-07-15T06:40:13Z</time>
      </trkpt>
      <trkpt lat="42.90123" lon="-0.20551">
        <ele>1342.5</ele>
        <time>2026-07-15T06:40:14Z</time>
      </trkpt>
      <trkpt lat="42.90123" lon="-0.20551">
        <ele>1341.5</ele>
        <time>2026-07-15T06:40:15Z</time>
      </trkpt>
      <trkpt lat="42.90124" lon="-0.20552">
        <ele>1339.5</ele>
        <time>2026-07-15T06:40:16Z</time>
      </trkpt>
      <trkpt lat="42.90123" lon="-0.20552">
        <ele>1339.5</ele>
        <time>2026-07-15T06:40:16Z</time>
      </trkpt>
      <trkpt lat="42.90123" lon="-0.20553">
        <ele>1340.5</ele>
        <time>2026-07-15T06:40:17Z</time>
      </trkpt>
      <trkpt lat="42.90122" lon="-0.20553">
        <ele>1340.5</ele>
        <time>2026-07-15T06:40:18Z</time>
      </trkpt>
      <trkpt lat="42.90123" lon="-0.20554">
        <ele>1341.5</ele>
        <time>2026-07-15T06:40:19Z</time>
      </trkpt>
      <trkpt lat="42.90123" lon="-0.20555">
        <ele>1341.5</ele>
        <time>2026-07-15T06:40:20Z</time>
      </trkpt>
      <trkpt lat="42.90123" lon="-0.20555">
        <ele>1342.5</ele>
        <time>2026-07-15T06:40:20Z</time>
      </trkpt>
      <trkpt lat="42.90123" lon="-0.20556">
        <ele>1342.5</ele>
        <time>2026-07-15T06:40:21Z</time>
      </trkpt>
      <trkpt lat="42.90123" lon="-0.20557">
        <ele>1342.5</ele>
        <time>2026-07-15T06:40:22Z</time>
      </trkpt>
      <trkpt lat="42.90123" lon="-0.20558">
        <ele>1343.5</ele>
        <time>2026-07-15T06:40:23Z</time>
      </trkpt>
      <trkpt lat="42.90123" lon="-0.20558">
        <ele>1343.5</ele>
        <time>2026-07-15T06:40:24Z</time>
      </trkpt>
      <trkpt lat="42.90122" lon="-0.20558">
        <ele>1343.5</ele>
        <time>2026-07-15T06:40:25Z</time>
      </trkpt>
      <trkpt lat="42.90122" lon="-0.20558">
        <ele>1343.5</ele>
        <time>2026-07-15T06:40:25Z</time>
      </trkpt>
      <trkpt lat="42.90121" lon="-0.20558">
        <ele>1344.5</ele>
        <time>2026-07-15T06:40:26Z</time>
      </trkpt>
      <trkpt lat="42.90121" lon="-0.20558">
        <ele>1344.5</ele>
        <time>2026-07-15T06:40:27Z</time>
      </trkpt>
      <trkpt lat="42.9012" lon="-0.20558">
        <ele>1344.5</ele>
        <time>2026-07-15T06:40:28Z</time>
      </trkpt>
      <trkpt lat="42.9012" lon="-0.20558">
        <ele>1344.5</ele>
        <time>2026-07-15T06:40:29Z</time>
      </trkpt>
      <trkpt lat="42.90119" lon="-0.20558">
        <ele>1345.5</ele>
        <time>2026-07-15T06:40:29Z</time>
      </trkpt>
      <trkpt lat="42.90119" lon="-0.20557">
        <ele>1345.5</ele>
        <time>2026-07-15T06:40:30Z</time>
      </trkpt>
      <trkpt lat="42.90119" lon="-0.20557">
        <ele>1345.5</ele>
        <time>2026-07-15T06:40:30Z</time>
      </trkpt>
      <trkpt lat="42.90118" lon="-0.20556">
        <ele>1345.5</ele>
        <time>2026-07-15T06:40:31Z</time>
      </trkpt>
      <trkpt lat="42.90117" lon="-0.20556">
        <ele>1345.5</ele>
        <time>2026-07-15T06:40:32Z</time>
      </trkpt>
      <trkpt lat="42.90117" lon="-0.20556">
        <ele>1345.5</ele>
        <time>2026-07-15T06:40:33Z</time>
      </trkpt>
      <trkpt lat="42.90116" lon="-0.20556">
        <ele>1344.5</ele>
        <time>2026-07-15T06:40:33Z</time>
      </trkpt>
      <trkpt lat="42.90116" lon="-0.20556">
        <ele>1345.5</ele>
        <time>2026-07-15T06:40:34Z</time>
      </trkpt>
      <trkpt lat="42.90116" lon="-0.20557">
        <ele>1345.5</ele>
        <time>2026-07-15T06:40:35Z</time>
      </trkpt>
      <trkpt lat="42.90115" lon="-0.20557">
        <ele>1347.5</ele>
        <time>2026-07-15T06:40:36Z</time>
      </trkpt>
      <trkpt lat="42.90115" lon="-0.20558">
        <ele>1347.5</ele>
        <time>2026-07-15T06:40:37Z</time>
      </trkpt>
      <trkpt lat="42.90115" lon="-0.20558">
        <ele>1347.5</ele>
        <time>2026-07-15T06:40:37Z</time>
      </trkpt>
      <trkpt lat="42.90114" lon="-0.20558">
        <ele>1347.5</ele>
        <time>2026-07-15T06:40:38Z</time>
      </trkpt>
      <trkpt lat="42.90114" lon="-0.20558">
        <ele>1347.5</ele>
        <time>2026-07-15T06:40:39Z</time>
      </trkpt>
      <trkpt lat="42.90113" lon="-0.20558">
        <ele>1346.5</ele>
        <time>2026-07-15T06:40:40Z</time>
      </trkpt>
      <trkpt lat="42.90112" lon="-0.20558">
        <ele>1347.5</ele>
        <time>2026-07-15T06:40:40Z</time>
      </trkpt>
      <trkpt lat="42.90112" lon="-0.20558">
        <ele>1347.5</ele>
        <time>2026-07-15T06:40:41Z</time>
      </trkpt>
      <trkpt lat="42.90111" lon="-0.20558">
        <ele>1347.5</ele>
        <time>2026-07-15T06:40:42Z</time>
      </trkpt>
      <trkpt lat="42.9011" lon="-0.20558">
        <ele>1347.5</ele>
        <time>2026-07-15T06:40:43Z</time>
      </trkpt>
      <trkpt lat="42.9011" lon="-0.20558">
        <ele>1347.5</ele>
        <time>2026-07-15T06:40:43Z</time>
      </trkpt>
      <trkpt lat="42.90109" lon="-0.20558">
        <ele>1347.5</ele>
        <time>2026-07-15T06:40:44Z</time>
      </trkpt>
      <trkpt lat="42.90109" lon="-0.20557">
        <ele>1347.5</ele>
        <time>2026-07-15T06:40:45Z</time>
      </trkpt>
      <trkpt lat="42.90108" lon="-0.20557">
        <ele>1347.5</ele>
        <time>2026-07-15T06:40:45Z</time>
      </trkpt>
      <trkpt lat="42.90108" lon="-0.20557">
        <ele>1347.5</ele>
        <time>2026-07-15T06:40:46Z</time>
      </trkpt>
      <trkpt lat="42.90107" lon="-0.20556">
        <ele>1347.5</ele>
        <time>2026-07-15T06:40:47Z</time>
      </trkpt>
      <trkpt lat="42.90107" lon="-0.20556">
        <ele>1347.5</ele>
        <time>2026-07-15T06:40:48Z</time>
      </trkpt>
      <trkpt lat="42.90106" lon="-0.20556">
        <ele>1347.5</ele>
        <time>2026-07-15T06:40:48Z</time>
      </trkpt>
      <trkpt lat="42.90106" lon="-0.20555">
        <ele>1347.5</ele>
        <time>2026-07-15T06:40:49Z</time>
      </trkpt>
      <trkpt lat="42.90106" lon="-0.20554">
        <ele>1347.5</ele>
        <time>2026-07-15T06:40:50Z</time>
      </trkpt>
      <trkpt lat="42.90105" lon="-0.20553">
        <ele>1347.5</ele>
        <time>2026-07-15T06:40:50Z</time>
      </trkpt>
      <trkpt lat="42.90105" lon="-0.20552">
        <ele>1347.5</ele>
        <time>2026-07-15T06:40:51Z</time>
      </trkpt>
      <trkpt lat="42.90105" lon="-0.20551">
        <ele>1347.5</ele>
        <time>2026-07-15T06:40:52Z</time>
      </trkpt>
      <trkpt lat="42.90104" lon="-0.20551">
        <ele>1347.5</ele>
        <time>2026-07-15T06:40:53Z</time>
      </trkpt>
      <trkpt lat="42.90104" lon="-0.2055">
        <ele>1347.5</ele>
        <time>2026-07-15T06:40:53Z</time>
      </trkpt>
      <trkpt lat="42.90104" lon="-0.2055">
        <ele>1347.5</ele>
        <time>2026-07-15T06:40:54Z</time>
      </trkpt>
      <trkpt lat="42.90103" lon="-0.20549">
        <ele>1347.5</ele>
        <time>2026-07-15T06:40:55Z</time>
      </trkpt>
      <trkpt lat="42.90103" lon="-0.20549">
        <ele>1347.5</ele>
        <time>2026-07-15T06:40:56Z</time>
      </trkpt>
      <trkpt lat="42.90103" lon="-0.20549">
        <ele>1348.5</ele>
        <time>2026-07-15T06:40:56Z</time>
      </trkpt>
      <trkpt lat="42.90102" lon="-0.20549">
        <ele>1348.5</ele>
        <time>2026-07-15T06:40:57Z</time>
      </trkpt>
      <trkpt lat="42.90102" lon="-0.20549">
        <ele>1347.5</ele>
        <time>2026-07-15T06:40:58Z</time>
      </trkpt>
      <trkpt lat="42.90102" lon="-0.20549">
        <ele>1347.5</ele>
        <time>2026-07-15T06:40:58Z</time>
      </trkpt>
      <trkpt lat="42.90102" lon="-0.20549">
        <ele>1347.5</ele>
        <time>2026-07-15T06:40:59Z</time>
      </trkpt>
      <trkpt lat="42.90102" lon="-0.2055">
        <ele>1347.5</ele>
        <time>2026-07-15T06:41:00Z</time>
      </trkpt>
      <trkpt lat="42.90101" lon="-0.2055">
        <ele>1347.5</ele>
        <time>2026-07-15T06:41:01Z</time>
      </trkpt>
      <trkpt lat="42.90101" lon="-0.2055">
        <ele>1347.5</ele>
        <time>2026-07-15T06:41:01Z</time>
      </trkpt>
      <trkpt lat="42.90101" lon="-0.2055">
        <ele>1348.5</ele>
        <time>2026-07-15T06:41:02Z</time>
      </trkpt>
      <trkpt lat="42.901" lon="-0.20551">
        <ele>1348.5</ele>
        <time>2026-07-15T06:41:03Z</time>
      </trkpt>
      <trkpt lat="42.901" lon="-0.20551">
        <ele>1348.5</ele>
        <time>2026-07-15T06:41:04Z</time>
      </trkpt>
      <trkpt lat="42.901" lon="-0.20551">
        <ele>1348.5</ele>
        <time>2026-07-15T06:41:04Z</time>
      </trkpt>
      <trkpt lat="42.90099" lon="-0.20552">
        <ele>1348.5</ele>
        <time>2026-07-15T06:41:05Z</time>
      </trkpt>
      <trkpt lat="42.90099" lon="-0.20552">
        <ele>1348.5</ele>
        <time>2026-07-15T06:41:06Z</time>
      </trkpt>
      <trkpt lat="42.90098" lon="-0.20552">
        <ele>1349.5</ele>
        <time>2026-07-15T06:41:07Z</time>
      </trkpt>
      <trkpt lat="42.90098" lon="-0.20552">
        <ele>1349.5</ele>
        <time>2026-07-15T06:41:07Z</time>
      </trkpt>
      <trkpt lat="42.90097" lon="-0.20552">
        <ele>1348.5</ele>
        <time>2026-07-15T06:41:08Z</time>
      </trkpt>
      <trkpt lat="42.90097" lon="-0.20552">
        <ele>1348.5</ele>
        <time>2026-07-15T06:41:09Z</time>
      </trkpt>
      <trkpt lat="42.90096" lon="-0.20552">
        <ele>1348.5</ele>
        <time>2026-07-15T06:41:10Z</time>
      </trkpt>
      <trkpt lat="42.90096" lon="-0.20552">
        <ele>1349.5</ele>
        <time>2026-07-15T06:41:10Z</time>
      </trkpt>
      <trkpt lat="42.90095" lon="-0.20552">
        <ele>1349.5</ele>
        <time>2026-07-15T06:41:11Z</time>
      </trkpt>
      <trkpt lat="42.90094" lon="-0.20551">
        <ele>1349.5</ele>
        <time>2026-07-15T06:41:12Z</time>
      </trkpt>
      <trkpt lat="42.90094" lon="-0.20551">
        <ele>1349.5</ele>
        <time>2026-07-15T06:41:13Z</time>
      </trkpt>
      <trkpt lat="42.90093" lon="-0.20551">
        <ele>1349.5</ele>
        <time>2026-07-15T06:41:13Z</time>
      </trkpt>
      <trkpt lat="42.90093" lon="-0.20551">
        <ele>1349.5</ele>
        <time>2026-07-15T06:41:14Z</time>
      </trkpt>
      <trkpt lat="42.90092" lon="-0.20552">
        <ele>1349.5</ele>
        <time>2026-07-15T06:41:15Z</time>
      </trkpt>
      <trkpt lat="42.90091" lon="-0.20552">
        <ele>1349.5</ele>
        <time>2026-07-15T06:41:16Z</time>
      </trkpt>
      <trkpt lat="42.90091" lon="-0.20552">
        <ele>1350.5</ele>
        <time>2026-07-15T06:41:17Z</time>
      </trkpt>
      <trkpt lat="42.9009" lon="-0.20553">
        <ele>1350.5</ele>
        <time>2026-07-15T06:41:18Z</time>
      </trkpt>
      <trkpt lat="42.90089" lon="-0.20553">
        <ele>1350.5</ele>
        <time>2026-07-15T06:41:18Z</time>
      </trkpt>
      <trkpt lat="42.90089" lon="-0.20553">
        <ele>1350.5</ele>
        <time>2026-07-15T06:41:19Z</time>
      </trkpt>
      <trkpt lat="42.90088" lon="-0.20552">
        <ele>1351.5</ele>
        <time>2026-07-15T06:41:20Z</time>
      </trkpt>
      <trkpt lat="42.90088" lon="-0.20551">
        <ele>1350.5</ele>
        <time>2026-07-15T06:41:21Z</time>
      </trkpt>
      <trkpt lat="42.90088" lon="-0.2055">
        <ele>1350.5</ele>
        <time>2026-07-15T06:41:21Z</time>
      </trkpt>
      <trkpt lat="42.90087" lon="-0.2055">
        <ele>1351.5</ele>
        <time>2026-07-15T06:41:22Z</time>
      </trkpt>
      <trkpt lat="42.90087" lon="-0.2055">
        <ele>1351.5</ele>
        <time>2026-07-15T06:41:23Z</time>
      </trkpt>
      <trkpt lat="42.90086" lon="-0.2055">
        <ele>1350.5</ele>
        <time>2026-07-15T06:41:24Z</time>
      </trkpt>
      <trkpt lat="42.90086" lon="-0.2055">
        <ele>1350.5</ele>
        <time>2026-07-15T06:41:25Z</time>
      </trkpt>
      <trkpt lat="42.90086" lon="-0.2055">
        <ele>1351.5</ele>
        <time>2026-07-15T06:41:25Z</time>
      </trkpt>
      <trkpt lat="42.90086" lon="-0.20551">
        <ele>1351.5</ele>
        <time>2026-07-15T06:41:26Z</time>
      </trkpt>
      <trkpt lat="42.90085" lon="-0.20551">
        <ele>1351.5</ele>
        <time>2026-07-15T06:41:27Z</time>
      </trkpt>
      <trkpt lat="42.90085" lon="-0.20551">
        <ele>1351.5</ele>
        <time>2026-07-15T06:41:28Z</time>
      </trkpt>
      <trkpt lat="42.90085" lon="-0.20551">
        <ele>1351.5</ele>
        <time>2026-07-15T06:41:28Z</time>
      </trkpt>
      <trkpt lat="42.90084" lon="-0.20551">
        <ele>1351.5</ele>
        <time>2026-07-15T06:41:29Z</time>
      </trkpt>
      <trkpt lat="42.90084" lon="-0.20551">
        <ele>1351.5</ele>
        <time>2026-07-15T06:41:30Z</time>
      </trkpt>
      <trkpt lat="42.90083" lon="-0.20551">
        <ele>1351.5</ele>
        <time>2026-07-15T06:41:31Z</time>
      </trkpt>
      <trkpt lat="42.90083" lon="-0.20551">
        <ele>1352.5</ele>
        <time>2026-07-15T06:41:31Z</time>
      </trkpt>
      <trkpt lat="42.90082" lon="-0.20551">
        <ele>1352.5</ele>
        <time>2026-07-15T06:41:32Z</time>
      </trkpt>
      <trkpt lat="42.90082" lon="-0.20551">
        <ele>1352.5</ele>
        <time>2026-07-15T06:41:33Z</time>
      </trkpt>
      <trkpt lat="42.90081" lon="-0.20551">
        <ele>1351.5</ele>
        <time>2026-07-15T06:41:34Z</time>
      </trkpt>
      <trkpt lat="42.90081" lon="-0.20551">
        <ele>1352.5</ele>
        <time>2026-07-15T06:41:35Z</time>
      </trkpt>
      <trkpt lat="42.9008" lon="-0.20551">
        <ele>1352.5</ele>
        <time>2026-07-15T06:41:35Z</time>
      </trkpt>
      <trkpt lat="42.9008" lon="-0.2055">
        <ele>1352.5</ele>
        <time>2026-07-15T06:41:36Z</time>
      </trkpt>
      <trkpt lat="42.90079" lon="-0.2055">
        <ele>1352.5</ele>
        <time>2026-07-15T06:41:37Z</time>
      </trkpt>
      <trkpt lat="42.90079" lon="-0.20549">
        <ele>1352.5</ele>
        <time>2026-07-15T06:41:37Z</time>
      </trkpt>
      <trkpt lat="42.90079" lon="-0.20549">
        <ele>1352.5</ele>
        <time>2026-07-15T06:41:38Z</time>
      </trkpt>
      <trkpt lat="42.90079" lon="-0.20548">
        <ele>1352.5</ele>
        <time>2026-07-15T06:41:39Z</time>
      </trkpt>
      <trkpt lat="42.90078" lon="-0.20547">
        <ele>1352.5</ele>
        <time>2026-07-15T06:41:40Z</time>
      </trkpt>
      <trkpt lat="42.90078" lon="-0.20546">
        <ele>1351.5</ele>
        <time>2026-07-15T06:41:41Z</time>
      </trkpt>
      <trkpt lat="42.90078" lon="-0.20546">
        <ele>1351.5</ele>
        <time>2026-07-15T06:41:41Z</time>
      </trkpt>
      <trkpt lat="42.90078" lon="-0.20545">
        <ele>1351.5</ele>
        <time>2026-07-15T06:41:42Z</time>
      </trkpt>
      <trkpt lat="42.90078" lon="-0.20545">
        <ele>1351.5</ele>
        <time>2026-07-15T06:41:43Z</time>
      </trkpt>
      <trkpt lat="42.90077" lon="-0.20544">
        <ele>1351.5</ele>
        <time>2026-07-15T06:41:44Z</time>
      </trkpt>
      <trkpt lat="42.90077" lon="-0.20543">
        <ele>1351.5</ele>
        <time>2026-07-15T06:41:45Z</time>
      </trkpt>
      <trkpt lat="42.90077" lon="-0.20542">
        <ele>1351.5</ele>
        <time>2026-07-15T06:41:46Z</time>
      </trkpt>
      <trkpt lat="42.90077" lon="-0.20542">
        <ele>1351.5</ele>
        <time>2026-07-15T06:41:47Z</time>
      </trkpt>
      <trkpt lat="42.90077" lon="-0.20541">
        <ele>1351.5</ele>
        <time>2026-07-15T06:41:48Z</time>
      </trkpt>
      <trkpt lat="42.90077" lon="-0.2054">
        <ele>1352.5</ele>
        <time>2026-07-15T06:41:49Z</time>
      </trkpt>
      <trkpt lat="42.90077" lon="-0.2054">
        <ele>1352.5</ele>
        <time>2026-07-15T06:41:49Z</time>
      </trkpt>
      <trkpt lat="42.90077" lon="-0.20539">
        <ele>1353.5</ele>
        <time>2026-07-15T06:41:50Z</time>
      </trkpt>
      <trkpt lat="42.90077" lon="-0.20538">
        <ele>1353.5</ele>
        <time>2026-07-15T06:41:51Z</time>
      </trkpt>
      <trkpt lat="42.90077" lon="-0.20537">
        <ele>1353.5</ele>
        <time>2026-07-15T06:41:52Z</time>
      </trkpt>
      <trkpt lat="42.90076" lon="-0.20537">
        <ele>1353.5</ele>
        <time>2026-07-15T06:41:53Z</time>
      </trkpt>
      <trkpt lat="42.90076" lon="-0.20537">
        <ele>1353.5</ele>
        <time>2026-07-15T06:41:54Z</time>
      </trkpt>
      <trkpt lat="42.90076" lon="-0.20537">
        <ele>1354.5</ele>
        <time>2026-07-15T06:41:54Z</time>
      </trkpt>
      <trkpt lat="42.90076" lon="-0.20536">
        <ele>1354.5</ele>
        <time>2026-07-15T06:41:55Z</time>
      </trkpt>
      <trkpt lat="42.90075" lon="-0.20536">
        <ele>1354.5</ele>
        <time>2026-07-15T06:41:56Z</time>
      </trkpt>
      <trkpt lat="42.90074" lon="-0.20536">
        <ele>1353.5</ele>
        <time>2026-07-15T06:41:57Z</time>
      </trkpt>
      <trkpt lat="42.90074" lon="-0.20537">
        <ele>1354.5</ele>
        <time>2026-07-15T06:41:57Z</time>
      </trkpt>
      <trkpt lat="42.90074" lon="-0.20537">
        <ele>1354.5</ele>
        <time>2026-07-15T06:41:58Z</time>
      </trkpt>
      <trkpt lat="42.90073" lon="-0.20538">
        <ele>1354.5</ele>
        <time>2026-07-15T06:41:59Z</time>
      </trkpt>
      <trkpt lat="42.90072" lon="-0.20538">
        <ele>1354.5</ele>
        <time>2026-07-15T06:42:00Z</time>
      </trkpt>
      <trkpt lat="42.90072" lon="-0.20538">
        <ele>1354.5</ele>
        <time>2026-07-15T06:42:01Z</time>
      </trkpt>
      <trkpt lat="42.90071" lon="-0.20539">
        <ele>1354.5</ele>
        <time>2026-07-15T06:42:02Z</time>
      </trkpt>
      <trkpt lat="42.90071" lon="-0.20539">
        <ele>1354.5</ele>
        <time>2026-07-15T06:42:02Z</time>
      </trkpt>
      <trkpt lat="42.90071" lon="-0.20539">
        <ele>1354.5</ele>
        <time>2026-07-15T06:42:03Z</time>
      </trkpt>
      <trkpt lat="42.9007" lon="-0.2054">
        <ele>1354.5</ele>
        <time>2026-07-15T06:42:04Z</time>
      </trkpt>
      <trkpt lat="42.90069" lon="-0.2054">
        <ele>1355.5</ele>
        <time>2026-07-15T06:42:05Z</time>
      </trkpt>
      <trkpt lat="42.90069" lon="-0.2054">
        <ele>1356.5</ele>
        <time>2026-07-15T06:42:05Z</time>
      </trkpt>
      <trkpt lat="42.90069" lon="-0.2054">
        <ele>1356.5</ele>
        <time>2026-07-15T06:42:06Z</time>
      </trkpt>
      <trkpt lat="42.90068" lon="-0.2054">
        <ele>1356.5</ele>
        <time>2026-07-15T06:42:07Z</time>
      </trkpt>
      <trkpt lat="42.90067" lon="-0.2054">
        <ele>1355.5</ele>
        <time>2026-07-15T06:42:08Z</time>
      </trkpt>
      <trkpt lat="42.90067" lon="-0.20541">
        <ele>1355.5</ele>
        <time>2026-07-15T06:42:09Z</time>
      </trkpt>
      <trkpt lat="42.90067" lon="-0.20541">
        <ele>1355.5</ele>
        <time>2026-07-15T06:42:09Z</time>
      </trkpt>
      <trkpt lat="42.90066" lon="-0.20541">
        <ele>1356.5</ele>
        <time>2026-07-15T06:42:10Z</time>
      </trkpt>
      <trkpt lat="42.90066" lon="-0.20542">
        <ele>1356.5</ele>
        <time>2026-07-15T06:42:11Z</time>
      </trkpt>
      <trkpt lat="42.90065" lon="-0.20542">
        <ele>1356.5</ele>
        <time>2026-07-15T06:42:12Z</time>
      </trkpt>
      <trkpt lat="42.90064" lon="-0.20542">
        <ele>1357.5</ele>
        <time>2026-07-15T06:42:13Z</time>
      </trkpt>
      <trkpt lat="42.90064" lon="-0.20542">
        <ele>1358.5</ele>
        <time>2026-07-15T06:42:14Z</time>
      </trkpt>
      <trkpt lat="42.90063" lon="-0.20542">
        <ele>1358.5</ele>
        <time>2026-07-15T06:42:15Z</time>
      </trkpt>
      <trkpt lat="42.90063" lon="-0.20542">
        <ele>1358.5</ele>
        <time>2026-07-15T06:42:16Z</time>
      </trkpt>
      <trkpt lat="42.90063" lon="-0.20543">
        <ele>1358.5</ele>
        <time>2026-07-15T06:42:17Z</time>
      </trkpt>
      <trkpt lat="42.90062" lon="-0.20543">
        <ele>1358.5</ele>
        <time>2026-07-15T06:42:18Z</time>
      </trkpt>
      <trkpt lat="42.90062" lon="-0.20543">
        <ele>1357.5</ele>
        <time>2026-07-15T06:42:18Z</time>
      </trkpt>
      <trkpt lat="42.90062" lon="-0.20544">
        <ele>1358.5</ele>
        <time>2026-07-15T06:42:19Z</time>
      </trkpt>
      <trkpt lat="42.90062" lon="-0.20545">
        <ele>1358.5</ele>
        <time>2026-07-15T06:42:20Z</time>
      </trkpt>
      <trkpt lat="42.90062" lon="-0.20545">
        <ele>1358.5</ele>
        <time>2026-07-15T06:42:21Z</time>
      </trkpt>
      <trkpt lat="42.90062" lon="-0.20546">
        <ele>1358.5</ele>
        <time>2026-07-15T06:42:22Z</time>
      </trkpt>
      <trkpt lat="42.90062" lon="-0.20547">
        <ele>1359.5</ele>
        <time>2026-07-15T06:42:23Z</time>
      </trkpt>
      <trkpt lat="42.90062" lon="-0.20548">
        <ele>1360.5</ele>
        <time>2026-07-15T06:42:23Z</time>
      </trkpt>
      <trkpt lat="42.90062" lon="-0.20549">
        <ele>1361.5</ele>
        <time>2026-07-15T06:42:24Z</time>
      </trkpt>
      <trkpt lat="42.90062" lon="-0.20549">
        <ele>1361.5</ele>
        <time>2026-07-15T06:42:25Z</time>
      </trkpt>
      <trkpt lat="42.90062" lon="-0.20549">
        <ele>1361.5</ele>
        <time>2026-07-15T06:42:25Z</time>
      </trkpt>
      <trkpt lat="42.90063" lon="-0.2055">
        <ele>1361.5</ele>
        <time>2026-07-15T06:42:26Z</time>
      </trkpt>
      <trkpt lat="42.90062" lon="-0.20551">
        <ele>1361.5</ele>
        <time>2026-07-15T06:42:27Z</time>
      </trkpt>
      <trkpt lat="42.90062" lon="-0.20552">
        <ele>1361.5</ele>
        <time>2026-07-15T06:42:28Z</time>
      </trkpt>
      <trkpt lat="42.90062" lon="-0.20553">
        <ele>1363.5</ele>
        <time>2026-07-15T06:42:29Z</time>
      </trkpt>
      <trkpt lat="42.90062" lon="-0.20553">
        <ele>1362.5</ele>
        <time>2026-07-15T06:42:30Z</time>
      </trkpt>
      <trkpt lat="42.90062" lon="-0.20554">
        <ele>1362.5</ele>
        <time>2026-07-15T06:42:30Z</time>
      </trkpt>
      <trkpt lat="42.90062" lon="-0.20554">
        <ele>1362.5</ele>
        <time>2026-07-15T06:42:31Z</time>
      </trkpt>
      <trkpt lat="42.90062" lon="-0.20555">
        <ele>1362.5</ele>
        <time>2026-07-15T06:42:32Z</time>
      </trkpt>
      <trkpt lat="42.90062" lon="-0.20556">
        <ele>1363.5</ele>
        <time>2026-07-15T06:42:33Z</time>
      </trkpt>
      <trkpt lat="42.90062" lon="-0.20556">
        <ele>1364.5</ele>
        <time>2026-07-15T06:42:34Z</time>
      </trkpt>
      <trkpt lat="42.90062" lon="-0.20557">
        <ele>1364.5</ele>
        <time>2026-07-15T06:42:35Z</time>
      </trkpt>
      <trkpt lat="42.90062" lon="-0.20558">
        <ele>1365.5</ele>
        <time>2026-07-15T06:42:36Z</time>
      </trkpt>
      <trkpt lat="42.90062" lon="-0.20558">
        <ele>1364.5</ele>
        <time>2026-07-15T06:42:37Z</time>
      </trkpt>
      <trkpt lat="42.90063" lon="-0.20558">
        <ele>1364.5</ele>
        <time>2026-07-15T06:42:37Z</time>
      </trkpt>
      <trkpt lat="42.90063" lon="-0.20558">
        <ele>1364.5</ele>
        <time>2026-07-15T06:42:38Z</time>
      </trkpt>
      <trkpt lat="42.90063" lon="-0.20559">
        <ele>1364.5</ele>
        <time>2026-07-15T06:42:39Z</time>
      </trkpt>
      <trkpt lat="42.90063" lon="-0.2056">
        <ele>1364.5</ele>
        <time>2026-07-15T06:42:40Z</time>
      </trkpt>
      <trkpt lat="42.90063" lon="-0.2056">
        <ele>1365.5</ele>
        <time>2026-07-15T06:42:40Z</time>
      </trkpt>
      <trkpt lat="42.90062" lon="-0.20561">
        <ele>1365.5</ele>
        <time>2026-07-15T06:42:41Z</time>
      </trkpt>
      <trkpt lat="42.90062" lon="-0.20561">
        <ele>1365.5</ele>
        <time>2026-07-15T06:42:42Z</time>
      </trkpt>
      <trkpt lat="42.90061" lon="-0.20562">
        <ele>1365.5</ele>
        <time>2026-07-15T06:42:43Z</time>
      </trkpt>
      <trkpt lat="42.9006" lon="-0.20562">
        <ele>1365.5</ele>
        <time>2026-07-15T06:42:44Z</time>
      </trkpt>
      <trkpt lat="42.9006" lon="-0.20561">
        <ele>1365.5</ele>
        <time>2026-07-15T06:42:45Z</time>
      </trkpt>
      <trkpt lat="42.90059" lon="-0.20561">
        <ele>1365.5</ele>
        <time>2026-07-15T06:42:45Z</time>
      </trkpt>
      <trkpt lat="42.90059" lon="-0.20561">
        <ele>1366.5</ele>
        <time>2026-07-15T06:42:46Z</time>
      </trkpt>
      <trkpt lat="42.90058" lon="-0.2056">
        <ele>1366.5</ele>
        <time>2026-07-15T06:42:47Z</time>
      </trkpt>
      <trkpt lat="42.90057" lon="-0.2056">
        <ele>1365.5</ele>
        <time>2026-07-15T06:42:48Z</time>
      </trkpt>
      <trkpt lat="42.90057" lon="-0.2056">
        <ele>1365.5</ele>
        <time>2026-07-15T06:42:49Z</time>
      </trkpt>
      <trkpt lat="42.90056" lon="-0.20559">
        <ele>1365.5</ele>
        <time>2026-07-15T06:42:50Z</time>
      </trkpt>
      <trkpt lat="42.90056" lon="-0.20558">
        <ele>1365.5</ele>
        <time>2026-07-15T06:42:50Z</time>
      </trkpt>
      <trkpt lat="42.90055" lon="-0.20558">
        <ele>1365.5</ele>
        <time>2026-07-15T06:42:51Z</time>
      </trkpt>
      <trkpt lat="42.90055" lon="-0.20557">
        <ele>1365.5</ele>
        <time>2026-07-15T06:42:52Z</time>
      </trkpt>
      <trkpt lat="42.90054" lon="-0.20557">
        <ele>1365.5</ele>
        <time>2026-07-15T06:42:53Z</time>
      </trkpt>
      <trkpt lat="42.90054" lon="-0.20556">
        <ele>1365.5</ele>
        <time>2026-07-15T06:42:54Z</time>
      </trkpt>
      <trkpt lat="42.90053" lon="-0.20556">
        <ele>1365.5</ele>
        <time>2026-07-15T06:42:55Z</time>
      </trkpt>
      <trkpt lat="42.90053" lon="-0.20556">
        <ele>1365.5</ele>
        <time>2026-07-15T06:42:55Z</time>
      </trkpt>
      <trkpt lat="42.90052" lon="-0.20555">
        <ele>1365.5</ele>
        <time>2026-07-15T06:42:56Z</time>
      </trkpt>
      <trkpt lat="42.90052" lon="-0.20554">
        <ele>1364.5</ele>
        <time>2026-07-15T06:42:57Z</time>
      </trkpt>
      <trkpt lat="42.90052" lon="-0.20553">
        <ele>1363.5</ele>
        <time>2026-07-15T06:42:58Z</time>
      </trkpt>
      <trkpt lat="42.90052" lon="-0.20552">
        <ele>1363.5</ele>
        <time>2026-07-15T06:42:59Z</time>
      </trkpt>
      <trkpt lat="42.90052" lon="-0.20551">
        <ele>1363.5</ele>
        <time>2026-07-15T06:43:00Z</time>
      </trkpt>
      <trkpt lat="42.90051" lon="-0.20551">
        <ele>1363.5</ele>
        <time>2026-07-15T06:43:01Z</time>
      </trkpt>
      <trkpt lat="42.90051" lon="-0.2055">
        <ele>1363.5</ele>
        <time>2026-07-15T06:43:02Z</time>
      </trkpt>
      <trkpt lat="42.9005" lon="-0.2055">
        <ele>1363.5</ele>
        <time>2026-07-15T06:43:03Z</time>
      </trkpt>
      <trkpt lat="42.9005" lon="-0.2055">
        <ele>1363.5</ele>
        <time>2026-07-15T06:43:03Z</time>
      </trkpt>
      <trkpt lat="42.9005" lon="-0.20549">
        <ele>1363.5</ele>
        <time>2026-07-15T06:43:04Z</time>
      </trkpt>
      <trkpt lat="42.90049" lon="-0.20549">
        <ele>1363.5</ele>
        <time>2026-07-15T06:43:05Z</time>
      </trkpt>
      <trkpt lat="42.90049" lon="-0.20548">
        <ele>1364.5</ele>
        <time>2026-07-15T06:43:06Z</time>
      </trkpt>
      <trkpt lat="42.90048" lon="-0.20547">
        <ele>1364.5</ele>
        <time>2026-07-15T06:43:07Z</time>
      </trkpt>
      <trkpt lat="42.90049" lon="-0.20546">
        <ele>1364.5</ele>
        <time>2026-07-15T06:43:07Z</time>
      </trkpt>
      <trkpt lat="42.90049" lon="-0.20546">
        <ele>1364.5</ele>
        <time>2026-07-15T06:43:08Z</time>
      </trkpt>
      <trkpt lat="42.90048" lon="-0.20545">
        <ele>1364.5</ele>
        <time>2026-07-15T06:43:09Z</time>
      </trkpt>
      <trkpt lat="42.90048" lon="-0.20544">
        <ele>1364.5</ele>
        <time>2026-07-15T06:43:10Z</time>
      </trkpt>
      <trkpt lat="42.90048" lon="-0.20543">
        <ele>1363.5</ele>
        <time>2026-07-15T06:43:11Z</time>
      </trkpt>
      <trkpt lat="42.90048" lon="-0.20543">
        <ele>1364.5</ele>
        <time>2026-07-15T06:43:12Z</time>
      </trkpt>
      <trkpt lat="42.90048" lon="-0.20542">
        <ele>1364.5</ele>
        <time>2026-07-15T06:43:12Z</time>
      </trkpt>
      <trkpt lat="42.90048" lon="-0.20542">
        <ele>1363.5</ele>
        <time>2026-07-15T06:43:13Z</time>
      </trkpt>
      <trkpt lat="42.90047" lon="-0.20541">
        <ele>1363.5</ele>
        <time>2026-07-15T06:43:14Z</time>
      </trkpt>
      <trkpt lat="42.90047" lon="-0.2054">
        <ele>1364.5</ele>
        <time>2026-07-15T06:43:15Z</time>
      </trkpt>
      <trkpt lat="42.90047" lon="-0.2054">
        <ele>1363.5</ele>
        <time>2026-07-15T06:43:16Z</time>
      </trkpt>
      <trkpt lat="42.90046" lon="-0.2054">
        <ele>1363.5</ele>
        <time>2026-07-15T06:43:16Z</time>
      </trkpt>
      <trkpt lat="42.90046" lon="-0.20539">
        <ele>1363.5</ele>
        <time>2026-07-15T06:43:17Z</time>
      </trkpt>
      <trkpt lat="42.90045" lon="-0.20539">
        <ele>1363.5</ele>
        <time>2026-07-15T06:43:18Z</time>
      </trkpt>
      <trkpt lat="42.90045" lon="-0.20538">
        <ele>1363.5</ele>
        <time>2026-07-15T06:43:19Z</time>
      </trkpt>
      <trkpt lat="42.90044" lon="-0.20537">
        <ele>1363.5</ele>
        <time>2026-07-15T06:43:20Z</time>
      </trkpt>
      <trkpt lat="42.90044" lon="-0.20537">
        <ele>1363.5</ele>
        <time>2026-07-15T06:43:21Z</time>
      </trkpt>
      <trkpt lat="42.90043" lon="-0.20537">
        <ele>1363.5</ele>
        <time>2026-07-15T06:43:21Z</time>
      </trkpt>
      <trkpt lat="42.90042" lon="-0.20536">
        <ele>1363.5</ele>
        <time>2026-07-15T06:43:22Z</time>
      </trkpt>
      <trkpt lat="42.90042" lon="-0.20536">
        <ele>1363.5</ele>
        <time>2026-07-15T06:43:23Z</time>
      </trkpt>
      <trkpt lat="42.90041" lon="-0.20536">
        <ele>1363.5</ele>
        <time>2026-07-15T06:43:24Z</time>
      </trkpt>
      <trkpt lat="42.90041" lon="-0.20536">
        <ele>1365.5</ele>
        <time>2026-07-15T06:43:24Z</time>
      </trkpt>
      <trkpt lat="42.90041" lon="-0.20536">
        <ele>1365.5</ele>
        <time>2026-07-15T06:43:25Z</time>
      </trkpt>
      <trkpt lat="42.90042" lon="-0.20536">
        <ele>1365.5</ele>
        <time>2026-07-15T06:43:26Z</time>
      </trkpt>
      <trkpt lat="42.90042" lon="-0.20536">
        <ele>1365.5</ele>
        <time>2026-07-15T06:43:27Z</time>
      </trkpt>
      <trkpt lat="42.90042" lon="-0.20536">
        <ele>1365.5</ele>
        <time>2026-07-15T06:43:28Z</time>
      </trkpt>
      <trkpt lat="42.90042" lon="-0.20535">
        <ele>1365.5</ele>
        <time>2026-07-15T06:43:29Z</time>
      </trkpt>
      <trkpt lat="42.90042" lon="-0.20534">
        <ele>1366.5</ele>
        <time>2026-07-15T06:43:29Z</time>
      </trkpt>
      <trkpt lat="42.90043" lon="-0.20534">
        <ele>1366.5</ele>
        <time>2026-07-15T06:43:30Z</time>
      </trkpt>
      <trkpt lat="42.90044" lon="-0.20533">
        <ele>1367.5</ele>
        <time>2026-07-15T06:43:31Z</time>
      </trkpt>
      <trkpt lat="42.90044" lon="-0.20532">
        <ele>1367.5</ele>
        <time>2026-07-15T06:43:32Z</time>
      </trkpt>
      <trkpt lat="42.90045" lon="-0.20531">
        <ele>1367.5</ele>
        <time>2026-07-15T06:43:33Z</time>
      </trkpt>
      <trkpt lat="42.90046" lon="-0.2053">
        <ele>1367.5</ele>
        <time>2026-07-15T06:43:34Z</time>
      </trkpt>
      <trkpt lat="42.90046" lon="-0.2053">
        <ele>1367.5</ele>
        <time>2026-07-15T06:43:34Z</time>
      </trkpt>
      <trkpt lat="42.90046" lon="-0.20529">
        <ele>1366.5</ele>
        <time>2026-07-15T06:43:35Z</time>
      </trkpt>
      <trkpt lat="42.90046" lon="-0.20529">
        <ele>1366.5</ele>
        <time>2026-07-15T06:43:36Z</time>
      </trkpt>
      <trkpt lat="42.90045" lon="-0.20528">
        <ele>1366.5</ele>
        <time>2026-07-15T06:43:37Z</time>
      </trkpt>
      <trkpt lat="42.90045" lon="-0.20528">
        <ele>1366.5</ele>
        <time>2026-07-15T06:43:38Z</time>
      </trkpt>
      <trkpt lat="42.90045" lon="-0.20527">
        <ele>1366.5</ele>
        <time>2026-07-15T06:43:39Z</time>
      </trkpt>
      <trkpt lat="42.90045" lon="-0.20527">
        <ele>1366.5</ele>
        <time>2026-07-15T06:43:39Z</time>
      </trkpt>
      <trkpt lat="42.90044" lon="-0.20526">
        <ele>1366.5</ele>
        <time>2026-07-15T06:43:40Z</time>
      </trkpt>
      <trkpt lat="42.90044" lon="-0.20525">
        <ele>1366.5</ele>
        <time>2026-07-15T06:43:41Z</time>
      </trkpt>
      <trkpt lat="42.90043" lon="-0.20525">
        <ele>1366.5</ele>
        <time>2026-07-15T06:43:42Z</time>
      </trkpt>
      <trkpt lat="42.90043" lon="-0.20524">
        <ele>1366.5</ele>
        <time>2026-07-15T06:43:43Z</time>
      </trkpt>
      <trkpt lat="42.90042" lon="-0.20524">
        <ele>1367.5</ele>
        <time>2026-07-15T06:43:43Z</time>
      </trkpt>
      <trkpt lat="42.90042" lon="-0.20524">
        <ele>1367.5</ele>
        <time>2026-07-15T06:43:44Z</time>
      </trkpt>
      <trkpt lat="42.90042" lon="-0.20523">
        <ele>1367.5</ele>
        <time>2026-07-15T06:43:45Z</time>
      </trkpt>
      <trkpt lat="42.90041" lon="-0.20522">
        <ele>1367.5</ele>
        <time>2026-07-15T06:43:46Z</time>
      </trkpt>
      <trkpt lat="42.9004" lon="-0.20522">
        <ele>1367.5</ele>
        <time>2026-07-15T06:43:47Z</time>
      </trkpt>
      <trkpt lat="42.9004" lon="-0.20522">
        <ele>1367.5</ele>
        <time>2026-07-15T06:43:48Z</time>
      </trkpt>
      <trkpt lat="42.90039" lon="-0.20522">
        <ele>1366.5</ele>
        <time>2026-07-15T06:43:48Z</time>
      </trkpt>
      <trkpt lat="42.90039" lon="-0.20521">
        <ele>1367.5</ele>
        <time>2026-07-15T06:43:49Z</time>
      </trkpt>
      <trkpt lat="42.9004" lon="-0.20521">
        <ele>1367.5</ele>
        <time>2026-07-15T06:43:50Z</time>
      </trkpt>
      <trkpt lat="42.9004" lon="-0.2052">
        <ele>1367.5</ele>
        <time>2026-07-15T06:43:51Z</time>
      </trkpt>
      <trkpt lat="42.9004" lon="-0.2052">
        <ele>1368.5</ele>
        <time>2026-07-15T06:43:51Z</time>
      </trkpt>
      <trkpt lat="42.90041" lon="-0.20519">
        <ele>1369.5</ele>
        <time>2026-07-15T06:43:52Z</time>
      </trkpt>
      <trkpt lat="42.90041" lon="-0.20519">
        <ele>1369.5</ele>
        <time>2026-07-15T06:43:53Z</time>
      </trkpt>
      <trkpt lat="42.90041" lon="-0.20518">
        <ele>1369.5</ele>
        <time>2026-07-15T06:43:54Z</time>
      </trkpt>
      <trkpt lat="42.90042" lon="-0.20518">
        <ele>1369.5</ele>
        <time>2026-07-15T06:43:54Z</time>
      </trkpt>
      <trkpt lat="42.90042" lon="-0.20517">
        <ele>1369.5</ele>
        <time>2026-07-15T06:43:55Z</time>
      </trkpt>
      <trkpt lat="42.90042" lon="-0.20516">
        <ele>1369.5</ele>
        <time>2026-07-15T06:43:56Z</time>
      </trkpt>
      <trkpt lat="42.90042" lon="-0.20515">
        <ele>1369.5</ele>
        <time>2026-07-15T06:43:57Z</time>
      </trkpt>
      <trkpt lat="42.90042" lon="-0.20515">
        <ele>1368.5</ele>
        <time>2026-07-15T06:43:57Z</time>
      </trkpt>
      <trkpt lat="42.90042" lon="-0.20514">
        <ele>1368.5</ele>
        <time>2026-07-15T06:43:58Z</time>
      </trkpt>
      <trkpt lat="42.90043" lon="-0.20514">
        <ele>1368.5</ele>
        <time>2026-07-15T06:43:59Z</time>
      </trkpt>
      <trkpt lat="42.90043" lon="-0.20513">
        <ele>1369.5</ele>
        <time>2026-07-15T06:44:00Z</time>
      </trkpt>
      <trkpt lat="42.90044" lon="-0.20513">
        <ele>1369.5</ele>
        <time>2026-07-15T06:44:01Z</time>
      </trkpt>
      <trkpt lat="42.90044" lon="-0.20512">
        <ele>1369.5</ele>
        <time>2026-07-15T06:44:01Z</time>
      </trkpt>
      <trkpt lat="42.90044" lon="-0.20511">
        <ele>1369.5</ele>
        <time>2026-07-15T06:44:02Z</time>
      </trkpt>
      <trkpt lat="42.90044" lon="-0.20511">
        <ele>1369.5</ele>
        <time>2026-07-15T06:44:03Z</time>
      </trkpt>
      <trkpt lat="42.90044" lon="-0.2051">
        <ele>1369.5</ele>
        <time>2026-07-15T06:44:04Z</time>
      </trkpt>
      <trkpt lat="42.90044" lon="-0.2051">
        <ele>1369.5</ele>
        <time>2026-07-15T06:44:05Z</time>
      </trkpt>
      <trkpt lat="42.90044" lon="-0.2051">
        <ele>1369.5</ele>
        <time>2026-07-15T06:44:05Z</time>
      </trkpt>
      <trkpt lat="42.90044" lon="-0.20509">
        <ele>1369.5</ele>
        <time>2026-07-15T06:44:06Z</time>
      </trkpt>
      <trkpt lat="42.90043" lon="-0.20509">
        <ele>1369.5</ele>
        <time>2026-07-15T06:44:07Z</time>
      </trkpt>
      <trkpt lat="42.90043" lon="-0.20509">
        <ele>1370.5</ele>
        <time>2026-07-15T06:44:08Z</time>
      </trkpt>
      <trkpt lat="42.90042" lon="-0.20509">
        <ele>1370.5</ele>
        <time>2026-07-15T06:44:08Z</time>
      </trkpt>
      <trkpt lat="42.90042" lon="-0.20509">
        <ele>1369.5</ele>
        <time>2026-07-15T06:44:09Z</time>
      </trkpt>
      <trkpt lat="42.90041" lon="-0.20509">
        <ele>1369.5</ele>
        <time>2026-07-15T06:44:10Z</time>
      </trkpt>
      <trkpt lat="42.9004" lon="-0.2051">
        <ele>1369.5</ele>
        <time>2026-07-15T06:44:11Z</time>
      </trkpt>
      <trkpt lat="42.90039" lon="-0.2051">
        <ele>1369.5</ele>
        <time>2026-07-15T06:44:12Z</time>
      </trkpt>
      <trkpt lat="42.90039" lon="-0.2051">
        <ele>1369.5</ele>
        <time>2026-07-15T06:44:12Z</time>
      </trkpt>
      <trkpt lat="42.90038" lon="-0.2051">
        <ele>1369.5</ele>
        <time>2026-07-15T06:44:13Z</time>
      </trkpt>
      <trkpt lat="42.90037" lon="-0.20511">
        <ele>1369.5</ele>
        <time>2026-07-15T06:44:14Z</time>
      </trkpt>
      <trkpt lat="42.90037" lon="-0.20511">
        <ele>1369.5</ele>
        <time>2026-07-15T06:44:15Z</time>
      </trkpt>
      <trkpt lat="42.90036" lon="-0.20511">
        <ele>1369.5</ele>
        <time>2026-07-15T06:44:15Z</time>
      </trkpt>
      <trkpt lat="42.90035" lon="-0.20512">
        <ele>1370.5</ele>
        <time>2026-07-15T06:44:16Z</time>
      </trkpt>
      <trkpt lat="42.90034" lon="-0.20513">
        <ele>1370.5</ele>
        <time>2026-07-15T06:44:17Z</time>
      </trkpt>
      <trkpt lat="42.90034" lon="-0.20513">
        <ele>1370.5</ele>
        <time>2026-07-15T06:44:18Z</time>
      </trkpt>
      <trkpt lat="42.90033" lon="-0.20513">
        <ele>1369.5</ele>
        <time>2026-07-15T06:44:18Z</time>
      </trkpt>
      <trkpt lat="42.90033" lon="-0.20513">
        <ele>1369.5</ele>
        <time>2026-07-15T06:44:19Z</time>
      </trkpt>
      <trkpt lat="42.90032" lon="-0.20512">
        <ele>1369.5</ele>
        <time>2026-07-15T06:44:20Z</time>
      </trkpt>
      <trkpt lat="42.90032" lon="-0.20512">
        <ele>1369.5</ele>
        <time>2026-07-15T06:44:21Z</time>
      </trkpt>
      <trkpt lat="42.90032" lon="-0.20512">
        <ele>1369.5</ele>
        <time>2026-07-15T06:44:21Z</time>
      </trkpt>
      <trkpt lat="42.90031" lon="-0.20512">
        <ele>1369.5</ele>
        <time>2026-07-15T06:44:22Z</time>
      </trkpt>
      <trkpt lat="42.90031" lon="-0.20511">
        <ele>1369.5</ele>
        <time>2026-07-15T06:44:23Z</time>
      </trkpt>
      <trkpt lat="42.90031" lon="-0.20511">
        <ele>1369.5</ele>
        <time>2026-07-15T06:44:24Z</time>
      </trkpt>
      <trkpt lat="42.90031" lon="-0.2051">
        <ele>1369.5</ele>
        <time>2026-07-15T06:44:24Z</time>
      </trkpt>
      <trkpt lat="42.9003" lon="-0.2051">
        <ele>1369.5</ele>
        <time>2026-07-15T06:44:25Z</time>
      </trkpt>
      <trkpt lat="42.9003" lon="-0.20509">
        <ele>1369.5</ele>
        <time>2026-07-15T06:44:26Z</time>
      </trkpt>
      <trkpt lat="42.90029" lon="-0.20509">
        <ele>1368.5</ele>
        <time>2026-07-15T06:44:27Z</time>
      </trkpt>
      <trkpt lat="42.90029" lon="-0.20508">
        <ele>1367.5</ele>
        <time>2026-07-15T06:44:28Z</time>
      </trkpt>
      <trkpt lat="42.90029" lon="-0.20508">
        <ele>1367.5</ele>
        <time>2026-07-15T06:44:28Z</time>
      </trkpt>
      <trkpt lat="42.90029" lon="-0.20507">
        <ele>1367.5</ele>
        <time>2026-07-15T06:44:29Z</time>
      </trkpt>
      <trkpt lat="42.90029" lon="-0.20506">
        <ele>1367.5</ele>
        <time>2026-07-15T06:44:30Z</time>
      </trkpt>
      <trkpt lat="42.90029" lon="-0.20506">
        <ele>1368.5</ele>
        <time>2026-07-15T06:44:30Z</time>
      </trkpt>
      <trkpt lat="42.90029" lon="-0.20505">
        <ele>1368.5</ele>
        <time>2026-07-15T06:44:31Z</time>
      </trkpt>
      <trkpt lat="42.90028" lon="-0.20504">
        <ele>1368.5</ele>
        <time>2026-07-15T06:44:32Z</time>
      </trkpt>
      <trkpt lat="42.90028" lon="-0.20504">
        <ele>1368.5</ele>
        <time>2026-07-15T06:44:33Z</time>
      </trkpt>
      <trkpt lat="42.90027" lon="-0.20504">
        <ele>1368.5</ele>
        <time>2026-07-15T06:44:34Z</time>
      </trkpt>
      <trkpt lat="42.90027" lon="-0.20504">
        <ele>1368.5</ele>
        <time>2026-07-15T06:44:34Z</time>
      </trkpt>
      <trkpt lat="42.90026" lon="-0.20504">
        <ele>1368.5</ele>
        <time>2026-07-15T06:44:35Z</time>
      </trkpt>
      <trkpt lat="42.90026" lon="-0.20504">
        <ele>1368.5</ele>
        <time>2026-07-15T06:44:36Z</time>
      </trkpt>
      <trkpt lat="42.90025" lon="-0.20504">
        <ele>1369.5</ele>
        <time>2026-07-15T06:44:37Z</time>
      </trkpt>
      <trkpt lat="42.90025" lon="-0.20503">
        <ele>1369.5</ele>
        <time>2026-07-15T06:44:37Z</time>
      </trkpt>
      <trkpt lat="42.90025" lon="-0.20503">
        <ele>1369.5</ele>
        <time>2026-07-15T06:44:38Z</time>
      </trkpt>
      <trkpt lat="42.90024" lon="-0.20503">
        <ele>1369.5</ele>
        <time>2026-07-15T06:44:39Z</time>
      </trkpt>
      <trkpt lat="42.90024" lon="-0.20503">
        <ele>1368.5</ele>
        <time>2026-07-15T06:44:40Z</time>
      </trkpt>
      <trkpt lat="42.90024" lon="-0.20503">
        <ele>1369.5</ele>
        <time>2026-07-15T06:44:40Z</time>
      </trkpt>
      <trkpt lat="42.90023" lon="-0.20503">
        <ele>1369.5</ele>
        <time>2026-07-15T06:44:41Z</time>
      </trkpt>
      <trkpt lat="42.90023" lon="-0.20503">
        <ele>1369.5</ele>
        <time>2026-07-15T06:44:42Z</time>
      </trkpt>
      <trkpt lat="42.90022" lon="-0.20503">
        <ele>1370.5</ele>
        <time>2026-07-15T06:44:43Z</time>
      </trkpt>
      <trkpt lat="42.90022" lon="-0.20503">
        <ele>1370.5</ele>
        <time>2026-07-15T06:44:44Z</time>
      </trkpt>
      <trkpt lat="42.90022" lon="-0.20503">
        <ele>1370.5</ele>
        <time>2026-07-15T06:44:44Z</time>
      </trkpt>
      <trkpt lat="42.90021" lon="-0.20502">
        <ele>1370.5</ele>
        <time>2026-07-15T06:44:45Z</time>
      </trkpt>
      <trkpt lat="42.90021" lon="-0.20502">
        <ele>1371.5</ele>
        <time>2026-07-15T06:44:46Z</time>
      </trkpt>
      <trkpt lat="42.90021" lon="-0.20502">
        <ele>1371.5</ele>
        <time>2026-07-15T06:44:47Z</time>
      </trkpt>
      <trkpt lat="42.9002" lon="-0.20502">
        <ele>1371.5</ele>
        <time>2026-07-15T06:44:47Z</time>
      </trkpt>
      <trkpt lat="42.9002" lon="-0.20501">
        <ele>1371.5</ele>
        <time>2026-07-15T06:44:48Z</time>
      </trkpt>
      <trkpt lat="42.9002" lon="-0.20501">
        <ele>1371.5</ele>
        <time>2026-07-15T06:44:49Z</time>
      </trkpt>
      <trkpt lat="42.9002" lon="-0.20501">
        <ele>1371.5</ele>
        <time>2026-07-15T06:44:49Z</time>
      </trkpt>
      <trkpt lat="42.9002" lon="-0.20501">
        <ele>1371.5</ele>
        <time>2026-07-15T06:44:50Z</time>
      </trkpt>
      <trkpt lat="42.90019" lon="-0.205">
        <ele>1371.5</ele>
        <time>2026-07-15T06:44:51Z</time>
      </trkpt>
      <trkpt lat="42.90019" lon="-0.205">
        <ele>1371.5</ele>
        <time>2026-07-15T06:44:52Z</time>
      </trkpt>
      <trkpt lat="42.90018" lon="-0.205">
        <ele>1371.5</ele>
        <time>2026-07-15T06:44:52Z</time>
      </trkpt>
      <trkpt lat="42.90018" lon="-0.205">
        <ele>1371.5</ele>
        <time>2026-07-15T06:44:53Z</time>
      </trkpt>
      <trkpt lat="42.90017" lon="-0.205">
        <ele>1371.5</ele>
        <time>2026-07-15T06:44:54Z</time>
      </trkpt>
      <trkpt lat="42.90017" lon="-0.205">
        <ele>1372.5</ele>
        <time>2026-07-15T06:44:55Z</time>
      </trkpt>
      <trkpt lat="42.90016" lon="-0.205">
        <ele>1373.5</ele>
        <time>2026-07-15T06:44:56Z</time>
      </trkpt>
      <trkpt lat="42.90016" lon="-0.20499">
        <ele>1372.5</ele>
        <time>2026-07-15T06:44:57Z</time>
      </trkpt>
      <trkpt lat="42.90016" lon="-0.20499">
        <ele>1372.5</ele>
        <time>2026-07-15T06:44:57Z</time>
      </trkpt>
      <trkpt lat="42.90015" lon="-0.20498">
        <ele>1372.5</ele>
        <time>2026-07-15T06:44:58Z</time>
      </trkpt>
      <trkpt lat="42.90015" lon="-0.20497">
        <ele>1373.5</ele>
        <time>2026-07-15T06:44:59Z</time>
      </trkpt>
      <trkpt lat="42.90015" lon="-0.20497">
        <ele>1374.5</ele>
        <time>2026-07-15T06:44:59Z</time>
      </trkpt>
      <trkpt lat="42.90014" lon="-0.20497">
        <ele>1375.5</ele>
        <time>2026-07-15T06:45:00Z</time>
      </trkpt>
      <trkpt lat="42.90014" lon="-0.20497">
        <ele>1375.5</ele>
        <time>2026-07-15T06:45:01Z</time>
      </trkpt>
      <trkpt lat="42.90013" lon="-0.20496">
        <ele>1375.5</ele>
        <time>2026-07-15T06:45:02Z</time>
      </trkpt>
      <trkpt lat="42.90013" lon="-0.20495">
        <ele>1375.5</ele>
        <time>2026-07-15T06:45:03Z</time>
      </trkpt>
      <trkpt lat="42.90013" lon="-0.20495">
        <ele>1375.5</ele>
        <time>2026-07-15T06:45:04Z</time>
      </trkpt>
      <trkpt lat="42.90012" lon="-0.20494">
        <ele>1375.5</ele>
        <time>2026-07-15T06:45:04Z</time>
      </trkpt>
      <trkpt lat="42.90012" lon="-0.20493">
        <ele>1376.5</ele>
        <time>2026-07-15T06:45:05Z</time>
      </trkpt>
      <trkpt lat="42.90012" lon="-0.20492">
        <ele>1376.5</ele>
        <time>2026-07-15T06:45:06Z</time>
      </trkpt>
      <trkpt lat="42.90012" lon="-0.20491">
        <ele>1376.5</ele>
        <time>2026-07-15T06:45:07Z</time>
      </trkpt>
      <trkpt lat="42.90012" lon="-0.20491">
        <ele>1376.5</ele>
        <time>2026-07-15T06:45:08Z</time>
      </trkpt>
      <trkpt lat="42.90012" lon="-0.2049">
        <ele>1377.5</ele>
        <time>2026-07-15T06:45:08Z</time>
      </trkpt>
      <trkpt lat="42.90012" lon="-0.20489">
        <ele>1377.5</ele>
        <time>2026-07-15T06:45:09Z</time>
      </trkpt>
      <trkpt lat="42.90012" lon="-0.20489">
        <ele>1378.5</ele>
        <time>2026-07-15T06:45:10Z</time>
      </trkpt>
      <trkpt lat="42.90012" lon="-0.20488">
        <ele>1378.5</ele>
        <time>2026-07-15T06:45:11Z</time>
      </trkpt>
      <trkpt lat="42.90011" lon="-0.20487">
        <ele>1378.5</ele>
        <time>2026-07-15T06:45:12Z</time>
      </trkpt>
      <trkpt lat="42.90011" lon="-0.20487">
        <ele>1379.5</ele>
        <time>2026-07-15T06:45:12Z</time>
      </trkpt>
      <trkpt lat="42.90011" lon="-0.20486">
        <ele>1379.5</ele>
        <time>2026-07-15T06:45:13Z</time>
      </trkpt>
      <trkpt lat="42.90011" lon="-0.20486">
        <ele>1379.5</ele>
        <time>2026-07-15T06:45:14Z</time>
      </trkpt>
      <trkpt lat="42.90011" lon="-0.20485">
        <ele>1379.5</ele>
        <time>2026-07-15T06:45:14Z</time>
      </trkpt>
      <trkpt lat="42.90011" lon="-0.20485">
        <ele>1379.5</ele>
        <time>2026-07-15T06:45:15Z</time>
      </trkpt>
      <trkpt lat="42.90011" lon="-0.20484">
        <ele>1379.5</ele>
        <time>2026-07-15T06:45:16Z</time>
      </trkpt>
      <trkpt lat="42.90011" lon="-0.20483">
        <ele>1379.5</ele>
        <time>2026-07-15T06:45:17Z</time>
      </trkpt>
      <trkpt lat="42.90011" lon="-0.20482">
        <ele>1379.5</ele>
        <time>2026-07-15T06:45:17Z</time>
      </trkpt>
      <trkpt lat="42.90011" lon="-0.20482">
        <ele>1380.5</ele>
        <time>2026-07-15T06:45:18Z</time>
      </trkpt>
      <trkpt lat="42.9001" lon="-0.20481">
        <ele>1380.5</ele>
        <time>2026-07-15T06:45:19Z</time>
      </trkpt>
      <trkpt lat="42.9001" lon="-0.20481">
        <ele>1380.5</ele>
        <time>2026-07-15T06:45:20Z</time>
      </trkpt>
      <trkpt lat="42.90009" lon="-0.20481">
        <ele>1380.5</ele>
        <time>2026-07-15T06:45:21Z</time>
      </trkpt>
      <trkpt lat="42.90008" lon="-0.20481">
        <ele>1380.5</ele>
        <time>2026-07-15T06:45:22Z</time>
      </trkpt>
      <trkpt lat="42.90008" lon="-0.20481">
        <ele>1380.5</ele>
        <time>2026-07-15T06:45:23Z</time>
      </trkpt>
      <trkpt lat="42.90007" lon="-0.20481">
        <ele>1381.5</ele>
        <time>2026-07-15T06:45:24Z</time>
      </trkpt>
      <trkpt lat="42.90007" lon="-0.20481">
        <ele>1382.5</ele>
        <time>2026-07-15T06:45:24Z</time>
      </trkpt>
      <trkpt lat="42.90007" lon="-0.2048">
        <ele>1383.5</ele>
        <time>2026-07-15T06:45:25Z</time>
      </trkpt>
      <trkpt lat="42.90007" lon="-0.2048">
        <ele>1383.5</ele>
        <time>2026-07-15T06:45:26Z</time>
      </trkpt>
      <trkpt lat="42.90006" lon="-0.20479">
        <ele>1384.5</ele>
        <time>2026-07-15T06:45:27Z</time>
      </trkpt>
      <trkpt lat="42.90006" lon="-0.2048">
        <ele>1384.5</ele>
        <time>2026-07-15T06:45:28Z</time>
      </trkpt>
      <trkpt lat="42.90006" lon="-0.2048">
        <ele>1384.5</ele>
        <time>2026-07-15T06:45:28Z</time>
      </trkpt>
      <trkpt lat="42.90006" lon="-0.2048">
        <ele>1384.5</ele>
        <time>2026-07-15T06:45:29Z</time>
      </trkpt>
      <trkpt lat="42.90006" lon="-0.20481">
        <ele>1384.5</ele>
        <time>2026-07-15T06:45:30Z</time>
      </trkpt>
      <trkpt lat="42.90006" lon="-0.20481">
        <ele>1385.5</ele>
        <time>2026-07-15T06:45:31Z</time>
      </trkpt>
      <trkpt lat="42.90006" lon="-0.20481">
        <ele>1385.5</ele>
        <time>2026-07-15T06:45:31Z</time>
      </trkpt>
      <trkpt lat="42.90005" lon="-0.20481">
        <ele>1385.5</ele>
        <time>2026-07-15T06:45:32Z</time>
      </trkpt>
      <trkpt lat="42.90005" lon="-0.20482">
        <ele>1385.5</ele>
        <time>2026-07-15T06:45:33Z</time>
      </trkpt>
      <trkpt lat="42.90004" lon="-0.20482">
        <ele>1385.5</ele>
        <time>2026-07-15T06:45:34Z</time>
      </trkpt>
      <trkpt lat="42.90004" lon="-0.20482">
        <ele>1385.5</ele>
        <time>2026-07-15T06:45:34Z</time>
      </trkpt>
      <trkpt lat="42.90003" lon="-0.20482">
        <ele>1385.5</ele>
        <time>2026-07-15T06:45:35Z</time>
      </trkpt>
      <trkpt lat="42.90002" lon="-0.20483">
        <ele>1385.5</ele>
        <time>2026-07-15T06:45:36Z</time>
      </trkpt>
      <trkpt lat="42.90002" lon="-0.20483">
        <ele>1385.5</ele>
        <time>2026-07-15T06:45:36Z</time>
      </trkpt>
      <trkpt lat="42.90001" lon="-0.20483">
        <ele>1387.5</ele>
        <time>2026-07-15T06:45:37Z</time>
      </trkpt>
      <trkpt lat="42.90001" lon="-0.20484">
        <ele>1387.5</ele>
        <time>2026-07-15T06:45:38Z</time>
      </trkpt>
      <trkpt lat="42.90001" lon="-0.20484">
        <ele>1388.5</ele>
        <time>2026-07-15T06:45:39Z</time>
      </trkpt>
      <trkpt lat="42.90001" lon="-0.20485">
        <ele>1388.5</ele>
        <time>2026-07-15T06:45:39Z</time>
      </trkpt>
      <trkpt lat="42.9" lon="-0.20485">
        <ele>1388.5</ele>
        <time>2026-07-15T06:45:40Z</time>
      </trkpt>
      <trkpt lat="42.9" lon="-0.20485">
        <ele>1389.5</ele>
        <time>2026-07-15T06:45:41Z</time>
      </trkpt>
      <trkpt lat="42.89999" lon="-0.20485">
        <ele>1389.5</ele>
        <time>2026-07-15T06:45:42Z</time>
      </trkpt>
      <trkpt lat="42.89999" lon="-0.20484">
        <ele>1390.5</ele>
        <time>2026-07-15T06:45:42Z</time>
      </trkpt>
      <trkpt lat="42.89998" lon="-0.20484">
        <ele>1391.5</ele>
        <time>2026-07-15T06:45:43Z</time>
      </trkpt>
      <trkpt lat="42.89998" lon="-0.20484">
        <ele>1391.5</ele>
        <time>2026-07-15T06:45:44Z</time>
      </trkpt>
      <trkpt lat="42.89998" lon="-0.20485">
        <ele>1392.5</ele>
        <time>2026-07-15T06:45:45Z</time>
      </trkpt>
      <trkpt lat="42.89997" lon="-0.20485">
        <ele>1392.5</ele>
        <time>2026-07-15T06:45:45Z</time>
      </trkpt>
      <trkpt lat="42.89997" lon="-0.20486">
        <ele>1392.5</ele>
        <time>2026-07-15T06:45:46Z</time>
      </trkpt>
      <trkpt lat="42.89997" lon="-0.20486">
        <ele>1392.5</ele>
        <time>2026-07-15T06:45:47Z</time>
      </trkpt>
      <trkpt lat="42.89996" lon="-0.20486">
        <ele>1392.5</ele>
        <time>2026-07-15T06:45:47Z</time>
      </trkpt>
      <trkpt lat="42.89996" lon="-0.20486">
        <ele>1393.5</ele>
        <time>2026-07-15T06:45:48Z</time>
      </trkpt>
      <trkpt lat="42.89995" lon="-0.20486">
        <ele>1393.5</ele>
        <time>2026-07-15T06:45:49Z</time>
      </trkpt>
      <trkpt lat="42.89995" lon="-0.20486">
        <ele>1393.5</ele>
        <time>2026-07-15T06:45:50Z</time>
      </trkpt>
      <trkpt lat="42.89995" lon="-0.20486">
        <ele>1393.5</ele>
        <time>2026-07-15T06:45:50Z</time>
      </trkpt>
      <trkpt lat="42.89994" lon="-0.20486">
        <ele>1393.5</ele>
        <time>2026-07-15T06:45:51Z</time>
      </trkpt>
      <trkpt lat="42.89994" lon="-0.20487">
        <ele>1393.5</ele>
        <time>2026-07-15T06:45:52Z</time>
      </trkpt>
      <trkpt lat="42.89994" lon="-0.20487">
        <ele>1394.5</ele>
        <time>2026-07-15T06:45:53Z</time>
      </trkpt>
      <trkpt lat="42.89993" lon="-0.20489">
        <ele>1394.5</ele>
        <time>2026-07-15T06:45:54Z</time>
      </trkpt>
      <trkpt lat="42.89993" lon="-0.20489">
        <ele>1395.5</ele>
        <time>2026-07-15T06:45:55Z</time>
      </trkpt>
      <trkpt lat="42.89993" lon="-0.2049">
        <ele>1395.5</ele>
        <time>2026-07-15T06:45:55Z</time>
      </trkpt>
      <trkpt lat="42.89993" lon="-0.20491">
        <ele>1395.5</ele>
        <time>2026-07-15T06:45:56Z</time>
      </trkpt>
      <trkpt lat="42.89993" lon="-0.20492">
        <ele>1395.5</ele>
        <time>2026-07-15T06:45:57Z</time>
      </trkpt>
      <trkpt lat="42.89993" lon="-0.20492">
        <ele>1395.5</ele>
        <time>2026-07-15T06:45:57Z</time>
      </trkpt>
      <trkpt lat="42.89992" lon="-0.20493">
        <ele>1395.5</ele>
        <time>2026-07-15T06:45:58Z</time>
      </trkpt>
      <trkpt lat="42.89992" lon="-0.20494">
        <ele>1396.5</ele>
        <time>2026-07-15T06:45:59Z</time>
      </trkpt>
      <trkpt lat="42.89992" lon="-0.20494">
        <ele>1396.5</ele>
        <time>2026-07-15T06:45:59Z</time>
      </trkpt>
      <trkpt lat="42.89991" lon="-0.20495">
        <ele>1396.5</ele>
        <time>2026-07-15T06:46:00Z</time>
      </trkpt>
      <trkpt lat="42.89991" lon="-0.20495">
        <ele>1396.5</ele>
        <time>2026-07-15T06:46:00Z</time>
      </trkpt>
      <trkpt lat="42.89991" lon="-0.20496">
        <ele>1397.5</ele>
        <time>2026-07-15T06:46:01Z</time>
      </trkpt>
      <trkpt lat="42.8999" lon="-0.20496">
        <ele>1396.5</ele>
        <time>2026-07-15T06:46:02Z</time>
      </trkpt>
      <trkpt lat="42.89989" lon="-0.20496">
        <ele>1396.5</ele>
        <time>2026-07-15T06:46:03Z</time>
      </trkpt>
      <trkpt lat="42.89989" lon="-0.20497">
        <ele>1396.5</ele>
        <time>2026-07-15T06:46:04Z</time>
      </trkpt>
      <trkpt lat="42.89988" lon="-0.20497">
        <ele>1397.5</ele>
        <time>2026-07-15T06:46:04Z</time>
      </trkpt>
      <trkpt lat="42.89988" lon="-0.20497">
        <ele>1397.5</ele>
        <time>2026-07-15T06:46:05Z</time>
      </trkpt>
      <trkpt lat="42.89987" lon="-0.20497">
        <ele>1397.5</ele>
        <time>2026-07-15T06:46:06Z</time>
      </trkpt>
      <trkpt lat="42.89987" lon="-0.20497">
        <ele>1397.5</ele>
        <time>2026-07-15T06:46:06Z</time>
      </trkpt>
      <trkpt lat="42.89986" lon="-0.20498">
        <ele>1397.5</ele>
        <time>2026-07-15T06:46:07Z</time>
      </trkpt>
      <trkpt lat="42.89986" lon="-0.20498">
        <ele>1397.5</ele>
        <time>2026-07-15T06:46:07Z</time>
      </trkpt>
      <trkpt lat="42.89985" lon="-0.20498">
        <ele>1397.5</ele>
        <time>2026-07-15T06:46:08Z</time>
      </trkpt>
      <trkpt lat="42.89985" lon="-0.20498">
        <ele>1397.5</ele>
        <time>2026-07-15T06:46:09Z</time>
      </trkpt>
      <trkpt lat="42.89984" lon="-0.20498">
        <ele>1397.5</ele>
        <time>2026-07-15T06:46:09Z</time>
      </trkpt>
      <trkpt lat="42.89983" lon="-0.20498">
        <ele>1397.5</ele>
        <time>2026-07-15T06:46:10Z</time>
      </trkpt>
      <trkpt lat="42.89983" lon="-0.20497">
        <ele>1398.5</ele>
        <time>2026-07-15T06:46:11Z</time>
      </trkpt>
      <trkpt lat="42.89982" lon="-0.20497">
        <ele>1399.5</ele>
        <time>2026-07-15T06:46:12Z</time>
      </trkpt>
      <trkpt lat="42.89982" lon="-0.20498">
        <ele>1398.5</ele>
        <time>2026-07-15T06:46:12Z</time>
      </trkpt>
      <trkpt lat="42.89982" lon="-0.20498">
        <ele>1398.5</ele>
        <time>2026-07-15T06:46:13Z</time>
      </trkpt>
      <trkpt lat="42.89981" lon="-0.20498">
        <ele>1398.5</ele>
        <time>2026-07-15T06:46:14Z</time>
      </trkpt>
      <trkpt lat="42.89981" lon="-0.20498">
        <ele>1399.5</ele>
        <time>2026-07-15T06:46:15Z</time>
      </trkpt>
      <trkpt lat="42.8998" lon="-0.20498">
        <ele>1398.5</ele>
        <time>2026-07-15T06:46:16Z</time>
      </trkpt>
      <trkpt lat="42.8998" lon="-0.20499">
        <ele>1398.5</ele>
        <time>2026-07-15T06:46:16Z</time>
      </trkpt>
      <trkpt lat="42.89979" lon="-0.20499">
        <ele>1398.5</ele>
        <time>2026-07-15T06:46:17Z</time>
      </trkpt>
      <trkpt lat="42.89979" lon="-0.205">
        <ele>1399.5</ele>
        <time>2026-07-15T06:46:17Z</time>
      </trkpt>
      <trkpt lat="42.89978" lon="-0.205">
        <ele>1399.5</ele>
        <time>2026-07-15T06:46:18Z</time>
      </trkpt>
      <trkpt lat="42.89978" lon="-0.205">
        <ele>1398.5</ele>
        <time>2026-07-15T06:46:19Z</time>
      </trkpt>
      <trkpt lat="42.89977" lon="-0.205">
        <ele>1398.5</ele>
        <time>2026-07-15T06:46:19Z</time>
      </trkpt>
      <trkpt lat="42.89977" lon="-0.205">
        <ele>1398.5</ele>
        <time>2026-07-15T06:46:20Z</time>
      </trkpt>
      <trkpt lat="42.89976" lon="-0.205">
        <ele>1398.5</ele>
        <time>2026-07-15T06:46:21Z</time>
      </trkpt>
      <trkpt lat="42.89975" lon="-0.205">
        <ele>1398.5</ele>
        <time>2026-07-15T06:46:22Z</time>
      </trkpt>
      <trkpt lat="42.89975" lon="-0.205">
        <ele>1398.5</ele>
        <time>2026-07-15T06:46:22Z</time>
      </trkpt>
      <trkpt lat="42.89975" lon="-0.20501">
        <ele>1398.5</ele>
        <time>2026-07-15T06:46:23Z</time>
      </trkpt>
      <trkpt lat="42.89974" lon="-0.20501">
        <ele>1398.5</ele>
        <time>2026-07-15T06:46:23Z</time>
      </trkpt>
      <trkpt lat="42.89974" lon="-0.20502">
        <ele>1398.5</ele>
        <time>2026-07-15T06:46:24Z</time>
      </trkpt>
      <trkpt lat="42.89973" lon="-0.20503">
        <ele>1398.5</ele>
        <time>2026-07-15T06:46:25Z</time>
      </trkpt>
      <trkpt lat="42.89973" lon="-0.20503">
        <ele>1398.5</ele>
        <time>2026-07-15T06:46:25Z</time>
      </trkpt>
      <trkpt lat="42.89972" lon="-0.20504">
        <ele>1398.5</ele>
        <time>2026-07-15T06:46:26Z</time>
      </trkpt>
      <trkpt lat="42.89971" lon="-0.20504">
        <ele>1397.5</ele>
        <time>2026-07-15T06:46:27Z</time>
      </trkpt>
      <trkpt lat="42.89971" lon="-0.20504">
        <ele>1397.5</ele>
        <time>2026-07-15T06:46:28Z</time>
      </trkpt>
      <trkpt lat="42.8997" lon="-0.20504">
        <ele>1396.5</ele>
        <time>2026-07-15T06:46:28Z</time>
      </trkpt>
      <trkpt lat="42.8997" lon="-0.20504">
        <ele>1397.5</ele>
        <time>2026-07-15T06:46:29Z</time>
      </trkpt>
      <trkpt lat="42.89969" lon="-0.20504">
        <ele>1397.5</ele>
        <time>2026-07-15T06:46:30Z</time>
      </trkpt>
      <trkpt lat="42.89969" lon="-0.20505">
        <ele>1397.5</ele>
        <time>2026-07-15T06:46:31Z</time>
      </trkpt>
      <trkpt lat="42.89968" lon="-0.20505">
        <ele>1398.5</ele>
        <time>2026-07-15T06:46:31Z</time>
      </trkpt>
      <trkpt lat="42.89968" lon="-0.20506">
        <ele>1398.5</ele>
        <time>2026-07-15T06:46:32Z</time>
      </trkpt>
      <trkpt lat="42.89967" lon="-0.20505">
        <ele>1398.5</ele>
        <time>2026-07-15T06:46:33Z</time>
      </trkpt>
      <trkpt lat="42.89967" lon="-0.20505">
        <ele>1398.5</ele>
        <time>2026-07-15T06:46:33Z</time>
      </trkpt>
      <trkpt lat="42.89966" lon="-0.20506">
        <ele>1398.5</ele>
        <time>2026-07-15T06:46:34Z</time>
      </trkpt>
      <trkpt lat="42.89966" lon="-0.20506">
        <ele>1398.5</ele>
        <time>2026-07-15T06:46:35Z</time>
      </trkpt>
      <trkpt lat="42.89965" lon="-0.20506">
        <ele>1398.5</ele>
        <time>2026-07-15T06:46:35Z</time>
      </trkpt>
      <trkpt lat="42.89965" lon="-0.20507">
        <ele>1399.5</ele>
        <time>2026-07-15T06:46:36Z</time>
      </trkpt>
      <trkpt lat="42.89964" lon="-0.20508">
        <ele>1399.5</ele>
        <time>2026-07-15T06:46:37Z</time>
      </trkpt>
      <trkpt lat="42.89964" lon="-0.20509">
        <ele>1399.5</ele>
        <time>2026-07-15T06:46:37Z</time>
      </trkpt>
      <trkpt lat="42.89963" lon="-0.20509">
        <ele>1399.5</ele>
        <time>2026-07-15T06:46:38Z</time>
      </trkpt>
      <trkpt lat="42.89963" lon="-0.2051">
        <ele>1399.5</ele>
        <time>2026-07-15T06:46:39Z</time>
      </trkpt>
      <trkpt lat="42.89962" lon="-0.2051">
        <ele>1399.5</ele>
        <time>2026-07-15T06:46:39Z</time>
      </trkpt>
      <trkpt lat="42.89962" lon="-0.2051">
        <ele>1399.5</ele>
        <time>2026-07-15T06:46:40Z</time>
      </trkpt>
      <trkpt lat="42.89961" lon="-0.2051">
        <ele>1399.5</ele>
        <time>2026-07-15T06:46:41Z</time>
      </trkpt>
      <trkpt lat="42.89961" lon="-0.20511">
        <ele>1398.5</ele>
        <time>2026-07-15T06:46:42Z</time>
      </trkpt>
      <trkpt lat="42.8996" lon="-0.20512">
        <ele>1398.5</ele>
        <time>2026-07-15T06:46:42Z</time>
      </trkpt>
      <trkpt lat="42.8996" lon="-0.20512">
        <ele>1398.5</ele>
        <time>2026-07-15T06:46:43Z</time>
      </trkpt>
      <trkpt lat="42.89959" lon="-0.20513">
        <ele>1398.5</ele>
        <time>2026-07-15T06:46:44Z</time>
      </trkpt>
      <trkpt lat="42.89959" lon="-0.20513">
        <ele>1398.5</ele>
        <time>2026-07-15T06:46:44Z</time>
      </trkpt>
      <trkpt lat="42.89958" lon="-0.20514">
        <ele>1398.5</ele>
        <time>2026-07-15T06:46:45Z</time>
      </trkpt>
      <trkpt lat="42.89958" lon="-0.20515">
        <ele>1397.5</ele>
        <time>2026-07-15T06:46:46Z</time>
      </trkpt>
      <trkpt lat="42.89957" lon="-0.20515">
        <ele>1397.5</ele>
        <time>2026-07-15T06:46:46Z</time>
      </trkpt>
      <trkpt lat="42.89957" lon="-0.20516">
        <ele>1397.5</ele>
        <time>2026-07-15T06:46:47Z</time>
      </trkpt>
      <trkpt lat="42.89956" lon="-0.20516">
        <ele>1397.5</ele>
        <time>2026-07-15T06:46:48Z</time>
      </trkpt>
      <trkpt lat="42.89955" lon="-0.20517">
        <ele>1396.5</ele>
        <time>2026-07-15T06:46:48Z</time>
      </trkpt>
      <trkpt lat="42.89955" lon="-0.20517">
        <ele>1396.5</ele>
        <time>2026-07-15T06:46:49Z</time>
      </trkpt>
      <trkpt lat="42.89954" lon="-0.20518">
        <ele>1396.5</ele>
        <time>2026-07-15T06:46:50Z</time>
      </trkpt>
      <trkpt lat="42.89953" lon="-0.20518">
        <ele>1397.5</ele>
        <time>2026-07-15T06:46:50Z</time>
      </trkpt>
      <trkpt lat="42.89953" lon="-0.20519">
        <ele>1397.5</ele>
        <time>2026-07-15T06:46:51Z</time>
      </trkpt>
      <trkpt lat="42.89952" lon="-0.20519">
        <ele>1397.5</ele>
        <time>2026-07-15T06:46:52Z</time>
      </trkpt>
      <trkpt lat="42.89951" lon="-0.20519">
        <ele>1397.5</ele>
        <time>2026-07-15T06:46:52Z</time>
      </trkpt>
      <trkpt lat="42.89951" lon="-0.20519">
        <ele>1397.5</ele>
        <time>2026-07-15T06:46:53Z</time>
      </trkpt>
      <trkpt lat="42.8995" lon="-0.20519">
        <ele>1398.5</ele>
        <time>2026-07-15T06:46:54Z</time>
      </trkpt>
      <trkpt lat="42.89949" lon="-0.20519">
        <ele>1398.5</ele>
        <time>2026-07-15T06:46:54Z</time>
      </trkpt>
      <trkpt lat="42.89949" lon="-0.20519">
        <ele>1398.5</ele>
        <time>2026-07-15T06:46:55Z</time>
      </trkpt>
      <trkpt lat="42.89948" lon="-0.20519">
        <ele>1398.5</ele>
        <time>2026-07-15T06:46:56Z</time>
      </trkpt>
      <trkpt lat="42.89947" lon="-0.20519">
        <ele>1399.5</ele>
        <time>2026-07-15T06:46:56Z</time>
      </trkpt>
      <trkpt lat="42.89947" lon="-0.20519">
        <ele>1399.5</ele>
        <time>2026-07-15T06:46:57Z</time>
      </trkpt>
      <trkpt lat="42.89946" lon="-0.20519">
        <ele>1399.5</ele>
        <time>2026-07-15T06:46:58Z</time>
      </trkpt>
      <trkpt lat="42.89946" lon="-0.20518">
        <ele>1400.5</ele>
        <time>2026-07-15T06:46:58Z</time>
      </trkpt>
      <trkpt lat="42.89945" lon="-0.20518">
        <ele>1400.5</ele>
        <time>2026-07-15T06:46:59Z</time>
      </trkpt>
      <trkpt lat="42.89945" lon="-0.20517">
        <ele>1400.5</ele>
        <time>2026-07-15T06:47:00Z</time>
      </trkpt>
      <trkpt lat="42.89944" lon="-0.20517">
        <ele>1400.5</ele>
        <time>2026-07-15T06:47:00Z</time>
      </trkpt>
      <trkpt lat="42.89944" lon="-0.20516">
        <ele>1400.5</ele>
        <time>2026-07-15T06:47:01Z</time>
      </trkpt>
      <trkpt lat="42.89944" lon="-0.20516">
        <ele>1400.5</ele>
        <time>2026-07-15T06:47:02Z</time>
      </trkpt>
      <trkpt lat="42.89943" lon="-0.20515">
        <ele>1401.5</ele>
        <time>2026-07-15T06:47:02Z</time>
      </trkpt>
      <trkpt lat="42.89943" lon="-0.20515">
        <ele>1401.5</ele>
        <time>2026-07-15T06:47:03Z</time>
      </trkpt>
      <trkpt lat="42.89943" lon="-0.20514">
        <ele>1401.5</ele>
        <time>2026-07-15T06:47:04Z</time>
      </trkpt>
      <trkpt lat="42.89943" lon="-0.20514">
        <ele>1401.5</ele>
        <time>2026-07-15T06:47:05Z</time>
      </trkpt>
      <trkpt lat="42.89942" lon="-0.20513">
        <ele>1401.5</ele>
        <time>2026-07-15T06:47:05Z</time>
      </trkpt>
      <trkpt lat="42.89942" lon="-0.20513">
        <ele>1401.5</ele>
        <time>2026-07-15T06:47:06Z</time>
      </trkpt>
      <trkpt lat="42.89942" lon="-0.20512">
        <ele>1401.5</ele>
        <time>2026-07-15T06:47:07Z</time>
      </trkpt>
      <trkpt lat="42.89941" lon="-0.20512">
        <ele>1402.5</ele>
        <time>2026-07-15T06:47:08Z</time>
      </trkpt>
      <trkpt lat="42.89941" lon="-0.20512">
        <ele>1401.5</ele>
        <time>2026-07-15T06:47:08Z</time>
      </trkpt>
      <trkpt lat="42.89941" lon="-0.20511">
        <ele>1401.5</ele>
        <time>2026-07-15T06:47:09Z</time>
      </trkpt>
      <trkpt lat="42.8994" lon="-0.2051">
        <ele>1402.5</ele>
        <time>2026-07-15T06:47:10Z</time>
      </trkpt>
      <trkpt lat="42.8994" lon="-0.20509">
        <ele>1401.5</ele>
        <time>2026-07-15T06:47:10Z</time>
      </trkpt>
      <trkpt lat="42.8994" lon="-0.20509">
        <ele>1402.5</ele>
        <time>2026-07-15T06:47:11Z</time>
      </trkpt>
      <trkpt lat="42.89939" lon="-0.20508">
        <ele>1402.5</ele>
        <time>2026-07-15T06:47:12Z</time>
      </trkpt>
      <trkpt lat="42.89939" lon="-0.20507">
        <ele>1402.5</ele>
        <time>2026-07-15T06:47:13Z</time>
      </trkpt>
      <trkpt lat="42.89939" lon="-0.20507">
        <ele>1402.5</ele>
        <time>2026-07-15T06:47:13Z</time>
      </trkpt>
      <trkpt lat="42.89938" lon="-0.20506">
        <ele>1402.5</ele>
        <time>2026-07-15T06:47:14Z</time>
      </trkpt>
      <trkpt lat="42.89937" lon="-0.20505">
        <ele>1402.5</ele>
        <time>2026-07-15T06:47:15Z</time>
      </trkpt>
      <trkpt lat="42.89937" lon="-0.20505">
        <ele>1403.5</ele>
        <time>2026-07-15T06:47:15Z</time>
      </trkpt>
      <trkpt lat="42.89937" lon="-0.20504">
        <ele>1402.5</ele>
        <time>2026-07-15T06:47:16Z</time>
      </trkpt>
      <trkpt lat="42.89936" lon="-0.20503">
        <ele>1402.5</ele>
        <time>2026-07-15T06:47:17Z</time>
      </trkpt>
      <trkpt lat="42.89935" lon="-0.20503">
        <ele>1402.5</ele>
        <time>2026-07-15T06:47:18Z</time>
      </trkpt>
      <trkpt lat="42.89935" lon="-0.20502">
        <ele>1401.5</ele>
        <time>2026-07-15T06:47:19Z</time>
      </trkpt>
      <trkpt lat="42.89935" lon="-0.20502">
        <ele>1402.5</ele>
        <time>2026-07-15T06:47:20Z</time>
      </trkpt>
      <trkpt lat="42.89934" lon="-0.20501">
        <ele>1402.5</ele>
        <time>2026-07-15T06:47:20Z</time>
      </trkpt>
      <trkpt lat="42.89934" lon="-0.20501">
        <ele>1402.5</ele>
        <time>2026-07-15T06:47:21Z</time>
      </trkpt>
      <trkpt lat="42.89933" lon="-0.205">
        <ele>1402.5</ele>
        <time>2026-07-15T06:47:22Z</time>
      </trkpt>
      <trkpt lat="42.89933" lon="-0.205">
        <ele>1403.5</ele>
        <time>2026-07-15T06:47:23Z</time>
      </trkpt>
      <trkpt lat="42.89933" lon="-0.20499">
        <ele>1403.5</ele>
        <time>2026-07-15T06:47:23Z</time>
      </trkpt>
      <trkpt lat="42.89932" lon="-0.20499">
        <ele>1404.5</ele>
        <time>2026-07-15T06:47:24Z</time>
      </trkpt>
      <trkpt lat="42.89932" lon="-0.20498">
        <ele>1404.5</ele>
        <time>2026-07-15T06:47:25Z</time>
      </trkpt>
      <trkpt lat="42.89932" lon="-0.20498">
        <ele>1404.5</ele>
        <time>2026-07-15T06:47:26Z</time>
      </trkpt>
      <trkpt lat="42.89932" lon="-0.20497">
        <ele>1404.5</ele>
        <time>2026-07-15T06:47:26Z</time>
      </trkpt>
      <trkpt lat="42.89931" lon="-0.20497">
        <ele>1404.5</ele>
        <time>2026-07-15T06:47:27Z</time>
      </trkpt>
      <trkpt lat="42.89931" lon="-0.20496">
        <ele>1404.5</ele>
        <time>2026-07-15T06:47:28Z</time>
      </trkpt>
      <trkpt lat="42.8993" lon="-0.20496">
        <ele>1404.5</ele>
        <time>2026-07-15T06:47:29Z</time>
      </trkpt>
      <trkpt lat="42.8993" lon="-0.20496">
        <ele>1405.5</ele>
        <time>2026-07-15T06:47:30Z</time>
      </trkpt>
      <trkpt lat="42.89929" lon="-0.20496">
        <ele>1405.5</ele>
        <time>2026-07-15T06:47:30Z</time>
      </trkpt>
      <trkpt lat="42.89929" lon="-0.20495">
        <ele>1405.5</ele>
        <time>2026-07-15T06:47:31Z</time>
      </trkpt>
      <trkpt lat="42.89928" lon="-0.20495">
        <ele>1406.5</ele>
        <time>2026-07-15T06:47:32Z</time>
      </trkpt>
      <trkpt lat="42.89927" lon="-0.20495">
        <ele>1405.5</ele>
        <time>2026-07-15T06:47:33Z</time>
      </trkpt>
      <trkpt lat="42.89927" lon="-0.20494">
        <ele>1405.5</ele>
        <time>2026-07-15T06:47:33Z</time>
      </trkpt>
      <trkpt lat="42.89927" lon="-0.20494">
        <ele>1406.5</ele>
        <time>2026-07-15T06:47:34Z</time>
      </trkpt>
      <trkpt lat="42.89926" lon="-0.20493">
        <ele>1406.5</ele>
        <time>2026-07-15T06:47:35Z</time>
      </trkpt>
      <trkpt lat="42.89926" lon="-0.20492">
        <ele>1406.5</ele>
        <time>2026-07-15T06:47:36Z</time>
      </trkpt>
      <trkpt lat="42.89925" lon="-0.20492">
        <ele>1405.5</ele>
        <time>2026-07-15T06:47:37Z</time>
      </trkpt>
      <trkpt lat="42.89925" lon="-0.20492">
        <ele>1405.5</ele>
        <time>2026-07-15T06:47:37Z</time>
      </trkpt>
      <trkpt lat="42.89924" lon="-0.20491">
        <ele>1405.5</ele>
        <time>2026-07-15T06:47:38Z</time>
      </trkpt>
      <trkpt lat="42.89924" lon="-0.20491">
        <ele>1405.5</ele>
        <time>2026-07-15T06:47:39Z</time>
      </trkpt>
      <trkpt lat="42.89923" lon="-0.20491">
        <ele>1405.5</ele>
        <time>2026-07-15T06:47:40Z</time>
      </trkpt>
      <trkpt lat="42.89923" lon="-0.20491">
        <ele>1404.5</ele>
        <time>2026-07-15T06:47:40Z</time>
      </trkpt>
      <trkpt lat="42.89922" lon="-0.20491">
        <ele>1404.5</ele>
        <time>2026-07-15T06:47:41Z</time>
      </trkpt>
      <trkpt lat="42.89922" lon="-0.20491">
        <ele>1404.5</ele>
        <time>2026-07-15T06:47:42Z</time>
      </trkpt>
      <trkpt lat="42.89921" lon="-0.20491">
        <ele>1404.5</ele>
        <time>2026-07-15T06:47:43Z</time>
      </trkpt>
      <trkpt lat="42.8992" lon="-0.20491">
        <ele>1404.5</ele>
        <time>2026-07-15T06:47:44Z</time>
      </trkpt>
      <trkpt lat="42.8992" lon="-0.20491">
        <ele>1404.5</ele>
        <time>2026-07-15T06:47:44Z</time>
      </trkpt>
      <trkpt lat="42.8992" lon="-0.20491">
        <ele>1405.5</ele>
        <time>2026-07-15T06:47:45Z</time>
      </trkpt>
      <trkpt lat="42.89919" lon="-0.20491">
        <ele>1405.5</ele>
        <time>2026-07-15T06:47:46Z</time>
      </trkpt>
      <trkpt lat="42.89918" lon="-0.20491">
        <ele>1405.5</ele>
        <time>2026-07-15T06:47:47Z</time>
      </trkpt>
      <trkpt lat="42.89918" lon="-0.20491">
        <ele>1405.5</ele>
        <time>2026-07-15T06:47:47Z</time>
      </trkpt>
      <trkpt lat="42.89917" lon="-0.20491">
        <ele>1405.5</ele>
        <time>2026-07-15T06:47:48Z</time>
      </trkpt>
      <trkpt lat="42.89917" lon="-0.20491">
        <ele>1406.5</ele>
        <time>2026-07-15T06:47:49Z</time>
      </trkpt>
      <trkpt lat="42.89916" lon="-0.2049">
        <ele>1406.5</ele>
        <time>2026-07-15T06:47:50Z</time>
      </trkpt>
      <trkpt lat="42.89916" lon="-0.2049">
        <ele>1406.5</ele>
        <time>2026-07-15T06:47:50Z</time>
      </trkpt>
      <trkpt lat="42.89916" lon="-0.20489">
        <ele>1406.5</ele>
        <time>2026-07-15T06:47:51Z</time>
      </trkpt>
      <trkpt lat="42.89915" lon="-0.20489">
        <ele>1406.5</ele>
        <time>2026-07-15T06:47:52Z</time>
      </trkpt>
      <trkpt lat="42.89914" lon="-0.20489">
        <ele>1406.5</ele>
        <time>2026-07-15T06:47:53Z</time>
      </trkpt>
      <trkpt lat="42.89914" lon="-0.20489">
        <ele>1406.5</ele>
        <time>2026-07-15T06:47:53Z</time>
      </trkpt>
      <trkpt lat="42.89913" lon="-0.20488">
        <ele>1406.5</ele>
        <time>2026-07-15T06:47:54Z</time>
      </trkpt>
      <trkpt lat="42.89912" lon="-0.20488">
        <ele>1406.5</ele>
        <time>2026-07-15T06:47:55Z</time>
      </trkpt>
      <trkpt lat="42.89912" lon="-0.20488">
        <ele>1407.5</ele>
        <time>2026-07-15T06:47:56Z</time>
      </trkpt>
      <trkpt lat="42.89911" lon="-0.20488">
        <ele>1407.5</ele>
        <time>2026-07-15T06:47:57Z</time>
      </trkpt>
      <trkpt lat="42.89911" lon="-0.20488">
        <ele>1407.5</ele>
        <time>2026-07-15T06:47:57Z</time>
      </trkpt>
      <trkpt lat="42.8991" lon="-0.20487">
        <ele>1406.5</ele>
        <time>2026-07-15T06:47:58Z</time>
      </trkpt>
      <trkpt lat="42.8991" lon="-0.20487">
        <ele>1406.5</ele>
        <time>2026-07-15T06:47:59Z</time>
      </trkpt>
      <trkpt lat="42.89909" lon="-0.20487">
        <ele>1407.5</ele>
        <time>2026-07-15T06:48:00Z</time>
      </trkpt>
      <trkpt lat="42.89909" lon="-0.20486">
        <ele>1407.5</ele>
        <time>2026-07-15T06:48:00Z</time>
      </trkpt>
      <trkpt lat="42.89908" lon="-0.20486">
        <ele>1406.5</ele>
        <time>2026-07-15T06:48:01Z</time>
      </trkpt>
      <trkpt lat="42.89907" lon="-0.20486">
        <ele>1406.5</ele>
        <time>2026-07-15T06:48:02Z</time>
      </trkpt>
      <trkpt lat="42.89907" lon="-0.20486">
        <ele>1407.5</ele>
        <time>2026-07-15T06:48:03Z</time>
      </trkpt>
      <trkpt lat="42.89906" lon="-0.20485">
        <ele>1407.5</ele>
        <time>2026-07-15T06:48:03Z</time>
      </trkpt>
      <trkpt lat="42.89906" lon="-0.20485">
        <ele>1407.5</ele>
        <time>2026-07-15T06:48:04Z</time>
      </trkpt>
      <trkpt lat="42.89905" lon="-0.20484">
        <ele>1407.5</ele>
        <time>2026-07-15T06:48:05Z</time>
      </trkpt>
      <trkpt lat="42.89905" lon="-0.20484">
        <ele>1407.5</ele>
        <time>2026-07-15T06:48:06Z</time>
      </trkpt>
      <trkpt lat="42.89904" lon="-0.20483">
        <ele>1406.5</ele>
        <time>2026-07-15T06:48:07Z</time>
      </trkpt>
      <trkpt lat="42.89904" lon="-0.20483">
        <ele>1407.5</ele>
        <time>2026-07-15T06:48:07Z</time>
      </trkpt>
      <trkpt lat="42.89903" lon="-0.20482">
        <ele>1407.5</ele>
        <time>2026-07-15T06:48:08Z</time>
      </trkpt>
      <trkpt lat="42.89902" lon="-0.20482">
        <ele>1407.5</ele>
        <time>2026-07-15T06:48:09Z</time>
      </trkpt>
      <trkpt lat="42.89902" lon="-0.20482">
        <ele>1408.5</ele>
        <time>2026-07-15T06:48:10Z</time>
      </trkpt>
      <trkpt lat="42.89901" lon="-0.20481">
        <ele>1408.5</ele>
        <time>2026-07-15T06:48:10Z</time>
      </trkpt>
      <trkpt lat="42.89901" lon="-0.20481">
        <ele>1408.5</ele>
        <time>2026-07-15T06:48:11Z</time>
      </trkpt>
      <trkpt lat="42.89901" lon="-0.2048">
        <ele>1408.5</ele>
        <time>2026-07-15T06:48:12Z</time>
      </trkpt>
      <trkpt lat="42.89901" lon="-0.2048">
        <ele>1408.5</ele>
        <time>2026-07-15T06:48:13Z</time>
      </trkpt>
      <trkpt lat="42.89901" lon="-0.20479">
        <ele>1408.5</ele>
        <time>2026-07-15T06:48:14Z</time>
      </trkpt>
      <trkpt lat="42.89901" lon="-0.20479">
        <ele>1409.5</ele>
        <time>2026-07-15T06:48:14Z</time>
      </trkpt>
      <trkpt lat="42.89901" lon="-0.20479">
        <ele>1409.5</ele>
        <time>2026-07-15T06:48:15Z</time>
      </trkpt>
      <trkpt lat="42.899" lon="-0.20478">
        <ele>1409.5</ele>
        <time>2026-07-15T06:48:16Z</time>
      </trkpt>
      <trkpt lat="42.899" lon="-0.20478">
        <ele>1410.5</ele>
        <time>2026-07-15T06:48:17Z</time>
      </trkpt>
      <trkpt lat="42.899" lon="-0.20478">
        <ele>1410.5</ele>
        <time>2026-07-15T06:48:17Z</time>
      </trkpt>
      <trkpt lat="42.89899" lon="-0.20478">
        <ele>1410.5</ele>
        <time>2026-07-15T06:48:18Z</time>
      </trkpt>
      <trkpt lat="42.89899" lon="-0.20478">
        <ele>1410.5</ele>
        <time>2026-07-15T06:48:19Z</time>
      </trkpt>
      <trkpt lat="42.89899" lon="-0.20479">
        <ele>1410.5</ele>
        <time>2026-07-15T06:48:20Z</time>
      </trkpt>
      <trkpt lat="42.89898" lon="-0.20479">
        <ele>1410.5</ele>
        <time>2026-07-15T06:48:21Z</time>
      </trkpt>
      <trkpt lat="42.89898" lon="-0.20479">
        <ele>1411.5</ele>
        <time>2026-07-15T06:48:21Z</time>
      </trkpt>
      <trkpt lat="42.89897" lon="-0.20479">
        <ele>1411.5</ele>
        <time>2026-07-15T06:48:22Z</time>
      </trkpt>
      <trkpt lat="42.89897" lon="-0.20478">
        <ele>1411.5</ele>
        <time>2026-07-15T06:48:23Z</time>
      </trkpt>
      <trkpt lat="42.89897" lon="-0.20478">
        <ele>1411.5</ele>
        <time>2026-07-15T06:48:24Z</time>
      </trkpt>
      <trkpt lat="42.89896" lon="-0.20478">
        <ele>1411.5</ele>
        <time>2026-07-15T06:48:25Z</time>
      </trkpt>
      <trkpt lat="42.89896" lon="-0.20478">
        <ele>1413.5</ele>
        <time>2026-07-15T06:48:26Z</time>
      </trkpt>
      <trkpt lat="42.89896" lon="-0.20478">
        <ele>1414.5</ele>
        <time>2026-07-15T06:48:26Z</time>
      </trkpt>
      <trkpt lat="42.89896" lon="-0.20478">
        <ele>1414.5</ele>
        <time>2026-07-15T06:48:27Z</time>
      </trkpt>
      <trkpt lat="42.89895" lon="-0.20477">
        <ele>1414.5</ele>
        <time>2026-07-15T06:48:28Z</time>
      </trkpt>
      <trkpt lat="42.89895" lon="-0.20477">
        <ele>1414.5</ele>
        <time>2026-07-15T06:48:29Z</time>
      </trkpt>
      <trkpt lat="42.89894" lon="-0.20477">
        <ele>1415.5</ele>
        <time>2026-07-15T06:48:30Z</time>
      </trkpt>
      <trkpt lat="42.89894" lon="-0.20477">
        <ele>1414.5</ele>
        <time>2026-07-15T06:48:31Z</time>
      </trkpt>
      <trkpt lat="42.89894" lon="-0.20477">
        <ele>1414.5</ele>
        <time>2026-07-15T06:48:31Z</time>
      </trkpt>
      <trkpt lat="42.89893" lon="-0.20476">
        <ele>1414.5</ele>
        <time>2026-07-15T06:48:32Z</time>
      </trkpt>
      <trkpt lat="42.89893" lon="-0.20476">
        <ele>1414.5</ele>
        <time>2026-07-15T06:48:33Z</time>
      </trkpt>
      <trkpt lat="42.89892" lon="-0.20476">
        <ele>1414.5</ele>
        <time>2026-07-15T06:48:34Z</time>
      </trkpt>
      <trkpt lat="42.89892" lon="-0.20476">
        <ele>1415.5</ele>
        <time>2026-07-15T06:48:35Z</time>
      </trkpt>
      <trkpt lat="42.89891" lon="-0.20475">
        <ele>1415.5</ele>
        <time>2026-07-15T06:48:36Z</time>
      </trkpt>
      <trkpt lat="42.89891" lon="-0.20475">
        <ele>1415.5</ele>
        <time>2026-07-15T06:48:36Z</time>
      </trkpt>
      <trkpt lat="42.89891" lon="-0.20475">
        <ele>1415.5</ele>
        <time>2026-07-15T06:48:37Z</time>
      </trkpt>
      <trkpt lat="42.8989" lon="-0.20475">
        <ele>1415.5</ele>
        <time>2026-07-15T06:48:38Z</time>
      </trkpt>
      <trkpt lat="42.89889" lon="-0.20475">
        <ele>1415.5</ele>
        <time>2026-07-15T06:48:39Z</time>
      </trkpt>
      <trkpt lat="42.89889" lon="-0.20475">
        <ele>1415.5</ele>
        <time>2026-07-15T06:48:40Z</time>
      </trkpt>
      <trkpt lat="42.8989" lon="-0.20475">
        <ele>1415.5</ele>
        <time>2026-07-15T06:48:40Z</time>
      </trkpt>
      <trkpt lat="42.8989" lon="-0.20476">
        <ele>1414.5</ele>
        <time>2026-07-15T06:48:41Z</time>
      </trkpt>
      <trkpt lat="42.89889" lon="-0.20476">
        <ele>1414.5</ele>
        <time>2026-07-15T06:48:42Z</time>
      </trkpt>
      <trkpt lat="42.89889" lon="-0.20476">
        <ele>1413.5</ele>
        <time>2026-07-15T06:48:43Z</time>
      </trkpt>
      <trkpt lat="42.89888" lon="-0.20476">
        <ele>1413.5</ele>
        <time>2026-07-15T06:48:44Z</time>
      </trkpt>
      <trkpt lat="42.89888" lon="-0.20477">
        <ele>1413.5</ele>
        <time>2026-07-15T06:48:45Z</time>
      </trkpt>
      <trkpt lat="42.89887" lon="-0.20477">
        <ele>1413.5</ele>
        <time>2026-07-15T06:48:45Z</time>
      </trkpt>
      <trkpt lat="42.89887" lon="-0.20477">
        <ele>1413.5</ele>
        <time>2026-07-15T06:48:46Z</time>
      </trkpt>
      <trkpt lat="42.89886" lon="-0.20477">
        <ele>1413.5</ele>
        <time>2026-07-15T06:48:47Z</time>
      </trkpt>
      <trkpt lat="42.89886" lon="-0.20477">
        <ele>1413.5</ele>
        <time>2026-07-15T06:48:48Z</time>
      </trkpt>
      <trkpt lat="42.89885" lon="-0.20477">
        <ele>1414.5</ele>
        <time>2026-07-15T06:48:48Z</time>
      </trkpt>
      <trkpt lat="42.89885" lon="-0.20477">
        <ele>1414.5</ele>
        <time>2026-07-15T06:48:49Z</time>
      </trkpt>
      <trkpt lat="42.89884" lon="-0.20477">
        <ele>1414.5</ele>
        <time>2026-07-15T06:48:50Z</time>
      </trkpt>
      <trkpt lat="42.89884" lon="-0.20478">
        <ele>1415.5</ele>
        <time>2026-07-15T06:48:51Z</time>
      </trkpt>
      <trkpt lat="42.89883" lon="-0.20478">
        <ele>1415.5</ele>
        <time>2026-07-15T06:48:52Z</time>
      </trkpt>
      <trkpt lat="42.89883" lon="-0.20478">
        <ele>1415.5</ele>
        <time>2026-07-15T06:48:52Z</time>
      </trkpt>
      <trkpt lat="42.89883" lon="-0.20478">
        <ele>1415.5</ele>
        <time>2026-07-15T06:48:53Z</time>
      </trkpt>
      <trkpt lat="42.89882" lon="-0.20477">
        <ele>1415.5</ele>
        <time>2026-07-15T06:48:54Z</time>
      </trkpt>
      <trkpt lat="42.89882" lon="-0.20477">
        <ele>1415.5</ele>
        <time>2026-07-15T06:48:55Z</time>
      </trkpt>
      <trkpt lat="42.89881" lon="-0.20477">
        <ele>1415.5</ele>
        <time>2026-07-15T06:48:56Z</time>
      </trkpt>
      <trkpt lat="42.8988" lon="-0.20478">
        <ele>1415.5</ele>
        <time>2026-07-15T06:48:57Z</time>
      </trkpt>
      <trkpt lat="42.8988" lon="-0.20478">
        <ele>1415.5</ele>
        <time>2026-07-15T06:48:58Z</time>
      </trkpt>
      <trkpt lat="42.8988" lon="-0.20478">
        <ele>1415.5</ele>
        <time>2026-07-15T06:48:59Z</time>
      </trkpt>
      <trkpt lat="42.89879" lon="-0.20478">
        <ele>1416.5</ele>
        <time>2026-07-15T06:48:59Z</time>
      </trkpt>
      <trkpt lat="42.89879" lon="-0.20478">
        <ele>1416.5</ele>
        <time>2026-07-15T06:49:00Z</time>
      </trkpt>
      <trkpt lat="42.89878" lon="-0.20478">
        <ele>1416.5</ele>
        <time>2026-07-15T06:49:01Z</time>
      </trkpt>
      <trkpt lat="42.89877" lon="-0.20478">
        <ele>1416.5</ele>
        <time>2026-07-15T06:49:02Z</time>
      </trkpt>
      <trkpt lat="42.89877" lon="-0.20477">
        <ele>1417.5</ele>
        <time>2026-07-15T06:49:03Z</time>
      </trkpt>
      <trkpt lat="42.89876" lon="-0.20477">
        <ele>1417.5</ele>
        <time>2026-07-15T06:49:04Z</time>
      </trkpt>
      <trkpt lat="42.89876" lon="-0.20477">
        <ele>1417.5</ele>
        <time>2026-07-15T06:49:04Z</time>
      </trkpt>
      <trkpt lat="42.89875" lon="-0.20476">
        <ele>1417.5</ele>
        <time>2026-07-15T06:49:05Z</time>
      </trkpt>
      <trkpt lat="42.89874" lon="-0.20476">
        <ele>1417.5</ele>
        <time>2026-07-15T06:49:06Z</time>
      </trkpt>
      <trkpt lat="42.89874" lon="-0.20476">
        <ele>1417.5</ele>
        <time>2026-07-15T06:49:07Z</time>
      </trkpt>
      <trkpt lat="42.89874" lon="-0.20477">
        <ele>1417.5</ele>
        <time>2026-07-15T06:49:08Z</time>
      </trkpt>
      <trkpt lat="42.89873" lon="-0.20477">
        <ele>1417.5</ele>
        <time>2026-07-15T06:49:08Z</time>
      </trkpt>
      <trkpt lat="42.89873" lon="-0.20477">
        <ele>1417.5</ele>
        <time>2026-07-15T06:49:09Z</time>
      </trkpt>
      <trkpt lat="42.89872" lon="-0.20477">
        <ele>1417.5</ele>
        <time>2026-07-15T06:49:10Z</time>
      </trkpt>
      <trkpt lat="42.89872" lon="-0.20477">
        <ele>1418.5</ele>
        <time>2026-07-15T06:49:11Z</time>
      </trkpt>
      <trkpt lat="42.89871" lon="-0.20477">
        <ele>1418.5</ele>
        <time>2026-07-15T06:49:12Z</time>
      </trkpt>
      <trkpt lat="42.8987" lon="-0.20477">
        <ele>1417.5</ele>
        <time>2026-07-15T06:49:13Z</time>
      </trkpt>
      <trkpt lat="42.8987" lon="-0.20477">
        <ele>1417.5</ele>
        <time>2026-07-15T06:49:13Z</time>
      </trkpt>
      <trkpt lat="42.89869" lon="-0.20477">
        <ele>1418.5</ele>
        <time>2026-07-15T06:49:14Z</time>
      </trkpt>
      <trkpt lat="42.89869" lon="-0.20478">
        <ele>1418.5</ele>
        <time>2026-07-15T06:49:15Z</time>
      </trkpt>
      <trkpt lat="42.89868" lon="-0.20478">
        <ele>1419.5</ele>
        <time>2026-07-15T06:49:16Z</time>
      </trkpt>
      <trkpt lat="42.89867" lon="-0.20478">
        <ele>1418.5</ele>
        <time>2026-07-15T06:49:17Z</time>
      </trkpt>
      <trkpt lat="42.89867" lon="-0.20479">
        <ele>1419.5</ele>
        <time>2026-07-15T06:49:18Z</time>
      </trkpt>
      <trkpt lat="42.89866" lon="-0.20479">
        <ele>1420.5</ele>
        <time>2026-07-15T06:49:18Z</time>
      </trkpt>
      <trkpt lat="42.89866" lon="-0.20479">
        <ele>1420.5</ele>
        <time>2026-07-15T06:49:19Z</time>
      </trkpt>
      <trkpt lat="42.89865" lon="-0.20479">
        <ele>1420.5</ele>
        <time>2026-07-15T06:49:20Z</time>
      </trkpt>
      <trkpt lat="42.89865" lon="-0.2048">
        <ele>1420.5</ele>
        <time>2026-07-15T06:49:21Z</time>
      </trkpt>
      <trkpt lat="42.89864" lon="-0.2048">
        <ele>1420.5</ele>
        <time>2026-07-15T06:49:22Z</time>
      </trkpt>
      <trkpt lat="42.89864" lon="-0.2048">
        <ele>1420.5</ele>
        <time>2026-07-15T06:49:22Z</time>
      </trkpt>
      <trkpt lat="42.89863" lon="-0.2048">
        <ele>1420.5</ele>
        <time>2026-07-15T06:49:23Z</time>
      </trkpt>
      <trkpt lat="42.89862" lon="-0.2048">
        <ele>1421.5</ele>
        <time>2026-07-15T06:49:24Z</time>
      </trkpt>
      <trkpt lat="42.89862" lon="-0.2048">
        <ele>1421.5</ele>
        <time>2026-07-15T06:49:25Z</time>
      </trkpt>
      <trkpt lat="42.89861" lon="-0.2048">
        <ele>1422.5</ele>
        <time>2026-07-15T06:49:26Z</time>
      </trkpt>
      <trkpt lat="42.89861" lon="-0.2048">
        <ele>1422.5</ele>
        <time>2026-07-15T06:49:26Z</time>
      </trkpt>
      <trkpt lat="42.89861" lon="-0.2048">
        <ele>1421.5</ele>
        <time>2026-07-15T06:49:27Z</time>
      </trkpt>
      <trkpt lat="42.8986" lon="-0.2048">
        <ele>1421.5</ele>
        <time>2026-07-15T06:49:28Z</time>
      </trkpt>
      <trkpt lat="42.8986" lon="-0.2048">
        <ele>1421.5</ele>
        <time>2026-07-15T06:49:29Z</time>
      </trkpt>
      <trkpt lat="42.89859" lon="-0.20479">
        <ele>1421.5</ele>
        <time>2026-07-15T06:49:29Z</time>
      </trkpt>
      <trkpt lat="42.89859" lon="-0.20479">
        <ele>1421.5</ele>
        <time>2026-07-15T06:49:30Z</time>
      </trkpt>
      <trkpt lat="42.89859" lon="-0.20479">
        <ele>1421.5</ele>
        <time>2026-07-15T06:49:31Z</time>
      </trkpt>
      <trkpt lat="42.89858" lon="-0.20479">
        <ele>1421.5</ele>
        <time>2026-07-15T06:49:32Z</time>
      </trkpt>
      <trkpt lat="42.89858" lon="-0.20479">
        <ele>1422.5</ele>
        <time>2026-07-15T06:49:33Z</time>
      </trkpt>
      <trkpt lat="42.89858" lon="-0.2048">
        <ele>1422.5</ele>
        <time>2026-07-15T06:49:34Z</time>
      </trkpt>
      <trkpt lat="42.89858" lon="-0.2048">
        <ele>1422.5</ele>
        <time>2026-07-15T06:49:34Z</time>
      </trkpt>
      <trkpt lat="42.89857" lon="-0.2048">
        <ele>1422.5</ele>
        <time>2026-07-15T06:49:35Z</time>
      </trkpt>
      <trkpt lat="42.89857" lon="-0.2048">
        <ele>1422.5</ele>
        <time>2026-07-15T06:49:36Z</time>
      </trkpt>
      <trkpt lat="42.89856" lon="-0.2048">
        <ele>1423.5</ele>
        <time>2026-07-15T06:49:37Z</time>
      </trkpt>
      <trkpt lat="42.89856" lon="-0.2048">
        <ele>1422.5</ele>
        <time>2026-07-15T06:49:38Z</time>
      </trkpt>
      <trkpt lat="42.89856" lon="-0.2048">
        <ele>1422.5</ele>
        <time>2026-07-15T06:49:38Z</time>
      </trkpt>
      <trkpt lat="42.89855" lon="-0.2048">
        <ele>1422.5</ele>
        <time>2026-07-15T06:49:39Z</time>
      </trkpt>
      <trkpt lat="42.89854" lon="-0.2048">
        <ele>1423.5</ele>
        <time>2026-07-15T06:49:40Z</time>
      </trkpt>
      <trkpt lat="42.89854" lon="-0.2048">
        <ele>1422.5</ele>
        <time>2026-07-15T06:49:41Z</time>
      </trkpt>
      <trkpt lat="42.89854" lon="-0.20479">
        <ele>1423.5</ele>
        <time>2026-07-15T06:49:41Z</time>
      </trkpt>
      <trkpt lat="42.89853" lon="-0.20479">
        <ele>1423.5</ele>
        <time>2026-07-15T06:49:42Z</time>
      </trkpt>
      <trkpt lat="42.89852" lon="-0.2048">
        <ele>1423.5</ele>
        <time>2026-07-15T06:49:43Z</time>
      </trkpt>
      <trkpt lat="42.89852" lon="-0.20479">
        <ele>1423.5</ele>
        <time>2026-07-15T06:49:44Z</time>
      </trkpt>
      <trkpt lat="42.89851" lon="-0.20479">
        <ele>1423.5</ele>
        <time>2026-07-15T06:49:45Z</time>
      </trkpt>
      <trkpt lat="42.89851" lon="-0.20479">
        <ele>1423.5</ele>
        <time>2026-07-15T06:49:45Z</time>
      </trkpt>
      <trkpt lat="42.8985" lon="-0.20479">
        <ele>1423.5</ele>
        <time>2026-07-15T06:49:46Z</time>
      </trkpt>
      <trkpt lat="42.8985" lon="-0.20479">
        <ele>1423.5</ele>
        <time>2026-07-15T06:49:47Z</time>
      </trkpt>
      <trkpt lat="42.89849" lon="-0.20478">
        <ele>1424.5</ele>
        <time>2026-07-15T06:49:48Z</time>
      </trkpt>
      <trkpt lat="42.89849" lon="-0.20478">
        <ele>1423.5</ele>
        <time>2026-07-15T06:49:48Z</time>
      </trkpt>
      <trkpt lat="42.89849" lon="-0.20478">
        <ele>1423.5</ele>
        <time>2026-07-15T06:49:49Z</time>
      </trkpt>
      <trkpt lat="42.89848" lon="-0.20478">
        <ele>1423.5</ele>
        <time>2026-07-15T06:49:50Z</time>
      </trkpt>
      <trkpt lat="42.89848" lon="-0.20478">
        <ele>1423.5</ele>
        <time>2026-07-15T06:49:51Z</time>
      </trkpt>
      <trkpt lat="42.89847" lon="-0.20478">
        <ele>1423.5</ele>
        <time>2026-07-15T06:49:51Z</time>
      </trkpt>
      <trkpt lat="42.89847" lon="-0.20478">
        <ele>1423.5</ele>
        <time>2026-07-15T06:49:52Z</time>
      </trkpt>
      <trkpt lat="42.89846" lon="-0.20478">
        <ele>1423.5</ele>
        <time>2026-07-15T06:49:53Z</time>
      </trkpt>
      <trkpt lat="42.89845" lon="-0.20479">
        <ele>1423.5</ele>
        <time>2026-07-15T06:49:54Z</time>
      </trkpt>
      <trkpt lat="42.89845" lon="-0.20479">
        <ele>1423.5</ele>
        <time>2026-07-15T06:49:54Z</time>
      </trkpt>
      <trkpt lat="42.89845" lon="-0.20479">
        <ele>1423.5</ele>
        <time>2026-07-15T06:49:55Z</time>
      </trkpt>
      <trkpt lat="42.89844" lon="-0.20479">
        <ele>1423.5</ele>
        <time>2026-07-15T06:49:56Z</time>
      </trkpt>
      <trkpt lat="42.89844" lon="-0.20479">
        <ele>1423.5</ele>
        <time>2026-07-15T06:49:57Z</time>
      </trkpt>
      <trkpt lat="42.89843" lon="-0.20479">
        <ele>1423.5</ele>
        <time>2026-07-15T06:49:57Z</time>
      </trkpt>
      <trkpt lat="42.89843" lon="-0.20479">
        <ele>1423.5</ele>
        <time>2026-07-15T06:49:58Z</time>
      </trkpt>
      <trkpt lat="42.89842" lon="-0.20479">
        <ele>1422.5</ele>
        <time>2026-07-15T06:49:59Z</time>
      </trkpt>
      <trkpt lat="42.89842" lon="-0.20479">
        <ele>1423.5</ele>
        <time>2026-07-15T06:49:59Z</time>
      </trkpt>
      <trkpt lat="42.89841" lon="-0.20479">
        <ele>1423.5</ele>
        <time>2026-07-15T06:50:00Z</time>
      </trkpt>
      <trkpt lat="42.8984" lon="-0.20478">
        <ele>1423.5</ele>
        <time>2026-07-15T06:50:01Z</time>
      </trkpt>
      <trkpt lat="42.8984" lon="-0.20478">
        <ele>1423.5</ele>
        <time>2026-07-15T06:50:01Z</time>
      </trkpt>
      <trkpt lat="42.89839" lon="-0.20478">
        <ele>1423.5</ele>
        <time>2026-07-15T06:50:02Z</time>
      </trkpt>
      <trkpt lat="42.89839" lon="-0.20478">
        <ele>1423.5</ele>
        <time>2026-07-15T06:50:03Z</time>
      </trkpt>
      <trkpt lat="42.89838" lon="-0.20478">
        <ele>1424.5</ele>
        <time>2026-07-15T06:50:03Z</time>
      </trkpt>
      <trkpt lat="42.89837" lon="-0.20478">
        <ele>1424.5</ele>
        <time>2026-07-15T06:50:04Z</time>
      </trkpt>
      <trkpt lat="42.89837" lon="-0.20478">
        <ele>1423.5</ele>
        <time>2026-07-15T06:50:05Z</time>
      </trkpt>
      <trkpt lat="42.89836" lon="-0.20477">
        <ele>1423.5</ele>
        <time>2026-07-15T06:50:05Z</time>
      </trkpt>
      <trkpt lat="42.89836" lon="-0.20477">
        <ele>1423.5</ele>
        <time>2026-07-15T06:50:06Z</time>
      </trkpt>
      <trkpt lat="42.89835" lon="-0.20477">
        <ele>1423.5</ele>
        <time>2026-07-15T06:50:07Z</time>
      </trkpt>
      <trkpt lat="42.89835" lon="-0.20477">
        <ele>1423.5</ele>
        <time>2026-07-15T06:50:07Z</time>
      </trkpt>
      <trkpt lat="42.89834" lon="-0.20477">
        <ele>1423.5</ele>
        <time>2026-07-15T06:50:08Z</time>
      </trkpt>
      <trkpt lat="42.89834" lon="-0.20476">
        <ele>1423.5</ele>
        <time>2026-07-15T06:50:08Z</time>
      </trkpt>
      <trkpt lat="42.89833" lon="-0.20477">
        <ele>1422.5</ele>
        <time>2026-07-15T06:50:09Z</time>
      </trkpt>
      <trkpt lat="42.89833" lon="-0.20477">
        <ele>1422.5</ele>
        <time>2026-07-15T06:50:10Z</time>
      </trkpt>
      <trkpt lat="42.89832" lon="-0.20477">
        <ele>1422.5</ele>
        <time>2026-07-15T06:50:10Z</time>
      </trkpt>
      <trkpt lat="42.89832" lon="-0.20478">
        <ele>1423.5</ele>
        <time>2026-07-15T06:50:11Z</time>
      </trkpt>
      <trkpt lat="42.89831" lon="-0.20478">
        <ele>1423.5</ele>
        <time>2026-07-15T06:50:12Z</time>
      </trkpt>
      <trkpt lat="42.89831" lon="-0.20478">
        <ele>1424.5</ele>
        <time>2026-07-15T06:50:13Z</time>
      </trkpt>
      <trkpt lat="42.8983" lon="-0.20479">
        <ele>1424.5</ele>
        <time>2026-07-15T06:50:13Z</time>
      </trkpt>
      <trkpt lat="42.8983" lon="-0.20479">
        <ele>1424.5</ele>
        <time>2026-07-15T06:50:14Z</time>
      </trkpt>
      <trkpt lat="42.89829" lon="-0.20479">
        <ele>1424.5</ele>
        <time>2026-07-15T06:50:15Z</time>
      </trkpt>
      <trkpt lat="42.89829" lon="-0.20479">
        <ele>1423.5</ele>
        <time>2026-07-15T06:50:15Z</time>
      </trkpt>
      <trkpt lat="42.89828" lon="-0.2048">
        <ele>1423.5</ele>
        <time>2026-07-15T06:50:16Z</time>
      </trkpt>
      <trkpt lat="42.89828" lon="-0.2048">
        <ele>1423.5</ele>
        <time>2026-07-15T06:50:17Z</time>
      </trkpt>
      <trkpt lat="42.89828" lon="-0.20481">
        <ele>1423.5</ele>
        <time>2026-07-15T06:50:17Z</time>
      </trkpt>
      <trkpt lat="42.89827" lon="-0.20481">
        <ele>1423.5</ele>
        <time>2026-07-15T06:50:18Z</time>
      </trkpt>
      <trkpt lat="42.89827" lon="-0.20482">
        <ele>1423.5</ele>
        <time>2026-07-15T06:50:19Z</time>
      </trkpt>
      <trkpt lat="42.89826" lon="-0.20482">
        <ele>1423.5</ele>
        <time>2026-07-15T06:50:20Z</time>
      </trkpt>
      <trkpt lat="42.89826" lon="-0.20483">
        <ele>1424.5</ele>
        <time>2026-07-15T06:50:20Z</time>
      </trkpt>
      <trkpt lat="42.89826" lon="-0.20483">
        <ele>1424.5</ele>
        <time>2026-07-15T06:50:21Z</time>
      </trkpt>
      <trkpt lat="42.89825" lon="-0.20484">
        <ele>1424.5</ele>
        <time>2026-07-15T06:50:22Z</time>
      </trkpt>
      <trkpt lat="42.89826" lon="-0.20485">
        <ele>1424.5</ele>
        <time>2026-07-15T06:50:23Z</time>
      </trkpt>
      <trkpt lat="42.89826" lon="-0.20486">
        <ele>1424.5</ele>
        <time>2026-07-15T06:50:23Z</time>
      </trkpt>
      <trkpt lat="42.89826" lon="-0.20487">
        <ele>1424.5</ele>
        <time>2026-07-15T06:50:24Z</time>
      </trkpt>
      <trkpt lat="42.89825" lon="-0.20488">
        <ele>1424.5</ele>
        <time>2026-07-15T06:50:24Z</time>
      </trkpt>
      <trkpt lat="42.89825" lon="-0.20488">
        <ele>1424.5</ele>
        <time>2026-07-15T06:50:25Z</time>
      </trkpt>
      <trkpt lat="42.89825" lon="-0.20489">
        <ele>1425.5</ele>
        <time>2026-07-15T06:50:26Z</time>
      </trkpt>
      <trkpt lat="42.89825" lon="-0.2049">
        <ele>1426.5</ele>
        <time>2026-07-15T06:50:26Z</time>
      </trkpt>
      <trkpt lat="42.89824" lon="-0.20491">
        <ele>1426.5</ele>
        <time>2026-07-15T06:50:27Z</time>
      </trkpt>
      <trkpt lat="42.89824" lon="-0.20492">
        <ele>1427.5</ele>
        <time>2026-07-15T06:50:28Z</time>
      </trkpt>
      <trkpt lat="42.89824" lon="-0.20492">
        <ele>1427.5</ele>
        <time>2026-07-15T06:50:28Z</time>
      </trkpt>
      <trkpt lat="42.89823" lon="-0.20493">
        <ele>1428.5</ele>
        <time>2026-07-15T06:50:29Z</time>
      </trkpt>
      <trkpt lat="42.89823" lon="-0.20493">
        <ele>1428.5</ele>
        <time>2026-07-15T06:50:30Z</time>
      </trkpt>
      <trkpt lat="42.89823" lon="-0.20494">
        <ele>1428.5</ele>
        <time>2026-07-15T06:50:31Z</time>
      </trkpt>
      <trkpt lat="42.89822" lon="-0.20494">
        <ele>1429.5</ele>
        <time>2026-07-15T06:50:31Z</time>
      </trkpt>
      <trkpt lat="42.89822" lon="-0.20495">
        <ele>1430.5</ele>
        <time>2026-07-15T06:50:32Z</time>
      </trkpt>
      <trkpt lat="42.89822" lon="-0.20496">
        <ele>1430.5</ele>
        <time>2026-07-15T06:50:33Z</time>
      </trkpt>
      <trkpt lat="42.89822" lon="-0.20496">
        <ele>1429.5</ele>
        <time>2026-07-15T06:50:34Z</time>
      </trkpt>
      <trkpt lat="42.89821" lon="-0.20497">
        <ele>1429.5</ele>
        <time>2026-07-15T06:50:34Z</time>
      </trkpt>
      <trkpt lat="42.89821" lon="-0.20498">
        <ele>1429.5</ele>
        <time>2026-07-15T06:50:35Z</time>
      </trkpt>
      <trkpt lat="42.89821" lon="-0.20498">
        <ele>1429.5</ele>
        <time>2026-07-15T06:50:36Z</time>
      </trkpt>
      <trkpt lat="42.89821" lon="-0.20499">
        <ele>1428.5</ele>
        <time>2026-07-15T06:50:36Z</time>
      </trkpt>
      <trkpt lat="42.8982" lon="-0.205">
        <ele>1428.5</ele>
        <time>2026-07-15T06:50:37Z</time>
      </trkpt>
      <trkpt lat="42.8982" lon="-0.205">
        <ele>1428.5</ele>
        <time>2026-07-15T06:50:38Z</time>
      </trkpt>
      <trkpt lat="42.8982" lon="-0.20501">
        <ele>1428.5</ele>
        <time>2026-07-15T06:50:39Z</time>
      </trkpt>
      <trkpt lat="42.8982" lon="-0.20502">
        <ele>1428.5</ele>
        <time>2026-07-15T06:50:39Z</time>
      </trkpt>
      <trkpt lat="42.8982" lon="-0.20502">
        <ele>1428.5</ele>
        <time>2026-07-15T06:50:40Z</time>
      </trkpt>
      <trkpt lat="42.8982" lon="-0.20503">
        <ele>1428.5</ele>
        <time>2026-07-15T06:50:41Z</time>
      </trkpt>
      <trkpt lat="42.8982" lon="-0.20504">
        <ele>1427.5</ele>
        <time>2026-07-15T06:50:41Z</time>
      </trkpt>
      <trkpt lat="42.8982" lon="-0.20504">
        <ele>1427.5</ele>
        <time>2026-07-15T06:50:42Z</time>
      </trkpt>
      <trkpt lat="42.89821" lon="-0.20505">
        <ele>1428.5</ele>
        <time>2026-07-15T06:50:43Z</time>
      </trkpt>
      <trkpt lat="42.89821" lon="-0.20506">
        <ele>1428.5</ele>
        <time>2026-07-15T06:50:44Z</time>
      </trkpt>
      <trkpt lat="42.89821" lon="-0.20507">
        <ele>1428.5</ele>
        <time>2026-07-15T06:50:45Z</time>
      </trkpt>
      <trkpt lat="42.89821" lon="-0.20507">
        <ele>1428.5</ele>
        <time>2026-07-15T06:50:45Z</time>
      </trkpt>
      <trkpt lat="42.89821" lon="-0.20508">
        <ele>1428.5</ele>
        <time>2026-07-15T06:50:46Z</time>
      </trkpt>
      <trkpt lat="42.89822" lon="-0.20509">
        <ele>1428.5</ele>
        <time>2026-07-15T06:50:47Z</time>
      </trkpt>
      <trkpt lat="42.89822" lon="-0.2051">
        <ele>1428.5</ele>
        <time>2026-07-15T06:50:48Z</time>
      </trkpt>
      <trkpt lat="42.89821" lon="-0.2051">
        <ele>1428.5</ele>
        <time>2026-07-15T06:50:48Z</time>
      </trkpt>
      <trkpt lat="42.89821" lon="-0.20511">
        <ele>1428.5</ele>
        <time>2026-07-15T06:50:49Z</time>
      </trkpt>
      <trkpt lat="42.89821" lon="-0.20512">
        <ele>1427.5</ele>
        <time>2026-07-15T06:50:50Z</time>
      </trkpt>
      <trkpt lat="42.89821" lon="-0.20512">
        <ele>1428.5</ele>
        <time>2026-07-15T06:50:51Z</time>
      </trkpt>
      <trkpt lat="42.8982" lon="-0.20512">
        <ele>1429.5</ele>
        <time>2026-07-15T06:50:51Z</time>
      </trkpt>
      <trkpt lat="42.8982" lon="-0.20513">
        <ele>1429.5</ele>
        <time>2026-07-15T06:50:52Z</time>
      </trkpt>
      <trkpt lat="42.8982" lon="-0.20514">
        <ele>1429.5</ele>
        <time>2026-07-15T06:50:53Z</time>
      </trkpt>
      <trkpt lat="42.89819" lon="-0.20514">
        <ele>1430.5</ele>
        <time>2026-07-15T06:50:54Z</time>
      </trkpt>
      <trkpt lat="42.89819" lon="-0.20514">
        <ele>1430.5</ele>
        <time>2026-07-15T06:50:54Z</time>
      </trkpt>
      <trkpt lat="42.89819" lon="-0.20515">
        <ele>1430.5</ele>
        <time>2026-07-15T06:50:55Z</time>
      </trkpt>
      <trkpt lat="42.89819" lon="-0.20516">
        <ele>1430.5</ele>
        <time>2026-07-15T06:50:56Z</time>
      </trkpt>
      <trkpt lat="42.89819" lon="-0.20516">
        <ele>1430.5</ele>
        <time>2026-07-15T06:50:57Z</time>
      </trkpt>
      <trkpt lat="42.89819" lon="-0.20517">
        <ele>1430.5</ele>
        <time>2026-07-15T06:50:58Z</time>
      </trkpt>
      <trkpt lat="42.89819" lon="-0.20517">
        <ele>1431.5</ele>
        <time>2026-07-15T06:50:58Z</time>
      </trkpt>
      <trkpt lat="42.89819" lon="-0.20518">
        <ele>1431.5</ele>
        <time>2026-07-15T06:50:59Z</time>
      </trkpt>
      <trkpt lat="42.89819" lon="-0.20519">
        <ele>1430.5</ele>
        <time>2026-07-15T06:51:00Z</time>
      </trkpt>
      <trkpt lat="42.89819" lon="-0.2052">
        <ele>1431.5</ele>
        <time>2026-07-15T06:51:01Z</time>
      </trkpt>
      <trkpt lat="42.89819" lon="-0.2052">
        <ele>1431.5</ele>
        <time>2026-07-15T06:51:01Z</time>
      </trkpt>
      <trkpt lat="42.89819" lon="-0.2052">
        <ele>1432.5</ele>
        <time>2026-07-15T06:51:02Z</time>
      </trkpt>
      <trkpt lat="42.89819" lon="-0.20521">
        <ele>1432.5</ele>
        <time>2026-07-15T06:51:03Z</time>
      </trkpt>
      <trkpt lat="42.89819" lon="-0.20522">
        <ele>1432.5</ele>
        <time>2026-07-15T06:51:04Z</time>
      </trkpt>
      <trkpt lat="42.89818" lon="-0.20523">
        <ele>1433.5</ele>
        <time>2026-07-15T06:51:05Z</time>
      </trkpt>
      <trkpt lat="42.89818" lon="-0.20523">
        <ele>1433.5</ele>
        <time>2026-07-15T06:51:05Z</time>
      </trkpt>
      <trkpt lat="42.89818" lon="-0.20524">
        <ele>1433.5</ele>
        <time>2026-07-15T06:51:06Z</time>
      </trkpt>
      <trkpt lat="42.89818" lon="-0.20525">
        <ele>1433.5</ele>
        <time>2026-07-15T06:51:07Z</time>
      </trkpt>
      <trkpt lat="42.89818" lon="-0.20525">
        <ele>1432.5</ele>
        <time>2026-07-15T06:51:07Z</time>
      </trkpt>
      <trkpt lat="42.89819" lon="-0.20526">
        <ele>1432.5</ele>
        <time>2026-07-15T06:51:08Z</time>
      </trkpt>
      <trkpt lat="42.89819" lon="-0.20526">
        <ele>1432.5</ele>
        <time>2026-07-15T06:51:08Z</time>
      </trkpt>
      <trkpt lat="42.89819" lon="-0.20527">
        <ele>1432.5</ele>
        <time>2026-07-15T06:51:09Z</time>
      </trkpt>
      <trkpt lat="42.89819" lon="-0.20528">
        <ele>1432.5</ele>
        <time>2026-07-15T06:51:10Z</time>
      </trkpt>
      <trkpt lat="42.89818" lon="-0.20528">
        <ele>1432.5</ele>
        <time>2026-07-15T06:51:11Z</time>
      </trkpt>
      <trkpt lat="42.89818" lon="-0.20529">
        <ele>1432.5</ele>
        <time>2026-07-15T06:51:11Z</time>
      </trkpt>
      <trkpt lat="42.89818" lon="-0.2053">
        <ele>1432.5</ele>
        <time>2026-07-15T06:51:12Z</time>
      </trkpt>
      <trkpt lat="42.89818" lon="-0.2053">
        <ele>1432.5</ele>
        <time>2026-07-15T06:51:12Z</time>
      </trkpt>
      <trkpt lat="42.89818" lon="-0.2053">
        <ele>1432.5</ele>
        <time>2026-07-15T06:51:13Z</time>
      </trkpt>
      <trkpt lat="42.89817" lon="-0.20531">
        <ele>1432.5</ele>
        <time>2026-07-15T06:51:14Z</time>
      </trkpt>
      <trkpt lat="42.89817" lon="-0.20532">
        <ele>1432.5</ele>
        <time>2026-07-15T06:51:15Z</time>
      </trkpt>
      <trkpt lat="42.89817" lon="-0.20532">
        <ele>1432.5</ele>
        <time>2026-07-15T06:51:16Z</time>
      </trkpt>
      <trkpt lat="42.89816" lon="-0.20533">
        <ele>1432.5</ele>
        <time>2026-07-15T06:51:16Z</time>
      </trkpt>
      <trkpt lat="42.89816" lon="-0.20533">
        <ele>1432.5</ele>
        <time>2026-07-15T06:51:17Z</time>
      </trkpt>
      <trkpt lat="42.89816" lon="-0.20534">
        <ele>1432.5</ele>
        <time>2026-07-15T06:51:18Z</time>
      </trkpt>
      <trkpt lat="42.89815" lon="-0.20534">
        <ele>1432.5</ele>
        <time>2026-07-15T06:51:19Z</time>
      </trkpt>
      <trkpt lat="42.89815" lon="-0.20535">
        <ele>1432.5</ele>
        <time>2026-07-15T06:51:19Z</time>
      </trkpt>
      <trkpt lat="42.89814" lon="-0.20535">
        <ele>1432.5</ele>
        <time>2026-07-15T06:51:20Z</time>
      </trkpt>
      <trkpt lat="42.89814" lon="-0.20536">
        <ele>1432.5</ele>
        <time>2026-07-15T06:51:21Z</time>
      </trkpt>
      <trkpt lat="42.89814" lon="-0.20536">
        <ele>1433.5</ele>
        <time>2026-07-15T06:51:22Z</time>
      </trkpt>
      <trkpt lat="42.89814" lon="-0.20537">
        <ele>1433.5</ele>
        <time>2026-07-15T06:51:23Z</time>
      </trkpt>
      <trkpt lat="42.89814" lon="-0.20537">
        <ele>1433.5</ele>
        <time>2026-07-15T06:51:23Z</time>
      </trkpt>
      <trkpt lat="42.89814" lon="-0.20538">
        <ele>1434.5</ele>
        <time>2026-07-15T06:51:24Z</time>
      </trkpt>
      <trkpt lat="42.89814" lon="-0.20538">
        <ele>1434.5</ele>
        <time>2026-07-15T06:51:25Z</time>
      </trkpt>
      <trkpt lat="42.89813" lon="-0.20539">
        <ele>1434.5</ele>
        <time>2026-07-15T06:51:25Z</time>
      </trkpt>
      <trkpt lat="42.89813" lon="-0.20539">
        <ele>1434.5</ele>
        <time>2026-07-15T06:51:26Z</time>
      </trkpt>
      <trkpt lat="42.89813" lon="-0.2054">
        <ele>1434.5</ele>
        <time>2026-07-15T06:51:27Z</time>
      </trkpt>
      <trkpt lat="42.89813" lon="-0.2054">
        <ele>1434.5</ele>
        <time>2026-07-15T06:51:28Z</time>
      </trkpt>
      <trkpt lat="42.89812" lon="-0.2054">
        <ele>1434.5</ele>
        <time>2026-07-15T06:51:29Z</time>
      </trkpt>
      <trkpt lat="42.89812" lon="-0.20541">
        <ele>1434.5</ele>
        <time>2026-07-15T06:51:29Z</time>
      </trkpt>
      <trkpt lat="42.89812" lon="-0.20541">
        <ele>1435.5</ele>
        <time>2026-07-15T06:51:30Z</time>
      </trkpt>
      <trkpt lat="42.89811" lon="-0.20541">
        <ele>1435.5</ele>
        <time>2026-07-15T06:51:31Z</time>
      </trkpt>
      <trkpt lat="42.89811" lon="-0.20542">
        <ele>1434.5</ele>
        <time>2026-07-15T06:51:32Z</time>
      </trkpt>
      <trkpt lat="42.8981" lon="-0.20542">
        <ele>1435.5</ele>
        <time>2026-07-15T06:51:33Z</time>
      </trkpt>
      <trkpt lat="42.8981" lon="-0.20543">
        <ele>1436.5</ele>
        <time>2026-07-15T06:51:34Z</time>
      </trkpt>
      <trkpt lat="42.8981" lon="-0.20543">
        <ele>1436.5</ele>
        <time>2026-07-15T06:51:34Z</time>
      </trkpt>
      <trkpt lat="42.89809" lon="-0.20543">
        <ele>1436.5</ele>
        <time>2026-07-15T06:51:35Z</time>
      </trkpt>
      <trkpt lat="42.89809" lon="-0.20544">
        <ele>1436.5</ele>
        <time>2026-07-15T06:51:36Z</time>
      </trkpt>
      <trkpt lat="42.89809" lon="-0.20544">
        <ele>1437.5</ele>
        <time>2026-07-15T06:51:37Z</time>
      </trkpt>
      <trkpt lat="42.89809" lon="-0.20545">
        <ele>1437.5</ele>
        <time>2026-07-15T06:51:38Z</time>
      </trkpt>
      <trkpt lat="42.89809" lon="-0.20546">
        <ele>1437.5</ele>
        <time>2026-07-15T06:51:39Z</time>
      </trkpt>
      <trkpt lat="42.89809" lon="-0.20546">
        <ele>1437.5</ele>
        <time>2026-07-15T06:51:39Z</time>
      </trkpt>
      <trkpt lat="42.89809" lon="-0.20547">
        <ele>1438.5</ele>
        <time>2026-07-15T06:51:40Z</time>
      </trkpt>
      <trkpt lat="42.89809" lon="-0.20547">
        <ele>1438.5</ele>
        <time>2026-07-15T06:51:41Z</time>
      </trkpt>
      <trkpt lat="42.89809" lon="-0.20548">
        <ele>1438.5</ele>
        <time>2026-07-15T06:51:42Z</time>
      </trkpt>
      <trkpt lat="42.89809" lon="-0.20548">
        <ele>1438.5</ele>
        <time>2026-07-15T06:51:43Z</time>
      </trkpt>
      <trkpt lat="42.89809" lon="-0.20549">
        <ele>1437.5</ele>
        <time>2026-07-15T06:51:44Z</time>
      </trkpt>
      <trkpt lat="42.89809" lon="-0.20549">
        <ele>1438.5</ele>
        <time>2026-07-15T06:51:44Z</time>
      </trkpt>
      <trkpt lat="42.89809" lon="-0.2055">
        <ele>1438.5</ele>
        <time>2026-07-15T06:51:45Z</time>
      </trkpt>
      <trkpt lat="42.89809" lon="-0.20551">
        <ele>1438.5</ele>
        <time>2026-07-15T06:51:46Z</time>
      </trkpt>
      <trkpt lat="42.89809" lon="-0.20551">
        <ele>1438.5</ele>
        <time>2026-07-15T06:51:47Z</time>
      </trkpt>
      <trkpt lat="42.89809" lon="-0.20552">
        <ele>1438.5</ele>
        <time>2026-07-15T06:51:47Z</time>
      </trkpt>
      <trkpt lat="42.89809" lon="-0.20552">
        <ele>1438.5</ele>
        <time>2026-07-15T06:51:48Z</time>
      </trkpt>
      <trkpt lat="42.89809" lon="-0.20553">
        <ele>1438.5</ele>
        <time>2026-07-15T06:51:49Z</time>
      </trkpt>
      <trkpt lat="42.89809" lon="-0.20553">
        <ele>1438.5</ele>
        <time>2026-07-15T06:51:50Z</time>
      </trkpt>
      <trkpt lat="42.89809" lon="-0.20554">
        <ele>1438.5</ele>
        <time>2026-07-15T06:51:51Z</time>
      </trkpt>
      <trkpt lat="42.89808" lon="-0.20554">
        <ele>1438.5</ele>
        <time>2026-07-15T06:51:52Z</time>
      </trkpt>
      <trkpt lat="42.89808" lon="-0.20554">
        <ele>1438.5</ele>
        <time>2026-07-15T06:51:52Z</time>
      </trkpt>
      <trkpt lat="42.89808" lon="-0.20554">
        <ele>1438.5</ele>
        <time>2026-07-15T06:51:53Z</time>
      </trkpt>
      <trkpt lat="42.89808" lon="-0.20555">
        <ele>1438.5</ele>
        <time>2026-07-15T06:51:54Z</time>
      </trkpt>
      <trkpt lat="42.89808" lon="-0.20556">
        <ele>1438.5</ele>
        <time>2026-07-15T06:51:55Z</time>
      </trkpt>
      <trkpt lat="42.89808" lon="-0.20556">
        <ele>1438.5</ele>
        <time>2026-07-15T06:51:55Z</time>
      </trkpt>
      <trkpt lat="42.89808" lon="-0.20556">
        <ele>1438.5</ele>
        <time>2026-07-15T06:51:56Z</time>
      </trkpt>
      <trkpt lat="42.89808" lon="-0.20557">
        <ele>1439.5</ele>
        <time>2026-07-15T06:51:57Z</time>
      </trkpt>
      <trkpt lat="42.89807" lon="-0.20558">
        <ele>1439.5</ele>
        <time>2026-07-15T06:51:58Z</time>
      </trkpt>
      <trkpt lat="42.89807" lon="-0.20558">
        <ele>1439.5</ele>
        <time>2026-07-15T06:51:59Z</time>
      </trkpt>
      <trkpt lat="42.89807" lon="-0.20559">
        <ele>1440.5</ele>
        <time>2026-07-15T06:51:59Z</time>
      </trkpt>
      <trkpt lat="42.89807" lon="-0.2056">
        <ele>1440.5</ele>
        <time>2026-07-15T06:52:00Z</time>
      </trkpt>
      <trkpt lat="42.89806" lon="-0.2056">
        <ele>1440.5</ele>
        <time>2026-07-15T06:52:01Z</time>
      </trkpt>
      <trkpt lat="42.89806" lon="-0.20561">
        <ele>1440.5</ele>
        <time>2026-07-15T06:52:02Z</time>
      </trkpt>
      <trkpt lat="42.89806" lon="-0.20561">
        <ele>1440.5</ele>
        <time>2026-07-15T06:52:02Z</time>
      </trkpt>
      <trkpt lat="42.89806" lon="-0.20562">
        <ele>1439.5</ele>
        <time>2026-07-15T06:52:03Z</time>
      </trkpt>
      <trkpt lat="42.89806" lon="-0.20563">
        <ele>1439.5</ele>
        <time>2026-07-15T06:52:04Z</time>
      </trkpt>
      <trkpt lat="42.89806" lon="-0.20563">
        <ele>1440.5</ele>
        <time>2026-07-15T06:52:05Z</time>
      </trkpt>
      <trkpt lat="42.89806" lon="-0.20564">
        <ele>1440.5</ele>
        <time>2026-07-15T06:52:05Z</time>
      </trkpt>
      <trkpt lat="42.89806" lon="-0.20565">
        <ele>1440.5</ele>
        <time>2026-07-15T06:52:06Z</time>
      </trkpt>
      <trkpt lat="42.89807" lon="-0.20566">
        <ele>1440.5</ele>
        <time>2026-07-15T06:52:07Z</time>
      </trkpt>
      <trkpt lat="42.89807" lon="-0.20567">
        <ele>1440.5</ele>
        <time>2026-07-15T06:52:07Z</time>
      </trkpt>
      <trkpt lat="42.89807" lon="-0.20568">
        <ele>1440.5</ele>
        <time>2026-07-15T06:52:08Z</time>
      </trkpt>
      <trkpt lat="42.89807" lon="-0.20569">
        <ele>1440.5</ele>
        <time>2026-07-15T06:52:09Z</time>
      </trkpt>
      <trkpt lat="42.89807" lon="-0.2057">
        <ele>1440.5</ele>
        <time>2026-07-15T06:52:10Z</time>
      </trkpt>
      <trkpt lat="42.89807" lon="-0.2057">
        <ele>1440.5</ele>
        <time>2026-07-15T06:52:10Z</time>
      </trkpt>
      <trkpt lat="42.89807" lon="-0.20571">
        <ele>1440.5</ele>
        <time>2026-07-15T06:52:11Z</time>
      </trkpt>
      <trkpt lat="42.89807" lon="-0.20572">
        <ele>1440.5</ele>
        <time>2026-07-15T06:52:12Z</time>
      </trkpt>
      <trkpt lat="42.89806" lon="-0.20573">
        <ele>1441.5</ele>
        <time>2026-07-15T06:52:12Z</time>
      </trkpt>
      <trkpt lat="42.89806" lon="-0.20574">
        <ele>1441.5</ele>
        <time>2026-07-15T06:52:13Z</time>
      </trkpt>
      <trkpt lat="42.89806" lon="-0.20575">
        <ele>1441.5</ele>
        <time>2026-07-15T06:52:14Z</time>
      </trkpt>
      <trkpt lat="42.89806" lon="-0.20575">
        <ele>1441.5</ele>
        <time>2026-07-15T06:52:15Z</time>
      </trkpt>
      <trkpt lat="42.89806" lon="-0.20576">
        <ele>1441.5</ele>
        <time>2026-07-15T06:52:15Z</time>
      </trkpt>
      <trkpt lat="42.89806" lon="-0.20577">
        <ele>1441.5</ele>
        <time>2026-07-15T06:52:16Z</time>
      </trkpt>
      <trkpt lat="42.89806" lon="-0.20578">
        <ele>1441.5</ele>
        <time>2026-07-15T06:52:17Z</time>
      </trkpt>
      <trkpt lat="42.89806" lon="-0.20578">
        <ele>1441.5</ele>
        <time>2026-07-15T06:52:18Z</time>
      </trkpt>
      <trkpt lat="42.89806" lon="-0.20579">
        <ele>1442.5</ele>
        <time>2026-07-15T06:52:18Z</time>
      </trkpt>
      <trkpt lat="42.89806" lon="-0.2058">
        <ele>1442.5</ele>
        <time>2026-07-15T06:52:19Z</time>
      </trkpt>
      <trkpt lat="42.89805" lon="-0.20581">
        <ele>1441.5</ele>
        <time>2026-07-15T06:52:20Z</time>
      </trkpt>
      <trkpt lat="42.89805" lon="-0.20582">
        <ele>1441.5</ele>
        <time>2026-07-15T06:52:21Z</time>
      </trkpt>
      <trkpt lat="42.89805" lon="-0.20583">
        <ele>1441.5</ele>
        <time>2026-07-15T06:52:21Z</time>
      </trkpt>
      <trkpt lat="42.89805" lon="-0.20583">
        <ele>1441.5</ele>
        <time>2026-07-15T06:52:22Z</time>
      </trkpt>
      <trkpt lat="42.89805" lon="-0.20584">
        <ele>1441.5</ele>
        <time>2026-07-15T06:52:23Z</time>
      </trkpt>
      <trkpt lat="42.89805" lon="-0.20585">
        <ele>1441.5</ele>
        <time>2026-07-15T06:52:24Z</time>
      </trkpt>
      <trkpt lat="42.89804" lon="-0.20586">
        <ele>1441.5</ele>
        <time>2026-07-15T06:52:24Z</time>
      </trkpt>
      <trkpt lat="42.89805" lon="-0.20586">
        <ele>1441.5</ele>
        <time>2026-07-15T06:52:25Z</time>
      </trkpt>
      <trkpt lat="42.89804" lon="-0.20587">
        <ele>1441.5</ele>
        <time>2026-07-15T06:52:26Z</time>
      </trkpt>
      <trkpt lat="42.89804" lon="-0.20588">
        <ele>1442.5</ele>
        <time>2026-07-15T06:52:27Z</time>
      </trkpt>
      <trkpt lat="42.89804" lon="-0.20588">
        <ele>1441.5</ele>
        <time>2026-07-15T06:52:27Z</time>
      </trkpt>
      <trkpt lat="42.89804" lon="-0.20589">
        <ele>1441.5</ele>
        <time>2026-07-15T06:52:28Z</time>
      </trkpt>
      <trkpt lat="42.89804" lon="-0.2059">
        <ele>1441.5</ele>
        <time>2026-07-15T06:52:29Z</time>
      </trkpt>
      <trkpt lat="42.89804" lon="-0.20591">
        <ele>1442.5</ele>
        <time>2026-07-15T06:52:30Z</time>
      </trkpt>
      <trkpt lat="42.89804" lon="-0.20591">
        <ele>1443.5</ele>
        <time>2026-07-15T06:52:30Z</time>
      </trkpt>
      <trkpt lat="42.89804" lon="-0.20592">
        <ele>1443.5</ele>
        <time>2026-07-15T06:52:31Z</time>
      </trkpt>
      <trkpt lat="42.89804" lon="-0.20593">
        <ele>1443.5</ele>
        <time>2026-07-15T06:52:32Z</time>
      </trkpt>
      <trkpt lat="42.89804" lon="-0.20594">
        <ele>1443.5</ele>
        <time>2026-07-15T06:52:33Z</time>
      </trkpt>
      <trkpt lat="42.89804" lon="-0.20594">
        <ele>1443.5</ele>
        <time>2026-07-15T06:52:33Z</time>
      </trkpt>
      <trkpt lat="42.89804" lon="-0.20595">
        <ele>1443.5</ele>
        <time>2026-07-15T06:52:34Z</time>
      </trkpt>
      <trkpt lat="42.89804" lon="-0.20595">
        <ele>1443.5</ele>
        <time>2026-07-15T06:52:35Z</time>
      </trkpt>
      <trkpt lat="42.89804" lon="-0.20596">
        <ele>1443.5</ele>
        <time>2026-07-15T06:52:36Z</time>
      </trkpt>
      <trkpt lat="42.89804" lon="-0.20596">
        <ele>1443.5</ele>
        <time>2026-07-15T06:52:37Z</time>
      </trkpt>
      <trkpt lat="42.89804" lon="-0.20596">
        <ele>1444.5</ele>
        <time>2026-07-15T06:52:37Z</time>
      </trkpt>
      <trkpt lat="42.89803" lon="-0.20597">
        <ele>1444.5</ele>
        <time>2026-07-15T06:52:38Z</time>
      </trkpt>
      <trkpt lat="42.89803" lon="-0.20597">
        <ele>1444.5</ele>
        <time>2026-07-15T06:52:39Z</time>
      </trkpt>
      <trkpt lat="42.89803" lon="-0.20598">
        <ele>1445.5</ele>
        <time>2026-07-15T06:52:40Z</time>
      </trkpt>
      <trkpt lat="42.89803" lon="-0.20598">
        <ele>1445.5</ele>
        <time>2026-07-15T06:52:41Z</time>
      </trkpt>
      <trkpt lat="42.89803" lon="-0.20599">
        <ele>1445.5</ele>
        <time>2026-07-15T06:52:41Z</time>
      </trkpt>
      <trkpt lat="42.89803" lon="-0.20599">
        <ele>1445.5</ele>
        <time>2026-07-15T06:52:42Z</time>
      </trkpt>
      <trkpt lat="42.89803" lon="-0.206">
        <ele>1445.5</ele>
        <time>2026-07-15T06:52:43Z</time>
      </trkpt>
      <trkpt lat="42.89803" lon="-0.20601">
        <ele>1446.5</ele>
        <time>2026-07-15T06:52:44Z</time>
      </trkpt>
      <trkpt lat="42.89804" lon="-0.20601">
        <ele>1445.5</ele>
        <time>2026-07-15T06:52:44Z</time>
      </trkpt>
      <trkpt lat="42.89804" lon="-0.20601">
        <ele>1445.5</ele>
        <time>2026-07-15T06:52:45Z</time>
      </trkpt>
      <trkpt lat="42.89804" lon="-0.20602">
        <ele>1445.5</ele>
        <time>2026-07-15T06:52:46Z</time>
      </trkpt>
      <trkpt lat="42.89804" lon="-0.20602">
        <ele>1445.5</ele>
        <time>2026-07-15T06:52:47Z</time>
      </trkpt>
      <trkpt lat="42.89804" lon="-0.20602">
        <ele>1445.5</ele>
        <time>2026-07-15T06:52:47Z</time>
      </trkpt>
      <trkpt lat="42.89803" lon="-0.20603">
        <ele>1444.5</ele>
        <time>2026-07-15T06:52:48Z</time>
      </trkpt>
      <trkpt lat="42.89803" lon="-0.20603">
        <ele>1444.5</ele>
        <time>2026-07-15T06:52:49Z</time>
      </trkpt>
      <trkpt lat="42.89803" lon="-0.20604">
        <ele>1446.5</ele>
        <time>2026-07-15T06:52:50Z</time>
      </trkpt>
      <trkpt lat="42.89802" lon="-0.20604">
        <ele>1447.5</ele>
        <time>2026-07-15T06:52:50Z</time>
      </trkpt>
      <trkpt lat="42.89802" lon="-0.20605">
        <ele>1447.5</ele>
        <time>2026-07-15T06:52:51Z</time>
      </trkpt>
      <trkpt lat="42.89801" lon="-0.20605">
        <ele>1447.5</ele>
        <time>2026-07-15T06:52:52Z</time>
      </trkpt>
      <trkpt lat="42.89801" lon="-0.20606">
        <ele>1447.5</ele>
        <time>2026-07-15T06:52:53Z</time>
      </trkpt>
      <trkpt lat="42.89801" lon="-0.20606">
        <ele>1447.5</ele>
        <time>2026-07-15T06:52:54Z</time>
      </trkpt>
      <trkpt lat="42.898" lon="-0.20606">
        <ele>1447.5</ele>
        <time>2026-07-15T06:52:54Z</time>
      </trkpt>
      <trkpt lat="42.89801" lon="-0.20606">
        <ele>1447.5</ele>
        <time>2026-07-15T06:52:55Z</time>
      </trkpt>
      <trkpt lat="42.89801" lon="-0.20607">
        <ele>1447.5</ele>
        <time>2026-07-15T06:52:56Z</time>
      </trkpt>
      <trkpt lat="42.89801" lon="-0.20608">
        <ele>1447.5</ele>
        <time>2026-07-15T06:52:57Z</time>
      </trkpt>
      <trkpt lat="42.89801" lon="-0.20608">
        <ele>1447.5</ele>
        <time>2026-07-15T06:52:58Z</time>
      </trkpt>
      <trkpt lat="42.89801" lon="-0.20608">
        <ele>1446.5</ele>
        <time>2026-07-15T06:52:58Z</time>
      </trkpt>
      <trkpt lat="42.89801" lon="-0.20608">
        <ele>1446.5</ele>
        <time>2026-07-15T06:52:59Z</time>
      </trkpt>
      <trkpt lat="42.89801" lon="-0.20609">
        <ele>1446.5</ele>
        <time>2026-07-15T06:53:00Z</time>
      </trkpt>
      <trkpt lat="42.89801" lon="-0.2061">
        <ele>1446.5</ele>
        <time>2026-07-15T06:53:01Z</time>
      </trkpt>
      <trkpt lat="42.898" lon="-0.2061">
        <ele>1447.5</ele>
        <time>2026-07-15T06:53:02Z</time>
      </trkpt>
      <trkpt lat="42.898" lon="-0.20611">
        <ele>1446.5</ele>
        <time>2026-07-15T06:53:03Z</time>
      </trkpt>
      <trkpt lat="42.898" lon="-0.20611">
        <ele>1447.5</ele>
        <time>2026-07-15T06:53:03Z</time>
      </trkpt>
      <trkpt lat="42.89799" lon="-0.20611">
        <ele>1447.5</ele>
        <time>2026-07-15T06:53:04Z</time>
      </trkpt>
      <trkpt lat="42.89799" lon="-0.20611">
        <ele>1448.5</ele>
        <time>2026-07-15T06:53:04Z</time>
      </trkpt>
      <trkpt lat="42.89799" lon="-0.20611">
        <ele>1448.5</ele>
        <time>2026-07-15T06:53:05Z</time>
      </trkpt>
      <trkpt lat="42.89798" lon="-0.20612">
        <ele>1448.5</ele>
        <time>2026-07-15T06:53:06Z</time>
      </trkpt>
      <trkpt lat="42.89798" lon="-0.20613">
        <ele>1448.5</ele>
        <time>2026-07-15T06:53:07Z</time>
      </trkpt>
      <trkpt lat="42.89798" lon="-0.20613">
        <ele>1449.5</ele>
        <time>2026-07-15T06:53:08Z</time>
      </trkpt>
      <trkpt lat="42.89797" lon="-0.20614">
        <ele>1449.5</ele>
        <time>2026-07-15T06:53:09Z</time>
      </trkpt>
      <trkpt lat="42.89797" lon="-0.20614">
        <ele>1449.5</ele>
        <time>2026-07-15T06:53:09Z</time>
      </trkpt>
      <trkpt lat="42.89797" lon="-0.20615">
        <ele>1449.5</ele>
        <time>2026-07-15T06:53:10Z</time>
      </trkpt>
      <trkpt lat="42.89796" lon="-0.20616">
        <ele>1449.5</ele>
        <time>2026-07-15T06:53:11Z</time>
      </trkpt>
      <trkpt lat="42.89796" lon="-0.20616">
        <ele>1449.5</ele>
        <time>2026-07-15T06:53:12Z</time>
      </trkpt>
      <trkpt lat="42.89796" lon="-0.20617">
        <ele>1449.5</ele>
        <time>2026-07-15T06:53:12Z</time>
      </trkpt>
      <trkpt lat="42.89795" lon="-0.20617">
        <ele>1449.5</ele>
        <time>2026-07-15T06:53:13Z</time>
      </trkpt>
      <trkpt lat="42.89795" lon="-0.20618">
        <ele>1449.5</ele>
        <time>2026-07-15T06:53:14Z</time>
      </trkpt>
      <trkpt lat="42.89795" lon="-0.20618">
        <ele>1450.5</ele>
        <time>2026-07-15T06:53:15Z</time>
      </trkpt>
      <trkpt lat="42.89795" lon="-0.20619">
        <ele>1450.5</ele>
        <time>2026-07-15T06:53:15Z</time>
      </trkpt>
      <trkpt lat="42.89795" lon="-0.20619">
        <ele>1450.5</ele>
        <time>2026-07-15T06:53:16Z</time>
      </trkpt>
      <trkpt lat="42.89794" lon="-0.2062">
        <ele>1450.5</ele>
        <time>2026-07-15T06:53:17Z</time>
      </trkpt>
      <trkpt lat="42.89794" lon="-0.20621">
        <ele>1450.5</ele>
        <time>2026-07-15T06:53:18Z</time>
      </trkpt>
      <trkpt lat="42.89794" lon="-0.20621">
        <ele>1450.5</ele>
        <time>2026-07-15T06:53:18Z</time>
      </trkpt>
      <trkpt lat="42.89794" lon="-0.20622">
        <ele>1450.5</ele>
        <time>2026-07-15T06:53:19Z</time>
      </trkpt>
      <trkpt lat="42.89794" lon="-0.20623">
        <ele>1450.5</ele>
        <time>2026-07-15T06:53:20Z</time>
      </trkpt>
      <trkpt lat="42.89794" lon="-0.20624">
        <ele>1450.5</ele>
        <time>2026-07-15T06:53:21Z</time>
      </trkpt>
      <trkpt lat="42.89794" lon="-0.20624">
        <ele>1449.5</ele>
        <time>2026-07-15T06:53:22Z</time>
      </trkpt>
      <trkpt lat="42.89794" lon="-0.20625">
        <ele>1450.5</ele>
        <time>2026-07-15T06:53:23Z</time>
      </trkpt>
      <trkpt lat="42.89794" lon="-0.20626">
        <ele>1450.5</ele>
        <time>2026-07-15T06:53:23Z</time>
      </trkpt>
      <trkpt lat="42.89794" lon="-0.20626">
        <ele>1450.5</ele>
        <time>2026-07-15T06:53:24Z</time>
      </trkpt>
      <trkpt lat="42.89794" lon="-0.20627">
        <ele>1450.5</ele>
        <time>2026-07-15T06:53:25Z</time>
      </trkpt>
      <trkpt lat="42.89794" lon="-0.20628">
        <ele>1450.5</ele>
        <time>2026-07-15T06:53:26Z</time>
      </trkpt>
      <trkpt lat="42.89794" lon="-0.20628">
        <ele>1450.5</ele>
        <time>2026-07-15T06:53:26Z</time>
      </trkpt>
      <trkpt lat="42.89794" lon="-0.20629">
        <ele>1451.5</ele>
        <time>2026-07-15T06:53:27Z</time>
      </trkpt>
      <trkpt lat="42.89794" lon="-0.2063">
        <ele>1451.5</ele>
        <time>2026-07-15T06:53:28Z</time>
      </trkpt>
      <trkpt lat="42.89794" lon="-0.2063">
        <ele>1451.5</ele>
        <time>2026-07-15T06:53:29Z</time>
      </trkpt>
      <trkpt lat="42.89794" lon="-0.20631">
        <ele>1451.5</ele>
        <time>2026-07-15T06:53:30Z</time>
      </trkpt>
      <trkpt lat="42.89794" lon="-0.20631">
        <ele>1451.5</ele>
        <time>2026-07-15T06:53:31Z</time>
      </trkpt>
      <trkpt lat="42.89793" lon="-0.20632">
        <ele>1452.5</ele>
        <time>2026-07-15T06:53:32Z</time>
      </trkpt>
      <trkpt lat="42.89793" lon="-0.20632">
        <ele>1453.5</ele>
        <time>2026-07-15T06:53:32Z</time>
      </trkpt>
      <trkpt lat="42.89792" lon="-0.20632">
        <ele>1454.5</ele>
        <time>2026-07-15T06:53:33Z</time>
      </trkpt>
      <trkpt lat="42.89792" lon="-0.20633">
        <ele>1454.5</ele>
        <time>2026-07-15T06:53:34Z</time>
      </trkpt>
      <trkpt lat="42.89791" lon="-0.20633">
        <ele>1454.5</ele>
        <time>2026-07-15T06:53:35Z</time>
      </trkpt>
      <trkpt lat="42.89791" lon="-0.20633">
        <ele>1453.5</ele>
        <time>2026-07-15T06:53:35Z</time>
      </trkpt>
      <trkpt lat="42.8979" lon="-0.20633">
        <ele>1454.5</ele>
        <time>2026-07-15T06:53:36Z</time>
      </trkpt>
      <trkpt lat="42.89789" lon="-0.20632">
        <ele>1454.5</ele>
        <time>2026-07-15T06:53:37Z</time>
      </trkpt>
      <trkpt lat="42.89789" lon="-0.20632">
        <ele>1453.5</ele>
        <time>2026-07-15T06:53:38Z</time>
      </trkpt>
      <trkpt lat="42.89788" lon="-0.20631">
        <ele>1453.5</ele>
        <time>2026-07-15T06:53:39Z</time>
      </trkpt>
      <trkpt lat="42.89787" lon="-0.20631">
        <ele>1453.5</ele>
        <time>2026-07-15T06:53:40Z</time>
      </trkpt>
      <trkpt lat="42.89786" lon="-0.2063">
        <ele>1453.5</ele>
        <time>2026-07-15T06:53:41Z</time>
      </trkpt>
      <trkpt lat="42.89786" lon="-0.20629">
        <ele>1453.5</ele>
        <time>2026-07-15T06:53:42Z</time>
      </trkpt>
      <trkpt lat="42.89785" lon="-0.20629">
        <ele>1453.5</ele>
        <time>2026-07-15T06:53:43Z</time>
      </trkpt>
      <trkpt lat="42.89784" lon="-0.20628">
        <ele>1453.5</ele>
        <time>2026-07-15T06:53:44Z</time>
      </trkpt>
      <trkpt lat="42.89784" lon="-0.20628">
        <ele>1453.5</ele>
        <time>2026-07-15T06:53:44Z</time>
      </trkpt>
      <trkpt lat="42.89784" lon="-0.20628">
        <ele>1453.5</ele>
        <time>2026-07-15T06:53:45Z</time>
      </trkpt>
      <trkpt lat="42.89783" lon="-0.20627">
        <ele>1452.5</ele>
        <time>2026-07-15T06:53:46Z</time>
      </trkpt>
      <trkpt lat="42.89783" lon="-0.20627">
        <ele>1452.5</ele>
        <time>2026-07-15T06:53:47Z</time>
      </trkpt>
      <trkpt lat="42.89782" lon="-0.20627">
        <ele>1452.5</ele>
        <time>2026-07-15T06:53:48Z</time>
      </trkpt>
      <trkpt lat="42.89782" lon="-0.20627">
        <ele>1452.5</ele>
        <time>2026-07-15T06:53:49Z</time>
      </trkpt>
      <trkpt lat="42.89781" lon="-0.20627">
        <ele>1452.5</ele>
        <time>2026-07-15T06:53:49Z</time>
      </trkpt>
      <trkpt lat="42.89781" lon="-0.20627">
        <ele>1452.5</ele>
        <time>2026-07-15T06:53:50Z</time>
      </trkpt>
      <trkpt lat="42.8978" lon="-0.20627">
        <ele>1452.5</ele>
        <time>2026-07-15T06:53:51Z</time>
      </trkpt>
      <trkpt lat="42.89779" lon="-0.20626">
        <ele>1452.5</ele>
        <time>2026-07-15T06:53:52Z</time>
      </trkpt>
      <trkpt lat="42.89779" lon="-0.20626">
        <ele>1452.5</ele>
        <time>2026-07-15T06:53:53Z</time>
      </trkpt>
      <trkpt lat="42.89778" lon="-0.20625">
        <ele>1452.5</ele>
        <time>2026-07-15T06:53:54Z</time>
      </trkpt>
      <trkpt lat="42.89778" lon="-0.20625">
        <ele>1452.5</ele>
        <time>2026-07-15T06:53:54Z</time>
      </trkpt>
      <trkpt lat="42.89777" lon="-0.20624">
        <ele>1453.5</ele>
        <time>2026-07-15T06:53:55Z</time>
      </trkpt>
      <trkpt lat="42.89777" lon="-0.20623">
        <ele>1453.5</ele>
        <time>2026-07-15T06:53:56Z</time>
      </trkpt>
      <trkpt lat="42.89777" lon="-0.20623">
        <ele>1454.5</ele>
        <time>2026-07-15T06:53:57Z</time>
      </trkpt>
      <trkpt lat="42.89776" lon="-0.20622">
        <ele>1454.5</ele>
        <time>2026-07-15T06:53:57Z</time>
      </trkpt>
      <trkpt lat="42.89776" lon="-0.20622">
        <ele>1454.5</ele>
        <time>2026-07-15T06:53:58Z</time>
      </trkpt>
      <trkpt lat="42.89776" lon="-0.20622">
        <ele>1454.5</ele>
        <time>2026-07-15T06:53:59Z</time>
      </trkpt>
      <trkpt lat="42.89775" lon="-0.20622">
        <ele>1455.5</ele>
        <time>2026-07-15T06:54:00Z</time>
      </trkpt>
      <trkpt lat="42.89775" lon="-0.20622">
        <ele>1454.5</ele>
        <time>2026-07-15T06:54:01Z</time>
      </trkpt>
      <trkpt lat="42.89775" lon="-0.20622">
        <ele>1454.5</ele>
        <time>2026-07-15T06:54:01Z</time>
      </trkpt>
      <trkpt lat="42.89774" lon="-0.20622">
        <ele>1454.5</ele>
        <time>2026-07-15T06:54:02Z</time>
      </trkpt>
      <trkpt lat="42.89774" lon="-0.20623">
        <ele>1454.5</ele>
        <time>2026-07-15T06:54:03Z</time>
      </trkpt>
      <trkpt lat="42.89773" lon="-0.20623">
        <ele>1454.5</ele>
        <time>2026-07-15T06:54:04Z</time>
      </trkpt>
      <trkpt lat="42.89773" lon="-0.20624">
        <ele>1454.5</ele>
        <time>2026-07-15T06:54:05Z</time>
      </trkpt>
      <trkpt lat="42.89773" lon="-0.20624">
        <ele>1455.5</ele>
        <time>2026-07-15T06:54:05Z</time>
      </trkpt>
      <trkpt lat="42.89773" lon="-0.20625">
        <ele>1455.5</ele>
        <time>2026-07-15T06:54:06Z</time>
      </trkpt>
      <trkpt lat="42.89772" lon="-0.20625">
        <ele>1455.5</ele>
        <time>2026-07-15T06:54:07Z</time>
      </trkpt>
      <trkpt lat="42.89772" lon="-0.20626">
        <ele>1455.5</ele>
        <time>2026-07-15T06:54:08Z</time>
      </trkpt>
      <trkpt lat="42.89772" lon="-0.20626">
        <ele>1455.5</ele>
        <time>2026-07-15T06:54:09Z</time>
      </trkpt>
      <trkpt lat="42.89772" lon="-0.20626">
        <ele>1455.5</ele>
        <time>2026-07-15T06:54:10Z</time>
      </trkpt>
      <trkpt lat="42.89771" lon="-0.20626">
        <ele>1454.5</ele>
        <time>2026-07-15T06:54:10Z</time>
      </trkpt>
      <trkpt lat="42.89771" lon="-0.20627">
        <ele>1454.5</ele>
        <time>2026-07-15T06:54:11Z</time>
      </trkpt>
      <trkpt lat="42.8977" lon="-0.20627">
        <ele>1455.5</ele>
        <time>2026-07-15T06:54:12Z</time>
      </trkpt>
      <trkpt lat="42.8977" lon="-0.20626">
        <ele>1456.5</ele>
        <time>2026-07-15T06:54:13Z</time>
      </trkpt>
      <trkpt lat="42.89769" lon="-0.20625">
        <ele>1457.5</ele>
        <time>2026-07-15T06:54:14Z</time>
      </trkpt>
      <trkpt lat="42.89769" lon="-0.20624">
        <ele>1457.5</ele>
        <time>2026-07-15T06:54:14Z</time>
      </trkpt>
      <trkpt lat="42.89769" lon="-0.20624">
        <ele>1457.5</ele>
        <time>2026-07-15T06:54:15Z</time>
      </trkpt>
      <trkpt lat="42.89768" lon="-0.20623">
        <ele>1457.5</ele>
        <time>2026-07-15T06:54:16Z</time>
      </trkpt>
      <trkpt lat="42.89768" lon="-0.20623">
        <ele>1458.5</ele>
        <time>2026-07-15T06:54:17Z</time>
      </trkpt>
      <trkpt lat="42.89767" lon="-0.20622">
        <ele>1458.5</ele>
        <time>2026-07-15T06:54:17Z</time>
      </trkpt>
      <trkpt lat="42.89767" lon="-0.20622">
        <ele>1458.5</ele>
        <time>2026-07-15T06:54:18Z</time>
      </trkpt>
      <trkpt lat="42.89766" lon="-0.20621">
        <ele>1458.5</ele>
        <time>2026-07-15T06:54:19Z</time>
      </trkpt>
      <trkpt lat="42.89766" lon="-0.2062">
        <ele>1459.5</ele>
        <time>2026-07-15T06:54:20Z</time>
      </trkpt>
      <trkpt lat="42.89766" lon="-0.2062">
        <ele>1459.5</ele>
        <time>2026-07-15T06:54:20Z</time>
      </trkpt>
      <trkpt lat="42.89766" lon="-0.20619">
        <ele>1459.5</ele>
        <time>2026-07-15T06:54:21Z</time>
      </trkpt>
      <trkpt lat="42.89766" lon="-0.20618">
        <ele>1459.5</ele>
        <time>2026-07-15T06:54:22Z</time>
      </trkpt>
      <trkpt lat="42.89766" lon="-0.20617">
        <ele>1458.5</ele>
        <time>2026-07-15T06:54:22Z</time>
      </trkpt>
      <trkpt lat="42.89766" lon="-0.20617">
        <ele>1458.5</ele>
        <time>2026-07-15T06:54:23Z</time>
      </trkpt>
      <trkpt lat="42.89765" lon="-0.20616">
        <ele>1459.5</ele>
        <time>2026-07-15T06:54:24Z</time>
      </trkpt>
      <trkpt lat="42.89765" lon="-0.20616">
        <ele>1459.5</ele>
        <time>2026-07-15T06:54:24Z</time>
      </trkpt>
      <trkpt lat="42.89765" lon="-0.20615">
        <ele>1458.5</ele>
        <time>2026-07-15T06:54:25Z</time>
      </trkpt>
      <trkpt lat="42.89765" lon="-0.20615">
        <ele>1459.5</ele>
        <time>2026-07-15T06:54:25Z</time>
      </trkpt>
      <trkpt lat="42.89765" lon="-0.20615">
        <ele>1460.5</ele>
        <time>2026-07-15T06:54:26Z</time>
      </trkpt>
      <trkpt lat="42.89764" lon="-0.20615">
        <ele>1460.5</ele>
        <time>2026-07-15T06:54:27Z</time>
      </trkpt>
      <trkpt lat="42.89763" lon="-0.20615">
        <ele>1461.5</ele>
        <time>2026-07-15T06:54:28Z</time>
      </trkpt>
      <trkpt lat="42.89763" lon="-0.20615">
        <ele>1461.5</ele>
        <time>2026-07-15T06:54:28Z</time>
      </trkpt>
      <trkpt lat="42.89763" lon="-0.20614">
        <ele>1462.5</ele>
        <time>2026-07-15T06:54:29Z</time>
      </trkpt>
      <trkpt lat="42.89763" lon="-0.20614">
        <ele>1462.5</ele>
        <time>2026-07-15T06:54:30Z</time>
      </trkpt>
      <trkpt lat="42.89762" lon="-0.20613">
        <ele>1462.5</ele>
        <time>2026-07-15T06:54:31Z</time>
      </trkpt>
      <trkpt lat="42.89762" lon="-0.20612">
        <ele>1461.5</ele>
        <time>2026-07-15T06:54:31Z</time>
      </trkpt>
      <trkpt lat="42.89762" lon="-0.20612">
        <ele>1461.5</ele>
        <time>2026-07-15T06:54:32Z</time>
      </trkpt>
      <trkpt lat="42.89762" lon="-0.20611">
        <ele>1461.5</ele>
        <time>2026-07-15T06:54:33Z</time>
      </trkpt>
      <trkpt lat="42.89761" lon="-0.20611">
        <ele>1461.5</ele>
        <time>2026-07-15T06:54:34Z</time>
      </trkpt>
      <trkpt lat="42.89761" lon="-0.2061">
        <ele>1462.5</ele>
        <time>2026-07-15T06:54:34Z</time>
      </trkpt>
      <trkpt lat="42.89761" lon="-0.20609">
        <ele>1463.5</ele>
        <time>2026-07-15T06:54:35Z</time>
      </trkpt>
      <trkpt lat="42.8976" lon="-0.20609">
        <ele>1463.5</ele>
        <time>2026-07-15T06:54:36Z</time>
      </trkpt>
      <trkpt lat="42.8976" lon="-0.20608">
        <ele>1463.5</ele>
        <time>2026-07-15T06:54:37Z</time>
      </trkpt>
      <trkpt lat="42.89759" lon="-0.20607">
        <ele>1463.5</ele>
        <time>2026-07-15T06:54:38Z</time>
      </trkpt>
      <trkpt lat="42.89759" lon="-0.20607">
        <ele>1463.5</ele>
        <time>2026-07-15T06:54:38Z</time>
      </trkpt>
      <trkpt lat="42.89758" lon="-0.20607">
        <ele>1463.5</ele>
        <time>2026-07-15T06:54:39Z</time>
      </trkpt>
      <trkpt lat="42.89758" lon="-0.20606">
        <ele>1463.5</ele>
        <time>2026-07-15T06:54:40Z</time>
      </trkpt>
      <trkpt lat="42.89757" lon="-0.20606">
        <ele>1464.5</ele>
        <time>2026-07-15T06:54:41Z</time>
      </trkpt>
      <trkpt lat="42.89757" lon="-0.20606">
        <ele>1464.5</ele>
        <time>2026-07-15T06:54:41Z</time>
      </trkpt>
      <trkpt lat="42.89756" lon="-0.20605">
        <ele>1464.5</ele>
        <time>2026-07-15T06:54:42Z</time>
      </trkpt>
      <trkpt lat="42.89756" lon="-0.20605">
        <ele>1465.5</ele>
        <time>2026-07-15T06:54:43Z</time>
      </trkpt>
      <trkpt lat="42.89756" lon="-0.20605">
        <ele>1465.5</ele>
        <time>2026-07-15T06:54:44Z</time>
      </trkpt>
      <trkpt lat="42.89755" lon="-0.20604">
        <ele>1465.5</ele>
        <time>2026-07-15T06:54:44Z</time>
      </trkpt>
      <trkpt lat="42.89755" lon="-0.20604">
        <ele>1465.5</ele>
        <time>2026-07-15T06:54:45Z</time>
      </trkpt>
      <trkpt lat="42.89755" lon="-0.20603">
        <ele>1465.5</ele>
        <time>2026-07-15T06:54:46Z</time>
      </trkpt>
      <trkpt lat="42.89754" lon="-0.20602">
        <ele>1464.5</ele>
        <time>2026-07-15T06:54:47Z</time>
      </trkpt>
      <trkpt lat="42.89754" lon="-0.20602">
        <ele>1464.5</ele>
        <time>2026-07-15T06:54:48Z</time>
      </trkpt>
      <trkpt lat="42.89754" lon="-0.20601">
        <ele>1464.5</ele>
        <time>2026-07-15T06:54:48Z</time>
      </trkpt>
      <trkpt lat="42.89753" lon="-0.20601">
        <ele>1465.5</ele>
        <time>2026-07-15T06:54:49Z</time>
      </trkpt>
      <trkpt lat="42.89753" lon="-0.206">
        <ele>1465.5</ele>
        <time>2026-07-15T06:54:50Z</time>
      </trkpt>
      <trkpt lat="42.89752" lon="-0.20599">
        <ele>1465.5</ele>
        <time>2026-07-15T06:54:51Z</time>
      </trkpt>
      <trkpt lat="42.89752" lon="-0.20599">
        <ele>1466.5</ele>
        <time>2026-07-15T06:54:52Z</time>
      </trkpt>
      <trkpt lat="42.89752" lon="-0.20598">
        <ele>1466.5</ele>
        <time>2026-07-15T06:54:52Z</time>
      </trkpt>
      <trkpt lat="42.89751" lon="-0.20597">
        <ele>1466.5</ele>
        <time>2026-07-15T06:54:53Z</time>
      </trkpt>
      <trkpt lat="42.89751" lon="-0.20596">
        <ele>1466.5</ele>
        <time>2026-07-15T06:54:54Z</time>
      </trkpt>
      <trkpt lat="42.89751" lon="-0.20596">
        <ele>1466.5</ele>
        <time>2026-07-15T06:54:55Z</time>
      </trkpt>
      <trkpt lat="42.89751" lon="-0.20595">
        <ele>1467.5</ele>
        <time>2026-07-15T06:54:55Z</time>
      </trkpt>
      <trkpt lat="42.8975" lon="-0.20594">
        <ele>1468.5</ele>
        <time>2026-07-15T06:54:56Z</time>
      </trkpt>
      <trkpt lat="42.8975" lon="-0.20594">
        <ele>1468.5</ele>
        <time>2026-07-15T06:54:57Z</time>
      </trkpt>
      <trkpt lat="42.89749" lon="-0.20593">
        <ele>1468.5</ele>
        <time>2026-07-15T06:54:58Z</time>
      </trkpt>
      <trkpt lat="42.89749" lon="-0.20593">
        <ele>1468.5</ele>
        <time>2026-07-15T06:54:58Z</time>
      </trkpt>
      <trkpt lat="42.89749" lon="-0.20592">
        <ele>1468.5</ele>
        <time>2026-07-15T06:54:59Z</time>
      </trkpt>
      <trkpt lat="42.89748" lon="-0.20591">
        <ele>1470.5</ele>
        <time>2026-07-15T06:55:00Z</time>
      </trkpt>
      <trkpt lat="42.89748" lon="-0.2059">
        <ele>1470.5</ele>
        <time>2026-07-15T06:55:01Z</time>
      </trkpt>
      <trkpt lat="42.89747" lon="-0.2059">
        <ele>1470.5</ele>
        <time>2026-07-15T06:55:01Z</time>
      </trkpt>
      <trkpt lat="42.89747" lon="-0.20589">
        <ele>1470.5</ele>
        <time>2026-07-15T06:55:02Z</time>
      </trkpt>
      <trkpt lat="42.89746" lon="-0.20589">
        <ele>1470.5</ele>
        <time>2026-07-15T06:55:03Z</time>
      </trkpt>
      <trkpt lat="42.89746" lon="-0.20588">
        <ele>1470.5</ele>
        <time>2026-07-15T06:55:03Z</time>
      </trkpt>
      <trkpt lat="42.89745" lon="-0.20588">
        <ele>1470.5</ele>
        <time>2026-07-15T06:55:04Z</time>
      </trkpt>
      <trkpt lat="42.89745" lon="-0.20587">
        <ele>1470.5</ele>
        <time>2026-07-15T06:55:05Z</time>
      </trkpt>
      <trkpt lat="42.89744" lon="-0.20586">
        <ele>1470.5</ele>
        <time>2026-07-15T06:55:06Z</time>
      </trkpt>
      <trkpt lat="42.89744" lon="-0.20586">
        <ele>1470.5</ele>
        <time>2026-07-15T06:55:06Z</time>
      </trkpt>
      <trkpt lat="42.89743" lon="-0.20585">
        <ele>1471.5</ele>
        <time>2026-07-15T06:55:07Z</time>
      </trkpt>
      <trkpt lat="42.89743" lon="-0.20585">
        <ele>1471.5</ele>
        <time>2026-07-15T06:55:08Z</time>
      </trkpt>
      <trkpt lat="42.89742" lon="-0.20584">
        <ele>1471.5</ele>
        <time>2026-07-15T06:55:09Z</time>
      </trkpt>
      <trkpt lat="42.89742" lon="-0.20584">
        <ele>1472.5</ele>
        <time>2026-07-15T06:55:09Z</time>
      </trkpt>
      <trkpt lat="42.89742" lon="-0.20583">
        <ele>1472.5</ele>
        <time>2026-07-15T06:55:10Z</time>
      </trkpt>
      <trkpt lat="42.89741" lon="-0.20583">
        <ele>1472.5</ele>
        <time>2026-07-15T06:55:11Z</time>
      </trkpt>
      <trkpt lat="42.89741" lon="-0.20582">
        <ele>1472.5</ele>
        <time>2026-07-15T06:55:12Z</time>
      </trkpt>
      <trkpt lat="42.89741" lon="-0.20582">
        <ele>1472.5</ele>
        <time>2026-07-15T06:55:12Z</time>
      </trkpt>
      <trkpt lat="42.8974" lon="-0.20581">
        <ele>1473.5</ele>
        <time>2026-07-15T06:55:13Z</time>
      </trkpt>
      <trkpt lat="42.8974" lon="-0.2058">
        <ele>1473.5</ele>
        <time>2026-07-15T06:55:14Z</time>
      </trkpt>
      <trkpt lat="42.8974" lon="-0.2058">
        <ele>1473.5</ele>
        <time>2026-07-15T06:55:15Z</time>
      </trkpt>
      <trkpt lat="42.89739" lon="-0.20579">
        <ele>1473.5</ele>
        <time>2026-07-15T06:55:16Z</time>
      </trkpt>
      <trkpt lat="42.89739" lon="-0.20579">
        <ele>1473.5</ele>
        <time>2026-07-15T06:55:16Z</time>
      </trkpt>
      <trkpt lat="42.89739" lon="-0.20578">
        <ele>1473.5</ele>
        <time>2026-07-15T06:55:17Z</time>
      </trkpt>
      <trkpt lat="42.89738" lon="-0.20578">
        <ele>1473.5</ele>
        <time>2026-07-15T06:55:18Z</time>
      </trkpt>
      <trkpt lat="42.89738" lon="-0.20577">
        <ele>1473.5</ele>
        <time>2026-07-15T06:55:18Z</time>
      </trkpt>
      <trkpt lat="42.89738" lon="-0.20577">
        <ele>1473.5</ele>
        <time>2026-07-15T06:55:19Z</time>
      </trkpt>
      <trkpt lat="42.89737" lon="-0.20576">
        <ele>1473.5</ele>
        <time>2026-07-15T06:55:20Z</time>
      </trkpt>
      <trkpt lat="42.89737" lon="-0.20576">
        <ele>1473.5</ele>
        <time>2026-07-15T06:55:21Z</time>
      </trkpt>
      <trkpt lat="42.89737" lon="-0.20576">
        <ele>1473.5</ele>
        <time>2026-07-15T06:55:21Z</time>
      </trkpt>
      <trkpt lat="42.89737" lon="-0.20576">
        <ele>1473.5</ele>
        <time>2026-07-15T06:55:22Z</time>
      </trkpt>
      <trkpt lat="42.89736" lon="-0.20575">
        <ele>1473.5</ele>
        <time>2026-07-15T06:55:23Z</time>
      </trkpt>
      <trkpt lat="42.89736" lon="-0.20575">
        <ele>1473.5</ele>
        <time>2026-07-15T06:55:24Z</time>
      </trkpt>
      <trkpt lat="42.89735" lon="-0.20574">
        <ele>1473.5</ele>
        <time>2026-07-15T06:55:25Z</time>
      </trkpt>
      <trkpt lat="42.89735" lon="-0.20574">
        <ele>1474.5</ele>
        <time>2026-07-15T06:55:25Z</time>
      </trkpt>
      <trkpt lat="42.89734" lon="-0.20573">
        <ele>1474.5</ele>
        <time>2026-07-15T06:55:26Z</time>
      </trkpt>
      <trkpt lat="42.89734" lon="-0.20573">
        <ele>1475.5</ele>
        <time>2026-07-15T06:55:27Z</time>
      </trkpt>
      <trkpt lat="42.89734" lon="-0.20572">
        <ele>1475.5</ele>
        <time>2026-07-15T06:55:28Z</time>
      </trkpt>
      <trkpt lat="42.89734" lon="-0.20572">
        <ele>1475.5</ele>
        <time>2026-07-15T06:55:28Z</time>
      </trkpt>
      <trkpt lat="42.89733" lon="-0.20571">
        <ele>1475.5</ele>
        <time>2026-07-15T06:55:29Z</time>
      </trkpt>
      <trkpt lat="42.89733" lon="-0.2057">
        <ele>1474.5</ele>
        <time>2026-07-15T06:55:30Z</time>
      </trkpt>
      <trkpt lat="42.89732" lon="-0.2057">
        <ele>1475.5</ele>
        <time>2026-07-15T06:55:31Z</time>
      </trkpt>
      <trkpt lat="42.89732" lon="-0.20569">
        <ele>1475.5</ele>
        <time>2026-07-15T06:55:31Z</time>
      </trkpt>
      <trkpt lat="42.89732" lon="-0.20569">
        <ele>1475.5</ele>
        <time>2026-07-15T06:55:32Z</time>
      </trkpt>
      <trkpt lat="42.89731" lon="-0.20568">
        <ele>1475.5</ele>
        <time>2026-07-15T06:55:33Z</time>
      </trkpt>
      <trkpt lat="42.89731" lon="-0.20567">
        <ele>1474.5</ele>
        <time>2026-07-15T06:55:34Z</time>
      </trkpt>
      <trkpt lat="42.89731" lon="-0.20567">
        <ele>1474.5</ele>
        <time>2026-07-15T06:55:34Z</time>
      </trkpt>
      <trkpt lat="42.89731" lon="-0.20566">
        <ele>1475.5</ele>
        <time>2026-07-15T06:55:35Z</time>
      </trkpt>
      <trkpt lat="42.8973" lon="-0.20566">
        <ele>1475.5</ele>
        <time>2026-07-15T06:55:36Z</time>
      </trkpt>
      <trkpt lat="42.8973" lon="-0.20565">
        <ele>1475.5</ele>
        <time>2026-07-15T06:55:37Z</time>
      </trkpt>
      <trkpt lat="42.8973" lon="-0.20565">
        <ele>1475.5</ele>
        <time>2026-07-15T06:55:37Z</time>
      </trkpt>
      <trkpt lat="42.8973" lon="-0.20565">
        <ele>1474.5</ele>
        <time>2026-07-15T06:55:38Z</time>
      </trkpt>
      <trkpt lat="42.89729" lon="-0.20564">
        <ele>1474.5</ele>
        <time>2026-07-15T06:55:39Z</time>
      </trkpt>
      <trkpt lat="42.89729" lon="-0.20564">
        <ele>1474.5</ele>
        <time>2026-07-15T06:55:40Z</time>
      </trkpt>
      <trkpt lat="42.89729" lon="-0.20564">
        <ele>1474.5</ele>
        <time>2026-07-15T06:55:41Z</time>
      </trkpt>
      <trkpt lat="42.89729" lon="-0.20563">
        <ele>1475.5</ele>
        <time>2026-07-15T06:55:41Z</time>
      </trkpt>
      <trkpt lat="42.89729" lon="-0.20563">
        <ele>1475.5</ele>
        <time>2026-07-15T06:55:42Z</time>
      </trkpt>
      <trkpt lat="42.89729" lon="-0.20563">
        <ele>1475.5</ele>
        <time>2026-07-15T06:55:43Z</time>
      </trkpt>
      <trkpt lat="42.89729" lon="-0.20563">
        <ele>1475.5</ele>
        <time>2026-07-15T06:55:44Z</time>
      </trkpt>
      <trkpt lat="42.89729" lon="-0.20563">
        <ele>1475.5</ele>
        <time>2026-07-15T06:55:44Z</time>
      </trkpt>
      <trkpt lat="42.89728" lon="-0.20563">
        <ele>1475.5</ele>
        <time>2026-07-15T06:55:45Z</time>
      </trkpt>
      <trkpt lat="42.89728" lon="-0.20563">
        <ele>1475.5</ele>
        <time>2026-07-15T06:55:46Z</time>
      </trkpt>
      <trkpt lat="42.89728" lon="-0.20563">
        <ele>1474.5</ele>
        <time>2026-07-15T06:55:46Z</time>
      </trkpt>
      <trkpt lat="42.89727" lon="-0.20562">
        <ele>1474.5</ele>
        <time>2026-07-15T06:55:47Z</time>
      </trkpt>
      <trkpt lat="42.89727" lon="-0.20562">
        <ele>1474.5</ele>
        <time>2026-07-15T06:55:48Z</time>
      </trkpt>
      <trkpt lat="42.89727" lon="-0.20562">
        <ele>1474.5</ele>
        <time>2026-07-15T06:55:49Z</time>
      </trkpt>
      <trkpt lat="42.89727" lon="-0.20561">
        <ele>1474.5</ele>
        <time>2026-07-15T06:55:49Z</time>
      </trkpt>
      <trkpt lat="42.89727" lon="-0.20561">
        <ele>1474.5</ele>
        <time>2026-07-15T06:55:50Z</time>
      </trkpt>
      <trkpt lat="42.89726" lon="-0.2056">
        <ele>1474.5</ele>
        <time>2026-07-15T06:55:51Z</time>
      </trkpt>
      <trkpt lat="42.89726" lon="-0.20559">
        <ele>1474.5</ele>
        <time>2026-07-15T06:55:52Z</time>
      </trkpt>
      <trkpt lat="42.89726" lon="-0.20559">
        <ele>1474.5</ele>
        <time>2026-07-15T06:55:52Z</time>
      </trkpt>
      <trkpt lat="42.89726" lon="-0.20559">
        <ele>1473.5</ele>
        <time>2026-07-15T06:55:53Z</time>
      </trkpt>
      <trkpt lat="42.89725" lon="-0.20558">
        <ele>1473.5</ele>
        <time>2026-07-15T06:55:54Z</time>
      </trkpt>
      <trkpt lat="42.89725" lon="-0.20558">
        <ele>1475.5</ele>
        <time>2026-07-15T06:55:55Z</time>
      </trkpt>
      <trkpt lat="42.89725" lon="-0.20557">
        <ele>1475.5</ele>
        <time>2026-07-15T06:55:55Z</time>
      </trkpt>
      <trkpt lat="42.89724" lon="-0.20556">
        <ele>1476.5</ele>
        <time>2026-07-15T06:55:56Z</time>
      </trkpt>
      <trkpt lat="42.89724" lon="-0.20556">
        <ele>1476.5</ele>
        <time>2026-07-15T06:55:57Z</time>
      </trkpt>
      <trkpt lat="42.89724" lon="-0.20555">
        <ele>1476.5</ele>
        <time>2026-07-15T06:55:58Z</time>
      </trkpt>
      <trkpt lat="42.89723" lon="-0.20554">
        <ele>1476.5</ele>
        <time>2026-07-15T06:55:58Z</time>
      </trkpt>
      <trkpt lat="42.89723" lon="-0.20554">
        <ele>1476.5</ele>
        <time>2026-07-15T06:55:59Z</time>
      </trkpt>
      <trkpt lat="42.89722" lon="-0.20553">
        <ele>1476.5</ele>
        <time>2026-07-15T06:56:00Z</time>
      </trkpt>
      <trkpt lat="42.89722" lon="-0.20552">
        <ele>1476.5</ele>
        <time>2026-07-15T06:56:01Z</time>
      </trkpt>
      <trkpt lat="42.89722" lon="-0.20552">
        <ele>1476.5</ele>
        <time>2026-07-15T06:56:01Z</time>
      </trkpt>
      <trkpt lat="42.89721" lon="-0.20551">
        <ele>1477.5</ele>
        <time>2026-07-15T06:56:02Z</time>
      </trkpt>
      <trkpt lat="42.89721" lon="-0.20551">
        <ele>1477.5</ele>
        <time>2026-07-15T06:56:03Z</time>
      </trkpt>
      <trkpt lat="42.8972" lon="-0.2055">
        <ele>1477.5</ele>
        <time>2026-07-15T06:56:04Z</time>
      </trkpt>
      <trkpt lat="42.8972" lon="-0.2055">
        <ele>1477.5</ele>
        <time>2026-07-15T06:56:04Z</time>
      </trkpt>
      <trkpt lat="42.89719" lon="-0.20549">
        <ele>1477.5</ele>
        <time>2026-07-15T06:56:05Z</time>
      </trkpt>
      <trkpt lat="42.89719" lon="-0.20548">
        <ele>1477.5</ele>
        <time>2026-07-15T06:56:06Z</time>
      </trkpt>
      <trkpt lat="42.89718" lon="-0.20548">
        <ele>1477.5</ele>
        <time>2026-07-15T06:56:07Z</time>
      </trkpt>
      <trkpt lat="42.89718" lon="-0.20547">
        <ele>1478.5</ele>
        <time>2026-07-15T06:56:07Z</time>
      </trkpt>
      <trkpt lat="42.89717" lon="-0.20547">
        <ele>1478.5</ele>
        <time>2026-07-15T06:56:08Z</time>
      </trkpt>
      <trkpt lat="42.89717" lon="-0.20546">
        <ele>1478.5</ele>
        <time>2026-07-15T06:56:09Z</time>
      </trkpt>
      <trkpt lat="42.89717" lon="-0.20546">
        <ele>1479.5</ele>
        <time>2026-07-15T06:56:09Z</time>
      </trkpt>
      <trkpt lat="42.89716" lon="-0.20545">
        <ele>1479.5</ele>
        <time>2026-07-15T06:56:10Z</time>
      </trkpt>
      <trkpt lat="42.89716" lon="-0.20544">
        <ele>1479.5</ele>
        <time>2026-07-15T06:56:11Z</time>
      </trkpt>
      <trkpt lat="42.89715" lon="-0.20543">
        <ele>1479.5</ele>
        <time>2026-07-15T06:56:12Z</time>
      </trkpt>
      <trkpt lat="42.89715" lon="-0.20543">
        <ele>1479.5</ele>
        <time>2026-07-15T06:56:13Z</time>
      </trkpt>
      <trkpt lat="42.89715" lon="-0.20542">
        <ele>1479.5</ele>
        <time>2026-07-15T06:56:13Z</time>
      </trkpt>
      <trkpt lat="42.89714" lon="-0.20541">
        <ele>1479.5</ele>
        <time>2026-07-15T06:56:14Z</time>
      </trkpt>
      <trkpt lat="42.89714" lon="-0.20541">
        <ele>1480.5</ele>
        <time>2026-07-15T06:56:15Z</time>
      </trkpt>
      <trkpt lat="42.89714" lon="-0.2054">
        <ele>1480.5</ele>
        <time>2026-07-15T06:56:16Z</time>
      </trkpt>
      <trkpt lat="42.89713" lon="-0.2054">
        <ele>1480.5</ele>
        <time>2026-07-15T06:56:16Z</time>
      </trkpt>
      <trkpt lat="42.89713" lon="-0.2054">
        <ele>1480.5</ele>
        <time>2026-07-15T06:56:17Z</time>
      </trkpt>
      <trkpt lat="42.89712" lon="-0.20539">
        <ele>1480.5</ele>
        <time>2026-07-15T06:56:18Z</time>
      </trkpt>
      <trkpt lat="42.89712" lon="-0.20539">
        <ele>1480.5</ele>
        <time>2026-07-15T06:56:19Z</time>
      </trkpt>
      <trkpt lat="42.89712" lon="-0.20539">
        <ele>1481.5</ele>
        <time>2026-07-15T06:56:20Z</time>
      </trkpt>
      <trkpt lat="42.89712" lon="-0.20539">
        <ele>1481.5</ele>
        <time>2026-07-15T06:56:20Z</time>
      </trkpt>
      <trkpt lat="42.89711" lon="-0.20538">
        <ele>1481.5</ele>
        <time>2026-07-15T06:56:21Z</time>
      </trkpt>
      <trkpt lat="42.89711" lon="-0.20538">
        <ele>1481.5</ele>
        <time>2026-07-15T06:56:22Z</time>
      </trkpt>
      <trkpt lat="42.8971" lon="-0.20537">
        <ele>1481.5</ele>
        <time>2026-07-15T06:56:23Z</time>
      </trkpt>
      <trkpt lat="42.8971" lon="-0.20536">
        <ele>1481.5</ele>
        <time>2026-07-15T06:56:23Z</time>
      </trkpt>
      <trkpt lat="42.8971" lon="-0.20536">
        <ele>1482.5</ele>
        <time>2026-07-15T06:56:24Z</time>
      </trkpt>
      <trkpt lat="42.8971" lon="-0.20535">
        <ele>1482.5</ele>
        <time>2026-07-15T06:56:25Z</time>
      </trkpt>
      <trkpt lat="42.89709" lon="-0.20534">
        <ele>1482.5</ele>
        <time>2026-07-15T06:56:26Z</time>
      </trkpt>
      <trkpt lat="42.89709" lon="-0.20533">
        <ele>1482.5</ele>
        <time>2026-07-15T06:56:27Z</time>
      </trkpt>
      <trkpt lat="42.89709" lon="-0.20532">
        <ele>1482.5</ele>
        <time>2026-07-15T06:56:28Z</time>
      </trkpt>
      <trkpt lat="42.89708" lon="-0.20532">
        <ele>1482.5</ele>
        <time>2026-07-15T06:56:28Z</time>
      </trkpt>
      <trkpt lat="42.89708" lon="-0.20531">
        <ele>1482.5</ele>
        <time>2026-07-15T06:56:29Z</time>
      </trkpt>
      <trkpt lat="42.89708" lon="-0.2053">
        <ele>1482.5</ele>
        <time>2026-07-15T06:56:30Z</time>
      </trkpt>
      <trkpt lat="42.89707" lon="-0.2053">
        <ele>1482.5</ele>
        <time>2026-07-15T06:56:31Z</time>
      </trkpt>
      <trkpt lat="42.89707" lon="-0.20529">
        <ele>1482.5</ele>
        <time>2026-07-15T06:56:32Z</time>
      </trkpt>
      <trkpt lat="42.89707" lon="-0.20529">
        <ele>1483.5</ele>
        <time>2026-07-15T06:56:32Z</time>
      </trkpt>
      <trkpt lat="42.89707" lon="-0.20528">
        <ele>1483.5</ele>
        <time>2026-07-15T06:56:33Z</time>
      </trkpt>
      <trkpt lat="42.89706" lon="-0.20527">
        <ele>1483.5</ele>
        <time>2026-07-15T06:56:34Z</time>
      </trkpt>
      <trkpt lat="42.89706" lon="-0.20527">
        <ele>1483.5</ele>
        <time>2026-07-15T06:56:35Z</time>
      </trkpt>
      <trkpt lat="42.89706" lon="-0.20526">
        <ele>1483.5</ele>
        <time>2026-07-15T06:56:36Z</time>
      </trkpt>
      <trkpt lat="42.89706" lon="-0.20526">
        <ele>1483.5</ele>
        <time>2026-07-15T06:56:36Z</time>
      </trkpt>
      <trkpt lat="42.89705" lon="-0.20525">
        <ele>1483.5</ele>
        <time>2026-07-15T06:56:37Z</time>
      </trkpt>
      <trkpt lat="42.89705" lon="-0.20524">
        <ele>1483.5</ele>
        <time>2026-07-15T06:56:38Z</time>
      </trkpt>
      <trkpt lat="42.89705" lon="-0.20524">
        <ele>1483.5</ele>
        <time>2026-07-15T06:56:39Z</time>
      </trkpt>
      <trkpt lat="42.89705" lon="-0.20524">
        <ele>1483.5</ele>
        <time>2026-07-15T06:56:40Z</time>
      </trkpt>
      <trkpt lat="42.89705" lon="-0.20523">
        <ele>1483.5</ele>
        <time>2026-07-15T06:56:40Z</time>
      </trkpt>
      <trkpt lat="42.89705" lon="-0.20523">
        <ele>1483.5</ele>
        <time>2026-07-15T06:56:41Z</time>
      </trkpt>
      <trkpt lat="42.89704" lon="-0.20522">
        <ele>1483.5</ele>
        <time>2026-07-15T06:56:42Z</time>
      </trkpt>
      <trkpt lat="42.89704" lon="-0.20522">
        <ele>1483.5</ele>
        <time>2026-07-15T06:56:43Z</time>
      </trkpt>
      <trkpt lat="42.89704" lon="-0.20521">
        <ele>1484.5</ele>
        <time>2026-07-15T06:56:44Z</time>
      </trkpt>
      <trkpt lat="42.89703" lon="-0.20521">
        <ele>1484.5</ele>
        <time>2026-07-15T06:56:44Z</time>
      </trkpt>
      <trkpt lat="42.89703" lon="-0.2052">
        <ele>1484.5</ele>
        <time>2026-07-15T06:56:45Z</time>
      </trkpt>
      <trkpt lat="42.89703" lon="-0.20519">
        <ele>1484.5</ele>
        <time>2026-07-15T06:56:46Z</time>
      </trkpt>
      <trkpt lat="42.89703" lon="-0.20519">
        <ele>1484.5</ele>
        <time>2026-07-15T06:56:47Z</time>
      </trkpt>
      <trkpt lat="42.89702" lon="-0.20518">
        <ele>1483.5</ele>
        <time>2026-07-15T06:56:48Z</time>
      </trkpt>
      <trkpt lat="42.89702" lon="-0.20518">
        <ele>1484.5</ele>
        <time>2026-07-15T06:56:48Z</time>
      </trkpt>
      <trkpt lat="42.89702" lon="-0.20517">
        <ele>1484.5</ele>
        <time>2026-07-15T06:56:49Z</time>
      </trkpt>
      <trkpt lat="42.89701" lon="-0.20517">
        <ele>1484.5</ele>
        <time>2026-07-15T06:56:50Z</time>
      </trkpt>
      <trkpt lat="42.89701" lon="-0.20517">
        <ele>1484.5</ele>
        <time>2026-07-15T06:56:51Z</time>
      </trkpt>
      <trkpt lat="42.897" lon="-0.20516">
        <ele>1483.5</ele>
        <time>2026-07-15T06:56:52Z</time>
      </trkpt>
      <trkpt lat="42.897" lon="-0.20516">
        <ele>1483.5</ele>
        <time>2026-07-15T06:56:52Z</time>
      </trkpt>
      <trkpt lat="42.89699" lon="-0.20515">
        <ele>1484.5</ele>
        <time>2026-07-15T06:56:53Z</time>
      </trkpt>
      <trkpt lat="42.89699" lon="-0.20514">
        <ele>1484.5</ele>
        <time>2026-07-15T06:56:54Z</time>
      </trkpt>
      <trkpt lat="42.89699" lon="-0.20514">
        <ele>1485.5</ele>
        <time>2026-07-15T06:56:55Z</time>
      </trkpt>
      <trkpt lat="42.89698" lon="-0.20513">
        <ele>1485.5</ele>
        <time>2026-07-15T06:56:56Z</time>
      </trkpt>
      <trkpt lat="42.89698" lon="-0.20513">
        <ele>1485.5</ele>
        <time>2026-07-15T06:56:56Z</time>
      </trkpt>
      <trkpt lat="42.89698" lon="-0.20512">
        <ele>1486.5</ele>
        <time>2026-07-15T06:56:57Z</time>
      </trkpt>
      <trkpt lat="42.89697" lon="-0.20512">
        <ele>1486.5</ele>
        <time>2026-07-15T06:56:58Z</time>
      </trkpt>
      <trkpt lat="42.89697" lon="-0.20511">
        <ele>1486.5</ele>
        <time>2026-07-15T06:56:59Z</time>
      </trkpt>
      <trkpt lat="42.89697" lon="-0.20511">
        <ele>1486.5</ele>
        <time>2026-07-15T06:56:59Z</time>
      </trkpt>
      <trkpt lat="42.89697" lon="-0.2051">
        <ele>1485.5</ele>
        <time>2026-07-15T06:57:00Z</time>
      </trkpt>
      <trkpt lat="42.89696" lon="-0.2051">
        <ele>1485.5</ele>
        <time>2026-07-15T06:57:01Z</time>
      </trkpt>
      <trkpt lat="42.89696" lon="-0.20509">
        <ele>1486.5</ele>
        <time>2026-07-15T06:57:02Z</time>
      </trkpt>
      <trkpt lat="42.89695" lon="-0.20508">
        <ele>1486.5</ele>
        <time>2026-07-15T06:57:03Z</time>
      </trkpt>
      <trkpt lat="42.89695" lon="-0.20508">
        <ele>1486.5</ele>
        <time>2026-07-15T06:57:04Z</time>
      </trkpt>
      <trkpt lat="42.89695" lon="-0.20508">
        <ele>1487.5</ele>
        <time>2026-07-15T06:57:04Z</time>
      </trkpt>
      <trkpt lat="42.89694" lon="-0.20507">
        <ele>1486.5</ele>
        <time>2026-07-15T06:57:05Z</time>
      </trkpt>
      <trkpt lat="42.89694" lon="-0.20506">
        <ele>1486.5</ele>
        <time>2026-07-15T06:57:06Z</time>
      </trkpt>
      <trkpt lat="42.89693" lon="-0.20506">
        <ele>1486.5</ele>
        <time>2026-07-15T06:57:07Z</time>
      </trkpt>
      <trkpt lat="42.89693" lon="-0.20505">
        <ele>1486.5</ele>
        <time>2026-07-15T06:57:07Z</time>
      </trkpt>
      <trkpt lat="42.89693" lon="-0.20505">
        <ele>1486.5</ele>
        <time>2026-07-15T06:57:08Z</time>
      </trkpt>
      <trkpt lat="42.89692" lon="-0.20504">
        <ele>1486.5</ele>
        <time>2026-07-15T06:57:09Z</time>
      </trkpt>
      <trkpt lat="42.89692" lon="-0.20503">
        <ele>1486.5</ele>
        <time>2026-07-15T06:57:10Z</time>
      </trkpt>
      <trkpt lat="42.89692" lon="-0.20503">
        <ele>1486.5</ele>
        <time>2026-07-15T06:57:11Z</time>
      </trkpt>
      <trkpt lat="42.89692" lon="-0.20503">
        <ele>1486.5</ele>
        <time>2026-07-15T06:57:11Z</time>
      </trkpt>
      <trkpt lat="42.89691" lon="-0.20503">
        <ele>1486.5</ele>
        <time>2026-07-15T06:57:12Z</time>
      </trkpt>
      <trkpt lat="42.89691" lon="-0.20503">
        <ele>1486.5</ele>
        <time>2026-07-15T06:57:13Z</time>
      </trkpt>
      <trkpt lat="42.8969" lon="-0.20502">
        <ele>1486.5</ele>
        <time>2026-07-15T06:57:14Z</time>
      </trkpt>
      <trkpt lat="42.8969" lon="-0.20502">
        <ele>1486.5</ele>
        <time>2026-07-15T06:57:15Z</time>
      </trkpt>
      <trkpt lat="42.8969" lon="-0.20502">
        <ele>1486.5</ele>
        <time>2026-07-15T06:57:15Z</time>
      </trkpt>
      <trkpt lat="42.89689" lon="-0.20501">
        <ele>1485.5</ele>
        <time>2026-07-15T06:57:16Z</time>
      </trkpt>
      <trkpt lat="42.89689" lon="-0.205">
        <ele>1485.5</ele>
        <time>2026-07-15T06:57:17Z</time>
      </trkpt>
      <trkpt lat="42.89688" lon="-0.205">
        <ele>1485.5</ele>
        <time>2026-07-15T06:57:18Z</time>
      </trkpt>
      <trkpt lat="42.89688" lon="-0.20499">
        <ele>1485.5</ele>
        <time>2026-07-15T06:57:19Z</time>
      </trkpt>
      <trkpt lat="42.89687" lon="-0.20498">
        <ele>1485.5</ele>
        <time>2026-07-15T06:57:20Z</time>
      </trkpt>
      <trkpt lat="42.89687" lon="-0.20498">
        <ele>1486.5</ele>
        <time>2026-07-15T06:57:20Z</time>
      </trkpt>
      <trkpt lat="42.89687" lon="-0.20498">
        <ele>1486.5</ele>
        <time>2026-07-15T06:57:21Z</time>
      </trkpt>
      <trkpt lat="42.89686" lon="-0.20497">
        <ele>1486.5</ele>
        <time>2026-07-15T06:57:22Z</time>
      </trkpt>
      <trkpt lat="42.89686" lon="-0.20497">
        <ele>1486.5</ele>
        <time>2026-07-15T06:57:23Z</time>
      </trkpt>
      <trkpt lat="42.89686" lon="-0.20496">
        <ele>1487.5</ele>
        <time>2026-07-15T06:57:23Z</time>
      </trkpt>
      <trkpt lat="42.89685" lon="-0.20496">
        <ele>1488.5</ele>
        <time>2026-07-15T06:57:24Z</time>
      </trkpt>
      <trkpt lat="42.89685" lon="-0.20496">
        <ele>1488.5</ele>
        <time>2026-07-15T06:57:25Z</time>
      </trkpt>
      <trkpt lat="42.89684" lon="-0.20495">
        <ele>1488.5</ele>
        <time>2026-07-15T06:57:26Z</time>
      </trkpt>
      <trkpt lat="42.89684" lon="-0.20495">
        <ele>1488.5</ele>
        <time>2026-07-15T06:57:26Z</time>
      </trkpt>
      <trkpt lat="42.89684" lon="-0.20495">
        <ele>1488.5</ele>
        <time>2026-07-15T06:57:27Z</time>
      </trkpt>
      <trkpt lat="42.89683" lon="-0.20494">
        <ele>1488.5</ele>
        <time>2026-07-15T06:57:28Z</time>
      </trkpt>
      <trkpt lat="42.89683" lon="-0.20494">
        <ele>1488.5</ele>
        <time>2026-07-15T06:57:29Z</time>
      </trkpt>
      <trkpt lat="42.89683" lon="-0.20493">
        <ele>1488.5</ele>
        <time>2026-07-15T06:57:30Z</time>
      </trkpt>
      <trkpt lat="42.89682" lon="-0.20493">
        <ele>1488.5</ele>
        <time>2026-07-15T06:57:30Z</time>
      </trkpt>
      <trkpt lat="42.89682" lon="-0.20492">
        <ele>1488.5</ele>
        <time>2026-07-15T06:57:31Z</time>
      </trkpt>
      <trkpt lat="42.89681" lon="-0.20492">
        <ele>1489.5</ele>
        <time>2026-07-15T06:57:32Z</time>
      </trkpt>
      <trkpt lat="42.89681" lon="-0.20491">
        <ele>1490.5</ele>
        <time>2026-07-15T06:57:33Z</time>
      </trkpt>
      <trkpt lat="42.8968" lon="-0.20491">
        <ele>1491.5</ele>
        <time>2026-07-15T06:57:33Z</time>
      </trkpt>
      <trkpt lat="42.8968" lon="-0.20491">
        <ele>1491.5</ele>
        <time>2026-07-15T06:57:34Z</time>
      </trkpt>
      <trkpt lat="42.89679" lon="-0.2049">
        <ele>1491.5</ele>
        <time>2026-07-15T06:57:35Z</time>
      </trkpt>
      <trkpt lat="42.89679" lon="-0.2049">
        <ele>1491.5</ele>
        <time>2026-07-15T06:57:36Z</time>
      </trkpt>
      <trkpt lat="42.89678" lon="-0.2049">
        <ele>1492.5</ele>
        <time>2026-07-15T06:57:37Z</time>
      </trkpt>
      <trkpt lat="42.89678" lon="-0.20489">
        <ele>1492.5</ele>
        <time>2026-07-15T06:57:37Z</time>
      </trkpt>
      <trkpt lat="42.89677" lon="-0.20489">
        <ele>1492.5</ele>
        <time>2026-07-15T06:57:38Z</time>
      </trkpt>
      <trkpt lat="42.89677" lon="-0.20489">
        <ele>1492.5</ele>
        <time>2026-07-15T06:57:39Z</time>
      </trkpt>
      <trkpt lat="42.89676" lon="-0.20488">
        <ele>1493.5</ele>
        <time>2026-07-15T06:57:40Z</time>
      </trkpt>
      <trkpt lat="42.89676" lon="-0.20488">
        <ele>1492.5</ele>
        <time>2026-07-15T06:57:40Z</time>
      </trkpt>
      <trkpt lat="42.89675" lon="-0.20487">
        <ele>1492.5</ele>
        <time>2026-07-15T06:57:41Z</time>
      </trkpt>
      <trkpt lat="42.89674" lon="-0.20487">
        <ele>1492.5</ele>
        <time>2026-07-15T06:57:42Z</time>
      </trkpt>
      <trkpt lat="42.89674" lon="-0.20486">
        <ele>1492.5</ele>
        <time>2026-07-15T06:57:43Z</time>
      </trkpt>
      <trkpt lat="42.89674" lon="-0.20486">
        <ele>1493.5</ele>
        <time>2026-07-15T06:57:43Z</time>
      </trkpt>
      <trkpt lat="42.89673" lon="-0.20485">
        <ele>1494.5</ele>
        <time>2026-07-15T06:57:44Z</time>
      </trkpt>
      <trkpt lat="42.89673" lon="-0.20485">
        <ele>1494.5</ele>
        <time>2026-07-15T06:57:45Z</time>
      </trkpt>
      <trkpt lat="42.89672" lon="-0.20484">
        <ele>1494.5</ele>
        <time>2026-07-15T06:57:46Z</time>
      </trkpt>
      <trkpt lat="42.89672" lon="-0.20484">
        <ele>1493.5</ele>
        <time>2026-07-15T06:57:46Z</time>
      </trkpt>
      <trkpt lat="42.89671" lon="-0.20483">
        <ele>1493.5</ele>
        <time>2026-07-15T06:57:47Z</time>
      </trkpt>
      <trkpt lat="42.89671" lon="-0.20483">
        <ele>1493.5</ele>
        <time>2026-07-15T06:57:48Z</time>
      </trkpt>
      <trkpt lat="42.89671" lon="-0.20483">
        <ele>1493.5</ele>
        <time>2026-07-15T06:57:48Z</time>
      </trkpt>
      <trkpt lat="42.8967" lon="-0.20482">
        <ele>1493.5</ele>
        <time>2026-07-15T06:57:49Z</time>
      </trkpt>
      <trkpt lat="42.8967" lon="-0.20482">
        <ele>1493.5</ele>
        <time>2026-07-15T06:57:50Z</time>
      </trkpt>
      <trkpt lat="42.89669" lon="-0.20481">
        <ele>1494.5</ele>
        <time>2026-07-15T06:57:50Z</time>
      </trkpt>
      <trkpt lat="42.89669" lon="-0.20481">
        <ele>1494.5</ele>
        <time>2026-07-15T06:57:51Z</time>
      </trkpt>
      <trkpt lat="42.89668" lon="-0.2048">
        <ele>1495.5</ele>
        <time>2026-07-15T06:57:52Z</time>
      </trkpt>
      <trkpt lat="42.89668" lon="-0.2048">
        <ele>1494.5</ele>
        <time>2026-07-15T06:57:53Z</time>
      </trkpt>
      <trkpt lat="42.89667" lon="-0.2048">
        <ele>1494.5</ele>
        <time>2026-07-15T06:57:53Z</time>
      </trkpt>
      <trkpt lat="42.89666" lon="-0.20479">
        <ele>1494.5</ele>
        <time>2026-07-15T06:57:54Z</time>
      </trkpt>
      <trkpt lat="42.89666" lon="-0.20479">
        <ele>1494.5</ele>
        <time>2026-07-15T06:57:55Z</time>
      </trkpt>
      <trkpt lat="42.89665" lon="-0.20479">
        <ele>1495.5</ele>
        <time>2026-07-15T06:57:56Z</time>
      </trkpt>
      <trkpt lat="42.89665" lon="-0.20479">
        <ele>1495.5</ele>
        <time>2026-07-15T06:57:57Z</time>
      </trkpt>
      <trkpt lat="42.89664" lon="-0.20479">
        <ele>1495.5</ele>
        <time>2026-07-15T06:57:57Z</time>
      </trkpt>
      <trkpt lat="42.89664" lon="-0.20479">
        <ele>1495.5</ele>
        <time>2026-07-15T06:57:58Z</time>
      </trkpt>
      <trkpt lat="42.89663" lon="-0.20479">
        <ele>1495.5</ele>
        <time>2026-07-15T06:57:59Z</time>
      </trkpt>
      <trkpt lat="42.89663" lon="-0.20479">
        <ele>1495.5</ele>
        <time>2026-07-15T06:58:00Z</time>
      </trkpt>
      <trkpt lat="42.89663" lon="-0.20478">
        <ele>1496.5</ele>
        <time>2026-07-15T06:58:00Z</time>
      </trkpt>
      <trkpt lat="42.89662" lon="-0.20478">
        <ele>1496.5</ele>
        <time>2026-07-15T06:58:01Z</time>
      </trkpt>
      <trkpt lat="42.89661" lon="-0.20478">
        <ele>1496.5</ele>
        <time>2026-07-15T06:58:02Z</time>
      </trkpt>
      <trkpt lat="42.89661" lon="-0.20478">
        <ele>1496.5</ele>
        <time>2026-07-15T06:58:03Z</time>
      </trkpt>
      <trkpt lat="42.89661" lon="-0.20478">
        <ele>1496.5</ele>
        <time>2026-07-15T06:58:03Z</time>
      </trkpt>
      <trkpt lat="42.89661" lon="-0.20478">
        <ele>1496.5</ele>
        <time>2026-07-15T06:58:04Z</time>
      </trkpt>
      <trkpt lat="42.89661" lon="-0.20478">
        <ele>1496.5</ele>
        <time>2026-07-15T06:58:05Z</time>
      </trkpt>
      <trkpt lat="42.89661" lon="-0.20478">
        <ele>1496.5</ele>
        <time>2026-07-15T06:58:06Z</time>
      </trkpt>
      <trkpt lat="42.89661" lon="-0.20478">
        <ele>1495.5</ele>
        <time>2026-07-15T06:58:06Z</time>
      </trkpt>
      <trkpt lat="42.89661" lon="-0.20478">
        <ele>1496.5</ele>
        <time>2026-07-15T06:58:07Z</time>
      </trkpt>
      <trkpt lat="42.8966" lon="-0.20477">
        <ele>1496.5</ele>
        <time>2026-07-15T06:58:08Z</time>
      </trkpt>
      <trkpt lat="42.8966" lon="-0.20477">
        <ele>1496.5</ele>
        <time>2026-07-15T06:58:09Z</time>
      </trkpt>
      <trkpt lat="42.89659" lon="-0.20477">
        <ele>1496.5</ele>
        <time>2026-07-15T06:58:09Z</time>
      </trkpt>
      <trkpt lat="42.89658" lon="-0.20476">
        <ele>1496.5</ele>
        <time>2026-07-15T06:58:10Z</time>
      </trkpt>
      <trkpt lat="42.89658" lon="-0.20476">
        <ele>1496.5</ele>
        <time>2026-07-15T06:58:11Z</time>
      </trkpt>
      <trkpt lat="42.89657" lon="-0.20475">
        <ele>1496.5</ele>
        <time>2026-07-15T06:58:12Z</time>
      </trkpt>
      <trkpt lat="42.89656" lon="-0.20475">
        <ele>1496.5</ele>
        <time>2026-07-15T06:58:12Z</time>
      </trkpt>
      <trkpt lat="42.89656" lon="-0.20474">
        <ele>1496.5</ele>
        <time>2026-07-15T06:58:13Z</time>
      </trkpt>
      <trkpt lat="42.89655" lon="-0.20474">
        <ele>1495.5</ele>
        <time>2026-07-15T06:58:14Z</time>
      </trkpt>
      <trkpt lat="42.89655" lon="-0.20474">
        <ele>1495.5</ele>
        <time>2026-07-15T06:58:14Z</time>
      </trkpt>
      <trkpt lat="42.89654" lon="-0.20473">
        <ele>1495.5</ele>
        <time>2026-07-15T06:58:15Z</time>
      </trkpt>
      <trkpt lat="42.89653" lon="-0.20473">
        <ele>1495.5</ele>
        <time>2026-07-15T06:58:16Z</time>
      </trkpt>
      <trkpt lat="42.89653" lon="-0.20473">
        <ele>1495.5</ele>
        <time>2026-07-15T06:58:16Z</time>
      </trkpt>
      <trkpt lat="42.89653" lon="-0.20472">
        <ele>1495.5</ele>
        <time>2026-07-15T06:58:17Z</time>
      </trkpt>
      <trkpt lat="42.89652" lon="-0.20472">
        <ele>1495.5</ele>
        <time>2026-07-15T06:58:18Z</time>
      </trkpt>
      <trkpt lat="42.89651" lon="-0.20471">
        <ele>1496.5</ele>
        <time>2026-07-15T06:58:19Z</time>
      </trkpt>
      <trkpt lat="42.89651" lon="-0.20471">
        <ele>1496.5</ele>
        <time>2026-07-15T06:58:19Z</time>
      </trkpt>
      <trkpt lat="42.8965" lon="-0.20471">
        <ele>1496.5</ele>
        <time>2026-07-15T06:58:20Z</time>
      </trkpt>
      <trkpt lat="42.8965" lon="-0.20471">
        <ele>1496.5</ele>
        <time>2026-07-15T06:58:21Z</time>
      </trkpt>
      <trkpt lat="42.89649" lon="-0.20471">
        <ele>1496.5</ele>
        <time>2026-07-15T06:58:21Z</time>
      </trkpt>
      <trkpt lat="42.89649" lon="-0.20471">
        <ele>1497.5</ele>
        <time>2026-07-15T06:58:22Z</time>
      </trkpt>
      <trkpt lat="42.89648" lon="-0.20471">
        <ele>1497.5</ele>
        <time>2026-07-15T06:58:23Z</time>
      </trkpt>
      <trkpt lat="42.89647" lon="-0.20471">
        <ele>1496.5</ele>
        <time>2026-07-15T06:58:24Z</time>
      </trkpt>
      <trkpt lat="42.89647" lon="-0.20471">
        <ele>1496.5</ele>
        <time>2026-07-15T06:58:24Z</time>
      </trkpt>
      <trkpt lat="42.89646" lon="-0.20471">
        <ele>1496.5</ele>
        <time>2026-07-15T06:58:25Z</time>
      </trkpt>
      <trkpt lat="42.89646" lon="-0.20471">
        <ele>1497.5</ele>
        <time>2026-07-15T06:58:26Z</time>
      </trkpt>
      <trkpt lat="42.89645" lon="-0.20471">
        <ele>1497.5</ele>
        <time>2026-07-15T06:58:27Z</time>
      </trkpt>
      <trkpt lat="42.89644" lon="-0.20471">
        <ele>1497.5</ele>
        <time>2026-07-15T06:58:27Z</time>
      </trkpt>
      <trkpt lat="42.89644" lon="-0.20471">
        <ele>1497.5</ele>
        <time>2026-07-15T06:58:28Z</time>
      </trkpt>
      <trkpt lat="42.89643" lon="-0.20471">
        <ele>1497.5</ele>
        <time>2026-07-15T06:58:29Z</time>
      </trkpt>
      <trkpt lat="42.89643" lon="-0.2047">
        <ele>1498.5</ele>
        <time>2026-07-15T06:58:30Z</time>
      </trkpt>
      <trkpt lat="42.89642" lon="-0.2047">
        <ele>1498.5</ele>
        <time>2026-07-15T06:58:30Z</time>
      </trkpt>
      <trkpt lat="42.89642" lon="-0.2047">
        <ele>1498.5</ele>
        <time>2026-07-15T06:58:31Z</time>
      </trkpt>
      <trkpt lat="42.89641" lon="-0.2047">
        <ele>1498.5</ele>
        <time>2026-07-15T06:58:32Z</time>
      </trkpt>
      <trkpt lat="42.8964" lon="-0.20469">
        <ele>1498.5</ele>
        <time>2026-07-15T06:58:33Z</time>
      </trkpt>
      <trkpt lat="42.8964" lon="-0.20469">
        <ele>1498.5</ele>
        <time>2026-07-15T06:58:33Z</time>
      </trkpt>
      <trkpt lat="42.89639" lon="-0.20468">
        <ele>1499.5</ele>
        <time>2026-07-15T06:58:34Z</time>
      </trkpt>
      <trkpt lat="42.89639" lon="-0.20468">
        <ele>1499.5</ele>
        <time>2026-07-15T06:58:35Z</time>
      </trkpt>
      <trkpt lat="42.89638" lon="-0.20468">
        <ele>1499.5</ele>
        <time>2026-07-15T06:58:36Z</time>
      </trkpt>
      <trkpt lat="42.89638" lon="-0.20468">
        <ele>1498.5</ele>
        <time>2026-07-15T06:58:36Z</time>
      </trkpt>
      <trkpt lat="42.89637" lon="-0.20468">
        <ele>1498.5</ele>
        <time>2026-07-15T06:58:37Z</time>
      </trkpt>
      <trkpt lat="42.89637" lon="-0.20467">
        <ele>1498.5</ele>
        <time>2026-07-15T06:58:38Z</time>
      </trkpt>
      <trkpt lat="42.89636" lon="-0.20467">
        <ele>1498.5</ele>
        <time>2026-07-15T06:58:39Z</time>
      </trkpt>
      <trkpt lat="42.89635" lon="-0.20467">
        <ele>1499.5</ele>
        <time>2026-07-15T06:58:39Z</time>
      </trkpt>
      <trkpt lat="42.89635" lon="-0.20466">
        <ele>1499.5</ele>
        <time>2026-07-15T06:58:40Z</time>
      </trkpt>
      <trkpt lat="42.89634" lon="-0.20466">
        <ele>1500.5</ele>
        <time>2026-07-15T06:58:41Z</time>
      </trkpt>
      <trkpt lat="42.89634" lon="-0.20466">
        <ele>1500.5</ele>
        <time>2026-07-15T06:58:42Z</time>
      </trkpt>
      <trkpt lat="42.89633" lon="-0.20465">
        <ele>1500.5</ele>
        <time>2026-07-15T06:58:42Z</time>
      </trkpt>
      <trkpt lat="42.89632" lon="-0.20465">
        <ele>1500.5</ele>
        <time>2026-07-15T06:58:43Z</time>
      </trkpt>
      <trkpt lat="42.89632" lon="-0.20464">
        <ele>1500.5</ele>
        <time>2026-07-15T06:58:44Z</time>
      </trkpt>
      <trkpt lat="42.89631" lon="-0.20464">
        <ele>1500.5</ele>
        <time>2026-07-15T06:58:44Z</time>
      </trkpt>
      <trkpt lat="42.89631" lon="-0.20464">
        <ele>1501.5</ele>
        <time>2026-07-15T06:58:45Z</time>
      </trkpt>
      <trkpt lat="42.8963" lon="-0.20463">
        <ele>1501.5</ele>
        <time>2026-07-15T06:58:46Z</time>
      </trkpt>
      <trkpt lat="42.89629" lon="-0.20463">
        <ele>1501.5</ele>
        <time>2026-07-15T06:58:47Z</time>
      </trkpt>
      <trkpt lat="42.89629" lon="-0.20463">
        <ele>1501.5</ele>
        <time>2026-07-15T06:58:47Z</time>
      </trkpt>
      <trkpt lat="42.89628" lon="-0.20463">
        <ele>1501.5</ele>
        <time>2026-07-15T06:58:48Z</time>
      </trkpt>
      <trkpt lat="42.89628" lon="-0.20462">
        <ele>1501.5</ele>
        <time>2026-07-15T06:58:49Z</time>
      </trkpt>
      <trkpt lat="42.89627" lon="-0.20462">
        <ele>1502.5</ele>
        <time>2026-07-15T06:58:49Z</time>
      </trkpt>
      <trkpt lat="42.89627" lon="-0.20462">
        <ele>1502.5</ele>
        <time>2026-07-15T06:58:50Z</time>
      </trkpt>
      <trkpt lat="42.89626" lon="-0.20461">
        <ele>1502.5</ele>
        <time>2026-07-15T06:58:51Z</time>
      </trkpt>
      <trkpt lat="42.89626" lon="-0.20461">
        <ele>1502.5</ele>
        <time>2026-07-15T06:58:52Z</time>
      </trkpt>
      <trkpt lat="42.89626" lon="-0.20461">
        <ele>1502.5</ele>
        <time>2026-07-15T06:58:52Z</time>
      </trkpt>
      <trkpt lat="42.89625" lon="-0.20461">
        <ele>1502.5</ele>
        <time>2026-07-15T06:58:53Z</time>
      </trkpt>
      <trkpt lat="42.89625" lon="-0.2046">
        <ele>1502.5</ele>
        <time>2026-07-15T06:58:54Z</time>
      </trkpt>
      <trkpt lat="42.89624" lon="-0.2046">
        <ele>1502.5</ele>
        <time>2026-07-15T06:58:54Z</time>
      </trkpt>
      <trkpt lat="42.89624" lon="-0.20459">
        <ele>1502.5</ele>
        <time>2026-07-15T06:58:55Z</time>
      </trkpt>
      <trkpt lat="42.89623" lon="-0.20459">
        <ele>1502.5</ele>
        <time>2026-07-15T06:58:56Z</time>
      </trkpt>
      <trkpt lat="42.89623" lon="-0.20459">
        <ele>1502.5</ele>
        <time>2026-07-15T06:58:56Z</time>
      </trkpt>
      <trkpt lat="42.89623" lon="-0.20458">
        <ele>1502.5</ele>
        <time>2026-07-15T06:58:57Z</time>
      </trkpt>
      <trkpt lat="42.89622" lon="-0.20457">
        <ele>1502.5</ele>
        <time>2026-07-15T06:58:58Z</time>
      </trkpt>
      <trkpt lat="42.89622" lon="-0.20457">
        <ele>1502.5</ele>
        <time>2026-07-15T06:58:58Z</time>
      </trkpt>
      <trkpt lat="42.89621" lon="-0.20457">
        <ele>1502.5</ele>
        <time>2026-07-15T06:58:59Z</time>
      </trkpt>
      <trkpt lat="42.89621" lon="-0.20457">
        <ele>1502.5</ele>
        <time>2026-07-15T06:59:00Z</time>
      </trkpt>
      <trkpt lat="42.8962" lon="-0.20457">
        <ele>1503.5</ele>
        <time>2026-07-15T06:59:01Z</time>
      </trkpt>
      <trkpt lat="42.89619" lon="-0.20457">
        <ele>1503.5</ele>
        <time>2026-07-15T06:59:01Z</time>
      </trkpt>
      <trkpt lat="42.89619" lon="-0.20457">
        <ele>1504.5</ele>
        <time>2026-07-15T06:59:02Z</time>
      </trkpt>
      <trkpt lat="42.89618" lon="-0.20457">
        <ele>1504.5</ele>
        <time>2026-07-15T06:59:03Z</time>
      </trkpt>
      <trkpt lat="42.89618" lon="-0.20457">
        <ele>1504.5</ele>
        <time>2026-07-15T06:59:04Z</time>
      </trkpt>
      <trkpt lat="42.89618" lon="-0.20457">
        <ele>1504.5</ele>
        <time>2026-07-15T06:59:04Z</time>
      </trkpt>
      <trkpt lat="42.89617" lon="-0.20457">
        <ele>1504.5</ele>
        <time>2026-07-15T06:59:05Z</time>
      </trkpt>
      <trkpt lat="42.89617" lon="-0.20457">
        <ele>1504.5</ele>
        <time>2026-07-15T06:59:06Z</time>
      </trkpt>
      <trkpt lat="42.89616" lon="-0.20456">
        <ele>1504.5</ele>
        <time>2026-07-15T06:59:07Z</time>
      </trkpt>
      <trkpt lat="42.89616" lon="-0.20456">
        <ele>1504.5</ele>
        <time>2026-07-15T06:59:07Z</time>
      </trkpt>
      <trkpt lat="42.89615" lon="-0.20456">
        <ele>1504.5</ele>
        <time>2026-07-15T06:59:08Z</time>
      </trkpt>
      <trkpt lat="42.89615" lon="-0.20456">
        <ele>1504.5</ele>
        <time>2026-07-15T06:59:09Z</time>
      </trkpt>
      <trkpt lat="42.89614" lon="-0.20455">
        <ele>1504.5</ele>
        <time>2026-07-15T06:59:10Z</time>
      </trkpt>
      <trkpt lat="42.89614" lon="-0.20455">
        <ele>1504.5</ele>
        <time>2026-07-15T06:59:10Z</time>
      </trkpt>
      <trkpt lat="42.89614" lon="-0.20455">
        <ele>1505.5</ele>
        <time>2026-07-15T06:59:11Z</time>
      </trkpt>
      <trkpt lat="42.89613" lon="-0.20454">
        <ele>1505.5</ele>
        <time>2026-07-15T06:59:12Z</time>
      </trkpt>
      <trkpt lat="42.89612" lon="-0.20454">
        <ele>1505.5</ele>
        <time>2026-07-15T06:59:13Z</time>
      </trkpt>
      <trkpt lat="42.89612" lon="-0.20454">
        <ele>1505.5</ele>
        <time>2026-07-15T06:59:14Z</time>
      </trkpt>
      <trkpt lat="42.89611" lon="-0.20454">
        <ele>1505.5</ele>
        <time>2026-07-15T06:59:14Z</time>
      </trkpt>
      <trkpt lat="42.89611" lon="-0.20454">
        <ele>1505.5</ele>
        <time>2026-07-15T06:59:15Z</time>
      </trkpt>
      <trkpt lat="42.8961" lon="-0.20454">
        <ele>1505.5</ele>
        <time>2026-07-15T06:59:16Z</time>
      </trkpt>
      <trkpt lat="42.8961" lon="-0.20453">
        <ele>1505.5</ele>
        <time>2026-07-15T06:59:16Z</time>
      </trkpt>
      <trkpt lat="42.8961" lon="-0.20453">
        <ele>1505.5</ele>
        <time>2026-07-15T06:59:17Z</time>
      </trkpt>
      <trkpt lat="42.89609" lon="-0.20453">
        <ele>1505.5</ele>
        <time>2026-07-15T06:59:18Z</time>
      </trkpt>
      <trkpt lat="42.89609" lon="-0.20453">
        <ele>1506.5</ele>
        <time>2026-07-15T06:59:19Z</time>
      </trkpt>
      <trkpt lat="42.89608" lon="-0.20452">
        <ele>1506.5</ele>
        <time>2026-07-15T06:59:19Z</time>
      </trkpt>
      <trkpt lat="42.89608" lon="-0.20452">
        <ele>1506.5</ele>
        <time>2026-07-15T06:59:20Z</time>
      </trkpt>
      <trkpt lat="42.89607" lon="-0.20451">
        <ele>1506.5</ele>
        <time>2026-07-15T06:59:21Z</time>
      </trkpt>
      <trkpt lat="42.89606" lon="-0.20451">
        <ele>1506.5</ele>
        <time>2026-07-15T06:59:22Z</time>
      </trkpt>
      <trkpt lat="42.89606" lon="-0.2045">
        <ele>1506.5</ele>
        <time>2026-07-15T06:59:23Z</time>
      </trkpt>
      <trkpt lat="42.89606" lon="-0.2045">
        <ele>1506.5</ele>
        <time>2026-07-15T06:59:24Z</time>
      </trkpt>
      <trkpt lat="42.89606" lon="-0.20449">
        <ele>1506.5</ele>
        <time>2026-07-15T06:59:24Z</time>
      </trkpt>
      <trkpt lat="42.89605" lon="-0.20449">
        <ele>1506.5</ele>
        <time>2026-07-15T06:59:25Z</time>
      </trkpt>
      <trkpt lat="42.89604" lon="-0.20448">
        <ele>1506.5</ele>
        <time>2026-07-15T06:59:26Z</time>
      </trkpt>
      <trkpt lat="42.89604" lon="-0.20448">
        <ele>1506.5</ele>
        <time>2026-07-15T06:59:27Z</time>
      </trkpt>
      <trkpt lat="42.89604" lon="-0.20447">
        <ele>1507.5</ele>
        <time>2026-07-15T06:59:27Z</time>
      </trkpt>
      <trkpt lat="42.89603" lon="-0.20447">
        <ele>1507.5</ele>
        <time>2026-07-15T06:59:28Z</time>
      </trkpt>
      <trkpt lat="42.89603" lon="-0.20446">
        <ele>1507.5</ele>
        <time>2026-07-15T06:59:29Z</time>
      </trkpt>
      <trkpt lat="42.89602" lon="-0.20446">
        <ele>1507.5</ele>
        <time>2026-07-15T06:59:30Z</time>
      </trkpt>
      <trkpt lat="42.89602" lon="-0.20445">
        <ele>1507.5</ele>
        <time>2026-07-15T06:59:31Z</time>
      </trkpt>
      <trkpt lat="42.89602" lon="-0.20445">
        <ele>1507.5</ele>
        <time>2026-07-15T06:59:31Z</time>
      </trkpt>
      <trkpt lat="42.89601" lon="-0.20445">
        <ele>1507.5</ele>
        <time>2026-07-15T06:59:32Z</time>
      </trkpt>
      <trkpt lat="42.89601" lon="-0.20444">
        <ele>1507.5</ele>
        <time>2026-07-15T06:59:33Z</time>
      </trkpt>
      <trkpt lat="42.89601" lon="-0.20443">
        <ele>1507.5</ele>
        <time>2026-07-15T06:59:34Z</time>
      </trkpt>
      <trkpt lat="42.896" lon="-0.20443">
        <ele>1507.5</ele>
        <time>2026-07-15T06:59:34Z</time>
      </trkpt>
      <trkpt lat="42.896" lon="-0.20443">
        <ele>1507.5</ele>
        <time>2026-07-15T06:59:35Z</time>
      </trkpt>
      <trkpt lat="42.896" lon="-0.20442">
        <ele>1508.5</ele>
        <time>2026-07-15T06:59:36Z</time>
      </trkpt>
      <trkpt lat="42.89599" lon="-0.20442">
        <ele>1507.5</ele>
        <time>2026-07-15T06:59:36Z</time>
      </trkpt>
      <trkpt lat="42.89599" lon="-0.20442">
        <ele>1507.5</ele>
        <time>2026-07-15T06:59:37Z</time>
      </trkpt>
      <trkpt lat="42.89598" lon="-0.20442">
        <ele>1507.5</ele>
        <time>2026-07-15T06:59:38Z</time>
      </trkpt>
      <trkpt lat="42.89597" lon="-0.20442">
        <ele>1507.5</ele>
        <time>2026-07-15T06:59:39Z</time>
      </trkpt>
      <trkpt lat="42.89597" lon="-0.20441">
        <ele>1506.5</ele>
        <time>2026-07-15T06:59:39Z</time>
      </trkpt>
      <trkpt lat="42.89596" lon="-0.20441">
        <ele>1506.5</ele>
        <time>2026-07-15T06:59:40Z</time>
      </trkpt>
      <trkpt lat="42.89596" lon="-0.2044">
        <ele>1506.5</ele>
        <time>2026-07-15T06:59:41Z</time>
      </trkpt>
      <trkpt lat="42.89595" lon="-0.2044">
        <ele>1506.5</ele>
        <time>2026-07-15T06:59:42Z</time>
      </trkpt>
      <trkpt lat="42.89595" lon="-0.20439">
        <ele>1507.5</ele>
        <time>2026-07-15T06:59:42Z</time>
      </trkpt>
      <trkpt lat="42.89595" lon="-0.20439">
        <ele>1507.5</ele>
        <time>2026-07-15T06:59:43Z</time>
      </trkpt>
      <trkpt lat="42.89594" lon="-0.20438">
        <ele>1507.5</ele>
        <time>2026-07-15T06:59:44Z</time>
      </trkpt>
      <trkpt lat="42.89594" lon="-0.20438">
        <ele>1506.5</ele>
        <time>2026-07-15T06:59:45Z</time>
      </trkpt>
      <trkpt lat="42.89593" lon="-0.20437">
        <ele>1507.5</ele>
        <time>2026-07-15T06:59:45Z</time>
      </trkpt>
      <trkpt lat="42.89593" lon="-0.20436">
        <ele>1506.5</ele>
        <time>2026-07-15T06:59:46Z</time>
      </trkpt>
      <trkpt lat="42.89592" lon="-0.20436">
        <ele>1506.5</ele>
        <time>2026-07-15T06:59:47Z</time>
      </trkpt>
      <trkpt lat="42.89592" lon="-0.20436">
        <ele>1506.5</ele>
        <time>2026-07-15T06:59:48Z</time>
      </trkpt>
      <trkpt lat="42.89592" lon="-0.20435">
        <ele>1506.5</ele>
        <time>2026-07-15T06:59:48Z</time>
      </trkpt>
      <trkpt lat="42.89591" lon="-0.20435">
        <ele>1506.5</ele>
        <time>2026-07-15T06:59:49Z</time>
      </trkpt>
      <trkpt lat="42.89591" lon="-0.20435">
        <ele>1507.5</ele>
        <time>2026-07-15T06:59:50Z</time>
      </trkpt>
      <trkpt lat="42.8959" lon="-0.20434">
        <ele>1507.5</ele>
        <time>2026-07-15T06:59:51Z</time>
      </trkpt>
      <trkpt lat="42.8959" lon="-0.20434">
        <ele>1507.5</ele>
        <time>2026-07-15T06:59:52Z</time>
      </trkpt>
      <trkpt lat="42.89589" lon="-0.20434">
        <ele>1507.5</ele>
        <time>2026-07-15T06:59:52Z</time>
      </trkpt>
      <trkpt lat="42.89589" lon="-0.20433">
        <ele>1507.5</ele>
        <time>2026-07-15T06:59:53Z</time>
      </trkpt>
      <trkpt lat="42.89588" lon="-0.20433">
        <ele>1507.5</ele>
        <time>2026-07-15T06:59:54Z</time>
      </trkpt>
      <trkpt lat="42.89588" lon="-0.20433">
        <ele>1508.5</ele>
        <time>2026-07-15T06:59:55Z</time>
      </trkpt>
      <trkpt lat="42.89588" lon="-0.20432">
        <ele>1508.5</ele>
        <time>2026-07-15T06:59:55Z</time>
      </trkpt>
      <trkpt lat="42.89587" lon="-0.20432">
        <ele>1509.5</ele>
        <time>2026-07-15T06:59:56Z</time>
      </trkpt>
      <trkpt lat="42.89587" lon="-0.20431">
        <ele>1509.5</ele>
        <time>2026-07-15T06:59:57Z</time>
      </trkpt>
      <trkpt lat="42.89586" lon="-0.20431">
        <ele>1509.5</ele>
        <time>2026-07-15T06:59:58Z</time>
      </trkpt>
      <trkpt lat="42.89586" lon="-0.20431">
        <ele>1509.5</ele>
        <time>2026-07-15T06:59:59Z</time>
      </trkpt>
      <trkpt lat="42.89585" lon="-0.2043">
        <ele>1509.5</ele>
        <time>2026-07-15T07:00:00Z</time>
      </trkpt>
      <trkpt lat="42.89585" lon="-0.2043">
        <ele>1510.5</ele>
        <time>2026-07-15T07:00:00Z</time>
      </trkpt>
      <trkpt lat="42.89585" lon="-0.20429">
        <ele>1510.5</ele>
        <time>2026-07-15T07:00:01Z</time>
      </trkpt>
      <trkpt lat="42.89584" lon="-0.20429">
        <ele>1510.5</ele>
        <time>2026-07-15T07:00:02Z</time>
      </trkpt>
      <trkpt lat="42.89584" lon="-0.20428">
        <ele>1510.5</ele>
        <time>2026-07-15T07:00:03Z</time>
      </trkpt>
      <trkpt lat="42.89584" lon="-0.20428">
        <ele>1510.5</ele>
        <time>2026-07-15T07:00:03Z</time>
      </trkpt>
      <trkpt lat="42.89583" lon="-0.20427">
        <ele>1510.5</ele>
        <time>2026-07-15T07:00:04Z</time>
      </trkpt>
      <trkpt lat="42.89583" lon="-0.20427">
        <ele>1510.5</ele>
        <time>2026-07-15T07:00:05Z</time>
      </trkpt>
      <trkpt lat="42.89583" lon="-0.20426">
        <ele>1510.5</ele>
        <time>2026-07-15T07:00:06Z</time>
      </trkpt>
      <trkpt lat="42.89582" lon="-0.20426">
        <ele>1510.5</ele>
        <time>2026-07-15T07:00:06Z</time>
      </trkpt>
      <trkpt lat="42.89582" lon="-0.20426">
        <ele>1510.5</ele>
        <time>2026-07-15T07:00:07Z</time>
      </trkpt>
      <trkpt lat="42.89582" lon="-0.20425">
        <ele>1510.5</ele>
        <time>2026-07-15T07:00:08Z</time>
      </trkpt>
      <trkpt lat="42.89581" lon="-0.20425">
        <ele>1510.5</ele>
        <time>2026-07-15T07:00:09Z</time>
      </trkpt>
      <trkpt lat="42.89581" lon="-0.20424">
        <ele>1510.5</ele>
        <time>2026-07-15T07:00:10Z</time>
      </trkpt>
      <trkpt lat="42.89581" lon="-0.20424">
        <ele>1510.5</ele>
        <time>2026-07-15T07:00:10Z</time>
      </trkpt>
      <trkpt lat="42.89581" lon="-0.20423">
        <ele>1510.5</ele>
        <time>2026-07-15T07:00:11Z</time>
      </trkpt>
      <trkpt lat="42.8958" lon="-0.20423">
        <ele>1510.5</ele>
        <time>2026-07-15T07:00:12Z</time>
      </trkpt>
      <trkpt lat="42.8958" lon="-0.20422">
        <ele>1511.5</ele>
        <time>2026-07-15T07:00:13Z</time>
      </trkpt>
      <trkpt lat="42.8958" lon="-0.20422">
        <ele>1511.5</ele>
        <time>2026-07-15T07:00:13Z</time>
      </trkpt>
      <trkpt lat="42.89579" lon="-0.20421">
        <ele>1511.5</ele>
        <time>2026-07-15T07:00:14Z</time>
      </trkpt>
      <trkpt lat="42.89578" lon="-0.20421">
        <ele>1511.5</ele>
        <time>2026-07-15T07:00:15Z</time>
      </trkpt>
      <trkpt lat="42.89578" lon="-0.20421">
        <ele>1512.5</ele>
        <time>2026-07-15T07:00:16Z</time>
      </trkpt>
      <trkpt lat="42.89578" lon="-0.2042">
        <ele>1512.5</ele>
        <time>2026-07-15T07:00:16Z</time>
      </trkpt>
      <trkpt lat="42.89577" lon="-0.2042">
        <ele>1512.5</ele>
        <time>2026-07-15T07:00:17Z</time>
      </trkpt>
      <trkpt lat="42.89577" lon="-0.2042">
        <ele>1512.5</ele>
        <time>2026-07-15T07:00:18Z</time>
      </trkpt>
      <trkpt lat="42.89577" lon="-0.20419">
        <ele>1512.5</ele>
        <time>2026-07-15T07:00:18Z</time>
      </trkpt>
      <trkpt lat="42.89576" lon="-0.20419">
        <ele>1513.5</ele>
        <time>2026-07-15T07:00:19Z</time>
      </trkpt>
      <trkpt lat="42.89576" lon="-0.20419">
        <ele>1513.5</ele>
        <time>2026-07-15T07:00:20Z</time>
      </trkpt>
      <trkpt lat="42.89575" lon="-0.20419">
        <ele>1513.5</ele>
        <time>2026-07-15T07:00:20Z</time>
      </trkpt>
      <trkpt lat="42.89575" lon="-0.20419">
        <ele>1514.5</ele>
        <time>2026-07-15T07:00:21Z</time>
      </trkpt>
      <trkpt lat="42.89574" lon="-0.20418">
        <ele>1515.5</ele>
        <time>2026-07-15T07:00:22Z</time>
      </trkpt>
      <trkpt lat="42.89574" lon="-0.20418">
        <ele>1515.5</ele>
        <time>2026-07-15T07:00:23Z</time>
      </trkpt>
      <trkpt lat="42.89573" lon="-0.20418">
        <ele>1515.5</ele>
        <time>2026-07-15T07:00:24Z</time>
      </trkpt>
      <trkpt lat="42.89572" lon="-0.20418">
        <ele>1516.5</ele>
        <time>2026-07-15T07:00:24Z</time>
      </trkpt>
      <trkpt lat="42.89572" lon="-0.20417">
        <ele>1516.5</ele>
        <time>2026-07-15T07:00:25Z</time>
      </trkpt>
      <trkpt lat="42.89571" lon="-0.20417">
        <ele>1516.5</ele>
        <time>2026-07-15T07:00:26Z</time>
      </trkpt>
      <trkpt lat="42.89571" lon="-0.20417">
        <ele>1516.5</ele>
        <time>2026-07-15T07:00:27Z</time>
      </trkpt>
      <trkpt lat="42.8957" lon="-0.20416">
        <ele>1517.5</ele>
        <time>2026-07-15T07:00:28Z</time>
      </trkpt>
      <trkpt lat="42.8957" lon="-0.20416">
        <ele>1517.5</ele>
        <time>2026-07-15T07:00:28Z</time>
      </trkpt>
      <trkpt lat="42.8957" lon="-0.20416">
        <ele>1517.5</ele>
        <time>2026-07-15T07:00:29Z</time>
      </trkpt>
      <trkpt lat="42.89569" lon="-0.20415">
        <ele>1517.5</ele>
        <time>2026-07-15T07:00:30Z</time>
      </trkpt>
      <trkpt lat="42.89569" lon="-0.20415">
        <ele>1517.5</ele>
        <time>2026-07-15T07:00:31Z</time>
      </trkpt>
      <trkpt lat="42.89568" lon="-0.20414">
        <ele>1517.5</ele>
        <time>2026-07-15T07:00:32Z</time>
      </trkpt>
      <trkpt lat="42.89568" lon="-0.20414">
        <ele>1517.5</ele>
        <time>2026-07-15T07:00:32Z</time>
      </trkpt>
      <trkpt lat="42.89568" lon="-0.20413">
        <ele>1517.5</ele>
        <time>2026-07-15T07:00:33Z</time>
      </trkpt>
      <trkpt lat="42.89567" lon="-0.20413">
        <ele>1518.5</ele>
        <time>2026-07-15T07:00:34Z</time>
      </trkpt>
      <trkpt lat="42.89567" lon="-0.20413">
        <ele>1518.5</ele>
        <time>2026-07-15T07:00:35Z</time>
      </trkpt>
      <trkpt lat="42.89566" lon="-0.20412">
        <ele>1518.5</ele>
        <time>2026-07-15T07:00:35Z</time>
      </trkpt>
      <trkpt lat="42.89566" lon="-0.20412">
        <ele>1517.5</ele>
        <time>2026-07-15T07:00:36Z</time>
      </trkpt>
      <trkpt lat="42.89566" lon="-0.20411">
        <ele>1517.5</ele>
        <time>2026-07-15T07:00:37Z</time>
      </trkpt>
      <trkpt lat="42.89565" lon="-0.20411">
        <ele>1518.5</ele>
        <time>2026-07-15T07:00:38Z</time>
      </trkpt>
      <trkpt lat="42.89565" lon="-0.2041">
        <ele>1518.5</ele>
        <time>2026-07-15T07:00:38Z</time>
      </trkpt>
      <trkpt lat="42.89565" lon="-0.2041">
        <ele>1517.5</ele>
        <time>2026-07-15T07:00:39Z</time>
      </trkpt>
      <trkpt lat="42.89565" lon="-0.2041">
        <ele>1517.5</ele>
        <time>2026-07-15T07:00:40Z</time>
      </trkpt>
      <trkpt lat="42.89564" lon="-0.20409">
        <ele>1517.5</ele>
        <time>2026-07-15T07:00:41Z</time>
      </trkpt>
      <trkpt lat="42.89564" lon="-0.20409">
        <ele>1517.5</ele>
        <time>2026-07-15T07:00:42Z</time>
      </trkpt>
      <trkpt lat="42.89564" lon="-0.20408">
        <ele>1517.5</ele>
        <time>2026-07-15T07:00:43Z</time>
      </trkpt>
      <trkpt lat="42.89564" lon="-0.20408">
        <ele>1517.5</ele>
        <time>2026-07-15T07:00:43Z</time>
      </trkpt>
      <trkpt lat="42.89563" lon="-0.20407">
        <ele>1517.5</ele>
        <time>2026-07-15T07:00:44Z</time>
      </trkpt>
      <trkpt lat="42.89563" lon="-0.20407">
        <ele>1517.5</ele>
        <time>2026-07-15T07:00:45Z</time>
      </trkpt>
      <trkpt lat="42.89563" lon="-0.20406">
        <ele>1516.5</ele>
        <time>2026-07-15T07:00:46Z</time>
      </trkpt>
      <trkpt lat="42.89562" lon="-0.20406">
        <ele>1516.5</ele>
        <time>2026-07-15T07:00:47Z</time>
      </trkpt>
      <trkpt lat="42.89562" lon="-0.20406">
        <ele>1516.5</ele>
        <time>2026-07-15T07:00:47Z</time>
      </trkpt>
      <trkpt lat="42.89562" lon="-0.20405">
        <ele>1516.5</ele>
        <time>2026-07-15T07:00:48Z</time>
      </trkpt>
      <trkpt lat="42.89561" lon="-0.20404">
        <ele>1516.5</ele>
        <time>2026-07-15T07:00:49Z</time>
      </trkpt>
      <trkpt lat="42.89561" lon="-0.20404">
        <ele>1516.5</ele>
        <time>2026-07-15T07:00:50Z</time>
      </trkpt>
      <trkpt lat="42.89561" lon="-0.20403">
        <ele>1516.5</ele>
        <time>2026-07-15T07:00:51Z</time>
      </trkpt>
      <trkpt lat="42.89561" lon="-0.20402">
        <ele>1516.5</ele>
        <time>2026-07-15T07:00:51Z</time>
      </trkpt>
      <trkpt lat="42.8956" lon="-0.20401">
        <ele>1516.5</ele>
        <time>2026-07-15T07:00:52Z</time>
      </trkpt>
      <trkpt lat="42.8956" lon="-0.204">
        <ele>1515.5</ele>
        <time>2026-07-15T07:00:53Z</time>
      </trkpt>
      <trkpt lat="42.8956" lon="-0.204">
        <ele>1515.5</ele>
        <time>2026-07-15T07:00:54Z</time>
      </trkpt>
      <trkpt lat="42.8956" lon="-0.20399">
        <ele>1514.5</ele>
        <time>2026-07-15T07:00:54Z</time>
      </trkpt>
      <trkpt lat="42.8956" lon="-0.20399">
        <ele>1514.5</ele>
        <time>2026-07-15T07:00:55Z</time>
      </trkpt>
      <trkpt lat="42.89559" lon="-0.20398">
        <ele>1514.5</ele>
        <time>2026-07-15T07:00:56Z</time>
      </trkpt>
      <trkpt lat="42.89559" lon="-0.20398">
        <ele>1514.5</ele>
        <time>2026-07-15T07:00:57Z</time>
      </trkpt>
      <trkpt lat="42.89558" lon="-0.20397">
        <ele>1514.5</ele>
        <time>2026-07-15T07:00:58Z</time>
      </trkpt>
      <trkpt lat="42.89558" lon="-0.20397">
        <ele>1514.5</ele>
        <time>2026-07-15T07:00:58Z</time>
      </trkpt>
      <trkpt lat="42.89557" lon="-0.20397">
        <ele>1515.5</ele>
        <time>2026-07-15T07:00:59Z</time>
      </trkpt>
      <trkpt lat="42.89557" lon="-0.20396">
        <ele>1515.5</ele>
        <time>2026-07-15T07:01:00Z</time>
      </trkpt>
      <trkpt lat="42.89556" lon="-0.20396">
        <ele>1515.5</ele>
        <time>2026-07-15T07:01:01Z</time>
      </trkpt>
      <trkpt lat="42.89556" lon="-0.20395">
        <ele>1516.5</ele>
        <time>2026-07-15T07:01:01Z</time>
      </trkpt>
      <trkpt lat="42.89555" lon="-0.20395">
        <ele>1515.5</ele>
        <time>2026-07-15T07:01:02Z</time>
      </trkpt>
      <trkpt lat="42.89555" lon="-0.20395">
        <ele>1515.5</ele>
        <time>2026-07-15T07:01:03Z</time>
      </trkpt>
      <trkpt lat="42.89554" lon="-0.20394">
        <ele>1516.5</ele>
        <time>2026-07-15T07:01:04Z</time>
      </trkpt>
      <trkpt lat="42.89554" lon="-0.20395">
        <ele>1515.5</ele>
        <time>2026-07-15T07:01:04Z</time>
      </trkpt>
      <trkpt lat="42.89553" lon="-0.20394">
        <ele>1515.5</ele>
        <time>2026-07-15T07:01:05Z</time>
      </trkpt>
      <trkpt lat="42.89553" lon="-0.20394">
        <ele>1515.5</ele>
        <time>2026-07-15T07:01:06Z</time>
      </trkpt>
      <trkpt lat="42.89552" lon="-0.20394">
        <ele>1515.5</ele>
        <time>2026-07-15T07:01:07Z</time>
      </trkpt>
      <trkpt lat="42.89552" lon="-0.20394">
        <ele>1515.5</ele>
        <time>2026-07-15T07:01:08Z</time>
      </trkpt>
      <trkpt lat="42.89552" lon="-0.20393">
        <ele>1515.5</ele>
        <time>2026-07-15T07:01:08Z</time>
      </trkpt>
      <trkpt lat="42.89551" lon="-0.20393">
        <ele>1515.5</ele>
        <time>2026-07-15T07:01:09Z</time>
      </trkpt>
      <trkpt lat="42.89551" lon="-0.20393">
        <ele>1515.5</ele>
        <time>2026-07-15T07:01:10Z</time>
      </trkpt>
      <trkpt lat="42.8955" lon="-0.20392">
        <ele>1516.5</ele>
        <time>2026-07-15T07:01:11Z</time>
      </trkpt>
      <trkpt lat="42.8955" lon="-0.20392">
        <ele>1515.5</ele>
        <time>2026-07-15T07:01:11Z</time>
      </trkpt>
      <trkpt lat="42.89549" lon="-0.20391">
        <ele>1515.5</ele>
        <time>2026-07-15T07:01:12Z</time>
      </trkpt>
      <trkpt lat="42.89549" lon="-0.20391">
        <ele>1516.5</ele>
        <time>2026-07-15T07:01:13Z</time>
      </trkpt>
      <trkpt lat="42.89548" lon="-0.20391">
        <ele>1516.5</ele>
        <time>2026-07-15T07:01:14Z</time>
      </trkpt>
      <trkpt lat="42.89548" lon="-0.20391">
        <ele>1515.5</ele>
        <time>2026-07-15T07:01:14Z</time>
      </trkpt>
      <trkpt lat="42.89547" lon="-0.2039">
        <ele>1515.5</ele>
        <time>2026-07-15T07:01:15Z</time>
      </trkpt>
      <trkpt lat="42.89547" lon="-0.2039">
        <ele>1516.5</ele>
        <time>2026-07-15T07:01:16Z</time>
      </trkpt>
      <trkpt lat="42.89546" lon="-0.20389">
        <ele>1516.5</ele>
        <time>2026-07-15T07:01:16Z</time>
      </trkpt>
      <trkpt lat="42.89546" lon="-0.20389">
        <ele>1517.5</ele>
        <time>2026-07-15T07:01:17Z</time>
      </trkpt>
      <trkpt lat="42.89546" lon="-0.20388">
        <ele>1517.5</ele>
        <time>2026-07-15T07:01:18Z</time>
      </trkpt>
      <trkpt lat="42.89545" lon="-0.20387">
        <ele>1517.5</ele>
        <time>2026-07-15T07:01:19Z</time>
      </trkpt>
      <trkpt lat="42.89545" lon="-0.20387">
        <ele>1518.5</ele>
        <time>2026-07-15T07:01:20Z</time>
      </trkpt>
      <trkpt lat="42.89545" lon="-0.20387">
        <ele>1519.5</ele>
        <time>2026-07-15T07:01:20Z</time>
      </trkpt>
      <trkpt lat="42.89544" lon="-0.20386">
        <ele>1519.5</ele>
        <time>2026-07-15T07:01:21Z</time>
      </trkpt>
      <trkpt lat="42.89543" lon="-0.20386">
        <ele>1519.5</ele>
        <time>2026-07-15T07:01:22Z</time>
      </trkpt>
      <trkpt lat="42.89543" lon="-0.20386">
        <ele>1520.5</ele>
        <time>2026-07-15T07:01:22Z</time>
      </trkpt>
      <trkpt lat="42.89543" lon="-0.20386">
        <ele>1519.5</ele>
        <time>2026-07-15T07:01:23Z</time>
      </trkpt>
      <trkpt lat="42.89542" lon="-0.20385">
        <ele>1519.5</ele>
        <time>2026-07-15T07:01:24Z</time>
      </trkpt>
      <trkpt lat="42.89542" lon="-0.20385">
        <ele>1520.5</ele>
        <time>2026-07-15T07:01:25Z</time>
      </trkpt>
      <trkpt lat="42.89541" lon="-0.20385">
        <ele>1520.5</ele>
        <time>2026-07-15T07:01:26Z</time>
      </trkpt>
      <trkpt lat="42.89541" lon="-0.20385">
        <ele>1520.5</ele>
        <time>2026-07-15T07:01:26Z</time>
      </trkpt>
      <trkpt lat="42.89541" lon="-0.20384">
        <ele>1520.5</ele>
        <time>2026-07-15T07:01:27Z</time>
      </trkpt>
      <trkpt lat="42.8954" lon="-0.20384">
        <ele>1520.5</ele>
        <time>2026-07-15T07:01:28Z</time>
      </trkpt>
      <trkpt lat="42.8954" lon="-0.20383">
        <ele>1520.5</ele>
        <time>2026-07-15T07:01:29Z</time>
      </trkpt>
      <trkpt lat="42.8954" lon="-0.20383">
        <ele>1520.5</ele>
        <time>2026-07-15T07:01:29Z</time>
      </trkpt>
      <trkpt lat="42.89539" lon="-0.20382">
        <ele>1520.5</ele>
        <time>2026-07-15T07:01:30Z</time>
      </trkpt>
      <trkpt lat="42.89539" lon="-0.20382">
        <ele>1520.5</ele>
        <time>2026-07-15T07:01:31Z</time>
      </trkpt>
      <trkpt lat="42.89538" lon="-0.20381">
        <ele>1520.5</ele>
        <time>2026-07-15T07:01:31Z</time>
      </trkpt>
      <trkpt lat="42.89538" lon="-0.20381">
        <ele>1520.5</ele>
        <time>2026-07-15T07:01:32Z</time>
      </trkpt>
      <trkpt lat="42.89537" lon="-0.2038">
        <ele>1520.5</ele>
        <time>2026-07-15T07:01:33Z</time>
      </trkpt>
      <trkpt lat="42.89537" lon="-0.2038">
        <ele>1520.5</ele>
        <time>2026-07-15T07:01:34Z</time>
      </trkpt>
      <trkpt lat="42.89536" lon="-0.20379">
        <ele>1520.5</ele>
        <time>2026-07-15T07:01:35Z</time>
      </trkpt>
      <trkpt lat="42.89536" lon="-0.20379">
        <ele>1520.5</ele>
        <time>2026-07-15T07:01:35Z</time>
      </trkpt>
      <trkpt lat="42.89536" lon="-0.20378">
        <ele>1520.5</ele>
        <time>2026-07-15T07:01:36Z</time>
      </trkpt>
      <trkpt lat="42.89536" lon="-0.20378">
        <ele>1520.5</ele>
        <time>2026-07-15T07:01:37Z</time>
      </trkpt>
      <trkpt lat="42.89535" lon="-0.20377">
        <ele>1520.5</ele>
        <time>2026-07-15T07:01:38Z</time>
      </trkpt>
      <trkpt lat="42.89535" lon="-0.20377">
        <ele>1520.5</ele>
        <time>2026-07-15T07:01:39Z</time>
      </trkpt>
      <trkpt lat="42.89535" lon="-0.20377">
        <ele>1520.5</ele>
        <time>2026-07-15T07:01:40Z</time>
      </trkpt>
      <trkpt lat="42.89534" lon="-0.20377">
        <ele>1520.5</ele>
        <time>2026-07-15T07:01:40Z</time>
      </trkpt>
      <trkpt lat="42.89534" lon="-0.20376">
        <ele>1520.5</ele>
        <time>2026-07-15T07:01:41Z</time>
      </trkpt>
      <trkpt lat="42.89533" lon="-0.20376">
        <ele>1520.5</ele>
        <time>2026-07-15T07:01:42Z</time>
      </trkpt>
      <trkpt lat="42.89533" lon="-0.20376">
        <ele>1520.5</ele>
        <time>2026-07-15T07:01:43Z</time>
      </trkpt>
      <trkpt lat="42.89532" lon="-0.20376">
        <ele>1519.5</ele>
        <time>2026-07-15T07:01:43Z</time>
      </trkpt>
      <trkpt lat="42.89532" lon="-0.20375">
        <ele>1520.5</ele>
        <time>2026-07-15T07:01:44Z</time>
      </trkpt>
      <trkpt lat="42.89531" lon="-0.20375">
        <ele>1520.5</ele>
        <time>2026-07-15T07:01:45Z</time>
      </trkpt>
      <trkpt lat="42.89531" lon="-0.20375">
        <ele>1520.5</ele>
        <time>2026-07-15T07:01:46Z</time>
      </trkpt>
      <trkpt lat="42.8953" lon="-0.20375">
        <ele>1519.5</ele>
        <time>2026-07-15T07:01:47Z</time>
      </trkpt>
      <trkpt lat="42.8953" lon="-0.20375">
        <ele>1519.5</ele>
        <time>2026-07-15T07:01:47Z</time>
      </trkpt>
      <trkpt lat="42.8953" lon="-0.20374">
        <ele>1520.5</ele>
        <time>2026-07-15T07:01:48Z</time>
      </trkpt>
      <trkpt lat="42.8953" lon="-0.20373">
        <ele>1520.5</ele>
        <time>2026-07-15T07:01:49Z</time>
      </trkpt>
      <trkpt lat="42.89529" lon="-0.20373">
        <ele>1520.5</ele>
        <time>2026-07-15T07:01:50Z</time>
      </trkpt>
      <trkpt lat="42.89529" lon="-0.20372">
        <ele>1519.5</ele>
        <time>2026-07-15T07:01:51Z</time>
      </trkpt>
      <trkpt lat="42.89529" lon="-0.20371">
        <ele>1520.5</ele>
        <time>2026-07-15T07:01:51Z</time>
      </trkpt>
      <trkpt lat="42.89528" lon="-0.20371">
        <ele>1520.5</ele>
        <time>2026-07-15T07:01:52Z</time>
      </trkpt>
      <trkpt lat="42.89528" lon="-0.2037">
        <ele>1520.5</ele>
        <time>2026-07-15T07:01:53Z</time>
      </trkpt>
      <trkpt lat="42.89527" lon="-0.2037">
        <ele>1520.5</ele>
        <time>2026-07-15T07:01:54Z</time>
      </trkpt>
      <trkpt lat="42.89527" lon="-0.2037">
        <ele>1520.5</ele>
        <time>2026-07-15T07:01:54Z</time>
      </trkpt>
      <trkpt lat="42.89526" lon="-0.20369">
        <ele>1519.5</ele>
        <time>2026-07-15T07:01:55Z</time>
      </trkpt>
      <trkpt lat="42.89526" lon="-0.20369">
        <ele>1519.5</ele>
        <time>2026-07-15T07:01:56Z</time>
      </trkpt>
      <trkpt lat="42.89525" lon="-0.20369">
        <ele>1520.5</ele>
        <time>2026-07-15T07:01:57Z</time>
      </trkpt>
      <trkpt lat="42.89525" lon="-0.20368">
        <ele>1521.5</ele>
        <time>2026-07-15T07:01:58Z</time>
      </trkpt>
      <trkpt lat="42.89525" lon="-0.20368">
        <ele>1521.5</ele>
        <time>2026-07-15T07:01:58Z</time>
      </trkpt>
      <trkpt lat="42.89524" lon="-0.20368">
        <ele>1521.5</ele>
        <time>2026-07-15T07:01:59Z</time>
      </trkpt>
      <trkpt lat="42.89524" lon="-0.20367">
        <ele>1521.5</ele>
        <time>2026-07-15T07:02:00Z</time>
      </trkpt>
      <trkpt lat="42.89523" lon="-0.20367">
        <ele>1522.5</ele>
        <time>2026-07-15T07:02:01Z</time>
      </trkpt>
      <trkpt lat="42.89523" lon="-0.20367">
        <ele>1523.5</ele>
        <time>2026-07-15T07:02:02Z</time>
      </trkpt>
      <trkpt lat="42.89522" lon="-0.20367">
        <ele>1523.5</ele>
        <time>2026-07-15T07:02:02Z</time>
      </trkpt>
      <trkpt lat="42.89522" lon="-0.20367">
        <ele>1523.5</ele>
        <time>2026-07-15T07:02:03Z</time>
      </trkpt>
      <trkpt lat="42.89521" lon="-0.20367">
        <ele>1524.5</ele>
        <time>2026-07-15T07:02:04Z</time>
      </trkpt>
      <trkpt lat="42.89521" lon="-0.20366">
        <ele>1524.5</ele>
        <time>2026-07-15T07:02:05Z</time>
      </trkpt>
      <trkpt lat="42.89521" lon="-0.20366">
        <ele>1524.5</ele>
        <time>2026-07-15T07:02:06Z</time>
      </trkpt>
      <trkpt lat="42.8952" lon="-0.20366">
        <ele>1524.5</ele>
        <time>2026-07-15T07:02:07Z</time>
      </trkpt>
      <trkpt lat="42.8952" lon="-0.20366">
        <ele>1524.5</ele>
        <time>2026-07-15T07:02:08Z</time>
      </trkpt>
      <trkpt lat="42.89519" lon="-0.20365">
        <ele>1524.5</ele>
        <time>2026-07-15T07:02:08Z</time>
      </trkpt>
      <trkpt lat="42.89519" lon="-0.20365">
        <ele>1524.5</ele>
        <time>2026-07-15T07:02:09Z</time>
      </trkpt>
      <trkpt lat="42.89519" lon="-0.20365">
        <ele>1524.5</ele>
        <time>2026-07-15T07:02:10Z</time>
      </trkpt>
      <trkpt lat="42.89518" lon="-0.20365">
        <ele>1524.5</ele>
        <time>2026-07-15T07:02:11Z</time>
      </trkpt>
      <trkpt lat="42.89518" lon="-0.20364">
        <ele>1524.5</ele>
        <time>2026-07-15T07:02:12Z</time>
      </trkpt>
      <trkpt lat="42.89518" lon="-0.20364">
        <ele>1524.5</ele>
        <time>2026-07-15T07:02:13Z</time>
      </trkpt>
      <trkpt lat="42.89517" lon="-0.20364">
        <ele>1525.5</ele>
        <time>2026-07-15T07:02:14Z</time>
      </trkpt>
      <trkpt lat="42.89517" lon="-0.20364">
        <ele>1525.5</ele>
        <time>2026-07-15T07:02:14Z</time>
      </trkpt>
      <trkpt lat="42.89516" lon="-0.20364">
        <ele>1526.5</ele>
        <time>2026-07-15T07:02:15Z</time>
      </trkpt>
      <trkpt lat="42.89516" lon="-0.20364">
        <ele>1526.5</ele>
        <time>2026-07-15T07:02:16Z</time>
      </trkpt>
      <trkpt lat="42.89515" lon="-0.20363">
        <ele>1525.5</ele>
        <time>2026-07-15T07:02:17Z</time>
      </trkpt>
      <trkpt lat="42.89515" lon="-0.20363">
        <ele>1526.5</ele>
        <time>2026-07-15T07:02:18Z</time>
      </trkpt>
      <trkpt lat="42.89514" lon="-0.20363">
        <ele>1526.5</ele>
        <time>2026-07-15T07:02:19Z</time>
      </trkpt>
      <trkpt lat="42.89514" lon="-0.20363">
        <ele>1526.5</ele>
        <time>2026-07-15T07:02:20Z</time>
      </trkpt>
      <trkpt lat="42.89514" lon="-0.20363">
        <ele>1526.5</ele>
        <time>2026-07-15T07:02:20Z</time>
      </trkpt>
      <trkpt lat="42.89513" lon="-0.20363">
        <ele>1526.5</ele>
        <time>2026-07-15T07:02:21Z</time>
      </trkpt>
      <trkpt lat="42.89513" lon="-0.20363">
        <ele>1526.5</ele>
        <time>2026-07-15T07:02:22Z</time>
      </trkpt>
      <trkpt lat="42.89512" lon="-0.20363">
        <ele>1526.5</ele>
        <time>2026-07-15T07:02:23Z</time>
      </trkpt>
      <trkpt lat="42.89512" lon="-0.20362">
        <ele>1526.5</ele>
        <time>2026-07-15T07:02:24Z</time>
      </trkpt>
      <trkpt lat="42.89512" lon="-0.20362">
        <ele>1525.5</ele>
        <time>2026-07-15T07:02:25Z</time>
      </trkpt>
      <trkpt lat="42.89511" lon="-0.20362">
        <ele>1525.5</ele>
        <time>2026-07-15T07:02:26Z</time>
      </trkpt>
      <trkpt lat="42.89511" lon="-0.20362">
        <ele>1525.5</ele>
        <time>2026-07-15T07:02:26Z</time>
      </trkpt>
      <trkpt lat="42.8951" lon="-0.20361">
        <ele>1526.5</ele>
        <time>2026-07-15T07:02:27Z</time>
      </trkpt>
      <trkpt lat="42.8951" lon="-0.20361">
        <ele>1528.5</ele>
        <time>2026-07-15T07:02:28Z</time>
      </trkpt>
      <trkpt lat="42.89509" lon="-0.20361">
        <ele>1528.5</ele>
        <time>2026-07-15T07:02:29Z</time>
      </trkpt>
      <trkpt lat="42.89509" lon="-0.2036">
        <ele>1527.5</ele>
        <time>2026-07-15T07:02:30Z</time>
      </trkpt>
      <trkpt lat="42.89509" lon="-0.2036">
        <ele>1527.5</ele>
        <time>2026-07-15T07:02:31Z</time>
      </trkpt>
      <trkpt lat="42.89508" lon="-0.20359">
        <ele>1527.5</ele>
        <time>2026-07-15T07:02:31Z</time>
      </trkpt>
      <trkpt lat="42.89508" lon="-0.20358">
        <ele>1528.5</ele>
        <time>2026-07-15T07:02:32Z</time>
      </trkpt>
      <trkpt lat="42.89508" lon="-0.20357">
        <ele>1527.5</ele>
        <time>2026-07-15T07:02:33Z</time>
      </trkpt>
      <trkpt lat="42.89507" lon="-0.20357">
        <ele>1527.5</ele>
        <time>2026-07-15T07:02:34Z</time>
      </trkpt>
      <trkpt lat="42.89507" lon="-0.20356">
        <ele>1527.5</ele>
        <time>2026-07-15T07:02:35Z</time>
      </trkpt>
      <trkpt lat="42.89506" lon="-0.20356">
        <ele>1527.5</ele>
        <time>2026-07-15T07:02:36Z</time>
      </trkpt>
      <trkpt lat="42.89506" lon="-0.20355">
        <ele>1527.5</ele>
        <time>2026-07-15T07:02:36Z</time>
      </trkpt>
      <trkpt lat="42.89506" lon="-0.20355">
        <ele>1527.5</ele>
        <time>2026-07-15T07:02:37Z</time>
      </trkpt>
      <trkpt lat="42.89505" lon="-0.20355">
        <ele>1527.5</ele>
        <time>2026-07-15T07:02:38Z</time>
      </trkpt>
      <trkpt lat="42.89505" lon="-0.20354">
        <ele>1527.5</ele>
        <time>2026-07-15T07:02:39Z</time>
      </trkpt>
      <trkpt lat="42.89505" lon="-0.20354">
        <ele>1527.5</ele>
        <time>2026-07-15T07:02:40Z</time>
      </trkpt>
      <trkpt lat="42.89504" lon="-0.20354">
        <ele>1528.5</ele>
        <time>2026-07-15T07:02:41Z</time>
      </trkpt>
      <trkpt lat="42.89504" lon="-0.20353">
        <ele>1528.5</ele>
        <time>2026-07-15T07:02:41Z</time>
      </trkpt>
      <trkpt lat="42.89504" lon="-0.20353">
        <ele>1528.5</ele>
        <time>2026-07-15T07:02:42Z</time>
      </trkpt>
      <trkpt lat="42.89503" lon="-0.20353">
        <ele>1528.5</ele>
        <time>2026-07-15T07:02:43Z</time>
      </trkpt>
      <trkpt lat="42.89503" lon="-0.20352">
        <ele>1528.5</ele>
        <time>2026-07-15T07:02:44Z</time>
      </trkpt>
      <trkpt lat="42.89502" lon="-0.20352">
        <ele>1529.5</ele>
        <time>2026-07-15T07:02:45Z</time>
      </trkpt>
      <trkpt lat="42.89502" lon="-0.20351">
        <ele>1529.5</ele>
        <time>2026-07-15T07:02:46Z</time>
      </trkpt>
      <trkpt lat="42.89502" lon="-0.20351">
        <ele>1529.5</ele>
        <time>2026-07-15T07:02:46Z</time>
      </trkpt>
      <trkpt lat="42.89501" lon="-0.20351">
        <ele>1529.5</ele>
        <time>2026-07-15T07:02:47Z</time>
      </trkpt>
      <trkpt lat="42.89501" lon="-0.2035">
        <ele>1529.5</ele>
        <time>2026-07-15T07:02:48Z</time>
      </trkpt>
      <trkpt lat="42.89501" lon="-0.2035">
        <ele>1529.5</ele>
        <time>2026-07-15T07:02:49Z</time>
      </trkpt>
      <trkpt lat="42.895" lon="-0.2035">
        <ele>1529.5</ele>
        <time>2026-07-15T07:02:50Z</time>
      </trkpt>
      <trkpt lat="42.895" lon="-0.20349">
        <ele>1530.5</ele>
        <time>2026-07-15T07:02:50Z</time>
      </trkpt>
      <trkpt lat="42.895" lon="-0.20349">
        <ele>1530.5</ele>
        <time>2026-07-15T07:02:51Z</time>
      </trkpt>
      <trkpt lat="42.89499" lon="-0.20349">
        <ele>1530.5</ele>
        <time>2026-07-15T07:02:52Z</time>
      </trkpt>
      <trkpt lat="42.89499" lon="-0.20348">
        <ele>1530.5</ele>
        <time>2026-07-15T07:02:53Z</time>
      </trkpt>
      <trkpt lat="42.89498" lon="-0.20348">
        <ele>1530.5</ele>
        <time>2026-07-15T07:02:54Z</time>
      </trkpt>
      <trkpt lat="42.89498" lon="-0.20348">
        <ele>1530.5</ele>
        <time>2026-07-15T07:02:54Z</time>
      </trkpt>
      <trkpt lat="42.89498" lon="-0.20348">
        <ele>1530.5</ele>
        <time>2026-07-15T07:02:55Z</time>
      </trkpt>
      <trkpt lat="42.89497" lon="-0.20348">
        <ele>1530.5</ele>
        <time>2026-07-15T07:02:56Z</time>
      </trkpt>
      <trkpt lat="42.89496" lon="-0.20348">
        <ele>1530.5</ele>
        <time>2026-07-15T07:02:57Z</time>
      </trkpt>
      <trkpt lat="42.89496" lon="-0.20348">
        <ele>1530.5</ele>
        <time>2026-07-15T07:02:58Z</time>
      </trkpt>
      <trkpt lat="42.89495" lon="-0.20348">
        <ele>1531.5</ele>
        <time>2026-07-15T07:02:59Z</time>
      </trkpt>
      <trkpt lat="42.89495" lon="-0.20347">
        <ele>1532.5</ele>
        <time>2026-07-15T07:02:59Z</time>
      </trkpt>
      <trkpt lat="42.89495" lon="-0.20347">
        <ele>1532.5</ele>
        <time>2026-07-15T07:03:00Z</time>
      </trkpt>
      <trkpt lat="42.89494" lon="-0.20346">
        <ele>1532.5</ele>
        <time>2026-07-15T07:03:01Z</time>
      </trkpt>
      <trkpt lat="42.89493" lon="-0.20346">
        <ele>1532.5</ele>
        <time>2026-07-15T07:03:02Z</time>
      </trkpt>
      <trkpt lat="42.89493" lon="-0.20345">
        <ele>1532.5</ele>
        <time>2026-07-15T07:03:03Z</time>
      </trkpt>
      <trkpt lat="42.89493" lon="-0.20345">
        <ele>1533.5</ele>
        <time>2026-07-15T07:03:03Z</time>
      </trkpt>
      <trkpt lat="42.89492" lon="-0.20345">
        <ele>1533.5</ele>
        <time>2026-07-15T07:03:04Z</time>
      </trkpt>
      <trkpt lat="42.89491" lon="-0.20344">
        <ele>1533.5</ele>
        <time>2026-07-15T07:03:05Z</time>
      </trkpt>
      <trkpt lat="42.89491" lon="-0.20344">
        <ele>1533.5</ele>
        <time>2026-07-15T07:03:06Z</time>
      </trkpt>
      <trkpt lat="42.8949" lon="-0.20344">
        <ele>1533.5</ele>
        <time>2026-07-15T07:03:07Z</time>
      </trkpt>
      <trkpt lat="42.8949" lon="-0.20343">
        <ele>1534.5</ele>
        <time>2026-07-15T07:03:07Z</time>
      </trkpt>
      <trkpt lat="42.89489" lon="-0.20343">
        <ele>1533.5</ele>
        <time>2026-07-15T07:03:08Z</time>
      </trkpt>
      <trkpt lat="42.89488" lon="-0.20343">
        <ele>1533.5</ele>
        <time>2026-07-15T07:03:09Z</time>
      </trkpt>
      <trkpt lat="42.89488" lon="-0.20342">
        <ele>1533.5</ele>
        <time>2026-07-15T07:03:10Z</time>
      </trkpt>
      <trkpt lat="42.89488" lon="-0.20342">
        <ele>1533.5</ele>
        <time>2026-07-15T07:03:11Z</time>
      </trkpt>
      <trkpt lat="42.89487" lon="-0.20341">
        <ele>1533.5</ele>
        <time>2026-07-15T07:03:12Z</time>
      </trkpt>
      <trkpt lat="42.89487" lon="-0.20341">
        <ele>1534.5</ele>
        <time>2026-07-15T07:03:12Z</time>
      </trkpt>
      <trkpt lat="42.89486" lon="-0.20341">
        <ele>1534.5</ele>
        <time>2026-07-15T07:03:13Z</time>
      </trkpt>
      <trkpt lat="42.89486" lon="-0.2034">
        <ele>1534.5</ele>
        <time>2026-07-15T07:03:14Z</time>
      </trkpt>
      <trkpt lat="42.89485" lon="-0.2034">
        <ele>1535.5</ele>
        <time>2026-07-15T07:03:15Z</time>
      </trkpt>
      <trkpt lat="42.89485" lon="-0.2034">
        <ele>1535.5</ele>
        <time>2026-07-15T07:03:16Z</time>
      </trkpt>
      <trkpt lat="42.89485" lon="-0.2034">
        <ele>1535.5</ele>
        <time>2026-07-15T07:03:16Z</time>
      </trkpt>
      <trkpt lat="42.89484" lon="-0.20339">
        <ele>1535.5</ele>
        <time>2026-07-15T07:03:17Z</time>
      </trkpt>
      <trkpt lat="42.89484" lon="-0.20339">
        <ele>1535.5</ele>
        <time>2026-07-15T07:03:18Z</time>
      </trkpt>
      <trkpt lat="42.89483" lon="-0.20339">
        <ele>1535.5</ele>
        <time>2026-07-15T07:03:19Z</time>
      </trkpt>
      <trkpt lat="42.89482" lon="-0.20339">
        <ele>1536.5</ele>
        <time>2026-07-15T07:03:19Z</time>
      </trkpt>
      <trkpt lat="42.89482" lon="-0.20339">
        <ele>1536.5</ele>
        <time>2026-07-15T07:03:20Z</time>
      </trkpt>
      <trkpt lat="42.89481" lon="-0.20339">
        <ele>1536.5</ele>
        <time>2026-07-15T07:03:21Z</time>
      </trkpt>
      <trkpt lat="42.89481" lon="-0.20339">
        <ele>1536.5</ele>
        <time>2026-07-15T07:03:22Z</time>
      </trkpt>
      <trkpt lat="42.8948" lon="-0.20339">
        <ele>1537.5</ele>
        <time>2026-07-15T07:03:23Z</time>
      </trkpt>
      <trkpt lat="42.8948" lon="-0.20339">
        <ele>1536.5</ele>
        <time>2026-07-15T07:03:23Z</time>
      </trkpt>
      <trkpt lat="42.89479" lon="-0.20339">
        <ele>1536.5</ele>
        <time>2026-07-15T07:03:24Z</time>
      </trkpt>
      <trkpt lat="42.89479" lon="-0.20339">
        <ele>1536.5</ele>
        <time>2026-07-15T07:03:25Z</time>
      </trkpt>
      <trkpt lat="42.89478" lon="-0.20339">
        <ele>1536.5</ele>
        <time>2026-07-15T07:03:26Z</time>
      </trkpt>
      <trkpt lat="42.89477" lon="-0.20339">
        <ele>1536.5</ele>
        <time>2026-07-15T07:03:26Z</time>
      </trkpt>
      <trkpt lat="42.89477" lon="-0.20339">
        <ele>1537.5</ele>
        <time>2026-07-15T07:03:27Z</time>
      </trkpt>
      <trkpt lat="42.89476" lon="-0.20339">
        <ele>1537.5</ele>
        <time>2026-07-15T07:03:28Z</time>
      </trkpt>
      <trkpt lat="42.89476" lon="-0.20338">
        <ele>1537.5</ele>
        <time>2026-07-15T07:03:29Z</time>
      </trkpt>
      <trkpt lat="42.89475" lon="-0.20338">
        <ele>1537.5</ele>
        <time>2026-07-15T07:03:30Z</time>
      </trkpt>
      <trkpt lat="42.89475" lon="-0.20338">
        <ele>1537.5</ele>
        <time>2026-07-15T07:03:30Z</time>
      </trkpt>
      <trkpt lat="42.89475" lon="-0.20337">
        <ele>1538.5</ele>
        <time>2026-07-15T07:03:31Z</time>
      </trkpt>
      <trkpt lat="42.89474" lon="-0.20336">
        <ele>1538.5</ele>
        <time>2026-07-15T07:03:32Z</time>
      </trkpt>
      <trkpt lat="42.89474" lon="-0.20336">
        <ele>1538.5</ele>
        <time>2026-07-15T07:03:33Z</time>
      </trkpt>
      <trkpt lat="42.89473" lon="-0.20335">
        <ele>1538.5</ele>
        <time>2026-07-15T07:03:34Z</time>
      </trkpt>
      <trkpt lat="42.89473" lon="-0.20335">
        <ele>1538.5</ele>
        <time>2026-07-15T07:03:35Z</time>
      </trkpt>
      <trkpt lat="42.89473" lon="-0.20335">
        <ele>1538.5</ele>
        <time>2026-07-15T07:03:35Z</time>
      </trkpt>
      <trkpt lat="42.89472" lon="-0.20334">
        <ele>1538.5</ele>
        <time>2026-07-15T07:03:36Z</time>
      </trkpt>
      <trkpt lat="42.89472" lon="-0.20334">
        <ele>1538.5</ele>
        <time>2026-07-15T07:03:37Z</time>
      </trkpt>
      <trkpt lat="42.89471" lon="-0.20333">
        <ele>1538.5</ele>
        <time>2026-07-15T07:03:38Z</time>
      </trkpt>
      <trkpt lat="42.89471" lon="-0.20333">
        <ele>1538.5</ele>
        <time>2026-07-15T07:03:39Z</time>
      </trkpt>
      <trkpt lat="42.89471" lon="-0.20332">
        <ele>1539.5</ele>
        <time>2026-07-15T07:03:39Z</time>
      </trkpt>
      <trkpt lat="42.89471" lon="-0.20332">
        <ele>1539.5</ele>
        <time>2026-07-15T07:03:40Z</time>
      </trkpt>
      <trkpt lat="42.8947" lon="-0.20332">
        <ele>1539.5</ele>
        <time>2026-07-15T07:03:41Z</time>
      </trkpt>
      <trkpt lat="42.8947" lon="-0.20332">
        <ele>1539.5</ele>
        <time>2026-07-15T07:03:42Z</time>
      </trkpt>
      <trkpt lat="42.8947" lon="-0.20331">
        <ele>1539.5</ele>
        <time>2026-07-15T07:03:43Z</time>
      </trkpt>
      <trkpt lat="42.89469" lon="-0.20331">
        <ele>1539.5</ele>
        <time>2026-07-15T07:03:44Z</time>
      </trkpt>
      <trkpt lat="42.89469" lon="-0.20331">
        <ele>1539.5</ele>
        <time>2026-07-15T07:03:44Z</time>
      </trkpt>
      <trkpt lat="42.89469" lon="-0.20331">
        <ele>1539.5</ele>
        <time>2026-07-15T07:03:45Z</time>
      </trkpt>
      <trkpt lat="42.89469" lon="-0.2033">
        <ele>1539.5</ele>
        <time>2026-07-15T07:03:46Z</time>
      </trkpt>
      <trkpt lat="42.89469" lon="-0.2033">
        <ele>1539.5</ele>
        <time>2026-07-15T07:03:47Z</time>
      </trkpt>
      <trkpt lat="42.89469" lon="-0.2033">
        <ele>1540.5</ele>
        <time>2026-07-15T07:03:48Z</time>
      </trkpt>
      <trkpt lat="42.89468" lon="-0.2033">
        <ele>1540.5</ele>
        <time>2026-07-15T07:03:48Z</time>
      </trkpt>
      <trkpt lat="42.89468" lon="-0.20329">
        <ele>1540.5</ele>
        <time>2026-07-15T07:03:49Z</time>
      </trkpt>
      <trkpt lat="42.89467" lon="-0.20329">
        <ele>1541.5</ele>
        <time>2026-07-15T07:03:50Z</time>
      </trkpt>
      <trkpt lat="42.89467" lon="-0.20329">
        <ele>1541.5</ele>
        <time>2026-07-15T07:03:51Z</time>
      </trkpt>
      <trkpt lat="42.89466" lon="-0.20329">
        <ele>1540.5</ele>
        <time>2026-07-15T07:03:52Z</time>
      </trkpt>
      <trkpt lat="42.89466" lon="-0.20329">
        <ele>1540.5</ele>
        <time>2026-07-15T07:03:53Z</time>
      </trkpt>
      <trkpt lat="42.89466" lon="-0.20329">
        <ele>1540.5</ele>
        <time>2026-07-15T07:03:53Z</time>
      </trkpt>
      <trkpt lat="42.89466" lon="-0.20329">
        <ele>1540.5</ele>
        <time>2026-07-15T07:03:54Z</time>
      </trkpt>
      <trkpt lat="42.89465" lon="-0.20329">
        <ele>1540.5</ele>
        <time>2026-07-15T07:03:55Z</time>
      </trkpt>
      <trkpt lat="42.89465" lon="-0.20328">
        <ele>1541.5</ele>
        <time>2026-07-15T07:03:56Z</time>
      </trkpt>
      <trkpt lat="42.89464" lon="-0.20328">
        <ele>1541.5</ele>
        <time>2026-07-15T07:03:57Z</time>
      </trkpt>
      <trkpt lat="42.89464" lon="-0.20328">
        <ele>1541.5</ele>
        <time>2026-07-15T07:03:57Z</time>
      </trkpt>
      <trkpt lat="42.89463" lon="-0.20328">
        <ele>1541.5</ele>
        <time>2026-07-15T07:03:58Z</time>
      </trkpt>
      <trkpt lat="42.89463" lon="-0.20328">
        <ele>1541.5</ele>
        <time>2026-07-15T07:03:59Z</time>
      </trkpt>
      <trkpt lat="42.89462" lon="-0.20327">
        <ele>1541.5</ele>
        <time>2026-07-15T07:04:00Z</time>
      </trkpt>
      <trkpt lat="42.89462" lon="-0.20327">
        <ele>1541.5</ele>
        <time>2026-07-15T07:04:01Z</time>
      </trkpt>
      <trkpt lat="42.89462" lon="-0.20327">
        <ele>1541.5</ele>
        <time>2026-07-15T07:04:01Z</time>
      </trkpt>
      <trkpt lat="42.89462" lon="-0.20327">
        <ele>1541.5</ele>
        <time>2026-07-15T07:04:02Z</time>
      </trkpt>
      <trkpt lat="42.89461" lon="-0.20327">
        <ele>1542.5</ele>
        <time>2026-07-15T07:04:03Z</time>
      </trkpt>
      <trkpt lat="42.8946" lon="-0.20327">
        <ele>1542.5</ele>
        <time>2026-07-15T07:04:04Z</time>
      </trkpt>
      <trkpt lat="42.8946" lon="-0.20327">
        <ele>1542.5</ele>
        <time>2026-07-15T07:04:05Z</time>
      </trkpt>
      <trkpt lat="42.89459" lon="-0.20327">
        <ele>1542.5</ele>
        <time>2026-07-15T07:04:06Z</time>
      </trkpt>
      <trkpt lat="42.89459" lon="-0.20327">
        <ele>1542.5</ele>
        <time>2026-07-15T07:04:07Z</time>
      </trkpt>
      <trkpt lat="42.89458" lon="-0.20327">
        <ele>1542.5</ele>
        <time>2026-07-15T07:04:07Z</time>
      </trkpt>
      <trkpt lat="42.89458" lon="-0.20327">
        <ele>1542.5</ele>
        <time>2026-07-15T07:04:08Z</time>
      </trkpt>
      <trkpt lat="42.89457" lon="-0.20327">
        <ele>1542.5</ele>
        <time>2026-07-15T07:04:09Z</time>
      </trkpt>
      <trkpt lat="42.89457" lon="-0.20327">
        <ele>1542.5</ele>
        <time>2026-07-15T07:04:10Z</time>
      </trkpt>
      <trkpt lat="42.89456" lon="-0.20326">
        <ele>1542.5</ele>
        <time>2026-07-15T07:04:10Z</time>
      </trkpt>
      <trkpt lat="42.89456" lon="-0.20326">
        <ele>1542.5</ele>
        <time>2026-07-15T07:04:11Z</time>
      </trkpt>
      <trkpt lat="42.89455" lon="-0.20326">
        <ele>1542.5</ele>
        <time>2026-07-15T07:04:12Z</time>
      </trkpt>
      <trkpt lat="42.89454" lon="-0.20326">
        <ele>1542.5</ele>
        <time>2026-07-15T07:04:13Z</time>
      </trkpt>
      <trkpt lat="42.89454" lon="-0.20326">
        <ele>1542.5</ele>
        <time>2026-07-15T07:04:14Z</time>
      </trkpt>
      <trkpt lat="42.89454" lon="-0.20325">
        <ele>1542.5</ele>
        <time>2026-07-15T07:04:14Z</time>
      </trkpt>
      <trkpt lat="42.89453" lon="-0.20325">
        <ele>1543.5</ele>
        <time>2026-07-15T07:04:15Z</time>
      </trkpt>
      <trkpt lat="42.89452" lon="-0.20325">
        <ele>1543.5</ele>
        <time>2026-07-15T07:04:16Z</time>
      </trkpt>
      <trkpt lat="42.89452" lon="-0.20324">
        <ele>1542.5</ele>
        <time>2026-07-15T07:04:17Z</time>
      </trkpt>
      <trkpt lat="42.89451" lon="-0.20324">
        <ele>1542.5</ele>
        <time>2026-07-15T07:04:18Z</time>
      </trkpt>
      <trkpt lat="42.89451" lon="-0.20323">
        <ele>1542.5</ele>
        <time>2026-07-15T07:04:19Z</time>
      </trkpt>
      <trkpt lat="42.89451" lon="-0.20323">
        <ele>1542.5</ele>
        <time>2026-07-15T07:04:19Z</time>
      </trkpt>
      <trkpt lat="42.8945" lon="-0.20323">
        <ele>1542.5</ele>
        <time>2026-07-15T07:04:20Z</time>
      </trkpt>
      <trkpt lat="42.8945" lon="-0.20322">
        <ele>1542.5</ele>
        <time>2026-07-15T07:04:21Z</time>
      </trkpt>
      <trkpt lat="42.89449" lon="-0.20322">
        <ele>1541.5</ele>
        <time>2026-07-15T07:04:22Z</time>
      </trkpt>
      <trkpt lat="42.89449" lon="-0.20322">
        <ele>1542.5</ele>
        <time>2026-07-15T07:04:22Z</time>
      </trkpt>
      <trkpt lat="42.89449" lon="-0.20322">
        <ele>1543.5</ele>
        <time>2026-07-15T07:04:23Z</time>
      </trkpt>
      <trkpt lat="42.89448" lon="-0.20322">
        <ele>1543.5</ele>
        <time>2026-07-15T07:04:24Z</time>
      </trkpt>
      <trkpt lat="42.89448" lon="-0.20322">
        <ele>1543.5</ele>
        <time>2026-07-15T07:04:25Z</time>
      </trkpt>
      <trkpt lat="42.89447" lon="-0.20322">
        <ele>1543.5</ele>
        <time>2026-07-15T07:04:26Z</time>
      </trkpt>
      <trkpt lat="42.89447" lon="-0.20321">
        <ele>1542.5</ele>
        <time>2026-07-15T07:04:26Z</time>
      </trkpt>
      <trkpt lat="42.89446" lon="-0.20321">
        <ele>1543.5</ele>
        <time>2026-07-15T07:04:27Z</time>
      </trkpt>
      <trkpt lat="42.89446" lon="-0.2032">
        <ele>1543.5</ele>
        <time>2026-07-15T07:04:28Z</time>
      </trkpt>
      <trkpt lat="42.89445" lon="-0.2032">
        <ele>1543.5</ele>
        <time>2026-07-15T07:04:29Z</time>
      </trkpt>
      <trkpt lat="42.89445" lon="-0.2032">
        <ele>1543.5</ele>
        <time>2026-07-15T07:04:29Z</time>
      </trkpt>
      <trkpt lat="42.89444" lon="-0.2032">
        <ele>1543.5</ele>
        <time>2026-07-15T07:04:30Z</time>
      </trkpt>
      <trkpt lat="42.89444" lon="-0.2032">
        <ele>1542.5</ele>
        <time>2026-07-15T07:04:31Z</time>
      </trkpt>
      <trkpt lat="42.89443" lon="-0.20319">
        <ele>1542.5</ele>
        <time>2026-07-15T07:04:32Z</time>
      </trkpt>
      <trkpt lat="42.89443" lon="-0.20319">
        <ele>1542.5</ele>
        <time>2026-07-15T07:04:32Z</time>
      </trkpt>
      <trkpt lat="42.89443" lon="-0.20319">
        <ele>1542.5</ele>
        <time>2026-07-15T07:04:33Z</time>
      </trkpt>
      <trkpt lat="42.89442" lon="-0.20318">
        <ele>1543.5</ele>
        <time>2026-07-15T07:04:34Z</time>
      </trkpt>
      <trkpt lat="42.89442" lon="-0.20318">
        <ele>1543.5</ele>
        <time>2026-07-15T07:04:35Z</time>
      </trkpt>
      <trkpt lat="42.89441" lon="-0.20318">
        <ele>1542.5</ele>
        <time>2026-07-15T07:04:35Z</time>
      </trkpt>
      <trkpt lat="42.89441" lon="-0.20318">
        <ele>1542.5</ele>
        <time>2026-07-15T07:04:36Z</time>
      </trkpt>
      <trkpt lat="42.8944" lon="-0.20318">
        <ele>1542.5</ele>
        <time>2026-07-15T07:04:37Z</time>
      </trkpt>
      <trkpt lat="42.8944" lon="-0.20317">
        <ele>1542.5</ele>
        <time>2026-07-15T07:04:38Z</time>
      </trkpt>
      <trkpt lat="42.89439" lon="-0.20317">
        <ele>1542.5</ele>
        <time>2026-07-15T07:04:39Z</time>
      </trkpt>
      <trkpt lat="42.89439" lon="-0.20317">
        <ele>1542.5</ele>
        <time>2026-07-15T07:04:40Z</time>
      </trkpt>
      <trkpt lat="42.89438" lon="-0.20317">
        <ele>1542.5</ele>
        <time>2026-07-15T07:04:40Z</time>
      </trkpt>
      <trkpt lat="42.89438" lon="-0.20317">
        <ele>1542.5</ele>
        <time>2026-07-15T07:04:41Z</time>
      </trkpt>
      <trkpt lat="42.89437" lon="-0.20317">
        <ele>1542.5</ele>
        <time>2026-07-15T07:04:42Z</time>
      </trkpt>
      <trkpt lat="42.89437" lon="-0.20317">
        <ele>1543.5</ele>
        <time>2026-07-15T07:04:42Z</time>
      </trkpt>
      <trkpt lat="42.89436" lon="-0.20317">
        <ele>1543.5</ele>
        <time>2026-07-15T07:04:43Z</time>
      </trkpt>
      <trkpt lat="42.89435" lon="-0.20316">
        <ele>1543.5</ele>
        <time>2026-07-15T07:04:44Z</time>
      </trkpt>
      <trkpt lat="42.89435" lon="-0.20316">
        <ele>1543.5</ele>
        <time>2026-07-15T07:04:45Z</time>
      </trkpt>
      <trkpt lat="42.89434" lon="-0.20316">
        <ele>1543.5</ele>
        <time>2026-07-15T07:04:46Z</time>
      </trkpt>
      <trkpt lat="42.89434" lon="-0.20316">
        <ele>1544.5</ele>
        <time>2026-07-15T07:04:46Z</time>
      </trkpt>
      <trkpt lat="42.89433" lon="-0.20316">
        <ele>1544.5</ele>
        <time>2026-07-15T07:04:47Z</time>
      </trkpt>
      <trkpt lat="42.89433" lon="-0.20316">
        <ele>1544.5</ele>
        <time>2026-07-15T07:04:48Z</time>
      </trkpt>
      <trkpt lat="42.89432" lon="-0.20316">
        <ele>1544.5</ele>
        <time>2026-07-15T07:04:49Z</time>
      </trkpt>
      <trkpt lat="42.89432" lon="-0.20316">
        <ele>1544.5</ele>
        <time>2026-07-15T07:04:49Z</time>
      </trkpt>
      <trkpt lat="42.89432" lon="-0.20315">
        <ele>1545.5</ele>
        <time>2026-07-15T07:04:50Z</time>
      </trkpt>
      <trkpt lat="42.89431" lon="-0.20315">
        <ele>1545.5</ele>
        <time>2026-07-15T07:04:51Z</time>
      </trkpt>
      <trkpt lat="42.89431" lon="-0.20315">
        <ele>1545.5</ele>
        <time>2026-07-15T07:04:52Z</time>
      </trkpt>
      <trkpt lat="42.89431" lon="-0.20315">
        <ele>1545.5</ele>
        <time>2026-07-15T07:04:52Z</time>
      </trkpt>
      <trkpt lat="42.8943" lon="-0.20315">
        <ele>1545.5</ele>
        <time>2026-07-15T07:04:53Z</time>
      </trkpt>
      <trkpt lat="42.8943" lon="-0.20315">
        <ele>1545.5</ele>
        <time>2026-07-15T07:04:54Z</time>
      </trkpt>
      <trkpt lat="42.89429" lon="-0.20315">
        <ele>1545.5</ele>
        <time>2026-07-15T07:04:54Z</time>
      </trkpt>
      <trkpt lat="42.89429" lon="-0.20314">
        <ele>1545.5</ele>
        <time>2026-07-15T07:04:55Z</time>
      </trkpt>
      <trkpt lat="42.89429" lon="-0.20314">
        <ele>1545.5</ele>
        <time>2026-07-15T07:04:56Z</time>
      </trkpt>
      <trkpt lat="42.89428" lon="-0.20314">
        <ele>1546.5</ele>
        <time>2026-07-15T07:04:57Z</time>
      </trkpt>
      <trkpt lat="42.89428" lon="-0.20313">
        <ele>1546.5</ele>
        <time>2026-07-15T07:04:57Z</time>
      </trkpt>
      <trkpt lat="42.89427" lon="-0.20313">
        <ele>1546.5</ele>
        <time>2026-07-15T07:04:58Z</time>
      </trkpt>
      <trkpt lat="42.89427" lon="-0.20313">
        <ele>1546.5</ele>
        <time>2026-07-15T07:04:59Z</time>
      </trkpt>
      <trkpt lat="42.89426" lon="-0.20312">
        <ele>1546.5</ele>
        <time>2026-07-15T07:05:00Z</time>
      </trkpt>
      <trkpt lat="42.89426" lon="-0.20312">
        <ele>1546.5</ele>
        <time>2026-07-15T07:05:00Z</time>
      </trkpt>
      <trkpt lat="42.89425" lon="-0.20311">
        <ele>1546.5</ele>
        <time>2026-07-15T07:05:01Z</time>
      </trkpt>
      <trkpt lat="42.89425" lon="-0.20311">
        <ele>1546.5</ele>
        <time>2026-07-15T07:05:01Z</time>
      </trkpt>
      <trkpt lat="42.89424" lon="-0.2031">
        <ele>1546.5</ele>
        <time>2026-07-15T07:05:02Z</time>
      </trkpt>
      <trkpt lat="42.89424" lon="-0.2031">
        <ele>1546.5</ele>
        <time>2026-07-15T07:05:03Z</time>
      </trkpt>
      <trkpt lat="42.89423" lon="-0.20309">
        <ele>1546.5</ele>
        <time>2026-07-15T07:05:03Z</time>
      </trkpt>
      <trkpt lat="42.89423" lon="-0.20309">
        <ele>1546.5</ele>
        <time>2026-07-15T07:05:04Z</time>
      </trkpt>
      <trkpt lat="42.89422" lon="-0.20308">
        <ele>1547.5</ele>
        <time>2026-07-15T07:05:05Z</time>
      </trkpt>
      <trkpt lat="42.89422" lon="-0.20308">
        <ele>1547.5</ele>
        <time>2026-07-15T07:05:05Z</time>
      </trkpt>
      <trkpt lat="42.89421" lon="-0.20308">
        <ele>1548.5</ele>
        <time>2026-07-15T07:05:06Z</time>
      </trkpt>
      <trkpt lat="42.8942" lon="-0.20307">
        <ele>1547.5</ele>
        <time>2026-07-15T07:05:07Z</time>
      </trkpt>
      <trkpt lat="42.89419" lon="-0.20307">
        <ele>1547.5</ele>
        <time>2026-07-15T07:05:08Z</time>
      </trkpt>
      <trkpt lat="42.89419" lon="-0.20307">
        <ele>1548.5</ele>
        <time>2026-07-15T07:05:09Z</time>
      </trkpt>
      <trkpt lat="42.89418" lon="-0.20307">
        <ele>1548.5</ele>
        <time>2026-07-15T07:05:09Z</time>
      </trkpt>
      <trkpt lat="42.89418" lon="-0.20306">
        <ele>1548.5</ele>
        <time>2026-07-15T07:05:10Z</time>
      </trkpt>
      <trkpt lat="42.89417" lon="-0.20306">
        <ele>1548.5</ele>
        <time>2026-07-15T07:05:11Z</time>
      </trkpt>
      <trkpt lat="42.89417" lon="-0.20305">
        <ele>1548.5</ele>
        <time>2026-07-15T07:05:12Z</time>
      </trkpt>
      <trkpt lat="42.89417" lon="-0.20305">
        <ele>1549.5</ele>
        <time>2026-07-15T07:05:12Z</time>
      </trkpt>
      <trkpt lat="42.89416" lon="-0.20304">
        <ele>1549.5</ele>
        <time>2026-07-15T07:05:13Z</time>
      </trkpt>
      <trkpt lat="42.89416" lon="-0.20303">
        <ele>1549.5</ele>
        <time>2026-07-15T07:05:14Z</time>
      </trkpt>
      <trkpt lat="42.89416" lon="-0.20303">
        <ele>1549.5</ele>
        <time>2026-07-15T07:05:15Z</time>
      </trkpt>
      <trkpt lat="42.89415" lon="-0.20302">
        <ele>1549.5</ele>
        <time>2026-07-15T07:05:15Z</time>
      </trkpt>
      <trkpt lat="42.89415" lon="-0.20302">
        <ele>1549.5</ele>
        <time>2026-07-15T07:05:16Z</time>
      </trkpt>
      <trkpt lat="42.89415" lon="-0.20302">
        <ele>1549.5</ele>
        <time>2026-07-15T07:05:17Z</time>
      </trkpt>
      <trkpt lat="42.89414" lon="-0.20301">
        <ele>1548.5</ele>
        <time>2026-07-15T07:05:18Z</time>
      </trkpt>
      <trkpt lat="42.89414" lon="-0.20301">
        <ele>1548.5</ele>
        <time>2026-07-15T07:05:18Z</time>
      </trkpt>
      <trkpt lat="42.89414" lon="-0.20301">
        <ele>1548.5</ele>
        <time>2026-07-15T07:05:19Z</time>
      </trkpt>
      <trkpt lat="42.89414" lon="-0.20301">
        <ele>1548.5</ele>
        <time>2026-07-15T07:05:20Z</time>
      </trkpt>
      <trkpt lat="42.89413" lon="-0.20301">
        <ele>1548.5</ele>
        <time>2026-07-15T07:05:21Z</time>
      </trkpt>
      <trkpt lat="42.89413" lon="-0.20301">
        <ele>1548.5</ele>
        <time>2026-07-15T07:05:21Z</time>
      </trkpt>
      <trkpt lat="42.89413" lon="-0.20301">
        <ele>1548.5</ele>
        <time>2026-07-15T07:05:22Z</time>
      </trkpt>
      <trkpt lat="42.89412" lon="-0.20301">
        <ele>1548.5</ele>
        <time>2026-07-15T07:05:23Z</time>
      </trkpt>
      <trkpt lat="42.89412" lon="-0.203">
        <ele>1548.5</ele>
        <time>2026-07-15T07:05:24Z</time>
      </trkpt>
      <trkpt lat="42.89412" lon="-0.203">
        <ele>1548.5</ele>
        <time>2026-07-15T07:05:24Z</time>
      </trkpt>
      <trkpt lat="42.89411" lon="-0.203">
        <ele>1548.5</ele>
        <time>2026-07-15T07:05:25Z</time>
      </trkpt>
      <trkpt lat="42.8941" lon="-0.20299">
        <ele>1548.5</ele>
        <time>2026-07-15T07:05:26Z</time>
      </trkpt>
      <trkpt lat="42.8941" lon="-0.20299">
        <ele>1548.5</ele>
        <time>2026-07-15T07:05:26Z</time>
      </trkpt>
      <trkpt lat="42.8941" lon="-0.20299">
        <ele>1548.5</ele>
        <time>2026-07-15T07:05:27Z</time>
      </trkpt>
      <trkpt lat="42.89409" lon="-0.20299">
        <ele>1548.5</ele>
        <time>2026-07-15T07:05:28Z</time>
      </trkpt>
      <trkpt lat="42.89409" lon="-0.20299">
        <ele>1548.5</ele>
        <time>2026-07-15T07:05:29Z</time>
      </trkpt>
      <trkpt lat="42.89409" lon="-0.20299">
        <ele>1548.5</ele>
        <time>2026-07-15T07:05:29Z</time>
      </trkpt>
      <trkpt lat="42.89409" lon="-0.20299">
        <ele>1548.5</ele>
        <time>2026-07-15T07:05:30Z</time>
      </trkpt>
      <trkpt lat="42.89408" lon="-0.20298">
        <ele>1548.5</ele>
        <time>2026-07-15T07:05:31Z</time>
      </trkpt>
      <trkpt lat="42.89408" lon="-0.20297">
        <ele>1548.5</ele>
        <time>2026-07-15T07:05:32Z</time>
      </trkpt>
      <trkpt lat="42.89408" lon="-0.20296">
        <ele>1548.5</ele>
        <time>2026-07-15T07:05:32Z</time>
      </trkpt>
      <trkpt lat="42.89408" lon="-0.20296">
        <ele>1548.5</ele>
        <time>2026-07-15T07:05:33Z</time>
      </trkpt>
      <trkpt lat="42.89407" lon="-0.20295">
        <ele>1548.5</ele>
        <time>2026-07-15T07:05:34Z</time>
      </trkpt>
      <trkpt lat="42.89407" lon="-0.20295">
        <ele>1548.5</ele>
        <time>2026-07-15T07:05:35Z</time>
      </trkpt>
      <trkpt lat="42.89406" lon="-0.20294">
        <ele>1548.5</ele>
        <time>2026-07-15T07:05:35Z</time>
      </trkpt>
      <trkpt lat="42.89406" lon="-0.20294">
        <ele>1549.5</ele>
        <time>2026-07-15T07:05:36Z</time>
      </trkpt>
      <trkpt lat="42.89406" lon="-0.20293">
        <ele>1549.5</ele>
        <time>2026-07-15T07:05:37Z</time>
      </trkpt>
      <trkpt lat="42.89405" lon="-0.20293">
        <ele>1549.5</ele>
        <time>2026-07-15T07:05:38Z</time>
      </trkpt>
      <trkpt lat="42.89405" lon="-0.20293">
        <ele>1549.5</ele>
        <time>2026-07-15T07:05:38Z</time>
      </trkpt>
      <trkpt lat="42.89404" lon="-0.20292">
        <ele>1549.5</ele>
        <time>2026-07-15T07:05:39Z</time>
      </trkpt>
      <trkpt lat="42.89404" lon="-0.20292">
        <ele>1549.5</ele>
        <time>2026-07-15T07:05:40Z</time>
      </trkpt>
      <trkpt lat="42.89403" lon="-0.20292">
        <ele>1549.5</ele>
        <time>2026-07-15T07:05:41Z</time>
      </trkpt>
      <trkpt lat="42.89403" lon="-0.20291">
        <ele>1549.5</ele>
        <time>2026-07-15T07:05:42Z</time>
      </trkpt>
      <trkpt lat="42.89402" lon="-0.20291">
        <ele>1550.5</ele>
        <time>2026-07-15T07:05:42Z</time>
      </trkpt>
      <trkpt lat="42.89402" lon="-0.20291">
        <ele>1550.5</ele>
        <time>2026-07-15T07:05:43Z</time>
      </trkpt>
      <trkpt lat="42.89401" lon="-0.20291">
        <ele>1550.5</ele>
        <time>2026-07-15T07:05:44Z</time>
      </trkpt>
      <trkpt lat="42.89401" lon="-0.2029">
        <ele>1549.5</ele>
        <time>2026-07-15T07:05:44Z</time>
      </trkpt>
      <trkpt lat="42.894" lon="-0.2029">
        <ele>1549.5</ele>
        <time>2026-07-15T07:05:45Z</time>
      </trkpt>
      <trkpt lat="42.894" lon="-0.20289">
        <ele>1549.5</ele>
        <time>2026-07-15T07:05:46Z</time>
      </trkpt>
      <trkpt lat="42.894" lon="-0.20289">
        <ele>1550.5</ele>
        <time>2026-07-15T07:05:46Z</time>
      </trkpt>
      <trkpt lat="42.89399" lon="-0.20289">
        <ele>1550.5</ele>
        <time>2026-07-15T07:05:47Z</time>
      </trkpt>
      <trkpt lat="42.89399" lon="-0.20288">
        <ele>1550.5</ele>
        <time>2026-07-15T07:05:48Z</time>
      </trkpt>
      <trkpt lat="42.89399" lon="-0.20287">
        <ele>1550.5</ele>
        <time>2026-07-15T07:05:48Z</time>
      </trkpt>
      <trkpt lat="42.89398" lon="-0.20287">
        <ele>1550.5</ele>
        <time>2026-07-15T07:05:49Z</time>
      </trkpt>
      <trkpt lat="42.89398" lon="-0.20286">
        <ele>1550.5</ele>
        <time>2026-07-15T07:05:50Z</time>
      </trkpt>
      <trkpt lat="42.89397" lon="-0.20286">
        <ele>1551.5</ele>
        <time>2026-07-15T07:05:50Z</time>
      </trkpt>
      <trkpt lat="42.89397" lon="-0.20286">
        <ele>1551.5</ele>
        <time>2026-07-15T07:05:51Z</time>
      </trkpt>
      <trkpt lat="42.89396" lon="-0.20285">
        <ele>1551.5</ele>
        <time>2026-07-15T07:05:52Z</time>
      </trkpt>
      <trkpt lat="42.89396" lon="-0.20285">
        <ele>1552.5</ele>
        <time>2026-07-15T07:05:52Z</time>
      </trkpt>
      <trkpt lat="42.89395" lon="-0.20284">
        <ele>1552.5</ele>
        <time>2026-07-15T07:05:53Z</time>
      </trkpt>
      <trkpt lat="42.89395" lon="-0.20284">
        <ele>1552.5</ele>
        <time>2026-07-15T07:05:53Z</time>
      </trkpt>
      <trkpt lat="42.89394" lon="-0.20284">
        <ele>1552.5</ele>
        <time>2026-07-15T07:05:54Z</time>
      </trkpt>
      <trkpt lat="42.89394" lon="-0.20283">
        <ele>1552.5</ele>
        <time>2026-07-15T07:05:55Z</time>
      </trkpt>
      <trkpt lat="42.89393" lon="-0.20283">
        <ele>1552.5</ele>
        <time>2026-07-15T07:05:56Z</time>
      </trkpt>
      <trkpt lat="42.89393" lon="-0.20283">
        <ele>1552.5</ele>
        <time>2026-07-15T07:05:56Z</time>
      </trkpt>
      <trkpt lat="42.89392" lon="-0.20282">
        <ele>1552.5</ele>
        <time>2026-07-15T07:05:57Z</time>
      </trkpt>
      <trkpt lat="42.89392" lon="-0.20282">
        <ele>1553.5</ele>
        <time>2026-07-15T07:05:57Z</time>
      </trkpt>
      <trkpt lat="42.89391" lon="-0.20282">
        <ele>1553.5</ele>
        <time>2026-07-15T07:05:58Z</time>
      </trkpt>
      <trkpt lat="42.8939" lon="-0.20282">
        <ele>1553.5</ele>
        <time>2026-07-15T07:05:59Z</time>
      </trkpt>
      <trkpt lat="42.8939" lon="-0.20282">
        <ele>1553.5</ele>
        <time>2026-07-15T07:06:00Z</time>
      </trkpt>
      <trkpt lat="42.8939" lon="-0.20281">
        <ele>1554.5</ele>
        <time>2026-07-15T07:06:00Z</time>
      </trkpt>
      <trkpt lat="42.89389" lon="-0.20281">
        <ele>1554.5</ele>
        <time>2026-07-15T07:06:01Z</time>
      </trkpt>
      <trkpt lat="42.89389" lon="-0.20281">
        <ele>1554.5</ele>
        <time>2026-07-15T07:06:01Z</time>
      </trkpt>
      <trkpt lat="42.89388" lon="-0.2028">
        <ele>1554.5</ele>
        <time>2026-07-15T07:06:02Z</time>
      </trkpt>
      <trkpt lat="42.89387" lon="-0.20279">
        <ele>1554.5</ele>
        <time>2026-07-15T07:06:03Z</time>
      </trkpt>
      <trkpt lat="42.89387" lon="-0.20279">
        <ele>1554.5</ele>
        <time>2026-07-15T07:06:04Z</time>
      </trkpt>
      <trkpt lat="42.89386" lon="-0.20278">
        <ele>1554.5</ele>
        <time>2026-07-15T07:06:05Z</time>
      </trkpt>
      <trkpt lat="42.89386" lon="-0.20277">
        <ele>1555.5</ele>
        <time>2026-07-15T07:06:05Z</time>
      </trkpt>
      <trkpt lat="42.89385" lon="-0.20277">
        <ele>1555.5</ele>
        <time>2026-07-15T07:06:06Z</time>
      </trkpt>
      <trkpt lat="42.89385" lon="-0.20276">
        <ele>1555.5</ele>
        <time>2026-07-15T07:06:07Z</time>
      </trkpt>
      <trkpt lat="42.89384" lon="-0.20275">
        <ele>1555.5</ele>
        <time>2026-07-15T07:06:08Z</time>
      </trkpt>
      <trkpt lat="42.89384" lon="-0.20275">
        <ele>1555.5</ele>
        <time>2026-07-15T07:06:08Z</time>
      </trkpt>
      <trkpt lat="42.89383" lon="-0.20274">
        <ele>1555.5</ele>
        <time>2026-07-15T07:06:09Z</time>
      </trkpt>
      <trkpt lat="42.89383" lon="-0.20274">
        <ele>1555.5</ele>
        <time>2026-07-15T07:06:10Z</time>
      </trkpt>
      <trkpt lat="42.89382" lon="-0.20274">
        <ele>1555.5</ele>
        <time>2026-07-15T07:06:10Z</time>
      </trkpt>
      <trkpt lat="42.89382" lon="-0.20274">
        <ele>1555.5</ele>
        <time>2026-07-15T07:06:11Z</time>
      </trkpt>
      <trkpt lat="42.89381" lon="-0.20273">
        <ele>1555.5</ele>
        <time>2026-07-15T07:06:12Z</time>
      </trkpt>
      <trkpt lat="42.89381" lon="-0.20273">
        <ele>1555.5</ele>
        <time>2026-07-15T07:06:13Z</time>
      </trkpt>
      <trkpt lat="42.89381" lon="-0.20273">
        <ele>1555.5</ele>
        <time>2026-07-15T07:06:13Z</time>
      </trkpt>
      <trkpt lat="42.89381" lon="-0.20272">
        <ele>1555.5</ele>
        <time>2026-07-15T07:06:14Z</time>
      </trkpt>
      <trkpt lat="42.89381" lon="-0.20272">
        <ele>1555.5</ele>
        <time>2026-07-15T07:06:15Z</time>
      </trkpt>
      <trkpt lat="42.8938" lon="-0.20271">
        <ele>1555.5</ele>
        <time>2026-07-15T07:06:16Z</time>
      </trkpt>
      <trkpt lat="42.8938" lon="-0.20271">
        <ele>1554.5</ele>
        <time>2026-07-15T07:06:17Z</time>
      </trkpt>
      <trkpt lat="42.8938" lon="-0.20271">
        <ele>1553.5</ele>
        <time>2026-07-15T07:06:17Z</time>
      </trkpt>
      <trkpt lat="42.89379" lon="-0.2027">
        <ele>1553.5</ele>
        <time>2026-07-15T07:06:18Z</time>
      </trkpt>
      <trkpt lat="42.89379" lon="-0.20269">
        <ele>1553.5</ele>
        <time>2026-07-15T07:06:19Z</time>
      </trkpt>
      <trkpt lat="42.89378" lon="-0.20269">
        <ele>1553.5</ele>
        <time>2026-07-15T07:06:20Z</time>
      </trkpt>
      <trkpt lat="42.89378" lon="-0.20269">
        <ele>1553.5</ele>
        <time>2026-07-15T07:06:21Z</time>
      </trkpt>
      <trkpt lat="42.89378" lon="-0.20268">
        <ele>1553.5</ele>
        <time>2026-07-15T07:06:21Z</time>
      </trkpt>
      <trkpt lat="42.89377" lon="-0.20268">
        <ele>1553.5</ele>
        <time>2026-07-15T07:06:22Z</time>
      </trkpt>
      <trkpt lat="42.89377" lon="-0.20267">
        <ele>1554.5</ele>
        <time>2026-07-15T07:06:23Z</time>
      </trkpt>
      <trkpt lat="42.89377" lon="-0.20267">
        <ele>1555.5</ele>
        <time>2026-07-15T07:06:24Z</time>
      </trkpt>
      <trkpt lat="42.89376" lon="-0.20267">
        <ele>1554.5</ele>
        <time>2026-07-15T07:06:24Z</time>
      </trkpt>
      <trkpt lat="42.89376" lon="-0.20266">
        <ele>1554.5</ele>
        <time>2026-07-15T07:06:25Z</time>
      </trkpt>
      <trkpt lat="42.89376" lon="-0.20265">
        <ele>1554.5</ele>
        <time>2026-07-15T07:06:26Z</time>
      </trkpt>
      <trkpt lat="42.89375" lon="-0.20264">
        <ele>1555.5</ele>
        <time>2026-07-15T07:06:27Z</time>
      </trkpt>
      <trkpt lat="42.89375" lon="-0.20264">
        <ele>1555.5</ele>
        <time>2026-07-15T07:06:27Z</time>
      </trkpt>
      <trkpt lat="42.89374" lon="-0.20264">
        <ele>1556.5</ele>
        <time>2026-07-15T07:06:28Z</time>
      </trkpt>
      <trkpt lat="42.89374" lon="-0.20263">
        <ele>1557.5</ele>
        <time>2026-07-15T07:06:29Z</time>
      </trkpt>
      <trkpt lat="42.89373" lon="-0.20263">
        <ele>1557.5</ele>
        <time>2026-07-15T07:06:30Z</time>
      </trkpt>
      <trkpt lat="42.89373" lon="-0.20262">
        <ele>1557.5</ele>
        <time>2026-07-15T07:06:30Z</time>
      </trkpt>
      <trkpt lat="42.89373" lon="-0.20262">
        <ele>1557.5</ele>
        <time>2026-07-15T07:06:31Z</time>
      </trkpt>
      <trkpt lat="42.89373" lon="-0.20262">
        <ele>1557.5</ele>
        <time>2026-07-15T07:06:32Z</time>
      </trkpt>
      <trkpt lat="42.89372" lon="-0.20262">
        <ele>1556.5</ele>
        <time>2026-07-15T07:06:33Z</time>
      </trkpt>
      <trkpt lat="42.89372" lon="-0.20262">
        <ele>1556.5</ele>
        <time>2026-07-15T07:06:33Z</time>
      </trkpt>
      <trkpt lat="42.89371" lon="-0.20261">
        <ele>1556.5</ele>
        <time>2026-07-15T07:06:34Z</time>
      </trkpt>
      <trkpt lat="42.89371" lon="-0.20261">
        <ele>1556.5</ele>
        <time>2026-07-15T07:06:35Z</time>
      </trkpt>
      <trkpt lat="42.8937" lon="-0.2026">
        <ele>1555.5</ele>
        <time>2026-07-15T07:06:35Z</time>
      </trkpt>
      <trkpt lat="42.8937" lon="-0.2026">
        <ele>1555.5</ele>
        <time>2026-07-15T07:06:36Z</time>
      </trkpt>
      <trkpt lat="42.8937" lon="-0.2026">
        <ele>1554.5</ele>
        <time>2026-07-15T07:06:37Z</time>
      </trkpt>
      <trkpt lat="42.89369" lon="-0.2026">
        <ele>1554.5</ele>
        <time>2026-07-15T07:06:37Z</time>
      </trkpt>
      <trkpt lat="42.89369" lon="-0.20259">
        <ele>1554.5</ele>
        <time>2026-07-15T07:06:38Z</time>
      </trkpt>
      <trkpt lat="42.89368" lon="-0.20259">
        <ele>1555.5</ele>
        <time>2026-07-15T07:06:38Z</time>
      </trkpt>
      <trkpt lat="42.89368" lon="-0.20259">
        <ele>1555.5</ele>
        <time>2026-07-15T07:06:39Z</time>
      </trkpt>
      <trkpt lat="42.89367" lon="-0.20259">
        <ele>1555.5</ele>
        <time>2026-07-15T07:06:40Z</time>
      </trkpt>
      <trkpt lat="42.89367" lon="-0.20259">
        <ele>1555.5</ele>
        <time>2026-07-15T07:06:40Z</time>
      </trkpt>
      <trkpt lat="42.89367" lon="-0.20259">
        <ele>1555.5</ele>
        <time>2026-07-15T07:06:41Z</time>
      </trkpt>
      <trkpt lat="42.89366" lon="-0.20258">
        <ele>1555.5</ele>
        <time>2026-07-15T07:06:42Z</time>
      </trkpt>
      <trkpt lat="42.89366" lon="-0.20258">
        <ele>1556.5</ele>
        <time>2026-07-15T07:06:43Z</time>
      </trkpt>
      <trkpt lat="42.89365" lon="-0.20257">
        <ele>1556.5</ele>
        <time>2026-07-15T07:06:43Z</time>
      </trkpt>
      <trkpt lat="42.89365" lon="-0.20257">
        <ele>1556.5</ele>
        <time>2026-07-15T07:06:44Z</time>
      </trkpt>
      <trkpt lat="42.89364" lon="-0.20257">
        <ele>1557.5</ele>
        <time>2026-07-15T07:06:45Z</time>
      </trkpt>
      <trkpt lat="42.89364" lon="-0.20256">
        <ele>1557.5</ele>
        <time>2026-07-15T07:06:45Z</time>
      </trkpt>
      <trkpt lat="42.89363" lon="-0.20256">
        <ele>1557.5</ele>
        <time>2026-07-15T07:06:46Z</time>
      </trkpt>
      <trkpt lat="42.89363" lon="-0.20255">
        <ele>1557.5</ele>
        <time>2026-07-15T07:06:47Z</time>
      </trkpt>
      <trkpt lat="42.89362" lon="-0.20255">
        <ele>1556.5</ele>
        <time>2026-07-15T07:06:48Z</time>
      </trkpt>
      <trkpt lat="42.89362" lon="-0.20255">
        <ele>1556.5</ele>
        <time>2026-07-15T07:06:48Z</time>
      </trkpt>
      <trkpt lat="42.89361" lon="-0.20254">
        <ele>1556.5</ele>
        <time>2026-07-15T07:06:49Z</time>
      </trkpt>
      <trkpt lat="42.8936" lon="-0.20254">
        <ele>1557.5</ele>
        <time>2026-07-15T07:06:50Z</time>
      </trkpt>
      <trkpt lat="42.8936" lon="-0.20254">
        <ele>1557.5</ele>
        <time>2026-07-15T07:06:50Z</time>
      </trkpt>
      <trkpt lat="42.89359" lon="-0.20253">
        <ele>1558.5</ele>
        <time>2026-07-15T07:06:51Z</time>
      </trkpt>
      <trkpt lat="42.89359" lon="-0.20253">
        <ele>1558.5</ele>
        <time>2026-07-15T07:06:52Z</time>
      </trkpt>
      <trkpt lat="42.89358" lon="-0.20253">
        <ele>1559.5</ele>
        <time>2026-07-15T07:06:53Z</time>
      </trkpt>
      <trkpt lat="42.89358" lon="-0.20252">
        <ele>1559.5</ele>
        <time>2026-07-15T07:06:53Z</time>
      </trkpt>
      <trkpt lat="42.89357" lon="-0.20252">
        <ele>1559.5</ele>
        <time>2026-07-15T07:06:54Z</time>
      </trkpt>
      <trkpt lat="42.89357" lon="-0.20251">
        <ele>1559.5</ele>
        <time>2026-07-15T07:06:55Z</time>
      </trkpt>
      <trkpt lat="42.89356" lon="-0.20251">
        <ele>1559.5</ele>
        <time>2026-07-15T07:06:55Z</time>
      </trkpt>
      <trkpt lat="42.89356" lon="-0.20251">
        <ele>1560.5</ele>
        <time>2026-07-15T07:06:56Z</time>
      </trkpt>
      <trkpt lat="42.89355" lon="-0.20251">
        <ele>1560.5</ele>
        <time>2026-07-15T07:06:57Z</time>
      </trkpt>
      <trkpt lat="42.89355" lon="-0.20251">
        <ele>1560.5</ele>
        <time>2026-07-15T07:06:58Z</time>
      </trkpt>
      <trkpt lat="42.89354" lon="-0.2025">
        <ele>1560.5</ele>
        <time>2026-07-15T07:06:58Z</time>
      </trkpt>
      <trkpt lat="42.89354" lon="-0.2025">
        <ele>1560.5</ele>
        <time>2026-07-15T07:06:59Z</time>
      </trkpt>
      <trkpt lat="42.89353" lon="-0.20249">
        <ele>1560.5</ele>
        <time>2026-07-15T07:07:00Z</time>
      </trkpt>
      <trkpt lat="42.89353" lon="-0.20249">
        <ele>1559.5</ele>
        <time>2026-07-15T07:07:01Z</time>
      </trkpt>
      <trkpt lat="42.89352" lon="-0.20249">
        <ele>1559.5</ele>
        <time>2026-07-15T07:07:01Z</time>
      </trkpt>
      <trkpt lat="42.89352" lon="-0.20248">
        <ele>1559.5</ele>
        <time>2026-07-15T07:07:02Z</time>
      </trkpt>
      <trkpt lat="42.89351" lon="-0.20248">
        <ele>1560.5</ele>
        <time>2026-07-15T07:07:03Z</time>
      </trkpt>
      <trkpt lat="42.89351" lon="-0.20247">
        <ele>1559.5</ele>
        <time>2026-07-15T07:07:04Z</time>
      </trkpt>
      <trkpt lat="42.89351" lon="-0.20247">
        <ele>1560.5</ele>
        <time>2026-07-15T07:07:04Z</time>
      </trkpt>
      <trkpt lat="42.8935" lon="-0.20246">
        <ele>1559.5</ele>
        <time>2026-07-15T07:07:05Z</time>
      </trkpt>
      <trkpt lat="42.8935" lon="-0.20246">
        <ele>1559.5</ele>
        <time>2026-07-15T07:07:06Z</time>
      </trkpt>
      <trkpt lat="42.89349" lon="-0.20246">
        <ele>1559.5</ele>
        <time>2026-07-15T07:07:07Z</time>
      </trkpt>
      <trkpt lat="42.89349" lon="-0.20245">
        <ele>1560.5</ele>
        <time>2026-07-15T07:07:07Z</time>
      </trkpt>
      <trkpt lat="42.89348" lon="-0.20245">
        <ele>1560.5</ele>
        <time>2026-07-15T07:07:08Z</time>
      </trkpt>
      <trkpt lat="42.89348" lon="-0.20245">
        <ele>1560.5</ele>
        <time>2026-07-15T07:07:09Z</time>
      </trkpt>
      <trkpt lat="42.89347" lon="-0.20245">
        <ele>1560.5</ele>
        <time>2026-07-15T07:07:09Z</time>
      </trkpt>
      <trkpt lat="42.89347" lon="-0.20244">
        <ele>1560.5</ele>
        <time>2026-07-15T07:07:10Z</time>
      </trkpt>
      <trkpt lat="42.89346" lon="-0.20244">
        <ele>1560.5</ele>
        <time>2026-07-15T07:07:11Z</time>
      </trkpt>
      <trkpt lat="42.89346" lon="-0.20244">
        <ele>1561.5</ele>
        <time>2026-07-15T07:07:12Z</time>
      </trkpt>
      <trkpt lat="42.89346" lon="-0.20244">
        <ele>1562.5</ele>
        <time>2026-07-15T07:07:12Z</time>
      </trkpt>
      <trkpt lat="42.89345" lon="-0.20244">
        <ele>1562.5</ele>
        <time>2026-07-15T07:07:13Z</time>
      </trkpt>
      <trkpt lat="42.89345" lon="-0.20243">
        <ele>1563.5</ele>
        <time>2026-07-15T07:07:14Z</time>
      </trkpt>
      <trkpt lat="42.89344" lon="-0.20243">
        <ele>1564.5</ele>
        <time>2026-07-15T07:07:14Z</time>
      </trkpt>
      <trkpt lat="42.89344" lon="-0.20243">
        <ele>1564.5</ele>
        <time>2026-07-15T07:07:15Z</time>
      </trkpt>
      <trkpt lat="42.89343" lon="-0.20242">
        <ele>1564.5</ele>
        <time>2026-07-15T07:07:16Z</time>
      </trkpt>
      <trkpt lat="42.89343" lon="-0.20242">
        <ele>1564.5</ele>
        <time>2026-07-15T07:07:16Z</time>
      </trkpt>
      <trkpt lat="42.89342" lon="-0.20242">
        <ele>1564.5</ele>
        <time>2026-07-15T07:07:17Z</time>
      </trkpt>
      <trkpt lat="42.89342" lon="-0.20241">
        <ele>1564.5</ele>
        <time>2026-07-15T07:07:18Z</time>
      </trkpt>
      <trkpt lat="42.89341" lon="-0.2024">
        <ele>1564.5</ele>
        <time>2026-07-15T07:07:19Z</time>
      </trkpt>
      <trkpt lat="42.89341" lon="-0.2024">
        <ele>1564.5</ele>
        <time>2026-07-15T07:07:19Z</time>
      </trkpt>
      <trkpt lat="42.89341" lon="-0.20239">
        <ele>1564.5</ele>
        <time>2026-07-15T07:07:20Z</time>
      </trkpt>
      <trkpt lat="42.8934" lon="-0.20238">
        <ele>1564.5</ele>
        <time>2026-07-15T07:07:21Z</time>
      </trkpt>
      <trkpt lat="42.8934" lon="-0.20238">
        <ele>1564.5</ele>
        <time>2026-07-15T07:07:22Z</time>
      </trkpt>
      <trkpt lat="42.89339" lon="-0.20237">
        <ele>1564.5</ele>
        <time>2026-07-15T07:07:23Z</time>
      </trkpt>
      <trkpt lat="42.89339" lon="-0.20237">
        <ele>1564.5</ele>
        <time>2026-07-15T07:07:23Z</time>
      </trkpt>
      <trkpt lat="42.89339" lon="-0.20236">
        <ele>1565.5</ele>
        <time>2026-07-15T07:07:24Z</time>
      </trkpt>
      <trkpt lat="42.89338" lon="-0.20235">
        <ele>1565.5</ele>
        <time>2026-07-15T07:07:25Z</time>
      </trkpt>
      <trkpt lat="42.89338" lon="-0.20234">
        <ele>1565.5</ele>
        <time>2026-07-15T07:07:26Z</time>
      </trkpt>
      <trkpt lat="42.89337" lon="-0.20234">
        <ele>1565.5</ele>
        <time>2026-07-15T07:07:26Z</time>
      </trkpt>
      <trkpt lat="42.89337" lon="-0.20233">
        <ele>1564.5</ele>
        <time>2026-07-15T07:07:27Z</time>
      </trkpt>
      <trkpt lat="42.89336" lon="-0.20233">
        <ele>1564.5</ele>
        <time>2026-07-15T07:07:28Z</time>
      </trkpt>
      <trkpt lat="42.89335" lon="-0.20232">
        <ele>1564.5</ele>
        <time>2026-07-15T07:07:29Z</time>
      </trkpt>
      <trkpt lat="42.89335" lon="-0.20232">
        <ele>1565.5</ele>
        <time>2026-07-15T07:07:29Z</time>
      </trkpt>
      <trkpt lat="42.89334" lon="-0.20232">
        <ele>1565.5</ele>
        <time>2026-07-15T07:07:30Z</time>
      </trkpt>
      <trkpt lat="42.89333" lon="-0.20232">
        <ele>1565.5</ele>
        <time>2026-07-15T07:07:31Z</time>
      </trkpt>
      <trkpt lat="42.89333" lon="-0.20232">
        <ele>1565.5</ele>
        <time>2026-07-15T07:07:31Z</time>
      </trkpt>
      <trkpt lat="42.89333" lon="-0.20232">
        <ele>1565.5</ele>
        <time>2026-07-15T07:07:32Z</time>
      </trkpt>
      <trkpt lat="42.89332" lon="-0.20232">
        <ele>1565.5</ele>
        <time>2026-07-15T07:07:33Z</time>
      </trkpt>
      <trkpt lat="42.89331" lon="-0.20232">
        <ele>1566.5</ele>
        <time>2026-07-15T07:07:34Z</time>
      </trkpt>
      <trkpt lat="42.89331" lon="-0.20232">
        <ele>1565.5</ele>
        <time>2026-07-15T07:07:34Z</time>
      </trkpt>
      <trkpt lat="42.8933" lon="-0.20232">
        <ele>1565.5</ele>
        <time>2026-07-15T07:07:35Z</time>
      </trkpt>
      <trkpt lat="42.8933" lon="-0.20232">
        <ele>1565.5</ele>
        <time>2026-07-15T07:07:36Z</time>
      </trkpt>
      <trkpt lat="42.89329" lon="-0.20232">
        <ele>1564.5</ele>
        <time>2026-07-15T07:07:37Z</time>
      </trkpt>
      <trkpt lat="42.89329" lon="-0.20232">
        <ele>1565.5</ele>
        <time>2026-07-15T07:07:37Z</time>
      </trkpt>
      <trkpt lat="42.89328" lon="-0.20232">
        <ele>1565.5</ele>
        <time>2026-07-15T07:07:38Z</time>
      </trkpt>
      <trkpt lat="42.89327" lon="-0.20231">
        <ele>1565.5</ele>
        <time>2026-07-15T07:07:39Z</time>
      </trkpt>
      <trkpt lat="42.89327" lon="-0.20231">
        <ele>1565.5</ele>
        <time>2026-07-15T07:07:40Z</time>
      </trkpt>
      <trkpt lat="42.89326" lon="-0.2023">
        <ele>1565.5</ele>
        <time>2026-07-15T07:07:40Z</time>
      </trkpt>
      <trkpt lat="42.89325" lon="-0.2023">
        <ele>1565.5</ele>
        <time>2026-07-15T07:07:41Z</time>
      </trkpt>
      <trkpt lat="42.89325" lon="-0.2023">
        <ele>1565.5</ele>
        <time>2026-07-15T07:07:42Z</time>
      </trkpt>
      <trkpt lat="42.89324" lon="-0.20229">
        <ele>1565.5</ele>
        <time>2026-07-15T07:07:42Z</time>
      </trkpt>
      <trkpt lat="42.89324" lon="-0.20229">
        <ele>1566.5</ele>
        <time>2026-07-15T07:07:43Z</time>
      </trkpt>
      <trkpt lat="42.89323" lon="-0.20229">
        <ele>1566.5</ele>
        <time>2026-07-15T07:07:44Z</time>
      </trkpt>
      <trkpt lat="42.89322" lon="-0.20228">
        <ele>1565.5</ele>
        <time>2026-07-15T07:07:45Z</time>
      </trkpt>
      <trkpt lat="42.89322" lon="-0.20228">
        <ele>1566.5</ele>
        <time>2026-07-15T07:07:46Z</time>
      </trkpt>
      <trkpt lat="42.89321" lon="-0.20228">
        <ele>1565.5</ele>
        <time>2026-07-15T07:07:46Z</time>
      </trkpt>
      <trkpt lat="42.89321" lon="-0.20227">
        <ele>1566.5</ele>
        <time>2026-07-15T07:07:47Z</time>
      </trkpt>
      <trkpt lat="42.8932" lon="-0.20227">
        <ele>1566.5</ele>
        <time>2026-07-15T07:07:48Z</time>
      </trkpt>
      <trkpt lat="42.8932" lon="-0.20227">
        <ele>1566.5</ele>
        <time>2026-07-15T07:07:49Z</time>
      </trkpt>
      <trkpt lat="42.89319" lon="-0.20227">
        <ele>1566.5</ele>
        <time>2026-07-15T07:07:49Z</time>
      </trkpt>
      <trkpt lat="42.89319" lon="-0.20226">
        <ele>1566.5</ele>
        <time>2026-07-15T07:07:50Z</time>
      </trkpt>
      <trkpt lat="42.89318" lon="-0.20226">
        <ele>1566.5</ele>
        <time>2026-07-15T07:07:51Z</time>
      </trkpt>
      <trkpt lat="42.89318" lon="-0.20225">
        <ele>1567.5</ele>
        <time>2026-07-15T07:07:51Z</time>
      </trkpt>
      <trkpt lat="42.89317" lon="-0.20225">
        <ele>1567.5</ele>
        <time>2026-07-15T07:07:52Z</time>
      </trkpt>
      <trkpt lat="42.89317" lon="-0.20225">
        <ele>1567.5</ele>
        <time>2026-07-15T07:07:53Z</time>
      </trkpt>
      <trkpt lat="42.89316" lon="-0.20225">
        <ele>1567.5</ele>
        <time>2026-07-15T07:07:54Z</time>
      </trkpt>
      <trkpt lat="42.89315" lon="-0.20225">
        <ele>1567.5</ele>
        <time>2026-07-15T07:07:55Z</time>
      </trkpt>
      <trkpt lat="42.89315" lon="-0.20224">
        <ele>1567.5</ele>
        <time>2026-07-15T07:07:55Z</time>
      </trkpt>
      <trkpt lat="42.89314" lon="-0.20224">
        <ele>1567.5</ele>
        <time>2026-07-15T07:07:56Z</time>
      </trkpt>
      <trkpt lat="42.89314" lon="-0.20223">
        <ele>1567.5</ele>
        <time>2026-07-15T07:07:57Z</time>
      </trkpt>
      <trkpt lat="42.89313" lon="-0.20223">
        <ele>1567.5</ele>
        <time>2026-07-15T07:07:58Z</time>
      </trkpt>
      <trkpt lat="42.89313" lon="-0.20222">
        <ele>1567.5</ele>
        <time>2026-07-15T07:07:58Z</time>
      </trkpt>
      <trkpt lat="42.89312" lon="-0.20222">
        <ele>1568.5</ele>
        <time>2026-07-15T07:07:59Z</time>
      </trkpt>
      <trkpt lat="42.89311" lon="-0.20221">
        <ele>1568.5</ele>
        <time>2026-07-15T07:08:00Z</time>
      </trkpt>
      <trkpt lat="42.8931" lon="-0.20221">
        <ele>1567.5</ele>
        <time>2026-07-15T07:08:01Z</time>
      </trkpt>
      <trkpt lat="42.8931" lon="-0.20221">
        <ele>1567.5</ele>
        <time>2026-07-15T07:08:01Z</time>
      </trkpt>
      <trkpt lat="42.89309" lon="-0.2022">
        <ele>1567.5</ele>
        <time>2026-07-15T07:08:02Z</time>
      </trkpt>
      <trkpt lat="42.89309" lon="-0.2022">
        <ele>1567.5</ele>
        <time>2026-07-15T07:08:03Z</time>
      </trkpt>
      <trkpt lat="42.89308" lon="-0.2022">
        <ele>1567.5</ele>
        <time>2026-07-15T07:08:04Z</time>
      </trkpt>
      <trkpt lat="42.89307" lon="-0.20219">
        <ele>1566.5</ele>
        <time>2026-07-15T07:08:04Z</time>
      </trkpt>
      <trkpt lat="42.89307" lon="-0.20219">
        <ele>1567.5</ele>
        <time>2026-07-15T07:08:05Z</time>
      </trkpt>
      <trkpt lat="42.89306" lon="-0.20218">
        <ele>1567.5</ele>
        <time>2026-07-15T07:08:06Z</time>
      </trkpt>
      <trkpt lat="42.89306" lon="-0.20218">
        <ele>1567.5</ele>
        <time>2026-07-15T07:08:07Z</time>
      </trkpt>
      <trkpt lat="42.89306" lon="-0.20217">
        <ele>1566.5</ele>
        <time>2026-07-15T07:08:07Z</time>
      </trkpt>
      <trkpt lat="42.89305" lon="-0.20217">
        <ele>1567.5</ele>
        <time>2026-07-15T07:08:08Z</time>
      </trkpt>
      <trkpt lat="42.89304" lon="-0.20216">
        <ele>1567.5</ele>
        <time>2026-07-15T07:08:09Z</time>
      </trkpt>
      <trkpt lat="42.89304" lon="-0.20216">
        <ele>1566.5</ele>
        <time>2026-07-15T07:08:10Z</time>
      </trkpt>
      <trkpt lat="42.89304" lon="-0.20216">
        <ele>1567.5</ele>
        <time>2026-07-15T07:08:10Z</time>
      </trkpt>
      <trkpt lat="42.89303" lon="-0.20215">
        <ele>1567.5</ele>
        <time>2026-07-15T07:08:11Z</time>
      </trkpt>
      <trkpt lat="42.89303" lon="-0.20215">
        <ele>1567.5</ele>
        <time>2026-07-15T07:08:12Z</time>
      </trkpt>
      <trkpt lat="42.89302" lon="-0.20215">
        <ele>1567.5</ele>
        <time>2026-07-15T07:08:13Z</time>
      </trkpt>
      <trkpt lat="42.89302" lon="-0.20214">
        <ele>1567.5</ele>
        <time>2026-07-15T07:08:13Z</time>
      </trkpt>
      <trkpt lat="42.89301" lon="-0.20214">
        <ele>1567.5</ele>
        <time>2026-07-15T07:08:14Z</time>
      </trkpt>
      <trkpt lat="42.893" lon="-0.20214">
        <ele>1567.5</ele>
        <time>2026-07-15T07:08:15Z</time>
      </trkpt>
      <trkpt lat="42.893" lon="-0.20214">
        <ele>1567.5</ele>
        <time>2026-07-15T07:08:15Z</time>
      </trkpt>
      <trkpt lat="42.89299" lon="-0.20214">
        <ele>1567.5</ele>
        <time>2026-07-15T07:08:16Z</time>
      </trkpt>
      <trkpt lat="42.89298" lon="-0.20214">
        <ele>1567.5</ele>
        <time>2026-07-15T07:08:17Z</time>
      </trkpt>
      <trkpt lat="42.89298" lon="-0.20214">
        <ele>1566.5</ele>
        <time>2026-07-15T07:08:18Z</time>
      </trkpt>
      <trkpt lat="42.89298" lon="-0.20213">
        <ele>1566.5</ele>
        <time>2026-07-15T07:08:18Z</time>
      </trkpt>
      <trkpt lat="42.89297" lon="-0.20213">
        <ele>1566.5</ele>
        <time>2026-07-15T07:08:19Z</time>
      </trkpt>
      <trkpt lat="42.89296" lon="-0.20212">
        <ele>1565.5</ele>
        <time>2026-07-15T07:08:20Z</time>
      </trkpt>
      <trkpt lat="42.89296" lon="-0.20212">
        <ele>1565.5</ele>
        <time>2026-07-15T07:08:20Z</time>
      </trkpt>
      <trkpt lat="42.89296" lon="-0.20211">
        <ele>1565.5</ele>
        <time>2026-07-15T07:08:21Z</time>
      </trkpt>
      <trkpt lat="42.89295" lon="-0.20211">
        <ele>1565.5</ele>
        <time>2026-07-15T07:08:22Z</time>
      </trkpt>
      <trkpt lat="42.89295" lon="-0.2021">
        <ele>1564.5</ele>
        <time>2026-07-15T07:08:22Z</time>
      </trkpt>
      <trkpt lat="42.89295" lon="-0.2021">
        <ele>1563.5</ele>
        <time>2026-07-15T07:08:23Z</time>
      </trkpt>
      <trkpt lat="42.89294" lon="-0.20209">
        <ele>1563.5</ele>
        <time>2026-07-15T07:08:24Z</time>
      </trkpt>
      <trkpt lat="42.89294" lon="-0.20209">
        <ele>1563.5</ele>
        <time>2026-07-15T07:08:25Z</time>
      </trkpt>
      <trkpt lat="42.89294" lon="-0.20208">
        <ele>1564.5</ele>
        <time>2026-07-15T07:08:25Z</time>
      </trkpt>
      <trkpt lat="42.89293" lon="-0.20208">
        <ele>1564.5</ele>
        <time>2026-07-15T07:08:26Z</time>
      </trkpt>
      <trkpt lat="42.89293" lon="-0.20207">
        <ele>1564.5</ele>
        <time>2026-07-15T07:08:27Z</time>
      </trkpt>
      <trkpt lat="42.89292" lon="-0.20206">
        <ele>1564.5</ele>
        <time>2026-07-15T07:08:28Z</time>
      </trkpt>
      <trkpt lat="42.89292" lon="-0.20206">
        <ele>1564.5</ele>
        <time>2026-07-15T07:08:28Z</time>
      </trkpt>
      <trkpt lat="42.89291" lon="-0.20206">
        <ele>1565.5</ele>
        <time>2026-07-15T07:08:29Z</time>
      </trkpt>
      <trkpt lat="42.8929" lon="-0.20205">
        <ele>1565.5</ele>
        <time>2026-07-15T07:08:30Z</time>
      </trkpt>
      <trkpt lat="42.8929" lon="-0.20205">
        <ele>1565.5</ele>
        <time>2026-07-15T07:08:31Z</time>
      </trkpt>
      <trkpt lat="42.8929" lon="-0.20204">
        <ele>1565.5</ele>
        <time>2026-07-15T07:08:31Z</time>
      </trkpt>
      <trkpt lat="42.89289" lon="-0.20204">
        <ele>1565.5</ele>
        <time>2026-07-15T07:08:32Z</time>
      </trkpt>
      <trkpt lat="42.89289" lon="-0.20203">
        <ele>1565.5</ele>
        <time>2026-07-15T07:08:33Z</time>
      </trkpt>
      <trkpt lat="42.89288" lon="-0.20203">
        <ele>1565.5</ele>
        <time>2026-07-15T07:08:33Z</time>
      </trkpt>
      <trkpt lat="42.89288" lon="-0.20203">
        <ele>1565.5</ele>
        <time>2026-07-15T07:08:34Z</time>
      </trkpt>
      <trkpt lat="42.89287" lon="-0.20202">
        <ele>1565.5</ele>
        <time>2026-07-15T07:08:35Z</time>
      </trkpt>
      <trkpt lat="42.89287" lon="-0.20202">
        <ele>1565.5</ele>
        <time>2026-07-15T07:08:36Z</time>
      </trkpt>
      <trkpt lat="42.89287" lon="-0.20201">
        <ele>1566.5</ele>
        <time>2026-07-15T07:08:36Z</time>
      </trkpt>
      <trkpt lat="42.89286" lon="-0.20201">
        <ele>1566.5</ele>
        <time>2026-07-15T07:08:37Z</time>
      </trkpt>
      <trkpt lat="42.89286" lon="-0.202">
        <ele>1565.5</ele>
        <time>2026-07-15T07:08:38Z</time>
      </trkpt>
      <trkpt lat="42.89285" lon="-0.202">
        <ele>1565.5</ele>
        <time>2026-07-15T07:08:38Z</time>
      </trkpt>
      <trkpt lat="42.89285" lon="-0.202">
        <ele>1565.5</ele>
        <time>2026-07-15T07:08:39Z</time>
      </trkpt>
      <trkpt lat="42.89284" lon="-0.202">
        <ele>1565.5</ele>
        <time>2026-07-15T07:08:40Z</time>
      </trkpt>
      <trkpt lat="42.89284" lon="-0.202">
        <ele>1565.5</ele>
        <time>2026-07-15T07:08:41Z</time>
      </trkpt>
      <trkpt lat="42.89283" lon="-0.202">
        <ele>1566.5</ele>
        <time>2026-07-15T07:08:41Z</time>
      </trkpt>
      <trkpt lat="42.89282" lon="-0.20199">
        <ele>1566.5</ele>
        <time>2026-07-15T07:08:42Z</time>
      </trkpt>
      <trkpt lat="42.89282" lon="-0.20199">
        <ele>1566.5</ele>
        <time>2026-07-15T07:08:43Z</time>
      </trkpt>
      <trkpt lat="42.89281" lon="-0.20199">
        <ele>1566.5</ele>
        <time>2026-07-15T07:08:44Z</time>
      </trkpt>
      <trkpt lat="42.89281" lon="-0.20199">
        <ele>1566.5</ele>
        <time>2026-07-15T07:08:44Z</time>
      </trkpt>
      <trkpt lat="42.8928" lon="-0.20199">
        <ele>1566.5</ele>
        <time>2026-07-15T07:08:45Z</time>
      </trkpt>
      <trkpt lat="42.89279" lon="-0.20199">
        <ele>1566.5</ele>
        <time>2026-07-15T07:08:46Z</time>
      </trkpt>
      <trkpt lat="42.89279" lon="-0.20199">
        <ele>1566.5</ele>
        <time>2026-07-15T07:08:46Z</time>
      </trkpt>
      <trkpt lat="42.89278" lon="-0.20199">
        <ele>1566.5</ele>
        <time>2026-07-15T07:08:47Z</time>
      </trkpt>
      <trkpt lat="42.89278" lon="-0.20198">
        <ele>1566.5</ele>
        <time>2026-07-15T07:08:48Z</time>
      </trkpt>
      <trkpt lat="42.89277" lon="-0.20198">
        <ele>1567.5</ele>
        <time>2026-07-15T07:08:49Z</time>
      </trkpt>
      <trkpt lat="42.89277" lon="-0.20198">
        <ele>1567.5</ele>
        <time>2026-07-15T07:08:49Z</time>
      </trkpt>
      <trkpt lat="42.89277" lon="-0.20197">
        <ele>1567.5</ele>
        <time>2026-07-15T07:08:50Z</time>
      </trkpt>
      <trkpt lat="42.89276" lon="-0.20197">
        <ele>1567.5</ele>
        <time>2026-07-15T07:08:51Z</time>
      </trkpt>
      <trkpt lat="42.89276" lon="-0.20196">
        <ele>1568.5</ele>
        <time>2026-07-15T07:08:51Z</time>
      </trkpt>
      <trkpt lat="42.89275" lon="-0.20196">
        <ele>1568.5</ele>
        <time>2026-07-15T07:08:52Z</time>
      </trkpt>
      <trkpt lat="42.89275" lon="-0.20195">
        <ele>1567.5</ele>
        <time>2026-07-15T07:08:53Z</time>
      </trkpt>
      <trkpt lat="42.89274" lon="-0.20195">
        <ele>1567.5</ele>
        <time>2026-07-15T07:08:54Z</time>
      </trkpt>
      <trkpt lat="42.89274" lon="-0.20195">
        <ele>1567.5</ele>
        <time>2026-07-15T07:08:54Z</time>
      </trkpt>
      <trkpt lat="42.89273" lon="-0.20195">
        <ele>1567.5</ele>
        <time>2026-07-15T07:08:55Z</time>
      </trkpt>
      <trkpt lat="42.89273" lon="-0.20195">
        <ele>1566.5</ele>
        <time>2026-07-15T07:08:56Z</time>
      </trkpt>
      <trkpt lat="42.89272" lon="-0.20195">
        <ele>1566.5</ele>
        <time>2026-07-15T07:08:56Z</time>
      </trkpt>
      <trkpt lat="42.89271" lon="-0.20195">
        <ele>1566.5</ele>
        <time>2026-07-15T07:08:57Z</time>
      </trkpt>
      <trkpt lat="42.89271" lon="-0.20194">
        <ele>1566.5</ele>
        <time>2026-07-15T07:08:58Z</time>
      </trkpt>
      <trkpt lat="42.8927" lon="-0.20194">
        <ele>1567.5</ele>
        <time>2026-07-15T07:08:58Z</time>
      </trkpt>
      <trkpt lat="42.8927" lon="-0.20194">
        <ele>1567.5</ele>
        <time>2026-07-15T07:08:59Z</time>
      </trkpt>
      <trkpt lat="42.89269" lon="-0.20194">
        <ele>1567.5</ele>
        <time>2026-07-15T07:09:00Z</time>
      </trkpt>
      <trkpt lat="42.89268" lon="-0.20194">
        <ele>1567.5</ele>
        <time>2026-07-15T07:09:00Z</time>
      </trkpt>
      <trkpt lat="42.89267" lon="-0.20194">
        <ele>1567.5</ele>
        <time>2026-07-15T07:09:01Z</time>
      </trkpt>
      <trkpt lat="42.89267" lon="-0.20194">
        <ele>1567.5</ele>
        <time>2026-07-15T07:09:02Z</time>
      </trkpt>
      <trkpt lat="42.89266" lon="-0.20194">
        <ele>1567.5</ele>
        <time>2026-07-15T07:09:02Z</time>
      </trkpt>
      <trkpt lat="42.89265" lon="-0.20194">
        <ele>1567.5</ele>
        <time>2026-07-15T07:09:03Z</time>
      </trkpt>
      <trkpt lat="42.89264" lon="-0.20194">
        <ele>1567.5</ele>
        <time>2026-07-15T07:09:04Z</time>
      </trkpt>
      <trkpt lat="42.89264" lon="-0.20193">
        <ele>1568.5</ele>
        <time>2026-07-15T07:09:05Z</time>
      </trkpt>
      <trkpt lat="42.89263" lon="-0.20193">
        <ele>1569.5</ele>
        <time>2026-07-15T07:09:05Z</time>
      </trkpt>
      <trkpt lat="42.89262" lon="-0.20193">
        <ele>1569.5</ele>
        <time>2026-07-15T07:09:06Z</time>
      </trkpt>
      <trkpt lat="42.89262" lon="-0.20193">
        <ele>1569.5</ele>
        <time>2026-07-15T07:09:07Z</time>
      </trkpt>
      <trkpt lat="42.89261" lon="-0.20193">
        <ele>1569.5</ele>
        <time>2026-07-15T07:09:08Z</time>
      </trkpt>
      <trkpt lat="42.8926" lon="-0.20193">
        <ele>1569.5</ele>
        <time>2026-07-15T07:09:08Z</time>
      </trkpt>
      <trkpt lat="42.8926" lon="-0.20192">
        <ele>1569.5</ele>
        <time>2026-07-15T07:09:09Z</time>
      </trkpt>
      <trkpt lat="42.89259" lon="-0.20192">
        <ele>1569.5</ele>
        <time>2026-07-15T07:09:10Z</time>
      </trkpt>
      <trkpt lat="42.89258" lon="-0.20192">
        <ele>1569.5</ele>
        <time>2026-07-15T07:09:11Z</time>
      </trkpt>
      <trkpt lat="42.89258" lon="-0.20192">
        <ele>1569.5</ele>
        <time>2026-07-15T07:09:11Z</time>
      </trkpt>
      <trkpt lat="42.89257" lon="-0.20191">
        <ele>1569.5</ele>
        <time>2026-07-15T07:09:12Z</time>
      </trkpt>
      <trkpt lat="42.89257" lon="-0.20191">
        <ele>1569.5</ele>
        <time>2026-07-15T07:09:13Z</time>
      </trkpt>
      <trkpt lat="42.89256" lon="-0.20191">
        <ele>1569.5</ele>
        <time>2026-07-15T07:09:14Z</time>
      </trkpt>
      <trkpt lat="42.89255" lon="-0.20191">
        <ele>1569.5</ele>
        <time>2026-07-15T07:09:14Z</time>
      </trkpt>
      <trkpt lat="42.89255" lon="-0.20191">
        <ele>1570.5</ele>
        <time>2026-07-15T07:09:15Z</time>
      </trkpt>
      <trkpt lat="42.89254" lon="-0.20191">
        <ele>1570.5</ele>
        <time>2026-07-15T07:09:16Z</time>
      </trkpt>
      <trkpt lat="42.89254" lon="-0.20191">
        <ele>1570.5</ele>
        <time>2026-07-15T07:09:17Z</time>
      </trkpt>
      <trkpt lat="42.89253" lon="-0.2019">
        <ele>1570.5</ele>
        <time>2026-07-15T07:09:17Z</time>
      </trkpt>
      <trkpt lat="42.89253" lon="-0.2019">
        <ele>1570.5</ele>
        <time>2026-07-15T07:09:18Z</time>
      </trkpt>
      <trkpt lat="42.89252" lon="-0.2019">
        <ele>1570.5</ele>
        <time>2026-07-15T07:09:19Z</time>
      </trkpt>
      <trkpt lat="42.89252" lon="-0.20189">
        <ele>1570.5</ele>
        <time>2026-07-15T07:09:19Z</time>
      </trkpt>
      <trkpt lat="42.89251" lon="-0.20189">
        <ele>1570.5</ele>
        <time>2026-07-15T07:09:20Z</time>
      </trkpt>
      <trkpt lat="42.8925" lon="-0.20189">
        <ele>1570.5</ele>
        <time>2026-07-15T07:09:21Z</time>
      </trkpt>
      <trkpt lat="42.8925" lon="-0.20188">
        <ele>1570.5</ele>
        <time>2026-07-15T07:09:22Z</time>
      </trkpt>
      <trkpt lat="42.89249" lon="-0.20187">
        <ele>1570.5</ele>
        <time>2026-07-15T07:09:22Z</time>
      </trkpt>
      <trkpt lat="42.89249" lon="-0.20187">
        <ele>1571.5</ele>
        <time>2026-07-15T07:09:23Z</time>
      </trkpt>
      <trkpt lat="42.89248" lon="-0.20186">
        <ele>1571.5</ele>
        <time>2026-07-15T07:09:24Z</time>
      </trkpt>
      <trkpt lat="42.89248" lon="-0.20186">
        <ele>1570.5</ele>
        <time>2026-07-15T07:09:25Z</time>
      </trkpt>
      <trkpt lat="42.89247" lon="-0.20186">
        <ele>1570.5</ele>
        <time>2026-07-15T07:09:26Z</time>
      </trkpt>
      <trkpt lat="42.89247" lon="-0.20185">
        <ele>1571.5</ele>
        <time>2026-07-15T07:09:26Z</time>
      </trkpt>
      <trkpt lat="42.89247" lon="-0.20185">
        <ele>1571.5</ele>
        <time>2026-07-15T07:09:27Z</time>
      </trkpt>
      <trkpt lat="42.89246" lon="-0.20184">
        <ele>1571.5</ele>
        <time>2026-07-15T07:09:28Z</time>
      </trkpt>
      <trkpt lat="42.89246" lon="-0.20184">
        <ele>1572.5</ele>
        <time>2026-07-15T07:09:29Z</time>
      </trkpt>
      <trkpt lat="42.89245" lon="-0.20184">
        <ele>1572.5</ele>
        <time>2026-07-15T07:09:30Z</time>
      </trkpt>
      <trkpt lat="42.89244" lon="-0.20184">
        <ele>1572.5</ele>
        <time>2026-07-15T07:09:31Z</time>
      </trkpt>
      <trkpt lat="42.89244" lon="-0.20184">
        <ele>1572.5</ele>
        <time>2026-07-15T07:09:31Z</time>
      </trkpt>
      <trkpt lat="42.89243" lon="-0.20185">
        <ele>1572.5</ele>
        <time>2026-07-15T07:09:32Z</time>
      </trkpt>
      <trkpt lat="42.89243" lon="-0.20185">
        <ele>1572.5</ele>
        <time>2026-07-15T07:09:33Z</time>
      </trkpt>
      <trkpt lat="42.89243" lon="-0.20185">
        <ele>1572.5</ele>
        <time>2026-07-15T07:09:34Z</time>
      </trkpt>
      <trkpt lat="42.89242" lon="-0.20184">
        <ele>1571.5</ele>
        <time>2026-07-15T07:09:34Z</time>
      </trkpt>
      <trkpt lat="42.89242" lon="-0.20184">
        <ele>1572.5</ele>
        <time>2026-07-15T07:09:35Z</time>
      </trkpt>
      <trkpt lat="42.89242" lon="-0.20184">
        <ele>1572.5</ele>
        <time>2026-07-15T07:09:36Z</time>
      </trkpt>
      <trkpt lat="42.89241" lon="-0.20184">
        <ele>1572.5</ele>
        <time>2026-07-15T07:09:37Z</time>
      </trkpt>
      <trkpt lat="42.89241" lon="-0.20184">
        <ele>1572.5</ele>
        <time>2026-07-15T07:09:37Z</time>
      </trkpt>
      <trkpt lat="42.89241" lon="-0.20184">
        <ele>1571.5</ele>
        <time>2026-07-15T07:09:38Z</time>
      </trkpt>
      <trkpt lat="42.89241" lon="-0.20183">
        <ele>1572.5</ele>
        <time>2026-07-15T07:09:39Z</time>
      </trkpt>
      <trkpt lat="42.8924" lon="-0.20183">
        <ele>1572.5</ele>
        <time>2026-07-15T07:09:40Z</time>
      </trkpt>
      <trkpt lat="42.8924" lon="-0.20182">
        <ele>1572.5</ele>
        <time>2026-07-15T07:09:41Z</time>
      </trkpt>
      <trkpt lat="42.89239" lon="-0.20182">
        <ele>1572.5</ele>
        <time>2026-07-15T07:09:42Z</time>
      </trkpt>
      <trkpt lat="42.89239" lon="-0.20182">
        <ele>1572.5</ele>
        <time>2026-07-15T07:09:43Z</time>
      </trkpt>
      <trkpt lat="42.89239" lon="-0.20182">
        <ele>1572.5</ele>
        <time>2026-07-15T07:09:43Z</time>
      </trkpt>
      <trkpt lat="42.89239" lon="-0.20181">
        <ele>1573.5</ele>
        <time>2026-07-15T07:09:44Z</time>
      </trkpt>
      <trkpt lat="42.89238" lon="-0.20181">
        <ele>1573.5</ele>
        <time>2026-07-15T07:09:45Z</time>
      </trkpt>
      <trkpt lat="42.89238" lon="-0.20181">
        <ele>1573.5</ele>
        <time>2026-07-15T07:09:46Z</time>
      </trkpt>
      <trkpt lat="42.89238" lon="-0.20181">
        <ele>1573.5</ele>
        <time>2026-07-15T07:09:46Z</time>
      </trkpt>
      <trkpt lat="42.89237" lon="-0.20181">
        <ele>1573.5</ele>
        <time>2026-07-15T07:09:47Z</time>
      </trkpt>
      <trkpt lat="42.89237" lon="-0.20181">
        <ele>1573.5</ele>
        <time>2026-07-15T07:09:48Z</time>
      </trkpt>
      <trkpt lat="42.89236" lon="-0.20181">
        <ele>1573.5</ele>
        <time>2026-07-15T07:09:49Z</time>
      </trkpt>
      <trkpt lat="42.89236" lon="-0.20181">
        <ele>1573.5</ele>
        <time>2026-07-15T07:09:50Z</time>
      </trkpt>
      <trkpt lat="42.89235" lon="-0.20181">
        <ele>1574.5</ele>
        <time>2026-07-15T07:09:51Z</time>
      </trkpt>
      <trkpt lat="42.89234" lon="-0.20181">
        <ele>1575.5</ele>
        <time>2026-07-15T07:09:51Z</time>
      </trkpt>
      <trkpt lat="42.89234" lon="-0.20181">
        <ele>1575.5</ele>
        <time>2026-07-15T07:09:52Z</time>
      </trkpt>
      <trkpt lat="42.89233" lon="-0.20181">
        <ele>1575.5</ele>
        <time>2026-07-15T07:09:53Z</time>
      </trkpt>
      <trkpt lat="42.89233" lon="-0.20181">
        <ele>1575.5</ele>
        <time>2026-07-15T07:09:54Z</time>
      </trkpt>
      <trkpt lat="42.89232" lon="-0.20181">
        <ele>1575.5</ele>
        <time>2026-07-15T07:09:55Z</time>
      </trkpt>
      <trkpt lat="42.89232" lon="-0.20181">
        <ele>1574.5</ele>
        <time>2026-07-15T07:09:55Z</time>
      </trkpt>
      <trkpt lat="42.89231" lon="-0.20181">
        <ele>1575.5</ele>
        <time>2026-07-15T07:09:56Z</time>
      </trkpt>
      <trkpt lat="42.8923" lon="-0.2018">
        <ele>1575.5</ele>
        <time>2026-07-15T07:09:57Z</time>
      </trkpt>
      <trkpt lat="42.8923" lon="-0.2018">
        <ele>1575.5</ele>
        <time>2026-07-15T07:09:58Z</time>
      </trkpt>
      <trkpt lat="42.89229" lon="-0.2018">
        <ele>1576.5</ele>
        <time>2026-07-15T07:09:59Z</time>
      </trkpt>
      <trkpt lat="42.89229" lon="-0.2018">
        <ele>1576.5</ele>
        <time>2026-07-15T07:09:59Z</time>
      </trkpt>
      <trkpt lat="42.89228" lon="-0.20179">
        <ele>1576.5</ele>
        <time>2026-07-15T07:10:00Z</time>
      </trkpt>
      <trkpt lat="42.89228" lon="-0.20179">
        <ele>1576.5</ele>
        <time>2026-07-15T07:10:01Z</time>
      </trkpt>
      <trkpt lat="42.89227" lon="-0.20179">
        <ele>1577.5</ele>
        <time>2026-07-15T07:10:02Z</time>
      </trkpt>
      <trkpt lat="42.89227" lon="-0.20179">
        <ele>1578.5</ele>
        <time>2026-07-15T07:10:02Z</time>
      </trkpt>
      <trkpt lat="42.89226" lon="-0.20179">
        <ele>1578.5</ele>
        <time>2026-07-15T07:10:03Z</time>
      </trkpt>
      <trkpt lat="42.89226" lon="-0.20179">
        <ele>1579.5</ele>
        <time>2026-07-15T07:10:04Z</time>
      </trkpt>
      <trkpt lat="42.89225" lon="-0.20178">
        <ele>1579.5</ele>
        <time>2026-07-15T07:10:05Z</time>
      </trkpt>
      <trkpt lat="42.89224" lon="-0.20178">
        <ele>1579.5</ele>
        <time>2026-07-15T07:10:06Z</time>
      </trkpt>
      <trkpt lat="42.89224" lon="-0.20178">
        <ele>1579.5</ele>
        <time>2026-07-15T07:10:06Z</time>
      </trkpt>
      <trkpt lat="42.89223" lon="-0.20177">
        <ele>1580.5</ele>
        <time>2026-07-15T07:10:07Z</time>
      </trkpt>
      <trkpt lat="42.89223" lon="-0.20177">
        <ele>1580.5</ele>
        <time>2026-07-15T07:10:08Z</time>
      </trkpt>
      <trkpt lat="42.89222" lon="-0.20176">
        <ele>1579.5</ele>
        <time>2026-07-15T07:10:09Z</time>
      </trkpt>
      <trkpt lat="42.89222" lon="-0.20176">
        <ele>1579.5</ele>
        <time>2026-07-15T07:10:10Z</time>
      </trkpt>
      <trkpt lat="42.89222" lon="-0.20175">
        <ele>1579.5</ele>
        <time>2026-07-15T07:10:10Z</time>
      </trkpt>
      <trkpt lat="42.89221" lon="-0.20174">
        <ele>1579.5</ele>
        <time>2026-07-15T07:10:11Z</time>
      </trkpt>
      <trkpt lat="42.89221" lon="-0.20174">
        <ele>1579.5</ele>
        <time>2026-07-15T07:10:12Z</time>
      </trkpt>
      <trkpt lat="42.8922" lon="-0.20173">
        <ele>1579.5</ele>
        <time>2026-07-15T07:10:13Z</time>
      </trkpt>
      <trkpt lat="42.8922" lon="-0.20173">
        <ele>1580.5</ele>
        <time>2026-07-15T07:10:13Z</time>
      </trkpt>
      <trkpt lat="42.8922" lon="-0.20174">
        <ele>1580.5</ele>
        <time>2026-07-15T07:10:14Z</time>
      </trkpt>
      <trkpt lat="42.89219" lon="-0.20174">
        <ele>1580.5</ele>
        <time>2026-07-15T07:10:15Z</time>
      </trkpt>
      <trkpt lat="42.89218" lon="-0.20174">
        <ele>1579.5</ele>
        <time>2026-07-15T07:10:16Z</time>
      </trkpt>
      <trkpt lat="42.89218" lon="-0.20174">
        <ele>1579.5</ele>
        <time>2026-07-15T07:10:17Z</time>
      </trkpt>
      <trkpt lat="42.89217" lon="-0.20173">
        <ele>1579.5</ele>
        <time>2026-07-15T07:10:18Z</time>
      </trkpt>
      <trkpt lat="42.89217" lon="-0.20173">
        <ele>1580.5</ele>
        <time>2026-07-15T07:10:18Z</time>
      </trkpt>
      <trkpt lat="42.89216" lon="-0.20173">
        <ele>1580.5</ele>
        <time>2026-07-15T07:10:19Z</time>
      </trkpt>
      <trkpt lat="42.89216" lon="-0.20173">
        <ele>1580.5</ele>
        <time>2026-07-15T07:10:20Z</time>
      </trkpt>
      <trkpt lat="42.89215" lon="-0.20173">
        <ele>1581.5</ele>
        <time>2026-07-15T07:10:21Z</time>
      </trkpt>
      <trkpt lat="42.89215" lon="-0.20173">
        <ele>1582.5</ele>
        <time>2026-07-15T07:10:22Z</time>
      </trkpt>
      <trkpt lat="42.89214" lon="-0.20173">
        <ele>1583.5</ele>
        <time>2026-07-15T07:10:22Z</time>
      </trkpt>
      <trkpt lat="42.89214" lon="-0.20174">
        <ele>1583.5</ele>
        <time>2026-07-15T07:10:23Z</time>
      </trkpt>
      <trkpt lat="42.89213" lon="-0.20174">
        <ele>1583.5</ele>
        <time>2026-07-15T07:10:24Z</time>
      </trkpt>
      <trkpt lat="42.89212" lon="-0.20173">
        <ele>1583.5</ele>
        <time>2026-07-15T07:10:25Z</time>
      </trkpt>
      <trkpt lat="42.89212" lon="-0.20173">
        <ele>1584.5</ele>
        <time>2026-07-15T07:10:25Z</time>
      </trkpt>
      <trkpt lat="42.89211" lon="-0.20173">
        <ele>1583.5</ele>
        <time>2026-07-15T07:10:26Z</time>
      </trkpt>
      <trkpt lat="42.89211" lon="-0.20173">
        <ele>1583.5</ele>
        <time>2026-07-15T07:10:27Z</time>
      </trkpt>
      <trkpt lat="42.8921" lon="-0.20173">
        <ele>1583.5</ele>
        <time>2026-07-15T07:10:28Z</time>
      </trkpt>
      <trkpt lat="42.8921" lon="-0.20173">
        <ele>1583.5</ele>
        <time>2026-07-15T07:10:28Z</time>
      </trkpt>
      <trkpt lat="42.89209" lon="-0.20173">
        <ele>1583.5</ele>
        <time>2026-07-15T07:10:29Z</time>
      </trkpt>
      <trkpt lat="42.89209" lon="-0.20173">
        <ele>1583.5</ele>
        <time>2026-07-15T07:10:30Z</time>
      </trkpt>
      <trkpt lat="42.89208" lon="-0.20173">
        <ele>1583.5</ele>
        <time>2026-07-15T07:10:31Z</time>
      </trkpt>
      <trkpt lat="42.89207" lon="-0.20173">
        <ele>1583.5</ele>
        <time>2026-07-15T07:10:31Z</time>
      </trkpt>
      <trkpt lat="42.89207" lon="-0.20173">
        <ele>1583.5</ele>
        <time>2026-07-15T07:10:32Z</time>
      </trkpt>
      <trkpt lat="42.89206" lon="-0.20173">
        <ele>1583.5</ele>
        <time>2026-07-15T07:10:33Z</time>
      </trkpt>
      <trkpt lat="42.89206" lon="-0.20173">
        <ele>1584.5</ele>
        <time>2026-07-15T07:10:34Z</time>
      </trkpt>
      <trkpt lat="42.89205" lon="-0.20173">
        <ele>1584.5</ele>
        <time>2026-07-15T07:10:34Z</time>
      </trkpt>
      <trkpt lat="42.89205" lon="-0.20173">
        <ele>1584.5</ele>
        <time>2026-07-15T07:10:35Z</time>
      </trkpt>
      <trkpt lat="42.89204" lon="-0.20173">
        <ele>1584.5</ele>
        <time>2026-07-15T07:10:36Z</time>
      </trkpt>
      <trkpt lat="42.89204" lon="-0.20173">
        <ele>1583.5</ele>
        <time>2026-07-15T07:10:36Z</time>
      </trkpt>
      <trkpt lat="42.89203" lon="-0.20173">
        <ele>1583.5</ele>
        <time>2026-07-15T07:10:37Z</time>
      </trkpt>
      <trkpt lat="42.89202" lon="-0.20173">
        <ele>1584.5</ele>
        <time>2026-07-15T07:10:38Z</time>
      </trkpt>
      <trkpt lat="42.89202" lon="-0.20172">
        <ele>1584.5</ele>
        <time>2026-07-15T07:10:38Z</time>
      </trkpt>
      <trkpt lat="42.89201" lon="-0.20172">
        <ele>1584.5</ele>
        <time>2026-07-15T07:10:39Z</time>
      </trkpt>
      <trkpt lat="42.892" lon="-0.20172">
        <ele>1585.5</ele>
        <time>2026-07-15T07:10:40Z</time>
      </trkpt>
      <trkpt lat="42.892" lon="-0.20172">
        <ele>1585.5</ele>
        <time>2026-07-15T07:10:40Z</time>
      </trkpt>
      <trkpt lat="42.89199" lon="-0.20172">
        <ele>1585.5</ele>
        <time>2026-07-15T07:10:41Z</time>
      </trkpt>
      <trkpt lat="42.89198" lon="-0.20171">
        <ele>1586.5</ele>
        <time>2026-07-15T07:10:42Z</time>
      </trkpt>
      <trkpt lat="42.89198" lon="-0.20171">
        <ele>1585.5</ele>
        <time>2026-07-15T07:10:43Z</time>
      </trkpt>
      <trkpt lat="42.89197" lon="-0.2017">
        <ele>1586.5</ele>
        <time>2026-07-15T07:10:43Z</time>
      </trkpt>
      <trkpt lat="42.89196" lon="-0.2017">
        <ele>1586.5</ele>
        <time>2026-07-15T07:10:44Z</time>
      </trkpt>
      <trkpt lat="42.89196" lon="-0.20169">
        <ele>1586.5</ele>
        <time>2026-07-15T07:10:45Z</time>
      </trkpt>
      <trkpt lat="42.89195" lon="-0.20169">
        <ele>1587.5</ele>
        <time>2026-07-15T07:10:45Z</time>
      </trkpt>
      <trkpt lat="42.89195" lon="-0.20168">
        <ele>1587.5</ele>
        <time>2026-07-15T07:10:46Z</time>
      </trkpt>
      <trkpt lat="42.89194" lon="-0.20168">
        <ele>1587.5</ele>
        <time>2026-07-15T07:10:47Z</time>
      </trkpt>
      <trkpt lat="42.89193" lon="-0.20167">
        <ele>1587.5</ele>
        <time>2026-07-15T07:10:48Z</time>
      </trkpt>
      <trkpt lat="42.89193" lon="-0.20167">
        <ele>1587.5</ele>
        <time>2026-07-15T07:10:48Z</time>
      </trkpt>
      <trkpt lat="42.89192" lon="-0.20166">
        <ele>1587.5</ele>
        <time>2026-07-15T07:10:49Z</time>
      </trkpt>
      <trkpt lat="42.89192" lon="-0.20166">
        <ele>1587.5</ele>
        <time>2026-07-15T07:10:50Z</time>
      </trkpt>
      <trkpt lat="42.89191" lon="-0.20165">
        <ele>1587.5</ele>
        <time>2026-07-15T07:10:51Z</time>
      </trkpt>
      <trkpt lat="42.89191" lon="-0.20165">
        <ele>1587.5</ele>
        <time>2026-07-15T07:10:51Z</time>
      </trkpt>
      <trkpt lat="42.8919" lon="-0.20165">
        <ele>1587.5</ele>
        <time>2026-07-15T07:10:52Z</time>
      </trkpt>
      <trkpt lat="42.8919" lon="-0.20164">
        <ele>1587.5</ele>
        <time>2026-07-15T07:10:53Z</time>
      </trkpt>
      <trkpt lat="42.89189" lon="-0.20164">
        <ele>1587.5</ele>
        <time>2026-07-15T07:10:53Z</time>
      </trkpt>
      <trkpt lat="42.89189" lon="-0.20164">
        <ele>1586.5</ele>
        <time>2026-07-15T07:10:54Z</time>
      </trkpt>
      <trkpt lat="42.89188" lon="-0.20163">
        <ele>1586.5</ele>
        <time>2026-07-15T07:10:55Z</time>
      </trkpt>
      <trkpt lat="42.89188" lon="-0.20163">
        <ele>1586.5</ele>
        <time>2026-07-15T07:10:56Z</time>
      </trkpt>
      <trkpt lat="42.89188" lon="-0.20163">
        <ele>1586.5</ele>
        <time>2026-07-15T07:10:56Z</time>
      </trkpt>
      <trkpt lat="42.89187" lon="-0.20162">
        <ele>1586.5</ele>
        <time>2026-07-15T07:10:57Z</time>
      </trkpt>
      <trkpt lat="42.89187" lon="-0.20162">
        <ele>1586.5</ele>
        <time>2026-07-15T07:10:58Z</time>
      </trkpt>
      <trkpt lat="42.89186" lon="-0.20161">
        <ele>1587.5</ele>
        <time>2026-07-15T07:10:59Z</time>
      </trkpt>
      <trkpt lat="42.89186" lon="-0.20161">
        <ele>1587.5</ele>
        <time>2026-07-15T07:10:59Z</time>
      </trkpt>
      <trkpt lat="42.89185" lon="-0.20161">
        <ele>1587.5</ele>
        <time>2026-07-15T07:11:00Z</time>
      </trkpt>
      <trkpt lat="42.89185" lon="-0.20161">
        <ele>1586.5</ele>
        <time>2026-07-15T07:11:01Z</time>
      </trkpt>
      <trkpt lat="42.89185" lon="-0.20161">
        <ele>1586.5</ele>
        <time>2026-07-15T07:11:01Z</time>
      </trkpt>
      <trkpt lat="42.89184" lon="-0.2016">
        <ele>1586.5</ele>
        <time>2026-07-15T07:11:02Z</time>
      </trkpt>
      <trkpt lat="42.89184" lon="-0.2016">
        <ele>1586.5</ele>
        <time>2026-07-15T07:11:03Z</time>
      </trkpt>
      <trkpt lat="42.89183" lon="-0.2016">
        <ele>1586.5</ele>
        <time>2026-07-15T07:11:04Z</time>
      </trkpt>
      <trkpt lat="42.89183" lon="-0.2016">
        <ele>1586.5</ele>
        <time>2026-07-15T07:11:04Z</time>
      </trkpt>
      <trkpt lat="42.89183" lon="-0.2016">
        <ele>1586.5</ele>
        <time>2026-07-15T07:11:05Z</time>
      </trkpt>
      <trkpt lat="42.89182" lon="-0.2016">
        <ele>1586.5</ele>
        <time>2026-07-15T07:11:06Z</time>
      </trkpt>
      <trkpt lat="42.89181" lon="-0.20159">
        <ele>1585.5</ele>
        <time>2026-07-15T07:11:07Z</time>
      </trkpt>
      <trkpt lat="42.89181" lon="-0.20159">
        <ele>1585.5</ele>
        <time>2026-07-15T07:11:07Z</time>
      </trkpt>
      <trkpt lat="42.8918" lon="-0.20159">
        <ele>1585.5</ele>
        <time>2026-07-15T07:11:08Z</time>
      </trkpt>
      <trkpt lat="42.8918" lon="-0.20159">
        <ele>1585.5</ele>
        <time>2026-07-15T07:11:09Z</time>
      </trkpt>
      <trkpt lat="42.8918" lon="-0.20159">
        <ele>1585.5</ele>
        <time>2026-07-15T07:11:09Z</time>
      </trkpt>
      <trkpt lat="42.89179" lon="-0.20158">
        <ele>1585.5</ele>
        <time>2026-07-15T07:11:10Z</time>
      </trkpt>
      <trkpt lat="42.89178" lon="-0.20158">
        <ele>1585.5</ele>
        <time>2026-07-15T07:11:11Z</time>
      </trkpt>
      <trkpt lat="42.89178" lon="-0.20158">
        <ele>1584.5</ele>
        <time>2026-07-15T07:11:12Z</time>
      </trkpt>
      <trkpt lat="42.89178" lon="-0.20157">
        <ele>1585.5</ele>
        <time>2026-07-15T07:11:12Z</time>
      </trkpt>
      <trkpt lat="42.89177" lon="-0.20157">
        <ele>1585.5</ele>
        <time>2026-07-15T07:11:13Z</time>
      </trkpt>
      <trkpt lat="42.89177" lon="-0.20156">
        <ele>1585.5</ele>
        <time>2026-07-15T07:11:14Z</time>
      </trkpt>
      <trkpt lat="42.89177" lon="-0.20156">
        <ele>1585.5</ele>
        <time>2026-07-15T07:11:14Z</time>
      </trkpt>
      <trkpt lat="42.89177" lon="-0.20156">
        <ele>1585.5</ele>
        <time>2026-07-15T07:11:15Z</time>
      </trkpt>
      <trkpt lat="42.89176" lon="-0.20155">
        <ele>1585.5</ele>
        <time>2026-07-15T07:11:16Z</time>
      </trkpt>
      <trkpt lat="42.89176" lon="-0.20155">
        <ele>1585.5</ele>
        <time>2026-07-15T07:11:17Z</time>
      </trkpt>
      <trkpt lat="42.89175" lon="-0.20154">
        <ele>1585.5</ele>
        <time>2026-07-15T07:11:17Z</time>
      </trkpt>
      <trkpt lat="42.89175" lon="-0.20154">
        <ele>1585.5</ele>
        <time>2026-07-15T07:11:18Z</time>
      </trkpt>
      <trkpt lat="42.89174" lon="-0.20153">
        <ele>1585.5</ele>
        <time>2026-07-15T07:11:19Z</time>
      </trkpt>
      <trkpt lat="42.89174" lon="-0.20153">
        <ele>1585.5</ele>
        <time>2026-07-15T07:11:19Z</time>
      </trkpt>
      <trkpt lat="42.89174" lon="-0.20153">
        <ele>1585.5</ele>
        <time>2026-07-15T07:11:20Z</time>
      </trkpt>
      <trkpt lat="42.89173" lon="-0.20152">
        <ele>1585.5</ele>
        <time>2026-07-15T07:11:21Z</time>
      </trkpt>
      <trkpt lat="42.89173" lon="-0.20152">
        <ele>1584.5</ele>
        <time>2026-07-15T07:11:22Z</time>
      </trkpt>
      <trkpt lat="42.89172" lon="-0.20151">
        <ele>1584.5</ele>
        <time>2026-07-15T07:11:22Z</time>
      </trkpt>
      <trkpt lat="42.89172" lon="-0.20151">
        <ele>1584.5</ele>
        <time>2026-07-15T07:11:23Z</time>
      </trkpt>
      <trkpt lat="42.89171" lon="-0.20151">
        <ele>1585.5</ele>
        <time>2026-07-15T07:11:24Z</time>
      </trkpt>
      <trkpt lat="42.89171" lon="-0.20151">
        <ele>1585.5</ele>
        <time>2026-07-15T07:11:24Z</time>
      </trkpt>
      <trkpt lat="42.8917" lon="-0.2015">
        <ele>1585.5</ele>
        <time>2026-07-15T07:11:25Z</time>
      </trkpt>
      <trkpt lat="42.89169" lon="-0.2015">
        <ele>1586.5</ele>
        <time>2026-07-15T07:11:26Z</time>
      </trkpt>
      <trkpt lat="42.89169" lon="-0.2015">
        <ele>1585.5</ele>
        <time>2026-07-15T07:11:26Z</time>
      </trkpt>
      <trkpt lat="42.89169" lon="-0.2015">
        <ele>1585.5</ele>
        <time>2026-07-15T07:11:27Z</time>
      </trkpt>
      <trkpt lat="42.89168" lon="-0.20149">
        <ele>1585.5</ele>
        <time>2026-07-15T07:11:28Z</time>
      </trkpt>
      <trkpt lat="42.89167" lon="-0.20149">
        <ele>1585.5</ele>
        <time>2026-07-15T07:11:28Z</time>
      </trkpt>
      <trkpt lat="42.89167" lon="-0.20149">
        <ele>1586.5</ele>
        <time>2026-07-15T07:11:29Z</time>
      </trkpt>
      <trkpt lat="42.89166" lon="-0.20149">
        <ele>1586.5</ele>
        <time>2026-07-15T07:11:30Z</time>
      </trkpt>
      <trkpt lat="42.89165" lon="-0.20148">
        <ele>1586.5</ele>
        <time>2026-07-15T07:11:31Z</time>
      </trkpt>
      <trkpt lat="42.89165" lon="-0.20148">
        <ele>1586.5</ele>
        <time>2026-07-15T07:11:31Z</time>
      </trkpt>
      <trkpt lat="42.89164" lon="-0.20148">
        <ele>1586.5</ele>
        <time>2026-07-15T07:11:32Z</time>
      </trkpt>
      <trkpt lat="42.89163" lon="-0.20147">
        <ele>1587.5</ele>
        <time>2026-07-15T07:11:33Z</time>
      </trkpt>
      <trkpt lat="42.89163" lon="-0.20147">
        <ele>1587.5</ele>
        <time>2026-07-15T07:11:33Z</time>
      </trkpt>
      <trkpt lat="42.89162" lon="-0.20147">
        <ele>1586.5</ele>
        <time>2026-07-15T07:11:34Z</time>
      </trkpt>
      <trkpt lat="42.89162" lon="-0.20146">
        <ele>1586.5</ele>
        <time>2026-07-15T07:11:35Z</time>
      </trkpt>
      <trkpt lat="42.89161" lon="-0.20146">
        <ele>1586.5</ele>
        <time>2026-07-15T07:11:36Z</time>
      </trkpt>
      <trkpt lat="42.89161" lon="-0.20146">
        <ele>1585.5</ele>
        <time>2026-07-15T07:11:36Z</time>
      </trkpt>
      <trkpt lat="42.8916" lon="-0.20145">
        <ele>1585.5</ele>
        <time>2026-07-15T07:11:37Z</time>
      </trkpt>
      <trkpt lat="42.89159" lon="-0.20145">
        <ele>1585.5</ele>
        <time>2026-07-15T07:11:38Z</time>
      </trkpt>
      <trkpt lat="42.89159" lon="-0.20145">
        <ele>1585.5</ele>
        <time>2026-07-15T07:11:38Z</time>
      </trkpt>
      <trkpt lat="42.89158" lon="-0.20145">
        <ele>1585.5</ele>
        <time>2026-07-15T07:11:39Z</time>
      </trkpt>
      <trkpt lat="42.89158" lon="-0.20145">
        <ele>1585.5</ele>
        <time>2026-07-15T07:11:40Z</time>
      </trkpt>
      <trkpt lat="42.89157" lon="-0.20144">
        <ele>1586.5</ele>
        <time>2026-07-15T07:11:40Z</time>
      </trkpt>
      <trkpt lat="42.89156" lon="-0.20144">
        <ele>1586.5</ele>
        <time>2026-07-15T07:11:41Z</time>
      </trkpt>
      <trkpt lat="42.89156" lon="-0.20144">
        <ele>1586.5</ele>
        <time>2026-07-15T07:11:42Z</time>
      </trkpt>
      <trkpt lat="42.89155" lon="-0.20144">
        <ele>1586.5</ele>
        <time>2026-07-15T07:11:43Z</time>
      </trkpt>
      <trkpt lat="42.89155" lon="-0.20143">
        <ele>1586.5</ele>
        <time>2026-07-15T07:11:43Z</time>
      </trkpt>
      <trkpt lat="42.89154" lon="-0.20143">
        <ele>1586.5</ele>
        <time>2026-07-15T07:11:44Z</time>
      </trkpt>
      <trkpt lat="42.89154" lon="-0.20142">
        <ele>1586.5</ele>
        <time>2026-07-15T07:11:45Z</time>
      </trkpt>
      <trkpt lat="42.89153" lon="-0.20142">
        <ele>1586.5</ele>
        <time>2026-07-15T07:11:45Z</time>
      </trkpt>
      <trkpt lat="42.89153" lon="-0.20141">
        <ele>1587.5</ele>
        <time>2026-07-15T07:11:46Z</time>
      </trkpt>
      <trkpt lat="42.89152" lon="-0.20141">
        <ele>1587.5</ele>
        <time>2026-07-15T07:11:47Z</time>
      </trkpt>
      <trkpt lat="42.89151" lon="-0.2014">
        <ele>1587.5</ele>
        <time>2026-07-15T07:11:48Z</time>
      </trkpt>
      <trkpt lat="42.89151" lon="-0.2014">
        <ele>1587.5</ele>
        <time>2026-07-15T07:11:48Z</time>
      </trkpt>
      <trkpt lat="42.89151" lon="-0.20139">
        <ele>1587.5</ele>
        <time>2026-07-15T07:11:49Z</time>
      </trkpt>
      <trkpt lat="42.8915" lon="-0.20139">
        <ele>1587.5</ele>
        <time>2026-07-15T07:11:50Z</time>
      </trkpt>
      <trkpt lat="42.8915" lon="-0.20138">
        <ele>1586.5</ele>
        <time>2026-07-15T07:11:51Z</time>
      </trkpt>
      <trkpt lat="42.8915" lon="-0.20138">
        <ele>1587.5</ele>
        <time>2026-07-15T07:11:51Z</time>
      </trkpt>
      <trkpt lat="42.89149" lon="-0.20137">
        <ele>1587.5</ele>
        <time>2026-07-15T07:11:52Z</time>
      </trkpt>
      <trkpt lat="42.89149" lon="-0.20137">
        <ele>1587.5</ele>
        <time>2026-07-15T07:11:53Z</time>
      </trkpt>
      <trkpt lat="42.89148" lon="-0.20136">
        <ele>1587.5</ele>
        <time>2026-07-15T07:11:54Z</time>
      </trkpt>
      <trkpt lat="42.89148" lon="-0.20136">
        <ele>1587.5</ele>
        <time>2026-07-15T07:11:54Z</time>
      </trkpt>
      <trkpt lat="42.89147" lon="-0.20135">
        <ele>1587.5</ele>
        <time>2026-07-15T07:11:55Z</time>
      </trkpt>
      <trkpt lat="42.89147" lon="-0.20135">
        <ele>1587.5</ele>
        <time>2026-07-15T07:11:56Z</time>
      </trkpt>
      <trkpt lat="42.89147" lon="-0.20134">
        <ele>1588.5</ele>
        <time>2026-07-15T07:11:56Z</time>
      </trkpt>
      <trkpt lat="42.89146" lon="-0.20134">
        <ele>1588.5</ele>
        <time>2026-07-15T07:11:57Z</time>
      </trkpt>
      <trkpt lat="42.89146" lon="-0.20133">
        <ele>1587.5</ele>
        <time>2026-07-15T07:11:58Z</time>
      </trkpt>
      <trkpt lat="42.89145" lon="-0.20133">
        <ele>1587.5</ele>
        <time>2026-07-15T07:11:59Z</time>
      </trkpt>
      <trkpt lat="42.89145" lon="-0.20133">
        <ele>1588.5</ele>
        <time>2026-07-15T07:11:59Z</time>
      </trkpt>
      <trkpt lat="42.89144" lon="-0.20133">
        <ele>1588.5</ele>
        <time>2026-07-15T07:12:00Z</time>
      </trkpt>
      <trkpt lat="42.89144" lon="-0.20133">
        <ele>1587.5</ele>
        <time>2026-07-15T07:12:01Z</time>
      </trkpt>
      <trkpt lat="42.89143" lon="-0.20133">
        <ele>1587.5</ele>
        <time>2026-07-15T07:12:01Z</time>
      </trkpt>
      <trkpt lat="42.89143" lon="-0.20133">
        <ele>1587.5</ele>
        <time>2026-07-15T07:12:02Z</time>
      </trkpt>
      <trkpt lat="42.89142" lon="-0.20133">
        <ele>1587.5</ele>
        <time>2026-07-15T07:12:03Z</time>
      </trkpt>
      <trkpt lat="42.89142" lon="-0.20133">
        <ele>1587.5</ele>
        <time>2026-07-15T07:12:03Z</time>
      </trkpt>
      <trkpt lat="42.89142" lon="-0.20132">
        <ele>1587.5</ele>
        <time>2026-07-15T07:12:04Z</time>
      </trkpt>
      <trkpt lat="42.89141" lon="-0.20132">
        <ele>1587.5</ele>
        <time>2026-07-15T07:12:05Z</time>
      </trkpt>
      <trkpt lat="42.89141" lon="-0.20132">
        <ele>1587.5</ele>
        <time>2026-07-15T07:12:06Z</time>
      </trkpt>
      <trkpt lat="42.8914" lon="-0.20132">
        <ele>1587.5</ele>
        <time>2026-07-15T07:12:06Z</time>
      </trkpt>
      <trkpt lat="42.89139" lon="-0.20132">
        <ele>1587.5</ele>
        <time>2026-07-15T07:12:07Z</time>
      </trkpt>
      <trkpt lat="42.89139" lon="-0.20132">
        <ele>1587.5</ele>
        <time>2026-07-15T07:12:08Z</time>
      </trkpt>
      <trkpt lat="42.89138" lon="-0.20132">
        <ele>1588.5</ele>
        <time>2026-07-15T07:12:08Z</time>
      </trkpt>
      <trkpt lat="42.89138" lon="-0.20131">
        <ele>1588.5</ele>
        <time>2026-07-15T07:12:09Z</time>
      </trkpt>
      <trkpt lat="42.89137" lon="-0.20131">
        <ele>1588.5</ele>
        <time>2026-07-15T07:12:10Z</time>
      </trkpt>
      <trkpt lat="42.89137" lon="-0.20131">
        <ele>1589.5</ele>
        <time>2026-07-15T07:12:10Z</time>
      </trkpt>
      <trkpt lat="42.89136" lon="-0.2013">
        <ele>1590.5</ele>
        <time>2026-07-15T07:12:11Z</time>
      </trkpt>
      <trkpt lat="42.89136" lon="-0.2013">
        <ele>1590.5</ele>
        <time>2026-07-15T07:12:12Z</time>
      </trkpt>
      <trkpt lat="42.89136" lon="-0.2013">
        <ele>1589.5</ele>
        <time>2026-07-15T07:12:13Z</time>
      </trkpt>
      <trkpt lat="42.89135" lon="-0.20129">
        <ele>1590.5</ele>
        <time>2026-07-15T07:12:13Z</time>
      </trkpt>
      <trkpt lat="42.89135" lon="-0.20129">
        <ele>1590.5</ele>
        <time>2026-07-15T07:12:14Z</time>
      </trkpt>
      <trkpt lat="42.89134" lon="-0.20129">
        <ele>1590.5</ele>
        <time>2026-07-15T07:12:15Z</time>
      </trkpt>
      <trkpt lat="42.89134" lon="-0.20128">
        <ele>1590.5</ele>
        <time>2026-07-15T07:12:16Z</time>
      </trkpt>
      <trkpt lat="42.89134" lon="-0.20128">
        <ele>1590.5</ele>
        <time>2026-07-15T07:12:16Z</time>
      </trkpt>
      <trkpt lat="42.89133" lon="-0.20128">
        <ele>1591.5</ele>
        <time>2026-07-15T07:12:17Z</time>
      </trkpt>
      <trkpt lat="42.89133" lon="-0.20127">
        <ele>1591.5</ele>
        <time>2026-07-15T07:12:18Z</time>
      </trkpt>
      <trkpt lat="42.89133" lon="-0.20126">
        <ele>1591.5</ele>
        <time>2026-07-15T07:12:19Z</time>
      </trkpt>
      <trkpt lat="42.89133" lon="-0.20126">
        <ele>1592.5</ele>
        <time>2026-07-15T07:12:19Z</time>
      </trkpt>
      <trkpt lat="42.89132" lon="-0.20125">
        <ele>1592.5</ele>
        <time>2026-07-15T07:12:20Z</time>
      </trkpt>
      <trkpt lat="42.89132" lon="-0.20124">
        <ele>1592.5</ele>
        <time>2026-07-15T07:12:21Z</time>
      </trkpt>
      <trkpt lat="42.89132" lon="-0.20124">
        <ele>1592.5</ele>
        <time>2026-07-15T07:12:21Z</time>
      </trkpt>
      <trkpt lat="42.89132" lon="-0.20123">
        <ele>1592.5</ele>
        <time>2026-07-15T07:12:22Z</time>
      </trkpt>
      <trkpt lat="42.89132" lon="-0.20122">
        <ele>1592.5</ele>
        <time>2026-07-15T07:12:23Z</time>
      </trkpt>
      <trkpt lat="42.89131" lon="-0.20121">
        <ele>1592.5</ele>
        <time>2026-07-15T07:12:24Z</time>
      </trkpt>
      <trkpt lat="42.89131" lon="-0.20121">
        <ele>1592.5</ele>
        <time>2026-07-15T07:12:25Z</time>
      </trkpt>
      <trkpt lat="42.89131" lon="-0.20121">
        <ele>1592.5</ele>
        <time>2026-07-15T07:12:25Z</time>
      </trkpt>
      <trkpt lat="42.8913" lon="-0.2012">
        <ele>1592.5</ele>
        <time>2026-07-15T07:12:26Z</time>
      </trkpt>
      <trkpt lat="42.8913" lon="-0.2012">
        <ele>1592.5</ele>
        <time>2026-07-15T07:12:27Z</time>
      </trkpt>
      <trkpt lat="42.8913" lon="-0.20119">
        <ele>1592.5</ele>
        <time>2026-07-15T07:12:28Z</time>
      </trkpt>
      <trkpt lat="42.8913" lon="-0.20119">
        <ele>1592.5</ele>
        <time>2026-07-15T07:12:28Z</time>
      </trkpt>
      <trkpt lat="42.89129" lon="-0.20118">
        <ele>1592.5</ele>
        <time>2026-07-15T07:12:29Z</time>
      </trkpt>
      <trkpt lat="42.89128" lon="-0.20118">
        <ele>1592.5</ele>
        <time>2026-07-15T07:12:30Z</time>
      </trkpt>
      <trkpt lat="42.89128" lon="-0.20118">
        <ele>1592.5</ele>
        <time>2026-07-15T07:12:30Z</time>
      </trkpt>
      <trkpt lat="42.89128" lon="-0.20118">
        <ele>1592.5</ele>
        <time>2026-07-15T07:12:31Z</time>
      </trkpt>
      <trkpt lat="42.89128" lon="-0.20117">
        <ele>1592.5</ele>
        <time>2026-07-15T07:12:32Z</time>
      </trkpt>
      <trkpt lat="42.89128" lon="-0.20117">
        <ele>1591.5</ele>
        <time>2026-07-15T07:12:33Z</time>
      </trkpt>
      <trkpt lat="42.89128" lon="-0.20117">
        <ele>1591.5</ele>
        <time>2026-07-15T07:12:33Z</time>
      </trkpt>
      <trkpt lat="42.89128" lon="-0.20116">
        <ele>1591.5</ele>
        <time>2026-07-15T07:12:34Z</time>
      </trkpt>
      <trkpt lat="42.89127" lon="-0.20115">
        <ele>1591.5</ele>
        <time>2026-07-15T07:12:35Z</time>
      </trkpt>
      <trkpt lat="42.89127" lon="-0.20115">
        <ele>1591.5</ele>
        <time>2026-07-15T07:12:36Z</time>
      </trkpt>
      <trkpt lat="42.89127" lon="-0.20114">
        <ele>1592.5</ele>
        <time>2026-07-15T07:12:37Z</time>
      </trkpt>
      <trkpt lat="42.89127" lon="-0.20114">
        <ele>1592.5</ele>
        <time>2026-07-15T07:12:37Z</time>
      </trkpt>
      <trkpt lat="42.89126" lon="-0.20113">
        <ele>1592.5</ele>
        <time>2026-07-15T07:12:38Z</time>
      </trkpt>
      <trkpt lat="42.89126" lon="-0.20112">
        <ele>1592.5</ele>
        <time>2026-07-15T07:12:39Z</time>
      </trkpt>
      <trkpt lat="42.89126" lon="-0.20112">
        <ele>1593.5</ele>
        <time>2026-07-15T07:12:40Z</time>
      </trkpt>
      <trkpt lat="42.89125" lon="-0.20111">
        <ele>1593.5</ele>
        <time>2026-07-15T07:12:40Z</time>
      </trkpt>
      <trkpt lat="42.89125" lon="-0.20111">
        <ele>1593.5</ele>
        <time>2026-07-15T07:12:41Z</time>
      </trkpt>
      <trkpt lat="42.89124" lon="-0.2011">
        <ele>1593.5</ele>
        <time>2026-07-15T07:12:42Z</time>
      </trkpt>
      <trkpt lat="42.89123" lon="-0.2011">
        <ele>1593.5</ele>
        <time>2026-07-15T07:12:43Z</time>
      </trkpt>
      <trkpt lat="42.89123" lon="-0.2011">
        <ele>1593.5</ele>
        <time>2026-07-15T07:12:43Z</time>
      </trkpt>
      <trkpt lat="42.89122" lon="-0.2011">
        <ele>1593.5</ele>
        <time>2026-07-15T07:12:44Z</time>
      </trkpt>
      <trkpt lat="42.89121" lon="-0.2011">
        <ele>1592.5</ele>
        <time>2026-07-15T07:12:45Z</time>
      </trkpt>
      <trkpt lat="42.8912" lon="-0.2011">
        <ele>1593.5</ele>
        <time>2026-07-15T07:12:45Z</time>
      </trkpt>
      <trkpt lat="42.89119" lon="-0.2011">
        <ele>1593.5</ele>
        <time>2026-07-15T07:12:46Z</time>
      </trkpt>
      <trkpt lat="42.89119" lon="-0.2011">
        <ele>1593.5</ele>
        <time>2026-07-15T07:12:47Z</time>
      </trkpt>
      <trkpt lat="42.89118" lon="-0.2011">
        <ele>1594.5</ele>
        <time>2026-07-15T07:12:47Z</time>
      </trkpt>
      <trkpt lat="42.89117" lon="-0.2011">
        <ele>1594.5</ele>
        <time>2026-07-15T07:12:48Z</time>
      </trkpt>
      <trkpt lat="42.89116" lon="-0.2011">
        <ele>1594.5</ele>
        <time>2026-07-15T07:12:49Z</time>
      </trkpt>
      <trkpt lat="42.89116" lon="-0.2011">
        <ele>1595.5</ele>
        <time>2026-07-15T07:12:50Z</time>
      </trkpt>
      <trkpt lat="42.89115" lon="-0.2011">
        <ele>1595.5</ele>
        <time>2026-07-15T07:12:50Z</time>
      </trkpt>
      <trkpt lat="42.89114" lon="-0.2011">
        <ele>1595.5</ele>
        <time>2026-07-15T07:12:51Z</time>
      </trkpt>
      <trkpt lat="42.89113" lon="-0.20109">
        <ele>1595.5</ele>
        <time>2026-07-15T07:12:52Z</time>
      </trkpt>
      <trkpt lat="42.89113" lon="-0.20109">
        <ele>1595.5</ele>
        <time>2026-07-15T07:12:52Z</time>
      </trkpt>
      <trkpt lat="42.89112" lon="-0.20109">
        <ele>1595.5</ele>
        <time>2026-07-15T07:12:53Z</time>
      </trkpt>
      <trkpt lat="42.89111" lon="-0.20109">
        <ele>1595.5</ele>
        <time>2026-07-15T07:12:54Z</time>
      </trkpt>
      <trkpt lat="42.8911" lon="-0.20108">
        <ele>1596.5</ele>
        <time>2026-07-15T07:12:55Z</time>
      </trkpt>
      <trkpt lat="42.8911" lon="-0.20108">
        <ele>1596.5</ele>
        <time>2026-07-15T07:12:55Z</time>
      </trkpt>
      <trkpt lat="42.89109" lon="-0.20107">
        <ele>1596.5</ele>
        <time>2026-07-15T07:12:56Z</time>
      </trkpt>
      <trkpt lat="42.89108" lon="-0.20107">
        <ele>1596.5</ele>
        <time>2026-07-15T07:12:57Z</time>
      </trkpt>
      <trkpt lat="42.89108" lon="-0.20106">
        <ele>1596.5</ele>
        <time>2026-07-15T07:12:58Z</time>
      </trkpt>
      <trkpt lat="42.89108" lon="-0.20105">
        <ele>1596.5</ele>
        <time>2026-07-15T07:12:58Z</time>
      </trkpt>
      <trkpt lat="42.89107" lon="-0.20105">
        <ele>1596.5</ele>
        <time>2026-07-15T07:12:59Z</time>
      </trkpt>
      <trkpt lat="42.89106" lon="-0.20104">
        <ele>1596.5</ele>
        <time>2026-07-15T07:13:00Z</time>
      </trkpt>
      <trkpt lat="42.89106" lon="-0.20103">
        <ele>1597.5</ele>
        <time>2026-07-15T07:13:01Z</time>
      </trkpt>
      <trkpt lat="42.89105" lon="-0.20103">
        <ele>1597.5</ele>
        <time>2026-07-15T07:13:01Z</time>
      </trkpt>
      <trkpt lat="42.89105" lon="-0.20102">
        <ele>1597.5</ele>
        <time>2026-07-15T07:13:02Z</time>
      </trkpt>
      <trkpt lat="42.89104" lon="-0.20102">
        <ele>1597.5</ele>
        <time>2026-07-15T07:13:03Z</time>
      </trkpt>
      <trkpt lat="42.89104" lon="-0.20102">
        <ele>1597.5</ele>
        <time>2026-07-15T07:13:04Z</time>
      </trkpt>
      <trkpt lat="42.89103" lon="-0.20101">
        <ele>1596.5</ele>
        <time>2026-07-15T07:13:04Z</time>
      </trkpt>
      <trkpt lat="42.89103" lon="-0.20101">
        <ele>1596.5</ele>
        <time>2026-07-15T07:13:05Z</time>
      </trkpt>
      <trkpt lat="42.89102" lon="-0.20101">
        <ele>1597.5</ele>
        <time>2026-07-15T07:13:06Z</time>
      </trkpt>
      <trkpt lat="42.89102" lon="-0.20101">
        <ele>1598.5</ele>
        <time>2026-07-15T07:13:07Z</time>
      </trkpt>
      <trkpt lat="42.89102" lon="-0.20101">
        <ele>1598.5</ele>
        <time>2026-07-15T07:13:07Z</time>
      </trkpt>
      <trkpt lat="42.89101" lon="-0.201">
        <ele>1597.5</ele>
        <time>2026-07-15T07:13:08Z</time>
      </trkpt>
      <trkpt lat="42.89101" lon="-0.201">
        <ele>1597.5</ele>
        <time>2026-07-15T07:13:09Z</time>
      </trkpt>
      <trkpt lat="42.891" lon="-0.201">
        <ele>1598.5</ele>
        <time>2026-07-15T07:13:09Z</time>
      </trkpt>
      <trkpt lat="42.891" lon="-0.201">
        <ele>1598.5</ele>
        <time>2026-07-15T07:13:10Z</time>
      </trkpt>
      <trkpt lat="42.89099" lon="-0.20099">
        <ele>1598.5</ele>
        <time>2026-07-15T07:13:11Z</time>
      </trkpt>
      <trkpt lat="42.89099" lon="-0.20099">
        <ele>1598.5</ele>
        <time>2026-07-15T07:13:11Z</time>
      </trkpt>
      <trkpt lat="42.89099" lon="-0.20098">
        <ele>1599.5</ele>
        <time>2026-07-15T07:13:12Z</time>
      </trkpt>
      <trkpt lat="42.89098" lon="-0.20097">
        <ele>1599.5</ele>
        <time>2026-07-15T07:13:13Z</time>
      </trkpt>
      <trkpt lat="42.89097" lon="-0.20097">
        <ele>1599.5</ele>
        <time>2026-07-15T07:13:14Z</time>
      </trkpt>
      <trkpt lat="42.89097" lon="-0.20096">
        <ele>1599.5</ele>
        <time>2026-07-15T07:13:14Z</time>
      </trkpt>
      <trkpt lat="42.89097" lon="-0.20096">
        <ele>1599.5</ele>
        <time>2026-07-15T07:13:15Z</time>
      </trkpt>
      <trkpt lat="42.89097" lon="-0.20095">
        <ele>1600.5</ele>
        <time>2026-07-15T07:13:16Z</time>
      </trkpt>
      <trkpt lat="42.89097" lon="-0.20095">
        <ele>1600.5</ele>
        <time>2026-07-15T07:13:16Z</time>
      </trkpt>
      <trkpt lat="42.89096" lon="-0.20094">
        <ele>1600.5</ele>
        <time>2026-07-15T07:13:17Z</time>
      </trkpt>
      <trkpt lat="42.89096" lon="-0.20093">
        <ele>1600.5</ele>
        <time>2026-07-15T07:13:18Z</time>
      </trkpt>
      <trkpt lat="42.89096" lon="-0.20093">
        <ele>1599.5</ele>
        <time>2026-07-15T07:13:19Z</time>
      </trkpt>
      <trkpt lat="42.89096" lon="-0.20092">
        <ele>1600.5</ele>
        <time>2026-07-15T07:13:19Z</time>
      </trkpt>
      <trkpt lat="42.89095" lon="-0.20091">
        <ele>1600.5</ele>
        <time>2026-07-15T07:13:20Z</time>
      </trkpt>
      <trkpt lat="42.89095" lon="-0.20091">
        <ele>1599.5</ele>
        <time>2026-07-15T07:13:21Z</time>
      </trkpt>
      <trkpt lat="42.89095" lon="-0.2009">
        <ele>1599.5</ele>
        <time>2026-07-15T07:13:22Z</time>
      </trkpt>
      <trkpt lat="42.89095" lon="-0.2009">
        <ele>1601.5</ele>
        <time>2026-07-15T07:13:22Z</time>
      </trkpt>
      <trkpt lat="42.89094" lon="-0.20089">
        <ele>1600.5</ele>
        <time>2026-07-15T07:13:23Z</time>
      </trkpt>
      <trkpt lat="42.89094" lon="-0.20088">
        <ele>1600.5</ele>
        <time>2026-07-15T07:13:24Z</time>
      </trkpt>
      <trkpt lat="42.89094" lon="-0.20088">
        <ele>1599.5</ele>
        <time>2026-07-15T07:13:25Z</time>
      </trkpt>
      <trkpt lat="42.89093" lon="-0.20087">
        <ele>1600.5</ele>
        <time>2026-07-15T07:13:26Z</time>
      </trkpt>
      <trkpt lat="42.89093" lon="-0.20087">
        <ele>1601.5</ele>
        <time>2026-07-15T07:13:26Z</time>
      </trkpt>
      <trkpt lat="42.89093" lon="-0.20086">
        <ele>1601.5</ele>
        <time>2026-07-15T07:13:27Z</time>
      </trkpt>
      <trkpt lat="42.89092" lon="-0.20086">
        <ele>1601.5</ele>
        <time>2026-07-15T07:13:28Z</time>
      </trkpt>
      <trkpt lat="42.89092" lon="-0.20086">
        <ele>1600.5</ele>
        <time>2026-07-15T07:13:29Z</time>
      </trkpt>
      <trkpt lat="42.89092" lon="-0.20086">
        <ele>1600.5</ele>
        <time>2026-07-15T07:13:29Z</time>
      </trkpt>
      <trkpt lat="42.89091" lon="-0.20085">
        <ele>1600.5</ele>
        <time>2026-07-15T07:13:30Z</time>
      </trkpt>
      <trkpt lat="42.89091" lon="-0.20085">
        <ele>1600.5</ele>
        <time>2026-07-15T07:13:31Z</time>
      </trkpt>
      <trkpt lat="42.89091" lon="-0.20084">
        <ele>1599.5</ele>
        <time>2026-07-15T07:13:31Z</time>
      </trkpt>
      <trkpt lat="42.8909" lon="-0.20084">
        <ele>1599.5</ele>
        <time>2026-07-15T07:13:32Z</time>
      </trkpt>
      <trkpt lat="42.8909" lon="-0.20084">
        <ele>1599.5</ele>
        <time>2026-07-15T07:13:33Z</time>
      </trkpt>
      <trkpt lat="42.8909" lon="-0.20083">
        <ele>1599.5</ele>
        <time>2026-07-15T07:13:34Z</time>
      </trkpt>
      <trkpt lat="42.89089" lon="-0.20083">
        <ele>1599.5</ele>
        <time>2026-07-15T07:13:34Z</time>
      </trkpt>
      <trkpt lat="42.89089" lon="-0.20082">
        <ele>1599.5</ele>
        <time>2026-07-15T07:13:35Z</time>
      </trkpt>
      <trkpt lat="42.89088" lon="-0.20082">
        <ele>1599.5</ele>
        <time>2026-07-15T07:13:36Z</time>
      </trkpt>
      <trkpt lat="42.89088" lon="-0.20082">
        <ele>1599.5</ele>
        <time>2026-07-15T07:13:37Z</time>
      </trkpt>
      <trkpt lat="42.89088" lon="-0.20081">
        <ele>1598.5</ele>
        <time>2026-07-15T07:13:37Z</time>
      </trkpt>
      <trkpt lat="42.89088" lon="-0.20081">
        <ele>1599.5</ele>
        <time>2026-07-15T07:13:38Z</time>
      </trkpt>
      <trkpt lat="42.89087" lon="-0.2008">
        <ele>1599.5</ele>
        <time>2026-07-15T07:13:39Z</time>
      </trkpt>
      <trkpt lat="42.89087" lon="-0.2008">
        <ele>1599.5</ele>
        <time>2026-07-15T07:13:40Z</time>
      </trkpt>
      <trkpt lat="42.89087" lon="-0.20079">
        <ele>1599.5</ele>
        <time>2026-07-15T07:13:41Z</time>
      </trkpt>
      <trkpt lat="42.89086" lon="-0.20079">
        <ele>1600.5</ele>
        <time>2026-07-15T07:13:41Z</time>
      </trkpt>
      <trkpt lat="42.89086" lon="-0.20079">
        <ele>1600.5</ele>
        <time>2026-07-15T07:13:42Z</time>
      </trkpt>
      <trkpt lat="42.89085" lon="-0.20078">
        <ele>1600.5</ele>
        <time>2026-07-15T07:13:42Z</time>
      </trkpt>
      <trkpt lat="42.89085" lon="-0.20078">
        <ele>1600.5</ele>
        <time>2026-07-15T07:13:43Z</time>
      </trkpt>
      <trkpt lat="42.89084" lon="-0.20077">
        <ele>1600.5</ele>
        <time>2026-07-15T07:13:44Z</time>
      </trkpt>
      <trkpt lat="42.89084" lon="-0.20077">
        <ele>1600.5</ele>
        <time>2026-07-15T07:13:45Z</time>
      </trkpt>
      <trkpt lat="42.89084" lon="-0.20076">
        <ele>1600.5</ele>
        <time>2026-07-15T07:13:45Z</time>
      </trkpt>
      <trkpt lat="42.89083" lon="-0.20076">
        <ele>1600.5</ele>
        <time>2026-07-15T07:13:46Z</time>
      </trkpt>
      <trkpt lat="42.89083" lon="-0.20075">
        <ele>1599.5</ele>
        <time>2026-07-15T07:13:47Z</time>
      </trkpt>
      <trkpt lat="42.89082" lon="-0.20075">
        <ele>1599.5</ele>
        <time>2026-07-15T07:13:47Z</time>
      </trkpt>
      <trkpt lat="42.89082" lon="-0.20075">
        <ele>1598.5</ele>
        <time>2026-07-15T07:13:48Z</time>
      </trkpt>
      <trkpt lat="42.89081" lon="-0.20074">
        <ele>1598.5</ele>
        <time>2026-07-15T07:13:49Z</time>
      </trkpt>
      <trkpt lat="42.89081" lon="-0.20074">
        <ele>1599.5</ele>
        <time>2026-07-15T07:13:50Z</time>
      </trkpt>
      <trkpt lat="42.8908" lon="-0.20074">
        <ele>1600.5</ele>
        <time>2026-07-15T07:13:50Z</time>
      </trkpt>
      <trkpt lat="42.8908" lon="-0.20074">
        <ele>1600.5</ele>
        <time>2026-07-15T07:13:51Z</time>
      </trkpt>
      <trkpt lat="42.89079" lon="-0.20073">
        <ele>1600.5</ele>
        <time>2026-07-15T07:13:52Z</time>
      </trkpt>
      <trkpt lat="42.89079" lon="-0.20073">
        <ele>1601.5</ele>
        <time>2026-07-15T07:13:52Z</time>
      </trkpt>
      <trkpt lat="42.89078" lon="-0.20072">
        <ele>1601.5</ele>
        <time>2026-07-15T07:13:53Z</time>
      </trkpt>
      <trkpt lat="42.89078" lon="-0.20072">
        <ele>1601.5</ele>
        <time>2026-07-15T07:13:54Z</time>
      </trkpt>
      <trkpt lat="42.89077" lon="-0.20072">
        <ele>1601.5</ele>
        <time>2026-07-15T07:13:55Z</time>
      </trkpt>
      <trkpt lat="42.89077" lon="-0.20071">
        <ele>1600.5</ele>
        <time>2026-07-15T07:13:55Z</time>
      </trkpt>
      <trkpt lat="42.89076" lon="-0.20071">
        <ele>1600.5</ele>
        <time>2026-07-15T07:13:56Z</time>
      </trkpt>
      <trkpt lat="42.89076" lon="-0.2007">
        <ele>1601.5</ele>
        <time>2026-07-15T07:13:57Z</time>
      </trkpt>
      <trkpt lat="42.89075" lon="-0.2007">
        <ele>1600.5</ele>
        <time>2026-07-15T07:13:57Z</time>
      </trkpt>
      <trkpt lat="42.89074" lon="-0.20069">
        <ele>1599.5</ele>
        <time>2026-07-15T07:13:58Z</time>
      </trkpt>
      <trkpt lat="42.89074" lon="-0.20069">
        <ele>1599.5</ele>
        <time>2026-07-15T07:13:59Z</time>
      </trkpt>
      <trkpt lat="42.89073" lon="-0.20069">
        <ele>1599.5</ele>
        <time>2026-07-15T07:14:00Z</time>
      </trkpt>
      <trkpt lat="42.89073" lon="-0.20069">
        <ele>1599.5</ele>
        <time>2026-07-15T07:14:00Z</time>
      </trkpt>
      <trkpt lat="42.89072" lon="-0.20068">
        <ele>1599.5</ele>
        <time>2026-07-15T07:14:01Z</time>
      </trkpt>
      <trkpt lat="42.89071" lon="-0.20068">
        <ele>1599.5</ele>
        <time>2026-07-15T07:14:02Z</time>
      </trkpt>
      <trkpt lat="42.8907" lon="-0.20068">
        <ele>1599.5</ele>
        <time>2026-07-15T07:14:02Z</time>
      </trkpt>
      <trkpt lat="42.8907" lon="-0.20068">
        <ele>1599.5</ele>
        <time>2026-07-15T07:14:03Z</time>
      </trkpt>
      <trkpt lat="42.89069" lon="-0.20067">
        <ele>1599.5</ele>
        <time>2026-07-15T07:14:04Z</time>
      </trkpt>
      <trkpt lat="42.89069" lon="-0.20067">
        <ele>1600.5</ele>
        <time>2026-07-15T07:14:04Z</time>
      </trkpt>
      <trkpt lat="42.89068" lon="-0.20067">
        <ele>1601.5</ele>
        <time>2026-07-15T07:14:05Z</time>
      </trkpt>
      <trkpt lat="42.89068" lon="-0.20067">
        <ele>1601.5</ele>
        <time>2026-07-15T07:14:06Z</time>
      </trkpt>
      <trkpt lat="42.89067" lon="-0.20067">
        <ele>1600.5</ele>
        <time>2026-07-15T07:14:07Z</time>
      </trkpt>
      <trkpt lat="42.89067" lon="-0.20066">
        <ele>1600.5</ele>
        <time>2026-07-15T07:14:07Z</time>
      </trkpt>
      <trkpt lat="42.89066" lon="-0.20066">
        <ele>1600.5</ele>
        <time>2026-07-15T07:14:08Z</time>
      </trkpt>
      <trkpt lat="42.89066" lon="-0.20066">
        <ele>1600.5</ele>
        <time>2026-07-15T07:14:09Z</time>
      </trkpt>
      <trkpt lat="42.89065" lon="-0.20065">
        <ele>1600.5</ele>
        <time>2026-07-15T07:14:10Z</time>
      </trkpt>
      <trkpt lat="42.89065" lon="-0.20065">
        <ele>1600.5</ele>
        <time>2026-07-15T07:14:10Z</time>
      </trkpt>
      <trkpt lat="42.89064" lon="-0.20064">
        <ele>1600.5</ele>
        <time>2026-07-15T07:14:11Z</time>
      </trkpt>
      <trkpt lat="42.89064" lon="-0.20064">
        <ele>1600.5</ele>
        <time>2026-07-15T07:14:12Z</time>
      </trkpt>
      <trkpt lat="42.89063" lon="-0.20064">
        <ele>1599.5</ele>
        <time>2026-07-15T07:14:13Z</time>
      </trkpt>
      <trkpt lat="42.89063" lon="-0.20064">
        <ele>1600.5</ele>
        <time>2026-07-15T07:14:13Z</time>
      </trkpt>
      <trkpt lat="42.89062" lon="-0.20064">
        <ele>1600.5</ele>
        <time>2026-07-15T07:14:14Z</time>
      </trkpt>
      <trkpt lat="42.89062" lon="-0.20064">
        <ele>1600.5</ele>
        <time>2026-07-15T07:14:15Z</time>
      </trkpt>
      <trkpt lat="42.89061" lon="-0.20064">
        <ele>1600.5</ele>
        <time>2026-07-15T07:14:15Z</time>
      </trkpt>
      <trkpt lat="42.8906" lon="-0.20064">
        <ele>1600.5</ele>
        <time>2026-07-15T07:14:16Z</time>
      </trkpt>
      <trkpt lat="42.8906" lon="-0.20064">
        <ele>1600.5</ele>
        <time>2026-07-15T07:14:17Z</time>
      </trkpt>
      <trkpt lat="42.89059" lon="-0.20064">
        <ele>1599.5</ele>
        <time>2026-07-15T07:14:18Z</time>
      </trkpt>
      <trkpt lat="42.89059" lon="-0.20064">
        <ele>1600.5</ele>
        <time>2026-07-15T07:14:18Z</time>
      </trkpt>
      <trkpt lat="42.89058" lon="-0.20064">
        <ele>1600.5</ele>
        <time>2026-07-15T07:14:19Z</time>
      </trkpt>
      <trkpt lat="42.89057" lon="-0.20063">
        <ele>1601.5</ele>
        <time>2026-07-15T07:14:20Z</time>
      </trkpt>
      <trkpt lat="42.89057" lon="-0.20063">
        <ele>1600.5</ele>
        <time>2026-07-15T07:14:20Z</time>
      </trkpt>
      <trkpt lat="42.89056" lon="-0.20063">
        <ele>1600.5</ele>
        <time>2026-07-15T07:14:21Z</time>
      </trkpt>
      <trkpt lat="42.89055" lon="-0.20063">
        <ele>1600.5</ele>
        <time>2026-07-15T07:14:22Z</time>
      </trkpt>
      <trkpt lat="42.89055" lon="-0.20063">
        <ele>1600.5</ele>
        <time>2026-07-15T07:14:23Z</time>
      </trkpt>
      <trkpt lat="42.89054" lon="-0.20063">
        <ele>1600.5</ele>
        <time>2026-07-15T07:14:23Z</time>
      </trkpt>
      <trkpt lat="42.89054" lon="-0.20063">
        <ele>1600.5</ele>
        <time>2026-07-15T07:14:24Z</time>
      </trkpt>
      <trkpt lat="42.89053" lon="-0.20062">
        <ele>1600.5</ele>
        <time>2026-07-15T07:14:25Z</time>
      </trkpt>
      <trkpt lat="42.89053" lon="-0.20062">
        <ele>1600.5</ele>
        <time>2026-07-15T07:14:26Z</time>
      </trkpt>
      <trkpt lat="42.89052" lon="-0.20062">
        <ele>1602.5</ele>
        <time>2026-07-15T07:14:26Z</time>
      </trkpt>
      <trkpt lat="42.89052" lon="-0.20062">
        <ele>1601.5</ele>
        <time>2026-07-15T07:14:27Z</time>
      </trkpt>
      <trkpt lat="42.89051" lon="-0.20061">
        <ele>1601.5</ele>
        <time>2026-07-15T07:14:28Z</time>
      </trkpt>
      <trkpt lat="42.89051" lon="-0.20061">
        <ele>1601.5</ele>
        <time>2026-07-15T07:14:29Z</time>
      </trkpt>
      <trkpt lat="42.89051" lon="-0.20061">
        <ele>1601.5</ele>
        <time>2026-07-15T07:14:29Z</time>
      </trkpt>
      <trkpt lat="42.8905" lon="-0.2006">
        <ele>1602.5</ele>
        <time>2026-07-15T07:14:30Z</time>
      </trkpt>
      <trkpt lat="42.8905" lon="-0.2006">
        <ele>1602.5</ele>
        <time>2026-07-15T07:14:31Z</time>
      </trkpt>
      <trkpt lat="42.89049" lon="-0.2006">
        <ele>1602.5</ele>
        <time>2026-07-15T07:14:32Z</time>
      </trkpt>
      <trkpt lat="42.89049" lon="-0.20059">
        <ele>1602.5</ele>
        <time>2026-07-15T07:14:32Z</time>
      </trkpt>
      <trkpt lat="42.89048" lon="-0.20058">
        <ele>1602.5</ele>
        <time>2026-07-15T07:14:33Z</time>
      </trkpt>
      <trkpt lat="42.89048" lon="-0.20058">
        <ele>1602.5</ele>
        <time>2026-07-15T07:14:34Z</time>
      </trkpt>
      <trkpt lat="42.89048" lon="-0.20057">
        <ele>1603.5</ele>
        <time>2026-07-15T07:14:34Z</time>
      </trkpt>
      <trkpt lat="42.89048" lon="-0.20056">
        <ele>1603.5</ele>
        <time>2026-07-15T07:14:35Z</time>
      </trkpt>
      <trkpt lat="42.89047" lon="-0.20056">
        <ele>1603.5</ele>
        <time>2026-07-15T07:14:36Z</time>
      </trkpt>
      <trkpt lat="42.89047" lon="-0.20055">
        <ele>1603.5</ele>
        <time>2026-07-15T07:14:37Z</time>
      </trkpt>
      <trkpt lat="42.89046" lon="-0.20055">
        <ele>1603.5</ele>
        <time>2026-07-15T07:14:37Z</time>
      </trkpt>
      <trkpt lat="42.89046" lon="-0.20054">
        <ele>1604.5</ele>
        <time>2026-07-15T07:14:38Z</time>
      </trkpt>
      <trkpt lat="42.89045" lon="-0.20053">
        <ele>1604.5</ele>
        <time>2026-07-15T07:14:39Z</time>
      </trkpt>
      <trkpt lat="42.89045" lon="-0.20053">
        <ele>1603.5</ele>
        <time>2026-07-15T07:14:40Z</time>
      </trkpt>
      <trkpt lat="42.89044" lon="-0.20052">
        <ele>1603.5</ele>
        <time>2026-07-15T07:14:40Z</time>
      </trkpt>
      <trkpt lat="42.89044" lon="-0.20052">
        <ele>1603.5</ele>
        <time>2026-07-15T07:14:41Z</time>
      </trkpt>
      <trkpt lat="42.89043" lon="-0.20051">
        <ele>1603.5</ele>
        <time>2026-07-15T07:14:42Z</time>
      </trkpt>
      <trkpt lat="42.89043" lon="-0.2005">
        <ele>1603.5</ele>
        <time>2026-07-15T07:14:43Z</time>
      </trkpt>
      <trkpt lat="42.89043" lon="-0.2005">
        <ele>1603.5</ele>
        <time>2026-07-15T07:14:43Z</time>
      </trkpt>
      <trkpt lat="42.89043" lon="-0.20049">
        <ele>1603.5</ele>
        <time>2026-07-15T07:14:44Z</time>
      </trkpt>
      <trkpt lat="42.89042" lon="-0.20049">
        <ele>1603.5</ele>
        <time>2026-07-15T07:14:45Z</time>
      </trkpt>
      <trkpt lat="42.89042" lon="-0.20048">
        <ele>1603.5</ele>
        <time>2026-07-15T07:14:45Z</time>
      </trkpt>
      <trkpt lat="42.89042" lon="-0.20048">
        <ele>1603.5</ele>
        <time>2026-07-15T07:14:46Z</time>
      </trkpt>
      <trkpt lat="42.89041" lon="-0.20047">
        <ele>1603.5</ele>
        <time>2026-07-15T07:14:47Z</time>
      </trkpt>
      <trkpt lat="42.89041" lon="-0.20047">
        <ele>1604.5</ele>
        <time>2026-07-15T07:14:48Z</time>
      </trkpt>
      <trkpt lat="42.89041" lon="-0.20046">
        <ele>1603.5</ele>
        <time>2026-07-15T07:14:48Z</time>
      </trkpt>
      <trkpt lat="42.8904" lon="-0.20046">
        <ele>1603.5</ele>
        <time>2026-07-15T07:14:49Z</time>
      </trkpt>
      <trkpt lat="42.8904" lon="-0.20045">
        <ele>1603.5</ele>
        <time>2026-07-15T07:14:50Z</time>
      </trkpt>
      <trkpt lat="42.8904" lon="-0.20045">
        <ele>1603.5</ele>
        <time>2026-07-15T07:14:50Z</time>
      </trkpt>
      <trkpt lat="42.89039" lon="-0.20045">
        <ele>1603.5</ele>
        <time>2026-07-15T07:14:51Z</time>
      </trkpt>
      <trkpt lat="42.89039" lon="-0.20044">
        <ele>1603.5</ele>
        <time>2026-07-15T07:14:52Z</time>
      </trkpt>
      <trkpt lat="42.89039" lon="-0.20044">
        <ele>1603.5</ele>
        <time>2026-07-15T07:14:52Z</time>
      </trkpt>
      <trkpt lat="42.89038" lon="-0.20043">
        <ele>1603.5</ele>
        <time>2026-07-15T07:14:53Z</time>
      </trkpt>
      <trkpt lat="42.89038" lon="-0.20043">
        <ele>1602.5</ele>
        <time>2026-07-15T07:14:54Z</time>
      </trkpt>
      <trkpt lat="42.89037" lon="-0.20042">
        <ele>1602.5</ele>
        <time>2026-07-15T07:14:54Z</time>
      </trkpt>
      <trkpt lat="42.89037" lon="-0.20042">
        <ele>1602.5</ele>
        <time>2026-07-15T07:14:55Z</time>
      </trkpt>
      <trkpt lat="42.89036" lon="-0.20041">
        <ele>1603.5</ele>
        <time>2026-07-15T07:14:56Z</time>
      </trkpt>
      <trkpt lat="42.89036" lon="-0.20041">
        <ele>1603.5</ele>
        <time>2026-07-15T07:14:56Z</time>
      </trkpt>
      <trkpt lat="42.89036" lon="-0.2004">
        <ele>1603.5</ele>
        <time>2026-07-15T07:14:57Z</time>
      </trkpt>
      <trkpt lat="42.89035" lon="-0.2004">
        <ele>1603.5</ele>
        <time>2026-07-15T07:14:58Z</time>
      </trkpt>
      <trkpt lat="42.89035" lon="-0.2004">
        <ele>1604.5</ele>
        <time>2026-07-15T07:14:58Z</time>
      </trkpt>
      <trkpt lat="42.89034" lon="-0.20039">
        <ele>1604.5</ele>
        <time>2026-07-15T07:14:59Z</time>
      </trkpt>
      <trkpt lat="42.89034" lon="-0.20038">
        <ele>1604.5</ele>
        <time>2026-07-15T07:14:59Z</time>
      </trkpt>
      <trkpt lat="42.89034" lon="-0.20038">
        <ele>1604.5</ele>
        <time>2026-07-15T07:15:00Z</time>
      </trkpt>
      <trkpt lat="42.89033" lon="-0.20037">
        <ele>1604.5</ele>
        <time>2026-07-15T07:15:01Z</time>
      </trkpt>
      <trkpt lat="42.89033" lon="-0.20037">
        <ele>1604.5</ele>
        <time>2026-07-15T07:15:01Z</time>
      </trkpt>
      <trkpt lat="42.89032" lon="-0.20036">
        <ele>1604.5</ele>
        <time>2026-07-15T07:15:02Z</time>
      </trkpt>
      <trkpt lat="42.89032" lon="-0.20035">
        <ele>1605.5</ele>
        <time>2026-07-15T07:15:03Z</time>
      </trkpt>
      <trkpt lat="42.89031" lon="-0.20035">
        <ele>1604.5</ele>
        <time>2026-07-15T07:15:03Z</time>
      </trkpt>
      <trkpt lat="42.89031" lon="-0.20034">
        <ele>1604.5</ele>
        <time>2026-07-15T07:15:04Z</time>
      </trkpt>
      <trkpt lat="42.8903" lon="-0.20034">
        <ele>1604.5</ele>
        <time>2026-07-15T07:15:05Z</time>
      </trkpt>
      <trkpt lat="42.8903" lon="-0.20033">
        <ele>1605.5</ele>
        <time>2026-07-15T07:15:05Z</time>
      </trkpt>
      <trkpt lat="42.89029" lon="-0.20033">
        <ele>1605.5</ele>
        <time>2026-07-15T07:15:06Z</time>
      </trkpt>
      <trkpt lat="42.89028" lon="-0.20032">
        <ele>1605.5</ele>
        <time>2026-07-15T07:15:06Z</time>
      </trkpt>
      <trkpt lat="42.89028" lon="-0.20032">
        <ele>1605.5</ele>
        <time>2026-07-15T07:15:07Z</time>
      </trkpt>
      <trkpt lat="42.89027" lon="-0.20032">
        <ele>1605.5</ele>
        <time>2026-07-15T07:15:08Z</time>
      </trkpt>
      <trkpt lat="42.89027" lon="-0.20031">
        <ele>1605.5</ele>
        <time>2026-07-15T07:15:08Z</time>
      </trkpt>
      <trkpt lat="42.89026" lon="-0.20031">
        <ele>1605.5</ele>
        <time>2026-07-15T07:15:09Z</time>
      </trkpt>
      <trkpt lat="42.89026" lon="-0.2003">
        <ele>1606.5</ele>
        <time>2026-07-15T07:15:10Z</time>
      </trkpt>
      <trkpt lat="42.89025" lon="-0.2003">
        <ele>1607.5</ele>
        <time>2026-07-15T07:15:10Z</time>
      </trkpt>
      <trkpt lat="42.89025" lon="-0.20029">
        <ele>1607.5</ele>
        <time>2026-07-15T07:15:11Z</time>
      </trkpt>
      <trkpt lat="42.89024" lon="-0.20028">
        <ele>1607.5</ele>
        <time>2026-07-15T07:15:12Z</time>
      </trkpt>
      <trkpt lat="42.89024" lon="-0.20028">
        <ele>1607.5</ele>
        <time>2026-07-15T07:15:12Z</time>
      </trkpt>
      <trkpt lat="42.89023" lon="-0.20027">
        <ele>1607.5</ele>
        <time>2026-07-15T07:15:13Z</time>
      </trkpt>
      <trkpt lat="42.89023" lon="-0.20026">
        <ele>1608.5</ele>
        <time>2026-07-15T07:15:14Z</time>
      </trkpt>
      <trkpt lat="42.89023" lon="-0.20026">
        <ele>1608.5</ele>
        <time>2026-07-15T07:15:14Z</time>
      </trkpt>
      <trkpt lat="42.89022" lon="-0.20025">
        <ele>1608.5</ele>
        <time>2026-07-15T07:15:15Z</time>
      </trkpt>
      <trkpt lat="42.89022" lon="-0.20024">
        <ele>1608.5</ele>
        <time>2026-07-15T07:15:16Z</time>
      </trkpt>
      <trkpt lat="42.89021" lon="-0.20024">
        <ele>1608.5</ele>
        <time>2026-07-15T07:15:16Z</time>
      </trkpt>
      <trkpt lat="42.89021" lon="-0.20023">
        <ele>1608.5</ele>
        <time>2026-07-15T07:15:17Z</time>
      </trkpt>
      <trkpt lat="42.8902" lon="-0.20023">
        <ele>1609.5</ele>
        <time>2026-07-15T07:15:17Z</time>
      </trkpt>
      <trkpt lat="42.8902" lon="-0.20022">
        <ele>1609.5</ele>
        <time>2026-07-15T07:15:18Z</time>
      </trkpt>
      <trkpt lat="42.89019" lon="-0.20021">
        <ele>1608.5</ele>
        <time>2026-07-15T07:15:19Z</time>
      </trkpt>
      <trkpt lat="42.89019" lon="-0.2002">
        <ele>1608.5</ele>
        <time>2026-07-15T07:15:19Z</time>
      </trkpt>
      <trkpt lat="42.89018" lon="-0.2002">
        <ele>1608.5</ele>
        <time>2026-07-15T07:15:20Z</time>
      </trkpt>
      <trkpt lat="42.89018" lon="-0.20019">
        <ele>1609.5</ele>
        <time>2026-07-15T07:15:21Z</time>
      </trkpt>
      <trkpt lat="42.89017" lon="-0.20018">
        <ele>1609.5</ele>
        <time>2026-07-15T07:15:21Z</time>
      </trkpt>
      <trkpt lat="42.89017" lon="-0.20018">
        <ele>1609.5</ele>
        <time>2026-07-15T07:15:22Z</time>
      </trkpt>
      <trkpt lat="42.89017" lon="-0.20017">
        <ele>1610.5</ele>
        <time>2026-07-15T07:15:23Z</time>
      </trkpt>
      <trkpt lat="42.89016" lon="-0.20016">
        <ele>1610.5</ele>
        <time>2026-07-15T07:15:23Z</time>
      </trkpt>
      <trkpt lat="42.89016" lon="-0.20015">
        <ele>1610.5</ele>
        <time>2026-07-15T07:15:24Z</time>
      </trkpt>
      <trkpt lat="42.89016" lon="-0.20015">
        <ele>1610.5</ele>
        <time>2026-07-15T07:15:25Z</time>
      </trkpt>
      <trkpt lat="42.89015" lon="-0.20014">
        <ele>1610.5</ele>
        <time>2026-07-15T07:15:25Z</time>
      </trkpt>
      <trkpt lat="42.89015" lon="-0.20013">
        <ele>1610.5</ele>
        <time>2026-07-15T07:15:26Z</time>
      </trkpt>
      <trkpt lat="42.89014" lon="-0.20013">
        <ele>1609.5</ele>
        <time>2026-07-15T07:15:27Z</time>
      </trkpt>
      <trkpt lat="42.89014" lon="-0.20012">
        <ele>1609.5</ele>
        <time>2026-07-15T07:15:27Z</time>
      </trkpt>
      <trkpt lat="42.89013" lon="-0.20012">
        <ele>1609.5</ele>
        <time>2026-07-15T07:15:28Z</time>
      </trkpt>
      <trkpt lat="42.89013" lon="-0.20011">
        <ele>1610.5</ele>
        <time>2026-07-15T07:15:28Z</time>
      </trkpt>
      <trkpt lat="42.89012" lon="-0.20011">
        <ele>1610.5</ele>
        <time>2026-07-15T07:15:29Z</time>
      </trkpt>
      <trkpt lat="42.89012" lon="-0.2001">
        <ele>1610.5</ele>
        <time>2026-07-15T07:15:30Z</time>
      </trkpt>
      <trkpt lat="42.89011" lon="-0.2001">
        <ele>1610.5</ele>
        <time>2026-07-15T07:15:30Z</time>
      </trkpt>
      <trkpt lat="42.89011" lon="-0.20009">
        <ele>1610.5</ele>
        <time>2026-07-15T07:15:31Z</time>
      </trkpt>
      <trkpt lat="42.8901" lon="-0.20009">
        <ele>1610.5</ele>
        <time>2026-07-15T07:15:32Z</time>
      </trkpt>
      <trkpt lat="42.8901" lon="-0.20009">
        <ele>1610.5</ele>
        <time>2026-07-15T07:15:32Z</time>
      </trkpt>
      <trkpt lat="42.89009" lon="-0.20008">
        <ele>1610.5</ele>
        <time>2026-07-15T07:15:33Z</time>
      </trkpt>
      <trkpt lat="42.89009" lon="-0.20008">
        <ele>1610.5</ele>
        <time>2026-07-15T07:15:34Z</time>
      </trkpt>
      <trkpt lat="42.89009" lon="-0.20008">
        <ele>1610.5</ele>
        <time>2026-07-15T07:15:34Z</time>
      </trkpt>
      <trkpt lat="42.89008" lon="-0.20007">
        <ele>1610.5</ele>
        <time>2026-07-15T07:15:35Z</time>
      </trkpt>
      <trkpt lat="42.89007" lon="-0.20007">
        <ele>1610.5</ele>
        <time>2026-07-15T07:15:36Z</time>
      </trkpt>
      <trkpt lat="42.89007" lon="-0.20007">
        <ele>1610.5</ele>
        <time>2026-07-15T07:15:36Z</time>
      </trkpt>
      <trkpt lat="42.89006" lon="-0.20006">
        <ele>1610.5</ele>
        <time>2026-07-15T07:15:37Z</time>
      </trkpt>
      <trkpt lat="42.89006" lon="-0.20006">
        <ele>1610.5</ele>
        <time>2026-07-15T07:15:37Z</time>
      </trkpt>
      <trkpt lat="42.89005" lon="-0.20006">
        <ele>1610.5</ele>
        <time>2026-07-15T07:15:38Z</time>
      </trkpt>
      <trkpt lat="42.89004" lon="-0.20006">
        <ele>1610.5</ele>
        <time>2026-07-15T07:15:39Z</time>
      </trkpt>
      <trkpt lat="42.89004" lon="-0.20006">
        <ele>1611.5</ele>
        <time>2026-07-15T07:15:39Z</time>
      </trkpt>
      <trkpt lat="42.89003" lon="-0.20005">
        <ele>1611.5</ele>
        <time>2026-07-15T07:15:40Z</time>
      </trkpt>
      <trkpt lat="42.89003" lon="-0.20005">
        <ele>1611.5</ele>
        <time>2026-07-15T07:15:41Z</time>
      </trkpt>
      <trkpt lat="42.89001" lon="-0.20004">
        <ele>1611.5</ele>
        <time>2026-07-15T07:15:42Z</time>
      </trkpt>
      <trkpt lat="42.89001" lon="-0.20004">
        <ele>1611.5</ele>
        <time>2026-07-15T07:15:43Z</time>
      </trkpt>
      <trkpt lat="42.89" lon="-0.20003">
        <ele>1611.5</ele>
        <time>2026-07-15T07:15:43Z</time>
      </trkpt>
      <trkpt lat="42.88999" lon="-0.20003">
        <ele>1611.5</ele>
        <time>2026-07-15T07:15:44Z</time>
      </trkpt>
      <trkpt lat="42.88999" lon="-0.20002">
        <ele>1611.5</ele>
        <time>2026-07-15T07:15:45Z</time>
      </trkpt>
      <trkpt lat="42.88998" lon="-0.20002">
        <ele>1611.5</ele>
        <time>2026-07-15T07:15:45Z</time>
      </trkpt>
      <trkpt lat="42.88997" lon="-0.20001">
        <ele>1611.5</ele>
        <time>2026-07-15T07:15:46Z</time>
      </trkpt>
      <trkpt lat="42.88997" lon="-0.20001">
        <ele>1610.5</ele>
        <time>2026-07-15T07:15:47Z</time>
      </trkpt>
      <trkpt lat="42.88996" lon="-0.2">
        <ele>1609.5</ele>
        <time>2026-07-15T07:15:47Z</time>
      </trkpt>
      <trkpt lat="42.88996" lon="-0.2">
        <ele>1609.5</ele>
        <time>2026-07-15T07:15:48Z</time>
      </trkpt>
      <trkpt lat="42.88995" lon="-0.2">
        <ele>1609.5</ele>
        <time>2026-07-15T07:15:49Z</time>
      </trkpt>
      <trkpt lat="42.88995" lon="-0.19999">
        <ele>1609.5</ele>
        <time>2026-07-15T07:15:49Z</time>
      </trkpt>
      <trkpt lat="42.88994" lon="-0.19999">
        <ele>1609.5</ele>
        <time>2026-07-15T07:15:50Z</time>
      </trkpt>
      <trkpt lat="42.88994" lon="-0.19998">
        <ele>1610.5</ele>
        <time>2026-07-15T07:15:51Z</time>
      </trkpt>
      <trkpt lat="42.88994" lon="-0.19998">
        <ele>1611.5</ele>
        <time>2026-07-15T07:15:51Z</time>
      </trkpt>
      <trkpt lat="42.88993" lon="-0.19997">
        <ele>1611.5</ele>
        <time>2026-07-15T07:15:52Z</time>
      </trkpt>
      <trkpt lat="42.88993" lon="-0.19996">
        <ele>1611.5</ele>
        <time>2026-07-15T07:15:53Z</time>
      </trkpt>
      <trkpt lat="42.88992" lon="-0.19996">
        <ele>1611.5</ele>
        <time>2026-07-15T07:15:54Z</time>
      </trkpt>
      <trkpt lat="42.88992" lon="-0.19995">
        <ele>1611.5</ele>
        <time>2026-07-15T07:15:54Z</time>
      </trkpt>
      <trkpt lat="42.88992" lon="-0.19995">
        <ele>1611.5</ele>
        <time>2026-07-15T07:15:55Z</time>
      </trkpt>
      <trkpt lat="42.88991" lon="-0.19994">
        <ele>1611.5</ele>
        <time>2026-07-15T07:15:56Z</time>
      </trkpt>
      <trkpt lat="42.88991" lon="-0.19994">
        <ele>1610.5</ele>
        <time>2026-07-15T07:15:56Z</time>
      </trkpt>
      <trkpt lat="42.8899" lon="-0.19994">
        <ele>1610.5</ele>
        <time>2026-07-15T07:15:57Z</time>
      </trkpt>
      <trkpt lat="42.8899" lon="-0.19994">
        <ele>1610.5</ele>
        <time>2026-07-15T07:15:58Z</time>
      </trkpt>
      <trkpt lat="42.88989" lon="-0.19993">
        <ele>1610.5</ele>
        <time>2026-07-15T07:15:58Z</time>
      </trkpt>
      <trkpt lat="42.88989" lon="-0.19992">
        <ele>1610.5</ele>
        <time>2026-07-15T07:15:59Z</time>
      </trkpt>
      <trkpt lat="42.88988" lon="-0.19992">
        <ele>1610.5</ele>
        <time>2026-07-15T07:16:00Z</time>
      </trkpt>
      <trkpt lat="42.88988" lon="-0.19991">
        <ele>1610.5</ele>
        <time>2026-07-15T07:16:01Z</time>
      </trkpt>
      <trkpt lat="42.88988" lon="-0.1999">
        <ele>1610.5</ele>
        <time>2026-07-15T07:16:01Z</time>
      </trkpt>
      <trkpt lat="42.88987" lon="-0.19989">
        <ele>1610.5</ele>
        <time>2026-07-15T07:16:02Z</time>
      </trkpt>
      <trkpt lat="42.88987" lon="-0.19989">
        <ele>1611.5</ele>
        <time>2026-07-15T07:16:03Z</time>
      </trkpt>
      <trkpt lat="42.88987" lon="-0.19988">
        <ele>1611.5</ele>
        <time>2026-07-15T07:16:03Z</time>
      </trkpt>
      <trkpt lat="42.88987" lon="-0.19987">
        <ele>1611.5</ele>
        <time>2026-07-15T07:16:04Z</time>
      </trkpt>
      <trkpt lat="42.88987" lon="-0.19987">
        <ele>1612.5</ele>
        <time>2026-07-15T07:16:05Z</time>
      </trkpt>
      <trkpt lat="42.88987" lon="-0.19986">
        <ele>1612.5</ele>
        <time>2026-07-15T07:16:05Z</time>
      </trkpt>
      <trkpt lat="42.88987" lon="-0.19985">
        <ele>1612.5</ele>
        <time>2026-07-15T07:16:06Z</time>
      </trkpt>
      <trkpt lat="42.88987" lon="-0.19984">
        <ele>1612.5</ele>
        <time>2026-07-15T07:16:07Z</time>
      </trkpt>
      <trkpt lat="42.88987" lon="-0.19983">
        <ele>1612.5</ele>
        <time>2026-07-15T07:16:08Z</time>
      </trkpt>
      <trkpt lat="42.88986" lon="-0.19983">
        <ele>1612.5</ele>
        <time>2026-07-15T07:16:08Z</time>
      </trkpt>
      <trkpt lat="42.88986" lon="-0.19982">
        <ele>1613.5</ele>
        <time>2026-07-15T07:16:09Z</time>
      </trkpt>
      <trkpt lat="42.88986" lon="-0.19981">
        <ele>1613.5</ele>
        <time>2026-07-15T07:16:10Z</time>
      </trkpt>
      <trkpt lat="42.88985" lon="-0.19981">
        <ele>1613.5</ele>
        <time>2026-07-15T07:16:11Z</time>
      </trkpt>
      <trkpt lat="42.88985" lon="-0.1998">
        <ele>1613.5</ele>
        <time>2026-07-15T07:16:11Z</time>
      </trkpt>
      <trkpt lat="42.88985" lon="-0.1998">
        <ele>1613.5</ele>
        <time>2026-07-15T07:16:12Z</time>
      </trkpt>
      <trkpt lat="42.88985" lon="-0.19979">
        <ele>1613.5</ele>
        <time>2026-07-15T07:16:13Z</time>
      </trkpt>
      <trkpt lat="42.88984" lon="-0.19978">
        <ele>1613.5</ele>
        <time>2026-07-15T07:16:14Z</time>
      </trkpt>
      <trkpt lat="42.88984" lon="-0.19978">
        <ele>1614.5</ele>
        <time>2026-07-15T07:16:14Z</time>
      </trkpt>
      <trkpt lat="42.88984" lon="-0.19977">
        <ele>1614.5</ele>
        <time>2026-07-15T07:16:15Z</time>
      </trkpt>
      <trkpt lat="42.88983" lon="-0.19976">
        <ele>1615.5</ele>
        <time>2026-07-15T07:16:16Z</time>
      </trkpt>
      <trkpt lat="42.88983" lon="-0.19976">
        <ele>1615.5</ele>
        <time>2026-07-15T07:16:16Z</time>
      </trkpt>
      <trkpt lat="42.88983" lon="-0.19975">
        <ele>1614.5</ele>
        <time>2026-07-15T07:16:17Z</time>
      </trkpt>
      <trkpt lat="42.88982" lon="-0.19975">
        <ele>1614.5</ele>
        <time>2026-07-15T07:16:18Z</time>
      </trkpt>
      <trkpt lat="42.88982" lon="-0.19974">
        <ele>1613.5</ele>
        <time>2026-07-15T07:16:19Z</time>
      </trkpt>
      <trkpt lat="42.88981" lon="-0.19974">
        <ele>1614.5</ele>
        <time>2026-07-15T07:16:19Z</time>
      </trkpt>
      <trkpt lat="42.8898" lon="-0.19974">
        <ele>1614.5</ele>
        <time>2026-07-15T07:16:20Z</time>
      </trkpt>
      <trkpt lat="42.8898" lon="-0.19974">
        <ele>1614.5</ele>
        <time>2026-07-15T07:16:21Z</time>
      </trkpt>
      <trkpt lat="42.88979" lon="-0.19974">
        <ele>1614.5</ele>
        <time>2026-07-15T07:16:22Z</time>
      </trkpt>
      <trkpt lat="42.88979" lon="-0.19974">
        <ele>1614.5</ele>
        <time>2026-07-15T07:16:22Z</time>
      </trkpt>
      <trkpt lat="42.88978" lon="-0.19973">
        <ele>1614.5</ele>
        <time>2026-07-15T07:16:23Z</time>
      </trkpt>
      <trkpt lat="42.88977" lon="-0.19973">
        <ele>1614.5</ele>
        <time>2026-07-15T07:16:24Z</time>
      </trkpt>
      <trkpt lat="42.88977" lon="-0.19973">
        <ele>1615.5</ele>
        <time>2026-07-15T07:16:24Z</time>
      </trkpt>
      <trkpt lat="42.88976" lon="-0.19973">
        <ele>1615.5</ele>
        <time>2026-07-15T07:16:25Z</time>
      </trkpt>
      <trkpt lat="42.88976" lon="-0.19972">
        <ele>1615.5</ele>
        <time>2026-07-15T07:16:26Z</time>
      </trkpt>
      <trkpt lat="42.88975" lon="-0.19972">
        <ele>1616.5</ele>
        <time>2026-07-15T07:16:27Z</time>
      </trkpt>
      <trkpt lat="42.88975" lon="-0.19972">
        <ele>1615.5</ele>
        <time>2026-07-15T07:16:27Z</time>
      </trkpt>
      <trkpt lat="42.88974" lon="-0.19972">
        <ele>1615.5</ele>
        <time>2026-07-15T07:16:28Z</time>
      </trkpt>
      <trkpt lat="42.88973" lon="-0.19972">
        <ele>1616.5</ele>
        <time>2026-07-15T07:16:29Z</time>
      </trkpt>
      <trkpt lat="42.88973" lon="-0.19972">
        <ele>1616.5</ele>
        <time>2026-07-15T07:16:29Z</time>
      </trkpt>
      <trkpt lat="42.88972" lon="-0.19971">
        <ele>1616.5</ele>
        <time>2026-07-15T07:16:30Z</time>
      </trkpt>
      <trkpt lat="42.88971" lon="-0.19971">
        <ele>1616.5</ele>
        <time>2026-07-15T07:16:31Z</time>
      </trkpt>
      <trkpt lat="42.88971" lon="-0.19971">
        <ele>1616.5</ele>
        <time>2026-07-15T07:16:32Z</time>
      </trkpt>
      <trkpt lat="42.8897" lon="-0.19971">
        <ele>1617.5</ele>
        <time>2026-07-15T07:16:32Z</time>
      </trkpt>
      <trkpt lat="42.88969" lon="-0.1997">
        <ele>1617.5</ele>
        <time>2026-07-15T07:16:33Z</time>
      </trkpt>
      <trkpt lat="42.88969" lon="-0.1997">
        <ele>1616.5</ele>
        <time>2026-07-15T07:16:34Z</time>
      </trkpt>
      <trkpt lat="42.88968" lon="-0.1997">
        <ele>1616.5</ele>
        <time>2026-07-15T07:16:34Z</time>
      </trkpt>
      <trkpt lat="42.88968" lon="-0.1997">
        <ele>1616.5</ele>
        <time>2026-07-15T07:16:35Z</time>
      </trkpt>
      <trkpt lat="42.88967" lon="-0.19969">
        <ele>1616.5</ele>
        <time>2026-07-15T07:16:36Z</time>
      </trkpt>
      <trkpt lat="42.88966" lon="-0.19969">
        <ele>1617.5</ele>
        <time>2026-07-15T07:16:37Z</time>
      </trkpt>
      <trkpt lat="42.88966" lon="-0.19969">
        <ele>1618.5</ele>
        <time>2026-07-15T07:16:37Z</time>
      </trkpt>
      <trkpt lat="42.88965" lon="-0.19969">
        <ele>1618.5</ele>
        <time>2026-07-15T07:16:38Z</time>
      </trkpt>
      <trkpt lat="42.88964" lon="-0.19968">
        <ele>1618.5</ele>
        <time>2026-07-15T07:16:39Z</time>
      </trkpt>
      <trkpt lat="42.88964" lon="-0.19968">
        <ele>1618.5</ele>
        <time>2026-07-15T07:16:40Z</time>
      </trkpt>
      <trkpt lat="42.88963" lon="-0.19967">
        <ele>1617.5</ele>
        <time>2026-07-15T07:16:40Z</time>
      </trkpt>
      <trkpt lat="42.88963" lon="-0.19967">
        <ele>1617.5</ele>
        <time>2026-07-15T07:16:41Z</time>
      </trkpt>
      <trkpt lat="42.88962" lon="-0.19967">
        <ele>1617.5</ele>
        <time>2026-07-15T07:16:42Z</time>
      </trkpt>
      <trkpt lat="42.88962" lon="-0.19966">
        <ele>1618.5</ele>
        <time>2026-07-15T07:16:43Z</time>
      </trkpt>
      <trkpt lat="42.88961" lon="-0.19966">
        <ele>1617.5</ele>
        <time>2026-07-15T07:16:44Z</time>
      </trkpt>
      <trkpt lat="42.88961" lon="-0.19966">
        <ele>1618.5</ele>
        <time>2026-07-15T07:16:44Z</time>
      </trkpt>
      <trkpt lat="42.88961" lon="-0.19965">
        <ele>1618.5</ele>
        <time>2026-07-15T07:16:45Z</time>
      </trkpt>
      <trkpt lat="42.8896" lon="-0.19965">
        <ele>1618.5</ele>
        <time>2026-07-15T07:16:46Z</time>
      </trkpt>
      <trkpt lat="42.8896" lon="-0.19964">
        <ele>1618.5</ele>
        <time>2026-07-15T07:16:46Z</time>
      </trkpt>
      <trkpt lat="42.8896" lon="-0.19964">
        <ele>1617.5</ele>
        <time>2026-07-15T07:16:47Z</time>
      </trkpt>
      <trkpt lat="42.88959" lon="-0.19964">
        <ele>1617.5</ele>
        <time>2026-07-15T07:16:48Z</time>
      </trkpt>
      <trkpt lat="42.88958" lon="-0.19963">
        <ele>1618.5</ele>
        <time>2026-07-15T07:16:49Z</time>
      </trkpt>
      <trkpt lat="42.88958" lon="-0.19963">
        <ele>1618.5</ele>
        <time>2026-07-15T07:16:49Z</time>
      </trkpt>
      <trkpt lat="42.88957" lon="-0.19962">
        <ele>1618.5</ele>
        <time>2026-07-15T07:16:50Z</time>
      </trkpt>
      <trkpt lat="42.88957" lon="-0.19961">
        <ele>1618.5</ele>
        <time>2026-07-15T07:16:51Z</time>
      </trkpt>
      <trkpt lat="42.88956" lon="-0.19961">
        <ele>1618.5</ele>
        <time>2026-07-15T07:16:52Z</time>
      </trkpt>
      <trkpt lat="42.88956" lon="-0.1996">
        <ele>1619.5</ele>
        <time>2026-07-15T07:16:53Z</time>
      </trkpt>
      <trkpt lat="42.88956" lon="-0.1996">
        <ele>1619.5</ele>
        <time>2026-07-15T07:16:53Z</time>
      </trkpt>
      <trkpt lat="42.88955" lon="-0.1996">
        <ele>1619.5</ele>
        <time>2026-07-15T07:16:54Z</time>
      </trkpt>
      <trkpt lat="42.88954" lon="-0.1996">
        <ele>1618.5</ele>
        <time>2026-07-15T07:16:55Z</time>
      </trkpt>
      <trkpt lat="42.88954" lon="-0.19959">
        <ele>1618.5</ele>
        <time>2026-07-15T07:16:56Z</time>
      </trkpt>
      <trkpt lat="42.88953" lon="-0.19959">
        <ele>1619.5</ele>
        <time>2026-07-15T07:16:56Z</time>
      </trkpt>
      <trkpt lat="42.88953" lon="-0.19959">
        <ele>1619.5</ele>
        <time>2026-07-15T07:16:57Z</time>
      </trkpt>
      <trkpt lat="42.88952" lon="-0.19958">
        <ele>1619.5</ele>
        <time>2026-07-15T07:16:58Z</time>
      </trkpt>
      <trkpt lat="42.88952" lon="-0.19958">
        <ele>1619.5</ele>
        <time>2026-07-15T07:16:58Z</time>
      </trkpt>
      <trkpt lat="42.88952" lon="-0.19957">
        <ele>1619.5</ele>
        <time>2026-07-15T07:16:59Z</time>
      </trkpt>
      <trkpt lat="42.88951" lon="-0.19957">
        <ele>1619.5</ele>
        <time>2026-07-15T07:17:00Z</time>
      </trkpt>
      <trkpt lat="42.8895" lon="-0.19956">
        <ele>1619.5</ele>
        <time>2026-07-15T07:17:01Z</time>
      </trkpt>
      <trkpt lat="42.8895" lon="-0.19956">
        <ele>1618.5</ele>
        <time>2026-07-15T07:17:01Z</time>
      </trkpt>
      <trkpt lat="42.88949" lon="-0.19956">
        <ele>1618.5</ele>
        <time>2026-07-15T07:17:02Z</time>
      </trkpt>
      <trkpt lat="42.88949" lon="-0.19956">
        <ele>1619.5</ele>
        <time>2026-07-15T07:17:03Z</time>
      </trkpt>
      <trkpt lat="42.88948" lon="-0.19956">
        <ele>1618.5</ele>
        <time>2026-07-15T07:17:03Z</time>
      </trkpt>
      <trkpt lat="42.88947" lon="-0.19956">
        <ele>1618.5</ele>
        <time>2026-07-15T07:17:04Z</time>
      </trkpt>
      <trkpt lat="42.88947" lon="-0.19955">
        <ele>1619.5</ele>
        <time>2026-07-15T07:17:04Z</time>
      </trkpt>
      <trkpt lat="42.88946" lon="-0.19955">
        <ele>1619.5</ele>
        <time>2026-07-15T07:17:05Z</time>
      </trkpt>
      <trkpt lat="42.88946" lon="-0.19955">
        <ele>1619.5</ele>
        <time>2026-07-15T07:17:06Z</time>
      </trkpt>
      <trkpt lat="42.88945" lon="-0.19955">
        <ele>1619.5</ele>
        <time>2026-07-15T07:17:06Z</time>
      </trkpt>
      <trkpt lat="42.88944" lon="-0.19954">
        <ele>1619.5</ele>
        <time>2026-07-15T07:17:07Z</time>
      </trkpt>
      <trkpt lat="42.88944" lon="-0.19954">
        <ele>1619.5</ele>
        <time>2026-07-15T07:17:07Z</time>
      </trkpt>
      <trkpt lat="42.88943" lon="-0.19954">
        <ele>1619.5</ele>
        <time>2026-07-15T07:17:08Z</time>
      </trkpt>
      <trkpt lat="42.88942" lon="-0.19953">
        <ele>1618.5</ele>
        <time>2026-07-15T07:17:09Z</time>
      </trkpt>
      <trkpt lat="42.88941" lon="-0.19953">
        <ele>1619.5</ele>
        <time>2026-07-15T07:17:09Z</time>
      </trkpt>
      <trkpt lat="42.88941" lon="-0.19953">
        <ele>1619.5</ele>
        <time>2026-07-15T07:17:10Z</time>
      </trkpt>
      <trkpt lat="42.8894" lon="-0.19952">
        <ele>1618.5</ele>
        <time>2026-07-15T07:17:11Z</time>
      </trkpt>
      <trkpt lat="42.8894" lon="-0.19952">
        <ele>1620.5</ele>
        <time>2026-07-15T07:17:11Z</time>
      </trkpt>
      <trkpt lat="42.88939" lon="-0.19952">
        <ele>1620.5</ele>
        <time>2026-07-15T07:17:12Z</time>
      </trkpt>
      <trkpt lat="42.88939" lon="-0.19951">
        <ele>1621.5</ele>
        <time>2026-07-15T07:17:13Z</time>
      </trkpt>
      <trkpt lat="42.88938" lon="-0.19951">
        <ele>1622.5</ele>
        <time>2026-07-15T07:17:13Z</time>
      </trkpt>
      <trkpt lat="42.88937" lon="-0.1995">
        <ele>1622.5</ele>
        <time>2026-07-15T07:17:14Z</time>
      </trkpt>
      <trkpt lat="42.88937" lon="-0.1995">
        <ele>1622.5</ele>
        <time>2026-07-15T07:17:15Z</time>
      </trkpt>
      <trkpt lat="42.88936" lon="-0.1995">
        <ele>1623.5</ele>
        <time>2026-07-15T07:17:15Z</time>
      </trkpt>
      <trkpt lat="42.88935" lon="-0.19949">
        <ele>1623.5</ele>
        <time>2026-07-15T07:17:16Z</time>
      </trkpt>
      <trkpt lat="42.88935" lon="-0.19949">
        <ele>1623.5</ele>
        <time>2026-07-15T07:17:17Z</time>
      </trkpt>
      <trkpt lat="42.88934" lon="-0.19949">
        <ele>1622.5</ele>
        <time>2026-07-15T07:17:18Z</time>
      </trkpt>
      <trkpt lat="42.88934" lon="-0.19949">
        <ele>1622.5</ele>
        <time>2026-07-15T07:17:18Z</time>
      </trkpt>
      <trkpt lat="42.88933" lon="-0.19948">
        <ele>1622.5</ele>
        <time>2026-07-15T07:17:19Z</time>
      </trkpt>
      <trkpt lat="42.88932" lon="-0.19948">
        <ele>1623.5</ele>
        <time>2026-07-15T07:17:19Z</time>
      </trkpt>
      <trkpt lat="42.88932" lon="-0.19948">
        <ele>1623.5</ele>
        <time>2026-07-15T07:17:20Z</time>
      </trkpt>
      <trkpt lat="42.88931" lon="-0.19948">
        <ele>1623.5</ele>
        <time>2026-07-15T07:17:21Z</time>
      </trkpt>
      <trkpt lat="42.88931" lon="-0.19947">
        <ele>1623.5</ele>
        <time>2026-07-15T07:17:22Z</time>
      </trkpt>
      <trkpt lat="42.8893" lon="-0.19947">
        <ele>1624.5</ele>
        <time>2026-07-15T07:17:22Z</time>
      </trkpt>
      <trkpt lat="42.8893" lon="-0.19947">
        <ele>1625.5</ele>
        <time>2026-07-15T07:17:23Z</time>
      </trkpt>
      <trkpt lat="42.88929" lon="-0.19947">
        <ele>1625.5</ele>
        <time>2026-07-15T07:17:24Z</time>
      </trkpt>
      <trkpt lat="42.88928" lon="-0.19947">
        <ele>1625.5</ele>
        <time>2026-07-15T07:17:24Z</time>
      </trkpt>
      <trkpt lat="42.88928" lon="-0.19946">
        <ele>1625.5</ele>
        <time>2026-07-15T07:17:25Z</time>
      </trkpt>
      <trkpt lat="42.88927" lon="-0.19946">
        <ele>1625.5</ele>
        <time>2026-07-15T07:17:26Z</time>
      </trkpt>
      <trkpt lat="42.88927" lon="-0.19946">
        <ele>1625.5</ele>
        <time>2026-07-15T07:17:27Z</time>
      </trkpt>
      <trkpt lat="42.88926" lon="-0.19945">
        <ele>1625.5</ele>
        <time>2026-07-15T07:17:27Z</time>
      </trkpt>
      <trkpt lat="42.88926" lon="-0.19945">
        <ele>1625.5</ele>
        <time>2026-07-15T07:17:28Z</time>
      </trkpt>
      <trkpt lat="42.88925" lon="-0.19944">
        <ele>1625.5</ele>
        <time>2026-07-15T07:17:29Z</time>
      </trkpt>
      <trkpt lat="42.88925" lon="-0.19944">
        <ele>1625.5</ele>
        <time>2026-07-15T07:17:29Z</time>
      </trkpt>
      <trkpt lat="42.88924" lon="-0.19944">
        <ele>1626.5</ele>
        <time>2026-07-15T07:17:30Z</time>
      </trkpt>
      <trkpt lat="42.88923" lon="-0.19943">
        <ele>1626.5</ele>
        <time>2026-07-15T07:17:31Z</time>
      </trkpt>
      <trkpt lat="42.88923" lon="-0.19943">
        <ele>1626.5</ele>
        <time>2026-07-15T07:17:32Z</time>
      </trkpt>
      <trkpt lat="42.88923" lon="-0.19943">
        <ele>1627.5</ele>
        <time>2026-07-15T07:17:32Z</time>
      </trkpt>
      <trkpt lat="42.88922" lon="-0.19943">
        <ele>1627.5</ele>
        <time>2026-07-15T07:17:33Z</time>
      </trkpt>
      <trkpt lat="42.88922" lon="-0.19943">
        <ele>1627.5</ele>
        <time>2026-07-15T07:17:34Z</time>
      </trkpt>
      <trkpt lat="42.88921" lon="-0.19942">
        <ele>1628.5</ele>
        <time>2026-07-15T07:17:34Z</time>
      </trkpt>
      <trkpt lat="42.8892" lon="-0.19942">
        <ele>1628.5</ele>
        <time>2026-07-15T07:17:35Z</time>
      </trkpt>
      <trkpt lat="42.8892" lon="-0.19942">
        <ele>1628.5</ele>
        <time>2026-07-15T07:17:36Z</time>
      </trkpt>
      <trkpt lat="42.88919" lon="-0.19942">
        <ele>1629.5</ele>
        <time>2026-07-15T07:17:36Z</time>
      </trkpt>
      <trkpt lat="42.88919" lon="-0.19942">
        <ele>1629.5</ele>
        <time>2026-07-15T07:17:37Z</time>
      </trkpt>
      <trkpt lat="42.88918" lon="-0.19941">
        <ele>1629.5</ele>
        <time>2026-07-15T07:17:38Z</time>
      </trkpt>
      <trkpt lat="42.88918" lon="-0.19941">
        <ele>1629.5</ele>
        <time>2026-07-15T07:17:38Z</time>
      </trkpt>
      <trkpt lat="42.88917" lon="-0.19941">
        <ele>1629.5</ele>
        <time>2026-07-15T07:17:39Z</time>
      </trkpt>
      <trkpt lat="42.88917" lon="-0.19941">
        <ele>1629.5</ele>
        <time>2026-07-15T07:17:39Z</time>
      </trkpt>
      <trkpt lat="42.88916" lon="-0.1994">
        <ele>1629.5</ele>
        <time>2026-07-15T07:17:40Z</time>
      </trkpt>
      <trkpt lat="42.88916" lon="-0.1994">
        <ele>1629.5</ele>
        <time>2026-07-15T07:17:41Z</time>
      </trkpt>
      <trkpt lat="42.88915" lon="-0.1994">
        <ele>1629.5</ele>
        <time>2026-07-15T07:17:41Z</time>
      </trkpt>
      <trkpt lat="42.88915" lon="-0.1994">
        <ele>1630.5</ele>
        <time>2026-07-15T07:17:42Z</time>
      </trkpt>
      <trkpt lat="42.88914" lon="-0.19939">
        <ele>1630.5</ele>
        <time>2026-07-15T07:17:43Z</time>
      </trkpt>
      <trkpt lat="42.88914" lon="-0.19939">
        <ele>1630.5</ele>
        <time>2026-07-15T07:17:44Z</time>
      </trkpt>
      <trkpt lat="42.88913" lon="-0.1994">
        <ele>1630.5</ele>
        <time>2026-07-15T07:17:44Z</time>
      </trkpt>
      <trkpt lat="42.88913" lon="-0.19939">
        <ele>1630.5</ele>
        <time>2026-07-15T07:17:45Z</time>
      </trkpt>
      <trkpt lat="42.88912" lon="-0.19939">
        <ele>1629.5</ele>
        <time>2026-07-15T07:17:45Z</time>
      </trkpt>
      <trkpt lat="42.88912" lon="-0.19939">
        <ele>1629.5</ele>
        <time>2026-07-15T07:17:46Z</time>
      </trkpt>
      <trkpt lat="42.88911" lon="-0.19939">
        <ele>1629.5</ele>
        <time>2026-07-15T07:17:47Z</time>
      </trkpt>
      <trkpt lat="42.88911" lon="-0.19939">
        <ele>1629.5</ele>
        <time>2026-07-15T07:17:47Z</time>
      </trkpt>
      <trkpt lat="42.8891" lon="-0.19939">
        <ele>1629.5</ele>
        <time>2026-07-15T07:17:48Z</time>
      </trkpt>
      <trkpt lat="42.88909" lon="-0.19939">
        <ele>1628.5</ele>
        <time>2026-07-15T07:17:49Z</time>
      </trkpt>
      <trkpt lat="42.88909" lon="-0.19938">
        <ele>1628.5</ele>
        <time>2026-07-15T07:17:49Z</time>
      </trkpt>
      <trkpt lat="42.88908" lon="-0.19938">
        <ele>1628.5</ele>
        <time>2026-07-15T07:17:50Z</time>
      </trkpt>
      <trkpt lat="42.88908" lon="-0.19938">
        <ele>1628.5</ele>
        <time>2026-07-15T07:17:50Z</time>
      </trkpt>
      <trkpt lat="42.88907" lon="-0.19938">
        <ele>1628.5</ele>
        <time>2026-07-15T07:17:51Z</time>
      </trkpt>
      <trkpt lat="42.88907" lon="-0.19938">
        <ele>1628.5</ele>
        <time>2026-07-15T07:17:52Z</time>
      </trkpt>
      <trkpt lat="42.88906" lon="-0.19938">
        <ele>1628.5</ele>
        <time>2026-07-15T07:17:52Z</time>
      </trkpt>
      <trkpt lat="42.88905" lon="-0.19937">
        <ele>1628.5</ele>
        <time>2026-07-15T07:17:53Z</time>
      </trkpt>
      <trkpt lat="42.88905" lon="-0.19937">
        <ele>1628.5</ele>
        <time>2026-07-15T07:17:54Z</time>
      </trkpt>
      <trkpt lat="42.88904" lon="-0.19937">
        <ele>1630.5</ele>
        <time>2026-07-15T07:17:54Z</time>
      </trkpt>
      <trkpt lat="42.88904" lon="-0.19937">
        <ele>1630.5</ele>
        <time>2026-07-15T07:17:55Z</time>
      </trkpt>
      <trkpt lat="42.88903" lon="-0.19937">
        <ele>1630.5</ele>
        <time>2026-07-15T07:17:56Z</time>
      </trkpt>
      <trkpt lat="42.88903" lon="-0.19936">
        <ele>1631.5</ele>
        <time>2026-07-15T07:17:56Z</time>
      </trkpt>
      <trkpt lat="42.88902" lon="-0.19936">
        <ele>1631.5</ele>
        <time>2026-07-15T07:17:57Z</time>
      </trkpt>
      <trkpt lat="42.88902" lon="-0.19936">
        <ele>1631.5</ele>
        <time>2026-07-15T07:17:57Z</time>
      </trkpt>
      <trkpt lat="42.88901" lon="-0.19936">
        <ele>1631.5</ele>
        <time>2026-07-15T07:17:58Z</time>
      </trkpt>
      <trkpt lat="42.88901" lon="-0.19935">
        <ele>1631.5</ele>
        <time>2026-07-15T07:17:59Z</time>
      </trkpt>
      <trkpt lat="42.889" lon="-0.19935">
        <ele>1631.5</ele>
        <time>2026-07-15T07:17:59Z</time>
      </trkpt>
      <trkpt lat="42.88899" lon="-0.19935">
        <ele>1631.5</ele>
        <time>2026-07-15T07:18:00Z</time>
      </trkpt>
      <trkpt lat="42.88899" lon="-0.19935">
        <ele>1631.5</ele>
        <time>2026-07-15T07:18:00Z</time>
      </trkpt>
      <trkpt lat="42.88898" lon="-0.19934">
        <ele>1631.5</ele>
        <time>2026-07-15T07:18:01Z</time>
      </trkpt>
      <trkpt lat="42.88898" lon="-0.19934">
        <ele>1631.5</ele>
        <time>2026-07-15T07:18:02Z</time>
      </trkpt>
      <trkpt lat="42.88897" lon="-0.19933">
        <ele>1631.5</ele>
        <time>2026-07-15T07:18:02Z</time>
      </trkpt>
      <trkpt lat="42.88897" lon="-0.19933">
        <ele>1631.5</ele>
        <time>2026-07-15T07:18:03Z</time>
      </trkpt>
      <trkpt lat="42.88896" lon="-0.19933">
        <ele>1631.5</ele>
        <time>2026-07-15T07:18:04Z</time>
      </trkpt>
      <trkpt lat="42.88895" lon="-0.19932">
        <ele>1632.5</ele>
        <time>2026-07-15T07:18:04Z</time>
      </trkpt>
      <trkpt lat="42.88895" lon="-0.19932">
        <ele>1632.5</ele>
        <time>2026-07-15T07:18:05Z</time>
      </trkpt>
      <trkpt lat="42.88894" lon="-0.19932">
        <ele>1632.5</ele>
        <time>2026-07-15T07:18:06Z</time>
      </trkpt>
      <trkpt lat="42.88893" lon="-0.19932">
        <ele>1633.5</ele>
        <time>2026-07-15T07:18:06Z</time>
      </trkpt>
      <trkpt lat="42.88893" lon="-0.19931">
        <ele>1633.5</ele>
        <time>2026-07-15T07:18:07Z</time>
      </trkpt>
      <trkpt lat="42.88892" lon="-0.19931">
        <ele>1634.5</ele>
        <time>2026-07-15T07:18:08Z</time>
      </trkpt>
      <trkpt lat="42.88891" lon="-0.19931">
        <ele>1633.5</ele>
        <time>2026-07-15T07:18:08Z</time>
      </trkpt>
      <trkpt lat="42.8889" lon="-0.19931">
        <ele>1633.5</ele>
        <time>2026-07-15T07:18:09Z</time>
      </trkpt>
      <trkpt lat="42.8889" lon="-0.1993">
        <ele>1634.5</ele>
        <time>2026-07-15T07:18:09Z</time>
      </trkpt>
      <trkpt lat="42.88889" lon="-0.1993">
        <ele>1634.5</ele>
        <time>2026-07-15T07:18:10Z</time>
      </trkpt>
      <trkpt lat="42.88888" lon="-0.1993">
        <ele>1634.5</ele>
        <time>2026-07-15T07:18:11Z</time>
      </trkpt>
      <trkpt lat="42.88887" lon="-0.1993">
        <ele>1634.5</ele>
        <time>2026-07-15T07:18:11Z</time>
      </trkpt>
      <trkpt lat="42.88887" lon="-0.19929">
        <ele>1634.5</ele>
        <time>2026-07-15T07:18:12Z</time>
      </trkpt>
      <trkpt lat="42.88886" lon="-0.19929">
        <ele>1633.5</ele>
        <time>2026-07-15T07:18:13Z</time>
      </trkpt>
      <trkpt lat="42.88885" lon="-0.19929">
        <ele>1633.5</ele>
        <time>2026-07-15T07:18:13Z</time>
      </trkpt>
      <trkpt lat="42.88884" lon="-0.19929">
        <ele>1633.5</ele>
        <time>2026-07-15T07:18:14Z</time>
      </trkpt>
      <trkpt lat="42.88884" lon="-0.19929">
        <ele>1633.5</ele>
        <time>2026-07-15T07:18:14Z</time>
      </trkpt>
      <trkpt lat="42.88883" lon="-0.19929">
        <ele>1633.5</ele>
        <time>2026-07-15T07:18:15Z</time>
      </trkpt>
      <trkpt lat="42.88883" lon="-0.19929">
        <ele>1633.5</ele>
        <time>2026-07-15T07:18:16Z</time>
      </trkpt>
      <trkpt lat="42.88882" lon="-0.19928">
        <ele>1633.5</ele>
        <time>2026-07-15T07:18:16Z</time>
      </trkpt>
      <trkpt lat="42.88881" lon="-0.19928">
        <ele>1633.5</ele>
        <time>2026-07-15T07:18:17Z</time>
      </trkpt>
      <trkpt lat="42.88881" lon="-0.19928">
        <ele>1634.5</ele>
        <time>2026-07-15T07:18:17Z</time>
      </trkpt>
      <trkpt lat="42.8888" lon="-0.19927">
        <ele>1634.5</ele>
        <time>2026-07-15T07:18:18Z</time>
      </trkpt>
      <trkpt lat="42.8888" lon="-0.19927">
        <ele>1634.5</ele>
        <time>2026-07-15T07:18:19Z</time>
      </trkpt>
      <trkpt lat="42.88879" lon="-0.19927">
        <ele>1634.5</ele>
        <time>2026-07-15T07:18:19Z</time>
      </trkpt>
      <trkpt lat="42.88878" lon="-0.19926">
        <ele>1634.5</ele>
        <time>2026-07-15T07:18:20Z</time>
      </trkpt>
      <trkpt lat="42.88878" lon="-0.19926">
        <ele>1634.5</ele>
        <time>2026-07-15T07:18:20Z</time>
      </trkpt>
      <trkpt lat="42.88877" lon="-0.19926">
        <ele>1634.5</ele>
        <time>2026-07-15T07:18:21Z</time>
      </trkpt>
      <trkpt lat="42.88877" lon="-0.19925">
        <ele>1634.5</ele>
        <time>2026-07-15T07:18:22Z</time>
      </trkpt>
      <trkpt lat="42.88876" lon="-0.19925">
        <ele>1634.5</ele>
        <time>2026-07-15T07:18:22Z</time>
      </trkpt>
      <trkpt lat="42.88876" lon="-0.19925">
        <ele>1634.5</ele>
        <time>2026-07-15T07:18:23Z</time>
      </trkpt>
      <trkpt lat="42.88875" lon="-0.19924">
        <ele>1634.5</ele>
        <time>2026-07-15T07:18:24Z</time>
      </trkpt>
      <trkpt lat="42.88875" lon="-0.19924">
        <ele>1634.5</ele>
        <time>2026-07-15T07:18:24Z</time>
      </trkpt>
      <trkpt lat="42.88874" lon="-0.19924">
        <ele>1634.5</ele>
        <time>2026-07-15T07:18:25Z</time>
      </trkpt>
      <trkpt lat="42.88873" lon="-0.19923">
        <ele>1635.5</ele>
        <time>2026-07-15T07:18:25Z</time>
      </trkpt>
      <trkpt lat="42.88873" lon="-0.19923">
        <ele>1634.5</ele>
        <time>2026-07-15T07:18:26Z</time>
      </trkpt>
      <trkpt lat="42.88872" lon="-0.19923">
        <ele>1634.5</ele>
        <time>2026-07-15T07:18:27Z</time>
      </trkpt>
      <trkpt lat="42.88872" lon="-0.19922">
        <ele>1634.5</ele>
        <time>2026-07-15T07:18:27Z</time>
      </trkpt>
      <trkpt lat="42.88871" lon="-0.19922">
        <ele>1634.5</ele>
        <time>2026-07-15T07:18:28Z</time>
      </trkpt>
      <trkpt lat="42.8887" lon="-0.19921">
        <ele>1635.5</ele>
        <time>2026-07-15T07:18:29Z</time>
      </trkpt>
      <trkpt lat="42.8887" lon="-0.19921">
        <ele>1636.5</ele>
        <time>2026-07-15T07:18:29Z</time>
      </trkpt>
      <trkpt lat="42.88869" lon="-0.1992">
        <ele>1636.5</ele>
        <time>2026-07-15T07:18:30Z</time>
      </trkpt>
      <trkpt lat="42.88869" lon="-0.1992">
        <ele>1637.5</ele>
        <time>2026-07-15T07:18:30Z</time>
      </trkpt>
      <trkpt lat="42.88868" lon="-0.1992">
        <ele>1637.5</ele>
        <time>2026-07-15T07:18:31Z</time>
      </trkpt>
      <trkpt lat="42.88868" lon="-0.19919">
        <ele>1637.5</ele>
        <time>2026-07-15T07:18:32Z</time>
      </trkpt>
      <trkpt lat="42.88867" lon="-0.19919">
        <ele>1637.5</ele>
        <time>2026-07-15T07:18:32Z</time>
      </trkpt>
      <trkpt lat="42.88866" lon="-0.19919">
        <ele>1637.5</ele>
        <time>2026-07-15T07:18:33Z</time>
      </trkpt>
      <trkpt lat="42.88866" lon="-0.19918">
        <ele>1637.4</ele>
        <time>2026-07-15T07:18:34Z</time>
      </trkpt>
      <trkpt lat="42.88865" lon="-0.19918">
        <ele>1638.5</ele>
        <time>2026-07-15T07:18:34Z</time>
      </trkpt>
      <trkpt lat="42.88865" lon="-0.19917">
        <ele>1638.5</ele>
        <time>2026-07-15T07:18:35Z</time>
      </trkpt>
      <trkpt lat="42.88864" lon="-0.19917">
        <ele>1639.5</ele>
        <time>2026-07-15T07:18:36Z</time>
      </trkpt>
      <trkpt lat="42.88864" lon="-0.19916">
        <ele>1639.4</ele>
        <time>2026-07-15T07:18:36Z</time>
      </trkpt>
      <trkpt lat="42.88863" lon="-0.19915">
        <ele>1639.5</ele>
        <time>2026-07-15T07:18:37Z</time>
      </trkpt>
      <trkpt lat="42.88862" lon="-0.19915">
        <ele>1639.4</ele>
        <time>2026-07-15T07:18:38Z</time>
      </trkpt>
      <trkpt lat="42.88862" lon="-0.19914">
        <ele>1639.4</ele>
        <time>2026-07-15T07:18:38Z</time>
      </trkpt>
      <trkpt lat="42.88861" lon="-0.19914">
        <ele>1639.4</ele>
        <time>2026-07-15T07:18:39Z</time>
      </trkpt>
      <trkpt lat="42.88861" lon="-0.19914">
        <ele>1639.4</ele>
        <time>2026-07-15T07:18:40Z</time>
      </trkpt>
      <trkpt lat="42.8886" lon="-0.19913">
        <ele>1639.4</ele>
        <time>2026-07-15T07:18:40Z</time>
      </trkpt>
      <trkpt lat="42.8886" lon="-0.19913">
        <ele>1639.4</ele>
        <time>2026-07-15T07:18:41Z</time>
      </trkpt>
      <trkpt lat="42.88859" lon="-0.19913">
        <ele>1639.4</ele>
        <time>2026-07-15T07:18:42Z</time>
      </trkpt>
      <trkpt lat="42.88859" lon="-0.19912">
        <ele>1639.4</ele>
        <time>2026-07-15T07:18:42Z</time>
      </trkpt>
      <trkpt lat="42.88858" lon="-0.19912">
        <ele>1639.4</ele>
        <time>2026-07-15T07:18:43Z</time>
      </trkpt>
      <trkpt lat="42.88858" lon="-0.19911">
        <ele>1640.4</ele>
        <time>2026-07-15T07:18:44Z</time>
      </trkpt>
      <trkpt lat="42.88858" lon="-0.19911">
        <ele>1641.4</ele>
        <time>2026-07-15T07:18:44Z</time>
      </trkpt>
      <trkpt lat="42.88857" lon="-0.19911">
        <ele>1641.4</ele>
        <time>2026-07-15T07:18:45Z</time>
      </trkpt>
      <trkpt lat="42.88856" lon="-0.19911">
        <ele>1641.4</ele>
        <time>2026-07-15T07:18:46Z</time>
      </trkpt>
      <trkpt lat="42.88856" lon="-0.1991">
        <ele>1641.4</ele>
        <time>2026-07-15T07:18:46Z</time>
      </trkpt>
      <trkpt lat="42.88855" lon="-0.1991">
        <ele>1641.4</ele>
        <time>2026-07-15T07:18:47Z</time>
      </trkpt>
      <trkpt lat="42.88854" lon="-0.1991">
        <ele>1641.4</ele>
        <time>2026-07-15T07:18:48Z</time>
      </trkpt>
      <trkpt lat="42.88854" lon="-0.1991">
        <ele>1641.4</ele>
        <time>2026-07-15T07:18:48Z</time>
      </trkpt>
      <trkpt lat="42.88853" lon="-0.19909">
        <ele>1641.4</ele>
        <time>2026-07-15T07:18:49Z</time>
      </trkpt>
      <trkpt lat="42.88852" lon="-0.19909">
        <ele>1641.4</ele>
        <time>2026-07-15T07:18:50Z</time>
      </trkpt>
      <trkpt lat="42.88852" lon="-0.19909">
        <ele>1642.4</ele>
        <time>2026-07-15T07:18:50Z</time>
      </trkpt>
      <trkpt lat="42.88851" lon="-0.19909">
        <ele>1642.4</ele>
        <time>2026-07-15T07:18:51Z</time>
      </trkpt>
      <trkpt lat="42.88851" lon="-0.19908">
        <ele>1642.4</ele>
        <time>2026-07-15T07:18:52Z</time>
      </trkpt>
      <trkpt lat="42.8885" lon="-0.19908">
        <ele>1641.4</ele>
        <time>2026-07-15T07:18:52Z</time>
      </trkpt>
      <trkpt lat="42.88849" lon="-0.19908">
        <ele>1641.4</ele>
        <time>2026-07-15T07:18:53Z</time>
      </trkpt>
      <trkpt lat="42.88849" lon="-0.19908">
        <ele>1642.4</ele>
        <time>2026-07-15T07:18:54Z</time>
      </trkpt>
      <trkpt lat="42.88848" lon="-0.19907">
        <ele>1641.4</ele>
        <time>2026-07-15T07:18:54Z</time>
      </trkpt>
      <trkpt lat="42.88847" lon="-0.19907">
        <ele>1641.4</ele>
        <time>2026-07-15T07:18:55Z</time>
      </trkpt>
      <trkpt lat="42.88847" lon="-0.19906">
        <ele>1642.4</ele>
        <time>2026-07-15T07:18:56Z</time>
      </trkpt>
      <trkpt lat="42.88846" lon="-0.19906">
        <ele>1643.4</ele>
        <time>2026-07-15T07:18:56Z</time>
      </trkpt>
      <trkpt lat="42.88845" lon="-0.19906">
        <ele>1643.4</ele>
        <time>2026-07-15T07:18:57Z</time>
      </trkpt>
      <trkpt lat="42.88845" lon="-0.19905">
        <ele>1643.4</ele>
        <time>2026-07-15T07:18:58Z</time>
      </trkpt>
      <trkpt lat="42.88844" lon="-0.19905">
        <ele>1644.4</ele>
        <time>2026-07-15T07:18:58Z</time>
      </trkpt>
      <trkpt lat="42.88843" lon="-0.19905">
        <ele>1644.4</ele>
        <time>2026-07-15T07:18:59Z</time>
      </trkpt>
      <trkpt lat="42.88843" lon="-0.19905">
        <ele>1645.4</ele>
        <time>2026-07-15T07:19:00Z</time>
      </trkpt>
      <trkpt lat="42.88842" lon="-0.19905">
        <ele>1646.4</ele>
        <time>2026-07-15T07:19:00Z</time>
      </trkpt>
      <trkpt lat="42.88841" lon="-0.19905">
        <ele>1646.4</ele>
        <time>2026-07-15T07:19:01Z</time>
      </trkpt>
      <trkpt lat="42.88841" lon="-0.19905">
        <ele>1646.4</ele>
        <time>2026-07-15T07:19:02Z</time>
      </trkpt>
      <trkpt lat="42.8884" lon="-0.19904">
        <ele>1645.4</ele>
        <time>2026-07-15T07:19:02Z</time>
      </trkpt>
      <trkpt lat="42.8884" lon="-0.19904">
        <ele>1645.4</ele>
        <time>2026-07-15T07:19:03Z</time>
      </trkpt>
      <trkpt lat="42.88839" lon="-0.19904">
        <ele>1646.4</ele>
        <time>2026-07-15T07:19:04Z</time>
      </trkpt>
      <trkpt lat="42.88839" lon="-0.19904">
        <ele>1645.4</ele>
        <time>2026-07-15T07:19:04Z</time>
      </trkpt>
      <trkpt lat="42.88838" lon="-0.19904">
        <ele>1645.4</ele>
        <time>2026-07-15T07:19:05Z</time>
      </trkpt>
      <trkpt lat="42.88837" lon="-0.19904">
        <ele>1646.4</ele>
        <time>2026-07-15T07:19:06Z</time>
      </trkpt>
      <trkpt lat="42.88837" lon="-0.19904">
        <ele>1645.4</ele>
        <time>2026-07-15T07:19:06Z</time>
      </trkpt>
      <trkpt lat="42.88836" lon="-0.19904">
        <ele>1645.4</ele>
        <time>2026-07-15T07:19:07Z</time>
      </trkpt>
      <trkpt lat="42.88836" lon="-0.19903">
        <ele>1645.4</ele>
        <time>2026-07-15T07:19:08Z</time>
      </trkpt>
      <trkpt lat="42.88835" lon="-0.19903">
        <ele>1645.4</ele>
        <time>2026-07-15T07:19:08Z</time>
      </trkpt>
      <trkpt lat="42.88835" lon="-0.19903">
        <ele>1645.4</ele>
        <time>2026-07-15T07:19:09Z</time>
      </trkpt>
      <trkpt lat="42.88834" lon="-0.19903">
        <ele>1645.4</ele>
        <time>2026-07-15T07:19:10Z</time>
      </trkpt>
      <trkpt lat="42.88834" lon="-0.19903">
        <ele>1645.4</ele>
        <time>2026-07-15T07:19:11Z</time>
      </trkpt>
      <trkpt lat="42.88833" lon="-0.19903">
        <ele>1646.4</ele>
        <time>2026-07-15T07:19:11Z</time>
      </trkpt>
      <trkpt lat="42.88832" lon="-0.19903">
        <ele>1646.4</ele>
        <time>2026-07-15T07:19:12Z</time>
      </trkpt>
      <trkpt lat="42.88832" lon="-0.19902">
        <ele>1646.4</ele>
        <time>2026-07-15T07:19:13Z</time>
      </trkpt>
      <trkpt lat="42.88832" lon="-0.19902">
        <ele>1645.4</ele>
        <time>2026-07-15T07:19:13Z</time>
      </trkpt>
      <trkpt lat="42.88831" lon="-0.19902">
        <ele>1645.4</ele>
        <time>2026-07-15T07:19:14Z</time>
      </trkpt>
      <trkpt lat="42.8883" lon="-0.19902">
        <ele>1645.4</ele>
        <time>2026-07-15T07:19:15Z</time>
      </trkpt>
      <trkpt lat="42.8883" lon="-0.19902">
        <ele>1646.4</ele>
        <time>2026-07-15T07:19:15Z</time>
      </trkpt>
      <trkpt lat="42.88829" lon="-0.19902">
        <ele>1646.4</ele>
        <time>2026-07-15T07:19:16Z</time>
      </trkpt>
      <trkpt lat="42.88829" lon="-0.19901">
        <ele>1646.4</ele>
        <time>2026-07-15T07:19:17Z</time>
      </trkpt>
      <trkpt lat="42.88828" lon="-0.19901">
        <ele>1646.4</ele>
        <time>2026-07-15T07:19:17Z</time>
      </trkpt>
      <trkpt lat="42.88827" lon="-0.19901">
        <ele>1646.4</ele>
        <time>2026-07-15T07:19:18Z</time>
      </trkpt>
      <trkpt lat="42.88826" lon="-0.19901">
        <ele>1645.4</ele>
        <time>2026-07-15T07:19:19Z</time>
      </trkpt>
      <trkpt lat="42.88826" lon="-0.19901">
        <ele>1645.4</ele>
        <time>2026-07-15T07:19:19Z</time>
      </trkpt>
      <trkpt lat="42.88826" lon="-0.199">
        <ele>1645.4</ele>
        <time>2026-07-15T07:19:20Z</time>
      </trkpt>
      <trkpt lat="42.88826" lon="-0.19899">
        <ele>1645.4</ele>
        <time>2026-07-15T07:19:21Z</time>
      </trkpt>
      <trkpt lat="42.88826" lon="-0.19899">
        <ele>1645.4</ele>
        <time>2026-07-15T07:19:21Z</time>
      </trkpt>
      <trkpt lat="42.88825" lon="-0.19898">
        <ele>1645.4</ele>
        <time>2026-07-15T07:19:22Z</time>
      </trkpt>
      <trkpt lat="42.88825" lon="-0.19898">
        <ele>1645.4</ele>
        <time>2026-07-15T07:19:23Z</time>
      </trkpt>
      <trkpt lat="42.88824" lon="-0.19898">
        <ele>1646.4</ele>
        <time>2026-07-15T07:19:23Z</time>
      </trkpt>
      <trkpt lat="42.88824" lon="-0.19898">
        <ele>1646.4</ele>
        <time>2026-07-15T07:19:24Z</time>
      </trkpt>
      <trkpt lat="42.88823" lon="-0.19897">
        <ele>1646.4</ele>
        <time>2026-07-15T07:19:25Z</time>
      </trkpt>
      <trkpt lat="42.88822" lon="-0.19897">
        <ele>1646.4</ele>
        <time>2026-07-15T07:19:25Z</time>
      </trkpt>
      <trkpt lat="42.88822" lon="-0.19897">
        <ele>1646.4</ele>
        <time>2026-07-15T07:19:26Z</time>
      </trkpt>
      <trkpt lat="42.88821" lon="-0.19897">
        <ele>1646.4</ele>
        <time>2026-07-15T07:19:26Z</time>
      </trkpt>
      <trkpt lat="42.8882" lon="-0.19896">
        <ele>1647.4</ele>
        <time>2026-07-15T07:19:27Z</time>
      </trkpt>
      <trkpt lat="42.88819" lon="-0.19896">
        <ele>1647.4</ele>
        <time>2026-07-15T07:19:28Z</time>
      </trkpt>
      <trkpt lat="42.88818" lon="-0.19896">
        <ele>1647.4</ele>
        <time>2026-07-15T07:19:29Z</time>
      </trkpt>
      <trkpt lat="42.88818" lon="-0.19896">
        <ele>1646.4</ele>
        <time>2026-07-15T07:19:29Z</time>
      </trkpt>
      <trkpt lat="42.88817" lon="-0.19896">
        <ele>1646.4</ele>
        <time>2026-07-15T07:19:30Z</time>
      </trkpt>
      <trkpt lat="42.88816" lon="-0.19896">
        <ele>1647.4</ele>
        <time>2026-07-15T07:19:31Z</time>
      </trkpt>
      <trkpt lat="42.88815" lon="-0.19896">
        <ele>1646.4</ele>
        <time>2026-07-15T07:19:31Z</time>
      </trkpt>
      <trkpt lat="42.88815" lon="-0.19896">
        <ele>1646.4</ele>
        <time>2026-07-15T07:19:32Z</time>
      </trkpt>
      <trkpt lat="42.88814" lon="-0.19895">
        <ele>1646.4</ele>
        <time>2026-07-15T07:19:33Z</time>
      </trkpt>
      <trkpt lat="42.88814" lon="-0.19895">
        <ele>1646.4</ele>
        <time>2026-07-15T07:19:34Z</time>
      </trkpt>
      <trkpt lat="42.88813" lon="-0.19895">
        <ele>1645.4</ele>
        <time>2026-07-15T07:19:34Z</time>
      </trkpt>
      <trkpt lat="42.88812" lon="-0.19895">
        <ele>1645.4</ele>
        <time>2026-07-15T07:19:35Z</time>
      </trkpt>
      <trkpt lat="42.88812" lon="-0.19895">
        <ele>1645.4</ele>
        <time>2026-07-15T07:19:36Z</time>
      </trkpt>
      <trkpt lat="42.88811" lon="-0.19895">
        <ele>1646.4</ele>
        <time>2026-07-15T07:19:36Z</time>
      </trkpt>
      <trkpt lat="42.8881" lon="-0.19894">
        <ele>1646.4</ele>
        <time>2026-07-15T07:19:37Z</time>
      </trkpt>
      <trkpt lat="42.8881" lon="-0.19894">
        <ele>1646.4</ele>
        <time>2026-07-15T07:19:38Z</time>
      </trkpt>
      <trkpt lat="42.88809" lon="-0.19893">
        <ele>1646.4</ele>
        <time>2026-07-15T07:19:38Z</time>
      </trkpt>
      <trkpt lat="42.88809" lon="-0.19892">
        <ele>1646.4</ele>
        <time>2026-07-15T07:19:39Z</time>
      </trkpt>
      <trkpt lat="42.88808" lon="-0.19892">
        <ele>1646.4</ele>
        <time>2026-07-15T07:19:40Z</time>
      </trkpt>
      <trkpt lat="42.88807" lon="-0.19891">
        <ele>1646.4</ele>
        <time>2026-07-15T07:19:41Z</time>
      </trkpt>
      <trkpt lat="42.88807" lon="-0.19891">
        <ele>1646.4</ele>
        <time>2026-07-15T07:19:41Z</time>
      </trkpt>
      <trkpt lat="42.88806" lon="-0.19891">
        <ele>1646.4</ele>
        <time>2026-07-15T07:19:42Z</time>
      </trkpt>
      <trkpt lat="42.88806" lon="-0.1989">
        <ele>1645.4</ele>
        <time>2026-07-15T07:19:43Z</time>
      </trkpt>
      <trkpt lat="42.88805" lon="-0.1989">
        <ele>1646.4</ele>
        <time>2026-07-15T07:19:43Z</time>
      </trkpt>
      <trkpt lat="42.88805" lon="-0.1989">
        <ele>1646.4</ele>
        <time>2026-07-15T07:19:44Z</time>
      </trkpt>
      <trkpt lat="42.88804" lon="-0.19889">
        <ele>1647.4</ele>
        <time>2026-07-15T07:19:45Z</time>
      </trkpt>
      <trkpt lat="42.88804" lon="-0.19889">
        <ele>1646.4</ele>
        <time>2026-07-15T07:19:45Z</time>
      </trkpt>
      <trkpt lat="42.88803" lon="-0.19889">
        <ele>1646.4</ele>
        <time>2026-07-15T07:19:46Z</time>
      </trkpt>
      <trkpt lat="42.88803" lon="-0.19889">
        <ele>1646.4</ele>
        <time>2026-07-15T07:19:47Z</time>
      </trkpt>
      <trkpt lat="42.88803" lon="-0.19889">
        <ele>1646.4</ele>
        <time>2026-07-15T07:19:47Z</time>
      </trkpt>
      <trkpt lat="42.88802" lon="-0.19889">
        <ele>1646.4</ele>
        <time>2026-07-15T07:19:48Z</time>
      </trkpt>
      <trkpt lat="42.88801" lon="-0.19889">
        <ele>1646.4</ele>
        <time>2026-07-15T07:19:49Z</time>
      </trkpt>
      <trkpt lat="42.88801" lon="-0.19889">
        <ele>1646.4</ele>
        <time>2026-07-15T07:19:50Z</time>
      </trkpt>
      <trkpt lat="42.888" lon="-0.19889">
        <ele>1646.4</ele>
        <time>2026-07-15T07:19:50Z</time>
      </trkpt>
      <trkpt lat="42.888" lon="-0.19888">
        <ele>1646.4</ele>
        <time>2026-07-15T07:19:51Z</time>
      </trkpt>
      <trkpt lat="42.88799" lon="-0.19888">
        <ele>1647.4</ele>
        <time>2026-07-15T07:19:52Z</time>
      </trkpt>
      <trkpt lat="42.88799" lon="-0.19887">
        <ele>1646.4</ele>
        <time>2026-07-15T07:19:52Z</time>
      </trkpt>
      <trkpt lat="42.88798" lon="-0.19887">
        <ele>1646.4</ele>
        <time>2026-07-15T07:19:53Z</time>
      </trkpt>
      <trkpt lat="42.88797" lon="-0.19886">
        <ele>1646.4</ele>
        <time>2026-07-15T07:19:54Z</time>
      </trkpt>
      <trkpt lat="42.88797" lon="-0.19886">
        <ele>1645.4</ele>
        <time>2026-07-15T07:19:54Z</time>
      </trkpt>
      <trkpt lat="42.88796" lon="-0.19886">
        <ele>1645.4</ele>
        <time>2026-07-15T07:19:55Z</time>
      </trkpt>
      <trkpt lat="42.88796" lon="-0.19885">
        <ele>1646.4</ele>
        <time>2026-07-15T07:19:56Z</time>
      </trkpt>
      <trkpt lat="42.88795" lon="-0.19885">
        <ele>1646.4</ele>
        <time>2026-07-15T07:19:56Z</time>
      </trkpt>
      <trkpt lat="42.88795" lon="-0.19885">
        <ele>1646.4</ele>
        <time>2026-07-15T07:19:57Z</time>
      </trkpt>
      <trkpt lat="42.88794" lon="-0.19885">
        <ele>1646.4</ele>
        <time>2026-07-15T07:19:58Z</time>
      </trkpt>
      <trkpt lat="42.88794" lon="-0.19885">
        <ele>1646.4</ele>
        <time>2026-07-15T07:19:58Z</time>
      </trkpt>
      <trkpt lat="42.88793" lon="-0.19885">
        <ele>1646.4</ele>
        <time>2026-07-15T07:19:59Z</time>
      </trkpt>
      <trkpt lat="42.88793" lon="-0.19885">
        <ele>1646.4</ele>
        <time>2026-07-15T07:20:00Z</time>
      </trkpt>
      <trkpt lat="42.88792" lon="-0.19885">
        <ele>1646.4</ele>
        <time>2026-07-15T07:20:00Z</time>
      </trkpt>
      <trkpt lat="42.88792" lon="-0.19884">
        <ele>1646.4</ele>
        <time>2026-07-15T07:20:01Z</time>
      </trkpt>
      <trkpt lat="42.88791" lon="-0.19884">
        <ele>1646.4</ele>
        <time>2026-07-15T07:20:02Z</time>
      </trkpt>
      <trkpt lat="42.88791" lon="-0.19884">
        <ele>1645.4</ele>
        <time>2026-07-15T07:20:02Z</time>
      </trkpt>
      <trkpt lat="42.8879" lon="-0.19884">
        <ele>1645.4</ele>
        <time>2026-07-15T07:20:03Z</time>
      </trkpt>
      <trkpt lat="42.88789" lon="-0.19884">
        <ele>1645.4</ele>
        <time>2026-07-15T07:20:04Z</time>
      </trkpt>
      <trkpt lat="42.88789" lon="-0.19884">
        <ele>1644.4</ele>
        <time>2026-07-15T07:20:04Z</time>
      </trkpt>
      <trkpt lat="42.88789" lon="-0.19885">
        <ele>1643.4</ele>
        <time>2026-07-15T07:20:05Z</time>
      </trkpt>
      <trkpt lat="42.88788" lon="-0.19885">
        <ele>1643.4</ele>
        <time>2026-07-15T07:20:06Z</time>
      </trkpt>
      <trkpt lat="42.88788" lon="-0.19885">
        <ele>1643.4</ele>
        <time>2026-07-15T07:20:06Z</time>
      </trkpt>
      <trkpt lat="42.88788" lon="-0.19885">
        <ele>1643.4</ele>
        <time>2026-07-15T07:20:07Z</time>
      </trkpt>
      <trkpt lat="42.88787" lon="-0.19885">
        <ele>1643.4</ele>
        <time>2026-07-15T07:20:08Z</time>
      </trkpt>
      <trkpt lat="42.88787" lon="-0.19885">
        <ele>1643.4</ele>
        <time>2026-07-15T07:20:09Z</time>
      </trkpt>
      <trkpt lat="42.88786" lon="-0.19885">
        <ele>1644.4</ele>
        <time>2026-07-15T07:20:09Z</time>
      </trkpt>
      <trkpt lat="42.88786" lon="-0.19885">
        <ele>1644.4</ele>
        <time>2026-07-15T07:20:10Z</time>
      </trkpt>
      <trkpt lat="42.88785" lon="-0.19885">
        <ele>1645.4</ele>
        <time>2026-07-15T07:20:11Z</time>
      </trkpt>
      <trkpt lat="42.88785" lon="-0.19885">
        <ele>1645.4</ele>
        <time>2026-07-15T07:20:11Z</time>
      </trkpt>
      <trkpt lat="42.88784" lon="-0.19885">
        <ele>1645.4</ele>
        <time>2026-07-15T07:20:12Z</time>
      </trkpt>
      <trkpt lat="42.88784" lon="-0.19884">
        <ele>1645.4</ele>
        <time>2026-07-15T07:20:13Z</time>
      </trkpt>
      <trkpt lat="42.88783" lon="-0.19884">
        <ele>1646.4</ele>
        <time>2026-07-15T07:20:13Z</time>
      </trkpt>
      <trkpt lat="42.88783" lon="-0.19884">
        <ele>1646.4</ele>
        <time>2026-07-15T07:20:14Z</time>
      </trkpt>
      <trkpt lat="42.88783" lon="-0.19883">
        <ele>1646.4</ele>
        <time>2026-07-15T07:20:15Z</time>
      </trkpt>
      <trkpt lat="42.88782" lon="-0.19883">
        <ele>1647.4</ele>
        <time>2026-07-15T07:20:15Z</time>
      </trkpt>
      <trkpt lat="42.88782" lon="-0.19882">
        <ele>1647.4</ele>
        <time>2026-07-15T07:20:16Z</time>
      </trkpt>
      <trkpt lat="42.88781" lon="-0.19881">
        <ele>1647.4</ele>
        <time>2026-07-15T07:20:17Z</time>
      </trkpt>
      <trkpt lat="42.88781" lon="-0.19881">
        <ele>1646.4</ele>
        <time>2026-07-15T07:20:18Z</time>
      </trkpt>
      <trkpt lat="42.8878" lon="-0.1988">
        <ele>1646.4</ele>
        <time>2026-07-15T07:20:18Z</time>
      </trkpt>
      <trkpt lat="42.88779" lon="-0.1988">
        <ele>1646.4</ele>
        <time>2026-07-15T07:20:19Z</time>
      </trkpt>
      <trkpt lat="42.88779" lon="-0.1988">
        <ele>1646.4</ele>
        <time>2026-07-15T07:20:20Z</time>
      </trkpt>
      <trkpt lat="42.88778" lon="-0.19879">
        <ele>1646.4</ele>
        <time>2026-07-15T07:20:21Z</time>
      </trkpt>
      <trkpt lat="42.88778" lon="-0.19878">
        <ele>1647.4</ele>
        <time>2026-07-15T07:20:21Z</time>
      </trkpt>
      <trkpt lat="42.88777" lon="-0.19878">
        <ele>1647.4</ele>
        <time>2026-07-15T07:20:22Z</time>
      </trkpt>
      <trkpt lat="42.88776" lon="-0.19877">
        <ele>1648.4</ele>
        <time>2026-07-15T07:20:23Z</time>
      </trkpt>
      <trkpt lat="42.88776" lon="-0.19877">
        <ele>1648.4</ele>
        <time>2026-07-15T07:20:23Z</time>
      </trkpt>
      <trkpt lat="42.88775" lon="-0.19876">
        <ele>1648.4</ele>
        <time>2026-07-15T07:20:24Z</time>
      </trkpt>
      <trkpt lat="42.88775" lon="-0.19876">
        <ele>1649.4</ele>
        <time>2026-07-15T07:20:25Z</time>
      </trkpt>
      <trkpt lat="42.88774" lon="-0.19875">
        <ele>1650.4</ele>
        <time>2026-07-15T07:20:25Z</time>
      </trkpt>
      <trkpt lat="42.88773" lon="-0.19874">
        <ele>1650.4</ele>
        <time>2026-07-15T07:20:26Z</time>
      </trkpt>
      <trkpt lat="42.88773" lon="-0.19873">
        <ele>1650.4</ele>
        <time>2026-07-15T07:20:27Z</time>
      </trkpt>
      <trkpt lat="42.88773" lon="-0.19873">
        <ele>1650.4</ele>
        <time>2026-07-15T07:20:27Z</time>
      </trkpt>
      <trkpt lat="42.88772" lon="-0.19873">
        <ele>1650.4</ele>
        <time>2026-07-15T07:20:28Z</time>
      </trkpt>
      <trkpt lat="42.88772" lon="-0.19872">
        <ele>1650.4</ele>
        <time>2026-07-15T07:20:28Z</time>
      </trkpt>
      <trkpt lat="42.88771" lon="-0.19872">
        <ele>1650.4</ele>
        <time>2026-07-15T07:20:29Z</time>
      </trkpt>
      <trkpt lat="42.88771" lon="-0.19871">
        <ele>1650.4</ele>
        <time>2026-07-15T07:20:30Z</time>
      </trkpt>
      <trkpt lat="42.8877" lon="-0.19871">
        <ele>1650.4</ele>
        <time>2026-07-15T07:20:30Z</time>
      </trkpt>
      <trkpt lat="42.8877" lon="-0.19871">
        <ele>1650.4</ele>
        <time>2026-07-15T07:20:31Z</time>
      </trkpt>
      <trkpt lat="42.8877" lon="-0.1987">
        <ele>1650.4</ele>
        <time>2026-07-15T07:20:32Z</time>
      </trkpt>
      <trkpt lat="42.88769" lon="-0.1987">
        <ele>1650.4</ele>
        <time>2026-07-15T07:20:32Z</time>
      </trkpt>
      <trkpt lat="42.88769" lon="-0.19869">
        <ele>1650.4</ele>
        <time>2026-07-15T07:20:33Z</time>
      </trkpt>
      <trkpt lat="42.88769" lon="-0.19868">
        <ele>1649.4</ele>
        <time>2026-07-15T07:20:34Z</time>
      </trkpt>
      <trkpt lat="42.88769" lon="-0.19867">
        <ele>1650.4</ele>
        <time>2026-07-15T07:20:34Z</time>
      </trkpt>
      <trkpt lat="42.88768" lon="-0.19866">
        <ele>1650.4</ele>
        <time>2026-07-15T07:20:35Z</time>
      </trkpt>
      <trkpt lat="42.88768" lon="-0.19866">
        <ele>1650.4</ele>
        <time>2026-07-15T07:20:36Z</time>
      </trkpt>
      <trkpt lat="42.88767" lon="-0.19865">
        <ele>1650.4</ele>
        <time>2026-07-15T07:20:36Z</time>
      </trkpt>
      <trkpt lat="42.88767" lon="-0.19864">
        <ele>1650.4</ele>
        <time>2026-07-15T07:20:37Z</time>
      </trkpt>
      <trkpt lat="42.88767" lon="-0.19864">
        <ele>1651.4</ele>
        <time>2026-07-15T07:20:37Z</time>
      </trkpt>
      <trkpt lat="42.88766" lon="-0.19863">
        <ele>1651.4</ele>
        <time>2026-07-15T07:20:38Z</time>
      </trkpt>
      <trkpt lat="42.88766" lon="-0.19863">
        <ele>1651.4</ele>
        <time>2026-07-15T07:20:39Z</time>
      </trkpt>
      <trkpt lat="42.88765" lon="-0.19862">
        <ele>1651.4</ele>
        <time>2026-07-15T07:20:39Z</time>
      </trkpt>
      <trkpt lat="42.88765" lon="-0.19862">
        <ele>1651.4</ele>
        <time>2026-07-15T07:20:40Z</time>
      </trkpt>
      <trkpt lat="42.88764" lon="-0.19861">
        <ele>1651.4</ele>
        <time>2026-07-15T07:20:41Z</time>
      </trkpt>
      <trkpt lat="42.88764" lon="-0.19861">
        <ele>1651.4</ele>
        <time>2026-07-15T07:20:41Z</time>
      </trkpt>
      <trkpt lat="42.88763" lon="-0.1986">
        <ele>1651.4</ele>
        <time>2026-07-15T07:20:42Z</time>
      </trkpt>
      <trkpt lat="42.88763" lon="-0.1986">
        <ele>1652.4</ele>
        <time>2026-07-15T07:20:42Z</time>
      </trkpt>
      <trkpt lat="42.88762" lon="-0.19859">
        <ele>1652.4</ele>
        <time>2026-07-15T07:20:43Z</time>
      </trkpt>
      <trkpt lat="42.88762" lon="-0.19859">
        <ele>1652.4</ele>
        <time>2026-07-15T07:20:44Z</time>
      </trkpt>
      <trkpt lat="42.88762" lon="-0.19858">
        <ele>1652.4</ele>
        <time>2026-07-15T07:20:44Z</time>
      </trkpt>
      <trkpt lat="42.88761" lon="-0.19858">
        <ele>1652.4</ele>
        <time>2026-07-15T07:20:45Z</time>
      </trkpt>
      <trkpt lat="42.88761" lon="-0.19857">
        <ele>1651.4</ele>
        <time>2026-07-15T07:20:46Z</time>
      </trkpt>
      <trkpt lat="42.88761" lon="-0.19857">
        <ele>1652.4</ele>
        <time>2026-07-15T07:20:46Z</time>
      </trkpt>
      <trkpt lat="42.8876" lon="-0.19856">
        <ele>1652.4</ele>
        <time>2026-07-15T07:20:47Z</time>
      </trkpt>
      <trkpt lat="42.8876" lon="-0.19855">
        <ele>1652.4</ele>
        <time>2026-07-15T07:20:48Z</time>
      </trkpt>
      <trkpt lat="42.8876" lon="-0.19855">
        <ele>1652.4</ele>
        <time>2026-07-15T07:20:48Z</time>
      </trkpt>
      <trkpt lat="42.88759" lon="-0.19854">
        <ele>1652.4</ele>
        <time>2026-07-15T07:20:49Z</time>
      </trkpt>
      <trkpt lat="42.88759" lon="-0.19854">
        <ele>1652.4</ele>
        <time>2026-07-15T07:20:49Z</time>
      </trkpt>
      <trkpt lat="42.88759" lon="-0.19853">
        <ele>1652.4</ele>
        <time>2026-07-15T07:20:50Z</time>
      </trkpt>
      <trkpt lat="42.88759" lon="-0.19853">
        <ele>1652.4</ele>
        <time>2026-07-15T07:20:51Z</time>
      </trkpt>
      <trkpt lat="42.88758" lon="-0.19852">
        <ele>1653.4</ele>
        <time>2026-07-15T07:20:51Z</time>
      </trkpt>
      <trkpt lat="42.88758" lon="-0.19851">
        <ele>1653.4</ele>
        <time>2026-07-15T07:20:52Z</time>
      </trkpt>
      <trkpt lat="42.88758" lon="-0.19851">
        <ele>1653.4</ele>
        <time>2026-07-15T07:20:53Z</time>
      </trkpt>
      <trkpt lat="42.88757" lon="-0.1985">
        <ele>1653.4</ele>
        <time>2026-07-15T07:20:53Z</time>
      </trkpt>
      <trkpt lat="42.88757" lon="-0.19849">
        <ele>1652.4</ele>
        <time>2026-07-15T07:20:54Z</time>
      </trkpt>
      <trkpt lat="42.88757" lon="-0.19848">
        <ele>1652.4</ele>
        <time>2026-07-15T07:20:55Z</time>
      </trkpt>
      <trkpt lat="42.88756" lon="-0.19848">
        <ele>1653.4</ele>
        <time>2026-07-15T07:20:56Z</time>
      </trkpt>
      <trkpt lat="42.88756" lon="-0.19849">
        <ele>1653.4</ele>
        <time>2026-07-15T07:20:57Z</time>
      </trkpt>
      <trkpt lat="42.88756" lon="-0.19849">
        <ele>1652.4</ele>
        <time>2026-07-15T07:20:57Z</time>
      </trkpt>
      <trkpt lat="42.88756" lon="-0.1985">
        <ele>1652.4</ele>
        <time>2026-07-15T07:20:58Z</time>
      </trkpt>
      <trkpt lat="42.88756" lon="-0.1985">
        <ele>1652.4</ele>
        <time>2026-07-15T07:20:59Z</time>
      </trkpt>
      <trkpt lat="42.88755" lon="-0.19851">
        <ele>1653.4</ele>
        <time>2026-07-15T07:20:59Z</time>
      </trkpt>
      <trkpt lat="42.88755" lon="-0.19851">
        <ele>1653.4</ele>
        <time>2026-07-15T07:21:00Z</time>
      </trkpt>
      <trkpt lat="42.88755" lon="-0.19851">
        <ele>1653.4</ele>
        <time>2026-07-15T07:21:00Z</time>
      </trkpt>
      <trkpt lat="42.88754" lon="-0.19851">
        <ele>1653.4</ele>
        <time>2026-07-15T07:21:01Z</time>
      </trkpt>
      <trkpt lat="42.88754" lon="-0.19852">
        <ele>1653.4</ele>
        <time>2026-07-15T07:21:02Z</time>
      </trkpt>
      <trkpt lat="42.88754" lon="-0.19852">
        <ele>1653.4</ele>
        <time>2026-07-15T07:21:02Z</time>
      </trkpt>
      <trkpt lat="42.88753" lon="-0.19853">
        <ele>1655.4</ele>
        <time>2026-07-15T07:21:03Z</time>
      </trkpt>
      <trkpt lat="42.88753" lon="-0.19854">
        <ele>1655.4</ele>
        <time>2026-07-15T07:21:04Z</time>
      </trkpt>
      <trkpt lat="42.88752" lon="-0.19855">
        <ele>1656.4</ele>
        <time>2026-07-15T07:21:05Z</time>
      </trkpt>
      <trkpt lat="42.88752" lon="-0.19856">
        <ele>1655.4</ele>
        <time>2026-07-15T07:21:05Z</time>
      </trkpt>
      <trkpt lat="42.88751" lon="-0.19856">
        <ele>1655.4</ele>
        <time>2026-07-15T07:21:06Z</time>
      </trkpt>
      <trkpt lat="42.88751" lon="-0.19857">
        <ele>1655.4</ele>
        <time>2026-07-15T07:21:07Z</time>
      </trkpt>
      <trkpt lat="42.88751" lon="-0.19857">
        <ele>1655.4</ele>
        <time>2026-07-15T07:21:07Z</time>
      </trkpt>
      <trkpt lat="42.8875" lon="-0.19858">
        <ele>1655.4</ele>
        <time>2026-07-15T07:21:08Z</time>
      </trkpt>
      <trkpt lat="42.8875" lon="-0.19859">
        <ele>1655.4</ele>
        <time>2026-07-15T07:21:09Z</time>
      </trkpt>
      <trkpt lat="42.8875" lon="-0.1986">
        <ele>1654.4</ele>
        <time>2026-07-15T07:21:09Z</time>
      </trkpt>
      <trkpt lat="42.8875" lon="-0.19861">
        <ele>1654.4</ele>
        <time>2026-07-15T07:21:10Z</time>
      </trkpt>
      <trkpt lat="42.88749" lon="-0.19861">
        <ele>1655.4</ele>
        <time>2026-07-15T07:21:11Z</time>
      </trkpt>
      <trkpt lat="42.88749" lon="-0.19861">
        <ele>1655.4</ele>
        <time>2026-07-15T07:21:12Z</time>
      </trkpt>
      <trkpt lat="42.88748" lon="-0.19861">
        <ele>1655.4</ele>
        <time>2026-07-15T07:21:12Z</time>
      </trkpt>
      <trkpt lat="42.88748" lon="-0.19861">
        <ele>1655.4</ele>
        <time>2026-07-15T07:21:13Z</time>
      </trkpt>
      <trkpt lat="42.88747" lon="-0.1986">
        <ele>1655.4</ele>
        <time>2026-07-15T07:21:14Z</time>
      </trkpt>
      <trkpt lat="42.88747" lon="-0.19861">
        <ele>1656.4</ele>
        <time>2026-07-15T07:21:14Z</time>
      </trkpt>
      <trkpt lat="42.88746" lon="-0.19861">
        <ele>1656.4</ele>
        <time>2026-07-15T07:21:15Z</time>
      </trkpt>
      <trkpt lat="42.88746" lon="-0.19861">
        <ele>1656.4</ele>
        <time>2026-07-15T07:21:16Z</time>
      </trkpt>
      <trkpt lat="42.88745" lon="-0.19861">
        <ele>1656.4</ele>
        <time>2026-07-15T07:21:17Z</time>
      </trkpt>
      <trkpt lat="42.88745" lon="-0.19861">
        <ele>1656.4</ele>
        <time>2026-07-15T07:21:17Z</time>
      </trkpt>
      <trkpt lat="42.88744" lon="-0.1986">
        <ele>1656.4</ele>
        <time>2026-07-15T07:21:18Z</time>
      </trkpt>
      <trkpt lat="42.88743" lon="-0.1986">
        <ele>1656.4</ele>
        <time>2026-07-15T07:21:19Z</time>
      </trkpt>
      <trkpt lat="42.88743" lon="-0.1986">
        <ele>1656.4</ele>
        <time>2026-07-15T07:21:19Z</time>
      </trkpt>
      <trkpt lat="42.88742" lon="-0.19859">
        <ele>1656.4</ele>
        <time>2026-07-15T07:21:20Z</time>
      </trkpt>
      <trkpt lat="42.88741" lon="-0.19859">
        <ele>1656.4</ele>
        <time>2026-07-15T07:21:21Z</time>
      </trkpt>
      <trkpt lat="42.88741" lon="-0.19858">
        <ele>1656.4</ele>
        <time>2026-07-15T07:21:21Z</time>
      </trkpt>
      <trkpt lat="42.8874" lon="-0.19858">
        <ele>1656.4</ele>
        <time>2026-07-15T07:21:22Z</time>
      </trkpt>
      <trkpt lat="42.88739" lon="-0.19857">
        <ele>1657.4</ele>
        <time>2026-07-15T07:21:22Z</time>
      </trkpt>
      <trkpt lat="42.88739" lon="-0.19857">
        <ele>1657.4</ele>
        <time>2026-07-15T07:21:23Z</time>
      </trkpt>
      <trkpt lat="42.88738" lon="-0.19857">
        <ele>1656.4</ele>
        <time>2026-07-15T07:21:24Z</time>
      </trkpt>
      <trkpt lat="42.88737" lon="-0.19857">
        <ele>1657.4</ele>
        <time>2026-07-15T07:21:24Z</time>
      </trkpt>
      <trkpt lat="42.88736" lon="-0.19857">
        <ele>1657.4</ele>
        <time>2026-07-15T07:21:25Z</time>
      </trkpt>
      <trkpt lat="42.88736" lon="-0.19858">
        <ele>1657.4</ele>
        <time>2026-07-15T07:21:26Z</time>
      </trkpt>
      <trkpt lat="42.88735" lon="-0.19858">
        <ele>1656.4</ele>
        <time>2026-07-15T07:21:26Z</time>
      </trkpt>
      <trkpt lat="42.88734" lon="-0.19858">
        <ele>1656.4</ele>
        <time>2026-07-15T07:21:27Z</time>
      </trkpt>
      <trkpt lat="42.88734" lon="-0.19858">
        <ele>1657.4</ele>
        <time>2026-07-15T07:21:28Z</time>
      </trkpt>
      <trkpt lat="42.88733" lon="-0.19857">
        <ele>1657.4</ele>
        <time>2026-07-15T07:21:28Z</time>
      </trkpt>
      <trkpt lat="42.88733" lon="-0.19857">
        <ele>1657.4</ele>
        <time>2026-07-15T07:21:29Z</time>
      </trkpt>
      <trkpt lat="42.88732" lon="-0.19856">
        <ele>1657.4</ele>
        <time>2026-07-15T07:21:30Z</time>
      </trkpt>
      <trkpt lat="42.88732" lon="-0.19856">
        <ele>1657.4</ele>
        <time>2026-07-15T07:21:30Z</time>
      </trkpt>
      <trkpt lat="42.88731" lon="-0.19855">
        <ele>1657.4</ele>
        <time>2026-07-15T07:21:31Z</time>
      </trkpt>
      <trkpt lat="42.88731" lon="-0.19855">
        <ele>1657.4</ele>
        <time>2026-07-15T07:21:32Z</time>
      </trkpt>
      <trkpt lat="42.8873" lon="-0.19854">
        <ele>1657.4</ele>
        <time>2026-07-15T07:21:32Z</time>
      </trkpt>
      <trkpt lat="42.8873" lon="-0.19854">
        <ele>1657.4</ele>
        <time>2026-07-15T07:21:33Z</time>
      </trkpt>
      <trkpt lat="42.88729" lon="-0.19854">
        <ele>1657.4</ele>
        <time>2026-07-15T07:21:34Z</time>
      </trkpt>
      <trkpt lat="42.88729" lon="-0.19854">
        <ele>1657.4</ele>
        <time>2026-07-15T07:21:34Z</time>
      </trkpt>
      <trkpt lat="42.88728" lon="-0.19854">
        <ele>1657.4</ele>
        <time>2026-07-15T07:21:35Z</time>
      </trkpt>
      <trkpt lat="42.88728" lon="-0.19853">
        <ele>1657.4</ele>
        <time>2026-07-15T07:21:36Z</time>
      </trkpt>
      <trkpt lat="42.88727" lon="-0.19853">
        <ele>1656.4</ele>
        <time>2026-07-15T07:21:36Z</time>
      </trkpt>
      <trkpt lat="42.88727" lon="-0.19853">
        <ele>1656.4</ele>
        <time>2026-07-15T07:21:37Z</time>
      </trkpt>
      <trkpt lat="42.88726" lon="-0.19853">
        <ele>1657.4</ele>
        <time>2026-07-15T07:21:38Z</time>
      </trkpt>
      <trkpt lat="42.88726" lon="-0.19853">
        <ele>1657.4</ele>
        <time>2026-07-15T07:21:38Z</time>
      </trkpt>
      <trkpt lat="42.88725" lon="-0.19853">
        <ele>1657.4</ele>
        <time>2026-07-15T07:21:39Z</time>
      </trkpt>
      <trkpt lat="42.88725" lon="-0.19853">
        <ele>1657.4</ele>
        <time>2026-07-15T07:21:40Z</time>
      </trkpt>
      <trkpt lat="42.88724" lon="-0.19853">
        <ele>1657.4</ele>
        <time>2026-07-15T07:21:40Z</time>
      </trkpt>
      <trkpt lat="42.88724" lon="-0.19852">
        <ele>1657.4</ele>
        <time>2026-07-15T07:21:41Z</time>
      </trkpt>
      <trkpt lat="42.88723" lon="-0.19851">
        <ele>1657.4</ele>
        <time>2026-07-15T07:21:42Z</time>
      </trkpt>
      <trkpt lat="42.88723" lon="-0.19851">
        <ele>1657.4</ele>
        <time>2026-07-15T07:21:43Z</time>
      </trkpt>
      <trkpt lat="42.88723" lon="-0.1985">
        <ele>1656.4</ele>
        <time>2026-07-15T07:21:44Z</time>
      </trkpt>
      <trkpt lat="42.88722" lon="-0.1985">
        <ele>1656.4</ele>
        <time>2026-07-15T07:21:44Z</time>
      </trkpt>
      <trkpt lat="42.88722" lon="-0.19849">
        <ele>1656.4</ele>
        <time>2026-07-15T07:21:45Z</time>
      </trkpt>
      <trkpt lat="42.88722" lon="-0.19848">
        <ele>1657.4</ele>
        <time>2026-07-15T07:21:46Z</time>
      </trkpt>
      <trkpt lat="42.88721" lon="-0.19848">
        <ele>1656.4</ele>
        <time>2026-07-15T07:21:47Z</time>
      </trkpt>
      <trkpt lat="42.88721" lon="-0.19847">
        <ele>1656.4</ele>
        <time>2026-07-15T07:21:47Z</time>
      </trkpt>
      <trkpt lat="42.88721" lon="-0.19847">
        <ele>1657.4</ele>
        <time>2026-07-15T07:21:48Z</time>
      </trkpt>
      <trkpt lat="42.88721" lon="-0.19846">
        <ele>1657.4</ele>
        <time>2026-07-15T07:21:49Z</time>
      </trkpt>
      <trkpt lat="42.88721" lon="-0.19846">
        <ele>1658.4</ele>
        <time>2026-07-15T07:21:50Z</time>
      </trkpt>
      <trkpt lat="42.88721" lon="-0.19845">
        <ele>1658.4</ele>
        <time>2026-07-15T07:21:51Z</time>
      </trkpt>
      <trkpt lat="42.88721" lon="-0.19844">
        <ele>1659.4</ele>
        <time>2026-07-15T07:21:51Z</time>
      </trkpt>
      <trkpt lat="42.88722" lon="-0.19843">
        <ele>1658.4</ele>
        <time>2026-07-15T07:21:52Z</time>
      </trkpt>
      <trkpt lat="42.88722" lon="-0.19842">
        <ele>1659.4</ele>
        <time>2026-07-15T07:21:53Z</time>
      </trkpt>
      <trkpt lat="42.88722" lon="-0.19841">
        <ele>1659.4</ele>
        <time>2026-07-15T07:21:54Z</time>
      </trkpt>
      <trkpt lat="42.88722" lon="-0.19841">
        <ele>1660.4</ele>
        <time>2026-07-15T07:21:55Z</time>
      </trkpt>
      <trkpt lat="42.88722" lon="-0.1984">
        <ele>1660.4</ele>
        <time>2026-07-15T07:21:56Z</time>
      </trkpt>
      <trkpt lat="42.88722" lon="-0.1984">
        <ele>1660.4</ele>
        <time>2026-07-15T07:21:56Z</time>
      </trkpt>
      <trkpt lat="42.88722" lon="-0.19839">
        <ele>1661.4</ele>
        <time>2026-07-15T07:21:57Z</time>
      </trkpt>
      <trkpt lat="42.88722" lon="-0.19839">
        <ele>1661.4</ele>
        <time>2026-07-15T07:21:58Z</time>
      </trkpt>
      <trkpt lat="42.88721" lon="-0.19838">
        <ele>1661.4</ele>
        <time>2026-07-15T07:21:59Z</time>
      </trkpt>
      <trkpt lat="42.88721" lon="-0.19838">
        <ele>1661.4</ele>
        <time>2026-07-15T07:21:59Z</time>
      </trkpt>
      <trkpt lat="42.8872" lon="-0.19838">
        <ele>1661.4</ele>
        <time>2026-07-15T07:22:00Z</time>
      </trkpt>
      <trkpt lat="42.88719" lon="-0.19838">
        <ele>1661.4</ele>
        <time>2026-07-15T07:22:01Z</time>
      </trkpt>
      <trkpt lat="42.88719" lon="-0.19838">
        <ele>1661.4</ele>
        <time>2026-07-15T07:22:02Z</time>
      </trkpt>
      <trkpt lat="42.88718" lon="-0.19837">
        <ele>1661.4</ele>
        <time>2026-07-15T07:22:03Z</time>
      </trkpt>
      <trkpt lat="42.88718" lon="-0.19837">
        <ele>1662.4</ele>
        <time>2026-07-15T07:22:03Z</time>
      </trkpt>
      <trkpt lat="42.88718" lon="-0.19837">
        <ele>1662.4</ele>
        <time>2026-07-15T07:22:04Z</time>
      </trkpt>
      <trkpt lat="42.88717" lon="-0.19837">
        <ele>1661.4</ele>
        <time>2026-07-15T07:22:05Z</time>
      </trkpt>
      <trkpt lat="42.88717" lon="-0.19836">
        <ele>1661.4</ele>
        <time>2026-07-15T07:22:06Z</time>
      </trkpt>
      <trkpt lat="42.88716" lon="-0.19835">
        <ele>1661.4</ele>
        <time>2026-07-15T07:22:07Z</time>
      </trkpt>
      <trkpt lat="42.88716" lon="-0.19835">
        <ele>1661.4</ele>
        <time>2026-07-15T07:22:08Z</time>
      </trkpt>
      <trkpt lat="42.88716" lon="-0.19834">
        <ele>1664.4</ele>
        <time>2026-07-15T07:22:09Z</time>
      </trkpt>
      <trkpt lat="42.88717" lon="-0.19834">
        <ele>1663.4</ele>
        <time>2026-07-15T07:22:09Z</time>
      </trkpt>
      <trkpt lat="42.88717" lon="-0.19833">
        <ele>1663.4</ele>
        <time>2026-07-15T07:22:10Z</time>
      </trkpt>
      <trkpt lat="42.88716" lon="-0.19832">
        <ele>1663.4</ele>
        <time>2026-07-15T07:22:11Z</time>
      </trkpt>
      <trkpt lat="42.88716" lon="-0.19832">
        <ele>1663.4</ele>
        <time>2026-07-15T07:22:12Z</time>
      </trkpt>
      <trkpt lat="42.88716" lon="-0.19831">
        <ele>1664.4</ele>
        <time>2026-07-15T07:22:12Z</time>
      </trkpt>
      <trkpt lat="42.88716" lon="-0.19831">
        <ele>1664.4</ele>
        <time>2026-07-15T07:22:13Z</time>
      </trkpt>
      <trkpt lat="42.88716" lon="-0.1983">
        <ele>1664.4</ele>
        <time>2026-07-15T07:22:14Z</time>
      </trkpt>
      <trkpt lat="42.88715" lon="-0.1983">
        <ele>1663.4</ele>
        <time>2026-07-15T07:22:15Z</time>
      </trkpt>
      <trkpt lat="42.88715" lon="-0.1983">
        <ele>1663.4</ele>
        <time>2026-07-15T07:22:16Z</time>
      </trkpt>
      <trkpt lat="42.88715" lon="-0.19829">
        <ele>1663.4</ele>
        <time>2026-07-15T07:22:17Z</time>
      </trkpt>
      <trkpt lat="42.88715" lon="-0.19829">
        <ele>1663.4</ele>
        <time>2026-07-15T07:22:17Z</time>
      </trkpt>
      <trkpt lat="42.88714" lon="-0.19828">
        <ele>1663.4</ele>
        <time>2026-07-15T07:22:18Z</time>
      </trkpt>
      <trkpt lat="42.88714" lon="-0.19828">
        <ele>1662.4</ele>
        <time>2026-07-15T07:22:19Z</time>
      </trkpt>
      <trkpt lat="42.88714" lon="-0.19828">
        <ele>1662.4</ele>
        <time>2026-07-15T07:22:20Z</time>
      </trkpt>
      <trkpt lat="42.88713" lon="-0.19828">
        <ele>1663.4</ele>
        <time>2026-07-15T07:22:20Z</time>
      </trkpt>
      <trkpt lat="42.88713" lon="-0.19827">
        <ele>1663.4</ele>
        <time>2026-07-15T07:22:21Z</time>
      </trkpt>
      <trkpt lat="42.88712" lon="-0.19827">
        <ele>1663.4</ele>
        <time>2026-07-15T07:22:22Z</time>
      </trkpt>
      <trkpt lat="42.88712" lon="-0.19827">
        <ele>1663.4</ele>
        <time>2026-07-15T07:22:23Z</time>
      </trkpt>
      <trkpt lat="42.88712" lon="-0.19827">
        <ele>1663.4</ele>
        <time>2026-07-15T07:22:24Z</time>
      </trkpt>
      <trkpt lat="42.88712" lon="-0.19827">
        <ele>1663.4</ele>
        <time>2026-07-15T07:22:25Z</time>
      </trkpt>
      <trkpt lat="42.88712" lon="-0.19827">
        <ele>1663.4</ele>
        <time>2026-07-15T07:22:25Z</time>
      </trkpt>
      <trkpt lat="42.88712" lon="-0.19827">
        <ele>1662.4</ele>
        <time>2026-07-15T07:22:26Z</time>
      </trkpt>
      <trkpt lat="42.88712" lon="-0.19826">
        <ele>1663.4</ele>
        <time>2026-07-15T07:22:27Z</time>
      </trkpt>
      <trkpt lat="42.88711" lon="-0.19826">
        <ele>1663.4</ele>
        <time>2026-07-15T07:22:28Z</time>
      </trkpt>
      <trkpt lat="42.88711" lon="-0.19825">
        <ele>1663.4</ele>
        <time>2026-07-15T07:22:29Z</time>
      </trkpt>
      <trkpt lat="42.88711" lon="-0.19825">
        <ele>1664.4</ele>
        <time>2026-07-15T07:22:30Z</time>
      </trkpt>
      <trkpt lat="42.8871" lon="-0.19824">
        <ele>1664.4</ele>
        <time>2026-07-15T07:22:31Z</time>
      </trkpt>
      <trkpt lat="42.8871" lon="-0.19823">
        <ele>1663.4</ele>
        <time>2026-07-15T07:22:31Z</time>
      </trkpt>
      <trkpt lat="42.8871" lon="-0.19823">
        <ele>1663.4</ele>
        <time>2026-07-15T07:22:32Z</time>
      </trkpt>
      <trkpt lat="42.8871" lon="-0.19822">
        <ele>1663.4</ele>
        <time>2026-07-15T07:22:33Z</time>
      </trkpt>
      <trkpt lat="42.8871" lon="-0.19821">
        <ele>1664.4</ele>
        <time>2026-07-15T07:22:34Z</time>
      </trkpt>
      <trkpt lat="42.8871" lon="-0.1982">
        <ele>1664.4</ele>
        <time>2026-07-15T07:22:35Z</time>
      </trkpt>
      <trkpt lat="42.88709" lon="-0.1982">
        <ele>1665.4</ele>
        <time>2026-07-15T07:22:35Z</time>
      </trkpt>
      <trkpt lat="42.88709" lon="-0.19819">
        <ele>1665.4</ele>
        <time>2026-07-15T07:22:36Z</time>
      </trkpt>
      <trkpt lat="42.88709" lon="-0.19818">
        <ele>1665.4</ele>
        <time>2026-07-15T07:22:37Z</time>
      </trkpt>
      <trkpt lat="42.88708" lon="-0.19818">
        <ele>1665.4</ele>
        <time>2026-07-15T07:22:38Z</time>
      </trkpt>
      <trkpt lat="42.88708" lon="-0.19817">
        <ele>1665.4</ele>
        <time>2026-07-15T07:22:39Z</time>
      </trkpt>
      <trkpt lat="42.88707" lon="-0.19816">
        <ele>1665.4</ele>
        <time>2026-07-15T07:22:39Z</time>
      </trkpt>
      <trkpt lat="42.88707" lon="-0.19816">
        <ele>1666.4</ele>
        <time>2026-07-15T07:22:40Z</time>
      </trkpt>
      <trkpt lat="42.88707" lon="-0.19815">
        <ele>1665.4</ele>
        <time>2026-07-15T07:22:41Z</time>
      </trkpt>
      <trkpt lat="42.88706" lon="-0.19815">
        <ele>1665.4</ele>
        <time>2026-07-15T07:22:42Z</time>
      </trkpt>
      <trkpt lat="42.88706" lon="-0.19814">
        <ele>1666.4</ele>
        <time>2026-07-15T07:22:43Z</time>
      </trkpt>
      <trkpt lat="42.88706" lon="-0.19813">
        <ele>1666.4</ele>
        <time>2026-07-15T07:22:44Z</time>
      </trkpt>
      <trkpt lat="42.88705" lon="-0.19813">
        <ele>1667.4</ele>
        <time>2026-07-15T07:22:44Z</time>
      </trkpt>
      <trkpt lat="42.88705" lon="-0.19813">
        <ele>1666.4</ele>
        <time>2026-07-15T07:22:45Z</time>
      </trkpt>
      <trkpt lat="42.88704" lon="-0.19812">
        <ele>1666.4</ele>
        <time>2026-07-15T07:22:46Z</time>
      </trkpt>
      <trkpt lat="42.88704" lon="-0.19812">
        <ele>1666.4</ele>
        <time>2026-07-15T07:22:47Z</time>
      </trkpt>
      <trkpt lat="42.88703" lon="-0.19811">
        <ele>1667.4</ele>
        <time>2026-07-15T07:22:48Z</time>
      </trkpt>
      <trkpt lat="42.88703" lon="-0.19811">
        <ele>1667.4</ele>
        <time>2026-07-15T07:22:49Z</time>
      </trkpt>
      <trkpt lat="42.88703" lon="-0.19811">
        <ele>1667.4</ele>
        <time>2026-07-15T07:22:49Z</time>
      </trkpt>
      <trkpt lat="42.88702" lon="-0.1981">
        <ele>1667.4</ele>
        <time>2026-07-15T07:22:50Z</time>
      </trkpt>
      <trkpt lat="42.88702" lon="-0.1981">
        <ele>1667.4</ele>
        <time>2026-07-15T07:22:51Z</time>
      </trkpt>
      <trkpt lat="42.88701" lon="-0.1981">
        <ele>1667.4</ele>
        <time>2026-07-15T07:22:52Z</time>
      </trkpt>
      <trkpt lat="42.88701" lon="-0.1981">
        <ele>1667.4</ele>
        <time>2026-07-15T07:22:53Z</time>
      </trkpt>
      <trkpt lat="42.88701" lon="-0.1981">
        <ele>1668.4</ele>
        <time>2026-07-15T07:22:53Z</time>
      </trkpt>
      <trkpt lat="42.887" lon="-0.1981">
        <ele>1668.4</ele>
        <time>2026-07-15T07:22:54Z</time>
      </trkpt>
      <trkpt lat="42.88699" lon="-0.19809">
        <ele>1669.4</ele>
        <time>2026-07-15T07:22:55Z</time>
      </trkpt>
      <trkpt lat="42.88699" lon="-0.19809">
        <ele>1669.4</ele>
        <time>2026-07-15T07:22:56Z</time>
      </trkpt>
      <trkpt lat="42.88698" lon="-0.19808">
        <ele>1669.4</ele>
        <time>2026-07-15T07:22:57Z</time>
      </trkpt>
      <trkpt lat="42.88697" lon="-0.19808">
        <ele>1670.4</ele>
        <time>2026-07-15T07:22:58Z</time>
      </trkpt>
      <trkpt lat="42.88697" lon="-0.19808">
        <ele>1670.4</ele>
        <time>2026-07-15T07:22:58Z</time>
      </trkpt>
      <trkpt lat="42.88697" lon="-0.19808">
        <ele>1670.4</ele>
        <time>2026-07-15T07:22:59Z</time>
      </trkpt>
      <trkpt lat="42.88696" lon="-0.19808">
        <ele>1670.4</ele>
        <time>2026-07-15T07:22:59Z</time>
      </trkpt>
      <trkpt lat="42.88696" lon="-0.19808">
        <ele>1670.4</ele>
        <time>2026-07-15T07:23:00Z</time>
      </trkpt>
      <trkpt lat="42.88695" lon="-0.19808">
        <ele>1670.4</ele>
        <time>2026-07-15T07:23:01Z</time>
      </trkpt>
      <trkpt lat="42.88694" lon="-0.19808">
        <ele>1669.4</ele>
        <time>2026-07-15T07:23:02Z</time>
      </trkpt>
      <trkpt lat="42.88694" lon="-0.19808">
        <ele>1669.4</ele>
        <time>2026-07-15T07:23:03Z</time>
      </trkpt>
      <trkpt lat="42.88694" lon="-0.19808">
        <ele>1670.4</ele>
        <time>2026-07-15T07:23:04Z</time>
      </trkpt>
      <trkpt lat="42.88693" lon="-0.19809">
        <ele>1670.4</ele>
        <time>2026-07-15T07:23:04Z</time>
      </trkpt>
      <trkpt lat="42.88693" lon="-0.19809">
        <ele>1670.4</ele>
        <time>2026-07-15T07:23:05Z</time>
      </trkpt>
      <trkpt lat="42.88693" lon="-0.19808">
        <ele>1670.4</ele>
        <time>2026-07-15T07:23:06Z</time>
      </trkpt>
      <trkpt lat="42.88692" lon="-0.19808">
        <ele>1670.4</ele>
        <time>2026-07-15T07:23:07Z</time>
      </trkpt>
      <trkpt lat="42.88692" lon="-0.19808">
        <ele>1671.4</ele>
        <time>2026-07-15T07:23:08Z</time>
      </trkpt>
      <trkpt lat="42.88692" lon="-0.19808">
        <ele>1671.4</ele>
        <time>2026-07-15T07:23:09Z</time>
      </trkpt>
      <trkpt lat="42.88692" lon="-0.19807">
        <ele>1672.4</ele>
        <time>2026-07-15T07:23:09Z</time>
      </trkpt>
      <trkpt lat="42.88692" lon="-0.19807">
        <ele>1672.4</ele>
        <time>2026-07-15T07:23:10Z</time>
      </trkpt>
      <trkpt lat="42.88691" lon="-0.19807">
        <ele>1672.4</ele>
        <time>2026-07-15T07:23:11Z</time>
      </trkpt>
      <trkpt lat="42.88691" lon="-0.19806">
        <ele>1673.4</ele>
        <time>2026-07-15T07:23:12Z</time>
      </trkpt>
      <trkpt lat="42.88691" lon="-0.19806">
        <ele>1673.4</ele>
        <time>2026-07-15T07:23:13Z</time>
      </trkpt>
      <trkpt lat="42.8869" lon="-0.19806">
        <ele>1674.4</ele>
        <time>2026-07-15T07:23:14Z</time>
      </trkpt>
      <trkpt lat="42.8869" lon="-0.19805">
        <ele>1674.4</ele>
        <time>2026-07-15T07:23:15Z</time>
      </trkpt>
      <trkpt lat="42.88689" lon="-0.19805">
        <ele>1674.4</ele>
        <time>2026-07-15T07:23:16Z</time>
      </trkpt>
      <trkpt lat="42.88689" lon="-0.19804">
        <ele>1674.4</ele>
        <time>2026-07-15T07:23:17Z</time>
      </trkpt>
      <trkpt lat="42.88688" lon="-0.19804">
        <ele>1674.4</ele>
        <time>2026-07-15T07:23:18Z</time>
      </trkpt>
      <trkpt lat="42.88688" lon="-0.19804">
        <ele>1674.4</ele>
        <time>2026-07-15T07:23:19Z</time>
      </trkpt>
      <trkpt lat="42.88687" lon="-0.19804">
        <ele>1675.4</ele>
        <time>2026-07-15T07:23:20Z</time>
      </trkpt>
      <trkpt lat="42.88687" lon="-0.19803">
        <ele>1676.4</ele>
        <time>2026-07-15T07:23:20Z</time>
      </trkpt>
      <trkpt lat="42.88686" lon="-0.19803">
        <ele>1676.4</ele>
        <time>2026-07-15T07:23:21Z</time>
      </trkpt>
      <trkpt lat="42.88686" lon="-0.19802">
        <ele>1676.4</ele>
        <time>2026-07-15T07:23:22Z</time>
      </trkpt>
      <trkpt lat="42.88685" lon="-0.19802">
        <ele>1677.4</ele>
        <time>2026-07-15T07:23:23Z</time>
      </trkpt>
      <trkpt lat="42.88685" lon="-0.19801">
        <ele>1677.4</ele>
        <time>2026-07-15T07:23:24Z</time>
      </trkpt>
      <trkpt lat="42.88685" lon="-0.19801">
        <ele>1677.4</ele>
        <time>2026-07-15T07:23:24Z</time>
      </trkpt>
      <trkpt lat="42.88684" lon="-0.19801">
        <ele>1677.4</ele>
        <time>2026-07-15T07:23:25Z</time>
      </trkpt>
      <trkpt lat="42.88684" lon="-0.198">
        <ele>1677.4</ele>
        <time>2026-07-15T07:23:26Z</time>
      </trkpt>
      <trkpt lat="42.88683" lon="-0.198">
        <ele>1676.4</ele>
        <time>2026-07-15T07:23:27Z</time>
      </trkpt>
      <trkpt lat="42.88683" lon="-0.198">
        <ele>1676.4</ele>
        <time>2026-07-15T07:23:28Z</time>
      </trkpt>
      <trkpt lat="42.88683" lon="-0.198">
        <ele>1676.4</ele>
        <time>2026-07-15T07:23:28Z</time>
      </trkpt>
      <trkpt lat="42.88682" lon="-0.19799">
        <ele>1676.4</ele>
        <time>2026-07-15T07:23:29Z</time>
      </trkpt>
      <trkpt lat="42.88682" lon="-0.19799">
        <ele>1677.4</ele>
        <time>2026-07-15T07:23:30Z</time>
      </trkpt>
      <trkpt lat="42.88681" lon="-0.19798">
        <ele>1677.4</ele>
        <time>2026-07-15T07:23:31Z</time>
      </trkpt>
      <trkpt lat="42.88681" lon="-0.19797">
        <ele>1677.4</ele>
        <time>2026-07-15T07:23:32Z</time>
      </trkpt>
      <trkpt lat="42.8868" lon="-0.19797">
        <ele>1677.4</ele>
        <time>2026-07-15T07:23:33Z</time>
      </trkpt>
      <trkpt lat="42.8868" lon="-0.19797">
        <ele>1677.4</ele>
        <time>2026-07-15T07:23:34Z</time>
      </trkpt>
      <trkpt lat="42.8868" lon="-0.19797">
        <ele>1677.4</ele>
        <time>2026-07-15T07:23:34Z</time>
      </trkpt>
      <trkpt lat="42.88679" lon="-0.19796">
        <ele>1677.4</ele>
        <time>2026-07-15T07:23:35Z</time>
      </trkpt>
      <trkpt lat="42.88678" lon="-0.19796">
        <ele>1678.4</ele>
        <time>2026-07-15T07:23:36Z</time>
      </trkpt>
      <trkpt lat="42.88678" lon="-0.19796">
        <ele>1678.4</ele>
        <time>2026-07-15T07:23:37Z</time>
      </trkpt>
      <trkpt lat="42.88678" lon="-0.19796">
        <ele>1678.4</ele>
        <time>2026-07-15T07:23:38Z</time>
      </trkpt>
      <trkpt lat="42.88678" lon="-0.19795">
        <ele>1678.4</ele>
        <time>2026-07-15T07:23:39Z</time>
      </trkpt>
      <trkpt lat="42.88677" lon="-0.19794">
        <ele>1678.4</ele>
        <time>2026-07-15T07:23:40Z</time>
      </trkpt>
      <trkpt lat="42.88677" lon="-0.19794">
        <ele>1678.4</ele>
        <time>2026-07-15T07:23:41Z</time>
      </trkpt>
      <trkpt lat="42.88677" lon="-0.19794">
        <ele>1678.4</ele>
        <time>2026-07-15T07:23:42Z</time>
      </trkpt>
      <trkpt lat="42.88676" lon="-0.19793">
        <ele>1677.4</ele>
        <time>2026-07-15T07:23:43Z</time>
      </trkpt>
      <trkpt lat="42.88676" lon="-0.19793">
        <ele>1676.4</ele>
        <time>2026-07-15T07:23:44Z</time>
      </trkpt>
      <trkpt lat="42.88676" lon="-0.19792">
        <ele>1676.4</ele>
        <time>2026-07-15T07:23:44Z</time>
      </trkpt>
      <trkpt lat="42.88676" lon="-0.19792">
        <ele>1676.4</ele>
        <time>2026-07-15T07:23:45Z</time>
      </trkpt>
      <trkpt lat="42.88676" lon="-0.19792">
        <ele>1676.4</ele>
        <time>2026-07-15T07:23:46Z</time>
      </trkpt>
      <trkpt lat="42.88675" lon="-0.19791">
        <ele>1677.4</ele>
        <time>2026-07-15T07:23:47Z</time>
      </trkpt>
      <trkpt lat="42.88675" lon="-0.19792">
        <ele>1677.4</ele>
        <time>2026-07-15T07:23:48Z</time>
      </trkpt>
      <trkpt lat="42.88675" lon="-0.19792">
        <ele>1677.4</ele>
        <time>2026-07-15T07:23:49Z</time>
      </trkpt>
      <trkpt lat="42.88675" lon="-0.19792">
        <ele>1677.4</ele>
        <time>2026-07-15T07:23:49Z</time>
      </trkpt>
      <trkpt lat="42.88675" lon="-0.19792">
        <ele>1677.4</ele>
        <time>2026-07-15T07:23:50Z</time>
      </trkpt>
      <trkpt lat="42.88675" lon="-0.19791">
        <ele>1675.4</ele>
        <time>2026-07-15T07:23:51Z</time>
      </trkpt>
      <trkpt lat="42.88674" lon="-0.19791">
        <ele>1675.4</ele>
        <time>2026-07-15T07:23:52Z</time>
      </trkpt>
      <trkpt lat="42.88673" lon="-0.19791">
        <ele>1676.4</ele>
        <time>2026-07-15T07:23:53Z</time>
      </trkpt>
      <trkpt lat="42.88673" lon="-0.19791">
        <ele>1677.4</ele>
        <time>2026-07-15T07:23:54Z</time>
      </trkpt>
      <trkpt lat="42.88673" lon="-0.19791">
        <ele>1677.4</ele>
        <time>2026-07-15T07:23:55Z</time>
      </trkpt>
      <trkpt lat="42.88672" lon="-0.19791">
        <ele>1678.4</ele>
        <time>2026-07-15T07:23:56Z</time>
      </trkpt>
      <trkpt lat="42.88672" lon="-0.19791">
        <ele>1678.4</ele>
        <time>2026-07-15T07:23:56Z</time>
      </trkpt>
      <trkpt lat="42.88671" lon="-0.19791">
        <ele>1677.4</ele>
        <time>2026-07-15T07:23:57Z</time>
      </trkpt>
      <trkpt lat="42.88671" lon="-0.19791">
        <ele>1677.4</ele>
        <time>2026-07-15T07:23:58Z</time>
      </trkpt>
      <trkpt lat="42.8867" lon="-0.1979">
        <ele>1677.4</ele>
        <time>2026-07-15T07:23:59Z</time>
      </trkpt>
      <trkpt lat="42.8867" lon="-0.1979">
        <ele>1678.4</ele>
        <time>2026-07-15T07:24:00Z</time>
      </trkpt>
      <trkpt lat="42.88669" lon="-0.19789">
        <ele>1678.4</ele>
        <time>2026-07-15T07:24:01Z</time>
      </trkpt>
      <trkpt lat="42.88669" lon="-0.19789">
        <ele>1678.4</ele>
        <time>2026-07-15T07:24:01Z</time>
      </trkpt>
      <trkpt lat="42.88669" lon="-0.19789">
        <ele>1678.4</ele>
        <time>2026-07-15T07:24:02Z</time>
      </trkpt>
      <trkpt lat="42.88668" lon="-0.19789">
        <ele>1678.4</ele>
        <time>2026-07-15T07:24:03Z</time>
      </trkpt>
      <trkpt lat="42.88668" lon="-0.19789">
        <ele>1679.4</ele>
        <time>2026-07-15T07:24:04Z</time>
      </trkpt>
      <trkpt lat="42.88668" lon="-0.19789">
        <ele>1678.4</ele>
        <time>2026-07-15T07:24:05Z</time>
      </trkpt>
      <trkpt lat="42.88667" lon="-0.19789">
        <ele>1678.4</ele>
        <time>2026-07-15T07:24:06Z</time>
      </trkpt>
      <trkpt lat="42.88667" lon="-0.19789">
        <ele>1678.4</ele>
        <time>2026-07-15T07:24:06Z</time>
      </trkpt>
      <trkpt lat="42.88667" lon="-0.19789">
        <ele>1678.4</ele>
        <time>2026-07-15T07:24:07Z</time>
      </trkpt>
      <trkpt lat="42.88666" lon="-0.19789">
        <ele>1679.4</ele>
        <time>2026-07-15T07:24:08Z</time>
      </trkpt>
      <trkpt lat="42.88666" lon="-0.19789">
        <ele>1679.4</ele>
        <time>2026-07-15T07:24:09Z</time>
      </trkpt>
      <trkpt lat="42.88665" lon="-0.19789">
        <ele>1679.4</ele>
        <time>2026-07-15T07:24:10Z</time>
      </trkpt>
      <trkpt lat="42.88664" lon="-0.19789">
        <ele>1679.4</ele>
        <time>2026-07-15T07:24:11Z</time>
      </trkpt>
      <trkpt lat="42.88664" lon="-0.1979">
        <ele>1679.4</ele>
        <time>2026-07-15T07:24:12Z</time>
      </trkpt>
      <trkpt lat="42.88664" lon="-0.1979">
        <ele>1679.4</ele>
        <time>2026-07-15T07:24:12Z</time>
      </trkpt>
      <trkpt lat="42.88664" lon="-0.1979">
        <ele>1679.4</ele>
        <time>2026-07-15T07:24:13Z</time>
      </trkpt>
      <trkpt lat="42.88663" lon="-0.1979">
        <ele>1679.4</ele>
        <time>2026-07-15T07:24:14Z</time>
      </trkpt>
      <trkpt lat="42.88663" lon="-0.19789">
        <ele>1678.4</ele>
        <time>2026-07-15T07:24:15Z</time>
      </trkpt>
      <trkpt lat="42.88662" lon="-0.19789">
        <ele>1678.4</ele>
        <time>2026-07-15T07:24:16Z</time>
      </trkpt>
      <trkpt lat="42.88661" lon="-0.19789">
        <ele>1678.4</ele>
        <time>2026-07-15T07:24:17Z</time>
      </trkpt>
      <trkpt lat="42.88661" lon="-0.19789">
        <ele>1678.4</ele>
        <time>2026-07-15T07:24:18Z</time>
      </trkpt>
      <trkpt lat="42.8866" lon="-0.19789">
        <ele>1678.4</ele>
        <time>2026-07-15T07:24:19Z</time>
      </trkpt>
      <trkpt lat="42.8866" lon="-0.19788">
        <ele>1678.4</ele>
        <time>2026-07-15T07:24:20Z</time>
      </trkpt>
      <trkpt lat="42.8866" lon="-0.19788">
        <ele>1678.4</ele>
        <time>2026-07-15T07:24:21Z</time>
      </trkpt>
      <trkpt lat="42.88659" lon="-0.19788">
        <ele>1679.4</ele>
        <time>2026-07-15T07:24:21Z</time>
      </trkpt>
      <trkpt lat="42.88659" lon="-0.19788">
        <ele>1679.4</ele>
        <time>2026-07-15T07:24:22Z</time>
      </trkpt>
      <trkpt lat="42.88658" lon="-0.19789">
        <ele>1679.4</ele>
        <time>2026-07-15T07:24:23Z</time>
      </trkpt>
      <trkpt lat="42.88658" lon="-0.19789">
        <ele>1680.4</ele>
        <time>2026-07-15T07:24:24Z</time>
      </trkpt>
      <trkpt lat="42.88657" lon="-0.19789">
        <ele>1679.4</ele>
        <time>2026-07-15T07:24:24Z</time>
      </trkpt>
      <trkpt lat="42.88656" lon="-0.19788">
        <ele>1679.4</ele>
        <time>2026-07-15T07:24:25Z</time>
      </trkpt>
      <trkpt lat="42.88656" lon="-0.19787">
        <ele>1680.4</ele>
        <time>2026-07-15T07:24:26Z</time>
      </trkpt>
      <trkpt lat="42.88656" lon="-0.19787">
        <ele>1681.4</ele>
        <time>2026-07-15T07:24:27Z</time>
      </trkpt>
      <trkpt lat="42.88655" lon="-0.19786">
        <ele>1681.4</ele>
        <time>2026-07-15T07:24:28Z</time>
      </trkpt>
      <trkpt lat="42.88655" lon="-0.19786">
        <ele>1681.4</ele>
        <time>2026-07-15T07:24:29Z</time>
      </trkpt>
      <trkpt lat="42.88655" lon="-0.19786">
        <ele>1681.4</ele>
        <time>2026-07-15T07:24:30Z</time>
      </trkpt>
      <trkpt lat="42.88655" lon="-0.19786">
        <ele>1681.4</ele>
        <time>2026-07-15T07:24:31Z</time>
      </trkpt>
      <trkpt lat="42.88654" lon="-0.19785">
        <ele>1682.4</ele>
        <time>2026-07-15T07:24:32Z</time>
      </trkpt>
      <trkpt lat="42.88654" lon="-0.19785">
        <ele>1683.4</ele>
        <time>2026-07-15T07:24:33Z</time>
      </trkpt>
      <trkpt lat="42.88654" lon="-0.19785">
        <ele>1682.4</ele>
        <time>2026-07-15T07:24:33Z</time>
      </trkpt>
      <trkpt lat="42.88653" lon="-0.19785">
        <ele>1682.4</ele>
        <time>2026-07-15T07:24:34Z</time>
      </trkpt>
      <trkpt lat="42.88653" lon="-0.19785">
        <ele>1683.4</ele>
        <time>2026-07-15T07:24:34Z</time>
      </trkpt>
      <trkpt lat="42.88653" lon="-0.19784">
        <ele>1684.4</ele>
        <time>2026-07-15T07:24:35Z</time>
      </trkpt>
      <trkpt lat="42.88652" lon="-0.19784">
        <ele>1684.4</ele>
        <time>2026-07-15T07:24:36Z</time>
      </trkpt>
      <trkpt lat="42.88652" lon="-0.19784">
        <ele>1684.4</ele>
        <time>2026-07-15T07:24:37Z</time>
      </trkpt>
      <trkpt lat="42.88651" lon="-0.19783">
        <ele>1684.4</ele>
        <time>2026-07-15T07:24:38Z</time>
      </trkpt>
      <trkpt lat="42.88651" lon="-0.19783">
        <ele>1684.4</ele>
        <time>2026-07-15T07:24:39Z</time>
      </trkpt>
      <trkpt lat="42.8865" lon="-0.19782">
        <ele>1684.4</ele>
        <time>2026-07-15T07:24:39Z</time>
      </trkpt>
      <trkpt lat="42.8865" lon="-0.19782">
        <ele>1684.4</ele>
        <time>2026-07-15T07:24:40Z</time>
      </trkpt>
      <trkpt lat="42.88649" lon="-0.19781">
        <ele>1684.4</ele>
        <time>2026-07-15T07:24:41Z</time>
      </trkpt>
      <trkpt lat="42.88648" lon="-0.19781">
        <ele>1684.4</ele>
        <time>2026-07-15T07:24:42Z</time>
      </trkpt>
      <trkpt lat="42.88648" lon="-0.1978">
        <ele>1685.4</ele>
        <time>2026-07-15T07:24:43Z</time>
      </trkpt>
      <trkpt lat="42.88647" lon="-0.19779">
        <ele>1685.4</ele>
        <time>2026-07-15T07:24:43Z</time>
      </trkpt>
      <trkpt lat="42.88647" lon="-0.19778">
        <ele>1685.4</ele>
        <time>2026-07-15T07:24:44Z</time>
      </trkpt>
      <trkpt lat="42.88646" lon="-0.19777">
        <ele>1685.4</ele>
        <time>2026-07-15T07:24:45Z</time>
      </trkpt>
      <trkpt lat="42.88646" lon="-0.19777">
        <ele>1685.4</ele>
        <time>2026-07-15T07:24:46Z</time>
      </trkpt>
      <trkpt lat="42.88645" lon="-0.19776">
        <ele>1685.4</ele>
        <time>2026-07-15T07:24:47Z</time>
      </trkpt>
      <trkpt lat="42.88645" lon="-0.19776">
        <ele>1685.4</ele>
        <time>2026-07-15T07:24:48Z</time>
      </trkpt>
      <trkpt lat="42.88645" lon="-0.19775">
        <ele>1685.4</ele>
        <time>2026-07-15T07:24:48Z</time>
      </trkpt>
      <trkpt lat="42.88645" lon="-0.19775">
        <ele>1686.4</ele>
        <time>2026-07-15T07:24:49Z</time>
      </trkpt>
      <trkpt lat="42.88645" lon="-0.19775">
        <ele>1686.4</ele>
        <time>2026-07-15T07:24:50Z</time>
      </trkpt>
      <trkpt lat="42.88644" lon="-0.19774">
        <ele>1686.4</ele>
        <time>2026-07-15T07:24:51Z</time>
      </trkpt>
      <trkpt lat="42.88644" lon="-0.19774">
        <ele>1686.4</ele>
        <time>2026-07-15T07:24:52Z</time>
      </trkpt>
      <trkpt lat="42.88644" lon="-0.19774">
        <ele>1687.4</ele>
        <time>2026-07-15T07:24:52Z</time>
      </trkpt>
      <trkpt lat="42.88643" lon="-0.19773">
        <ele>1687.4</ele>
        <time>2026-07-15T07:24:53Z</time>
      </trkpt>
      <trkpt lat="42.88643" lon="-0.19773">
        <ele>1687.4</ele>
        <time>2026-07-15T07:24:54Z</time>
      </trkpt>
      <trkpt lat="42.88642" lon="-0.19772">
        <ele>1687.4</ele>
        <time>2026-07-15T07:24:55Z</time>
      </trkpt>
      <trkpt lat="42.88642" lon="-0.19772">
        <ele>1688.4</ele>
        <time>2026-07-15T07:24:55Z</time>
      </trkpt>
      <trkpt lat="42.88642" lon="-0.19772">
        <ele>1688.4</ele>
        <time>2026-07-15T07:24:56Z</time>
      </trkpt>
      <trkpt lat="42.88641" lon="-0.19772">
        <ele>1688.4</ele>
        <time>2026-07-15T07:24:57Z</time>
      </trkpt>
      <trkpt lat="42.8864" lon="-0.19773">
        <ele>1687.4</ele>
        <time>2026-07-15T07:24:58Z</time>
      </trkpt>
      <trkpt lat="42.88639" lon="-0.19773">
        <ele>1686.4</ele>
        <time>2026-07-15T07:24:59Z</time>
      </trkpt>
      <trkpt lat="42.88639" lon="-0.19774">
        <ele>1686.4</ele>
        <time>2026-07-15T07:24:59Z</time>
      </trkpt>
      <trkpt lat="42.88638" lon="-0.19774">
        <ele>1685.4</ele>
        <time>2026-07-15T07:25:00Z</time>
      </trkpt>
      <trkpt lat="42.88638" lon="-0.19775">
        <ele>1685.4</ele>
        <time>2026-07-15T07:25:01Z</time>
      </trkpt>
      <trkpt lat="42.88637" lon="-0.19776">
        <ele>1686.4</ele>
        <time>2026-07-15T07:25:02Z</time>
      </trkpt>
      <trkpt lat="42.88637" lon="-0.19776">
        <ele>1686.4</ele>
        <time>2026-07-15T07:25:03Z</time>
      </trkpt>
      <trkpt lat="42.88637" lon="-0.19776">
        <ele>1687.4</ele>
        <time>2026-07-15T07:25:03Z</time>
      </trkpt>
      <trkpt lat="42.88636" lon="-0.19776">
        <ele>1687.4</ele>
        <time>2026-07-15T07:25:04Z</time>
      </trkpt>
      <trkpt lat="42.88635" lon="-0.19776">
        <ele>1687.4</ele>
        <time>2026-07-15T07:25:05Z</time>
      </trkpt>
      <trkpt lat="42.88635" lon="-0.19776">
        <ele>1686.4</ele>
        <time>2026-07-15T07:25:06Z</time>
      </trkpt>
      <trkpt lat="42.88634" lon="-0.19776">
        <ele>1686.4</ele>
        <time>2026-07-15T07:25:07Z</time>
      </trkpt>
      <trkpt lat="42.88634" lon="-0.19775">
        <ele>1688.4</ele>
        <time>2026-07-15T07:25:07Z</time>
      </trkpt>
      <trkpt lat="42.88634" lon="-0.19775">
        <ele>1689.4</ele>
        <time>2026-07-15T07:25:08Z</time>
      </trkpt>
      <trkpt lat="42.88633" lon="-0.19775">
        <ele>1689.4</ele>
        <time>2026-07-15T07:25:09Z</time>
      </trkpt>
      <trkpt lat="42.88633" lon="-0.19774">
        <ele>1689.4</ele>
        <time>2026-07-15T07:25:10Z</time>
      </trkpt>
      <trkpt lat="42.88632" lon="-0.19774">
        <ele>1689.4</ele>
        <time>2026-07-15T07:25:11Z</time>
      </trkpt>
      <trkpt lat="42.88632" lon="-0.19773">
        <ele>1690.4</ele>
        <time>2026-07-15T07:25:11Z</time>
      </trkpt>
      <trkpt lat="42.88632" lon="-0.19773">
        <ele>1690.4</ele>
        <time>2026-07-15T07:25:12Z</time>
      </trkpt>
      <trkpt lat="42.88631" lon="-0.19772">
        <ele>1689.4</ele>
        <time>2026-07-15T07:25:13Z</time>
      </trkpt>
      <trkpt lat="42.88631" lon="-0.19771">
        <ele>1689.4</ele>
        <time>2026-07-15T07:25:14Z</time>
      </trkpt>
      <trkpt lat="42.88631" lon="-0.19771">
        <ele>1689.4</ele>
        <time>2026-07-15T07:25:15Z</time>
      </trkpt>
      <trkpt lat="42.8863" lon="-0.1977">
        <ele>1689.4</ele>
        <time>2026-07-15T07:25:16Z</time>
      </trkpt>
      <trkpt lat="42.8863" lon="-0.19769">
        <ele>1690.4</ele>
        <time>2026-07-15T07:25:16Z</time>
      </trkpt>
      <trkpt lat="42.8863" lon="-0.19769">
        <ele>1690.4</ele>
        <time>2026-07-15T07:25:17Z</time>
      </trkpt>
      <trkpt lat="42.88629" lon="-0.19769">
        <ele>1691.4</ele>
        <time>2026-07-15T07:25:18Z</time>
      </trkpt>
      <trkpt lat="42.88629" lon="-0.19769">
        <ele>1691.4</ele>
        <time>2026-07-15T07:25:19Z</time>
      </trkpt>
      <trkpt lat="42.88628" lon="-0.19768">
        <ele>1690.4</ele>
        <time>2026-07-15T07:25:20Z</time>
      </trkpt>
      <trkpt lat="42.88628" lon="-0.19768">
        <ele>1690.4</ele>
        <time>2026-07-15T07:25:20Z</time>
      </trkpt>
      <trkpt lat="42.88627" lon="-0.19768">
        <ele>1690.4</ele>
        <time>2026-07-15T07:25:21Z</time>
      </trkpt>
      <trkpt lat="42.88627" lon="-0.19768">
        <ele>1690.4</ele>
        <time>2026-07-15T07:25:22Z</time>
      </trkpt>
      <trkpt lat="42.88627" lon="-0.19768">
        <ele>1692.4</ele>
        <time>2026-07-15T07:25:23Z</time>
      </trkpt>
      <trkpt lat="42.88626" lon="-0.19768">
        <ele>1692.4</ele>
        <time>2026-07-15T07:25:24Z</time>
      </trkpt>
      <trkpt lat="42.88626" lon="-0.19768">
        <ele>1692.4</ele>
        <time>2026-07-15T07:25:24Z</time>
      </trkpt>
      <trkpt lat="42.88626" lon="-0.19769">
        <ele>1692.4</ele>
        <time>2026-07-15T07:25:25Z</time>
      </trkpt>
      <trkpt lat="42.88625" lon="-0.19769">
        <ele>1692.4</ele>
        <time>2026-07-15T07:25:26Z</time>
      </trkpt>
      <trkpt lat="42.88625" lon="-0.19769">
        <ele>1692.4</ele>
        <time>2026-07-15T07:25:27Z</time>
      </trkpt>
      <trkpt lat="42.88624" lon="-0.19769">
        <ele>1693.4</ele>
        <time>2026-07-15T07:25:28Z</time>
      </trkpt>
      <trkpt lat="42.88623" lon="-0.19769">
        <ele>1693.4</ele>
        <time>2026-07-15T07:25:28Z</time>
      </trkpt>
      <trkpt lat="42.88623" lon="-0.1977">
        <ele>1693.4</ele>
        <time>2026-07-15T07:25:29Z</time>
      </trkpt>
      <trkpt lat="42.88623" lon="-0.1977">
        <ele>1692.4</ele>
        <time>2026-07-15T07:25:30Z</time>
      </trkpt>
      <trkpt lat="42.88622" lon="-0.1977">
        <ele>1693.4</ele>
        <time>2026-07-15T07:25:31Z</time>
      </trkpt>
      <trkpt lat="42.88622" lon="-0.1977">
        <ele>1693.4</ele>
        <time>2026-07-15T07:25:32Z</time>
      </trkpt>
      <trkpt lat="42.88622" lon="-0.19769">
        <ele>1693.4</ele>
        <time>2026-07-15T07:25:33Z</time>
      </trkpt>
      <trkpt lat="42.88622" lon="-0.19769">
        <ele>1693.4</ele>
        <time>2026-07-15T07:25:34Z</time>
      </trkpt>
      <trkpt lat="42.88622" lon="-0.19769">
        <ele>1693.4</ele>
        <time>2026-07-15T07:25:35Z</time>
      </trkpt>
      <trkpt lat="42.88622" lon="-0.19769">
        <ele>1693.4</ele>
        <time>2026-07-15T07:25:36Z</time>
      </trkpt>
      <trkpt lat="42.88622" lon="-0.19769">
        <ele>1695.4</ele>
        <time>2026-07-15T07:25:37Z</time>
      </trkpt>
      <trkpt lat="42.88621" lon="-0.19769">
        <ele>1696.4</ele>
        <time>2026-07-15T07:25:38Z</time>
      </trkpt>
      <trkpt lat="42.88621" lon="-0.19768">
        <ele>1696.4</ele>
        <time>2026-07-15T07:25:39Z</time>
      </trkpt>
      <trkpt lat="42.88621" lon="-0.19768">
        <ele>1696.4</ele>
        <time>2026-07-15T07:25:40Z</time>
      </trkpt>
      <trkpt lat="42.88621" lon="-0.19768">
        <ele>1696.4</ele>
        <time>2026-07-15T07:25:40Z</time>
      </trkpt>
      <trkpt lat="42.88622" lon="-0.19769">
        <ele>1696.4</ele>
        <time>2026-07-15T07:25:41Z</time>
      </trkpt>
      <trkpt lat="42.88622" lon="-0.19769">
        <ele>1696.4</ele>
        <time>2026-07-15T07:25:42Z</time>
      </trkpt>
      <trkpt lat="42.88621" lon="-0.19769">
        <ele>1698.4</ele>
        <time>2026-07-15T07:25:43Z</time>
      </trkpt>
      <trkpt lat="42.88621" lon="-0.19769">
        <ele>1699.4</ele>
        <time>2026-07-15T07:25:44Z</time>
      </trkpt>
      <trkpt lat="42.88621" lon="-0.19769">
        <ele>1700.4</ele>
        <time>2026-07-15T07:25:45Z</time>
      </trkpt>
      <trkpt lat="42.88621" lon="-0.19769">
        <ele>1700.4</ele>
        <time>2026-07-15T07:25:46Z</time>
      </trkpt>
      <trkpt lat="42.88621" lon="-0.19769">
        <ele>1701.4</ele>
        <time>2026-07-15T07:25:47Z</time>
      </trkpt>
      <trkpt lat="42.8862" lon="-0.19769">
        <ele>1701.4</ele>
        <time>2026-07-15T07:25:48Z</time>
      </trkpt>
      <trkpt lat="42.8862" lon="-0.19769">
        <ele>1701.4</ele>
        <time>2026-07-15T07:25:49Z</time>
      </trkpt>
      <trkpt lat="42.8862" lon="-0.19769">
        <ele>1702.4</ele>
        <time>2026-07-15T07:25:50Z</time>
      </trkpt>
      <trkpt lat="42.8862" lon="-0.19768">
        <ele>1702.4</ele>
        <time>2026-07-15T07:25:50Z</time>
      </trkpt>
      <trkpt lat="42.8862" lon="-0.19768">
        <ele>1702.4</ele>
        <time>2026-07-15T07:25:51Z</time>
      </trkpt>
      <trkpt lat="42.88619" lon="-0.19768">
        <ele>1702.4</ele>
        <time>2026-07-15T07:25:52Z</time>
      </trkpt>
      <trkpt lat="42.88619" lon="-0.19768">
        <ele>1702.4</ele>
        <time>2026-07-15T07:25:53Z</time>
      </trkpt>
      <trkpt lat="42.88618" lon="-0.19768">
        <ele>1702.4</ele>
        <time>2026-07-15T07:25:54Z</time>
      </trkpt>
      <trkpt lat="42.88618" lon="-0.19769">
        <ele>1702.4</ele>
        <time>2026-07-15T07:25:55Z</time>
      </trkpt>
      <trkpt lat="42.88617" lon="-0.19769">
        <ele>1702.4</ele>
        <time>2026-07-15T07:25:56Z</time>
      </trkpt>
      <trkpt lat="42.88617" lon="-0.19768">
        <ele>1702.4</ele>
        <time>2026-07-15T07:25:57Z</time>
      </trkpt>
      <trkpt lat="42.88617" lon="-0.19768">
        <ele>1702.4</ele>
        <time>2026-07-15T07:25:58Z</time>
      </trkpt>
      <trkpt lat="42.88616" lon="-0.19767">
        <ele>1702.4</ele>
        <time>2026-07-15T07:25:59Z</time>
      </trkpt>
      <trkpt lat="42.88616" lon="-0.19767">
        <ele>1702.4</ele>
        <time>2026-07-15T07:25:59Z</time>
      </trkpt>
      <trkpt lat="42.88616" lon="-0.19767">
        <ele>1702.4</ele>
        <time>2026-07-15T07:26:00Z</time>
      </trkpt>
      <trkpt lat="42.88616" lon="-0.19766">
        <ele>1703.4</ele>
        <time>2026-07-15T07:26:01Z</time>
      </trkpt>
      <trkpt lat="42.88615" lon="-0.19766">
        <ele>1703.4</ele>
        <time>2026-07-15T07:26:02Z</time>
      </trkpt>
      <trkpt lat="42.88614" lon="-0.19766">
        <ele>1704.4</ele>
        <time>2026-07-15T07:26:03Z</time>
      </trkpt>
      <trkpt lat="42.88614" lon="-0.19766">
        <ele>1703.4</ele>
        <time>2026-07-15T07:26:04Z</time>
      </trkpt>
      <trkpt lat="42.88614" lon="-0.19766">
        <ele>1704.4</ele>
        <time>2026-07-15T07:26:05Z</time>
      </trkpt>
      <trkpt lat="42.88613" lon="-0.19766">
        <ele>1704.4</ele>
        <time>2026-07-15T07:26:06Z</time>
      </trkpt>
      <trkpt lat="42.88613" lon="-0.19766">
        <ele>1704.4</ele>
        <time>2026-07-15T07:26:07Z</time>
      </trkpt>
      <trkpt lat="42.88613" lon="-0.19765">
        <ele>1704.4</ele>
        <time>2026-07-15T07:26:08Z</time>
      </trkpt>
      <trkpt lat="42.88612" lon="-0.19765">
        <ele>1704.4</ele>
        <time>2026-07-15T07:26:09Z</time>
      </trkpt>
      <trkpt lat="42.88612" lon="-0.19766">
        <ele>1705.4</ele>
        <time>2026-07-15T07:26:09Z</time>
      </trkpt>
      <trkpt lat="42.88612" lon="-0.19765">
        <ele>1705.4</ele>
        <time>2026-07-15T07:26:10Z</time>
      </trkpt>
      <trkpt lat="42.88612" lon="-0.19765">
        <ele>1705.4</ele>
        <time>2026-07-15T07:26:11Z</time>
      </trkpt>
      <trkpt lat="42.88612" lon="-0.19765">
        <ele>1705.4</ele>
        <time>2026-07-15T07:26:11Z</time>
      </trkpt>
      <trkpt lat="42.88612" lon="-0.19765">
        <ele>1705.4</ele>
        <time>2026-07-15T07:26:12Z</time>
      </trkpt>
      <trkpt lat="42.88611" lon="-0.19765">
        <ele>1705.4</ele>
        <time>2026-07-15T07:26:12Z</time>
      </trkpt>
      <trkpt lat="42.88611" lon="-0.19765">
        <ele>1705.4</ele>
        <time>2026-07-15T07:26:13Z</time>
      </trkpt>
      <trkpt lat="42.88611" lon="-0.19765">
        <ele>1705.4</ele>
        <time>2026-07-15T07:26:13Z</time>
      </trkpt>
      <trkpt lat="42.88611" lon="-0.19766">
        <ele>1705.4</ele>
        <time>2026-07-15T07:26:14Z</time>
      </trkpt>
      <trkpt lat="42.8861" lon="-0.19766">
        <ele>1705.4</ele>
        <time>2026-07-15T07:26:15Z</time>
      </trkpt>
      <trkpt lat="42.8861" lon="-0.19766">
        <ele>1706.4</ele>
        <time>2026-07-15T07:26:16Z</time>
      </trkpt>
      <trkpt lat="42.88609" lon="-0.19766">
        <ele>1706.4</ele>
        <time>2026-07-15T07:26:17Z</time>
      </trkpt>
      <trkpt lat="42.88609" lon="-0.19766">
        <ele>1705.4</ele>
        <time>2026-07-15T07:26:18Z</time>
      </trkpt>
      <trkpt lat="42.88608" lon="-0.19766">
        <ele>1706.4</ele>
        <time>2026-07-15T07:26:18Z</time>
      </trkpt>
      <trkpt lat="42.88608" lon="-0.19766">
        <ele>1706.4</ele>
        <time>2026-07-15T07:26:19Z</time>
      </trkpt>
      <trkpt lat="42.88608" lon="-0.19765">
        <ele>1706.4</ele>
        <time>2026-07-15T07:26:19Z</time>
      </trkpt>
      <trkpt lat="42.88607" lon="-0.19765">
        <ele>1706.4</ele>
        <time>2026-07-15T07:26:20Z</time>
      </trkpt>
      <trkpt lat="42.88607" lon="-0.19764">
        <ele>1706.4</ele>
        <time>2026-07-15T07:26:21Z</time>
      </trkpt>
      <trkpt lat="42.88607" lon="-0.19763">
        <ele>1706.4</ele>
        <time>2026-07-15T07:26:22Z</time>
      </trkpt>
      <trkpt lat="42.88607" lon="-0.19763">
        <ele>1707.4</ele>
        <time>2026-07-15T07:26:23Z</time>
      </trkpt>
      <trkpt lat="42.88606" lon="-0.19763">
        <ele>1707.4</ele>
        <time>2026-07-15T07:26:24Z</time>
      </trkpt>
      <trkpt lat="42.88606" lon="-0.19762">
        <ele>1707.4</ele>
        <time>2026-07-15T07:26:25Z</time>
      </trkpt>
      <trkpt lat="42.88605" lon="-0.19762">
        <ele>1707.4</ele>
        <time>2026-07-15T07:26:26Z</time>
      </trkpt>
      <trkpt lat="42.88605" lon="-0.19762">
        <ele>1708.4</ele>
        <time>2026-07-15T07:26:27Z</time>
      </trkpt>
      <trkpt lat="42.88605" lon="-0.19761">
        <ele>1708.4</ele>
        <time>2026-07-15T07:26:28Z</time>
      </trkpt>
      <trkpt lat="42.88604" lon="-0.19761">
        <ele>1707.4</ele>
        <time>2026-07-15T07:26:29Z</time>
      </trkpt>
      <trkpt lat="42.88604" lon="-0.1976">
        <ele>1708.4</ele>
        <time>2026-07-15T07:26:30Z</time>
      </trkpt>
      <trkpt lat="42.88604" lon="-0.1976">
        <ele>1708.4</ele>
        <time>2026-07-15T07:26:30Z</time>
      </trkpt>
      <trkpt lat="42.88603" lon="-0.1976">
        <ele>1708.4</ele>
        <time>2026-07-15T07:26:31Z</time>
      </trkpt>
      <trkpt lat="42.88603" lon="-0.1976">
        <ele>1708.4</ele>
        <time>2026-07-15T07:26:31Z</time>
      </trkpt>
      <trkpt lat="42.88603" lon="-0.19759">
        <ele>1708.4</ele>
        <time>2026-07-15T07:26:31Z</time>
      </trkpt>
      <trkpt lat="42.88603" lon="-0.19759">
        <ele>1707.4</ele>
        <time>2026-07-15T07:26:32Z</time>
      </trkpt>
      <trkpt lat="42.88602" lon="-0.19759">
        <ele>1707.4</ele>
        <time>2026-07-15T07:26:33Z</time>
      </trkpt>
      <trkpt lat="42.88602" lon="-0.19759">
        <ele>1707.4</ele>
        <time>2026-07-15T07:26:33Z</time>
      </trkpt>
      <trkpt lat="42.88602" lon="-0.19758">
        <ele>1706.4</ele>
        <time>2026-07-15T07:26:34Z</time>
      </trkpt>
      <trkpt lat="42.88602" lon="-0.19758">
        <ele>1706.4</ele>
        <time>2026-07-15T07:26:35Z</time>
      </trkpt>
      <trkpt lat="42.88602" lon="-0.19757">
        <ele>1707.4</ele>
        <time>2026-07-15T07:26:35Z</time>
      </trkpt>
      <trkpt lat="42.88602" lon="-0.19757">
        <ele>1707.4</ele>
        <time>2026-07-15T07:26:36Z</time>
      </trkpt>
      <trkpt lat="42.88602" lon="-0.19756">
        <ele>1707.4</ele>
        <time>2026-07-15T07:26:37Z</time>
      </trkpt>
      <trkpt lat="42.88602" lon="-0.19755">
        <ele>1707.4</ele>
        <time>2026-07-15T07:26:38Z</time>
      </trkpt>
      <trkpt lat="42.88602" lon="-0.19754">
        <ele>1708.4</ele>
        <time>2026-07-15T07:26:39Z</time>
      </trkpt>
      <trkpt lat="42.88602" lon="-0.19754">
        <ele>1709.4</ele>
        <time>2026-07-15T07:26:40Z</time>
      </trkpt>
      <trkpt lat="42.88601" lon="-0.19753">
        <ele>1710.4</ele>
        <time>2026-07-15T07:26:41Z</time>
      </trkpt>
      <trkpt lat="42.88601" lon="-0.19753">
        <ele>1711.4</ele>
        <time>2026-07-15T07:26:41Z</time>
      </trkpt>
      <trkpt lat="42.886" lon="-0.19752">
        <ele>1711.4</ele>
        <time>2026-07-15T07:26:42Z</time>
      </trkpt>
      <trkpt lat="42.886" lon="-0.19752">
        <ele>1711.4</ele>
        <time>2026-07-15T07:26:43Z</time>
      </trkpt>
      <trkpt lat="42.88599" lon="-0.19751">
        <ele>1711.4</ele>
        <time>2026-07-15T07:26:44Z</time>
      </trkpt>
      <trkpt lat="42.88599" lon="-0.19751">
        <ele>1711.4</ele>
        <time>2026-07-15T07:26:45Z</time>
      </trkpt>
      <trkpt lat="42.88598" lon="-0.1975">
        <ele>1710.4</ele>
        <time>2026-07-15T07:26:46Z</time>
      </trkpt>
      <trkpt lat="42.88598" lon="-0.1975">
        <ele>1710.4</ele>
        <time>2026-07-15T07:26:47Z</time>
      </trkpt>
      <trkpt lat="42.88597" lon="-0.1975">
        <ele>1710.4</ele>
        <time>2026-07-15T07:26:48Z</time>
      </trkpt>
      <trkpt lat="42.88597" lon="-0.19749">
        <ele>1710.4</ele>
        <time>2026-07-15T07:26:49Z</time>
      </trkpt>
      <trkpt lat="42.88597" lon="-0.19749">
        <ele>1710.4</ele>
        <time>2026-07-15T07:26:49Z</time>
      </trkpt>
      <trkpt lat="42.88596" lon="-0.19749">
        <ele>1710.4</ele>
        <time>2026-07-15T07:26:50Z</time>
      </trkpt>
      <trkpt lat="42.88596" lon="-0.19748">
        <ele>1710.4</ele>
        <time>2026-07-15T07:26:50Z</time>
      </trkpt>
      <trkpt lat="42.88596" lon="-0.19748">
        <ele>1710.4</ele>
        <time>2026-07-15T07:26:51Z</time>
      </trkpt>
      <trkpt lat="42.88595" lon="-0.19748">
        <ele>1710.4</ele>
        <time>2026-07-15T07:26:52Z</time>
      </trkpt>
      <trkpt lat="42.88594" lon="-0.19747">
        <ele>1709.4</ele>
        <time>2026-07-15T07:26:53Z</time>
      </trkpt>
      <trkpt lat="42.88594" lon="-0.19747">
        <ele>1709.4</ele>
        <time>2026-07-15T07:26:54Z</time>
      </trkpt>
      <trkpt lat="42.88593" lon="-0.19746">
        <ele>1710.4</ele>
        <time>2026-07-15T07:26:55Z</time>
      </trkpt>
      <trkpt lat="42.88593" lon="-0.19746">
        <ele>1710.4</ele>
        <time>2026-07-15T07:26:56Z</time>
      </trkpt>
      <trkpt lat="42.88593" lon="-0.19746">
        <ele>1710.4</ele>
        <time>2026-07-15T07:26:56Z</time>
      </trkpt>
      <trkpt lat="42.88593" lon="-0.19745">
        <ele>1709.4</ele>
        <time>2026-07-15T07:26:57Z</time>
      </trkpt>
      <trkpt lat="42.88593" lon="-0.19745">
        <ele>1710.4</ele>
        <time>2026-07-15T07:26:58Z</time>
      </trkpt>
      <trkpt lat="42.88593" lon="-0.19744">
        <ele>1710.4</ele>
        <time>2026-07-15T07:26:59Z</time>
      </trkpt>
      <trkpt lat="42.88593" lon="-0.19744">
        <ele>1710.4</ele>
        <time>2026-07-15T07:27:00Z</time>
      </trkpt>
      <trkpt lat="42.88592" lon="-0.19743">
        <ele>1710.4</ele>
        <time>2026-07-15T07:27:01Z</time>
      </trkpt>
      <trkpt lat="42.88592" lon="-0.19743">
        <ele>1710.4</ele>
        <time>2026-07-15T07:27:02Z</time>
      </trkpt>
      <trkpt lat="42.88592" lon="-0.19743">
        <ele>1711.4</ele>
        <time>2026-07-15T07:27:03Z</time>
      </trkpt>
      <trkpt lat="42.88591" lon="-0.19742">
        <ele>1711.4</ele>
        <time>2026-07-15T07:27:04Z</time>
      </trkpt>
      <trkpt lat="42.88591" lon="-0.19742">
        <ele>1711.4</ele>
        <time>2026-07-15T07:27:04Z</time>
      </trkpt>
      <trkpt lat="42.8859" lon="-0.19742">
        <ele>1712.4</ele>
        <time>2026-07-15T07:27:05Z</time>
      </trkpt>
      <trkpt lat="42.8859" lon="-0.19741">
        <ele>1712.4</ele>
        <time>2026-07-15T07:27:06Z</time>
      </trkpt>
      <trkpt lat="42.8859" lon="-0.19741">
        <ele>1712.4</ele>
        <time>2026-07-15T07:27:07Z</time>
      </trkpt>
      <trkpt lat="42.8859" lon="-0.1974">
        <ele>1713.4</ele>
        <time>2026-07-15T07:27:08Z</time>
      </trkpt>
      <trkpt lat="42.8859" lon="-0.1974">
        <ele>1713.4</ele>
        <time>2026-07-15T07:27:08Z</time>
      </trkpt>
      <trkpt lat="42.8859" lon="-0.19739">
        <ele>1713.4</ele>
        <time>2026-07-15T07:27:09Z</time>
      </trkpt>
      <trkpt lat="42.8859" lon="-0.19739">
        <ele>1713.4</ele>
        <time>2026-07-15T07:27:10Z</time>
      </trkpt>
      <trkpt lat="42.8859" lon="-0.19738">
        <ele>1713.4</ele>
        <time>2026-07-15T07:27:11Z</time>
      </trkpt>
      <trkpt lat="42.88589" lon="-0.19738">
        <ele>1713.4</ele>
        <time>2026-07-15T07:27:12Z</time>
      </trkpt>
      <trkpt lat="42.88589" lon="-0.19738">
        <ele>1713.4</ele>
        <time>2026-07-15T07:27:13Z</time>
      </trkpt>
      <trkpt lat="42.88588" lon="-0.19737">
        <ele>1714.4</ele>
        <time>2026-07-15T07:27:14Z</time>
      </trkpt>
      <trkpt lat="42.88588" lon="-0.19737">
        <ele>1715.4</ele>
        <time>2026-07-15T07:27:14Z</time>
      </trkpt>
      <trkpt lat="42.88588" lon="-0.19737">
        <ele>1715.4</ele>
        <time>2026-07-15T07:27:15Z</time>
      </trkpt>
      <trkpt lat="42.88588" lon="-0.19737">
        <ele>1716.4</ele>
        <time>2026-07-15T07:27:16Z</time>
      </trkpt>
      <trkpt lat="42.88587" lon="-0.19736">
        <ele>1716.4</ele>
        <time>2026-07-15T07:27:17Z</time>
      </trkpt>
      <trkpt lat="42.88587" lon="-0.19736">
        <ele>1716.4</ele>
        <time>2026-07-15T07:27:18Z</time>
      </trkpt>
      <trkpt lat="42.88586" lon="-0.19735">
        <ele>1717.4</ele>
        <time>2026-07-15T07:27:19Z</time>
      </trkpt>
      <trkpt lat="42.88586" lon="-0.19735">
        <ele>1717.4</ele>
        <time>2026-07-15T07:27:20Z</time>
      </trkpt>
      <trkpt lat="42.88585" lon="-0.19735">
        <ele>1716.4</ele>
        <time>2026-07-15T07:27:21Z</time>
      </trkpt>
      <trkpt lat="42.88585" lon="-0.19735">
        <ele>1716.4</ele>
        <time>2026-07-15T07:27:22Z</time>
      </trkpt>
      <trkpt lat="42.88584" lon="-0.19735">
        <ele>1716.4</ele>
        <time>2026-07-15T07:27:23Z</time>
      </trkpt>
      <trkpt lat="42.88584" lon="-0.19735">
        <ele>1716.4</ele>
        <time>2026-07-15T07:27:23Z</time>
      </trkpt>
      <trkpt lat="42.88584" lon="-0.19734">
        <ele>1717.4</ele>
        <time>2026-07-15T07:27:24Z</time>
      </trkpt>
      <trkpt lat="42.88583" lon="-0.19734">
        <ele>1717.4</ele>
        <time>2026-07-15T07:27:25Z</time>
      </trkpt>
      <trkpt lat="42.88583" lon="-0.19734">
        <ele>1717.4</ele>
        <time>2026-07-15T07:27:26Z</time>
      </trkpt>
      <trkpt lat="42.88582" lon="-0.19734">
        <ele>1716.4</ele>
        <time>2026-07-15T07:27:27Z</time>
      </trkpt>
      <trkpt lat="42.88582" lon="-0.19734">
        <ele>1716.4</ele>
        <time>2026-07-15T07:27:28Z</time>
      </trkpt>
      <trkpt lat="42.88582" lon="-0.19734">
        <ele>1716.4</ele>
        <time>2026-07-15T07:27:29Z</time>
      </trkpt>
      <trkpt lat="42.88581" lon="-0.19734">
        <ele>1716.4</ele>
        <time>2026-07-15T07:27:29Z</time>
      </trkpt>
      <trkpt lat="42.88581" lon="-0.19734">
        <ele>1716.4</ele>
        <time>2026-07-15T07:27:30Z</time>
      </trkpt>
      <trkpt lat="42.88581" lon="-0.19734">
        <ele>1715.4</ele>
        <time>2026-07-15T07:27:31Z</time>
      </trkpt>
      <trkpt lat="42.8858" lon="-0.19734">
        <ele>1716.4</ele>
        <time>2026-07-15T07:27:32Z</time>
      </trkpt>
      <trkpt lat="42.88581" lon="-0.19735">
        <ele>1716.4</ele>
        <time>2026-07-15T07:27:33Z</time>
      </trkpt>
      <trkpt lat="42.88581" lon="-0.19735">
        <ele>1715.4</ele>
        <time>2026-07-15T07:27:34Z</time>
      </trkpt>
      <trkpt lat="42.88581" lon="-0.19735">
        <ele>1715.4</ele>
        <time>2026-07-15T07:27:35Z</time>
      </trkpt>
      <trkpt lat="42.88581" lon="-0.19735">
        <ele>1715.4</ele>
        <time>2026-07-15T07:27:36Z</time>
      </trkpt>
      <trkpt lat="42.88581" lon="-0.19736">
        <ele>1715.4</ele>
        <time>2026-07-15T07:27:37Z</time>
      </trkpt>
      <trkpt lat="42.88581" lon="-0.19736">
        <ele>1717.4</ele>
        <time>2026-07-15T07:27:38Z</time>
      </trkpt>
      <trkpt lat="42.88581" lon="-0.19737">
        <ele>1717.4</ele>
        <time>2026-07-15T07:27:39Z</time>
      </trkpt>
      <trkpt lat="42.88581" lon="-0.19738">
        <ele>1718.4</ele>
        <time>2026-07-15T07:27:40Z</time>
      </trkpt>
      <trkpt lat="42.88581" lon="-0.19739">
        <ele>1717.4</ele>
        <time>2026-07-15T07:27:40Z</time>
      </trkpt>
      <trkpt lat="42.88581" lon="-0.19739">
        <ele>1718.4</ele>
        <time>2026-07-15T07:27:41Z</time>
      </trkpt>
      <trkpt lat="42.88581" lon="-0.1974">
        <ele>1718.4</ele>
        <time>2026-07-15T07:27:42Z</time>
      </trkpt>
      <trkpt lat="42.8858" lon="-0.19741">
        <ele>1718.4</ele>
        <time>2026-07-15T07:27:43Z</time>
      </trkpt>
      <trkpt lat="42.8858" lon="-0.19741">
        <ele>1718.4</ele>
        <time>2026-07-15T07:27:44Z</time>
      </trkpt>
      <trkpt lat="42.8858" lon="-0.19742">
        <ele>1718.4</ele>
        <time>2026-07-15T07:27:45Z</time>
      </trkpt>
      <trkpt lat="42.88579" lon="-0.19742">
        <ele>1719.4</ele>
        <time>2026-07-15T07:27:46Z</time>
      </trkpt>
      <trkpt lat="42.88579" lon="-0.19742">
        <ele>1719.4</ele>
        <time>2026-07-15T07:27:46Z</time>
      </trkpt>
      <trkpt lat="42.88578" lon="-0.19742">
        <ele>1719.4</ele>
        <time>2026-07-15T07:27:47Z</time>
      </trkpt>
      <trkpt lat="42.88578" lon="-0.19742">
        <ele>1718.4</ele>
        <time>2026-07-15T07:27:47Z</time>
      </trkpt>
      <trkpt lat="42.88578" lon="-0.19742">
        <ele>1718.4</ele>
        <time>2026-07-15T07:27:48Z</time>
      </trkpt>
      <trkpt lat="42.88578" lon="-0.19742">
        <ele>1718.4</ele>
        <time>2026-07-15T07:27:49Z</time>
      </trkpt>
      <trkpt lat="42.88577" lon="-0.19743">
        <ele>1718.4</ele>
        <time>2026-07-15T07:27:50Z</time>
      </trkpt>
      <trkpt lat="42.88577" lon="-0.19743">
        <ele>1717.4</ele>
        <time>2026-07-15T07:27:51Z</time>
      </trkpt>
      <trkpt lat="42.88577" lon="-0.19744">
        <ele>1717.4</ele>
        <time>2026-07-15T07:27:52Z</time>
      </trkpt>
      <trkpt lat="42.88576" lon="-0.19744">
        <ele>1716.4</ele>
        <time>2026-07-15T07:27:53Z</time>
      </trkpt>
      <trkpt lat="42.88575" lon="-0.19744">
        <ele>1717.4</ele>
        <time>2026-07-15T07:27:54Z</time>
      </trkpt>
      <trkpt lat="42.88575" lon="-0.19744">
        <ele>1717.4</ele>
        <time>2026-07-15T07:27:54Z</time>
      </trkpt>
      <trkpt lat="42.88575" lon="-0.19744">
        <ele>1717.4</ele>
        <time>2026-07-15T07:27:55Z</time>
      </trkpt>
      <trkpt lat="42.88574" lon="-0.19744">
        <ele>1717.4</ele>
        <time>2026-07-15T07:27:56Z</time>
      </trkpt>
      <trkpt lat="42.88574" lon="-0.19744">
        <ele>1717.4</ele>
        <time>2026-07-15T07:27:57Z</time>
      </trkpt>
      <trkpt lat="42.88573" lon="-0.19744">
        <ele>1717.4</ele>
        <time>2026-07-15T07:27:58Z</time>
      </trkpt>
      <trkpt lat="42.88573" lon="-0.19744">
        <ele>1717.4</ele>
        <time>2026-07-15T07:27:59Z</time>
      </trkpt>
      <trkpt lat="42.88573" lon="-0.19744">
        <ele>1717.4</ele>
        <time>2026-07-15T07:28:00Z</time>
      </trkpt>
      <trkpt lat="42.88572" lon="-0.19743">
        <ele>1717.4</ele>
        <time>2026-07-15T07:28:00Z</time>
      </trkpt>
      <trkpt lat="42.88572" lon="-0.19743">
        <ele>1716.4</ele>
        <time>2026-07-15T07:28:01Z</time>
      </trkpt>
      <trkpt lat="42.88571" lon="-0.19742">
        <ele>1716.4</ele>
        <time>2026-07-15T07:28:02Z</time>
      </trkpt>
      <trkpt lat="42.8857" lon="-0.19742">
        <ele>1717.4</ele>
        <time>2026-07-15T07:28:03Z</time>
      </trkpt>
      <trkpt lat="42.8857" lon="-0.19742">
        <ele>1717.4</ele>
        <time>2026-07-15T07:28:04Z</time>
      </trkpt>
      <trkpt lat="42.88569" lon="-0.19742">
        <ele>1718.4</ele>
        <time>2026-07-15T07:28:05Z</time>
      </trkpt>
      <trkpt lat="42.88569" lon="-0.19742">
        <ele>1718.4</ele>
        <time>2026-07-15T07:28:06Z</time>
      </trkpt>
      <trkpt lat="42.88569" lon="-0.19742">
        <ele>1718.4</ele>
        <time>2026-07-15T07:28:07Z</time>
      </trkpt>
      <trkpt lat="42.88569" lon="-0.19742">
        <ele>1718.4</ele>
        <time>2026-07-15T07:28:08Z</time>
      </trkpt>
      <trkpt lat="42.88568" lon="-0.19741">
        <ele>1718.4</ele>
        <time>2026-07-15T07:28:09Z</time>
      </trkpt>
      <trkpt lat="42.88568" lon="-0.19741">
        <ele>1718.4</ele>
        <time>2026-07-15T07:28:10Z</time>
      </trkpt>
      <trkpt lat="42.88568" lon="-0.1974">
        <ele>1718.4</ele>
        <time>2026-07-15T07:28:11Z</time>
      </trkpt>
      <trkpt lat="42.88568" lon="-0.19738">
        <ele>1718.4</ele>
        <time>2026-07-15T07:28:12Z</time>
      </trkpt>
      <trkpt lat="42.88567" lon="-0.19737">
        <ele>1718.4</ele>
        <time>2026-07-15T07:28:13Z</time>
      </trkpt>
      <trkpt lat="42.88567" lon="-0.19737">
        <ele>1719.4</ele>
        <time>2026-07-15T07:28:14Z</time>
      </trkpt>
      <trkpt lat="42.88567" lon="-0.19736">
        <ele>1720.4</ele>
        <time>2026-07-15T07:28:14Z</time>
      </trkpt>
      <trkpt lat="42.88566" lon="-0.19736">
        <ele>1721.4</ele>
        <time>2026-07-15T07:28:15Z</time>
      </trkpt>
      <trkpt lat="42.88566" lon="-0.19736">
        <ele>1721.4</ele>
        <time>2026-07-15T07:28:16Z</time>
      </trkpt>
      <trkpt lat="42.88566" lon="-0.19736">
        <ele>1722.4</ele>
        <time>2026-07-15T07:28:17Z</time>
      </trkpt>
      <trkpt lat="42.88565" lon="-0.19736">
        <ele>1722.4</ele>
        <time>2026-07-15T07:28:18Z</time>
      </trkpt>
      <trkpt lat="42.88565" lon="-0.19736">
        <ele>1721.4</ele>
        <time>2026-07-15T07:28:19Z</time>
      </trkpt>
      <trkpt lat="42.88565" lon="-0.19737">
        <ele>1722.4</ele>
        <time>2026-07-15T07:28:20Z</time>
      </trkpt>
      <trkpt lat="42.88564" lon="-0.19737">
        <ele>1722.4</ele>
        <time>2026-07-15T07:28:21Z</time>
      </trkpt>
      <trkpt lat="42.88564" lon="-0.19737">
        <ele>1722.4</ele>
        <time>2026-07-15T07:28:22Z</time>
      </trkpt>
      <trkpt lat="42.88564" lon="-0.19738">
        <ele>1722.4</ele>
        <time>2026-07-15T07:28:23Z</time>
      </trkpt>
      <trkpt lat="42.88563" lon="-0.19738">
        <ele>1722.4</ele>
        <time>2026-07-15T07:28:24Z</time>
      </trkpt>
      <trkpt lat="42.88562" lon="-0.19737">
        <ele>1722.4</ele>
        <time>2026-07-15T07:28:25Z</time>
      </trkpt>
      <trkpt lat="42.88562" lon="-0.19737">
        <ele>1722.4</ele>
        <time>2026-07-15T07:28:25Z</time>
      </trkpt>
      <trkpt lat="42.88562" lon="-0.19736">
        <ele>1722.4</ele>
        <time>2026-07-15T07:28:26Z</time>
      </trkpt>
      <trkpt lat="42.88562" lon="-0.19735">
        <ele>1723.4</ele>
        <time>2026-07-15T07:28:27Z</time>
      </trkpt>
      <trkpt lat="42.88561" lon="-0.19735">
        <ele>1723.4</ele>
        <time>2026-07-15T07:28:28Z</time>
      </trkpt>
      <trkpt lat="42.88561" lon="-0.19734">
        <ele>1723.4</ele>
        <time>2026-07-15T07:28:29Z</time>
      </trkpt>
      <trkpt lat="42.8856" lon="-0.19734">
        <ele>1724.4</ele>
        <time>2026-07-15T07:28:30Z</time>
      </trkpt>
      <trkpt lat="42.8856" lon="-0.19734">
        <ele>1725.4</ele>
        <time>2026-07-15T07:28:31Z</time>
      </trkpt>
      <trkpt lat="42.8856" lon="-0.19733">
        <ele>1725.4</ele>
        <time>2026-07-15T07:28:32Z</time>
      </trkpt>
      <trkpt lat="42.8856" lon="-0.19733">
        <ele>1725.4</ele>
        <time>2026-07-15T07:28:33Z</time>
      </trkpt>
      <trkpt lat="42.8856" lon="-0.19733">
        <ele>1725.4</ele>
        <time>2026-07-15T07:28:34Z</time>
      </trkpt>
      <trkpt lat="42.88559" lon="-0.19733">
        <ele>1725.4</ele>
        <time>2026-07-15T07:28:34Z</time>
      </trkpt>
      <trkpt lat="42.88559" lon="-0.19733">
        <ele>1726.4</ele>
        <time>2026-07-15T07:28:35Z</time>
      </trkpt>
      <trkpt lat="42.88559" lon="-0.19732">
        <ele>1726.4</ele>
        <time>2026-07-15T07:28:36Z</time>
      </trkpt>
      <trkpt lat="42.88558" lon="-0.19732">
        <ele>1726.4</ele>
        <time>2026-07-15T07:28:37Z</time>
      </trkpt>
      <trkpt lat="42.88558" lon="-0.19731">
        <ele>1727.4</ele>
        <time>2026-07-15T07:28:38Z</time>
      </trkpt>
      <trkpt lat="42.88558" lon="-0.1973">
        <ele>1727.4</ele>
        <time>2026-07-15T07:28:39Z</time>
      </trkpt>
      <trkpt lat="42.88557" lon="-0.1973">
        <ele>1728.4</ele>
        <time>2026-07-15T07:28:40Z</time>
      </trkpt>
      <trkpt lat="42.88557" lon="-0.1973">
        <ele>1728.4</ele>
        <time>2026-07-15T07:28:40Z</time>
      </trkpt>
      <trkpt lat="42.88556" lon="-0.1973">
        <ele>1729.4</ele>
        <time>2026-07-15T07:28:41Z</time>
      </trkpt>
      <trkpt lat="42.88556" lon="-0.1973">
        <ele>1729.4</ele>
        <time>2026-07-15T07:28:42Z</time>
      </trkpt>
      <trkpt lat="42.88556" lon="-0.1973">
        <ele>1729.4</ele>
        <time>2026-07-15T07:28:42Z</time>
      </trkpt>
      <trkpt lat="42.88556" lon="-0.1973">
        <ele>1729.4</ele>
        <time>2026-07-15T07:28:43Z</time>
      </trkpt>
      <trkpt lat="42.88556" lon="-0.1973">
        <ele>1729.4</ele>
        <time>2026-07-15T07:28:44Z</time>
      </trkpt>
      <trkpt lat="42.88555" lon="-0.19729">
        <ele>1730.4</ele>
        <time>2026-07-15T07:28:45Z</time>
      </trkpt>
      <trkpt lat="42.88555" lon="-0.19729">
        <ele>1730.4</ele>
        <time>2026-07-15T07:28:46Z</time>
      </trkpt>
      <trkpt lat="42.88555" lon="-0.19729">
        <ele>1730.4</ele>
        <time>2026-07-15T07:28:47Z</time>
      </trkpt>
      <trkpt lat="42.88555" lon="-0.19728">
        <ele>1730.4</ele>
        <time>2026-07-15T07:28:48Z</time>
      </trkpt>
      <trkpt lat="42.88555" lon="-0.19727">
        <ele>1731.4</ele>
        <time>2026-07-15T07:28:49Z</time>
      </trkpt>
      <trkpt lat="42.88554" lon="-0.19727">
        <ele>1731.4</ele>
        <time>2026-07-15T07:28:49Z</time>
      </trkpt>
      <trkpt lat="42.88554" lon="-0.19727">
        <ele>1731.4</ele>
        <time>2026-07-15T07:28:50Z</time>
      </trkpt>
      <trkpt lat="42.88554" lon="-0.19726">
        <ele>1731.4</ele>
        <time>2026-07-15T07:28:50Z</time>
      </trkpt>
      <trkpt lat="42.88554" lon="-0.19726">
        <ele>1731.4</ele>
        <time>2026-07-15T07:28:51Z</time>
      </trkpt>
      <trkpt lat="42.88554" lon="-0.19726">
        <ele>1731.4</ele>
        <time>2026-07-15T07:28:51Z</time>
      </trkpt>
      <trkpt lat="42.88553" lon="-0.19725">
        <ele>1731.4</ele>
        <time>2026-07-15T07:28:52Z</time>
      </trkpt>
      <trkpt lat="42.88553" lon="-0.19724">
        <ele>1730.4</ele>
        <time>2026-07-15T07:28:53Z</time>
      </trkpt>
      <trkpt lat="42.88553" lon="-0.19724">
        <ele>1731.4</ele>
        <time>2026-07-15T07:28:54Z</time>
      </trkpt>
      <trkpt lat="42.88553" lon="-0.19723">
        <ele>1730.4</ele>
        <time>2026-07-15T07:28:55Z</time>
      </trkpt>
      <trkpt lat="42.88553" lon="-0.19723">
        <ele>1730.4</ele>
        <time>2026-07-15T07:28:56Z</time>
      </trkpt>
      <trkpt lat="42.88553" lon="-0.19722">
        <ele>1730.4</ele>
        <time>2026-07-15T07:28:57Z</time>
      </trkpt>
      <trkpt lat="42.88553" lon="-0.19722">
        <ele>1730.4</ele>
        <time>2026-07-15T07:28:58Z</time>
      </trkpt>
      <trkpt lat="42.88553" lon="-0.19722">
        <ele>1730.4</ele>
        <time>2026-07-15T07:28:59Z</time>
      </trkpt>
      <trkpt lat="42.88553" lon="-0.19721">
        <ele>1731.4</ele>
        <time>2026-07-15T07:29:00Z</time>
      </trkpt>
      <trkpt lat="42.88552" lon="-0.19721">
        <ele>1731.4</ele>
        <time>2026-07-15T07:29:01Z</time>
      </trkpt>
      <trkpt lat="42.88552" lon="-0.19721">
        <ele>1731.4</ele>
        <time>2026-07-15T07:29:01Z</time>
      </trkpt>
      <trkpt lat="42.88552" lon="-0.19721">
        <ele>1731.4</ele>
        <time>2026-07-15T07:29:02Z</time>
      </trkpt>
      <trkpt lat="42.88551" lon="-0.1972">
        <ele>1731.4</ele>
        <time>2026-07-15T07:29:03Z</time>
      </trkpt>
      <trkpt lat="42.8855" lon="-0.1972">
        <ele>1731.4</ele>
        <time>2026-07-15T07:29:04Z</time>
      </trkpt>
      <trkpt lat="42.8855" lon="-0.1972">
        <ele>1731.4</ele>
        <time>2026-07-15T07:29:05Z</time>
      </trkpt>
      <trkpt lat="42.88549" lon="-0.19719">
        <ele>1730.4</ele>
        <time>2026-07-15T07:29:06Z</time>
      </trkpt>
      <trkpt lat="42.88549" lon="-0.19719">
        <ele>1731.4</ele>
        <time>2026-07-15T07:29:07Z</time>
      </trkpt>
      <trkpt lat="42.88548" lon="-0.19719">
        <ele>1731.4</ele>
        <time>2026-07-15T07:29:08Z</time>
      </trkpt>
      <trkpt lat="42.88548" lon="-0.19718">
        <ele>1732.4</ele>
        <time>2026-07-15T07:29:08Z</time>
      </trkpt>
      <trkpt lat="42.88547" lon="-0.19718">
        <ele>1733.4</ele>
        <time>2026-07-15T07:29:09Z</time>
      </trkpt>
      <trkpt lat="42.88546" lon="-0.19718">
        <ele>1733.4</ele>
        <time>2026-07-15T07:29:10Z</time>
      </trkpt>
      <trkpt lat="42.88546" lon="-0.19717">
        <ele>1733.4</ele>
        <time>2026-07-15T07:29:11Z</time>
      </trkpt>
      <trkpt lat="42.88545" lon="-0.19717">
        <ele>1734.4</ele>
        <time>2026-07-15T07:29:12Z</time>
      </trkpt>
      <trkpt lat="42.88545" lon="-0.19716">
        <ele>1734.4</ele>
        <time>2026-07-15T07:29:13Z</time>
      </trkpt>
      <trkpt lat="42.88544" lon="-0.19715">
        <ele>1734.4</ele>
        <time>2026-07-15T07:29:14Z</time>
      </trkpt>
      <trkpt lat="42.88544" lon="-0.19715">
        <ele>1735.4</ele>
        <time>2026-07-15T07:29:15Z</time>
      </trkpt>
      <trkpt lat="42.88544" lon="-0.19714">
        <ele>1735.4</ele>
        <time>2026-07-15T07:29:16Z</time>
      </trkpt>
      <trkpt lat="42.88544" lon="-0.19714">
        <ele>1736.4</ele>
        <time>2026-07-15T07:29:16Z</time>
      </trkpt>
      <trkpt lat="42.88544" lon="-0.19713">
        <ele>1736.4</ele>
        <time>2026-07-15T07:29:17Z</time>
      </trkpt>
      <trkpt lat="42.88544" lon="-0.19713">
        <ele>1736.4</ele>
        <time>2026-07-15T07:29:17Z</time>
      </trkpt>
      <trkpt lat="42.88543" lon="-0.19712">
        <ele>1737.4</ele>
        <time>2026-07-15T07:29:18Z</time>
      </trkpt>
      <trkpt lat="42.88543" lon="-0.19712">
        <ele>1737.4</ele>
        <time>2026-07-15T07:29:19Z</time>
      </trkpt>
      <trkpt lat="42.88543" lon="-0.19711">
        <ele>1738.4</ele>
        <time>2026-07-15T07:29:20Z</time>
      </trkpt>
      <trkpt lat="42.88542" lon="-0.1971">
        <ele>1739.4</ele>
        <time>2026-07-15T07:29:21Z</time>
      </trkpt>
      <trkpt lat="42.88542" lon="-0.1971">
        <ele>1739.4</ele>
        <time>2026-07-15T07:29:22Z</time>
      </trkpt>
      <trkpt lat="42.88542" lon="-0.1971">
        <ele>1739.4</ele>
        <time>2026-07-15T07:29:23Z</time>
      </trkpt>
      <trkpt lat="42.88541" lon="-0.19709">
        <ele>1739.4</ele>
        <time>2026-07-15T07:29:24Z</time>
      </trkpt>
      <trkpt lat="42.88541" lon="-0.19709">
        <ele>1740.4</ele>
        <time>2026-07-15T07:29:25Z</time>
      </trkpt>
      <trkpt lat="42.8854" lon="-0.19708">
        <ele>1740.4</ele>
        <time>2026-07-15T07:29:26Z</time>
      </trkpt>
      <trkpt lat="42.8854" lon="-0.19708">
        <ele>1740.4</ele>
        <time>2026-07-15T07:29:27Z</time>
      </trkpt>
      <trkpt lat="42.8854" lon="-0.19707">
        <ele>1739.4</ele>
        <time>2026-07-15T07:29:28Z</time>
      </trkpt>
      <trkpt lat="42.8854" lon="-0.19707">
        <ele>1739.4</ele>
        <time>2026-07-15T07:29:29Z</time>
      </trkpt>
      <trkpt lat="42.88539" lon="-0.19706">
        <ele>1740.4</ele>
        <time>2026-07-15T07:29:29Z</time>
      </trkpt>
      <trkpt lat="42.88539" lon="-0.19706">
        <ele>1741.4</ele>
        <time>2026-07-15T07:29:30Z</time>
      </trkpt>
      <trkpt lat="42.88539" lon="-0.19705">
        <ele>1740.4</ele>
        <time>2026-07-15T07:29:31Z</time>
      </trkpt>
      <trkpt lat="42.88538" lon="-0.19704">
        <ele>1740.4</ele>
        <time>2026-07-15T07:29:32Z</time>
      </trkpt>
      <trkpt lat="42.88538" lon="-0.19704">
        <ele>1740.4</ele>
        <time>2026-07-15T07:29:33Z</time>
      </trkpt>
      <trkpt lat="42.88537" lon="-0.19703">
        <ele>1740.4</ele>
        <time>2026-07-15T07:29:34Z</time>
      </trkpt>
      <trkpt lat="42.88537" lon="-0.19702">
        <ele>1740.4</ele>
        <time>2026-07-15T07:29:35Z</time>
      </trkpt>
      <trkpt lat="42.88537" lon="-0.19702">
        <ele>1739.4</ele>
        <time>2026-07-15T07:29:36Z</time>
      </trkpt>
      <trkpt lat="42.88536" lon="-0.19701">
        <ele>1739.4</ele>
        <time>2026-07-15T07:29:37Z</time>
      </trkpt>
      <trkpt lat="42.88536" lon="-0.19701">
        <ele>1739.4</ele>
        <time>2026-07-15T07:29:38Z</time>
      </trkpt>
      <trkpt lat="42.88535" lon="-0.197">
        <ele>1739.4</ele>
        <time>2026-07-15T07:29:39Z</time>
      </trkpt>
      <trkpt lat="42.88535" lon="-0.19699">
        <ele>1739.4</ele>
        <time>2026-07-15T07:29:40Z</time>
      </trkpt>
      <trkpt lat="42.88534" lon="-0.19699">
        <ele>1738.4</ele>
        <time>2026-07-15T07:29:40Z</time>
      </trkpt>
      <trkpt lat="42.88534" lon="-0.19698">
        <ele>1738.4</ele>
        <time>2026-07-15T07:29:41Z</time>
      </trkpt>
      <trkpt lat="42.88533" lon="-0.19697">
        <ele>1738.4</ele>
        <time>2026-07-15T07:29:42Z</time>
      </trkpt>
      <trkpt lat="42.88533" lon="-0.19696">
        <ele>1738.4</ele>
        <time>2026-07-15T07:29:43Z</time>
      </trkpt>
      <trkpt lat="42.88532" lon="-0.19695">
        <ele>1738.4</ele>
        <time>2026-07-15T07:29:44Z</time>
      </trkpt>
      <trkpt lat="42.88532" lon="-0.19694">
        <ele>1738.4</ele>
        <time>2026-07-15T07:29:45Z</time>
      </trkpt>
      <trkpt lat="42.88532" lon="-0.19693">
        <ele>1738.4</ele>
        <time>2026-07-15T07:29:46Z</time>
      </trkpt>
      <trkpt lat="42.88531" lon="-0.19693">
        <ele>1738.4</ele>
        <time>2026-07-15T07:29:47Z</time>
      </trkpt>
      <trkpt lat="42.88531" lon="-0.19692">
        <ele>1739.4</ele>
        <time>2026-07-15T07:29:48Z</time>
      </trkpt>
      <trkpt lat="42.88531" lon="-0.19691">
        <ele>1739.4</ele>
        <time>2026-07-15T07:29:48Z</time>
      </trkpt>
      <trkpt lat="42.8853" lon="-0.19691">
        <ele>1738.4</ele>
        <time>2026-07-15T07:29:49Z</time>
      </trkpt>
      <trkpt lat="42.8853" lon="-0.1969">
        <ele>1739.4</ele>
        <time>2026-07-15T07:29:50Z</time>
      </trkpt>
      <trkpt lat="42.8853" lon="-0.19689">
        <ele>1739.4</ele>
        <time>2026-07-15T07:29:51Z</time>
      </trkpt>
      <trkpt lat="42.88529" lon="-0.19688">
        <ele>1739.4</ele>
        <time>2026-07-15T07:29:52Z</time>
      </trkpt>
      <trkpt lat="42.88529" lon="-0.19687">
        <ele>1740.4</ele>
        <time>2026-07-15T07:29:53Z</time>
      </trkpt>
      <trkpt lat="42.88529" lon="-0.19687">
        <ele>1740.4</ele>
        <time>2026-07-15T07:29:54Z</time>
      </trkpt>
      <trkpt lat="42.88529" lon="-0.19687">
        <ele>1739.4</ele>
        <time>2026-07-15T07:29:55Z</time>
      </trkpt>
      <trkpt lat="42.88529" lon="-0.19686">
        <ele>1739.4</ele>
        <time>2026-07-15T07:29:56Z</time>
      </trkpt>
      <trkpt lat="42.88529" lon="-0.19686">
        <ele>1739.4</ele>
        <time>2026-07-15T07:29:56Z</time>
      </trkpt>
      <trkpt lat="42.88528" lon="-0.19686">
        <ele>1740.4</ele>
        <time>2026-07-15T07:29:57Z</time>
      </trkpt>
      <trkpt lat="42.88528" lon="-0.19686">
        <ele>1741.4</ele>
        <time>2026-07-15T07:29:58Z</time>
      </trkpt>
      <trkpt lat="42.88527" lon="-0.19686">
        <ele>1741.4</ele>
        <time>2026-07-15T07:29:59Z</time>
      </trkpt>
      <trkpt lat="42.88527" lon="-0.19685">
        <ele>1741.4</ele>
        <time>2026-07-15T07:30:00Z</time>
      </trkpt>
      <trkpt lat="42.88527" lon="-0.19685">
        <ele>1742.4</ele>
        <time>2026-07-15T07:30:01Z</time>
      </trkpt>
      <trkpt lat="42.88527" lon="-0.19684">
        <ele>1742.4</ele>
        <time>2026-07-15T07:30:02Z</time>
      </trkpt>
      <trkpt lat="42.88527" lon="-0.19684">
        <ele>1742.4</ele>
        <time>2026-07-15T07:30:03Z</time>
      </trkpt>
      <trkpt lat="42.88526" lon="-0.19684">
        <ele>1742.4</ele>
        <time>2026-07-15T07:30:04Z</time>
      </trkpt>
      <trkpt lat="42.88526" lon="-0.19683">
        <ele>1741.4</ele>
        <time>2026-07-15T07:30:05Z</time>
      </trkpt>
      <trkpt lat="42.88526" lon="-0.19683">
        <ele>1741.4</ele>
        <time>2026-07-15T07:30:05Z</time>
      </trkpt>
      <trkpt lat="42.88525" lon="-0.19682">
        <ele>1741.4</ele>
        <time>2026-07-15T07:30:06Z</time>
      </trkpt>
      <trkpt lat="42.88525" lon="-0.19682">
        <ele>1741.4</ele>
        <time>2026-07-15T07:30:06Z</time>
      </trkpt>
      <trkpt lat="42.88525" lon="-0.19682">
        <ele>1740.4</ele>
        <time>2026-07-15T07:30:07Z</time>
      </trkpt>
      <trkpt lat="42.88524" lon="-0.19681">
        <ele>1740.4</ele>
        <time>2026-07-15T07:30:08Z</time>
      </trkpt>
      <trkpt lat="42.88523" lon="-0.19681">
        <ele>1741.4</ele>
        <time>2026-07-15T07:30:09Z</time>
      </trkpt>
      <trkpt lat="42.88523" lon="-0.1968">
        <ele>1741.4</ele>
        <time>2026-07-15T07:30:10Z</time>
      </trkpt>
      <trkpt lat="42.88523" lon="-0.1968">
        <ele>1742.4</ele>
        <time>2026-07-15T07:30:11Z</time>
      </trkpt>
      <trkpt lat="42.88523" lon="-0.1968">
        <ele>1744.4</ele>
        <time>2026-07-15T07:30:12Z</time>
      </trkpt>
      <trkpt lat="42.88522" lon="-0.1968">
        <ele>1744.4</ele>
        <time>2026-07-15T07:30:12Z</time>
      </trkpt>
      <trkpt lat="42.88522" lon="-0.1968">
        <ele>1744.4</ele>
        <time>2026-07-15T07:30:13Z</time>
      </trkpt>
      <trkpt lat="42.88522" lon="-0.1968">
        <ele>1744.4</ele>
        <time>2026-07-15T07:30:13Z</time>
      </trkpt>
      <trkpt lat="42.88521" lon="-0.19679">
        <ele>1744.4</ele>
        <time>2026-07-15T07:30:14Z</time>
      </trkpt>
      <trkpt lat="42.88521" lon="-0.19679">
        <ele>1745.4</ele>
        <time>2026-07-15T07:30:15Z</time>
      </trkpt>
      <trkpt lat="42.88521" lon="-0.19679">
        <ele>1745.4</ele>
        <time>2026-07-15T07:30:16Z</time>
      </trkpt>
      <trkpt lat="42.8852" lon="-0.19679">
        <ele>1745.4</ele>
        <time>2026-07-15T07:30:17Z</time>
      </trkpt>
      <trkpt lat="42.8852" lon="-0.19679">
        <ele>1745.4</ele>
        <time>2026-07-15T07:30:18Z</time>
      </trkpt>
      <trkpt lat="42.88519" lon="-0.19679">
        <ele>1745.4</ele>
        <time>2026-07-15T07:30:19Z</time>
      </trkpt>
      <trkpt lat="42.88519" lon="-0.19678">
        <ele>1745.4</ele>
        <time>2026-07-15T07:30:20Z</time>
      </trkpt>
      <trkpt lat="42.88519" lon="-0.19678">
        <ele>1745.4</ele>
        <time>2026-07-15T07:30:21Z</time>
      </trkpt>
      <trkpt lat="42.88518" lon="-0.19678">
        <ele>1745.4</ele>
        <time>2026-07-15T07:30:22Z</time>
      </trkpt>
      <trkpt lat="42.88518" lon="-0.19677">
        <ele>1745.4</ele>
        <time>2026-07-15T07:30:23Z</time>
      </trkpt>
      <trkpt lat="42.88518" lon="-0.19677">
        <ele>1745.4</ele>
        <time>2026-07-15T07:30:23Z</time>
      </trkpt>
      <trkpt lat="42.88518" lon="-0.19677">
        <ele>1745.4</ele>
        <time>2026-07-15T07:30:24Z</time>
      </trkpt>
      <trkpt lat="42.88518" lon="-0.19676">
        <ele>1745.4</ele>
        <time>2026-07-15T07:30:25Z</time>
      </trkpt>
      <trkpt lat="42.88518" lon="-0.19676">
        <ele>1745.4</ele>
        <time>2026-07-15T07:30:26Z</time>
      </trkpt>
      <trkpt lat="42.88518" lon="-0.19676">
        <ele>1745.4</ele>
        <time>2026-07-15T07:30:27Z</time>
      </trkpt>
      <trkpt lat="42.88517" lon="-0.19676">
        <ele>1743.4</ele>
        <time>2026-07-15T07:30:28Z</time>
      </trkpt>
      <trkpt lat="42.88517" lon="-0.19675">
        <ele>1743.4</ele>
        <time>2026-07-15T07:30:29Z</time>
      </trkpt>
      <trkpt lat="42.88517" lon="-0.19675">
        <ele>1744.4</ele>
        <time>2026-07-15T07:30:30Z</time>
      </trkpt>
      <trkpt lat="42.88517" lon="-0.19675">
        <ele>1744.4</ele>
        <time>2026-07-15T07:30:31Z</time>
      </trkpt>
      <trkpt lat="42.88517" lon="-0.19674">
        <ele>1744.4</ele>
        <time>2026-07-15T07:30:32Z</time>
      </trkpt>
      <trkpt lat="42.88516" lon="-0.19674">
        <ele>1744.4</ele>
        <time>2026-07-15T07:30:33Z</time>
      </trkpt>
      <trkpt lat="42.88516" lon="-0.19673">
        <ele>1745.4</ele>
        <time>2026-07-15T07:30:34Z</time>
      </trkpt>
      <trkpt lat="42.88516" lon="-0.19673">
        <ele>1745.4</ele>
        <time>2026-07-15T07:30:34Z</time>
      </trkpt>
      <trkpt lat="42.88516" lon="-0.19672">
        <ele>1745.4</ele>
        <time>2026-07-15T07:30:35Z</time>
      </trkpt>
      <trkpt lat="42.88516" lon="-0.19672">
        <ele>1745.4</ele>
        <time>2026-07-15T07:30:36Z</time>
      </trkpt>
      <trkpt lat="42.88516" lon="-0.19671">
        <ele>1744.4</ele>
        <time>2026-07-15T07:30:37Z</time>
      </trkpt>
      <trkpt lat="42.88515" lon="-0.19671">
        <ele>1744.4</ele>
        <time>2026-07-15T07:30:38Z</time>
      </trkpt>
      <trkpt lat="42.88515" lon="-0.1967">
        <ele>1744.4</ele>
        <time>2026-07-15T07:30:39Z</time>
      </trkpt>
      <trkpt lat="42.88515" lon="-0.1967">
        <ele>1744.4</ele>
        <time>2026-07-15T07:30:40Z</time>
      </trkpt>
      <trkpt lat="42.88514" lon="-0.19669">
        <ele>1744.4</ele>
        <time>2026-07-15T07:30:41Z</time>
      </trkpt>
      <trkpt lat="42.88514" lon="-0.19668">
        <ele>1745.4</ele>
        <time>2026-07-15T07:30:41Z</time>
      </trkpt>
      <trkpt lat="42.88513" lon="-0.19668">
        <ele>1745.4</ele>
        <time>2026-07-15T07:30:42Z</time>
      </trkpt>
      <trkpt lat="42.88513" lon="-0.19667">
        <ele>1745.4</ele>
        <time>2026-07-15T07:30:43Z</time>
      </trkpt>
      <trkpt lat="42.88512" lon="-0.19666">
        <ele>1746.4</ele>
        <time>2026-07-15T07:30:44Z</time>
      </trkpt>
      <trkpt lat="42.88512" lon="-0.19665">
        <ele>1745.4</ele>
        <time>2026-07-15T07:30:45Z</time>
      </trkpt>
      <trkpt lat="42.88512" lon="-0.19664">
        <ele>1746.4</ele>
        <time>2026-07-15T07:30:46Z</time>
      </trkpt>
      <trkpt lat="42.88512" lon="-0.19664">
        <ele>1746.4</ele>
        <time>2026-07-15T07:30:47Z</time>
      </trkpt>
      <trkpt lat="42.88511" lon="-0.19664">
        <ele>1746.4</ele>
        <time>2026-07-15T07:30:47Z</time>
      </trkpt>
      <trkpt lat="42.88511" lon="-0.19663">
        <ele>1746.4</ele>
        <time>2026-07-15T07:30:48Z</time>
      </trkpt>
      <trkpt lat="42.8851" lon="-0.19663">
        <ele>1746.4</ele>
        <time>2026-07-15T07:30:49Z</time>
      </trkpt>
      <trkpt lat="42.8851" lon="-0.19662">
        <ele>1746.4</ele>
        <time>2026-07-15T07:30:50Z</time>
      </trkpt>
      <trkpt lat="42.88509" lon="-0.19662">
        <ele>1746.4</ele>
        <time>2026-07-15T07:30:50Z</time>
      </trkpt>
      <trkpt lat="42.88509" lon="-0.19662">
        <ele>1746.4</ele>
        <time>2026-07-15T07:30:51Z</time>
      </trkpt>
      <trkpt lat="42.88508" lon="-0.19661">
        <ele>1746.4</ele>
        <time>2026-07-15T07:30:52Z</time>
      </trkpt>
      <trkpt lat="42.88507" lon="-0.19661">
        <ele>1747.4</ele>
        <time>2026-07-15T07:30:52Z</time>
      </trkpt>
      <trkpt lat="42.88507" lon="-0.1966">
        <ele>1748.4</ele>
        <time>2026-07-15T07:30:53Z</time>
      </trkpt>
      <trkpt lat="42.88506" lon="-0.1966">
        <ele>1748.4</ele>
        <time>2026-07-15T07:30:54Z</time>
      </trkpt>
      <trkpt lat="42.88506" lon="-0.1966">
        <ele>1748.4</ele>
        <time>2026-07-15T07:30:55Z</time>
      </trkpt>
      <trkpt lat="42.88505" lon="-0.1966">
        <ele>1749.4</ele>
        <time>2026-07-15T07:30:55Z</time>
      </trkpt>
      <trkpt lat="42.88504" lon="-0.1966">
        <ele>1750.4</ele>
        <time>2026-07-15T07:30:56Z</time>
      </trkpt>
      <trkpt lat="42.88504" lon="-0.1966">
        <ele>1750.4</ele>
        <time>2026-07-15T07:30:57Z</time>
      </trkpt>
      <trkpt lat="42.88503" lon="-0.19661">
        <ele>1751.4</ele>
        <time>2026-07-15T07:30:58Z</time>
      </trkpt>
      <trkpt lat="42.88503" lon="-0.19661">
        <ele>1749.4</ele>
        <time>2026-07-15T07:30:58Z</time>
      </trkpt>
      <trkpt lat="42.88503" lon="-0.19661">
        <ele>1749.4</ele>
        <time>2026-07-15T07:30:59Z</time>
      </trkpt>
      <trkpt lat="42.88503" lon="-0.19661">
        <ele>1749.4</ele>
        <time>2026-07-15T07:30:59Z</time>
      </trkpt>
      <trkpt lat="42.88502" lon="-0.19661">
        <ele>1749.4</ele>
        <time>2026-07-15T07:31:00Z</time>
      </trkpt>
      <trkpt lat="42.88502" lon="-0.19661">
        <ele>1749.4</ele>
        <time>2026-07-15T07:31:00Z</time>
      </trkpt>
      <trkpt lat="42.88502" lon="-0.19662">
        <ele>1749.4</ele>
        <time>2026-07-15T07:31:01Z</time>
      </trkpt>
      <trkpt lat="42.88501" lon="-0.19663">
        <ele>1749.4</ele>
        <time>2026-07-15T07:31:02Z</time>
      </trkpt>
      <trkpt lat="42.88501" lon="-0.19663">
        <ele>1749.4</ele>
        <time>2026-07-15T07:31:02Z</time>
      </trkpt>
      <trkpt lat="42.88501" lon="-0.19664">
        <ele>1749.4</ele>
        <time>2026-07-15T07:31:03Z</time>
      </trkpt>
      <trkpt lat="42.885" lon="-0.19665">
        <ele>1748.4</ele>
        <time>2026-07-15T07:31:04Z</time>
      </trkpt>
      <trkpt lat="42.885" lon="-0.19665">
        <ele>1747.4</ele>
        <time>2026-07-15T07:31:05Z</time>
      </trkpt>
      <trkpt lat="42.885" lon="-0.19665">
        <ele>1747.4</ele>
        <time>2026-07-15T07:31:06Z</time>
      </trkpt>
      <trkpt lat="42.88499" lon="-0.19665">
        <ele>1747.4</ele>
        <time>2026-07-15T07:31:06Z</time>
      </trkpt>
      <trkpt lat="42.88499" lon="-0.19665">
        <ele>1747.4</ele>
        <time>2026-07-15T07:31:07Z</time>
      </trkpt>
      <trkpt lat="42.88499" lon="-0.19665">
        <ele>1747.4</ele>
        <time>2026-07-15T07:31:08Z</time>
      </trkpt>
      <trkpt lat="42.88498" lon="-0.19666">
        <ele>1745.4</ele>
        <time>2026-07-15T07:31:09Z</time>
      </trkpt>
      <trkpt lat="42.88497" lon="-0.19666">
        <ele>1745.4</ele>
        <time>2026-07-15T07:31:09Z</time>
      </trkpt>
      <trkpt lat="42.88497" lon="-0.19666">
        <ele>1745.4</ele>
        <time>2026-07-15T07:31:10Z</time>
      </trkpt>
      <trkpt lat="42.88496" lon="-0.19666">
        <ele>1745.4</ele>
        <time>2026-07-15T07:31:11Z</time>
      </trkpt>
      <trkpt lat="42.88496" lon="-0.19665">
        <ele>1745.4</ele>
        <time>2026-07-15T07:31:12Z</time>
      </trkpt>
      <trkpt lat="42.88495" lon="-0.19665">
        <ele>1745.4</ele>
        <time>2026-07-15T07:31:13Z</time>
      </trkpt>
      <trkpt lat="42.88495" lon="-0.19665">
        <ele>1745.4</ele>
        <time>2026-07-15T07:31:14Z</time>
      </trkpt>
      <trkpt lat="42.88495" lon="-0.19665">
        <ele>1746.4</ele>
        <time>2026-07-15T07:31:15Z</time>
      </trkpt>
      <trkpt lat="42.88494" lon="-0.19665">
        <ele>1745.4</ele>
        <time>2026-07-15T07:31:15Z</time>
      </trkpt>
      <trkpt lat="42.88494" lon="-0.19665">
        <ele>1745.4</ele>
        <time>2026-07-15T07:31:16Z</time>
      </trkpt>
      <trkpt lat="42.88493" lon="-0.19665">
        <ele>1745.4</ele>
        <time>2026-07-15T07:31:17Z</time>
      </trkpt>
      <trkpt lat="42.88493" lon="-0.19665">
        <ele>1745.4</ele>
        <time>2026-07-15T07:31:18Z</time>
      </trkpt>
      <trkpt lat="42.88493" lon="-0.19666">
        <ele>1745.4</ele>
        <time>2026-07-15T07:31:18Z</time>
      </trkpt>
      <trkpt lat="42.88493" lon="-0.19666">
        <ele>1745.4</ele>
        <time>2026-07-15T07:31:19Z</time>
      </trkpt>
      <trkpt lat="42.88493" lon="-0.19667">
        <ele>1745.4</ele>
        <time>2026-07-15T07:31:20Z</time>
      </trkpt>
      <trkpt lat="42.88493" lon="-0.19667">
        <ele>1745.4</ele>
        <time>2026-07-15T07:31:21Z</time>
      </trkpt>
      <trkpt lat="42.88493" lon="-0.19668">
        <ele>1745.4</ele>
        <time>2026-07-15T07:31:21Z</time>
      </trkpt>
      <trkpt lat="42.88494" lon="-0.19669">
        <ele>1745.4</ele>
        <time>2026-07-15T07:31:22Z</time>
      </trkpt>
      <trkpt lat="42.88494" lon="-0.19669">
        <ele>1745.4</ele>
        <time>2026-07-15T07:31:23Z</time>
      </trkpt>
      <trkpt lat="42.88494" lon="-0.1967">
        <ele>1745.4</ele>
        <time>2026-07-15T07:31:24Z</time>
      </trkpt>
      <trkpt lat="42.88494" lon="-0.19671">
        <ele>1745.4</ele>
        <time>2026-07-15T07:31:25Z</time>
      </trkpt>
      <trkpt lat="42.88494" lon="-0.19672">
        <ele>1745.4</ele>
        <time>2026-07-15T07:31:26Z</time>
      </trkpt>
      <trkpt lat="42.88493" lon="-0.19673">
        <ele>1745.4</ele>
        <time>2026-07-15T07:31:27Z</time>
      </trkpt>
      <trkpt lat="42.88493" lon="-0.19673">
        <ele>1746.4</ele>
        <time>2026-07-15T07:31:27Z</time>
      </trkpt>
      <trkpt lat="42.88493" lon="-0.19674">
        <ele>1746.4</ele>
        <time>2026-07-15T07:31:28Z</time>
      </trkpt>
      <trkpt lat="42.88492" lon="-0.19675">
        <ele>1746.4</ele>
        <time>2026-07-15T07:31:29Z</time>
      </trkpt>
      <trkpt lat="42.88492" lon="-0.19675">
        <ele>1746.4</ele>
        <time>2026-07-15T07:31:30Z</time>
      </trkpt>
      <trkpt lat="42.88491" lon="-0.19676">
        <ele>1746.4</ele>
        <time>2026-07-15T07:31:31Z</time>
      </trkpt>
      <trkpt lat="42.88491" lon="-0.19676">
        <ele>1746.4</ele>
        <time>2026-07-15T07:31:31Z</time>
      </trkpt>
      <trkpt lat="42.8849" lon="-0.19676">
        <ele>1747.4</ele>
        <time>2026-07-15T07:31:32Z</time>
      </trkpt>
      <trkpt lat="42.8849" lon="-0.19677">
        <ele>1747.4</ele>
        <time>2026-07-15T07:31:33Z</time>
      </trkpt>
      <trkpt lat="42.88489" lon="-0.19678">
        <ele>1747.4</ele>
        <time>2026-07-15T07:31:34Z</time>
      </trkpt>
      <trkpt lat="42.88489" lon="-0.19678">
        <ele>1747.4</ele>
        <time>2026-07-15T07:31:35Z</time>
      </trkpt>
      <trkpt lat="42.88488" lon="-0.19678">
        <ele>1746.4</ele>
        <time>2026-07-15T07:31:36Z</time>
      </trkpt>
      <trkpt lat="42.88488" lon="-0.19679">
        <ele>1747.4</ele>
        <time>2026-07-15T07:31:37Z</time>
      </trkpt>
      <trkpt lat="42.88488" lon="-0.19679">
        <ele>1747.4</ele>
        <time>2026-07-15T07:31:37Z</time>
      </trkpt>
      <trkpt lat="42.88487" lon="-0.1968">
        <ele>1747.4</ele>
        <time>2026-07-15T07:31:38Z</time>
      </trkpt>
      <trkpt lat="42.88486" lon="-0.1968">
        <ele>1747.4</ele>
        <time>2026-07-15T07:31:39Z</time>
      </trkpt>
      <trkpt lat="42.88486" lon="-0.19681">
        <ele>1746.4</ele>
        <time>2026-07-15T07:31:40Z</time>
      </trkpt>
      <trkpt lat="42.88485" lon="-0.19681">
        <ele>1746.4</ele>
        <time>2026-07-15T07:31:41Z</time>
      </trkpt>
      <trkpt lat="42.88484" lon="-0.19681">
        <ele>1747.4</ele>
        <time>2026-07-15T07:31:42Z</time>
      </trkpt>
      <trkpt lat="42.88484" lon="-0.19682">
        <ele>1747.4</ele>
        <time>2026-07-15T07:31:42Z</time>
      </trkpt>
      <trkpt lat="42.88483" lon="-0.19682">
        <ele>1747.4</ele>
        <time>2026-07-15T07:31:43Z</time>
      </trkpt>
      <trkpt lat="42.88483" lon="-0.19683">
        <ele>1747.4</ele>
        <time>2026-07-15T07:31:44Z</time>
      </trkpt>
      <trkpt lat="42.88483" lon="-0.19683">
        <ele>1747.4</ele>
        <time>2026-07-15T07:31:45Z</time>
      </trkpt>
      <trkpt lat="42.88482" lon="-0.19683">
        <ele>1747.4</ele>
        <time>2026-07-15T07:31:46Z</time>
      </trkpt>
      <trkpt lat="42.88483" lon="-0.19682">
        <ele>1747.4</ele>
        <time>2026-07-15T07:31:47Z</time>
      </trkpt>
      <trkpt lat="42.88482" lon="-0.19682">
        <ele>1747.4</ele>
        <time>2026-07-15T07:31:47Z</time>
      </trkpt>
      <trkpt lat="42.88482" lon="-0.19681">
        <ele>1747.4</ele>
        <time>2026-07-15T07:31:48Z</time>
      </trkpt>
      <trkpt lat="42.88482" lon="-0.19681">
        <ele>1747.4</ele>
        <time>2026-07-15T07:31:49Z</time>
      </trkpt>
      <trkpt lat="42.88482" lon="-0.19681">
        <ele>1747.4</ele>
        <time>2026-07-15T07:31:50Z</time>
      </trkpt>
      <trkpt lat="42.88481" lon="-0.1968">
        <ele>1748.4</ele>
        <time>2026-07-15T07:31:51Z</time>
      </trkpt>
      <trkpt lat="42.88481" lon="-0.1968">
        <ele>1747.4</ele>
        <time>2026-07-15T07:31:52Z</time>
      </trkpt>
      <trkpt lat="42.8848" lon="-0.1968">
        <ele>1747.4</ele>
        <time>2026-07-15T07:31:52Z</time>
      </trkpt>
      <trkpt lat="42.88479" lon="-0.19679">
        <ele>1747.4</ele>
        <time>2026-07-15T07:31:53Z</time>
      </trkpt>
      <trkpt lat="42.88479" lon="-0.19679">
        <ele>1747.4</ele>
        <time>2026-07-15T07:31:54Z</time>
      </trkpt>
      <trkpt lat="42.88478" lon="-0.19678">
        <ele>1747.4</ele>
        <time>2026-07-15T07:31:55Z</time>
      </trkpt>
      <trkpt lat="42.88478" lon="-0.19677">
        <ele>1748.4</ele>
        <time>2026-07-15T07:31:56Z</time>
      </trkpt>
      <trkpt lat="42.88477" lon="-0.19677">
        <ele>1749.4</ele>
        <time>2026-07-15T07:31:56Z</time>
      </trkpt>
      <trkpt lat="42.88477" lon="-0.19677">
        <ele>1749.4</ele>
        <time>2026-07-15T07:31:57Z</time>
      </trkpt>
      <trkpt lat="42.88476" lon="-0.19676">
        <ele>1749.4</ele>
        <time>2026-07-15T07:31:58Z</time>
      </trkpt>
      <trkpt lat="42.88476" lon="-0.19675">
        <ele>1749.4</ele>
        <time>2026-07-15T07:31:59Z</time>
      </trkpt>
      <trkpt lat="42.88475" lon="-0.19675">
        <ele>1750.4</ele>
        <time>2026-07-15T07:32:00Z</time>
      </trkpt>
      <trkpt lat="42.88475" lon="-0.19674">
        <ele>1752.4</ele>
        <time>2026-07-15T07:32:01Z</time>
      </trkpt>
      <trkpt lat="42.88475" lon="-0.19674">
        <ele>1751.4</ele>
        <time>2026-07-15T07:32:02Z</time>
      </trkpt>
      <trkpt lat="42.88474" lon="-0.19673">
        <ele>1751.4</ele>
        <time>2026-07-15T07:32:02Z</time>
      </trkpt>
      <trkpt lat="42.88474" lon="-0.19673">
        <ele>1751.4</ele>
        <time>2026-07-15T07:32:03Z</time>
      </trkpt>
      <trkpt lat="42.88473" lon="-0.19672">
        <ele>1751.4</ele>
        <time>2026-07-15T07:32:04Z</time>
      </trkpt>
      <trkpt lat="42.88473" lon="-0.19671">
        <ele>1751.4</ele>
        <time>2026-07-15T07:32:05Z</time>
      </trkpt>
      <trkpt lat="42.88473" lon="-0.1967">
        <ele>1751.4</ele>
        <time>2026-07-15T07:32:06Z</time>
      </trkpt>
      <trkpt lat="42.88473" lon="-0.1967">
        <ele>1751.4</ele>
        <time>2026-07-15T07:32:07Z</time>
      </trkpt>
      <trkpt lat="42.88473" lon="-0.19669">
        <ele>1752.4</ele>
        <time>2026-07-15T07:32:08Z</time>
      </trkpt>
      <trkpt lat="42.88473" lon="-0.19669">
        <ele>1752.4</ele>
        <time>2026-07-15T07:32:08Z</time>
      </trkpt>
      <trkpt lat="42.88472" lon="-0.19669">
        <ele>1752.4</ele>
        <time>2026-07-15T07:32:09Z</time>
      </trkpt>
      <trkpt lat="42.88472" lon="-0.19669">
        <ele>1752.4</ele>
        <time>2026-07-15T07:32:09Z</time>
      </trkpt>
      <trkpt lat="42.88472" lon="-0.19668">
        <ele>1752.4</ele>
        <time>2026-07-15T07:32:10Z</time>
      </trkpt>
      <trkpt lat="42.88472" lon="-0.19668">
        <ele>1752.4</ele>
        <time>2026-07-15T07:32:11Z</time>
      </trkpt>
      <trkpt lat="42.88472" lon="-0.19668">
        <ele>1752.4</ele>
        <time>2026-07-15T07:32:12Z</time>
      </trkpt>
      <trkpt lat="42.88472" lon="-0.19667">
        <ele>1753.4</ele>
        <time>2026-07-15T07:32:12Z</time>
      </trkpt>
      <trkpt lat="42.88472" lon="-0.19667">
        <ele>1753.4</ele>
        <time>2026-07-15T07:32:13Z</time>
      </trkpt>
      <trkpt lat="42.88472" lon="-0.19666">
        <ele>1753.4</ele>
        <time>2026-07-15T07:32:14Z</time>
      </trkpt>
      <trkpt lat="42.88472" lon="-0.19666">
        <ele>1753.4</ele>
        <time>2026-07-15T07:32:15Z</time>
      </trkpt>
      <trkpt lat="42.88471" lon="-0.19665">
        <ele>1753.4</ele>
        <time>2026-07-15T07:32:15Z</time>
      </trkpt>
      <trkpt lat="42.88471" lon="-0.19665">
        <ele>1754.4</ele>
        <time>2026-07-15T07:32:16Z</time>
      </trkpt>
      <trkpt lat="42.88471" lon="-0.19664">
        <ele>1754.4</ele>
        <time>2026-07-15T07:32:17Z</time>
      </trkpt>
      <trkpt lat="42.88471" lon="-0.19664">
        <ele>1754.4</ele>
        <time>2026-07-15T07:32:18Z</time>
      </trkpt>
      <trkpt lat="42.88471" lon="-0.19664">
        <ele>1754.4</ele>
        <time>2026-07-15T07:32:19Z</time>
      </trkpt>
      <trkpt lat="42.88471" lon="-0.19663">
        <ele>1753.4</ele>
        <time>2026-07-15T07:32:20Z</time>
      </trkpt>
      <trkpt lat="42.8847" lon="-0.19663">
        <ele>1753.4</ele>
        <time>2026-07-15T07:32:20Z</time>
      </trkpt>
      <trkpt lat="42.8847" lon="-0.19663">
        <ele>1753.4</ele>
        <time>2026-07-15T07:32:21Z</time>
      </trkpt>
      <trkpt lat="42.88469" lon="-0.19663">
        <ele>1753.4</ele>
        <time>2026-07-15T07:32:22Z</time>
      </trkpt>
      <trkpt lat="42.88469" lon="-0.19662">
        <ele>1753.4</ele>
        <time>2026-07-15T07:32:23Z</time>
      </trkpt>
      <trkpt lat="42.88468" lon="-0.19662">
        <ele>1754.4</ele>
        <time>2026-07-15T07:32:24Z</time>
      </trkpt>
      <trkpt lat="42.88468" lon="-0.19662">
        <ele>1754.4</ele>
        <time>2026-07-15T07:32:25Z</time>
      </trkpt>
      <trkpt lat="42.88468" lon="-0.19662">
        <ele>1754.4</ele>
        <time>2026-07-15T07:32:26Z</time>
      </trkpt>
      <trkpt lat="42.88467" lon="-0.19661">
        <ele>1754.4</ele>
        <time>2026-07-15T07:32:27Z</time>
      </trkpt>
      <trkpt lat="42.88467" lon="-0.19661">
        <ele>1754.4</ele>
        <time>2026-07-15T07:32:27Z</time>
      </trkpt>
      <trkpt lat="42.88467" lon="-0.19661">
        <ele>1754.4</ele>
        <time>2026-07-15T07:32:28Z</time>
      </trkpt>
      <trkpt lat="42.88467" lon="-0.19661">
        <ele>1754.4</ele>
        <time>2026-07-15T07:32:29Z</time>
      </trkpt>
      <trkpt lat="42.88466" lon="-0.19661">
        <ele>1754.4</ele>
        <time>2026-07-15T07:32:30Z</time>
      </trkpt>
      <trkpt lat="42.88466" lon="-0.19661">
        <ele>1754.4</ele>
        <time>2026-07-15T07:32:31Z</time>
      </trkpt>
      <trkpt lat="42.88466" lon="-0.19661">
        <ele>1754.4</ele>
        <time>2026-07-15T07:32:31Z</time>
      </trkpt>
      <trkpt lat="42.88466" lon="-0.19661">
        <ele>1755.4</ele>
        <time>2026-07-15T07:32:32Z</time>
      </trkpt>
      <trkpt lat="42.88466" lon="-0.19661">
        <ele>1756.4</ele>
        <time>2026-07-15T07:32:33Z</time>
      </trkpt>
      <trkpt lat="42.88465" lon="-0.19662">
        <ele>1756.4</ele>
        <time>2026-07-15T07:32:34Z</time>
      </trkpt>
      <trkpt lat="42.88465" lon="-0.19661">
        <ele>1756.4</ele>
        <time>2026-07-15T07:32:35Z</time>
      </trkpt>
      <trkpt lat="42.88465" lon="-0.19661">
        <ele>1757.4</ele>
        <time>2026-07-15T07:32:36Z</time>
      </trkpt>
      <trkpt lat="42.88465" lon="-0.19661">
        <ele>1757.4</ele>
        <time>2026-07-15T07:32:37Z</time>
      </trkpt>
      <trkpt lat="42.88465" lon="-0.1966">
        <ele>1757.4</ele>
        <time>2026-07-15T07:32:38Z</time>
      </trkpt>
      <trkpt lat="42.88465" lon="-0.1966">
        <ele>1756.4</ele>
        <time>2026-07-15T07:32:39Z</time>
      </trkpt>
      <trkpt lat="42.88465" lon="-0.19659">
        <ele>1757.4</ele>
        <time>2026-07-15T07:32:39Z</time>
      </trkpt>
      <trkpt lat="42.88465" lon="-0.19659">
        <ele>1757.4</ele>
        <time>2026-07-15T07:32:40Z</time>
      </trkpt>
      <trkpt lat="42.88465" lon="-0.19659">
        <ele>1757.4</ele>
        <time>2026-07-15T07:32:40Z</time>
      </trkpt>
      <trkpt lat="42.88465" lon="-0.19658">
        <ele>1758.4</ele>
        <time>2026-07-15T07:32:41Z</time>
      </trkpt>
      <trkpt lat="42.88464" lon="-0.19657">
        <ele>1758.4</ele>
        <time>2026-07-15T07:32:42Z</time>
      </trkpt>
      <trkpt lat="42.88464" lon="-0.19657">
        <ele>1758.4</ele>
        <time>2026-07-15T07:32:43Z</time>
      </trkpt>
      <trkpt lat="42.88464" lon="-0.19657">
        <ele>1758.4</ele>
        <time>2026-07-15T07:32:44Z</time>
      </trkpt>
      <trkpt lat="42.88464" lon="-0.19657">
        <ele>1758.4</ele>
        <time>2026-07-15T07:32:45Z</time>
      </trkpt>
      <trkpt lat="42.88463" lon="-0.19657">
        <ele>1757.4</ele>
        <time>2026-07-15T07:32:46Z</time>
      </trkpt>
      <trkpt lat="42.88463" lon="-0.19657">
        <ele>1757.4</ele>
        <time>2026-07-15T07:32:46Z</time>
      </trkpt>
      <trkpt lat="42.88463" lon="-0.19657">
        <ele>1758.4</ele>
        <time>2026-07-15T07:32:47Z</time>
      </trkpt>
      <trkpt lat="42.88463" lon="-0.19658">
        <ele>1758.4</ele>
        <time>2026-07-15T07:32:47Z</time>
      </trkpt>
      <trkpt lat="42.88462" lon="-0.19658">
        <ele>1759.4</ele>
        <time>2026-07-15T07:32:48Z</time>
      </trkpt>
      <trkpt lat="42.88462" lon="-0.19659">
        <ele>1759.4</ele>
        <time>2026-07-15T07:32:49Z</time>
      </trkpt>
      <trkpt lat="42.88461" lon="-0.19659">
        <ele>1759.4</ele>
        <time>2026-07-15T07:32:50Z</time>
      </trkpt>
      <trkpt lat="42.88461" lon="-0.19659">
        <ele>1759.4</ele>
        <time>2026-07-15T07:32:51Z</time>
      </trkpt>
      <trkpt lat="42.88461" lon="-0.19659">
        <ele>1760.4</ele>
        <time>2026-07-15T07:32:52Z</time>
      </trkpt>
      <trkpt lat="42.88461" lon="-0.19658">
        <ele>1761.4</ele>
        <time>2026-07-15T07:32:53Z</time>
      </trkpt>
      <trkpt lat="42.88461" lon="-0.19658">
        <ele>1760.4</ele>
        <time>2026-07-15T07:32:54Z</time>
      </trkpt>
      <trkpt lat="42.88462" lon="-0.19657">
        <ele>1760.4</ele>
        <time>2026-07-15T07:32:55Z</time>
      </trkpt>
      <trkpt lat="42.88461" lon="-0.19657">
        <ele>1761.4</ele>
        <time>2026-07-15T07:32:56Z</time>
      </trkpt>
      <trkpt lat="42.88461" lon="-0.19656">
        <ele>1761.4</ele>
        <time>2026-07-15T07:32:57Z</time>
      </trkpt>
      <trkpt lat="42.88461" lon="-0.19655">
        <ele>1762.4</ele>
        <time>2026-07-15T07:32:57Z</time>
      </trkpt>
      <trkpt lat="42.88461" lon="-0.19655">
        <ele>1763.4</ele>
        <time>2026-07-15T07:32:58Z</time>
      </trkpt>
      <trkpt lat="42.8846" lon="-0.19654">
        <ele>1763.4</ele>
        <time>2026-07-15T07:32:59Z</time>
      </trkpt>
      <trkpt lat="42.8846" lon="-0.19654">
        <ele>1763.4</ele>
        <time>2026-07-15T07:33:00Z</time>
      </trkpt>
      <trkpt lat="42.8846" lon="-0.19653">
        <ele>1763.4</ele>
        <time>2026-07-15T07:33:01Z</time>
      </trkpt>
      <trkpt lat="42.8846" lon="-0.19653">
        <ele>1764.4</ele>
        <time>2026-07-15T07:33:02Z</time>
      </trkpt>
      <trkpt lat="42.8846" lon="-0.19652">
        <ele>1764.4</ele>
        <time>2026-07-15T07:33:02Z</time>
      </trkpt>
      <trkpt lat="42.8846" lon="-0.19652">
        <ele>1764.4</ele>
        <time>2026-07-15T07:33:03Z</time>
      </trkpt>
      <trkpt lat="42.88459" lon="-0.19652">
        <ele>1765.4</ele>
        <time>2026-07-15T07:33:04Z</time>
      </trkpt>
      <trkpt lat="42.88459" lon="-0.19652">
        <ele>1766.4</ele>
        <time>2026-07-15T07:33:05Z</time>
      </trkpt>
      <trkpt lat="42.88459" lon="-0.19652">
        <ele>1767.4</ele>
        <time>2026-07-15T07:33:06Z</time>
      </trkpt>
      <trkpt lat="42.88459" lon="-0.19651">
        <ele>1767.4</ele>
        <time>2026-07-15T07:33:07Z</time>
      </trkpt>
      <trkpt lat="42.88459" lon="-0.19651">
        <ele>1767.4</ele>
        <time>2026-07-15T07:33:08Z</time>
      </trkpt>
      <trkpt lat="42.88459" lon="-0.19651">
        <ele>1768.4</ele>
        <time>2026-07-15T07:33:09Z</time>
      </trkpt>
      <trkpt lat="42.8846" lon="-0.19651">
        <ele>1767.4</ele>
        <time>2026-07-15T07:33:10Z</time>
      </trkpt>
      <trkpt lat="42.8846" lon="-0.19651">
        <ele>1767.4</ele>
        <time>2026-07-15T07:33:10Z</time>
      </trkpt>
      <trkpt lat="42.8846" lon="-0.1965">
        <ele>1769.4</ele>
        <time>2026-07-15T07:33:11Z</time>
      </trkpt>
      <trkpt lat="42.8846" lon="-0.1965">
        <ele>1769.4</ele>
        <time>2026-07-15T07:33:12Z</time>
      </trkpt>
      <trkpt lat="42.8846" lon="-0.19649">
        <ele>1770.4</ele>
        <time>2026-07-15T07:33:13Z</time>
      </trkpt>
      <trkpt lat="42.8846" lon="-0.19649">
        <ele>1770.4</ele>
        <time>2026-07-15T07:33:14Z</time>
      </trkpt>
      <trkpt lat="42.88459" lon="-0.19648">
        <ele>1770.4</ele>
        <time>2026-07-15T07:33:15Z</time>
      </trkpt>
      <trkpt lat="42.88459" lon="-0.19648">
        <ele>1770.4</ele>
        <time>2026-07-15T07:33:15Z</time>
      </trkpt>
      <trkpt lat="42.88459" lon="-0.19647">
        <ele>1770.4</ele>
        <time>2026-07-15T07:33:16Z</time>
      </trkpt>
      <trkpt lat="42.88459" lon="-0.19647">
        <ele>1770.4</ele>
        <time>2026-07-15T07:33:17Z</time>
      </trkpt>
      <trkpt lat="42.88459" lon="-0.19647">
        <ele>1769.4</ele>
        <time>2026-07-15T07:33:17Z</time>
      </trkpt>
      <trkpt lat="42.88458" lon="-0.19646">
        <ele>1769.4</ele>
        <time>2026-07-15T07:33:18Z</time>
      </trkpt>
      <trkpt lat="42.88458" lon="-0.19646">
        <ele>1769.4</ele>
        <time>2026-07-15T07:33:19Z</time>
      </trkpt>
      <trkpt lat="42.88457" lon="-0.19646">
        <ele>1769.4</ele>
        <time>2026-07-15T07:33:20Z</time>
      </trkpt>
      <trkpt lat="42.88457" lon="-0.19645">
        <ele>1769.4</ele>
        <time>2026-07-15T07:33:21Z</time>
      </trkpt>
      <trkpt lat="42.88457" lon="-0.19645">
        <ele>1769.4</ele>
        <time>2026-07-15T07:33:22Z</time>
      </trkpt>
      <trkpt lat="42.88456" lon="-0.19645">
        <ele>1769.4</ele>
        <time>2026-07-15T07:33:23Z</time>
      </trkpt>
      <trkpt lat="42.88456" lon="-0.19644">
        <ele>1769.4</ele>
        <time>2026-07-15T07:33:24Z</time>
      </trkpt>
      <trkpt lat="42.88456" lon="-0.19644">
        <ele>1769.4</ele>
        <time>2026-07-15T07:33:25Z</time>
      </trkpt>
      <trkpt lat="42.88456" lon="-0.19644">
        <ele>1769.4</ele>
        <time>2026-07-15T07:33:26Z</time>
      </trkpt>
      <trkpt lat="42.88455" lon="-0.19644">
        <ele>1769.4</ele>
        <time>2026-07-15T07:33:27Z</time>
      </trkpt>
      <trkpt lat="42.88455" lon="-0.19644">
        <ele>1769.4</ele>
        <time>2026-07-15T07:33:28Z</time>
      </trkpt>
      <trkpt lat="42.88455" lon="-0.19645">
        <ele>1769.4</ele>
        <time>2026-07-15T07:33:29Z</time>
      </trkpt>
      <trkpt lat="42.88455" lon="-0.19645">
        <ele>1769.4</ele>
        <time>2026-07-15T07:33:30Z</time>
      </trkpt>
      <trkpt lat="42.88454" lon="-0.19645">
        <ele>1768.4</ele>
        <time>2026-07-15T07:33:31Z</time>
      </trkpt>
      <trkpt lat="42.88454" lon="-0.19645">
        <ele>1769.4</ele>
        <time>2026-07-15T07:33:32Z</time>
      </trkpt>
      <trkpt lat="42.88453" lon="-0.19645">
        <ele>1771.4</ele>
        <time>2026-07-15T07:33:33Z</time>
      </trkpt>
      <trkpt lat="42.88453" lon="-0.19645">
        <ele>1771.4</ele>
        <time>2026-07-15T07:33:34Z</time>
      </trkpt>
      <trkpt lat="42.88453" lon="-0.19645">
        <ele>1771.4</ele>
        <time>2026-07-15T07:33:35Z</time>
      </trkpt>
      <trkpt lat="42.88453" lon="-0.19645">
        <ele>1771.4</ele>
        <time>2026-07-15T07:33:36Z</time>
      </trkpt>
      <trkpt lat="42.88452" lon="-0.19644">
        <ele>1771.4</ele>
        <time>2026-07-15T07:33:37Z</time>
      </trkpt>
      <trkpt lat="42.88452" lon="-0.19643">
        <ele>1771.4</ele>
        <time>2026-07-15T07:33:38Z</time>
      </trkpt>
      <trkpt lat="42.88451" lon="-0.19643">
        <ele>1771.4</ele>
        <time>2026-07-15T07:33:39Z</time>
      </trkpt>
      <trkpt lat="42.88451" lon="-0.19642">
        <ele>1771.4</ele>
        <time>2026-07-15T07:33:40Z</time>
      </trkpt>
      <trkpt lat="42.88451" lon="-0.19641">
        <ele>1772.4</ele>
        <time>2026-07-15T07:33:41Z</time>
      </trkpt>
      <trkpt lat="42.8845" lon="-0.19641">
        <ele>1772.4</ele>
        <time>2026-07-15T07:33:42Z</time>
      </trkpt>
      <trkpt lat="42.8845" lon="-0.19641">
        <ele>1772.4</ele>
        <time>2026-07-15T07:33:43Z</time>
      </trkpt>
      <trkpt lat="42.88449" lon="-0.19641">
        <ele>1772.4</ele>
        <time>2026-07-15T07:33:44Z</time>
      </trkpt>
      <trkpt lat="42.88449" lon="-0.19641">
        <ele>1772.4</ele>
        <time>2026-07-15T07:33:45Z</time>
      </trkpt>
      <trkpt lat="42.88449" lon="-0.19641">
        <ele>1772.4</ele>
        <time>2026-07-15T07:33:45Z</time>
      </trkpt>
      <trkpt lat="42.88448" lon="-0.1964">
        <ele>1772.4</ele>
        <time>2026-07-15T07:33:46Z</time>
      </trkpt>
      <trkpt lat="42.88447" lon="-0.1964">
        <ele>1772.4</ele>
        <time>2026-07-15T07:33:47Z</time>
      </trkpt>
      <trkpt lat="42.88447" lon="-0.1964">
        <ele>1772.4</ele>
        <time>2026-07-15T07:33:48Z</time>
      </trkpt>
      <trkpt lat="42.88446" lon="-0.1964">
        <ele>1772.4</ele>
        <time>2026-07-15T07:33:49Z</time>
      </trkpt>
      <trkpt lat="42.88446" lon="-0.1964">
        <ele>1772.4</ele>
        <time>2026-07-15T07:33:50Z</time>
      </trkpt>
      <trkpt lat="42.88445" lon="-0.19641">
        <ele>1772.4</ele>
        <time>2026-07-15T07:33:50Z</time>
      </trkpt>
      <trkpt lat="42.88445" lon="-0.19641">
        <ele>1772.4</ele>
        <time>2026-07-15T07:33:51Z</time>
      </trkpt>
      <trkpt lat="42.88444" lon="-0.19641">
        <ele>1772.4</ele>
        <time>2026-07-15T07:33:52Z</time>
      </trkpt>
      <trkpt lat="42.88444" lon="-0.19641">
        <ele>1772.4</ele>
        <time>2026-07-15T07:33:53Z</time>
      </trkpt>
      <trkpt lat="42.88444" lon="-0.19642">
        <ele>1772.4</ele>
        <time>2026-07-15T07:33:53Z</time>
      </trkpt>
      <trkpt lat="42.88444" lon="-0.19641">
        <ele>1773.4</ele>
        <time>2026-07-15T07:33:54Z</time>
      </trkpt>
      <trkpt lat="42.88444" lon="-0.19641">
        <ele>1773.4</ele>
        <time>2026-07-15T07:33:55Z</time>
      </trkpt>
      <trkpt lat="42.88444" lon="-0.19641">
        <ele>1773.4</ele>
        <time>2026-07-15T07:33:55Z</time>
      </trkpt>
      <trkpt lat="42.88444" lon="-0.19641">
        <ele>1773.4</ele>
        <time>2026-07-15T07:33:56Z</time>
      </trkpt>
      <trkpt lat="42.88444" lon="-0.19641">
        <ele>1774.4</ele>
        <time>2026-07-15T07:33:56Z</time>
      </trkpt>
      <trkpt lat="42.88443" lon="-0.19641">
        <ele>1775.4</ele>
        <time>2026-07-15T07:33:57Z</time>
      </trkpt>
      <trkpt lat="42.88444" lon="-0.1964">
        <ele>1775.4</ele>
        <time>2026-07-15T07:33:58Z</time>
      </trkpt>
      <trkpt lat="42.88444" lon="-0.1964">
        <ele>1775.4</ele>
        <time>2026-07-15T07:33:59Z</time>
      </trkpt>
      <trkpt lat="42.88444" lon="-0.1964">
        <ele>1775.4</ele>
        <time>2026-07-15T07:34:00Z</time>
      </trkpt>
      <trkpt lat="42.88444" lon="-0.1964">
        <ele>1775.4</ele>
        <time>2026-07-15T07:34:01Z</time>
      </trkpt>
      <trkpt lat="42.88444" lon="-0.1964">
        <ele>1775.4</ele>
        <time>2026-07-15T07:34:02Z</time>
      </trkpt>
      <trkpt lat="42.88445" lon="-0.1964">
        <ele>1775.4</ele>
        <time>2026-07-15T07:34:03Z</time>
      </trkpt>
      <trkpt lat="42.88445" lon="-0.19639">
        <ele>1773.4</ele>
        <time>2026-07-15T07:34:04Z</time>
      </trkpt>
      <trkpt lat="42.88445" lon="-0.19639">
        <ele>1774.4</ele>
        <time>2026-07-15T07:34:05Z</time>
      </trkpt>
      <trkpt lat="42.88445" lon="-0.19638">
        <ele>1774.4</ele>
        <time>2026-07-15T07:34:06Z</time>
      </trkpt>
      <trkpt lat="42.88445" lon="-0.19637">
        <ele>1775.4</ele>
        <time>2026-07-15T07:34:06Z</time>
      </trkpt>
      <trkpt lat="42.88444" lon="-0.19637">
        <ele>1776.4</ele>
        <time>2026-07-15T07:34:07Z</time>
      </trkpt>
      <trkpt lat="42.88444" lon="-0.19636">
        <ele>1776.4</ele>
        <time>2026-07-15T07:34:08Z</time>
      </trkpt>
      <trkpt lat="42.88444" lon="-0.19635">
        <ele>1776.4</ele>
        <time>2026-07-15T07:34:09Z</time>
      </trkpt>
      <trkpt lat="42.88443" lon="-0.19634">
        <ele>1775.4</ele>
        <time>2026-07-15T07:34:10Z</time>
      </trkpt>
      <trkpt lat="42.88443" lon="-0.19634">
        <ele>1777.4</ele>
        <time>2026-07-15T07:34:11Z</time>
      </trkpt>
      <trkpt lat="42.88443" lon="-0.19634">
        <ele>1777.4</ele>
        <time>2026-07-15T07:34:12Z</time>
      </trkpt>
      <trkpt lat="42.88443" lon="-0.19633">
        <ele>1777.4</ele>
        <time>2026-07-15T07:34:13Z</time>
      </trkpt>
      <trkpt lat="42.88443" lon="-0.19633">
        <ele>1777.4</ele>
        <time>2026-07-15T07:34:13Z</time>
      </trkpt>
      <trkpt lat="42.88443" lon="-0.19633">
        <ele>1777.4</ele>
        <time>2026-07-15T07:34:14Z</time>
      </trkpt>
      <trkpt lat="42.88443" lon="-0.19632">
        <ele>1777.4</ele>
        <time>2026-07-15T07:34:15Z</time>
      </trkpt>
      <trkpt lat="42.88443" lon="-0.19632">
        <ele>1777.4</ele>
        <time>2026-07-15T07:34:16Z</time>
      </trkpt>
      <trkpt lat="42.88443" lon="-0.19632">
        <ele>1777.4</ele>
        <time>2026-07-15T07:34:17Z</time>
      </trkpt>
      <trkpt lat="42.88443" lon="-0.19631">
        <ele>1778.4</ele>
        <time>2026-07-15T07:34:18Z</time>
      </trkpt>
      <trkpt lat="42.88443" lon="-0.19631">
        <ele>1778.4</ele>
        <time>2026-07-15T07:34:19Z</time>
      </trkpt>
      <trkpt lat="42.88442" lon="-0.19631">
        <ele>1777.4</ele>
        <time>2026-07-15T07:34:20Z</time>
      </trkpt>
      <trkpt lat="42.88443" lon="-0.19631">
        <ele>1777.4</ele>
        <time>2026-07-15T07:34:21Z</time>
      </trkpt>
      <trkpt lat="42.88443" lon="-0.19631">
        <ele>1777.4</ele>
        <time>2026-07-15T07:34:22Z</time>
      </trkpt>
      <trkpt lat="42.88443" lon="-0.19631">
        <ele>1777.4</ele>
        <time>2026-07-15T07:34:23Z</time>
      </trkpt>
      <trkpt lat="42.88442" lon="-0.19631">
        <ele>1777.4</ele>
        <time>2026-07-15T07:34:24Z</time>
      </trkpt>
      <trkpt lat="42.88442" lon="-0.19631">
        <ele>1778.4</ele>
        <time>2026-07-15T07:34:25Z</time>
      </trkpt>
      <trkpt lat="42.88442" lon="-0.19631">
        <ele>1779.4</ele>
        <time>2026-07-15T07:34:26Z</time>
      </trkpt>
      <trkpt lat="42.88441" lon="-0.19631">
        <ele>1779.4</ele>
        <time>2026-07-15T07:34:27Z</time>
      </trkpt>
      <trkpt lat="42.88441" lon="-0.19632">
        <ele>1779.4</ele>
        <time>2026-07-15T07:34:28Z</time>
      </trkpt>
      <trkpt lat="42.8844" lon="-0.19632">
        <ele>1778.4</ele>
        <time>2026-07-15T07:34:29Z</time>
      </trkpt>
      <trkpt lat="42.8844" lon="-0.19632">
        <ele>1778.4</ele>
        <time>2026-07-15T07:34:30Z</time>
      </trkpt>
      <trkpt lat="42.8844" lon="-0.19633">
        <ele>1778.4</ele>
        <time>2026-07-15T07:34:31Z</time>
      </trkpt>
      <trkpt lat="42.8844" lon="-0.19633">
        <ele>1777.4</ele>
        <time>2026-07-15T07:34:31Z</time>
      </trkpt>
      <trkpt lat="42.88439" lon="-0.19633">
        <ele>1776.4</ele>
        <time>2026-07-15T07:34:32Z</time>
      </trkpt>
      <trkpt lat="42.88439" lon="-0.19633">
        <ele>1776.4</ele>
        <time>2026-07-15T07:34:33Z</time>
      </trkpt>
      <trkpt lat="42.88439" lon="-0.19632">
        <ele>1776.4</ele>
        <time>2026-07-15T07:34:34Z</time>
      </trkpt>
      <trkpt lat="42.88438" lon="-0.19632">
        <ele>1776.4</ele>
        <time>2026-07-15T07:34:35Z</time>
      </trkpt>
      <trkpt lat="42.88438" lon="-0.19632">
        <ele>1776.4</ele>
        <time>2026-07-15T07:34:36Z</time>
      </trkpt>
      <trkpt lat="42.88438" lon="-0.19632">
        <ele>1776.4</ele>
        <time>2026-07-15T07:34:37Z</time>
      </trkpt>
      <trkpt lat="42.88437" lon="-0.19631">
        <ele>1776.4</ele>
        <time>2026-07-15T07:34:38Z</time>
      </trkpt>
      <trkpt lat="42.88437" lon="-0.1963">
        <ele>1777.4</ele>
        <time>2026-07-15T07:34:39Z</time>
      </trkpt>
      <trkpt lat="42.88437" lon="-0.19629">
        <ele>1777.4</ele>
        <time>2026-07-15T07:34:40Z</time>
      </trkpt>
      <trkpt lat="42.88437" lon="-0.19629">
        <ele>1777.4</ele>
        <time>2026-07-15T07:34:41Z</time>
      </trkpt>
      <trkpt lat="42.88437" lon="-0.19629">
        <ele>1779.4</ele>
        <time>2026-07-15T07:34:42Z</time>
      </trkpt>
      <trkpt lat="42.88436" lon="-0.19629">
        <ele>1779.4</ele>
        <time>2026-07-15T07:34:43Z</time>
      </trkpt>
      <trkpt lat="42.88436" lon="-0.1963">
        <ele>1779.4</ele>
        <time>2026-07-15T07:34:44Z</time>
      </trkpt>
      <trkpt lat="42.88436" lon="-0.1963">
        <ele>1779.4</ele>
        <time>2026-07-15T07:34:45Z</time>
      </trkpt>
      <trkpt lat="42.88435" lon="-0.1963">
        <ele>1779.4</ele>
        <time>2026-07-15T07:34:46Z</time>
      </trkpt>
      <trkpt lat="42.88435" lon="-0.1963">
        <ele>1779.4</ele>
        <time>2026-07-15T07:34:47Z</time>
      </trkpt>
      <trkpt lat="42.88435" lon="-0.1963">
        <ele>1778.4</ele>
        <time>2026-07-15T07:34:48Z</time>
      </trkpt>
      <trkpt lat="42.88434" lon="-0.1963">
        <ele>1777.4</ele>
        <time>2026-07-15T07:34:49Z</time>
      </trkpt>
      <trkpt lat="42.88434" lon="-0.1963">
        <ele>1777.4</ele>
        <time>2026-07-15T07:34:50Z</time>
      </trkpt>
      <trkpt lat="42.88434" lon="-0.19631">
        <ele>1776.4</ele>
        <time>2026-07-15T07:34:51Z</time>
      </trkpt>
      <trkpt lat="42.88433" lon="-0.19631">
        <ele>1777.4</ele>
        <time>2026-07-15T07:34:52Z</time>
      </trkpt>
      <trkpt lat="42.88433" lon="-0.19631">
        <ele>1776.4</ele>
        <time>2026-07-15T07:34:52Z</time>
      </trkpt>
      <trkpt lat="42.88433" lon="-0.19632">
        <ele>1776.4</ele>
        <time>2026-07-15T07:34:53Z</time>
      </trkpt>
      <trkpt lat="42.88432" lon="-0.19632">
        <ele>1776.4</ele>
        <time>2026-07-15T07:34:53Z</time>
      </trkpt>
      <trkpt lat="42.88432" lon="-0.19632">
        <ele>1776.4</ele>
        <time>2026-07-15T07:34:54Z</time>
      </trkpt>
      <trkpt lat="42.88432" lon="-0.19631">
        <ele>1776.4</ele>
        <time>2026-07-15T07:34:55Z</time>
      </trkpt>
      <trkpt lat="42.88432" lon="-0.19631">
        <ele>1776.4</ele>
        <time>2026-07-15T07:34:56Z</time>
      </trkpt>
      <trkpt lat="42.88431" lon="-0.19632">
        <ele>1777.4</ele>
        <time>2026-07-15T07:34:57Z</time>
      </trkpt>
      <trkpt lat="42.88431" lon="-0.19632">
        <ele>1777.4</ele>
        <time>2026-07-15T07:34:58Z</time>
      </trkpt>
      <trkpt lat="42.8843" lon="-0.19632">
        <ele>1777.4</ele>
        <time>2026-07-15T07:34:59Z</time>
      </trkpt>
      <trkpt lat="42.8843" lon="-0.19632">
        <ele>1777.4</ele>
        <time>2026-07-15T07:35:00Z</time>
      </trkpt>
      <trkpt lat="42.8843" lon="-0.19632">
        <ele>1777.4</ele>
        <time>2026-07-15T07:35:01Z</time>
      </trkpt>
      <trkpt lat="42.8843" lon="-0.19631">
        <ele>1777.4</ele>
        <time>2026-07-15T07:35:02Z</time>
      </trkpt>
      <trkpt lat="42.88429" lon="-0.19631">
        <ele>1777.4</ele>
        <time>2026-07-15T07:35:03Z</time>
      </trkpt>
      <trkpt lat="42.88429" lon="-0.19631">
        <ele>1778.4</ele>
        <time>2026-07-15T07:35:04Z</time>
      </trkpt>
      <trkpt lat="42.88429" lon="-0.19631">
        <ele>1778.4</ele>
        <time>2026-07-15T07:35:05Z</time>
      </trkpt>
      <trkpt lat="42.88428" lon="-0.19631">
        <ele>1778.4</ele>
        <time>2026-07-15T07:35:06Z</time>
      </trkpt>
      <trkpt lat="42.88428" lon="-0.19632">
        <ele>1779.4</ele>
        <time>2026-07-15T07:35:07Z</time>
      </trkpt>
      <trkpt lat="42.88427" lon="-0.19632">
        <ele>1779.4</ele>
        <time>2026-07-15T07:35:08Z</time>
      </trkpt>
      <trkpt lat="42.88427" lon="-0.19632">
        <ele>1779.4</ele>
        <time>2026-07-15T07:35:09Z</time>
      </trkpt>
      <trkpt lat="42.88426" lon="-0.19632">
        <ele>1779.4</ele>
        <time>2026-07-15T07:35:10Z</time>
      </trkpt>
      <trkpt lat="42.88426" lon="-0.19632">
        <ele>1780.4</ele>
        <time>2026-07-15T07:35:10Z</time>
      </trkpt>
      <trkpt lat="42.88426" lon="-0.19633">
        <ele>1780.4</ele>
        <time>2026-07-15T07:35:11Z</time>
      </trkpt>
      <trkpt lat="42.88426" lon="-0.19633">
        <ele>1780.4</ele>
        <time>2026-07-15T07:35:11Z</time>
      </trkpt>
      <trkpt lat="42.88425" lon="-0.19633">
        <ele>1780.4</ele>
        <time>2026-07-15T07:35:12Z</time>
      </trkpt>
      <trkpt lat="42.88425" lon="-0.19633">
        <ele>1780.4</ele>
        <time>2026-07-15T07:35:13Z</time>
      </trkpt>
      <trkpt lat="42.88424" lon="-0.19633">
        <ele>1780.4</ele>
        <time>2026-07-15T07:35:14Z</time>
      </trkpt>
      <trkpt lat="42.88424" lon="-0.19633">
        <ele>1780.4</ele>
        <time>2026-07-15T07:35:15Z</time>
      </trkpt>
      <trkpt lat="42.88424" lon="-0.19632">
        <ele>1779.4</ele>
        <time>2026-07-15T07:35:16Z</time>
      </trkpt>
      <trkpt lat="42.88423" lon="-0.19632">
        <ele>1779.4</ele>
        <time>2026-07-15T07:35:17Z</time>
      </trkpt>
      <trkpt lat="42.88423" lon="-0.19632">
        <ele>1780.4</ele>
        <time>2026-07-15T07:35:18Z</time>
      </trkpt>
      <trkpt lat="42.88422" lon="-0.19632">
        <ele>1779.4</ele>
        <time>2026-07-15T07:35:19Z</time>
      </trkpt>
      <trkpt lat="42.88421" lon="-0.19633">
        <ele>1780.4</ele>
        <time>2026-07-15T07:35:20Z</time>
      </trkpt>
      <trkpt lat="42.88421" lon="-0.19633">
        <ele>1780.4</ele>
        <time>2026-07-15T07:35:21Z</time>
      </trkpt>
      <trkpt lat="42.8842" lon="-0.19633">
        <ele>1780.4</ele>
        <time>2026-07-15T07:35:21Z</time>
      </trkpt>
      <trkpt lat="42.8842" lon="-0.19633">
        <ele>1780.4</ele>
        <time>2026-07-15T07:35:22Z</time>
      </trkpt>
      <trkpt lat="42.8842" lon="-0.19633">
        <ele>1780.4</ele>
        <time>2026-07-15T07:35:22Z</time>
      </trkpt>
      <trkpt lat="42.88419" lon="-0.19633">
        <ele>1780.4</ele>
        <time>2026-07-15T07:35:23Z</time>
      </trkpt>
      <trkpt lat="42.88419" lon="-0.19633">
        <ele>1780.4</ele>
        <time>2026-07-15T07:35:24Z</time>
      </trkpt>
      <trkpt lat="42.88418" lon="-0.19633">
        <ele>1781.4</ele>
        <time>2026-07-15T07:35:25Z</time>
      </trkpt>
      <trkpt lat="42.88418" lon="-0.19633">
        <ele>1780.4</ele>
        <time>2026-07-15T07:35:26Z</time>
      </trkpt>
      <trkpt lat="42.88417" lon="-0.19634">
        <ele>1780.4</ele>
        <time>2026-07-15T07:35:27Z</time>
      </trkpt>
      <trkpt lat="42.88417" lon="-0.19634">
        <ele>1781.4</ele>
        <time>2026-07-15T07:35:28Z</time>
      </trkpt>
      <trkpt lat="42.88416" lon="-0.19634">
        <ele>1781.4</ele>
        <time>2026-07-15T07:35:29Z</time>
      </trkpt>
      <trkpt lat="42.88416" lon="-0.19635">
        <ele>1781.4</ele>
        <time>2026-07-15T07:35:30Z</time>
      </trkpt>
      <trkpt lat="42.88416" lon="-0.19635">
        <ele>1782.4</ele>
        <time>2026-07-15T07:35:31Z</time>
      </trkpt>
      <trkpt lat="42.88415" lon="-0.19635">
        <ele>1782.4</ele>
        <time>2026-07-15T07:35:31Z</time>
      </trkpt>
      <trkpt lat="42.88415" lon="-0.19635">
        <ele>1781.4</ele>
        <time>2026-07-15T07:35:32Z</time>
      </trkpt>
      <trkpt lat="42.88415" lon="-0.19635">
        <ele>1781.4</ele>
        <time>2026-07-15T07:35:33Z</time>
      </trkpt>
      <trkpt lat="42.88414" lon="-0.19635">
        <ele>1782.4</ele>
        <time>2026-07-15T07:35:34Z</time>
      </trkpt>
      <trkpt lat="42.88414" lon="-0.19636">
        <ele>1782.4</ele>
        <time>2026-07-15T07:35:35Z</time>
      </trkpt>
      <trkpt lat="42.88414" lon="-0.19636">
        <ele>1783.4</ele>
        <time>2026-07-15T07:35:35Z</time>
      </trkpt>
      <trkpt lat="42.88413" lon="-0.19636">
        <ele>1783.4</ele>
        <time>2026-07-15T07:35:36Z</time>
      </trkpt>
      <trkpt lat="42.88413" lon="-0.19637">
        <ele>1784.4</ele>
        <time>2026-07-15T07:35:37Z</time>
      </trkpt>
      <trkpt lat="42.88413" lon="-0.19637">
        <ele>1784.4</ele>
        <time>2026-07-15T07:35:38Z</time>
      </trkpt>
      <trkpt lat="42.88412" lon="-0.19638">
        <ele>1785.4</ele>
        <time>2026-07-15T07:35:39Z</time>
      </trkpt>
      <trkpt lat="42.88412" lon="-0.19638">
        <ele>1785.4</ele>
        <time>2026-07-15T07:35:39Z</time>
      </trkpt>
      <trkpt lat="42.88411" lon="-0.19638">
        <ele>1785.4</ele>
        <time>2026-07-15T07:35:40Z</time>
      </trkpt>
      <trkpt lat="42.88411" lon="-0.19639">
        <ele>1784.4</ele>
        <time>2026-07-15T07:35:41Z</time>
      </trkpt>
      <trkpt lat="42.8841" lon="-0.1964">
        <ele>1784.4</ele>
        <time>2026-07-15T07:35:42Z</time>
      </trkpt>
      <trkpt lat="42.8841" lon="-0.1964">
        <ele>1784.4</ele>
        <time>2026-07-15T07:35:43Z</time>
      </trkpt>
      <trkpt lat="42.88409" lon="-0.19641">
        <ele>1784.4</ele>
        <time>2026-07-15T07:35:44Z</time>
      </trkpt>
      <trkpt lat="42.88409" lon="-0.19641">
        <ele>1784.4</ele>
        <time>2026-07-15T07:35:45Z</time>
      </trkpt>
      <trkpt lat="42.88408" lon="-0.19641">
        <ele>1784.4</ele>
        <time>2026-07-15T07:35:46Z</time>
      </trkpt>
      <trkpt lat="42.88408" lon="-0.19641">
        <ele>1784.4</ele>
        <time>2026-07-15T07:35:46Z</time>
      </trkpt>
      <trkpt lat="42.88407" lon="-0.19641">
        <ele>1784.4</ele>
        <time>2026-07-15T07:35:47Z</time>
      </trkpt>
      <trkpt lat="42.88407" lon="-0.19641">
        <ele>1784.4</ele>
        <time>2026-07-15T07:35:48Z</time>
      </trkpt>
      <trkpt lat="42.88406" lon="-0.19641">
        <ele>1784.4</ele>
        <time>2026-07-15T07:35:49Z</time>
      </trkpt>
      <trkpt lat="42.88406" lon="-0.19641">
        <ele>1784.4</ele>
        <time>2026-07-15T07:35:50Z</time>
      </trkpt>
      <trkpt lat="42.88405" lon="-0.19642">
        <ele>1785.4</ele>
        <time>2026-07-15T07:35:51Z</time>
      </trkpt>
      <trkpt lat="42.88405" lon="-0.19642">
        <ele>1785.4</ele>
        <time>2026-07-15T07:35:52Z</time>
      </trkpt>
      <trkpt lat="42.88404" lon="-0.19642">
        <ele>1785.4</ele>
        <time>2026-07-15T07:35:53Z</time>
      </trkpt>
      <trkpt lat="42.88404" lon="-0.19642">
        <ele>1785.4</ele>
        <time>2026-07-15T07:35:54Z</time>
      </trkpt>
      <trkpt lat="42.88404" lon="-0.19641">
        <ele>1785.4</ele>
        <time>2026-07-15T07:35:54Z</time>
      </trkpt>
      <trkpt lat="42.88404" lon="-0.19641">
        <ele>1785.4</ele>
        <time>2026-07-15T07:35:55Z</time>
      </trkpt>
      <trkpt lat="42.88403" lon="-0.19641">
        <ele>1785.4</ele>
        <time>2026-07-15T07:35:55Z</time>
      </trkpt>
      <trkpt lat="42.88403" lon="-0.19641">
        <ele>1784.4</ele>
        <time>2026-07-15T07:35:56Z</time>
      </trkpt>
      <trkpt lat="42.88402" lon="-0.19641">
        <ele>1784.4</ele>
        <time>2026-07-15T07:35:57Z</time>
      </trkpt>
      <trkpt lat="42.88402" lon="-0.19641">
        <ele>1785.4</ele>
        <time>2026-07-15T07:35:58Z</time>
      </trkpt>
      <trkpt lat="42.88401" lon="-0.19642">
        <ele>1785.4</ele>
        <time>2026-07-15T07:35:59Z</time>
      </trkpt>
      <trkpt lat="42.88401" lon="-0.19643">
        <ele>1786.4</ele>
        <time>2026-07-15T07:36:00Z</time>
      </trkpt>
      <trkpt lat="42.88401" lon="-0.19643">
        <ele>1786.4</ele>
        <time>2026-07-15T07:36:01Z</time>
      </trkpt>
      <trkpt lat="42.884" lon="-0.19643">
        <ele>1786.4</ele>
        <time>2026-07-15T07:36:02Z</time>
      </trkpt>
      <trkpt lat="42.88399" lon="-0.19644">
        <ele>1786.4</ele>
        <time>2026-07-15T07:36:03Z</time>
      </trkpt>
      <trkpt lat="42.88399" lon="-0.19644">
        <ele>1787.4</ele>
        <time>2026-07-15T07:36:04Z</time>
      </trkpt>
      <trkpt lat="42.88399" lon="-0.19644">
        <ele>1787.4</ele>
        <time>2026-07-15T07:36:04Z</time>
      </trkpt>
      <trkpt lat="42.88399" lon="-0.19644">
        <ele>1787.4</ele>
        <time>2026-07-15T07:36:05Z</time>
      </trkpt>
      <trkpt lat="42.88398" lon="-0.19644">
        <ele>1788.4</ele>
        <time>2026-07-15T07:36:06Z</time>
      </trkpt>
      <trkpt lat="42.88398" lon="-0.19644">
        <ele>1788.4</ele>
        <time>2026-07-15T07:36:07Z</time>
      </trkpt>
      <trkpt lat="42.88397" lon="-0.19644">
        <ele>1788.4</ele>
        <time>2026-07-15T07:36:08Z</time>
      </trkpt>
      <trkpt lat="42.88397" lon="-0.19644">
        <ele>1789.4</ele>
        <time>2026-07-15T07:36:09Z</time>
      </trkpt>
      <trkpt lat="42.88396" lon="-0.19644">
        <ele>1788.4</ele>
        <time>2026-07-15T07:36:09Z</time>
      </trkpt>
      <trkpt lat="42.88396" lon="-0.19644">
        <ele>1787.4</ele>
        <time>2026-07-15T07:36:10Z</time>
      </trkpt>
      <trkpt lat="42.88396" lon="-0.19645">
        <ele>1787.4</ele>
        <time>2026-07-15T07:36:11Z</time>
      </trkpt>
      <trkpt lat="42.88396" lon="-0.19645">
        <ele>1787.4</ele>
        <time>2026-07-15T07:36:12Z</time>
      </trkpt>
      <trkpt lat="42.88395" lon="-0.19646">
        <ele>1787.4</ele>
        <time>2026-07-15T07:36:13Z</time>
      </trkpt>
      <trkpt lat="42.88395" lon="-0.19647">
        <ele>1788.4</ele>
        <time>2026-07-15T07:36:14Z</time>
      </trkpt>
      <trkpt lat="42.88395" lon="-0.19647">
        <ele>1788.4</ele>
        <time>2026-07-15T07:36:15Z</time>
      </trkpt>
      <trkpt lat="42.88394" lon="-0.19648">
        <ele>1788.4</ele>
        <time>2026-07-15T07:36:16Z</time>
      </trkpt>
      <trkpt lat="42.88394" lon="-0.19648">
        <ele>1788.4</ele>
        <time>2026-07-15T07:36:17Z</time>
      </trkpt>
      <trkpt lat="42.88394" lon="-0.19648">
        <ele>1788.4</ele>
        <time>2026-07-15T07:36:18Z</time>
      </trkpt>
      <trkpt lat="42.88393" lon="-0.19649">
        <ele>1788.4</ele>
        <time>2026-07-15T07:36:19Z</time>
      </trkpt>
      <trkpt lat="42.88393" lon="-0.19649">
        <ele>1788.4</ele>
        <time>2026-07-15T07:36:20Z</time>
      </trkpt>
      <trkpt lat="42.88392" lon="-0.19649">
        <ele>1788.4</ele>
        <time>2026-07-15T07:36:21Z</time>
      </trkpt>
      <trkpt lat="42.88392" lon="-0.19649">
        <ele>1788.4</ele>
        <time>2026-07-15T07:36:21Z</time>
      </trkpt>
      <trkpt lat="42.88392" lon="-0.19649">
        <ele>1788.4</ele>
        <time>2026-07-15T07:36:22Z</time>
      </trkpt>
      <trkpt lat="42.88392" lon="-0.19649">
        <ele>1789.4</ele>
        <time>2026-07-15T07:36:22Z</time>
      </trkpt>
      <trkpt lat="42.88391" lon="-0.19649">
        <ele>1789.4</ele>
        <time>2026-07-15T07:36:23Z</time>
      </trkpt>
      <trkpt lat="42.88391" lon="-0.19649">
        <ele>1789.4</ele>
        <time>2026-07-15T07:36:23Z</time>
      </trkpt>
      <trkpt lat="42.88391" lon="-0.1965">
        <ele>1789.4</ele>
        <time>2026-07-15T07:36:24Z</time>
      </trkpt>
      <trkpt lat="42.8839" lon="-0.1965">
        <ele>1789.4</ele>
        <time>2026-07-15T07:36:25Z</time>
      </trkpt>
      <trkpt lat="42.8839" lon="-0.1965">
        <ele>1788.4</ele>
        <time>2026-07-15T07:36:25Z</time>
      </trkpt>
      <trkpt lat="42.8839" lon="-0.19651">
        <ele>1788.4</ele>
        <time>2026-07-15T07:36:26Z</time>
      </trkpt>
      <trkpt lat="42.88389" lon="-0.19651">
        <ele>1789.4</ele>
        <time>2026-07-15T07:36:27Z</time>
      </trkpt>
      <trkpt lat="42.88389" lon="-0.19651">
        <ele>1789.4</ele>
        <time>2026-07-15T07:36:28Z</time>
      </trkpt>
      <trkpt lat="42.88389" lon="-0.19651">
        <ele>1788.4</ele>
        <time>2026-07-15T07:36:29Z</time>
      </trkpt>
      <trkpt lat="42.88389" lon="-0.19652">
        <ele>1788.4</ele>
        <time>2026-07-15T07:36:30Z</time>
      </trkpt>
      <trkpt lat="42.88389" lon="-0.19652">
        <ele>1788.4</ele>
        <time>2026-07-15T07:36:31Z</time>
      </trkpt>
      <trkpt lat="42.88389" lon="-0.19652">
        <ele>1788.4</ele>
        <time>2026-07-15T07:36:32Z</time>
      </trkpt>
      <trkpt lat="42.88389" lon="-0.19652">
        <ele>1789.4</ele>
        <time>2026-07-15T07:36:32Z</time>
      </trkpt>
      <trkpt lat="42.88389" lon="-0.19652">
        <ele>1789.4</ele>
        <time>2026-07-15T07:36:33Z</time>
      </trkpt>
      <trkpt lat="42.88389" lon="-0.19652">
        <ele>1789.4</ele>
        <time>2026-07-15T07:36:34Z</time>
      </trkpt>
      <trkpt lat="42.88389" lon="-0.19651">
        <ele>1790.4</ele>
        <time>2026-07-15T07:36:35Z</time>
      </trkpt>
      <trkpt lat="42.88389" lon="-0.19651">
        <ele>1790.4</ele>
        <time>2026-07-15T07:36:35Z</time>
      </trkpt>
      <trkpt lat="42.88389" lon="-0.19651">
        <ele>1790.4</ele>
        <time>2026-07-15T07:36:36Z</time>
      </trkpt>
      <trkpt lat="42.88389" lon="-0.19651">
        <ele>1790.4</ele>
        <time>2026-07-15T07:36:37Z</time>
      </trkpt>
      <trkpt lat="42.88388" lon="-0.19651">
        <ele>1791.4</ele>
        <time>2026-07-15T07:36:38Z</time>
      </trkpt>
      <trkpt lat="42.88388" lon="-0.19651">
        <ele>1792.4</ele>
        <time>2026-07-15T07:36:39Z</time>
      </trkpt>
      <trkpt lat="42.88387" lon="-0.19651">
        <ele>1792.4</ele>
        <time>2026-07-15T07:36:40Z</time>
      </trkpt>
      <trkpt lat="42.88386" lon="-0.19651">
        <ele>1792.4</ele>
        <time>2026-07-15T07:36:41Z</time>
      </trkpt>
      <trkpt lat="42.88386" lon="-0.19651">
        <ele>1793.4</ele>
        <time>2026-07-15T07:36:42Z</time>
      </trkpt>
      <trkpt lat="42.88385" lon="-0.1965">
        <ele>1793.4</ele>
        <time>2026-07-15T07:36:43Z</time>
      </trkpt>
      <trkpt lat="42.88385" lon="-0.1965">
        <ele>1793.4</ele>
        <time>2026-07-15T07:36:44Z</time>
      </trkpt>
      <trkpt lat="42.88384" lon="-0.19651">
        <ele>1794.4</ele>
        <time>2026-07-15T07:36:44Z</time>
      </trkpt>
      <trkpt lat="42.88384" lon="-0.19651">
        <ele>1794.4</ele>
        <time>2026-07-15T07:36:45Z</time>
      </trkpt>
      <trkpt lat="42.88384" lon="-0.19651">
        <ele>1795.4</ele>
        <time>2026-07-15T07:36:46Z</time>
      </trkpt>
      <trkpt lat="42.88383" lon="-0.19651">
        <ele>1794.4</ele>
        <time>2026-07-15T07:36:47Z</time>
      </trkpt>
      <trkpt lat="42.88382" lon="-0.19651">
        <ele>1794.4</ele>
        <time>2026-07-15T07:36:48Z</time>
      </trkpt>
      <trkpt lat="42.88382" lon="-0.1965">
        <ele>1795.4</ele>
        <time>2026-07-15T07:36:49Z</time>
      </trkpt>
      <trkpt lat="42.88381" lon="-0.19651">
        <ele>1795.4</ele>
        <time>2026-07-15T07:36:50Z</time>
      </trkpt>
      <trkpt lat="42.88381" lon="-0.19651">
        <ele>1795.4</ele>
        <time>2026-07-15T07:36:51Z</time>
      </trkpt>
      <trkpt lat="42.88381" lon="-0.19651">
        <ele>1795.4</ele>
        <time>2026-07-15T07:36:51Z</time>
      </trkpt>
      <trkpt lat="42.88381" lon="-0.19651">
        <ele>1796.4</ele>
        <time>2026-07-15T07:36:52Z</time>
      </trkpt>
      <trkpt lat="42.8838" lon="-0.19651">
        <ele>1796.4</ele>
        <time>2026-07-15T07:36:53Z</time>
      </trkpt>
      <trkpt lat="42.8838" lon="-0.19651">
        <ele>1796.4</ele>
        <time>2026-07-15T07:36:54Z</time>
      </trkpt>
      <trkpt lat="42.88379" lon="-0.19651">
        <ele>1796.4</ele>
        <time>2026-07-15T07:36:55Z</time>
      </trkpt>
      <trkpt lat="42.88379" lon="-0.19651">
        <ele>1797.4</ele>
        <time>2026-07-15T07:36:56Z</time>
      </trkpt>
      <trkpt lat="42.88378" lon="-0.1965">
        <ele>1797.4</ele>
        <time>2026-07-15T07:36:57Z</time>
      </trkpt>
      <trkpt lat="42.88378" lon="-0.19649">
        <ele>1796.4</ele>
        <time>2026-07-15T07:36:58Z</time>
      </trkpt>
      <trkpt lat="42.88377" lon="-0.19649">
        <ele>1797.4</ele>
        <time>2026-07-15T07:36:59Z</time>
      </trkpt>
      <trkpt lat="42.88377" lon="-0.19649">
        <ele>1797.4</ele>
        <time>2026-07-15T07:37:00Z</time>
      </trkpt>
      <trkpt lat="42.88376" lon="-0.19649">
        <ele>1798.4</ele>
        <time>2026-07-15T07:37:01Z</time>
      </trkpt>
      <trkpt lat="42.88376" lon="-0.19649">
        <ele>1798.4</ele>
        <time>2026-07-15T07:37:02Z</time>
      </trkpt>
      <trkpt lat="42.88376" lon="-0.19649">
        <ele>1798.4</ele>
        <time>2026-07-15T07:37:03Z</time>
      </trkpt>
      <trkpt lat="42.88376" lon="-0.19649">
        <ele>1798.4</ele>
        <time>2026-07-15T07:37:04Z</time>
      </trkpt>
      <trkpt lat="42.88375" lon="-0.1965">
        <ele>1798.4</ele>
        <time>2026-07-15T07:37:05Z</time>
      </trkpt>
      <trkpt lat="42.88375" lon="-0.1965">
        <ele>1798.4</ele>
        <time>2026-07-15T07:37:06Z</time>
      </trkpt>
      <trkpt lat="42.88374" lon="-0.1965">
        <ele>1798.4</ele>
        <time>2026-07-15T07:37:07Z</time>
      </trkpt>
      <trkpt lat="42.88374" lon="-0.1965">
        <ele>1798.4</ele>
        <time>2026-07-15T07:37:08Z</time>
      </trkpt>
      <trkpt lat="42.88374" lon="-0.1965">
        <ele>1798.4</ele>
        <time>2026-07-15T07:37:09Z</time>
      </trkpt>
      <trkpt lat="42.88374" lon="-0.19649">
        <ele>1799.4</ele>
        <time>2026-07-15T07:37:10Z</time>
      </trkpt>
      <trkpt lat="42.88374" lon="-0.19649">
        <ele>1798.4</ele>
        <time>2026-07-15T07:37:10Z</time>
      </trkpt>
      <trkpt lat="42.88373" lon="-0.19649">
        <ele>1798.4</ele>
        <time>2026-07-15T07:37:11Z</time>
      </trkpt>
      <trkpt lat="42.88373" lon="-0.19649">
        <ele>1799.4</ele>
        <time>2026-07-15T07:37:11Z</time>
      </trkpt>
      <trkpt lat="42.88372" lon="-0.19649">
        <ele>1799.4</ele>
        <time>2026-07-15T07:37:12Z</time>
      </trkpt>
      <trkpt lat="42.88372" lon="-0.1965">
        <ele>1799.4</ele>
        <time>2026-07-15T07:37:13Z</time>
      </trkpt>
      <trkpt lat="42.88372" lon="-0.1965">
        <ele>1798.4</ele>
        <time>2026-07-15T07:37:14Z</time>
      </trkpt>
      <trkpt lat="42.88372" lon="-0.19651">
        <ele>1798.4</ele>
        <time>2026-07-15T07:37:15Z</time>
      </trkpt>
      <trkpt lat="42.88372" lon="-0.1965">
        <ele>1799.4</ele>
        <time>2026-07-15T07:37:16Z</time>
      </trkpt>
      <trkpt lat="42.88372" lon="-0.1965">
        <ele>1799.4</ele>
        <time>2026-07-15T07:37:17Z</time>
      </trkpt>
      <trkpt lat="42.88372" lon="-0.1965">
        <ele>1799.4</ele>
        <time>2026-07-15T07:37:18Z</time>
      </trkpt>
      <trkpt lat="42.88372" lon="-0.19649">
        <ele>1799.4</ele>
        <time>2026-07-15T07:37:19Z</time>
      </trkpt>
      <trkpt lat="42.88371" lon="-0.19649">
        <ele>1799.4</ele>
        <time>2026-07-15T07:37:20Z</time>
      </trkpt>
      <trkpt lat="42.88371" lon="-0.19649">
        <ele>1799.4</ele>
        <time>2026-07-15T07:37:21Z</time>
      </trkpt>
      <trkpt lat="42.8837" lon="-0.19649">
        <ele>1799.4</ele>
        <time>2026-07-15T07:37:22Z</time>
      </trkpt>
      <trkpt lat="42.88369" lon="-0.19649">
        <ele>1798.4</ele>
        <time>2026-07-15T07:37:23Z</time>
      </trkpt>
      <trkpt lat="42.88369" lon="-0.19649">
        <ele>1799.4</ele>
        <time>2026-07-15T07:37:24Z</time>
      </trkpt>
      <trkpt lat="42.88368" lon="-0.19648">
        <ele>1799.4</ele>
        <time>2026-07-15T07:37:24Z</time>
      </trkpt>
      <trkpt lat="42.88368" lon="-0.19648">
        <ele>1800.4</ele>
        <time>2026-07-15T07:37:25Z</time>
      </trkpt>
      <trkpt lat="42.88367" lon="-0.19649">
        <ele>1800.4</ele>
        <time>2026-07-15T07:37:26Z</time>
      </trkpt>
      <trkpt lat="42.88366" lon="-0.19649">
        <ele>1801.4</ele>
        <time>2026-07-15T07:37:27Z</time>
      </trkpt>
      <trkpt lat="42.88366" lon="-0.19649">
        <ele>1801.4</ele>
        <time>2026-07-15T07:37:28Z</time>
      </trkpt>
      <trkpt lat="42.88365" lon="-0.19649">
        <ele>1802.4</ele>
        <time>2026-07-15T07:37:29Z</time>
      </trkpt>
      <trkpt lat="42.88365" lon="-0.19649">
        <ele>1802.4</ele>
        <time>2026-07-15T07:37:30Z</time>
      </trkpt>
      <trkpt lat="42.88365" lon="-0.19649">
        <ele>1802.4</ele>
        <time>2026-07-15T07:37:31Z</time>
      </trkpt>
      <trkpt lat="42.88365" lon="-0.19649">
        <ele>1802.4</ele>
        <time>2026-07-15T07:37:31Z</time>
      </trkpt>
      <trkpt lat="42.88364" lon="-0.19649">
        <ele>1803.4</ele>
        <time>2026-07-15T07:37:32Z</time>
      </trkpt>
      <trkpt lat="42.88364" lon="-0.19648">
        <ele>1803.4</ele>
        <time>2026-07-15T07:37:33Z</time>
      </trkpt>
      <trkpt lat="42.88363" lon="-0.19648">
        <ele>1803.4</ele>
        <time>2026-07-15T07:37:34Z</time>
      </trkpt>
      <trkpt lat="42.88363" lon="-0.19648">
        <ele>1803.4</ele>
        <time>2026-07-15T07:37:35Z</time>
      </trkpt>
      <trkpt lat="42.88362" lon="-0.19647">
        <ele>1803.4</ele>
        <time>2026-07-15T07:37:36Z</time>
      </trkpt>
      <trkpt lat="42.88362" lon="-0.19646">
        <ele>1803.4</ele>
        <time>2026-07-15T07:37:36Z</time>
      </trkpt>
      <trkpt lat="42.88362" lon="-0.19645">
        <ele>1803.4</ele>
        <time>2026-07-15T07:37:37Z</time>
      </trkpt>
      <trkpt lat="42.88362" lon="-0.19644">
        <ele>1803.4</ele>
        <time>2026-07-15T07:37:38Z</time>
      </trkpt>
      <trkpt lat="42.88362" lon="-0.19644">
        <ele>1804.4</ele>
        <time>2026-07-15T07:37:39Z</time>
      </trkpt>
      <trkpt lat="42.88363" lon="-0.19643">
        <ele>1805.4</ele>
        <time>2026-07-15T07:37:40Z</time>
      </trkpt>
      <trkpt lat="42.88363" lon="-0.19642">
        <ele>1805.4</ele>
        <time>2026-07-15T07:37:41Z</time>
      </trkpt>
      <trkpt lat="42.88362" lon="-0.19642">
        <ele>1805.4</ele>
        <time>2026-07-15T07:37:42Z</time>
      </trkpt>
      <trkpt lat="42.88362" lon="-0.19641">
        <ele>1805.4</ele>
        <time>2026-07-15T07:37:43Z</time>
      </trkpt>
      <trkpt lat="42.88362" lon="-0.19641">
        <ele>1806.4</ele>
        <time>2026-07-15T07:37:44Z</time>
      </trkpt>
      <trkpt lat="42.88361" lon="-0.19641">
        <ele>1806.4</ele>
        <time>2026-07-15T07:37:45Z</time>
      </trkpt>
      <trkpt lat="42.88361" lon="-0.19641">
        <ele>1807.4</ele>
        <time>2026-07-15T07:37:46Z</time>
      </trkpt>
      <trkpt lat="42.8836" lon="-0.19641">
        <ele>1808.4</ele>
        <time>2026-07-15T07:37:47Z</time>
      </trkpt>
      <trkpt lat="42.8836" lon="-0.1964">
        <ele>1808.4</ele>
        <time>2026-07-15T07:37:48Z</time>
      </trkpt>
      <trkpt lat="42.8836" lon="-0.19641">
        <ele>1809.4</ele>
        <time>2026-07-15T07:37:49Z</time>
      </trkpt>
      <trkpt lat="42.8836" lon="-0.19641">
        <ele>1809.4</ele>
        <time>2026-07-15T07:37:50Z</time>
      </trkpt>
      <trkpt lat="42.88359" lon="-0.19641">
        <ele>1810.4</ele>
        <time>2026-07-15T07:37:51Z</time>
      </trkpt>
      <trkpt lat="42.88359" lon="-0.19642">
        <ele>1810.4</ele>
        <time>2026-07-15T07:37:52Z</time>
      </trkpt>
      <trkpt lat="42.88359" lon="-0.19642">
        <ele>1810.4</ele>
        <time>2026-07-15T07:37:53Z</time>
      </trkpt>
      <trkpt lat="42.88358" lon="-0.19642">
        <ele>1810.4</ele>
        <time>2026-07-15T07:37:54Z</time>
      </trkpt>
      <trkpt lat="42.88358" lon="-0.19642">
        <ele>1810.4</ele>
        <time>2026-07-15T07:37:55Z</time>
      </trkpt>
      <trkpt lat="42.88357" lon="-0.19642">
        <ele>1811.4</ele>
        <time>2026-07-15T07:37:56Z</time>
      </trkpt>
      <trkpt lat="42.88357" lon="-0.19642">
        <ele>1811.4</ele>
        <time>2026-07-15T07:37:56Z</time>
      </trkpt>
      <trkpt lat="42.88356" lon="-0.19642">
        <ele>1810.4</ele>
        <time>2026-07-15T07:37:57Z</time>
      </trkpt>
      <trkpt lat="42.88356" lon="-0.19642">
        <ele>1810.4</ele>
        <time>2026-07-15T07:37:58Z</time>
      </trkpt>
      <trkpt lat="42.88355" lon="-0.19642">
        <ele>1811.4</ele>
        <time>2026-07-15T07:37:59Z</time>
      </trkpt>
      <trkpt lat="42.88355" lon="-0.19642">
        <ele>1810.4</ele>
        <time>2026-07-15T07:38:00Z</time>
      </trkpt>
      <trkpt lat="42.88355" lon="-0.19642">
        <ele>1810.4</ele>
        <time>2026-07-15T07:38:01Z</time>
      </trkpt>
      <trkpt lat="42.88355" lon="-0.19642">
        <ele>1810.4</ele>
        <time>2026-07-15T07:38:02Z</time>
      </trkpt>
      <trkpt lat="42.88355" lon="-0.19642">
        <ele>1810.4</ele>
        <time>2026-07-15T07:38:03Z</time>
      </trkpt>
      <trkpt lat="42.88356" lon="-0.19642">
        <ele>1810.4</ele>
        <time>2026-07-15T07:38:04Z</time>
      </trkpt>
      <trkpt lat="42.88356" lon="-0.19642">
        <ele>1810.4</ele>
        <time>2026-07-15T07:38:04Z</time>
      </trkpt>
      <trkpt lat="42.88356" lon="-0.19642">
        <ele>1809.4</ele>
        <time>2026-07-15T07:38:05Z</time>
      </trkpt>
      <trkpt lat="42.88356" lon="-0.19642">
        <ele>1809.4</ele>
        <time>2026-07-15T07:38:06Z</time>
      </trkpt>
      <trkpt lat="42.88355" lon="-0.19641">
        <ele>1809.4</ele>
        <time>2026-07-15T07:38:07Z</time>
      </trkpt>
      <trkpt lat="42.88355" lon="-0.19642">
        <ele>1809.4</ele>
        <time>2026-07-15T07:38:08Z</time>
      </trkpt>
      <trkpt lat="42.88354" lon="-0.19642">
        <ele>1809.4</ele>
        <time>2026-07-15T07:38:09Z</time>
      </trkpt>
      <trkpt lat="42.88353" lon="-0.19642">
        <ele>1809.4</ele>
        <time>2026-07-15T07:38:10Z</time>
      </trkpt>
      <trkpt lat="42.88352" lon="-0.19642">
        <ele>1808.4</ele>
        <time>2026-07-15T07:38:10Z</time>
      </trkpt>
      <trkpt lat="42.88352" lon="-0.19642">
        <ele>1808.4</ele>
        <time>2026-07-15T07:38:11Z</time>
      </trkpt>
      <trkpt lat="42.88352" lon="-0.19642">
        <ele>1809.4</ele>
        <time>2026-07-15T07:38:11Z</time>
      </trkpt>
      <trkpt lat="42.88351" lon="-0.19642">
        <ele>1809.4</ele>
        <time>2026-07-15T07:38:12Z</time>
      </trkpt>
      <trkpt lat="42.88351" lon="-0.19642">
        <ele>1808.4</ele>
        <time>2026-07-15T07:38:12Z</time>
      </trkpt>
      <trkpt lat="42.8835" lon="-0.19642">
        <ele>1808.4</ele>
        <time>2026-07-15T07:38:13Z</time>
      </trkpt>
      <trkpt lat="42.8835" lon="-0.19643">
        <ele>1808.4</ele>
        <time>2026-07-15T07:38:14Z</time>
      </trkpt>
      <trkpt lat="42.88349" lon="-0.19643">
        <ele>1808.4</ele>
        <time>2026-07-15T07:38:15Z</time>
      </trkpt>
      <trkpt lat="42.88348" lon="-0.19643">
        <ele>1808.4</ele>
        <time>2026-07-15T07:38:16Z</time>
      </trkpt>
      <trkpt lat="42.88348" lon="-0.19643">
        <ele>1808.4</ele>
        <time>2026-07-15T07:38:17Z</time>
      </trkpt>
      <trkpt lat="42.88347" lon="-0.19643">
        <ele>1807.4</ele>
        <time>2026-07-15T07:38:17Z</time>
      </trkpt>
      <trkpt lat="42.88347" lon="-0.19643">
        <ele>1808.4</ele>
        <time>2026-07-15T07:38:18Z</time>
      </trkpt>
      <trkpt lat="42.88346" lon="-0.19643">
        <ele>1808.4</ele>
        <time>2026-07-15T07:38:19Z</time>
      </trkpt>
      <trkpt lat="42.88345" lon="-0.19642">
        <ele>1808.4</ele>
        <time>2026-07-15T07:38:20Z</time>
      </trkpt>
      <trkpt lat="42.88345" lon="-0.19642">
        <ele>1808.4</ele>
        <time>2026-07-15T07:38:21Z</time>
      </trkpt>
      <trkpt lat="42.88344" lon="-0.19641">
        <ele>1809.4</ele>
        <time>2026-07-15T07:38:22Z</time>
      </trkpt>
      <trkpt lat="42.88345" lon="-0.19641">
        <ele>1809.4</ele>
        <time>2026-07-15T07:38:23Z</time>
      </trkpt>
      <trkpt lat="42.88345" lon="-0.19641">
        <ele>1809.4</ele>
        <time>2026-07-15T07:38:24Z</time>
      </trkpt>
      <trkpt lat="42.88345" lon="-0.1964">
        <ele>1809.4</ele>
        <time>2026-07-15T07:38:25Z</time>
      </trkpt>
      <trkpt lat="42.88345" lon="-0.19639">
        <ele>1809.4</ele>
        <time>2026-07-15T07:38:26Z</time>
      </trkpt>
      <trkpt lat="42.88345" lon="-0.19638">
        <ele>1809.4</ele>
        <time>2026-07-15T07:38:26Z</time>
      </trkpt>
      <trkpt lat="42.88345" lon="-0.19637">
        <ele>1810.4</ele>
        <time>2026-07-15T07:38:27Z</time>
      </trkpt>
      <trkpt lat="42.88345" lon="-0.19636">
        <ele>1810.4</ele>
        <time>2026-07-15T07:38:28Z</time>
      </trkpt>
      <trkpt lat="42.88345" lon="-0.19636">
        <ele>1812.4</ele>
        <time>2026-07-15T07:38:29Z</time>
      </trkpt>
      <trkpt lat="42.88345" lon="-0.19635">
        <ele>1812.4</ele>
        <time>2026-07-15T07:38:30Z</time>
      </trkpt>
      <trkpt lat="42.88345" lon="-0.19634">
        <ele>1812.4</ele>
        <time>2026-07-15T07:38:31Z</time>
      </trkpt>
      <trkpt lat="42.88345" lon="-0.19634">
        <ele>1813.4</ele>
        <time>2026-07-15T07:38:32Z</time>
      </trkpt>
      <trkpt lat="42.88345" lon="-0.19633">
        <ele>1813.4</ele>
        <time>2026-07-15T07:38:33Z</time>
      </trkpt>
      <trkpt lat="42.88344" lon="-0.19633">
        <ele>1814.4</ele>
        <time>2026-07-15T07:38:34Z</time>
      </trkpt>
      <trkpt lat="42.88344" lon="-0.19633">
        <ele>1814.4</ele>
        <time>2026-07-15T07:38:34Z</time>
      </trkpt>
      <trkpt lat="42.88344" lon="-0.19633">
        <ele>1814.4</ele>
        <time>2026-07-15T07:38:35Z</time>
      </trkpt>
      <trkpt lat="42.88344" lon="-0.19632">
        <ele>1813.4</ele>
        <time>2026-07-15T07:38:35Z</time>
      </trkpt>
      <trkpt lat="42.88344" lon="-0.19632">
        <ele>1813.4</ele>
        <time>2026-07-15T07:38:36Z</time>
      </trkpt>
      <trkpt lat="42.88344" lon="-0.19632">
        <ele>1814.4</ele>
        <time>2026-07-15T07:38:37Z</time>
      </trkpt>
      <trkpt lat="42.88343" lon="-0.19631">
        <ele>1814.4</ele>
        <time>2026-07-15T07:38:38Z</time>
      </trkpt>
      <trkpt lat="42.88343" lon="-0.19631">
        <ele>1814.4</ele>
        <time>2026-07-15T07:38:39Z</time>
      </trkpt>
      <trkpt lat="42.88343" lon="-0.19631">
        <ele>1814.4</ele>
        <time>2026-07-15T07:38:40Z</time>
      </trkpt>
      <trkpt lat="42.88343" lon="-0.1963">
        <ele>1814.4</ele>
        <time>2026-07-15T07:38:41Z</time>
      </trkpt>
      <trkpt lat="42.88343" lon="-0.1963">
        <ele>1815.4</ele>
        <time>2026-07-15T07:38:42Z</time>
      </trkpt>
      <trkpt lat="42.88343" lon="-0.19629">
        <ele>1816.4</ele>
        <time>2026-07-15T07:38:43Z</time>
      </trkpt>
      <trkpt lat="42.88343" lon="-0.19629">
        <ele>1816.4</ele>
        <time>2026-07-15T07:38:44Z</time>
      </trkpt>
      <trkpt lat="42.88343" lon="-0.19628">
        <ele>1816.4</ele>
        <time>2026-07-15T07:38:45Z</time>
      </trkpt>
      <trkpt lat="42.88342" lon="-0.19628">
        <ele>1816.4</ele>
        <time>2026-07-15T07:38:46Z</time>
      </trkpt>
      <trkpt lat="42.88342" lon="-0.19627">
        <ele>1816.4</ele>
        <time>2026-07-15T07:38:46Z</time>
      </trkpt>
      <trkpt lat="42.88342" lon="-0.19627">
        <ele>1817.4</ele>
        <time>2026-07-15T07:38:47Z</time>
      </trkpt>
      <trkpt lat="42.88342" lon="-0.19626">
        <ele>1816.4</ele>
        <time>2026-07-15T07:38:48Z</time>
      </trkpt>
      <trkpt lat="42.88342" lon="-0.19625">
        <ele>1816.4</ele>
        <time>2026-07-15T07:38:49Z</time>
      </trkpt>
      <trkpt lat="42.88341" lon="-0.19625">
        <ele>1817.4</ele>
        <time>2026-07-15T07:38:50Z</time>
      </trkpt>
      <trkpt lat="42.88341" lon="-0.19625">
        <ele>1817.4</ele>
        <time>2026-07-15T07:38:51Z</time>
      </trkpt>
      <trkpt lat="42.88341" lon="-0.19624">
        <ele>1816.4</ele>
        <time>2026-07-15T07:38:52Z</time>
      </trkpt>
      <trkpt lat="42.8834" lon="-0.19624">
        <ele>1816.4</ele>
        <time>2026-07-15T07:38:52Z</time>
      </trkpt>
      <trkpt lat="42.8834" lon="-0.19623">
        <ele>1817.4</ele>
        <time>2026-07-15T07:38:53Z</time>
      </trkpt>
      <trkpt lat="42.8834" lon="-0.19623">
        <ele>1817.4</ele>
        <time>2026-07-15T07:38:54Z</time>
      </trkpt>
      <trkpt lat="42.88341" lon="-0.19622">
        <ele>1817.4</ele>
        <time>2026-07-15T07:38:55Z</time>
      </trkpt>
      <trkpt lat="42.88341" lon="-0.19621">
        <ele>1818.4</ele>
        <time>2026-07-15T07:38:56Z</time>
      </trkpt>
      <trkpt lat="42.88341" lon="-0.19621">
        <ele>1818.4</ele>
        <time>2026-07-15T07:38:57Z</time>
      </trkpt>
      <trkpt lat="42.88341" lon="-0.1962">
        <ele>1818.4</ele>
        <time>2026-07-15T07:38:58Z</time>
      </trkpt>
      <trkpt lat="42.88341" lon="-0.1962">
        <ele>1818.4</ele>
        <time>2026-07-15T07:38:59Z</time>
      </trkpt>
      <trkpt lat="42.88341" lon="-0.19619">
        <ele>1819.4</ele>
        <time>2026-07-15T07:39:00Z</time>
      </trkpt>
      <trkpt lat="42.88341" lon="-0.19619">
        <ele>1819.4</ele>
        <time>2026-07-15T07:39:01Z</time>
      </trkpt>
      <trkpt lat="42.88341" lon="-0.19619">
        <ele>1818.4</ele>
        <time>2026-07-15T07:39:02Z</time>
      </trkpt>
      <trkpt lat="42.88341" lon="-0.19618">
        <ele>1819.4</ele>
        <time>2026-07-15T07:39:03Z</time>
      </trkpt>
      <trkpt lat="42.88341" lon="-0.19618">
        <ele>1820.4</ele>
        <time>2026-07-15T07:39:04Z</time>
      </trkpt>
      <trkpt lat="42.88341" lon="-0.19618">
        <ele>1819.4</ele>
        <time>2026-07-15T07:39:05Z</time>
      </trkpt>
      <trkpt lat="42.88341" lon="-0.19618">
        <ele>1819.4</ele>
        <time>2026-07-15T07:39:06Z</time>
      </trkpt>
      <trkpt lat="42.88341" lon="-0.19618">
        <ele>1819.4</ele>
        <time>2026-07-15T07:39:06Z</time>
      </trkpt>
      <trkpt lat="42.88341" lon="-0.19617">
        <ele>1819.4</ele>
        <time>2026-07-15T07:39:07Z</time>
      </trkpt>
      <trkpt lat="42.88341" lon="-0.19617">
        <ele>1819.4</ele>
        <time>2026-07-15T07:39:08Z</time>
      </trkpt>
      <trkpt lat="42.8834" lon="-0.19616">
        <ele>1819.4</ele>
        <time>2026-07-15T07:39:09Z</time>
      </trkpt>
      <trkpt lat="42.8834" lon="-0.19616">
        <ele>1819.4</ele>
        <time>2026-07-15T07:39:10Z</time>
      </trkpt>
      <trkpt lat="42.8834" lon="-0.19616">
        <ele>1819.4</ele>
        <time>2026-07-15T07:39:11Z</time>
      </trkpt>
      <trkpt lat="42.8834" lon="-0.19616">
        <ele>1819.4</ele>
        <time>2026-07-15T07:39:12Z</time>
      </trkpt>
      <trkpt lat="42.88339" lon="-0.19616">
        <ele>1819.4</ele>
        <time>2026-07-15T07:39:13Z</time>
      </trkpt>
      <trkpt lat="42.88339" lon="-0.19616">
        <ele>1819.4</ele>
        <time>2026-07-15T07:39:14Z</time>
      </trkpt>
      <trkpt lat="42.88339" lon="-0.19616">
        <ele>1820.4</ele>
        <time>2026-07-15T07:39:15Z</time>
      </trkpt>
      <trkpt lat="42.88339" lon="-0.19615">
        <ele>1820.4</ele>
        <time>2026-07-15T07:39:15Z</time>
      </trkpt>
      <trkpt lat="42.88338" lon="-0.19615">
        <ele>1820.4</ele>
        <time>2026-07-15T07:39:16Z</time>
      </trkpt>
      <trkpt lat="42.88338" lon="-0.19614">
        <ele>1820.4</ele>
        <time>2026-07-15T07:39:17Z</time>
      </trkpt>
      <trkpt lat="42.88338" lon="-0.19613">
        <ele>1820.4</ele>
        <time>2026-07-15T07:39:18Z</time>
      </trkpt>
      <trkpt lat="42.88338" lon="-0.19613">
        <ele>1821.4</ele>
        <time>2026-07-15T07:39:19Z</time>
      </trkpt>
      <trkpt lat="42.88338" lon="-0.19612">
        <ele>1821.4</ele>
        <time>2026-07-15T07:39:20Z</time>
      </trkpt>
      <trkpt lat="42.88338" lon="-0.19611">
        <ele>1821.4</ele>
        <time>2026-07-15T07:39:21Z</time>
      </trkpt>
      <trkpt lat="42.88337" lon="-0.19611">
        <ele>1820.4</ele>
        <time>2026-07-15T07:39:22Z</time>
      </trkpt>
      <trkpt lat="42.88337" lon="-0.19611">
        <ele>1820.4</ele>
        <time>2026-07-15T07:39:23Z</time>
      </trkpt>
      <trkpt lat="42.88337" lon="-0.19611">
        <ele>1821.4</ele>
        <time>2026-07-15T07:39:23Z</time>
      </trkpt>
      <trkpt lat="42.88336" lon="-0.1961">
        <ele>1821.4</ele>
        <time>2026-07-15T07:39:24Z</time>
      </trkpt>
      <trkpt lat="42.88336" lon="-0.19611">
        <ele>1821.4</ele>
        <time>2026-07-15T07:39:25Z</time>
      </trkpt>
      <trkpt lat="42.88336" lon="-0.1961">
        <ele>1821.4</ele>
        <time>2026-07-15T07:39:26Z</time>
      </trkpt>
      <trkpt lat="42.88335" lon="-0.19611">
        <ele>1822.4</ele>
        <time>2026-07-15T07:39:27Z</time>
      </trkpt>
      <trkpt lat="42.88334" lon="-0.19611">
        <ele>1821.4</ele>
        <time>2026-07-15T07:39:28Z</time>
      </trkpt>
      <trkpt lat="42.88334" lon="-0.19611">
        <ele>1820.4</ele>
        <time>2026-07-15T07:39:29Z</time>
      </trkpt>
      <trkpt lat="42.88334" lon="-0.1961">
        <ele>1820.4</ele>
        <time>2026-07-15T07:39:30Z</time>
      </trkpt>
      <trkpt lat="42.88334" lon="-0.1961">
        <ele>1821.4</ele>
        <time>2026-07-15T07:39:31Z</time>
      </trkpt>
      <trkpt lat="42.88334" lon="-0.1961">
        <ele>1821.4</ele>
        <time>2026-07-15T07:39:32Z</time>
      </trkpt>
      <trkpt lat="42.88334" lon="-0.1961">
        <ele>1821.4</ele>
        <time>2026-07-15T07:39:33Z</time>
      </trkpt>
      <trkpt lat="42.88333" lon="-0.1961">
        <ele>1821.4</ele>
        <time>2026-07-15T07:39:34Z</time>
      </trkpt>
      <trkpt lat="42.88333" lon="-0.1961">
        <ele>1822.4</ele>
        <time>2026-07-15T07:39:35Z</time>
      </trkpt>
      <trkpt lat="42.88333" lon="-0.1961">
        <ele>1822.4</ele>
        <time>2026-07-15T07:39:36Z</time>
      </trkpt>
      <trkpt lat="42.88333" lon="-0.1961">
        <ele>1823.4</ele>
        <time>2026-07-15T07:39:37Z</time>
      </trkpt>
      <trkpt lat="42.88332" lon="-0.1961">
        <ele>1822.4</ele>
        <time>2026-07-15T07:39:38Z</time>
      </trkpt>
      <trkpt lat="42.88332" lon="-0.1961">
        <ele>1823.4</ele>
        <time>2026-07-15T07:39:39Z</time>
      </trkpt>
      <trkpt lat="42.88332" lon="-0.1961">
        <ele>1823.4</ele>
        <time>2026-07-15T07:39:39Z</time>
      </trkpt>
      <trkpt lat="42.88331" lon="-0.1961">
        <ele>1823.4</ele>
        <time>2026-07-15T07:39:40Z</time>
      </trkpt>
      <trkpt lat="42.88331" lon="-0.1961">
        <ele>1824.4</ele>
        <time>2026-07-15T07:39:41Z</time>
      </trkpt>
      <trkpt lat="42.88331" lon="-0.1961">
        <ele>1824.4</ele>
        <time>2026-07-15T07:39:42Z</time>
      </trkpt>
      <trkpt lat="42.8833" lon="-0.1961">
        <ele>1824.4</ele>
        <time>2026-07-15T07:39:43Z</time>
      </trkpt>
      <trkpt lat="42.8833" lon="-0.1961">
        <ele>1824.4</ele>
        <time>2026-07-15T07:39:43Z</time>
      </trkpt>
      <trkpt lat="42.8833" lon="-0.1961">
        <ele>1824.4</ele>
        <time>2026-07-15T07:39:44Z</time>
      </trkpt>
      <trkpt lat="42.8833" lon="-0.1961">
        <ele>1824.4</ele>
        <time>2026-07-15T07:39:44Z</time>
      </trkpt>
      <trkpt lat="42.8833" lon="-0.1961">
        <ele>1824.4</ele>
        <time>2026-07-15T07:39:45Z</time>
      </trkpt>
      <trkpt lat="42.88329" lon="-0.19611">
        <ele>1824.4</ele>
        <time>2026-07-15T07:39:45Z</time>
      </trkpt>
      <trkpt lat="42.88329" lon="-0.19611">
        <ele>1824.4</ele>
        <time>2026-07-15T07:39:46Z</time>
      </trkpt>
      <trkpt lat="42.88328" lon="-0.19611">
        <ele>1824.4</ele>
        <time>2026-07-15T07:39:47Z</time>
      </trkpt>
      <trkpt lat="42.88328" lon="-0.1961">
        <ele>1824.4</ele>
        <time>2026-07-15T07:39:48Z</time>
      </trkpt>
      <trkpt lat="42.88328" lon="-0.1961">
        <ele>1824.4</ele>
        <time>2026-07-15T07:39:49Z</time>
      </trkpt>
      <trkpt lat="42.88328" lon="-0.1961">
        <ele>1823.4</ele>
        <time>2026-07-15T07:39:50Z</time>
      </trkpt>
      <trkpt lat="42.88328" lon="-0.1961">
        <ele>1824.4</ele>
        <time>2026-07-15T07:39:51Z</time>
      </trkpt>
      <trkpt lat="42.88328" lon="-0.1961">
        <ele>1824.4</ele>
        <time>2026-07-15T07:39:52Z</time>
      </trkpt>
      <trkpt lat="42.88328" lon="-0.1961">
        <ele>1824.4</ele>
        <time>2026-07-15T07:39:53Z</time>
      </trkpt>
      <trkpt lat="42.88328" lon="-0.19609">
        <ele>1824.4</ele>
        <time>2026-07-15T07:39:53Z</time>
      </trkpt>
      <trkpt lat="42.88328" lon="-0.19609">
        <ele>1825.4</ele>
        <time>2026-07-15T07:39:54Z</time>
      </trkpt>
      <trkpt lat="42.88327" lon="-0.19609">
        <ele>1825.4</ele>
        <time>2026-07-15T07:39:55Z</time>
      </trkpt>
      <trkpt lat="42.88327" lon="-0.19609">
        <ele>1825.4</ele>
        <time>2026-07-15T07:39:56Z</time>
      </trkpt>
      <trkpt lat="42.88327" lon="-0.19608">
        <ele>1824.4</ele>
        <time>2026-07-15T07:39:57Z</time>
      </trkpt>
      <trkpt lat="42.88327" lon="-0.19608">
        <ele>1825.4</ele>
        <time>2026-07-15T07:39:58Z</time>
      </trkpt>
      <trkpt lat="42.88327" lon="-0.19607">
        <ele>1825.4</ele>
        <time>2026-07-15T07:39:58Z</time>
      </trkpt>
      <trkpt lat="42.88327" lon="-0.19607">
        <ele>1826.4</ele>
        <time>2026-07-15T07:39:59Z</time>
      </trkpt>
      <trkpt lat="42.88327" lon="-0.19607">
        <ele>1826.4</ele>
        <time>2026-07-15T07:40:00Z</time>
      </trkpt>
      <trkpt lat="42.88326" lon="-0.19607">
        <ele>1827.4</ele>
        <time>2026-07-15T07:40:01Z</time>
      </trkpt>
      <trkpt lat="42.88326" lon="-0.19607">
        <ele>1827.4</ele>
        <time>2026-07-15T07:40:02Z</time>
      </trkpt>
      <trkpt lat="42.88326" lon="-0.19608">
        <ele>1827.4</ele>
        <time>2026-07-15T07:40:03Z</time>
      </trkpt>
      <trkpt lat="42.88326" lon="-0.19608">
        <ele>1827.4</ele>
        <time>2026-07-15T07:40:04Z</time>
      </trkpt>
      <trkpt lat="42.88326" lon="-0.19608">
        <ele>1827.4</ele>
        <time>2026-07-15T07:40:05Z</time>
      </trkpt>
      <trkpt lat="42.88326" lon="-0.19608">
        <ele>1827.4</ele>
        <time>2026-07-15T07:40:06Z</time>
      </trkpt>
      <trkpt lat="42.88326" lon="-0.19609">
        <ele>1827.4</ele>
        <time>2026-07-15T07:40:07Z</time>
      </trkpt>
      <trkpt lat="42.88326" lon="-0.19609">
        <ele>1827.4</ele>
        <time>2026-07-15T07:40:08Z</time>
      </trkpt>
      <trkpt lat="42.88325" lon="-0.19609">
        <ele>1827.4</ele>
        <time>2026-07-15T07:40:09Z</time>
      </trkpt>
      <trkpt lat="42.88325" lon="-0.19609">
        <ele>1827.4</ele>
        <time>2026-07-15T07:40:10Z</time>
      </trkpt>
      <trkpt lat="42.88325" lon="-0.19609">
        <ele>1827.4</ele>
        <time>2026-07-15T07:40:11Z</time>
      </trkpt>
      <trkpt lat="42.88325" lon="-0.19609">
        <ele>1827.4</ele>
        <time>2026-07-15T07:40:12Z</time>
      </trkpt>
      <trkpt lat="42.88324" lon="-0.19609">
        <ele>1829.4</ele>
        <time>2026-07-15T07:40:12Z</time>
      </trkpt>
      <trkpt lat="42.88324" lon="-0.19609">
        <ele>1828.4</ele>
        <time>2026-07-15T07:40:13Z</time>
      </trkpt>
      <trkpt lat="42.88323" lon="-0.19609">
        <ele>1828.4</ele>
        <time>2026-07-15T07:40:14Z</time>
      </trkpt>
      <trkpt lat="42.88322" lon="-0.19609">
        <ele>1829.4</ele>
        <time>2026-07-15T07:40:15Z</time>
      </trkpt>
      <trkpt lat="42.88322" lon="-0.19609">
        <ele>1828.4</ele>
        <time>2026-07-15T07:40:15Z</time>
      </trkpt>
      <trkpt lat="42.88321" lon="-0.1961">
        <ele>1828.4</ele>
        <time>2026-07-15T07:40:16Z</time>
      </trkpt>
      <trkpt lat="42.88321" lon="-0.1961">
        <ele>1828.4</ele>
        <time>2026-07-15T07:40:17Z</time>
      </trkpt>
      <trkpt lat="42.88321" lon="-0.1961">
        <ele>1828.4</ele>
        <time>2026-07-15T07:40:18Z</time>
      </trkpt>
      <trkpt lat="42.8832" lon="-0.19611">
        <ele>1828.4</ele>
        <time>2026-07-15T07:40:19Z</time>
      </trkpt>
      <trkpt lat="42.8832" lon="-0.19611">
        <ele>1828.4</ele>
        <time>2026-07-15T07:40:20Z</time>
      </trkpt>
      <trkpt lat="42.88319" lon="-0.19611">
        <ele>1828.4</ele>
        <time>2026-07-15T07:40:21Z</time>
      </trkpt>
      <trkpt lat="42.88319" lon="-0.19611">
        <ele>1828.4</ele>
        <time>2026-07-15T07:40:21Z</time>
      </trkpt>
      <trkpt lat="42.88318" lon="-0.19611">
        <ele>1828.4</ele>
        <time>2026-07-15T07:40:22Z</time>
      </trkpt>
      <trkpt lat="42.88318" lon="-0.1961">
        <ele>1828.4</ele>
        <time>2026-07-15T07:40:23Z</time>
      </trkpt>
      <trkpt lat="42.88317" lon="-0.19609">
        <ele>1828.4</ele>
        <time>2026-07-15T07:40:24Z</time>
      </trkpt>
      <trkpt lat="42.88317" lon="-0.19609">
        <ele>1828.4</ele>
        <time>2026-07-15T07:40:25Z</time>
      </trkpt>
      <trkpt lat="42.88316" lon="-0.19609">
        <ele>1827.4</ele>
        <time>2026-07-15T07:40:25Z</time>
      </trkpt>
      <trkpt lat="42.88316" lon="-0.19609">
        <ele>1827.4</ele>
        <time>2026-07-15T07:40:26Z</time>
      </trkpt>
      <trkpt lat="42.88316" lon="-0.19609">
        <ele>1827.4</ele>
        <time>2026-07-15T07:40:27Z</time>
      </trkpt>
      <trkpt lat="42.88315" lon="-0.19609">
        <ele>1828.4</ele>
        <time>2026-07-15T07:40:27Z</time>
      </trkpt>
      <trkpt lat="42.88315" lon="-0.19609">
        <ele>1828.4</ele>
        <time>2026-07-15T07:40:28Z</time>
      </trkpt>
      <trkpt lat="42.88315" lon="-0.19609">
        <ele>1828.4</ele>
        <time>2026-07-15T07:40:28Z</time>
      </trkpt>
      <trkpt lat="42.88314" lon="-0.19609">
        <ele>1828.4</ele>
        <time>2026-07-15T07:40:29Z</time>
      </trkpt>
      <trkpt lat="42.88314" lon="-0.19609">
        <ele>1828.4</ele>
        <time>2026-07-15T07:40:30Z</time>
      </trkpt>
      <trkpt lat="42.88314" lon="-0.19608">
        <ele>1829.4</ele>
        <time>2026-07-15T07:40:31Z</time>
      </trkpt>
      <trkpt lat="42.88314" lon="-0.19608">
        <ele>1829.4</ele>
        <time>2026-07-15T07:40:32Z</time>
      </trkpt>
      <trkpt lat="42.88314" lon="-0.19608">
        <ele>1830.4</ele>
        <time>2026-07-15T07:40:33Z</time>
      </trkpt>
      <trkpt lat="42.88314" lon="-0.19608">
        <ele>1831.4</ele>
        <time>2026-07-15T07:40:34Z</time>
      </trkpt>
      <trkpt lat="42.88313" lon="-0.19608">
        <ele>1831.4</ele>
        <time>2026-07-15T07:40:35Z</time>
      </trkpt>
      <trkpt lat="42.88313" lon="-0.19608">
        <ele>1831.4</ele>
        <time>2026-07-15T07:40:36Z</time>
      </trkpt>
      <trkpt lat="42.88313" lon="-0.19608">
        <ele>1831.4</ele>
        <time>2026-07-15T07:40:37Z</time>
      </trkpt>
      <trkpt lat="42.88312" lon="-0.19608">
        <ele>1832.4</ele>
        <time>2026-07-15T07:40:38Z</time>
      </trkpt>
      <trkpt lat="42.88312" lon="-0.19608">
        <ele>1832.4</ele>
        <time>2026-07-15T07:40:39Z</time>
      </trkpt>
      <trkpt lat="42.88311" lon="-0.19609">
        <ele>1832.4</ele>
        <time>2026-07-15T07:40:40Z</time>
      </trkpt>
      <trkpt lat="42.88311" lon="-0.19609">
        <ele>1832.4</ele>
        <time>2026-07-15T07:40:41Z</time>
      </trkpt>
      <trkpt lat="42.8831" lon="-0.19609">
        <ele>1833.4</ele>
        <time>2026-07-15T07:40:41Z</time>
      </trkpt>
      <trkpt lat="42.8831" lon="-0.19609">
        <ele>1833.4</ele>
        <time>2026-07-15T07:40:42Z</time>
      </trkpt>
      <trkpt lat="42.8831" lon="-0.19609">
        <ele>1833.4</ele>
        <time>2026-07-15T07:40:43Z</time>
      </trkpt>
      <trkpt lat="42.88309" lon="-0.19609">
        <ele>1833.4</ele>
        <time>2026-07-15T07:40:43Z</time>
      </trkpt>
      <trkpt lat="42.88309" lon="-0.19609">
        <ele>1833.4</ele>
        <time>2026-07-15T07:40:44Z</time>
      </trkpt>
      <trkpt lat="42.88309" lon="-0.19609">
        <ele>1833.4</ele>
        <time>2026-07-15T07:40:44Z</time>
      </trkpt>
      <trkpt lat="42.88308" lon="-0.19609">
        <ele>1833.4</ele>
        <time>2026-07-15T07:40:45Z</time>
      </trkpt>
      <trkpt lat="42.88308" lon="-0.19609">
        <ele>1833.4</ele>
        <time>2026-07-15T07:40:46Z</time>
      </trkpt>
      <trkpt lat="42.88308" lon="-0.19609">
        <ele>1833.4</ele>
        <time>2026-07-15T07:40:47Z</time>
      </trkpt>
      <trkpt lat="42.88307" lon="-0.19609">
        <ele>1832.4</ele>
        <time>2026-07-15T07:40:48Z</time>
      </trkpt>
      <trkpt lat="42.88307" lon="-0.1961">
        <ele>1832.4</ele>
        <time>2026-07-15T07:40:49Z</time>
      </trkpt>
      <trkpt lat="42.88307" lon="-0.19611">
        <ele>1832.4</ele>
        <time>2026-07-15T07:40:50Z</time>
      </trkpt>
      <trkpt lat="42.88307" lon="-0.19611">
        <ele>1832.4</ele>
        <time>2026-07-15T07:40:51Z</time>
      </trkpt>
      <trkpt lat="42.88306" lon="-0.19611">
        <ele>1832.4</ele>
        <time>2026-07-15T07:40:51Z</time>
      </trkpt>
      <trkpt lat="42.88306" lon="-0.19611">
        <ele>1832.4</ele>
        <time>2026-07-15T07:40:52Z</time>
      </trkpt>
      <trkpt lat="42.88306" lon="-0.19611">
        <ele>1832.4</ele>
        <time>2026-07-15T07:40:53Z</time>
      </trkpt>
      <trkpt lat="42.88306" lon="-0.19611">
        <ele>1832.4</ele>
        <time>2026-07-15T07:40:53Z</time>
      </trkpt>
      <trkpt lat="42.88305" lon="-0.19611">
        <ele>1832.4</ele>
        <time>2026-07-15T07:40:54Z</time>
      </trkpt>
      <trkpt lat="42.88305" lon="-0.19611">
        <ele>1832.4</ele>
        <time>2026-07-15T07:40:55Z</time>
      </trkpt>
      <trkpt lat="42.88305" lon="-0.19611">
        <ele>1832.4</ele>
        <time>2026-07-15T07:40:56Z</time>
      </trkpt>
      <trkpt lat="42.88304" lon="-0.19611">
        <ele>1832.4</ele>
        <time>2026-07-15T07:40:56Z</time>
      </trkpt>
      <trkpt lat="42.88304" lon="-0.19611">
        <ele>1832.4</ele>
        <time>2026-07-15T07:40:57Z</time>
      </trkpt>
      <trkpt lat="42.88304" lon="-0.19611">
        <ele>1832.4</ele>
        <time>2026-07-15T07:40:58Z</time>
      </trkpt>
      <trkpt lat="42.88303" lon="-0.1961">
        <ele>1833.4</ele>
        <time>2026-07-15T07:40:58Z</time>
      </trkpt>
      <trkpt lat="42.88303" lon="-0.1961">
        <ele>1833.4</ele>
        <time>2026-07-15T07:40:59Z</time>
      </trkpt>
      <trkpt lat="42.88303" lon="-0.1961">
        <ele>1833.4</ele>
        <time>2026-07-15T07:41:00Z</time>
      </trkpt>
      <trkpt lat="42.88303" lon="-0.19609">
        <ele>1834.4</ele>
        <time>2026-07-15T07:41:01Z</time>
      </trkpt>
      <trkpt lat="42.88302" lon="-0.19609">
        <ele>1834.4</ele>
        <time>2026-07-15T07:41:02Z</time>
      </trkpt>
      <trkpt lat="42.88302" lon="-0.19609">
        <ele>1835.4</ele>
        <time>2026-07-15T07:41:03Z</time>
      </trkpt>
      <trkpt lat="42.88302" lon="-0.19609">
        <ele>1834.4</ele>
        <time>2026-07-15T07:41:03Z</time>
      </trkpt>
      <trkpt lat="42.88302" lon="-0.19608">
        <ele>1834.4</ele>
        <time>2026-07-15T07:41:04Z</time>
      </trkpt>
      <trkpt lat="42.88301" lon="-0.19608">
        <ele>1834.4</ele>
        <time>2026-07-15T07:41:05Z</time>
      </trkpt>
      <trkpt lat="42.88301" lon="-0.19609">
        <ele>1834.4</ele>
        <time>2026-07-15T07:41:05Z</time>
      </trkpt>
      <trkpt lat="42.88301" lon="-0.19609">
        <ele>1834.4</ele>
        <time>2026-07-15T07:41:06Z</time>
      </trkpt>
      <trkpt lat="42.883" lon="-0.19609">
        <ele>1834.4</ele>
        <time>2026-07-15T07:41:06Z</time>
      </trkpt>
      <trkpt lat="42.883" lon="-0.19609">
        <ele>1834.4</ele>
        <time>2026-07-15T07:41:07Z</time>
      </trkpt>
      <trkpt lat="42.883" lon="-0.19608">
        <ele>1833.4</ele>
        <time>2026-07-15T07:41:07Z</time>
      </trkpt>
      <trkpt lat="42.883" lon="-0.19609">
        <ele>1834.4</ele>
        <time>2026-07-15T07:41:08Z</time>
      </trkpt>
      <trkpt lat="42.88299" lon="-0.19609">
        <ele>1834.4</ele>
        <time>2026-07-15T07:41:09Z</time>
      </trkpt>
      <trkpt lat="42.88299" lon="-0.19609">
        <ele>1834.4</ele>
        <time>2026-07-15T07:41:10Z</time>
      </trkpt>
      <trkpt lat="42.88298" lon="-0.19608">
        <ele>1834.4</ele>
        <time>2026-07-15T07:41:11Z</time>
      </trkpt>
      <trkpt lat="42.88298" lon="-0.19608">
        <ele>1834.4</ele>
        <time>2026-07-15T07:41:12Z</time>
      </trkpt>
      <trkpt lat="42.88298" lon="-0.19608">
        <ele>1832.4</ele>
        <time>2026-07-15T07:41:13Z</time>
      </trkpt>
      <trkpt lat="42.88297" lon="-0.19608">
        <ele>1832.4</ele>
        <time>2026-07-15T07:41:14Z</time>
      </trkpt>
      <trkpt lat="42.88297" lon="-0.19608">
        <ele>1834.4</ele>
        <time>2026-07-15T07:41:15Z</time>
      </trkpt>
      <trkpt lat="42.88297" lon="-0.19608">
        <ele>1834.4</ele>
        <time>2026-07-15T07:41:16Z</time>
      </trkpt>
      <trkpt lat="42.88297" lon="-0.19608">
        <ele>1834.4</ele>
        <time>2026-07-15T07:41:17Z</time>
      </trkpt>
      <trkpt lat="42.88296" lon="-0.19608">
        <ele>1834.4</ele>
        <time>2026-07-15T07:41:18Z</time>
      </trkpt>
      <trkpt lat="42.88296" lon="-0.19608">
        <ele>1834.4</ele>
        <time>2026-07-15T07:41:19Z</time>
      </trkpt>
      <trkpt lat="42.88296" lon="-0.19609">
        <ele>1834.4</ele>
        <time>2026-07-15T07:41:19Z</time>
      </trkpt>
      <trkpt lat="42.88296" lon="-0.19609">
        <ele>1834.4</ele>
        <time>2026-07-15T07:41:20Z</time>
      </trkpt>
      <trkpt lat="42.88296" lon="-0.19609">
        <ele>1834.4</ele>
        <time>2026-07-15T07:41:21Z</time>
      </trkpt>
      <trkpt lat="42.88296" lon="-0.19609">
        <ele>1834.4</ele>
        <time>2026-07-15T07:41:21Z</time>
      </trkpt>
      <trkpt lat="42.88296" lon="-0.1961">
        <ele>1834.4</ele>
        <time>2026-07-15T07:41:22Z</time>
      </trkpt>
      <trkpt lat="42.88296" lon="-0.1961">
        <ele>1836.4</ele>
        <time>2026-07-15T07:41:22Z</time>
      </trkpt>
      <trkpt lat="42.88296" lon="-0.1961">
        <ele>1837.4</ele>
        <time>2026-07-15T07:41:23Z</time>
      </trkpt>
      <trkpt lat="42.88296" lon="-0.19611">
        <ele>1837.4</ele>
        <time>2026-07-15T07:41:24Z</time>
      </trkpt>
      <trkpt lat="42.88296" lon="-0.19611">
        <ele>1837.4</ele>
        <time>2026-07-15T07:41:25Z</time>
      </trkpt>
      <trkpt lat="42.88296" lon="-0.19611">
        <ele>1837.4</ele>
        <time>2026-07-15T07:41:26Z</time>
      </trkpt>
      <trkpt lat="42.88295" lon="-0.19611">
        <ele>1836.4</ele>
        <time>2026-07-15T07:41:27Z</time>
      </trkpt>
      <trkpt lat="42.88295" lon="-0.19612">
        <ele>1837.4</ele>
        <time>2026-07-15T07:41:28Z</time>
      </trkpt>
      <trkpt lat="42.88295" lon="-0.19612">
        <ele>1837.4</ele>
        <time>2026-07-15T07:41:29Z</time>
      </trkpt>
      <trkpt lat="42.88294" lon="-0.19613">
        <ele>1837.4</ele>
        <time>2026-07-15T07:41:30Z</time>
      </trkpt>
      <trkpt lat="42.88294" lon="-0.19613">
        <ele>1837.4</ele>
        <time>2026-07-15T07:41:31Z</time>
      </trkpt>
      <trkpt lat="42.88294" lon="-0.19614">
        <ele>1837.4</ele>
        <time>2026-07-15T07:41:32Z</time>
      </trkpt>
      <trkpt lat="42.88293" lon="-0.19614">
        <ele>1837.4</ele>
        <time>2026-07-15T07:41:32Z</time>
      </trkpt>
      <trkpt lat="42.88293" lon="-0.19614">
        <ele>1837.4</ele>
        <time>2026-07-15T07:41:33Z</time>
      </trkpt>
      <trkpt lat="42.88293" lon="-0.19615">
        <ele>1837.4</ele>
        <time>2026-07-15T07:41:34Z</time>
      </trkpt>
      <trkpt lat="42.88293" lon="-0.19615">
        <ele>1838.4</ele>
        <time>2026-07-15T07:41:35Z</time>
      </trkpt>
      <trkpt lat="42.88293" lon="-0.19615">
        <ele>1838.4</ele>
        <time>2026-07-15T07:41:36Z</time>
      </trkpt>
      <trkpt lat="42.88293" lon="-0.19616">
        <ele>1838.4</ele>
        <time>2026-07-15T07:41:37Z</time>
      </trkpt>
      <trkpt lat="42.88292" lon="-0.19616">
        <ele>1838.4</ele>
        <time>2026-07-15T07:41:38Z</time>
      </trkpt>
      <trkpt lat="42.88292" lon="-0.19616">
        <ele>1839.4</ele>
        <time>2026-07-15T07:41:39Z</time>
      </trkpt>
      <trkpt lat="42.88292" lon="-0.19616">
        <ele>1838.4</ele>
        <time>2026-07-15T07:41:40Z</time>
      </trkpt>
      <trkpt lat="42.88292" lon="-0.19616">
        <ele>1839.4</ele>
        <time>2026-07-15T07:41:41Z</time>
      </trkpt>
      <trkpt lat="42.88292" lon="-0.19617">
        <ele>1839.4</ele>
        <time>2026-07-15T07:41:42Z</time>
      </trkpt>
      <trkpt lat="42.88291" lon="-0.19617">
        <ele>1839.4</ele>
        <time>2026-07-15T07:41:43Z</time>
      </trkpt>
      <trkpt lat="42.88291" lon="-0.19617">
        <ele>1839.4</ele>
        <time>2026-07-15T07:41:43Z</time>
      </trkpt>
      <trkpt lat="42.88291" lon="-0.19618">
        <ele>1838.4</ele>
        <time>2026-07-15T07:41:44Z</time>
      </trkpt>
      <trkpt lat="42.8829" lon="-0.19618">
        <ele>1838.4</ele>
        <time>2026-07-15T07:41:45Z</time>
      </trkpt>
      <trkpt lat="42.8829" lon="-0.19618">
        <ele>1838.4</ele>
        <time>2026-07-15T07:41:46Z</time>
      </trkpt>
      <trkpt lat="42.88289" lon="-0.19618">
        <ele>1838.4</ele>
        <time>2026-07-15T07:41:47Z</time>
      </trkpt>
      <trkpt lat="42.88289" lon="-0.19618">
        <ele>1838.4</ele>
        <time>2026-07-15T07:41:48Z</time>
      </trkpt>
      <trkpt lat="42.88288" lon="-0.19618">
        <ele>1838.4</ele>
        <time>2026-07-15T07:41:49Z</time>
      </trkpt>
      <trkpt lat="42.88288" lon="-0.19618">
        <ele>1838.4</ele>
        <time>2026-07-15T07:41:50Z</time>
      </trkpt>
      <trkpt lat="42.88287" lon="-0.19618">
        <ele>1838.4</ele>
        <time>2026-07-15T07:41:51Z</time>
      </trkpt>
      <trkpt lat="42.88287" lon="-0.19618">
        <ele>1839.4</ele>
        <time>2026-07-15T07:41:51Z</time>
      </trkpt>
      <trkpt lat="42.88286" lon="-0.19618">
        <ele>1839.4</ele>
        <time>2026-07-15T07:41:52Z</time>
      </trkpt>
      <trkpt lat="42.88286" lon="-0.19618">
        <ele>1840.4</ele>
        <time>2026-07-15T07:41:53Z</time>
      </trkpt>
      <trkpt lat="42.88286" lon="-0.19617">
        <ele>1840.4</ele>
        <time>2026-07-15T07:41:54Z</time>
      </trkpt>
      <trkpt lat="42.88286" lon="-0.19617">
        <ele>1840.4</ele>
        <time>2026-07-15T07:41:55Z</time>
      </trkpt>
      <trkpt lat="42.88285" lon="-0.19617">
        <ele>1841.4</ele>
        <time>2026-07-15T07:41:56Z</time>
      </trkpt>
      <trkpt lat="42.88285" lon="-0.19617">
        <ele>1841.4</ele>
        <time>2026-07-15T07:41:57Z</time>
      </trkpt>
      <trkpt lat="42.88285" lon="-0.19617">
        <ele>1841.4</ele>
        <time>2026-07-15T07:41:58Z</time>
      </trkpt>
      <trkpt lat="42.88285" lon="-0.19616">
        <ele>1841.4</ele>
        <time>2026-07-15T07:41:59Z</time>
      </trkpt>
      <trkpt lat="42.88285" lon="-0.19616">
        <ele>1842.4</ele>
        <time>2026-07-15T07:41:59Z</time>
      </trkpt>
      <trkpt lat="42.88284" lon="-0.19616">
        <ele>1842.4</ele>
        <time>2026-07-15T07:42:00Z</time>
      </trkpt>
      <trkpt lat="42.88284" lon="-0.19615">
        <ele>1841.4</ele>
        <time>2026-07-15T07:42:00Z</time>
      </trkpt>
      <trkpt lat="42.88284" lon="-0.19615">
        <ele>1841.4</ele>
        <time>2026-07-15T07:42:01Z</time>
      </trkpt>
      <trkpt lat="42.88283" lon="-0.19615">
        <ele>1841.4</ele>
        <time>2026-07-15T07:42:02Z</time>
      </trkpt>
      <trkpt lat="42.88282" lon="-0.19615">
        <ele>1841.4</ele>
        <time>2026-07-15T07:42:03Z</time>
      </trkpt>
      <trkpt lat="42.88281" lon="-0.19615">
        <ele>1842.4</ele>
        <time>2026-07-15T07:42:04Z</time>
      </trkpt>
      <trkpt lat="42.88281" lon="-0.19615">
        <ele>1842.4</ele>
        <time>2026-07-15T07:42:05Z</time>
      </trkpt>
      <trkpt lat="42.8828" lon="-0.19615">
        <ele>1842.4</ele>
        <time>2026-07-15T07:42:06Z</time>
      </trkpt>
      <trkpt lat="42.88279" lon="-0.19614">
        <ele>1842.4</ele>
        <time>2026-07-15T07:42:07Z</time>
      </trkpt>
      <trkpt lat="42.88279" lon="-0.19614">
        <ele>1843.4</ele>
        <time>2026-07-15T07:42:08Z</time>
      </trkpt>
      <trkpt lat="42.88278" lon="-0.19614">
        <ele>1843.4</ele>
        <time>2026-07-15T07:42:08Z</time>
      </trkpt>
      <trkpt lat="42.88278" lon="-0.19614">
        <ele>1843.4</ele>
        <time>2026-07-15T07:42:09Z</time>
      </trkpt>
      <trkpt lat="42.88277" lon="-0.19614">
        <ele>1843.4</ele>
        <time>2026-07-15T07:42:10Z</time>
      </trkpt>
      <trkpt lat="42.88277" lon="-0.19614">
        <ele>1844.4</ele>
        <time>2026-07-15T07:42:11Z</time>
      </trkpt>
      <trkpt lat="42.88276" lon="-0.19614">
        <ele>1844.4</ele>
        <time>2026-07-15T07:42:11Z</time>
      </trkpt>
      <trkpt lat="42.88276" lon="-0.19614">
        <ele>1844.4</ele>
        <time>2026-07-15T07:42:12Z</time>
      </trkpt>
      <trkpt lat="42.88276" lon="-0.19614">
        <ele>1845.4</ele>
        <time>2026-07-15T07:42:13Z</time>
      </trkpt>
      <trkpt lat="42.88275" lon="-0.19614">
        <ele>1845.4</ele>
        <time>2026-07-15T07:42:14Z</time>
      </trkpt>
      <trkpt lat="42.88275" lon="-0.19613">
        <ele>1845.4</ele>
        <time>2026-07-15T07:42:15Z</time>
      </trkpt>
      <trkpt lat="42.88274" lon="-0.19612">
        <ele>1845.4</ele>
        <time>2026-07-15T07:42:16Z</time>
      </trkpt>
      <trkpt lat="42.88274" lon="-0.19612">
        <ele>1845.4</ele>
        <time>2026-07-15T07:42:17Z</time>
      </trkpt>
      <trkpt lat="42.88274" lon="-0.19611">
        <ele>1845.4</ele>
        <time>2026-07-15T07:42:17Z</time>
      </trkpt>
      <trkpt lat="42.88274" lon="-0.19611">
        <ele>1845.4</ele>
        <time>2026-07-15T07:42:18Z</time>
      </trkpt>
      <trkpt lat="42.88273" lon="-0.1961">
        <ele>1845.4</ele>
        <time>2026-07-15T07:42:19Z</time>
      </trkpt>
      <trkpt lat="42.88273" lon="-0.1961">
        <ele>1846.4</ele>
        <time>2026-07-15T07:42:20Z</time>
      </trkpt>
      <trkpt lat="42.88272" lon="-0.1961">
        <ele>1846.4</ele>
        <time>2026-07-15T07:42:21Z</time>
      </trkpt>
      <trkpt lat="42.88272" lon="-0.19611">
        <ele>1846.4</ele>
        <time>2026-07-15T07:42:22Z</time>
      </trkpt>
      <trkpt lat="42.88272" lon="-0.19611">
        <ele>1846.4</ele>
        <time>2026-07-15T07:42:22Z</time>
      </trkpt>
      <trkpt lat="42.88272" lon="-0.19611">
        <ele>1846.4</ele>
        <time>2026-07-15T07:42:23Z</time>
      </trkpt>
      <trkpt lat="42.88272" lon="-0.19612">
        <ele>1846.4</ele>
        <time>2026-07-15T07:42:24Z</time>
      </trkpt>
      <trkpt lat="42.88271" lon="-0.19612">
        <ele>1846.4</ele>
        <time>2026-07-15T07:42:24Z</time>
      </trkpt>
      <trkpt lat="42.88271" lon="-0.19612">
        <ele>1847.4</ele>
        <time>2026-07-15T07:42:25Z</time>
      </trkpt>
      <trkpt lat="42.88271" lon="-0.19612">
        <ele>1847.4</ele>
        <time>2026-07-15T07:42:26Z</time>
      </trkpt>
      <trkpt lat="42.8827" lon="-0.19612">
        <ele>1847.4</ele>
        <time>2026-07-15T07:42:27Z</time>
      </trkpt>
      <trkpt lat="42.88269" lon="-0.19612">
        <ele>1846.4</ele>
        <time>2026-07-15T07:42:28Z</time>
      </trkpt>
      <trkpt lat="42.88269" lon="-0.19612">
        <ele>1845.4</ele>
        <time>2026-07-15T07:42:29Z</time>
      </trkpt>
      <trkpt lat="42.88268" lon="-0.19611">
        <ele>1846.4</ele>
        <time>2026-07-15T07:42:29Z</time>
      </trkpt>
      <trkpt lat="42.88268" lon="-0.19611">
        <ele>1847.4</ele>
        <time>2026-07-15T07:42:30Z</time>
      </trkpt>
      <trkpt lat="42.88267" lon="-0.19611">
        <ele>1846.4</ele>
        <time>2026-07-15T07:42:31Z</time>
      </trkpt>
      <trkpt lat="42.88266" lon="-0.19611">
        <ele>1846.4</ele>
        <time>2026-07-15T07:42:32Z</time>
      </trkpt>
      <trkpt lat="42.88266" lon="-0.19611">
        <ele>1847.4</ele>
        <time>2026-07-15T07:42:33Z</time>
      </trkpt>
      <trkpt lat="42.88266" lon="-0.19611">
        <ele>1847.4</ele>
        <time>2026-07-15T07:42:34Z</time>
      </trkpt>
      <trkpt lat="42.88265" lon="-0.19611">
        <ele>1847.4</ele>
        <time>2026-07-15T07:42:35Z</time>
      </trkpt>
      <trkpt lat="42.88265" lon="-0.19611">
        <ele>1848.4</ele>
        <time>2026-07-15T07:42:35Z</time>
      </trkpt>
      <trkpt lat="42.88264" lon="-0.19611">
        <ele>1848.4</ele>
        <time>2026-07-15T07:42:36Z</time>
      </trkpt>
      <trkpt lat="42.88264" lon="-0.19612">
        <ele>1847.4</ele>
        <time>2026-07-15T07:42:37Z</time>
      </trkpt>
      <trkpt lat="42.88263" lon="-0.19612">
        <ele>1847.4</ele>
        <time>2026-07-15T07:42:38Z</time>
      </trkpt>
      <trkpt lat="42.88263" lon="-0.19612">
        <ele>1847.4</ele>
        <time>2026-07-15T07:42:38Z</time>
      </trkpt>
      <trkpt lat="42.88262" lon="-0.19612">
        <ele>1848.4</ele>
        <time>2026-07-15T07:42:39Z</time>
      </trkpt>
      <trkpt lat="42.88262" lon="-0.19612">
        <ele>1848.4</ele>
        <time>2026-07-15T07:42:40Z</time>
      </trkpt>
      <trkpt lat="42.88261" lon="-0.19612">
        <ele>1848.4</ele>
        <time>2026-07-15T07:42:41Z</time>
      </trkpt>
      <trkpt lat="42.88261" lon="-0.19613">
        <ele>1849.4</ele>
        <time>2026-07-15T07:42:42Z</time>
      </trkpt>
      <trkpt lat="42.8826" lon="-0.19613">
        <ele>1848.4</ele>
        <time>2026-07-15T07:42:43Z</time>
      </trkpt>
      <trkpt lat="42.8826" lon="-0.19613">
        <ele>1848.4</ele>
        <time>2026-07-15T07:42:43Z</time>
      </trkpt>
      <trkpt lat="42.88259" lon="-0.19613">
        <ele>1848.4</ele>
        <time>2026-07-15T07:42:44Z</time>
      </trkpt>
      <trkpt lat="42.88258" lon="-0.19613">
        <ele>1848.4</ele>
        <time>2026-07-15T07:42:45Z</time>
      </trkpt>
      <trkpt lat="42.88258" lon="-0.19614">
        <ele>1848.4</ele>
        <time>2026-07-15T07:42:46Z</time>
      </trkpt>
      <trkpt lat="42.88257" lon="-0.19614">
        <ele>1848.4</ele>
        <time>2026-07-15T07:42:47Z</time>
      </trkpt>
      <trkpt lat="42.88257" lon="-0.19614">
        <ele>1848.4</ele>
        <time>2026-07-15T07:42:47Z</time>
      </trkpt>
      <trkpt lat="42.88257" lon="-0.19614">
        <ele>1848.4</ele>
        <time>2026-07-15T07:42:48Z</time>
      </trkpt>
      <trkpt lat="42.88256" lon="-0.19615">
        <ele>1848.4</ele>
        <time>2026-07-15T07:42:49Z</time>
      </trkpt>
      <trkpt lat="42.88256" lon="-0.19615">
        <ele>1848.4</ele>
        <time>2026-07-15T07:42:50Z</time>
      </trkpt>
      <trkpt lat="42.88255" lon="-0.19616">
        <ele>1848.4</ele>
        <time>2026-07-15T07:42:51Z</time>
      </trkpt>
      <trkpt lat="42.88255" lon="-0.19616">
        <ele>1849.4</ele>
        <time>2026-07-15T07:42:51Z</time>
      </trkpt>
      <trkpt lat="42.88255" lon="-0.19617">
        <ele>1849.4</ele>
        <time>2026-07-15T07:42:52Z</time>
      </trkpt>
      <trkpt lat="42.88254" lon="-0.19617">
        <ele>1849.4</ele>
        <time>2026-07-15T07:42:53Z</time>
      </trkpt>
      <trkpt lat="42.88254" lon="-0.19618">
        <ele>1849.4</ele>
        <time>2026-07-15T07:42:54Z</time>
      </trkpt>
      <trkpt lat="42.88253" lon="-0.19618">
        <ele>1849.4</ele>
        <time>2026-07-15T07:42:55Z</time>
      </trkpt>
      <trkpt lat="42.88253" lon="-0.19618">
        <ele>1849.4</ele>
        <time>2026-07-15T07:42:56Z</time>
      </trkpt>
      <trkpt lat="42.88253" lon="-0.19618">
        <ele>1850.4</ele>
        <time>2026-07-15T07:42:56Z</time>
      </trkpt>
      <trkpt lat="42.88252" lon="-0.19619">
        <ele>1850.4</ele>
        <time>2026-07-15T07:42:57Z</time>
      </trkpt>
      <trkpt lat="42.88252" lon="-0.19618">
        <ele>1850.4</ele>
        <time>2026-07-15T07:42:58Z</time>
      </trkpt>
      <trkpt lat="42.88251" lon="-0.19618">
        <ele>1850.4</ele>
        <time>2026-07-15T07:42:59Z</time>
      </trkpt>
      <trkpt lat="42.88251" lon="-0.19618">
        <ele>1852.4</ele>
        <time>2026-07-15T07:43:00Z</time>
      </trkpt>
      <trkpt lat="42.8825" lon="-0.19618">
        <ele>1852.4</ele>
        <time>2026-07-15T07:43:01Z</time>
      </trkpt>
      <trkpt lat="42.8825" lon="-0.19619">
        <ele>1852.4</ele>
        <time>2026-07-15T07:43:02Z</time>
      </trkpt>
      <trkpt lat="42.88249" lon="-0.19619">
        <ele>1851.4</ele>
        <time>2026-07-15T07:43:02Z</time>
      </trkpt>
      <trkpt lat="42.88249" lon="-0.1962">
        <ele>1852.4</ele>
        <time>2026-07-15T07:43:03Z</time>
      </trkpt>
      <trkpt lat="42.88249" lon="-0.1962">
        <ele>1852.4</ele>
        <time>2026-07-15T07:43:04Z</time>
      </trkpt>
      <trkpt lat="42.8825" lon="-0.19621">
        <ele>1851.4</ele>
        <time>2026-07-15T07:43:04Z</time>
      </trkpt>
      <trkpt lat="42.8825" lon="-0.19621">
        <ele>1851.4</ele>
        <time>2026-07-15T07:43:05Z</time>
      </trkpt>
      <trkpt lat="42.88249" lon="-0.19622">
        <ele>1851.4</ele>
        <time>2026-07-15T07:43:06Z</time>
      </trkpt>
      <trkpt lat="42.88249" lon="-0.19623">
        <ele>1851.4</ele>
        <time>2026-07-15T07:43:07Z</time>
      </trkpt>
      <trkpt lat="42.88249" lon="-0.19623">
        <ele>1851.4</ele>
        <time>2026-07-15T07:43:07Z</time>
      </trkpt>
      <trkpt lat="42.88248" lon="-0.19623">
        <ele>1851.4</ele>
        <time>2026-07-15T07:43:08Z</time>
      </trkpt>
      <trkpt lat="42.88248" lon="-0.19623">
        <ele>1852.4</ele>
        <time>2026-07-15T07:43:08Z</time>
      </trkpt>
      <trkpt lat="42.88247" lon="-0.19623">
        <ele>1852.4</ele>
        <time>2026-07-15T07:43:09Z</time>
      </trkpt>
      <trkpt lat="42.88247" lon="-0.19623">
        <ele>1852.4</ele>
        <time>2026-07-15T07:43:10Z</time>
      </trkpt>
      <trkpt lat="42.88246" lon="-0.19623">
        <ele>1851.4</ele>
        <time>2026-07-15T07:43:11Z</time>
      </trkpt>
      <trkpt lat="42.88245" lon="-0.19623">
        <ele>1850.4</ele>
        <time>2026-07-15T07:43:11Z</time>
      </trkpt>
      <trkpt lat="42.88245" lon="-0.19622">
        <ele>1851.4</ele>
        <time>2026-07-15T07:43:12Z</time>
      </trkpt>
      <trkpt lat="42.88244" lon="-0.19622">
        <ele>1851.4</ele>
        <time>2026-07-15T07:43:13Z</time>
      </trkpt>
      <trkpt lat="42.88244" lon="-0.19621">
        <ele>1851.4</ele>
        <time>2026-07-15T07:43:14Z</time>
      </trkpt>
      <trkpt lat="42.88243" lon="-0.19621">
        <ele>1851.4</ele>
        <time>2026-07-15T07:43:15Z</time>
      </trkpt>
      <trkpt lat="42.88243" lon="-0.1962">
        <ele>1851.4</ele>
        <time>2026-07-15T07:43:16Z</time>
      </trkpt>
      <trkpt lat="42.88243" lon="-0.1962">
        <ele>1852.4</ele>
        <time>2026-07-15T07:43:16Z</time>
      </trkpt>
      <trkpt lat="42.88242" lon="-0.1962">
        <ele>1852.4</ele>
        <time>2026-07-15T07:43:17Z</time>
      </trkpt>
      <trkpt lat="42.88241" lon="-0.19619">
        <ele>1852.4</ele>
        <time>2026-07-15T07:43:18Z</time>
      </trkpt>
      <trkpt lat="42.88241" lon="-0.19619">
        <ele>1852.4</ele>
        <time>2026-07-15T07:43:19Z</time>
      </trkpt>
      <trkpt lat="42.88241" lon="-0.19618">
        <ele>1852.4</ele>
        <time>2026-07-15T07:43:20Z</time>
      </trkpt>
      <trkpt lat="42.8824" lon="-0.19618">
        <ele>1852.4</ele>
        <time>2026-07-15T07:43:21Z</time>
      </trkpt>
      <trkpt lat="42.8824" lon="-0.19617">
        <ele>1852.4</ele>
        <time>2026-07-15T07:43:22Z</time>
      </trkpt>
      <trkpt lat="42.88239" lon="-0.19617">
        <ele>1851.4</ele>
        <time>2026-07-15T07:43:22Z</time>
      </trkpt>
      <trkpt lat="42.88239" lon="-0.19616">
        <ele>1851.4</ele>
        <time>2026-07-15T07:43:23Z</time>
      </trkpt>
      <trkpt lat="42.88238" lon="-0.19616">
        <ele>1851.4</ele>
        <time>2026-07-15T07:43:24Z</time>
      </trkpt>
      <trkpt lat="42.88237" lon="-0.19616">
        <ele>1852.4</ele>
        <time>2026-07-15T07:43:25Z</time>
      </trkpt>
      <trkpt lat="42.88237" lon="-0.19616">
        <ele>1852.4</ele>
        <time>2026-07-15T07:43:26Z</time>
      </trkpt>
      <trkpt lat="42.88236" lon="-0.19615">
        <ele>1852.4</ele>
        <time>2026-07-15T07:43:26Z</time>
      </trkpt>
      <trkpt lat="42.88236" lon="-0.19615">
        <ele>1852.4</ele>
        <time>2026-07-15T07:43:27Z</time>
      </trkpt>
      <trkpt lat="42.88235" lon="-0.19614">
        <ele>1852.4</ele>
        <time>2026-07-15T07:43:28Z</time>
      </trkpt>
      <trkpt lat="42.88234" lon="-0.19614">
        <ele>1852.4</ele>
        <time>2026-07-15T07:43:29Z</time>
      </trkpt>
      <trkpt lat="42.88234" lon="-0.19613">
        <ele>1852.4</ele>
        <time>2026-07-15T07:43:30Z</time>
      </trkpt>
      <trkpt lat="42.88233" lon="-0.19613">
        <ele>1852.4</ele>
        <time>2026-07-15T07:43:30Z</time>
      </trkpt>
      <trkpt lat="42.88233" lon="-0.19612">
        <ele>1853.4</ele>
        <time>2026-07-15T07:43:31Z</time>
      </trkpt>
      <trkpt lat="42.88233" lon="-0.19611">
        <ele>1853.4</ele>
        <time>2026-07-15T07:43:32Z</time>
      </trkpt>
      <trkpt lat="42.88232" lon="-0.1961">
        <ele>1853.4</ele>
        <time>2026-07-15T07:43:33Z</time>
      </trkpt>
      <trkpt lat="42.88232" lon="-0.1961">
        <ele>1853.4</ele>
        <time>2026-07-15T07:43:34Z</time>
      </trkpt>
      <trkpt lat="42.88231" lon="-0.19609">
        <ele>1853.4</ele>
        <time>2026-07-15T07:43:35Z</time>
      </trkpt>
      <trkpt lat="42.88231" lon="-0.19608">
        <ele>1853.4</ele>
        <time>2026-07-15T07:43:35Z</time>
      </trkpt>
      <trkpt lat="42.88231" lon="-0.19608">
        <ele>1852.4</ele>
        <time>2026-07-15T07:43:36Z</time>
      </trkpt>
      <trkpt lat="42.8823" lon="-0.19607">
        <ele>1852.4</ele>
        <time>2026-07-15T07:43:37Z</time>
      </trkpt>
      <trkpt lat="42.8823" lon="-0.19607">
        <ele>1853.4</ele>
        <time>2026-07-15T07:43:38Z</time>
      </trkpt>
      <trkpt lat="42.8823" lon="-0.19606">
        <ele>1853.4</ele>
        <time>2026-07-15T07:43:38Z</time>
      </trkpt>
      <trkpt lat="42.8823" lon="-0.19605">
        <ele>1853.4</ele>
        <time>2026-07-15T07:43:39Z</time>
      </trkpt>
      <trkpt lat="42.8823" lon="-0.19604">
        <ele>1853.4</ele>
        <time>2026-07-15T07:43:40Z</time>
      </trkpt>
      <trkpt lat="42.8823" lon="-0.19604">
        <ele>1853.4</ele>
        <time>2026-07-15T07:43:41Z</time>
      </trkpt>
      <trkpt lat="42.8823" lon="-0.19603">
        <ele>1854.4</ele>
        <time>2026-07-15T07:43:42Z</time>
      </trkpt>
      <trkpt lat="42.8823" lon="-0.19603">
        <ele>1854.4</ele>
        <time>2026-07-15T07:43:42Z</time>
      </trkpt>
      <trkpt lat="42.88229" lon="-0.19602">
        <ele>1854.4</ele>
        <time>2026-07-15T07:43:43Z</time>
      </trkpt>
      <trkpt lat="42.88229" lon="-0.19601">
        <ele>1854.4</ele>
        <time>2026-07-15T07:43:44Z</time>
      </trkpt>
      <trkpt lat="42.88229" lon="-0.196">
        <ele>1854.4</ele>
        <time>2026-07-15T07:43:45Z</time>
      </trkpt>
      <trkpt lat="42.88229" lon="-0.196">
        <ele>1854.4</ele>
        <time>2026-07-15T07:43:45Z</time>
      </trkpt>
      <trkpt lat="42.88228" lon="-0.19599">
        <ele>1855.4</ele>
        <time>2026-07-15T07:43:46Z</time>
      </trkpt>
      <trkpt lat="42.88228" lon="-0.19598">
        <ele>1855.4</ele>
        <time>2026-07-15T07:43:47Z</time>
      </trkpt>
      <trkpt lat="42.88228" lon="-0.19597">
        <ele>1855.4</ele>
        <time>2026-07-15T07:43:48Z</time>
      </trkpt>
      <trkpt lat="42.88228" lon="-0.19596">
        <ele>1856.4</ele>
        <time>2026-07-15T07:43:49Z</time>
      </trkpt>
      <trkpt lat="42.88228" lon="-0.19595">
        <ele>1857.4</ele>
        <time>2026-07-15T07:43:49Z</time>
      </trkpt>
      <trkpt lat="42.88228" lon="-0.19594">
        <ele>1857.4</ele>
        <time>2026-07-15T07:43:50Z</time>
      </trkpt>
      <trkpt lat="42.88228" lon="-0.19594">
        <ele>1857.4</ele>
        <time>2026-07-15T07:43:51Z</time>
      </trkpt>
      <trkpt lat="42.88228" lon="-0.19593">
        <ele>1857.4</ele>
        <time>2026-07-15T07:43:52Z</time>
      </trkpt>
      <trkpt lat="42.88228" lon="-0.19593">
        <ele>1857.4</ele>
        <time>2026-07-15T07:43:52Z</time>
      </trkpt>
      <trkpt lat="42.88228" lon="-0.19592">
        <ele>1857.4</ele>
        <time>2026-07-15T07:43:53Z</time>
      </trkpt>
      <trkpt lat="42.88228" lon="-0.19591">
        <ele>1857.4</ele>
        <time>2026-07-15T07:43:54Z</time>
      </trkpt>
      <trkpt lat="42.88228" lon="-0.1959">
        <ele>1857.4</ele>
        <time>2026-07-15T07:43:55Z</time>
      </trkpt>
      <trkpt lat="42.88228" lon="-0.19589">
        <ele>1857.4</ele>
        <time>2026-07-15T07:43:56Z</time>
      </trkpt>
      <trkpt lat="42.88228" lon="-0.19588">
        <ele>1857.4</ele>
        <time>2026-07-15T07:43:57Z</time>
      </trkpt>
      <trkpt lat="42.88228" lon="-0.19587">
        <ele>1858.4</ele>
        <time>2026-07-15T07:43:58Z</time>
      </trkpt>
      <trkpt lat="42.88228" lon="-0.19587">
        <ele>1858.4</ele>
        <time>2026-07-15T07:43:58Z</time>
      </trkpt>
      <trkpt lat="42.88228" lon="-0.19586">
        <ele>1858.4</ele>
        <time>2026-07-15T07:43:59Z</time>
      </trkpt>
      <trkpt lat="42.88228" lon="-0.19585">
        <ele>1858.4</ele>
        <time>2026-07-15T07:44:00Z</time>
      </trkpt>
      <trkpt lat="42.88228" lon="-0.19585">
        <ele>1859.4</ele>
        <time>2026-07-15T07:44:01Z</time>
      </trkpt>
      <trkpt lat="42.88228" lon="-0.19583">
        <ele>1859.4</ele>
        <time>2026-07-15T07:44:02Z</time>
      </trkpt>
      <trkpt lat="42.88228" lon="-0.19582">
        <ele>1860.4</ele>
        <time>2026-07-15T07:44:02Z</time>
      </trkpt>
      <trkpt lat="42.88228" lon="-0.19582">
        <ele>1860.4</ele>
        <time>2026-07-15T07:44:03Z</time>
      </trkpt>
      <trkpt lat="42.88228" lon="-0.19581">
        <ele>1860.4</ele>
        <time>2026-07-15T07:44:04Z</time>
      </trkpt>
      <trkpt lat="42.88228" lon="-0.1958">
        <ele>1859.4</ele>
        <time>2026-07-15T07:44:05Z</time>
      </trkpt>
      <trkpt lat="42.88229" lon="-0.19579">
        <ele>1859.4</ele>
        <time>2026-07-15T07:44:06Z</time>
      </trkpt>
      <trkpt lat="42.88229" lon="-0.19578">
        <ele>1860.4</ele>
        <time>2026-07-15T07:44:06Z</time>
      </trkpt>
      <trkpt lat="42.88229" lon="-0.19577">
        <ele>1860.4</ele>
        <time>2026-07-15T07:44:07Z</time>
      </trkpt>
      <trkpt lat="42.88229" lon="-0.19576">
        <ele>1860.4</ele>
        <time>2026-07-15T07:44:08Z</time>
      </trkpt>
      <trkpt lat="42.88229" lon="-0.19575">
        <ele>1861.4</ele>
        <time>2026-07-15T07:44:09Z</time>
      </trkpt>
      <trkpt lat="42.88229" lon="-0.19575">
        <ele>1861.4</ele>
        <time>2026-07-15T07:44:10Z</time>
      </trkpt>
      <trkpt lat="42.88229" lon="-0.19574">
        <ele>1862.4</ele>
        <time>2026-07-15T07:44:11Z</time>
      </trkpt>
      <trkpt lat="42.8823" lon="-0.19574">
        <ele>1862.4</ele>
        <time>2026-07-15T07:44:11Z</time>
      </trkpt>
      <trkpt lat="42.8823" lon="-0.19573">
        <ele>1862.4</ele>
        <time>2026-07-15T07:44:12Z</time>
      </trkpt>
      <trkpt lat="42.8823" lon="-0.19572">
        <ele>1862.4</ele>
        <time>2026-07-15T07:44:13Z</time>
      </trkpt>
      <trkpt lat="42.8823" lon="-0.19571">
        <ele>1861.4</ele>
        <time>2026-07-15T07:44:14Z</time>
      </trkpt>
      <trkpt lat="42.8823" lon="-0.1957">
        <ele>1862.4</ele>
        <time>2026-07-15T07:44:15Z</time>
      </trkpt>
      <trkpt lat="42.8823" lon="-0.1957">
        <ele>1862.4</ele>
        <time>2026-07-15T07:44:15Z</time>
      </trkpt>
      <trkpt lat="42.88231" lon="-0.19569">
        <ele>1862.4</ele>
        <time>2026-07-15T07:44:16Z</time>
      </trkpt>
      <trkpt lat="42.8823" lon="-0.19568">
        <ele>1862.4</ele>
        <time>2026-07-15T07:44:17Z</time>
      </trkpt>
      <trkpt lat="42.8823" lon="-0.19567">
        <ele>1862.4</ele>
        <time>2026-07-15T07:44:18Z</time>
      </trkpt>
      <trkpt lat="42.8823" lon="-0.19566">
        <ele>1863.4</ele>
        <time>2026-07-15T07:44:19Z</time>
      </trkpt>
      <trkpt lat="42.8823" lon="-0.19566">
        <ele>1862.4</ele>
        <time>2026-07-15T07:44:20Z</time>
      </trkpt>
      <trkpt lat="42.8823" lon="-0.19565">
        <ele>1862.4</ele>
        <time>2026-07-15T07:44:20Z</time>
      </trkpt>
      <trkpt lat="42.88231" lon="-0.19565">
        <ele>1862.4</ele>
        <time>2026-07-15T07:44:21Z</time>
      </trkpt>
      <trkpt lat="42.88231" lon="-0.19564">
        <ele>1862.4</ele>
        <time>2026-07-15T07:44:22Z</time>
      </trkpt>
      <trkpt lat="42.88231" lon="-0.19563">
        <ele>1862.4</ele>
        <time>2026-07-15T07:44:23Z</time>
      </trkpt>
      <trkpt lat="42.88231" lon="-0.19563">
        <ele>1862.4</ele>
        <time>2026-07-15T07:44:24Z</time>
      </trkpt>
      <trkpt lat="42.88232" lon="-0.19563">
        <ele>1862.4</ele>
        <time>2026-07-15T07:44:24Z</time>
      </trkpt>
      <trkpt lat="42.88232" lon="-0.19562">
        <ele>1862.4</ele>
        <time>2026-07-15T07:44:25Z</time>
      </trkpt>
      <trkpt lat="42.88232" lon="-0.19561">
        <ele>1862.4</ele>
        <time>2026-07-15T07:44:26Z</time>
      </trkpt>
      <trkpt lat="42.88232" lon="-0.19561">
        <ele>1862.4</ele>
        <time>2026-07-15T07:44:27Z</time>
      </trkpt>
      <trkpt lat="42.88232" lon="-0.1956">
        <ele>1862.4</ele>
        <time>2026-07-15T07:44:27Z</time>
      </trkpt>
      <trkpt lat="42.88233" lon="-0.1956">
        <ele>1863.4</ele>
        <time>2026-07-15T07:44:28Z</time>
      </trkpt>
      <trkpt lat="42.88233" lon="-0.19559">
        <ele>1863.4</ele>
        <time>2026-07-15T07:44:29Z</time>
      </trkpt>
      <trkpt lat="42.88233" lon="-0.19559">
        <ele>1863.4</ele>
        <time>2026-07-15T07:44:30Z</time>
      </trkpt>
      <trkpt lat="42.88233" lon="-0.19558">
        <ele>1863.4</ele>
        <time>2026-07-15T07:44:31Z</time>
      </trkpt>
      <trkpt lat="42.88233" lon="-0.19557">
        <ele>1863.4</ele>
        <time>2026-07-15T07:44:32Z</time>
      </trkpt>
      <trkpt lat="42.88233" lon="-0.19557">
        <ele>1864.4</ele>
        <time>2026-07-15T07:44:33Z</time>
      </trkpt>
      <trkpt lat="42.88233" lon="-0.19557">
        <ele>1864.4</ele>
        <time>2026-07-15T07:44:33Z</time>
      </trkpt>
      <trkpt lat="42.88233" lon="-0.19556">
        <ele>1864.4</ele>
        <time>2026-07-15T07:44:34Z</time>
      </trkpt>
      <trkpt lat="42.88233" lon="-0.19555">
        <ele>1864.4</ele>
        <time>2026-07-15T07:44:35Z</time>
      </trkpt>
      <trkpt lat="42.88234" lon="-0.19554">
        <ele>1864.4</ele>
        <time>2026-07-15T07:44:36Z</time>
      </trkpt>
      <trkpt lat="42.88234" lon="-0.19554">
        <ele>1864.4</ele>
        <time>2026-07-15T07:44:37Z</time>
      </trkpt>
      <trkpt lat="42.88234" lon="-0.19553">
        <ele>1864.4</ele>
        <time>2026-07-15T07:44:38Z</time>
      </trkpt>
      <trkpt lat="42.88234" lon="-0.19553">
        <ele>1864.4</ele>
        <time>2026-07-15T07:44:39Z</time>
      </trkpt>
      <trkpt lat="42.88234" lon="-0.19552">
        <ele>1863.4</ele>
        <time>2026-07-15T07:44:40Z</time>
      </trkpt>
      <trkpt lat="42.88234" lon="-0.19551">
        <ele>1864.4</ele>
        <time>2026-07-15T07:44:41Z</time>
      </trkpt>
      <trkpt lat="42.88234" lon="-0.19551">
        <ele>1864.4</ele>
        <time>2026-07-15T07:44:42Z</time>
      </trkpt>
      <trkpt lat="42.88234" lon="-0.1955">
        <ele>1864.4</ele>
        <time>2026-07-15T07:44:43Z</time>
      </trkpt>
      <trkpt lat="42.88234" lon="-0.1955">
        <ele>1864.4</ele>
        <time>2026-07-15T07:44:43Z</time>
      </trkpt>
      <trkpt lat="42.88234" lon="-0.19549">
        <ele>1863.4</ele>
        <time>2026-07-15T07:44:44Z</time>
      </trkpt>
      <trkpt lat="42.88234" lon="-0.19548">
        <ele>1864.4</ele>
        <time>2026-07-15T07:44:45Z</time>
      </trkpt>
      <trkpt lat="42.88234" lon="-0.19548">
        <ele>1864.4</ele>
        <time>2026-07-15T07:44:46Z</time>
      </trkpt>
      <trkpt lat="42.88234" lon="-0.19547">
        <ele>1864.4</ele>
        <time>2026-07-15T07:44:47Z</time>
      </trkpt>
      <trkpt lat="42.88234" lon="-0.19546">
        <ele>1864.4</ele>
        <time>2026-07-15T07:44:48Z</time>
      </trkpt>
      <trkpt lat="42.88234" lon="-0.19545">
        <ele>1865.4</ele>
        <time>2026-07-15T07:44:49Z</time>
      </trkpt>
      <trkpt lat="42.88235" lon="-0.19544">
        <ele>1866.4</ele>
        <time>2026-07-15T07:44:50Z</time>
      </trkpt>
      <trkpt lat="42.88235" lon="-0.19544">
        <ele>1866.4</ele>
        <time>2026-07-15T07:44:50Z</time>
      </trkpt>
      <trkpt lat="42.88235" lon="-0.19543">
        <ele>1866.4</ele>
        <time>2026-07-15T07:44:51Z</time>
      </trkpt>
      <trkpt lat="42.88235" lon="-0.19543">
        <ele>1867.4</ele>
        <time>2026-07-15T07:44:52Z</time>
      </trkpt>
      <trkpt lat="42.88235" lon="-0.19542">
        <ele>1867.4</ele>
        <time>2026-07-15T07:44:53Z</time>
      </trkpt>
      <trkpt lat="42.88236" lon="-0.19541">
        <ele>1867.4</ele>
        <time>2026-07-15T07:44:54Z</time>
      </trkpt>
      <trkpt lat="42.88236" lon="-0.19541">
        <ele>1868.4</ele>
        <time>2026-07-15T07:44:55Z</time>
      </trkpt>
      <trkpt lat="42.88236" lon="-0.1954">
        <ele>1868.4</ele>
        <time>2026-07-15T07:44:56Z</time>
      </trkpt>
      <trkpt lat="42.88237" lon="-0.19539">
        <ele>1868.4</ele>
        <time>2026-07-15T07:44:57Z</time>
      </trkpt>
      <trkpt lat="42.88237" lon="-0.19539">
        <ele>1868.4</ele>
        <time>2026-07-15T07:44:58Z</time>
      </trkpt>
      <trkpt lat="42.88238" lon="-0.19538">
        <ele>1868.4</ele>
        <time>2026-07-15T07:44:58Z</time>
      </trkpt>
      <trkpt lat="42.88238" lon="-0.19538">
        <ele>1868.4</ele>
        <time>2026-07-15T07:44:59Z</time>
      </trkpt>
      <trkpt lat="42.88239" lon="-0.19537">
        <ele>1868.4</ele>
        <time>2026-07-15T07:45:00Z</time>
      </trkpt>
      <trkpt lat="42.8824" lon="-0.19537">
        <ele>1868.4</ele>
        <time>2026-07-15T07:45:01Z</time>
      </trkpt>
      <trkpt lat="42.8824" lon="-0.19536">
        <ele>1868.4</ele>
        <time>2026-07-15T07:45:01Z</time>
      </trkpt>
      <trkpt lat="42.8824" lon="-0.19536">
        <ele>1868.4</ele>
        <time>2026-07-15T07:45:02Z</time>
      </trkpt>
      <trkpt lat="42.88241" lon="-0.19535">
        <ele>1868.4</ele>
        <time>2026-07-15T07:45:03Z</time>
      </trkpt>
      <trkpt lat="42.88241" lon="-0.19534">
        <ele>1868.4</ele>
        <time>2026-07-15T07:45:04Z</time>
      </trkpt>
      <trkpt lat="42.88241" lon="-0.19534">
        <ele>1868.4</ele>
        <time>2026-07-15T07:45:04Z</time>
      </trkpt>
      <trkpt lat="42.88242" lon="-0.19533">
        <ele>1869.4</ele>
        <time>2026-07-15T07:45:05Z</time>
      </trkpt>
      <trkpt lat="42.88242" lon="-0.19532">
        <ele>1869.4</ele>
        <time>2026-07-15T07:45:06Z</time>
      </trkpt>
      <trkpt lat="42.88242" lon="-0.19531">
        <ele>1869.4</ele>
        <time>2026-07-15T07:45:06Z</time>
      </trkpt>
      <trkpt lat="42.88242" lon="-0.1953">
        <ele>1869.4</ele>
        <time>2026-07-15T07:45:07Z</time>
      </trkpt>
      <trkpt lat="42.88243" lon="-0.19529">
        <ele>1869.4</ele>
        <time>2026-07-15T07:45:08Z</time>
      </trkpt>
      <trkpt lat="42.88243" lon="-0.19528">
        <ele>1869.4</ele>
        <time>2026-07-15T07:45:09Z</time>
      </trkpt>
      <trkpt lat="42.88243" lon="-0.19528">
        <ele>1869.4</ele>
        <time>2026-07-15T07:45:10Z</time>
      </trkpt>
      <trkpt lat="42.88243" lon="-0.19528">
        <ele>1869.4</ele>
        <time>2026-07-15T07:45:10Z</time>
      </trkpt>
      <trkpt lat="42.88243" lon="-0.19526">
        <ele>1869.4</ele>
        <time>2026-07-15T07:45:11Z</time>
      </trkpt>
      <trkpt lat="42.88243" lon="-0.19526">
        <ele>1869.4</ele>
        <time>2026-07-15T07:45:12Z</time>
      </trkpt>
      <trkpt lat="42.88243" lon="-0.19526">
        <ele>1870.4</ele>
        <time>2026-07-15T07:45:13Z</time>
      </trkpt>
      <trkpt lat="42.88243" lon="-0.19525">
        <ele>1871.4</ele>
        <time>2026-07-15T07:45:13Z</time>
      </trkpt>
      <trkpt lat="42.88243" lon="-0.19524">
        <ele>1871.4</ele>
        <time>2026-07-15T07:45:14Z</time>
      </trkpt>
      <trkpt lat="42.88243" lon="-0.19523">
        <ele>1871.4</ele>
        <time>2026-07-15T07:45:15Z</time>
      </trkpt>
      <trkpt lat="42.88243" lon="-0.19522">
        <ele>1870.4</ele>
        <time>2026-07-15T07:45:16Z</time>
      </trkpt>
      <trkpt lat="42.88243" lon="-0.19521">
        <ele>1870.4</ele>
        <time>2026-07-15T07:45:16Z</time>
      </trkpt>
      <trkpt lat="42.88244" lon="-0.1952">
        <ele>1870.4</ele>
        <time>2026-07-15T07:45:17Z</time>
      </trkpt>
      <trkpt lat="42.88244" lon="-0.19519">
        <ele>1870.4</ele>
        <time>2026-07-15T07:45:18Z</time>
      </trkpt>
      <trkpt lat="42.88244" lon="-0.19518">
        <ele>1871.4</ele>
        <time>2026-07-15T07:45:19Z</time>
      </trkpt>
      <trkpt lat="42.88244" lon="-0.19517">
        <ele>1871.4</ele>
        <time>2026-07-15T07:45:19Z</time>
      </trkpt>
      <trkpt lat="42.88244" lon="-0.19516">
        <ele>1871.4</ele>
        <time>2026-07-15T07:45:20Z</time>
      </trkpt>
      <trkpt lat="42.88245" lon="-0.19515">
        <ele>1871.4</ele>
        <time>2026-07-15T07:45:21Z</time>
      </trkpt>
      <trkpt lat="42.88245" lon="-0.19514">
        <ele>1872.4</ele>
        <time>2026-07-15T07:45:22Z</time>
      </trkpt>
      <trkpt lat="42.88245" lon="-0.19513">
        <ele>1871.4</ele>
        <time>2026-07-15T07:45:23Z</time>
      </trkpt>
      <trkpt lat="42.88245" lon="-0.19513">
        <ele>1871.4</ele>
        <time>2026-07-15T07:45:23Z</time>
      </trkpt>
      <trkpt lat="42.88245" lon="-0.19512">
        <ele>1871.4</ele>
        <time>2026-07-15T07:45:24Z</time>
      </trkpt>
      <trkpt lat="42.88245" lon="-0.19511">
        <ele>1871.4</ele>
        <time>2026-07-15T07:45:25Z</time>
      </trkpt>
      <trkpt lat="42.88245" lon="-0.1951">
        <ele>1871.4</ele>
        <time>2026-07-15T07:45:25Z</time>
      </trkpt>
      <trkpt lat="42.88246" lon="-0.19509">
        <ele>1871.4</ele>
        <time>2026-07-15T07:45:26Z</time>
      </trkpt>
      <trkpt lat="42.88246" lon="-0.19508">
        <ele>1871.4</ele>
        <time>2026-07-15T07:45:27Z</time>
      </trkpt>
      <trkpt lat="42.88246" lon="-0.19507">
        <ele>1871.4</ele>
        <time>2026-07-15T07:45:28Z</time>
      </trkpt>
      <trkpt lat="42.88246" lon="-0.19507">
        <ele>1872.4</ele>
        <time>2026-07-15T07:45:28Z</time>
      </trkpt>
      <trkpt lat="42.88246" lon="-0.19506">
        <ele>1872.4</ele>
        <time>2026-07-15T07:45:29Z</time>
      </trkpt>
      <trkpt lat="42.88247" lon="-0.19505">
        <ele>1872.4</ele>
        <time>2026-07-15T07:45:30Z</time>
      </trkpt>
      <trkpt lat="42.88247" lon="-0.19505">
        <ele>1872.4</ele>
        <time>2026-07-15T07:45:31Z</time>
      </trkpt>
      <trkpt lat="42.88247" lon="-0.19504">
        <ele>1873.4</ele>
        <time>2026-07-15T07:45:31Z</time>
      </trkpt>
      <trkpt lat="42.88247" lon="-0.19504">
        <ele>1873.4</ele>
        <time>2026-07-15T07:45:32Z</time>
      </trkpt>
      <trkpt lat="42.88248" lon="-0.19504">
        <ele>1873.4</ele>
        <time>2026-07-15T07:45:33Z</time>
      </trkpt>
      <trkpt lat="42.88248" lon="-0.19503">
        <ele>1874.4</ele>
        <time>2026-07-15T07:45:34Z</time>
      </trkpt>
      <trkpt lat="42.88248" lon="-0.19503">
        <ele>1874.4</ele>
        <time>2026-07-15T07:45:34Z</time>
      </trkpt>
      <trkpt lat="42.88248" lon="-0.19502">
        <ele>1874.4</ele>
        <time>2026-07-15T07:45:35Z</time>
      </trkpt>
      <trkpt lat="42.88249" lon="-0.19502">
        <ele>1874.4</ele>
        <time>2026-07-15T07:45:36Z</time>
      </trkpt>
      <trkpt lat="42.88249" lon="-0.19502">
        <ele>1875.4</ele>
        <time>2026-07-15T07:45:36Z</time>
      </trkpt>
      <trkpt lat="42.88249" lon="-0.19501">
        <ele>1874.4</ele>
        <time>2026-07-15T07:45:37Z</time>
      </trkpt>
      <trkpt lat="42.8825" lon="-0.195">
        <ele>1874.4</ele>
        <time>2026-07-15T07:45:38Z</time>
      </trkpt>
      <trkpt lat="42.8825" lon="-0.19499">
        <ele>1875.4</ele>
        <time>2026-07-15T07:45:39Z</time>
      </trkpt>
      <trkpt lat="42.8825" lon="-0.19499">
        <ele>1875.4</ele>
        <time>2026-07-15T07:45:40Z</time>
      </trkpt>
      <trkpt lat="42.8825" lon="-0.19498">
        <ele>1875.4</ele>
        <time>2026-07-15T07:45:40Z</time>
      </trkpt>
      <trkpt lat="42.88251" lon="-0.19498">
        <ele>1875.4</ele>
        <time>2026-07-15T07:45:41Z</time>
      </trkpt>
      <trkpt lat="42.88251" lon="-0.19497">
        <ele>1875.4</ele>
        <time>2026-07-15T07:45:42Z</time>
      </trkpt>
      <trkpt lat="42.88251" lon="-0.19496">
        <ele>1875.4</ele>
        <time>2026-07-15T07:45:43Z</time>
      </trkpt>
      <trkpt lat="42.88252" lon="-0.19495">
        <ele>1875.4</ele>
        <time>2026-07-15T07:45:43Z</time>
      </trkpt>
      <trkpt lat="42.88252" lon="-0.19495">
        <ele>1874.4</ele>
        <time>2026-07-15T07:45:44Z</time>
      </trkpt>
      <trkpt lat="42.88252" lon="-0.19493">
        <ele>1875.4</ele>
        <time>2026-07-15T07:45:45Z</time>
      </trkpt>
      <trkpt lat="42.88252" lon="-0.19493">
        <ele>1875.4</ele>
        <time>2026-07-15T07:45:46Z</time>
      </trkpt>
      <trkpt lat="42.88252" lon="-0.19492">
        <ele>1875.4</ele>
        <time>2026-07-15T07:45:47Z</time>
      </trkpt>
      <trkpt lat="42.88252" lon="-0.19491">
        <ele>1875.4</ele>
        <time>2026-07-15T07:45:48Z</time>
      </trkpt>
      <trkpt lat="42.88252" lon="-0.19491">
        <ele>1875.4</ele>
        <time>2026-07-15T07:45:48Z</time>
      </trkpt>
      <trkpt lat="42.88252" lon="-0.1949">
        <ele>1875.4</ele>
        <time>2026-07-15T07:45:49Z</time>
      </trkpt>
      <trkpt lat="42.88252" lon="-0.1949">
        <ele>1875.4</ele>
        <time>2026-07-15T07:45:50Z</time>
      </trkpt>
      <trkpt lat="42.88253" lon="-0.19489">
        <ele>1875.4</ele>
        <time>2026-07-15T07:45:51Z</time>
      </trkpt>
      <trkpt lat="42.88252" lon="-0.19488">
        <ele>1876.4</ele>
        <time>2026-07-15T07:45:52Z</time>
      </trkpt>
      <trkpt lat="42.88253" lon="-0.19488">
        <ele>1877.4</ele>
        <time>2026-07-15T07:45:52Z</time>
      </trkpt>
      <trkpt lat="42.88253" lon="-0.19487">
        <ele>1877.4</ele>
        <time>2026-07-15T07:45:53Z</time>
      </trkpt>
      <trkpt lat="42.88253" lon="-0.19486">
        <ele>1876.4</ele>
        <time>2026-07-15T07:45:54Z</time>
      </trkpt>
      <trkpt lat="42.88253" lon="-0.19486">
        <ele>1876.4</ele>
        <time>2026-07-15T07:45:55Z</time>
      </trkpt>
      <trkpt lat="42.88254" lon="-0.19485">
        <ele>1875.4</ele>
        <time>2026-07-15T07:45:55Z</time>
      </trkpt>
      <trkpt lat="42.88254" lon="-0.19485">
        <ele>1876.4</ele>
        <time>2026-07-15T07:45:56Z</time>
      </trkpt>
      <trkpt lat="42.88255" lon="-0.19484">
        <ele>1876.4</ele>
        <time>2026-07-15T07:45:57Z</time>
      </trkpt>
      <trkpt lat="42.88255" lon="-0.19484">
        <ele>1876.4</ele>
        <time>2026-07-15T07:45:58Z</time>
      </trkpt>
      <trkpt lat="42.88255" lon="-0.19483">
        <ele>1876.4</ele>
        <time>2026-07-15T07:45:59Z</time>
      </trkpt>
      <trkpt lat="42.88255" lon="-0.19483">
        <ele>1876.4</ele>
        <time>2026-07-15T07:46:00Z</time>
      </trkpt>
      <trkpt lat="42.88255" lon="-0.19482">
        <ele>1876.4</ele>
        <time>2026-07-15T07:46:00Z</time>
      </trkpt>
      <trkpt lat="42.88256" lon="-0.19482">
        <ele>1876.4</ele>
        <time>2026-07-15T07:46:01Z</time>
      </trkpt>
      <trkpt lat="42.88256" lon="-0.19482">
        <ele>1876.4</ele>
        <time>2026-07-15T07:46:02Z</time>
      </trkpt>
      <trkpt lat="42.88256" lon="-0.19481">
        <ele>1877.4</ele>
        <time>2026-07-15T07:46:03Z</time>
      </trkpt>
      <trkpt lat="42.88256" lon="-0.19481">
        <ele>1878.4</ele>
        <time>2026-07-15T07:46:03Z</time>
      </trkpt>
      <trkpt lat="42.88256" lon="-0.1948">
        <ele>1878.4</ele>
        <time>2026-07-15T07:46:04Z</time>
      </trkpt>
      <trkpt lat="42.88256" lon="-0.1948">
        <ele>1878.4</ele>
        <time>2026-07-15T07:46:05Z</time>
      </trkpt>
      <trkpt lat="42.88257" lon="-0.19479">
        <ele>1878.4</ele>
        <time>2026-07-15T07:46:06Z</time>
      </trkpt>
      <trkpt lat="42.88257" lon="-0.19479">
        <ele>1878.4</ele>
        <time>2026-07-15T07:46:07Z</time>
      </trkpt>
      <trkpt lat="42.88257" lon="-0.19478">
        <ele>1878.4</ele>
        <time>2026-07-15T07:46:07Z</time>
      </trkpt>
      <trkpt lat="42.88258" lon="-0.19478">
        <ele>1878.4</ele>
        <time>2026-07-15T07:46:08Z</time>
      </trkpt>
      <trkpt lat="42.88258" lon="-0.19477">
        <ele>1878.4</ele>
        <time>2026-07-15T07:46:09Z</time>
      </trkpt>
      <trkpt lat="42.88258" lon="-0.19476">
        <ele>1878.4</ele>
        <time>2026-07-15T07:46:10Z</time>
      </trkpt>
      <trkpt lat="42.88258" lon="-0.19476">
        <ele>1878.4</ele>
        <time>2026-07-15T07:46:11Z</time>
      </trkpt>
      <trkpt lat="42.88259" lon="-0.19476">
        <ele>1877.4</ele>
        <time>2026-07-15T07:46:11Z</time>
      </trkpt>
      <trkpt lat="42.88259" lon="-0.19475">
        <ele>1877.4</ele>
        <time>2026-07-15T07:46:12Z</time>
      </trkpt>
      <trkpt lat="42.88259" lon="-0.19474">
        <ele>1878.4</ele>
        <time>2026-07-15T07:46:13Z</time>
      </trkpt>
      <trkpt lat="42.8826" lon="-0.19473">
        <ele>1877.4</ele>
        <time>2026-07-15T07:46:13Z</time>
      </trkpt>
      <trkpt lat="42.8826" lon="-0.19473">
        <ele>1877.4</ele>
        <time>2026-07-15T07:46:14Z</time>
      </trkpt>
      <trkpt lat="42.8826" lon="-0.19472">
        <ele>1877.4</ele>
        <time>2026-07-15T07:46:15Z</time>
      </trkpt>
      <trkpt lat="42.8826" lon="-0.19471">
        <ele>1877.4</ele>
        <time>2026-07-15T07:46:15Z</time>
      </trkpt>
      <trkpt lat="42.88259" lon="-0.1947">
        <ele>1878.4</ele>
        <time>2026-07-15T07:46:16Z</time>
      </trkpt>
      <trkpt lat="42.88259" lon="-0.19469">
        <ele>1878.4</ele>
        <time>2026-07-15T07:46:17Z</time>
      </trkpt>
      <trkpt lat="42.88259" lon="-0.19469">
        <ele>1877.4</ele>
        <time>2026-07-15T07:46:18Z</time>
      </trkpt>
      <trkpt lat="42.8826" lon="-0.19468">
        <ele>1877.4</ele>
        <time>2026-07-15T07:46:18Z</time>
      </trkpt>
      <trkpt lat="42.8826" lon="-0.19467">
        <ele>1878.4</ele>
        <time>2026-07-15T07:46:19Z</time>
      </trkpt>
      <trkpt lat="42.8826" lon="-0.19466">
        <ele>1878.4</ele>
        <time>2026-07-15T07:46:20Z</time>
      </trkpt>
      <trkpt lat="42.8826" lon="-0.19466">
        <ele>1879.4</ele>
        <time>2026-07-15T07:46:20Z</time>
      </trkpt>
      <trkpt lat="42.8826" lon="-0.19465">
        <ele>1879.4</ele>
        <time>2026-07-15T07:46:21Z</time>
      </trkpt>
      <trkpt lat="42.8826" lon="-0.19464">
        <ele>1879.4</ele>
        <time>2026-07-15T07:46:22Z</time>
      </trkpt>
      <trkpt lat="42.8826" lon="-0.19463">
        <ele>1879.4</ele>
        <time>2026-07-15T07:46:22Z</time>
      </trkpt>
      <trkpt lat="42.88261" lon="-0.19463">
        <ele>1879.4</ele>
        <time>2026-07-15T07:46:23Z</time>
      </trkpt>
      <trkpt lat="42.88261" lon="-0.19462">
        <ele>1879.4</ele>
        <time>2026-07-15T07:46:24Z</time>
      </trkpt>
      <trkpt lat="42.88261" lon="-0.19461">
        <ele>1879.4</ele>
        <time>2026-07-15T07:46:25Z</time>
      </trkpt>
      <trkpt lat="42.88261" lon="-0.1946">
        <ele>1880.4</ele>
        <time>2026-07-15T07:46:25Z</time>
      </trkpt>
      <trkpt lat="42.8826" lon="-0.19459">
        <ele>1880.4</ele>
        <time>2026-07-15T07:46:26Z</time>
      </trkpt>
      <trkpt lat="42.8826" lon="-0.19459">
        <ele>1879.4</ele>
        <time>2026-07-15T07:46:26Z</time>
      </trkpt>
      <trkpt lat="42.8826" lon="-0.19458">
        <ele>1879.4</ele>
        <time>2026-07-15T07:46:27Z</time>
      </trkpt>
      <trkpt lat="42.8826" lon="-0.19457">
        <ele>1880.4</ele>
        <time>2026-07-15T07:46:28Z</time>
      </trkpt>
      <trkpt lat="42.8826" lon="-0.19456">
        <ele>1879.4</ele>
        <time>2026-07-15T07:46:28Z</time>
      </trkpt>
      <trkpt lat="42.8826" lon="-0.19455">
        <ele>1879.4</ele>
        <time>2026-07-15T07:46:29Z</time>
      </trkpt>
      <trkpt lat="42.88259" lon="-0.19454">
        <ele>1879.4</ele>
        <time>2026-07-15T07:46:29Z</time>
      </trkpt>
      <trkpt lat="42.88259" lon="-0.19453">
        <ele>1879.4</ele>
        <time>2026-07-15T07:46:30Z</time>
      </trkpt>
      <trkpt lat="42.88259" lon="-0.19452">
        <ele>1879.4</ele>
        <time>2026-07-15T07:46:31Z</time>
      </trkpt>
      <trkpt lat="42.88259" lon="-0.19452">
        <ele>1879.4</ele>
        <time>2026-07-15T07:46:31Z</time>
      </trkpt>
      <trkpt lat="42.88259" lon="-0.19451">
        <ele>1879.4</ele>
        <time>2026-07-15T07:46:32Z</time>
      </trkpt>
      <trkpt lat="42.88259" lon="-0.1945">
        <ele>1879.4</ele>
        <time>2026-07-15T07:46:33Z</time>
      </trkpt>
      <trkpt lat="42.88258" lon="-0.19449">
        <ele>1879.4</ele>
        <time>2026-07-15T07:46:34Z</time>
      </trkpt>
      <trkpt lat="42.88258" lon="-0.19448">
        <ele>1880.4</ele>
        <time>2026-07-15T07:46:35Z</time>
      </trkpt>
      <trkpt lat="42.88258" lon="-0.19447">
        <ele>1880.4</ele>
        <time>2026-07-15T07:46:36Z</time>
      </trkpt>
      <trkpt lat="42.88258" lon="-0.19446">
        <ele>1880.4</ele>
        <time>2026-07-15T07:46:37Z</time>
      </trkpt>
      <trkpt lat="42.88257" lon="-0.19445">
        <ele>1880.4</ele>
        <time>2026-07-15T07:46:37Z</time>
      </trkpt>
      <trkpt lat="42.88257" lon="-0.19444">
        <ele>1880.4</ele>
        <time>2026-07-15T07:46:38Z</time>
      </trkpt>
      <trkpt lat="42.88257" lon="-0.19444">
        <ele>1880.4</ele>
        <time>2026-07-15T07:46:39Z</time>
      </trkpt>
      <trkpt lat="42.88257" lon="-0.19444">
        <ele>1880.4</ele>
        <time>2026-07-15T07:46:39Z</time>
      </trkpt>
      <trkpt lat="42.88257" lon="-0.19443">
        <ele>1880.4</ele>
        <time>2026-07-15T07:46:40Z</time>
      </trkpt>
      <trkpt lat="42.88256" lon="-0.19442">
        <ele>1880.4</ele>
        <time>2026-07-15T07:46:40Z</time>
      </trkpt>
      <trkpt lat="42.88256" lon="-0.19442">
        <ele>1880.4</ele>
        <time>2026-07-15T07:46:41Z</time>
      </trkpt>
      <trkpt lat="42.88256" lon="-0.19441">
        <ele>1880.4</ele>
        <time>2026-07-15T07:46:42Z</time>
      </trkpt>
      <trkpt lat="42.88256" lon="-0.1944">
        <ele>1879.4</ele>
        <time>2026-07-15T07:46:43Z</time>
      </trkpt>
      <trkpt lat="42.88257" lon="-0.19439">
        <ele>1880.4</ele>
        <time>2026-07-15T07:46:43Z</time>
      </trkpt>
      <trkpt lat="42.88256" lon="-0.19439">
        <ele>1880.4</ele>
        <time>2026-07-15T07:46:44Z</time>
      </trkpt>
      <trkpt lat="42.88257" lon="-0.19438">
        <ele>1880.4</ele>
        <time>2026-07-15T07:46:45Z</time>
      </trkpt>
      <trkpt lat="42.88257" lon="-0.19437">
        <ele>1880.4</ele>
        <time>2026-07-15T07:46:45Z</time>
      </trkpt>
      <trkpt lat="42.88257" lon="-0.19436">
        <ele>1880.4</ele>
        <time>2026-07-15T07:46:46Z</time>
      </trkpt>
      <trkpt lat="42.88257" lon="-0.19435">
        <ele>1880.4</ele>
        <time>2026-07-15T07:46:47Z</time>
      </trkpt>
      <trkpt lat="42.88257" lon="-0.19434">
        <ele>1880.4</ele>
        <time>2026-07-15T07:46:48Z</time>
      </trkpt>
      <trkpt lat="42.88258" lon="-0.19433">
        <ele>1880.4</ele>
        <time>2026-07-15T07:46:48Z</time>
      </trkpt>
      <trkpt lat="42.88258" lon="-0.19433">
        <ele>1880.4</ele>
        <time>2026-07-15T07:46:49Z</time>
      </trkpt>
      <trkpt lat="42.88259" lon="-0.19432">
        <ele>1880.4</ele>
        <time>2026-07-15T07:46:50Z</time>
      </trkpt>
      <trkpt lat="42.88259" lon="-0.19431">
        <ele>1881.4</ele>
        <time>2026-07-15T07:46:51Z</time>
      </trkpt>
      <trkpt lat="42.88259" lon="-0.19431">
        <ele>1881.4</ele>
        <time>2026-07-15T07:46:51Z</time>
      </trkpt>
      <trkpt lat="42.8826" lon="-0.1943">
        <ele>1881.4</ele>
        <time>2026-07-15T07:46:52Z</time>
      </trkpt>
      <trkpt lat="42.8826" lon="-0.1943">
        <ele>1881.4</ele>
        <time>2026-07-15T07:46:53Z</time>
      </trkpt>
      <trkpt lat="42.88261" lon="-0.19429">
        <ele>1881.4</ele>
        <time>2026-07-15T07:46:53Z</time>
      </trkpt>
      <trkpt lat="42.88261" lon="-0.19429">
        <ele>1881.4</ele>
        <time>2026-07-15T07:46:54Z</time>
      </trkpt>
      <trkpt lat="42.88261" lon="-0.19428">
        <ele>1881.4</ele>
        <time>2026-07-15T07:46:55Z</time>
      </trkpt>
      <trkpt lat="42.88262" lon="-0.19427">
        <ele>1881.4</ele>
        <time>2026-07-15T07:46:56Z</time>
      </trkpt>
      <trkpt lat="42.88262" lon="-0.19427">
        <ele>1881.4</ele>
        <time>2026-07-15T07:46:57Z</time>
      </trkpt>
      <trkpt lat="42.88261" lon="-0.19426">
        <ele>1881.4</ele>
        <time>2026-07-15T07:46:57Z</time>
      </trkpt>
      <trkpt lat="42.88261" lon="-0.19426">
        <ele>1881.4</ele>
        <time>2026-07-15T07:46:58Z</time>
      </trkpt>
      <trkpt lat="42.8826" lon="-0.19426">
        <ele>1882.4</ele>
        <time>2026-07-15T07:46:59Z</time>
      </trkpt>
      <trkpt lat="42.8826" lon="-0.19426">
        <ele>1882.4</ele>
        <time>2026-07-15T07:46:59Z</time>
      </trkpt>
      <trkpt lat="42.88259" lon="-0.19426">
        <ele>1882.4</ele>
        <time>2026-07-15T07:47:00Z</time>
      </trkpt>
      <trkpt lat="42.88259" lon="-0.19425">
        <ele>1882.4</ele>
        <time>2026-07-15T07:47:01Z</time>
      </trkpt>
      <trkpt lat="42.88258" lon="-0.19425">
        <ele>1882.4</ele>
        <time>2026-07-15T07:47:02Z</time>
      </trkpt>
      <trkpt lat="42.88258" lon="-0.19425">
        <ele>1882.4</ele>
        <time>2026-07-15T07:47:02Z</time>
      </trkpt>
      <trkpt lat="42.88259" lon="-0.19424">
        <ele>1882.4</ele>
        <time>2026-07-15T07:47:03Z</time>
      </trkpt>
      <trkpt lat="42.88259" lon="-0.19424">
        <ele>1882.4</ele>
        <time>2026-07-15T07:47:04Z</time>
      </trkpt>
      <trkpt lat="42.8826" lon="-0.19424">
        <ele>1882.4</ele>
        <time>2026-07-15T07:47:05Z</time>
      </trkpt>
      <trkpt lat="42.8826" lon="-0.19424">
        <ele>1883.4</ele>
        <time>2026-07-15T07:47:05Z</time>
      </trkpt>
      <trkpt lat="42.88261" lon="-0.19424">
        <ele>1883.4</ele>
        <time>2026-07-15T07:47:06Z</time>
      </trkpt>
      <trkpt lat="42.88261" lon="-0.19424">
        <ele>1883.4</ele>
        <time>2026-07-15T07:47:07Z</time>
      </trkpt>
      <trkpt lat="42.88262" lon="-0.19424">
        <ele>1883.4</ele>
        <time>2026-07-15T07:47:07Z</time>
      </trkpt>
      <trkpt lat="42.88262" lon="-0.19424">
        <ele>1883.4</ele>
        <time>2026-07-15T07:47:08Z</time>
      </trkpt>
      <trkpt lat="42.88263" lon="-0.19424">
        <ele>1883.4</ele>
        <time>2026-07-15T07:47:09Z</time>
      </trkpt>
      <trkpt lat="42.88264" lon="-0.19424">
        <ele>1883.4</ele>
        <time>2026-07-15T07:47:10Z</time>
      </trkpt>
      <trkpt lat="42.88264" lon="-0.19424">
        <ele>1883.4</ele>
        <time>2026-07-15T07:47:10Z</time>
      </trkpt>
      <trkpt lat="42.88265" lon="-0.19423">
        <ele>1883.4</ele>
        <time>2026-07-15T07:47:11Z</time>
      </trkpt>
      <trkpt lat="42.88266" lon="-0.19423">
        <ele>1883.4</ele>
        <time>2026-07-15T07:47:11Z</time>
      </trkpt>
      <trkpt lat="42.88266" lon="-0.19423">
        <ele>1883.4</ele>
        <time>2026-07-15T07:47:12Z</time>
      </trkpt>
      <trkpt lat="42.88267" lon="-0.19423">
        <ele>1883.4</ele>
        <time>2026-07-15T07:47:13Z</time>
      </trkpt>
      <trkpt lat="42.88268" lon="-0.19423">
        <ele>1883.4</ele>
        <time>2026-07-15T07:47:13Z</time>
      </trkpt>
      <trkpt lat="42.88268" lon="-0.19423">
        <ele>1883.4</ele>
        <time>2026-07-15T07:47:14Z</time>
      </trkpt>
      <trkpt lat="42.88269" lon="-0.19423">
        <ele>1883.4</ele>
        <time>2026-07-15T07:47:15Z</time>
      </trkpt>
      <trkpt lat="42.88269" lon="-0.19422">
        <ele>1882.4</ele>
        <time>2026-07-15T07:47:16Z</time>
      </trkpt>
      <trkpt lat="42.8827" lon="-0.19422">
        <ele>1883.4</ele>
        <time>2026-07-15T07:47:17Z</time>
      </trkpt>
      <trkpt lat="42.8827" lon="-0.19422">
        <ele>1882.4</ele>
        <time>2026-07-15T07:47:17Z</time>
      </trkpt>
      <trkpt lat="42.8827" lon="-0.19421">
        <ele>1882.4</ele>
        <time>2026-07-15T07:47:18Z</time>
      </trkpt>
      <trkpt lat="42.8827" lon="-0.1942">
        <ele>1883.4</ele>
        <time>2026-07-15T07:47:19Z</time>
      </trkpt>
      <trkpt lat="42.8827" lon="-0.19419">
        <ele>1882.4</ele>
        <time>2026-07-15T07:47:20Z</time>
      </trkpt>
      <trkpt lat="42.88271" lon="-0.19418">
        <ele>1882.4</ele>
        <time>2026-07-15T07:47:20Z</time>
      </trkpt>
      <trkpt lat="42.88271" lon="-0.19418">
        <ele>1883.4</ele>
        <time>2026-07-15T07:47:21Z</time>
      </trkpt>
      <trkpt lat="42.88271" lon="-0.19418">
        <ele>1883.4</ele>
        <time>2026-07-15T07:47:22Z</time>
      </trkpt>
      <trkpt lat="42.88271" lon="-0.19418">
        <ele>1882.4</ele>
        <time>2026-07-15T07:47:22Z</time>
      </trkpt>
      <trkpt lat="42.88272" lon="-0.19418">
        <ele>1882.4</ele>
        <time>2026-07-15T07:47:23Z</time>
      </trkpt>
      <trkpt lat="42.88272" lon="-0.19418">
        <ele>1882.4</ele>
        <time>2026-07-15T07:47:24Z</time>
      </trkpt>
      <trkpt lat="42.88272" lon="-0.19418">
        <ele>1882.4</ele>
        <time>2026-07-15T07:47:24Z</time>
      </trkpt>
      <trkpt lat="42.88273" lon="-0.19418">
        <ele>1883.4</ele>
        <time>2026-07-15T07:47:25Z</time>
      </trkpt>
      <trkpt lat="42.88273" lon="-0.19418">
        <ele>1884.4</ele>
        <time>2026-07-15T07:47:26Z</time>
      </trkpt>
      <trkpt lat="42.88273" lon="-0.19418">
        <ele>1884.4</ele>
        <time>2026-07-15T07:47:27Z</time>
      </trkpt>
      <trkpt lat="42.88273" lon="-0.19418">
        <ele>1884.4</ele>
        <time>2026-07-15T07:47:27Z</time>
      </trkpt>
      <trkpt lat="42.88273" lon="-0.19418">
        <ele>1884.4</ele>
        <time>2026-07-15T07:47:28Z</time>
      </trkpt>
      <trkpt lat="42.88273" lon="-0.19417">
        <ele>1885.4</ele>
        <time>2026-07-15T07:47:29Z</time>
      </trkpt>
      <trkpt lat="42.88273" lon="-0.19417">
        <ele>1885.4</ele>
        <time>2026-07-15T07:47:30Z</time>
      </trkpt>
      <trkpt lat="42.88273" lon="-0.19416">
        <ele>1885.4</ele>
        <time>2026-07-15T07:47:30Z</time>
      </trkpt>
      <trkpt lat="42.88273" lon="-0.19415">
        <ele>1885.4</ele>
        <time>2026-07-15T07:47:31Z</time>
      </trkpt>
      <trkpt lat="42.88273" lon="-0.19414">
        <ele>1885.4</ele>
        <time>2026-07-15T07:47:32Z</time>
      </trkpt>
      <trkpt lat="42.88273" lon="-0.19413">
        <ele>1884.4</ele>
        <time>2026-07-15T07:47:33Z</time>
      </trkpt>
      <trkpt lat="42.88273" lon="-0.19412">
        <ele>1884.4</ele>
        <time>2026-07-15T07:47:33Z</time>
      </trkpt>
      <trkpt lat="42.88273" lon="-0.19411">
        <ele>1884.4</ele>
        <time>2026-07-15T07:47:34Z</time>
      </trkpt>
      <trkpt lat="42.88273" lon="-0.1941">
        <ele>1884.4</ele>
        <time>2026-07-15T07:47:35Z</time>
      </trkpt>
      <trkpt lat="42.88273" lon="-0.19409">
        <ele>1883.4</ele>
        <time>2026-07-15T07:47:35Z</time>
      </trkpt>
      <trkpt lat="42.88273" lon="-0.19408">
        <ele>1883.4</ele>
        <time>2026-07-15T07:47:36Z</time>
      </trkpt>
      <trkpt lat="42.88273" lon="-0.19407">
        <ele>1883.4</ele>
        <time>2026-07-15T07:47:37Z</time>
      </trkpt>
      <trkpt lat="42.88273" lon="-0.19406">
        <ele>1884.4</ele>
        <time>2026-07-15T07:47:37Z</time>
      </trkpt>
      <trkpt lat="42.88273" lon="-0.19406">
        <ele>1884.4</ele>
        <time>2026-07-15T07:47:38Z</time>
      </trkpt>
      <trkpt lat="42.88272" lon="-0.19405">
        <ele>1884.4</ele>
        <time>2026-07-15T07:47:39Z</time>
      </trkpt>
      <trkpt lat="42.88272" lon="-0.19404">
        <ele>1884.4</ele>
        <time>2026-07-15T07:47:40Z</time>
      </trkpt>
      <trkpt lat="42.88272" lon="-0.19403">
        <ele>1885.4</ele>
        <time>2026-07-15T07:47:41Z</time>
      </trkpt>
      <trkpt lat="42.88272" lon="-0.19403">
        <ele>1885.4</ele>
        <time>2026-07-15T07:47:41Z</time>
      </trkpt>
      <trkpt lat="42.88272" lon="-0.19402">
        <ele>1885.4</ele>
        <time>2026-07-15T07:47:42Z</time>
      </trkpt>
      <trkpt lat="42.88272" lon="-0.19401">
        <ele>1885.4</ele>
        <time>2026-07-15T07:47:43Z</time>
      </trkpt>
      <trkpt lat="42.88272" lon="-0.19401">
        <ele>1885.4</ele>
        <time>2026-07-15T07:47:44Z</time>
      </trkpt>
      <trkpt lat="42.88272" lon="-0.194">
        <ele>1885.4</ele>
        <time>2026-07-15T07:47:45Z</time>
      </trkpt>
      <trkpt lat="42.88271" lon="-0.194">
        <ele>1885.4</ele>
        <time>2026-07-15T07:47:46Z</time>
      </trkpt>
      <trkpt lat="42.88271" lon="-0.194">
        <ele>1886.4</ele>
        <time>2026-07-15T07:47:46Z</time>
      </trkpt>
      <trkpt lat="42.88271" lon="-0.194">
        <ele>1886.4</ele>
        <time>2026-07-15T07:47:47Z</time>
      </trkpt>
      <trkpt lat="42.88271" lon="-0.19399">
        <ele>1886.4</ele>
        <time>2026-07-15T07:47:48Z</time>
      </trkpt>
      <trkpt lat="42.88271" lon="-0.19399">
        <ele>1886.4</ele>
        <time>2026-07-15T07:47:49Z</time>
      </trkpt>
      <trkpt lat="42.88271" lon="-0.19398">
        <ele>1886.4</ele>
        <time>2026-07-15T07:47:50Z</time>
      </trkpt>
      <trkpt lat="42.88271" lon="-0.19398">
        <ele>1887.4</ele>
        <time>2026-07-15T07:47:51Z</time>
      </trkpt>
      <trkpt lat="42.88271" lon="-0.19397">
        <ele>1887.4</ele>
        <time>2026-07-15T07:47:51Z</time>
      </trkpt>
      <trkpt lat="42.88271" lon="-0.19397">
        <ele>1887.4</ele>
        <time>2026-07-15T07:47:52Z</time>
      </trkpt>
      <trkpt lat="42.88271" lon="-0.19396">
        <ele>1887.4</ele>
        <time>2026-07-15T07:47:52Z</time>
      </trkpt>
      <trkpt lat="42.88271" lon="-0.19395">
        <ele>1887.4</ele>
        <time>2026-07-15T07:47:53Z</time>
      </trkpt>
      <trkpt lat="42.88271" lon="-0.19394">
        <ele>1887.4</ele>
        <time>2026-07-15T07:47:54Z</time>
      </trkpt>
      <trkpt lat="42.88271" lon="-0.19394">
        <ele>1887.4</ele>
        <time>2026-07-15T07:47:55Z</time>
      </trkpt>
      <trkpt lat="42.8827" lon="-0.19393">
        <ele>1887.4</ele>
        <time>2026-07-15T07:47:56Z</time>
      </trkpt>
      <trkpt lat="42.8827" lon="-0.19393">
        <ele>1887.4</ele>
        <time>2026-07-15T07:47:56Z</time>
      </trkpt>
      <trkpt lat="42.8827" lon="-0.19392">
        <ele>1887.4</ele>
        <time>2026-07-15T07:47:57Z</time>
      </trkpt>
      <trkpt lat="42.8827" lon="-0.19391">
        <ele>1886.4</ele>
        <time>2026-07-15T07:47:58Z</time>
      </trkpt>
      <trkpt lat="42.8827" lon="-0.19391">
        <ele>1886.4</ele>
        <time>2026-07-15T07:47:59Z</time>
      </trkpt>
      <trkpt lat="42.88269" lon="-0.1939">
        <ele>1886.4</ele>
        <time>2026-07-15T07:48:00Z</time>
      </trkpt>
      <trkpt lat="42.88269" lon="-0.1939">
        <ele>1887.4</ele>
        <time>2026-07-15T07:48:00Z</time>
      </trkpt>
      <trkpt lat="42.8827" lon="-0.19389">
        <ele>1888.4</ele>
        <time>2026-07-15T07:48:01Z</time>
      </trkpt>
      <trkpt lat="42.88269" lon="-0.19389">
        <ele>1888.4</ele>
        <time>2026-07-15T07:48:02Z</time>
      </trkpt>
      <trkpt lat="42.88269" lon="-0.19388">
        <ele>1888.4</ele>
        <time>2026-07-15T07:48:03Z</time>
      </trkpt>
      <trkpt lat="42.8827" lon="-0.19388">
        <ele>1888.4</ele>
        <time>2026-07-15T07:48:04Z</time>
      </trkpt>
      <trkpt lat="42.8827" lon="-0.19388">
        <ele>1888.4</ele>
        <time>2026-07-15T07:48:04Z</time>
      </trkpt>
      <trkpt lat="42.8827" lon="-0.19387">
        <ele>1888.4</ele>
        <time>2026-07-15T07:48:05Z</time>
      </trkpt>
      <trkpt lat="42.8827" lon="-0.19386">
        <ele>1888.4</ele>
        <time>2026-07-15T07:48:06Z</time>
      </trkpt>
      <trkpt lat="42.8827" lon="-0.19385">
        <ele>1887.4</ele>
        <time>2026-07-15T07:48:07Z</time>
      </trkpt>
      <trkpt lat="42.8827" lon="-0.19385">
        <ele>1887.4</ele>
        <time>2026-07-15T07:48:08Z</time>
      </trkpt>
      <trkpt lat="42.88269" lon="-0.19384">
        <ele>1887.4</ele>
        <time>2026-07-15T07:48:08Z</time>
      </trkpt>
      <trkpt lat="42.88269" lon="-0.19384">
        <ele>1887.4</ele>
        <time>2026-07-15T07:48:09Z</time>
      </trkpt>
      <trkpt lat="42.88269" lon="-0.19383">
        <ele>1887.4</ele>
        <time>2026-07-15T07:48:10Z</time>
      </trkpt>
      <trkpt lat="42.88269" lon="-0.19382">
        <ele>1888.4</ele>
        <time>2026-07-15T07:48:11Z</time>
      </trkpt>
      <trkpt lat="42.88269" lon="-0.19382">
        <ele>1888.4</ele>
        <time>2026-07-15T07:48:12Z</time>
      </trkpt>
      <trkpt lat="42.88269" lon="-0.19382">
        <ele>1888.4</ele>
        <time>2026-07-15T07:48:13Z</time>
      </trkpt>
      <trkpt lat="42.88269" lon="-0.19382">
        <ele>1888.4</ele>
        <time>2026-07-15T07:48:13Z</time>
      </trkpt>
      <trkpt lat="42.88268" lon="-0.19382">
        <ele>1888.4</ele>
        <time>2026-07-15T07:48:14Z</time>
      </trkpt>
      <trkpt lat="42.88269" lon="-0.19382">
        <ele>1888.4</ele>
        <time>2026-07-15T07:48:15Z</time>
      </trkpt>
      <trkpt lat="42.88269" lon="-0.19382">
        <ele>1889.4</ele>
        <time>2026-07-15T07:48:16Z</time>
      </trkpt>
      <trkpt lat="42.88269" lon="-0.19383">
        <ele>1889.4</ele>
        <time>2026-07-15T07:48:16Z</time>
      </trkpt>
      <trkpt lat="42.88269" lon="-0.19383">
        <ele>1890.4</ele>
        <time>2026-07-15T07:48:17Z</time>
      </trkpt>
      <trkpt lat="42.88268" lon="-0.19383">
        <ele>1890.4</ele>
        <time>2026-07-15T07:48:18Z</time>
      </trkpt>
      <trkpt lat="42.88268" lon="-0.19383">
        <ele>1891.4</ele>
        <time>2026-07-15T07:48:19Z</time>
      </trkpt>
      <trkpt lat="42.88268" lon="-0.19383">
        <ele>1892.4</ele>
        <time>2026-07-15T07:48:20Z</time>
      </trkpt>
      <trkpt lat="42.88268" lon="-0.19383">
        <ele>1892.4</ele>
        <time>2026-07-15T07:48:21Z</time>
      </trkpt>
      <trkpt lat="42.88269" lon="-0.19382">
        <ele>1894.4</ele>
        <time>2026-07-15T07:48:22Z</time>
      </trkpt>
      <trkpt lat="42.88269" lon="-0.19382">
        <ele>1894.4</ele>
        <time>2026-07-15T07:48:23Z</time>
      </trkpt>
      <trkpt lat="42.88269" lon="-0.19382">
        <ele>1894.4</ele>
        <time>2026-07-15T07:48:23Z</time>
      </trkpt>
      <trkpt lat="42.88269" lon="-0.19381">
        <ele>1894.4</ele>
        <time>2026-07-15T07:48:24Z</time>
      </trkpt>
      <trkpt lat="42.88269" lon="-0.1938">
        <ele>1894.4</ele>
        <time>2026-07-15T07:48:25Z</time>
      </trkpt>
      <trkpt lat="42.88269" lon="-0.19378">
        <ele>1894.4</ele>
        <time>2026-07-15T07:48:26Z</time>
      </trkpt>
      <trkpt lat="42.88269" lon="-0.19377">
        <ele>1894.4</ele>
        <time>2026-07-15T07:48:27Z</time>
      </trkpt>
      <trkpt lat="42.8827" lon="-0.19376">
        <ele>1894.4</ele>
        <time>2026-07-15T07:48:27Z</time>
      </trkpt>
      <trkpt lat="42.8827" lon="-0.19375">
        <ele>1894.4</ele>
        <time>2026-07-15T07:48:28Z</time>
      </trkpt>
      <trkpt lat="42.8827" lon="-0.19374">
        <ele>1894.4</ele>
        <time>2026-07-15T07:48:29Z</time>
      </trkpt>
      <trkpt lat="42.8827" lon="-0.19373">
        <ele>1895.4</ele>
        <time>2026-07-15T07:48:30Z</time>
      </trkpt>
      <trkpt lat="42.88271" lon="-0.19372">
        <ele>1895.4</ele>
        <time>2026-07-15T07:48:31Z</time>
      </trkpt>
      <trkpt lat="42.88271" lon="-0.19372">
        <ele>1895.4</ele>
        <time>2026-07-15T07:48:31Z</time>
      </trkpt>
      <trkpt lat="42.88271" lon="-0.19371">
        <ele>1894.4</ele>
        <time>2026-07-15T07:48:32Z</time>
      </trkpt>
      <trkpt lat="42.88271" lon="-0.1937">
        <ele>1894.4</ele>
        <time>2026-07-15T07:48:33Z</time>
      </trkpt>
      <trkpt lat="42.88271" lon="-0.1937">
        <ele>1894.4</ele>
        <time>2026-07-15T07:48:33Z</time>
      </trkpt>
      <trkpt lat="42.88272" lon="-0.19369">
        <ele>1894.4</ele>
        <time>2026-07-15T07:48:34Z</time>
      </trkpt>
      <trkpt lat="42.88272" lon="-0.19368">
        <ele>1894.4</ele>
        <time>2026-07-15T07:48:35Z</time>
      </trkpt>
      <trkpt lat="42.88272" lon="-0.19367">
        <ele>1894.4</ele>
        <time>2026-07-15T07:48:36Z</time>
      </trkpt>
      <trkpt lat="42.88273" lon="-0.19366">
        <ele>1894.4</ele>
        <time>2026-07-15T07:48:36Z</time>
      </trkpt>
      <trkpt lat="42.88273" lon="-0.19366">
        <ele>1894.4</ele>
        <time>2026-07-15T07:48:37Z</time>
      </trkpt>
      <trkpt lat="42.88273" lon="-0.19365">
        <ele>1894.4</ele>
        <time>2026-07-15T07:48:38Z</time>
      </trkpt>
      <trkpt lat="42.88273" lon="-0.19364">
        <ele>1894.4</ele>
        <time>2026-07-15T07:48:39Z</time>
      </trkpt>
      <trkpt lat="42.88273" lon="-0.19363">
        <ele>1894.4</ele>
        <time>2026-07-15T07:48:40Z</time>
      </trkpt>
      <trkpt lat="42.88273" lon="-0.19363">
        <ele>1894.4</ele>
        <time>2026-07-15T07:48:40Z</time>
      </trkpt>
      <trkpt lat="42.88273" lon="-0.19362">
        <ele>1895.4</ele>
        <time>2026-07-15T07:48:41Z</time>
      </trkpt>
      <trkpt lat="42.88273" lon="-0.19361">
        <ele>1896.4</ele>
        <time>2026-07-15T07:48:42Z</time>
      </trkpt>
      <trkpt lat="42.88274" lon="-0.1936">
        <ele>1896.4</ele>
        <time>2026-07-15T07:48:43Z</time>
      </trkpt>
      <trkpt lat="42.88274" lon="-0.19359">
        <ele>1896.4</ele>
        <time>2026-07-15T07:48:44Z</time>
      </trkpt>
      <trkpt lat="42.88274" lon="-0.19359">
        <ele>1896.4</ele>
        <time>2026-07-15T07:48:45Z</time>
      </trkpt>
      <trkpt lat="42.88275" lon="-0.19358">
        <ele>1896.4</ele>
        <time>2026-07-15T07:48:46Z</time>
      </trkpt>
      <trkpt lat="42.88275" lon="-0.19358">
        <ele>1896.4</ele>
        <time>2026-07-15T07:48:47Z</time>
      </trkpt>
      <trkpt lat="42.88275" lon="-0.19358">
        <ele>1896.4</ele>
        <time>2026-07-15T07:48:47Z</time>
      </trkpt>
      <trkpt lat="42.88276" lon="-0.19358">
        <ele>1895.4</ele>
        <time>2026-07-15T07:48:48Z</time>
      </trkpt>
      <trkpt lat="42.88277" lon="-0.19358">
        <ele>1895.4</ele>
        <time>2026-07-15T07:48:49Z</time>
      </trkpt>
      <trkpt lat="42.88277" lon="-0.19358">
        <ele>1895.4</ele>
        <time>2026-07-15T07:48:50Z</time>
      </trkpt>
      <trkpt lat="42.88278" lon="-0.19357">
        <ele>1896.4</ele>
        <time>2026-07-15T07:48:50Z</time>
      </trkpt>
      <trkpt lat="42.88278" lon="-0.19357">
        <ele>1896.4</ele>
        <time>2026-07-15T07:48:51Z</time>
      </trkpt>
      <trkpt lat="42.88278" lon="-0.19357">
        <ele>1895.4</ele>
        <time>2026-07-15T07:48:52Z</time>
      </trkpt>
      <trkpt lat="42.88279" lon="-0.19356">
        <ele>1895.4</ele>
        <time>2026-07-15T07:48:53Z</time>
      </trkpt>
      <trkpt lat="42.88279" lon="-0.19355">
        <ele>1895.4</ele>
        <time>2026-07-15T07:48:54Z</time>
      </trkpt>
      <trkpt lat="42.8828" lon="-0.19355">
        <ele>1896.4</ele>
        <time>2026-07-15T07:48:55Z</time>
      </trkpt>
      <trkpt lat="42.8828" lon="-0.19355">
        <ele>1896.4</ele>
        <time>2026-07-15T07:48:55Z</time>
      </trkpt>
      <trkpt lat="42.88281" lon="-0.19354">
        <ele>1898.4</ele>
        <time>2026-07-15T07:48:56Z</time>
      </trkpt>
      <trkpt lat="42.88281" lon="-0.19354">
        <ele>1897.4</ele>
        <time>2026-07-15T07:48:57Z</time>
      </trkpt>
      <trkpt lat="42.88282" lon="-0.19354">
        <ele>1897.4</ele>
        <time>2026-07-15T07:48:58Z</time>
      </trkpt>
      <trkpt lat="42.88282" lon="-0.19354">
        <ele>1897.4</ele>
        <time>2026-07-15T07:48:59Z</time>
      </trkpt>
      <trkpt lat="42.88283" lon="-0.19353">
        <ele>1898.4</ele>
        <time>2026-07-15T07:49:00Z</time>
      </trkpt>
      <trkpt lat="42.88283" lon="-0.19353">
        <ele>1897.4</ele>
        <time>2026-07-15T07:49:01Z</time>
      </trkpt>
      <trkpt lat="42.88284" lon="-0.19353">
        <ele>1897.4</ele>
        <time>2026-07-15T07:49:01Z</time>
      </trkpt>
      <trkpt lat="42.88284" lon="-0.19352">
        <ele>1897.4</ele>
        <time>2026-07-15T07:49:02Z</time>
      </trkpt>
      <trkpt lat="42.88285" lon="-0.19352">
        <ele>1898.4</ele>
        <time>2026-07-15T07:49:03Z</time>
      </trkpt>
      <trkpt lat="42.88285" lon="-0.19352">
        <ele>1898.4</ele>
        <time>2026-07-15T07:49:04Z</time>
      </trkpt>
      <trkpt lat="42.88286" lon="-0.19352">
        <ele>1898.4</ele>
        <time>2026-07-15T07:49:04Z</time>
      </trkpt>
      <trkpt lat="42.88286" lon="-0.19351">
        <ele>1899.4</ele>
        <time>2026-07-15T07:49:05Z</time>
      </trkpt>
      <trkpt lat="42.88287" lon="-0.19351">
        <ele>1899.4</ele>
        <time>2026-07-15T07:49:06Z</time>
      </trkpt>
      <trkpt lat="42.88287" lon="-0.1935">
        <ele>1900.4</ele>
        <time>2026-07-15T07:49:07Z</time>
      </trkpt>
      <trkpt lat="42.88288" lon="-0.1935">
        <ele>1900.4</ele>
        <time>2026-07-15T07:49:08Z</time>
      </trkpt>
      <trkpt lat="42.88288" lon="-0.19349">
        <ele>1899.4</ele>
        <time>2026-07-15T07:49:09Z</time>
      </trkpt>
      <trkpt lat="42.88288" lon="-0.19349">
        <ele>1900.4</ele>
        <time>2026-07-15T07:49:09Z</time>
      </trkpt>
      <trkpt lat="42.88289" lon="-0.19349">
        <ele>1900.4</ele>
        <time>2026-07-15T07:49:10Z</time>
      </trkpt>
      <trkpt lat="42.88289" lon="-0.19348">
        <ele>1901.4</ele>
        <time>2026-07-15T07:49:11Z</time>
      </trkpt>
      <trkpt lat="42.8829" lon="-0.19348">
        <ele>1901.4</ele>
        <time>2026-07-15T07:49:12Z</time>
      </trkpt>
      <trkpt lat="42.8829" lon="-0.19347">
        <ele>1901.4</ele>
        <time>2026-07-15T07:49:13Z</time>
      </trkpt>
      <trkpt lat="42.88291" lon="-0.19347">
        <ele>1901.4</ele>
        <time>2026-07-15T07:49:14Z</time>
      </trkpt>
      <trkpt lat="42.88291" lon="-0.19347">
        <ele>1900.4</ele>
        <time>2026-07-15T07:49:14Z</time>
      </trkpt>
      <trkpt lat="42.88291" lon="-0.19346">
        <ele>1900.4</ele>
        <time>2026-07-15T07:49:15Z</time>
      </trkpt>
      <trkpt lat="42.88292" lon="-0.19346">
        <ele>1900.4</ele>
        <time>2026-07-15T07:49:16Z</time>
      </trkpt>
      <trkpt lat="42.88293" lon="-0.19345">
        <ele>1900.4</ele>
        <time>2026-07-15T07:49:17Z</time>
      </trkpt>
      <trkpt lat="42.88293" lon="-0.19345">
        <ele>1900.4</ele>
        <time>2026-07-15T07:49:18Z</time>
      </trkpt>
      <trkpt lat="42.88293" lon="-0.19344">
        <ele>1900.4</ele>
        <time>2026-07-15T07:49:18Z</time>
      </trkpt>
      <trkpt lat="42.88294" lon="-0.19344">
        <ele>1901.4</ele>
        <time>2026-07-15T07:49:19Z</time>
      </trkpt>
      <trkpt lat="42.88294" lon="-0.19343">
        <ele>1901.4</ele>
        <time>2026-07-15T07:49:20Z</time>
      </trkpt>
      <trkpt lat="42.88295" lon="-0.19343">
        <ele>1901.4</ele>
        <time>2026-07-15T07:49:21Z</time>
      </trkpt>
      <trkpt lat="42.88295" lon="-0.19343">
        <ele>1901.4</ele>
        <time>2026-07-15T07:49:21Z</time>
      </trkpt>
      <trkpt lat="42.88295" lon="-0.19342">
        <ele>1901.4</ele>
        <time>2026-07-15T07:49:22Z</time>
      </trkpt>
      <trkpt lat="42.88296" lon="-0.19342">
        <ele>1901.4</ele>
        <time>2026-07-15T07:49:23Z</time>
      </trkpt>
      <trkpt lat="42.88296" lon="-0.19341">
        <ele>1901.4</ele>
        <time>2026-07-15T07:49:24Z</time>
      </trkpt>
      <trkpt lat="42.88296" lon="-0.19341">
        <ele>1901.4</ele>
        <time>2026-07-15T07:49:25Z</time>
      </trkpt>
      <trkpt lat="42.88297" lon="-0.1934">
        <ele>1901.4</ele>
        <time>2026-07-15T07:49:26Z</time>
      </trkpt>
      <trkpt lat="42.88297" lon="-0.1934">
        <ele>1901.4</ele>
        <time>2026-07-15T07:49:27Z</time>
      </trkpt>
      <trkpt lat="42.88298" lon="-0.1934">
        <ele>1902.4</ele>
        <time>2026-07-15T07:49:27Z</time>
      </trkpt>
      <trkpt lat="42.88298" lon="-0.19339">
        <ele>1902.4</ele>
        <time>2026-07-15T07:49:28Z</time>
      </trkpt>
      <trkpt lat="42.88299" lon="-0.19339">
        <ele>1902.4</ele>
        <time>2026-07-15T07:49:29Z</time>
      </trkpt>
      <trkpt lat="42.883" lon="-0.19338">
        <ele>1902.4</ele>
        <time>2026-07-15T07:49:30Z</time>
      </trkpt>
      <trkpt lat="42.883" lon="-0.19338">
        <ele>1902.4</ele>
        <time>2026-07-15T07:49:31Z</time>
      </trkpt>
      <trkpt lat="42.88301" lon="-0.19338">
        <ele>1903.4</ele>
        <time>2026-07-15T07:49:32Z</time>
      </trkpt>
      <trkpt lat="42.88301" lon="-0.19338">
        <ele>1903.4</ele>
        <time>2026-07-15T07:49:32Z</time>
      </trkpt>
      <trkpt lat="42.88302" lon="-0.19338">
        <ele>1903.4</ele>
        <time>2026-07-15T07:49:33Z</time>
      </trkpt>
      <trkpt lat="42.88302" lon="-0.19337">
        <ele>1903.4</ele>
        <time>2026-07-15T07:49:34Z</time>
      </trkpt>
      <trkpt lat="42.88303" lon="-0.19337">
        <ele>1903.4</ele>
        <time>2026-07-15T07:49:35Z</time>
      </trkpt>
      <trkpt lat="42.88303" lon="-0.19337">
        <ele>1903.4</ele>
        <time>2026-07-15T07:49:36Z</time>
      </trkpt>
      <trkpt lat="42.88304" lon="-0.19336">
        <ele>1903.4</ele>
        <time>2026-07-15T07:49:37Z</time>
      </trkpt>
      <trkpt lat="42.88304" lon="-0.19336">
        <ele>1903.4</ele>
        <time>2026-07-15T07:49:37Z</time>
      </trkpt>
      <trkpt lat="42.88304" lon="-0.19336">
        <ele>1903.4</ele>
        <time>2026-07-15T07:49:38Z</time>
      </trkpt>
      <trkpt lat="42.88304" lon="-0.19335">
        <ele>1903.4</ele>
        <time>2026-07-15T07:49:39Z</time>
      </trkpt>
      <trkpt lat="42.88305" lon="-0.19335">
        <ele>1903.4</ele>
        <time>2026-07-15T07:49:40Z</time>
      </trkpt>
      <trkpt lat="42.88305" lon="-0.19334">
        <ele>1903.4</ele>
        <time>2026-07-15T07:49:41Z</time>
      </trkpt>
      <trkpt lat="42.88306" lon="-0.19334">
        <ele>1904.4</ele>
        <time>2026-07-15T07:49:42Z</time>
      </trkpt>
      <trkpt lat="42.88306" lon="-0.19333">
        <ele>1905.4</ele>
        <time>2026-07-15T07:49:43Z</time>
      </trkpt>
      <trkpt lat="42.88307" lon="-0.19333">
        <ele>1904.4</ele>
        <time>2026-07-15T07:49:44Z</time>
      </trkpt>
      <trkpt lat="42.88307" lon="-0.19333">
        <ele>1904.4</ele>
        <time>2026-07-15T07:49:44Z</time>
      </trkpt>
      <trkpt lat="42.88307" lon="-0.19333">
        <ele>1904.4</ele>
        <time>2026-07-15T07:49:45Z</time>
      </trkpt>
      <trkpt lat="42.88308" lon="-0.19333">
        <ele>1905.4</ele>
        <time>2026-07-15T07:49:46Z</time>
      </trkpt>
      <trkpt lat="42.88309" lon="-0.19333">
        <ele>1905.4</ele>
        <time>2026-07-15T07:49:47Z</time>
      </trkpt>
      <trkpt lat="42.88309" lon="-0.19333">
        <ele>1905.4</ele>
        <time>2026-07-15T07:49:48Z</time>
      </trkpt>
      <trkpt lat="42.8831" lon="-0.19333">
        <ele>1905.4</ele>
        <time>2026-07-15T07:49:49Z</time>
      </trkpt>
      <trkpt lat="42.88311" lon="-0.19333">
        <ele>1906.4</ele>
        <time>2026-07-15T07:49:50Z</time>
      </trkpt>
      <trkpt lat="42.88311" lon="-0.19333">
        <ele>1905.4</ele>
        <time>2026-07-15T07:49:51Z</time>
      </trkpt>
      <trkpt lat="42.88312" lon="-0.19333">
        <ele>1905.4</ele>
        <time>2026-07-15T07:49:52Z</time>
      </trkpt>
      <trkpt lat="42.88312" lon="-0.19333">
        <ele>1905.4</ele>
        <time>2026-07-15T07:49:52Z</time>
      </trkpt>
      <trkpt lat="42.88313" lon="-0.19333">
        <ele>1905.4</ele>
        <time>2026-07-15T07:49:53Z</time>
      </trkpt>
      <trkpt lat="42.88313" lon="-0.19333">
        <ele>1905.4</ele>
        <time>2026-07-15T07:49:54Z</time>
      </trkpt>
      <trkpt lat="42.88314" lon="-0.19333">
        <ele>1905.4</ele>
        <time>2026-07-15T07:49:55Z</time>
      </trkpt>
      <trkpt lat="42.88314" lon="-0.19333">
        <ele>1905.4</ele>
        <time>2026-07-15T07:49:56Z</time>
      </trkpt>
      <trkpt lat="42.88315" lon="-0.19333">
        <ele>1905.4</ele>
        <time>2026-07-15T07:49:56Z</time>
      </trkpt>
      <trkpt lat="42.88315" lon="-0.19333">
        <ele>1904.4</ele>
        <time>2026-07-15T07:49:57Z</time>
      </trkpt>
      <trkpt lat="42.88316" lon="-0.19333">
        <ele>1904.4</ele>
        <time>2026-07-15T07:49:58Z</time>
      </trkpt>
      <trkpt lat="42.88316" lon="-0.19333">
        <ele>1904.4</ele>
        <time>2026-07-15T07:49:59Z</time>
      </trkpt>
      <trkpt lat="42.88317" lon="-0.19332">
        <ele>1904.4</ele>
        <time>2026-07-15T07:50:00Z</time>
      </trkpt>
      <trkpt lat="42.88317" lon="-0.19332">
        <ele>1904.4</ele>
        <time>2026-07-15T07:50:01Z</time>
      </trkpt>
      <trkpt lat="42.88318" lon="-0.19332">
        <ele>1905.4</ele>
        <time>2026-07-15T07:50:02Z</time>
      </trkpt>
      <trkpt lat="42.88318" lon="-0.19332">
        <ele>1905.4</ele>
        <time>2026-07-15T07:50:03Z</time>
      </trkpt>
      <trkpt lat="42.88319" lon="-0.19331">
        <ele>1906.4</ele>
        <time>2026-07-15T07:50:04Z</time>
      </trkpt>
      <trkpt lat="42.88319" lon="-0.19331">
        <ele>1906.4</ele>
        <time>2026-07-15T07:50:05Z</time>
      </trkpt>
      <trkpt lat="42.8832" lon="-0.19331">
        <ele>1906.4</ele>
        <time>2026-07-15T07:50:05Z</time>
      </trkpt>
      <trkpt lat="42.8832" lon="-0.19331">
        <ele>1906.4</ele>
        <time>2026-07-15T07:50:06Z</time>
      </trkpt>
      <trkpt lat="42.88321" lon="-0.1933">
        <ele>1906.4</ele>
        <time>2026-07-15T07:50:07Z</time>
      </trkpt>
      <trkpt lat="42.88321" lon="-0.1933">
        <ele>1906.4</ele>
        <time>2026-07-15T07:50:08Z</time>
      </trkpt>
      <trkpt lat="42.88321" lon="-0.19329">
        <ele>1907.4</ele>
        <time>2026-07-15T07:50:09Z</time>
      </trkpt>
      <trkpt lat="42.88321" lon="-0.19329">
        <ele>1907.4</ele>
        <time>2026-07-15T07:50:10Z</time>
      </trkpt>
      <trkpt lat="42.88322" lon="-0.19328">
        <ele>1907.4</ele>
        <time>2026-07-15T07:50:10Z</time>
      </trkpt>
      <trkpt lat="42.88322" lon="-0.19328">
        <ele>1907.4</ele>
        <time>2026-07-15T07:50:11Z</time>
      </trkpt>
      <trkpt lat="42.88322" lon="-0.19327">
        <ele>1907.4</ele>
        <time>2026-07-15T07:50:12Z</time>
      </trkpt>
      <trkpt lat="42.88323" lon="-0.19326">
        <ele>1907.4</ele>
        <time>2026-07-15T07:50:13Z</time>
      </trkpt>
      <trkpt lat="42.88323" lon="-0.19326">
        <ele>1907.4</ele>
        <time>2026-07-15T07:50:14Z</time>
      </trkpt>
      <trkpt lat="42.88323" lon="-0.19325">
        <ele>1906.4</ele>
        <time>2026-07-15T07:50:15Z</time>
      </trkpt>
      <trkpt lat="42.88323" lon="-0.19324">
        <ele>1906.4</ele>
        <time>2026-07-15T07:50:16Z</time>
      </trkpt>
      <trkpt lat="42.88323" lon="-0.19324">
        <ele>1905.4</ele>
        <time>2026-07-15T07:50:17Z</time>
      </trkpt>
      <trkpt lat="42.88324" lon="-0.19323">
        <ele>1905.4</ele>
        <time>2026-07-15T07:50:17Z</time>
      </trkpt>
      <trkpt lat="42.88324" lon="-0.19323">
        <ele>1905.4</ele>
        <time>2026-07-15T07:50:18Z</time>
      </trkpt>
      <trkpt lat="42.88324" lon="-0.19322">
        <ele>1905.4</ele>
        <time>2026-07-15T07:50:19Z</time>
      </trkpt>
      <trkpt lat="42.88325" lon="-0.19321">
        <ele>1905.4</ele>
        <time>2026-07-15T07:50:20Z</time>
      </trkpt>
      <trkpt lat="42.88325" lon="-0.1932">
        <ele>1904.4</ele>
        <time>2026-07-15T07:50:21Z</time>
      </trkpt>
      <trkpt lat="42.88325" lon="-0.19319">
        <ele>1905.4</ele>
        <time>2026-07-15T07:50:22Z</time>
      </trkpt>
      <trkpt lat="42.88325" lon="-0.19319">
        <ele>1904.4</ele>
        <time>2026-07-15T07:50:22Z</time>
      </trkpt>
      <trkpt lat="42.88324" lon="-0.19318">
        <ele>1904.4</ele>
        <time>2026-07-15T07:50:23Z</time>
      </trkpt>
      <trkpt lat="42.88324" lon="-0.19318">
        <ele>1904.4</ele>
        <time>2026-07-15T07:50:24Z</time>
      </trkpt>
      <trkpt lat="42.88323" lon="-0.19317">
        <ele>1903.4</ele>
        <time>2026-07-15T07:50:25Z</time>
      </trkpt>
      <trkpt lat="42.88323" lon="-0.19317">
        <ele>1903.4</ele>
        <time>2026-07-15T07:50:25Z</time>
      </trkpt>
      <trkpt lat="42.88323" lon="-0.19316">
        <ele>1903.4</ele>
        <time>2026-07-15T07:50:26Z</time>
      </trkpt>
      <trkpt lat="42.88323" lon="-0.19316">
        <ele>1903.4</ele>
        <time>2026-07-15T07:50:26Z</time>
      </trkpt>
      <trkpt lat="42.88322" lon="-0.19316">
        <ele>1903.4</ele>
        <time>2026-07-15T07:50:27Z</time>
      </trkpt>
      <trkpt lat="42.88322" lon="-0.19315">
        <ele>1903.4</ele>
        <time>2026-07-15T07:50:28Z</time>
      </trkpt>
      <trkpt lat="42.88321" lon="-0.19315">
        <ele>1904.4</ele>
        <time>2026-07-15T07:50:29Z</time>
      </trkpt>
      <trkpt lat="42.88321" lon="-0.19314">
        <ele>1906.4</ele>
        <time>2026-07-15T07:50:30Z</time>
      </trkpt>
      <trkpt lat="42.88321" lon="-0.19314">
        <ele>1906.4</ele>
        <time>2026-07-15T07:50:31Z</time>
      </trkpt>
      <trkpt lat="42.88321" lon="-0.19314">
        <ele>1906.4</ele>
        <time>2026-07-15T07:50:32Z</time>
      </trkpt>
      <trkpt lat="42.8832" lon="-0.19314">
        <ele>1907.4</ele>
        <time>2026-07-15T07:50:32Z</time>
      </trkpt>
      <trkpt lat="42.8832" lon="-0.19315">
        <ele>1907.4</ele>
        <time>2026-07-15T07:50:33Z</time>
      </trkpt>
      <trkpt lat="42.8832" lon="-0.19315">
        <ele>1907.4</ele>
        <time>2026-07-15T07:50:34Z</time>
      </trkpt>
      <trkpt lat="42.88319" lon="-0.19315">
        <ele>1907.4</ele>
        <time>2026-07-15T07:50:35Z</time>
      </trkpt>
      <trkpt lat="42.88319" lon="-0.19316">
        <ele>1907.4</ele>
        <time>2026-07-15T07:50:36Z</time>
      </trkpt>
      <trkpt lat="42.88319" lon="-0.19316">
        <ele>1907.4</ele>
        <time>2026-07-15T07:50:37Z</time>
      </trkpt>
      <trkpt lat="42.88318" lon="-0.19316">
        <ele>1907.4</ele>
        <time>2026-07-15T07:50:38Z</time>
      </trkpt>
      <trkpt lat="42.88318" lon="-0.19316">
        <ele>1908.4</ele>
        <time>2026-07-15T07:50:38Z</time>
      </trkpt>
      <trkpt lat="42.88318" lon="-0.19316">
        <ele>1908.4</ele>
        <time>2026-07-15T07:50:39Z</time>
      </trkpt>
      <trkpt lat="42.88317" lon="-0.19317">
        <ele>1909.4</ele>
        <time>2026-07-15T07:50:40Z</time>
      </trkpt>
      <trkpt lat="42.88317" lon="-0.19317">
        <ele>1909.4</ele>
        <time>2026-07-15T07:50:41Z</time>
      </trkpt>
      <trkpt lat="42.88316" lon="-0.19318">
        <ele>1909.4</ele>
        <time>2026-07-15T07:50:42Z</time>
      </trkpt>
      <trkpt lat="42.88316" lon="-0.19317">
        <ele>1910.4</ele>
        <time>2026-07-15T07:50:43Z</time>
      </trkpt>
      <trkpt lat="42.88316" lon="-0.19317">
        <ele>1910.4</ele>
        <time>2026-07-15T07:50:44Z</time>
      </trkpt>
      <trkpt lat="42.88316" lon="-0.19317">
        <ele>1910.4</ele>
        <time>2026-07-15T07:50:45Z</time>
      </trkpt>
      <trkpt lat="42.88316" lon="-0.19316">
        <ele>1909.4</ele>
        <time>2026-07-15T07:50:46Z</time>
      </trkpt>
      <trkpt lat="42.88316" lon="-0.19316">
        <ele>1909.4</ele>
        <time>2026-07-15T07:50:47Z</time>
      </trkpt>
      <trkpt lat="42.88315" lon="-0.19316">
        <ele>1909.4</ele>
        <time>2026-07-15T07:50:48Z</time>
      </trkpt>
      <trkpt lat="42.88315" lon="-0.19316">
        <ele>1910.4</ele>
        <time>2026-07-15T07:50:49Z</time>
      </trkpt>
      <trkpt lat="42.88314" lon="-0.19316">
        <ele>1910.4</ele>
        <time>2026-07-15T07:50:50Z</time>
      </trkpt>
      <trkpt lat="42.88314" lon="-0.19316">
        <ele>1911.4</ele>
        <time>2026-07-15T07:50:51Z</time>
      </trkpt>
      <trkpt lat="42.88313" lon="-0.19316">
        <ele>1911.4</ele>
        <time>2026-07-15T07:50:52Z</time>
      </trkpt>
      <trkpt lat="42.88313" lon="-0.19317">
        <ele>1912.4</ele>
        <time>2026-07-15T07:50:53Z</time>
      </trkpt>
      <trkpt lat="42.88313" lon="-0.19317">
        <ele>1912.4</ele>
        <time>2026-07-15T07:50:53Z</time>
      </trkpt>
      <trkpt lat="42.88312" lon="-0.19317">
        <ele>1912.4</ele>
        <time>2026-07-15T07:50:54Z</time>
      </trkpt>
      <trkpt lat="42.88312" lon="-0.19316">
        <ele>1912.4</ele>
        <time>2026-07-15T07:50:55Z</time>
      </trkpt>
      <trkpt lat="42.88311" lon="-0.19315">
        <ele>1913.4</ele>
        <time>2026-07-15T07:50:56Z</time>
      </trkpt>
      <trkpt lat="42.88311" lon="-0.19314">
        <ele>1913.4</ele>
        <time>2026-07-15T07:50:57Z</time>
      </trkpt>
      <trkpt lat="42.88311" lon="-0.19314">
        <ele>1914.4</ele>
        <time>2026-07-15T07:50:57Z</time>
      </trkpt>
      <trkpt lat="42.88312" lon="-0.19313">
        <ele>1913.4</ele>
        <time>2026-07-15T07:50:58Z</time>
      </trkpt>
      <trkpt lat="42.88312" lon="-0.19312">
        <ele>1913.4</ele>
        <time>2026-07-15T07:50:59Z</time>
      </trkpt>
      <trkpt lat="42.88312" lon="-0.19311">
        <ele>1913.4</ele>
        <time>2026-07-15T07:51:00Z</time>
      </trkpt>
      <trkpt lat="42.88312" lon="-0.1931">
        <ele>1913.4</ele>
        <time>2026-07-15T07:51:01Z</time>
      </trkpt>
      <trkpt lat="42.88313" lon="-0.1931">
        <ele>1913.4</ele>
        <time>2026-07-15T07:51:02Z</time>
      </trkpt>
      <trkpt lat="42.88313" lon="-0.19309">
        <ele>1913.4</ele>
        <time>2026-07-15T07:51:03Z</time>
      </trkpt>
      <trkpt lat="42.88313" lon="-0.19309">
        <ele>1913.4</ele>
        <time>2026-07-15T07:51:03Z</time>
      </trkpt>
      <trkpt lat="42.88313" lon="-0.19308">
        <ele>1914.4</ele>
        <time>2026-07-15T07:51:04Z</time>
      </trkpt>
      <trkpt lat="42.88313" lon="-0.19308">
        <ele>1913.4</ele>
        <time>2026-07-15T07:51:05Z</time>
      </trkpt>
      <trkpt lat="42.88313" lon="-0.19307">
        <ele>1914.4</ele>
        <time>2026-07-15T07:51:06Z</time>
      </trkpt>
      <trkpt lat="42.88313" lon="-0.19306">
        <ele>1914.4</ele>
        <time>2026-07-15T07:51:07Z</time>
      </trkpt>
      <trkpt lat="42.88313" lon="-0.19306">
        <ele>1914.4</ele>
        <time>2026-07-15T07:51:08Z</time>
      </trkpt>
      <trkpt lat="42.88313" lon="-0.19305">
        <ele>1914.4</ele>
        <time>2026-07-15T07:51:09Z</time>
      </trkpt>
      <trkpt lat="42.88313" lon="-0.19305">
        <ele>1914.4</ele>
        <time>2026-07-15T07:51:10Z</time>
      </trkpt>
      <trkpt lat="42.88313" lon="-0.19305">
        <ele>1914.4</ele>
        <time>2026-07-15T07:51:11Z</time>
      </trkpt>
      <trkpt lat="42.88313" lon="-0.19305">
        <ele>1915.4</ele>
        <time>2026-07-15T07:51:12Z</time>
      </trkpt>
      <trkpt lat="42.88313" lon="-0.19304">
        <ele>1915.4</ele>
        <time>2026-07-15T07:51:12Z</time>
      </trkpt>
      <trkpt lat="42.88313" lon="-0.19304">
        <ele>1916.4</ele>
        <time>2026-07-15T07:51:13Z</time>
      </trkpt>
      <trkpt lat="42.88313" lon="-0.19304">
        <ele>1916.4</ele>
        <time>2026-07-15T07:51:14Z</time>
      </trkpt>
      <trkpt lat="42.88313" lon="-0.19303">
        <ele>1916.4</ele>
        <time>2026-07-15T07:51:15Z</time>
      </trkpt>
      <trkpt lat="42.88312" lon="-0.19303">
        <ele>1916.4</ele>
        <time>2026-07-15T07:51:16Z</time>
      </trkpt>
      <trkpt lat="42.88312" lon="-0.19303">
        <ele>1917.4</ele>
        <time>2026-07-15T07:51:16Z</time>
      </trkpt>
      <trkpt lat="42.88312" lon="-0.19303">
        <ele>1917.4</ele>
        <time>2026-07-15T07:51:17Z</time>
      </trkpt>
      <trkpt lat="42.88312" lon="-0.19303">
        <ele>1917.4</ele>
        <time>2026-07-15T07:51:18Z</time>
      </trkpt>
      <trkpt lat="42.88311" lon="-0.19303">
        <ele>1917.4</ele>
        <time>2026-07-15T07:51:19Z</time>
      </trkpt>
      <trkpt lat="42.88311" lon="-0.19303">
        <ele>1918.4</ele>
        <time>2026-07-15T07:51:20Z</time>
      </trkpt>
      <trkpt lat="42.88311" lon="-0.19303">
        <ele>1918.4</ele>
        <time>2026-07-15T07:51:21Z</time>
      </trkpt>
      <trkpt lat="42.88311" lon="-0.19302">
        <ele>1918.4</ele>
        <time>2026-07-15T07:51:22Z</time>
      </trkpt>
      <trkpt lat="42.88311" lon="-0.19302">
        <ele>1918.4</ele>
        <time>2026-07-15T07:51:23Z</time>
      </trkpt>
      <trkpt lat="42.8831" lon="-0.19302">
        <ele>1918.4</ele>
        <time>2026-07-15T07:51:24Z</time>
      </trkpt>
      <trkpt lat="42.8831" lon="-0.19301">
        <ele>1919.4</ele>
        <time>2026-07-15T07:51:24Z</time>
      </trkpt>
      <trkpt lat="42.8831" lon="-0.19301">
        <ele>1919.4</ele>
        <time>2026-07-15T07:51:25Z</time>
      </trkpt>
      <trkpt lat="42.8831" lon="-0.19301">
        <ele>1918.4</ele>
        <time>2026-07-15T07:51:26Z</time>
      </trkpt>
      <trkpt lat="42.8831" lon="-0.193">
        <ele>1919.4</ele>
        <time>2026-07-15T07:51:27Z</time>
      </trkpt>
      <trkpt lat="42.8831" lon="-0.193">
        <ele>1920.4</ele>
        <time>2026-07-15T07:51:28Z</time>
      </trkpt>
      <trkpt lat="42.8831" lon="-0.19299">
        <ele>1920.4</ele>
        <time>2026-07-15T07:51:29Z</time>
      </trkpt>
      <trkpt lat="42.8831" lon="-0.19299">
        <ele>1920.4</ele>
        <time>2026-07-15T07:51:30Z</time>
      </trkpt>
      <trkpt lat="42.8831" lon="-0.19298">
        <ele>1920.4</ele>
        <time>2026-07-15T07:51:31Z</time>
      </trkpt>
      <trkpt lat="42.8831" lon="-0.19297">
        <ele>1920.4</ele>
        <time>2026-07-15T07:51:32Z</time>
      </trkpt>
      <trkpt lat="42.8831" lon="-0.19297">
        <ele>1920.4</ele>
        <time>2026-07-15T07:51:33Z</time>
      </trkpt>
      <trkpt lat="42.8831" lon="-0.19296">
        <ele>1920.4</ele>
        <time>2026-07-15T07:51:34Z</time>
      </trkpt>
      <trkpt lat="42.8831" lon="-0.19296">
        <ele>1920.4</ele>
        <time>2026-07-15T07:51:35Z</time>
      </trkpt>
      <trkpt lat="42.8831" lon="-0.19295">
        <ele>1921.4</ele>
        <time>2026-07-15T07:51:36Z</time>
      </trkpt>
      <trkpt lat="42.8831" lon="-0.19295">
        <ele>1921.4</ele>
        <time>2026-07-15T07:51:36Z</time>
      </trkpt>
      <trkpt lat="42.8831" lon="-0.19295">
        <ele>1921.4</ele>
        <time>2026-07-15T07:51:37Z</time>
      </trkpt>
      <trkpt lat="42.8831" lon="-0.19294">
        <ele>1921.4</ele>
        <time>2026-07-15T07:51:38Z</time>
      </trkpt>
      <trkpt lat="42.8831" lon="-0.19294">
        <ele>1922.4</ele>
        <time>2026-07-15T07:51:38Z</time>
      </trkpt>
      <trkpt lat="42.8831" lon="-0.19294">
        <ele>1922.4</ele>
        <time>2026-07-15T07:51:39Z</time>
      </trkpt>
      <trkpt lat="42.8831" lon="-0.19294">
        <ele>1922.4</ele>
        <time>2026-07-15T07:51:40Z</time>
      </trkpt>
      <trkpt lat="42.88309" lon="-0.19294">
        <ele>1923.4</ele>
        <time>2026-07-15T07:51:41Z</time>
      </trkpt>
      <trkpt lat="42.88309" lon="-0.19293">
        <ele>1923.4</ele>
        <time>2026-07-15T07:51:42Z</time>
      </trkpt>
      <trkpt lat="42.88309" lon="-0.19293">
        <ele>1923.4</ele>
        <time>2026-07-15T07:51:43Z</time>
      </trkpt>
      <trkpt lat="42.88309" lon="-0.19292">
        <ele>1924.4</ele>
        <time>2026-07-15T07:51:44Z</time>
      </trkpt>
      <trkpt lat="42.88309" lon="-0.19291">
        <ele>1924.4</ele>
        <time>2026-07-15T07:51:45Z</time>
      </trkpt>
      <trkpt lat="42.88309" lon="-0.1929">
        <ele>1924.4</ele>
        <time>2026-07-15T07:51:46Z</time>
      </trkpt>
      <trkpt lat="42.88309" lon="-0.19289">
        <ele>1924.4</ele>
        <time>2026-07-15T07:51:47Z</time>
      </trkpt>
      <trkpt lat="42.8831" lon="-0.19288">
        <ele>1924.4</ele>
        <time>2026-07-15T07:51:48Z</time>
      </trkpt>
      <trkpt lat="42.8831" lon="-0.19287">
        <ele>1923.4</ele>
        <time>2026-07-15T07:51:49Z</time>
      </trkpt>
      <trkpt lat="42.8831" lon="-0.19287">
        <ele>1924.4</ele>
        <time>2026-07-15T07:51:50Z</time>
      </trkpt>
      <trkpt lat="42.8831" lon="-0.19286">
        <ele>1924.4</ele>
        <time>2026-07-15T07:51:51Z</time>
      </trkpt>
      <trkpt lat="42.8831" lon="-0.19285">
        <ele>1924.4</ele>
        <time>2026-07-15T07:51:52Z</time>
      </trkpt>
      <trkpt lat="42.8831" lon="-0.19284">
        <ele>1923.4</ele>
        <time>2026-07-15T07:51:53Z</time>
      </trkpt>
      <trkpt lat="42.88311" lon="-0.19283">
        <ele>1922.4</ele>
        <time>2026-07-15T07:51:54Z</time>
      </trkpt>
      <trkpt lat="42.88311" lon="-0.19282">
        <ele>1922.4</ele>
        <time>2026-07-15T07:51:55Z</time>
      </trkpt>
      <trkpt lat="42.88311" lon="-0.19281">
        <ele>1922.4</ele>
        <time>2026-07-15T07:51:55Z</time>
      </trkpt>
      <trkpt lat="42.88311" lon="-0.19281">
        <ele>1922.4</ele>
        <time>2026-07-15T07:51:56Z</time>
      </trkpt>
      <trkpt lat="42.88311" lon="-0.1928">
        <ele>1922.4</ele>
        <time>2026-07-15T07:51:57Z</time>
      </trkpt>
      <trkpt lat="42.88311" lon="-0.19279">
        <ele>1922.4</ele>
        <time>2026-07-15T07:51:58Z</time>
      </trkpt>
      <trkpt lat="42.88311" lon="-0.19279">
        <ele>1922.4</ele>
        <time>2026-07-15T07:51:59Z</time>
      </trkpt>
      <trkpt lat="42.8831" lon="-0.19278">
        <ele>1921.4</ele>
        <time>2026-07-15T07:52:00Z</time>
      </trkpt>
      <trkpt lat="42.8831" lon="-0.19278">
        <ele>1921.4</ele>
        <time>2026-07-15T07:52:01Z</time>
      </trkpt>
      <trkpt lat="42.8831" lon="-0.19277">
        <ele>1921.4</ele>
        <time>2026-07-15T07:52:02Z</time>
      </trkpt>
      <trkpt lat="42.8831" lon="-0.19277">
        <ele>1921.4</ele>
        <time>2026-07-15T07:52:03Z</time>
      </trkpt>
      <trkpt lat="42.88309" lon="-0.19276">
        <ele>1922.4</ele>
        <time>2026-07-15T07:52:04Z</time>
      </trkpt>
      <trkpt lat="42.88309" lon="-0.19276">
        <ele>1922.4</ele>
        <time>2026-07-15T07:52:05Z</time>
      </trkpt>
      <trkpt lat="42.88309" lon="-0.19275">
        <ele>1922.4</ele>
        <time>2026-07-15T07:52:06Z</time>
      </trkpt>
      <trkpt lat="42.88309" lon="-0.19275">
        <ele>1922.4</ele>
        <time>2026-07-15T07:52:06Z</time>
      </trkpt>
      <trkpt lat="42.88309" lon="-0.19274">
        <ele>1922.4</ele>
        <time>2026-07-15T07:52:07Z</time>
      </trkpt>
      <trkpt lat="42.88309" lon="-0.19274">
        <ele>1922.4</ele>
        <time>2026-07-15T07:52:07Z</time>
      </trkpt>
      <trkpt lat="42.88309" lon="-0.19273">
        <ele>1921.4</ele>
        <time>2026-07-15T07:52:08Z</time>
      </trkpt>
      <trkpt lat="42.88309" lon="-0.19273">
        <ele>1921.4</ele>
        <time>2026-07-15T07:52:09Z</time>
      </trkpt>
      <trkpt lat="42.88309" lon="-0.19273">
        <ele>1921.4</ele>
        <time>2026-07-15T07:52:10Z</time>
      </trkpt>
      <trkpt lat="42.88309" lon="-0.19273">
        <ele>1920.4</ele>
        <time>2026-07-15T07:52:11Z</time>
      </trkpt>
      <trkpt lat="42.88308" lon="-0.19272">
        <ele>1920.4</ele>
        <time>2026-07-15T07:52:12Z</time>
      </trkpt>
      <trkpt lat="42.88308" lon="-0.19271">
        <ele>1920.4</ele>
        <time>2026-07-15T07:52:13Z</time>
      </trkpt>
      <trkpt lat="42.88308" lon="-0.19271">
        <ele>1920.4</ele>
        <time>2026-07-15T07:52:14Z</time>
      </trkpt>
      <trkpt lat="42.88307" lon="-0.19271">
        <ele>1920.4</ele>
        <time>2026-07-15T07:52:15Z</time>
      </trkpt>
      <trkpt lat="42.88306" lon="-0.19271">
        <ele>1920.4</ele>
        <time>2026-07-15T07:52:16Z</time>
      </trkpt>
      <trkpt lat="42.88306" lon="-0.19271">
        <ele>1920.4</ele>
        <time>2026-07-15T07:52:16Z</time>
      </trkpt>
      <trkpt lat="42.88306" lon="-0.19272">
        <ele>1921.4</ele>
        <time>2026-07-15T07:52:17Z</time>
      </trkpt>
      <trkpt lat="42.88305" lon="-0.19272">
        <ele>1921.4</ele>
        <time>2026-07-15T07:52:18Z</time>
      </trkpt>
      <trkpt lat="42.88305" lon="-0.19273">
        <ele>1921.4</ele>
        <time>2026-07-15T07:52:19Z</time>
      </trkpt>
      <trkpt lat="42.88305" lon="-0.19274">
        <ele>1921.4</ele>
        <time>2026-07-15T07:52:20Z</time>
      </trkpt>
      <trkpt lat="42.88304" lon="-0.19275">
        <ele>1921.4</ele>
        <time>2026-07-15T07:52:21Z</time>
      </trkpt>
      <trkpt lat="42.88304" lon="-0.19276">
        <ele>1921.4</ele>
        <time>2026-07-15T07:52:22Z</time>
      </trkpt>
      <trkpt lat="42.88304" lon="-0.19277">
        <ele>1922.4</ele>
        <time>2026-07-15T07:52:23Z</time>
      </trkpt>
      <trkpt lat="42.88304" lon="-0.19277">
        <ele>1923.4</ele>
        <time>2026-07-15T07:52:23Z</time>
      </trkpt>
      <trkpt lat="42.88304" lon="-0.19278">
        <ele>1923.4</ele>
        <time>2026-07-15T07:52:24Z</time>
      </trkpt>
      <trkpt lat="42.88304" lon="-0.19279">
        <ele>1924.4</ele>
        <time>2026-07-15T07:52:24Z</time>
      </trkpt>
      <trkpt lat="42.88304" lon="-0.19279">
        <ele>1923.4</ele>
        <time>2026-07-15T07:52:25Z</time>
      </trkpt>
      <trkpt lat="42.88303" lon="-0.1928">
        <ele>1923.4</ele>
        <time>2026-07-15T07:52:26Z</time>
      </trkpt>
      <trkpt lat="42.88303" lon="-0.1928">
        <ele>1924.4</ele>
        <time>2026-07-15T07:52:27Z</time>
      </trkpt>
      <trkpt lat="42.88302" lon="-0.1928">
        <ele>1924.4</ele>
        <time>2026-07-15T07:52:28Z</time>
      </trkpt>
      <trkpt lat="42.88302" lon="-0.1928">
        <ele>1924.4</ele>
        <time>2026-07-15T07:52:29Z</time>
      </trkpt>
      <trkpt lat="42.88301" lon="-0.1928">
        <ele>1925.4</ele>
        <time>2026-07-15T07:52:30Z</time>
      </trkpt>
      <trkpt lat="42.88301" lon="-0.1928">
        <ele>1925.4</ele>
        <time>2026-07-15T07:52:31Z</time>
      </trkpt>
      <trkpt lat="42.88301" lon="-0.1928">
        <ele>1925.4</ele>
        <time>2026-07-15T07:52:32Z</time>
      </trkpt>
      <trkpt lat="42.88301" lon="-0.1928">
        <ele>1926.4</ele>
        <time>2026-07-15T07:52:32Z</time>
      </trkpt>
      <trkpt lat="42.883" lon="-0.1928">
        <ele>1926.4</ele>
        <time>2026-07-15T07:52:33Z</time>
      </trkpt>
      <trkpt lat="42.883" lon="-0.1928">
        <ele>1927.4</ele>
        <time>2026-07-15T07:52:33Z</time>
      </trkpt>
      <trkpt lat="42.883" lon="-0.19279">
        <ele>1926.4</ele>
        <time>2026-07-15T07:52:34Z</time>
      </trkpt>
      <trkpt lat="42.88299" lon="-0.19279">
        <ele>1926.4</ele>
        <time>2026-07-15T07:52:35Z</time>
      </trkpt>
      <trkpt lat="42.88299" lon="-0.19279">
        <ele>1927.4</ele>
        <time>2026-07-15T07:52:35Z</time>
      </trkpt>
      <trkpt lat="42.88299" lon="-0.19279">
        <ele>1927.4</ele>
        <time>2026-07-15T07:52:36Z</time>
      </trkpt>
      <trkpt lat="42.88298" lon="-0.19279">
        <ele>1926.4</ele>
        <time>2026-07-15T07:52:36Z</time>
      </trkpt>
      <trkpt lat="42.88298" lon="-0.19279">
        <ele>1926.4</ele>
        <time>2026-07-15T07:52:37Z</time>
      </trkpt>
      <trkpt lat="42.88298" lon="-0.19279">
        <ele>1927.4</ele>
        <time>2026-07-15T07:52:37Z</time>
      </trkpt>
      <trkpt lat="42.88298" lon="-0.19279">
        <ele>1927.4</ele>
        <time>2026-07-15T07:52:38Z</time>
      </trkpt>
      <trkpt lat="42.88297" lon="-0.19279">
        <ele>1927.4</ele>
        <time>2026-07-15T07:52:38Z</time>
      </trkpt>
      <trkpt lat="42.88297" lon="-0.19279">
        <ele>1927.4</ele>
        <time>2026-07-15T07:52:39Z</time>
      </trkpt>
      <trkpt lat="42.88297" lon="-0.19279">
        <ele>1928.4</ele>
        <time>2026-07-15T07:52:40Z</time>
      </trkpt>
      <trkpt lat="42.88296" lon="-0.19279">
        <ele>1928.4</ele>
        <time>2026-07-15T07:52:41Z</time>
      </trkpt>
      <trkpt lat="42.88296" lon="-0.19279">
        <ele>1928.4</ele>
        <time>2026-07-15T07:52:42Z</time>
      </trkpt>
      <trkpt lat="42.88296" lon="-0.19278">
        <ele>1928.4</ele>
        <time>2026-07-15T07:52:43Z</time>
      </trkpt>
      <trkpt lat="42.88295" lon="-0.19278">
        <ele>1928.4</ele>
        <time>2026-07-15T07:52:44Z</time>
      </trkpt>
      <trkpt lat="42.88295" lon="-0.19278">
        <ele>1928.4</ele>
        <time>2026-07-15T07:52:45Z</time>
      </trkpt>
      <trkpt lat="42.88295" lon="-0.19278">
        <ele>1929.4</ele>
        <time>2026-07-15T07:52:46Z</time>
      </trkpt>
      <trkpt lat="42.88295" lon="-0.19278">
        <ele>1930.4</ele>
        <time>2026-07-15T07:52:47Z</time>
      </trkpt>
      <trkpt lat="42.88295" lon="-0.19278">
        <ele>1930.4</ele>
        <time>2026-07-15T07:52:48Z</time>
      </trkpt>
      <trkpt lat="42.88295" lon="-0.19278">
        <ele>1930.4</ele>
        <time>2026-07-15T07:52:49Z</time>
      </trkpt>
      <trkpt lat="42.88294" lon="-0.19277">
        <ele>1932.4</ele>
        <time>2026-07-15T07:52:50Z</time>
      </trkpt>
      <trkpt lat="42.88294" lon="-0.19277">
        <ele>1932.4</ele>
        <time>2026-07-15T07:52:51Z</time>
      </trkpt>
      <trkpt lat="42.88293" lon="-0.19277">
        <ele>1933.4</ele>
        <time>2026-07-15T07:52:52Z</time>
      </trkpt>
      <trkpt lat="42.88293" lon="-0.19277">
        <ele>1934.4</ele>
        <time>2026-07-15T07:52:53Z</time>
      </trkpt>
      <trkpt lat="42.88293" lon="-0.19276">
        <ele>1934.4</ele>
        <time>2026-07-15T07:52:54Z</time>
      </trkpt>
      <trkpt lat="42.88292" lon="-0.19276">
        <ele>1934.4</ele>
        <time>2026-07-15T07:52:55Z</time>
      </trkpt>
      <trkpt lat="42.88292" lon="-0.19276">
        <ele>1934.4</ele>
        <time>2026-07-15T07:52:56Z</time>
      </trkpt>
      <trkpt lat="42.88291" lon="-0.19275">
        <ele>1935.4</ele>
        <time>2026-07-15T07:52:57Z</time>
      </trkpt>
      <trkpt lat="42.8829" lon="-0.19275">
        <ele>1935.4</ele>
        <time>2026-07-15T07:52:58Z</time>
      </trkpt>
      <trkpt lat="42.8829" lon="-0.19275">
        <ele>1935.4</ele>
        <time>2026-07-15T07:52:58Z</time>
      </trkpt>
      <trkpt lat="42.8829" lon="-0.19274">
        <ele>1935.4</ele>
        <time>2026-07-15T07:52:59Z</time>
      </trkpt>
      <trkpt lat="42.8829" lon="-0.19274">
        <ele>1935.4</ele>
        <time>2026-07-15T07:53:00Z</time>
      </trkpt>
      <trkpt lat="42.88289" lon="-0.19274">
        <ele>1935.4</ele>
        <time>2026-07-15T07:53:00Z</time>
      </trkpt>
      <trkpt lat="42.88289" lon="-0.19273">
        <ele>1935.4</ele>
        <time>2026-07-15T07:53:01Z</time>
      </trkpt>
      <trkpt lat="42.88288" lon="-0.19273">
        <ele>1936.4</ele>
        <time>2026-07-15T07:53:02Z</time>
      </trkpt>
      <trkpt lat="42.88288" lon="-0.19273">
        <ele>1935.4</ele>
        <time>2026-07-15T07:53:03Z</time>
      </trkpt>
      <trkpt lat="42.88288" lon="-0.19273">
        <ele>1935.4</ele>
        <time>2026-07-15T07:53:04Z</time>
      </trkpt>
      <trkpt lat="42.88288" lon="-0.19272">
        <ele>1935.4</ele>
        <time>2026-07-15T07:53:05Z</time>
      </trkpt>
      <trkpt lat="42.88288" lon="-0.19272">
        <ele>1936.4</ele>
        <time>2026-07-15T07:53:06Z</time>
      </trkpt>
      <trkpt lat="42.88287" lon="-0.19271">
        <ele>1937.4</ele>
        <time>2026-07-15T07:53:06Z</time>
      </trkpt>
      <trkpt lat="42.88287" lon="-0.19271">
        <ele>1937.4</ele>
        <time>2026-07-15T07:53:07Z</time>
      </trkpt>
      <trkpt lat="42.88287" lon="-0.19271">
        <ele>1938.4</ele>
        <time>2026-07-15T07:53:08Z</time>
      </trkpt>
      <trkpt lat="42.88287" lon="-0.19271">
        <ele>1939.4</ele>
        <time>2026-07-15T07:53:09Z</time>
      </trkpt>
      <trkpt lat="42.88287" lon="-0.1927">
        <ele>1939.4</ele>
        <time>2026-07-15T07:53:10Z</time>
      </trkpt>
      <trkpt lat="42.88286" lon="-0.1927">
        <ele>1938.4</ele>
        <time>2026-07-15T07:53:10Z</time>
      </trkpt>
      <trkpt lat="42.88286" lon="-0.1927">
        <ele>1938.4</ele>
        <time>2026-07-15T07:53:11Z</time>
      </trkpt>
      <trkpt lat="42.88286" lon="-0.19269">
        <ele>1938.4</ele>
        <time>2026-07-15T07:53:12Z</time>
      </trkpt>
      <trkpt lat="42.88287" lon="-0.19269">
        <ele>1938.4</ele>
        <time>2026-07-15T07:53:12Z</time>
      </trkpt>
      <trkpt lat="42.88287" lon="-0.19269">
        <ele>1938.4</ele>
        <time>2026-07-15T07:53:13Z</time>
      </trkpt>
      <trkpt lat="42.88287" lon="-0.19269">
        <ele>1938.4</ele>
        <time>2026-07-15T07:53:13Z</time>
      </trkpt>
      <trkpt lat="42.88287" lon="-0.19269">
        <ele>1938.4</ele>
        <time>2026-07-15T07:53:14Z</time>
      </trkpt>
      <trkpt lat="42.88287" lon="-0.19269">
        <ele>1938.4</ele>
        <time>2026-07-15T07:53:14Z</time>
      </trkpt>
      <trkpt lat="42.88286" lon="-0.19269">
        <ele>1938.4</ele>
        <time>2026-07-15T07:53:15Z</time>
      </trkpt>
      <trkpt lat="42.88286" lon="-0.19269">
        <ele>1938.4</ele>
        <time>2026-07-15T07:53:15Z</time>
      </trkpt>
      <trkpt lat="42.88286" lon="-0.19268">
        <ele>1938.4</ele>
        <time>2026-07-15T07:53:16Z</time>
      </trkpt>
      <trkpt lat="42.88285" lon="-0.19268">
        <ele>1937.4</ele>
        <time>2026-07-15T07:53:17Z</time>
      </trkpt>
      <trkpt lat="42.88285" lon="-0.19268">
        <ele>1938.4</ele>
        <time>2026-07-15T07:53:18Z</time>
      </trkpt>
      <trkpt lat="42.88285" lon="-0.19267">
        <ele>1938.4</ele>
        <time>2026-07-15T07:53:19Z</time>
      </trkpt>
      <trkpt lat="42.88285" lon="-0.19267">
        <ele>1937.4</ele>
        <time>2026-07-15T07:53:19Z</time>
      </trkpt>
      <trkpt lat="42.88285" lon="-0.19267">
        <ele>1937.4</ele>
        <time>2026-07-15T07:53:20Z</time>
      </trkpt>
      <trkpt lat="42.88284" lon="-0.19267">
        <ele>1938.4</ele>
        <time>2026-07-15T07:53:20Z</time>
      </trkpt>
      <trkpt lat="42.88284" lon="-0.19267">
        <ele>1938.4</ele>
        <time>2026-07-15T07:53:21Z</time>
      </trkpt>
      <trkpt lat="42.88284" lon="-0.19266">
        <ele>1938.4</ele>
        <time>2026-07-15T07:53:21Z</time>
      </trkpt>
      <trkpt lat="42.88284" lon="-0.19266">
        <ele>1938.4</ele>
        <time>2026-07-15T07:53:22Z</time>
      </trkpt>
      <trkpt lat="42.88283" lon="-0.19266">
        <ele>1939.4</ele>
        <time>2026-07-15T07:53:23Z</time>
      </trkpt>
      <trkpt lat="42.88283" lon="-0.19265">
        <ele>1939.4</ele>
        <time>2026-07-15T07:53:24Z</time>
      </trkpt>
      <trkpt lat="42.88283" lon="-0.19265">
        <ele>1940.4</ele>
        <time>2026-07-15T07:53:25Z</time>
      </trkpt>
      <trkpt lat="42.88282" lon="-0.19264">
        <ele>1941.4</ele>
        <time>2026-07-15T07:53:26Z</time>
      </trkpt>
      <trkpt lat="42.88282" lon="-0.19264">
        <ele>1941.4</ele>
        <time>2026-07-15T07:53:27Z</time>
      </trkpt>
      <trkpt lat="42.88282" lon="-0.19263">
        <ele>1942.4</ele>
        <time>2026-07-15T07:53:28Z</time>
      </trkpt>
      <trkpt lat="42.88281" lon="-0.19263">
        <ele>1943.4</ele>
        <time>2026-07-15T07:53:29Z</time>
      </trkpt>
      <trkpt lat="42.88281" lon="-0.19262">
        <ele>1944.4</ele>
        <time>2026-07-15T07:53:30Z</time>
      </trkpt>
      <trkpt lat="42.8828" lon="-0.19262">
        <ele>1943.4</ele>
        <time>2026-07-15T07:53:31Z</time>
      </trkpt>
      <trkpt lat="42.8828" lon="-0.19262">
        <ele>1943.4</ele>
        <time>2026-07-15T07:53:31Z</time>
      </trkpt>
      <trkpt lat="42.88279" lon="-0.19261">
        <ele>1944.4</ele>
        <time>2026-07-15T07:53:32Z</time>
      </trkpt>
      <trkpt lat="42.88279" lon="-0.19261">
        <ele>1944.4</ele>
        <time>2026-07-15T07:53:33Z</time>
      </trkpt>
      <trkpt lat="42.88278" lon="-0.1926">
        <ele>1945.4</ele>
        <time>2026-07-15T07:53:34Z</time>
      </trkpt>
      <trkpt lat="42.88278" lon="-0.1926">
        <ele>1945.4</ele>
        <time>2026-07-15T07:53:35Z</time>
      </trkpt>
      <trkpt lat="42.88277" lon="-0.1926">
        <ele>1946.4</ele>
        <time>2026-07-15T07:53:35Z</time>
      </trkpt>
      <trkpt lat="42.88277" lon="-0.19259">
        <ele>1947.4</ele>
        <time>2026-07-15T07:53:36Z</time>
      </trkpt>
      <trkpt lat="42.88276" lon="-0.19259">
        <ele>1948.4</ele>
        <time>2026-07-15T07:53:37Z</time>
      </trkpt>
      <trkpt lat="42.88276" lon="-0.19259">
        <ele>1948.4</ele>
        <time>2026-07-15T07:53:38Z</time>
      </trkpt>
      <trkpt lat="42.88275" lon="-0.19258">
        <ele>1949.4</ele>
        <time>2026-07-15T07:53:39Z</time>
      </trkpt>
      <trkpt lat="42.88275" lon="-0.19258">
        <ele>1949.4</ele>
        <time>2026-07-15T07:53:40Z</time>
      </trkpt>
      <trkpt lat="42.88275" lon="-0.19257">
        <ele>1948.4</ele>
        <time>2026-07-15T07:53:41Z</time>
      </trkpt>
      <trkpt lat="42.88275" lon="-0.19257">
        <ele>1948.4</ele>
        <time>2026-07-15T07:53:42Z</time>
      </trkpt>
      <trkpt lat="42.88275" lon="-0.19257">
        <ele>1947.4</ele>
        <time>2026-07-15T07:53:43Z</time>
      </trkpt>
      <trkpt lat="42.88275" lon="-0.19256">
        <ele>1947.4</ele>
        <time>2026-07-15T07:53:44Z</time>
      </trkpt>
      <trkpt lat="42.88275" lon="-0.19256">
        <ele>1947.4</ele>
        <time>2026-07-15T07:53:45Z</time>
      </trkpt>
      <trkpt lat="42.88275" lon="-0.19255">
        <ele>1946.4</ele>
        <time>2026-07-15T07:53:46Z</time>
      </trkpt>
      <trkpt lat="42.88275" lon="-0.19255">
        <ele>1946.4</ele>
        <time>2026-07-15T07:53:47Z</time>
      </trkpt>
      <trkpt lat="42.88274" lon="-0.19255">
        <ele>1946.4</ele>
        <time>2026-07-15T07:53:47Z</time>
      </trkpt>
      <trkpt lat="42.88274" lon="-0.19255">
        <ele>1945.4</ele>
        <time>2026-07-15T07:53:48Z</time>
      </trkpt>
      <trkpt lat="42.88273" lon="-0.19255">
        <ele>1946.4</ele>
        <time>2026-07-15T07:53:49Z</time>
      </trkpt>
      <trkpt lat="42.88273" lon="-0.19255">
        <ele>1945.4</ele>
        <time>2026-07-15T07:53:50Z</time>
      </trkpt>
      <trkpt lat="42.88272" lon="-0.19255">
        <ele>1945.4</ele>
        <time>2026-07-15T07:53:51Z</time>
      </trkpt>
      <trkpt lat="42.88272" lon="-0.19255">
        <ele>1945.4</ele>
        <time>2026-07-15T07:53:51Z</time>
      </trkpt>
      <trkpt lat="42.88272" lon="-0.19255">
        <ele>1945.4</ele>
        <time>2026-07-15T07:53:52Z</time>
      </trkpt>
      <trkpt lat="42.88272" lon="-0.19255">
        <ele>1945.4</ele>
        <time>2026-07-15T07:53:53Z</time>
      </trkpt>
      <trkpt lat="42.88272" lon="-0.19255">
        <ele>1946.4</ele>
        <time>2026-07-15T07:53:53Z</time>
      </trkpt>
      <trkpt lat="42.88271" lon="-0.19255">
        <ele>1946.4</ele>
        <time>2026-07-15T07:53:54Z</time>
      </trkpt>
      <trkpt lat="42.88271" lon="-0.19255">
        <ele>1948.4</ele>
        <time>2026-07-15T07:53:55Z</time>
      </trkpt>
      <trkpt lat="42.88271" lon="-0.19255">
        <ele>1947.4</ele>
        <time>2026-07-15T07:53:55Z</time>
      </trkpt>
      <trkpt lat="42.8827" lon="-0.19255">
        <ele>1948.4</ele>
        <time>2026-07-15T07:53:56Z</time>
      </trkpt>
      <trkpt lat="42.8827" lon="-0.19255">
        <ele>1948.4</ele>
        <time>2026-07-15T07:53:57Z</time>
      </trkpt>
      <trkpt lat="42.88269" lon="-0.19255">
        <ele>1949.4</ele>
        <time>2026-07-15T07:53:58Z</time>
      </trkpt>
      <trkpt lat="42.88269" lon="-0.19255">
        <ele>1949.4</ele>
        <time>2026-07-15T07:53:59Z</time>
      </trkpt>
      <trkpt lat="42.88269" lon="-0.19255">
        <ele>1950.4</ele>
        <time>2026-07-15T07:54:00Z</time>
      </trkpt>
      <trkpt lat="42.88269" lon="-0.19254">
        <ele>1951.4</ele>
        <time>2026-07-15T07:54:01Z</time>
      </trkpt>
      <trkpt lat="42.88269" lon="-0.19254">
        <ele>1951.4</ele>
        <time>2026-07-15T07:54:02Z</time>
      </trkpt>
      <trkpt lat="42.88269" lon="-0.19254">
        <ele>1951.4</ele>
        <time>2026-07-15T07:54:03Z</time>
      </trkpt>
      <trkpt lat="42.88268" lon="-0.19254">
        <ele>1950.4</ele>
        <time>2026-07-15T07:54:04Z</time>
      </trkpt>
      <trkpt lat="42.88268" lon="-0.19254">
        <ele>1950.4</ele>
        <time>2026-07-15T07:54:05Z</time>
      </trkpt>
      <trkpt lat="42.88268" lon="-0.19253">
        <ele>1950.4</ele>
        <time>2026-07-15T07:54:06Z</time>
      </trkpt>
      <trkpt lat="42.88268" lon="-0.19253">
        <ele>1950.4</ele>
        <time>2026-07-15T07:54:07Z</time>
      </trkpt>
      <trkpt lat="42.88268" lon="-0.19253">
        <ele>1950.4</ele>
        <time>2026-07-15T07:54:07Z</time>
      </trkpt>
      <trkpt lat="42.88268" lon="-0.19252">
        <ele>1950.4</ele>
        <time>2026-07-15T07:54:08Z</time>
      </trkpt>
      <trkpt lat="42.88267" lon="-0.19252">
        <ele>1950.4</ele>
        <time>2026-07-15T07:54:09Z</time>
      </trkpt>
      <trkpt lat="42.88267" lon="-0.19252">
        <ele>1949.4</ele>
        <time>2026-07-15T07:54:10Z</time>
      </trkpt>
      <trkpt lat="42.88266" lon="-0.19253">
        <ele>1949.4</ele>
        <time>2026-07-15T07:54:11Z</time>
      </trkpt>
      <trkpt lat="42.88266" lon="-0.19253">
        <ele>1950.4</ele>
        <time>2026-07-15T07:54:12Z</time>
      </trkpt>
      <trkpt lat="42.88266" lon="-0.19253">
        <ele>1950.4</ele>
        <time>2026-07-15T07:54:13Z</time>
      </trkpt>
      <trkpt lat="42.88265" lon="-0.19253">
        <ele>1951.4</ele>
        <time>2026-07-15T07:54:13Z</time>
      </trkpt>
      <trkpt lat="42.88265" lon="-0.19253">
        <ele>1951.4</ele>
        <time>2026-07-15T07:54:14Z</time>
      </trkpt>
      <trkpt lat="42.88265" lon="-0.19253">
        <ele>1951.4</ele>
        <time>2026-07-15T07:54:15Z</time>
      </trkpt>
      <trkpt lat="42.88264" lon="-0.19254">
        <ele>1951.4</ele>
        <time>2026-07-15T07:54:16Z</time>
      </trkpt>
      <trkpt lat="42.88264" lon="-0.19254">
        <ele>1951.4</ele>
        <time>2026-07-15T07:54:17Z</time>
      </trkpt>
      <trkpt lat="42.88264" lon="-0.19255">
        <ele>1951.4</ele>
        <time>2026-07-15T07:54:18Z</time>
      </trkpt>
      <trkpt lat="42.88263" lon="-0.19255">
        <ele>1951.4</ele>
        <time>2026-07-15T07:54:19Z</time>
      </trkpt>
      <trkpt lat="42.88263" lon="-0.19255">
        <ele>1951.4</ele>
        <time>2026-07-15T07:54:20Z</time>
      </trkpt>
      <trkpt lat="42.88263" lon="-0.19255">
        <ele>1952.4</ele>
        <time>2026-07-15T07:54:21Z</time>
      </trkpt>
      <trkpt lat="42.88263" lon="-0.19255">
        <ele>1952.4</ele>
        <time>2026-07-15T07:54:22Z</time>
      </trkpt>
      <trkpt lat="42.88263" lon="-0.19256">
        <ele>1952.4</ele>
        <time>2026-07-15T07:54:23Z</time>
      </trkpt>
      <trkpt lat="42.88262" lon="-0.19256">
        <ele>1952.4</ele>
        <time>2026-07-15T07:54:24Z</time>
      </trkpt>
      <trkpt lat="42.88262" lon="-0.19256">
        <ele>1952.4</ele>
        <time>2026-07-15T07:54:25Z</time>
      </trkpt>
      <trkpt lat="42.88261" lon="-0.19257">
        <ele>1952.4</ele>
        <time>2026-07-15T07:54:26Z</time>
      </trkpt>
      <trkpt lat="42.88261" lon="-0.19257">
        <ele>1952.4</ele>
        <time>2026-07-15T07:54:27Z</time>
      </trkpt>
      <trkpt lat="42.88261" lon="-0.19257">
        <ele>1952.4</ele>
        <time>2026-07-15T07:54:27Z</time>
      </trkpt>
      <trkpt lat="42.88261" lon="-0.19257">
        <ele>1952.4</ele>
        <time>2026-07-15T07:54:28Z</time>
      </trkpt>
      <trkpt lat="42.88261" lon="-0.19257">
        <ele>1952.4</ele>
        <time>2026-07-15T07:54:29Z</time>
      </trkpt>
      <trkpt lat="42.8826" lon="-0.19258">
        <ele>1952.4</ele>
        <time>2026-07-15T07:54:30Z</time>
      </trkpt>
      <trkpt lat="42.8826" lon="-0.19258">
        <ele>1952.4</ele>
        <time>2026-07-15T07:54:31Z</time>
      </trkpt>
      <trkpt lat="42.88259" lon="-0.19258">
        <ele>1951.4</ele>
        <time>2026-07-15T07:54:32Z</time>
      </trkpt>
      <trkpt lat="42.88259" lon="-0.19258">
        <ele>1952.4</ele>
        <time>2026-07-15T07:54:33Z</time>
      </trkpt>
      <trkpt lat="42.88258" lon="-0.19258">
        <ele>1952.4</ele>
        <time>2026-07-15T07:54:34Z</time>
      </trkpt>
      <trkpt lat="42.88258" lon="-0.19258">
        <ele>1952.4</ele>
        <time>2026-07-15T07:54:35Z</time>
      </trkpt>
      <trkpt lat="42.88257" lon="-0.19258">
        <ele>1953.4</ele>
        <time>2026-07-15T07:54:36Z</time>
      </trkpt>
      <trkpt lat="42.88257" lon="-0.19257">
        <ele>1953.4</ele>
        <time>2026-07-15T07:54:37Z</time>
      </trkpt>
      <trkpt lat="42.88256" lon="-0.19257">
        <ele>1953.4</ele>
        <time>2026-07-15T07:54:38Z</time>
      </trkpt>
      <trkpt lat="42.88256" lon="-0.19257">
        <ele>1953.4</ele>
        <time>2026-07-15T07:54:39Z</time>
      </trkpt>
      <trkpt lat="42.88255" lon="-0.19257">
        <ele>1952.4</ele>
        <time>2026-07-15T07:54:40Z</time>
      </trkpt>
      <trkpt lat="42.88254" lon="-0.19257">
        <ele>1953.4</ele>
        <time>2026-07-15T07:54:41Z</time>
      </trkpt>
      <trkpt lat="42.88254" lon="-0.19257">
        <ele>1952.4</ele>
        <time>2026-07-15T07:54:42Z</time>
      </trkpt>
      <trkpt lat="42.88253" lon="-0.19257">
        <ele>1952.4</ele>
        <time>2026-07-15T07:54:42Z</time>
      </trkpt>
      <trkpt lat="42.88253" lon="-0.19257">
        <ele>1952.4</ele>
        <time>2026-07-15T07:54:43Z</time>
      </trkpt>
      <trkpt lat="42.88252" lon="-0.19256">
        <ele>1953.4</ele>
        <time>2026-07-15T07:54:44Z</time>
      </trkpt>
      <trkpt lat="42.88252" lon="-0.19256">
        <ele>1953.4</ele>
        <time>2026-07-15T07:54:45Z</time>
      </trkpt>
      <trkpt lat="42.88252" lon="-0.19256">
        <ele>1953.4</ele>
        <time>2026-07-15T07:54:46Z</time>
      </trkpt>
      <trkpt lat="42.88252" lon="-0.19255">
        <ele>1953.4</ele>
        <time>2026-07-15T07:54:47Z</time>
      </trkpt>
      <trkpt lat="42.88251" lon="-0.19255">
        <ele>1953.4</ele>
        <time>2026-07-15T07:54:48Z</time>
      </trkpt>
      <trkpt lat="42.88251" lon="-0.19255">
        <ele>1953.4</ele>
        <time>2026-07-15T07:54:49Z</time>
      </trkpt>
      <trkpt lat="42.88251" lon="-0.19254">
        <ele>1954.4</ele>
        <time>2026-07-15T07:54:50Z</time>
      </trkpt>
      <trkpt lat="42.88251" lon="-0.19253">
        <ele>1953.4</ele>
        <time>2026-07-15T07:54:51Z</time>
      </trkpt>
      <trkpt lat="42.88251" lon="-0.19253">
        <ele>1953.4</ele>
        <time>2026-07-15T07:54:51Z</time>
      </trkpt>
      <trkpt lat="42.88251" lon="-0.19253">
        <ele>1953.4</ele>
        <time>2026-07-15T07:54:52Z</time>
      </trkpt>
      <trkpt lat="42.88251" lon="-0.19252">
        <ele>1953.4</ele>
        <time>2026-07-15T07:54:52Z</time>
      </trkpt>
      <trkpt lat="42.8825" lon="-0.19251">
        <ele>1953.4</ele>
        <time>2026-07-15T07:54:53Z</time>
      </trkpt>
      <trkpt lat="42.8825" lon="-0.19251">
        <ele>1954.4</ele>
        <time>2026-07-15T07:54:54Z</time>
      </trkpt>
      <trkpt lat="42.8825" lon="-0.1925">
        <ele>1954.4</ele>
        <time>2026-07-15T07:54:55Z</time>
      </trkpt>
      <trkpt lat="42.88249" lon="-0.19249">
        <ele>1955.4</ele>
        <time>2026-07-15T07:54:56Z</time>
      </trkpt>
      <trkpt lat="42.88249" lon="-0.19249">
        <ele>1955.4</ele>
        <time>2026-07-15T07:54:57Z</time>
      </trkpt>
      <trkpt lat="42.88248" lon="-0.19249">
        <ele>1954.4</ele>
        <time>2026-07-15T07:54:58Z</time>
      </trkpt>
      <trkpt lat="42.88248" lon="-0.19248">
        <ele>1953.4</ele>
        <time>2026-07-15T07:54:59Z</time>
      </trkpt>
      <trkpt lat="42.88248" lon="-0.19248">
        <ele>1953.4</ele>
        <time>2026-07-15T07:55:00Z</time>
      </trkpt>
      <trkpt lat="42.88247" lon="-0.19248">
        <ele>1953.4</ele>
        <time>2026-07-15T07:55:01Z</time>
      </trkpt>
      <trkpt lat="42.88247" lon="-0.19247">
        <ele>1955.4</ele>
        <time>2026-07-15T07:55:02Z</time>
      </trkpt>
      <trkpt lat="42.88246" lon="-0.19247">
        <ele>1955.4</ele>
        <time>2026-07-15T07:55:03Z</time>
      </trkpt>
      <trkpt lat="42.88246" lon="-0.19246">
        <ele>1955.4</ele>
        <time>2026-07-15T07:55:04Z</time>
      </trkpt>
      <trkpt lat="42.88246" lon="-0.19246">
        <ele>1955.4</ele>
        <time>2026-07-15T07:55:05Z</time>
      </trkpt>
      <trkpt lat="42.88245" lon="-0.19246">
        <ele>1955.4</ele>
        <time>2026-07-15T07:55:05Z</time>
      </trkpt>
      <trkpt lat="42.88245" lon="-0.19246">
        <ele>1955.4</ele>
        <time>2026-07-15T07:55:06Z</time>
      </trkpt>
      <trkpt lat="42.88245" lon="-0.19246">
        <ele>1955.4</ele>
        <time>2026-07-15T07:55:06Z</time>
      </trkpt>
      <trkpt lat="42.88244" lon="-0.19246">
        <ele>1956.4</ele>
        <time>2026-07-15T07:55:07Z</time>
      </trkpt>
      <trkpt lat="42.88244" lon="-0.19245">
        <ele>1956.4</ele>
        <time>2026-07-15T07:55:08Z</time>
      </trkpt>
      <trkpt lat="42.88244" lon="-0.19245">
        <ele>1956.4</ele>
        <time>2026-07-15T07:55:09Z</time>
      </trkpt>
      <trkpt lat="42.88243" lon="-0.19245">
        <ele>1956.4</ele>
        <time>2026-07-15T07:55:09Z</time>
      </trkpt>
      <trkpt lat="42.88243" lon="-0.19245">
        <ele>1956.4</ele>
        <time>2026-07-15T07:55:10Z</time>
      </trkpt>
      <trkpt lat="42.88243" lon="-0.19245">
        <ele>1957.4</ele>
        <time>2026-07-15T07:55:11Z</time>
      </trkpt>
      <trkpt lat="42.88243" lon="-0.19244">
        <ele>1957.4</ele>
        <time>2026-07-15T07:55:11Z</time>
      </trkpt>
      <trkpt lat="42.88243" lon="-0.19244">
        <ele>1957.4</ele>
        <time>2026-07-15T07:55:12Z</time>
      </trkpt>
      <trkpt lat="42.88242" lon="-0.19244">
        <ele>1957.4</ele>
        <time>2026-07-15T07:55:12Z</time>
      </trkpt>
      <trkpt lat="42.88242" lon="-0.19243">
        <ele>1957.4</ele>
        <time>2026-07-15T07:55:13Z</time>
      </trkpt>
      <trkpt lat="42.88241" lon="-0.19243">
        <ele>1957.4</ele>
        <time>2026-07-15T07:55:14Z</time>
      </trkpt>
      <trkpt lat="42.88241" lon="-0.19242">
        <ele>1957.4</ele>
        <time>2026-07-15T07:55:15Z</time>
      </trkpt>
      <trkpt lat="42.88241" lon="-0.19242">
        <ele>1957.4</ele>
        <time>2026-07-15T07:55:16Z</time>
      </trkpt>
      <trkpt lat="42.88241" lon="-0.19242">
        <ele>1957.4</ele>
        <time>2026-07-15T07:55:17Z</time>
      </trkpt>
      <trkpt lat="42.8824" lon="-0.19242">
        <ele>1957.4</ele>
        <time>2026-07-15T07:55:18Z</time>
      </trkpt>
      <trkpt lat="42.8824" lon="-0.19242">
        <ele>1957.4</ele>
        <time>2026-07-15T07:55:19Z</time>
      </trkpt>
      <trkpt lat="42.8824" lon="-0.19242">
        <ele>1957.4</ele>
        <time>2026-07-15T07:55:20Z</time>
      </trkpt>
      <trkpt lat="42.8824" lon="-0.19241">
        <ele>1957.4</ele>
        <time>2026-07-15T07:55:21Z</time>
      </trkpt>
      <trkpt lat="42.8824" lon="-0.19241">
        <ele>1957.4</ele>
        <time>2026-07-15T07:55:22Z</time>
      </trkpt>
      <trkpt lat="42.8824" lon="-0.19241">
        <ele>1957.4</ele>
        <time>2026-07-15T07:55:23Z</time>
      </trkpt>
      <trkpt lat="42.88241" lon="-0.1924">
        <ele>1958.4</ele>
        <time>2026-07-15T07:55:24Z</time>
      </trkpt>
      <trkpt lat="42.88241" lon="-0.1924">
        <ele>1959.4</ele>
        <time>2026-07-15T07:55:25Z</time>
      </trkpt>
      <trkpt lat="42.88241" lon="-0.19239">
        <ele>1958.4</ele>
        <time>2026-07-15T07:55:26Z</time>
      </trkpt>
      <trkpt lat="42.88241" lon="-0.19239">
        <ele>1959.4</ele>
        <time>2026-07-15T07:55:26Z</time>
      </trkpt>
      <trkpt lat="42.88241" lon="-0.19238">
        <ele>1959.4</ele>
        <time>2026-07-15T07:55:27Z</time>
      </trkpt>
      <trkpt lat="42.88241" lon="-0.19238">
        <ele>1960.4</ele>
        <time>2026-07-15T07:55:28Z</time>
      </trkpt>
      <trkpt lat="42.88242" lon="-0.19237">
        <ele>1960.4</ele>
        <time>2026-07-15T07:55:29Z</time>
      </trkpt>
      <trkpt lat="42.88242" lon="-0.19237">
        <ele>1960.4</ele>
        <time>2026-07-15T07:55:30Z</time>
      </trkpt>
      <trkpt lat="42.88242" lon="-0.19237">
        <ele>1960.4</ele>
        <time>2026-07-15T07:55:31Z</time>
      </trkpt>
      <trkpt lat="42.88242" lon="-0.19236">
        <ele>1960.4</ele>
        <time>2026-07-15T07:55:32Z</time>
      </trkpt>
      <trkpt lat="42.88241" lon="-0.19236">
        <ele>1960.4</ele>
        <time>2026-07-15T07:55:33Z</time>
      </trkpt>
      <trkpt lat="42.88241" lon="-0.19236">
        <ele>1960.4</ele>
        <time>2026-07-15T07:55:34Z</time>
      </trkpt>
      <trkpt lat="42.88241" lon="-0.19236">
        <ele>1961.4</ele>
        <time>2026-07-15T07:55:35Z</time>
      </trkpt>
      <trkpt lat="42.88241" lon="-0.19235">
        <ele>1962.4</ele>
        <time>2026-07-15T07:55:36Z</time>
      </trkpt>
      <trkpt lat="42.88241" lon="-0.19235">
        <ele>1962.4</ele>
        <time>2026-07-15T07:55:37Z</time>
      </trkpt>
      <trkpt lat="42.88241" lon="-0.19235">
        <ele>1963.4</ele>
        <time>2026-07-15T07:55:38Z</time>
      </trkpt>
      <trkpt lat="42.8824" lon="-0.19235">
        <ele>1963.4</ele>
        <time>2026-07-15T07:55:39Z</time>
      </trkpt>
      <trkpt lat="42.8824" lon="-0.19235">
        <ele>1963.4</ele>
        <time>2026-07-15T07:55:40Z</time>
      </trkpt>
      <trkpt lat="42.88239" lon="-0.19234">
        <ele>1963.4</ele>
        <time>2026-07-15T07:55:41Z</time>
      </trkpt>
      <trkpt lat="42.88239" lon="-0.19234">
        <ele>1964.4</ele>
        <time>2026-07-15T07:55:42Z</time>
      </trkpt>
      <trkpt lat="42.88238" lon="-0.19234">
        <ele>1964.4</ele>
        <time>2026-07-15T07:55:43Z</time>
      </trkpt>
      <trkpt lat="42.88238" lon="-0.19233">
        <ele>1964.4</ele>
        <time>2026-07-15T07:55:44Z</time>
      </trkpt>
      <trkpt lat="42.88238" lon="-0.19233">
        <ele>1965.4</ele>
        <time>2026-07-15T07:55:45Z</time>
      </trkpt>
      <trkpt lat="42.88237" lon="-0.19233">
        <ele>1965.4</ele>
        <time>2026-07-15T07:55:46Z</time>
      </trkpt>
      <trkpt lat="42.88237" lon="-0.19233">
        <ele>1965.4</ele>
        <time>2026-07-15T07:55:47Z</time>
      </trkpt>
      <trkpt lat="42.88237" lon="-0.19233">
        <ele>1965.4</ele>
        <time>2026-07-15T07:55:48Z</time>
      </trkpt>
      <trkpt lat="42.88237" lon="-0.19233">
        <ele>1965.4</ele>
        <time>2026-07-15T07:55:49Z</time>
      </trkpt>
      <trkpt lat="42.88236" lon="-0.19233">
        <ele>1966.4</ele>
        <time>2026-07-15T07:55:50Z</time>
      </trkpt>
      <trkpt lat="42.88236" lon="-0.19233">
        <ele>1966.4</ele>
        <time>2026-07-15T07:55:51Z</time>
      </trkpt>
      <trkpt lat="42.88236" lon="-0.19233">
        <ele>1966.4</ele>
        <time>2026-07-15T07:55:52Z</time>
      </trkpt>
      <trkpt lat="42.88235" lon="-0.19233">
        <ele>1966.4</ele>
        <time>2026-07-15T07:55:52Z</time>
      </trkpt>
      <trkpt lat="42.88235" lon="-0.19233">
        <ele>1966.4</ele>
        <time>2026-07-15T07:55:53Z</time>
      </trkpt>
      <trkpt lat="42.88235" lon="-0.19233">
        <ele>1966.4</ele>
        <time>2026-07-15T07:55:54Z</time>
      </trkpt>
      <trkpt lat="42.88235" lon="-0.19232">
        <ele>1966.4</ele>
        <time>2026-07-15T07:55:54Z</time>
      </trkpt>
      <trkpt lat="42.88235" lon="-0.19232">
        <ele>1966.4</ele>
        <time>2026-07-15T07:55:55Z</time>
      </trkpt>
      <trkpt lat="42.88235" lon="-0.19232">
        <ele>1966.4</ele>
        <time>2026-07-15T07:55:56Z</time>
      </trkpt>
      <trkpt lat="42.88235" lon="-0.19232">
        <ele>1966.4</ele>
        <time>2026-07-15T07:55:57Z</time>
      </trkpt>
      <trkpt lat="42.88235" lon="-0.19231">
        <ele>1966.4</ele>
        <time>2026-07-15T07:55:58Z</time>
      </trkpt>
      <trkpt lat="42.88235" lon="-0.19231">
        <ele>1966.4</ele>
        <time>2026-07-15T07:55:59Z</time>
      </trkpt>
      <trkpt lat="42.88235" lon="-0.19231">
        <ele>1966.4</ele>
        <time>2026-07-15T07:56:00Z</time>
      </trkpt>
      <trkpt lat="42.88235" lon="-0.19231">
        <ele>1966.4</ele>
        <time>2026-07-15T07:56:01Z</time>
      </trkpt>
      <trkpt lat="42.88234" lon="-0.1923">
        <ele>1966.4</ele>
        <time>2026-07-15T07:56:02Z</time>
      </trkpt>
      <trkpt lat="42.88234" lon="-0.1923">
        <ele>1966.4</ele>
        <time>2026-07-15T07:56:02Z</time>
      </trkpt>
      <trkpt lat="42.88234" lon="-0.19229">
        <ele>1966.4</ele>
        <time>2026-07-15T07:56:03Z</time>
      </trkpt>
      <trkpt lat="42.88235" lon="-0.19229">
        <ele>1966.4</ele>
        <time>2026-07-15T07:56:04Z</time>
      </trkpt>
      <trkpt lat="42.88235" lon="-0.19229">
        <ele>1966.4</ele>
        <time>2026-07-15T07:56:04Z</time>
      </trkpt>
      <trkpt lat="42.88235" lon="-0.19229">
        <ele>1966.4</ele>
        <time>2026-07-15T07:56:05Z</time>
      </trkpt>
      <trkpt lat="42.88234" lon="-0.19228">
        <ele>1966.4</ele>
        <time>2026-07-15T07:56:05Z</time>
      </trkpt>
      <trkpt lat="42.88234" lon="-0.19228">
        <ele>1966.4</ele>
        <time>2026-07-15T07:56:06Z</time>
      </trkpt>
      <trkpt lat="42.88234" lon="-0.19229">
        <ele>1966.4</ele>
        <time>2026-07-15T07:56:07Z</time>
      </trkpt>
      <trkpt lat="42.88233" lon="-0.19229">
        <ele>1967.4</ele>
        <time>2026-07-15T07:56:08Z</time>
      </trkpt>
      <trkpt lat="42.88233" lon="-0.19229">
        <ele>1967.4</ele>
        <time>2026-07-15T07:56:09Z</time>
      </trkpt>
      <trkpt lat="42.88232" lon="-0.19229">
        <ele>1967.4</ele>
        <time>2026-07-15T07:56:10Z</time>
      </trkpt>
      <trkpt lat="42.88232" lon="-0.19229">
        <ele>1967.4</ele>
        <time>2026-07-15T07:56:11Z</time>
      </trkpt>
      <trkpt lat="42.88231" lon="-0.1923">
        <ele>1968.4</ele>
        <time>2026-07-15T07:56:12Z</time>
      </trkpt>
      <trkpt lat="42.88231" lon="-0.1923">
        <ele>1968.4</ele>
        <time>2026-07-15T07:56:13Z</time>
      </trkpt>
      <trkpt lat="42.88231" lon="-0.1923">
        <ele>1968.4</ele>
        <time>2026-07-15T07:56:14Z</time>
      </trkpt>
      <trkpt lat="42.88231" lon="-0.1923">
        <ele>1968.4</ele>
        <time>2026-07-15T07:56:15Z</time>
      </trkpt>
      <trkpt lat="42.8823" lon="-0.1923">
        <ele>1968.4</ele>
        <time>2026-07-15T07:56:16Z</time>
      </trkpt>
      <trkpt lat="42.8823" lon="-0.19229">
        <ele>1969.4</ele>
        <time>2026-07-15T07:56:17Z</time>
      </trkpt>
      <trkpt lat="42.8823" lon="-0.19229">
        <ele>1969.4</ele>
        <time>2026-07-15T07:56:18Z</time>
      </trkpt>
      <trkpt lat="42.8823" lon="-0.19229">
        <ele>1969.4</ele>
        <time>2026-07-15T07:56:19Z</time>
      </trkpt>
      <trkpt lat="42.8823" lon="-0.19229">
        <ele>1969.4</ele>
        <time>2026-07-15T07:56:20Z</time>
      </trkpt>
      <trkpt lat="42.8823" lon="-0.19229">
        <ele>1969.4</ele>
        <time>2026-07-15T07:56:21Z</time>
      </trkpt>
      <trkpt lat="42.8823" lon="-0.19229">
        <ele>1970.4</ele>
        <time>2026-07-15T07:56:22Z</time>
      </trkpt>
      <trkpt lat="42.88229" lon="-0.19229">
        <ele>1970.4</ele>
        <time>2026-07-15T07:56:23Z</time>
      </trkpt>
      <trkpt lat="42.88229" lon="-0.19229">
        <ele>1970.4</ele>
        <time>2026-07-15T07:56:24Z</time>
      </trkpt>
      <trkpt lat="42.88229" lon="-0.19229">
        <ele>1970.4</ele>
        <time>2026-07-15T07:56:25Z</time>
      </trkpt>
      <trkpt lat="42.88229" lon="-0.19229">
        <ele>1970.4</ele>
        <time>2026-07-15T07:56:26Z</time>
      </trkpt>
      <trkpt lat="42.88228" lon="-0.19229">
        <ele>1971.4</ele>
        <time>2026-07-15T07:56:27Z</time>
      </trkpt>
      <trkpt lat="42.88228" lon="-0.19228">
        <ele>1971.4</ele>
        <time>2026-07-15T07:56:28Z</time>
      </trkpt>
      <trkpt lat="42.88227" lon="-0.19228">
        <ele>1971.4</ele>
        <time>2026-07-15T07:56:29Z</time>
      </trkpt>
      <trkpt lat="42.88227" lon="-0.19227">
        <ele>1971.4</ele>
        <time>2026-07-15T07:56:30Z</time>
      </trkpt>
      <trkpt lat="42.88226" lon="-0.19227">
        <ele>1972.4</ele>
        <time>2026-07-15T07:56:31Z</time>
      </trkpt>
      <trkpt lat="42.88226" lon="-0.19227">
        <ele>1972.4</ele>
        <time>2026-07-15T07:56:32Z</time>
      </trkpt>
      <trkpt lat="42.88226" lon="-0.19227">
        <ele>1972.4</ele>
        <time>2026-07-15T07:56:33Z</time>
      </trkpt>
      <trkpt lat="42.88225" lon="-0.19227">
        <ele>1972.4</ele>
        <time>2026-07-15T07:56:34Z</time>
      </trkpt>
      <trkpt lat="42.88225" lon="-0.19227">
        <ele>1972.4</ele>
        <time>2026-07-15T07:56:35Z</time>
      </trkpt>
      <trkpt lat="42.88225" lon="-0.19226">
        <ele>1972.4</ele>
        <time>2026-07-15T07:56:36Z</time>
      </trkpt>
      <trkpt lat="42.88224" lon="-0.19226">
        <ele>1972.4</ele>
        <time>2026-07-15T07:56:37Z</time>
      </trkpt>
      <trkpt lat="42.88223" lon="-0.19226">
        <ele>1972.4</ele>
        <time>2026-07-15T07:56:38Z</time>
      </trkpt>
      <trkpt lat="42.88223" lon="-0.19226">
        <ele>1972.4</ele>
        <time>2026-07-15T07:56:39Z</time>
      </trkpt>
      <trkpt lat="42.88222" lon="-0.19226">
        <ele>1973.4</ele>
        <time>2026-07-15T07:56:40Z</time>
      </trkpt>
      <trkpt lat="42.88222" lon="-0.19226">
        <ele>1973.4</ele>
        <time>2026-07-15T07:56:41Z</time>
      </trkpt>
      <trkpt lat="42.88222" lon="-0.19225">
        <ele>1973.4</ele>
        <time>2026-07-15T07:56:41Z</time>
      </trkpt>
      <trkpt lat="42.88221" lon="-0.19225">
        <ele>1974.4</ele>
        <time>2026-07-15T07:56:42Z</time>
      </trkpt>
      <trkpt lat="42.88221" lon="-0.19225">
        <ele>1974.4</ele>
        <time>2026-07-15T07:56:43Z</time>
      </trkpt>
      <trkpt lat="42.8822" lon="-0.19225">
        <ele>1974.4</ele>
        <time>2026-07-15T07:56:44Z</time>
      </trkpt>
      <trkpt lat="42.88219" lon="-0.19225">
        <ele>1974.4</ele>
        <time>2026-07-15T07:56:45Z</time>
      </trkpt>
      <trkpt lat="42.88219" lon="-0.19225">
        <ele>1974.4</ele>
        <time>2026-07-15T07:56:46Z</time>
      </trkpt>
      <trkpt lat="42.88219" lon="-0.19225">
        <ele>1975.4</ele>
        <time>2026-07-15T07:56:47Z</time>
      </trkpt>
      <trkpt lat="42.88218" lon="-0.19225">
        <ele>1976.4</ele>
        <time>2026-07-15T07:56:48Z</time>
      </trkpt>
      <trkpt lat="42.88218" lon="-0.19225">
        <ele>1976.4</ele>
        <time>2026-07-15T07:56:48Z</time>
      </trkpt>
      <trkpt lat="42.88218" lon="-0.19225">
        <ele>1976.4</ele>
        <time>2026-07-15T07:56:49Z</time>
      </trkpt>
      <trkpt lat="42.88218" lon="-0.19225">
        <ele>1976.4</ele>
        <time>2026-07-15T07:56:49Z</time>
      </trkpt>
      <trkpt lat="42.88218" lon="-0.19225">
        <ele>1976.4</ele>
        <time>2026-07-15T07:56:50Z</time>
      </trkpt>
      <trkpt lat="42.88218" lon="-0.19225">
        <ele>1977.4</ele>
        <time>2026-07-15T07:56:51Z</time>
      </trkpt>
      <trkpt lat="42.88217" lon="-0.19225">
        <ele>1977.4</ele>
        <time>2026-07-15T07:56:52Z</time>
      </trkpt>
      <trkpt lat="42.88217" lon="-0.19225">
        <ele>1977.4</ele>
        <time>2026-07-15T07:56:53Z</time>
      </trkpt>
      <trkpt lat="42.88217" lon="-0.19225">
        <ele>1977.4</ele>
        <time>2026-07-15T07:56:54Z</time>
      </trkpt>
      <trkpt lat="42.88217" lon="-0.19225">
        <ele>1977.4</ele>
        <time>2026-07-15T07:56:55Z</time>
      </trkpt>
      <trkpt lat="42.88217" lon="-0.19225">
        <ele>1977.4</ele>
        <time>2026-07-15T07:56:56Z</time>
      </trkpt>
      <trkpt lat="42.88217" lon="-0.19224">
        <ele>1977.4</ele>
        <time>2026-07-15T07:56:57Z</time>
      </trkpt>
      <trkpt lat="42.88216" lon="-0.19224">
        <ele>1978.4</ele>
        <time>2026-07-15T07:56:58Z</time>
      </trkpt>
      <trkpt lat="42.88216" lon="-0.19223">
        <ele>1978.4</ele>
        <time>2026-07-15T07:56:59Z</time>
      </trkpt>
      <trkpt lat="42.88215" lon="-0.19223">
        <ele>1979.4</ele>
        <time>2026-07-15T07:57:00Z</time>
      </trkpt>
      <trkpt lat="42.88214" lon="-0.19223">
        <ele>1979.4</ele>
        <time>2026-07-15T07:57:01Z</time>
      </trkpt>
      <trkpt lat="42.88214" lon="-0.19223">
        <ele>1979.4</ele>
        <time>2026-07-15T07:57:02Z</time>
      </trkpt>
      <trkpt lat="42.88213" lon="-0.19223">
        <ele>1980.4</ele>
        <time>2026-07-15T07:57:03Z</time>
      </trkpt>
      <trkpt lat="42.88212" lon="-0.19223">
        <ele>1980.4</ele>
        <time>2026-07-15T07:57:03Z</time>
      </trkpt>
      <trkpt lat="42.88212" lon="-0.19223">
        <ele>1980.4</ele>
        <time>2026-07-15T07:57:04Z</time>
      </trkpt>
      <trkpt lat="42.88211" lon="-0.19223">
        <ele>1980.4</ele>
        <time>2026-07-15T07:57:05Z</time>
      </trkpt>
      <trkpt lat="42.88211" lon="-0.19223">
        <ele>1980.4</ele>
        <time>2026-07-15T07:57:06Z</time>
      </trkpt>
      <trkpt lat="42.88211" lon="-0.19223">
        <ele>1980.4</ele>
        <time>2026-07-15T07:57:07Z</time>
      </trkpt>
      <trkpt lat="42.8821" lon="-0.19223">
        <ele>1980.4</ele>
        <time>2026-07-15T07:57:08Z</time>
      </trkpt>
      <trkpt lat="42.8821" lon="-0.19223">
        <ele>1981.4</ele>
        <time>2026-07-15T07:57:08Z</time>
      </trkpt>
      <trkpt lat="42.8821" lon="-0.19223">
        <ele>1981.4</ele>
        <time>2026-07-15T07:57:09Z</time>
      </trkpt>
      <trkpt lat="42.88209" lon="-0.19224">
        <ele>1980.4</ele>
        <time>2026-07-15T07:57:10Z</time>
      </trkpt>
      <trkpt lat="42.88209" lon="-0.19224">
        <ele>1980.4</ele>
        <time>2026-07-15T07:57:11Z</time>
      </trkpt>
      <trkpt lat="42.88208" lon="-0.19223">
        <ele>1980.4</ele>
        <time>2026-07-15T07:57:12Z</time>
      </trkpt>
      <trkpt lat="42.88207" lon="-0.19223">
        <ele>1980.4</ele>
        <time>2026-07-15T07:57:13Z</time>
      </trkpt>
      <trkpt lat="42.88207" lon="-0.19223">
        <ele>1980.4</ele>
        <time>2026-07-15T07:57:14Z</time>
      </trkpt>
      <trkpt lat="42.88207" lon="-0.19222">
        <ele>1980.4</ele>
        <time>2026-07-15T07:57:15Z</time>
      </trkpt>
      <trkpt lat="42.88206" lon="-0.19222">
        <ele>1980.4</ele>
        <time>2026-07-15T07:57:16Z</time>
      </trkpt>
      <trkpt lat="42.88206" lon="-0.19222">
        <ele>1980.4</ele>
        <time>2026-07-15T07:57:17Z</time>
      </trkpt>
      <trkpt lat="42.88206" lon="-0.19223">
        <ele>1980.4</ele>
        <time>2026-07-15T07:57:18Z</time>
      </trkpt>
      <trkpt lat="42.88206" lon="-0.19223">
        <ele>1980.4</ele>
        <time>2026-07-15T07:57:19Z</time>
      </trkpt>
      <trkpt lat="42.88206" lon="-0.19223">
        <ele>1980.4</ele>
        <time>2026-07-15T07:57:20Z</time>
      </trkpt>
      <trkpt lat="42.88206" lon="-0.19223">
        <ele>1980.4</ele>
        <time>2026-07-15T07:57:21Z</time>
      </trkpt>
      <trkpt lat="42.88206" lon="-0.19223">
        <ele>1980.4</ele>
        <time>2026-07-15T07:57:22Z</time>
      </trkpt>
      <trkpt lat="42.88206" lon="-0.19223">
        <ele>1980.4</ele>
        <time>2026-07-15T07:57:23Z</time>
      </trkpt>
      <trkpt lat="42.88206" lon="-0.19223">
        <ele>1980.4</ele>
        <time>2026-07-15T07:57:23Z</time>
      </trkpt>
      <trkpt lat="42.88205" lon="-0.19223">
        <ele>1980.4</ele>
        <time>2026-07-15T07:57:24Z</time>
      </trkpt>
      <trkpt lat="42.88205" lon="-0.19223">
        <ele>1980.4</ele>
        <time>2026-07-15T07:57:24Z</time>
      </trkpt>
      <trkpt lat="42.88205" lon="-0.19223">
        <ele>1980.4</ele>
        <time>2026-07-15T07:57:25Z</time>
      </trkpt>
      <trkpt lat="42.88205" lon="-0.19223">
        <ele>1980.4</ele>
        <time>2026-07-15T07:57:25Z</time>
      </trkpt>
      <trkpt lat="42.88204" lon="-0.19223">
        <ele>1979.4</ele>
        <time>2026-07-15T07:57:26Z</time>
      </trkpt>
      <trkpt lat="42.88204" lon="-0.19224">
        <ele>1979.4</ele>
        <time>2026-07-15T07:57:27Z</time>
      </trkpt>
      <trkpt lat="42.88204" lon="-0.19224">
        <ele>1979.4</ele>
        <time>2026-07-15T07:57:28Z</time>
      </trkpt>
      <trkpt lat="42.88203" lon="-0.19225">
        <ele>1980.4</ele>
        <time>2026-07-15T07:57:29Z</time>
      </trkpt>
      <trkpt lat="42.88203" lon="-0.19225">
        <ele>1981.4</ele>
        <time>2026-07-15T07:57:30Z</time>
      </trkpt>
      <trkpt lat="42.88203" lon="-0.19226">
        <ele>1980.4</ele>
        <time>2026-07-15T07:57:31Z</time>
      </trkpt>
      <trkpt lat="42.88203" lon="-0.19226">
        <ele>1979.4</ele>
        <time>2026-07-15T07:57:32Z</time>
      </trkpt>
      <trkpt lat="42.88202" lon="-0.19227">
        <ele>1979.4</ele>
        <time>2026-07-15T07:57:33Z</time>
      </trkpt>
      <trkpt lat="42.88202" lon="-0.19227">
        <ele>1980.4</ele>
        <time>2026-07-15T07:57:33Z</time>
      </trkpt>
      <trkpt lat="42.88202" lon="-0.19226">
        <ele>1979.4</ele>
        <time>2026-07-15T07:57:34Z</time>
      </trkpt>
      <trkpt lat="42.88201" lon="-0.19226">
        <ele>1981.4</ele>
        <time>2026-07-15T07:57:35Z</time>
      </trkpt>
      <trkpt lat="42.88201" lon="-0.19225">
        <ele>1981.4</ele>
        <time>2026-07-15T07:57:36Z</time>
      </trkpt>
      <trkpt lat="42.882" lon="-0.19225">
        <ele>1981.4</ele>
        <time>2026-07-15T07:57:37Z</time>
      </trkpt>
      <trkpt lat="42.882" lon="-0.19224">
        <ele>1981.4</ele>
        <time>2026-07-15T07:57:38Z</time>
      </trkpt>
      <trkpt lat="42.88199" lon="-0.19223">
        <ele>1980.4</ele>
        <time>2026-07-15T07:57:39Z</time>
      </trkpt>
      <trkpt lat="42.88199" lon="-0.19223">
        <ele>1980.4</ele>
        <time>2026-07-15T07:57:40Z</time>
      </trkpt>
      <trkpt lat="42.88199" lon="-0.19222">
        <ele>1980.4</ele>
        <time>2026-07-15T07:57:41Z</time>
      </trkpt>
      <trkpt lat="42.88198" lon="-0.19222">
        <ele>1980.4</ele>
        <time>2026-07-15T07:57:41Z</time>
      </trkpt>
      <trkpt lat="42.88198" lon="-0.19221">
        <ele>1979.4</ele>
        <time>2026-07-15T07:57:42Z</time>
      </trkpt>
      <trkpt lat="42.88198" lon="-0.1922">
        <ele>1979.4</ele>
        <time>2026-07-15T07:57:43Z</time>
      </trkpt>
      <trkpt lat="42.88198" lon="-0.1922">
        <ele>1979.4</ele>
        <time>2026-07-15T07:57:44Z</time>
      </trkpt>
      <trkpt lat="42.88198" lon="-0.19219">
        <ele>1979.4</ele>
        <time>2026-07-15T07:57:45Z</time>
      </trkpt>
      <trkpt lat="42.88198" lon="-0.19218">
        <ele>1979.4</ele>
        <time>2026-07-15T07:57:46Z</time>
      </trkpt>
      <trkpt lat="42.88198" lon="-0.19217">
        <ele>1980.4</ele>
        <time>2026-07-15T07:57:47Z</time>
      </trkpt>
      <trkpt lat="42.88198" lon="-0.19217">
        <ele>1981.4</ele>
        <time>2026-07-15T07:57:47Z</time>
      </trkpt>
      <trkpt lat="42.88198" lon="-0.19217">
        <ele>1981.4</ele>
        <time>2026-07-15T07:57:48Z</time>
      </trkpt>
      <trkpt lat="42.88198" lon="-0.19216">
        <ele>1981.4</ele>
        <time>2026-07-15T07:57:49Z</time>
      </trkpt>
      <trkpt lat="42.88198" lon="-0.19215">
        <ele>1981.4</ele>
        <time>2026-07-15T07:57:50Z</time>
      </trkpt>
      <trkpt lat="42.88198" lon="-0.19215">
        <ele>1981.4</ele>
        <time>2026-07-15T07:57:51Z</time>
      </trkpt>
      <trkpt lat="42.88198" lon="-0.19214">
        <ele>1981.4</ele>
        <time>2026-07-15T07:57:52Z</time>
      </trkpt>
      <trkpt lat="42.88197" lon="-0.19214">
        <ele>1980.4</ele>
        <time>2026-07-15T07:57:53Z</time>
      </trkpt>
      <trkpt lat="42.88197" lon="-0.19213">
        <ele>1982.4</ele>
        <time>2026-07-15T07:57:53Z</time>
      </trkpt>
      <trkpt lat="42.88197" lon="-0.19213">
        <ele>1982.4</ele>
        <time>2026-07-15T07:57:54Z</time>
      </trkpt>
      <trkpt lat="42.88196" lon="-0.19213">
        <ele>1982.4</ele>
        <time>2026-07-15T07:57:55Z</time>
      </trkpt>
      <trkpt lat="42.88196" lon="-0.19213">
        <ele>1982.4</ele>
        <time>2026-07-15T07:57:56Z</time>
      </trkpt>
      <trkpt lat="42.88196" lon="-0.19212">
        <ele>1982.4</ele>
        <time>2026-07-15T07:57:57Z</time>
      </trkpt>
      <trkpt lat="42.88196" lon="-0.19211">
        <ele>1982.4</ele>
        <time>2026-07-15T07:57:58Z</time>
      </trkpt>
      <trkpt lat="42.88197" lon="-0.1921">
        <ele>1982.4</ele>
        <time>2026-07-15T07:57:59Z</time>
      </trkpt>
      <trkpt lat="42.88197" lon="-0.1921">
        <ele>1982.4</ele>
        <time>2026-07-15T07:58:00Z</time>
      </trkpt>
      <trkpt lat="42.88197" lon="-0.19209">
        <ele>1982.4</ele>
        <time>2026-07-15T07:58:01Z</time>
      </trkpt>
      <trkpt lat="42.88197" lon="-0.19208">
        <ele>1982.4</ele>
        <time>2026-07-15T07:58:02Z</time>
      </trkpt>
      <trkpt lat="42.88197" lon="-0.19208">
        <ele>1982.4</ele>
        <time>2026-07-15T07:58:03Z</time>
      </trkpt>
      <trkpt lat="42.88197" lon="-0.19208">
        <ele>1982.4</ele>
        <time>2026-07-15T07:58:04Z</time>
      </trkpt>
      <trkpt lat="42.88197" lon="-0.19207">
        <ele>1982.4</ele>
        <time>2026-07-15T07:58:05Z</time>
      </trkpt>
      <trkpt lat="42.88197" lon="-0.19207">
        <ele>1982.4</ele>
        <time>2026-07-15T07:58:06Z</time>
      </trkpt>
      <trkpt lat="42.88197" lon="-0.19206">
        <ele>1981.4</ele>
        <time>2026-07-15T07:58:07Z</time>
      </trkpt>
      <trkpt lat="42.88197" lon="-0.19206">
        <ele>1982.4</ele>
        <time>2026-07-15T07:58:07Z</time>
      </trkpt>
      <trkpt lat="42.88197" lon="-0.19205">
        <ele>1983.4</ele>
        <time>2026-07-15T07:58:08Z</time>
      </trkpt>
      <trkpt lat="42.88197" lon="-0.19204">
        <ele>1982.4</ele>
        <time>2026-07-15T07:58:09Z</time>
      </trkpt>
      <trkpt lat="42.88196" lon="-0.19204">
        <ele>1983.4</ele>
        <time>2026-07-15T07:58:10Z</time>
      </trkpt>
      <trkpt lat="42.88196" lon="-0.19203">
        <ele>1984.4</ele>
        <time>2026-07-15T07:58:11Z</time>
      </trkpt>
      <trkpt lat="42.88196" lon="-0.19203">
        <ele>1984.4</ele>
        <time>2026-07-15T07:58:12Z</time>
      </trkpt>
      <trkpt lat="42.88196" lon="-0.19202">
        <ele>1984.4</ele>
        <time>2026-07-15T07:58:13Z</time>
      </trkpt>
      <trkpt lat="42.88196" lon="-0.19202">
        <ele>1984.4</ele>
        <time>2026-07-15T07:58:14Z</time>
      </trkpt>
      <trkpt lat="42.88195" lon="-0.19202">
        <ele>1985.4</ele>
        <time>2026-07-15T07:58:15Z</time>
      </trkpt>
      <trkpt lat="42.88195" lon="-0.19201">
        <ele>1985.4</ele>
        <time>2026-07-15T07:58:16Z</time>
      </trkpt>
      <trkpt lat="42.88195" lon="-0.19201">
        <ele>1985.4</ele>
        <time>2026-07-15T07:58:17Z</time>
      </trkpt>
      <trkpt lat="42.88194" lon="-0.19201">
        <ele>1985.4</ele>
        <time>2026-07-15T07:58:18Z</time>
      </trkpt>
      <trkpt lat="42.88194" lon="-0.19201">
        <ele>1985.4</ele>
        <time>2026-07-15T07:58:18Z</time>
      </trkpt>
      <trkpt lat="42.88194" lon="-0.192">
        <ele>1985.4</ele>
        <time>2026-07-15T07:58:19Z</time>
      </trkpt>
      <trkpt lat="42.88193" lon="-0.192">
        <ele>1984.4</ele>
        <time>2026-07-15T07:58:20Z</time>
      </trkpt>
      <trkpt lat="42.88193" lon="-0.192">
        <ele>1984.4</ele>
        <time>2026-07-15T07:58:21Z</time>
      </trkpt>
      <trkpt lat="42.88192" lon="-0.19199">
        <ele>1984.4</ele>
        <time>2026-07-15T07:58:22Z</time>
      </trkpt>
      <trkpt lat="42.88192" lon="-0.19199">
        <ele>1985.4</ele>
        <time>2026-07-15T07:58:23Z</time>
      </trkpt>
      <trkpt lat="42.88192" lon="-0.19199">
        <ele>1985.4</ele>
        <time>2026-07-15T07:58:24Z</time>
      </trkpt>
      <trkpt lat="42.88191" lon="-0.19199">
        <ele>1985.4</ele>
        <time>2026-07-15T07:58:25Z</time>
      </trkpt>
      <trkpt lat="42.88191" lon="-0.19198">
        <ele>1985.4</ele>
        <time>2026-07-15T07:58:26Z</time>
      </trkpt>
      <trkpt lat="42.8819" lon="-0.19198">
        <ele>1987.4</ele>
        <time>2026-07-15T07:58:27Z</time>
      </trkpt>
      <trkpt lat="42.8819" lon="-0.19197">
        <ele>1987.4</ele>
        <time>2026-07-15T07:58:28Z</time>
      </trkpt>
      <trkpt lat="42.8819" lon="-0.19197">
        <ele>1987.4</ele>
        <time>2026-07-15T07:58:29Z</time>
      </trkpt>
      <trkpt lat="42.8819" lon="-0.19196">
        <ele>1988.4</ele>
        <time>2026-07-15T07:58:30Z</time>
      </trkpt>
      <trkpt lat="42.8819" lon="-0.19196">
        <ele>1988.4</ele>
        <time>2026-07-15T07:58:30Z</time>
      </trkpt>
      <trkpt lat="42.88191" lon="-0.19196">
        <ele>1989.4</ele>
        <time>2026-07-15T07:58:31Z</time>
      </trkpt>
      <trkpt lat="42.88191" lon="-0.19195">
        <ele>1988.4</ele>
        <time>2026-07-15T07:58:32Z</time>
      </trkpt>
      <trkpt lat="42.88191" lon="-0.19194">
        <ele>1988.4</ele>
        <time>2026-07-15T07:58:33Z</time>
      </trkpt>
      <trkpt lat="42.88191" lon="-0.19193">
        <ele>1988.4</ele>
        <time>2026-07-15T07:58:34Z</time>
      </trkpt>
      <trkpt lat="42.88191" lon="-0.19193">
        <ele>1988.4</ele>
        <time>2026-07-15T07:58:35Z</time>
      </trkpt>
      <trkpt lat="42.88191" lon="-0.19192">
        <ele>1988.4</ele>
        <time>2026-07-15T07:58:36Z</time>
      </trkpt>
      <trkpt lat="42.88191" lon="-0.19191">
        <ele>1988.4</ele>
        <time>2026-07-15T07:58:37Z</time>
      </trkpt>
      <trkpt lat="42.88191" lon="-0.19191">
        <ele>1986.4</ele>
        <time>2026-07-15T07:58:38Z</time>
      </trkpt>
      <trkpt lat="42.88191" lon="-0.1919">
        <ele>1987.4</ele>
        <time>2026-07-15T07:58:39Z</time>
      </trkpt>
      <trkpt lat="42.88191" lon="-0.1919">
        <ele>1987.4</ele>
        <time>2026-07-15T07:58:40Z</time>
      </trkpt>
      <trkpt lat="42.88191" lon="-0.1919">
        <ele>1987.4</ele>
        <time>2026-07-15T07:58:41Z</time>
      </trkpt>
      <trkpt lat="42.8819" lon="-0.1919">
        <ele>1988.4</ele>
        <time>2026-07-15T07:58:42Z</time>
      </trkpt>
      <trkpt lat="42.8819" lon="-0.19189">
        <ele>1988.4</ele>
        <time>2026-07-15T07:58:43Z</time>
      </trkpt>
      <trkpt lat="42.88189" lon="-0.19189">
        <ele>1988.4</ele>
        <time>2026-07-15T07:58:44Z</time>
      </trkpt>
      <trkpt lat="42.88188" lon="-0.19189">
        <ele>1989.4</ele>
        <time>2026-07-15T07:58:45Z</time>
      </trkpt>
      <trkpt lat="42.88188" lon="-0.1919">
        <ele>1990.4</ele>
        <time>2026-07-15T07:58:46Z</time>
      </trkpt>
      <trkpt lat="42.88187" lon="-0.1919">
        <ele>1990.4</ele>
        <time>2026-07-15T07:58:46Z</time>
      </trkpt>
      <trkpt lat="42.88187" lon="-0.1919">
        <ele>1991.4</ele>
        <time>2026-07-15T07:58:47Z</time>
      </trkpt>
      <trkpt lat="42.88186" lon="-0.1919">
        <ele>1991.4</ele>
        <time>2026-07-15T07:58:48Z</time>
      </trkpt>
      <trkpt lat="42.88186" lon="-0.1919">
        <ele>1991.4</ele>
        <time>2026-07-15T07:58:49Z</time>
      </trkpt>
      <trkpt lat="42.88186" lon="-0.19189">
        <ele>1991.4</ele>
        <time>2026-07-15T07:58:50Z</time>
      </trkpt>
      <trkpt lat="42.88185" lon="-0.19189">
        <ele>1991.4</ele>
        <time>2026-07-15T07:58:51Z</time>
      </trkpt>
      <trkpt lat="42.88185" lon="-0.19188">
        <ele>1991.4</ele>
        <time>2026-07-15T07:58:52Z</time>
      </trkpt>
      <trkpt lat="42.88185" lon="-0.19187">
        <ele>1991.4</ele>
        <time>2026-07-15T07:58:53Z</time>
      </trkpt>
      <trkpt lat="42.88185" lon="-0.19186">
        <ele>1992.4</ele>
        <time>2026-07-15T07:58:54Z</time>
      </trkpt>
      <trkpt lat="42.88185" lon="-0.19186">
        <ele>1992.4</ele>
        <time>2026-07-15T07:58:55Z</time>
      </trkpt>
      <trkpt lat="42.88186" lon="-0.19185">
        <ele>1992.4</ele>
        <time>2026-07-15T07:58:56Z</time>
      </trkpt>
      <trkpt lat="42.88186" lon="-0.19184">
        <ele>1992.4</ele>
        <time>2026-07-15T07:58:57Z</time>
      </trkpt>
      <trkpt lat="42.88187" lon="-0.19184">
        <ele>1993.4</ele>
        <time>2026-07-15T07:58:58Z</time>
      </trkpt>
      <trkpt lat="42.88187" lon="-0.19184">
        <ele>1993.4</ele>
        <time>2026-07-15T07:58:58Z</time>
      </trkpt>
      <trkpt lat="42.88187" lon="-0.19183">
        <ele>1993.4</ele>
        <time>2026-07-15T07:58:59Z</time>
      </trkpt>
      <trkpt lat="42.88188" lon="-0.19183">
        <ele>1992.4</ele>
        <time>2026-07-15T07:59:00Z</time>
      </trkpt>
      <trkpt lat="42.88188" lon="-0.19183">
        <ele>1992.4</ele>
        <time>2026-07-15T07:59:00Z</time>
      </trkpt>
      <trkpt lat="42.88188" lon="-0.19182">
        <ele>1992.4</ele>
        <time>2026-07-15T07:59:01Z</time>
      </trkpt>
      <trkpt lat="42.88189" lon="-0.19181">
        <ele>1993.4</ele>
        <time>2026-07-15T07:59:02Z</time>
      </trkpt>
      <trkpt lat="42.88189" lon="-0.19181">
        <ele>1992.4</ele>
        <time>2026-07-15T07:59:03Z</time>
      </trkpt>
      <trkpt lat="42.8819" lon="-0.1918">
        <ele>1991.4</ele>
        <time>2026-07-15T07:59:03Z</time>
      </trkpt>
      <trkpt lat="42.8819" lon="-0.19179">
        <ele>1992.4</ele>
        <time>2026-07-15T07:59:04Z</time>
      </trkpt>
      <trkpt lat="42.88191" lon="-0.19179">
        <ele>1992.4</ele>
        <time>2026-07-15T07:59:05Z</time>
      </trkpt>
      <trkpt lat="42.88191" lon="-0.19178">
        <ele>1992.4</ele>
        <time>2026-07-15T07:59:06Z</time>
      </trkpt>
      <trkpt lat="42.88192" lon="-0.19177">
        <ele>1992.4</ele>
        <time>2026-07-15T07:59:07Z</time>
      </trkpt>
      <trkpt lat="42.88192" lon="-0.19177">
        <ele>1993.4</ele>
        <time>2026-07-15T07:59:08Z</time>
      </trkpt>
      <trkpt lat="42.88192" lon="-0.19177">
        <ele>1992.4</ele>
        <time>2026-07-15T07:59:09Z</time>
      </trkpt>
      <trkpt lat="42.88192" lon="-0.19177">
        <ele>1993.4</ele>
        <time>2026-07-15T07:59:09Z</time>
      </trkpt>
      <trkpt lat="42.88192" lon="-0.19176">
        <ele>1993.4</ele>
        <time>2026-07-15T07:59:10Z</time>
      </trkpt>
      <trkpt lat="42.88192" lon="-0.19175">
        <ele>1993.4</ele>
        <time>2026-07-15T07:59:11Z</time>
      </trkpt>
      <trkpt lat="42.88192" lon="-0.19175">
        <ele>1993.4</ele>
        <time>2026-07-15T07:59:12Z</time>
      </trkpt>
      <trkpt lat="42.88192" lon="-0.19174">
        <ele>1993.4</ele>
        <time>2026-07-15T07:59:13Z</time>
      </trkpt>
      <trkpt lat="42.88193" lon="-0.19173">
        <ele>1994.4</ele>
        <time>2026-07-15T07:59:14Z</time>
      </trkpt>
      <trkpt lat="42.88193" lon="-0.19172">
        <ele>1993.4</ele>
        <time>2026-07-15T07:59:15Z</time>
      </trkpt>
      <trkpt lat="42.88193" lon="-0.19172">
        <ele>1994.4</ele>
        <time>2026-07-15T07:59:16Z</time>
      </trkpt>
      <trkpt lat="42.88193" lon="-0.19171">
        <ele>1994.4</ele>
        <time>2026-07-15T07:59:17Z</time>
      </trkpt>
      <trkpt lat="42.88193" lon="-0.19171">
        <ele>1995.4</ele>
        <time>2026-07-15T07:59:17Z</time>
      </trkpt>
      <trkpt lat="42.88193" lon="-0.19171">
        <ele>1995.4</ele>
        <time>2026-07-15T07:59:18Z</time>
      </trkpt>
      <trkpt lat="42.88193" lon="-0.1917">
        <ele>1995.4</ele>
        <time>2026-07-15T07:59:18Z</time>
      </trkpt>
      <trkpt lat="42.88193" lon="-0.1917">
        <ele>1996.4</ele>
        <time>2026-07-15T07:59:19Z</time>
      </trkpt>
      <trkpt lat="42.88193" lon="-0.19169">
        <ele>1996.4</ele>
        <time>2026-07-15T07:59:20Z</time>
      </trkpt>
      <trkpt lat="42.88194" lon="-0.19168">
        <ele>1996.4</ele>
        <time>2026-07-15T07:59:21Z</time>
      </trkpt>
      <trkpt lat="42.88194" lon="-0.19168">
        <ele>1996.4</ele>
        <time>2026-07-15T07:59:22Z</time>
      </trkpt>
      <trkpt lat="42.88194" lon="-0.19167">
        <ele>1996.4</ele>
        <time>2026-07-15T07:59:23Z</time>
      </trkpt>
      <trkpt lat="42.88194" lon="-0.19167">
        <ele>1996.4</ele>
        <time>2026-07-15T07:59:24Z</time>
      </trkpt>
      <trkpt lat="42.88194" lon="-0.19166">
        <ele>1996.4</ele>
        <time>2026-07-15T07:59:24Z</time>
      </trkpt>
      <trkpt lat="42.88194" lon="-0.19166">
        <ele>1997.4</ele>
        <time>2026-07-15T07:59:25Z</time>
      </trkpt>
      <trkpt lat="42.88194" lon="-0.19165">
        <ele>1997.4</ele>
        <time>2026-07-15T07:59:26Z</time>
      </trkpt>
      <trkpt lat="42.88194" lon="-0.19165">
        <ele>1997.4</ele>
        <time>2026-07-15T07:59:27Z</time>
      </trkpt>
      <trkpt lat="42.88194" lon="-0.19165">
        <ele>1997.4</ele>
        <time>2026-07-15T07:59:28Z</time>
      </trkpt>
      <trkpt lat="42.88194" lon="-0.19164">
        <ele>1998.4</ele>
        <time>2026-07-15T07:59:29Z</time>
      </trkpt>
      <trkpt lat="42.88194" lon="-0.19164">
        <ele>1999.4</ele>
        <time>2026-07-15T07:59:30Z</time>
      </trkpt>
      <trkpt lat="42.88194" lon="-0.19164">
        <ele>1999.4</ele>
        <time>2026-07-15T07:59:31Z</time>
      </trkpt>
      <trkpt lat="42.88194" lon="-0.19164">
        <ele>1999.4</ele>
        <time>2026-07-15T07:59:32Z</time>
      </trkpt>
      <trkpt lat="42.88194" lon="-0.19164">
        <ele>1999.4</ele>
        <time>2026-07-15T07:59:33Z</time>
      </trkpt>
      <trkpt lat="42.88194" lon="-0.19164">
        <ele>1999.4</ele>
        <time>2026-07-15T07:59:34Z</time>
      </trkpt>
      <trkpt lat="42.88194" lon="-0.19164">
        <ele>1999.4</ele>
        <time>2026-07-15T07:59:35Z</time>
      </trkpt>
      <trkpt lat="42.88194" lon="-0.19163">
        <ele>2000.4</ele>
        <time>2026-07-15T07:59:36Z</time>
      </trkpt>
      <trkpt lat="42.88194" lon="-0.19163">
        <ele>2000.4</ele>
        <time>2026-07-15T07:59:37Z</time>
      </trkpt>
      <trkpt lat="42.88195" lon="-0.19162">
        <ele>2000.4</ele>
        <time>2026-07-15T07:59:38Z</time>
      </trkpt>
      <trkpt lat="42.88195" lon="-0.19162">
        <ele>2000.4</ele>
        <time>2026-07-15T07:59:39Z</time>
      </trkpt>
      <trkpt lat="42.88195" lon="-0.19161">
        <ele>2001.4</ele>
        <time>2026-07-15T07:59:40Z</time>
      </trkpt>
      <trkpt lat="42.88195" lon="-0.19161">
        <ele>2001.4</ele>
        <time>2026-07-15T07:59:41Z</time>
      </trkpt>
      <trkpt lat="42.88195" lon="-0.1916">
        <ele>2001.4</ele>
        <time>2026-07-15T07:59:42Z</time>
      </trkpt>
      <trkpt lat="42.88195" lon="-0.1916">
        <ele>2001.4</ele>
        <time>2026-07-15T07:59:42Z</time>
      </trkpt>
      <trkpt lat="42.88195" lon="-0.19159">
        <ele>2001.4</ele>
        <time>2026-07-15T07:59:43Z</time>
      </trkpt>
      <trkpt lat="42.88195" lon="-0.19158">
        <ele>2002.4</ele>
        <time>2026-07-15T07:59:44Z</time>
      </trkpt>
      <trkpt lat="42.88195" lon="-0.19158">
        <ele>2001.4</ele>
        <time>2026-07-15T07:59:44Z</time>
      </trkpt>
      <trkpt lat="42.88195" lon="-0.19158">
        <ele>2002.4</ele>
        <time>2026-07-15T07:59:45Z</time>
      </trkpt>
      <trkpt lat="42.88194" lon="-0.19157">
        <ele>2002.4</ele>
        <time>2026-07-15T07:59:46Z</time>
      </trkpt>
      <trkpt lat="42.88194" lon="-0.19157">
        <ele>2001.4</ele>
        <time>2026-07-15T07:59:47Z</time>
      </trkpt>
      <trkpt lat="42.88194" lon="-0.19156">
        <ele>2001.4</ele>
        <time>2026-07-15T07:59:48Z</time>
      </trkpt>
      <trkpt lat="42.88194" lon="-0.19156">
        <ele>2001.4</ele>
        <time>2026-07-15T07:59:49Z</time>
      </trkpt>
      <trkpt lat="42.88194" lon="-0.19156">
        <ele>2001.4</ele>
        <time>2026-07-15T07:59:50Z</time>
      </trkpt>
      <trkpt lat="42.88194" lon="-0.19156">
        <ele>2001.4</ele>
        <time>2026-07-15T07:59:50Z</time>
      </trkpt>
      <trkpt lat="42.88194" lon="-0.19155">
        <ele>2001.4</ele>
        <time>2026-07-15T07:59:51Z</time>
      </trkpt>
      <trkpt lat="42.88194" lon="-0.19154">
        <ele>2001.4</ele>
        <time>2026-07-15T07:59:52Z</time>
      </trkpt>
      <trkpt lat="42.88195" lon="-0.19154">
        <ele>2002.4</ele>
        <time>2026-07-15T07:59:52Z</time>
      </trkpt>
      <trkpt lat="42.88195" lon="-0.19153">
        <ele>2002.4</ele>
        <time>2026-07-15T07:59:53Z</time>
      </trkpt>
      <trkpt lat="42.88195" lon="-0.19153">
        <ele>2002.4</ele>
        <time>2026-07-15T07:59:54Z</time>
      </trkpt>
      <trkpt lat="42.88195" lon="-0.19153">
        <ele>2002.4</ele>
        <time>2026-07-15T07:59:54Z</time>
      </trkpt>
      <trkpt lat="42.88195" lon="-0.19152">
        <ele>2001.4</ele>
        <time>2026-07-15T07:59:55Z</time>
      </trkpt>
      <trkpt lat="42.88195" lon="-0.19151">
        <ele>2001.4</ele>
        <time>2026-07-15T07:59:56Z</time>
      </trkpt>
      <trkpt lat="42.88195" lon="-0.19151">
        <ele>2001.4</ele>
        <time>2026-07-15T07:59:57Z</time>
      </trkpt>
      <trkpt lat="42.88195" lon="-0.19151">
        <ele>2001.4</ele>
        <time>2026-07-15T07:59:58Z</time>
      </trkpt>
      <trkpt lat="42.88195" lon="-0.19151">
        <ele>2003.4</ele>
        <time>2026-07-15T07:59:59Z</time>
      </trkpt>
      <trkpt lat="42.88195" lon="-0.1915">
        <ele>2003.4</ele>
        <time>2026-07-15T08:00:00Z</time>
      </trkpt>
      <trkpt lat="42.88195" lon="-0.1915">
        <ele>2003.4</ele>
        <time>2026-07-15T08:00:01Z</time>
      </trkpt>
      <trkpt lat="42.88195" lon="-0.19149">
        <ele>2003.4</ele>
        <time>2026-07-15T08:00:02Z</time>
      </trkpt>
      <trkpt lat="42.88195" lon="-0.19148">
        <ele>2004.4</ele>
        <time>2026-07-15T08:00:03Z</time>
      </trkpt>
      <trkpt lat="42.88195" lon="-0.19148">
        <ele>2005.4</ele>
        <time>2026-07-15T08:00:04Z</time>
      </trkpt>
      <trkpt lat="42.88195" lon="-0.19147">
        <ele>2005.4</ele>
        <time>2026-07-15T08:00:05Z</time>
      </trkpt>
      <trkpt lat="42.88195" lon="-0.19146">
        <ele>2005.4</ele>
        <time>2026-07-15T08:00:06Z</time>
      </trkpt>
      <trkpt lat="42.88195" lon="-0.19146">
        <ele>2006.4</ele>
        <time>2026-07-15T08:00:07Z</time>
      </trkpt>
      <trkpt lat="42.88195" lon="-0.19145">
        <ele>2005.4</ele>
        <time>2026-07-15T08:00:08Z</time>
      </trkpt>
      <trkpt lat="42.88195" lon="-0.19145">
        <ele>2004.4</ele>
        <time>2026-07-15T08:00:09Z</time>
      </trkpt>
      <trkpt lat="42.88194" lon="-0.19145">
        <ele>2004.4</ele>
        <time>2026-07-15T08:00:10Z</time>
      </trkpt>
      <trkpt lat="42.88194" lon="-0.19144">
        <ele>2005.4</ele>
        <time>2026-07-15T08:00:11Z</time>
      </trkpt>
      <trkpt lat="42.88194" lon="-0.19144">
        <ele>2005.4</ele>
        <time>2026-07-15T08:00:12Z</time>
      </trkpt>
      <trkpt lat="42.88194" lon="-0.19144">
        <ele>2005.4</ele>
        <time>2026-07-15T08:00:13Z</time>
      </trkpt>
      <trkpt lat="42.88194" lon="-0.19143">
        <ele>2005.4</ele>
        <time>2026-07-15T08:00:14Z</time>
      </trkpt>
      <trkpt lat="42.88194" lon="-0.19143">
        <ele>2005.4</ele>
        <time>2026-07-15T08:00:15Z</time>
      </trkpt>
      <trkpt lat="42.88193" lon="-0.19142">
        <ele>2006.4</ele>
        <time>2026-07-15T08:00:16Z</time>
      </trkpt>
      <trkpt lat="42.88193" lon="-0.19141">
        <ele>2006.4</ele>
        <time>2026-07-15T08:00:17Z</time>
      </trkpt>
      <trkpt lat="42.88193" lon="-0.19141">
        <ele>2006.4</ele>
        <time>2026-07-15T08:00:18Z</time>
      </trkpt>
      <trkpt lat="42.88193" lon="-0.1914">
        <ele>2006.4</ele>
        <time>2026-07-15T08:00:19Z</time>
      </trkpt>
      <trkpt lat="42.88193" lon="-0.19139">
        <ele>2006.4</ele>
        <time>2026-07-15T08:00:20Z</time>
      </trkpt>
      <trkpt lat="42.88193" lon="-0.19139">
        <ele>2006.4</ele>
        <time>2026-07-15T08:00:21Z</time>
      </trkpt>
      <trkpt lat="42.88193" lon="-0.19139">
        <ele>2006.4</ele>
        <time>2026-07-15T08:00:22Z</time>
      </trkpt>
      <trkpt lat="42.88193" lon="-0.19139">
        <ele>2006.4</ele>
        <time>2026-07-15T08:00:22Z</time>
      </trkpt>
      <trkpt lat="42.88193" lon="-0.19139">
        <ele>2006.4</ele>
        <time>2026-07-15T08:00:23Z</time>
      </trkpt>
      <trkpt lat="42.88193" lon="-0.19138">
        <ele>2006.4</ele>
        <time>2026-07-15T08:00:24Z</time>
      </trkpt>
      <trkpt lat="42.88193" lon="-0.19138">
        <ele>2006.4</ele>
        <time>2026-07-15T08:00:25Z</time>
      </trkpt>
      <trkpt lat="42.88193" lon="-0.19137">
        <ele>2007.4</ele>
        <time>2026-07-15T08:00:26Z</time>
      </trkpt>
      <trkpt lat="42.88193" lon="-0.19137">
        <ele>2007.4</ele>
        <time>2026-07-15T08:00:27Z</time>
      </trkpt>
      <trkpt lat="42.88193" lon="-0.19137">
        <ele>2007.4</ele>
        <time>2026-07-15T08:00:28Z</time>
      </trkpt>
      <trkpt lat="42.88193" lon="-0.19136">
        <ele>2008.4</ele>
        <time>2026-07-15T08:00:29Z</time>
      </trkpt>
      <trkpt lat="42.88193" lon="-0.19136">
        <ele>2009.4</ele>
        <time>2026-07-15T08:00:30Z</time>
      </trkpt>
      <trkpt lat="42.88193" lon="-0.19136">
        <ele>2009.4</ele>
        <time>2026-07-15T08:00:31Z</time>
      </trkpt>
      <trkpt lat="42.88193" lon="-0.19135">
        <ele>2009.4</ele>
        <time>2026-07-15T08:00:32Z</time>
      </trkpt>
      <trkpt lat="42.88194" lon="-0.19135">
        <ele>2009.4</ele>
        <time>2026-07-15T08:00:33Z</time>
      </trkpt>
      <trkpt lat="42.88194" lon="-0.19134">
        <ele>2009.4</ele>
        <time>2026-07-15T08:00:34Z</time>
      </trkpt>
      <trkpt lat="42.88193" lon="-0.19134">
        <ele>2009.4</ele>
        <time>2026-07-15T08:00:35Z</time>
      </trkpt>
      <trkpt lat="42.88194" lon="-0.19133">
        <ele>2009.4</ele>
        <time>2026-07-15T08:00:36Z</time>
      </trkpt>
      <trkpt lat="42.88194" lon="-0.19133">
        <ele>2009.4</ele>
        <time>2026-07-15T08:00:37Z</time>
      </trkpt>
      <trkpt lat="42.88194" lon="-0.19132">
        <ele>2009.4</ele>
        <time>2026-07-15T08:00:38Z</time>
      </trkpt>
      <trkpt lat="42.88194" lon="-0.19131">
        <ele>2008.4</ele>
        <time>2026-07-15T08:00:39Z</time>
      </trkpt>
      <trkpt lat="42.88194" lon="-0.19131">
        <ele>2008.4</ele>
        <time>2026-07-15T08:00:39Z</time>
      </trkpt>
      <trkpt lat="42.88194" lon="-0.19131">
        <ele>2008.4</ele>
        <time>2026-07-15T08:00:40Z</time>
      </trkpt>
      <trkpt lat="42.88194" lon="-0.19131">
        <ele>2008.4</ele>
        <time>2026-07-15T08:00:40Z</time>
      </trkpt>
      <trkpt lat="42.88193" lon="-0.1913">
        <ele>2008.4</ele>
        <time>2026-07-15T08:00:41Z</time>
      </trkpt>
      <trkpt lat="42.88193" lon="-0.19129">
        <ele>2008.4</ele>
        <time>2026-07-15T08:00:42Z</time>
      </trkpt>
      <trkpt lat="42.88193" lon="-0.19129">
        <ele>2007.4</ele>
        <time>2026-07-15T08:00:43Z</time>
      </trkpt>
      <trkpt lat="42.88193" lon="-0.19128">
        <ele>2007.4</ele>
        <time>2026-07-15T08:00:44Z</time>
      </trkpt>
      <trkpt lat="42.88192" lon="-0.19128">
        <ele>2007.4</ele>
        <time>2026-07-15T08:00:45Z</time>
      </trkpt>
      <trkpt lat="42.88192" lon="-0.19127">
        <ele>2007.4</ele>
        <time>2026-07-15T08:00:46Z</time>
      </trkpt>
      <trkpt lat="42.88191" lon="-0.19127">
        <ele>2008.4</ele>
        <time>2026-07-15T08:00:47Z</time>
      </trkpt>
      <trkpt lat="42.88191" lon="-0.19127">
        <ele>2007.4</ele>
        <time>2026-07-15T08:00:48Z</time>
      </trkpt>
      <trkpt lat="42.88191" lon="-0.19127">
        <ele>2008.4</ele>
        <time>2026-07-15T08:00:49Z</time>
      </trkpt>
      <trkpt lat="42.88191" lon="-0.19127">
        <ele>2007.4</ele>
        <time>2026-07-15T08:00:50Z</time>
      </trkpt>
      <trkpt lat="42.88191" lon="-0.19126">
        <ele>2007.4</ele>
        <time>2026-07-15T08:00:51Z</time>
      </trkpt>
      <trkpt lat="42.88191" lon="-0.19126">
        <ele>2007.4</ele>
        <time>2026-07-15T08:00:51Z</time>
      </trkpt>
      <trkpt lat="42.88191" lon="-0.19126">
        <ele>2007.4</ele>
        <time>2026-07-15T08:00:52Z</time>
      </trkpt>
      <trkpt lat="42.88191" lon="-0.19125">
        <ele>2008.4</ele>
        <time>2026-07-15T08:00:53Z</time>
      </trkpt>
      <trkpt lat="42.88191" lon="-0.19125">
        <ele>2008.4</ele>
        <time>2026-07-15T08:00:53Z</time>
      </trkpt>
      <trkpt lat="42.88191" lon="-0.19124">
        <ele>2008.4</ele>
        <time>2026-07-15T08:00:54Z</time>
      </trkpt>
      <trkpt lat="42.88191" lon="-0.19124">
        <ele>2008.4</ele>
        <time>2026-07-15T08:00:55Z</time>
      </trkpt>
      <trkpt lat="42.88191" lon="-0.19123">
        <ele>2008.4</ele>
        <time>2026-07-15T08:00:55Z</time>
      </trkpt>
      <trkpt lat="42.88191" lon="-0.19123">
        <ele>2008.4</ele>
        <time>2026-07-15T08:00:56Z</time>
      </trkpt>
      <trkpt lat="42.8819" lon="-0.19122">
        <ele>2008.4</ele>
        <time>2026-07-15T08:00:57Z</time>
      </trkpt>
      <trkpt lat="42.8819" lon="-0.19122">
        <ele>2008.4</ele>
        <time>2026-07-15T08:00:58Z</time>
      </trkpt>
      <trkpt lat="42.8819" lon="-0.19121">
        <ele>2008.4</ele>
        <time>2026-07-15T08:00:59Z</time>
      </trkpt>
      <trkpt lat="42.8819" lon="-0.19121">
        <ele>2010.4</ele>
        <time>2026-07-15T08:01:00Z</time>
      </trkpt>
      <trkpt lat="42.8819" lon="-0.19121">
        <ele>2010.4</ele>
        <time>2026-07-15T08:01:01Z</time>
      </trkpt>
      <trkpt lat="42.8819" lon="-0.19121">
        <ele>2010.4</ele>
        <time>2026-07-15T08:01:02Z</time>
      </trkpt>
      <trkpt lat="42.88191" lon="-0.19121">
        <ele>2010.4</ele>
        <time>2026-07-15T08:01:03Z</time>
      </trkpt>
      <trkpt lat="42.88191" lon="-0.19121">
        <ele>2010.4</ele>
        <time>2026-07-15T08:01:04Z</time>
      </trkpt>
      <trkpt lat="42.88191" lon="-0.19121">
        <ele>2010.4</ele>
        <time>2026-07-15T08:01:05Z</time>
      </trkpt>
      <trkpt lat="42.8819" lon="-0.19121">
        <ele>2010.4</ele>
        <time>2026-07-15T08:01:06Z</time>
      </trkpt>
      <trkpt lat="42.8819" lon="-0.19121">
        <ele>2010.4</ele>
        <time>2026-07-15T08:01:07Z</time>
      </trkpt>
      <trkpt lat="42.8819" lon="-0.19121">
        <ele>2010.4</ele>
        <time>2026-07-15T08:01:08Z</time>
      </trkpt>
      <trkpt lat="42.8819" lon="-0.19121">
        <ele>2010.4</ele>
        <time>2026-07-15T08:01:09Z</time>
      </trkpt>
      <trkpt lat="42.88189" lon="-0.19121">
        <ele>2010.4</ele>
        <time>2026-07-15T08:01:10Z</time>
      </trkpt>
      <trkpt lat="42.88189" lon="-0.19121">
        <ele>2010.4</ele>
        <time>2026-07-15T08:01:11Z</time>
      </trkpt>
      <trkpt lat="42.88188" lon="-0.19121">
        <ele>2010.4</ele>
        <time>2026-07-15T08:01:12Z</time>
      </trkpt>
      <trkpt lat="42.88187" lon="-0.19121">
        <ele>2011.4</ele>
        <time>2026-07-15T08:01:13Z</time>
      </trkpt>
      <trkpt lat="42.88186" lon="-0.19121">
        <ele>2011.4</ele>
        <time>2026-07-15T08:01:14Z</time>
      </trkpt>
      <trkpt lat="42.88186" lon="-0.19121">
        <ele>2012.4</ele>
        <time>2026-07-15T08:01:15Z</time>
      </trkpt>
      <trkpt lat="42.88186" lon="-0.19121">
        <ele>2013.4</ele>
        <time>2026-07-15T08:01:15Z</time>
      </trkpt>
      <trkpt lat="42.88186" lon="-0.19121">
        <ele>2013.4</ele>
        <time>2026-07-15T08:01:16Z</time>
      </trkpt>
      <trkpt lat="42.88185" lon="-0.19121">
        <ele>2013.4</ele>
        <time>2026-07-15T08:01:16Z</time>
      </trkpt>
      <trkpt lat="42.88185" lon="-0.1912">
        <ele>2013.4</ele>
        <time>2026-07-15T08:01:17Z</time>
      </trkpt>
      <trkpt lat="42.88185" lon="-0.1912">
        <ele>2014.4</ele>
        <time>2026-07-15T08:01:17Z</time>
      </trkpt>
      <trkpt lat="42.88185" lon="-0.19119">
        <ele>2014.4</ele>
        <time>2026-07-15T08:01:18Z</time>
      </trkpt>
      <trkpt lat="42.88185" lon="-0.19119">
        <ele>2014.4</ele>
        <time>2026-07-15T08:01:18Z</time>
      </trkpt>
      <trkpt lat="42.88185" lon="-0.19118">
        <ele>2016.4</ele>
        <time>2026-07-15T08:01:19Z</time>
      </trkpt>
      <trkpt lat="42.88185" lon="-0.19117">
        <ele>2016.4</ele>
        <time>2026-07-15T08:01:20Z</time>
      </trkpt>
      <trkpt lat="42.88185" lon="-0.19116">
        <ele>2017.4</ele>
        <time>2026-07-15T08:01:21Z</time>
      </trkpt>
      <trkpt lat="42.88185" lon="-0.19116">
        <ele>2018.4</ele>
        <time>2026-07-15T08:01:22Z</time>
      </trkpt>
      <trkpt lat="42.88185" lon="-0.19115">
        <ele>2019.4</ele>
        <time>2026-07-15T08:01:23Z</time>
      </trkpt>
      <trkpt lat="42.88185" lon="-0.19115">
        <ele>2019.4</ele>
        <time>2026-07-15T08:01:24Z</time>
      </trkpt>
      <trkpt lat="42.88185" lon="-0.19114">
        <ele>2019.4</ele>
        <time>2026-07-15T08:01:25Z</time>
      </trkpt>
      <trkpt lat="42.88185" lon="-0.19114">
        <ele>2018.4</ele>
        <time>2026-07-15T08:01:26Z</time>
      </trkpt>
      <trkpt lat="42.88185" lon="-0.19113">
        <ele>2018.4</ele>
        <time>2026-07-15T08:01:27Z</time>
      </trkpt>
      <trkpt lat="42.88185" lon="-0.19112">
        <ele>2019.4</ele>
        <time>2026-07-15T08:01:28Z</time>
      </trkpt>
      <trkpt lat="42.88185" lon="-0.19112">
        <ele>2020.4</ele>
        <time>2026-07-15T08:01:29Z</time>
      </trkpt>
      <trkpt lat="42.88185" lon="-0.19111">
        <ele>2019.4</ele>
        <time>2026-07-15T08:01:30Z</time>
      </trkpt>
      <trkpt lat="42.88185" lon="-0.1911">
        <ele>2019.4</ele>
        <time>2026-07-15T08:01:31Z</time>
      </trkpt>
      <trkpt lat="42.88185" lon="-0.19109">
        <ele>2018.4</ele>
        <time>2026-07-15T08:01:32Z</time>
      </trkpt>
      <trkpt lat="42.88185" lon="-0.19109">
        <ele>2018.4</ele>
        <time>2026-07-15T08:01:33Z</time>
      </trkpt>
      <trkpt lat="42.88185" lon="-0.19108">
        <ele>2018.4</ele>
        <time>2026-07-15T08:01:34Z</time>
      </trkpt>
      <trkpt lat="42.88185" lon="-0.19108">
        <ele>2018.4</ele>
        <time>2026-07-15T08:01:35Z</time>
      </trkpt>
      <trkpt lat="42.88185" lon="-0.19107">
        <ele>2020.4</ele>
        <time>2026-07-15T08:01:36Z</time>
      </trkpt>
      <trkpt lat="42.88185" lon="-0.19106">
        <ele>2020.4</ele>
        <time>2026-07-15T08:01:37Z</time>
      </trkpt>
      <trkpt lat="42.88185" lon="-0.19106">
        <ele>2021.4</ele>
        <time>2026-07-15T08:01:38Z</time>
      </trkpt>
      <trkpt lat="42.88185" lon="-0.19106">
        <ele>2021.4</ele>
        <time>2026-07-15T08:01:39Z</time>
      </trkpt>
      <trkpt lat="42.88185" lon="-0.19105">
        <ele>2021.4</ele>
        <time>2026-07-15T08:01:39Z</time>
      </trkpt>
      <trkpt lat="42.88186" lon="-0.19105">
        <ele>2021.4</ele>
        <time>2026-07-15T08:01:40Z</time>
      </trkpt>
      <trkpt lat="42.88186" lon="-0.19105">
        <ele>2021.4</ele>
        <time>2026-07-15T08:01:41Z</time>
      </trkpt>
      <trkpt lat="42.88186" lon="-0.19104">
        <ele>2020.4</ele>
        <time>2026-07-15T08:01:42Z</time>
      </trkpt>
      <trkpt lat="42.88186" lon="-0.19104">
        <ele>2021.4</ele>
        <time>2026-07-15T08:01:43Z</time>
      </trkpt>
      <trkpt lat="42.88186" lon="-0.19103">
        <ele>2022.4</ele>
        <time>2026-07-15T08:01:44Z</time>
      </trkpt>
      <trkpt lat="42.88186" lon="-0.19103">
        <ele>2022.4</ele>
        <time>2026-07-15T08:01:45Z</time>
      </trkpt>
      <trkpt lat="42.88186" lon="-0.19102">
        <ele>2022.4</ele>
        <time>2026-07-15T08:01:46Z</time>
      </trkpt>
      <trkpt lat="42.88186" lon="-0.19101">
        <ele>2022.4</ele>
        <time>2026-07-15T08:01:47Z</time>
      </trkpt>
      <trkpt lat="42.88186" lon="-0.19101">
        <ele>2022.4</ele>
        <time>2026-07-15T08:01:48Z</time>
      </trkpt>
      <trkpt lat="42.88186" lon="-0.191">
        <ele>2022.4</ele>
        <time>2026-07-15T08:01:49Z</time>
      </trkpt>
      <trkpt lat="42.88186" lon="-0.191">
        <ele>2022.4</ele>
        <time>2026-07-15T08:01:50Z</time>
      </trkpt>
      <trkpt lat="42.88186" lon="-0.19099">
        <ele>2022.4</ele>
        <time>2026-07-15T08:01:51Z</time>
      </trkpt>
      <trkpt lat="42.88186" lon="-0.19098">
        <ele>2023.4</ele>
        <time>2026-07-15T08:01:52Z</time>
      </trkpt>
      <trkpt lat="42.88185" lon="-0.19098">
        <ele>2022.4</ele>
        <time>2026-07-15T08:01:53Z</time>
      </trkpt>
      <trkpt lat="42.88185" lon="-0.19097">
        <ele>2022.4</ele>
        <time>2026-07-15T08:01:54Z</time>
      </trkpt>
      <trkpt lat="42.88185" lon="-0.19097">
        <ele>2022.4</ele>
        <time>2026-07-15T08:01:55Z</time>
      </trkpt>
      <trkpt lat="42.88185" lon="-0.19097">
        <ele>2022.4</ele>
        <time>2026-07-15T08:01:56Z</time>
      </trkpt>
      <trkpt lat="42.88185" lon="-0.19097">
        <ele>2022.4</ele>
        <time>2026-07-15T08:01:57Z</time>
      </trkpt>
      <trkpt lat="42.88185" lon="-0.19096">
        <ele>2021.4</ele>
        <time>2026-07-15T08:01:58Z</time>
      </trkpt>
      <trkpt lat="42.88185" lon="-0.19096">
        <ele>2021.4</ele>
        <time>2026-07-15T08:01:59Z</time>
      </trkpt>
      <trkpt lat="42.88185" lon="-0.19095">
        <ele>2021.4</ele>
        <time>2026-07-15T08:01:59Z</time>
      </trkpt>
      <trkpt lat="42.88185" lon="-0.19095">
        <ele>2021.4</ele>
        <time>2026-07-15T08:02:00Z</time>
      </trkpt>
      <trkpt lat="42.88185" lon="-0.19094">
        <ele>2021.4</ele>
        <time>2026-07-15T08:02:00Z</time>
      </trkpt>
      <trkpt lat="42.88185" lon="-0.19093">
        <ele>2021.4</ele>
        <time>2026-07-15T08:02:01Z</time>
      </trkpt>
      <trkpt lat="42.88184" lon="-0.19093">
        <ele>2022.4</ele>
        <time>2026-07-15T08:02:02Z</time>
      </trkpt>
      <trkpt lat="42.88184" lon="-0.19093">
        <ele>2022.4</ele>
        <time>2026-07-15T08:02:03Z</time>
      </trkpt>
      <trkpt lat="42.88184" lon="-0.19093">
        <ele>2022.4</ele>
        <time>2026-07-15T08:02:04Z</time>
      </trkpt>
      <trkpt lat="42.88183" lon="-0.19093">
        <ele>2022.4</ele>
        <time>2026-07-15T08:02:05Z</time>
      </trkpt>
      <trkpt lat="42.88183" lon="-0.19093">
        <ele>2022.4</ele>
        <time>2026-07-15T08:02:05Z</time>
      </trkpt>
      <trkpt lat="42.88183" lon="-0.19093">
        <ele>2022.4</ele>
        <time>2026-07-15T08:02:06Z</time>
      </trkpt>
      <trkpt lat="42.88183" lon="-0.19093">
        <ele>2022.4</ele>
        <time>2026-07-15T08:02:07Z</time>
      </trkpt>
      <trkpt lat="42.88183" lon="-0.19093">
        <ele>2022.4</ele>
        <time>2026-07-15T08:02:07Z</time>
      </trkpt>
      <trkpt lat="42.88182" lon="-0.19093">
        <ele>2022.4</ele>
        <time>2026-07-15T08:02:08Z</time>
      </trkpt>
      <trkpt lat="42.88182" lon="-0.19093">
        <ele>2022.4</ele>
        <time>2026-07-15T08:02:08Z</time>
      </trkpt>
      <trkpt lat="42.88182" lon="-0.19094">
        <ele>2022.4</ele>
        <time>2026-07-15T08:02:09Z</time>
      </trkpt>
      <trkpt lat="42.88182" lon="-0.19094">
        <ele>2022.4</ele>
        <time>2026-07-15T08:02:10Z</time>
      </trkpt>
      <trkpt lat="42.88181" lon="-0.19094">
        <ele>2022.4</ele>
        <time>2026-07-15T08:02:11Z</time>
      </trkpt>
      <trkpt lat="42.88181" lon="-0.19094">
        <ele>2022.4</ele>
        <time>2026-07-15T08:02:11Z</time>
      </trkpt>
      <trkpt lat="42.88181" lon="-0.19094">
        <ele>2022.4</ele>
        <time>2026-07-15T08:02:12Z</time>
      </trkpt>
      <trkpt lat="42.88181" lon="-0.19094">
        <ele>2023.4</ele>
        <time>2026-07-15T08:02:13Z</time>
      </trkpt>
      <trkpt lat="42.88181" lon="-0.19093">
        <ele>2023.4</ele>
        <time>2026-07-15T08:02:14Z</time>
      </trkpt>
      <trkpt lat="42.88181" lon="-0.19093">
        <ele>2022.4</ele>
        <time>2026-07-15T08:02:15Z</time>
      </trkpt>
      <trkpt lat="42.88181" lon="-0.19092">
        <ele>2022.4</ele>
        <time>2026-07-15T08:02:16Z</time>
      </trkpt>
      <trkpt lat="42.88181" lon="-0.19092">
        <ele>2022.4</ele>
        <time>2026-07-15T08:02:17Z</time>
      </trkpt>
      <trkpt lat="42.88181" lon="-0.19092">
        <ele>2022.4</ele>
        <time>2026-07-15T08:02:18Z</time>
      </trkpt>
      <trkpt lat="42.88181" lon="-0.19092">
        <ele>2022.4</ele>
        <time>2026-07-15T08:02:19Z</time>
      </trkpt>
      <trkpt lat="42.88181" lon="-0.19092">
        <ele>2022.4</ele>
        <time>2026-07-15T08:02:20Z</time>
      </trkpt>
      <trkpt lat="42.88181" lon="-0.19092">
        <ele>2022.4</ele>
        <time>2026-07-15T08:02:21Z</time>
      </trkpt>
      <trkpt lat="42.88181" lon="-0.19091">
        <ele>2022.4</ele>
        <time>2026-07-15T08:02:21Z</time>
      </trkpt>
      <trkpt lat="42.88181" lon="-0.19091">
        <ele>2022.4</ele>
        <time>2026-07-15T08:02:22Z</time>
      </trkpt>
      <trkpt lat="42.8818" lon="-0.19091">
        <ele>2022.4</ele>
        <time>2026-07-15T08:02:22Z</time>
      </trkpt>
      <trkpt lat="42.8818" lon="-0.19091">
        <ele>2022.4</ele>
        <time>2026-07-15T08:02:23Z</time>
      </trkpt>
      <trkpt lat="42.8818" lon="-0.19091">
        <ele>2022.4</ele>
        <time>2026-07-15T08:02:23Z</time>
      </trkpt>
      <trkpt lat="42.8818" lon="-0.19091">
        <ele>2022.4</ele>
        <time>2026-07-15T08:02:24Z</time>
      </trkpt>
      <trkpt lat="42.8818" lon="-0.19091">
        <ele>2022.4</ele>
        <time>2026-07-15T08:02:25Z</time>
      </trkpt>
      <trkpt lat="42.8818" lon="-0.19091">
        <ele>2023.4</ele>
        <time>2026-07-15T08:02:26Z</time>
      </trkpt>
      <trkpt lat="42.88179" lon="-0.1909">
        <ele>2024.4</ele>
        <time>2026-07-15T08:02:27Z</time>
      </trkpt>
      <trkpt lat="42.88179" lon="-0.1909">
        <ele>2024.4</ele>
        <time>2026-07-15T08:02:28Z</time>
      </trkpt>
      <trkpt lat="42.88178" lon="-0.19089">
        <ele>2024.4</ele>
        <time>2026-07-15T08:02:28Z</time>
      </trkpt>
      <trkpt lat="42.88178" lon="-0.19089">
        <ele>2024.4</ele>
        <time>2026-07-15T08:02:29Z</time>
      </trkpt>
      <trkpt lat="42.88178" lon="-0.19088">
        <ele>2025.4</ele>
        <time>2026-07-15T08:02:30Z</time>
      </trkpt>
      <trkpt lat="42.88177" lon="-0.19087">
        <ele>2025.4</ele>
        <time>2026-07-15T08:02:31Z</time>
      </trkpt>
      <trkpt lat="42.88177" lon="-0.19086">
        <ele>2025.4</ele>
        <time>2026-07-15T08:02:32Z</time>
      </trkpt>
      <trkpt lat="42.88177" lon="-0.19086">
        <ele>2025.4</ele>
        <time>2026-07-15T08:02:33Z</time>
      </trkpt>
      <trkpt lat="42.88177" lon="-0.19086">
        <ele>2026.4</ele>
        <time>2026-07-15T08:02:33Z</time>
      </trkpt>
      <trkpt lat="42.88176" lon="-0.19085">
        <ele>2027.4</ele>
        <time>2026-07-15T08:02:34Z</time>
      </trkpt>
      <trkpt lat="42.88176" lon="-0.19085">
        <ele>2027.4</ele>
        <time>2026-07-15T08:02:35Z</time>
      </trkpt>
      <trkpt lat="42.88176" lon="-0.19085">
        <ele>2027.4</ele>
        <time>2026-07-15T08:02:36Z</time>
      </trkpt>
      <trkpt lat="42.88176" lon="-0.19085">
        <ele>2028.4</ele>
        <time>2026-07-15T08:02:36Z</time>
      </trkpt>
      <trkpt lat="42.88175" lon="-0.19086">
        <ele>2028.4</ele>
        <time>2026-07-15T08:02:37Z</time>
      </trkpt>
      <trkpt lat="42.88175" lon="-0.19086">
        <ele>2028.4</ele>
        <time>2026-07-15T08:02:38Z</time>
      </trkpt>
      <trkpt lat="42.88174" lon="-0.19086">
        <ele>2029.4</ele>
        <time>2026-07-15T08:02:39Z</time>
      </trkpt>
      <trkpt lat="42.88174" lon="-0.19086">
        <ele>2028.4</ele>
        <time>2026-07-15T08:02:40Z</time>
      </trkpt>
      <trkpt lat="42.88174" lon="-0.19087">
        <ele>2028.4</ele>
        <time>2026-07-15T08:02:41Z</time>
      </trkpt>
      <trkpt lat="42.88174" lon="-0.19087">
        <ele>2028.4</ele>
        <time>2026-07-15T08:02:42Z</time>
      </trkpt>
      <trkpt lat="42.88174" lon="-0.19087">
        <ele>2028.4</ele>
        <time>2026-07-15T08:02:42Z</time>
      </trkpt>
      <trkpt lat="42.88173" lon="-0.19088">
        <ele>2028.4</ele>
        <time>2026-07-15T08:02:43Z</time>
      </trkpt>
      <trkpt lat="42.88172" lon="-0.19088">
        <ele>2028.4</ele>
        <time>2026-07-15T08:02:44Z</time>
      </trkpt>
      <trkpt lat="42.88171" lon="-0.19088">
        <ele>2028.4</ele>
        <time>2026-07-15T08:02:45Z</time>
      </trkpt>
      <trkpt lat="42.88171" lon="-0.19088">
        <ele>2028.4</ele>
        <time>2026-07-15T08:02:46Z</time>
      </trkpt>
      <trkpt lat="42.88171" lon="-0.19088">
        <ele>2028.4</ele>
        <time>2026-07-15T08:02:47Z</time>
      </trkpt>
      <trkpt lat="42.8817" lon="-0.19089">
        <ele>2028.4</ele>
        <time>2026-07-15T08:02:48Z</time>
      </trkpt>
      <trkpt lat="42.8817" lon="-0.19089">
        <ele>2028.4</ele>
        <time>2026-07-15T08:02:49Z</time>
      </trkpt>
      <trkpt lat="42.8817" lon="-0.19089">
        <ele>2028.4</ele>
        <time>2026-07-15T08:02:50Z</time>
      </trkpt>
      <trkpt lat="42.8817" lon="-0.19089">
        <ele>2028.4</ele>
        <time>2026-07-15T08:02:51Z</time>
      </trkpt>
      <trkpt lat="42.8817" lon="-0.19089">
        <ele>2028.4</ele>
        <time>2026-07-15T08:02:52Z</time>
      </trkpt>
      <trkpt lat="42.88169" lon="-0.19089">
        <ele>2028.4</ele>
        <time>2026-07-15T08:02:53Z</time>
      </trkpt>
      <trkpt lat="42.88169" lon="-0.1909">
        <ele>2027.4</ele>
        <time>2026-07-15T08:02:54Z</time>
      </trkpt>
      <trkpt lat="42.88169" lon="-0.1909">
        <ele>2028.4</ele>
        <time>2026-07-15T08:02:55Z</time>
      </trkpt>
      <trkpt lat="42.88168" lon="-0.19091">
        <ele>2029.4</ele>
        <time>2026-07-15T08:02:55Z</time>
      </trkpt>
      <trkpt lat="42.88168" lon="-0.19091">
        <ele>2029.4</ele>
        <time>2026-07-15T08:02:56Z</time>
      </trkpt>
      <trkpt lat="42.88168" lon="-0.19092">
        <ele>2030.4</ele>
        <time>2026-07-15T08:02:57Z</time>
      </trkpt>
      <trkpt lat="42.88167" lon="-0.19092">
        <ele>2030.4</ele>
        <time>2026-07-15T08:02:58Z</time>
      </trkpt>
      <trkpt lat="42.88167" lon="-0.19092">
        <ele>2030.4</ele>
        <time>2026-07-15T08:02:59Z</time>
      </trkpt>
      <trkpt lat="42.88167" lon="-0.19093">
        <ele>2030.4</ele>
        <time>2026-07-15T08:03:00Z</time>
      </trkpt>
      <trkpt lat="42.88167" lon="-0.19093">
        <ele>2030.4</ele>
        <time>2026-07-15T08:03:00Z</time>
      </trkpt>
      <trkpt lat="42.88166" lon="-0.19093">
        <ele>2030.4</ele>
        <time>2026-07-15T08:03:01Z</time>
      </trkpt>
      <trkpt lat="42.88166" lon="-0.19093">
        <ele>2030.4</ele>
        <time>2026-07-15T08:03:01Z</time>
      </trkpt>
      <trkpt lat="42.88166" lon="-0.19093">
        <ele>2030.4</ele>
        <time>2026-07-15T08:03:02Z</time>
      </trkpt>
      <trkpt lat="42.88166" lon="-0.19093">
        <ele>2030.4</ele>
        <time>2026-07-15T08:03:03Z</time>
      </trkpt>
      <trkpt lat="42.88165" lon="-0.19093">
        <ele>2030.4</ele>
        <time>2026-07-15T08:03:04Z</time>
      </trkpt>
      <trkpt lat="42.88165" lon="-0.19093">
        <ele>2030.4</ele>
        <time>2026-07-15T08:03:05Z</time>
      </trkpt>
      <trkpt lat="42.88165" lon="-0.19093">
        <ele>2030.4</ele>
        <time>2026-07-15T08:03:06Z</time>
      </trkpt>
      <trkpt lat="42.88164" lon="-0.19093">
        <ele>2030.4</ele>
        <time>2026-07-15T08:03:07Z</time>
      </trkpt>
      <trkpt lat="42.88164" lon="-0.19093">
        <ele>2030.4</ele>
        <time>2026-07-15T08:03:07Z</time>
      </trkpt>
      <trkpt lat="42.88164" lon="-0.19094">
        <ele>2030.4</ele>
        <time>2026-07-15T08:03:08Z</time>
      </trkpt>
      <trkpt lat="42.88163" lon="-0.19094">
        <ele>2030.4</ele>
        <time>2026-07-15T08:03:09Z</time>
      </trkpt>
      <trkpt lat="42.88163" lon="-0.19094">
        <ele>2030.4</ele>
        <time>2026-07-15T08:03:09Z</time>
      </trkpt>
      <trkpt lat="42.88163" lon="-0.19094">
        <ele>2030.4</ele>
        <time>2026-07-15T08:03:10Z</time>
      </trkpt>
      <trkpt lat="42.88162" lon="-0.19094">
        <ele>2030.4</ele>
        <time>2026-07-15T08:03:11Z</time>
      </trkpt>
      <trkpt lat="42.88162" lon="-0.19094">
        <ele>2031.4</ele>
        <time>2026-07-15T08:03:12Z</time>
      </trkpt>
      <trkpt lat="42.88161" lon="-0.19094">
        <ele>2031.4</ele>
        <time>2026-07-15T08:03:13Z</time>
      </trkpt>
      <trkpt lat="42.88161" lon="-0.19094">
        <ele>2031.4</ele>
        <time>2026-07-15T08:03:14Z</time>
      </trkpt>
      <trkpt lat="42.8816" lon="-0.19095">
        <ele>2031.4</ele>
        <time>2026-07-15T08:03:15Z</time>
      </trkpt>
      <trkpt lat="42.8816" lon="-0.19095">
        <ele>2030.4</ele>
        <time>2026-07-15T08:03:16Z</time>
      </trkpt>
      <trkpt lat="42.8816" lon="-0.19094">
        <ele>2031.4</ele>
        <time>2026-07-15T08:03:17Z</time>
      </trkpt>
      <trkpt lat="42.88159" lon="-0.19094">
        <ele>2031.4</ele>
        <time>2026-07-15T08:03:18Z</time>
      </trkpt>
      <trkpt lat="42.88159" lon="-0.19095">
        <ele>2031.4</ele>
        <time>2026-07-15T08:03:19Z</time>
      </trkpt>
      <trkpt lat="42.88159" lon="-0.19095">
        <ele>2031.4</ele>
        <time>2026-07-15T08:03:20Z</time>
      </trkpt>
      <trkpt lat="42.88159" lon="-0.19095">
        <ele>2031.4</ele>
        <time>2026-07-15T08:03:21Z</time>
      </trkpt>
      <trkpt lat="42.88158" lon="-0.19094">
        <ele>2033.4</ele>
        <time>2026-07-15T08:03:22Z</time>
      </trkpt>
      <trkpt lat="42.88158" lon="-0.19094">
        <ele>2034.4</ele>
        <time>2026-07-15T08:03:23Z</time>
      </trkpt>
      <trkpt lat="42.88158" lon="-0.19094">
        <ele>2034.4</ele>
        <time>2026-07-15T08:03:24Z</time>
      </trkpt>
      <trkpt lat="42.88158" lon="-0.19094">
        <ele>2034.4</ele>
        <time>2026-07-15T08:03:25Z</time>
      </trkpt>
      <trkpt lat="42.88157" lon="-0.19094">
        <ele>2035.4</ele>
        <time>2026-07-15T08:03:25Z</time>
      </trkpt>
      <trkpt lat="42.88157" lon="-0.19093">
        <ele>2035.4</ele>
        <time>2026-07-15T08:03:26Z</time>
      </trkpt>
      <trkpt lat="42.88157" lon="-0.19093">
        <ele>2035.4</ele>
        <time>2026-07-15T08:03:27Z</time>
      </trkpt>
      <trkpt lat="42.88156" lon="-0.19093">
        <ele>2035.4</ele>
        <time>2026-07-15T08:03:28Z</time>
      </trkpt>
      <trkpt lat="42.88156" lon="-0.19092">
        <ele>2035.4</ele>
        <time>2026-07-15T08:03:28Z</time>
      </trkpt>
      <trkpt lat="42.88156" lon="-0.19092">
        <ele>2035.4</ele>
        <time>2026-07-15T08:03:29Z</time>
      </trkpt>
      <trkpt lat="42.88155" lon="-0.19092">
        <ele>2035.4</ele>
        <time>2026-07-15T08:03:30Z</time>
      </trkpt>
      <trkpt lat="42.88155" lon="-0.19092">
        <ele>2036.4</ele>
        <time>2026-07-15T08:03:31Z</time>
      </trkpt>
      <trkpt lat="42.88154" lon="-0.19092">
        <ele>2036.4</ele>
        <time>2026-07-15T08:03:32Z</time>
      </trkpt>
      <trkpt lat="42.88154" lon="-0.19092">
        <ele>2036.4</ele>
        <time>2026-07-15T08:03:32Z</time>
      </trkpt>
      <trkpt lat="42.88154" lon="-0.19091">
        <ele>2035.4</ele>
        <time>2026-07-15T08:03:33Z</time>
      </trkpt>
      <trkpt lat="42.88153" lon="-0.19091">
        <ele>2036.4</ele>
        <time>2026-07-15T08:03:34Z</time>
      </trkpt>
      <trkpt lat="42.88153" lon="-0.19091">
        <ele>2036.4</ele>
        <time>2026-07-15T08:03:35Z</time>
      </trkpt>
      <trkpt lat="42.88152" lon="-0.19092">
        <ele>2036.4</ele>
        <time>2026-07-15T08:03:36Z</time>
      </trkpt>
      <trkpt lat="42.88152" lon="-0.19092">
        <ele>2038.4</ele>
        <time>2026-07-15T08:03:37Z</time>
      </trkpt>
      <trkpt lat="42.88151" lon="-0.19092">
        <ele>2039.4</ele>
        <time>2026-07-15T08:03:38Z</time>
      </trkpt>
      <trkpt lat="42.88151" lon="-0.19092">
        <ele>2039.4</ele>
        <time>2026-07-15T08:03:39Z</time>
      </trkpt>
      <trkpt lat="42.88151" lon="-0.19092">
        <ele>2039.4</ele>
        <time>2026-07-15T08:03:40Z</time>
      </trkpt>
      <trkpt lat="42.88151" lon="-0.19092">
        <ele>2039.4</ele>
        <time>2026-07-15T08:03:41Z</time>
      </trkpt>
      <trkpt lat="42.88151" lon="-0.19092">
        <ele>2039.4</ele>
        <time>2026-07-15T08:03:42Z</time>
      </trkpt>
      <trkpt lat="42.8815" lon="-0.19093">
        <ele>2039.4</ele>
        <time>2026-07-15T08:03:43Z</time>
      </trkpt>
      <trkpt lat="42.8815" lon="-0.19093">
        <ele>2040.4</ele>
        <time>2026-07-15T08:03:43Z</time>
      </trkpt>
      <trkpt lat="42.8815" lon="-0.19093">
        <ele>2040.4</ele>
        <time>2026-07-15T08:03:44Z</time>
      </trkpt>
      <trkpt lat="42.88149" lon="-0.19094">
        <ele>2040.4</ele>
        <time>2026-07-15T08:03:44Z</time>
      </trkpt>
      <trkpt lat="42.88149" lon="-0.19094">
        <ele>2040.4</ele>
        <time>2026-07-15T08:03:45Z</time>
      </trkpt>
      <trkpt lat="42.88149" lon="-0.19094">
        <ele>2040.4</ele>
        <time>2026-07-15T08:03:46Z</time>
      </trkpt>
      <trkpt lat="42.88148" lon="-0.19095">
        <ele>2040.4</ele>
        <time>2026-07-15T08:03:47Z</time>
      </trkpt>
      <trkpt lat="42.88148" lon="-0.19095">
        <ele>2040.4</ele>
        <time>2026-07-15T08:03:48Z</time>
      </trkpt>
      <trkpt lat="42.88148" lon="-0.19096">
        <ele>2040.4</ele>
        <time>2026-07-15T08:03:49Z</time>
      </trkpt>
      <trkpt lat="42.88148" lon="-0.19096">
        <ele>2039.4</ele>
        <time>2026-07-15T08:03:49Z</time>
      </trkpt>
      <trkpt lat="42.88147" lon="-0.19096">
        <ele>2039.4</ele>
        <time>2026-07-15T08:03:50Z</time>
      </trkpt>
      <trkpt lat="42.88147" lon="-0.19097">
        <ele>2039.4</ele>
        <time>2026-07-15T08:03:51Z</time>
      </trkpt>
      <trkpt lat="42.88147" lon="-0.19098">
        <ele>2039.4</ele>
        <time>2026-07-15T08:03:52Z</time>
      </trkpt>
      <trkpt lat="42.88146" lon="-0.19098">
        <ele>2039.4</ele>
        <time>2026-07-15T08:03:53Z</time>
      </trkpt>
      <trkpt lat="42.88146" lon="-0.19098">
        <ele>2039.4</ele>
        <time>2026-07-15T08:03:54Z</time>
      </trkpt>
      <trkpt lat="42.88146" lon="-0.19097">
        <ele>2039.4</ele>
        <time>2026-07-15T08:03:55Z</time>
      </trkpt>
      <trkpt lat="42.88146" lon="-0.19097">
        <ele>2039.4</ele>
        <time>2026-07-15T08:03:55Z</time>
      </trkpt>
      <trkpt lat="42.88146" lon="-0.19097">
        <ele>2039.4</ele>
        <time>2026-07-15T08:03:56Z</time>
      </trkpt>
      <trkpt lat="42.88145" lon="-0.19097">
        <ele>2039.4</ele>
        <time>2026-07-15T08:03:57Z</time>
      </trkpt>
      <trkpt lat="42.88145" lon="-0.19097">
        <ele>2039.4</ele>
        <time>2026-07-15T08:03:58Z</time>
      </trkpt>
      <trkpt lat="42.88144" lon="-0.19097">
        <ele>2040.4</ele>
        <time>2026-07-15T08:03:59Z</time>
      </trkpt>
      <trkpt lat="42.88144" lon="-0.19096">
        <ele>2040.4</ele>
        <time>2026-07-15T08:04:00Z</time>
      </trkpt>
      <trkpt lat="42.88143" lon="-0.19096">
        <ele>2041.4</ele>
        <time>2026-07-15T08:04:00Z</time>
      </trkpt>
      <trkpt lat="42.88143" lon="-0.19096">
        <ele>2041.4</ele>
        <time>2026-07-15T08:04:01Z</time>
      </trkpt>
      <trkpt lat="42.88142" lon="-0.19095">
        <ele>2041.4</ele>
        <time>2026-07-15T08:04:02Z</time>
      </trkpt>
      <trkpt lat="42.88142" lon="-0.19095">
        <ele>2041.4</ele>
        <time>2026-07-15T08:04:03Z</time>
      </trkpt>
      <trkpt lat="42.88141" lon="-0.19095">
        <ele>2041.4</ele>
        <time>2026-07-15T08:04:04Z</time>
      </trkpt>
      <trkpt lat="42.88141" lon="-0.19095">
        <ele>2041.4</ele>
        <time>2026-07-15T08:04:05Z</time>
      </trkpt>
      <trkpt lat="42.8814" lon="-0.19095">
        <ele>2041.4</ele>
        <time>2026-07-15T08:04:06Z</time>
      </trkpt>
      <trkpt lat="42.8814" lon="-0.19095">
        <ele>2041.4</ele>
        <time>2026-07-15T08:04:07Z</time>
      </trkpt>
      <trkpt lat="42.88139" lon="-0.19094">
        <ele>2040.4</ele>
        <time>2026-07-15T08:04:08Z</time>
      </trkpt>
      <trkpt lat="42.88139" lon="-0.19094">
        <ele>2040.4</ele>
        <time>2026-07-15T08:04:08Z</time>
      </trkpt>
      <trkpt lat="42.88139" lon="-0.19094">
        <ele>2040.4</ele>
        <time>2026-07-15T08:04:09Z</time>
      </trkpt>
      <trkpt lat="42.88139" lon="-0.19093">
        <ele>2041.4</ele>
        <time>2026-07-15T08:04:09Z</time>
      </trkpt>
      <trkpt lat="42.88138" lon="-0.19092">
        <ele>2041.4</ele>
        <time>2026-07-15T08:04:10Z</time>
      </trkpt>
      <trkpt lat="42.88138" lon="-0.19091">
        <ele>2042.4</ele>
        <time>2026-07-15T08:04:11Z</time>
      </trkpt>
      <trkpt lat="42.88139" lon="-0.1909">
        <ele>2042.4</ele>
        <time>2026-07-15T08:04:12Z</time>
      </trkpt>
      <trkpt lat="42.88139" lon="-0.1909">
        <ele>2042.4</ele>
        <time>2026-07-15T08:04:13Z</time>
      </trkpt>
      <trkpt lat="42.88139" lon="-0.1909">
        <ele>2042.4</ele>
        <time>2026-07-15T08:04:14Z</time>
      </trkpt>
      <trkpt lat="42.8814" lon="-0.19089">
        <ele>2043.4</ele>
        <time>2026-07-15T08:04:15Z</time>
      </trkpt>
      <trkpt lat="42.8814" lon="-0.19089">
        <ele>2043.4</ele>
        <time>2026-07-15T08:04:15Z</time>
      </trkpt>
      <trkpt lat="42.8814" lon="-0.19088">
        <ele>2043.4</ele>
        <time>2026-07-15T08:04:16Z</time>
      </trkpt>
      <trkpt lat="42.8814" lon="-0.19087">
        <ele>2043.4</ele>
        <time>2026-07-15T08:04:17Z</time>
      </trkpt>
      <trkpt lat="42.88141" lon="-0.19087">
        <ele>2043.4</ele>
        <time>2026-07-15T08:04:18Z</time>
      </trkpt>
      <trkpt lat="42.88141" lon="-0.19086">
        <ele>2043.4</ele>
        <time>2026-07-15T08:04:19Z</time>
      </trkpt>
      <trkpt lat="42.88141" lon="-0.19085">
        <ele>2043.4</ele>
        <time>2026-07-15T08:04:20Z</time>
      </trkpt>
      <trkpt lat="42.88142" lon="-0.19085">
        <ele>2044.4</ele>
        <time>2026-07-15T08:04:20Z</time>
      </trkpt>
      <trkpt lat="42.88142" lon="-0.19084">
        <ele>2044.4</ele>
        <time>2026-07-15T08:04:21Z</time>
      </trkpt>
      <trkpt lat="42.88143" lon="-0.19084">
        <ele>2044.4</ele>
        <time>2026-07-15T08:04:22Z</time>
      </trkpt>
      <trkpt lat="42.88143" lon="-0.19083">
        <ele>2045.4</ele>
        <time>2026-07-15T08:04:23Z</time>
      </trkpt>
      <trkpt lat="42.88143" lon="-0.19083">
        <ele>2045.4</ele>
        <time>2026-07-15T08:04:23Z</time>
      </trkpt>
      <trkpt lat="42.88143" lon="-0.19082">
        <ele>2046.4</ele>
        <time>2026-07-15T08:04:24Z</time>
      </trkpt>
      <trkpt lat="42.88143" lon="-0.19081">
        <ele>2046.4</ele>
        <time>2026-07-15T08:04:25Z</time>
      </trkpt>
      <trkpt lat="42.88144" lon="-0.19081">
        <ele>2046.4</ele>
        <time>2026-07-15T08:04:26Z</time>
      </trkpt>
      <trkpt lat="42.88144" lon="-0.1908">
        <ele>2045.4</ele>
        <time>2026-07-15T08:04:27Z</time>
      </trkpt>
      <trkpt lat="42.88144" lon="-0.19079">
        <ele>2046.4</ele>
        <time>2026-07-15T08:04:28Z</time>
      </trkpt>
      <trkpt lat="42.88145" lon="-0.19079">
        <ele>2046.4</ele>
        <time>2026-07-15T08:04:28Z</time>
      </trkpt>
      <trkpt lat="42.88145" lon="-0.19078">
        <ele>2046.4</ele>
        <time>2026-07-15T08:04:29Z</time>
      </trkpt>
      <trkpt lat="42.88145" lon="-0.19077">
        <ele>2046.4</ele>
        <time>2026-07-15T08:04:30Z</time>
      </trkpt>
      <trkpt lat="42.88145" lon="-0.19077">
        <ele>2046.4</ele>
        <time>2026-07-15T08:04:31Z</time>
      </trkpt>
      <trkpt lat="42.88145" lon="-0.19076">
        <ele>2047.4</ele>
        <time>2026-07-15T08:04:32Z</time>
      </trkpt>
      <trkpt lat="42.88145" lon="-0.19075">
        <ele>2048.4</ele>
        <time>2026-07-15T08:04:33Z</time>
      </trkpt>
      <trkpt lat="42.88145" lon="-0.19075">
        <ele>2048.4</ele>
        <time>2026-07-15T08:04:33Z</time>
      </trkpt>
      <trkpt lat="42.88145" lon="-0.19074">
        <ele>2049.4</ele>
        <time>2026-07-15T08:04:34Z</time>
      </trkpt>
      <trkpt lat="42.88145" lon="-0.19073">
        <ele>2048.4</ele>
        <time>2026-07-15T08:04:35Z</time>
      </trkpt>
      <trkpt lat="42.88146" lon="-0.19072">
        <ele>2048.4</ele>
        <time>2026-07-15T08:04:36Z</time>
      </trkpt>
      <trkpt lat="42.88146" lon="-0.19071">
        <ele>2048.4</ele>
        <time>2026-07-15T08:04:37Z</time>
      </trkpt>
      <trkpt lat="42.88146" lon="-0.19071">
        <ele>2048.4</ele>
        <time>2026-07-15T08:04:37Z</time>
      </trkpt>
      <trkpt lat="42.88146" lon="-0.1907">
        <ele>2048.4</ele>
        <time>2026-07-15T08:04:38Z</time>
      </trkpt>
      <trkpt lat="42.88146" lon="-0.19069">
        <ele>2047.4</ele>
        <time>2026-07-15T08:04:39Z</time>
      </trkpt>
      <trkpt lat="42.88146" lon="-0.19068">
        <ele>2047.4</ele>
        <time>2026-07-15T08:04:40Z</time>
      </trkpt>
      <trkpt lat="42.88146" lon="-0.19067">
        <ele>2048.4</ele>
        <time>2026-07-15T08:04:41Z</time>
      </trkpt>
      <trkpt lat="42.88146" lon="-0.19067">
        <ele>2049.4</ele>
        <time>2026-07-15T08:04:42Z</time>
      </trkpt>
      <trkpt lat="42.88146" lon="-0.19066">
        <ele>2049.4</ele>
        <time>2026-07-15T08:04:43Z</time>
      </trkpt>
      <trkpt lat="42.88146" lon="-0.19066">
        <ele>2049.4</ele>
        <time>2026-07-15T08:04:44Z</time>
      </trkpt>
      <trkpt lat="42.88146" lon="-0.19065">
        <ele>2049.4</ele>
        <time>2026-07-15T08:04:45Z</time>
      </trkpt>
      <trkpt lat="42.88146" lon="-0.19065">
        <ele>2048.4</ele>
        <time>2026-07-15T08:04:46Z</time>
      </trkpt>
      <trkpt lat="42.88146" lon="-0.19064">
        <ele>2048.4</ele>
        <time>2026-07-15T08:04:46Z</time>
      </trkpt>
      <trkpt lat="42.88146" lon="-0.19064">
        <ele>2049.4</ele>
        <time>2026-07-15T08:04:47Z</time>
      </trkpt>
      <trkpt lat="42.88146" lon="-0.19063">
        <ele>2049.4</ele>
        <time>2026-07-15T08:04:48Z</time>
      </trkpt>
      <trkpt lat="42.88146" lon="-0.19062">
        <ele>2048.4</ele>
        <time>2026-07-15T08:04:49Z</time>
      </trkpt>
      <trkpt lat="42.88146" lon="-0.19061">
        <ele>2049.4</ele>
        <time>2026-07-15T08:04:50Z</time>
      </trkpt>
      <trkpt lat="42.88146" lon="-0.19061">
        <ele>2048.4</ele>
        <time>2026-07-15T08:04:51Z</time>
      </trkpt>
      <trkpt lat="42.88146" lon="-0.1906">
        <ele>2048.4</ele>
        <time>2026-07-15T08:04:52Z</time>
      </trkpt>
      <trkpt lat="42.88146" lon="-0.19059">
        <ele>2048.4</ele>
        <time>2026-07-15T08:04:52Z</time>
      </trkpt>
      <trkpt lat="42.88146" lon="-0.19059">
        <ele>2048.4</ele>
        <time>2026-07-15T08:04:53Z</time>
      </trkpt>
      <trkpt lat="42.88146" lon="-0.19058">
        <ele>2048.4</ele>
        <time>2026-07-15T08:04:54Z</time>
      </trkpt>
      <trkpt lat="42.88146" lon="-0.19057">
        <ele>2048.4</ele>
        <time>2026-07-15T08:04:55Z</time>
      </trkpt>
      <trkpt lat="42.88146" lon="-0.19056">
        <ele>2048.4</ele>
        <time>2026-07-15T08:04:56Z</time>
      </trkpt>
      <trkpt lat="42.88146" lon="-0.19056">
        <ele>2048.4</ele>
        <time>2026-07-15T08:04:57Z</time>
      </trkpt>
      <trkpt lat="42.88146" lon="-0.19055">
        <ele>2048.4</ele>
        <time>2026-07-15T08:04:58Z</time>
      </trkpt>
      <trkpt lat="42.88146" lon="-0.19054">
        <ele>2048.4</ele>
        <time>2026-07-15T08:04:59Z</time>
      </trkpt>
      <trkpt lat="42.88146" lon="-0.19054">
        <ele>2048.4</ele>
        <time>2026-07-15T08:04:59Z</time>
      </trkpt>
      <trkpt lat="42.88146" lon="-0.19053">
        <ele>2048.4</ele>
        <time>2026-07-15T08:05:00Z</time>
      </trkpt>
      <trkpt lat="42.88146" lon="-0.19052">
        <ele>2048.4</ele>
        <time>2026-07-15T08:05:01Z</time>
      </trkpt>
      <trkpt lat="42.88147" lon="-0.19052">
        <ele>2050.4</ele>
        <time>2026-07-15T08:05:02Z</time>
      </trkpt>
      <trkpt lat="42.88147" lon="-0.19051">
        <ele>2050.4</ele>
        <time>2026-07-15T08:05:03Z</time>
      </trkpt>
      <trkpt lat="42.88147" lon="-0.19051">
        <ele>2051.4</ele>
        <time>2026-07-15T08:05:04Z</time>
      </trkpt>
      <trkpt lat="42.88147" lon="-0.1905">
        <ele>2051.4</ele>
        <time>2026-07-15T08:05:05Z</time>
      </trkpt>
      <trkpt lat="42.88147" lon="-0.1905">
        <ele>2051.4</ele>
        <time>2026-07-15T08:05:05Z</time>
      </trkpt>
      <trkpt lat="42.88147" lon="-0.1905">
        <ele>2051.4</ele>
        <time>2026-07-15T08:05:06Z</time>
      </trkpt>
      <trkpt lat="42.88148" lon="-0.19049">
        <ele>2051.4</ele>
        <time>2026-07-15T08:05:07Z</time>
      </trkpt>
      <trkpt lat="42.88148" lon="-0.19049">
        <ele>2051.4</ele>
        <time>2026-07-15T08:05:08Z</time>
      </trkpt>
      <trkpt lat="42.88148" lon="-0.19049">
        <ele>2051.4</ele>
        <time>2026-07-15T08:05:09Z</time>
      </trkpt>
      <trkpt lat="42.88148" lon="-0.19048">
        <ele>2051.4</ele>
        <time>2026-07-15T08:05:10Z</time>
      </trkpt>
      <trkpt lat="42.88149" lon="-0.19048">
        <ele>2052.4</ele>
        <time>2026-07-15T08:05:11Z</time>
      </trkpt>
      <trkpt lat="42.88149" lon="-0.19047">
        <ele>2052.4</ele>
        <time>2026-07-15T08:05:12Z</time>
      </trkpt>
      <trkpt lat="42.88149" lon="-0.19047">
        <ele>2052.4</ele>
        <time>2026-07-15T08:05:12Z</time>
      </trkpt>
      <trkpt lat="42.88149" lon="-0.19046">
        <ele>2052.4</ele>
        <time>2026-07-15T08:05:13Z</time>
      </trkpt>
      <trkpt lat="42.88149" lon="-0.19046">
        <ele>2052.4</ele>
        <time>2026-07-15T08:05:14Z</time>
      </trkpt>
      <trkpt lat="42.8815" lon="-0.19045">
        <ele>2052.4</ele>
        <time>2026-07-15T08:05:15Z</time>
      </trkpt>
      <trkpt lat="42.8815" lon="-0.19044">
        <ele>2052.4</ele>
        <time>2026-07-15T08:05:16Z</time>
      </trkpt>
      <trkpt lat="42.8815" lon="-0.19043">
        <ele>2052.4</ele>
        <time>2026-07-15T08:05:17Z</time>
      </trkpt>
      <trkpt lat="42.8815" lon="-0.19043">
        <ele>2052.4</ele>
        <time>2026-07-15T08:05:18Z</time>
      </trkpt>
      <trkpt lat="42.8815" lon="-0.19042">
        <ele>2052.4</ele>
        <time>2026-07-15T08:05:19Z</time>
      </trkpt>
      <trkpt lat="42.8815" lon="-0.19042">
        <ele>2052.4</ele>
        <time>2026-07-15T08:05:20Z</time>
      </trkpt>
      <trkpt lat="42.8815" lon="-0.19041">
        <ele>2052.4</ele>
        <time>2026-07-15T08:05:21Z</time>
      </trkpt>
      <trkpt lat="42.8815" lon="-0.19041">
        <ele>2052.4</ele>
        <time>2026-07-15T08:05:21Z</time>
      </trkpt>
      <trkpt lat="42.88151" lon="-0.1904">
        <ele>2052.4</ele>
        <time>2026-07-15T08:05:22Z</time>
      </trkpt>
      <trkpt lat="42.8815" lon="-0.1904">
        <ele>2052.4</ele>
        <time>2026-07-15T08:05:22Z</time>
      </trkpt>
      <trkpt lat="42.8815" lon="-0.1904">
        <ele>2053.4</ele>
        <time>2026-07-15T08:05:23Z</time>
      </trkpt>
      <trkpt lat="42.8815" lon="-0.19039">
        <ele>2053.4</ele>
        <time>2026-07-15T08:05:24Z</time>
      </trkpt>
      <trkpt lat="42.8815" lon="-0.19038">
        <ele>2053.4</ele>
        <time>2026-07-15T08:05:25Z</time>
      </trkpt>
      <trkpt lat="42.8815" lon="-0.19038">
        <ele>2053.4</ele>
        <time>2026-07-15T08:05:26Z</time>
      </trkpt>
      <trkpt lat="42.8815" lon="-0.19038">
        <ele>2053.4</ele>
        <time>2026-07-15T08:05:27Z</time>
      </trkpt>
      <trkpt lat="42.8815" lon="-0.19037">
        <ele>2053.4</ele>
        <time>2026-07-15T08:05:28Z</time>
      </trkpt>
      <trkpt lat="42.8815" lon="-0.19036">
        <ele>2054.4</ele>
        <time>2026-07-15T08:05:29Z</time>
      </trkpt>
      <trkpt lat="42.8815" lon="-0.19036">
        <ele>2054.4</ele>
        <time>2026-07-15T08:05:30Z</time>
      </trkpt>
      <trkpt lat="42.8815" lon="-0.19036">
        <ele>2054.4</ele>
        <time>2026-07-15T08:05:30Z</time>
      </trkpt>
      <trkpt lat="42.8815" lon="-0.19035">
        <ele>2054.4</ele>
        <time>2026-07-15T08:05:31Z</time>
      </trkpt>
      <trkpt lat="42.8815" lon="-0.19035">
        <ele>2054.4</ele>
        <time>2026-07-15T08:05:32Z</time>
      </trkpt>
      <trkpt lat="42.88149" lon="-0.19035">
        <ele>2055.4</ele>
        <time>2026-07-15T08:05:33Z</time>
      </trkpt>
      <trkpt lat="42.88149" lon="-0.19036">
        <ele>2055.4</ele>
        <time>2026-07-15T08:05:33Z</time>
      </trkpt>
      <trkpt lat="42.88149" lon="-0.19036">
        <ele>2055.4</ele>
        <time>2026-07-15T08:05:34Z</time>
      </trkpt>
      <trkpt lat="42.88148" lon="-0.19036">
        <ele>2055.4</ele>
        <time>2026-07-15T08:05:35Z</time>
      </trkpt>
      <trkpt lat="42.88147" lon="-0.19036">
        <ele>2055.4</ele>
        <time>2026-07-15T08:05:36Z</time>
      </trkpt>
      <trkpt lat="42.88147" lon="-0.19037">
        <ele>2055.4</ele>
        <time>2026-07-15T08:05:37Z</time>
      </trkpt>
      <trkpt lat="42.88147" lon="-0.19037">
        <ele>2056.4</ele>
        <time>2026-07-15T08:05:38Z</time>
      </trkpt>
      <trkpt lat="42.88146" lon="-0.19037">
        <ele>2056.4</ele>
        <time>2026-07-15T08:05:38Z</time>
      </trkpt>
      <trkpt lat="42.88146" lon="-0.19038">
        <ele>2056.4</ele>
        <time>2026-07-15T08:05:39Z</time>
      </trkpt>
      <trkpt lat="42.88146" lon="-0.19038">
        <ele>2056.4</ele>
        <time>2026-07-15T08:05:40Z</time>
      </trkpt>
      <trkpt lat="42.88146" lon="-0.19039">
        <ele>2056.4</ele>
        <time>2026-07-15T08:05:41Z</time>
      </trkpt>
      <trkpt lat="42.88145" lon="-0.19039">
        <ele>2056.4</ele>
        <time>2026-07-15T08:05:42Z</time>
      </trkpt>
      <trkpt lat="42.88145" lon="-0.19039">
        <ele>2056.4</ele>
        <time>2026-07-15T08:05:43Z</time>
      </trkpt>
      <trkpt lat="42.88145" lon="-0.19039">
        <ele>2056.4</ele>
        <time>2026-07-15T08:05:44Z</time>
      </trkpt>
      <trkpt lat="42.88145" lon="-0.19039">
        <ele>2056.4</ele>
        <time>2026-07-15T08:05:45Z</time>
      </trkpt>
      <trkpt lat="42.88145" lon="-0.19039">
        <ele>2056.4</ele>
        <time>2026-07-15T08:05:46Z</time>
      </trkpt>
      <trkpt lat="42.88146" lon="-0.19039">
        <ele>2056.4</ele>
        <time>2026-07-15T08:05:47Z</time>
      </trkpt>
      <trkpt lat="42.88146" lon="-0.19039">
        <ele>2055.4</ele>
        <time>2026-07-15T08:05:48Z</time>
      </trkpt>
      <trkpt lat="42.88146" lon="-0.19039">
        <ele>2055.4</ele>
        <time>2026-07-15T08:05:49Z</time>
      </trkpt>
      <trkpt lat="42.88145" lon="-0.19039">
        <ele>2055.4</ele>
        <time>2026-07-15T08:05:50Z</time>
      </trkpt>
      <trkpt lat="42.88145" lon="-0.19039">
        <ele>2055.4</ele>
        <time>2026-07-15T08:05:51Z</time>
      </trkpt>
      <trkpt lat="42.88145" lon="-0.19039">
        <ele>2054.4</ele>
        <time>2026-07-15T08:05:52Z</time>
      </trkpt>
      <trkpt lat="42.88144" lon="-0.19039">
        <ele>2054.4</ele>
        <time>2026-07-15T08:05:53Z</time>
      </trkpt>
      <trkpt lat="42.88143" lon="-0.19039">
        <ele>2054.4</ele>
        <time>2026-07-15T08:05:54Z</time>
      </trkpt>
      <trkpt lat="42.88143" lon="-0.1904">
        <ele>2054.4</ele>
        <time>2026-07-15T08:05:55Z</time>
      </trkpt>
      <trkpt lat="42.88142" lon="-0.19039">
        <ele>2054.4</ele>
        <time>2026-07-15T08:05:55Z</time>
      </trkpt>
      <trkpt lat="42.88142" lon="-0.1904">
        <ele>2054.4</ele>
        <time>2026-07-15T08:05:56Z</time>
      </trkpt>
      <trkpt lat="42.88142" lon="-0.1904">
        <ele>2054.4</ele>
        <time>2026-07-15T08:05:56Z</time>
      </trkpt>
      <trkpt lat="42.88141" lon="-0.19039">
        <ele>2054.4</ele>
        <time>2026-07-15T08:05:57Z</time>
      </trkpt>
      <trkpt lat="42.88141" lon="-0.19039">
        <ele>2054.4</ele>
        <time>2026-07-15T08:05:58Z</time>
      </trkpt>
      <trkpt lat="42.8814" lon="-0.19039">
        <ele>2054.4</ele>
        <time>2026-07-15T08:05:59Z</time>
      </trkpt>
      <trkpt lat="42.8814" lon="-0.19039">
        <ele>2055.4</ele>
        <time>2026-07-15T08:06:00Z</time>
      </trkpt>
      <trkpt lat="42.8814" lon="-0.19038">
        <ele>2055.4</ele>
        <time>2026-07-15T08:06:00Z</time>
      </trkpt>
      <trkpt lat="42.8814" lon="-0.19038">
        <ele>2055.4</ele>
        <time>2026-07-15T08:06:01Z</time>
      </trkpt>
      <trkpt lat="42.88139" lon="-0.19038">
        <ele>2055.4</ele>
        <time>2026-07-15T08:06:02Z</time>
      </trkpt>
      <trkpt lat="42.88139" lon="-0.19039">
        <ele>2057.4</ele>
        <time>2026-07-15T08:06:03Z</time>
      </trkpt>
      <trkpt lat="42.88138" lon="-0.19039">
        <ele>2057.4</ele>
        <time>2026-07-15T08:06:04Z</time>
      </trkpt>
      <trkpt lat="42.88138" lon="-0.19039">
        <ele>2058.4</ele>
        <time>2026-07-15T08:06:05Z</time>
      </trkpt>
      <trkpt lat="42.88138" lon="-0.19039">
        <ele>2058.4</ele>
        <time>2026-07-15T08:06:06Z</time>
      </trkpt>
      <trkpt lat="42.88138" lon="-0.19039">
        <ele>2058.4</ele>
        <time>2026-07-15T08:06:06Z</time>
      </trkpt>
      <trkpt lat="42.88137" lon="-0.19039">
        <ele>2058.4</ele>
        <time>2026-07-15T08:06:07Z</time>
      </trkpt>
      <trkpt lat="42.88137" lon="-0.19039">
        <ele>2058.4</ele>
        <time>2026-07-15T08:06:08Z</time>
      </trkpt>
      <trkpt lat="42.88136" lon="-0.19039">
        <ele>2058.4</ele>
        <time>2026-07-15T08:06:08Z</time>
      </trkpt>
      <trkpt lat="42.88136" lon="-0.19039">
        <ele>2058.4</ele>
        <time>2026-07-15T08:06:09Z</time>
      </trkpt>
      <trkpt lat="42.88136" lon="-0.1904">
        <ele>2058.4</ele>
        <time>2026-07-15T08:06:10Z</time>
      </trkpt>
      <trkpt lat="42.88135" lon="-0.1904">
        <ele>2058.4</ele>
        <time>2026-07-15T08:06:11Z</time>
      </trkpt>
      <trkpt lat="42.88135" lon="-0.1904">
        <ele>2060.4</ele>
        <time>2026-07-15T08:06:11Z</time>
      </trkpt>
      <trkpt lat="42.88135" lon="-0.1904">
        <ele>2060.4</ele>
        <time>2026-07-15T08:06:12Z</time>
      </trkpt>
      <trkpt lat="42.88134" lon="-0.19039">
        <ele>2061.4</ele>
        <time>2026-07-15T08:06:13Z</time>
      </trkpt>
      <trkpt lat="42.88133" lon="-0.19039">
        <ele>2061.4</ele>
        <time>2026-07-15T08:06:14Z</time>
      </trkpt>
      <trkpt lat="42.88133" lon="-0.19039">
        <ele>2062.4</ele>
        <time>2026-07-15T08:06:15Z</time>
      </trkpt>
      <trkpt lat="42.88132" lon="-0.19039">
        <ele>2061.4</ele>
        <time>2026-07-15T08:06:16Z</time>
      </trkpt>
      <trkpt lat="42.88132" lon="-0.19039">
        <ele>2061.4</ele>
        <time>2026-07-15T08:06:17Z</time>
      </trkpt>
      <trkpt lat="42.88131" lon="-0.19039">
        <ele>2061.4</ele>
        <time>2026-07-15T08:06:18Z</time>
      </trkpt>
      <trkpt lat="42.88131" lon="-0.19039">
        <ele>2061.4</ele>
        <time>2026-07-15T08:06:19Z</time>
      </trkpt>
      <trkpt lat="42.8813" lon="-0.1904">
        <ele>2061.4</ele>
        <time>2026-07-15T08:06:20Z</time>
      </trkpt>
      <trkpt lat="42.8813" lon="-0.1904">
        <ele>2061.4</ele>
        <time>2026-07-15T08:06:21Z</time>
      </trkpt>
      <trkpt lat="42.8813" lon="-0.1904">
        <ele>2061.4</ele>
        <time>2026-07-15T08:06:22Z</time>
      </trkpt>
      <trkpt lat="42.88129" lon="-0.19039">
        <ele>2061.4</ele>
        <time>2026-07-15T08:06:23Z</time>
      </trkpt>
      <trkpt lat="42.88129" lon="-0.19039">
        <ele>2061.4</ele>
        <time>2026-07-15T08:06:23Z</time>
      </trkpt>
      <trkpt lat="42.88128" lon="-0.19039">
        <ele>2061.4</ele>
        <time>2026-07-15T08:06:24Z</time>
      </trkpt>
      <trkpt lat="42.88128" lon="-0.19039">
        <ele>2061.4</ele>
        <time>2026-07-15T08:06:25Z</time>
      </trkpt>
      <trkpt lat="42.88127" lon="-0.19039">
        <ele>2061.4</ele>
        <time>2026-07-15T08:06:26Z</time>
      </trkpt>
      <trkpt lat="42.88127" lon="-0.19039">
        <ele>2062.4</ele>
        <time>2026-07-15T08:06:26Z</time>
      </trkpt>
      <trkpt lat="42.88127" lon="-0.19039">
        <ele>2062.4</ele>
        <time>2026-07-15T08:06:27Z</time>
      </trkpt>
      <trkpt lat="42.88126" lon="-0.19039">
        <ele>2062.4</ele>
        <time>2026-07-15T08:06:27Z</time>
      </trkpt>
      <trkpt lat="42.88126" lon="-0.19039">
        <ele>2062.4</ele>
        <time>2026-07-15T08:06:28Z</time>
      </trkpt>
      <trkpt lat="42.88126" lon="-0.19039">
        <ele>2063.4</ele>
        <time>2026-07-15T08:06:29Z</time>
      </trkpt>
      <trkpt lat="42.88125" lon="-0.19038">
        <ele>2063.4</ele>
        <time>2026-07-15T08:06:30Z</time>
      </trkpt>
      <trkpt lat="42.88125" lon="-0.19038">
        <ele>2063.4</ele>
        <time>2026-07-15T08:06:31Z</time>
      </trkpt>
      <trkpt lat="42.88125" lon="-0.19038">
        <ele>2063.4</ele>
        <time>2026-07-15T08:06:32Z</time>
      </trkpt>
      <trkpt lat="42.88125" lon="-0.19038">
        <ele>2065.4</ele>
        <time>2026-07-15T08:06:33Z</time>
      </trkpt>
      <trkpt lat="42.88124" lon="-0.19038">
        <ele>2065.4</ele>
        <time>2026-07-15T08:06:34Z</time>
      </trkpt>
      <trkpt lat="42.88124" lon="-0.19038">
        <ele>2065.4</ele>
        <time>2026-07-15T08:06:35Z</time>
      </trkpt>
      <trkpt lat="42.88123" lon="-0.19038">
        <ele>2065.4</ele>
        <time>2026-07-15T08:06:36Z</time>
      </trkpt>
      <trkpt lat="42.88123" lon="-0.19038">
        <ele>2065.4</ele>
        <time>2026-07-15T08:06:37Z</time>
      </trkpt>
      <trkpt lat="42.88123" lon="-0.19038">
        <ele>2065.4</ele>
        <time>2026-07-15T08:06:38Z</time>
      </trkpt>
      <trkpt lat="42.88122" lon="-0.19038">
        <ele>2065.4</ele>
        <time>2026-07-15T08:06:39Z</time>
      </trkpt>
      <trkpt lat="42.88122" lon="-0.19038">
        <ele>2065.4</ele>
        <time>2026-07-15T08:06:40Z</time>
      </trkpt>
      <trkpt lat="42.88122" lon="-0.19038">
        <ele>2065.4</ele>
        <time>2026-07-15T08:06:41Z</time>
      </trkpt>
      <trkpt lat="42.88122" lon="-0.19038">
        <ele>2065.4</ele>
        <time>2026-07-15T08:06:42Z</time>
      </trkpt>
      <trkpt lat="42.88121" lon="-0.19038">
        <ele>2066.4</ele>
        <time>2026-07-15T08:06:43Z</time>
      </trkpt>
      <trkpt lat="42.88121" lon="-0.19038">
        <ele>2066.4</ele>
        <time>2026-07-15T08:06:44Z</time>
      </trkpt>
      <trkpt lat="42.88121" lon="-0.19038">
        <ele>2066.4</ele>
        <time>2026-07-15T08:06:45Z</time>
      </trkpt>
      <trkpt lat="42.8812" lon="-0.19038">
        <ele>2065.4</ele>
        <time>2026-07-15T08:06:46Z</time>
      </trkpt>
      <trkpt lat="42.88119" lon="-0.19038">
        <ele>2065.4</ele>
        <time>2026-07-15T08:06:47Z</time>
      </trkpt>
      <trkpt lat="42.88119" lon="-0.19038">
        <ele>2065.4</ele>
        <time>2026-07-15T08:06:48Z</time>
      </trkpt>
      <trkpt lat="42.88118" lon="-0.19038">
        <ele>2066.4</ele>
        <time>2026-07-15T08:06:49Z</time>
      </trkpt>
      <trkpt lat="42.88117" lon="-0.19037">
        <ele>2068.4</ele>
        <time>2026-07-15T08:06:50Z</time>
      </trkpt>
      <trkpt lat="42.88117" lon="-0.19037">
        <ele>2067.4</ele>
        <time>2026-07-15T08:06:51Z</time>
      </trkpt>
      <trkpt lat="42.88117" lon="-0.19037">
        <ele>2068.4</ele>
        <time>2026-07-15T08:06:52Z</time>
      </trkpt>
      <trkpt lat="42.88116" lon="-0.19037">
        <ele>2068.4</ele>
        <time>2026-07-15T08:06:53Z</time>
      </trkpt>
      <trkpt lat="42.88116" lon="-0.19037">
        <ele>2068.4</ele>
        <time>2026-07-15T08:06:54Z</time>
      </trkpt>
      <trkpt lat="42.88115" lon="-0.19037">
        <ele>2068.4</ele>
        <time>2026-07-15T08:06:55Z</time>
      </trkpt>
      <trkpt lat="42.88115" lon="-0.19037">
        <ele>2068.4</ele>
        <time>2026-07-15T08:06:56Z</time>
      </trkpt>
      <trkpt lat="42.88114" lon="-0.19037">
        <ele>2068.4</ele>
        <time>2026-07-15T08:06:57Z</time>
      </trkpt>
      <trkpt lat="42.88113" lon="-0.19037">
        <ele>2069.4</ele>
        <time>2026-07-15T08:06:58Z</time>
      </trkpt>
      <trkpt lat="42.88113" lon="-0.19037">
        <ele>2068.4</ele>
        <time>2026-07-15T08:06:59Z</time>
      </trkpt>
      <trkpt lat="42.88112" lon="-0.19037">
        <ele>2069.4</ele>
        <time>2026-07-15T08:07:00Z</time>
      </trkpt>
      <trkpt lat="42.88112" lon="-0.19037">
        <ele>2068.4</ele>
        <time>2026-07-15T08:07:00Z</time>
      </trkpt>
      <trkpt lat="42.88111" lon="-0.19037">
        <ele>2068.4</ele>
        <time>2026-07-15T08:07:01Z</time>
      </trkpt>
      <trkpt lat="42.88111" lon="-0.19037">
        <ele>2068.4</ele>
        <time>2026-07-15T08:07:02Z</time>
      </trkpt>
      <trkpt lat="42.88111" lon="-0.19037">
        <ele>2069.4</ele>
        <time>2026-07-15T08:07:02Z</time>
      </trkpt>
      <trkpt lat="42.8811" lon="-0.19037">
        <ele>2068.4</ele>
        <time>2026-07-15T08:07:03Z</time>
      </trkpt>
      <trkpt lat="42.8811" lon="-0.19037">
        <ele>2068.4</ele>
        <time>2026-07-15T08:07:04Z</time>
      </trkpt>
      <trkpt lat="42.88109" lon="-0.19037">
        <ele>2068.4</ele>
        <time>2026-07-15T08:07:05Z</time>
      </trkpt>
      <trkpt lat="42.88109" lon="-0.19037">
        <ele>2068.4</ele>
        <time>2026-07-15T08:07:06Z</time>
      </trkpt>
      <trkpt lat="42.88109" lon="-0.19037">
        <ele>2068.4</ele>
        <time>2026-07-15T08:07:07Z</time>
      </trkpt>
      <trkpt lat="42.88109" lon="-0.19036">
        <ele>2069.4</ele>
        <time>2026-07-15T08:07:08Z</time>
      </trkpt>
      <trkpt lat="42.88109" lon="-0.19036">
        <ele>2069.4</ele>
        <time>2026-07-15T08:07:09Z</time>
      </trkpt>
      <trkpt lat="42.88108" lon="-0.19036">
        <ele>2070.4</ele>
        <time>2026-07-15T08:07:09Z</time>
      </trkpt>
      <trkpt lat="42.88108" lon="-0.19035">
        <ele>2069.4</ele>
        <time>2026-07-15T08:07:10Z</time>
      </trkpt>
      <trkpt lat="42.88108" lon="-0.19035">
        <ele>2070.4</ele>
        <time>2026-07-15T08:07:11Z</time>
      </trkpt>
      <trkpt lat="42.88107" lon="-0.19035">
        <ele>2070.4</ele>
        <time>2026-07-15T08:07:12Z</time>
      </trkpt>
      <trkpt lat="42.88107" lon="-0.19034">
        <ele>2070.4</ele>
        <time>2026-07-15T08:07:13Z</time>
      </trkpt>
      <trkpt lat="42.88107" lon="-0.19034">
        <ele>2070.4</ele>
        <time>2026-07-15T08:07:14Z</time>
      </trkpt>
      <trkpt lat="42.88107" lon="-0.19034">
        <ele>2070.4</ele>
        <time>2026-07-15T08:07:15Z</time>
      </trkpt>
      <trkpt lat="42.88107" lon="-0.19034">
        <ele>2070.4</ele>
        <time>2026-07-15T08:07:16Z</time>
      </trkpt>
      <trkpt lat="42.88108" lon="-0.19034">
        <ele>2070.4</ele>
        <time>2026-07-15T08:07:17Z</time>
      </trkpt>
      <trkpt lat="42.88108" lon="-0.19034">
        <ele>2070.4</ele>
        <time>2026-07-15T08:07:18Z</time>
      </trkpt>
      <trkpt lat="42.88107" lon="-0.19034">
        <ele>2070.4</ele>
        <time>2026-07-15T08:07:19Z</time>
      </trkpt>
      <trkpt lat="42.88107" lon="-0.19034">
        <ele>2070.4</ele>
        <time>2026-07-15T08:07:20Z</time>
      </trkpt>
      <trkpt lat="42.88107" lon="-0.19033">
        <ele>2070.4</ele>
        <time>2026-07-15T08:07:21Z</time>
      </trkpt>
      <trkpt lat="42.88106" lon="-0.19033">
        <ele>2070.4</ele>
        <time>2026-07-15T08:07:22Z</time>
      </trkpt>
      <trkpt lat="42.88106" lon="-0.19033">
        <ele>2070.4</ele>
        <time>2026-07-15T08:07:23Z</time>
      </trkpt>
      <trkpt lat="42.88105" lon="-0.19032">
        <ele>2070.4</ele>
        <time>2026-07-15T08:07:24Z</time>
      </trkpt>
      <trkpt lat="42.88105" lon="-0.19032">
        <ele>2070.4</ele>
        <time>2026-07-15T08:07:24Z</time>
      </trkpt>
      <trkpt lat="42.88104" lon="-0.19032">
        <ele>2070.4</ele>
        <time>2026-07-15T08:07:25Z</time>
      </trkpt>
      <trkpt lat="42.88104" lon="-0.19032">
        <ele>2070.4</ele>
        <time>2026-07-15T08:07:26Z</time>
      </trkpt>
      <trkpt lat="42.88103" lon="-0.19032">
        <ele>2071.4</ele>
        <time>2026-07-15T08:07:27Z</time>
      </trkpt>
      <trkpt lat="42.88102" lon="-0.19032">
        <ele>2072.4</ele>
        <time>2026-07-15T08:07:28Z</time>
      </trkpt>
      <trkpt lat="42.88102" lon="-0.19031">
        <ele>2072.4</ele>
        <time>2026-07-15T08:07:29Z</time>
      </trkpt>
      <trkpt lat="42.88102" lon="-0.19031">
        <ele>2072.4</ele>
        <time>2026-07-15T08:07:30Z</time>
      </trkpt>
      <trkpt lat="42.88101" lon="-0.19031">
        <ele>2072.4</ele>
        <time>2026-07-15T08:07:31Z</time>
      </trkpt>
      <trkpt lat="42.88101" lon="-0.19031">
        <ele>2072.4</ele>
        <time>2026-07-15T08:07:32Z</time>
      </trkpt>
      <trkpt lat="42.88101" lon="-0.19031">
        <ele>2073.4</ele>
        <time>2026-07-15T08:07:33Z</time>
      </trkpt>
      <trkpt lat="42.881" lon="-0.1903">
        <ele>2073.4</ele>
        <time>2026-07-15T08:07:34Z</time>
      </trkpt>
      <trkpt lat="42.881" lon="-0.1903">
        <ele>2072.4</ele>
        <time>2026-07-15T08:07:35Z</time>
      </trkpt>
      <trkpt lat="42.88099" lon="-0.1903">
        <ele>2072.4</ele>
        <time>2026-07-15T08:07:36Z</time>
      </trkpt>
      <trkpt lat="42.88099" lon="-0.1903">
        <ele>2072.4</ele>
        <time>2026-07-15T08:07:37Z</time>
      </trkpt>
      <trkpt lat="42.88098" lon="-0.1903">
        <ele>2072.4</ele>
        <time>2026-07-15T08:07:38Z</time>
      </trkpt>
      <trkpt lat="42.88098" lon="-0.1903">
        <ele>2073.4</ele>
        <time>2026-07-15T08:07:39Z</time>
      </trkpt>
      <trkpt lat="42.88097" lon="-0.1903">
        <ele>2073.4</ele>
        <time>2026-07-15T08:07:40Z</time>
      </trkpt>
      <trkpt lat="42.88097" lon="-0.1903">
        <ele>2073.4</ele>
        <time>2026-07-15T08:07:41Z</time>
      </trkpt>
      <trkpt lat="42.88096" lon="-0.1903">
        <ele>2073.4</ele>
        <time>2026-07-15T08:07:42Z</time>
      </trkpt>
      <trkpt lat="42.88096" lon="-0.1903">
        <ele>2073.4</ele>
        <time>2026-07-15T08:07:42Z</time>
      </trkpt>
      <trkpt lat="42.88096" lon="-0.1903">
        <ele>2073.4</ele>
        <time>2026-07-15T08:07:43Z</time>
      </trkpt>
      <trkpt lat="42.88096" lon="-0.19029">
        <ele>2073.4</ele>
        <time>2026-07-15T08:07:44Z</time>
      </trkpt>
      <trkpt lat="42.88095" lon="-0.19029">
        <ele>2074.4</ele>
        <time>2026-07-15T08:07:44Z</time>
      </trkpt>
      <trkpt lat="42.88095" lon="-0.19029">
        <ele>2074.4</ele>
        <time>2026-07-15T08:07:45Z</time>
      </trkpt>
      <trkpt lat="42.88095" lon="-0.19029">
        <ele>2074.4</ele>
        <time>2026-07-15T08:07:45Z</time>
      </trkpt>
      <trkpt lat="42.88095" lon="-0.19029">
        <ele>2074.4</ele>
        <time>2026-07-15T08:07:46Z</time>
      </trkpt>
      <trkpt lat="42.88095" lon="-0.19029">
        <ele>2075.4</ele>
        <time>2026-07-15T08:07:46Z</time>
      </trkpt>
      <trkpt lat="42.88094" lon="-0.19029">
        <ele>2075.4</ele>
        <time>2026-07-15T08:07:47Z</time>
      </trkpt>
      <trkpt lat="42.88094" lon="-0.1903">
        <ele>2075.4</ele>
        <time>2026-07-15T08:07:48Z</time>
      </trkpt>
      <trkpt lat="42.88094" lon="-0.1903">
        <ele>2075.4</ele>
        <time>2026-07-15T08:07:48Z</time>
      </trkpt>
      <trkpt lat="42.88093" lon="-0.1903">
        <ele>2076.4</ele>
        <time>2026-07-15T08:07:49Z</time>
      </trkpt>
      <trkpt lat="42.88093" lon="-0.1903">
        <ele>2076.4</ele>
        <time>2026-07-15T08:07:50Z</time>
      </trkpt>
      <trkpt lat="42.88092" lon="-0.1903">
        <ele>2077.4</ele>
        <time>2026-07-15T08:07:51Z</time>
      </trkpt>
      <trkpt lat="42.88092" lon="-0.1903">
        <ele>2077.4</ele>
        <time>2026-07-15T08:07:52Z</time>
      </trkpt>
      <trkpt lat="42.88091" lon="-0.1903">
        <ele>2077.4</ele>
        <time>2026-07-15T08:07:53Z</time>
      </trkpt>
      <trkpt lat="42.88091" lon="-0.1903">
        <ele>2077.4</ele>
        <time>2026-07-15T08:07:54Z</time>
      </trkpt>
      <trkpt lat="42.8809" lon="-0.19029">
        <ele>2077.4</ele>
        <time>2026-07-15T08:07:55Z</time>
      </trkpt>
      <trkpt lat="42.8809" lon="-0.1903">
        <ele>2077.4</ele>
        <time>2026-07-15T08:07:56Z</time>
      </trkpt>
      <trkpt lat="42.88089" lon="-0.1903">
        <ele>2077.4</ele>
        <time>2026-07-15T08:07:57Z</time>
      </trkpt>
      <trkpt lat="42.88089" lon="-0.1903">
        <ele>2077.4</ele>
        <time>2026-07-15T08:07:58Z</time>
      </trkpt>
      <trkpt lat="42.88088" lon="-0.1903">
        <ele>2078.4</ele>
        <time>2026-07-15T08:07:59Z</time>
      </trkpt>
      <trkpt lat="42.88088" lon="-0.19031">
        <ele>2078.4</ele>
        <time>2026-07-15T08:08:00Z</time>
      </trkpt>
      <trkpt lat="42.88088" lon="-0.19031">
        <ele>2078.4</ele>
        <time>2026-07-15T08:08:01Z</time>
      </trkpt>
      <trkpt lat="42.88088" lon="-0.19031">
        <ele>2078.4</ele>
        <time>2026-07-15T08:08:02Z</time>
      </trkpt>
      <trkpt lat="42.88088" lon="-0.19031">
        <ele>2078.4</ele>
        <time>2026-07-15T08:08:03Z</time>
      </trkpt>
      <trkpt lat="42.88088" lon="-0.19031">
        <ele>2078.4</ele>
        <time>2026-07-15T08:08:04Z</time>
      </trkpt>
      <trkpt lat="42.88087" lon="-0.19032">
        <ele>2078.4</ele>
        <time>2026-07-15T08:08:05Z</time>
      </trkpt>
      <trkpt lat="42.88087" lon="-0.19032">
        <ele>2077.4</ele>
        <time>2026-07-15T08:08:06Z</time>
      </trkpt>
      <trkpt lat="42.88087" lon="-0.19032">
        <ele>2077.4</ele>
        <time>2026-07-15T08:08:07Z</time>
      </trkpt>
      <trkpt lat="42.88087" lon="-0.19033">
        <ele>2077.4</ele>
        <time>2026-07-15T08:08:08Z</time>
      </trkpt>
      <trkpt lat="42.88086" lon="-0.19033">
        <ele>2078.4</ele>
        <time>2026-07-15T08:08:09Z</time>
      </trkpt>
      <trkpt lat="42.88086" lon="-0.19033">
        <ele>2077.4</ele>
        <time>2026-07-15T08:08:10Z</time>
      </trkpt>
      <trkpt lat="42.88085" lon="-0.19033">
        <ele>2076.4</ele>
        <time>2026-07-15T08:08:11Z</time>
      </trkpt>
      <trkpt lat="42.88084" lon="-0.19033">
        <ele>2076.4</ele>
        <time>2026-07-15T08:08:11Z</time>
      </trkpt>
      <trkpt lat="42.88084" lon="-0.19033">
        <ele>2077.4</ele>
        <time>2026-07-15T08:08:12Z</time>
      </trkpt>
      <trkpt lat="42.88083" lon="-0.19034">
        <ele>2077.4</ele>
        <time>2026-07-15T08:08:13Z</time>
      </trkpt>
      <trkpt lat="42.88082" lon="-0.19034">
        <ele>2077.4</ele>
        <time>2026-07-15T08:08:14Z</time>
      </trkpt>
      <trkpt lat="42.88082" lon="-0.19035">
        <ele>2078.4</ele>
        <time>2026-07-15T08:08:15Z</time>
      </trkpt>
      <trkpt lat="42.88082" lon="-0.19036">
        <ele>2078.4</ele>
        <time>2026-07-15T08:08:16Z</time>
      </trkpt>
      <trkpt lat="42.88082" lon="-0.19037">
        <ele>2078.4</ele>
        <time>2026-07-15T08:08:17Z</time>
      </trkpt>
      <trkpt lat="42.88082" lon="-0.19037">
        <ele>2078.4</ele>
        <time>2026-07-15T08:08:18Z</time>
      </trkpt>
      <trkpt lat="42.88082" lon="-0.19037">
        <ele>2078.4</ele>
        <time>2026-07-15T08:08:18Z</time>
      </trkpt>
      <trkpt lat="42.88082" lon="-0.19038">
        <ele>2078.4</ele>
        <time>2026-07-15T08:08:19Z</time>
      </trkpt>
      <trkpt lat="42.88082" lon="-0.19038">
        <ele>2079.4</ele>
        <time>2026-07-15T08:08:20Z</time>
      </trkpt>
      <trkpt lat="42.88081" lon="-0.19038">
        <ele>2079.4</ele>
        <time>2026-07-15T08:08:21Z</time>
      </trkpt>
      <trkpt lat="42.88081" lon="-0.19038">
        <ele>2079.4</ele>
        <time>2026-07-15T08:08:22Z</time>
      </trkpt>
      <trkpt lat="42.88081" lon="-0.19039">
        <ele>2079.4</ele>
        <time>2026-07-15T08:08:23Z</time>
      </trkpt>
      <trkpt lat="42.8808" lon="-0.19038">
        <ele>2079.4</ele>
        <time>2026-07-15T08:08:24Z</time>
      </trkpt>
      <trkpt lat="42.8808" lon="-0.19039">
        <ele>2079.4</ele>
        <time>2026-07-15T08:08:25Z</time>
      </trkpt>
      <trkpt lat="42.88079" lon="-0.19039">
        <ele>2080.4</ele>
        <time>2026-07-15T08:08:26Z</time>
      </trkpt>
      <trkpt lat="42.88079" lon="-0.19039">
        <ele>2080.4</ele>
        <time>2026-07-15T08:08:27Z</time>
      </trkpt>
      <trkpt lat="42.88078" lon="-0.1904">
        <ele>2080.4</ele>
        <time>2026-07-15T08:08:28Z</time>
      </trkpt>
      <trkpt lat="42.88078" lon="-0.1904">
        <ele>2080.4</ele>
        <time>2026-07-15T08:08:29Z</time>
      </trkpt>
      <trkpt lat="42.88077" lon="-0.1904">
        <ele>2080.4</ele>
        <time>2026-07-15T08:08:30Z</time>
      </trkpt>
      <trkpt lat="42.88077" lon="-0.19041">
        <ele>2080.4</ele>
        <time>2026-07-15T08:08:31Z</time>
      </trkpt>
      <trkpt lat="42.88077" lon="-0.19041">
        <ele>2080.4</ele>
        <time>2026-07-15T08:08:31Z</time>
      </trkpt>
      <trkpt lat="42.88076" lon="-0.19041">
        <ele>2080.4</ele>
        <time>2026-07-15T08:08:32Z</time>
      </trkpt>
      <trkpt lat="42.88076" lon="-0.19041">
        <ele>2079.4</ele>
        <time>2026-07-15T08:08:33Z</time>
      </trkpt>
      <trkpt lat="42.88076" lon="-0.19041">
        <ele>2080.4</ele>
        <time>2026-07-15T08:08:33Z</time>
      </trkpt>
      <trkpt lat="42.88075" lon="-0.19041">
        <ele>2079.4</ele>
        <time>2026-07-15T08:08:34Z</time>
      </trkpt>
      <trkpt lat="42.88075" lon="-0.1904">
        <ele>2079.4</ele>
        <time>2026-07-15T08:08:35Z</time>
      </trkpt>
      <trkpt lat="42.88075" lon="-0.1904">
        <ele>2079.4</ele>
        <time>2026-07-15T08:08:36Z</time>
      </trkpt>
      <trkpt lat="42.88075" lon="-0.1904">
        <ele>2079.4</ele>
        <time>2026-07-15T08:08:37Z</time>
      </trkpt>
      <trkpt lat="42.88075" lon="-0.19041">
        <ele>2079.4</ele>
        <time>2026-07-15T08:08:38Z</time>
      </trkpt>
      <trkpt lat="42.88074" lon="-0.19041">
        <ele>2079.4</ele>
        <time>2026-07-15T08:08:39Z</time>
      </trkpt>
      <trkpt lat="42.88074" lon="-0.19041">
        <ele>2080.4</ele>
        <time>2026-07-15T08:08:40Z</time>
      </trkpt>
      <trkpt lat="42.88074" lon="-0.19041">
        <ele>2081.4</ele>
        <time>2026-07-15T08:08:41Z</time>
      </trkpt>
      <trkpt lat="42.88073" lon="-0.19041">
        <ele>2081.4</ele>
        <time>2026-07-15T08:08:42Z</time>
      </trkpt>
      <trkpt lat="42.88072" lon="-0.1904">
        <ele>2081.4</ele>
        <time>2026-07-15T08:08:43Z</time>
      </trkpt>
      <trkpt lat="42.88072" lon="-0.1904">
        <ele>2082.4</ele>
        <time>2026-07-15T08:08:44Z</time>
      </trkpt>
      <trkpt lat="42.88072" lon="-0.1904">
        <ele>2083.4</ele>
        <time>2026-07-15T08:08:45Z</time>
      </trkpt>
      <trkpt lat="42.88071" lon="-0.1904">
        <ele>2083.4</ele>
        <time>2026-07-15T08:08:46Z</time>
      </trkpt>
      <trkpt lat="42.88071" lon="-0.1904">
        <ele>2083.4</ele>
        <time>2026-07-15T08:08:47Z</time>
      </trkpt>
      <trkpt lat="42.88071" lon="-0.1904">
        <ele>2083.4</ele>
        <time>2026-07-15T08:08:48Z</time>
      </trkpt>
      <trkpt lat="42.88071" lon="-0.1904">
        <ele>2083.4</ele>
        <time>2026-07-15T08:08:48Z</time>
      </trkpt>
      <trkpt lat="42.8807" lon="-0.1904">
        <ele>2084.4</ele>
        <time>2026-07-15T08:08:49Z</time>
      </trkpt>
      <trkpt lat="42.8807" lon="-0.1904">
        <ele>2084.4</ele>
        <time>2026-07-15T08:08:50Z</time>
      </trkpt>
      <trkpt lat="42.8807" lon="-0.19039">
        <ele>2085.4</ele>
        <time>2026-07-15T08:08:50Z</time>
      </trkpt>
      <trkpt lat="42.8807" lon="-0.19039">
        <ele>2085.4</ele>
        <time>2026-07-15T08:08:51Z</time>
      </trkpt>
      <trkpt lat="42.8807" lon="-0.19039">
        <ele>2085.4</ele>
        <time>2026-07-15T08:08:52Z</time>
      </trkpt>
      <trkpt lat="42.88069" lon="-0.19039">
        <ele>2084.4</ele>
        <time>2026-07-15T08:08:52Z</time>
      </trkpt>
      <trkpt lat="42.88069" lon="-0.19038">
        <ele>2084.4</ele>
        <time>2026-07-15T08:08:53Z</time>
      </trkpt>
      <trkpt lat="42.88069" lon="-0.19038">
        <ele>2085.4</ele>
        <time>2026-07-15T08:08:54Z</time>
      </trkpt>
      <trkpt lat="42.88069" lon="-0.19038">
        <ele>2085.4</ele>
        <time>2026-07-15T08:08:54Z</time>
      </trkpt>
      <trkpt lat="42.88068" lon="-0.19038">
        <ele>2085.4</ele>
        <time>2026-07-15T08:08:55Z</time>
      </trkpt>
      <trkpt lat="42.88068" lon="-0.19038">
        <ele>2085.4</ele>
        <time>2026-07-15T08:08:55Z</time>
      </trkpt>
      <trkpt lat="42.88068" lon="-0.19038">
        <ele>2086.4</ele>
        <time>2026-07-15T08:08:56Z</time>
      </trkpt>
      <trkpt lat="42.88067" lon="-0.19038">
        <ele>2086.4</ele>
        <time>2026-07-15T08:08:57Z</time>
      </trkpt>
      <trkpt lat="42.88067" lon="-0.19039">
        <ele>2085.4</ele>
        <time>2026-07-15T08:08:58Z</time>
      </trkpt>
      <trkpt lat="42.88067" lon="-0.19039">
        <ele>2086.4</ele>
        <time>2026-07-15T08:08:59Z</time>
      </trkpt>
      <trkpt lat="42.88066" lon="-0.19039">
        <ele>2086.4</ele>
        <time>2026-07-15T08:09:00Z</time>
      </trkpt>
      <trkpt lat="42.88066" lon="-0.19039">
        <ele>2086.4</ele>
        <time>2026-07-15T08:09:01Z</time>
      </trkpt>
      <trkpt lat="42.88065" lon="-0.19039">
        <ele>2087.4</ele>
        <time>2026-07-15T08:09:02Z</time>
      </trkpt>
      <trkpt lat="42.88065" lon="-0.1904">
        <ele>2087.4</ele>
        <time>2026-07-15T08:09:03Z</time>
      </trkpt>
      <trkpt lat="42.88064" lon="-0.1904">
        <ele>2087.4</ele>
        <time>2026-07-15T08:09:04Z</time>
      </trkpt>
      <trkpt lat="42.88064" lon="-0.1904">
        <ele>2087.4</ele>
        <time>2026-07-15T08:09:05Z</time>
      </trkpt>
      <trkpt lat="42.88064" lon="-0.1904">
        <ele>2087.4</ele>
        <time>2026-07-15T08:09:06Z</time>
      </trkpt>
      <trkpt lat="42.88063" lon="-0.19039">
        <ele>2087.4</ele>
        <time>2026-07-15T08:09:07Z</time>
      </trkpt>
      <trkpt lat="42.88063" lon="-0.19039">
        <ele>2087.4</ele>
        <time>2026-07-15T08:09:08Z</time>
      </trkpt>
      <trkpt lat="42.88062" lon="-0.19038">
        <ele>2087.4</ele>
        <time>2026-07-15T08:09:09Z</time>
      </trkpt>
      <trkpt lat="42.88062" lon="-0.19038">
        <ele>2088.4</ele>
        <time>2026-07-15T08:09:10Z</time>
      </trkpt>
      <trkpt lat="42.88061" lon="-0.19038">
        <ele>2089.4</ele>
        <time>2026-07-15T08:09:11Z</time>
      </trkpt>
      <trkpt lat="42.88061" lon="-0.19038">
        <ele>2089.4</ele>
        <time>2026-07-15T08:09:12Z</time>
      </trkpt>
      <trkpt lat="42.8806" lon="-0.19038">
        <ele>2090.4</ele>
        <time>2026-07-15T08:09:13Z</time>
      </trkpt>
      <trkpt lat="42.8806" lon="-0.19038">
        <ele>2090.4</ele>
        <time>2026-07-15T08:09:14Z</time>
      </trkpt>
      <trkpt lat="42.88059" lon="-0.19038">
        <ele>2090.4</ele>
        <time>2026-07-15T08:09:15Z</time>
      </trkpt>
      <trkpt lat="42.88059" lon="-0.19037">
        <ele>2091.4</ele>
        <time>2026-07-15T08:09:16Z</time>
      </trkpt>
      <trkpt lat="42.88059" lon="-0.19037">
        <ele>2091.4</ele>
        <time>2026-07-15T08:09:17Z</time>
      </trkpt>
      <trkpt lat="42.88059" lon="-0.19037">
        <ele>2090.4</ele>
        <time>2026-07-15T08:09:18Z</time>
      </trkpt>
      <trkpt lat="42.88059" lon="-0.19037">
        <ele>2090.4</ele>
        <time>2026-07-15T08:09:19Z</time>
      </trkpt>
      <trkpt lat="42.88059" lon="-0.19036">
        <ele>2090.4</ele>
        <time>2026-07-15T08:09:20Z</time>
      </trkpt>
      <trkpt lat="42.88059" lon="-0.19036">
        <ele>2090.4</ele>
        <time>2026-07-15T08:09:21Z</time>
      </trkpt>
      <trkpt lat="42.88058" lon="-0.19036">
        <ele>2089.4</ele>
        <time>2026-07-15T08:09:22Z</time>
      </trkpt>
      <trkpt lat="42.88058" lon="-0.19035">
        <ele>2090.4</ele>
        <time>2026-07-15T08:09:23Z</time>
      </trkpt>
      <trkpt lat="42.88058" lon="-0.19035">
        <ele>2090.4</ele>
        <time>2026-07-15T08:09:24Z</time>
      </trkpt>
      <trkpt lat="42.88057" lon="-0.19035">
        <ele>2090.4</ele>
        <time>2026-07-15T08:09:25Z</time>
      </trkpt>
      <trkpt lat="42.88057" lon="-0.19035">
        <ele>2090.4</ele>
        <time>2026-07-15T08:09:26Z</time>
      </trkpt>
      <trkpt lat="42.88057" lon="-0.19035">
        <ele>2090.4</ele>
        <time>2026-07-15T08:09:27Z</time>
      </trkpt>
      <trkpt lat="42.88057" lon="-0.19035">
        <ele>2090.4</ele>
        <time>2026-07-15T08:09:28Z</time>
      </trkpt>
      <trkpt lat="42.88056" lon="-0.19034">
        <ele>2091.4</ele>
        <time>2026-07-15T08:09:29Z</time>
      </trkpt>
      <trkpt lat="42.88056" lon="-0.19034">
        <ele>2090.4</ele>
        <time>2026-07-15T08:09:30Z</time>
      </trkpt>
      <trkpt lat="42.88056" lon="-0.19034">
        <ele>2091.4</ele>
        <time>2026-07-15T08:09:31Z</time>
      </trkpt>
      <trkpt lat="42.88056" lon="-0.19034">
        <ele>2091.4</ele>
        <time>2026-07-15T08:09:32Z</time>
      </trkpt>
      <trkpt lat="42.88056" lon="-0.19034">
        <ele>2091.4</ele>
        <time>2026-07-15T08:09:33Z</time>
      </trkpt>
      <trkpt lat="42.88055" lon="-0.19034">
        <ele>2091.4</ele>
        <time>2026-07-15T08:09:34Z</time>
      </trkpt>
      <trkpt lat="42.88055" lon="-0.19034">
        <ele>2091.4</ele>
        <time>2026-07-15T08:09:35Z</time>
      </trkpt>
      <trkpt lat="42.88055" lon="-0.19034">
        <ele>2092.4</ele>
        <time>2026-07-15T08:09:36Z</time>
      </trkpt>
      <trkpt lat="42.88054" lon="-0.19034">
        <ele>2092.4</ele>
        <time>2026-07-15T08:09:37Z</time>
      </trkpt>
      <trkpt lat="42.88054" lon="-0.19034">
        <ele>2093.4</ele>
        <time>2026-07-15T08:09:38Z</time>
      </trkpt>
      <trkpt lat="42.88053" lon="-0.19034">
        <ele>2093.4</ele>
        <time>2026-07-15T08:09:39Z</time>
      </trkpt>
      <trkpt lat="42.88053" lon="-0.19034">
        <ele>2093.4</ele>
        <time>2026-07-15T08:09:40Z</time>
      </trkpt>
      <trkpt lat="42.88053" lon="-0.19034">
        <ele>2093.4</ele>
        <time>2026-07-15T08:09:41Z</time>
      </trkpt>
      <trkpt lat="42.88052" lon="-0.19034">
        <ele>2093.4</ele>
        <time>2026-07-15T08:09:42Z</time>
      </trkpt>
      <trkpt lat="42.88051" lon="-0.19033">
        <ele>2093.4</ele>
        <time>2026-07-15T08:09:43Z</time>
      </trkpt>
      <trkpt lat="42.88051" lon="-0.19033">
        <ele>2092.4</ele>
        <time>2026-07-15T08:09:44Z</time>
      </trkpt>
      <trkpt lat="42.8805" lon="-0.19033">
        <ele>2093.4</ele>
        <time>2026-07-15T08:09:45Z</time>
      </trkpt>
      <trkpt lat="42.88049" lon="-0.19033">
        <ele>2093.4</ele>
        <time>2026-07-15T08:09:46Z</time>
      </trkpt>
      <trkpt lat="42.88049" lon="-0.19032">
        <ele>2092.4</ele>
        <time>2026-07-15T08:09:47Z</time>
      </trkpt>
      <trkpt lat="42.88049" lon="-0.19032">
        <ele>2092.4</ele>
        <time>2026-07-15T08:09:47Z</time>
      </trkpt>
      <trkpt lat="42.88048" lon="-0.19032">
        <ele>2092.4</ele>
        <time>2026-07-15T08:09:48Z</time>
      </trkpt>
      <trkpt lat="42.88048" lon="-0.19032">
        <ele>2092.4</ele>
        <time>2026-07-15T08:09:49Z</time>
      </trkpt>
      <trkpt lat="42.88048" lon="-0.19032">
        <ele>2092.4</ele>
        <time>2026-07-15T08:09:49Z</time>
      </trkpt>
      <trkpt lat="42.88047" lon="-0.19032">
        <ele>2092.4</ele>
        <time>2026-07-15T08:09:50Z</time>
      </trkpt>
      <trkpt lat="42.88047" lon="-0.19032">
        <ele>2092.4</ele>
        <time>2026-07-15T08:09:51Z</time>
      </trkpt>
      <trkpt lat="42.88047" lon="-0.19032">
        <ele>2093.4</ele>
        <time>2026-07-15T08:09:51Z</time>
      </trkpt>
      <trkpt lat="42.88047" lon="-0.19032">
        <ele>2093.4</ele>
        <time>2026-07-15T08:09:52Z</time>
      </trkpt>
      <trkpt lat="42.88046" lon="-0.19032">
        <ele>2093.4</ele>
        <time>2026-07-15T08:09:53Z</time>
      </trkpt>
      <trkpt lat="42.88046" lon="-0.19032">
        <ele>2093.4</ele>
        <time>2026-07-15T08:09:54Z</time>
      </trkpt>
      <trkpt lat="42.88046" lon="-0.19032">
        <ele>2092.4</ele>
        <time>2026-07-15T08:09:55Z</time>
      </trkpt>
      <trkpt lat="42.88046" lon="-0.19032">
        <ele>2093.4</ele>
        <time>2026-07-15T08:09:56Z</time>
      </trkpt>
      <trkpt lat="42.88046" lon="-0.19032">
        <ele>2094.4</ele>
        <time>2026-07-15T08:09:56Z</time>
      </trkpt>
      <trkpt lat="42.88045" lon="-0.19031">
        <ele>2094.4</ele>
        <time>2026-07-15T08:09:57Z</time>
      </trkpt>
      <trkpt lat="42.88045" lon="-0.19031">
        <ele>2094.4</ele>
        <time>2026-07-15T08:09:58Z</time>
      </trkpt>
      <trkpt lat="42.88045" lon="-0.19031">
        <ele>2095.4</ele>
        <time>2026-07-15T08:09:59Z</time>
      </trkpt>
      <trkpt lat="42.88045" lon="-0.19031">
        <ele>2095.4</ele>
        <time>2026-07-15T08:10:00Z</time>
      </trkpt>
      <trkpt lat="42.88044" lon="-0.19031">
        <ele>2094.4</ele>
        <time>2026-07-15T08:10:01Z</time>
      </trkpt>
      <trkpt lat="42.88044" lon="-0.19031">
        <ele>2094.4</ele>
        <time>2026-07-15T08:10:02Z</time>
      </trkpt>
      <trkpt lat="42.88044" lon="-0.19031">
        <ele>2094.4</ele>
        <time>2026-07-15T08:10:03Z</time>
      </trkpt>
      <trkpt lat="42.88043" lon="-0.19031">
        <ele>2095.4</ele>
        <time>2026-07-15T08:10:04Z</time>
      </trkpt>
      <trkpt lat="42.88043" lon="-0.1903">
        <ele>2095.4</ele>
        <time>2026-07-15T08:10:05Z</time>
      </trkpt>
      <trkpt lat="42.88043" lon="-0.1903">
        <ele>2096.4</ele>
        <time>2026-07-15T08:10:06Z</time>
      </trkpt>
      <trkpt lat="42.88042" lon="-0.1903">
        <ele>2096.4</ele>
        <time>2026-07-15T08:10:07Z</time>
      </trkpt>
      <trkpt lat="42.88042" lon="-0.19029">
        <ele>2096.4</ele>
        <time>2026-07-15T08:10:08Z</time>
      </trkpt>
      <trkpt lat="42.88041" lon="-0.19029">
        <ele>2096.4</ele>
        <time>2026-07-15T08:10:09Z</time>
      </trkpt>
      <trkpt lat="42.88041" lon="-0.19029">
        <ele>2096.4</ele>
        <time>2026-07-15T08:10:10Z</time>
      </trkpt>
      <trkpt lat="42.88041" lon="-0.19029">
        <ele>2097.4</ele>
        <time>2026-07-15T08:10:11Z</time>
      </trkpt>
      <trkpt lat="42.8804" lon="-0.19029">
        <ele>2097.4</ele>
        <time>2026-07-15T08:10:12Z</time>
      </trkpt>
      <trkpt lat="42.8804" lon="-0.19029">
        <ele>2097.4</ele>
        <time>2026-07-15T08:10:13Z</time>
      </trkpt>
      <trkpt lat="42.8804" lon="-0.19028">
        <ele>2097.4</ele>
        <time>2026-07-15T08:10:14Z</time>
      </trkpt>
      <trkpt lat="42.8804" lon="-0.19028">
        <ele>2097.4</ele>
        <time>2026-07-15T08:10:15Z</time>
      </trkpt>
      <trkpt lat="42.88039" lon="-0.19028">
        <ele>2097.4</ele>
        <time>2026-07-15T08:10:16Z</time>
      </trkpt>
      <trkpt lat="42.88039" lon="-0.19028">
        <ele>2097.4</ele>
        <time>2026-07-15T08:10:17Z</time>
      </trkpt>
      <trkpt lat="42.88038" lon="-0.19028">
        <ele>2097.4</ele>
        <time>2026-07-15T08:10:18Z</time>
      </trkpt>
      <trkpt lat="42.88038" lon="-0.19027">
        <ele>2096.4</ele>
        <time>2026-07-15T08:10:19Z</time>
      </trkpt>
      <trkpt lat="42.88038" lon="-0.19027">
        <ele>2096.4</ele>
        <time>2026-07-15T08:10:19Z</time>
      </trkpt>
      <trkpt lat="42.88037" lon="-0.19027">
        <ele>2096.4</ele>
        <time>2026-07-15T08:10:20Z</time>
      </trkpt>
      <trkpt lat="42.88038" lon="-0.19027">
        <ele>2096.4</ele>
        <time>2026-07-15T08:10:20Z</time>
      </trkpt>
      <trkpt lat="42.88038" lon="-0.19027">
        <ele>2097.4</ele>
        <time>2026-07-15T08:10:21Z</time>
      </trkpt>
      <trkpt lat="42.88037" lon="-0.19027">
        <ele>2097.4</ele>
        <time>2026-07-15T08:10:22Z</time>
      </trkpt>
      <trkpt lat="42.88037" lon="-0.19027">
        <ele>2097.4</ele>
        <time>2026-07-15T08:10:23Z</time>
      </trkpt>
      <trkpt lat="42.88037" lon="-0.19027">
        <ele>2097.4</ele>
        <time>2026-07-15T08:10:24Z</time>
      </trkpt>
      <trkpt lat="42.88037" lon="-0.19027">
        <ele>2098.4</ele>
        <time>2026-07-15T08:10:25Z</time>
      </trkpt>
      <trkpt lat="42.88036" lon="-0.19027">
        <ele>2098.4</ele>
        <time>2026-07-15T08:10:26Z</time>
      </trkpt>
      <trkpt lat="42.88036" lon="-0.19026">
        <ele>2098.4</ele>
        <time>2026-07-15T08:10:27Z</time>
      </trkpt>
      <trkpt lat="42.88036" lon="-0.19026">
        <ele>2098.4</ele>
        <time>2026-07-15T08:10:28Z</time>
      </trkpt>
      <trkpt lat="42.88036" lon="-0.19025">
        <ele>2098.4</ele>
        <time>2026-07-15T08:10:29Z</time>
      </trkpt>
      <trkpt lat="42.88035" lon="-0.19025">
        <ele>2098.4</ele>
        <time>2026-07-15T08:10:30Z</time>
      </trkpt>
      <trkpt lat="42.88035" lon="-0.19024">
        <ele>2098.4</ele>
        <time>2026-07-15T08:10:31Z</time>
      </trkpt>
      <trkpt lat="42.88035" lon="-0.19024">
        <ele>2098.4</ele>
        <time>2026-07-15T08:10:32Z</time>
      </trkpt>
      <trkpt lat="42.88034" lon="-0.19023">
        <ele>2098.4</ele>
        <time>2026-07-15T08:10:33Z</time>
      </trkpt>
      <trkpt lat="42.88034" lon="-0.19022">
        <ele>2098.4</ele>
        <time>2026-07-15T08:10:34Z</time>
      </trkpt>
      <trkpt lat="42.88034" lon="-0.19022">
        <ele>2097.4</ele>
        <time>2026-07-15T08:10:34Z</time>
      </trkpt>
      <trkpt lat="42.88033" lon="-0.19021">
        <ele>2098.4</ele>
        <time>2026-07-15T08:10:35Z</time>
      </trkpt>
      <trkpt lat="42.88033" lon="-0.19021">
        <ele>2098.4</ele>
        <time>2026-07-15T08:10:36Z</time>
      </trkpt>
      <trkpt lat="42.88033" lon="-0.1902">
        <ele>2098.4</ele>
        <time>2026-07-15T08:10:36Z</time>
      </trkpt>
      <trkpt lat="42.88032" lon="-0.1902">
        <ele>2098.4</ele>
        <time>2026-07-15T08:10:37Z</time>
      </trkpt>
      <trkpt lat="42.88032" lon="-0.19019">
        <ele>2098.4</ele>
        <time>2026-07-15T08:10:38Z</time>
      </trkpt>
      <trkpt lat="42.88031" lon="-0.19018">
        <ele>2098.4</ele>
        <time>2026-07-15T08:10:39Z</time>
      </trkpt>
      <trkpt lat="42.88031" lon="-0.19018">
        <ele>2098.4</ele>
        <time>2026-07-15T08:10:40Z</time>
      </trkpt>
      <trkpt lat="42.8803" lon="-0.19017">
        <ele>2098.4</ele>
        <time>2026-07-15T08:10:41Z</time>
      </trkpt>
      <trkpt lat="42.8803" lon="-0.19017">
        <ele>2098.4</ele>
        <time>2026-07-15T08:10:42Z</time>
      </trkpt>
      <trkpt lat="42.8803" lon="-0.19017">
        <ele>2098.4</ele>
        <time>2026-07-15T08:10:43Z</time>
      </trkpt>
      <trkpt lat="42.88029" lon="-0.19016">
        <ele>2098.4</ele>
        <time>2026-07-15T08:10:44Z</time>
      </trkpt>
      <trkpt lat="42.88029" lon="-0.19016">
        <ele>2097.4</ele>
        <time>2026-07-15T08:10:44Z</time>
      </trkpt>
      <trkpt lat="42.88028" lon="-0.19016">
        <ele>2097.4</ele>
        <time>2026-07-15T08:10:45Z</time>
      </trkpt>
      <trkpt lat="42.88028" lon="-0.19016">
        <ele>2097.4</ele>
        <time>2026-07-15T08:10:46Z</time>
      </trkpt>
      <trkpt lat="42.88028" lon="-0.19015">
        <ele>2098.4</ele>
        <time>2026-07-15T08:10:47Z</time>
      </trkpt>
      <trkpt lat="42.88027" lon="-0.19015">
        <ele>2098.4</ele>
        <time>2026-07-15T08:10:47Z</time>
      </trkpt>
      <trkpt lat="42.88027" lon="-0.19015">
        <ele>2099.4</ele>
        <time>2026-07-15T08:10:48Z</time>
      </trkpt>
      <trkpt lat="42.88027" lon="-0.19015">
        <ele>2099.4</ele>
        <time>2026-07-15T08:10:49Z</time>
      </trkpt>
      <trkpt lat="42.88027" lon="-0.19015">
        <ele>2099.4</ele>
        <time>2026-07-15T08:10:49Z</time>
      </trkpt>
      <trkpt lat="42.88027" lon="-0.19015">
        <ele>2100.4</ele>
        <time>2026-07-15T08:10:50Z</time>
      </trkpt>
      <trkpt lat="42.88026" lon="-0.19014">
        <ele>2100.4</ele>
        <time>2026-07-15T08:10:51Z</time>
      </trkpt>
      <trkpt lat="42.88026" lon="-0.19014">
        <ele>2101.4</ele>
        <time>2026-07-15T08:10:52Z</time>
      </trkpt>
      <trkpt lat="42.88026" lon="-0.19014">
        <ele>2101.4</ele>
        <time>2026-07-15T08:10:53Z</time>
      </trkpt>
      <trkpt lat="42.88026" lon="-0.19013">
        <ele>2101.4</ele>
        <time>2026-07-15T08:10:54Z</time>
      </trkpt>
      <trkpt lat="42.88025" lon="-0.19013">
        <ele>2101.4</ele>
        <time>2026-07-15T08:10:55Z</time>
      </trkpt>
      <trkpt lat="42.88025" lon="-0.19013">
        <ele>2101.4</ele>
        <time>2026-07-15T08:10:56Z</time>
      </trkpt>
      <trkpt lat="42.88025" lon="-0.19013">
        <ele>2101.4</ele>
        <time>2026-07-15T08:10:57Z</time>
      </trkpt>
      <trkpt lat="42.88025" lon="-0.19013">
        <ele>2101.4</ele>
        <time>2026-07-15T08:10:58Z</time>
      </trkpt>
      <trkpt lat="42.88025" lon="-0.19013">
        <ele>2101.4</ele>
        <time>2026-07-15T08:10:59Z</time>
      </trkpt>
      <trkpt lat="42.88024" lon="-0.19013">
        <ele>2101.4</ele>
        <time>2026-07-15T08:11:00Z</time>
      </trkpt>
      <trkpt lat="42.88024" lon="-0.19013">
        <ele>2101.4</ele>
        <time>2026-07-15T08:11:01Z</time>
      </trkpt>
      <trkpt lat="42.88024" lon="-0.19013">
        <ele>2101.4</ele>
        <time>2026-07-15T08:11:02Z</time>
      </trkpt>
      <trkpt lat="42.88024" lon="-0.19013">
        <ele>2101.4</ele>
        <time>2026-07-15T08:11:03Z</time>
      </trkpt>
      <trkpt lat="42.88025" lon="-0.19013">
        <ele>2101.4</ele>
        <time>2026-07-15T08:11:04Z</time>
      </trkpt>
      <trkpt lat="42.88025" lon="-0.19013">
        <ele>2101.4</ele>
        <time>2026-07-15T08:11:05Z</time>
      </trkpt>
      <trkpt lat="42.88025" lon="-0.19013">
        <ele>2101.4</ele>
        <time>2026-07-15T08:11:06Z</time>
      </trkpt>
      <trkpt lat="42.88024" lon="-0.19013">
        <ele>2101.4</ele>
        <time>2026-07-15T08:11:07Z</time>
      </trkpt>
      <trkpt lat="42.88024" lon="-0.19013">
        <ele>2101.4</ele>
        <time>2026-07-15T08:11:08Z</time>
      </trkpt>
      <trkpt lat="42.88023" lon="-0.19013">
        <ele>2101.4</ele>
        <time>2026-07-15T08:11:09Z</time>
      </trkpt>
      <trkpt lat="42.88023" lon="-0.19013">
        <ele>2101.4</ele>
        <time>2026-07-15T08:11:10Z</time>
      </trkpt>
      <trkpt lat="42.88022" lon="-0.19012">
        <ele>2101.4</ele>
        <time>2026-07-15T08:11:11Z</time>
      </trkpt>
      <trkpt lat="42.88022" lon="-0.19012">
        <ele>2101.4</ele>
        <time>2026-07-15T08:11:12Z</time>
      </trkpt>
      <trkpt lat="42.88021" lon="-0.19012">
        <ele>2102.4</ele>
        <time>2026-07-15T08:11:13Z</time>
      </trkpt>
      <trkpt lat="42.8802" lon="-0.19012">
        <ele>2102.4</ele>
        <time>2026-07-15T08:11:14Z</time>
      </trkpt>
      <trkpt lat="42.88019" lon="-0.19012">
        <ele>2103.4</ele>
        <time>2026-07-15T08:11:15Z</time>
      </trkpt>
      <trkpt lat="42.88019" lon="-0.19012">
        <ele>2104.4</ele>
        <time>2026-07-15T08:11:16Z</time>
      </trkpt>
      <trkpt lat="42.88018" lon="-0.19011">
        <ele>2103.4</ele>
        <time>2026-07-15T08:11:17Z</time>
      </trkpt>
      <trkpt lat="42.88017" lon="-0.19011">
        <ele>2105.4</ele>
        <time>2026-07-15T08:11:18Z</time>
      </trkpt>
      <trkpt lat="42.88016" lon="-0.19011">
        <ele>2105.4</ele>
        <time>2026-07-15T08:11:19Z</time>
      </trkpt>
      <trkpt lat="42.88016" lon="-0.19011">
        <ele>2105.4</ele>
        <time>2026-07-15T08:11:20Z</time>
      </trkpt>
      <trkpt lat="42.88015" lon="-0.19011">
        <ele>2106.4</ele>
        <time>2026-07-15T08:11:21Z</time>
      </trkpt>
      <trkpt lat="42.88014" lon="-0.19011">
        <ele>2106.4</ele>
        <time>2026-07-15T08:11:22Z</time>
      </trkpt>
      <trkpt lat="42.88013" lon="-0.19011">
        <ele>2107.4</ele>
        <time>2026-07-15T08:11:23Z</time>
      </trkpt>
      <trkpt lat="42.88012" lon="-0.1901">
        <ele>2106.4</ele>
        <time>2026-07-15T08:11:24Z</time>
      </trkpt>
      <trkpt lat="42.88012" lon="-0.1901">
        <ele>2106.4</ele>
        <time>2026-07-15T08:11:25Z</time>
      </trkpt>
      <trkpt lat="42.88011" lon="-0.1901">
        <ele>2106.4</ele>
        <time>2026-07-15T08:11:25Z</time>
      </trkpt>
      <trkpt lat="42.88011" lon="-0.1901">
        <ele>2106.4</ele>
        <time>2026-07-15T08:11:26Z</time>
      </trkpt>
      <trkpt lat="42.8801" lon="-0.19009">
        <ele>2106.4</ele>
        <time>2026-07-15T08:11:26Z</time>
      </trkpt>
      <trkpt lat="42.8801" lon="-0.19009">
        <ele>2107.4</ele>
        <time>2026-07-15T08:11:27Z</time>
      </trkpt>
      <trkpt lat="42.8801" lon="-0.19008">
        <ele>2106.4</ele>
        <time>2026-07-15T08:11:28Z</time>
      </trkpt>
      <trkpt lat="42.88009" lon="-0.19008">
        <ele>2106.4</ele>
        <time>2026-07-15T08:11:29Z</time>
      </trkpt>
      <trkpt lat="42.88009" lon="-0.19007">
        <ele>2106.4</ele>
        <time>2026-07-15T08:11:29Z</time>
      </trkpt>
      <trkpt lat="42.88009" lon="-0.19007">
        <ele>2106.4</ele>
        <time>2026-07-15T08:11:30Z</time>
      </trkpt>
      <trkpt lat="42.88009" lon="-0.19007">
        <ele>2106.4</ele>
        <time>2026-07-15T08:11:31Z</time>
      </trkpt>
      <trkpt lat="42.88009" lon="-0.19007">
        <ele>2106.4</ele>
        <time>2026-07-15T08:11:31Z</time>
      </trkpt>
      <trkpt lat="42.88009" lon="-0.19007">
        <ele>2106.4</ele>
        <time>2026-07-15T08:11:32Z</time>
      </trkpt>
      <trkpt lat="42.88009" lon="-0.19007">
        <ele>2106.4</ele>
        <time>2026-07-15T08:11:32Z</time>
      </trkpt>
      <trkpt lat="42.88009" lon="-0.19007">
        <ele>2106.4</ele>
        <time>2026-07-15T08:11:33Z</time>
      </trkpt>
      <trkpt lat="42.88009" lon="-0.19007">
        <ele>2106.4</ele>
        <time>2026-07-15T08:11:34Z</time>
      </trkpt>
      <trkpt lat="42.88009" lon="-0.19007">
        <ele>2106.4</ele>
        <time>2026-07-15T08:11:35Z</time>
      </trkpt>
      <trkpt lat="42.88009" lon="-0.19007">
        <ele>2106.4</ele>
        <time>2026-07-15T08:11:36Z</time>
      </trkpt>
      <trkpt lat="42.8801" lon="-0.19007">
        <ele>2106.4</ele>
        <time>2026-07-15T08:11:37Z</time>
      </trkpt>
      <trkpt lat="42.88009" lon="-0.19007">
        <ele>2106.4</ele>
        <time>2026-07-15T08:11:38Z</time>
      </trkpt>
      <trkpt lat="42.88009" lon="-0.19007">
        <ele>2106.4</ele>
        <time>2026-07-15T08:11:39Z</time>
      </trkpt>
      <trkpt lat="42.8801" lon="-0.19007">
        <ele>2106.4</ele>
        <time>2026-07-15T08:11:40Z</time>
      </trkpt>
      <trkpt lat="42.88009" lon="-0.19006">
        <ele>2108.4</ele>
        <time>2026-07-15T08:11:41Z</time>
      </trkpt>
      <trkpt lat="42.88009" lon="-0.19006">
        <ele>2107.4</ele>
        <time>2026-07-15T08:11:42Z</time>
      </trkpt>
      <trkpt lat="42.88009" lon="-0.19005">
        <ele>2108.4</ele>
        <time>2026-07-15T08:11:43Z</time>
      </trkpt>
      <trkpt lat="42.88008" lon="-0.19005">
        <ele>2107.4</ele>
        <time>2026-07-15T08:11:44Z</time>
      </trkpt>
      <trkpt lat="42.88008" lon="-0.19004">
        <ele>2108.4</ele>
        <time>2026-07-15T08:11:45Z</time>
      </trkpt>
      <trkpt lat="42.88007" lon="-0.19004">
        <ele>2108.4</ele>
        <time>2026-07-15T08:11:46Z</time>
      </trkpt>
      <trkpt lat="42.88007" lon="-0.19004">
        <ele>2108.4</ele>
        <time>2026-07-15T08:11:47Z</time>
      </trkpt>
      <trkpt lat="42.88007" lon="-0.19003">
        <ele>2108.4</ele>
        <time>2026-07-15T08:11:48Z</time>
      </trkpt>
      <trkpt lat="42.88006" lon="-0.19003">
        <ele>2108.4</ele>
        <time>2026-07-15T08:11:49Z</time>
      </trkpt>
      <trkpt lat="42.88005" lon="-0.19003">
        <ele>2107.4</ele>
        <time>2026-07-15T08:11:50Z</time>
      </trkpt>
      <trkpt lat="42.88005" lon="-0.19003">
        <ele>2108.4</ele>
        <time>2026-07-15T08:11:51Z</time>
      </trkpt>
      <trkpt lat="42.88004" lon="-0.19003">
        <ele>2108.4</ele>
        <time>2026-07-15T08:11:51Z</time>
      </trkpt>
      <trkpt lat="42.88004" lon="-0.19003">
        <ele>2109.4</ele>
        <time>2026-07-15T08:11:52Z</time>
      </trkpt>
      <trkpt lat="42.88003" lon="-0.19002">
        <ele>2110.4</ele>
        <time>2026-07-15T08:11:53Z</time>
      </trkpt>
      <trkpt lat="42.88003" lon="-0.19002">
        <ele>2110.4</ele>
        <time>2026-07-15T08:11:54Z</time>
      </trkpt>
      <trkpt lat="42.88002" lon="-0.19002">
        <ele>2110.4</ele>
        <time>2026-07-15T08:11:55Z</time>
      </trkpt>
      <trkpt lat="42.88002" lon="-0.19002">
        <ele>2110.4</ele>
        <time>2026-07-15T08:11:56Z</time>
      </trkpt>
      <trkpt lat="42.88002" lon="-0.19001">
        <ele>2110.4</ele>
        <time>2026-07-15T08:11:57Z</time>
      </trkpt>
      <trkpt lat="42.88002" lon="-0.19001">
        <ele>2111.4</ele>
        <time>2026-07-15T08:11:57Z</time>
      </trkpt>
      <trkpt lat="42.88001" lon="-0.19001">
        <ele>2111.4</ele>
        <time>2026-07-15T08:11:58Z</time>
      </trkpt>
      <trkpt lat="42.88001" lon="-0.19001">
        <ele>2111.4</ele>
        <time>2026-07-15T08:11:59Z</time>
      </trkpt>
      <trkpt lat="42.88001" lon="-0.19001">
        <ele>2111.4</ele>
        <time>2026-07-15T08:11:59Z</time>
      </trkpt>
      <trkpt lat="42.88001" lon="-0.19001">
        <ele>2111.4</ele>
        <time>2026-07-15T08:12:00Z</time>
      </trkpt>
      <trkpt lat="42.88" lon="-0.19">
        <ele>2111.4</ele>
        <time>2026-07-15T08:12:01Z</time>
      </trkpt>
      <trkpt lat="42.88" lon="-0.18999">
        <ele>2111.4</ele>
        <time>2026-07-15T08:12:02Z</time>
      </trkpt>
      <trkpt lat="42.88" lon="-0.18999">
        <ele>2111.4</ele>
        <time>2026-07-15T08:12:03Z</time>
      </trkpt>
      <trkpt lat="42.88" lon="-0.18999">
        <ele>2112.4</ele>
        <time>2026-07-15T08:12:04Z</time>
      </trkpt>
      <trkpt lat="42.88" lon="-0.18998">
        <ele>2112.4</ele>
        <time>2026-07-15T08:12:05Z</time>
      </trkpt>
      <trkpt lat="42.88" lon="-0.18998">
        <ele>2112.4</ele>
        <time>2026-07-15T08:12:06Z</time>
      </trkpt>
      <trkpt lat="42.87999" lon="-0.18998">
        <ele>2113.4</ele>
        <time>2026-07-15T08:12:07Z</time>
      </trkpt>
      <trkpt lat="42.87999" lon="-0.18998">
        <ele>2113.4</ele>
        <time>2026-07-15T08:12:08Z</time>
      </trkpt>
      <trkpt lat="42.87999" lon="-0.18998">
        <ele>2114.4</ele>
        <time>2026-07-15T08:12:09Z</time>
      </trkpt>
      <trkpt lat="42.87999" lon="-0.18998">
        <ele>2114.4</ele>
        <time>2026-07-15T08:12:10Z</time>
      </trkpt>
      <trkpt lat="42.87999" lon="-0.18997">
        <ele>2113.4</ele>
        <time>2026-07-15T08:12:11Z</time>
      </trkpt>
      <trkpt lat="42.87998" lon="-0.18997">
        <ele>2114.4</ele>
        <time>2026-07-15T08:12:12Z</time>
      </trkpt>
      <trkpt lat="42.87998" lon="-0.18997">
        <ele>2114.4</ele>
        <time>2026-07-15T08:12:13Z</time>
      </trkpt>
      <trkpt lat="42.87998" lon="-0.18996">
        <ele>2114.4</ele>
        <time>2026-07-15T08:12:14Z</time>
      </trkpt>
      <trkpt lat="42.87997" lon="-0.18996">
        <ele>2114.4</ele>
        <time>2026-07-15T08:12:15Z</time>
      </trkpt>
      <trkpt lat="42.87997" lon="-0.18996">
        <ele>2114.4</ele>
        <time>2026-07-15T08:12:16Z</time>
      </trkpt>
      <trkpt lat="42.87997" lon="-0.18995">
        <ele>2115.4</ele>
        <time>2026-07-15T08:12:17Z</time>
      </trkpt>
      <trkpt lat="42.87996" lon="-0.18995">
        <ele>2115.4</ele>
        <time>2026-07-15T08:12:18Z</time>
      </trkpt>
      <trkpt lat="42.87996" lon="-0.18994">
        <ele>2114.4</ele>
        <time>2026-07-15T08:12:19Z</time>
      </trkpt>
      <trkpt lat="42.87995" lon="-0.18994">
        <ele>2114.4</ele>
        <time>2026-07-15T08:12:20Z</time>
      </trkpt>
      <trkpt lat="42.87995" lon="-0.18993">
        <ele>2113.4</ele>
        <time>2026-07-15T08:12:21Z</time>
      </trkpt>
      <trkpt lat="42.87994" lon="-0.18993">
        <ele>2114.4</ele>
        <time>2026-07-15T08:12:22Z</time>
      </trkpt>
      <trkpt lat="42.87994" lon="-0.18993">
        <ele>2114.4</ele>
        <time>2026-07-15T08:12:22Z</time>
      </trkpt>
      <trkpt lat="42.87994" lon="-0.18992">
        <ele>2114.4</ele>
        <time>2026-07-15T08:12:23Z</time>
      </trkpt>
      <trkpt lat="42.87994" lon="-0.18991">
        <ele>2114.4</ele>
        <time>2026-07-15T08:12:24Z</time>
      </trkpt>
      <trkpt lat="42.87993" lon="-0.1899">
        <ele>2114.4</ele>
        <time>2026-07-15T08:12:25Z</time>
      </trkpt>
      <trkpt lat="42.87994" lon="-0.18989">
        <ele>2117.4</ele>
        <time>2026-07-15T08:12:26Z</time>
      </trkpt>
      <trkpt lat="42.87994" lon="-0.18988">
        <ele>2117.4</ele>
        <time>2026-07-15T08:12:27Z</time>
      </trkpt>
      <trkpt lat="42.87994" lon="-0.18988">
        <ele>2117.4</ele>
        <time>2026-07-15T08:12:28Z</time>
      </trkpt>
      <trkpt lat="42.87994" lon="-0.18988">
        <ele>2117.4</ele>
        <time>2026-07-15T08:12:29Z</time>
      </trkpt>
      <trkpt lat="42.87994" lon="-0.18987">
        <ele>2117.4</ele>
        <time>2026-07-15T08:12:30Z</time>
      </trkpt>
      <trkpt lat="42.87994" lon="-0.18986">
        <ele>2117.4</ele>
        <time>2026-07-15T08:12:31Z</time>
      </trkpt>
      <trkpt lat="42.87995" lon="-0.18985">
        <ele>2117.4</ele>
        <time>2026-07-15T08:12:32Z</time>
      </trkpt>
      <trkpt lat="42.87995" lon="-0.18984">
        <ele>2117.4</ele>
        <time>2026-07-15T08:12:33Z</time>
      </trkpt>
      <trkpt lat="42.87995" lon="-0.18984">
        <ele>2117.4</ele>
        <time>2026-07-15T08:12:33Z</time>
      </trkpt>
      <trkpt lat="42.87995" lon="-0.18983">
        <ele>2117.4</ele>
        <time>2026-07-15T08:12:34Z</time>
      </trkpt>
      <trkpt lat="42.87995" lon="-0.18983">
        <ele>2117.4</ele>
        <time>2026-07-15T08:12:34Z</time>
      </trkpt>
      <trkpt lat="42.87994" lon="-0.18982">
        <ele>2117.4</ele>
        <time>2026-07-15T08:12:35Z</time>
      </trkpt>
      <trkpt lat="42.87994" lon="-0.18981">
        <ele>2119.4</ele>
        <time>2026-07-15T08:12:36Z</time>
      </trkpt>
      <trkpt lat="42.87994" lon="-0.1898">
        <ele>2119.4</ele>
        <time>2026-07-15T08:12:37Z</time>
      </trkpt>
      <trkpt lat="42.87994" lon="-0.18979">
        <ele>2119.4</ele>
        <time>2026-07-15T08:12:38Z</time>
      </trkpt>
      <trkpt lat="42.87994" lon="-0.18979">
        <ele>2119.4</ele>
        <time>2026-07-15T08:12:39Z</time>
      </trkpt>
      <trkpt lat="42.87994" lon="-0.18978">
        <ele>2119.4</ele>
        <time>2026-07-15T08:12:40Z</time>
      </trkpt>
      <trkpt lat="42.87994" lon="-0.18977">
        <ele>2120.4</ele>
        <time>2026-07-15T08:12:41Z</time>
      </trkpt>
      <trkpt lat="42.87994" lon="-0.18977">
        <ele>2120.4</ele>
        <time>2026-07-15T08:12:42Z</time>
      </trkpt>
      <trkpt lat="42.87994" lon="-0.18976">
        <ele>2120.4</ele>
        <time>2026-07-15T08:12:43Z</time>
      </trkpt>
      <trkpt lat="42.87994" lon="-0.18975">
        <ele>2121.4</ele>
        <time>2026-07-15T08:12:44Z</time>
      </trkpt>
      <trkpt lat="42.87994" lon="-0.18974">
        <ele>2121.4</ele>
        <time>2026-07-15T08:12:45Z</time>
      </trkpt>
      <trkpt lat="42.87994" lon="-0.18974">
        <ele>2122.4</ele>
        <time>2026-07-15T08:12:45Z</time>
      </trkpt>
      <trkpt lat="42.87995" lon="-0.18974">
        <ele>2122.4</ele>
        <time>2026-07-15T08:12:46Z</time>
      </trkpt>
      <trkpt lat="42.87995" lon="-0.18973">
        <ele>2122.4</ele>
        <time>2026-07-15T08:12:46Z</time>
      </trkpt>
      <trkpt lat="42.87995" lon="-0.18973">
        <ele>2122.4</ele>
        <time>2026-07-15T08:12:47Z</time>
      </trkpt>
      <trkpt lat="42.87995" lon="-0.18972">
        <ele>2121.4</ele>
        <time>2026-07-15T08:12:47Z</time>
      </trkpt>
      <trkpt lat="42.87995" lon="-0.18971">
        <ele>2121.4</ele>
        <time>2026-07-15T08:12:48Z</time>
      </trkpt>
      <trkpt lat="42.87995" lon="-0.1897">
        <ele>2121.4</ele>
        <time>2026-07-15T08:12:49Z</time>
      </trkpt>
      <trkpt lat="42.87995" lon="-0.18969">
        <ele>2121.4</ele>
        <time>2026-07-15T08:12:50Z</time>
      </trkpt>
      <trkpt lat="42.87996" lon="-0.18969">
        <ele>2121.4</ele>
        <time>2026-07-15T08:12:51Z</time>
      </trkpt>
      <trkpt lat="42.87996" lon="-0.18968">
        <ele>2122.4</ele>
        <time>2026-07-15T08:12:52Z</time>
      </trkpt>
      <trkpt lat="42.87996" lon="-0.18968">
        <ele>2122.4</ele>
        <time>2026-07-15T08:12:53Z</time>
      </trkpt>
      <trkpt lat="42.87996" lon="-0.18968">
        <ele>2122.4</ele>
        <time>2026-07-15T08:12:54Z</time>
      </trkpt>
      <trkpt lat="42.87996" lon="-0.18967">
        <ele>2122.4</ele>
        <time>2026-07-15T08:12:55Z</time>
      </trkpt>
      <trkpt lat="42.87996" lon="-0.18967">
        <ele>2122.4</ele>
        <time>2026-07-15T08:12:56Z</time>
      </trkpt>
      <trkpt lat="42.87996" lon="-0.18967">
        <ele>2122.4</ele>
        <time>2026-07-15T08:12:57Z</time>
      </trkpt>
      <trkpt lat="42.87996" lon="-0.18966">
        <ele>2122.4</ele>
        <time>2026-07-15T08:12:58Z</time>
      </trkpt>
      <trkpt lat="42.87995" lon="-0.18966">
        <ele>2122.4</ele>
        <time>2026-07-15T08:12:58Z</time>
      </trkpt>
      <trkpt lat="42.87995" lon="-0.18966">
        <ele>2122.4</ele>
        <time>2026-07-15T08:12:59Z</time>
      </trkpt>
      <trkpt lat="42.87995" lon="-0.18966">
        <ele>2122.4</ele>
        <time>2026-07-15T08:12:59Z</time>
      </trkpt>
      <trkpt lat="42.87995" lon="-0.18966">
        <ele>2121.4</ele>
        <time>2026-07-15T08:13:00Z</time>
      </trkpt>
      <trkpt lat="42.87994" lon="-0.18966">
        <ele>2121.4</ele>
        <time>2026-07-15T08:13:01Z</time>
      </trkpt>
      <trkpt lat="42.87994" lon="-0.18966">
        <ele>2122.4</ele>
        <time>2026-07-15T08:13:02Z</time>
      </trkpt>
      <trkpt lat="42.87993" lon="-0.18966">
        <ele>2122.4</ele>
        <time>2026-07-15T08:13:03Z</time>
      </trkpt>
      <trkpt lat="42.87993" lon="-0.18966">
        <ele>2122.4</ele>
        <time>2026-07-15T08:13:04Z</time>
      </trkpt>
      <trkpt lat="42.87993" lon="-0.18966">
        <ele>2122.4</ele>
        <time>2026-07-15T08:13:05Z</time>
      </trkpt>
      <trkpt lat="42.87993" lon="-0.18966">
        <ele>2122.4</ele>
        <time>2026-07-15T08:13:06Z</time>
      </trkpt>
      <trkpt lat="42.87993" lon="-0.18966">
        <ele>2122.4</ele>
        <time>2026-07-15T08:13:06Z</time>
      </trkpt>
      <trkpt lat="42.87993" lon="-0.18966">
        <ele>2122.4</ele>
        <time>2026-07-15T08:13:07Z</time>
      </trkpt>
      <trkpt lat="42.87993" lon="-0.18966">
        <ele>2122.4</ele>
        <time>2026-07-15T08:13:08Z</time>
      </trkpt>
      <trkpt lat="42.87993" lon="-0.18966">
        <ele>2122.4</ele>
        <time>2026-07-15T08:13:08Z</time>
      </trkpt>
      <trkpt lat="42.87993" lon="-0.18966">
        <ele>2122.4</ele>
        <time>2026-07-15T08:13:09Z</time>
      </trkpt>
      <trkpt lat="42.87993" lon="-0.18966">
        <ele>2122.4</ele>
        <time>2026-07-15T08:13:10Z</time>
      </trkpt>
      <trkpt lat="42.87992" lon="-0.18966">
        <ele>2123.4</ele>
        <time>2026-07-15T08:13:11Z</time>
      </trkpt>
      <trkpt lat="42.87991" lon="-0.18966">
        <ele>2123.4</ele>
        <time>2026-07-15T08:13:12Z</time>
      </trkpt>
      <trkpt lat="42.87991" lon="-0.18966">
        <ele>2123.4</ele>
        <time>2026-07-15T08:13:12Z</time>
      </trkpt>
      <trkpt lat="42.8799" lon="-0.18966">
        <ele>2123.4</ele>
        <time>2026-07-15T08:13:13Z</time>
      </trkpt>
      <trkpt lat="42.8799" lon="-0.18966">
        <ele>2123.4</ele>
        <time>2026-07-15T08:13:14Z</time>
      </trkpt>
      <trkpt lat="42.8799" lon="-0.18966">
        <ele>2123.4</ele>
        <time>2026-07-15T08:13:15Z</time>
      </trkpt>
      <trkpt lat="42.87989" lon="-0.18967">
        <ele>2123.4</ele>
        <time>2026-07-15T08:13:16Z</time>
      </trkpt>
      <trkpt lat="42.87989" lon="-0.18966">
        <ele>2123.4</ele>
        <time>2026-07-15T08:13:17Z</time>
      </trkpt>
      <trkpt lat="42.87989" lon="-0.18966">
        <ele>2124.4</ele>
        <time>2026-07-15T08:13:17Z</time>
      </trkpt>
      <trkpt lat="42.87988" lon="-0.18966">
        <ele>2124.4</ele>
        <time>2026-07-15T08:13:18Z</time>
      </trkpt>
      <trkpt lat="42.87987" lon="-0.18966">
        <ele>2125.4</ele>
        <time>2026-07-15T08:13:19Z</time>
      </trkpt>
      <trkpt lat="42.87987" lon="-0.18966">
        <ele>2124.4</ele>
        <time>2026-07-15T08:13:20Z</time>
      </trkpt>
      <trkpt lat="42.87986" lon="-0.18966">
        <ele>2124.4</ele>
        <time>2026-07-15T08:13:21Z</time>
      </trkpt>
      <trkpt lat="42.87986" lon="-0.18965">
        <ele>2123.4</ele>
        <time>2026-07-15T08:13:22Z</time>
      </trkpt>
      <trkpt lat="42.87986" lon="-0.18965">
        <ele>2123.4</ele>
        <time>2026-07-15T08:13:23Z</time>
      </trkpt>
      <trkpt lat="42.87985" lon="-0.18965">
        <ele>2123.4</ele>
        <time>2026-07-15T08:13:24Z</time>
      </trkpt>
      <trkpt lat="42.87985" lon="-0.18965">
        <ele>2123.4</ele>
        <time>2026-07-15T08:13:25Z</time>
      </trkpt>
      <trkpt lat="42.87985" lon="-0.18965">
        <ele>2122.4</ele>
        <time>2026-07-15T08:13:26Z</time>
      </trkpt>
      <trkpt lat="42.87985" lon="-0.18965">
        <ele>2122.4</ele>
        <time>2026-07-15T08:13:27Z</time>
      </trkpt>
      <trkpt lat="42.87984" lon="-0.18965">
        <ele>2122.4</ele>
        <time>2026-07-15T08:13:28Z</time>
      </trkpt>
      <trkpt lat="42.87984" lon="-0.18965">
        <ele>2121.4</ele>
        <time>2026-07-15T08:13:29Z</time>
      </trkpt>
      <trkpt lat="42.87983" lon="-0.18965">
        <ele>2121.4</ele>
        <time>2026-07-15T08:13:30Z</time>
      </trkpt>
      <trkpt lat="42.87983" lon="-0.18965">
        <ele>2122.4</ele>
        <time>2026-07-15T08:13:31Z</time>
      </trkpt>
      <trkpt lat="42.87983" lon="-0.18965">
        <ele>2122.4</ele>
        <time>2026-07-15T08:13:32Z</time>
      </trkpt>
      <trkpt lat="42.87982" lon="-0.18965">
        <ele>2124.4</ele>
        <time>2026-07-15T08:13:33Z</time>
      </trkpt>
      <trkpt lat="42.87982" lon="-0.18965">
        <ele>2123.4</ele>
        <time>2026-07-15T08:13:33Z</time>
      </trkpt>
      <trkpt lat="42.87981" lon="-0.18965">
        <ele>2124.4</ele>
        <time>2026-07-15T08:13:34Z</time>
      </trkpt>
      <trkpt lat="42.8798" lon="-0.18966">
        <ele>2124.4</ele>
        <time>2026-07-15T08:13:35Z</time>
      </trkpt>
      <trkpt lat="42.8798" lon="-0.18966">
        <ele>2124.4</ele>
        <time>2026-07-15T08:13:36Z</time>
      </trkpt>
      <trkpt lat="42.87979" lon="-0.18966">
        <ele>2125.4</ele>
        <time>2026-07-15T08:13:37Z</time>
      </trkpt>
      <trkpt lat="42.87979" lon="-0.18966">
        <ele>2125.4</ele>
        <time>2026-07-15T08:13:38Z</time>
      </trkpt>
      <trkpt lat="42.87978" lon="-0.18966">
        <ele>2125.4</ele>
        <time>2026-07-15T08:13:39Z</time>
      </trkpt>
      <trkpt lat="42.87978" lon="-0.18966">
        <ele>2125.4</ele>
        <time>2026-07-15T08:13:39Z</time>
      </trkpt>
      <trkpt lat="42.87978" lon="-0.18965">
        <ele>2125.4</ele>
        <time>2026-07-15T08:13:40Z</time>
      </trkpt>
      <trkpt lat="42.87977" lon="-0.18965">
        <ele>2125.4</ele>
        <time>2026-07-15T08:13:41Z</time>
      </trkpt>
      <trkpt lat="42.87977" lon="-0.18965">
        <ele>2126.4</ele>
        <time>2026-07-15T08:13:42Z</time>
      </trkpt>
      <trkpt lat="42.87977" lon="-0.18964">
        <ele>2126.4</ele>
        <time>2026-07-15T08:13:43Z</time>
      </trkpt>
      <trkpt lat="42.87977" lon="-0.18964">
        <ele>2126.4</ele>
        <time>2026-07-15T08:13:43Z</time>
      </trkpt>
      <trkpt lat="42.87976" lon="-0.18964">
        <ele>2126.4</ele>
        <time>2026-07-15T08:13:44Z</time>
      </trkpt>
      <trkpt lat="42.87976" lon="-0.18964">
        <ele>2126.4</ele>
        <time>2026-07-15T08:13:45Z</time>
      </trkpt>
      <trkpt lat="42.87976" lon="-0.18964">
        <ele>2126.4</ele>
        <time>2026-07-15T08:13:46Z</time>
      </trkpt>
      <trkpt lat="42.87975" lon="-0.18964">
        <ele>2127.4</ele>
        <time>2026-07-15T08:13:47Z</time>
      </trkpt>
      <trkpt lat="42.87974" lon="-0.18964">
        <ele>2127.4</ele>
        <time>2026-07-15T08:13:48Z</time>
      </trkpt>
      <trkpt lat="42.87974" lon="-0.18964">
        <ele>2128.4</ele>
        <time>2026-07-15T08:13:49Z</time>
      </trkpt>
      <trkpt lat="42.87973" lon="-0.18964">
        <ele>2128.4</ele>
        <time>2026-07-15T08:13:50Z</time>
      </trkpt>
      <trkpt lat="42.87973" lon="-0.18964">
        <ele>2128.4</ele>
        <time>2026-07-15T08:13:51Z</time>
      </trkpt>
      <trkpt lat="42.87973" lon="-0.18964">
        <ele>2129.4</ele>
        <time>2026-07-15T08:13:51Z</time>
      </trkpt>
      <trkpt lat="42.87972" lon="-0.18964">
        <ele>2129.4</ele>
        <time>2026-07-15T08:13:52Z</time>
      </trkpt>
      <trkpt lat="42.87972" lon="-0.18964">
        <ele>2129.4</ele>
        <time>2026-07-15T08:13:53Z</time>
      </trkpt>
      <trkpt lat="42.87972" lon="-0.18963">
        <ele>2128.4</ele>
        <time>2026-07-15T08:13:54Z</time>
      </trkpt>
      <trkpt lat="42.87972" lon="-0.18963">
        <ele>2128.4</ele>
        <time>2026-07-15T08:13:55Z</time>
      </trkpt>
      <trkpt lat="42.87971" lon="-0.18963">
        <ele>2128.4</ele>
        <time>2026-07-15T08:13:56Z</time>
      </trkpt>
      <trkpt lat="42.87971" lon="-0.18963">
        <ele>2128.4</ele>
        <time>2026-07-15T08:13:57Z</time>
      </trkpt>
      <trkpt lat="42.8797" lon="-0.18963">
        <ele>2128.4</ele>
        <time>2026-07-15T08:13:58Z</time>
      </trkpt>
      <trkpt lat="42.8797" lon="-0.18964">
        <ele>2128.4</ele>
        <time>2026-07-15T08:13:59Z</time>
      </trkpt>
      <trkpt lat="42.87969" lon="-0.18964">
        <ele>2128.4</ele>
        <time>2026-07-15T08:14:00Z</time>
      </trkpt>
      <trkpt lat="42.87969" lon="-0.18964">
        <ele>2128.4</ele>
        <time>2026-07-15T08:14:00Z</time>
      </trkpt>
      <trkpt lat="42.87968" lon="-0.18964">
        <ele>2128.4</ele>
        <time>2026-07-15T08:14:01Z</time>
      </trkpt>
      <trkpt lat="42.87968" lon="-0.18965">
        <ele>2128.4</ele>
        <time>2026-07-15T08:14:02Z</time>
      </trkpt>
      <trkpt lat="42.87967" lon="-0.18965">
        <ele>2128.4</ele>
        <time>2026-07-15T08:14:03Z</time>
      </trkpt>
      <trkpt lat="42.87967" lon="-0.18965">
        <ele>2128.4</ele>
        <time>2026-07-15T08:14:04Z</time>
      </trkpt>
      <trkpt lat="42.87966" lon="-0.18964">
        <ele>2129.4</ele>
        <time>2026-07-15T08:14:05Z</time>
      </trkpt>
      <trkpt lat="42.87966" lon="-0.18964">
        <ele>2128.4</ele>
        <time>2026-07-15T08:14:06Z</time>
      </trkpt>
      <trkpt lat="42.87965" lon="-0.18964">
        <ele>2128.4</ele>
        <time>2026-07-15T08:14:06Z</time>
      </trkpt>
      <trkpt lat="42.87965" lon="-0.18963">
        <ele>2129.4</ele>
        <time>2026-07-15T08:14:07Z</time>
      </trkpt>
      <trkpt lat="42.87965" lon="-0.18962">
        <ele>2129.4</ele>
        <time>2026-07-15T08:14:08Z</time>
      </trkpt>
      <trkpt lat="42.87965" lon="-0.18961">
        <ele>2129.4</ele>
        <time>2026-07-15T08:14:09Z</time>
      </trkpt>
      <trkpt lat="42.87965" lon="-0.18961">
        <ele>2129.4</ele>
        <time>2026-07-15T08:14:10Z</time>
      </trkpt>
      <trkpt lat="42.87964" lon="-0.1896">
        <ele>2129.4</ele>
        <time>2026-07-15T08:14:11Z</time>
      </trkpt>
      <trkpt lat="42.87964" lon="-0.18959">
        <ele>2129.4</ele>
        <time>2026-07-15T08:14:11Z</time>
      </trkpt>
      <trkpt lat="42.87964" lon="-0.18959">
        <ele>2129.4</ele>
        <time>2026-07-15T08:14:12Z</time>
      </trkpt>
      <trkpt lat="42.87965" lon="-0.18958">
        <ele>2129.4</ele>
        <time>2026-07-15T08:14:13Z</time>
      </trkpt>
      <trkpt lat="42.87965" lon="-0.18957">
        <ele>2131.4</ele>
        <time>2026-07-15T08:14:14Z</time>
      </trkpt>
      <trkpt lat="42.87965" lon="-0.18957">
        <ele>2131.4</ele>
        <time>2026-07-15T08:14:15Z</time>
      </trkpt>
      <trkpt lat="42.87965" lon="-0.18956">
        <ele>2131.4</ele>
        <time>2026-07-15T08:14:16Z</time>
      </trkpt>
      <trkpt lat="42.87965" lon="-0.18956">
        <ele>2131.4</ele>
        <time>2026-07-15T08:14:17Z</time>
      </trkpt>
      <trkpt lat="42.87965" lon="-0.18956">
        <ele>2131.4</ele>
        <time>2026-07-15T08:14:18Z</time>
      </trkpt>
      <trkpt lat="42.87965" lon="-0.18955">
        <ele>2133.4</ele>
        <time>2026-07-15T08:14:19Z</time>
      </trkpt>
      <trkpt lat="42.87965" lon="-0.18955">
        <ele>2133.4</ele>
        <time>2026-07-15T08:14:20Z</time>
      </trkpt>
      <trkpt lat="42.87965" lon="-0.18955">
        <ele>2133.4</ele>
        <time>2026-07-15T08:14:21Z</time>
      </trkpt>
      <trkpt lat="42.87965" lon="-0.18954">
        <ele>2134.4</ele>
        <time>2026-07-15T08:14:22Z</time>
      </trkpt>
      <trkpt lat="42.87965" lon="-0.18954">
        <ele>2134.4</ele>
        <time>2026-07-15T08:14:23Z</time>
      </trkpt>
      <trkpt lat="42.87965" lon="-0.18953">
        <ele>2134.4</ele>
        <time>2026-07-15T08:14:24Z</time>
      </trkpt>
      <trkpt lat="42.87965" lon="-0.18953">
        <ele>2134.4</ele>
        <time>2026-07-15T08:14:25Z</time>
      </trkpt>
      <trkpt lat="42.87965" lon="-0.18953">
        <ele>2134.4</ele>
        <time>2026-07-15T08:14:26Z</time>
      </trkpt>
      <trkpt lat="42.87966" lon="-0.18952">
        <ele>2134.4</ele>
        <time>2026-07-15T08:14:27Z</time>
      </trkpt>
      <trkpt lat="42.87966" lon="-0.18952">
        <ele>2134.4</ele>
        <time>2026-07-15T08:14:27Z</time>
      </trkpt>
      <trkpt lat="42.87966" lon="-0.18951">
        <ele>2135.4</ele>
        <time>2026-07-15T08:14:28Z</time>
      </trkpt>
      <trkpt lat="42.87966" lon="-0.1895">
        <ele>2136.4</ele>
        <time>2026-07-15T08:14:29Z</time>
      </trkpt>
      <trkpt lat="42.87967" lon="-0.18949">
        <ele>2136.4</ele>
        <time>2026-07-15T08:14:30Z</time>
      </trkpt>
      <trkpt lat="42.87967" lon="-0.18948">
        <ele>2136.4</ele>
        <time>2026-07-15T08:14:31Z</time>
      </trkpt>
      <trkpt lat="42.87967" lon="-0.18947">
        <ele>2136.4</ele>
        <time>2026-07-15T08:14:32Z</time>
      </trkpt>
      <trkpt lat="42.87967" lon="-0.18946">
        <ele>2136.4</ele>
        <time>2026-07-15T08:14:33Z</time>
      </trkpt>
      <trkpt lat="42.87967" lon="-0.18946">
        <ele>2136.4</ele>
        <time>2026-07-15T08:14:34Z</time>
      </trkpt>
      <trkpt lat="42.87967" lon="-0.18946">
        <ele>2136.4</ele>
        <time>2026-07-15T08:14:35Z</time>
      </trkpt>
      <trkpt lat="42.87967" lon="-0.18946">
        <ele>2136.4</ele>
        <time>2026-07-15T08:14:36Z</time>
      </trkpt>
      <trkpt lat="42.87967" lon="-0.18946">
        <ele>2136.4</ele>
        <time>2026-07-15T08:14:37Z</time>
      </trkpt>
      <trkpt lat="42.87967" lon="-0.18945">
        <ele>2135.4</ele>
        <time>2026-07-15T08:14:37Z</time>
      </trkpt>
      <trkpt lat="42.87967" lon="-0.18945">
        <ele>2136.4</ele>
        <time>2026-07-15T08:14:38Z</time>
      </trkpt>
      <trkpt lat="42.87967" lon="-0.18944">
        <ele>2135.4</ele>
        <time>2026-07-15T08:14:39Z</time>
      </trkpt>
      <trkpt lat="42.87967" lon="-0.18944">
        <ele>2135.4</ele>
        <time>2026-07-15T08:14:40Z</time>
      </trkpt>
      <trkpt lat="42.87967" lon="-0.18943">
        <ele>2135.4</ele>
        <time>2026-07-15T08:14:41Z</time>
      </trkpt>
      <trkpt lat="42.87967" lon="-0.18942">
        <ele>2135.4</ele>
        <time>2026-07-15T08:14:42Z</time>
      </trkpt>
      <trkpt lat="42.87967" lon="-0.18941">
        <ele>2135.4</ele>
        <time>2026-07-15T08:14:43Z</time>
      </trkpt>
      <trkpt lat="42.87967" lon="-0.1894">
        <ele>2135.4</ele>
        <time>2026-07-15T08:14:44Z</time>
      </trkpt>
      <trkpt lat="42.87967" lon="-0.1894">
        <ele>2135.4</ele>
        <time>2026-07-15T08:14:45Z</time>
      </trkpt>
      <trkpt lat="42.87967" lon="-0.18939">
        <ele>2136.4</ele>
        <time>2026-07-15T08:14:46Z</time>
      </trkpt>
      <trkpt lat="42.87968" lon="-0.18938">
        <ele>2136.4</ele>
        <time>2026-07-15T08:14:47Z</time>
      </trkpt>
      <trkpt lat="42.87968" lon="-0.18938">
        <ele>2135.4</ele>
        <time>2026-07-15T08:14:47Z</time>
      </trkpt>
      <trkpt lat="42.87968" lon="-0.18937">
        <ele>2135.4</ele>
        <time>2026-07-15T08:14:48Z</time>
      </trkpt>
      <trkpt lat="42.87968" lon="-0.18937">
        <ele>2135.4</ele>
        <time>2026-07-15T08:14:49Z</time>
      </trkpt>
      <trkpt lat="42.87968" lon="-0.18936">
        <ele>2135.4</ele>
        <time>2026-07-15T08:14:50Z</time>
      </trkpt>
      <trkpt lat="42.87968" lon="-0.18936">
        <ele>2135.4</ele>
        <time>2026-07-15T08:14:51Z</time>
      </trkpt>
      <trkpt lat="42.87969" lon="-0.18935">
        <ele>2135.4</ele>
        <time>2026-07-15T08:14:51Z</time>
      </trkpt>
      <trkpt lat="42.87969" lon="-0.18935">
        <ele>2134.4</ele>
        <time>2026-07-15T08:14:52Z</time>
      </trkpt>
      <trkpt lat="42.87969" lon="-0.18934">
        <ele>2134.4</ele>
        <time>2026-07-15T08:14:53Z</time>
      </trkpt>
      <trkpt lat="42.87969" lon="-0.18934">
        <ele>2134.4</ele>
        <time>2026-07-15T08:14:54Z</time>
      </trkpt>
      <trkpt lat="42.87969" lon="-0.18933">
        <ele>2134.4</ele>
        <time>2026-07-15T08:14:55Z</time>
      </trkpt>
      <trkpt lat="42.8797" lon="-0.18933">
        <ele>2134.4</ele>
        <time>2026-07-15T08:14:56Z</time>
      </trkpt>
      <trkpt lat="42.8797" lon="-0.18933">
        <ele>2133.4</ele>
        <time>2026-07-15T08:14:57Z</time>
      </trkpt>
      <trkpt lat="42.8797" lon="-0.18933">
        <ele>2133.4</ele>
        <time>2026-07-15T08:14:58Z</time>
      </trkpt>
      <trkpt lat="42.87971" lon="-0.18932">
        <ele>2134.4</ele>
        <time>2026-07-15T08:14:59Z</time>
      </trkpt>
      <trkpt lat="42.87971" lon="-0.18932">
        <ele>2134.4</ele>
        <time>2026-07-15T08:15:00Z</time>
      </trkpt>
      <trkpt lat="42.87971" lon="-0.18931">
        <ele>2135.4</ele>
        <time>2026-07-15T08:15:01Z</time>
      </trkpt>
      <trkpt lat="42.87971" lon="-0.18931">
        <ele>2135.4</ele>
        <time>2026-07-15T08:15:02Z</time>
      </trkpt>
      <trkpt lat="42.87971" lon="-0.1893">
        <ele>2135.4</ele>
        <time>2026-07-15T08:15:02Z</time>
      </trkpt>
      <trkpt lat="42.87971" lon="-0.1893">
        <ele>2136.4</ele>
        <time>2026-07-15T08:15:03Z</time>
      </trkpt>
      <trkpt lat="42.8797" lon="-0.18931">
        <ele>2136.4</ele>
        <time>2026-07-15T08:15:04Z</time>
      </trkpt>
      <trkpt lat="42.8797" lon="-0.18931">
        <ele>2136.4</ele>
        <time>2026-07-15T08:15:05Z</time>
      </trkpt>
      <trkpt lat="42.87969" lon="-0.18931">
        <ele>2136.4</ele>
        <time>2026-07-15T08:15:06Z</time>
      </trkpt>
      <trkpt lat="42.87969" lon="-0.18931">
        <ele>2136.4</ele>
        <time>2026-07-15T08:15:07Z</time>
      </trkpt>
      <trkpt lat="42.87968" lon="-0.18931">
        <ele>2136.4</ele>
        <time>2026-07-15T08:15:08Z</time>
      </trkpt>
      <trkpt lat="42.87968" lon="-0.18931">
        <ele>2136.4</ele>
        <time>2026-07-15T08:15:09Z</time>
      </trkpt>
      <trkpt lat="42.87968" lon="-0.18931">
        <ele>2136.4</ele>
        <time>2026-07-15T08:15:10Z</time>
      </trkpt>
      <trkpt lat="42.87967" lon="-0.18931">
        <ele>2137.4</ele>
        <time>2026-07-15T08:15:10Z</time>
      </trkpt>
      <trkpt lat="42.87967" lon="-0.18931">
        <ele>2138.4</ele>
        <time>2026-07-15T08:15:11Z</time>
      </trkpt>
      <trkpt lat="42.87967" lon="-0.18931">
        <ele>2137.4</ele>
        <time>2026-07-15T08:15:12Z</time>
      </trkpt>
      <trkpt lat="42.87967" lon="-0.18931">
        <ele>2137.4</ele>
        <time>2026-07-15T08:15:13Z</time>
      </trkpt>
      <trkpt lat="42.87966" lon="-0.18931">
        <ele>2136.4</ele>
        <time>2026-07-15T08:15:14Z</time>
      </trkpt>
      <trkpt lat="42.87966" lon="-0.18931">
        <ele>2136.4</ele>
        <time>2026-07-15T08:15:15Z</time>
      </trkpt>
      <trkpt lat="42.87965" lon="-0.18931">
        <ele>2136.4</ele>
        <time>2026-07-15T08:15:16Z</time>
      </trkpt>
      <trkpt lat="42.87965" lon="-0.18931">
        <ele>2136.4</ele>
        <time>2026-07-15T08:15:17Z</time>
      </trkpt>
      <trkpt lat="42.87964" lon="-0.18931">
        <ele>2137.4</ele>
        <time>2026-07-15T08:15:18Z</time>
      </trkpt>
      <trkpt lat="42.87964" lon="-0.18931">
        <ele>2138.4</ele>
        <time>2026-07-15T08:15:18Z</time>
      </trkpt>
      <trkpt lat="42.87964" lon="-0.18931">
        <ele>2138.4</ele>
        <time>2026-07-15T08:15:19Z</time>
      </trkpt>
      <trkpt lat="42.87963" lon="-0.18931">
        <ele>2137.4</ele>
        <time>2026-07-15T08:15:19Z</time>
      </trkpt>
      <trkpt lat="42.87963" lon="-0.18932">
        <ele>2137.4</ele>
        <time>2026-07-15T08:15:20Z</time>
      </trkpt>
      <trkpt lat="42.87962" lon="-0.18932">
        <ele>2137.4</ele>
        <time>2026-07-15T08:15:21Z</time>
      </trkpt>
      <trkpt lat="42.87962" lon="-0.18932">
        <ele>2138.4</ele>
        <time>2026-07-15T08:15:22Z</time>
      </trkpt>
      <trkpt lat="42.87961" lon="-0.18933">
        <ele>2138.4</ele>
        <time>2026-07-15T08:15:23Z</time>
      </trkpt>
      <trkpt lat="42.87961" lon="-0.18933">
        <ele>2138.4</ele>
        <time>2026-07-15T08:15:24Z</time>
      </trkpt>
      <trkpt lat="42.87961" lon="-0.18933">
        <ele>2138.4</ele>
        <time>2026-07-15T08:15:24Z</time>
      </trkpt>
      <trkpt lat="42.8796" lon="-0.18934">
        <ele>2138.4</ele>
        <time>2026-07-15T08:15:25Z</time>
      </trkpt>
      <trkpt lat="42.8796" lon="-0.18934">
        <ele>2138.4</ele>
        <time>2026-07-15T08:15:26Z</time>
      </trkpt>
      <trkpt lat="42.8796" lon="-0.18934">
        <ele>2138.4</ele>
        <time>2026-07-15T08:15:27Z</time>
      </trkpt>
      <trkpt lat="42.87959" lon="-0.18934">
        <ele>2138.4</ele>
        <time>2026-07-15T08:15:28Z</time>
      </trkpt>
      <trkpt lat="42.87959" lon="-0.18934">
        <ele>2138.4</ele>
        <time>2026-07-15T08:15:29Z</time>
      </trkpt>
      <trkpt lat="42.87959" lon="-0.18935">
        <ele>2138.4</ele>
        <time>2026-07-15T08:15:29Z</time>
      </trkpt>
      <trkpt lat="42.87958" lon="-0.18935">
        <ele>2139.4</ele>
        <time>2026-07-15T08:15:30Z</time>
      </trkpt>
      <trkpt lat="42.87958" lon="-0.18935">
        <ele>2139.4</ele>
        <time>2026-07-15T08:15:31Z</time>
      </trkpt>
      <trkpt lat="42.87957" lon="-0.18935">
        <ele>2139.4</ele>
        <time>2026-07-15T08:15:32Z</time>
      </trkpt>
      <trkpt lat="42.87957" lon="-0.18935">
        <ele>2139.4</ele>
        <time>2026-07-15T08:15:33Z</time>
      </trkpt>
      <trkpt lat="42.87957" lon="-0.18935">
        <ele>2139.4</ele>
        <time>2026-07-15T08:15:34Z</time>
      </trkpt>
      <trkpt lat="42.87956" lon="-0.18934">
        <ele>2140.4</ele>
        <time>2026-07-15T08:15:35Z</time>
      </trkpt>
      <trkpt lat="42.87956" lon="-0.18934">
        <ele>2140.4</ele>
        <time>2026-07-15T08:15:36Z</time>
      </trkpt>
      <trkpt lat="42.87955" lon="-0.18934">
        <ele>2140.4</ele>
        <time>2026-07-15T08:15:37Z</time>
      </trkpt>
      <trkpt lat="42.87955" lon="-0.18933">
        <ele>2140.4</ele>
        <time>2026-07-15T08:15:38Z</time>
      </trkpt>
      <trkpt lat="42.87955" lon="-0.18933">
        <ele>2141.4</ele>
        <time>2026-07-15T08:15:38Z</time>
      </trkpt>
      <trkpt lat="42.87955" lon="-0.18932">
        <ele>2141.4</ele>
        <time>2026-07-15T08:15:39Z</time>
      </trkpt>
      <trkpt lat="42.87955" lon="-0.18932">
        <ele>2141.4</ele>
        <time>2026-07-15T08:15:39Z</time>
      </trkpt>
      <trkpt lat="42.87955" lon="-0.18931">
        <ele>2140.4</ele>
        <time>2026-07-15T08:15:40Z</time>
      </trkpt>
      <trkpt lat="42.87955" lon="-0.1893">
        <ele>2142.4</ele>
        <time>2026-07-15T08:15:41Z</time>
      </trkpt>
      <trkpt lat="42.87955" lon="-0.18929">
        <ele>2142.4</ele>
        <time>2026-07-15T08:15:42Z</time>
      </trkpt>
      <trkpt lat="42.87955" lon="-0.18929">
        <ele>2141.4</ele>
        <time>2026-07-15T08:15:43Z</time>
      </trkpt>
      <trkpt lat="42.87955" lon="-0.18928">
        <ele>2141.4</ele>
        <time>2026-07-15T08:15:44Z</time>
      </trkpt>
      <trkpt lat="42.87954" lon="-0.18928">
        <ele>2141.4</ele>
        <time>2026-07-15T08:15:45Z</time>
      </trkpt>
      <trkpt lat="42.87954" lon="-0.18927">
        <ele>2141.4</ele>
        <time>2026-07-15T08:15:46Z</time>
      </trkpt>
      <trkpt lat="42.87954" lon="-0.18927">
        <ele>2141.4</ele>
        <time>2026-07-15T08:15:47Z</time>
      </trkpt>
      <trkpt lat="42.87953" lon="-0.18926">
        <ele>2140.4</ele>
        <time>2026-07-15T08:15:48Z</time>
      </trkpt>
      <trkpt lat="42.87953" lon="-0.18926">
        <ele>2140.4</ele>
        <time>2026-07-15T08:15:49Z</time>
      </trkpt>
      <trkpt lat="42.87954" lon="-0.18925">
        <ele>2140.4</ele>
        <time>2026-07-15T08:15:50Z</time>
      </trkpt>
      <trkpt lat="42.87954" lon="-0.18925">
        <ele>2141.4</ele>
        <time>2026-07-15T08:15:51Z</time>
      </trkpt>
      <trkpt lat="42.87954" lon="-0.18924">
        <ele>2140.4</ele>
        <time>2026-07-15T08:15:52Z</time>
      </trkpt>
      <trkpt lat="42.87955" lon="-0.18924">
        <ele>2140.4</ele>
        <time>2026-07-15T08:15:53Z</time>
      </trkpt>
      <trkpt lat="42.87955" lon="-0.18923">
        <ele>2140.4</ele>
        <time>2026-07-15T08:15:53Z</time>
      </trkpt>
      <trkpt lat="42.87955" lon="-0.18923">
        <ele>2140.4</ele>
        <time>2026-07-15T08:15:54Z</time>
      </trkpt>
      <trkpt lat="42.87956" lon="-0.18922">
        <ele>2141.4</ele>
        <time>2026-07-15T08:15:55Z</time>
      </trkpt>
      <trkpt lat="42.87956" lon="-0.18921">
        <ele>2141.4</ele>
        <time>2026-07-15T08:15:56Z</time>
      </trkpt>
      <trkpt lat="42.87955" lon="-0.1892">
        <ele>2140.4</ele>
        <time>2026-07-15T08:15:57Z</time>
      </trkpt>
      <trkpt lat="42.87955" lon="-0.1892">
        <ele>2140.4</ele>
        <time>2026-07-15T08:15:58Z</time>
      </trkpt>
      <trkpt lat="42.87955" lon="-0.18919">
        <ele>2141.4</ele>
        <time>2026-07-15T08:15:59Z</time>
      </trkpt>
      <trkpt lat="42.87955" lon="-0.18919">
        <ele>2141.4</ele>
        <time>2026-07-15T08:16:00Z</time>
      </trkpt>
      <trkpt lat="42.87955" lon="-0.18919">
        <ele>2141.4</ele>
        <time>2026-07-15T08:16:01Z</time>
      </trkpt>
      <trkpt lat="42.87955" lon="-0.18919">
        <ele>2141.4</ele>
        <time>2026-07-15T08:16:02Z</time>
      </trkpt>
      <trkpt lat="42.87955" lon="-0.18918">
        <ele>2141.4</ele>
        <time>2026-07-15T08:16:03Z</time>
      </trkpt>
      <trkpt lat="42.87955" lon="-0.18918">
        <ele>2142.4</ele>
        <time>2026-07-15T08:16:04Z</time>
      </trkpt>
      <trkpt lat="42.87955" lon="-0.18918">
        <ele>2142.4</ele>
        <time>2026-07-15T08:16:05Z</time>
      </trkpt>
      <trkpt lat="42.87955" lon="-0.18917">
        <ele>2142.4</ele>
        <time>2026-07-15T08:16:06Z</time>
      </trkpt>
      <trkpt lat="42.87955" lon="-0.18917">
        <ele>2142.4</ele>
        <time>2026-07-15T08:16:07Z</time>
      </trkpt>
      <trkpt lat="42.87955" lon="-0.18916">
        <ele>2142.4</ele>
        <time>2026-07-15T08:16:08Z</time>
      </trkpt>
      <trkpt lat="42.87955" lon="-0.18916">
        <ele>2142.4</ele>
        <time>2026-07-15T08:16:08Z</time>
      </trkpt>
      <trkpt lat="42.87955" lon="-0.18916">
        <ele>2142.4</ele>
        <time>2026-07-15T08:16:09Z</time>
      </trkpt>
      <trkpt lat="42.87955" lon="-0.18916">
        <ele>2142.4</ele>
        <time>2026-07-15T08:16:10Z</time>
      </trkpt>
      <trkpt lat="42.87955" lon="-0.18916">
        <ele>2142.4</ele>
        <time>2026-07-15T08:16:11Z</time>
      </trkpt>
      <trkpt lat="42.87955" lon="-0.18916">
        <ele>2144.4</ele>
        <time>2026-07-15T08:16:12Z</time>
      </trkpt>
      <trkpt lat="42.87955" lon="-0.18915">
        <ele>2144.4</ele>
        <time>2026-07-15T08:16:13Z</time>
      </trkpt>
      <trkpt lat="42.87955" lon="-0.18915">
        <ele>2144.4</ele>
        <time>2026-07-15T08:16:14Z</time>
      </trkpt>
      <trkpt lat="42.87955" lon="-0.18914">
        <ele>2144.4</ele>
        <time>2026-07-15T08:16:15Z</time>
      </trkpt>
      <trkpt lat="42.87955" lon="-0.18913">
        <ele>2144.4</ele>
        <time>2026-07-15T08:16:15Z</time>
      </trkpt>
      <trkpt lat="42.87955" lon="-0.18913">
        <ele>2145.4</ele>
        <time>2026-07-15T08:16:16Z</time>
      </trkpt>
      <trkpt lat="42.87955" lon="-0.18912">
        <ele>2145.4</ele>
        <time>2026-07-15T08:16:17Z</time>
      </trkpt>
      <trkpt lat="42.87955" lon="-0.18911">
        <ele>2146.4</ele>
        <time>2026-07-15T08:16:18Z</time>
      </trkpt>
      <trkpt lat="42.87955" lon="-0.18911">
        <ele>2146.4</ele>
        <time>2026-07-15T08:16:19Z</time>
      </trkpt>
      <trkpt lat="42.87955" lon="-0.1891">
        <ele>2146.4</ele>
        <time>2026-07-15T08:16:20Z</time>
      </trkpt>
      <trkpt lat="42.87955" lon="-0.1891">
        <ele>2147.4</ele>
        <time>2026-07-15T08:16:21Z</time>
      </trkpt>
      <trkpt lat="42.87955" lon="-0.18909">
        <ele>2147.4</ele>
        <time>2026-07-15T08:16:22Z</time>
      </trkpt>
      <trkpt lat="42.87955" lon="-0.18909">
        <ele>2147.4</ele>
        <time>2026-07-15T08:16:23Z</time>
      </trkpt>
      <trkpt lat="42.87955" lon="-0.18909">
        <ele>2147.4</ele>
        <time>2026-07-15T08:16:24Z</time>
      </trkpt>
      <trkpt lat="42.87955" lon="-0.18908">
        <ele>2147.4</ele>
        <time>2026-07-15T08:16:25Z</time>
      </trkpt>
      <trkpt lat="42.87955" lon="-0.18908">
        <ele>2147.4</ele>
        <time>2026-07-15T08:16:26Z</time>
      </trkpt>
      <trkpt lat="42.87955" lon="-0.18908">
        <ele>2147.4</ele>
        <time>2026-07-15T08:16:27Z</time>
      </trkpt>
      <trkpt lat="42.87954" lon="-0.18908">
        <ele>2148.4</ele>
        <time>2026-07-15T08:16:28Z</time>
      </trkpt>
      <trkpt lat="42.87954" lon="-0.18908">
        <ele>2148.4</ele>
        <time>2026-07-15T08:16:29Z</time>
      </trkpt>
      <trkpt lat="42.87954" lon="-0.18907">
        <ele>2148.4</ele>
        <time>2026-07-15T08:16:30Z</time>
      </trkpt>
      <trkpt lat="42.87954" lon="-0.18907">
        <ele>2149.4</ele>
        <time>2026-07-15T08:16:31Z</time>
      </trkpt>
      <trkpt lat="42.87953" lon="-0.18907">
        <ele>2149.4</ele>
        <time>2026-07-15T08:16:32Z</time>
      </trkpt>
      <trkpt lat="42.87953" lon="-0.18907">
        <ele>2149.4</ele>
        <time>2026-07-15T08:16:33Z</time>
      </trkpt>
      <trkpt lat="42.87953" lon="-0.18907">
        <ele>2148.4</ele>
        <time>2026-07-15T08:16:34Z</time>
      </trkpt>
      <trkpt lat="42.87952" lon="-0.18907">
        <ele>2148.4</ele>
        <time>2026-07-15T08:16:35Z</time>
      </trkpt>
      <trkpt lat="42.87952" lon="-0.18906">
        <ele>2148.4</ele>
        <time>2026-07-15T08:16:36Z</time>
      </trkpt>
      <trkpt lat="42.87951" lon="-0.18906">
        <ele>2149.4</ele>
        <time>2026-07-15T08:16:37Z</time>
      </trkpt>
      <trkpt lat="42.87951" lon="-0.18906">
        <ele>2149.4</ele>
        <time>2026-07-15T08:16:38Z</time>
      </trkpt>
      <trkpt lat="42.8795" lon="-0.18906">
        <ele>2149.4</ele>
        <time>2026-07-15T08:16:39Z</time>
      </trkpt>
      <trkpt lat="42.8795" lon="-0.18906">
        <ele>2149.4</ele>
        <time>2026-07-15T08:16:40Z</time>
      </trkpt>
      <trkpt lat="42.8795" lon="-0.18906">
        <ele>2149.4</ele>
        <time>2026-07-15T08:16:41Z</time>
      </trkpt>
      <trkpt lat="42.87949" lon="-0.18906">
        <ele>2149.4</ele>
        <time>2026-07-15T08:16:42Z</time>
      </trkpt>
      <trkpt lat="42.87949" lon="-0.18907">
        <ele>2148.4</ele>
        <time>2026-07-15T08:16:43Z</time>
      </trkpt>
      <trkpt lat="42.87949" lon="-0.18907">
        <ele>2148.4</ele>
        <time>2026-07-15T08:16:44Z</time>
      </trkpt>
      <trkpt lat="42.87948" lon="-0.18907">
        <ele>2149.4</ele>
        <time>2026-07-15T08:16:44Z</time>
      </trkpt>
      <trkpt lat="42.87948" lon="-0.18907">
        <ele>2149.4</ele>
        <time>2026-07-15T08:16:45Z</time>
      </trkpt>
      <trkpt lat="42.87948" lon="-0.18907">
        <ele>2150.4</ele>
        <time>2026-07-15T08:16:45Z</time>
      </trkpt>
      <trkpt lat="42.87947" lon="-0.18907">
        <ele>2150.4</ele>
        <time>2026-07-15T08:16:46Z</time>
      </trkpt>
      <trkpt lat="42.87946" lon="-0.18907">
        <ele>2149.4</ele>
        <time>2026-07-15T08:16:47Z</time>
      </trkpt>
      <trkpt lat="42.87946" lon="-0.18907">
        <ele>2149.4</ele>
        <time>2026-07-15T08:16:48Z</time>
      </trkpt>
      <trkpt lat="42.87946" lon="-0.18907">
        <ele>2149.4</ele>
        <time>2026-07-15T08:16:49Z</time>
      </trkpt>
      <trkpt lat="42.87945" lon="-0.18908">
        <ele>2149.4</ele>
        <time>2026-07-15T08:16:50Z</time>
      </trkpt>
      <trkpt lat="42.87945" lon="-0.18908">
        <ele>2149.4</ele>
        <time>2026-07-15T08:16:51Z</time>
      </trkpt>
      <trkpt lat="42.87945" lon="-0.18908">
        <ele>2149.4</ele>
        <time>2026-07-15T08:16:52Z</time>
      </trkpt>
      <trkpt lat="42.87945" lon="-0.18908">
        <ele>2149.4</ele>
        <time>2026-07-15T08:16:53Z</time>
      </trkpt>
      <trkpt lat="42.87944" lon="-0.18908">
        <ele>2150.4</ele>
        <time>2026-07-15T08:16:54Z</time>
      </trkpt>
      <trkpt lat="42.87944" lon="-0.18908">
        <ele>2150.4</ele>
        <time>2026-07-15T08:16:54Z</time>
      </trkpt>
      <trkpt lat="42.87943" lon="-0.18908">
        <ele>2150.4</ele>
        <time>2026-07-15T08:16:55Z</time>
      </trkpt>
      <trkpt lat="42.87943" lon="-0.18908">
        <ele>2150.4</ele>
        <time>2026-07-15T08:16:56Z</time>
      </trkpt>
      <trkpt lat="42.87942" lon="-0.18908">
        <ele>2150.4</ele>
        <time>2026-07-15T08:16:57Z</time>
      </trkpt>
      <trkpt lat="42.87942" lon="-0.18908">
        <ele>2151.4</ele>
        <time>2026-07-15T08:16:58Z</time>
      </trkpt>
      <trkpt lat="42.87941" lon="-0.18907">
        <ele>2151.4</ele>
        <time>2026-07-15T08:16:59Z</time>
      </trkpt>
      <trkpt lat="42.87941" lon="-0.18907">
        <ele>2152.4</ele>
        <time>2026-07-15T08:17:00Z</time>
      </trkpt>
      <trkpt lat="42.8794" lon="-0.18907">
        <ele>2152.4</ele>
        <time>2026-07-15T08:17:01Z</time>
      </trkpt>
      <trkpt lat="42.8794" lon="-0.18907">
        <ele>2152.4</ele>
        <time>2026-07-15T08:17:02Z</time>
      </trkpt>
      <trkpt lat="42.87939" lon="-0.18906">
        <ele>2153.4</ele>
        <time>2026-07-15T08:17:03Z</time>
      </trkpt>
      <trkpt lat="42.87939" lon="-0.18906">
        <ele>2153.4</ele>
        <time>2026-07-15T08:17:04Z</time>
      </trkpt>
      <trkpt lat="42.87938" lon="-0.18906">
        <ele>2153.4</ele>
        <time>2026-07-15T08:17:05Z</time>
      </trkpt>
      <trkpt lat="42.87938" lon="-0.18906">
        <ele>2152.4</ele>
        <time>2026-07-15T08:17:06Z</time>
      </trkpt>
      <trkpt lat="42.87938" lon="-0.18906">
        <ele>2152.4</ele>
        <time>2026-07-15T08:17:07Z</time>
      </trkpt>
      <trkpt lat="42.87938" lon="-0.18906">
        <ele>2152.4</ele>
        <time>2026-07-15T08:17:08Z</time>
      </trkpt>
      <trkpt lat="42.87937" lon="-0.18906">
        <ele>2152.4</ele>
        <time>2026-07-15T08:17:09Z</time>
      </trkpt>
      <trkpt lat="42.87937" lon="-0.18906">
        <ele>2152.4</ele>
        <time>2026-07-15T08:17:10Z</time>
      </trkpt>
      <trkpt lat="42.87937" lon="-0.18906">
        <ele>2152.4</ele>
        <time>2026-07-15T08:17:11Z</time>
      </trkpt>
      <trkpt lat="42.87937" lon="-0.18906">
        <ele>2152.4</ele>
        <time>2026-07-15T08:17:12Z</time>
      </trkpt>
      <trkpt lat="42.87936" lon="-0.18906">
        <ele>2153.4</ele>
        <time>2026-07-15T08:17:13Z</time>
      </trkpt>
      <trkpt lat="42.87936" lon="-0.18907">
        <ele>2153.4</ele>
        <time>2026-07-15T08:17:14Z</time>
      </trkpt>
      <trkpt lat="42.87935" lon="-0.18907">
        <ele>2153.4</ele>
        <time>2026-07-15T08:17:15Z</time>
      </trkpt>
      <trkpt lat="42.87934" lon="-0.18907">
        <ele>2152.4</ele>
        <time>2026-07-15T08:17:16Z</time>
      </trkpt>
      <trkpt lat="42.87934" lon="-0.18907">
        <ele>2153.4</ele>
        <time>2026-07-15T08:17:17Z</time>
      </trkpt>
      <trkpt lat="42.87933" lon="-0.18907">
        <ele>2153.4</ele>
        <time>2026-07-15T08:17:18Z</time>
      </trkpt>
      <trkpt lat="42.87933" lon="-0.18907">
        <ele>2154.4</ele>
        <time>2026-07-15T08:17:19Z</time>
      </trkpt>
      <trkpt lat="42.87933" lon="-0.18907">
        <ele>2154.4</ele>
        <time>2026-07-15T08:17:20Z</time>
      </trkpt>
      <trkpt lat="42.87932" lon="-0.18907">
        <ele>2154.4</ele>
        <time>2026-07-15T08:17:20Z</time>
      </trkpt>
      <trkpt lat="42.87932" lon="-0.18907">
        <ele>2154.4</ele>
        <time>2026-07-15T08:17:21Z</time>
      </trkpt>
      <trkpt lat="42.87932" lon="-0.18907">
        <ele>2154.4</ele>
        <time>2026-07-15T08:17:22Z</time>
      </trkpt>
      <trkpt lat="42.87932" lon="-0.18907">
        <ele>2154.4</ele>
        <time>2026-07-15T08:17:22Z</time>
      </trkpt>
      <trkpt lat="42.87932" lon="-0.18908">
        <ele>2154.4</ele>
        <time>2026-07-15T08:17:23Z</time>
      </trkpt>
      <trkpt lat="42.87932" lon="-0.18908">
        <ele>2154.4</ele>
        <time>2026-07-15T08:17:23Z</time>
      </trkpt>
      <trkpt lat="42.87931" lon="-0.18908">
        <ele>2154.4</ele>
        <time>2026-07-15T08:17:24Z</time>
      </trkpt>
      <trkpt lat="42.87931" lon="-0.18908">
        <ele>2154.4</ele>
        <time>2026-07-15T08:17:25Z</time>
      </trkpt>
      <trkpt lat="42.8793" lon="-0.18908">
        <ele>2155.4</ele>
        <time>2026-07-15T08:17:26Z</time>
      </trkpt>
      <trkpt lat="42.8793" lon="-0.18909">
        <ele>2156.4</ele>
        <time>2026-07-15T08:17:27Z</time>
      </trkpt>
      <trkpt lat="42.8793" lon="-0.18909">
        <ele>2156.4</ele>
        <time>2026-07-15T08:17:28Z</time>
      </trkpt>
      <trkpt lat="42.87929" lon="-0.18909">
        <ele>2156.4</ele>
        <time>2026-07-15T08:17:29Z</time>
      </trkpt>
      <trkpt lat="42.87929" lon="-0.18909">
        <ele>2156.4</ele>
        <time>2026-07-15T08:17:29Z</time>
      </trkpt>
      <trkpt lat="42.87929" lon="-0.18909">
        <ele>2156.4</ele>
        <time>2026-07-15T08:17:30Z</time>
      </trkpt>
      <trkpt lat="42.87928" lon="-0.1891">
        <ele>2156.4</ele>
        <time>2026-07-15T08:17:31Z</time>
      </trkpt>
      <trkpt lat="42.87928" lon="-0.18909">
        <ele>2157.4</ele>
        <time>2026-07-15T08:17:32Z</time>
      </trkpt>
      <trkpt lat="42.87928" lon="-0.18908">
        <ele>2157.4</ele>
        <time>2026-07-15T08:17:33Z</time>
      </trkpt>
      <trkpt lat="42.87928" lon="-0.18908">
        <ele>2158.4</ele>
        <time>2026-07-15T08:17:34Z</time>
      </trkpt>
      <trkpt lat="42.87928" lon="-0.18908">
        <ele>2158.4</ele>
        <time>2026-07-15T08:17:35Z</time>
      </trkpt>
      <trkpt lat="42.87928" lon="-0.18908">
        <ele>2158.4</ele>
        <time>2026-07-15T08:17:36Z</time>
      </trkpt>
      <trkpt lat="42.87927" lon="-0.18908">
        <ele>2158.4</ele>
        <time>2026-07-15T08:17:37Z</time>
      </trkpt>
      <trkpt lat="42.87927" lon="-0.18908">
        <ele>2158.4</ele>
        <time>2026-07-15T08:17:37Z</time>
      </trkpt>
      <trkpt lat="42.87927" lon="-0.18908">
        <ele>2158.4</ele>
        <time>2026-07-15T08:17:38Z</time>
      </trkpt>
      <trkpt lat="42.87927" lon="-0.18908">
        <ele>2158.4</ele>
        <time>2026-07-15T08:17:38Z</time>
      </trkpt>
      <trkpt lat="42.87927" lon="-0.18908">
        <ele>2158.4</ele>
        <time>2026-07-15T08:17:39Z</time>
      </trkpt>
      <trkpt lat="42.87927" lon="-0.18908">
        <ele>2159.4</ele>
        <time>2026-07-15T08:17:40Z</time>
      </trkpt>
      <trkpt lat="42.87926" lon="-0.18908">
        <ele>2159.4</ele>
        <time>2026-07-15T08:17:41Z</time>
      </trkpt>
      <trkpt lat="42.87926" lon="-0.18907">
        <ele>2159.4</ele>
        <time>2026-07-15T08:17:42Z</time>
      </trkpt>
      <trkpt lat="42.87926" lon="-0.18907">
        <ele>2159.4</ele>
        <time>2026-07-15T08:17:43Z</time>
      </trkpt>
      <trkpt lat="42.87926" lon="-0.18907">
        <ele>2160.4</ele>
        <time>2026-07-15T08:17:44Z</time>
      </trkpt>
      <trkpt lat="42.87926" lon="-0.18907">
        <ele>2160.4</ele>
        <time>2026-07-15T08:17:45Z</time>
      </trkpt>
      <trkpt lat="42.87926" lon="-0.18906">
        <ele>2161.4</ele>
        <time>2026-07-15T08:17:46Z</time>
      </trkpt>
      <trkpt lat="42.87925" lon="-0.18906">
        <ele>2161.4</ele>
        <time>2026-07-15T08:17:47Z</time>
      </trkpt>
      <trkpt lat="42.87925" lon="-0.18906">
        <ele>2160.4</ele>
        <time>2026-07-15T08:17:48Z</time>
      </trkpt>
      <trkpt lat="42.87924" lon="-0.18906">
        <ele>2160.4</ele>
        <time>2026-07-15T08:17:49Z</time>
      </trkpt>
      <trkpt lat="42.87924" lon="-0.18906">
        <ele>2160.4</ele>
        <time>2026-07-15T08:17:50Z</time>
      </trkpt>
      <trkpt lat="42.87924" lon="-0.18907">
        <ele>2160.4</ele>
        <time>2026-07-15T08:17:51Z</time>
      </trkpt>
      <trkpt lat="42.87923" lon="-0.18907">
        <ele>2160.4</ele>
        <time>2026-07-15T08:17:52Z</time>
      </trkpt>
      <trkpt lat="42.87923" lon="-0.18907">
        <ele>2160.4</ele>
        <time>2026-07-15T08:17:53Z</time>
      </trkpt>
      <trkpt lat="42.87923" lon="-0.18908">
        <ele>2160.4</ele>
        <time>2026-07-15T08:17:54Z</time>
      </trkpt>
      <trkpt lat="42.87922" lon="-0.18908">
        <ele>2160.4</ele>
        <time>2026-07-15T08:17:55Z</time>
      </trkpt>
      <trkpt lat="42.87921" lon="-0.18907">
        <ele>2160.4</ele>
        <time>2026-07-15T08:17:56Z</time>
      </trkpt>
      <trkpt lat="42.87921" lon="-0.18906">
        <ele>2162.4</ele>
        <time>2026-07-15T08:17:57Z</time>
      </trkpt>
      <trkpt lat="42.87921" lon="-0.18905">
        <ele>2161.4</ele>
        <time>2026-07-15T08:17:58Z</time>
      </trkpt>
      <trkpt lat="42.8792" lon="-0.18905">
        <ele>2161.4</ele>
        <time>2026-07-15T08:17:59Z</time>
      </trkpt>
      <trkpt lat="42.8792" lon="-0.18905">
        <ele>2162.4</ele>
        <time>2026-07-15T08:18:00Z</time>
      </trkpt>
      <trkpt lat="42.8792" lon="-0.18905">
        <ele>2161.4</ele>
        <time>2026-07-15T08:18:01Z</time>
      </trkpt>
      <trkpt lat="42.87919" lon="-0.18904">
        <ele>2161.4</ele>
        <time>2026-07-15T08:18:02Z</time>
      </trkpt>
      <trkpt lat="42.87919" lon="-0.18904">
        <ele>2161.4</ele>
        <time>2026-07-15T08:18:03Z</time>
      </trkpt>
      <trkpt lat="42.87918" lon="-0.18904">
        <ele>2161.4</ele>
        <time>2026-07-15T08:18:04Z</time>
      </trkpt>
      <trkpt lat="42.87918" lon="-0.18904">
        <ele>2162.4</ele>
        <time>2026-07-15T08:18:05Z</time>
      </trkpt>
      <trkpt lat="42.87917" lon="-0.18904">
        <ele>2162.4</ele>
        <time>2026-07-15T08:18:06Z</time>
      </trkpt>
      <trkpt lat="42.87917" lon="-0.18904">
        <ele>2162.4</ele>
        <time>2026-07-15T08:18:07Z</time>
      </trkpt>
      <trkpt lat="42.87917" lon="-0.18903">
        <ele>2162.4</ele>
        <time>2026-07-15T08:18:08Z</time>
      </trkpt>
      <trkpt lat="42.87916" lon="-0.18903">
        <ele>2162.4</ele>
        <time>2026-07-15T08:18:09Z</time>
      </trkpt>
      <trkpt lat="42.87916" lon="-0.18902">
        <ele>2162.4</ele>
        <time>2026-07-15T08:18:10Z</time>
      </trkpt>
      <trkpt lat="42.87916" lon="-0.18901">
        <ele>2163.4</ele>
        <time>2026-07-15T08:18:11Z</time>
      </trkpt>
      <trkpt lat="42.87916" lon="-0.18901">
        <ele>2163.4</ele>
        <time>2026-07-15T08:18:12Z</time>
      </trkpt>
      <trkpt lat="42.87916" lon="-0.189">
        <ele>2163.4</ele>
        <time>2026-07-15T08:18:12Z</time>
      </trkpt>
      <trkpt lat="42.87915" lon="-0.189">
        <ele>2163.4</ele>
        <time>2026-07-15T08:18:13Z</time>
      </trkpt>
      <trkpt lat="42.87915" lon="-0.189">
        <ele>2162.4</ele>
        <time>2026-07-15T08:18:13Z</time>
      </trkpt>
      <trkpt lat="42.87915" lon="-0.18899">
        <ele>2162.4</ele>
        <time>2026-07-15T08:18:14Z</time>
      </trkpt>
      <trkpt lat="42.87914" lon="-0.18898">
        <ele>2163.4</ele>
        <time>2026-07-15T08:18:15Z</time>
      </trkpt>
      <trkpt lat="42.87914" lon="-0.18898">
        <ele>2164.4</ele>
        <time>2026-07-15T08:18:16Z</time>
      </trkpt>
      <trkpt lat="42.87914" lon="-0.18897">
        <ele>2165.4</ele>
        <time>2026-07-15T08:18:17Z</time>
      </trkpt>
      <trkpt lat="42.87914" lon="-0.18897">
        <ele>2165.4</ele>
        <time>2026-07-15T08:18:18Z</time>
      </trkpt>
      <trkpt lat="42.87913" lon="-0.18897">
        <ele>2164.4</ele>
        <time>2026-07-15T08:18:19Z</time>
      </trkpt>
      <trkpt lat="42.87913" lon="-0.18897">
        <ele>2164.4</ele>
        <time>2026-07-15T08:18:20Z</time>
      </trkpt>
      <trkpt lat="42.87913" lon="-0.18896">
        <ele>2165.4</ele>
        <time>2026-07-15T08:18:21Z</time>
      </trkpt>
      <trkpt lat="42.87912" lon="-0.18896">
        <ele>2165.4</ele>
        <time>2026-07-15T08:18:22Z</time>
      </trkpt>
      <trkpt lat="42.87912" lon="-0.18896">
        <ele>2165.4</ele>
        <time>2026-07-15T08:18:23Z</time>
      </trkpt>
      <trkpt lat="42.87912" lon="-0.18895">
        <ele>2166.4</ele>
        <time>2026-07-15T08:18:24Z</time>
      </trkpt>
      <trkpt lat="42.87911" lon="-0.18895">
        <ele>2166.4</ele>
        <time>2026-07-15T08:18:25Z</time>
      </trkpt>
      <trkpt lat="42.87911" lon="-0.18895">
        <ele>2166.4</ele>
        <time>2026-07-15T08:18:26Z</time>
      </trkpt>
      <trkpt lat="42.87911" lon="-0.18894">
        <ele>2166.4</ele>
        <time>2026-07-15T08:18:26Z</time>
      </trkpt>
      <trkpt lat="42.8791" lon="-0.18894">
        <ele>2165.4</ele>
        <time>2026-07-15T08:18:27Z</time>
      </trkpt>
      <trkpt lat="42.8791" lon="-0.18894">
        <ele>2164.4</ele>
        <time>2026-07-15T08:18:28Z</time>
      </trkpt>
      <trkpt lat="42.87909" lon="-0.18894">
        <ele>2164.4</ele>
        <time>2026-07-15T08:18:29Z</time>
      </trkpt>
      <trkpt lat="42.87908" lon="-0.18894">
        <ele>2165.4</ele>
        <time>2026-07-15T08:18:30Z</time>
      </trkpt>
      <trkpt lat="42.87908" lon="-0.18894">
        <ele>2164.4</ele>
        <time>2026-07-15T08:18:31Z</time>
      </trkpt>
      <trkpt lat="42.87907" lon="-0.18894">
        <ele>2164.4</ele>
        <time>2026-07-15T08:18:32Z</time>
      </trkpt>
      <trkpt lat="42.87907" lon="-0.18894">
        <ele>2164.4</ele>
        <time>2026-07-15T08:18:33Z</time>
      </trkpt>
      <trkpt lat="42.87907" lon="-0.18893">
        <ele>2164.4</ele>
        <time>2026-07-15T08:18:34Z</time>
      </trkpt>
      <trkpt lat="42.87906" lon="-0.18892">
        <ele>2164.4</ele>
        <time>2026-07-15T08:18:35Z</time>
      </trkpt>
      <trkpt lat="42.87905" lon="-0.18892">
        <ele>2165.4</ele>
        <time>2026-07-15T08:18:36Z</time>
      </trkpt>
      <trkpt lat="42.87905" lon="-0.18892">
        <ele>2165.4</ele>
        <time>2026-07-15T08:18:36Z</time>
      </trkpt>
      <trkpt lat="42.87905" lon="-0.18891">
        <ele>2166.4</ele>
        <time>2026-07-15T08:18:37Z</time>
      </trkpt>
      <trkpt lat="42.87904" lon="-0.18891">
        <ele>2166.4</ele>
        <time>2026-07-15T08:18:38Z</time>
      </trkpt>
      <trkpt lat="42.87904" lon="-0.1889">
        <ele>2166.4</ele>
        <time>2026-07-15T08:18:39Z</time>
      </trkpt>
      <trkpt lat="42.87903" lon="-0.1889">
        <ele>2167.4</ele>
        <time>2026-07-15T08:18:40Z</time>
      </trkpt>
      <trkpt lat="42.87903" lon="-0.18889">
        <ele>2167.4</ele>
        <time>2026-07-15T08:18:41Z</time>
      </trkpt>
      <trkpt lat="42.87902" lon="-0.18888">
        <ele>2168.4</ele>
        <time>2026-07-15T08:18:42Z</time>
      </trkpt>
      <trkpt lat="42.87902" lon="-0.18888">
        <ele>2168.4</ele>
        <time>2026-07-15T08:18:43Z</time>
      </trkpt>
      <trkpt lat="42.87902" lon="-0.18888">
        <ele>2168.4</ele>
        <time>2026-07-15T08:18:44Z</time>
      </trkpt>
      <trkpt lat="42.87902" lon="-0.18887">
        <ele>2168.4</ele>
        <time>2026-07-15T08:18:45Z</time>
      </trkpt>
      <trkpt lat="42.87902" lon="-0.18887">
        <ele>2168.4</ele>
        <time>2026-07-15T08:18:46Z</time>
      </trkpt>
      <trkpt lat="42.87902" lon="-0.18887">
        <ele>2168.4</ele>
        <time>2026-07-15T08:18:47Z</time>
      </trkpt>
      <trkpt lat="42.87901" lon="-0.18887">
        <ele>2168.4</ele>
        <time>2026-07-15T08:18:48Z</time>
      </trkpt>
      <trkpt lat="42.87901" lon="-0.18886">
        <ele>2168.4</ele>
        <time>2026-07-15T08:18:49Z</time>
      </trkpt>
      <trkpt lat="42.87901" lon="-0.18885">
        <ele>2168.4</ele>
        <time>2026-07-15T08:18:50Z</time>
      </trkpt>
      <trkpt lat="42.87901" lon="-0.18885">
        <ele>2168.4</ele>
        <time>2026-07-15T08:18:51Z</time>
      </trkpt>
      <trkpt lat="42.87901" lon="-0.18885">
        <ele>2168.4</ele>
        <time>2026-07-15T08:18:52Z</time>
      </trkpt>
      <trkpt lat="42.879" lon="-0.18884">
        <ele>2169.4</ele>
        <time>2026-07-15T08:18:53Z</time>
      </trkpt>
      <trkpt lat="42.879" lon="-0.18883">
        <ele>2169.4</ele>
        <time>2026-07-15T08:18:54Z</time>
      </trkpt>
      <trkpt lat="42.879" lon="-0.18882">
        <ele>2169.4</ele>
        <time>2026-07-15T08:18:55Z</time>
      </trkpt>
      <trkpt lat="42.87899" lon="-0.18881">
        <ele>2170.4</ele>
        <time>2026-07-15T08:18:56Z</time>
      </trkpt>
      <trkpt lat="42.87899" lon="-0.18881">
        <ele>2170.4</ele>
        <time>2026-07-15T08:18:56Z</time>
      </trkpt>
      <trkpt lat="42.87899" lon="-0.1888">
        <ele>2170.4</ele>
        <time>2026-07-15T08:18:57Z</time>
      </trkpt>
      <trkpt lat="42.87899" lon="-0.18879">
        <ele>2170.4</ele>
        <time>2026-07-15T08:18:58Z</time>
      </trkpt>
      <trkpt lat="42.87899" lon="-0.18878">
        <ele>2169.4</ele>
        <time>2026-07-15T08:18:59Z</time>
      </trkpt>
      <trkpt lat="42.879" lon="-0.18877">
        <ele>2170.4</ele>
        <time>2026-07-15T08:19:00Z</time>
      </trkpt>
      <trkpt lat="42.879" lon="-0.18876">
        <ele>2171.4</ele>
        <time>2026-07-15T08:19:01Z</time>
      </trkpt>
      <trkpt lat="42.879" lon="-0.18876">
        <ele>2170.4</ele>
        <time>2026-07-15T08:19:02Z</time>
      </trkpt>
      <trkpt lat="42.879" lon="-0.18875">
        <ele>2171.4</ele>
        <time>2026-07-15T08:19:03Z</time>
      </trkpt>
      <trkpt lat="42.879" lon="-0.18874">
        <ele>2172.4</ele>
        <time>2026-07-15T08:19:04Z</time>
      </trkpt>
      <trkpt lat="42.879" lon="-0.18874">
        <ele>2173.4</ele>
        <time>2026-07-15T08:19:04Z</time>
      </trkpt>
      <trkpt lat="42.879" lon="-0.18873">
        <ele>2173.4</ele>
        <time>2026-07-15T08:19:05Z</time>
      </trkpt>
      <trkpt lat="42.879" lon="-0.18873">
        <ele>2173.4</ele>
        <time>2026-07-15T08:19:06Z</time>
      </trkpt>
      <trkpt lat="42.879" lon="-0.18872">
        <ele>2173.4</ele>
        <time>2026-07-15T08:19:07Z</time>
      </trkpt>
      <trkpt lat="42.879" lon="-0.18872">
        <ele>2174.4</ele>
        <time>2026-07-15T08:19:08Z</time>
      </trkpt>
      <trkpt lat="42.879" lon="-0.18871">
        <ele>2174.4</ele>
        <time>2026-07-15T08:19:09Z</time>
      </trkpt>
      <trkpt lat="42.879" lon="-0.18871">
        <ele>2175.4</ele>
        <time>2026-07-15T08:19:10Z</time>
      </trkpt>
      <trkpt lat="42.879" lon="-0.1887">
        <ele>2176.4</ele>
        <time>2026-07-15T08:19:11Z</time>
      </trkpt>
      <trkpt lat="42.879" lon="-0.1887">
        <ele>2176.4</ele>
        <time>2026-07-15T08:19:12Z</time>
      </trkpt>
      <trkpt lat="42.879" lon="-0.18869">
        <ele>2177.4</ele>
        <time>2026-07-15T08:19:13Z</time>
      </trkpt>
      <trkpt lat="42.879" lon="-0.18868">
        <ele>2176.4</ele>
        <time>2026-07-15T08:19:14Z</time>
      </trkpt>
      <trkpt lat="42.879" lon="-0.18867">
        <ele>2175.4</ele>
        <time>2026-07-15T08:19:15Z</time>
      </trkpt>
      <trkpt lat="42.879" lon="-0.18866">
        <ele>2175.4</ele>
        <time>2026-07-15T08:19:16Z</time>
      </trkpt>
      <trkpt lat="42.879" lon="-0.18866">
        <ele>2174.4</ele>
        <time>2026-07-15T08:19:16Z</time>
      </trkpt>
      <trkpt lat="42.879" lon="-0.18865">
        <ele>2174.4</ele>
        <time>2026-07-15T08:19:17Z</time>
      </trkpt>
      <trkpt lat="42.879" lon="-0.18865">
        <ele>2174.4</ele>
        <time>2026-07-15T08:19:17Z</time>
      </trkpt>
      <trkpt lat="42.879" lon="-0.18865">
        <ele>2174.4</ele>
        <time>2026-07-15T08:19:18Z</time>
      </trkpt>
      <trkpt lat="42.879" lon="-0.18864">
        <ele>2174.4</ele>
        <time>2026-07-15T08:19:19Z</time>
      </trkpt>
      <trkpt lat="42.879" lon="-0.18864">
        <ele>2174.4</ele>
        <time>2026-07-15T08:19:19Z</time>
      </trkpt>
      <trkpt lat="42.879" lon="-0.18864">
        <ele>2174.4</ele>
        <time>2026-07-15T08:19:20Z</time>
      </trkpt>
      <trkpt lat="42.879" lon="-0.18863">
        <ele>2175.4</ele>
        <time>2026-07-15T08:19:21Z</time>
      </trkpt>
      <trkpt lat="42.879" lon="-0.18862">
        <ele>2174.4</ele>
        <time>2026-07-15T08:19:22Z</time>
      </trkpt>
      <trkpt lat="42.879" lon="-0.18862">
        <ele>2174.4</ele>
        <time>2026-07-15T08:19:23Z</time>
      </trkpt>
      <trkpt lat="42.879" lon="-0.18861">
        <ele>2173.4</ele>
        <time>2026-07-15T08:19:24Z</time>
      </trkpt>
      <trkpt lat="42.87899" lon="-0.1886">
        <ele>2173.4</ele>
        <time>2026-07-15T08:19:25Z</time>
      </trkpt>
      <trkpt lat="42.87899" lon="-0.1886">
        <ele>2173.4</ele>
        <time>2026-07-15T08:19:25Z</time>
      </trkpt>
      <trkpt lat="42.87899" lon="-0.1886">
        <ele>2173.4</ele>
        <time>2026-07-15T08:19:26Z</time>
      </trkpt>
      <trkpt lat="42.87899" lon="-0.18859">
        <ele>2173.4</ele>
        <time>2026-07-15T08:19:26Z</time>
      </trkpt>
      <trkpt lat="42.87899" lon="-0.18859">
        <ele>2173.4</ele>
        <time>2026-07-15T08:19:27Z</time>
      </trkpt>
      <trkpt lat="42.87899" lon="-0.18858">
        <ele>2173.4</ele>
        <time>2026-07-15T08:19:28Z</time>
      </trkpt>
      <trkpt lat="42.87899" lon="-0.18857">
        <ele>2173.4</ele>
        <time>2026-07-15T08:19:29Z</time>
      </trkpt>
      <trkpt lat="42.87898" lon="-0.18857">
        <ele>2173.4</ele>
        <time>2026-07-15T08:19:30Z</time>
      </trkpt>
      <trkpt lat="42.87898" lon="-0.18857">
        <ele>2172.4</ele>
        <time>2026-07-15T08:19:31Z</time>
      </trkpt>
      <trkpt lat="42.87898" lon="-0.18856">
        <ele>2172.4</ele>
        <time>2026-07-15T08:19:32Z</time>
      </trkpt>
      <trkpt lat="42.87897" lon="-0.18856">
        <ele>2172.4</ele>
        <time>2026-07-15T08:19:33Z</time>
      </trkpt>
      <trkpt lat="42.87896" lon="-0.18856">
        <ele>2172.4</ele>
        <time>2026-07-15T08:19:33Z</time>
      </trkpt>
      <trkpt lat="42.87896" lon="-0.18855">
        <ele>2172.4</ele>
        <time>2026-07-15T08:19:34Z</time>
      </trkpt>
      <trkpt lat="42.87896" lon="-0.18855">
        <ele>2172.4</ele>
        <time>2026-07-15T08:19:35Z</time>
      </trkpt>
      <trkpt lat="42.87895" lon="-0.18855">
        <ele>2172.4</ele>
        <time>2026-07-15T08:19:36Z</time>
      </trkpt>
      <trkpt lat="42.87895" lon="-0.18854">
        <ele>2172.4</ele>
        <time>2026-07-15T08:19:37Z</time>
      </trkpt>
      <trkpt lat="42.87894" lon="-0.18854">
        <ele>2172.4</ele>
        <time>2026-07-15T08:19:38Z</time>
      </trkpt>
      <trkpt lat="42.87894" lon="-0.18853">
        <ele>2172.4</ele>
        <time>2026-07-15T08:19:39Z</time>
      </trkpt>
      <trkpt lat="42.87894" lon="-0.18853">
        <ele>2172.4</ele>
        <time>2026-07-15T08:19:40Z</time>
      </trkpt>
      <trkpt lat="42.87893" lon="-0.18853">
        <ele>2172.4</ele>
        <time>2026-07-15T08:19:41Z</time>
      </trkpt>
      <trkpt lat="42.87893" lon="-0.18853">
        <ele>2173.4</ele>
        <time>2026-07-15T08:19:42Z</time>
      </trkpt>
      <trkpt lat="42.87892" lon="-0.18853">
        <ele>2173.4</ele>
        <time>2026-07-15T08:19:42Z</time>
      </trkpt>
      <trkpt lat="42.87892" lon="-0.18853">
        <ele>2173.4</ele>
        <time>2026-07-15T08:19:43Z</time>
      </trkpt>
      <trkpt lat="42.87892" lon="-0.18853">
        <ele>2173.4</ele>
        <time>2026-07-15T08:19:44Z</time>
      </trkpt>
      <trkpt lat="42.87891" lon="-0.18853">
        <ele>2174.4</ele>
        <time>2026-07-15T08:19:45Z</time>
      </trkpt>
      <trkpt lat="42.87891" lon="-0.18853">
        <ele>2174.4</ele>
        <time>2026-07-15T08:19:46Z</time>
      </trkpt>
      <trkpt lat="42.8789" lon="-0.18853">
        <ele>2175.4</ele>
        <time>2026-07-15T08:19:47Z</time>
      </trkpt>
      <trkpt lat="42.8789" lon="-0.18853">
        <ele>2175.4</ele>
        <time>2026-07-15T08:19:48Z</time>
      </trkpt>
      <trkpt lat="42.87889" lon="-0.18853">
        <ele>2176.4</ele>
        <time>2026-07-15T08:19:49Z</time>
      </trkpt>
      <trkpt lat="42.87889" lon="-0.18853">
        <ele>2176.4</ele>
        <time>2026-07-15T08:19:50Z</time>
      </trkpt>
      <trkpt lat="42.87889" lon="-0.18852">
        <ele>2175.4</ele>
        <time>2026-07-15T08:19:51Z</time>
      </trkpt>
      <trkpt lat="42.87889" lon="-0.18852">
        <ele>2174.4</ele>
        <time>2026-07-15T08:19:52Z</time>
      </trkpt>
      <trkpt lat="42.87888" lon="-0.18852">
        <ele>2175.4</ele>
        <time>2026-07-15T08:19:53Z</time>
      </trkpt>
      <trkpt lat="42.87888" lon="-0.18851">
        <ele>2175.4</ele>
        <time>2026-07-15T08:19:54Z</time>
      </trkpt>
      <trkpt lat="42.87888" lon="-0.18851">
        <ele>2175.4</ele>
        <time>2026-07-15T08:19:54Z</time>
      </trkpt>
      <trkpt lat="42.87888" lon="-0.18851">
        <ele>2175.4</ele>
        <time>2026-07-15T08:19:55Z</time>
      </trkpt>
      <trkpt lat="42.87888" lon="-0.18851">
        <ele>2175.4</ele>
        <time>2026-07-15T08:19:56Z</time>
      </trkpt>
      <trkpt lat="42.87888" lon="-0.18851">
        <ele>2175.4</ele>
        <time>2026-07-15T08:19:56Z</time>
      </trkpt>
      <trkpt lat="42.87888" lon="-0.18851">
        <ele>2175.4</ele>
        <time>2026-07-15T08:19:57Z</time>
      </trkpt>
      <trkpt lat="42.87888" lon="-0.18851">
        <ele>2175.4</ele>
        <time>2026-07-15T08:19:58Z</time>
      </trkpt>
      <trkpt lat="42.87887" lon="-0.18851">
        <ele>2175.4</ele>
        <time>2026-07-15T08:19:59Z</time>
      </trkpt>
      <trkpt lat="42.87887" lon="-0.1885">
        <ele>2175.4</ele>
        <time>2026-07-15T08:20:00Z</time>
      </trkpt>
      <trkpt lat="42.87887" lon="-0.1885">
        <ele>2174.4</ele>
        <time>2026-07-15T08:20:01Z</time>
      </trkpt>
      <trkpt lat="42.87886" lon="-0.18849">
        <ele>2174.4</ele>
        <time>2026-07-15T08:20:02Z</time>
      </trkpt>
      <trkpt lat="42.87886" lon="-0.18849">
        <ele>2174.4</ele>
        <time>2026-07-15T08:20:03Z</time>
      </trkpt>
      <trkpt lat="42.87885" lon="-0.18849">
        <ele>2174.4</ele>
        <time>2026-07-15T08:20:04Z</time>
      </trkpt>
      <trkpt lat="42.87885" lon="-0.18848">
        <ele>2174.4</ele>
        <time>2026-07-15T08:20:05Z</time>
      </trkpt>
      <trkpt lat="42.87885" lon="-0.18848">
        <ele>2175.4</ele>
        <time>2026-07-15T08:20:05Z</time>
      </trkpt>
      <trkpt lat="42.87884" lon="-0.18847">
        <ele>2175.4</ele>
        <time>2026-07-15T08:20:06Z</time>
      </trkpt>
      <trkpt lat="42.87884" lon="-0.18847">
        <ele>2175.4</ele>
        <time>2026-07-15T08:20:07Z</time>
      </trkpt>
      <trkpt lat="42.87884" lon="-0.18847">
        <ele>2176.4</ele>
        <time>2026-07-15T08:20:07Z</time>
      </trkpt>
      <trkpt lat="42.87883" lon="-0.18846">
        <ele>2176.4</ele>
        <time>2026-07-15T08:20:08Z</time>
      </trkpt>
      <trkpt lat="42.87883" lon="-0.18846">
        <ele>2176.4</ele>
        <time>2026-07-15T08:20:09Z</time>
      </trkpt>
      <trkpt lat="42.87883" lon="-0.18846">
        <ele>2176.4</ele>
        <time>2026-07-15T08:20:10Z</time>
      </trkpt>
      <trkpt lat="42.87883" lon="-0.18846">
        <ele>2176.4</ele>
        <time>2026-07-15T08:20:11Z</time>
      </trkpt>
      <trkpt lat="42.87882" lon="-0.18846">
        <ele>2176.4</ele>
        <time>2026-07-15T08:20:12Z</time>
      </trkpt>
      <trkpt lat="42.87882" lon="-0.18845">
        <ele>2178.4</ele>
        <time>2026-07-15T08:20:12Z</time>
      </trkpt>
      <trkpt lat="42.87882" lon="-0.18845">
        <ele>2179.4</ele>
        <time>2026-07-15T08:20:13Z</time>
      </trkpt>
      <trkpt lat="42.87881" lon="-0.18844">
        <ele>2179.4</ele>
        <time>2026-07-15T08:20:14Z</time>
      </trkpt>
      <trkpt lat="42.87881" lon="-0.18844">
        <ele>2179.4</ele>
        <time>2026-07-15T08:20:15Z</time>
      </trkpt>
      <trkpt lat="42.87881" lon="-0.18844">
        <ele>2179.4</ele>
        <time>2026-07-15T08:20:16Z</time>
      </trkpt>
      <trkpt lat="42.8788" lon="-0.18844">
        <ele>2178.4</ele>
        <time>2026-07-15T08:20:17Z</time>
      </trkpt>
      <trkpt lat="42.87879" lon="-0.18844">
        <ele>2178.4</ele>
        <time>2026-07-15T08:20:18Z</time>
      </trkpt>
      <trkpt lat="42.87879" lon="-0.18844">
        <ele>2178.4</ele>
        <time>2026-07-15T08:20:19Z</time>
      </trkpt>
      <trkpt lat="42.87878" lon="-0.18844">
        <ele>2178.4</ele>
        <time>2026-07-15T08:20:20Z</time>
      </trkpt>
      <trkpt lat="42.87878" lon="-0.18844">
        <ele>2178.4</ele>
        <time>2026-07-15T08:20:21Z</time>
      </trkpt>
      <trkpt lat="42.87878" lon="-0.18844">
        <ele>2178.4</ele>
        <time>2026-07-15T08:20:21Z</time>
      </trkpt>
      <trkpt lat="42.87877" lon="-0.18844">
        <ele>2179.4</ele>
        <time>2026-07-15T08:20:22Z</time>
      </trkpt>
      <trkpt lat="42.87877" lon="-0.18844">
        <ele>2180.4</ele>
        <time>2026-07-15T08:20:23Z</time>
      </trkpt>
      <trkpt lat="42.87876" lon="-0.18843">
        <ele>2180.4</ele>
        <time>2026-07-15T08:20:24Z</time>
      </trkpt>
      <trkpt lat="42.87876" lon="-0.18843">
        <ele>2180.4</ele>
        <time>2026-07-15T08:20:25Z</time>
      </trkpt>
      <trkpt lat="42.87875" lon="-0.18843">
        <ele>2179.4</ele>
        <time>2026-07-15T08:20:26Z</time>
      </trkpt>
      <trkpt lat="42.87874" lon="-0.18843">
        <ele>2179.4</ele>
        <time>2026-07-15T08:20:27Z</time>
      </trkpt>
      <trkpt lat="42.87874" lon="-0.18843">
        <ele>2179.4</ele>
        <time>2026-07-15T08:20:27Z</time>
      </trkpt>
      <trkpt lat="42.87874" lon="-0.18844">
        <ele>2178.4</ele>
        <time>2026-07-15T08:20:28Z</time>
      </trkpt>
      <trkpt lat="42.87873" lon="-0.18844">
        <ele>2178.4</ele>
        <time>2026-07-15T08:20:29Z</time>
      </trkpt>
      <trkpt lat="42.87873" lon="-0.18845">
        <ele>2178.4</ele>
        <time>2026-07-15T08:20:30Z</time>
      </trkpt>
      <trkpt lat="42.87872" lon="-0.18845">
        <ele>2178.4</ele>
        <time>2026-07-15T08:20:31Z</time>
      </trkpt>
      <trkpt lat="42.87872" lon="-0.18845">
        <ele>2178.4</ele>
        <time>2026-07-15T08:20:32Z</time>
      </trkpt>
      <trkpt lat="42.87872" lon="-0.18845">
        <ele>2179.4</ele>
        <time>2026-07-15T08:20:33Z</time>
      </trkpt>
      <trkpt lat="42.87871" lon="-0.18845">
        <ele>2179.4</ele>
        <time>2026-07-15T08:20:34Z</time>
      </trkpt>
      <trkpt lat="42.87871" lon="-0.18845">
        <ele>2179.4</ele>
        <time>2026-07-15T08:20:35Z</time>
      </trkpt>
      <trkpt lat="42.8787" lon="-0.18845">
        <ele>2179.4</ele>
        <time>2026-07-15T08:20:35Z</time>
      </trkpt>
      <trkpt lat="42.8787" lon="-0.18845">
        <ele>2179.4</ele>
        <time>2026-07-15T08:20:36Z</time>
      </trkpt>
      <trkpt lat="42.8787" lon="-0.18845">
        <ele>2178.4</ele>
        <time>2026-07-15T08:20:36Z</time>
      </trkpt>
      <trkpt lat="42.8787" lon="-0.18844">
        <ele>2178.4</ele>
        <time>2026-07-15T08:20:37Z</time>
      </trkpt>
      <trkpt lat="42.87869" lon="-0.18844">
        <ele>2178.4</ele>
        <time>2026-07-15T08:20:38Z</time>
      </trkpt>
      <trkpt lat="42.87869" lon="-0.18844">
        <ele>2178.4</ele>
        <time>2026-07-15T08:20:39Z</time>
      </trkpt>
      <trkpt lat="42.87868" lon="-0.18844">
        <ele>2178.4</ele>
        <time>2026-07-15T08:20:40Z</time>
      </trkpt>
      <trkpt lat="42.87868" lon="-0.18844">
        <ele>2178.4</ele>
        <time>2026-07-15T08:20:41Z</time>
      </trkpt>
      <trkpt lat="42.87868" lon="-0.18844">
        <ele>2178.4</ele>
        <time>2026-07-15T08:20:42Z</time>
      </trkpt>
      <trkpt lat="42.87867" lon="-0.18844">
        <ele>2178.4</ele>
        <time>2026-07-15T08:20:43Z</time>
      </trkpt>
      <trkpt lat="42.87867" lon="-0.18844">
        <ele>2178.4</ele>
        <time>2026-07-15T08:20:43Z</time>
      </trkpt>
      <trkpt lat="42.87867" lon="-0.18844">
        <ele>2178.4</ele>
        <time>2026-07-15T08:20:44Z</time>
      </trkpt>
      <trkpt lat="42.87867" lon="-0.18844">
        <ele>2178.4</ele>
        <time>2026-07-15T08:20:44Z</time>
      </trkpt>
      <trkpt lat="42.87866" lon="-0.18844">
        <ele>2180.4</ele>
        <time>2026-07-15T08:20:45Z</time>
      </trkpt>
      <trkpt lat="42.87866" lon="-0.18844">
        <ele>2180.4</ele>
        <time>2026-07-15T08:20:46Z</time>
      </trkpt>
      <trkpt lat="42.87866" lon="-0.18844">
        <ele>2180.4</ele>
        <time>2026-07-15T08:20:47Z</time>
      </trkpt>
      <trkpt lat="42.87865" lon="-0.18843">
        <ele>2181.4</ele>
        <time>2026-07-15T08:20:48Z</time>
      </trkpt>
      <trkpt lat="42.87865" lon="-0.18843">
        <ele>2182.4</ele>
        <time>2026-07-15T08:20:49Z</time>
      </trkpt>
      <trkpt lat="42.87864" lon="-0.18843">
        <ele>2182.4</ele>
        <time>2026-07-15T08:20:50Z</time>
      </trkpt>
      <trkpt lat="42.87864" lon="-0.18843">
        <ele>2182.4</ele>
        <time>2026-07-15T08:20:51Z</time>
      </trkpt>
      <trkpt lat="42.87864" lon="-0.18844">
        <ele>2181.4</ele>
        <time>2026-07-15T08:20:52Z</time>
      </trkpt>
      <trkpt lat="42.87864" lon="-0.18844">
        <ele>2181.4</ele>
        <time>2026-07-15T08:20:53Z</time>
      </trkpt>
      <trkpt lat="42.87863" lon="-0.18844">
        <ele>2181.4</ele>
        <time>2026-07-15T08:20:54Z</time>
      </trkpt>
      <trkpt lat="42.87862" lon="-0.18844">
        <ele>2182.4</ele>
        <time>2026-07-15T08:20:55Z</time>
      </trkpt>
      <trkpt lat="42.87862" lon="-0.18844">
        <ele>2183.4</ele>
        <time>2026-07-15T08:20:56Z</time>
      </trkpt>
      <trkpt lat="42.87861" lon="-0.18844">
        <ele>2183.4</ele>
        <time>2026-07-15T08:20:57Z</time>
      </trkpt>
      <trkpt lat="42.87861" lon="-0.18843">
        <ele>2184.4</ele>
        <time>2026-07-15T08:20:57Z</time>
      </trkpt>
      <trkpt lat="42.87861" lon="-0.18843">
        <ele>2184.4</ele>
        <time>2026-07-15T08:20:58Z</time>
      </trkpt>
      <trkpt lat="42.87861" lon="-0.18843">
        <ele>2184.4</ele>
        <time>2026-07-15T08:20:58Z</time>
      </trkpt>
      <trkpt lat="42.8786" lon="-0.18844">
        <ele>2184.4</ele>
        <time>2026-07-15T08:20:59Z</time>
      </trkpt>
      <trkpt lat="42.8786" lon="-0.18843">
        <ele>2184.4</ele>
        <time>2026-07-15T08:21:00Z</time>
      </trkpt>
      <trkpt lat="42.87859" lon="-0.18843">
        <ele>2185.4</ele>
        <time>2026-07-15T08:21:01Z</time>
      </trkpt>
      <trkpt lat="42.87859" lon="-0.18843">
        <ele>2185.4</ele>
        <time>2026-07-15T08:21:01Z</time>
      </trkpt>
      <trkpt lat="42.87858" lon="-0.18843">
        <ele>2184.4</ele>
        <time>2026-07-15T08:21:02Z</time>
      </trkpt>
      <trkpt lat="42.87858" lon="-0.18843">
        <ele>2184.4</ele>
        <time>2026-07-15T08:21:03Z</time>
      </trkpt>
      <trkpt lat="42.87858" lon="-0.18843">
        <ele>2184.4</ele>
        <time>2026-07-15T08:21:03Z</time>
      </trkpt>
      <trkpt lat="42.87857" lon="-0.18843">
        <ele>2184.4</ele>
        <time>2026-07-15T08:21:04Z</time>
      </trkpt>
      <trkpt lat="42.87856" lon="-0.18843">
        <ele>2184.4</ele>
        <time>2026-07-15T08:21:05Z</time>
      </trkpt>
      <trkpt lat="42.87856" lon="-0.18843">
        <ele>2185.4</ele>
        <time>2026-07-15T08:21:06Z</time>
      </trkpt>
      <trkpt lat="42.87855" lon="-0.18843">
        <ele>2185.4</ele>
        <time>2026-07-15T08:21:07Z</time>
      </trkpt>
      <trkpt lat="42.87855" lon="-0.18843">
        <ele>2185.4</ele>
        <time>2026-07-15T08:21:08Z</time>
      </trkpt>
      <trkpt lat="42.87854" lon="-0.18843">
        <ele>2185.4</ele>
        <time>2026-07-15T08:21:09Z</time>
      </trkpt>
      <trkpt lat="42.87854" lon="-0.18843">
        <ele>2185.4</ele>
        <time>2026-07-15T08:21:10Z</time>
      </trkpt>
      <trkpt lat="42.87853" lon="-0.18843">
        <ele>2185.4</ele>
        <time>2026-07-15T08:21:11Z</time>
      </trkpt>
      <trkpt lat="42.87853" lon="-0.18843">
        <ele>2186.4</ele>
        <time>2026-07-15T08:21:12Z</time>
      </trkpt>
      <trkpt lat="42.87853" lon="-0.18842">
        <ele>2186.4</ele>
        <time>2026-07-15T08:21:13Z</time>
      </trkpt>
      <trkpt lat="42.87852" lon="-0.18842">
        <ele>2186.4</ele>
        <time>2026-07-15T08:21:14Z</time>
      </trkpt>
      <trkpt lat="42.87852" lon="-0.18842">
        <ele>2186.4</ele>
        <time>2026-07-15T08:21:15Z</time>
      </trkpt>
      <trkpt lat="42.87852" lon="-0.18842">
        <ele>2186.4</ele>
        <time>2026-07-15T08:21:16Z</time>
      </trkpt>
      <trkpt lat="42.87851" lon="-0.18841">
        <ele>2186.4</ele>
        <time>2026-07-15T08:21:17Z</time>
      </trkpt>
      <trkpt lat="42.87851" lon="-0.18841">
        <ele>2186.4</ele>
        <time>2026-07-15T08:21:18Z</time>
      </trkpt>
      <trkpt lat="42.8785" lon="-0.18841">
        <ele>2186.4</ele>
        <time>2026-07-15T08:21:19Z</time>
      </trkpt>
      <trkpt lat="42.8785" lon="-0.18841">
        <ele>2186.4</ele>
        <time>2026-07-15T08:21:20Z</time>
      </trkpt>
      <trkpt lat="42.8785" lon="-0.18841">
        <ele>2186.4</ele>
        <time>2026-07-15T08:21:21Z</time>
      </trkpt>
      <trkpt lat="42.87849" lon="-0.18841">
        <ele>2186.4</ele>
        <time>2026-07-15T08:21:22Z</time>
      </trkpt>
      <trkpt lat="42.87849" lon="-0.18841">
        <ele>2186.4</ele>
        <time>2026-07-15T08:21:22Z</time>
      </trkpt>
      <trkpt lat="42.87849" lon="-0.1884">
        <ele>2186.4</ele>
        <time>2026-07-15T08:21:23Z</time>
      </trkpt>
      <trkpt lat="42.87849" lon="-0.1884">
        <ele>2187.4</ele>
        <time>2026-07-15T08:21:23Z</time>
      </trkpt>
      <trkpt lat="42.87848" lon="-0.1884">
        <ele>2187.4</ele>
        <time>2026-07-15T08:21:24Z</time>
      </trkpt>
      <trkpt lat="42.87848" lon="-0.18839">
        <ele>2187.4</ele>
        <time>2026-07-15T08:21:24Z</time>
      </trkpt>
      <trkpt lat="42.87848" lon="-0.18839">
        <ele>2187.4</ele>
        <time>2026-07-15T08:21:25Z</time>
      </trkpt>
      <trkpt lat="42.87847" lon="-0.18839">
        <ele>2188.4</ele>
        <time>2026-07-15T08:21:25Z</time>
      </trkpt>
      <trkpt lat="42.87847" lon="-0.18839">
        <ele>2188.4</ele>
        <time>2026-07-15T08:21:26Z</time>
      </trkpt>
      <trkpt lat="42.87847" lon="-0.18838">
        <ele>2188.4</ele>
        <time>2026-07-15T08:21:26Z</time>
      </trkpt>
      <trkpt lat="42.87847" lon="-0.18838">
        <ele>2188.4</ele>
        <time>2026-07-15T08:21:27Z</time>
      </trkpt>
      <trkpt lat="42.87847" lon="-0.18838">
        <ele>2189.4</ele>
        <time>2026-07-15T08:21:27Z</time>
      </trkpt>
      <trkpt lat="42.87846" lon="-0.18838">
        <ele>2190.4</ele>
        <time>2026-07-15T08:21:28Z</time>
      </trkpt>
      <trkpt lat="42.87846" lon="-0.18838">
        <ele>2190.4</ele>
        <time>2026-07-15T08:21:29Z</time>
      </trkpt>
      <trkpt lat="42.87846" lon="-0.18838">
        <ele>2190.4</ele>
        <time>2026-07-15T08:21:30Z</time>
      </trkpt>
      <trkpt lat="42.87845" lon="-0.18838">
        <ele>2190.4</ele>
        <time>2026-07-15T08:21:31Z</time>
      </trkpt>
      <trkpt lat="42.87845" lon="-0.18838">
        <ele>2190.4</ele>
        <time>2026-07-15T08:21:32Z</time>
      </trkpt>
      <trkpt lat="42.87845" lon="-0.18838">
        <ele>2190.4</ele>
        <time>2026-07-15T08:21:33Z</time>
      </trkpt>
      <trkpt lat="42.87845" lon="-0.18838">
        <ele>2190.4</ele>
        <time>2026-07-15T08:21:34Z</time>
      </trkpt>
      <trkpt lat="42.87844" lon="-0.18838">
        <ele>2189.4</ele>
        <time>2026-07-15T08:21:35Z</time>
      </trkpt>
      <trkpt lat="42.87844" lon="-0.18837">
        <ele>2190.4</ele>
        <time>2026-07-15T08:21:36Z</time>
      </trkpt>
      <trkpt lat="42.87844" lon="-0.18837">
        <ele>2191.4</ele>
        <time>2026-07-15T08:21:37Z</time>
      </trkpt>
      <trkpt lat="42.87843" lon="-0.18837">
        <ele>2190.4</ele>
        <time>2026-07-15T08:21:38Z</time>
      </trkpt>
      <trkpt lat="42.87843" lon="-0.18836">
        <ele>2191.4</ele>
        <time>2026-07-15T08:21:39Z</time>
      </trkpt>
      <trkpt lat="42.87843" lon="-0.18836">
        <ele>2191.4</ele>
        <time>2026-07-15T08:21:40Z</time>
      </trkpt>
      <trkpt lat="42.87843" lon="-0.18835">
        <ele>2191.4</ele>
        <time>2026-07-15T08:21:41Z</time>
      </trkpt>
      <trkpt lat="42.87843" lon="-0.18835">
        <ele>2193.4</ele>
        <time>2026-07-15T08:21:42Z</time>
      </trkpt>
      <trkpt lat="42.87843" lon="-0.18834">
        <ele>2192.4</ele>
        <time>2026-07-15T08:21:42Z</time>
      </trkpt>
      <trkpt lat="42.87843" lon="-0.18834">
        <ele>2192.4</ele>
        <time>2026-07-15T08:21:43Z</time>
      </trkpt>
      <trkpt lat="42.87842" lon="-0.18834">
        <ele>2193.4</ele>
        <time>2026-07-15T08:21:44Z</time>
      </trkpt>
      <trkpt lat="42.87843" lon="-0.18834">
        <ele>2192.4</ele>
        <time>2026-07-15T08:21:45Z</time>
      </trkpt>
      <trkpt lat="42.87842" lon="-0.18833">
        <ele>2192.4</ele>
        <time>2026-07-15T08:21:45Z</time>
      </trkpt>
      <trkpt lat="42.87842" lon="-0.18833">
        <ele>2193.4</ele>
        <time>2026-07-15T08:21:46Z</time>
      </trkpt>
      <trkpt lat="42.87843" lon="-0.18833">
        <ele>2194.4</ele>
        <time>2026-07-15T08:21:47Z</time>
      </trkpt>
      <trkpt lat="42.87843" lon="-0.18832">
        <ele>2194.4</ele>
        <time>2026-07-15T08:21:48Z</time>
      </trkpt>
      <trkpt lat="42.87843" lon="-0.18832">
        <ele>2195.4</ele>
        <time>2026-07-15T08:21:49Z</time>
      </trkpt>
      <trkpt lat="42.87843" lon="-0.18832">
        <ele>2195.4</ele>
        <time>2026-07-15T08:21:50Z</time>
      </trkpt>
      <trkpt lat="42.87843" lon="-0.18831">
        <ele>2195.4</ele>
        <time>2026-07-15T08:21:51Z</time>
      </trkpt>
      <trkpt lat="42.87843" lon="-0.18831">
        <ele>2196.4</ele>
        <time>2026-07-15T08:21:52Z</time>
      </trkpt>
      <trkpt lat="42.87843" lon="-0.18831">
        <ele>2195.4</ele>
        <time>2026-07-15T08:21:53Z</time>
      </trkpt>
      <trkpt lat="42.87843" lon="-0.1883">
        <ele>2196.4</ele>
        <time>2026-07-15T08:21:54Z</time>
      </trkpt>
      <trkpt lat="42.87843" lon="-0.18829">
        <ele>2196.4</ele>
        <time>2026-07-15T08:21:55Z</time>
      </trkpt>
      <trkpt lat="42.87843" lon="-0.18828">
        <ele>2198.4</ele>
        <time>2026-07-15T08:21:56Z</time>
      </trkpt>
      <trkpt lat="42.87843" lon="-0.18827">
        <ele>2198.4</ele>
        <time>2026-07-15T08:21:57Z</time>
      </trkpt>
      <trkpt lat="42.87843" lon="-0.18827">
        <ele>2198.4</ele>
        <time>2026-07-15T08:21:58Z</time>
      </trkpt>
      <trkpt lat="42.87844" lon="-0.18826">
        <ele>2198.4</ele>
        <time>2026-07-15T08:21:59Z</time>
      </trkpt>
      <trkpt lat="42.87844" lon="-0.18825">
        <ele>2197.4</ele>
        <time>2026-07-15T08:22:00Z</time>
      </trkpt>
      <trkpt lat="42.87844" lon="-0.18825">
        <ele>2198.4</ele>
        <time>2026-07-15T08:22:01Z</time>
      </trkpt>
      <trkpt lat="42.87844" lon="-0.18825">
        <ele>2198.4</ele>
        <time>2026-07-15T08:22:01Z</time>
      </trkpt>
      <trkpt lat="42.87844" lon="-0.18824">
        <ele>2198.4</ele>
        <time>2026-07-15T08:22:02Z</time>
      </trkpt>
      <trkpt lat="42.87844" lon="-0.18824">
        <ele>2198.4</ele>
        <time>2026-07-15T08:22:02Z</time>
      </trkpt>
      <trkpt lat="42.87845" lon="-0.18824">
        <ele>2198.4</ele>
        <time>2026-07-15T08:22:03Z</time>
      </trkpt>
      <trkpt lat="42.87845" lon="-0.18823">
        <ele>2199.4</ele>
        <time>2026-07-15T08:22:04Z</time>
      </trkpt>
      <trkpt lat="42.87845" lon="-0.18822">
        <ele>2199.4</ele>
        <time>2026-07-15T08:22:05Z</time>
      </trkpt>
      <trkpt lat="42.87845" lon="-0.18822">
        <ele>2199.4</ele>
        <time>2026-07-15T08:22:06Z</time>
      </trkpt>
      <trkpt lat="42.87845" lon="-0.18821">
        <ele>2198.4</ele>
        <time>2026-07-15T08:22:07Z</time>
      </trkpt>
      <trkpt lat="42.87845" lon="-0.1882">
        <ele>2199.4</ele>
        <time>2026-07-15T08:22:08Z</time>
      </trkpt>
      <trkpt lat="42.87845" lon="-0.18819">
        <ele>2199.4</ele>
        <time>2026-07-15T08:22:09Z</time>
      </trkpt>
      <trkpt lat="42.87846" lon="-0.18818">
        <ele>2199.4</ele>
        <time>2026-07-15T08:22:10Z</time>
      </trkpt>
      <trkpt lat="42.87846" lon="-0.18817">
        <ele>2199.4</ele>
        <time>2026-07-15T08:22:11Z</time>
      </trkpt>
      <trkpt lat="42.87846" lon="-0.18817">
        <ele>2199.4</ele>
        <time>2026-07-15T08:22:12Z</time>
      </trkpt>
      <trkpt lat="42.87846" lon="-0.18816">
        <ele>2199.4</ele>
        <time>2026-07-15T08:22:13Z</time>
      </trkpt>
      <trkpt lat="42.87847" lon="-0.18816">
        <ele>2199.4</ele>
        <time>2026-07-15T08:22:14Z</time>
      </trkpt>
      <trkpt lat="42.87847" lon="-0.18816">
        <ele>2199.4</ele>
        <time>2026-07-15T08:22:14Z</time>
      </trkpt>
      <trkpt lat="42.87847" lon="-0.18815">
        <ele>2199.4</ele>
        <time>2026-07-15T08:22:15Z</time>
      </trkpt>
      <trkpt lat="42.87847" lon="-0.18815">
        <ele>2199.4</ele>
        <time>2026-07-15T08:22:15Z</time>
      </trkpt>
      <trkpt lat="42.87848" lon="-0.18814">
        <ele>2199.4</ele>
        <time>2026-07-15T08:22:16Z</time>
      </trkpt>
      <trkpt lat="42.87848" lon="-0.18813">
        <ele>2199.4</ele>
        <time>2026-07-15T08:22:17Z</time>
      </trkpt>
      <trkpt lat="42.87848" lon="-0.18813">
        <ele>2199.4</ele>
        <time>2026-07-15T08:22:18Z</time>
      </trkpt>
      <trkpt lat="42.87848" lon="-0.18813">
        <ele>2200.4</ele>
        <time>2026-07-15T08:22:19Z</time>
      </trkpt>
      <trkpt lat="42.87848" lon="-0.18812">
        <ele>2200.4</ele>
        <time>2026-07-15T08:22:20Z</time>
      </trkpt>
      <trkpt lat="42.87848" lon="-0.18812">
        <ele>2200.4</ele>
        <time>2026-07-15T08:22:21Z</time>
      </trkpt>
      <trkpt lat="42.87849" lon="-0.18811">
        <ele>2200.4</ele>
        <time>2026-07-15T08:22:22Z</time>
      </trkpt>
      <trkpt lat="42.87849" lon="-0.18811">
        <ele>2200.4</ele>
        <time>2026-07-15T08:22:23Z</time>
      </trkpt>
      <trkpt lat="42.87849" lon="-0.1881">
        <ele>2200.4</ele>
        <time>2026-07-15T08:22:23Z</time>
      </trkpt>
      <trkpt lat="42.87849" lon="-0.1881">
        <ele>2200.4</ele>
        <time>2026-07-15T08:22:24Z</time>
      </trkpt>
      <trkpt lat="42.8785" lon="-0.18809">
        <ele>2199.4</ele>
        <time>2026-07-15T08:22:25Z</time>
      </trkpt>
      <trkpt lat="42.8785" lon="-0.18809">
        <ele>2200.4</ele>
        <time>2026-07-15T08:22:26Z</time>
      </trkpt>
      <trkpt lat="42.8785" lon="-0.18808">
        <ele>2201.4</ele>
        <time>2026-07-15T08:22:27Z</time>
      </trkpt>
      <trkpt lat="42.8785" lon="-0.18808">
        <ele>2202.4</ele>
        <time>2026-07-15T08:22:27Z</time>
      </trkpt>
      <trkpt lat="42.8785" lon="-0.18807">
        <ele>2203.4</ele>
        <time>2026-07-15T08:22:28Z</time>
      </trkpt>
      <trkpt lat="42.8785" lon="-0.18807">
        <ele>2203.4</ele>
        <time>2026-07-15T08:22:29Z</time>
      </trkpt>
      <trkpt lat="42.8785" lon="-0.18807">
        <ele>2204.4</ele>
        <time>2026-07-15T08:22:29Z</time>
      </trkpt>
      <trkpt lat="42.8785" lon="-0.18806">
        <ele>2204.4</ele>
        <time>2026-07-15T08:22:30Z</time>
      </trkpt>
      <trkpt lat="42.8785" lon="-0.18806">
        <ele>2205.4</ele>
        <time>2026-07-15T08:22:30Z</time>
      </trkpt>
      <trkpt lat="42.87849" lon="-0.18806">
        <ele>2205.4</ele>
        <time>2026-07-15T08:22:31Z</time>
      </trkpt>
      <trkpt lat="42.87849" lon="-0.18806">
        <ele>2205.4</ele>
        <time>2026-07-15T08:22:32Z</time>
      </trkpt>
      <trkpt lat="42.87849" lon="-0.18806">
        <ele>2204.4</ele>
        <time>2026-07-15T08:22:33Z</time>
      </trkpt>
      <trkpt lat="42.87849" lon="-0.18806">
        <ele>2205.4</ele>
        <time>2026-07-15T08:22:34Z</time>
      </trkpt>
      <trkpt lat="42.87848" lon="-0.18806">
        <ele>2205.4</ele>
        <time>2026-07-15T08:22:35Z</time>
      </trkpt>
      <trkpt lat="42.87848" lon="-0.18806">
        <ele>2205.4</ele>
        <time>2026-07-15T08:22:36Z</time>
      </trkpt>
      <trkpt lat="42.87848" lon="-0.18806">
        <ele>2205.4</ele>
        <time>2026-07-15T08:22:37Z</time>
      </trkpt>
      <trkpt lat="42.87847" lon="-0.18805">
        <ele>2204.4</ele>
        <time>2026-07-15T08:22:38Z</time>
      </trkpt>
      <trkpt lat="42.87847" lon="-0.18805">
        <ele>2205.4</ele>
        <time>2026-07-15T08:22:39Z</time>
      </trkpt>
      <trkpt lat="42.87848" lon="-0.18804">
        <ele>2205.4</ele>
        <time>2026-07-15T08:22:40Z</time>
      </trkpt>
      <trkpt lat="42.87848" lon="-0.18804">
        <ele>2204.4</ele>
        <time>2026-07-15T08:22:40Z</time>
      </trkpt>
      <trkpt lat="42.87848" lon="-0.18804">
        <ele>2204.4</ele>
        <time>2026-07-15T08:22:41Z</time>
      </trkpt>
      <trkpt lat="42.87849" lon="-0.18804">
        <ele>2204.4</ele>
        <time>2026-07-15T08:22:41Z</time>
      </trkpt>
      <trkpt lat="42.87849" lon="-0.18803">
        <ele>2205.4</ele>
        <time>2026-07-15T08:22:42Z</time>
      </trkpt>
      <trkpt lat="42.8785" lon="-0.18803">
        <ele>2205.4</ele>
        <time>2026-07-15T08:22:43Z</time>
      </trkpt>
      <trkpt lat="42.8785" lon="-0.18802">
        <ele>2205.4</ele>
        <time>2026-07-15T08:22:44Z</time>
      </trkpt>
      <trkpt lat="42.87851" lon="-0.18802">
        <ele>2205.4</ele>
        <time>2026-07-15T08:22:45Z</time>
      </trkpt>
      <trkpt lat="42.87851" lon="-0.18801">
        <ele>2205.4</ele>
        <time>2026-07-15T08:22:45Z</time>
      </trkpt>
      <trkpt lat="42.87852" lon="-0.18801">
        <ele>2204.4</ele>
        <time>2026-07-15T08:22:46Z</time>
      </trkpt>
      <trkpt lat="42.87852" lon="-0.18801">
        <ele>2205.4</ele>
        <time>2026-07-15T08:22:47Z</time>
      </trkpt>
      <trkpt lat="42.87852" lon="-0.188">
        <ele>2205.4</ele>
        <time>2026-07-15T08:22:48Z</time>
      </trkpt>
      <trkpt lat="42.87852" lon="-0.188">
        <ele>2206.4</ele>
        <time>2026-07-15T08:22:48Z</time>
      </trkpt>
      <trkpt lat="42.87852" lon="-0.188">
        <ele>2207.4</ele>
        <time>2026-07-15T08:22:49Z</time>
      </trkpt>
      <trkpt lat="42.87852" lon="-0.188">
        <ele>2207.4</ele>
        <time>2026-07-15T08:22:50Z</time>
      </trkpt>
      <trkpt lat="42.87852" lon="-0.18799">
        <ele>2207.4</ele>
        <time>2026-07-15T08:22:51Z</time>
      </trkpt>
      <trkpt lat="42.87852" lon="-0.18799">
        <ele>2209.4</ele>
        <time>2026-07-15T08:22:52Z</time>
      </trkpt>
      <trkpt lat="42.87852" lon="-0.18798">
        <ele>2209.4</ele>
        <time>2026-07-15T08:22:53Z</time>
      </trkpt>
      <trkpt lat="42.87852" lon="-0.18798">
        <ele>2209.4</ele>
        <time>2026-07-15T08:22:54Z</time>
      </trkpt>
      <trkpt lat="42.87852" lon="-0.18798">
        <ele>2209.4</ele>
        <time>2026-07-15T08:22:55Z</time>
      </trkpt>
      <trkpt lat="42.87852" lon="-0.18797">
        <ele>2209.4</ele>
        <time>2026-07-15T08:22:55Z</time>
      </trkpt>
      <trkpt lat="42.87851" lon="-0.18797">
        <ele>2209.4</ele>
        <time>2026-07-15T08:22:56Z</time>
      </trkpt>
      <trkpt lat="42.87851" lon="-0.18797">
        <ele>2209.4</ele>
        <time>2026-07-15T08:22:56Z</time>
      </trkpt>
      <trkpt lat="42.87851" lon="-0.18797">
        <ele>2209.4</ele>
        <time>2026-07-15T08:22:57Z</time>
      </trkpt>
      <trkpt lat="42.87851" lon="-0.18797">
        <ele>2210.4</ele>
        <time>2026-07-15T08:22:57Z</time>
      </trkpt>
      <trkpt lat="42.87851" lon="-0.18796">
        <ele>2210.4</ele>
        <time>2026-07-15T08:22:58Z</time>
      </trkpt>
      <trkpt lat="42.87851" lon="-0.18796">
        <ele>2209.4</ele>
        <time>2026-07-15T08:22:59Z</time>
      </trkpt>
      <trkpt lat="42.87851" lon="-0.18795">
        <ele>2209.4</ele>
        <time>2026-07-15T08:23:00Z</time>
      </trkpt>
      <trkpt lat="42.8785" lon="-0.18795">
        <ele>2209.4</ele>
        <time>2026-07-15T08:23:01Z</time>
      </trkpt>
      <trkpt lat="42.8785" lon="-0.18795">
        <ele>2209.4</ele>
        <time>2026-07-15T08:23:02Z</time>
      </trkpt>
      <trkpt lat="42.87849" lon="-0.18795">
        <ele>2209.4</ele>
        <time>2026-07-15T08:23:03Z</time>
      </trkpt>
      <trkpt lat="42.87849" lon="-0.18795">
        <ele>2208.4</ele>
        <time>2026-07-15T08:23:04Z</time>
      </trkpt>
      <trkpt lat="42.87849" lon="-0.18795">
        <ele>2208.4</ele>
        <time>2026-07-15T08:23:05Z</time>
      </trkpt>
      <trkpt lat="42.87848" lon="-0.18795">
        <ele>2208.4</ele>
        <time>2026-07-15T08:23:06Z</time>
      </trkpt>
      <trkpt lat="42.87847" lon="-0.18795">
        <ele>2207.4</ele>
        <time>2026-07-15T08:23:07Z</time>
      </trkpt>
      <trkpt lat="42.87847" lon="-0.18795">
        <ele>2207.4</ele>
        <time>2026-07-15T08:23:07Z</time>
      </trkpt>
      <trkpt lat="42.87846" lon="-0.18795">
        <ele>2207.4</ele>
        <time>2026-07-15T08:23:08Z</time>
      </trkpt>
      <trkpt lat="42.87846" lon="-0.18795">
        <ele>2206.4</ele>
        <time>2026-07-15T08:23:09Z</time>
      </trkpt>
      <trkpt lat="42.87846" lon="-0.18795">
        <ele>2206.4</ele>
        <time>2026-07-15T08:23:10Z</time>
      </trkpt>
      <trkpt lat="42.87845" lon="-0.18795">
        <ele>2206.4</ele>
        <time>2026-07-15T08:23:11Z</time>
      </trkpt>
      <trkpt lat="42.87845" lon="-0.18794">
        <ele>2205.4</ele>
        <time>2026-07-15T08:23:12Z</time>
      </trkpt>
      <trkpt lat="42.87844" lon="-0.18794">
        <ele>2205.4</ele>
        <time>2026-07-15T08:23:13Z</time>
      </trkpt>
      <trkpt lat="42.87844" lon="-0.18794">
        <ele>2205.4</ele>
        <time>2026-07-15T08:23:14Z</time>
      </trkpt>
      <trkpt lat="42.87844" lon="-0.18794">
        <ele>2206.4</ele>
        <time>2026-07-15T08:23:15Z</time>
      </trkpt>
      <trkpt lat="42.87843" lon="-0.18794">
        <ele>2206.4</ele>
        <time>2026-07-15T08:23:16Z</time>
      </trkpt>
      <trkpt lat="42.87843" lon="-0.18794">
        <ele>2206.4</ele>
        <time>2026-07-15T08:23:17Z</time>
      </trkpt>
      <trkpt lat="42.87842" lon="-0.18793">
        <ele>2206.4</ele>
        <time>2026-07-15T08:23:18Z</time>
      </trkpt>
      <trkpt lat="42.87842" lon="-0.18793">
        <ele>2205.4</ele>
        <time>2026-07-15T08:23:19Z</time>
      </trkpt>
      <trkpt lat="42.87842" lon="-0.18792">
        <ele>2205.4</ele>
        <time>2026-07-15T08:23:20Z</time>
      </trkpt>
      <trkpt lat="42.87842" lon="-0.18792">
        <ele>2205.4</ele>
        <time>2026-07-15T08:23:21Z</time>
      </trkpt>
      <trkpt lat="42.87842" lon="-0.18791">
        <ele>2205.4</ele>
        <time>2026-07-15T08:23:22Z</time>
      </trkpt>
      <trkpt lat="42.87842" lon="-0.18791">
        <ele>2204.4</ele>
        <time>2026-07-15T08:23:23Z</time>
      </trkpt>
      <trkpt lat="42.87842" lon="-0.1879">
        <ele>2204.4</ele>
        <time>2026-07-15T08:23:24Z</time>
      </trkpt>
      <trkpt lat="42.87841" lon="-0.1879">
        <ele>2205.4</ele>
        <time>2026-07-15T08:23:25Z</time>
      </trkpt>
      <trkpt lat="42.87841" lon="-0.1879">
        <ele>2205.4</ele>
        <time>2026-07-15T08:23:26Z</time>
      </trkpt>
      <trkpt lat="42.87841" lon="-0.18789">
        <ele>2205.4</ele>
        <time>2026-07-15T08:23:27Z</time>
      </trkpt>
      <trkpt lat="42.87841" lon="-0.18789">
        <ele>2205.4</ele>
        <time>2026-07-15T08:23:28Z</time>
      </trkpt>
      <trkpt lat="42.87841" lon="-0.18789">
        <ele>2205.4</ele>
        <time>2026-07-15T08:23:29Z</time>
      </trkpt>
      <trkpt lat="42.87841" lon="-0.18789">
        <ele>2205.4</ele>
        <time>2026-07-15T08:23:30Z</time>
      </trkpt>
      <trkpt lat="42.87841" lon="-0.18789">
        <ele>2205.4</ele>
        <time>2026-07-15T08:23:31Z</time>
      </trkpt>
      <trkpt lat="42.87841" lon="-0.18789">
        <ele>2205.4</ele>
        <time>2026-07-15T08:23:32Z</time>
      </trkpt>
      <trkpt lat="42.8784" lon="-0.18788">
        <ele>2206.4</ele>
        <time>2026-07-15T08:23:33Z</time>
      </trkpt>
      <trkpt lat="42.8784" lon="-0.18788">
        <ele>2206.4</ele>
        <time>2026-07-15T08:23:33Z</time>
      </trkpt>
      <trkpt lat="42.8784" lon="-0.18788">
        <ele>2206.4</ele>
        <time>2026-07-15T08:23:34Z</time>
      </trkpt>
      <trkpt lat="42.8784" lon="-0.18788">
        <ele>2207.4</ele>
        <time>2026-07-15T08:23:34Z</time>
      </trkpt>
      <trkpt lat="42.87839" lon="-0.18787">
        <ele>2207.4</ele>
        <time>2026-07-15T08:23:35Z</time>
      </trkpt>
      <trkpt lat="42.87839" lon="-0.18787">
        <ele>2207.4</ele>
        <time>2026-07-15T08:23:36Z</time>
      </trkpt>
      <trkpt lat="42.87839" lon="-0.18786">
        <ele>2207.4</ele>
        <time>2026-07-15T08:23:37Z</time>
      </trkpt>
      <trkpt lat="42.87839" lon="-0.18786">
        <ele>2207.4</ele>
        <time>2026-07-15T08:23:38Z</time>
      </trkpt>
      <trkpt lat="42.87839" lon="-0.18786">
        <ele>2207.4</ele>
        <time>2026-07-15T08:23:38Z</time>
      </trkpt>
      <trkpt lat="42.87838" lon="-0.18786">
        <ele>2207.4</ele>
        <time>2026-07-15T08:23:39Z</time>
      </trkpt>
      <trkpt lat="42.87838" lon="-0.18786">
        <ele>2206.4</ele>
        <time>2026-07-15T08:23:39Z</time>
      </trkpt>
      <trkpt lat="42.87838" lon="-0.18786">
        <ele>2206.4</ele>
        <time>2026-07-15T08:23:40Z</time>
      </trkpt>
      <trkpt lat="42.87838" lon="-0.18786">
        <ele>2206.4</ele>
        <time>2026-07-15T08:23:40Z</time>
      </trkpt>
      <trkpt lat="42.87838" lon="-0.18786">
        <ele>2206.4</ele>
        <time>2026-07-15T08:23:41Z</time>
      </trkpt>
      <trkpt lat="42.87837" lon="-0.18786">
        <ele>2207.4</ele>
        <time>2026-07-15T08:23:41Z</time>
      </trkpt>
      <trkpt lat="42.87837" lon="-0.18786">
        <ele>2207.4</ele>
        <time>2026-07-15T08:23:42Z</time>
      </trkpt>
      <trkpt lat="42.87836" lon="-0.18786">
        <ele>2207.4</ele>
        <time>2026-07-15T08:23:43Z</time>
      </trkpt>
      <trkpt lat="42.87836" lon="-0.18786">
        <ele>2207.4</ele>
        <time>2026-07-15T08:23:43Z</time>
      </trkpt>
      <trkpt lat="42.87836" lon="-0.18786">
        <ele>2207.4</ele>
        <time>2026-07-15T08:23:44Z</time>
      </trkpt>
      <trkpt lat="42.87836" lon="-0.18786">
        <ele>2207.4</ele>
        <time>2026-07-15T08:23:44Z</time>
      </trkpt>
      <trkpt lat="42.87836" lon="-0.18785">
        <ele>2207.4</ele>
        <time>2026-07-15T08:23:45Z</time>
      </trkpt>
      <trkpt lat="42.87835" lon="-0.18785">
        <ele>2207.4</ele>
        <time>2026-07-15T08:23:46Z</time>
      </trkpt>
      <trkpt lat="42.87835" lon="-0.18785">
        <ele>2206.4</ele>
        <time>2026-07-15T08:23:47Z</time>
      </trkpt>
      <trkpt lat="42.87834" lon="-0.18785">
        <ele>2207.4</ele>
        <time>2026-07-15T08:23:48Z</time>
      </trkpt>
      <trkpt lat="42.87834" lon="-0.18784">
        <ele>2208.4</ele>
        <time>2026-07-15T08:23:49Z</time>
      </trkpt>
      <trkpt lat="42.87833" lon="-0.18784">
        <ele>2208.4</ele>
        <time>2026-07-15T08:23:50Z</time>
      </trkpt>
      <trkpt lat="42.87833" lon="-0.18784">
        <ele>2208.4</ele>
        <time>2026-07-15T08:23:51Z</time>
      </trkpt>
      <trkpt lat="42.87832" lon="-0.18784">
        <ele>2208.4</ele>
        <time>2026-07-15T08:23:52Z</time>
      </trkpt>
      <trkpt lat="42.87832" lon="-0.18784">
        <ele>2208.4</ele>
        <time>2026-07-15T08:23:53Z</time>
      </trkpt>
      <trkpt lat="42.87831" lon="-0.18784">
        <ele>2208.4</ele>
        <time>2026-07-15T08:23:54Z</time>
      </trkpt>
      <trkpt lat="42.87831" lon="-0.18784">
        <ele>2208.4</ele>
        <time>2026-07-15T08:23:55Z</time>
      </trkpt>
      <trkpt lat="42.8783" lon="-0.18784">
        <ele>2208.4</ele>
        <time>2026-07-15T08:23:56Z</time>
      </trkpt>
      <trkpt lat="42.8783" lon="-0.18784">
        <ele>2208.4</ele>
        <time>2026-07-15T08:23:56Z</time>
      </trkpt>
      <trkpt lat="42.8783" lon="-0.18784">
        <ele>2208.4</ele>
        <time>2026-07-15T08:23:57Z</time>
      </trkpt>
      <trkpt lat="42.87829" lon="-0.18784">
        <ele>2208.4</ele>
        <time>2026-07-15T08:23:58Z</time>
      </trkpt>
      <trkpt lat="42.87829" lon="-0.18784">
        <ele>2209.4</ele>
        <time>2026-07-15T08:23:59Z</time>
      </trkpt>
      <trkpt lat="42.87829" lon="-0.18784">
        <ele>2210.4</ele>
        <time>2026-07-15T08:24:00Z</time>
      </trkpt>
      <trkpt lat="42.87829" lon="-0.18784">
        <ele>2210.4</ele>
        <time>2026-07-15T08:24:01Z</time>
      </trkpt>
      <trkpt lat="42.87829" lon="-0.18784">
        <ele>2210.4</ele>
        <time>2026-07-15T08:24:02Z</time>
      </trkpt>
      <trkpt lat="42.87828" lon="-0.18784">
        <ele>2211.4</ele>
        <time>2026-07-15T08:24:03Z</time>
      </trkpt>
      <trkpt lat="42.87828" lon="-0.18784">
        <ele>2211.4</ele>
        <time>2026-07-15T08:24:04Z</time>
      </trkpt>
      <trkpt lat="42.87828" lon="-0.18784">
        <ele>2211.4</ele>
        <time>2026-07-15T08:24:05Z</time>
      </trkpt>
      <trkpt lat="42.87827" lon="-0.18784">
        <ele>2211.4</ele>
        <time>2026-07-15T08:24:06Z</time>
      </trkpt>
      <trkpt lat="42.87827" lon="-0.18784">
        <ele>2211.4</ele>
        <time>2026-07-15T08:24:07Z</time>
      </trkpt>
      <trkpt lat="42.87827" lon="-0.18784">
        <ele>2212.4</ele>
        <time>2026-07-15T08:24:08Z</time>
      </trkpt>
      <trkpt lat="42.87826" lon="-0.18784">
        <ele>2212.4</ele>
        <time>2026-07-15T08:24:09Z</time>
      </trkpt>
      <trkpt lat="42.87826" lon="-0.18783">
        <ele>2212.4</ele>
        <time>2026-07-15T08:24:10Z</time>
      </trkpt>
      <trkpt lat="42.87826" lon="-0.18783">
        <ele>2212.4</ele>
        <time>2026-07-15T08:24:11Z</time>
      </trkpt>
      <trkpt lat="42.87825" lon="-0.18783">
        <ele>2212.4</ele>
        <time>2026-07-15T08:24:12Z</time>
      </trkpt>
      <trkpt lat="42.87825" lon="-0.18783">
        <ele>2212.4</ele>
        <time>2026-07-15T08:24:13Z</time>
      </trkpt>
      <trkpt lat="42.87824" lon="-0.18783">
        <ele>2212.4</ele>
        <time>2026-07-15T08:24:14Z</time>
      </trkpt>
      <trkpt lat="42.87824" lon="-0.18783">
        <ele>2212.4</ele>
        <time>2026-07-15T08:24:15Z</time>
      </trkpt>
      <trkpt lat="42.87823" lon="-0.18783">
        <ele>2212.4</ele>
        <time>2026-07-15T08:24:15Z</time>
      </trkpt>
      <trkpt lat="42.87823" lon="-0.18783">
        <ele>2212.4</ele>
        <time>2026-07-15T08:24:16Z</time>
      </trkpt>
      <trkpt lat="42.87823" lon="-0.18783">
        <ele>2212.4</ele>
        <time>2026-07-15T08:24:17Z</time>
      </trkpt>
      <trkpt lat="42.87822" lon="-0.18784">
        <ele>2212.4</ele>
        <time>2026-07-15T08:24:18Z</time>
      </trkpt>
      <trkpt lat="42.87821" lon="-0.18784">
        <ele>2212.4</ele>
        <time>2026-07-15T08:24:19Z</time>
      </trkpt>
      <trkpt lat="42.87821" lon="-0.18784">
        <ele>2212.4</ele>
        <time>2026-07-15T08:24:20Z</time>
      </trkpt>
      <trkpt lat="42.87821" lon="-0.18784">
        <ele>2213.4</ele>
        <time>2026-07-15T08:24:20Z</time>
      </trkpt>
      <trkpt lat="42.8782" lon="-0.18783">
        <ele>2213.4</ele>
        <time>2026-07-15T08:24:21Z</time>
      </trkpt>
      <trkpt lat="42.87819" lon="-0.18783">
        <ele>2213.4</ele>
        <time>2026-07-15T08:24:22Z</time>
      </trkpt>
      <trkpt lat="42.87819" lon="-0.18783">
        <ele>2213.4</ele>
        <time>2026-07-15T08:24:23Z</time>
      </trkpt>
      <trkpt lat="42.87819" lon="-0.18782">
        <ele>2213.4</ele>
        <time>2026-07-15T08:24:24Z</time>
      </trkpt>
      <trkpt lat="42.87818" lon="-0.18782">
        <ele>2214.4</ele>
        <time>2026-07-15T08:24:25Z</time>
      </trkpt>
      <trkpt lat="42.87818" lon="-0.18782">
        <ele>2214.4</ele>
        <time>2026-07-15T08:24:26Z</time>
      </trkpt>
      <trkpt lat="42.87818" lon="-0.18782">
        <ele>2214.4</ele>
        <time>2026-07-15T08:24:27Z</time>
      </trkpt>
      <trkpt lat="42.87818" lon="-0.18782">
        <ele>2215.4</ele>
        <time>2026-07-15T08:24:28Z</time>
      </trkpt>
      <trkpt lat="42.87817" lon="-0.18781">
        <ele>2216.4</ele>
        <time>2026-07-15T08:24:29Z</time>
      </trkpt>
      <trkpt lat="42.87817" lon="-0.18781">
        <ele>2216.4</ele>
        <time>2026-07-15T08:24:30Z</time>
      </trkpt>
      <trkpt lat="42.87816" lon="-0.18781">
        <ele>2217.4</ele>
        <time>2026-07-15T08:24:31Z</time>
      </trkpt>
      <trkpt lat="42.87816" lon="-0.18781">
        <ele>2217.4</ele>
        <time>2026-07-15T08:24:32Z</time>
      </trkpt>
      <trkpt lat="42.87815" lon="-0.18781">
        <ele>2218.4</ele>
        <time>2026-07-15T08:24:33Z</time>
      </trkpt>
      <trkpt lat="42.87815" lon="-0.18781">
        <ele>2218.4</ele>
        <time>2026-07-15T08:24:34Z</time>
      </trkpt>
      <trkpt lat="42.87814" lon="-0.18781">
        <ele>2219.4</ele>
        <time>2026-07-15T08:24:35Z</time>
      </trkpt>
      <trkpt lat="42.87814" lon="-0.18781">
        <ele>2219.4</ele>
        <time>2026-07-15T08:24:36Z</time>
      </trkpt>
      <trkpt lat="42.87813" lon="-0.1878">
        <ele>2219.4</ele>
        <time>2026-07-15T08:24:37Z</time>
      </trkpt>
      <trkpt lat="42.87813" lon="-0.1878">
        <ele>2219.4</ele>
        <time>2026-07-15T08:24:38Z</time>
      </trkpt>
      <trkpt lat="42.87813" lon="-0.18779">
        <ele>2220.4</ele>
        <time>2026-07-15T08:24:38Z</time>
      </trkpt>
      <trkpt lat="42.87813" lon="-0.18779">
        <ele>2220.4</ele>
        <time>2026-07-15T08:24:39Z</time>
      </trkpt>
      <trkpt lat="42.87813" lon="-0.18778">
        <ele>2221.4</ele>
        <time>2026-07-15T08:24:39Z</time>
      </trkpt>
      <trkpt lat="42.87813" lon="-0.18777">
        <ele>2220.4</ele>
        <time>2026-07-15T08:24:40Z</time>
      </trkpt>
      <trkpt lat="42.87813" lon="-0.18777">
        <ele>2220.4</ele>
        <time>2026-07-15T08:24:41Z</time>
      </trkpt>
      <trkpt lat="42.87813" lon="-0.18776">
        <ele>2220.4</ele>
        <time>2026-07-15T08:24:42Z</time>
      </trkpt>
      <trkpt lat="42.87814" lon="-0.18775">
        <ele>2221.4</ele>
        <time>2026-07-15T08:24:43Z</time>
      </trkpt>
      <trkpt lat="42.87814" lon="-0.18774">
        <ele>2221.4</ele>
        <time>2026-07-15T08:24:43Z</time>
      </trkpt>
      <trkpt lat="42.87814" lon="-0.18774">
        <ele>2221.4</ele>
        <time>2026-07-15T08:24:44Z</time>
      </trkpt>
      <trkpt lat="42.87814" lon="-0.18773">
        <ele>2221.4</ele>
        <time>2026-07-15T08:24:45Z</time>
      </trkpt>
      <trkpt lat="42.87814" lon="-0.18772">
        <ele>2221.4</ele>
        <time>2026-07-15T08:24:46Z</time>
      </trkpt>
      <trkpt lat="42.87814" lon="-0.18772">
        <ele>2221.4</ele>
        <time>2026-07-15T08:24:47Z</time>
      </trkpt>
      <trkpt lat="42.87813" lon="-0.18771">
        <ele>2221.4</ele>
        <time>2026-07-15T08:24:47Z</time>
      </trkpt>
      <trkpt lat="42.87813" lon="-0.18771">
        <ele>2221.4</ele>
        <time>2026-07-15T08:24:48Z</time>
      </trkpt>
      <trkpt lat="42.87812" lon="-0.1877">
        <ele>2221.4</ele>
        <time>2026-07-15T08:24:49Z</time>
      </trkpt>
      <trkpt lat="42.87812" lon="-0.1877">
        <ele>2222.4</ele>
        <time>2026-07-15T08:24:50Z</time>
      </trkpt>
      <trkpt lat="42.87811" lon="-0.1877">
        <ele>2222.4</ele>
        <time>2026-07-15T08:24:51Z</time>
      </trkpt>
      <trkpt lat="42.87811" lon="-0.1877">
        <ele>2221.4</ele>
        <time>2026-07-15T08:24:52Z</time>
      </trkpt>
      <trkpt lat="42.87811" lon="-0.1877">
        <ele>2221.4</ele>
        <time>2026-07-15T08:24:53Z</time>
      </trkpt>
      <trkpt lat="42.87811" lon="-0.1877">
        <ele>2222.4</ele>
        <time>2026-07-15T08:24:54Z</time>
      </trkpt>
      <trkpt lat="42.8781" lon="-0.18769">
        <ele>2223.4</ele>
        <time>2026-07-15T08:24:55Z</time>
      </trkpt>
      <trkpt lat="42.8781" lon="-0.18769">
        <ele>2224.4</ele>
        <time>2026-07-15T08:24:56Z</time>
      </trkpt>
      <trkpt lat="42.8781" lon="-0.18768">
        <ele>2224.4</ele>
        <time>2026-07-15T08:24:57Z</time>
      </trkpt>
      <trkpt lat="42.8781" lon="-0.18768">
        <ele>2224.4</ele>
        <time>2026-07-15T08:24:58Z</time>
      </trkpt>
      <trkpt lat="42.8781" lon="-0.18768">
        <ele>2224.4</ele>
        <time>2026-07-15T08:24:58Z</time>
      </trkpt>
      <trkpt lat="42.87809" lon="-0.18767">
        <ele>2224.4</ele>
        <time>2026-07-15T08:24:59Z</time>
      </trkpt>
      <trkpt lat="42.87809" lon="-0.18767">
        <ele>2223.4</ele>
        <time>2026-07-15T08:24:59Z</time>
      </trkpt>
      <trkpt lat="42.87809" lon="-0.18767">
        <ele>2223.4</ele>
        <time>2026-07-15T08:25:00Z</time>
      </trkpt>
      <trkpt lat="42.87809" lon="-0.18766">
        <ele>2223.4</ele>
        <time>2026-07-15T08:25:00Z</time>
      </trkpt>
      <trkpt lat="42.87809" lon="-0.18766">
        <ele>2224.4</ele>
        <time>2026-07-15T08:25:01Z</time>
      </trkpt>
      <trkpt lat="42.87809" lon="-0.18765">
        <ele>2224.4</ele>
        <time>2026-07-15T08:25:02Z</time>
      </trkpt>
      <trkpt lat="42.87809" lon="-0.18764">
        <ele>2225.4</ele>
        <time>2026-07-15T08:25:03Z</time>
      </trkpt>
      <trkpt lat="42.87809" lon="-0.18764">
        <ele>2225.4</ele>
        <time>2026-07-15T08:25:04Z</time>
      </trkpt>
      <trkpt lat="42.87808" lon="-0.18763">
        <ele>2225.4</ele>
        <time>2026-07-15T08:25:05Z</time>
      </trkpt>
      <trkpt lat="42.87808" lon="-0.18763">
        <ele>2226.4</ele>
        <time>2026-07-15T08:25:06Z</time>
      </trkpt>
      <trkpt lat="42.87808" lon="-0.18762">
        <ele>2226.4</ele>
        <time>2026-07-15T08:25:07Z</time>
      </trkpt>
      <trkpt lat="42.87807" lon="-0.18761">
        <ele>2226.4</ele>
        <time>2026-07-15T08:25:08Z</time>
      </trkpt>
      <trkpt lat="42.87807" lon="-0.18761">
        <ele>2226.4</ele>
        <time>2026-07-15T08:25:09Z</time>
      </trkpt>
      <trkpt lat="42.87807" lon="-0.18761">
        <ele>2226.4</ele>
        <time>2026-07-15T08:25:10Z</time>
      </trkpt>
      <trkpt lat="42.87806" lon="-0.1876">
        <ele>2226.4</ele>
        <time>2026-07-15T08:25:11Z</time>
      </trkpt>
      <trkpt lat="42.87806" lon="-0.1876">
        <ele>2226.4</ele>
        <time>2026-07-15T08:25:11Z</time>
      </trkpt>
      <trkpt lat="42.87806" lon="-0.18759">
        <ele>2226.4</ele>
        <time>2026-07-15T08:25:12Z</time>
      </trkpt>
      <trkpt lat="42.87805" lon="-0.18759">
        <ele>2226.4</ele>
        <time>2026-07-15T08:25:13Z</time>
      </trkpt>
      <trkpt lat="42.87805" lon="-0.18758">
        <ele>2226.4</ele>
        <time>2026-07-15T08:25:14Z</time>
      </trkpt>
      <trkpt lat="42.87804" lon="-0.18758">
        <ele>2226.4</ele>
        <time>2026-07-15T08:25:15Z</time>
      </trkpt>
      <trkpt lat="42.87804" lon="-0.18758">
        <ele>2227.4</ele>
        <time>2026-07-15T08:25:16Z</time>
      </trkpt>
      <trkpt lat="42.87804" lon="-0.18759">
        <ele>2227.4</ele>
        <time>2026-07-15T08:25:17Z</time>
      </trkpt>
      <trkpt lat="42.87803" lon="-0.18759">
        <ele>2227.4</ele>
        <time>2026-07-15T08:25:18Z</time>
      </trkpt>
      <trkpt lat="42.87803" lon="-0.18759">
        <ele>2227.4</ele>
        <time>2026-07-15T08:25:19Z</time>
      </trkpt>
      <trkpt lat="42.87802" lon="-0.18759">
        <ele>2228.4</ele>
        <time>2026-07-15T08:25:20Z</time>
      </trkpt>
      <trkpt lat="42.87802" lon="-0.18759">
        <ele>2227.4</ele>
        <time>2026-07-15T08:25:21Z</time>
      </trkpt>
      <trkpt lat="42.87802" lon="-0.18759">
        <ele>2227.4</ele>
        <time>2026-07-15T08:25:22Z</time>
      </trkpt>
      <trkpt lat="42.87802" lon="-0.18759">
        <ele>2227.4</ele>
        <time>2026-07-15T08:25:23Z</time>
      </trkpt>
      <trkpt lat="42.87801" lon="-0.18759">
        <ele>2227.4</ele>
        <time>2026-07-15T08:25:24Z</time>
      </trkpt>
      <trkpt lat="42.87801" lon="-0.18759">
        <ele>2227.4</ele>
        <time>2026-07-15T08:25:24Z</time>
      </trkpt>
      <trkpt lat="42.87801" lon="-0.18758">
        <ele>2228.4</ele>
        <time>2026-07-15T08:25:25Z</time>
      </trkpt>
      <trkpt lat="42.878" lon="-0.18758">
        <ele>2229.4</ele>
        <time>2026-07-15T08:25:26Z</time>
      </trkpt>
      <trkpt lat="42.878" lon="-0.18758">
        <ele>2229.4</ele>
        <time>2026-07-15T08:25:27Z</time>
      </trkpt>
      <trkpt lat="42.87799" lon="-0.18758">
        <ele>2229.4</ele>
        <time>2026-07-15T08:25:28Z</time>
      </trkpt>
      <trkpt lat="42.87799" lon="-0.18758">
        <ele>2228.4</ele>
        <time>2026-07-15T08:25:29Z</time>
      </trkpt>
      <trkpt lat="42.87799" lon="-0.18758">
        <ele>2227.4</ele>
        <time>2026-07-15T08:25:30Z</time>
      </trkpt>
      <trkpt lat="42.87798" lon="-0.18758">
        <ele>2228.4</ele>
        <time>2026-07-15T08:25:31Z</time>
      </trkpt>
      <trkpt lat="42.87798" lon="-0.18758">
        <ele>2227.4</ele>
        <time>2026-07-15T08:25:32Z</time>
      </trkpt>
      <trkpt lat="42.87797" lon="-0.18758">
        <ele>2228.4</ele>
        <time>2026-07-15T08:25:32Z</time>
      </trkpt>
      <trkpt lat="42.87797" lon="-0.18758">
        <ele>2228.4</ele>
        <time>2026-07-15T08:25:33Z</time>
      </trkpt>
      <trkpt lat="42.87797" lon="-0.18758">
        <ele>2227.4</ele>
        <time>2026-07-15T08:25:33Z</time>
      </trkpt>
      <trkpt lat="42.87796" lon="-0.18758">
        <ele>2228.4</ele>
        <time>2026-07-15T08:25:34Z</time>
      </trkpt>
      <trkpt lat="42.87796" lon="-0.18757">
        <ele>2228.4</ele>
        <time>2026-07-15T08:25:35Z</time>
      </trkpt>
      <trkpt lat="42.87795" lon="-0.18757">
        <ele>2227.4</ele>
        <time>2026-07-15T08:25:36Z</time>
      </trkpt>
      <trkpt lat="42.87795" lon="-0.18757">
        <ele>2227.4</ele>
        <time>2026-07-15T08:25:37Z</time>
      </trkpt>
      <trkpt lat="42.87794" lon="-0.18756">
        <ele>2227.4</ele>
        <time>2026-07-15T08:25:38Z</time>
      </trkpt>
      <trkpt lat="42.87794" lon="-0.18756">
        <ele>2227.4</ele>
        <time>2026-07-15T08:25:38Z</time>
      </trkpt>
      <trkpt lat="42.87793" lon="-0.18755">
        <ele>2227.4</ele>
        <time>2026-07-15T08:25:39Z</time>
      </trkpt>
      <trkpt lat="42.87792" lon="-0.18755">
        <ele>2228.4</ele>
        <time>2026-07-15T08:25:40Z</time>
      </trkpt>
      <trkpt lat="42.87792" lon="-0.18754">
        <ele>2228.4</ele>
        <time>2026-07-15T08:25:41Z</time>
      </trkpt>
      <trkpt lat="42.87791" lon="-0.18753">
        <ele>2228.4</ele>
        <time>2026-07-15T08:25:42Z</time>
      </trkpt>
      <trkpt lat="42.87791" lon="-0.18752">
        <ele>2228.4</ele>
        <time>2026-07-15T08:25:43Z</time>
      </trkpt>
      <trkpt lat="42.87791" lon="-0.18752">
        <ele>2229.4</ele>
        <time>2026-07-15T08:25:43Z</time>
      </trkpt>
      <trkpt lat="42.8779" lon="-0.18751">
        <ele>2229.4</ele>
        <time>2026-07-15T08:25:44Z</time>
      </trkpt>
      <trkpt lat="42.8779" lon="-0.1875">
        <ele>2229.4</ele>
        <time>2026-07-15T08:25:45Z</time>
      </trkpt>
      <trkpt lat="42.87789" lon="-0.1875">
        <ele>2229.4</ele>
        <time>2026-07-15T08:25:46Z</time>
      </trkpt>
      <trkpt lat="42.87789" lon="-0.18749">
        <ele>2229.4</ele>
        <time>2026-07-15T08:25:47Z</time>
      </trkpt>
      <trkpt lat="42.87788" lon="-0.18749">
        <ele>2230.4</ele>
        <time>2026-07-15T08:25:48Z</time>
      </trkpt>
      <trkpt lat="42.87788" lon="-0.18748">
        <ele>2230.4</ele>
        <time>2026-07-15T08:25:48Z</time>
      </trkpt>
      <trkpt lat="42.87788" lon="-0.18748">
        <ele>2230.4</ele>
        <time>2026-07-15T08:25:49Z</time>
      </trkpt>
      <trkpt lat="42.87787" lon="-0.18747">
        <ele>2230.4</ele>
        <time>2026-07-15T08:25:50Z</time>
      </trkpt>
      <trkpt lat="42.87787" lon="-0.18747">
        <ele>2230.4</ele>
        <time>2026-07-15T08:25:51Z</time>
      </trkpt>
      <trkpt lat="42.87787" lon="-0.18746">
        <ele>2230.4</ele>
        <time>2026-07-15T08:25:52Z</time>
      </trkpt>
      <trkpt lat="42.87786" lon="-0.18745">
        <ele>2230.4</ele>
        <time>2026-07-15T08:25:53Z</time>
      </trkpt>
      <trkpt lat="42.87786" lon="-0.18745">
        <ele>2230.4</ele>
        <time>2026-07-15T08:25:54Z</time>
      </trkpt>
      <trkpt lat="42.87786" lon="-0.18745">
        <ele>2230.4</ele>
        <time>2026-07-15T08:25:54Z</time>
      </trkpt>
      <trkpt lat="42.87786" lon="-0.18744">
        <ele>2230.4</ele>
        <time>2026-07-15T08:25:55Z</time>
      </trkpt>
      <trkpt lat="42.87786" lon="-0.18744">
        <ele>2231.4</ele>
        <time>2026-07-15T08:25:55Z</time>
      </trkpt>
      <trkpt lat="42.87786" lon="-0.18744">
        <ele>2231.4</ele>
        <time>2026-07-15T08:25:56Z</time>
      </trkpt>
      <trkpt lat="42.87785" lon="-0.18744">
        <ele>2231.4</ele>
        <time>2026-07-15T08:25:57Z</time>
      </trkpt>
      <trkpt lat="42.87785" lon="-0.18744">
        <ele>2231.4</ele>
        <time>2026-07-15T08:25:58Z</time>
      </trkpt>
      <trkpt lat="42.87785" lon="-0.18743">
        <ele>2231.4</ele>
        <time>2026-07-15T08:25:59Z</time>
      </trkpt>
      <trkpt lat="42.87784" lon="-0.18743">
        <ele>2231.4</ele>
        <time>2026-07-15T08:26:00Z</time>
      </trkpt>
      <trkpt lat="42.87784" lon="-0.18742">
        <ele>2231.4</ele>
        <time>2026-07-15T08:26:00Z</time>
      </trkpt>
      <trkpt lat="42.87783" lon="-0.18742">
        <ele>2231.4</ele>
        <time>2026-07-15T08:26:01Z</time>
      </trkpt>
      <trkpt lat="42.87783" lon="-0.18741">
        <ele>2231.4</ele>
        <time>2026-07-15T08:26:02Z</time>
      </trkpt>
      <trkpt lat="42.87783" lon="-0.1874">
        <ele>2231.4</ele>
        <time>2026-07-15T08:26:03Z</time>
      </trkpt>
      <trkpt lat="42.87782" lon="-0.1874">
        <ele>2231.4</ele>
        <time>2026-07-15T08:26:04Z</time>
      </trkpt>
      <trkpt lat="42.87782" lon="-0.18739">
        <ele>2232.4</ele>
        <time>2026-07-15T08:26:05Z</time>
      </trkpt>
      <trkpt lat="42.87782" lon="-0.18738">
        <ele>2232.4</ele>
        <time>2026-07-15T08:26:06Z</time>
      </trkpt>
      <trkpt lat="42.87782" lon="-0.18737">
        <ele>2232.4</ele>
        <time>2026-07-15T08:26:06Z</time>
      </trkpt>
      <trkpt lat="42.87782" lon="-0.18737">
        <ele>2232.4</ele>
        <time>2026-07-15T08:26:07Z</time>
      </trkpt>
      <trkpt lat="42.87781" lon="-0.18736">
        <ele>2232.4</ele>
        <time>2026-07-15T08:26:08Z</time>
      </trkpt>
      <trkpt lat="42.87781" lon="-0.18735">
        <ele>2232.4</ele>
        <time>2026-07-15T08:26:09Z</time>
      </trkpt>
      <trkpt lat="42.87781" lon="-0.18734">
        <ele>2233.4</ele>
        <time>2026-07-15T08:26:10Z</time>
      </trkpt>
      <trkpt lat="42.87781" lon="-0.18733">
        <ele>2233.4</ele>
        <time>2026-07-15T08:26:11Z</time>
      </trkpt>
      <trkpt lat="42.87781" lon="-0.18733">
        <ele>2233.4</ele>
        <time>2026-07-15T08:26:12Z</time>
      </trkpt>
      <trkpt lat="42.87781" lon="-0.18732">
        <ele>2233.4</ele>
        <time>2026-07-15T08:26:13Z</time>
      </trkpt>
      <trkpt lat="42.87781" lon="-0.18731">
        <ele>2234.4</ele>
        <time>2026-07-15T08:26:14Z</time>
      </trkpt>
      <trkpt lat="42.87781" lon="-0.1873">
        <ele>2234.4</ele>
        <time>2026-07-15T08:26:15Z</time>
      </trkpt>
      <trkpt lat="42.87781" lon="-0.1873">
        <ele>2234.4</ele>
        <time>2026-07-15T08:26:16Z</time>
      </trkpt>
      <trkpt lat="42.87781" lon="-0.18729">
        <ele>2234.4</ele>
        <time>2026-07-15T08:26:17Z</time>
      </trkpt>
      <trkpt lat="42.87781" lon="-0.18728">
        <ele>2235.4</ele>
        <time>2026-07-15T08:26:18Z</time>
      </trkpt>
      <trkpt lat="42.87781" lon="-0.18728">
        <ele>2235.4</ele>
        <time>2026-07-15T08:26:18Z</time>
      </trkpt>
      <trkpt lat="42.8778" lon="-0.18727">
        <ele>2235.4</ele>
        <time>2026-07-15T08:26:19Z</time>
      </trkpt>
      <trkpt lat="42.8778" lon="-0.18727">
        <ele>2235.4</ele>
        <time>2026-07-15T08:26:19Z</time>
      </trkpt>
      <trkpt lat="42.8778" lon="-0.18727">
        <ele>2235.4</ele>
        <time>2026-07-15T08:26:20Z</time>
      </trkpt>
      <trkpt lat="42.8778" lon="-0.18726">
        <ele>2235.4</ele>
        <time>2026-07-15T08:26:21Z</time>
      </trkpt>
      <trkpt lat="42.8778" lon="-0.18726">
        <ele>2234.4</ele>
        <time>2026-07-15T08:26:21Z</time>
      </trkpt>
      <trkpt lat="42.87779" lon="-0.18726">
        <ele>2234.4</ele>
        <time>2026-07-15T08:26:22Z</time>
      </trkpt>
      <trkpt lat="42.87779" lon="-0.18725">
        <ele>2233.4</ele>
        <time>2026-07-15T08:26:23Z</time>
      </trkpt>
      <trkpt lat="42.87779" lon="-0.18725">
        <ele>2233.4</ele>
        <time>2026-07-15T08:26:24Z</time>
      </trkpt>
      <trkpt lat="42.87779" lon="-0.18724">
        <ele>2233.4</ele>
        <time>2026-07-15T08:26:25Z</time>
      </trkpt>
      <trkpt lat="42.87778" lon="-0.18724">
        <ele>2233.4</ele>
        <time>2026-07-15T08:26:26Z</time>
      </trkpt>
      <trkpt lat="42.87778" lon="-0.18723">
        <ele>2234.4</ele>
        <time>2026-07-15T08:26:27Z</time>
      </trkpt>
      <trkpt lat="42.87778" lon="-0.18723">
        <ele>2235.4</ele>
        <time>2026-07-15T08:26:28Z</time>
      </trkpt>
      <trkpt lat="42.87778" lon="-0.18723">
        <ele>2236.4</ele>
        <time>2026-07-15T08:26:29Z</time>
      </trkpt>
      <trkpt lat="42.87778" lon="-0.18722">
        <ele>2236.4</ele>
        <time>2026-07-15T08:26:30Z</time>
      </trkpt>
      <trkpt lat="42.87777" lon="-0.18722">
        <ele>2235.4</ele>
        <time>2026-07-15T08:26:30Z</time>
      </trkpt>
      <trkpt lat="42.87777" lon="-0.18722">
        <ele>2235.4</ele>
        <time>2026-07-15T08:26:31Z</time>
      </trkpt>
      <trkpt lat="42.87777" lon="-0.18721">
        <ele>2236.4</ele>
        <time>2026-07-15T08:26:32Z</time>
      </trkpt>
      <trkpt lat="42.87777" lon="-0.18721">
        <ele>2237.4</ele>
        <time>2026-07-15T08:26:33Z</time>
      </trkpt>
      <trkpt lat="42.87776" lon="-0.1872">
        <ele>2237.4</ele>
        <time>2026-07-15T08:26:34Z</time>
      </trkpt>
      <trkpt lat="42.87776" lon="-0.18719">
        <ele>2238.4</ele>
        <time>2026-07-15T08:26:35Z</time>
      </trkpt>
      <trkpt lat="42.87776" lon="-0.18719">
        <ele>2239.4</ele>
        <time>2026-07-15T08:26:36Z</time>
      </trkpt>
      <trkpt lat="42.87776" lon="-0.18718">
        <ele>2239.4</ele>
        <time>2026-07-15T08:26:37Z</time>
      </trkpt>
      <trkpt lat="42.87776" lon="-0.18718">
        <ele>2239.4</ele>
        <time>2026-07-15T08:26:38Z</time>
      </trkpt>
      <trkpt lat="42.87775" lon="-0.18718">
        <ele>2239.4</ele>
        <time>2026-07-15T08:26:38Z</time>
      </trkpt>
      <trkpt lat="42.87775" lon="-0.18717">
        <ele>2238.4</ele>
        <time>2026-07-15T08:26:39Z</time>
      </trkpt>
      <trkpt lat="42.87775" lon="-0.18717">
        <ele>2238.4</ele>
        <time>2026-07-15T08:26:40Z</time>
      </trkpt>
      <trkpt lat="42.87774" lon="-0.18717">
        <ele>2238.4</ele>
        <time>2026-07-15T08:26:41Z</time>
      </trkpt>
      <trkpt lat="42.87774" lon="-0.18716">
        <ele>2238.4</ele>
        <time>2026-07-15T08:26:42Z</time>
      </trkpt>
      <trkpt lat="42.87774" lon="-0.18716">
        <ele>2238.4</ele>
        <time>2026-07-15T08:26:43Z</time>
      </trkpt>
      <trkpt lat="42.87773" lon="-0.18715">
        <ele>2238.4</ele>
        <time>2026-07-15T08:26:43Z</time>
      </trkpt>
      <trkpt lat="42.87773" lon="-0.18715">
        <ele>2238.4</ele>
        <time>2026-07-15T08:26:44Z</time>
      </trkpt>
      <trkpt lat="42.87773" lon="-0.18715">
        <ele>2238.4</ele>
        <time>2026-07-15T08:26:44Z</time>
      </trkpt>
      <trkpt lat="42.87773" lon="-0.18714">
        <ele>2238.4</ele>
        <time>2026-07-15T08:26:45Z</time>
      </trkpt>
      <trkpt lat="42.87773" lon="-0.18713">
        <ele>2238.4</ele>
        <time>2026-07-15T08:26:46Z</time>
      </trkpt>
      <trkpt lat="42.87773" lon="-0.18712">
        <ele>2239.4</ele>
        <time>2026-07-15T08:26:47Z</time>
      </trkpt>
      <trkpt lat="42.87773" lon="-0.18711">
        <ele>2239.4</ele>
        <time>2026-07-15T08:26:48Z</time>
      </trkpt>
      <trkpt lat="42.87773" lon="-0.18711">
        <ele>2239.4</ele>
        <time>2026-07-15T08:26:49Z</time>
      </trkpt>
      <trkpt lat="42.87773" lon="-0.1871">
        <ele>2240.4</ele>
        <time>2026-07-15T08:26:50Z</time>
      </trkpt>
      <trkpt lat="42.87773" lon="-0.18709">
        <ele>2240.4</ele>
        <time>2026-07-15T08:26:51Z</time>
      </trkpt>
      <trkpt lat="42.87772" lon="-0.18709">
        <ele>2240.4</ele>
        <time>2026-07-15T08:26:51Z</time>
      </trkpt>
      <trkpt lat="42.87772" lon="-0.18708">
        <ele>2241.4</ele>
        <time>2026-07-15T08:26:52Z</time>
      </trkpt>
      <trkpt lat="42.87772" lon="-0.18707">
        <ele>2241.4</ele>
        <time>2026-07-15T08:26:53Z</time>
      </trkpt>
      <trkpt lat="42.87771" lon="-0.18707">
        <ele>2240.4</ele>
        <time>2026-07-15T08:26:54Z</time>
      </trkpt>
      <trkpt lat="42.87771" lon="-0.18706">
        <ele>2240.4</ele>
        <time>2026-07-15T08:26:55Z</time>
      </trkpt>
      <trkpt lat="42.87771" lon="-0.18705">
        <ele>2241.4</ele>
        <time>2026-07-15T08:26:56Z</time>
      </trkpt>
      <trkpt lat="42.8777" lon="-0.18705">
        <ele>2241.4</ele>
        <time>2026-07-15T08:26:57Z</time>
      </trkpt>
      <trkpt lat="42.8777" lon="-0.18704">
        <ele>2242.4</ele>
        <time>2026-07-15T08:26:57Z</time>
      </trkpt>
      <trkpt lat="42.8777" lon="-0.18703">
        <ele>2241.4</ele>
        <time>2026-07-15T08:26:58Z</time>
      </trkpt>
      <trkpt lat="42.8777" lon="-0.18702">
        <ele>2241.4</ele>
        <time>2026-07-15T08:26:59Z</time>
      </trkpt>
      <trkpt lat="42.8777" lon="-0.18702">
        <ele>2241.4</ele>
        <time>2026-07-15T08:27:00Z</time>
      </trkpt>
      <trkpt lat="42.87769" lon="-0.18701">
        <ele>2241.4</ele>
        <time>2026-07-15T08:27:01Z</time>
      </trkpt>
      <trkpt lat="42.87769" lon="-0.187">
        <ele>2241.4</ele>
        <time>2026-07-15T08:27:01Z</time>
      </trkpt>
      <trkpt lat="42.87769" lon="-0.187">
        <ele>2241.4</ele>
        <time>2026-07-15T08:27:02Z</time>
      </trkpt>
      <trkpt lat="42.87768" lon="-0.18699">
        <ele>2241.4</ele>
        <time>2026-07-15T08:27:03Z</time>
      </trkpt>
      <trkpt lat="42.87768" lon="-0.18698">
        <ele>2241.4</ele>
        <time>2026-07-15T08:27:04Z</time>
      </trkpt>
      <trkpt lat="42.87767" lon="-0.18697">
        <ele>2242.4</ele>
        <time>2026-07-15T08:27:05Z</time>
      </trkpt>
      <trkpt lat="42.87767" lon="-0.18697">
        <ele>2242.4</ele>
        <time>2026-07-15T08:27:06Z</time>
      </trkpt>
      <trkpt lat="42.87766" lon="-0.18696">
        <ele>2242.4</ele>
        <time>2026-07-15T08:27:07Z</time>
      </trkpt>
      <trkpt lat="42.87766" lon="-0.18696">
        <ele>2242.4</ele>
        <time>2026-07-15T08:27:07Z</time>
      </trkpt>
      <trkpt lat="42.87765" lon="-0.18696">
        <ele>2242.4</ele>
        <time>2026-07-15T08:27:08Z</time>
      </trkpt>
      <trkpt lat="42.87764" lon="-0.18695">
        <ele>2242.4</ele>
        <time>2026-07-15T08:27:09Z</time>
      </trkpt>
      <trkpt lat="42.87764" lon="-0.18695">
        <ele>2242.4</ele>
        <time>2026-07-15T08:27:10Z</time>
      </trkpt>
      <trkpt lat="42.87763" lon="-0.18695">
        <ele>2242.4</ele>
        <time>2026-07-15T08:27:11Z</time>
      </trkpt>
      <trkpt lat="42.87763" lon="-0.18694">
        <ele>2242.4</ele>
        <time>2026-07-15T08:27:11Z</time>
      </trkpt>
      <trkpt lat="42.87763" lon="-0.18694">
        <ele>2242.4</ele>
        <time>2026-07-15T08:27:12Z</time>
      </trkpt>
      <trkpt lat="42.87762" lon="-0.18694">
        <ele>2242.4</ele>
        <time>2026-07-15T08:27:13Z</time>
      </trkpt>
      <trkpt lat="42.87762" lon="-0.18693">
        <ele>2242.4</ele>
        <time>2026-07-15T08:27:14Z</time>
      </trkpt>
      <trkpt lat="42.87761" lon="-0.18693">
        <ele>2242.4</ele>
        <time>2026-07-15T08:27:14Z</time>
      </trkpt>
      <trkpt lat="42.87761" lon="-0.18692">
        <ele>2242.4</ele>
        <time>2026-07-15T08:27:15Z</time>
      </trkpt>
      <trkpt lat="42.8776" lon="-0.18691">
        <ele>2242.4</ele>
        <time>2026-07-15T08:27:16Z</time>
      </trkpt>
      <trkpt lat="42.8776" lon="-0.18691">
        <ele>2242.4</ele>
        <time>2026-07-15T08:27:17Z</time>
      </trkpt>
      <trkpt lat="42.8776" lon="-0.18691">
        <ele>2243.4</ele>
        <time>2026-07-15T08:27:18Z</time>
      </trkpt>
      <trkpt lat="42.87759" lon="-0.1869">
        <ele>2243.4</ele>
        <time>2026-07-15T08:27:18Z</time>
      </trkpt>
      <trkpt lat="42.87759" lon="-0.1869">
        <ele>2243.4</ele>
        <time>2026-07-15T08:27:19Z</time>
      </trkpt>
      <trkpt lat="42.87758" lon="-0.18689">
        <ele>2242.4</ele>
        <time>2026-07-15T08:27:20Z</time>
      </trkpt>
      <trkpt lat="42.87758" lon="-0.18688">
        <ele>2242.4</ele>
        <time>2026-07-15T08:27:21Z</time>
      </trkpt>
      <trkpt lat="42.87758" lon="-0.18688">
        <ele>2242.4</ele>
        <time>2026-07-15T08:27:21Z</time>
      </trkpt>
      <trkpt lat="42.87757" lon="-0.18687">
        <ele>2242.4</ele>
        <time>2026-07-15T08:27:22Z</time>
      </trkpt>
      <trkpt lat="42.87757" lon="-0.18686">
        <ele>2242.4</ele>
        <time>2026-07-15T08:27:23Z</time>
      </trkpt>
      <trkpt lat="42.87757" lon="-0.18685">
        <ele>2243.4</ele>
        <time>2026-07-15T08:27:24Z</time>
      </trkpt>
      <trkpt lat="42.87757" lon="-0.18685">
        <ele>2244.4</ele>
        <time>2026-07-15T08:27:24Z</time>
      </trkpt>
      <trkpt lat="42.87757" lon="-0.18684">
        <ele>2244.4</ele>
        <time>2026-07-15T08:27:25Z</time>
      </trkpt>
      <trkpt lat="42.87756" lon="-0.18683">
        <ele>2244.4</ele>
        <time>2026-07-15T08:27:26Z</time>
      </trkpt>
      <trkpt lat="42.87756" lon="-0.18683">
        <ele>2244.4</ele>
        <time>2026-07-15T08:27:27Z</time>
      </trkpt>
      <trkpt lat="42.87756" lon="-0.18682">
        <ele>2244.4</ele>
        <time>2026-07-15T08:27:28Z</time>
      </trkpt>
      <trkpt lat="42.87756" lon="-0.18682">
        <ele>2245.4</ele>
        <time>2026-07-15T08:27:28Z</time>
      </trkpt>
      <trkpt lat="42.87756" lon="-0.1868">
        <ele>2245.4</ele>
        <time>2026-07-15T08:27:29Z</time>
      </trkpt>
      <trkpt lat="42.87756" lon="-0.1868">
        <ele>2246.4</ele>
        <time>2026-07-15T08:27:30Z</time>
      </trkpt>
      <trkpt lat="42.87756" lon="-0.18679">
        <ele>2246.4</ele>
        <time>2026-07-15T08:27:30Z</time>
      </trkpt>
      <trkpt lat="42.87756" lon="-0.18678">
        <ele>2246.4</ele>
        <time>2026-07-15T08:27:31Z</time>
      </trkpt>
      <trkpt lat="42.87756" lon="-0.18677">
        <ele>2246.4</ele>
        <time>2026-07-15T08:27:32Z</time>
      </trkpt>
      <trkpt lat="42.87756" lon="-0.18676">
        <ele>2247.4</ele>
        <time>2026-07-15T08:27:33Z</time>
      </trkpt>
      <trkpt lat="42.87757" lon="-0.18676">
        <ele>2247.4</ele>
        <time>2026-07-15T08:27:33Z</time>
      </trkpt>
      <trkpt lat="42.87757" lon="-0.18675">
        <ele>2247.4</ele>
        <time>2026-07-15T08:27:34Z</time>
      </trkpt>
      <trkpt lat="42.87757" lon="-0.18674">
        <ele>2247.4</ele>
        <time>2026-07-15T08:27:35Z</time>
      </trkpt>
      <trkpt lat="42.87757" lon="-0.18673">
        <ele>2247.4</ele>
        <time>2026-07-15T08:27:36Z</time>
      </trkpt>
      <trkpt lat="42.87757" lon="-0.18673">
        <ele>2247.4</ele>
        <time>2026-07-15T08:27:36Z</time>
      </trkpt>
      <trkpt lat="42.87758" lon="-0.18672">
        <ele>2247.4</ele>
        <time>2026-07-15T08:27:37Z</time>
      </trkpt>
      <trkpt lat="42.87758" lon="-0.18671">
        <ele>2247.4</ele>
        <time>2026-07-15T08:27:38Z</time>
      </trkpt>
      <trkpt lat="42.87759" lon="-0.1867">
        <ele>2248.4</ele>
        <time>2026-07-15T08:27:39Z</time>
      </trkpt>
      <trkpt lat="42.87759" lon="-0.18669">
        <ele>2248.4</ele>
        <time>2026-07-15T08:27:39Z</time>
      </trkpt>
      <trkpt lat="42.87759" lon="-0.18668">
        <ele>2248.4</ele>
        <time>2026-07-15T08:27:40Z</time>
      </trkpt>
      <trkpt lat="42.8776" lon="-0.18667">
        <ele>2248.4</ele>
        <time>2026-07-15T08:27:41Z</time>
      </trkpt>
      <trkpt lat="42.8776" lon="-0.18666">
        <ele>2248.4</ele>
        <time>2026-07-15T08:27:41Z</time>
      </trkpt>
      <trkpt lat="42.8776" lon="-0.18665">
        <ele>2248.4</ele>
        <time>2026-07-15T08:27:42Z</time>
      </trkpt>
      <trkpt lat="42.8776" lon="-0.18664">
        <ele>2248.4</ele>
        <time>2026-07-15T08:27:43Z</time>
      </trkpt>
      <trkpt lat="42.8776" lon="-0.18663">
        <ele>2249.4</ele>
        <time>2026-07-15T08:27:44Z</time>
      </trkpt>
      <trkpt lat="42.8776" lon="-0.18663">
        <ele>2249.4</ele>
        <time>2026-07-15T08:27:44Z</time>
      </trkpt>
      <trkpt lat="42.8776" lon="-0.18662">
        <ele>2249.4</ele>
        <time>2026-07-15T08:27:45Z</time>
      </trkpt>
      <trkpt lat="42.87761" lon="-0.18661">
        <ele>2248.4</ele>
        <time>2026-07-15T08:27:46Z</time>
      </trkpt>
      <trkpt lat="42.87761" lon="-0.1866">
        <ele>2248.4</ele>
        <time>2026-07-15T08:27:46Z</time>
      </trkpt>
      <trkpt lat="42.87761" lon="-0.1866">
        <ele>2248.4</ele>
        <time>2026-07-15T08:27:47Z</time>
      </trkpt>
      <trkpt lat="42.87762" lon="-0.18659">
        <ele>2249.4</ele>
        <time>2026-07-15T08:27:48Z</time>
      </trkpt>
      <trkpt lat="42.87762" lon="-0.18658">
        <ele>2249.4</ele>
        <time>2026-07-15T08:27:49Z</time>
      </trkpt>
      <trkpt lat="42.87762" lon="-0.18658">
        <ele>2250.4</ele>
        <time>2026-07-15T08:27:49Z</time>
      </trkpt>
      <trkpt lat="42.87763" lon="-0.18657">
        <ele>2250.4</ele>
        <time>2026-07-15T08:27:50Z</time>
      </trkpt>
      <trkpt lat="42.87763" lon="-0.18656">
        <ele>2250.4</ele>
        <time>2026-07-15T08:27:51Z</time>
      </trkpt>
      <trkpt lat="42.87763" lon="-0.18655">
        <ele>2251.4</ele>
        <time>2026-07-15T08:27:52Z</time>
      </trkpt>
      <trkpt lat="42.87763" lon="-0.18655">
        <ele>2252.4</ele>
        <time>2026-07-15T08:27:52Z</time>
      </trkpt>
      <trkpt lat="42.87763" lon="-0.18654">
        <ele>2252.4</ele>
        <time>2026-07-15T08:27:53Z</time>
      </trkpt>
      <trkpt lat="42.87763" lon="-0.18653">
        <ele>2252.4</ele>
        <time>2026-07-15T08:27:54Z</time>
      </trkpt>
      <trkpt lat="42.87764" lon="-0.18652">
        <ele>2251.4</ele>
        <time>2026-07-15T08:27:55Z</time>
      </trkpt>
      <trkpt lat="42.87764" lon="-0.18651">
        <ele>2251.4</ele>
        <time>2026-07-15T08:27:56Z</time>
      </trkpt>
      <trkpt lat="42.87764" lon="-0.18651">
        <ele>2251.4</ele>
        <time>2026-07-15T08:27:56Z</time>
      </trkpt>
      <trkpt lat="42.87764" lon="-0.18649">
        <ele>2251.4</ele>
        <time>2026-07-15T08:27:57Z</time>
      </trkpt>
      <trkpt lat="42.87763" lon="-0.18649">
        <ele>2251.4</ele>
        <time>2026-07-15T08:27:58Z</time>
      </trkpt>
      <trkpt lat="42.87763" lon="-0.18648">
        <ele>2251.4</ele>
        <time>2026-07-15T08:27:59Z</time>
      </trkpt>
      <trkpt lat="42.87763" lon="-0.18647">
        <ele>2252.4</ele>
        <time>2026-07-15T08:27:59Z</time>
      </trkpt>
      <trkpt lat="42.87763" lon="-0.18646">
        <ele>2252.4</ele>
        <time>2026-07-15T08:28:00Z</time>
      </trkpt>
      <trkpt lat="42.87763" lon="-0.18646">
        <ele>2251.4</ele>
        <time>2026-07-15T08:28:01Z</time>
      </trkpt>
      <trkpt lat="42.87763" lon="-0.18645">
        <ele>2251.4</ele>
        <time>2026-07-15T08:28:01Z</time>
      </trkpt>
      <trkpt lat="42.87763" lon="-0.18644">
        <ele>2251.4</ele>
        <time>2026-07-15T08:28:02Z</time>
      </trkpt>
      <trkpt lat="42.87763" lon="-0.18643">
        <ele>2250.4</ele>
        <time>2026-07-15T08:28:02Z</time>
      </trkpt>
      <trkpt lat="42.87763" lon="-0.18642">
        <ele>2251.4</ele>
        <time>2026-07-15T08:28:03Z</time>
      </trkpt>
      <trkpt lat="42.87763" lon="-0.18641">
        <ele>2251.4</ele>
        <time>2026-07-15T08:28:04Z</time>
      </trkpt>
      <trkpt lat="42.87764" lon="-0.1864">
        <ele>2251.4</ele>
        <time>2026-07-15T08:28:05Z</time>
      </trkpt>
      <trkpt lat="42.87764" lon="-0.18639">
        <ele>2252.4</ele>
        <time>2026-07-15T08:28:06Z</time>
      </trkpt>
      <trkpt lat="42.87764" lon="-0.18638">
        <ele>2252.4</ele>
        <time>2026-07-15T08:28:06Z</time>
      </trkpt>
      <trkpt lat="42.87764" lon="-0.18637">
        <ele>2252.4</ele>
        <time>2026-07-15T08:28:07Z</time>
      </trkpt>
      <trkpt lat="42.87764" lon="-0.18637">
        <ele>2253.4</ele>
        <time>2026-07-15T08:28:08Z</time>
      </trkpt>
      <trkpt lat="42.87764" lon="-0.18636">
        <ele>2253.4</ele>
        <time>2026-07-15T08:28:08Z</time>
      </trkpt>
      <trkpt lat="42.87764" lon="-0.18635">
        <ele>2253.4</ele>
        <time>2026-07-15T08:28:09Z</time>
      </trkpt>
      <trkpt lat="42.87764" lon="-0.18634">
        <ele>2253.4</ele>
        <time>2026-07-15T08:28:10Z</time>
      </trkpt>
      <trkpt lat="42.87764" lon="-0.18633">
        <ele>2253.4</ele>
        <time>2026-07-15T08:28:11Z</time>
      </trkpt>
      <trkpt lat="42.87764" lon="-0.18633">
        <ele>2253.4</ele>
        <time>2026-07-15T08:28:11Z</time>
      </trkpt>
      <trkpt lat="42.87764" lon="-0.18631">
        <ele>2253.4</ele>
        <time>2026-07-15T08:28:12Z</time>
      </trkpt>
      <trkpt lat="42.87764" lon="-0.18631">
        <ele>2252.4</ele>
        <time>2026-07-15T08:28:13Z</time>
      </trkpt>
      <trkpt lat="42.87764" lon="-0.1863">
        <ele>2252.4</ele>
        <time>2026-07-15T08:28:13Z</time>
      </trkpt>
      <trkpt lat="42.87764" lon="-0.18629">
        <ele>2252.4</ele>
        <time>2026-07-15T08:28:14Z</time>
      </trkpt>
      <trkpt lat="42.87764" lon="-0.18628">
        <ele>2252.4</ele>
        <time>2026-07-15T08:28:15Z</time>
      </trkpt>
      <trkpt lat="42.87764" lon="-0.18628">
        <ele>2252.4</ele>
        <time>2026-07-15T08:28:15Z</time>
      </trkpt>
      <trkpt lat="42.87764" lon="-0.18627">
        <ele>2252.4</ele>
        <time>2026-07-15T08:28:16Z</time>
      </trkpt>
      <trkpt lat="42.87764" lon="-0.18626">
        <ele>2252.4</ele>
        <time>2026-07-15T08:28:17Z</time>
      </trkpt>
      <trkpt lat="42.87764" lon="-0.18626">
        <ele>2252.4</ele>
        <time>2026-07-15T08:28:18Z</time>
      </trkpt>
      <trkpt lat="42.87764" lon="-0.18625">
        <ele>2252.4</ele>
        <time>2026-07-15T08:28:18Z</time>
      </trkpt>
      <trkpt lat="42.87763" lon="-0.18625">
        <ele>2252.4</ele>
        <time>2026-07-15T08:28:19Z</time>
      </trkpt>
      <trkpt lat="42.87763" lon="-0.18624">
        <ele>2252.4</ele>
        <time>2026-07-15T08:28:20Z</time>
      </trkpt>
      <trkpt lat="42.87763" lon="-0.18624">
        <ele>2252.4</ele>
        <time>2026-07-15T08:28:20Z</time>
      </trkpt>
      <trkpt lat="42.87763" lon="-0.18623">
        <ele>2253.4</ele>
        <time>2026-07-15T08:28:21Z</time>
      </trkpt>
      <trkpt lat="42.87764" lon="-0.18622">
        <ele>2253.4</ele>
        <time>2026-07-15T08:28:22Z</time>
      </trkpt>
      <trkpt lat="42.87764" lon="-0.18622">
        <ele>2253.4</ele>
        <time>2026-07-15T08:28:23Z</time>
      </trkpt>
      <trkpt lat="42.87764" lon="-0.18621">
        <ele>2253.4</ele>
        <time>2026-07-15T08:28:23Z</time>
      </trkpt>
      <trkpt lat="42.87764" lon="-0.1862">
        <ele>2253.4</ele>
        <time>2026-07-15T08:28:24Z</time>
      </trkpt>
      <trkpt lat="42.87764" lon="-0.1862">
        <ele>2253.4</ele>
        <time>2026-07-15T08:28:25Z</time>
      </trkpt>
      <trkpt lat="42.87764" lon="-0.18619">
        <ele>2253.4</ele>
        <time>2026-07-15T08:28:25Z</time>
      </trkpt>
      <trkpt lat="42.87764" lon="-0.18618">
        <ele>2253.4</ele>
        <time>2026-07-15T08:28:26Z</time>
      </trkpt>
      <trkpt lat="42.87763" lon="-0.18617">
        <ele>2254.4</ele>
        <time>2026-07-15T08:28:27Z</time>
      </trkpt>
      <trkpt lat="42.87763" lon="-0.18617">
        <ele>2254.4</ele>
        <time>2026-07-15T08:28:27Z</time>
      </trkpt>
      <trkpt lat="42.87763" lon="-0.18616">
        <ele>2254.4</ele>
        <time>2026-07-15T08:28:28Z</time>
      </trkpt>
      <trkpt lat="42.87763" lon="-0.18615">
        <ele>2254.4</ele>
        <time>2026-07-15T08:28:29Z</time>
      </trkpt>
      <trkpt lat="42.87763" lon="-0.18615">
        <ele>2254.4</ele>
        <time>2026-07-15T08:28:29Z</time>
      </trkpt>
      <trkpt lat="42.87763" lon="-0.18615">
        <ele>2254.4</ele>
        <time>2026-07-15T08:28:30Z</time>
      </trkpt>
      <trkpt lat="42.87763" lon="-0.18614">
        <ele>2253.4</ele>
        <time>2026-07-15T08:28:31Z</time>
      </trkpt>
      <trkpt lat="42.87763" lon="-0.18614">
        <ele>2253.4</ele>
        <time>2026-07-15T08:28:31Z</time>
      </trkpt>
      <trkpt lat="42.87763" lon="-0.18612">
        <ele>2253.4</ele>
        <time>2026-07-15T08:28:32Z</time>
      </trkpt>
      <trkpt lat="42.87763" lon="-0.18612">
        <ele>2253.4</ele>
        <time>2026-07-15T08:28:33Z</time>
      </trkpt>
      <trkpt lat="42.87763" lon="-0.18611">
        <ele>2252.4</ele>
        <time>2026-07-15T08:28:33Z</time>
      </trkpt>
      <trkpt lat="42.87763" lon="-0.1861">
        <ele>2252.4</ele>
        <time>2026-07-15T08:28:34Z</time>
      </trkpt>
      <trkpt lat="42.87762" lon="-0.18609">
        <ele>2252.4</ele>
        <time>2026-07-15T08:28:35Z</time>
      </trkpt>
      <trkpt lat="42.87762" lon="-0.18608">
        <ele>2251.4</ele>
        <time>2026-07-15T08:28:35Z</time>
      </trkpt>
      <trkpt lat="42.87762" lon="-0.18608">
        <ele>2251.4</ele>
        <time>2026-07-15T08:28:36Z</time>
      </trkpt>
      <trkpt lat="42.87761" lon="-0.18607">
        <ele>2251.4</ele>
        <time>2026-07-15T08:28:37Z</time>
      </trkpt>
      <trkpt lat="42.87761" lon="-0.18606">
        <ele>2252.4</ele>
        <time>2026-07-15T08:28:37Z</time>
      </trkpt>
      <trkpt lat="42.87761" lon="-0.18605">
        <ele>2251.4</ele>
        <time>2026-07-15T08:28:38Z</time>
      </trkpt>
      <trkpt lat="42.8776" lon="-0.18604">
        <ele>2251.4</ele>
        <time>2026-07-15T08:28:39Z</time>
      </trkpt>
      <trkpt lat="42.8776" lon="-0.18604">
        <ele>2251.4</ele>
        <time>2026-07-15T08:28:40Z</time>
      </trkpt>
      <trkpt lat="42.8776" lon="-0.18603">
        <ele>2251.4</ele>
        <time>2026-07-15T08:28:40Z</time>
      </trkpt>
      <trkpt lat="42.8776" lon="-0.18602">
        <ele>2251.4</ele>
        <time>2026-07-15T08:28:41Z</time>
      </trkpt>
      <trkpt lat="42.8776" lon="-0.18601">
        <ele>2251.4</ele>
        <time>2026-07-15T08:28:42Z</time>
      </trkpt>
      <trkpt lat="42.87759" lon="-0.186">
        <ele>2251.4</ele>
        <time>2026-07-15T08:28:42Z</time>
      </trkpt>
      <trkpt lat="42.87759" lon="-0.186">
        <ele>2251.4</ele>
        <time>2026-07-15T08:28:43Z</time>
      </trkpt>
      <trkpt lat="42.87759" lon="-0.18599">
        <ele>2251.4</ele>
        <time>2026-07-15T08:28:44Z</time>
      </trkpt>
      <trkpt lat="42.87758" lon="-0.18599">
        <ele>2251.4</ele>
        <time>2026-07-15T08:28:44Z</time>
      </trkpt>
      <trkpt lat="42.87758" lon="-0.18598">
        <ele>2251.4</ele>
        <time>2026-07-15T08:28:45Z</time>
      </trkpt>
      <trkpt lat="42.87758" lon="-0.18597">
        <ele>2251.4</ele>
        <time>2026-07-15T08:28:46Z</time>
      </trkpt>
      <trkpt lat="42.87757" lon="-0.18597">
        <ele>2251.4</ele>
        <time>2026-07-15T08:28:46Z</time>
      </trkpt>
      <trkpt lat="42.87757" lon="-0.18596">
        <ele>2251.4</ele>
        <time>2026-07-15T08:28:47Z</time>
      </trkpt>
      <trkpt lat="42.87757" lon="-0.18595">
        <ele>2250.4</ele>
        <time>2026-07-15T08:28:47Z</time>
      </trkpt>
      <trkpt lat="42.87757" lon="-0.18595">
        <ele>2250.4</ele>
        <time>2026-07-15T08:28:48Z</time>
      </trkpt>
      <trkpt lat="42.87756" lon="-0.18594">
        <ele>2250.4</ele>
        <time>2026-07-15T08:28:49Z</time>
      </trkpt>
      <trkpt lat="42.87756" lon="-0.18593">
        <ele>2250.4</ele>
        <time>2026-07-15T08:28:49Z</time>
      </trkpt>
      <trkpt lat="42.87756" lon="-0.18593">
        <ele>2250.4</ele>
        <time>2026-07-15T08:28:50Z</time>
      </trkpt>
      <trkpt lat="42.87755" lon="-0.18592">
        <ele>2250.4</ele>
        <time>2026-07-15T08:28:51Z</time>
      </trkpt>
      <trkpt lat="42.87755" lon="-0.18591">
        <ele>2250.4</ele>
        <time>2026-07-15T08:28:51Z</time>
      </trkpt>
      <trkpt lat="42.87755" lon="-0.1859">
        <ele>2250.4</ele>
        <time>2026-07-15T08:28:52Z</time>
      </trkpt>
      <trkpt lat="42.87755" lon="-0.1859">
        <ele>2250.4</ele>
        <time>2026-07-15T08:28:53Z</time>
      </trkpt>
      <trkpt lat="42.87755" lon="-0.18589">
        <ele>2250.4</ele>
        <time>2026-07-15T08:28:53Z</time>
      </trkpt>
      <trkpt lat="42.87755" lon="-0.18588">
        <ele>2250.4</ele>
        <time>2026-07-15T08:28:54Z</time>
      </trkpt>
      <trkpt lat="42.87755" lon="-0.18587">
        <ele>2250.4</ele>
        <time>2026-07-15T08:28:55Z</time>
      </trkpt>
      <trkpt lat="42.87755" lon="-0.18586">
        <ele>2250.4</ele>
        <time>2026-07-15T08:28:55Z</time>
      </trkpt>
      <trkpt lat="42.87754" lon="-0.18585">
        <ele>2250.4</ele>
        <time>2026-07-15T08:28:56Z</time>
      </trkpt>
      <trkpt lat="42.87755" lon="-0.18584">
        <ele>2251.4</ele>
        <time>2026-07-15T08:28:57Z</time>
      </trkpt>
      <trkpt lat="42.87755" lon="-0.18584">
        <ele>2251.4</ele>
        <time>2026-07-15T08:28:57Z</time>
      </trkpt>
      <trkpt lat="42.87755" lon="-0.18583">
        <ele>2251.4</ele>
        <time>2026-07-15T08:28:58Z</time>
      </trkpt>
      <trkpt lat="42.87756" lon="-0.18582">
        <ele>2251.4</ele>
        <time>2026-07-15T08:28:59Z</time>
      </trkpt>
      <trkpt lat="42.87756" lon="-0.18581">
        <ele>2251.4</ele>
        <time>2026-07-15T08:28:59Z</time>
      </trkpt>
      <trkpt lat="42.87756" lon="-0.1858">
        <ele>2252.4</ele>
        <time>2026-07-15T08:29:00Z</time>
      </trkpt>
      <trkpt lat="42.87756" lon="-0.18579">
        <ele>2252.4</ele>
        <time>2026-07-15T08:29:01Z</time>
      </trkpt>
      <trkpt lat="42.87757" lon="-0.18579">
        <ele>2251.4</ele>
        <time>2026-07-15T08:29:02Z</time>
      </trkpt>
      <trkpt lat="42.87757" lon="-0.18578">
        <ele>2252.4</ele>
        <time>2026-07-15T08:29:02Z</time>
      </trkpt>
      <trkpt lat="42.87757" lon="-0.18577">
        <ele>2252.4</ele>
        <time>2026-07-15T08:29:03Z</time>
      </trkpt>
      <trkpt lat="42.87758" lon="-0.18576">
        <ele>2251.4</ele>
        <time>2026-07-15T08:29:04Z</time>
      </trkpt>
      <trkpt lat="42.87758" lon="-0.18575">
        <ele>2252.4</ele>
        <time>2026-07-15T08:29:04Z</time>
      </trkpt>
      <trkpt lat="42.87758" lon="-0.18574">
        <ele>2252.4</ele>
        <time>2026-07-15T08:29:05Z</time>
      </trkpt>
      <trkpt lat="42.87759" lon="-0.18573">
        <ele>2252.4</ele>
        <time>2026-07-15T08:29:06Z</time>
      </trkpt>
      <trkpt lat="42.87759" lon="-0.18572">
        <ele>2253.4</ele>
        <time>2026-07-15T08:29:07Z</time>
      </trkpt>
      <trkpt lat="42.8776" lon="-0.18571">
        <ele>2253.4</ele>
        <time>2026-07-15T08:29:07Z</time>
      </trkpt>
      <trkpt lat="42.8776" lon="-0.1857">
        <ele>2253.4</ele>
        <time>2026-07-15T08:29:08Z</time>
      </trkpt>
      <trkpt lat="42.8776" lon="-0.18569">
        <ele>2253.4</ele>
        <time>2026-07-15T08:29:09Z</time>
      </trkpt>
      <trkpt lat="42.87761" lon="-0.18569">
        <ele>2253.4</ele>
        <time>2026-07-15T08:29:10Z</time>
      </trkpt>
      <trkpt lat="42.87761" lon="-0.18568">
        <ele>2254.4</ele>
        <time>2026-07-15T08:29:10Z</time>
      </trkpt>
      <trkpt lat="42.87761" lon="-0.18567">
        <ele>2254.4</ele>
        <time>2026-07-15T08:29:11Z</time>
      </trkpt>
      <trkpt lat="42.87761" lon="-0.18566">
        <ele>2254.4</ele>
        <time>2026-07-15T08:29:12Z</time>
      </trkpt>
      <trkpt lat="42.87761" lon="-0.18566">
        <ele>2254.4</ele>
        <time>2026-07-15T08:29:13Z</time>
      </trkpt>
      <trkpt lat="42.87762" lon="-0.18565">
        <ele>2254.4</ele>
        <time>2026-07-15T08:29:13Z</time>
      </trkpt>
      <trkpt lat="42.87762" lon="-0.18564">
        <ele>2254.4</ele>
        <time>2026-07-15T08:29:14Z</time>
      </trkpt>
      <trkpt lat="42.87762" lon="-0.18563">
        <ele>2254.4</ele>
        <time>2026-07-15T08:29:15Z</time>
      </trkpt>
      <trkpt lat="42.87763" lon="-0.18563">
        <ele>2254.4</ele>
        <time>2026-07-15T08:29:15Z</time>
      </trkpt>
      <trkpt lat="42.87763" lon="-0.18562">
        <ele>2254.4</ele>
        <time>2026-07-15T08:29:16Z</time>
      </trkpt>
      <trkpt lat="42.87764" lon="-0.18561">
        <ele>2254.4</ele>
        <time>2026-07-15T08:29:17Z</time>
      </trkpt>
      <trkpt lat="42.87764" lon="-0.1856">
        <ele>2254.4</ele>
        <time>2026-07-15T08:29:18Z</time>
      </trkpt>
      <trkpt lat="42.87764" lon="-0.18559">
        <ele>2254.4</ele>
        <time>2026-07-15T08:29:19Z</time>
      </trkpt>
      <trkpt lat="42.87764" lon="-0.18559">
        <ele>2254.4</ele>
        <time>2026-07-15T08:29:20Z</time>
      </trkpt>
      <trkpt lat="42.87764" lon="-0.18559">
        <ele>2255.4</ele>
        <time>2026-07-15T08:29:20Z</time>
      </trkpt>
      <trkpt lat="42.87764" lon="-0.18557">
        <ele>2255.4</ele>
        <time>2026-07-15T08:29:21Z</time>
      </trkpt>
      <trkpt lat="42.87764" lon="-0.18557">
        <ele>2255.4</ele>
        <time>2026-07-15T08:29:22Z</time>
      </trkpt>
      <trkpt lat="42.87764" lon="-0.18556">
        <ele>2255.4</ele>
        <time>2026-07-15T08:29:22Z</time>
      </trkpt>
      <trkpt lat="42.87764" lon="-0.18555">
        <ele>2255.4</ele>
        <time>2026-07-15T08:29:23Z</time>
      </trkpt>
      <trkpt lat="42.87764" lon="-0.18555">
        <ele>2256.4</ele>
        <time>2026-07-15T08:29:24Z</time>
      </trkpt>
      <trkpt lat="42.87764" lon="-0.18554">
        <ele>2256.4</ele>
        <time>2026-07-15T08:29:24Z</time>
      </trkpt>
      <trkpt lat="42.87765" lon="-0.18554">
        <ele>2256.4</ele>
        <time>2026-07-15T08:29:25Z</time>
      </trkpt>
      <trkpt lat="42.87765" lon="-0.18553">
        <ele>2256.4</ele>
        <time>2026-07-15T08:29:26Z</time>
      </trkpt>
      <trkpt lat="42.87765" lon="-0.18553">
        <ele>2257.4</ele>
        <time>2026-07-15T08:29:26Z</time>
      </trkpt>
      <trkpt lat="42.87766" lon="-0.18552">
        <ele>2257.4</ele>
        <time>2026-07-15T08:29:27Z</time>
      </trkpt>
      <trkpt lat="42.87766" lon="-0.18551">
        <ele>2257.4</ele>
        <time>2026-07-15T08:29:28Z</time>
      </trkpt>
      <trkpt lat="42.87767" lon="-0.18551">
        <ele>2257.4</ele>
        <time>2026-07-15T08:29:29Z</time>
      </trkpt>
      <trkpt lat="42.87767" lon="-0.1855">
        <ele>2258.4</ele>
        <time>2026-07-15T08:29:30Z</time>
      </trkpt>
      <trkpt lat="42.87767" lon="-0.1855">
        <ele>2258.4</ele>
        <time>2026-07-15T08:29:30Z</time>
      </trkpt>
      <trkpt lat="42.87767" lon="-0.18549">
        <ele>2258.4</ele>
        <time>2026-07-15T08:29:31Z</time>
      </trkpt>
      <trkpt lat="42.87767" lon="-0.18548">
        <ele>2258.4</ele>
        <time>2026-07-15T08:29:32Z</time>
      </trkpt>
      <trkpt lat="42.87768" lon="-0.18548">
        <ele>2257.4</ele>
        <time>2026-07-15T08:29:33Z</time>
      </trkpt>
      <trkpt lat="42.87768" lon="-0.18547">
        <ele>2258.4</ele>
        <time>2026-07-15T08:29:34Z</time>
      </trkpt>
      <trkpt lat="42.87768" lon="-0.18547">
        <ele>2258.4</ele>
        <time>2026-07-15T08:29:34Z</time>
      </trkpt>
      <trkpt lat="42.87768" lon="-0.18546">
        <ele>2257.4</ele>
        <time>2026-07-15T08:29:35Z</time>
      </trkpt>
      <trkpt lat="42.87768" lon="-0.18546">
        <ele>2257.4</ele>
        <time>2026-07-15T08:29:36Z</time>
      </trkpt>
      <trkpt lat="42.87768" lon="-0.18546">
        <ele>2258.4</ele>
        <time>2026-07-15T08:29:37Z</time>
      </trkpt>
      <trkpt lat="42.87768" lon="-0.18546">
        <ele>2258.4</ele>
        <time>2026-07-15T08:29:38Z</time>
      </trkpt>
      <trkpt lat="42.87768" lon="-0.18546">
        <ele>2258.4</ele>
        <time>2026-07-15T08:29:39Z</time>
      </trkpt>
      <trkpt lat="42.87768" lon="-0.18546">
        <ele>2258.4</ele>
        <time>2026-07-15T08:29:40Z</time>
      </trkpt>
      <trkpt lat="42.87768" lon="-0.18546">
        <ele>2258.4</ele>
        <time>2026-07-15T08:29:41Z</time>
      </trkpt>
      <trkpt lat="42.87768" lon="-0.18546">
        <ele>2258.4</ele>
        <time>2026-07-15T08:29:42Z</time>
      </trkpt>
      <trkpt lat="42.87768" lon="-0.18546">
        <ele>2259.4</ele>
        <time>2026-07-15T08:29:43Z</time>
      </trkpt>
      <trkpt lat="42.87768" lon="-0.18546">
        <ele>2257.4</ele>
        <time>2026-07-15T08:29:44Z</time>
      </trkpt>
      <trkpt lat="42.87768" lon="-0.18546">
        <ele>2257.4</ele>
        <time>2026-07-15T08:29:45Z</time>
      </trkpt>
      <trkpt lat="42.87769" lon="-0.18546">
        <ele>2257.4</ele>
        <time>2026-07-15T08:29:46Z</time>
      </trkpt>
      <trkpt lat="42.87769" lon="-0.18546">
        <ele>2257.4</ele>
        <time>2026-07-15T08:29:47Z</time>
      </trkpt>
      <trkpt lat="42.87769" lon="-0.18547">
        <ele>2257.4</ele>
        <time>2026-07-15T08:29:48Z</time>
      </trkpt>
      <trkpt lat="42.8777" lon="-0.18547">
        <ele>2257.4</ele>
        <time>2026-07-15T08:29:49Z</time>
      </trkpt>
      <trkpt lat="42.8777" lon="-0.18547">
        <ele>2257.4</ele>
        <time>2026-07-15T08:29:50Z</time>
      </trkpt>
      <trkpt lat="42.87771" lon="-0.18547">
        <ele>2257.4</ele>
        <time>2026-07-15T08:29:50Z</time>
      </trkpt>
      <trkpt lat="42.87771" lon="-0.18548">
        <ele>2257.4</ele>
        <time>2026-07-15T08:29:51Z</time>
      </trkpt>
      <trkpt lat="42.87772" lon="-0.18548">
        <ele>2257.4</ele>
        <time>2026-07-15T08:29:52Z</time>
      </trkpt>
      <trkpt lat="42.87773" lon="-0.18548">
        <ele>2258.4</ele>
        <time>2026-07-15T08:29:53Z</time>
      </trkpt>
      <trkpt lat="42.87774" lon="-0.18547">
        <ele>2258.4</ele>
        <time>2026-07-15T08:29:54Z</time>
      </trkpt>
      <trkpt lat="42.87774" lon="-0.18547">
        <ele>2258.4</ele>
        <time>2026-07-15T08:29:55Z</time>
      </trkpt>
      <trkpt lat="42.87775" lon="-0.18547">
        <ele>2258.4</ele>
        <time>2026-07-15T08:29:56Z</time>
      </trkpt>
      <trkpt lat="42.87774" lon="-0.18547">
        <ele>2258.4</ele>
        <time>2026-07-15T08:29:57Z</time>
      </trkpt>
      <trkpt lat="42.87774" lon="-0.18548">
        <ele>2258.4</ele>
        <time>2026-07-15T08:29:58Z</time>
      </trkpt>
      <trkpt lat="42.87774" lon="-0.18548">
        <ele>2258.4</ele>
        <time>2026-07-15T08:29:59Z</time>
      </trkpt>
      <trkpt lat="42.87774" lon="-0.18548">
        <ele>2258.4</ele>
        <time>2026-07-15T08:30:00Z</time>
      </trkpt>
      <trkpt lat="42.87775" lon="-0.18548">
        <ele>2258.4</ele>
        <time>2026-07-15T08:30:01Z</time>
      </trkpt>
      <trkpt lat="42.87775" lon="-0.18548">
        <ele>2258.4</ele>
        <time>2026-07-15T08:30:02Z</time>
      </trkpt>
      <trkpt lat="42.87775" lon="-0.18548">
        <ele>2258.4</ele>
        <time>2026-07-15T08:30:03Z</time>
      </trkpt>
      <trkpt lat="42.87775" lon="-0.18548">
        <ele>2258.4</ele>
        <time>2026-07-15T08:30:04Z</time>
      </trkpt>
      <trkpt lat="42.87775" lon="-0.18548">
        <ele>2258.4</ele>
        <time>2026-07-15T08:30:05Z</time>
      </trkpt>
      <trkpt lat="42.87775" lon="-0.18548">
        <ele>2257.4</ele>
        <time>2026-07-15T08:30:06Z</time>
      </trkpt>
      <trkpt lat="42.87775" lon="-0.18548">
        <ele>2257.4</ele>
        <time>2026-07-15T08:30:07Z</time>
      </trkpt>
      <trkpt lat="42.87775" lon="-0.18548">
        <ele>2256.4</ele>
        <time>2026-07-15T08:30:08Z</time>
      </trkpt>
      <trkpt lat="42.87775" lon="-0.18547">
        <ele>2256.4</ele>
        <time>2026-07-15T08:30:09Z</time>
      </trkpt>
      <trkpt lat="42.87775" lon="-0.18547">
        <ele>2257.4</ele>
        <time>2026-07-15T08:30:10Z</time>
      </trkpt>
      <trkpt lat="42.87775" lon="-0.18547">
        <ele>2258.4</ele>
        <time>2026-07-15T08:30:11Z</time>
      </trkpt>
      <trkpt lat="42.87775" lon="-0.18547">
        <ele>2258.4</ele>
        <time>2026-07-15T08:30:12Z</time>
      </trkpt>
      <trkpt lat="42.87775" lon="-0.18547">
        <ele>2258.4</ele>
        <time>2026-07-15T08:30:12Z</time>
      </trkpt>
      <trkpt lat="42.87775" lon="-0.18547">
        <ele>2258.4</ele>
        <time>2026-07-15T08:30:13Z</time>
      </trkpt>
      <trkpt lat="42.87775" lon="-0.18547">
        <ele>2258.4</ele>
        <time>2026-07-15T08:30:14Z</time>
      </trkpt>
      <trkpt lat="42.87775" lon="-0.18547">
        <ele>2258.4</ele>
        <time>2026-07-15T08:30:15Z</time>
      </trkpt>
      <trkpt lat="42.87775" lon="-0.18547">
        <ele>2259.4</ele>
        <time>2026-07-15T08:30:16Z</time>
      </trkpt>
      <trkpt lat="42.87775" lon="-0.18547">
        <ele>2258.4</ele>
        <time>2026-07-15T08:30:17Z</time>
      </trkpt>
      <trkpt lat="42.87775" lon="-0.18547">
        <ele>2258.4</ele>
        <time>2026-07-15T08:30:18Z</time>
      </trkpt>
      <trkpt lat="42.87775" lon="-0.18547">
        <ele>2258.4</ele>
        <time>2026-07-15T08:30:19Z</time>
      </trkpt>
      <trkpt lat="42.87775" lon="-0.18547">
        <ele>2258.4</ele>
        <time>2026-07-15T08:30:20Z</time>
      </trkpt>
      <trkpt lat="42.87775" lon="-0.18547">
        <ele>2258.4</ele>
        <time>2026-07-15T08:30:21Z</time>
      </trkpt>
      <trkpt lat="42.87775" lon="-0.18547">
        <ele>2258.4</ele>
        <time>2026-07-15T08:30:22Z</time>
      </trkpt>
      <trkpt lat="42.87775" lon="-0.18546">
        <ele>2258.4</ele>
        <time>2026-07-15T08:30:23Z</time>
      </trkpt>
      <trkpt lat="42.87775" lon="-0.18546">
        <ele>2258.4</ele>
        <time>2026-07-15T08:30:24Z</time>
      </trkpt>
      <trkpt lat="42.87775" lon="-0.18546">
        <ele>2258.4</ele>
        <time>2026-07-15T08:30:25Z</time>
      </trkpt>
      <trkpt lat="42.87775" lon="-0.18546">
        <ele>2258.4</ele>
        <time>2026-07-15T08:30:26Z</time>
      </trkpt>
      <trkpt lat="42.87775" lon="-0.18546">
        <ele>2258.4</ele>
        <time>2026-07-15T08:30:27Z</time>
      </trkpt>
      <trkpt lat="42.87775" lon="-0.18546">
        <ele>2258.4</ele>
        <time>2026-07-15T08:30:28Z</time>
      </trkpt>
      <trkpt lat="42.87775" lon="-0.18546">
        <ele>2258.4</ele>
        <time>2026-07-15T08:30:29Z</time>
      </trkpt>
      <trkpt lat="42.87775" lon="-0.18546">
        <ele>2258.4</ele>
        <time>2026-07-15T08:30:30Z</time>
      </trkpt>
      <trkpt lat="42.87775" lon="-0.18546">
        <ele>2258.4</ele>
        <time>2026-07-15T08:30:31Z</time>
      </trkpt>
      <trkpt lat="42.87775" lon="-0.18546">
        <ele>2258.4</ele>
        <time>2026-07-15T08:30:32Z</time>
      </trkpt>
      <trkpt lat="42.87775" lon="-0.18546">
        <ele>2258.4</ele>
        <time>2026-07-15T08:30:33Z</time>
      </trkpt>
      <trkpt lat="42.87775" lon="-0.18546">
        <ele>2258.4</ele>
        <time>2026-07-15T08:30:34Z</time>
      </trkpt>
      <trkpt lat="42.87775" lon="-0.18546">
        <ele>2258.4</ele>
        <time>2026-07-15T08:30:35Z</time>
      </trkpt>
      <trkpt lat="42.87775" lon="-0.18546">
        <ele>2258.4</ele>
        <time>2026-07-15T08:30:36Z</time>
      </trkpt>
      <trkpt lat="42.87775" lon="-0.18546">
        <ele>2258.4</ele>
        <time>2026-07-15T08:30:37Z</time>
      </trkpt>
      <trkpt lat="42.87775" lon="-0.18546">
        <ele>2258.4</ele>
        <time>2026-07-15T08:30:38Z</time>
      </trkpt>
      <trkpt lat="42.87775" lon="-0.18546">
        <ele>2258.4</ele>
        <time>2026-07-15T08:30:39Z</time>
      </trkpt>
      <trkpt lat="42.87775" lon="-0.18546">
        <ele>2258.4</ele>
        <time>2026-07-15T08:30:40Z</time>
      </trkpt>
      <trkpt lat="42.87775" lon="-0.18546">
        <ele>2258.4</ele>
        <time>2026-07-15T08:30:41Z</time>
      </trkpt>
      <trkpt lat="42.87775" lon="-0.18546">
        <ele>2258.4</ele>
        <time>2026-07-15T08:30:42Z</time>
      </trkpt>
      <trkpt lat="42.87775" lon="-0.18546">
        <ele>2258.4</ele>
        <time>2026-07-15T08:30:43Z</time>
      </trkpt>
      <trkpt lat="42.87775" lon="-0.18546">
        <ele>2258.4</ele>
        <time>2026-07-15T08:30:44Z</time>
      </trkpt>
      <trkpt lat="42.87775" lon="-0.18546">
        <ele>2258.4</ele>
        <time>2026-07-15T08:30:45Z</time>
      </trkpt>
      <trkpt lat="42.87775" lon="-0.18546">
        <ele>2258.4</ele>
        <time>2026-07-15T08:30:46Z</time>
      </trkpt>
      <trkpt lat="42.87775" lon="-0.18546">
        <ele>2258.4</ele>
        <time>2026-07-15T08:30:47Z</time>
      </trkpt>
      <trkpt lat="42.87775" lon="-0.18546">
        <ele>2258.4</ele>
        <time>2026-07-15T08:30:48Z</time>
      </trkpt>
      <trkpt lat="42.87775" lon="-0.18546">
        <ele>2258.4</ele>
        <time>2026-07-15T08:30:49Z</time>
      </trkpt>
      <trkpt lat="42.87775" lon="-0.18546">
        <ele>2258.4</ele>
        <time>2026-07-15T08:30:50Z</time>
      </trkpt>
      <trkpt lat="42.87775" lon="-0.18545">
        <ele>2258.4</ele>
        <time>2026-07-15T08:30:51Z</time>
      </trkpt>
      <trkpt lat="42.87775" lon="-0.18546">
        <ele>2258.4</ele>
        <time>2026-07-15T08:30:52Z</time>
      </trkpt>
      <trkpt lat="42.87774" lon="-0.18546">
        <ele>2258.4</ele>
        <time>2026-07-15T08:30:53Z</time>
      </trkpt>
      <trkpt lat="42.87774" lon="-0.18546">
        <ele>2258.4</ele>
        <time>2026-07-15T08:30:54Z</time>
      </trkpt>
      <trkpt lat="42.87774" lon="-0.18546">
        <ele>2258.4</ele>
        <time>2026-07-15T08:30:55Z</time>
      </trkpt>
      <trkpt lat="42.87774" lon="-0.18546">
        <ele>2258.4</ele>
        <time>2026-07-15T08:30:56Z</time>
      </trkpt>
      <trkpt lat="42.87774" lon="-0.18546">
        <ele>2258.4</ele>
        <time>2026-07-15T08:30:57Z</time>
      </trkpt>
      <trkpt lat="42.87774" lon="-0.18546">
        <ele>2258.4</ele>
        <time>2026-07-15T08:30:58Z</time>
      </trkpt>
      <trkpt lat="42.87774" lon="-0.18546">
        <ele>2258.4</ele>
        <time>2026-07-15T08:30:59Z</time>
      </trkpt>
      <trkpt lat="42.87774" lon="-0.18546">
        <ele>2258.4</ele>
        <time>2026-07-15T08:31:00Z</time>
      </trkpt>
      <trkpt lat="42.87774" lon="-0.18546">
        <ele>2257.4</ele>
        <time>2026-07-15T08:31:01Z</time>
      </trkpt>
      <trkpt lat="42.87774" lon="-0.18546">
        <ele>2257.4</ele>
        <time>2026-07-15T08:31:02Z</time>
      </trkpt>
      <trkpt lat="42.87774" lon="-0.18546">
        <ele>2257.4</ele>
        <time>2026-07-15T08:31:03Z</time>
      </trkpt>
      <trkpt lat="42.87774" lon="-0.18546">
        <ele>2257.4</ele>
        <time>2026-07-15T08:31:04Z</time>
      </trkpt>
      <trkpt lat="42.87774" lon="-0.18546">
        <ele>2256.4</ele>
        <time>2026-07-15T08:31:05Z</time>
      </trkpt>
      <trkpt lat="42.87774" lon="-0.18545">
        <ele>2256.4</ele>
        <time>2026-07-15T08:31:06Z</time>
      </trkpt>
      <trkpt lat="42.87774" lon="-0.18545">
        <ele>2256.4</ele>
        <time>2026-07-15T08:31:07Z</time>
      </trkpt>
      <trkpt lat="42.87774" lon="-0.18545">
        <ele>2256.4</ele>
        <time>2026-07-15T08:31:08Z</time>
      </trkpt>
      <trkpt lat="42.87774" lon="-0.18545">
        <ele>2256.4</ele>
        <time>2026-07-15T08:31:09Z</time>
      </trkpt>
      <trkpt lat="42.87774" lon="-0.18545">
        <ele>2256.4</ele>
        <time>2026-07-15T08:31:10Z</time>
      </trkpt>
      <trkpt lat="42.87774" lon="-0.18545">
        <ele>2256.4</ele>
        <time>2026-07-15T08:31:11Z</time>
      </trkpt>
      <trkpt lat="42.87775" lon="-0.18544">
        <ele>2256.4</ele>
        <time>2026-07-15T08:31:12Z</time>
      </trkpt>
      <trkpt lat="42.87775" lon="-0.18544">
        <ele>2256.4</ele>
        <time>2026-07-15T08:31:13Z</time>
      </trkpt>
      <trkpt lat="42.87775" lon="-0.18544">
        <ele>2256.4</ele>
        <time>2026-07-15T08:31:14Z</time>
      </trkpt>
      <trkpt lat="42.87775" lon="-0.18544">
        <ele>2256.4</ele>
        <time>2026-07-15T08:31:15Z</time>
      </trkpt>
      <trkpt lat="42.87775" lon="-0.18544">
        <ele>2256.4</ele>
        <time>2026-07-15T08:31:16Z</time>
      </trkpt>
      <trkpt lat="42.87775" lon="-0.18544">
        <ele>2256.4</ele>
        <time>2026-07-15T08:31:17Z</time>
      </trkpt>
      <trkpt lat="42.87775" lon="-0.18544">
        <ele>2255.4</ele>
        <time>2026-07-15T08:31:18Z</time>
      </trkpt>
      <trkpt lat="42.87775" lon="-0.18544">
        <ele>2255.4</ele>
        <time>2026-07-15T08:31:19Z</time>
      </trkpt>
      <trkpt lat="42.87775" lon="-0.18544">
        <ele>2255.4</ele>
        <time>2026-07-15T08:31:20Z</time>
      </trkpt>
      <trkpt lat="42.87775" lon="-0.18544">
        <ele>2255.4</ele>
        <time>2026-07-15T08:31:21Z</time>
      </trkpt>
      <trkpt lat="42.87775" lon="-0.18544">
        <ele>2255.4</ele>
        <time>2026-07-15T08:31:22Z</time>
      </trkpt>
      <trkpt lat="42.87775" lon="-0.18544">
        <ele>2255.4</ele>
        <time>2026-07-15T08:31:23Z</time>
      </trkpt>
      <trkpt lat="42.87775" lon="-0.18544">
        <ele>2255.4</ele>
        <time>2026-07-15T08:31:24Z</time>
      </trkpt>
      <trkpt lat="42.87775" lon="-0.18544">
        <ele>2255.4</ele>
        <time>2026-07-15T08:31:25Z</time>
      </trkpt>
      <trkpt lat="42.87775" lon="-0.18544">
        <ele>2255.4</ele>
        <time>2026-07-15T08:31:26Z</time>
      </trkpt>
      <trkpt lat="42.87775" lon="-0.18544">
        <ele>2255.4</ele>
        <time>2026-07-15T08:31:27Z</time>
      </trkpt>
      <trkpt lat="42.87775" lon="-0.18544">
        <ele>2255.4</ele>
        <time>2026-07-15T08:31:28Z</time>
      </trkpt>
      <trkpt lat="42.87775" lon="-0.18544">
        <ele>2254.4</ele>
        <time>2026-07-15T08:31:29Z</time>
      </trkpt>
      <trkpt lat="42.87775" lon="-0.18544">
        <ele>2254.4</ele>
        <time>2026-07-15T08:31:30Z</time>
      </trkpt>
      <trkpt lat="42.87775" lon="-0.18544">
        <ele>2254.4</ele>
        <time>2026-07-15T08:31:31Z</time>
      </trkpt>
      <trkpt lat="42.87775" lon="-0.18544">
        <ele>2254.4</ele>
        <time>2026-07-15T08:31:32Z</time>
      </trkpt>
      <trkpt lat="42.87775" lon="-0.18544">
        <ele>2254.4</ele>
        <time>2026-07-15T08:31:33Z</time>
      </trkpt>
      <trkpt lat="42.87775" lon="-0.18543">
        <ele>2254.4</ele>
        <time>2026-07-15T08:31:34Z</time>
      </trkpt>
      <trkpt lat="42.87775" lon="-0.18543">
        <ele>2254.4</ele>
        <time>2026-07-15T08:31:35Z</time>
      </trkpt>
      <trkpt lat="42.87775" lon="-0.18543">
        <ele>2254.4</ele>
        <time>2026-07-15T08:31:36Z</time>
      </trkpt>
      <trkpt lat="42.87775" lon="-0.18543">
        <ele>2254.4</ele>
        <time>2026-07-15T08:31:37Z</time>
      </trkpt>
      <trkpt lat="42.87776" lon="-0.18543">
        <ele>2254.4</ele>
        <time>2026-07-15T08:31:38Z</time>
      </trkpt>
      <trkpt lat="42.87776" lon="-0.18543">
        <ele>2254.4</ele>
        <time>2026-07-15T08:31:39Z</time>
      </trkpt>
      <trkpt lat="42.87776" lon="-0.18543">
        <ele>2254.4</ele>
        <time>2026-07-15T08:31:40Z</time>
      </trkpt>
      <trkpt lat="42.87776" lon="-0.18543">
        <ele>2254.4</ele>
        <time>2026-07-15T08:31:41Z</time>
      </trkpt>
      <trkpt lat="42.87776" lon="-0.18543">
        <ele>2254.4</ele>
        <time>2026-07-15T08:31:42Z</time>
      </trkpt>
      <trkpt lat="42.87776" lon="-0.18543">
        <ele>2254.4</ele>
        <time>2026-07-15T08:31:43Z</time>
      </trkpt>
      <trkpt lat="42.87776" lon="-0.18543">
        <ele>2254.4</ele>
        <time>2026-07-15T08:31:44Z</time>
      </trkpt>
      <trkpt lat="42.87776" lon="-0.18543">
        <ele>2254.4</ele>
        <time>2026-07-15T08:31:45Z</time>
      </trkpt>
      <trkpt lat="42.87776" lon="-0.18543">
        <ele>2253.4</ele>
        <time>2026-07-15T08:31:46Z</time>
      </trkpt>
      <trkpt lat="42.87776" lon="-0.18542">
        <ele>2253.4</ele>
        <time>2026-07-15T08:31:47Z</time>
      </trkpt>
      <trkpt lat="42.87776" lon="-0.18543">
        <ele>2254.4</ele>
        <time>2026-07-15T08:31:48Z</time>
      </trkpt>
      <trkpt lat="42.87776" lon="-0.18542">
        <ele>2252.4</ele>
        <time>2026-07-15T08:31:49Z</time>
      </trkpt>
      <trkpt lat="42.87776" lon="-0.18542">
        <ele>2252.4</ele>
        <time>2026-07-15T08:31:50Z</time>
      </trkpt>
      <trkpt lat="42.87776" lon="-0.18543">
        <ele>2252.4</ele>
        <time>2026-07-15T08:31:51Z</time>
      </trkpt>
      <trkpt lat="42.87776" lon="-0.18543">
        <ele>2252.4</ele>
        <time>2026-07-15T08:31:52Z</time>
      </trkpt>
      <trkpt lat="42.87775" lon="-0.18543">
        <ele>2251.4</ele>
        <time>2026-07-15T08:31:53Z</time>
      </trkpt>
      <trkpt lat="42.87775" lon="-0.18543">
        <ele>2251.4</ele>
        <time>2026-07-15T08:31:54Z</time>
      </trkpt>
      <trkpt lat="42.87775" lon="-0.18544">
        <ele>2251.4</ele>
        <time>2026-07-15T08:31:55Z</time>
      </trkpt>
      <trkpt lat="42.87775" lon="-0.18543">
        <ele>2251.4</ele>
        <time>2026-07-15T08:31:55Z</time>
      </trkpt>
      <trkpt lat="42.87775" lon="-0.18543">
        <ele>2251.4</ele>
        <time>2026-07-15T08:31:56Z</time>
      </trkpt>
      <trkpt lat="42.87774" lon="-0.18543">
        <ele>2251.4</ele>
        <time>2026-07-15T08:31:57Z</time>
      </trkpt>
      <trkpt lat="42.87774" lon="-0.18544">
        <ele>2252.4</ele>
        <time>2026-07-15T08:31:58Z</time>
      </trkpt>
      <trkpt lat="42.87774" lon="-0.18544">
        <ele>2252.4</ele>
        <time>2026-07-15T08:31:59Z</time>
      </trkpt>
      <trkpt lat="42.87774" lon="-0.18544">
        <ele>2252.4</ele>
        <time>2026-07-15T08:31:59Z</time>
      </trkpt>
      <trkpt lat="42.87774" lon="-0.18544">
        <ele>2252.4</ele>
        <time>2026-07-15T08:32:00Z</time>
      </trkpt>
      <trkpt lat="42.87774" lon="-0.18544">
        <ele>2252.4</ele>
        <time>2026-07-15T08:32:01Z</time>
      </trkpt>
      <trkpt lat="42.87774" lon="-0.18544">
        <ele>2252.4</ele>
        <time>2026-07-15T08:32:02Z</time>
      </trkpt>
      <trkpt lat="42.87774" lon="-0.18544">
        <ele>2252.4</ele>
        <time>2026-07-15T08:32:03Z</time>
      </trkpt>
      <trkpt lat="42.87774" lon="-0.18544">
        <ele>2252.4</ele>
        <time>2026-07-15T08:32:04Z</time>
      </trkpt>
      <trkpt lat="42.87774" lon="-0.18544">
        <ele>2252.4</ele>
        <time>2026-07-15T08:32:05Z</time>
      </trkpt>
      <trkpt lat="42.87774" lon="-0.18544">
        <ele>2252.4</ele>
        <time>2026-07-15T08:32:06Z</time>
      </trkpt>
      <trkpt lat="42.87774" lon="-0.18544">
        <ele>2252.4</ele>
        <time>2026-07-15T08:32:07Z</time>
      </trkpt>
      <trkpt lat="42.87774" lon="-0.18544">
        <ele>2252.4</ele>
        <time>2026-07-15T08:32:08Z</time>
      </trkpt>
      <trkpt lat="42.87774" lon="-0.18544">
        <ele>2252.4</ele>
        <time>2026-07-15T08:32:09Z</time>
      </trkpt>
      <trkpt lat="42.87774" lon="-0.18544">
        <ele>2252.4</ele>
        <time>2026-07-15T08:32:10Z</time>
      </trkpt>
      <trkpt lat="42.87774" lon="-0.18544">
        <ele>2252.4</ele>
        <time>2026-07-15T08:32:11Z</time>
      </trkpt>
      <trkpt lat="42.87774" lon="-0.18544">
        <ele>2252.4</ele>
        <time>2026-07-15T08:32:12Z</time>
      </trkpt>
      <trkpt lat="42.87774" lon="-0.18544">
        <ele>2252.4</ele>
        <time>2026-07-15T08:32:13Z</time>
      </trkpt>
      <trkpt lat="42.87774" lon="-0.18544">
        <ele>2252.4</ele>
        <time>2026-07-15T08:32:14Z</time>
      </trkpt>
      <trkpt lat="42.87774" lon="-0.18544">
        <ele>2252.4</ele>
        <time>2026-07-15T08:32:15Z</time>
      </trkpt>
      <trkpt lat="42.87774" lon="-0.18544">
        <ele>2252.4</ele>
        <time>2026-07-15T08:32:16Z</time>
      </trkpt>
      <trkpt lat="42.87774" lon="-0.18544">
        <ele>2252.4</ele>
        <time>2026-07-15T08:32:17Z</time>
      </trkpt>
      <trkpt lat="42.87774" lon="-0.18544">
        <ele>2252.4</ele>
        <time>2026-07-15T08:32:18Z</time>
      </trkpt>
      <trkpt lat="42.87774" lon="-0.18544">
        <ele>2252.4</ele>
        <time>2026-07-15T08:32:19Z</time>
      </trkpt>
      <trkpt lat="42.87774" lon="-0.18544">
        <ele>2252.4</ele>
        <time>2026-07-15T08:32:20Z</time>
      </trkpt>
      <trkpt lat="42.87774" lon="-0.18544">
        <ele>2252.4</ele>
        <time>2026-07-15T08:32:21Z</time>
      </trkpt>
      <trkpt lat="42.87774" lon="-0.18544">
        <ele>2252.4</ele>
        <time>2026-07-15T08:32:22Z</time>
      </trkpt>
      <trkpt lat="42.87774" lon="-0.18544">
        <ele>2252.4</ele>
        <time>2026-07-15T08:32:23Z</time>
      </trkpt>
      <trkpt lat="42.87774" lon="-0.18544">
        <ele>2252.4</ele>
        <time>2026-07-15T08:32:24Z</time>
      </trkpt>
      <trkpt lat="42.87774" lon="-0.18544">
        <ele>2252.4</ele>
        <time>2026-07-15T08:32:25Z</time>
      </trkpt>
      <trkpt lat="42.87774" lon="-0.18544">
        <ele>2252.4</ele>
        <time>2026-07-15T08:32:26Z</time>
      </trkpt>
      <trkpt lat="42.87774" lon="-0.18544">
        <ele>2252.4</ele>
        <time>2026-07-15T08:32:27Z</time>
      </trkpt>
      <trkpt lat="42.87774" lon="-0.18544">
        <ele>2252.4</ele>
        <time>2026-07-15T08:32:28Z</time>
      </trkpt>
      <trkpt lat="42.87774" lon="-0.18544">
        <ele>2252.4</ele>
        <time>2026-07-15T08:32:29Z</time>
      </trkpt>
      <trkpt lat="42.87774" lon="-0.18544">
        <ele>2252.4</ele>
        <time>2026-07-15T08:32:30Z</time>
      </trkpt>
      <trkpt lat="42.87774" lon="-0.18544">
        <ele>2252.4</ele>
        <time>2026-07-15T08:32:31Z</time>
      </trkpt>
      <trkpt lat="42.87774" lon="-0.18544">
        <ele>2252.4</ele>
        <time>2026-07-15T08:32:32Z</time>
      </trkpt>
      <trkpt lat="42.87774" lon="-0.18544">
        <ele>2252.4</ele>
        <time>2026-07-15T08:32:33Z</time>
      </trkpt>
      <trkpt lat="42.87774" lon="-0.18544">
        <ele>2252.4</ele>
        <time>2026-07-15T08:32:34Z</time>
      </trkpt>
      <trkpt lat="42.87774" lon="-0.18544">
        <ele>2252.4</ele>
        <time>2026-07-15T08:32:35Z</time>
      </trkpt>
      <trkpt lat="42.87774" lon="-0.18544">
        <ele>2252.4</ele>
        <time>2026-07-15T08:32:36Z</time>
      </trkpt>
      <trkpt lat="42.87774" lon="-0.18544">
        <ele>2252.4</ele>
        <time>2026-07-15T08:32:37Z</time>
      </trkpt>
      <trkpt lat="42.87774" lon="-0.18544">
        <ele>2252.4</ele>
        <time>2026-07-15T08:32:38Z</time>
      </trkpt>
      <trkpt lat="42.87774" lon="-0.18544">
        <ele>2252.4</ele>
        <time>2026-07-15T08:32:39Z</time>
      </trkpt>
      <trkpt lat="42.87774" lon="-0.18544">
        <ele>2252.4</ele>
        <time>2026-07-15T08:32:40Z</time>
      </trkpt>
      <trkpt lat="42.87774" lon="-0.18544">
        <ele>2252.4</ele>
        <time>2026-07-15T08:32:41Z</time>
      </trkpt>
      <trkpt lat="42.87774" lon="-0.18544">
        <ele>2252.4</ele>
        <time>2026-07-15T08:32:42Z</time>
      </trkpt>
      <trkpt lat="42.87774" lon="-0.18544">
        <ele>2252.4</ele>
        <time>2026-07-15T08:32:43Z</time>
      </trkpt>
      <trkpt lat="42.87774" lon="-0.18544">
        <ele>2252.4</ele>
        <time>2026-07-15T08:32:44Z</time>
      </trkpt>
      <trkpt lat="42.87774" lon="-0.18544">
        <ele>2252.4</ele>
        <time>2026-07-15T08:32:45Z</time>
      </trkpt>
      <trkpt lat="42.87774" lon="-0.18544">
        <ele>2252.4</ele>
        <time>2026-07-15T08:32:46Z</time>
      </trkpt>
      <trkpt lat="42.87774" lon="-0.18544">
        <ele>2252.4</ele>
        <time>2026-07-15T08:32:47Z</time>
      </trkpt>
      <trkpt lat="42.87774" lon="-0.18544">
        <ele>2252.4</ele>
        <time>2026-07-15T08:32:48Z</time>
      </trkpt>
      <trkpt lat="42.87774" lon="-0.18544">
        <ele>2252.4</ele>
        <time>2026-07-15T08:32:49Z</time>
      </trkpt>
      <trkpt lat="42.87774" lon="-0.18544">
        <ele>2252.4</ele>
        <time>2026-07-15T08:32:50Z</time>
      </trkpt>
      <trkpt lat="42.87774" lon="-0.18544">
        <ele>2252.4</ele>
        <time>2026-07-15T08:32:51Z</time>
      </trkpt>
      <trkpt lat="42.87774" lon="-0.18544">
        <ele>2252.4</ele>
        <time>2026-07-15T08:32:52Z</time>
      </trkpt>
      <trkpt lat="42.87774" lon="-0.18544">
        <ele>2252.4</ele>
        <time>2026-07-15T08:32:53Z</time>
      </trkpt>
      <trkpt lat="42.87774" lon="-0.18544">
        <ele>2252.4</ele>
        <time>2026-07-15T08:32:54Z</time>
      </trkpt>
      <trkpt lat="42.87774" lon="-0.18544">
        <ele>2252.4</ele>
        <time>2026-07-15T08:32:55Z</time>
      </trkpt>
      <trkpt lat="42.87774" lon="-0.18544">
        <ele>2252.4</ele>
        <time>2026-07-15T08:32:56Z</time>
      </trkpt>
      <trkpt lat="42.87774" lon="-0.18544">
        <ele>2252.4</ele>
        <time>2026-07-15T08:32:57Z</time>
      </trkpt>
      <trkpt lat="42.87774" lon="-0.18544">
        <ele>2252.4</ele>
        <time>2026-07-15T08:32:58Z</time>
      </trkpt>
      <trkpt lat="42.87774" lon="-0.18544">
        <ele>2252.4</ele>
        <time>2026-07-15T08:32:59Z</time>
      </trkpt>
      <trkpt lat="42.87774" lon="-0.18544">
        <ele>2252.4</ele>
        <time>2026-07-15T08:33:00Z</time>
      </trkpt>
      <trkpt lat="42.87774" lon="-0.18544">
        <ele>2252.4</ele>
        <time>2026-07-15T08:33:01Z</time>
      </trkpt>
      <trkpt lat="42.87774" lon="-0.18544">
        <ele>2252.4</ele>
        <time>2026-07-15T08:33:02Z</time>
      </trkpt>
      <trkpt lat="42.87774" lon="-0.18544">
        <ele>2252.4</ele>
        <time>2026-07-15T08:33:03Z</time>
      </trkpt>
      <trkpt lat="42.87774" lon="-0.18544">
        <ele>2252.4</ele>
        <time>2026-07-15T08:33:04Z</time>
      </trkpt>
      <trkpt lat="42.87774" lon="-0.18544">
        <ele>2252.4</ele>
        <time>2026-07-15T08:33:05Z</time>
      </trkpt>
      <trkpt lat="42.87774" lon="-0.18544">
        <ele>2252.4</ele>
        <time>2026-07-15T08:33:06Z</time>
      </trkpt>
      <trkpt lat="42.87774" lon="-0.18544">
        <ele>2252.4</ele>
        <time>2026-07-15T08:33:07Z</time>
      </trkpt>
      <trkpt lat="42.87774" lon="-0.18544">
        <ele>2252.4</ele>
        <time>2026-07-15T08:33:08Z</time>
      </trkpt>
      <trkpt lat="42.87774" lon="-0.18544">
        <ele>2252.4</ele>
        <time>2026-07-15T08:33:09Z</time>
      </trkpt>
      <trkpt lat="42.87774" lon="-0.18544">
        <ele>2252.4</ele>
        <time>2026-07-15T08:33:10Z</time>
      </trkpt>
      <trkpt lat="42.87774" lon="-0.18544">
        <ele>2252.4</ele>
        <time>2026-07-15T08:33:11Z</time>
      </trkpt>
      <trkpt lat="42.87774" lon="-0.18544">
        <ele>2252.4</ele>
        <time>2026-07-15T08:33:12Z</time>
      </trkpt>
      <trkpt lat="42.87774" lon="-0.18544">
        <ele>2252.4</ele>
        <time>2026-07-15T08:33:13Z</time>
      </trkpt>
      <trkpt lat="42.87774" lon="-0.18544">
        <ele>2252.4</ele>
        <time>2026-07-15T08:33:14Z</time>
      </trkpt>
      <trkpt lat="42.87774" lon="-0.18544">
        <ele>2252.4</ele>
        <time>2026-07-15T08:33:15Z</time>
      </trkpt>
      <trkpt lat="42.87774" lon="-0.18544">
        <ele>2252.4</ele>
        <time>2026-07-15T08:33:16Z</time>
      </trkpt>
      <trkpt lat="42.87774" lon="-0.18544">
        <ele>2252.4</ele>
        <time>2026-07-15T08:33:17Z</time>
      </trkpt>
      <trkpt lat="42.87774" lon="-0.18544">
        <ele>2252.4</ele>
        <time>2026-07-15T08:33:18Z</time>
      </trkpt>
      <trkpt lat="42.87774" lon="-0.18544">
        <ele>2252.4</ele>
        <time>2026-07-15T08:33:19Z</time>
      </trkpt>
      <trkpt lat="42.87774" lon="-0.18544">
        <ele>2252.4</ele>
        <time>2026-07-15T08:33:20Z</time>
      </trkpt>
      <trkpt lat="42.87774" lon="-0.18544">
        <ele>2252.4</ele>
        <time>2026-07-15T08:33:21Z</time>
      </trkpt>
      <trkpt lat="42.87774" lon="-0.18544">
        <ele>2252.4</ele>
        <time>2026-07-15T08:33:22Z</time>
      </trkpt>
      <trkpt lat="42.87774" lon="-0.18544">
        <ele>2252.4</ele>
        <time>2026-07-15T08:33:23Z</time>
      </trkpt>
      <trkpt lat="42.87774" lon="-0.18544">
        <ele>2252.4</ele>
        <time>2026-07-15T08:33:24Z</time>
      </trkpt>
      <trkpt lat="42.87774" lon="-0.18544">
        <ele>2252.4</ele>
        <time>2026-07-15T08:33:25Z</time>
      </trkpt>
      <trkpt lat="42.87774" lon="-0.18544">
        <ele>2252.4</ele>
        <time>2026-07-15T08:33:26Z</time>
      </trkpt>
      <trkpt lat="42.87774" lon="-0.18544">
        <ele>2252.4</ele>
        <time>2026-07-15T08:33:27Z</time>
      </trkpt>
      <trkpt lat="42.87774" lon="-0.18544">
        <ele>2252.4</ele>
        <time>2026-07-15T08:33:28Z</time>
      </trkpt>
      <trkpt lat="42.87774" lon="-0.18544">
        <ele>2252.4</ele>
        <time>2026-07-15T08:33:29Z</time>
      </trkpt>
      <trkpt lat="42.87774" lon="-0.18544">
        <ele>2252.4</ele>
        <time>2026-07-15T08:33:30Z</time>
      </trkpt>
      <trkpt lat="42.87774" lon="-0.18544">
        <ele>2252.4</ele>
        <time>2026-07-15T08:33:31Z</time>
      </trkpt>
      <trkpt lat="42.87774" lon="-0.18544">
        <ele>2252.4</ele>
        <time>2026-07-15T08:33:32Z</time>
      </trkpt>
      <trkpt lat="42.87774" lon="-0.18544">
        <ele>2252.4</ele>
        <time>2026-07-15T08:33:33Z</time>
      </trkpt>
      <trkpt lat="42.87774" lon="-0.18544">
        <ele>2252.4</ele>
        <time>2026-07-15T08:33:34Z</time>
      </trkpt>
      <trkpt lat="42.87774" lon="-0.18544">
        <ele>2252.4</ele>
        <time>2026-07-15T08:33:35Z</time>
      </trkpt>
      <trkpt lat="42.87774" lon="-0.18544">
        <ele>2252.4</ele>
        <time>2026-07-15T08:33:36Z</time>
      </trkpt>
      <trkpt lat="42.87774" lon="-0.18544">
        <ele>2252.4</ele>
        <time>2026-07-15T08:33:37Z</time>
      </trkpt>
      <trkpt lat="42.87774" lon="-0.18544">
        <ele>2252.4</ele>
        <time>2026-07-15T08:33:38Z</time>
      </trkpt>
      <trkpt lat="42.87774" lon="-0.18544">
        <ele>2252.4</ele>
        <time>2026-07-15T08:33:39Z</time>
      </trkpt>
      <trkpt lat="42.87774" lon="-0.18544">
        <ele>2252.4</ele>
        <time>2026-07-15T08:33:40Z</time>
      </trkpt>
      <trkpt lat="42.87774" lon="-0.18544">
        <ele>2252.4</ele>
        <time>2026-07-15T08:33:41Z</time>
      </trkpt>
      <trkpt lat="42.87774" lon="-0.18544">
        <ele>2252.4</ele>
        <time>2026-07-15T08:33:42Z</time>
      </trkpt>
      <trkpt lat="42.87774" lon="-0.18544">
        <ele>2252.4</ele>
        <time>2026-07-15T08:33:43Z</time>
      </trkpt>
      <trkpt lat="42.87774" lon="-0.18544">
        <ele>2252.4</ele>
        <time>2026-07-15T08:33:44Z</time>
      </trkpt>
      <trkpt lat="42.87774" lon="-0.18544">
        <ele>2252.4</ele>
        <time>2026-07-15T08:33:45Z</time>
      </trkpt>
      <trkpt lat="42.87774" lon="-0.18544">
        <ele>2252.4</ele>
        <time>2026-07-15T08:33:46Z</time>
      </trkpt>
      <trkpt lat="42.87774" lon="-0.18544">
        <ele>2252.4</ele>
        <time>2026-07-15T08:33:47Z</time>
      </trkpt>
      <trkpt lat="42.87774" lon="-0.18544">
        <ele>2252.4</ele>
        <time>2026-07-15T08:33:48Z</time>
      </trkpt>
      <trkpt lat="42.87774" lon="-0.18544">
        <ele>2252.4</ele>
        <time>2026-07-15T08:33:49Z</time>
      </trkpt>
      <trkpt lat="42.87774" lon="-0.18544">
        <ele>2252.4</ele>
        <time>2026-07-15T08:33:50Z</time>
      </trkpt>
      <trkpt lat="42.87774" lon="-0.18544">
        <ele>2252.4</ele>
        <time>2026-07-15T08:33:51Z</time>
      </trkpt>
      <trkpt lat="42.87774" lon="-0.18544">
        <ele>2252.4</ele>
        <time>2026-07-15T08:33:52Z</time>
      </trkpt>
      <trkpt lat="42.87774" lon="-0.18544">
        <ele>2252.4</ele>
        <time>2026-07-15T08:33:53Z</time>
      </trkpt>
      <trkpt lat="42.87774" lon="-0.18544">
        <ele>2252.4</ele>
        <time>2026-07-15T08:33:54Z</time>
      </trkpt>
      <trkpt lat="42.87774" lon="-0.18544">
        <ele>2252.4</ele>
        <time>2026-07-15T08:33:55Z</time>
      </trkpt>
      <trkpt lat="42.87774" lon="-0.18544">
        <ele>2252.4</ele>
        <time>2026-07-15T08:33:56Z</time>
      </trkpt>
      <trkpt lat="42.87774" lon="-0.18544">
        <ele>2252.4</ele>
        <time>2026-07-15T08:33:57Z</time>
      </trkpt>
      <trkpt lat="42.87774" lon="-0.18544">
        <ele>2252.4</ele>
        <time>2026-07-15T08:33:58Z</time>
      </trkpt>
      <trkpt lat="42.87774" lon="-0.18544">
        <ele>2252.4</ele>
        <time>2026-07-15T08:33:59Z</time>
      </trkpt>
      <trkpt lat="42.87774" lon="-0.18544">
        <ele>2252.4</ele>
        <time>2026-07-15T08:34:00Z</time>
      </trkpt>
      <trkpt lat="42.87774" lon="-0.18544">
        <ele>2252.4</ele>
        <time>2026-07-15T08:34:01Z</time>
      </trkpt>
      <trkpt lat="42.87774" lon="-0.18544">
        <ele>2252.4</ele>
        <time>2026-07-15T08:34:02Z</time>
      </trkpt>
      <trkpt lat="42.87774" lon="-0.18544">
        <ele>2252.4</ele>
        <time>2026-07-15T08:34:03Z</time>
      </trkpt>
      <trkpt lat="42.87774" lon="-0.18544">
        <ele>2252.4</ele>
        <time>2026-07-15T08:34:04Z</time>
      </trkpt>
      <trkpt lat="42.87774" lon="-0.18544">
        <ele>2252.4</ele>
        <time>2026-07-15T08:34:05Z</time>
      </trkpt>
      <trkpt lat="42.87774" lon="-0.18544">
        <ele>2252.4</ele>
        <time>2026-07-15T08:34:06Z</time>
      </trkpt>
      <trkpt lat="42.87774" lon="-0.18544">
        <ele>2252.4</ele>
        <time>2026-07-15T08:34:07Z</time>
      </trkpt>
      <trkpt lat="42.87774" lon="-0.18544">
        <ele>2252.4</ele>
        <time>2026-07-15T08:34:08Z</time>
      </trkpt>
      <trkpt lat="42.87774" lon="-0.18544">
        <ele>2252.4</ele>
        <time>2026-07-15T08:34:09Z</time>
      </trkpt>
      <trkpt lat="42.87774" lon="-0.18544">
        <ele>2252.4</ele>
        <time>2026-07-15T08:34:10Z</time>
      </trkpt>
      <trkpt lat="42.87774" lon="-0.18544">
        <ele>2252.4</ele>
        <time>2026-07-15T08:34:11Z</time>
      </trkpt>
      <trkpt lat="42.87774" lon="-0.18544">
        <ele>2252.4</ele>
        <time>2026-07-15T08:34:12Z</time>
      </trkpt>
      <trkpt lat="42.87774" lon="-0.18544">
        <ele>2252.4</ele>
        <time>2026-07-15T08:34:13Z</time>
      </trkpt>
      <trkpt lat="42.87774" lon="-0.18544">
        <ele>2252.4</ele>
        <time>2026-07-15T08:34:14Z</time>
      </trkpt>
      <trkpt lat="42.87774" lon="-0.18544">
        <ele>2252.4</ele>
        <time>2026-07-15T08:34:15Z</time>
      </trkpt>
      <trkpt lat="42.87774" lon="-0.18544">
        <ele>2252.4</ele>
        <time>2026-07-15T08:34:16Z</time>
      </trkpt>
      <trkpt lat="42.87774" lon="-0.18544">
        <ele>2252.4</ele>
        <time>2026-07-15T08:34:17Z</time>
      </trkpt>
      <trkpt lat="42.87774" lon="-0.18544">
        <ele>2252.4</ele>
        <time>2026-07-15T08:34:18Z</time>
      </trkpt>
      <trkpt lat="42.87774" lon="-0.18544">
        <ele>2252.4</ele>
        <time>2026-07-15T08:34:19Z</time>
      </trkpt>
      <trkpt lat="42.87774" lon="-0.18544">
        <ele>2252.4</ele>
        <time>2026-07-15T08:34:20Z</time>
      </trkpt>
      <trkpt lat="42.87774" lon="-0.18544">
        <ele>2252.4</ele>
        <time>2026-07-15T08:34:21Z</time>
      </trkpt>
      <trkpt lat="42.87774" lon="-0.18544">
        <ele>2252.4</ele>
        <time>2026-07-15T08:34:22Z</time>
      </trkpt>
      <trkpt lat="42.87774" lon="-0.18544">
        <ele>2252.4</ele>
        <time>2026-07-15T08:34:23Z</time>
      </trkpt>
      <trkpt lat="42.87774" lon="-0.18544">
        <ele>2252.4</ele>
        <time>2026-07-15T08:34:24Z</time>
      </trkpt>
      <trkpt lat="42.87774" lon="-0.18544">
        <ele>2253.4</ele>
        <time>2026-07-15T08:34:25Z</time>
      </trkpt>
      <trkpt lat="42.87774" lon="-0.18545">
        <ele>2253.4</ele>
        <time>2026-07-15T08:34:26Z</time>
      </trkpt>
      <trkpt lat="42.87773" lon="-0.18545">
        <ele>2253.4</ele>
        <time>2026-07-15T08:34:27Z</time>
      </trkpt>
      <trkpt lat="42.87773" lon="-0.18545">
        <ele>2253.4</ele>
        <time>2026-07-15T08:34:28Z</time>
      </trkpt>
      <trkpt lat="42.87773" lon="-0.18546">
        <ele>2253.4</ele>
        <time>2026-07-15T08:34:29Z</time>
      </trkpt>
      <trkpt lat="42.87773" lon="-0.18546">
        <ele>2253.4</ele>
        <time>2026-07-15T08:34:29Z</time>
      </trkpt>
      <trkpt lat="42.87773" lon="-0.18547">
        <ele>2252.4</ele>
        <time>2026-07-15T08:34:30Z</time>
      </trkpt>
      <trkpt lat="42.87773" lon="-0.18547">
        <ele>2252.4</ele>
        <time>2026-07-15T08:34:31Z</time>
      </trkpt>
      <trkpt lat="42.87773" lon="-0.18547">
        <ele>2252.4</ele>
        <time>2026-07-15T08:34:32Z</time>
      </trkpt>
      <trkpt lat="42.87773" lon="-0.18547">
        <ele>2252.4</ele>
        <time>2026-07-15T08:34:33Z</time>
      </trkpt>
      <trkpt lat="42.87773" lon="-0.18547">
        <ele>2252.4</ele>
        <time>2026-07-15T08:34:34Z</time>
      </trkpt>
      <trkpt lat="42.87773" lon="-0.18547">
        <ele>2252.4</ele>
        <time>2026-07-15T08:34:35Z</time>
      </trkpt>
      <trkpt lat="42.87774" lon="-0.18547">
        <ele>2252.4</ele>
        <time>2026-07-15T08:34:36Z</time>
      </trkpt>
      <trkpt lat="42.87774" lon="-0.18548">
        <ele>2252.4</ele>
        <time>2026-07-15T08:34:37Z</time>
      </trkpt>
      <trkpt lat="42.87774" lon="-0.18548">
        <ele>2252.4</ele>
        <time>2026-07-15T08:34:38Z</time>
      </trkpt>
      <trkpt lat="42.87774" lon="-0.18548">
        <ele>2252.4</ele>
        <time>2026-07-15T08:34:39Z</time>
      </trkpt>
      <trkpt lat="42.87773" lon="-0.18547">
        <ele>2252.4</ele>
        <time>2026-07-15T08:34:40Z</time>
      </trkpt>
      <trkpt lat="42.87774" lon="-0.18547">
        <ele>2252.4</ele>
        <time>2026-07-15T08:34:41Z</time>
      </trkpt>
      <trkpt lat="42.87774" lon="-0.18547">
        <ele>2252.4</ele>
        <time>2026-07-15T08:34:42Z</time>
      </trkpt>
      <trkpt lat="42.87774" lon="-0.18547">
        <ele>2252.4</ele>
        <time>2026-07-15T08:34:43Z</time>
      </trkpt>
      <trkpt lat="42.87774" lon="-0.18547">
        <ele>2252.4</ele>
        <time>2026-07-15T08:34:44Z</time>
      </trkpt>
      <trkpt lat="42.87774" lon="-0.18547">
        <ele>2252.4</ele>
        <time>2026-07-15T08:34:45Z</time>
      </trkpt>
      <trkpt lat="42.87774" lon="-0.18547">
        <ele>2253.4</ele>
        <time>2026-07-15T08:34:46Z</time>
      </trkpt>
      <trkpt lat="42.87774" lon="-0.18547">
        <ele>2253.4</ele>
        <time>2026-07-15T08:34:47Z</time>
      </trkpt>
      <trkpt lat="42.87774" lon="-0.18547">
        <ele>2253.4</ele>
        <time>2026-07-15T08:34:48Z</time>
      </trkpt>
      <trkpt lat="42.87774" lon="-0.18547">
        <ele>2253.4</ele>
        <time>2026-07-15T08:34:49Z</time>
      </trkpt>
      <trkpt lat="42.87774" lon="-0.18547">
        <ele>2253.4</ele>
        <time>2026-07-15T08:34:50Z</time>
      </trkpt>
      <trkpt lat="42.87774" lon="-0.18547">
        <ele>2253.4</ele>
        <time>2026-07-15T08:34:51Z</time>
      </trkpt>
      <trkpt lat="42.87774" lon="-0.18548">
        <ele>2253.4</ele>
        <time>2026-07-15T08:34:52Z</time>
      </trkpt>
      <trkpt lat="42.87774" lon="-0.18548">
        <ele>2253.4</ele>
        <time>2026-07-15T08:34:53Z</time>
      </trkpt>
      <trkpt lat="42.87774" lon="-0.18548">
        <ele>2253.4</ele>
        <time>2026-07-15T08:34:54Z</time>
      </trkpt>
      <trkpt lat="42.87774" lon="-0.18548">
        <ele>2253.4</ele>
        <time>2026-07-15T08:34:55Z</time>
      </trkpt>
      <trkpt lat="42.87775" lon="-0.18548">
        <ele>2253.4</ele>
        <time>2026-07-15T08:34:56Z</time>
      </trkpt>
      <trkpt lat="42.87775" lon="-0.18547">
        <ele>2253.4</ele>
        <time>2026-07-15T08:34:57Z</time>
      </trkpt>
      <trkpt lat="42.87775" lon="-0.18547">
        <ele>2253.4</ele>
        <time>2026-07-15T08:34:58Z</time>
      </trkpt>
      <trkpt lat="42.87775" lon="-0.18547">
        <ele>2253.4</ele>
        <time>2026-07-15T08:34:59Z</time>
      </trkpt>
      <trkpt lat="42.87775" lon="-0.18547">
        <ele>2253.4</ele>
        <time>2026-07-15T08:35:00Z</time>
      </trkpt>
      <trkpt lat="42.87775" lon="-0.18547">
        <ele>2253.4</ele>
        <time>2026-07-15T08:35:01Z</time>
      </trkpt>
      <trkpt lat="42.87775" lon="-0.18547">
        <ele>2253.4</ele>
        <time>2026-07-15T08:35:02Z</time>
      </trkpt>
      <trkpt lat="42.87775" lon="-0.18547">
        <ele>2253.4</ele>
        <time>2026-07-15T08:35:03Z</time>
      </trkpt>
      <trkpt lat="42.87775" lon="-0.18547">
        <ele>2253.4</ele>
        <time>2026-07-15T08:35:04Z</time>
      </trkpt>
      <trkpt lat="42.87775" lon="-0.18546">
        <ele>2253.4</ele>
        <time>2026-07-15T08:35:05Z</time>
      </trkpt>
      <trkpt lat="42.87776" lon="-0.18546">
        <ele>2253.4</ele>
        <time>2026-07-15T08:35:06Z</time>
      </trkpt>
      <trkpt lat="42.87776" lon="-0.18546">
        <ele>2253.4</ele>
        <time>2026-07-15T08:35:07Z</time>
      </trkpt>
      <trkpt lat="42.87776" lon="-0.18546">
        <ele>2253.4</ele>
        <time>2026-07-15T08:35:08Z</time>
      </trkpt>
      <trkpt lat="42.87776" lon="-0.18546">
        <ele>2253.4</ele>
        <time>2026-07-15T08:35:09Z</time>
      </trkpt>
      <trkpt lat="42.87776" lon="-0.18546">
        <ele>2253.4</ele>
        <time>2026-07-15T08:35:10Z</time>
      </trkpt>
      <trkpt lat="42.87776" lon="-0.18546">
        <ele>2253.4</ele>
        <time>2026-07-15T08:35:11Z</time>
      </trkpt>
      <trkpt lat="42.87776" lon="-0.18546">
        <ele>2253.4</ele>
        <time>2026-07-15T08:35:12Z</time>
      </trkpt>
      <trkpt lat="42.87776" lon="-0.18546">
        <ele>2253.4</ele>
        <time>2026-07-15T08:35:13Z</time>
      </trkpt>
      <trkpt lat="42.87776" lon="-0.18545">
        <ele>2253.4</ele>
        <time>2026-07-15T08:35:14Z</time>
      </trkpt>
      <trkpt lat="42.87776" lon="-0.18545">
        <ele>2253.4</ele>
        <time>2026-07-15T08:35:15Z</time>
      </trkpt>
      <trkpt lat="42.87776" lon="-0.18545">
        <ele>2253.4</ele>
        <time>2026-07-15T08:35:16Z</time>
      </trkpt>
      <trkpt lat="42.87776" lon="-0.18545">
        <ele>2253.4</ele>
        <time>2026-07-15T08:35:17Z</time>
      </trkpt>
      <trkpt lat="42.87776" lon="-0.18545">
        <ele>2253.4</ele>
        <time>2026-07-15T08:35:18Z</time>
      </trkpt>
      <trkpt lat="42.87776" lon="-0.18545">
        <ele>2253.4</ele>
        <time>2026-07-15T08:35:19Z</time>
      </trkpt>
      <trkpt lat="42.87776" lon="-0.18545">
        <ele>2253.4</ele>
        <time>2026-07-15T08:35:20Z</time>
      </trkpt>
      <trkpt lat="42.87776" lon="-0.18545">
        <ele>2253.4</ele>
        <time>2026-07-15T08:35:21Z</time>
      </trkpt>
      <trkpt lat="42.87776" lon="-0.18545">
        <ele>2254.4</ele>
        <time>2026-07-15T08:35:22Z</time>
      </trkpt>
      <trkpt lat="42.87776" lon="-0.18544">
        <ele>2254.4</ele>
        <time>2026-07-15T08:35:23Z</time>
      </trkpt>
      <trkpt lat="42.87776" lon="-0.18544">
        <ele>2255.4</ele>
        <time>2026-07-15T08:35:24Z</time>
      </trkpt>
      <trkpt lat="42.87776" lon="-0.18544">
        <ele>2255.4</ele>
        <time>2026-07-15T08:35:25Z</time>
      </trkpt>
      <trkpt lat="42.87776" lon="-0.18544">
        <ele>2255.4</ele>
        <time>2026-07-15T08:35:26Z</time>
      </trkpt>
      <trkpt lat="42.87777" lon="-0.18544">
        <ele>2255.4</ele>
        <time>2026-07-15T08:35:27Z</time>
      </trkpt>
      <trkpt lat="42.87777" lon="-0.18544">
        <ele>2255.4</ele>
        <time>2026-07-15T08:35:28Z</time>
      </trkpt>
      <trkpt lat="42.87777" lon="-0.18544">
        <ele>2255.4</ele>
        <time>2026-07-15T08:35:28Z</time>
      </trkpt>
      <trkpt lat="42.87777" lon="-0.18544">
        <ele>2255.4</ele>
        <time>2026-07-15T08:35:29Z</time>
      </trkpt>
      <trkpt lat="42.87777" lon="-0.18544">
        <ele>2255.4</ele>
        <time>2026-07-15T08:35:29Z</time>
      </trkpt>
      <trkpt lat="42.87777" lon="-0.18544">
        <ele>2254.4</ele>
        <time>2026-07-15T08:35:30Z</time>
      </trkpt>
      <trkpt lat="42.87777" lon="-0.18544">
        <ele>2254.4</ele>
        <time>2026-07-15T08:35:31Z</time>
      </trkpt>
      <trkpt lat="42.87777" lon="-0.18544">
        <ele>2254.4</ele>
        <time>2026-07-15T08:35:32Z</time>
      </trkpt>
      <trkpt lat="42.87777" lon="-0.18544">
        <ele>2254.4</ele>
        <time>2026-07-15T08:35:33Z</time>
      </trkpt>
      <trkpt lat="42.87777" lon="-0.18544">
        <ele>2254.4</ele>
        <time>2026-07-15T08:35:34Z</time>
      </trkpt>
      <trkpt lat="42.87777" lon="-0.18544">
        <ele>2254.4</ele>
        <time>2026-07-15T08:35:35Z</time>
      </trkpt>
      <trkpt lat="42.87777" lon="-0.18544">
        <ele>2254.4</ele>
        <time>2026-07-15T08:35:36Z</time>
      </trkpt>
      <trkpt lat="42.87777" lon="-0.18544">
        <ele>2254.4</ele>
        <time>2026-07-15T08:35:37Z</time>
      </trkpt>
      <trkpt lat="42.87777" lon="-0.18544">
        <ele>2254.4</ele>
        <time>2026-07-15T08:35:38Z</time>
      </trkpt>
      <trkpt lat="42.87777" lon="-0.18544">
        <ele>2254.4</ele>
        <time>2026-07-15T08:35:39Z</time>
      </trkpt>
      <trkpt lat="42.87777" lon="-0.18544">
        <ele>2254.4</ele>
        <time>2026-07-15T08:35:40Z</time>
      </trkpt>
      <trkpt lat="42.87777" lon="-0.18545">
        <ele>2254.4</ele>
        <time>2026-07-15T08:35:41Z</time>
      </trkpt>
      <trkpt lat="42.87776" lon="-0.18545">
        <ele>2254.4</ele>
        <time>2026-07-15T08:35:42Z</time>
      </trkpt>
      <trkpt lat="42.87776" lon="-0.18545">
        <ele>2254.4</ele>
        <time>2026-07-15T08:35:43Z</time>
      </trkpt>
      <trkpt lat="42.87776" lon="-0.18545">
        <ele>2254.4</ele>
        <time>2026-07-15T08:35:44Z</time>
      </trkpt>
      <trkpt lat="42.87776" lon="-0.18545">
        <ele>2254.4</ele>
        <time>2026-07-15T08:35:45Z</time>
      </trkpt>
      <trkpt lat="42.87776" lon="-0.18545">
        <ele>2254.4</ele>
        <time>2026-07-15T08:35:46Z</time>
      </trkpt>
      <trkpt lat="42.87776" lon="-0.18545">
        <ele>2254.4</ele>
        <time>2026-07-15T08:35:47Z</time>
      </trkpt>
      <trkpt lat="42.87776" lon="-0.18545">
        <ele>2254.4</ele>
        <time>2026-07-15T08:35:48Z</time>
      </trkpt>
      <trkpt lat="42.87776" lon="-0.18545">
        <ele>2254.4</ele>
        <time>2026-07-15T08:35:49Z</time>
      </trkpt>
      <trkpt lat="42.87776" lon="-0.18545">
        <ele>2254.4</ele>
        <time>2026-07-15T08:35:50Z</time>
      </trkpt>
      <trkpt lat="42.87776" lon="-0.18545">
        <ele>2254.4</ele>
        <time>2026-07-15T08:35:51Z</time>
      </trkpt>
      <trkpt lat="42.87776" lon="-0.18545">
        <ele>2254.4</ele>
        <time>2026-07-15T08:35:52Z</time>
      </trkpt>
      <trkpt lat="42.87776" lon="-0.18545">
        <ele>2254.4</ele>
        <time>2026-07-15T08:35:53Z</time>
      </trkpt>
      <trkpt lat="42.87776" lon="-0.18545">
        <ele>2254.4</ele>
        <time>2026-07-15T08:35:54Z</time>
      </trkpt>
      <trkpt lat="42.87776" lon="-0.18545">
        <ele>2254.4</ele>
        <time>2026-07-15T08:35:55Z</time>
      </trkpt>
      <trkpt lat="42.87776" lon="-0.18545">
        <ele>2254.4</ele>
        <time>2026-07-15T08:35:56Z</time>
      </trkpt>
      <trkpt lat="42.87776" lon="-0.18545">
        <ele>2254.4</ele>
        <time>2026-07-15T08:35:57Z</time>
      </trkpt>
      <trkpt lat="42.87776" lon="-0.18545">
        <ele>2254.4</ele>
        <time>2026-07-15T08:35:58Z</time>
      </trkpt>
      <trkpt lat="42.87776" lon="-0.18545">
        <ele>2254.4</ele>
        <time>2026-07-15T08:35:59Z</time>
      </trkpt>
      <trkpt lat="42.87776" lon="-0.18545">
        <ele>2254.4</ele>
        <time>2026-07-15T08:36:00Z</time>
      </trkpt>
      <trkpt lat="42.87776" lon="-0.18545">
        <ele>2254.4</ele>
        <time>2026-07-15T08:36:01Z</time>
      </trkpt>
      <trkpt lat="42.87776" lon="-0.18545">
        <ele>2254.4</ele>
        <time>2026-07-15T08:36:02Z</time>
      </trkpt>
      <trkpt lat="42.87776" lon="-0.18545">
        <ele>2254.4</ele>
        <time>2026-07-15T08:36:03Z</time>
      </trkpt>
      <trkpt lat="42.87776" lon="-0.18545">
        <ele>2254.4</ele>
        <time>2026-07-15T08:36:04Z</time>
      </trkpt>
      <trkpt lat="42.87776" lon="-0.18545">
        <ele>2254.4</ele>
        <time>2026-07-15T08:36:05Z</time>
      </trkpt>
      <trkpt lat="42.87776" lon="-0.18545">
        <ele>2254.4</ele>
        <time>2026-07-15T08:36:06Z</time>
      </trkpt>
      <trkpt lat="42.87776" lon="-0.18545">
        <ele>2254.4</ele>
        <time>2026-07-15T08:36:07Z</time>
      </trkpt>
      <trkpt lat="42.87776" lon="-0.18545">
        <ele>2254.4</ele>
        <time>2026-07-15T08:36:08Z</time>
      </trkpt>
      <trkpt lat="42.87776" lon="-0.18545">
        <ele>2254.4</ele>
        <time>2026-07-15T08:36:09Z</time>
      </trkpt>
      <trkpt lat="42.87776" lon="-0.18545">
        <ele>2254.4</ele>
        <time>2026-07-15T08:36:10Z</time>
      </trkpt>
      <trkpt lat="42.87776" lon="-0.18545">
        <ele>2254.4</ele>
        <time>2026-07-15T08:36:11Z</time>
      </trkpt>
      <trkpt lat="42.87776" lon="-0.18545">
        <ele>2254.4</ele>
        <time>2026-07-15T08:36:12Z</time>
      </trkpt>
      <trkpt lat="42.87776" lon="-0.18545">
        <ele>2254.4</ele>
        <time>2026-07-15T08:36:13Z</time>
      </trkpt>
      <trkpt lat="42.87776" lon="-0.18545">
        <ele>2254.4</ele>
        <time>2026-07-15T08:36:14Z</time>
      </trkpt>
      <trkpt lat="42.87776" lon="-0.18545">
        <ele>2254.4</ele>
        <time>2026-07-15T08:36:15Z</time>
      </trkpt>
      <trkpt lat="42.87776" lon="-0.18545">
        <ele>2254.4</ele>
        <time>2026-07-15T08:36:16Z</time>
      </trkpt>
      <trkpt lat="42.87776" lon="-0.18545">
        <ele>2254.4</ele>
        <time>2026-07-15T08:36:17Z</time>
      </trkpt>
      <trkpt lat="42.87776" lon="-0.18545">
        <ele>2254.4</ele>
        <time>2026-07-15T08:36:18Z</time>
      </trkpt>
      <trkpt lat="42.87776" lon="-0.18545">
        <ele>2254.4</ele>
        <time>2026-07-15T08:36:19Z</time>
      </trkpt>
      <trkpt lat="42.87776" lon="-0.18545">
        <ele>2254.4</ele>
        <time>2026-07-15T08:36:20Z</time>
      </trkpt>
      <trkpt lat="42.87776" lon="-0.18545">
        <ele>2254.4</ele>
        <time>2026-07-15T08:36:21Z</time>
      </trkpt>
      <trkpt lat="42.87776" lon="-0.18545">
        <ele>2254.4</ele>
        <time>2026-07-15T08:36:22Z</time>
      </trkpt>
      <trkpt lat="42.87776" lon="-0.18545">
        <ele>2254.4</ele>
        <time>2026-07-15T08:36:23Z</time>
      </trkpt>
      <trkpt lat="42.87776" lon="-0.18545">
        <ele>2254.4</ele>
        <time>2026-07-15T08:36:24Z</time>
      </trkpt>
      <trkpt lat="42.87776" lon="-0.18545">
        <ele>2254.4</ele>
        <time>2026-07-15T08:36:25Z</time>
      </trkpt>
      <trkpt lat="42.87776" lon="-0.18545">
        <ele>2254.4</ele>
        <time>2026-07-15T08:36:26Z</time>
      </trkpt>
      <trkpt lat="42.87776" lon="-0.18545">
        <ele>2254.4</ele>
        <time>2026-07-15T08:36:27Z</time>
      </trkpt>
      <trkpt lat="42.87776" lon="-0.18545">
        <ele>2254.4</ele>
        <time>2026-07-15T08:36:28Z</time>
      </trkpt>
      <trkpt lat="42.87776" lon="-0.18545">
        <ele>2254.4</ele>
        <time>2026-07-15T08:36:29Z</time>
      </trkpt>
      <trkpt lat="42.87776" lon="-0.18545">
        <ele>2254.4</ele>
        <time>2026-07-15T08:36:30Z</time>
      </trkpt>
      <trkpt lat="42.87776" lon="-0.18545">
        <ele>2254.4</ele>
        <time>2026-07-15T08:36:31Z</time>
      </trkpt>
      <trkpt lat="42.87776" lon="-0.18545">
        <ele>2254.4</ele>
        <time>2026-07-15T08:36:32Z</time>
      </trkpt>
      <trkpt lat="42.87776" lon="-0.18545">
        <ele>2254.4</ele>
        <time>2026-07-15T08:36:33Z</time>
      </trkpt>
      <trkpt lat="42.87776" lon="-0.18545">
        <ele>2254.4</ele>
        <time>2026-07-15T08:36:34Z</time>
      </trkpt>
      <trkpt lat="42.87776" lon="-0.18545">
        <ele>2254.4</ele>
        <time>2026-07-15T08:36:35Z</time>
      </trkpt>
      <trkpt lat="42.87776" lon="-0.18545">
        <ele>2254.4</ele>
        <time>2026-07-15T08:36:36Z</time>
      </trkpt>
      <trkpt lat="42.87776" lon="-0.18545">
        <ele>2254.4</ele>
        <time>2026-07-15T08:36:37Z</time>
      </trkpt>
      <trkpt lat="42.87776" lon="-0.18545">
        <ele>2254.4</ele>
        <time>2026-07-15T08:36:38Z</time>
      </trkpt>
      <trkpt lat="42.87776" lon="-0.18545">
        <ele>2254.4</ele>
        <time>2026-07-15T08:36:39Z</time>
      </trkpt>
      <trkpt lat="42.87776" lon="-0.18545">
        <ele>2254.4</ele>
        <time>2026-07-15T08:36:40Z</time>
      </trkpt>
      <trkpt lat="42.87776" lon="-0.18545">
        <ele>2254.4</ele>
        <time>2026-07-15T08:36:41Z</time>
      </trkpt>
      <trkpt lat="42.87776" lon="-0.18545">
        <ele>2254.4</ele>
        <time>2026-07-15T08:36:42Z</time>
      </trkpt>
      <trkpt lat="42.87776" lon="-0.18545">
        <ele>2254.4</ele>
        <time>2026-07-15T08:36:43Z</time>
      </trkpt>
      <trkpt lat="42.87776" lon="-0.18545">
        <ele>2254.4</ele>
        <time>2026-07-15T08:36:44Z</time>
      </trkpt>
      <trkpt lat="42.87776" lon="-0.18545">
        <ele>2254.4</ele>
        <time>2026-07-15T08:36:45Z</time>
      </trkpt>
      <trkpt lat="42.87776" lon="-0.18545">
        <ele>2254.4</ele>
        <time>2026-07-15T08:36:46Z</time>
      </trkpt>
      <trkpt lat="42.87776" lon="-0.18545">
        <ele>2254.4</ele>
        <time>2026-07-15T08:36:47Z</time>
      </trkpt>
      <trkpt lat="42.87776" lon="-0.18545">
        <ele>2254.4</ele>
        <time>2026-07-15T08:36:48Z</time>
      </trkpt>
      <trkpt lat="42.87776" lon="-0.18545">
        <ele>2254.4</ele>
        <time>2026-07-15T08:36:49Z</time>
      </trkpt>
      <trkpt lat="42.87776" lon="-0.18545">
        <ele>2254.4</ele>
        <time>2026-07-15T08:36:50Z</time>
      </trkpt>
      <trkpt lat="42.87776" lon="-0.18545">
        <ele>2254.4</ele>
        <time>2026-07-15T08:36:51Z</time>
      </trkpt>
      <trkpt lat="42.87776" lon="-0.18545">
        <ele>2254.4</ele>
        <time>2026-07-15T08:36:52Z</time>
      </trkpt>
      <trkpt lat="42.87776" lon="-0.18545">
        <ele>2254.4</ele>
        <time>2026-07-15T08:36:53Z</time>
      </trkpt>
      <trkpt lat="42.87776" lon="-0.18545">
        <ele>2254.4</ele>
        <time>2026-07-15T08:36:54Z</time>
      </trkpt>
      <trkpt lat="42.87776" lon="-0.18545">
        <ele>2254.4</ele>
        <time>2026-07-15T08:36:55Z</time>
      </trkpt>
      <trkpt lat="42.87776" lon="-0.18545">
        <ele>2254.4</ele>
        <time>2026-07-15T08:36:56Z</time>
      </trkpt>
      <trkpt lat="42.87776" lon="-0.18545">
        <ele>2254.4</ele>
        <time>2026-07-15T08:36:57Z</time>
      </trkpt>
      <trkpt lat="42.87776" lon="-0.18545">
        <ele>2254.4</ele>
        <time>2026-07-15T08:36:58Z</time>
      </trkpt>
      <trkpt lat="42.87776" lon="-0.18545">
        <ele>2254.4</ele>
        <time>2026-07-15T08:36:59Z</time>
      </trkpt>
      <trkpt lat="42.87776" lon="-0.18545">
        <ele>2254.4</ele>
        <time>2026-07-15T08:37:00Z</time>
      </trkpt>
      <trkpt lat="42.87776" lon="-0.18545">
        <ele>2254.4</ele>
        <time>2026-07-15T08:37:01Z</time>
      </trkpt>
      <trkpt lat="42.87776" lon="-0.18545">
        <ele>2254.4</ele>
        <time>2026-07-15T08:37:02Z</time>
      </trkpt>
      <trkpt lat="42.87776" lon="-0.18545">
        <ele>2254.4</ele>
        <time>2026-07-15T08:37:03Z</time>
      </trkpt>
      <trkpt lat="42.87776" lon="-0.18545">
        <ele>2254.4</ele>
        <time>2026-07-15T08:37:04Z</time>
      </trkpt>
      <trkpt lat="42.87776" lon="-0.18545">
        <ele>2254.4</ele>
        <time>2026-07-15T08:37:05Z</time>
      </trkpt>
      <trkpt lat="42.87776" lon="-0.18545">
        <ele>2254.4</ele>
        <time>2026-07-15T08:37:06Z</time>
      </trkpt>
      <trkpt lat="42.87776" lon="-0.18545">
        <ele>2254.4</ele>
        <time>2026-07-15T08:37:07Z</time>
      </trkpt>
      <trkpt lat="42.87776" lon="-0.18545">
        <ele>2254.4</ele>
        <time>2026-07-15T08:37:08Z</time>
      </trkpt>
      <trkpt lat="42.87776" lon="-0.18545">
        <ele>2254.4</ele>
        <time>2026-07-15T08:37:09Z</time>
      </trkpt>
      <trkpt lat="42.87776" lon="-0.18545">
        <ele>2254.4</ele>
        <time>2026-07-15T08:37:10Z</time>
      </trkpt>
      <trkpt lat="42.87776" lon="-0.18545">
        <ele>2254.4</ele>
        <time>2026-07-15T08:37:11Z</time>
      </trkpt>
      <trkpt lat="42.87776" lon="-0.18545">
        <ele>2254.4</ele>
        <time>2026-07-15T08:37:12Z</time>
      </trkpt>
      <trkpt lat="42.87776" lon="-0.18545">
        <ele>2254.4</ele>
        <time>2026-07-15T08:37:13Z</time>
      </trkpt>
      <trkpt lat="42.87776" lon="-0.18545">
        <ele>2254.4</ele>
        <time>2026-07-15T08:37:14Z</time>
      </trkpt>
      <trkpt lat="42.87776" lon="-0.18545">
        <ele>2254.4</ele>
        <time>2026-07-15T08:37:15Z</time>
      </trkpt>
      <trkpt lat="42.87776" lon="-0.18545">
        <ele>2254.4</ele>
        <time>2026-07-15T08:37:16Z</time>
      </trkpt>
      <trkpt lat="42.87776" lon="-0.18545">
        <ele>2254.4</ele>
        <time>2026-07-15T08:37:17Z</time>
      </trkpt>
      <trkpt lat="42.87776" lon="-0.18545">
        <ele>2254.4</ele>
        <time>2026-07-15T08:37:18Z</time>
      </trkpt>
      <trkpt lat="42.87776" lon="-0.18545">
        <ele>2254.4</ele>
        <time>2026-07-15T08:37:19Z</time>
      </trkpt>
      <trkpt lat="42.87776" lon="-0.18545">
        <ele>2254.4</ele>
        <time>2026-07-15T08:37:20Z</time>
      </trkpt>
      <trkpt lat="42.87776" lon="-0.18545">
        <ele>2254.4</ele>
        <time>2026-07-15T08:37:21Z</time>
      </trkpt>
      <trkpt lat="42.87776" lon="-0.18545">
        <ele>2254.4</ele>
        <time>2026-07-15T08:37:22Z</time>
      </trkpt>
      <trkpt lat="42.87776" lon="-0.18545">
        <ele>2254.4</ele>
        <time>2026-07-15T08:37:23Z</time>
      </trkpt>
      <trkpt lat="42.87776" lon="-0.18545">
        <ele>2254.4</ele>
        <time>2026-07-15T08:37:24Z</time>
      </trkpt>
      <trkpt lat="42.87776" lon="-0.18545">
        <ele>2254.4</ele>
        <time>2026-07-15T08:37:25Z</time>
      </trkpt>
      <trkpt lat="42.87776" lon="-0.18545">
        <ele>2254.4</ele>
        <time>2026-07-15T08:37:26Z</time>
      </trkpt>
      <trkpt lat="42.87776" lon="-0.18545">
        <ele>2254.4</ele>
        <time>2026-07-15T08:37:27Z</time>
      </trkpt>
      <trkpt lat="42.87776" lon="-0.18545">
        <ele>2254.4</ele>
        <time>2026-07-15T08:37:28Z</time>
      </trkpt>
      <trkpt lat="42.87776" lon="-0.18545">
        <ele>2254.4</ele>
        <time>2026-07-15T08:37:29Z</time>
      </trkpt>
      <trkpt lat="42.87776" lon="-0.18545">
        <ele>2255.4</ele>
        <time>2026-07-15T08:37:30Z</time>
      </trkpt>
      <trkpt lat="42.87776" lon="-0.18545">
        <ele>2255.4</ele>
        <time>2026-07-15T08:37:31Z</time>
      </trkpt>
      <trkpt lat="42.87776" lon="-0.18545">
        <ele>2254.4</ele>
        <time>2026-07-15T08:37:31Z</time>
      </trkpt>
      <trkpt lat="42.87776" lon="-0.18545">
        <ele>2254.4</ele>
        <time>2026-07-15T08:37:32Z</time>
      </trkpt>
      <trkpt lat="42.87776" lon="-0.18545">
        <ele>2254.4</ele>
        <time>2026-07-15T08:37:33Z</time>
      </trkpt>
      <trkpt lat="42.87776" lon="-0.18545">
        <ele>2254.4</ele>
        <time>2026-07-15T08:37:34Z</time>
      </trkpt>
      <trkpt lat="42.87776" lon="-0.18545">
        <ele>2254.4</ele>
        <time>2026-07-15T08:37:35Z</time>
      </trkpt>
      <trkpt lat="42.87776" lon="-0.18545">
        <ele>2254.4</ele>
        <time>2026-07-15T08:37:36Z</time>
      </trkpt>
      <trkpt lat="42.87776" lon="-0.18545">
        <ele>2254.4</ele>
        <time>2026-07-15T08:37:37Z</time>
      </trkpt>
      <trkpt lat="42.87776" lon="-0.18545">
        <ele>2254.4</ele>
        <time>2026-07-15T08:37:38Z</time>
      </trkpt>
      <trkpt lat="42.87776" lon="-0.18546">
        <ele>2254.4</ele>
        <time>2026-07-15T08:37:39Z</time>
      </trkpt>
      <trkpt lat="42.87776" lon="-0.18546">
        <ele>2254.4</ele>
        <time>2026-07-15T08:37:40Z</time>
      </trkpt>
      <trkpt lat="42.87776" lon="-0.18546">
        <ele>2254.4</ele>
        <time>2026-07-15T08:37:41Z</time>
      </trkpt>
      <trkpt lat="42.87776" lon="-0.18546">
        <ele>2254.4</ele>
        <time>2026-07-15T08:37:42Z</time>
      </trkpt>
      <trkpt lat="42.87776" lon="-0.18546">
        <ele>2255.4</ele>
        <time>2026-07-15T08:37:43Z</time>
      </trkpt>
      <trkpt lat="42.87776" lon="-0.18546">
        <ele>2255.4</ele>
        <time>2026-07-15T08:37:44Z</time>
      </trkpt>
      <trkpt lat="42.87776" lon="-0.18546">
        <ele>2254.4</ele>
        <time>2026-07-15T08:37:45Z</time>
      </trkpt>
      <trkpt lat="42.87776" lon="-0.18545">
        <ele>2254.4</ele>
        <time>2026-07-15T08:37:46Z</time>
      </trkpt>
      <trkpt lat="42.87776" lon="-0.18545">
        <ele>2254.4</ele>
        <time>2026-07-15T08:37:46Z</time>
      </trkpt>
      <trkpt lat="42.87776" lon="-0.18545">
        <ele>2254.4</ele>
        <time>2026-07-15T08:37:47Z</time>
      </trkpt>
      <trkpt lat="42.87776" lon="-0.18545">
        <ele>2253.4</ele>
        <time>2026-07-15T08:37:48Z</time>
      </trkpt>
      <trkpt lat="42.87776" lon="-0.18545">
        <ele>2254.4</ele>
        <time>2026-07-15T08:37:49Z</time>
      </trkpt>
      <trkpt lat="42.87776" lon="-0.18545">
        <ele>2254.4</ele>
        <time>2026-07-15T08:37:50Z</time>
      </trkpt>
      <trkpt lat="42.87776" lon="-0.18545">
        <ele>2254.4</ele>
        <time>2026-07-15T08:37:50Z</time>
      </trkpt>
      <trkpt lat="42.87776" lon="-0.18545">
        <ele>2254.4</ele>
        <time>2026-07-15T08:37:51Z</time>
      </trkpt>
      <trkpt lat="42.87776" lon="-0.18545">
        <ele>2254.4</ele>
        <time>2026-07-15T08:37:52Z</time>
      </trkpt>
      <trkpt lat="42.87776" lon="-0.18545">
        <ele>2254.4</ele>
        <time>2026-07-15T08:37:53Z</time>
      </trkpt>
      <trkpt lat="42.87776" lon="-0.18545">
        <ele>2254.4</ele>
        <time>2026-07-15T08:37:54Z</time>
      </trkpt>
      <trkpt lat="42.87776" lon="-0.18545">
        <ele>2254.4</ele>
        <time>2026-07-15T08:37:55Z</time>
      </trkpt>
      <trkpt lat="42.87776" lon="-0.18544">
        <ele>2254.4</ele>
        <time>2026-07-15T08:37:56Z</time>
      </trkpt>
      <trkpt lat="42.87776" lon="-0.18544">
        <ele>2254.4</ele>
        <time>2026-07-15T08:37:57Z</time>
      </trkpt>
      <trkpt lat="42.87776" lon="-0.18544">
        <ele>2255.4</ele>
        <time>2026-07-15T08:37:58Z</time>
      </trkpt>
      <trkpt lat="42.87776" lon="-0.18544">
        <ele>2255.4</ele>
        <time>2026-07-15T08:37:59Z</time>
      </trkpt>
      <trkpt lat="42.87776" lon="-0.18544">
        <ele>2255.4</ele>
        <time>2026-07-15T08:38:00Z</time>
      </trkpt>
      <trkpt lat="42.87776" lon="-0.18544">
        <ele>2255.4</ele>
        <time>2026-07-15T08:38:01Z</time>
      </trkpt>
      <trkpt lat="42.87776" lon="-0.18544">
        <ele>2255.4</ele>
        <time>2026-07-15T08:38:02Z</time>
      </trkpt>
      <trkpt lat="42.87776" lon="-0.18544">
        <ele>2255.4</ele>
        <time>2026-07-15T08:38:03Z</time>
      </trkpt>
      <trkpt lat="42.87776" lon="-0.18544">
        <ele>2255.4</ele>
        <time>2026-07-15T08:38:04Z</time>
      </trkpt>
      <trkpt lat="42.87776" lon="-0.18544">
        <ele>2255.4</ele>
        <time>2026-07-15T08:38:05Z</time>
      </trkpt>
      <trkpt lat="42.87776" lon="-0.18544">
        <ele>2255.4</ele>
        <time>2026-07-15T08:38:06Z</time>
      </trkpt>
      <trkpt lat="42.87776" lon="-0.18544">
        <ele>2255.4</ele>
        <time>2026-07-15T08:38:07Z</time>
      </trkpt>
      <trkpt lat="42.87776" lon="-0.18544">
        <ele>2256.4</ele>
        <time>2026-07-15T08:38:08Z</time>
      </trkpt>
      <trkpt lat="42.87776" lon="-0.18544">
        <ele>2256.4</ele>
        <time>2026-07-15T08:38:09Z</time>
      </trkpt>
      <trkpt lat="42.87776" lon="-0.18544">
        <ele>2256.4</ele>
        <time>2026-07-15T08:38:10Z</time>
      </trkpt>
      <trkpt lat="42.87776" lon="-0.18544">
        <ele>2256.4</ele>
        <time>2026-07-15T08:38:11Z</time>
      </trkpt>
      <trkpt lat="42.87776" lon="-0.18544">
        <ele>2256.4</ele>
        <time>2026-07-15T08:38:12Z</time>
      </trkpt>
      <trkpt lat="42.87776" lon="-0.18544">
        <ele>2256.4</ele>
        <time>2026-07-15T08:38:13Z</time>
      </trkpt>
      <trkpt lat="42.87776" lon="-0.18543">
        <ele>2256.4</ele>
        <time>2026-07-15T08:38:14Z</time>
      </trkpt>
      <trkpt lat="42.87776" lon="-0.18543">
        <ele>2256.4</ele>
        <time>2026-07-15T08:38:15Z</time>
      </trkpt>
      <trkpt lat="42.87776" lon="-0.18543">
        <ele>2256.4</ele>
        <time>2026-07-15T08:38:16Z</time>
      </trkpt>
      <trkpt lat="42.87776" lon="-0.18543">
        <ele>2256.4</ele>
        <time>2026-07-15T08:38:17Z</time>
      </trkpt>
      <trkpt lat="42.87776" lon="-0.18543">
        <ele>2256.4</ele>
        <time>2026-07-15T08:38:18Z</time>
      </trkpt>
      <trkpt lat="42.87776" lon="-0.18543">
        <ele>2255.4</ele>
        <time>2026-07-15T08:38:19Z</time>
      </trkpt>
      <trkpt lat="42.87776" lon="-0.18543">
        <ele>2255.4</ele>
        <time>2026-07-15T08:38:20Z</time>
      </trkpt>
      <trkpt lat="42.87776" lon="-0.18544">
        <ele>2255.4</ele>
        <time>2026-07-15T08:38:21Z</time>
      </trkpt>
      <trkpt lat="42.87776" lon="-0.18544">
        <ele>2255.4</ele>
        <time>2026-07-15T08:38:22Z</time>
      </trkpt>
      <trkpt lat="42.87776" lon="-0.18544">
        <ele>2255.4</ele>
        <time>2026-07-15T08:38:23Z</time>
      </trkpt>
      <trkpt lat="42.87776" lon="-0.18544">
        <ele>2255.4</ele>
        <time>2026-07-15T08:38:24Z</time>
      </trkpt>
      <trkpt lat="42.87776" lon="-0.18544">
        <ele>2255.4</ele>
        <time>2026-07-15T08:38:25Z</time>
      </trkpt>
      <trkpt lat="42.87776" lon="-0.18544">
        <ele>2255.4</ele>
        <time>2026-07-15T08:38:26Z</time>
      </trkpt>
      <trkpt lat="42.87776" lon="-0.18544">
        <ele>2255.4</ele>
        <time>2026-07-15T08:38:27Z</time>
      </trkpt>
      <trkpt lat="42.87776" lon="-0.18544">
        <ele>2255.4</ele>
        <time>2026-07-15T08:38:28Z</time>
      </trkpt>
      <trkpt lat="42.87776" lon="-0.18545">
        <ele>2255.4</ele>
        <time>2026-07-15T08:38:29Z</time>
      </trkpt>
      <trkpt lat="42.87776" lon="-0.18545">
        <ele>2256.4</ele>
        <time>2026-07-15T08:38:30Z</time>
      </trkpt>
      <trkpt lat="42.87776" lon="-0.18545">
        <ele>2256.4</ele>
        <time>2026-07-15T08:38:31Z</time>
      </trkpt>
      <trkpt lat="42.87776" lon="-0.18545">
        <ele>2257.4</ele>
        <time>2026-07-15T08:38:32Z</time>
      </trkpt>
      <trkpt lat="42.87776" lon="-0.18545">
        <ele>2256.4</ele>
        <time>2026-07-15T08:38:33Z</time>
      </trkpt>
      <trkpt lat="42.87776" lon="-0.18544">
        <ele>2256.4</ele>
        <time>2026-07-15T08:38:34Z</time>
      </trkpt>
      <trkpt lat="42.87776" lon="-0.18544">
        <ele>2256.4</ele>
        <time>2026-07-15T08:38:35Z</time>
      </trkpt>
      <trkpt lat="42.87776" lon="-0.18544">
        <ele>2256.4</ele>
        <time>2026-07-15T08:38:36Z</time>
      </trkpt>
      <trkpt lat="42.87776" lon="-0.18544">
        <ele>2256.4</ele>
        <time>2026-07-15T08:38:37Z</time>
      </trkpt>
      <trkpt lat="42.87776" lon="-0.18544">
        <ele>2256.4</ele>
        <time>2026-07-15T08:38:38Z</time>
      </trkpt>
      <trkpt lat="42.87776" lon="-0.18544">
        <ele>2256.4</ele>
        <time>2026-07-15T08:38:39Z</time>
      </trkpt>
      <trkpt lat="42.87776" lon="-0.18544">
        <ele>2256.4</ele>
        <time>2026-07-15T08:38:40Z</time>
      </trkpt>
      <trkpt lat="42.87776" lon="-0.18544">
        <ele>2255.4</ele>
        <time>2026-07-15T08:38:41Z</time>
      </trkpt>
      <trkpt lat="42.87776" lon="-0.18544">
        <ele>2255.4</ele>
        <time>2026-07-15T08:38:42Z</time>
      </trkpt>
      <trkpt lat="42.87775" lon="-0.18544">
        <ele>2255.4</ele>
        <time>2026-07-15T08:38:43Z</time>
      </trkpt>
      <trkpt lat="42.87775" lon="-0.18544">
        <ele>2255.4</ele>
        <time>2026-07-15T08:38:44Z</time>
      </trkpt>
      <trkpt lat="42.87775" lon="-0.18544">
        <ele>2255.4</ele>
        <time>2026-07-15T08:38:45Z</time>
      </trkpt>
      <trkpt lat="42.87775" lon="-0.18543">
        <ele>2254.4</ele>
        <time>2026-07-15T08:38:46Z</time>
      </trkpt>
      <trkpt lat="42.87776" lon="-0.18543">
        <ele>2254.4</ele>
        <time>2026-07-15T08:38:47Z</time>
      </trkpt>
      <trkpt lat="42.87776" lon="-0.18543">
        <ele>2254.4</ele>
        <time>2026-07-15T08:38:48Z</time>
      </trkpt>
      <trkpt lat="42.87776" lon="-0.18543">
        <ele>2255.4</ele>
        <time>2026-07-15T08:38:49Z</time>
      </trkpt>
      <trkpt lat="42.87776" lon="-0.18543">
        <ele>2255.4</ele>
        <time>2026-07-15T08:38:49Z</time>
      </trkpt>
      <trkpt lat="42.87776" lon="-0.18544">
        <ele>2255.4</ele>
        <time>2026-07-15T08:38:50Z</time>
      </trkpt>
      <trkpt lat="42.87776" lon="-0.18545">
        <ele>2254.4</ele>
        <time>2026-07-15T08:38:50Z</time>
      </trkpt>
      <trkpt lat="42.87776" lon="-0.18545">
        <ele>2254.4</ele>
        <time>2026-07-15T08:38:51Z</time>
      </trkpt>
      <trkpt lat="42.87776" lon="-0.18546">
        <ele>2254.4</ele>
        <time>2026-07-15T08:38:52Z</time>
      </trkpt>
      <trkpt lat="42.87776" lon="-0.18546">
        <ele>2254.4</ele>
        <time>2026-07-15T08:38:53Z</time>
      </trkpt>
      <trkpt lat="42.87776" lon="-0.18546">
        <ele>2254.4</ele>
        <time>2026-07-15T08:38:54Z</time>
      </trkpt>
      <trkpt lat="42.87776" lon="-0.18546">
        <ele>2254.4</ele>
        <time>2026-07-15T08:38:55Z</time>
      </trkpt>
      <trkpt lat="42.87776" lon="-0.18546">
        <ele>2254.4</ele>
        <time>2026-07-15T08:38:56Z</time>
      </trkpt>
      <trkpt lat="42.87776" lon="-0.18546">
        <ele>2254.4</ele>
        <time>2026-07-15T08:38:56Z</time>
      </trkpt>
      <trkpt lat="42.87776" lon="-0.18546">
        <ele>2254.4</ele>
        <time>2026-07-15T08:38:57Z</time>
      </trkpt>
      <trkpt lat="42.87776" lon="-0.18546">
        <ele>2254.4</ele>
        <time>2026-07-15T08:38:58Z</time>
      </trkpt>
      <trkpt lat="42.87776" lon="-0.18546">
        <ele>2254.4</ele>
        <time>2026-07-15T08:38:58Z</time>
      </trkpt>
      <trkpt lat="42.87776" lon="-0.18546">
        <ele>2254.4</ele>
        <time>2026-07-15T08:38:59Z</time>
      </trkpt>
      <trkpt lat="42.87776" lon="-0.18546">
        <ele>2257.4</ele>
        <time>2026-07-15T08:39:00Z</time>
      </trkpt>
      <trkpt lat="42.87776" lon="-0.18547">
        <ele>2257.4</ele>
        <time>2026-07-15T08:39:01Z</time>
      </trkpt>
      <trkpt lat="42.87775" lon="-0.18547">
        <ele>2257.4</ele>
        <time>2026-07-15T08:39:02Z</time>
      </trkpt>
      <trkpt lat="42.87775" lon="-0.18547">
        <ele>2257.4</ele>
        <time>2026-07-15T08:39:03Z</time>
      </trkpt>
      <trkpt lat="42.87775" lon="-0.18547">
        <ele>2257.4</ele>
        <time>2026-07-15T08:39:04Z</time>
      </trkpt>
      <trkpt lat="42.87775" lon="-0.18547">
        <ele>2257.4</ele>
        <time>2026-07-15T08:39:05Z</time>
      </trkpt>
      <trkpt lat="42.87775" lon="-0.18547">
        <ele>2257.4</ele>
        <time>2026-07-15T08:39:06Z</time>
      </trkpt>
      <trkpt lat="42.87775" lon="-0.18548">
        <ele>2257.4</ele>
        <time>2026-07-15T08:39:07Z</time>
      </trkpt>
      <trkpt lat="42.87775" lon="-0.18548">
        <ele>2257.4</ele>
        <time>2026-07-15T08:39:08Z</time>
      </trkpt>
      <trkpt lat="42.87775" lon="-0.18548">
        <ele>2257.4</ele>
        <time>2026-07-15T08:39:09Z</time>
      </trkpt>
      <trkpt lat="42.87775" lon="-0.18548">
        <ele>2257.4</ele>
        <time>2026-07-15T08:39:10Z</time>
      </trkpt>
      <trkpt lat="42.87775" lon="-0.18548">
        <ele>2257.4</ele>
        <time>2026-07-15T08:39:11Z</time>
      </trkpt>
      <trkpt lat="42.87775" lon="-0.18548">
        <ele>2257.4</ele>
        <time>2026-07-15T08:39:12Z</time>
      </trkpt>
      <trkpt lat="42.87775" lon="-0.18548">
        <ele>2257.4</ele>
        <time>2026-07-15T08:39:13Z</time>
      </trkpt>
      <trkpt lat="42.87775" lon="-0.18549">
        <ele>2257.4</ele>
        <time>2026-07-15T08:39:14Z</time>
      </trkpt>
      <trkpt lat="42.87774" lon="-0.18549">
        <ele>2257.4</ele>
        <time>2026-07-15T08:39:15Z</time>
      </trkpt>
      <trkpt lat="42.87774" lon="-0.18549">
        <ele>2257.4</ele>
        <time>2026-07-15T08:39:16Z</time>
      </trkpt>
      <trkpt lat="42.87774" lon="-0.18549">
        <ele>2256.4</ele>
        <time>2026-07-15T08:39:17Z</time>
      </trkpt>
      <trkpt lat="42.87774" lon="-0.1855">
        <ele>2256.4</ele>
        <time>2026-07-15T08:39:18Z</time>
      </trkpt>
      <trkpt lat="42.87773" lon="-0.1855">
        <ele>2256.4</ele>
        <time>2026-07-15T08:39:19Z</time>
      </trkpt>
      <trkpt lat="42.87773" lon="-0.1855">
        <ele>2257.4</ele>
        <time>2026-07-15T08:39:20Z</time>
      </trkpt>
      <trkpt lat="42.87772" lon="-0.1855">
        <ele>2257.4</ele>
        <time>2026-07-15T08:39:21Z</time>
      </trkpt>
      <trkpt lat="42.87771" lon="-0.1855">
        <ele>2256.4</ele>
        <time>2026-07-15T08:39:22Z</time>
      </trkpt>
      <trkpt lat="42.8777" lon="-0.18549">
        <ele>2257.4</ele>
        <time>2026-07-15T08:39:23Z</time>
      </trkpt>
      <trkpt lat="42.87769" lon="-0.1855">
        <ele>2256.4</ele>
        <time>2026-07-15T08:39:24Z</time>
      </trkpt>
      <trkpt lat="42.87768" lon="-0.18549">
        <ele>2255.4</ele>
        <time>2026-07-15T08:39:25Z</time>
      </trkpt>
      <trkpt lat="42.87767" lon="-0.18549">
        <ele>2255.4</ele>
        <time>2026-07-15T08:39:26Z</time>
      </trkpt>
      <trkpt lat="42.87766" lon="-0.18549">
        <ele>2255.4</ele>
        <time>2026-07-15T08:39:27Z</time>
      </trkpt>
      <trkpt lat="42.87765" lon="-0.18549">
        <ele>2255.4</ele>
        <time>2026-07-15T08:39:28Z</time>
      </trkpt>
      <trkpt lat="42.87765" lon="-0.1855">
        <ele>2255.4</ele>
        <time>2026-07-15T08:39:29Z</time>
      </trkpt>
      <trkpt lat="42.87764" lon="-0.18549">
        <ele>2254.4</ele>
        <time>2026-07-15T08:39:30Z</time>
      </trkpt>
      <trkpt lat="42.87763" lon="-0.18549">
        <ele>2254.4</ele>
        <time>2026-07-15T08:39:31Z</time>
      </trkpt>
      <trkpt lat="42.87762" lon="-0.18549">
        <ele>2254.4</ele>
        <time>2026-07-15T08:39:32Z</time>
      </trkpt>
      <trkpt lat="42.87761" lon="-0.18549">
        <ele>2254.4</ele>
        <time>2026-07-15T08:39:33Z</time>
      </trkpt>
      <trkpt lat="42.8776" lon="-0.18549">
        <ele>2254.4</ele>
        <time>2026-07-15T08:39:34Z</time>
      </trkpt>
      <trkpt lat="42.87759" lon="-0.1855">
        <ele>2254.4</ele>
        <time>2026-07-15T08:39:35Z</time>
      </trkpt>
      <trkpt lat="42.87758" lon="-0.18551">
        <ele>2254.4</ele>
        <time>2026-07-15T08:39:36Z</time>
      </trkpt>
      <trkpt lat="42.87758" lon="-0.18551">
        <ele>2254.4</ele>
        <time>2026-07-15T08:39:37Z</time>
      </trkpt>
      <trkpt lat="42.87757" lon="-0.18552">
        <ele>2254.4</ele>
        <time>2026-07-15T08:39:38Z</time>
      </trkpt>
      <trkpt lat="42.87756" lon="-0.18552">
        <ele>2254.4</ele>
        <time>2026-07-15T08:39:39Z</time>
      </trkpt>
      <trkpt lat="42.87755" lon="-0.18552">
        <ele>2254.4</ele>
        <time>2026-07-15T08:39:40Z</time>
      </trkpt>
      <trkpt lat="42.87754" lon="-0.18552">
        <ele>2254.4</ele>
        <time>2026-07-15T08:39:41Z</time>
      </trkpt>
      <trkpt lat="42.87753" lon="-0.18552">
        <ele>2254.4</ele>
        <time>2026-07-15T08:39:42Z</time>
      </trkpt>
      <trkpt lat="42.87752" lon="-0.18552">
        <ele>2254.4</ele>
        <time>2026-07-15T08:39:43Z</time>
      </trkpt>
      <trkpt lat="42.87751" lon="-0.18552">
        <ele>2255.4</ele>
        <time>2026-07-15T08:39:44Z</time>
      </trkpt>
      <trkpt lat="42.87751" lon="-0.18552">
        <ele>2254.4</ele>
        <time>2026-07-15T08:39:45Z</time>
      </trkpt>
      <trkpt lat="42.8775" lon="-0.18552">
        <ele>2255.4</ele>
        <time>2026-07-15T08:39:46Z</time>
      </trkpt>
      <trkpt lat="42.87749" lon="-0.18553">
        <ele>2255.4</ele>
        <time>2026-07-15T08:39:47Z</time>
      </trkpt>
      <trkpt lat="42.87749" lon="-0.18553">
        <ele>2256.4</ele>
        <time>2026-07-15T08:39:48Z</time>
      </trkpt>
      <trkpt lat="42.87748" lon="-0.18553">
        <ele>2256.4</ele>
        <time>2026-07-15T08:39:49Z</time>
      </trkpt>
      <trkpt lat="42.87745" lon="-0.18554">
        <ele>2255.4</ele>
        <time>2026-07-15T08:39:50Z</time>
      </trkpt>
      <trkpt lat="42.87744" lon="-0.18554">
        <ele>2255.4</ele>
        <time>2026-07-15T08:39:51Z</time>
      </trkpt>
      <trkpt lat="42.87744" lon="-0.18554">
        <ele>2256.4</ele>
        <time>2026-07-15T08:39:51Z</time>
      </trkpt>
      <trkpt lat="42.87743" lon="-0.18554">
        <ele>2256.4</ele>
        <time>2026-07-15T08:39:52Z</time>
      </trkpt>
      <trkpt lat="42.87743" lon="-0.18554">
        <ele>2256.4</ele>
        <time>2026-07-15T08:39:53Z</time>
      </trkpt>
      <trkpt lat="42.87742" lon="-0.18553">
        <ele>2256.4</ele>
        <time>2026-07-15T08:39:53Z</time>
      </trkpt>
      <trkpt lat="42.87742" lon="-0.18553">
        <ele>2256.4</ele>
        <time>2026-07-15T08:39:54Z</time>
      </trkpt>
      <trkpt lat="42.87741" lon="-0.1855">
        <ele>2256.4</ele>
        <time>2026-07-15T08:39:55Z</time>
      </trkpt>
      <trkpt lat="42.87741" lon="-0.18549">
        <ele>2256.4</ele>
        <time>2026-07-15T08:39:55Z</time>
      </trkpt>
      <trkpt lat="42.87741" lon="-0.18548">
        <ele>2256.4</ele>
        <time>2026-07-15T08:39:56Z</time>
      </trkpt>
      <trkpt lat="42.87741" lon="-0.18547">
        <ele>2256.4</ele>
        <time>2026-07-15T08:39:57Z</time>
      </trkpt>
      <trkpt lat="42.87741" lon="-0.18546">
        <ele>2256.4</ele>
        <time>2026-07-15T08:39:57Z</time>
      </trkpt>
      <trkpt lat="42.87741" lon="-0.18545">
        <ele>2256.4</ele>
        <time>2026-07-15T08:39:58Z</time>
      </trkpt>
      <trkpt lat="42.8774" lon="-0.18545">
        <ele>2256.4</ele>
        <time>2026-07-15T08:39:59Z</time>
      </trkpt>
      <trkpt lat="42.8774" lon="-0.18544">
        <ele>2256.4</ele>
        <time>2026-07-15T08:39:59Z</time>
      </trkpt>
      <trkpt lat="42.8774" lon="-0.18543">
        <ele>2256.4</ele>
        <time>2026-07-15T08:40:00Z</time>
      </trkpt>
      <trkpt lat="42.8774" lon="-0.18542">
        <ele>2256.4</ele>
        <time>2026-07-15T08:40:01Z</time>
      </trkpt>
      <trkpt lat="42.87739" lon="-0.18542">
        <ele>2256.4</ele>
        <time>2026-07-15T08:40:01Z</time>
      </trkpt>
      <trkpt lat="42.87739" lon="-0.18541">
        <ele>2256.4</ele>
        <time>2026-07-15T08:40:02Z</time>
      </trkpt>
      <trkpt lat="42.87739" lon="-0.1854">
        <ele>2256.4</ele>
        <time>2026-07-15T08:40:03Z</time>
      </trkpt>
      <trkpt lat="42.87739" lon="-0.1854">
        <ele>2256.4</ele>
        <time>2026-07-15T08:40:03Z</time>
      </trkpt>
      <trkpt lat="42.87738" lon="-0.18539">
        <ele>2256.4</ele>
        <time>2026-07-15T08:40:04Z</time>
      </trkpt>
      <trkpt lat="42.87738" lon="-0.18538">
        <ele>2256.4</ele>
        <time>2026-07-15T08:40:04Z</time>
      </trkpt>
      <trkpt lat="42.87738" lon="-0.18537">
        <ele>2256.4</ele>
        <time>2026-07-15T08:40:05Z</time>
      </trkpt>
      <trkpt lat="42.87737" lon="-0.18536">
        <ele>2256.4</ele>
        <time>2026-07-15T08:40:06Z</time>
      </trkpt>
      <trkpt lat="42.87737" lon="-0.18536">
        <ele>2256.4</ele>
        <time>2026-07-15T08:40:07Z</time>
      </trkpt>
      <trkpt lat="42.87736" lon="-0.18535">
        <ele>2256.4</ele>
        <time>2026-07-15T08:40:07Z</time>
      </trkpt>
      <trkpt lat="42.87736" lon="-0.18535">
        <ele>2256.4</ele>
        <time>2026-07-15T08:40:08Z</time>
      </trkpt>
      <trkpt lat="42.87735" lon="-0.18534">
        <ele>2256.4</ele>
        <time>2026-07-15T08:40:08Z</time>
      </trkpt>
      <trkpt lat="42.87735" lon="-0.18534">
        <ele>2256.4</ele>
        <time>2026-07-15T08:40:09Z</time>
      </trkpt>
      <trkpt lat="42.87734" lon="-0.18534">
        <ele>2256.4</ele>
        <time>2026-07-15T08:40:10Z</time>
      </trkpt>
      <trkpt lat="42.87733" lon="-0.18533">
        <ele>2255.4</ele>
        <time>2026-07-15T08:40:10Z</time>
      </trkpt>
      <trkpt lat="42.87733" lon="-0.18533">
        <ele>2255.4</ele>
        <time>2026-07-15T08:40:11Z</time>
      </trkpt>
      <trkpt lat="42.87732" lon="-0.18533">
        <ele>2255.4</ele>
        <time>2026-07-15T08:40:12Z</time>
      </trkpt>
      <trkpt lat="42.87731" lon="-0.18532">
        <ele>2255.4</ele>
        <time>2026-07-15T08:40:12Z</time>
      </trkpt>
      <trkpt lat="42.87731" lon="-0.18532">
        <ele>2255.4</ele>
        <time>2026-07-15T08:40:13Z</time>
      </trkpt>
      <trkpt lat="42.8773" lon="-0.18532">
        <ele>2255.4</ele>
        <time>2026-07-15T08:40:14Z</time>
      </trkpt>
      <trkpt lat="42.8773" lon="-0.18532">
        <ele>2255.4</ele>
        <time>2026-07-15T08:40:14Z</time>
      </trkpt>
      <trkpt lat="42.87729" lon="-0.18531">
        <ele>2255.4</ele>
        <time>2026-07-15T08:40:15Z</time>
      </trkpt>
      <trkpt lat="42.87728" lon="-0.18531">
        <ele>2255.4</ele>
        <time>2026-07-15T08:40:15Z</time>
      </trkpt>
      <trkpt lat="42.87728" lon="-0.18531">
        <ele>2255.4</ele>
        <time>2026-07-15T08:40:16Z</time>
      </trkpt>
      <trkpt lat="42.87727" lon="-0.1853">
        <ele>2255.4</ele>
        <time>2026-07-15T08:40:17Z</time>
      </trkpt>
      <trkpt lat="42.87727" lon="-0.1853">
        <ele>2255.4</ele>
        <time>2026-07-15T08:40:17Z</time>
      </trkpt>
      <trkpt lat="42.87726" lon="-0.1853">
        <ele>2255.4</ele>
        <time>2026-07-15T08:40:18Z</time>
      </trkpt>
      <trkpt lat="42.87725" lon="-0.18529">
        <ele>2255.4</ele>
        <time>2026-07-15T08:40:19Z</time>
      </trkpt>
      <trkpt lat="42.87725" lon="-0.18529">
        <ele>2255.4</ele>
        <time>2026-07-15T08:40:19Z</time>
      </trkpt>
      <trkpt lat="42.87724" lon="-0.18528">
        <ele>2255.4</ele>
        <time>2026-07-15T08:40:20Z</time>
      </trkpt>
      <trkpt lat="42.87724" lon="-0.18528">
        <ele>2255.4</ele>
        <time>2026-07-15T08:40:20Z</time>
      </trkpt>
      <trkpt lat="42.87723" lon="-0.18527">
        <ele>2255.4</ele>
        <time>2026-07-15T08:40:21Z</time>
      </trkpt>
      <trkpt lat="42.87723" lon="-0.18527">
        <ele>2255.4</ele>
        <time>2026-07-15T08:40:22Z</time>
      </trkpt>
      <trkpt lat="42.87722" lon="-0.18526">
        <ele>2255.4</ele>
        <time>2026-07-15T08:40:22Z</time>
      </trkpt>
      <trkpt lat="42.87721" lon="-0.18526">
        <ele>2255.4</ele>
        <time>2026-07-15T08:40:23Z</time>
      </trkpt>
      <trkpt lat="42.87721" lon="-0.18526">
        <ele>2255.4</ele>
        <time>2026-07-15T08:40:24Z</time>
      </trkpt>
      <trkpt lat="42.8772" lon="-0.18525">
        <ele>2255.4</ele>
        <time>2026-07-15T08:40:24Z</time>
      </trkpt>
      <trkpt lat="42.8772" lon="-0.18525">
        <ele>2256.4</ele>
        <time>2026-07-15T08:40:25Z</time>
      </trkpt>
      <trkpt lat="42.8772" lon="-0.18525">
        <ele>2256.4</ele>
        <time>2026-07-15T08:40:26Z</time>
      </trkpt>
      <trkpt lat="42.87719" lon="-0.18524">
        <ele>2256.4</ele>
        <time>2026-07-15T08:40:26Z</time>
      </trkpt>
      <trkpt lat="42.87719" lon="-0.18524">
        <ele>2256.4</ele>
        <time>2026-07-15T08:40:27Z</time>
      </trkpt>
      <trkpt lat="42.87718" lon="-0.18524">
        <ele>2256.4</ele>
        <time>2026-07-15T08:40:28Z</time>
      </trkpt>
      <trkpt lat="42.87718" lon="-0.18523">
        <ele>2257.4</ele>
        <time>2026-07-15T08:40:28Z</time>
      </trkpt>
      <trkpt lat="42.87717" lon="-0.18523">
        <ele>2258.4</ele>
        <time>2026-07-15T08:40:29Z</time>
      </trkpt>
      <trkpt lat="42.87717" lon="-0.18523">
        <ele>2258.4</ele>
        <time>2026-07-15T08:40:30Z</time>
      </trkpt>
      <trkpt lat="42.87716" lon="-0.18523">
        <ele>2258.4</ele>
        <time>2026-07-15T08:40:30Z</time>
      </trkpt>
      <trkpt lat="42.87716" lon="-0.18522">
        <ele>2258.4</ele>
        <time>2026-07-15T08:40:31Z</time>
      </trkpt>
      <trkpt lat="42.87715" lon="-0.18522">
        <ele>2259.4</ele>
        <time>2026-07-15T08:40:32Z</time>
      </trkpt>
      <trkpt lat="42.87715" lon="-0.18521">
        <ele>2259.4</ele>
        <time>2026-07-15T08:40:32Z</time>
      </trkpt>
      <trkpt lat="42.87714" lon="-0.18521">
        <ele>2259.4</ele>
        <time>2026-07-15T08:40:33Z</time>
      </trkpt>
      <trkpt lat="42.87714" lon="-0.18521">
        <ele>2260.4</ele>
        <time>2026-07-15T08:40:34Z</time>
      </trkpt>
      <trkpt lat="42.87714" lon="-0.1852">
        <ele>2260.4</ele>
        <time>2026-07-15T08:40:34Z</time>
      </trkpt>
      <trkpt lat="42.87713" lon="-0.1852">
        <ele>2260.4</ele>
        <time>2026-07-15T08:40:35Z</time>
      </trkpt>
      <trkpt lat="42.87713" lon="-0.18519">
        <ele>2260.4</ele>
        <time>2026-07-15T08:40:36Z</time>
      </trkpt>
      <trkpt lat="42.87713" lon="-0.18519">
        <ele>2260.4</ele>
        <time>2026-07-15T08:40:37Z</time>
      </trkpt>
      <trkpt lat="42.87713" lon="-0.18518">
        <ele>2260.4</ele>
        <time>2026-07-15T08:40:37Z</time>
      </trkpt>
      <trkpt lat="42.87712" lon="-0.18518">
        <ele>2260.4</ele>
        <time>2026-07-15T08:40:38Z</time>
      </trkpt>
      <trkpt lat="42.87712" lon="-0.18517">
        <ele>2259.4</ele>
        <time>2026-07-15T08:40:39Z</time>
      </trkpt>
      <trkpt lat="42.87711" lon="-0.18517">
        <ele>2259.4</ele>
        <time>2026-07-15T08:40:39Z</time>
      </trkpt>
      <trkpt lat="42.87711" lon="-0.18516">
        <ele>2259.4</ele>
        <time>2026-07-15T08:40:40Z</time>
      </trkpt>
      <trkpt lat="42.87711" lon="-0.18516">
        <ele>2260.4</ele>
        <time>2026-07-15T08:40:41Z</time>
      </trkpt>
      <trkpt lat="42.8771" lon="-0.18516">
        <ele>2260.4</ele>
        <time>2026-07-15T08:40:42Z</time>
      </trkpt>
      <trkpt lat="42.8771" lon="-0.18516">
        <ele>2260.4</ele>
        <time>2026-07-15T08:40:42Z</time>
      </trkpt>
      <trkpt lat="42.8771" lon="-0.18515">
        <ele>2260.4</ele>
        <time>2026-07-15T08:40:43Z</time>
      </trkpt>
      <trkpt lat="42.87709" lon="-0.18515">
        <ele>2260.4</ele>
        <time>2026-07-15T08:40:44Z</time>
      </trkpt>
      <trkpt lat="42.87709" lon="-0.18515">
        <ele>2261.4</ele>
        <time>2026-07-15T08:40:45Z</time>
      </trkpt>
      <trkpt lat="42.87708" lon="-0.18514">
        <ele>2261.4</ele>
        <time>2026-07-15T08:40:45Z</time>
      </trkpt>
      <trkpt lat="42.87708" lon="-0.18514">
        <ele>2261.4</ele>
        <time>2026-07-15T08:40:46Z</time>
      </trkpt>
      <trkpt lat="42.87707" lon="-0.18514">
        <ele>2261.4</ele>
        <time>2026-07-15T08:40:47Z</time>
      </trkpt>
      <trkpt lat="42.87706" lon="-0.18514">
        <ele>2261.4</ele>
        <time>2026-07-15T08:40:47Z</time>
      </trkpt>
      <trkpt lat="42.87706" lon="-0.18514">
        <ele>2261.4</ele>
        <time>2026-07-15T08:40:48Z</time>
      </trkpt>
      <trkpt lat="42.87706" lon="-0.18513">
        <ele>2261.4</ele>
        <time>2026-07-15T08:40:49Z</time>
      </trkpt>
      <trkpt lat="42.87705" lon="-0.18513">
        <ele>2261.4</ele>
        <time>2026-07-15T08:40:50Z</time>
      </trkpt>
      <trkpt lat="42.87705" lon="-0.18513">
        <ele>2261.4</ele>
        <time>2026-07-15T08:40:50Z</time>
      </trkpt>
      <trkpt lat="42.87704" lon="-0.18514">
        <ele>2261.4</ele>
        <time>2026-07-15T08:40:51Z</time>
      </trkpt>
      <trkpt lat="42.87704" lon="-0.18514">
        <ele>2261.4</ele>
        <time>2026-07-15T08:40:52Z</time>
      </trkpt>
      <trkpt lat="42.87703" lon="-0.18515">
        <ele>2261.4</ele>
        <time>2026-07-15T08:40:52Z</time>
      </trkpt>
      <trkpt lat="42.87703" lon="-0.18515">
        <ele>2261.4</ele>
        <time>2026-07-15T08:40:53Z</time>
      </trkpt>
      <trkpt lat="42.87702" lon="-0.18516">
        <ele>2261.4</ele>
        <time>2026-07-15T08:40:54Z</time>
      </trkpt>
      <trkpt lat="42.87702" lon="-0.18516">
        <ele>2262.4</ele>
        <time>2026-07-15T08:40:55Z</time>
      </trkpt>
      <trkpt lat="42.87702" lon="-0.18517">
        <ele>2262.4</ele>
        <time>2026-07-15T08:40:55Z</time>
      </trkpt>
      <trkpt lat="42.87701" lon="-0.18517">
        <ele>2262.4</ele>
        <time>2026-07-15T08:40:56Z</time>
      </trkpt>
      <trkpt lat="42.87701" lon="-0.18517">
        <ele>2262.4</ele>
        <time>2026-07-15T08:40:57Z</time>
      </trkpt>
      <trkpt lat="42.877" lon="-0.18517">
        <ele>2262.4</ele>
        <time>2026-07-15T08:40:58Z</time>
      </trkpt>
      <trkpt lat="42.877" lon="-0.18517">
        <ele>2262.4</ele>
        <time>2026-07-15T08:40:58Z</time>
      </trkpt>
      <trkpt lat="42.87699" lon="-0.18517">
        <ele>2262.4</ele>
        <time>2026-07-15T08:40:59Z</time>
      </trkpt>
      <trkpt lat="42.87699" lon="-0.18517">
        <ele>2262.4</ele>
        <time>2026-07-15T08:41:00Z</time>
      </trkpt>
      <trkpt lat="42.87699" lon="-0.18517">
        <ele>2262.4</ele>
        <time>2026-07-15T08:41:01Z</time>
      </trkpt>
      <trkpt lat="42.87698" lon="-0.18517">
        <ele>2262.4</ele>
        <time>2026-07-15T08:41:02Z</time>
      </trkpt>
      <trkpt lat="42.87698" lon="-0.18517">
        <ele>2263.4</ele>
        <time>2026-07-15T08:41:02Z</time>
      </trkpt>
      <trkpt lat="42.87697" lon="-0.18517">
        <ele>2262.4</ele>
        <time>2026-07-15T08:41:03Z</time>
      </trkpt>
      <trkpt lat="42.87697" lon="-0.18517">
        <ele>2263.4</ele>
        <time>2026-07-15T08:41:04Z</time>
      </trkpt>
      <trkpt lat="42.87696" lon="-0.18516">
        <ele>2263.4</ele>
        <time>2026-07-15T08:41:05Z</time>
      </trkpt>
      <trkpt lat="42.87696" lon="-0.18516">
        <ele>2264.4</ele>
        <time>2026-07-15T08:41:06Z</time>
      </trkpt>
      <trkpt lat="42.87696" lon="-0.18516">
        <ele>2264.4</ele>
        <time>2026-07-15T08:41:07Z</time>
      </trkpt>
      <trkpt lat="42.87696" lon="-0.18515">
        <ele>2264.4</ele>
        <time>2026-07-15T08:41:07Z</time>
      </trkpt>
      <trkpt lat="42.87696" lon="-0.18515">
        <ele>2264.4</ele>
        <time>2026-07-15T08:41:08Z</time>
      </trkpt>
      <trkpt lat="42.87696" lon="-0.18514">
        <ele>2265.4</ele>
        <time>2026-07-15T08:41:09Z</time>
      </trkpt>
      <trkpt lat="42.87695" lon="-0.18513">
        <ele>2265.4</ele>
        <time>2026-07-15T08:41:10Z</time>
      </trkpt>
      <trkpt lat="42.87695" lon="-0.18513">
        <ele>2265.4</ele>
        <time>2026-07-15T08:41:11Z</time>
      </trkpt>
      <trkpt lat="42.87695" lon="-0.18513">
        <ele>2265.4</ele>
        <time>2026-07-15T08:41:11Z</time>
      </trkpt>
      <trkpt lat="42.87695" lon="-0.18513">
        <ele>2265.4</ele>
        <time>2026-07-15T08:41:12Z</time>
      </trkpt>
      <trkpt lat="42.87695" lon="-0.18514">
        <ele>2265.4</ele>
        <time>2026-07-15T08:41:13Z</time>
      </trkpt>
      <trkpt lat="42.87695" lon="-0.18514">
        <ele>2265.4</ele>
        <time>2026-07-15T08:41:14Z</time>
      </trkpt>
      <trkpt lat="42.87695" lon="-0.18514">
        <ele>2265.4</ele>
        <time>2026-07-15T08:41:15Z</time>
      </trkpt>
      <trkpt lat="42.87694" lon="-0.18514">
        <ele>2265.4</ele>
        <time>2026-07-15T08:41:15Z</time>
      </trkpt>
      <trkpt lat="42.87695" lon="-0.18515">
        <ele>2265.4</ele>
        <time>2026-07-15T08:41:16Z</time>
      </trkpt>
      <trkpt lat="42.87694" lon="-0.18515">
        <ele>2265.4</ele>
        <time>2026-07-15T08:41:17Z</time>
      </trkpt>
      <trkpt lat="42.87695" lon="-0.18515">
        <ele>2265.4</ele>
        <time>2026-07-15T08:41:18Z</time>
      </trkpt>
      <trkpt lat="42.87695" lon="-0.18515">
        <ele>2265.4</ele>
        <time>2026-07-15T08:41:19Z</time>
      </trkpt>
      <trkpt lat="42.87695" lon="-0.18515">
        <ele>2265.4</ele>
        <time>2026-07-15T08:41:20Z</time>
      </trkpt>
      <trkpt lat="42.87695" lon="-0.18516">
        <ele>2265.4</ele>
        <time>2026-07-15T08:41:21Z</time>
      </trkpt>
      <trkpt lat="42.87695" lon="-0.18516">
        <ele>2265.4</ele>
        <time>2026-07-15T08:41:21Z</time>
      </trkpt>
      <trkpt lat="42.87695" lon="-0.18517">
        <ele>2266.4</ele>
        <time>2026-07-15T08:41:22Z</time>
      </trkpt>
      <trkpt lat="42.87695" lon="-0.18518">
        <ele>2267.4</ele>
        <time>2026-07-15T08:41:23Z</time>
      </trkpt>
      <trkpt lat="42.87694" lon="-0.18519">
        <ele>2267.4</ele>
        <time>2026-07-15T08:41:24Z</time>
      </trkpt>
      <trkpt lat="42.87694" lon="-0.1852">
        <ele>2267.4</ele>
        <time>2026-07-15T08:41:25Z</time>
      </trkpt>
      <trkpt lat="42.87694" lon="-0.18521">
        <ele>2266.4</ele>
        <time>2026-07-15T08:41:26Z</time>
      </trkpt>
      <trkpt lat="42.87694" lon="-0.18522">
        <ele>2267.4</ele>
        <time>2026-07-15T08:41:27Z</time>
      </trkpt>
      <trkpt lat="42.87694" lon="-0.18523">
        <ele>2267.4</ele>
        <time>2026-07-15T08:41:28Z</time>
      </trkpt>
      <trkpt lat="42.87694" lon="-0.18523">
        <ele>2267.4</ele>
        <time>2026-07-15T08:41:28Z</time>
      </trkpt>
      <trkpt lat="42.87694" lon="-0.18524">
        <ele>2267.4</ele>
        <time>2026-07-15T08:41:29Z</time>
      </trkpt>
      <trkpt lat="42.87694" lon="-0.18524">
        <ele>2267.4</ele>
        <time>2026-07-15T08:41:29Z</time>
      </trkpt>
      <trkpt lat="42.87694" lon="-0.18525">
        <ele>2267.4</ele>
        <time>2026-07-15T08:41:30Z</time>
      </trkpt>
      <trkpt lat="42.87694" lon="-0.18526">
        <ele>2268.4</ele>
        <time>2026-07-15T08:41:31Z</time>
      </trkpt>
      <trkpt lat="42.87694" lon="-0.18526">
        <ele>2268.4</ele>
        <time>2026-07-15T08:41:32Z</time>
      </trkpt>
      <trkpt lat="42.87694" lon="-0.18527">
        <ele>2268.4</ele>
        <time>2026-07-15T08:41:33Z</time>
      </trkpt>
      <trkpt lat="42.87694" lon="-0.18527">
        <ele>2268.4</ele>
        <time>2026-07-15T08:41:34Z</time>
      </trkpt>
      <trkpt lat="42.87694" lon="-0.18528">
        <ele>2268.4</ele>
        <time>2026-07-15T08:41:35Z</time>
      </trkpt>
      <trkpt lat="42.87694" lon="-0.18529">
        <ele>2268.4</ele>
        <time>2026-07-15T08:41:36Z</time>
      </trkpt>
      <trkpt lat="42.87694" lon="-0.1853">
        <ele>2268.4</ele>
        <time>2026-07-15T08:41:37Z</time>
      </trkpt>
      <trkpt lat="42.87694" lon="-0.1853">
        <ele>2268.4</ele>
        <time>2026-07-15T08:41:37Z</time>
      </trkpt>
      <trkpt lat="42.87694" lon="-0.18531">
        <ele>2268.4</ele>
        <time>2026-07-15T08:41:38Z</time>
      </trkpt>
      <trkpt lat="42.87694" lon="-0.18532">
        <ele>2268.4</ele>
        <time>2026-07-15T08:41:39Z</time>
      </trkpt>
      <trkpt lat="42.87694" lon="-0.18533">
        <ele>2268.4</ele>
        <time>2026-07-15T08:41:40Z</time>
      </trkpt>
      <trkpt lat="42.87694" lon="-0.18534">
        <ele>2268.4</ele>
        <time>2026-07-15T08:41:41Z</time>
      </trkpt>
      <trkpt lat="42.87694" lon="-0.18534">
        <ele>2268.4</ele>
        <time>2026-07-15T08:41:41Z</time>
      </trkpt>
      <trkpt lat="42.87694" lon="-0.18535">
        <ele>2268.4</ele>
        <time>2026-07-15T08:41:42Z</time>
      </trkpt>
      <trkpt lat="42.87694" lon="-0.18536">
        <ele>2268.4</ele>
        <time>2026-07-15T08:41:43Z</time>
      </trkpt>
      <trkpt lat="42.87694" lon="-0.18536">
        <ele>2268.4</ele>
        <time>2026-07-15T08:41:43Z</time>
      </trkpt>
      <trkpt lat="42.87694" lon="-0.18537">
        <ele>2268.4</ele>
        <time>2026-07-15T08:41:44Z</time>
      </trkpt>
      <trkpt lat="42.87693" lon="-0.18538">
        <ele>2268.4</ele>
        <time>2026-07-15T08:41:45Z</time>
      </trkpt>
      <trkpt lat="42.87693" lon="-0.18539">
        <ele>2268.4</ele>
        <time>2026-07-15T08:41:46Z</time>
      </trkpt>
      <trkpt lat="42.87693" lon="-0.18539">
        <ele>2268.4</ele>
        <time>2026-07-15T08:41:47Z</time>
      </trkpt>
      <trkpt lat="42.87693" lon="-0.18539">
        <ele>2268.4</ele>
        <time>2026-07-15T08:41:48Z</time>
      </trkpt>
      <trkpt lat="42.87693" lon="-0.1854">
        <ele>2267.4</ele>
        <time>2026-07-15T08:41:48Z</time>
      </trkpt>
      <trkpt lat="42.87693" lon="-0.1854">
        <ele>2268.4</ele>
        <time>2026-07-15T08:41:49Z</time>
      </trkpt>
      <trkpt lat="42.87693" lon="-0.1854">
        <ele>2268.4</ele>
        <time>2026-07-15T08:41:50Z</time>
      </trkpt>
      <trkpt lat="42.87693" lon="-0.18541">
        <ele>2268.4</ele>
        <time>2026-07-15T08:41:51Z</time>
      </trkpt>
      <trkpt lat="42.87693" lon="-0.18542">
        <ele>2268.4</ele>
        <time>2026-07-15T08:41:52Z</time>
      </trkpt>
      <trkpt lat="42.87692" lon="-0.18542">
        <ele>2268.4</ele>
        <time>2026-07-15T08:41:52Z</time>
      </trkpt>
      <trkpt lat="42.87692" lon="-0.18543">
        <ele>2268.4</ele>
        <time>2026-07-15T08:41:53Z</time>
      </trkpt>
      <trkpt lat="42.87692" lon="-0.18544">
        <ele>2268.4</ele>
        <time>2026-07-15T08:41:54Z</time>
      </trkpt>
      <trkpt lat="42.87692" lon="-0.18545">
        <ele>2267.4</ele>
        <time>2026-07-15T08:41:55Z</time>
      </trkpt>
      <trkpt lat="42.87691" lon="-0.18546">
        <ele>2268.4</ele>
        <time>2026-07-15T08:41:56Z</time>
      </trkpt>
      <trkpt lat="42.87691" lon="-0.18546">
        <ele>2268.4</ele>
        <time>2026-07-15T08:41:57Z</time>
      </trkpt>
      <trkpt lat="42.8769" lon="-0.18547">
        <ele>2268.4</ele>
        <time>2026-07-15T08:41:58Z</time>
      </trkpt>
      <trkpt lat="42.8769" lon="-0.18547">
        <ele>2268.4</ele>
        <time>2026-07-15T08:41:59Z</time>
      </trkpt>
      <trkpt lat="42.8769" lon="-0.18548">
        <ele>2268.4</ele>
        <time>2026-07-15T08:42:00Z</time>
      </trkpt>
      <trkpt lat="42.87689" lon="-0.18549">
        <ele>2269.4</ele>
        <time>2026-07-15T08:42:00Z</time>
      </trkpt>
      <trkpt lat="42.87689" lon="-0.18549">
        <ele>2269.4</ele>
        <time>2026-07-15T08:42:01Z</time>
      </trkpt>
      <trkpt lat="42.87689" lon="-0.1855">
        <ele>2270.4</ele>
        <time>2026-07-15T08:42:02Z</time>
      </trkpt>
      <trkpt lat="42.87689" lon="-0.18551">
        <ele>2270.4</ele>
        <time>2026-07-15T08:42:03Z</time>
      </trkpt>
      <trkpt lat="42.87689" lon="-0.18551">
        <ele>2270.4</ele>
        <time>2026-07-15T08:42:04Z</time>
      </trkpt>
      <trkpt lat="42.87689" lon="-0.18552">
        <ele>2270.4</ele>
        <time>2026-07-15T08:42:05Z</time>
      </trkpt>
      <trkpt lat="42.87689" lon="-0.18553">
        <ele>2270.4</ele>
        <time>2026-07-15T08:42:06Z</time>
      </trkpt>
      <trkpt lat="42.87688" lon="-0.18554">
        <ele>2270.4</ele>
        <time>2026-07-15T08:42:07Z</time>
      </trkpt>
      <trkpt lat="42.87688" lon="-0.18554">
        <ele>2270.4</ele>
        <time>2026-07-15T08:42:07Z</time>
      </trkpt>
      <trkpt lat="42.87688" lon="-0.18555">
        <ele>2270.4</ele>
        <time>2026-07-15T08:42:08Z</time>
      </trkpt>
      <trkpt lat="42.87688" lon="-0.18556">
        <ele>2271.4</ele>
        <time>2026-07-15T08:42:09Z</time>
      </trkpt>
      <trkpt lat="42.87688" lon="-0.18556">
        <ele>2271.4</ele>
        <time>2026-07-15T08:42:10Z</time>
      </trkpt>
      <trkpt lat="42.87688" lon="-0.18556">
        <ele>2271.4</ele>
        <time>2026-07-15T08:42:11Z</time>
      </trkpt>
      <trkpt lat="42.87688" lon="-0.18557">
        <ele>2271.4</ele>
        <time>2026-07-15T08:42:12Z</time>
      </trkpt>
      <trkpt lat="42.87688" lon="-0.18557">
        <ele>2271.4</ele>
        <time>2026-07-15T08:42:13Z</time>
      </trkpt>
      <trkpt lat="42.87688" lon="-0.18558">
        <ele>2271.4</ele>
        <time>2026-07-15T08:42:14Z</time>
      </trkpt>
      <trkpt lat="42.87687" lon="-0.18559">
        <ele>2271.4</ele>
        <time>2026-07-15T08:42:15Z</time>
      </trkpt>
      <trkpt lat="42.87687" lon="-0.18559">
        <ele>2271.4</ele>
        <time>2026-07-15T08:42:16Z</time>
      </trkpt>
      <trkpt lat="42.87688" lon="-0.18559">
        <ele>2272.4</ele>
        <time>2026-07-15T08:42:17Z</time>
      </trkpt>
      <trkpt lat="42.87688" lon="-0.18559">
        <ele>2272.4</ele>
        <time>2026-07-15T08:42:17Z</time>
      </trkpt>
      <trkpt lat="42.87688" lon="-0.18559">
        <ele>2272.4</ele>
        <time>2026-07-15T08:42:18Z</time>
      </trkpt>
      <trkpt lat="42.87688" lon="-0.1856">
        <ele>2272.4</ele>
        <time>2026-07-15T08:42:19Z</time>
      </trkpt>
      <trkpt lat="42.87688" lon="-0.18561">
        <ele>2272.4</ele>
        <time>2026-07-15T08:42:20Z</time>
      </trkpt>
      <trkpt lat="42.87688" lon="-0.18561">
        <ele>2272.4</ele>
        <time>2026-07-15T08:42:21Z</time>
      </trkpt>
      <trkpt lat="42.87688" lon="-0.18562">
        <ele>2272.4</ele>
        <time>2026-07-15T08:42:21Z</time>
      </trkpt>
      <trkpt lat="42.87688" lon="-0.18563">
        <ele>2272.4</ele>
        <time>2026-07-15T08:42:22Z</time>
      </trkpt>
      <trkpt lat="42.87688" lon="-0.18563">
        <ele>2272.4</ele>
        <time>2026-07-15T08:42:23Z</time>
      </trkpt>
      <trkpt lat="42.87688" lon="-0.18564">
        <ele>2272.4</ele>
        <time>2026-07-15T08:42:24Z</time>
      </trkpt>
      <trkpt lat="42.87688" lon="-0.18564">
        <ele>2272.4</ele>
        <time>2026-07-15T08:42:24Z</time>
      </trkpt>
      <trkpt lat="42.87688" lon="-0.18565">
        <ele>2272.4</ele>
        <time>2026-07-15T08:42:25Z</time>
      </trkpt>
      <trkpt lat="42.87689" lon="-0.18565">
        <ele>2272.4</ele>
        <time>2026-07-15T08:42:26Z</time>
      </trkpt>
      <trkpt lat="42.87689" lon="-0.18565">
        <ele>2271.4</ele>
        <time>2026-07-15T08:42:27Z</time>
      </trkpt>
      <trkpt lat="42.87689" lon="-0.18566">
        <ele>2271.4</ele>
        <time>2026-07-15T08:42:28Z</time>
      </trkpt>
      <trkpt lat="42.87689" lon="-0.18566">
        <ele>2271.4</ele>
        <time>2026-07-15T08:42:29Z</time>
      </trkpt>
      <trkpt lat="42.87689" lon="-0.18566">
        <ele>2271.4</ele>
        <time>2026-07-15T08:42:30Z</time>
      </trkpt>
      <trkpt lat="42.87689" lon="-0.18567">
        <ele>2271.4</ele>
        <time>2026-07-15T08:42:31Z</time>
      </trkpt>
      <trkpt lat="42.87689" lon="-0.18568">
        <ele>2272.4</ele>
        <time>2026-07-15T08:42:32Z</time>
      </trkpt>
      <trkpt lat="42.87689" lon="-0.18569">
        <ele>2272.4</ele>
        <time>2026-07-15T08:42:33Z</time>
      </trkpt>
      <trkpt lat="42.87689" lon="-0.1857">
        <ele>2272.4</ele>
        <time>2026-07-15T08:42:34Z</time>
      </trkpt>
      <trkpt lat="42.87689" lon="-0.18571">
        <ele>2272.4</ele>
        <time>2026-07-15T08:42:35Z</time>
      </trkpt>
      <trkpt lat="42.87688" lon="-0.18572">
        <ele>2272.4</ele>
        <time>2026-07-15T08:42:36Z</time>
      </trkpt>
      <trkpt lat="42.87688" lon="-0.18573">
        <ele>2272.4</ele>
        <time>2026-07-15T08:42:37Z</time>
      </trkpt>
      <trkpt lat="42.87688" lon="-0.18574">
        <ele>2272.4</ele>
        <time>2026-07-15T08:42:38Z</time>
      </trkpt>
      <trkpt lat="42.87688" lon="-0.18575">
        <ele>2272.4</ele>
        <time>2026-07-15T08:42:39Z</time>
      </trkpt>
      <trkpt lat="42.87688" lon="-0.18576">
        <ele>2272.4</ele>
        <time>2026-07-15T08:42:39Z</time>
      </trkpt>
      <trkpt lat="42.87688" lon="-0.18576">
        <ele>2273.4</ele>
        <time>2026-07-15T08:42:40Z</time>
      </trkpt>
      <trkpt lat="42.87688" lon="-0.18577">
        <ele>2273.4</ele>
        <time>2026-07-15T08:42:41Z</time>
      </trkpt>
      <trkpt lat="42.87688" lon="-0.18577">
        <ele>2273.4</ele>
        <time>2026-07-15T08:42:42Z</time>
      </trkpt>
      <trkpt lat="42.87688" lon="-0.18578">
        <ele>2273.4</ele>
        <time>2026-07-15T08:42:43Z</time>
      </trkpt>
      <trkpt lat="42.87688" lon="-0.18579">
        <ele>2273.4</ele>
        <time>2026-07-15T08:42:44Z</time>
      </trkpt>
      <trkpt lat="42.87688" lon="-0.1858">
        <ele>2274.4</ele>
        <time>2026-07-15T08:42:44Z</time>
      </trkpt>
      <trkpt lat="42.87688" lon="-0.1858">
        <ele>2274.4</ele>
        <time>2026-07-15T08:42:45Z</time>
      </trkpt>
      <trkpt lat="42.87688" lon="-0.18581">
        <ele>2274.4</ele>
        <time>2026-07-15T08:42:46Z</time>
      </trkpt>
      <trkpt lat="42.87688" lon="-0.18582">
        <ele>2274.4</ele>
        <time>2026-07-15T08:42:47Z</time>
      </trkpt>
      <trkpt lat="42.87688" lon="-0.18583">
        <ele>2275.4</ele>
        <time>2026-07-15T08:42:48Z</time>
      </trkpt>
      <trkpt lat="42.87688" lon="-0.18584">
        <ele>2274.4</ele>
        <time>2026-07-15T08:42:49Z</time>
      </trkpt>
      <trkpt lat="42.87688" lon="-0.18585">
        <ele>2275.4</ele>
        <time>2026-07-15T08:42:50Z</time>
      </trkpt>
      <trkpt lat="42.87688" lon="-0.18586">
        <ele>2275.4</ele>
        <time>2026-07-15T08:42:51Z</time>
      </trkpt>
      <trkpt lat="42.87688" lon="-0.18587">
        <ele>2275.4</ele>
        <time>2026-07-15T08:42:52Z</time>
      </trkpt>
      <trkpt lat="42.87688" lon="-0.18588">
        <ele>2275.4</ele>
        <time>2026-07-15T08:42:53Z</time>
      </trkpt>
      <trkpt lat="42.87688" lon="-0.18588">
        <ele>2274.4</ele>
        <time>2026-07-15T08:42:54Z</time>
      </trkpt>
      <trkpt lat="42.87688" lon="-0.18589">
        <ele>2274.4</ele>
        <time>2026-07-15T08:42:55Z</time>
      </trkpt>
      <trkpt lat="42.87688" lon="-0.1859">
        <ele>2274.4</ele>
        <time>2026-07-15T08:42:55Z</time>
      </trkpt>
      <trkpt lat="42.87688" lon="-0.1859">
        <ele>2274.4</ele>
        <time>2026-07-15T08:42:55Z</time>
      </trkpt>
      <trkpt lat="42.87688" lon="-0.18591">
        <ele>2274.4</ele>
        <time>2026-07-15T08:42:56Z</time>
      </trkpt>
      <trkpt lat="42.87688" lon="-0.18592">
        <ele>2274.4</ele>
        <time>2026-07-15T08:42:57Z</time>
      </trkpt>
      <trkpt lat="42.87688" lon="-0.18593">
        <ele>2274.4</ele>
        <time>2026-07-15T08:42:58Z</time>
      </trkpt>
      <trkpt lat="42.87688" lon="-0.18593">
        <ele>2274.4</ele>
        <time>2026-07-15T08:42:59Z</time>
      </trkpt>
      <trkpt lat="42.87688" lon="-0.18594">
        <ele>2274.4</ele>
        <time>2026-07-15T08:43:00Z</time>
      </trkpt>
      <trkpt lat="42.87688" lon="-0.18595">
        <ele>2274.4</ele>
        <time>2026-07-15T08:43:00Z</time>
      </trkpt>
      <trkpt lat="42.87689" lon="-0.18596">
        <ele>2273.4</ele>
        <time>2026-07-15T08:43:01Z</time>
      </trkpt>
      <trkpt lat="42.87689" lon="-0.18596">
        <ele>2273.4</ele>
        <time>2026-07-15T08:43:02Z</time>
      </trkpt>
      <trkpt lat="42.87689" lon="-0.18597">
        <ele>2273.4</ele>
        <time>2026-07-15T08:43:03Z</time>
      </trkpt>
      <trkpt lat="42.87689" lon="-0.18598">
        <ele>2274.4</ele>
        <time>2026-07-15T08:43:04Z</time>
      </trkpt>
      <trkpt lat="42.87689" lon="-0.18599">
        <ele>2274.4</ele>
        <time>2026-07-15T08:43:05Z</time>
      </trkpt>
      <trkpt lat="42.87689" lon="-0.18601">
        <ele>2274.4</ele>
        <time>2026-07-15T08:43:06Z</time>
      </trkpt>
      <trkpt lat="42.87689" lon="-0.18602">
        <ele>2274.4</ele>
        <time>2026-07-15T08:43:07Z</time>
      </trkpt>
      <trkpt lat="42.87689" lon="-0.18603">
        <ele>2274.4</ele>
        <time>2026-07-15T08:43:08Z</time>
      </trkpt>
      <trkpt lat="42.8769" lon="-0.18603">
        <ele>2274.4</ele>
        <time>2026-07-15T08:43:09Z</time>
      </trkpt>
      <trkpt lat="42.8769" lon="-0.18604">
        <ele>2276.4</ele>
        <time>2026-07-15T08:43:10Z</time>
      </trkpt>
      <trkpt lat="42.8769" lon="-0.18604">
        <ele>2276.4</ele>
        <time>2026-07-15T08:43:11Z</time>
      </trkpt>
      <trkpt lat="42.8769" lon="-0.18605">
        <ele>2276.4</ele>
        <time>2026-07-15T08:43:12Z</time>
      </trkpt>
      <trkpt lat="42.8769" lon="-0.18605">
        <ele>2276.4</ele>
        <time>2026-07-15T08:43:13Z</time>
      </trkpt>
      <trkpt lat="42.8769" lon="-0.18606">
        <ele>2276.4</ele>
        <time>2026-07-15T08:43:13Z</time>
      </trkpt>
      <trkpt lat="42.8769" lon="-0.18607">
        <ele>2277.4</ele>
        <time>2026-07-15T08:43:14Z</time>
      </trkpt>
      <trkpt lat="42.87689" lon="-0.18608">
        <ele>2277.4</ele>
        <time>2026-07-15T08:43:15Z</time>
      </trkpt>
      <trkpt lat="42.87689" lon="-0.18609">
        <ele>2277.4</ele>
        <time>2026-07-15T08:43:16Z</time>
      </trkpt>
      <trkpt lat="42.87689" lon="-0.1861">
        <ele>2277.4</ele>
        <time>2026-07-15T08:43:17Z</time>
      </trkpt>
      <trkpt lat="42.87689" lon="-0.1861">
        <ele>2277.4</ele>
        <time>2026-07-15T08:43:18Z</time>
      </trkpt>
      <trkpt lat="42.87688" lon="-0.18611">
        <ele>2277.4</ele>
        <time>2026-07-15T08:43:18Z</time>
      </trkpt>
      <trkpt lat="42.87688" lon="-0.18612">
        <ele>2277.4</ele>
        <time>2026-07-15T08:43:19Z</time>
      </trkpt>
      <trkpt lat="42.87688" lon="-0.18613">
        <ele>2277.4</ele>
        <time>2026-07-15T08:43:20Z</time>
      </trkpt>
      <trkpt lat="42.87688" lon="-0.18613">
        <ele>2276.4</ele>
        <time>2026-07-15T08:43:21Z</time>
      </trkpt>
      <trkpt lat="42.87688" lon="-0.18613">
        <ele>2276.4</ele>
        <time>2026-07-15T08:43:22Z</time>
      </trkpt>
      <trkpt lat="42.87688" lon="-0.18614">
        <ele>2276.4</ele>
        <time>2026-07-15T08:43:22Z</time>
      </trkpt>
      <trkpt lat="42.87687" lon="-0.18614">
        <ele>2276.4</ele>
        <time>2026-07-15T08:43:23Z</time>
      </trkpt>
      <trkpt lat="42.87687" lon="-0.18614">
        <ele>2276.4</ele>
        <time>2026-07-15T08:43:23Z</time>
      </trkpt>
      <trkpt lat="42.87687" lon="-0.18614">
        <ele>2276.4</ele>
        <time>2026-07-15T08:43:24Z</time>
      </trkpt>
      <trkpt lat="42.87687" lon="-0.18614">
        <ele>2276.4</ele>
        <time>2026-07-15T08:43:25Z</time>
      </trkpt>
      <trkpt lat="42.87687" lon="-0.18615">
        <ele>2277.4</ele>
        <time>2026-07-15T08:43:26Z</time>
      </trkpt>
      <trkpt lat="42.87687" lon="-0.18616">
        <ele>2277.4</ele>
        <time>2026-07-15T08:43:26Z</time>
      </trkpt>
      <trkpt lat="42.87687" lon="-0.18616">
        <ele>2277.4</ele>
        <time>2026-07-15T08:43:27Z</time>
      </trkpt>
      <trkpt lat="42.87687" lon="-0.18617">
        <ele>2279.4</ele>
        <time>2026-07-15T08:43:28Z</time>
      </trkpt>
      <trkpt lat="42.87687" lon="-0.18618">
        <ele>2279.4</ele>
        <time>2026-07-15T08:43:29Z</time>
      </trkpt>
      <trkpt lat="42.87687" lon="-0.18619">
        <ele>2280.4</ele>
        <time>2026-07-15T08:43:30Z</time>
      </trkpt>
      <trkpt lat="42.87687" lon="-0.1862">
        <ele>2280.4</ele>
        <time>2026-07-15T08:43:31Z</time>
      </trkpt>
      <trkpt lat="42.87687" lon="-0.18621">
        <ele>2281.4</ele>
        <time>2026-07-15T08:43:32Z</time>
      </trkpt>
      <trkpt lat="42.87687" lon="-0.18621">
        <ele>2281.4</ele>
        <time>2026-07-15T08:43:33Z</time>
      </trkpt>
      <trkpt lat="42.87687" lon="-0.18622">
        <ele>2281.4</ele>
        <time>2026-07-15T08:43:34Z</time>
      </trkpt>
      <trkpt lat="42.87686" lon="-0.18623">
        <ele>2280.4</ele>
        <time>2026-07-15T08:43:35Z</time>
      </trkpt>
      <trkpt lat="42.87686" lon="-0.18623">
        <ele>2281.4</ele>
        <time>2026-07-15T08:43:35Z</time>
      </trkpt>
      <trkpt lat="42.87686" lon="-0.18624">
        <ele>2281.4</ele>
        <time>2026-07-15T08:43:36Z</time>
      </trkpt>
      <trkpt lat="42.87686" lon="-0.18625">
        <ele>2281.4</ele>
        <time>2026-07-15T08:43:37Z</time>
      </trkpt>
      <trkpt lat="42.87685" lon="-0.18626">
        <ele>2281.4</ele>
        <time>2026-07-15T08:43:37Z</time>
      </trkpt>
      <trkpt lat="42.87685" lon="-0.18627">
        <ele>2281.4</ele>
        <time>2026-07-15T08:43:38Z</time>
      </trkpt>
      <trkpt lat="42.87685" lon="-0.18627">
        <ele>2281.4</ele>
        <time>2026-07-15T08:43:39Z</time>
      </trkpt>
      <trkpt lat="42.87685" lon="-0.18628">
        <ele>2280.4</ele>
        <time>2026-07-15T08:43:40Z</time>
      </trkpt>
      <trkpt lat="42.87685" lon="-0.18629">
        <ele>2280.4</ele>
        <time>2026-07-15T08:43:41Z</time>
      </trkpt>
      <trkpt lat="42.87685" lon="-0.1863">
        <ele>2280.4</ele>
        <time>2026-07-15T08:43:41Z</time>
      </trkpt>
      <trkpt lat="42.87685" lon="-0.18631">
        <ele>2280.4</ele>
        <time>2026-07-15T08:43:42Z</time>
      </trkpt>
      <trkpt lat="42.87685" lon="-0.18631">
        <ele>2280.4</ele>
        <time>2026-07-15T08:43:43Z</time>
      </trkpt>
      <trkpt lat="42.87685" lon="-0.18632">
        <ele>2280.4</ele>
        <time>2026-07-15T08:43:44Z</time>
      </trkpt>
      <trkpt lat="42.87684" lon="-0.18633">
        <ele>2280.4</ele>
        <time>2026-07-15T08:43:45Z</time>
      </trkpt>
      <trkpt lat="42.87684" lon="-0.18633">
        <ele>2279.4</ele>
        <time>2026-07-15T08:43:45Z</time>
      </trkpt>
      <trkpt lat="42.87684" lon="-0.18634">
        <ele>2280.4</ele>
        <time>2026-07-15T08:43:46Z</time>
      </trkpt>
      <trkpt lat="42.87684" lon="-0.18634">
        <ele>2280.4</ele>
        <time>2026-07-15T08:43:47Z</time>
      </trkpt>
      <trkpt lat="42.87683" lon="-0.18635">
        <ele>2280.4</ele>
        <time>2026-07-15T08:43:48Z</time>
      </trkpt>
      <trkpt lat="42.87683" lon="-0.18636">
        <ele>2280.4</ele>
        <time>2026-07-15T08:43:49Z</time>
      </trkpt>
      <trkpt lat="42.87683" lon="-0.18636">
        <ele>2280.4</ele>
        <time>2026-07-15T08:43:50Z</time>
      </trkpt>
      <trkpt lat="42.87683" lon="-0.18637">
        <ele>2279.4</ele>
        <time>2026-07-15T08:43:51Z</time>
      </trkpt>
      <trkpt lat="42.87683" lon="-0.18637">
        <ele>2280.4</ele>
        <time>2026-07-15T08:43:52Z</time>
      </trkpt>
      <trkpt lat="42.87683" lon="-0.18637">
        <ele>2279.4</ele>
        <time>2026-07-15T08:43:53Z</time>
      </trkpt>
      <trkpt lat="42.87683" lon="-0.18638">
        <ele>2279.4</ele>
        <time>2026-07-15T08:43:54Z</time>
      </trkpt>
      <trkpt lat="42.87683" lon="-0.18639">
        <ele>2280.4</ele>
        <time>2026-07-15T08:43:55Z</time>
      </trkpt>
      <trkpt lat="42.87683" lon="-0.18639">
        <ele>2280.4</ele>
        <time>2026-07-15T08:43:56Z</time>
      </trkpt>
      <trkpt lat="42.87683" lon="-0.1864">
        <ele>2280.4</ele>
        <time>2026-07-15T08:43:57Z</time>
      </trkpt>
      <trkpt lat="42.87682" lon="-0.1864">
        <ele>2280.4</ele>
        <time>2026-07-15T08:43:58Z</time>
      </trkpt>
      <trkpt lat="42.87682" lon="-0.18641">
        <ele>2280.4</ele>
        <time>2026-07-15T08:43:59Z</time>
      </trkpt>
      <trkpt lat="42.87682" lon="-0.18641">
        <ele>2280.4</ele>
        <time>2026-07-15T08:44:00Z</time>
      </trkpt>
      <trkpt lat="42.87681" lon="-0.18642">
        <ele>2281.4</ele>
        <time>2026-07-15T08:44:01Z</time>
      </trkpt>
      <trkpt lat="42.87681" lon="-0.18642">
        <ele>2281.4</ele>
        <time>2026-07-15T08:44:01Z</time>
      </trkpt>
      <trkpt lat="42.8768" lon="-0.18643">
        <ele>2281.4</ele>
        <time>2026-07-15T08:44:02Z</time>
      </trkpt>
      <trkpt lat="42.8768" lon="-0.18643">
        <ele>2281.4</ele>
        <time>2026-07-15T08:44:03Z</time>
      </trkpt>
      <trkpt lat="42.87679" lon="-0.18644">
        <ele>2281.4</ele>
        <time>2026-07-15T08:44:04Z</time>
      </trkpt>
      <trkpt lat="42.87678" lon="-0.18644">
        <ele>2281.4</ele>
        <time>2026-07-15T08:44:05Z</time>
      </trkpt>
      <trkpt lat="42.87677" lon="-0.18645">
        <ele>2281.4</ele>
        <time>2026-07-15T08:44:06Z</time>
      </trkpt>
      <trkpt lat="42.87677" lon="-0.18645">
        <ele>2281.4</ele>
        <time>2026-07-15T08:44:07Z</time>
      </trkpt>
      <trkpt lat="42.87676" lon="-0.18646">
        <ele>2281.4</ele>
        <time>2026-07-15T08:44:08Z</time>
      </trkpt>
      <trkpt lat="42.87676" lon="-0.18646">
        <ele>2281.4</ele>
        <time>2026-07-15T08:44:08Z</time>
      </trkpt>
      <trkpt lat="42.87675" lon="-0.18646">
        <ele>2281.4</ele>
        <time>2026-07-15T08:44:09Z</time>
      </trkpt>
      <trkpt lat="42.87675" lon="-0.18646">
        <ele>2281.4</ele>
        <time>2026-07-15T08:44:10Z</time>
      </trkpt>
      <trkpt lat="42.87674" lon="-0.18647">
        <ele>2281.4</ele>
        <time>2026-07-15T08:44:11Z</time>
      </trkpt>
      <trkpt lat="42.87674" lon="-0.18647">
        <ele>2282.4</ele>
        <time>2026-07-15T08:44:12Z</time>
      </trkpt>
      <trkpt lat="42.87673" lon="-0.18647">
        <ele>2283.4</ele>
        <time>2026-07-15T08:44:13Z</time>
      </trkpt>
      <trkpt lat="42.87673" lon="-0.18647">
        <ele>2283.4</ele>
        <time>2026-07-15T08:44:14Z</time>
      </trkpt>
      <trkpt lat="42.87672" lon="-0.18647">
        <ele>2283.4</ele>
        <time>2026-07-15T08:44:15Z</time>
      </trkpt>
      <trkpt lat="42.87672" lon="-0.18647">
        <ele>2284.4</ele>
        <time>2026-07-15T08:44:15Z</time>
      </trkpt>
      <trkpt lat="42.87672" lon="-0.18647">
        <ele>2284.4</ele>
        <time>2026-07-15T08:44:16Z</time>
      </trkpt>
      <trkpt lat="42.87671" lon="-0.18647">
        <ele>2285.4</ele>
        <time>2026-07-15T08:44:17Z</time>
      </trkpt>
      <trkpt lat="42.87671" lon="-0.18647">
        <ele>2286.4</ele>
        <time>2026-07-15T08:44:18Z</time>
      </trkpt>
      <trkpt lat="42.87671" lon="-0.18647">
        <ele>2285.4</ele>
        <time>2026-07-15T08:44:19Z</time>
      </trkpt>
      <trkpt lat="42.8767" lon="-0.18648">
        <ele>2285.4</ele>
        <time>2026-07-15T08:44:20Z</time>
      </trkpt>
      <trkpt lat="42.8767" lon="-0.18648">
        <ele>2285.4</ele>
        <time>2026-07-15T08:44:21Z</time>
      </trkpt>
      <trkpt lat="42.87669" lon="-0.18647">
        <ele>2286.4</ele>
        <time>2026-07-15T08:44:22Z</time>
      </trkpt>
      <trkpt lat="42.87669" lon="-0.18647">
        <ele>2285.4</ele>
        <time>2026-07-15T08:44:23Z</time>
      </trkpt>
      <trkpt lat="42.87669" lon="-0.18648">
        <ele>2286.4</ele>
        <time>2026-07-15T08:44:23Z</time>
      </trkpt>
      <trkpt lat="42.87668" lon="-0.18648">
        <ele>2286.4</ele>
        <time>2026-07-15T08:44:24Z</time>
      </trkpt>
      <trkpt lat="42.87667" lon="-0.18648">
        <ele>2286.4</ele>
        <time>2026-07-15T08:44:25Z</time>
      </trkpt>
      <trkpt lat="42.87667" lon="-0.18648">
        <ele>2286.4</ele>
        <time>2026-07-15T08:44:26Z</time>
      </trkpt>
      <trkpt lat="42.87666" lon="-0.18649">
        <ele>2287.4</ele>
        <time>2026-07-15T08:44:27Z</time>
      </trkpt>
      <trkpt lat="42.87666" lon="-0.18649">
        <ele>2287.4</ele>
        <time>2026-07-15T08:44:27Z</time>
      </trkpt>
      <trkpt lat="42.87665" lon="-0.18649">
        <ele>2287.4</ele>
        <time>2026-07-15T08:44:28Z</time>
      </trkpt>
      <trkpt lat="42.87665" lon="-0.18649">
        <ele>2287.4</ele>
        <time>2026-07-15T08:44:29Z</time>
      </trkpt>
      <trkpt lat="42.87665" lon="-0.18649">
        <ele>2287.4</ele>
        <time>2026-07-15T08:44:29Z</time>
      </trkpt>
      <trkpt lat="42.87665" lon="-0.18649">
        <ele>2287.4</ele>
        <time>2026-07-15T08:44:30Z</time>
      </trkpt>
      <trkpt lat="42.87665" lon="-0.18649">
        <ele>2287.4</ele>
        <time>2026-07-15T08:44:31Z</time>
      </trkpt>
      <trkpt lat="42.87664" lon="-0.18649">
        <ele>2287.4</ele>
        <time>2026-07-15T08:44:32Z</time>
      </trkpt>
      <trkpt lat="42.87664" lon="-0.18649">
        <ele>2287.4</ele>
        <time>2026-07-15T08:44:33Z</time>
      </trkpt>
      <trkpt lat="42.87664" lon="-0.18649">
        <ele>2287.4</ele>
        <time>2026-07-15T08:44:34Z</time>
      </trkpt>
      <trkpt lat="42.87664" lon="-0.18649">
        <ele>2287.4</ele>
        <time>2026-07-15T08:44:35Z</time>
      </trkpt>
      <trkpt lat="42.87663" lon="-0.18649">
        <ele>2287.4</ele>
        <time>2026-07-15T08:44:36Z</time>
      </trkpt>
      <trkpt lat="42.87663" lon="-0.18649">
        <ele>2287.4</ele>
        <time>2026-07-15T08:44:37Z</time>
      </trkpt>
      <trkpt lat="42.87663" lon="-0.18649">
        <ele>2287.4</ele>
        <time>2026-07-15T08:44:38Z</time>
      </trkpt>
      <trkpt lat="42.87662" lon="-0.18649">
        <ele>2287.4</ele>
        <time>2026-07-15T08:44:39Z</time>
      </trkpt>
      <trkpt lat="42.87662" lon="-0.18649">
        <ele>2287.4</ele>
        <time>2026-07-15T08:44:40Z</time>
      </trkpt>
      <trkpt lat="42.87661" lon="-0.18649">
        <ele>2288.4</ele>
        <time>2026-07-15T08:44:40Z</time>
      </trkpt>
      <trkpt lat="42.87661" lon="-0.18648">
        <ele>2288.4</ele>
        <time>2026-07-15T08:44:41Z</time>
      </trkpt>
      <trkpt lat="42.87661" lon="-0.18648">
        <ele>2288.4</ele>
        <time>2026-07-15T08:44:41Z</time>
      </trkpt>
      <trkpt lat="42.87661" lon="-0.18648">
        <ele>2288.4</ele>
        <time>2026-07-15T08:44:41Z</time>
      </trkpt>
      <trkpt lat="42.8766" lon="-0.18648">
        <ele>2289.4</ele>
        <time>2026-07-15T08:44:42Z</time>
      </trkpt>
      <trkpt lat="42.8766" lon="-0.18648">
        <ele>2289.4</ele>
        <time>2026-07-15T08:44:43Z</time>
      </trkpt>
      <trkpt lat="42.87659" lon="-0.18648">
        <ele>2289.4</ele>
        <time>2026-07-15T08:44:44Z</time>
      </trkpt>
      <trkpt lat="42.87658" lon="-0.18648">
        <ele>2289.4</ele>
        <time>2026-07-15T08:44:45Z</time>
      </trkpt>
      <trkpt lat="42.87658" lon="-0.18648">
        <ele>2289.4</ele>
        <time>2026-07-15T08:44:46Z</time>
      </trkpt>
      <trkpt lat="42.87657" lon="-0.18648">
        <ele>2288.4</ele>
        <time>2026-07-15T08:44:47Z</time>
      </trkpt>
      <trkpt lat="42.87657" lon="-0.18649">
        <ele>2288.4</ele>
        <time>2026-07-15T08:44:48Z</time>
      </trkpt>
      <trkpt lat="42.87656" lon="-0.18649">
        <ele>2288.4</ele>
        <time>2026-07-15T08:44:49Z</time>
      </trkpt>
      <trkpt lat="42.87656" lon="-0.18649">
        <ele>2288.4</ele>
        <time>2026-07-15T08:44:50Z</time>
      </trkpt>
      <trkpt lat="42.87656" lon="-0.18649">
        <ele>2288.4</ele>
        <time>2026-07-15T08:44:51Z</time>
      </trkpt>
      <trkpt lat="42.87655" lon="-0.18649">
        <ele>2287.4</ele>
        <time>2026-07-15T08:44:52Z</time>
      </trkpt>
      <trkpt lat="42.87654" lon="-0.18649">
        <ele>2287.4</ele>
        <time>2026-07-15T08:44:53Z</time>
      </trkpt>
      <trkpt lat="42.87654" lon="-0.18649">
        <ele>2287.4</ele>
        <time>2026-07-15T08:44:53Z</time>
      </trkpt>
      <trkpt lat="42.87653" lon="-0.18649">
        <ele>2287.4</ele>
        <time>2026-07-15T08:44:54Z</time>
      </trkpt>
      <trkpt lat="42.87652" lon="-0.18649">
        <ele>2286.4</ele>
        <time>2026-07-15T08:44:55Z</time>
      </trkpt>
      <trkpt lat="42.87652" lon="-0.18649">
        <ele>2286.4</ele>
        <time>2026-07-15T08:44:56Z</time>
      </trkpt>
      <trkpt lat="42.87651" lon="-0.1865">
        <ele>2286.4</ele>
        <time>2026-07-15T08:44:57Z</time>
      </trkpt>
      <trkpt lat="42.8765" lon="-0.1865">
        <ele>2286.4</ele>
        <time>2026-07-15T08:44:58Z</time>
      </trkpt>
      <trkpt lat="42.8765" lon="-0.1865">
        <ele>2286.4</ele>
        <time>2026-07-15T08:44:59Z</time>
      </trkpt>
      <trkpt lat="42.87649" lon="-0.1865">
        <ele>2287.4</ele>
        <time>2026-07-15T08:45:00Z</time>
      </trkpt>
      <trkpt lat="42.87648" lon="-0.1865">
        <ele>2286.4</ele>
        <time>2026-07-15T08:45:00Z</time>
      </trkpt>
      <trkpt lat="42.87648" lon="-0.1865">
        <ele>2286.4</ele>
        <time>2026-07-15T08:45:01Z</time>
      </trkpt>
      <trkpt lat="42.87648" lon="-0.1865">
        <ele>2286.4</ele>
        <time>2026-07-15T08:45:02Z</time>
      </trkpt>
      <trkpt lat="42.87647" lon="-0.1865">
        <ele>2287.4</ele>
        <time>2026-07-15T08:45:02Z</time>
      </trkpt>
      <trkpt lat="42.87647" lon="-0.1865">
        <ele>2286.4</ele>
        <time>2026-07-15T08:45:03Z</time>
      </trkpt>
      <trkpt lat="42.87646" lon="-0.1865">
        <ele>2286.4</ele>
        <time>2026-07-15T08:45:04Z</time>
      </trkpt>
      <trkpt lat="42.87646" lon="-0.1865">
        <ele>2287.4</ele>
        <time>2026-07-15T08:45:04Z</time>
      </trkpt>
      <trkpt lat="42.87646" lon="-0.1865">
        <ele>2287.4</ele>
        <time>2026-07-15T08:45:05Z</time>
      </trkpt>
      <trkpt lat="42.87646" lon="-0.1865">
        <ele>2287.4</ele>
        <time>2026-07-15T08:45:06Z</time>
      </trkpt>
      <trkpt lat="42.87645" lon="-0.1865">
        <ele>2287.4</ele>
        <time>2026-07-15T08:45:07Z</time>
      </trkpt>
      <trkpt lat="42.87645" lon="-0.1865">
        <ele>2287.4</ele>
        <time>2026-07-15T08:45:08Z</time>
      </trkpt>
      <trkpt lat="42.87645" lon="-0.1865">
        <ele>2287.4</ele>
        <time>2026-07-15T08:45:09Z</time>
      </trkpt>
      <trkpt lat="42.87644" lon="-0.1865">
        <ele>2287.4</ele>
        <time>2026-07-15T08:45:09Z</time>
      </trkpt>
      <trkpt lat="42.87644" lon="-0.1865">
        <ele>2287.4</ele>
        <time>2026-07-15T08:45:10Z</time>
      </trkpt>
      <trkpt lat="42.87643" lon="-0.1865">
        <ele>2287.4</ele>
        <time>2026-07-15T08:45:11Z</time>
      </trkpt>
      <trkpt lat="42.87643" lon="-0.1865">
        <ele>2287.4</ele>
        <time>2026-07-15T08:45:12Z</time>
      </trkpt>
      <trkpt lat="42.87642" lon="-0.1865">
        <ele>2287.4</ele>
        <time>2026-07-15T08:45:13Z</time>
      </trkpt>
      <trkpt lat="42.87642" lon="-0.1865">
        <ele>2287.4</ele>
        <time>2026-07-15T08:45:14Z</time>
      </trkpt>
      <trkpt lat="42.87641" lon="-0.1865">
        <ele>2287.4</ele>
        <time>2026-07-15T08:45:15Z</time>
      </trkpt>
      <trkpt lat="42.87641" lon="-0.1865">
        <ele>2289.4</ele>
        <time>2026-07-15T08:45:16Z</time>
      </trkpt>
      <trkpt lat="42.8764" lon="-0.1865">
        <ele>2289.4</ele>
        <time>2026-07-15T08:45:16Z</time>
      </trkpt>
      <trkpt lat="42.8764" lon="-0.1865">
        <ele>2289.4</ele>
        <time>2026-07-15T08:45:17Z</time>
      </trkpt>
      <trkpt lat="42.8764" lon="-0.1865">
        <ele>2290.4</ele>
        <time>2026-07-15T08:45:18Z</time>
      </trkpt>
      <trkpt lat="42.87639" lon="-0.1865">
        <ele>2289.4</ele>
        <time>2026-07-15T08:45:19Z</time>
      </trkpt>
      <trkpt lat="42.87639" lon="-0.1865">
        <ele>2289.4</ele>
        <time>2026-07-15T08:45:20Z</time>
      </trkpt>
      <trkpt lat="42.87639" lon="-0.1865">
        <ele>2289.4</ele>
        <time>2026-07-15T08:45:20Z</time>
      </trkpt>
      <trkpt lat="42.87638" lon="-0.1865">
        <ele>2289.4</ele>
        <time>2026-07-15T08:45:21Z</time>
      </trkpt>
      <trkpt lat="42.87637" lon="-0.1865">
        <ele>2289.4</ele>
        <time>2026-07-15T08:45:22Z</time>
      </trkpt>
      <trkpt lat="42.87636" lon="-0.18651">
        <ele>2289.4</ele>
        <time>2026-07-15T08:45:23Z</time>
      </trkpt>
      <trkpt lat="42.87635" lon="-0.18651">
        <ele>2289.4</ele>
        <time>2026-07-15T08:45:24Z</time>
      </trkpt>
      <trkpt lat="42.87635" lon="-0.18651">
        <ele>2290.4</ele>
        <time>2026-07-15T08:45:24Z</time>
      </trkpt>
      <trkpt lat="42.87635" lon="-0.18651">
        <ele>2290.4</ele>
        <time>2026-07-15T08:45:25Z</time>
      </trkpt>
      <trkpt lat="42.87634" lon="-0.18651">
        <ele>2291.4</ele>
        <time>2026-07-15T08:45:25Z</time>
      </trkpt>
      <trkpt lat="42.87634" lon="-0.18651">
        <ele>2291.4</ele>
        <time>2026-07-15T08:45:26Z</time>
      </trkpt>
      <trkpt lat="42.87634" lon="-0.18651">
        <ele>2292.4</ele>
        <time>2026-07-15T08:45:26Z</time>
      </trkpt>
      <trkpt lat="42.87633" lon="-0.18651">
        <ele>2292.4</ele>
        <time>2026-07-15T08:45:27Z</time>
      </trkpt>
      <trkpt lat="42.87632" lon="-0.18651">
        <ele>2292.4</ele>
        <time>2026-07-15T08:45:28Z</time>
      </trkpt>
      <trkpt lat="42.87632" lon="-0.18651">
        <ele>2292.4</ele>
        <time>2026-07-15T08:45:28Z</time>
      </trkpt>
      <trkpt lat="42.87632" lon="-0.18651">
        <ele>2292.4</ele>
        <time>2026-07-15T08:45:29Z</time>
      </trkpt>
      <trkpt lat="42.87631" lon="-0.18651">
        <ele>2293.4</ele>
        <time>2026-07-15T08:45:30Z</time>
      </trkpt>
      <trkpt lat="42.87631" lon="-0.18651">
        <ele>2293.4</ele>
        <time>2026-07-15T08:45:31Z</time>
      </trkpt>
      <trkpt lat="42.87631" lon="-0.18651">
        <ele>2293.4</ele>
        <time>2026-07-15T08:45:32Z</time>
      </trkpt>
      <trkpt lat="42.8763" lon="-0.18651">
        <ele>2292.4</ele>
        <time>2026-07-15T08:45:32Z</time>
      </trkpt>
      <trkpt lat="42.8763" lon="-0.18651">
        <ele>2292.4</ele>
        <time>2026-07-15T08:45:33Z</time>
      </trkpt>
      <trkpt lat="42.8763" lon="-0.18651">
        <ele>2292.4</ele>
        <time>2026-07-15T08:45:34Z</time>
      </trkpt>
      <trkpt lat="42.8763" lon="-0.18651">
        <ele>2292.4</ele>
        <time>2026-07-15T08:45:35Z</time>
      </trkpt>
      <trkpt lat="42.8763" lon="-0.18651">
        <ele>2292.4</ele>
        <time>2026-07-15T08:45:36Z</time>
      </trkpt>
      <trkpt lat="42.8763" lon="-0.18651">
        <ele>2292.4</ele>
        <time>2026-07-15T08:45:37Z</time>
      </trkpt>
      <trkpt lat="42.8763" lon="-0.18651">
        <ele>2293.4</ele>
        <time>2026-07-15T08:45:38Z</time>
      </trkpt>
      <trkpt lat="42.87629" lon="-0.18651">
        <ele>2293.4</ele>
        <time>2026-07-15T08:45:39Z</time>
      </trkpt>
      <trkpt lat="42.87629" lon="-0.18651">
        <ele>2293.4</ele>
        <time>2026-07-15T08:45:40Z</time>
      </trkpt>
      <trkpt lat="42.87629" lon="-0.18651">
        <ele>2293.4</ele>
        <time>2026-07-15T08:45:41Z</time>
      </trkpt>
      <trkpt lat="42.87629" lon="-0.18651">
        <ele>2293.4</ele>
        <time>2026-07-15T08:45:41Z</time>
      </trkpt>
      <trkpt lat="42.87629" lon="-0.18651">
        <ele>2293.4</ele>
        <time>2026-07-15T08:45:42Z</time>
      </trkpt>
      <trkpt lat="42.87629" lon="-0.18651">
        <ele>2293.4</ele>
        <time>2026-07-15T08:45:43Z</time>
      </trkpt>
      <trkpt lat="42.87629" lon="-0.18651">
        <ele>2293.4</ele>
        <time>2026-07-15T08:45:44Z</time>
      </trkpt>
      <trkpt lat="42.87629" lon="-0.18651">
        <ele>2293.4</ele>
        <time>2026-07-15T08:45:45Z</time>
      </trkpt>
      <trkpt lat="42.87629" lon="-0.18651">
        <ele>2293.4</ele>
        <time>2026-07-15T08:45:45Z</time>
      </trkpt>
      <trkpt lat="42.87629" lon="-0.18651">
        <ele>2293.4</ele>
        <time>2026-07-15T08:45:46Z</time>
      </trkpt>
      <trkpt lat="42.87629" lon="-0.18651">
        <ele>2292.4</ele>
        <time>2026-07-15T08:45:46Z</time>
      </trkpt>
      <trkpt lat="42.87628" lon="-0.18651">
        <ele>2292.4</ele>
        <time>2026-07-15T08:45:47Z</time>
      </trkpt>
      <trkpt lat="42.87628" lon="-0.18651">
        <ele>2291.4</ele>
        <time>2026-07-15T08:45:48Z</time>
      </trkpt>
      <trkpt lat="42.87628" lon="-0.18651">
        <ele>2291.4</ele>
        <time>2026-07-15T08:45:49Z</time>
      </trkpt>
      <trkpt lat="42.87627" lon="-0.1865">
        <ele>2291.4</ele>
        <time>2026-07-15T08:45:50Z</time>
      </trkpt>
      <trkpt lat="42.87627" lon="-0.1865">
        <ele>2291.4</ele>
        <time>2026-07-15T08:45:51Z</time>
      </trkpt>
      <trkpt lat="42.87626" lon="-0.18649">
        <ele>2290.4</ele>
        <time>2026-07-15T08:45:52Z</time>
      </trkpt>
      <trkpt lat="42.87626" lon="-0.18649">
        <ele>2290.4</ele>
        <time>2026-07-15T08:45:53Z</time>
      </trkpt>
      <trkpt lat="42.87625" lon="-0.18649">
        <ele>2290.4</ele>
        <time>2026-07-15T08:45:54Z</time>
      </trkpt>
      <trkpt lat="42.87624" lon="-0.18649">
        <ele>2291.4</ele>
        <time>2026-07-15T08:45:54Z</time>
      </trkpt>
      <trkpt lat="42.87623" lon="-0.18649">
        <ele>2291.4</ele>
        <time>2026-07-15T08:45:55Z</time>
      </trkpt>
      <trkpt lat="42.87623" lon="-0.18649">
        <ele>2290.4</ele>
        <time>2026-07-15T08:45:55Z</time>
      </trkpt>
      <trkpt lat="42.87622" lon="-0.18649">
        <ele>2289.4</ele>
        <time>2026-07-15T08:45:56Z</time>
      </trkpt>
      <trkpt lat="42.87621" lon="-0.18648">
        <ele>2289.4</ele>
        <time>2026-07-15T08:45:57Z</time>
      </trkpt>
      <trkpt lat="42.8762" lon="-0.18648">
        <ele>2290.4</ele>
        <time>2026-07-15T08:45:58Z</time>
      </trkpt>
      <trkpt lat="42.87619" lon="-0.18648">
        <ele>2290.4</ele>
        <time>2026-07-15T08:45:59Z</time>
      </trkpt>
      <trkpt lat="42.87618" lon="-0.18648">
        <ele>2290.4</ele>
        <time>2026-07-15T08:45:59Z</time>
      </trkpt>
      <trkpt lat="42.87617" lon="-0.18647">
        <ele>2290.4</ele>
        <time>2026-07-15T08:46:00Z</time>
      </trkpt>
      <trkpt lat="42.87617" lon="-0.18647">
        <ele>2290.4</ele>
        <time>2026-07-15T08:46:01Z</time>
      </trkpt>
      <trkpt lat="42.87616" lon="-0.18647">
        <ele>2290.4</ele>
        <time>2026-07-15T08:46:02Z</time>
      </trkpt>
      <trkpt lat="42.87615" lon="-0.18647">
        <ele>2290.4</ele>
        <time>2026-07-15T08:46:03Z</time>
      </trkpt>
      <trkpt lat="42.87614" lon="-0.18647">
        <ele>2291.4</ele>
        <time>2026-07-15T08:46:03Z</time>
      </trkpt>
      <trkpt lat="42.87614" lon="-0.18647">
        <ele>2291.4</ele>
        <time>2026-07-15T08:46:04Z</time>
      </trkpt>
      <trkpt lat="42.87613" lon="-0.18647">
        <ele>2291.4</ele>
        <time>2026-07-15T08:46:05Z</time>
      </trkpt>
      <trkpt lat="42.87612" lon="-0.18647">
        <ele>2291.4</ele>
        <time>2026-07-15T08:46:06Z</time>
      </trkpt>
      <trkpt lat="42.87612" lon="-0.18647">
        <ele>2291.4</ele>
        <time>2026-07-15T08:46:06Z</time>
      </trkpt>
      <trkpt lat="42.87611" lon="-0.18647">
        <ele>2292.4</ele>
        <time>2026-07-15T08:46:07Z</time>
      </trkpt>
      <trkpt lat="42.8761" lon="-0.18647">
        <ele>2292.4</ele>
        <time>2026-07-15T08:46:08Z</time>
      </trkpt>
      <trkpt lat="42.87609" lon="-0.18647">
        <ele>2291.4</ele>
        <time>2026-07-15T08:46:09Z</time>
      </trkpt>
      <trkpt lat="42.87608" lon="-0.18647">
        <ele>2291.4</ele>
        <time>2026-07-15T08:46:09Z</time>
      </trkpt>
      <trkpt lat="42.87608" lon="-0.18647">
        <ele>2291.4</ele>
        <time>2026-07-15T08:46:10Z</time>
      </trkpt>
      <trkpt lat="42.87607" lon="-0.18647">
        <ele>2291.4</ele>
        <time>2026-07-15T08:46:11Z</time>
      </trkpt>
      <trkpt lat="42.87606" lon="-0.18647">
        <ele>2291.4</ele>
        <time>2026-07-15T08:46:12Z</time>
      </trkpt>
      <trkpt lat="42.87606" lon="-0.18647">
        <ele>2291.4</ele>
        <time>2026-07-15T08:46:12Z</time>
      </trkpt>
      <trkpt lat="42.87605" lon="-0.18647">
        <ele>2291.4</ele>
        <time>2026-07-15T08:46:13Z</time>
      </trkpt>
      <trkpt lat="42.87604" lon="-0.18647">
        <ele>2291.4</ele>
        <time>2026-07-15T08:46:14Z</time>
      </trkpt>
      <trkpt lat="42.87604" lon="-0.18647">
        <ele>2291.4</ele>
        <time>2026-07-15T08:46:14Z</time>
      </trkpt>
      <trkpt lat="42.87603" lon="-0.18647">
        <ele>2291.4</ele>
        <time>2026-07-15T08:46:15Z</time>
      </trkpt>
      <trkpt lat="42.87602" lon="-0.18647">
        <ele>2291.4</ele>
        <time>2026-07-15T08:46:16Z</time>
      </trkpt>
      <trkpt lat="42.87601" lon="-0.18647">
        <ele>2291.4</ele>
        <time>2026-07-15T08:46:16Z</time>
      </trkpt>
      <trkpt lat="42.87601" lon="-0.18647">
        <ele>2290.4</ele>
        <time>2026-07-15T08:46:17Z</time>
      </trkpt>
      <trkpt lat="42.876" lon="-0.18647">
        <ele>2290.4</ele>
        <time>2026-07-15T08:46:18Z</time>
      </trkpt>
      <trkpt lat="42.876" lon="-0.18647">
        <ele>2290.4</ele>
        <time>2026-07-15T08:46:18Z</time>
      </trkpt>
      <trkpt lat="42.87599" lon="-0.18647">
        <ele>2290.4</ele>
        <time>2026-07-15T08:46:19Z</time>
      </trkpt>
      <trkpt lat="42.87598" lon="-0.18647">
        <ele>2290.4</ele>
        <time>2026-07-15T08:46:20Z</time>
      </trkpt>
      <trkpt lat="42.87598" lon="-0.18647">
        <ele>2291.4</ele>
        <time>2026-07-15T08:46:20Z</time>
      </trkpt>
      <trkpt lat="42.87597" lon="-0.18647">
        <ele>2291.4</ele>
        <time>2026-07-15T08:46:21Z</time>
      </trkpt>
      <trkpt lat="42.87596" lon="-0.18647">
        <ele>2291.4</ele>
        <time>2026-07-15T08:46:22Z</time>
      </trkpt>
      <trkpt lat="42.87596" lon="-0.18648">
        <ele>2291.4</ele>
        <time>2026-07-15T08:46:22Z</time>
      </trkpt>
      <trkpt lat="42.87596" lon="-0.18648">
        <ele>2291.4</ele>
        <time>2026-07-15T08:46:23Z</time>
      </trkpt>
      <trkpt lat="42.87595" lon="-0.18648">
        <ele>2291.4</ele>
        <time>2026-07-15T08:46:24Z</time>
      </trkpt>
      <trkpt lat="42.87595" lon="-0.18648">
        <ele>2291.4</ele>
        <time>2026-07-15T08:46:24Z</time>
      </trkpt>
      <trkpt lat="42.87594" lon="-0.18648">
        <ele>2291.4</ele>
        <time>2026-07-15T08:46:25Z</time>
      </trkpt>
      <trkpt lat="42.87593" lon="-0.18648">
        <ele>2290.4</ele>
        <time>2026-07-15T08:46:26Z</time>
      </trkpt>
      <trkpt lat="42.87592" lon="-0.18648">
        <ele>2290.4</ele>
        <time>2026-07-15T08:46:27Z</time>
      </trkpt>
      <trkpt lat="42.87592" lon="-0.18648">
        <ele>2290.4</ele>
        <time>2026-07-15T08:46:27Z</time>
      </trkpt>
      <trkpt lat="42.87591" lon="-0.18648">
        <ele>2290.4</ele>
        <time>2026-07-15T08:46:28Z</time>
      </trkpt>
      <trkpt lat="42.8759" lon="-0.18648">
        <ele>2290.4</ele>
        <time>2026-07-15T08:46:29Z</time>
      </trkpt>
      <trkpt lat="42.8759" lon="-0.18649">
        <ele>2290.4</ele>
        <time>2026-07-15T08:46:30Z</time>
      </trkpt>
      <trkpt lat="42.87589" lon="-0.18649">
        <ele>2290.4</ele>
        <time>2026-07-15T08:46:31Z</time>
      </trkpt>
      <trkpt lat="42.87589" lon="-0.18648">
        <ele>2290.4</ele>
        <time>2026-07-15T08:46:31Z</time>
      </trkpt>
      <trkpt lat="42.87588" lon="-0.18649">
        <ele>2290.4</ele>
        <time>2026-07-15T08:46:32Z</time>
      </trkpt>
      <trkpt lat="42.87588" lon="-0.18649">
        <ele>2289.4</ele>
        <time>2026-07-15T08:46:32Z</time>
      </trkpt>
      <trkpt lat="42.87587" lon="-0.18649">
        <ele>2289.4</ele>
        <time>2026-07-15T08:46:33Z</time>
      </trkpt>
      <trkpt lat="42.87586" lon="-0.1865">
        <ele>2289.4</ele>
        <time>2026-07-15T08:46:34Z</time>
      </trkpt>
      <trkpt lat="42.87586" lon="-0.18651">
        <ele>2289.4</ele>
        <time>2026-07-15T08:46:34Z</time>
      </trkpt>
      <trkpt lat="42.87586" lon="-0.18651">
        <ele>2289.4</ele>
        <time>2026-07-15T08:46:35Z</time>
      </trkpt>
      <trkpt lat="42.87585" lon="-0.18652">
        <ele>2289.4</ele>
        <time>2026-07-15T08:46:36Z</time>
      </trkpt>
      <trkpt lat="42.87584" lon="-0.18652">
        <ele>2289.4</ele>
        <time>2026-07-15T08:46:37Z</time>
      </trkpt>
      <trkpt lat="42.87584" lon="-0.18652">
        <ele>2290.4</ele>
        <time>2026-07-15T08:46:37Z</time>
      </trkpt>
      <trkpt lat="42.87583" lon="-0.18653">
        <ele>2290.4</ele>
        <time>2026-07-15T08:46:38Z</time>
      </trkpt>
      <trkpt lat="42.87582" lon="-0.18653">
        <ele>2289.4</ele>
        <time>2026-07-15T08:46:39Z</time>
      </trkpt>
      <trkpt lat="42.87582" lon="-0.18653">
        <ele>2289.4</ele>
        <time>2026-07-15T08:46:39Z</time>
      </trkpt>
      <trkpt lat="42.87581" lon="-0.18654">
        <ele>2289.4</ele>
        <time>2026-07-15T08:46:40Z</time>
      </trkpt>
      <trkpt lat="42.8758" lon="-0.18654">
        <ele>2290.4</ele>
        <time>2026-07-15T08:46:40Z</time>
      </trkpt>
      <trkpt lat="42.8758" lon="-0.18654">
        <ele>2290.4</ele>
        <time>2026-07-15T08:46:41Z</time>
      </trkpt>
      <trkpt lat="42.87579" lon="-0.18654">
        <ele>2290.4</ele>
        <time>2026-07-15T08:46:42Z</time>
      </trkpt>
      <trkpt lat="42.87578" lon="-0.18654">
        <ele>2289.4</ele>
        <time>2026-07-15T08:46:43Z</time>
      </trkpt>
      <trkpt lat="42.87578" lon="-0.18654">
        <ele>2289.4</ele>
        <time>2026-07-15T08:46:43Z</time>
      </trkpt>
      <trkpt lat="42.87577" lon="-0.18654">
        <ele>2289.4</ele>
        <time>2026-07-15T08:46:44Z</time>
      </trkpt>
      <trkpt lat="42.87576" lon="-0.18655">
        <ele>2289.4</ele>
        <time>2026-07-15T08:46:45Z</time>
      </trkpt>
      <trkpt lat="42.87576" lon="-0.18655">
        <ele>2290.4</ele>
        <time>2026-07-15T08:46:46Z</time>
      </trkpt>
      <trkpt lat="42.87576" lon="-0.18655">
        <ele>2290.4</ele>
        <time>2026-07-15T08:46:46Z</time>
      </trkpt>
      <trkpt lat="42.87576" lon="-0.18656">
        <ele>2290.4</ele>
        <time>2026-07-15T08:46:47Z</time>
      </trkpt>
      <trkpt lat="42.87575" lon="-0.18657">
        <ele>2291.4</ele>
        <time>2026-07-15T08:46:48Z</time>
      </trkpt>
      <trkpt lat="42.87575" lon="-0.18657">
        <ele>2291.4</ele>
        <time>2026-07-15T08:46:48Z</time>
      </trkpt>
      <trkpt lat="42.87574" lon="-0.18658">
        <ele>2291.4</ele>
        <time>2026-07-15T08:46:49Z</time>
      </trkpt>
      <trkpt lat="42.87574" lon="-0.18659">
        <ele>2290.4</ele>
        <time>2026-07-15T08:46:50Z</time>
      </trkpt>
      <trkpt lat="42.87573" lon="-0.1866">
        <ele>2290.4</ele>
        <time>2026-07-15T08:46:50Z</time>
      </trkpt>
      <trkpt lat="42.87573" lon="-0.1866">
        <ele>2290.4</ele>
        <time>2026-07-15T08:46:51Z</time>
      </trkpt>
      <trkpt lat="42.87572" lon="-0.18661">
        <ele>2291.4</ele>
        <time>2026-07-15T08:46:52Z</time>
      </trkpt>
      <trkpt lat="42.87572" lon="-0.18661">
        <ele>2292.4</ele>
        <time>2026-07-15T08:46:52Z</time>
      </trkpt>
      <trkpt lat="42.87572" lon="-0.18661">
        <ele>2291.4</ele>
        <time>2026-07-15T08:46:53Z</time>
      </trkpt>
      <trkpt lat="42.87572" lon="-0.18662">
        <ele>2291.4</ele>
        <time>2026-07-15T08:46:54Z</time>
      </trkpt>
      <trkpt lat="42.87572" lon="-0.18662">
        <ele>2291.4</ele>
        <time>2026-07-15T08:46:55Z</time>
      </trkpt>
      <trkpt lat="42.87571" lon="-0.18663">
        <ele>2291.4</ele>
        <time>2026-07-15T08:46:55Z</time>
      </trkpt>
      <trkpt lat="42.87571" lon="-0.18663">
        <ele>2291.4</ele>
        <time>2026-07-15T08:46:56Z</time>
      </trkpt>
      <trkpt lat="42.87571" lon="-0.18664">
        <ele>2291.4</ele>
        <time>2026-07-15T08:46:57Z</time>
      </trkpt>
      <trkpt lat="42.87571" lon="-0.18665">
        <ele>2292.4</ele>
        <time>2026-07-15T08:46:58Z</time>
      </trkpt>
      <trkpt lat="42.8757" lon="-0.18665">
        <ele>2291.4</ele>
        <time>2026-07-15T08:46:59Z</time>
      </trkpt>
      <trkpt lat="42.8757" lon="-0.18666">
        <ele>2292.4</ele>
        <time>2026-07-15T08:47:00Z</time>
      </trkpt>
      <trkpt lat="42.8757" lon="-0.18667">
        <ele>2292.4</ele>
        <time>2026-07-15T08:47:00Z</time>
      </trkpt>
      <trkpt lat="42.87569" lon="-0.18667">
        <ele>2292.4</ele>
        <time>2026-07-15T08:47:01Z</time>
      </trkpt>
      <trkpt lat="42.87569" lon="-0.18668">
        <ele>2291.4</ele>
        <time>2026-07-15T08:47:02Z</time>
      </trkpt>
      <trkpt lat="42.87569" lon="-0.18669">
        <ele>2291.4</ele>
        <time>2026-07-15T08:47:03Z</time>
      </trkpt>
      <trkpt lat="42.87569" lon="-0.1867">
        <ele>2291.4</ele>
        <time>2026-07-15T08:47:04Z</time>
      </trkpt>
      <trkpt lat="42.87569" lon="-0.18671">
        <ele>2292.4</ele>
        <time>2026-07-15T08:47:05Z</time>
      </trkpt>
      <trkpt lat="42.87569" lon="-0.18671">
        <ele>2292.4</ele>
        <time>2026-07-15T08:47:05Z</time>
      </trkpt>
      <trkpt lat="42.87568" lon="-0.18672">
        <ele>2292.4</ele>
        <time>2026-07-15T08:47:06Z</time>
      </trkpt>
      <trkpt lat="42.87568" lon="-0.18673">
        <ele>2292.4</ele>
        <time>2026-07-15T08:47:07Z</time>
      </trkpt>
      <trkpt lat="42.87568" lon="-0.18674">
        <ele>2292.4</ele>
        <time>2026-07-15T08:47:07Z</time>
      </trkpt>
      <trkpt lat="42.87568" lon="-0.18675">
        <ele>2292.4</ele>
        <time>2026-07-15T08:47:08Z</time>
      </trkpt>
      <trkpt lat="42.87568" lon="-0.18676">
        <ele>2292.4</ele>
        <time>2026-07-15T08:47:09Z</time>
      </trkpt>
      <trkpt lat="42.87568" lon="-0.18676">
        <ele>2292.4</ele>
        <time>2026-07-15T08:47:09Z</time>
      </trkpt>
      <trkpt lat="42.87568" lon="-0.18677">
        <ele>2292.4</ele>
        <time>2026-07-15T08:47:10Z</time>
      </trkpt>
      <trkpt lat="42.87567" lon="-0.18678">
        <ele>2291.4</ele>
        <time>2026-07-15T08:47:11Z</time>
      </trkpt>
      <trkpt lat="42.87567" lon="-0.18678">
        <ele>2291.4</ele>
        <time>2026-07-15T08:47:12Z</time>
      </trkpt>
      <trkpt lat="42.87567" lon="-0.18679">
        <ele>2292.4</ele>
        <time>2026-07-15T08:47:12Z</time>
      </trkpt>
      <trkpt lat="42.87567" lon="-0.1868">
        <ele>2292.4</ele>
        <time>2026-07-15T08:47:13Z</time>
      </trkpt>
      <trkpt lat="42.87566" lon="-0.18681">
        <ele>2292.4</ele>
        <time>2026-07-15T08:47:14Z</time>
      </trkpt>
      <trkpt lat="42.87566" lon="-0.18681">
        <ele>2292.4</ele>
        <time>2026-07-15T08:47:14Z</time>
      </trkpt>
      <trkpt lat="42.87566" lon="-0.18682">
        <ele>2291.4</ele>
        <time>2026-07-15T08:47:15Z</time>
      </trkpt>
      <trkpt lat="42.87565" lon="-0.18683">
        <ele>2291.4</ele>
        <time>2026-07-15T08:47:16Z</time>
      </trkpt>
      <trkpt lat="42.87565" lon="-0.18683">
        <ele>2291.4</ele>
        <time>2026-07-15T08:47:17Z</time>
      </trkpt>
      <trkpt lat="42.87565" lon="-0.18684">
        <ele>2291.4</ele>
        <time>2026-07-15T08:47:17Z</time>
      </trkpt>
      <trkpt lat="42.87565" lon="-0.18685">
        <ele>2291.4</ele>
        <time>2026-07-15T08:47:18Z</time>
      </trkpt>
      <trkpt lat="42.87565" lon="-0.18686">
        <ele>2292.4</ele>
        <time>2026-07-15T08:47:19Z</time>
      </trkpt>
      <trkpt lat="42.87565" lon="-0.18686">
        <ele>2292.4</ele>
        <time>2026-07-15T08:47:19Z</time>
      </trkpt>
      <trkpt lat="42.87564" lon="-0.18687">
        <ele>2292.4</ele>
        <time>2026-07-15T08:47:20Z</time>
      </trkpt>
      <trkpt lat="42.87564" lon="-0.18688">
        <ele>2293.4</ele>
        <time>2026-07-15T08:47:21Z</time>
      </trkpt>
      <trkpt lat="42.87564" lon="-0.18688">
        <ele>2293.4</ele>
        <time>2026-07-15T08:47:22Z</time>
      </trkpt>
      <trkpt lat="42.87564" lon="-0.18689">
        <ele>2294.4</ele>
        <time>2026-07-15T08:47:22Z</time>
      </trkpt>
      <trkpt lat="42.87564" lon="-0.1869">
        <ele>2294.4</ele>
        <time>2026-07-15T08:47:23Z</time>
      </trkpt>
      <trkpt lat="42.87564" lon="-0.18691">
        <ele>2294.4</ele>
        <time>2026-07-15T08:47:24Z</time>
      </trkpt>
      <trkpt lat="42.87563" lon="-0.18692">
        <ele>2293.4</ele>
        <time>2026-07-15T08:47:25Z</time>
      </trkpt>
      <trkpt lat="42.87563" lon="-0.18692">
        <ele>2293.4</ele>
        <time>2026-07-15T08:47:25Z</time>
      </trkpt>
      <trkpt lat="42.87563" lon="-0.18693">
        <ele>2293.4</ele>
        <time>2026-07-15T08:47:26Z</time>
      </trkpt>
      <trkpt lat="42.87563" lon="-0.18694">
        <ele>2293.4</ele>
        <time>2026-07-15T08:47:27Z</time>
      </trkpt>
      <trkpt lat="42.87563" lon="-0.18695">
        <ele>2294.4</ele>
        <time>2026-07-15T08:47:28Z</time>
      </trkpt>
      <trkpt lat="42.87563" lon="-0.18695">
        <ele>2293.4</ele>
        <time>2026-07-15T08:47:28Z</time>
      </trkpt>
      <trkpt lat="42.87563" lon="-0.18696">
        <ele>2293.4</ele>
        <time>2026-07-15T08:47:29Z</time>
      </trkpt>
      <trkpt lat="42.87562" lon="-0.18697">
        <ele>2293.4</ele>
        <time>2026-07-15T08:47:30Z</time>
      </trkpt>
      <trkpt lat="42.87562" lon="-0.18697">
        <ele>2293.4</ele>
        <time>2026-07-15T08:47:31Z</time>
      </trkpt>
      <trkpt lat="42.87562" lon="-0.18698">
        <ele>2294.4</ele>
        <time>2026-07-15T08:47:32Z</time>
      </trkpt>
      <trkpt lat="42.87562" lon="-0.18698">
        <ele>2294.4</ele>
        <time>2026-07-15T08:47:32Z</time>
      </trkpt>
      <trkpt lat="42.87562" lon="-0.18698">
        <ele>2294.4</ele>
        <time>2026-07-15T08:47:33Z</time>
      </trkpt>
      <trkpt lat="42.87562" lon="-0.18699">
        <ele>2295.4</ele>
        <time>2026-07-15T08:47:33Z</time>
      </trkpt>
      <trkpt lat="42.87562" lon="-0.18699">
        <ele>2295.4</ele>
        <time>2026-07-15T08:47:34Z</time>
      </trkpt>
      <trkpt lat="42.87562" lon="-0.187">
        <ele>2294.4</ele>
        <time>2026-07-15T08:47:35Z</time>
      </trkpt>
      <trkpt lat="42.87562" lon="-0.18701">
        <ele>2294.4</ele>
        <time>2026-07-15T08:47:35Z</time>
      </trkpt>
      <trkpt lat="42.87562" lon="-0.18702">
        <ele>2294.4</ele>
        <time>2026-07-15T08:47:36Z</time>
      </trkpt>
      <trkpt lat="42.87562" lon="-0.18702">
        <ele>2294.4</ele>
        <time>2026-07-15T08:47:37Z</time>
      </trkpt>
      <trkpt lat="42.87561" lon="-0.18703">
        <ele>2294.4</ele>
        <time>2026-07-15T08:47:38Z</time>
      </trkpt>
      <trkpt lat="42.87561" lon="-0.18704">
        <ele>2294.4</ele>
        <time>2026-07-15T08:47:39Z</time>
      </trkpt>
      <trkpt lat="42.87561" lon="-0.18704">
        <ele>2294.4</ele>
        <time>2026-07-15T08:47:39Z</time>
      </trkpt>
      <trkpt lat="42.87561" lon="-0.18705">
        <ele>2294.4</ele>
        <time>2026-07-15T08:47:40Z</time>
      </trkpt>
      <trkpt lat="42.8756" lon="-0.18706">
        <ele>2294.4</ele>
        <time>2026-07-15T08:47:41Z</time>
      </trkpt>
      <trkpt lat="42.87561" lon="-0.18707">
        <ele>2295.4</ele>
        <time>2026-07-15T08:47:42Z</time>
      </trkpt>
      <trkpt lat="42.87561" lon="-0.18708">
        <ele>2295.4</ele>
        <time>2026-07-15T08:47:42Z</time>
      </trkpt>
      <trkpt lat="42.87561" lon="-0.18708">
        <ele>2295.4</ele>
        <time>2026-07-15T08:47:43Z</time>
      </trkpt>
      <trkpt lat="42.8756" lon="-0.18709">
        <ele>2295.4</ele>
        <time>2026-07-15T08:47:44Z</time>
      </trkpt>
      <trkpt lat="42.8756" lon="-0.1871">
        <ele>2294.4</ele>
        <time>2026-07-15T08:47:45Z</time>
      </trkpt>
      <trkpt lat="42.8756" lon="-0.18711">
        <ele>2294.4</ele>
        <time>2026-07-15T08:47:46Z</time>
      </trkpt>
      <trkpt lat="42.8756" lon="-0.18711">
        <ele>2293.4</ele>
        <time>2026-07-15T08:47:46Z</time>
      </trkpt>
      <trkpt lat="42.8756" lon="-0.18712">
        <ele>2293.4</ele>
        <time>2026-07-15T08:47:47Z</time>
      </trkpt>
      <trkpt lat="42.8756" lon="-0.18712">
        <ele>2294.4</ele>
        <time>2026-07-15T08:47:48Z</time>
      </trkpt>
      <trkpt lat="42.8756" lon="-0.18713">
        <ele>2294.4</ele>
        <time>2026-07-15T08:47:49Z</time>
      </trkpt>
      <trkpt lat="42.8756" lon="-0.18713">
        <ele>2294.4</ele>
        <time>2026-07-15T08:47:50Z</time>
      </trkpt>
      <trkpt lat="42.8756" lon="-0.18713">
        <ele>2294.4</ele>
        <time>2026-07-15T08:47:50Z</time>
      </trkpt>
      <trkpt lat="42.8756" lon="-0.18713">
        <ele>2294.4</ele>
        <time>2026-07-15T08:47:51Z</time>
      </trkpt>
      <trkpt lat="42.8756" lon="-0.18713">
        <ele>2294.4</ele>
        <time>2026-07-15T08:47:52Z</time>
      </trkpt>
      <trkpt lat="42.8756" lon="-0.18713">
        <ele>2293.4</ele>
        <time>2026-07-15T08:47:53Z</time>
      </trkpt>
      <trkpt lat="42.8756" lon="-0.18714">
        <ele>2293.4</ele>
        <time>2026-07-15T08:47:54Z</time>
      </trkpt>
      <trkpt lat="42.8756" lon="-0.18714">
        <ele>2293.4</ele>
        <time>2026-07-15T08:47:55Z</time>
      </trkpt>
      <trkpt lat="42.87559" lon="-0.18715">
        <ele>2293.4</ele>
        <time>2026-07-15T08:47:56Z</time>
      </trkpt>
      <trkpt lat="42.87559" lon="-0.18716">
        <ele>2292.4</ele>
        <time>2026-07-15T08:47:56Z</time>
      </trkpt>
      <trkpt lat="42.87559" lon="-0.18716">
        <ele>2292.4</ele>
        <time>2026-07-15T08:47:57Z</time>
      </trkpt>
      <trkpt lat="42.87559" lon="-0.18718">
        <ele>2293.4</ele>
        <time>2026-07-15T08:47:58Z</time>
      </trkpt>
      <trkpt lat="42.87559" lon="-0.18719">
        <ele>2292.4</ele>
        <time>2026-07-15T08:47:58Z</time>
      </trkpt>
      <trkpt lat="42.87558" lon="-0.18719">
        <ele>2292.4</ele>
        <time>2026-07-15T08:47:59Z</time>
      </trkpt>
      <trkpt lat="42.87558" lon="-0.1872">
        <ele>2292.4</ele>
        <time>2026-07-15T08:48:00Z</time>
      </trkpt>
      <trkpt lat="42.87557" lon="-0.18721">
        <ele>2292.4</ele>
        <time>2026-07-15T08:48:00Z</time>
      </trkpt>
      <trkpt lat="42.87557" lon="-0.18722">
        <ele>2292.4</ele>
        <time>2026-07-15T08:48:01Z</time>
      </trkpt>
      <trkpt lat="42.87556" lon="-0.18723">
        <ele>2293.4</ele>
        <time>2026-07-15T08:48:02Z</time>
      </trkpt>
      <trkpt lat="42.87555" lon="-0.18724">
        <ele>2293.4</ele>
        <time>2026-07-15T08:48:03Z</time>
      </trkpt>
      <trkpt lat="42.87555" lon="-0.18724">
        <ele>2293.4</ele>
        <time>2026-07-15T08:48:03Z</time>
      </trkpt>
      <trkpt lat="42.87555" lon="-0.18726">
        <ele>2293.4</ele>
        <time>2026-07-15T08:48:04Z</time>
      </trkpt>
      <trkpt lat="42.87554" lon="-0.18727">
        <ele>2293.4</ele>
        <time>2026-07-15T08:48:05Z</time>
      </trkpt>
      <trkpt lat="42.87554" lon="-0.18728">
        <ele>2294.4</ele>
        <time>2026-07-15T08:48:06Z</time>
      </trkpt>
      <trkpt lat="42.87554" lon="-0.18728">
        <ele>2294.4</ele>
        <time>2026-07-15T08:48:06Z</time>
      </trkpt>
      <trkpt lat="42.87554" lon="-0.18729">
        <ele>2294.4</ele>
        <time>2026-07-15T08:48:07Z</time>
      </trkpt>
      <trkpt lat="42.87554" lon="-0.1873">
        <ele>2294.4</ele>
        <time>2026-07-15T08:48:08Z</time>
      </trkpt>
      <trkpt lat="42.87553" lon="-0.18731">
        <ele>2294.4</ele>
        <time>2026-07-15T08:48:09Z</time>
      </trkpt>
      <trkpt lat="42.87553" lon="-0.18731">
        <ele>2294.4</ele>
        <time>2026-07-15T08:48:10Z</time>
      </trkpt>
      <trkpt lat="42.87553" lon="-0.18732">
        <ele>2293.4</ele>
        <time>2026-07-15T08:48:10Z</time>
      </trkpt>
      <trkpt lat="42.87553" lon="-0.18732">
        <ele>2293.4</ele>
        <time>2026-07-15T08:48:11Z</time>
      </trkpt>
      <trkpt lat="42.87553" lon="-0.18733">
        <ele>2293.4</ele>
        <time>2026-07-15T08:48:12Z</time>
      </trkpt>
      <trkpt lat="42.87553" lon="-0.18734">
        <ele>2294.4</ele>
        <time>2026-07-15T08:48:13Z</time>
      </trkpt>
      <trkpt lat="42.87553" lon="-0.18735">
        <ele>2294.4</ele>
        <time>2026-07-15T08:48:13Z</time>
      </trkpt>
      <trkpt lat="42.87553" lon="-0.18735">
        <ele>2294.4</ele>
        <time>2026-07-15T08:48:14Z</time>
      </trkpt>
      <trkpt lat="42.87553" lon="-0.18736">
        <ele>2294.4</ele>
        <time>2026-07-15T08:48:15Z</time>
      </trkpt>
      <trkpt lat="42.87553" lon="-0.18737">
        <ele>2294.4</ele>
        <time>2026-07-15T08:48:16Z</time>
      </trkpt>
      <trkpt lat="42.87553" lon="-0.18737">
        <ele>2294.4</ele>
        <time>2026-07-15T08:48:16Z</time>
      </trkpt>
      <trkpt lat="42.87553" lon="-0.18737">
        <ele>2294.4</ele>
        <time>2026-07-15T08:48:17Z</time>
      </trkpt>
      <trkpt lat="42.87553" lon="-0.18738">
        <ele>2294.4</ele>
        <time>2026-07-15T08:48:18Z</time>
      </trkpt>
      <trkpt lat="42.87553" lon="-0.18739">
        <ele>2294.4</ele>
        <time>2026-07-15T08:48:19Z</time>
      </trkpt>
      <trkpt lat="42.87553" lon="-0.18739">
        <ele>2294.4</ele>
        <time>2026-07-15T08:48:20Z</time>
      </trkpt>
      <trkpt lat="42.87553" lon="-0.1874">
        <ele>2294.4</ele>
        <time>2026-07-15T08:48:21Z</time>
      </trkpt>
      <trkpt lat="42.87553" lon="-0.18741">
        <ele>2295.4</ele>
        <time>2026-07-15T08:48:21Z</time>
      </trkpt>
      <trkpt lat="42.87553" lon="-0.18741">
        <ele>2296.4</ele>
        <time>2026-07-15T08:48:22Z</time>
      </trkpt>
      <trkpt lat="42.87553" lon="-0.18742">
        <ele>2296.4</ele>
        <time>2026-07-15T08:48:23Z</time>
      </trkpt>
      <trkpt lat="42.87553" lon="-0.18743">
        <ele>2296.4</ele>
        <time>2026-07-15T08:48:24Z</time>
      </trkpt>
      <trkpt lat="42.87553" lon="-0.18743">
        <ele>2296.4</ele>
        <time>2026-07-15T08:48:25Z</time>
      </trkpt>
      <trkpt lat="42.87553" lon="-0.18744">
        <ele>2296.4</ele>
        <time>2026-07-15T08:48:26Z</time>
      </trkpt>
      <trkpt lat="42.87553" lon="-0.18744">
        <ele>2296.4</ele>
        <time>2026-07-15T08:48:26Z</time>
      </trkpt>
      <trkpt lat="42.87552" lon="-0.18745">
        <ele>2296.4</ele>
        <time>2026-07-15T08:48:27Z</time>
      </trkpt>
      <trkpt lat="42.87552" lon="-0.18746">
        <ele>2296.4</ele>
        <time>2026-07-15T08:48:28Z</time>
      </trkpt>
      <trkpt lat="42.87552" lon="-0.18746">
        <ele>2296.4</ele>
        <time>2026-07-15T08:48:29Z</time>
      </trkpt>
      <trkpt lat="42.87552" lon="-0.18747">
        <ele>2297.4</ele>
        <time>2026-07-15T08:48:30Z</time>
      </trkpt>
      <trkpt lat="42.87552" lon="-0.18747">
        <ele>2297.4</ele>
        <time>2026-07-15T08:48:31Z</time>
      </trkpt>
      <trkpt lat="42.87552" lon="-0.18748">
        <ele>2297.4</ele>
        <time>2026-07-15T08:48:32Z</time>
      </trkpt>
      <trkpt lat="42.87551" lon="-0.18749">
        <ele>2297.4</ele>
        <time>2026-07-15T08:48:33Z</time>
      </trkpt>
      <trkpt lat="42.87551" lon="-0.18749">
        <ele>2297.4</ele>
        <time>2026-07-15T08:48:34Z</time>
      </trkpt>
      <trkpt lat="42.87551" lon="-0.18749">
        <ele>2297.4</ele>
        <time>2026-07-15T08:48:35Z</time>
      </trkpt>
      <trkpt lat="42.8755" lon="-0.1875">
        <ele>2298.4</ele>
        <time>2026-07-15T08:48:36Z</time>
      </trkpt>
      <trkpt lat="42.8755" lon="-0.1875">
        <ele>2298.4</ele>
        <time>2026-07-15T08:48:36Z</time>
      </trkpt>
      <trkpt lat="42.8755" lon="-0.18751">
        <ele>2298.4</ele>
        <time>2026-07-15T08:48:37Z</time>
      </trkpt>
      <trkpt lat="42.8755" lon="-0.18751">
        <ele>2299.4</ele>
        <time>2026-07-15T08:48:38Z</time>
      </trkpt>
      <trkpt lat="42.8755" lon="-0.18752">
        <ele>2299.4</ele>
        <time>2026-07-15T08:48:39Z</time>
      </trkpt>
      <trkpt lat="42.8755" lon="-0.18752">
        <ele>2300.4</ele>
        <time>2026-07-15T08:48:39Z</time>
      </trkpt>
      <trkpt lat="42.87549" lon="-0.18752">
        <ele>2300.4</ele>
        <time>2026-07-15T08:48:40Z</time>
      </trkpt>
      <trkpt lat="42.8755" lon="-0.18753">
        <ele>2300.4</ele>
        <time>2026-07-15T08:48:40Z</time>
      </trkpt>
      <trkpt lat="42.8755" lon="-0.18753">
        <ele>2300.4</ele>
        <time>2026-07-15T08:48:41Z</time>
      </trkpt>
      <trkpt lat="42.8755" lon="-0.18753">
        <ele>2301.4</ele>
        <time>2026-07-15T08:48:42Z</time>
      </trkpt>
      <trkpt lat="42.8755" lon="-0.18754">
        <ele>2301.4</ele>
        <time>2026-07-15T08:48:43Z</time>
      </trkpt>
      <trkpt lat="42.8755" lon="-0.18754">
        <ele>2301.4</ele>
        <time>2026-07-15T08:48:43Z</time>
      </trkpt>
      <trkpt lat="42.8755" lon="-0.18754">
        <ele>2301.4</ele>
        <time>2026-07-15T08:48:44Z</time>
      </trkpt>
      <trkpt lat="42.8755" lon="-0.18754">
        <ele>2301.4</ele>
        <time>2026-07-15T08:48:44Z</time>
      </trkpt>
      <trkpt lat="42.8755" lon="-0.18755">
        <ele>2301.4</ele>
        <time>2026-07-15T08:48:45Z</time>
      </trkpt>
      <trkpt lat="42.8755" lon="-0.18755">
        <ele>2301.4</ele>
        <time>2026-07-15T08:48:46Z</time>
      </trkpt>
      <trkpt lat="42.8755" lon="-0.18755">
        <ele>2301.4</ele>
        <time>2026-07-15T08:48:46Z</time>
      </trkpt>
      <trkpt lat="42.8755" lon="-0.18756">
        <ele>2301.4</ele>
        <time>2026-07-15T08:48:47Z</time>
      </trkpt>
      <trkpt lat="42.8755" lon="-0.18756">
        <ele>2301.4</ele>
        <time>2026-07-15T08:48:48Z</time>
      </trkpt>
      <trkpt lat="42.8755" lon="-0.18757">
        <ele>2301.4</ele>
        <time>2026-07-15T08:48:49Z</time>
      </trkpt>
      <trkpt lat="42.8755" lon="-0.18757">
        <ele>2301.4</ele>
        <time>2026-07-15T08:48:50Z</time>
      </trkpt>
      <trkpt lat="42.87549" lon="-0.18757">
        <ele>2301.4</ele>
        <time>2026-07-15T08:48:51Z</time>
      </trkpt>
      <trkpt lat="42.87549" lon="-0.18758">
        <ele>2301.4</ele>
        <time>2026-07-15T08:48:52Z</time>
      </trkpt>
      <trkpt lat="42.87549" lon="-0.18758">
        <ele>2301.4</ele>
        <time>2026-07-15T08:48:53Z</time>
      </trkpt>
      <trkpt lat="42.87549" lon="-0.18759">
        <ele>2301.4</ele>
        <time>2026-07-15T08:48:54Z</time>
      </trkpt>
      <trkpt lat="42.87548" lon="-0.18759">
        <ele>2301.4</ele>
        <time>2026-07-15T08:48:55Z</time>
      </trkpt>
      <trkpt lat="42.87548" lon="-0.18759">
        <ele>2301.4</ele>
        <time>2026-07-15T08:48:56Z</time>
      </trkpt>
      <trkpt lat="42.87548" lon="-0.1876">
        <ele>2302.4</ele>
        <time>2026-07-15T08:48:57Z</time>
      </trkpt>
      <trkpt lat="42.87547" lon="-0.1876">
        <ele>2302.4</ele>
        <time>2026-07-15T08:48:58Z</time>
      </trkpt>
      <trkpt lat="42.87547" lon="-0.1876">
        <ele>2303.4</ele>
        <time>2026-07-15T08:48:59Z</time>
      </trkpt>
      <trkpt lat="42.87546" lon="-0.18761">
        <ele>2302.4</ele>
        <time>2026-07-15T08:48:59Z</time>
      </trkpt>
      <trkpt lat="42.87546" lon="-0.18761">
        <ele>2302.4</ele>
        <time>2026-07-15T08:49:00Z</time>
      </trkpt>
      <trkpt lat="42.87545" lon="-0.18761">
        <ele>2302.4</ele>
        <time>2026-07-15T08:49:01Z</time>
      </trkpt>
      <trkpt lat="42.87545" lon="-0.18762">
        <ele>2301.4</ele>
        <time>2026-07-15T08:49:02Z</time>
      </trkpt>
      <trkpt lat="42.87544" lon="-0.18763">
        <ele>2301.4</ele>
        <time>2026-07-15T08:49:03Z</time>
      </trkpt>
      <trkpt lat="42.87543" lon="-0.18763">
        <ele>2301.4</ele>
        <time>2026-07-15T08:49:04Z</time>
      </trkpt>
      <trkpt lat="42.87543" lon="-0.18764">
        <ele>2300.4</ele>
        <time>2026-07-15T08:49:04Z</time>
      </trkpt>
      <trkpt lat="42.87542" lon="-0.18765">
        <ele>2300.4</ele>
        <time>2026-07-15T08:49:05Z</time>
      </trkpt>
      <trkpt lat="42.87542" lon="-0.18765">
        <ele>2301.4</ele>
        <time>2026-07-15T08:49:06Z</time>
      </trkpt>
      <trkpt lat="42.87541" lon="-0.18766">
        <ele>2301.4</ele>
        <time>2026-07-15T08:49:06Z</time>
      </trkpt>
      <trkpt lat="42.87541" lon="-0.18766">
        <ele>2301.4</ele>
        <time>2026-07-15T08:49:07Z</time>
      </trkpt>
      <trkpt lat="42.8754" lon="-0.18767">
        <ele>2301.4</ele>
        <time>2026-07-15T08:49:08Z</time>
      </trkpt>
      <trkpt lat="42.8754" lon="-0.18767">
        <ele>2301.4</ele>
        <time>2026-07-15T08:49:09Z</time>
      </trkpt>
      <trkpt lat="42.87539" lon="-0.18767">
        <ele>2301.4</ele>
        <time>2026-07-15T08:49:09Z</time>
      </trkpt>
      <trkpt lat="42.87539" lon="-0.18768">
        <ele>2300.4</ele>
        <time>2026-07-15T08:49:10Z</time>
      </trkpt>
      <trkpt lat="42.87538" lon="-0.18769">
        <ele>2300.4</ele>
        <time>2026-07-15T08:49:11Z</time>
      </trkpt>
      <trkpt lat="42.87538" lon="-0.18769">
        <ele>2301.4</ele>
        <time>2026-07-15T08:49:11Z</time>
      </trkpt>
      <trkpt lat="42.87537" lon="-0.1877">
        <ele>2301.4</ele>
        <time>2026-07-15T08:49:12Z</time>
      </trkpt>
      <trkpt lat="42.87537" lon="-0.1877">
        <ele>2300.4</ele>
        <time>2026-07-15T08:49:13Z</time>
      </trkpt>
      <trkpt lat="42.87536" lon="-0.18771">
        <ele>2300.4</ele>
        <time>2026-07-15T08:49:13Z</time>
      </trkpt>
      <trkpt lat="42.87536" lon="-0.18771">
        <ele>2299.4</ele>
        <time>2026-07-15T08:49:14Z</time>
      </trkpt>
      <trkpt lat="42.87535" lon="-0.18772">
        <ele>2299.4</ele>
        <time>2026-07-15T08:49:15Z</time>
      </trkpt>
      <trkpt lat="42.87535" lon="-0.18772">
        <ele>2300.4</ele>
        <time>2026-07-15T08:49:16Z</time>
      </trkpt>
      <trkpt lat="42.87534" lon="-0.18773">
        <ele>2299.4</ele>
        <time>2026-07-15T08:49:16Z</time>
      </trkpt>
      <trkpt lat="42.87534" lon="-0.18773">
        <ele>2300.4</ele>
        <time>2026-07-15T08:49:17Z</time>
      </trkpt>
      <trkpt lat="42.87533" lon="-0.18773">
        <ele>2299.4</ele>
        <time>2026-07-15T08:49:18Z</time>
      </trkpt>
      <trkpt lat="42.87533" lon="-0.18773">
        <ele>2299.4</ele>
        <time>2026-07-15T08:49:19Z</time>
      </trkpt>
      <trkpt lat="42.87533" lon="-0.18774">
        <ele>2299.4</ele>
        <time>2026-07-15T08:49:20Z</time>
      </trkpt>
      <trkpt lat="42.87533" lon="-0.18774">
        <ele>2299.4</ele>
        <time>2026-07-15T08:49:20Z</time>
      </trkpt>
      <trkpt lat="42.87532" lon="-0.18774">
        <ele>2300.4</ele>
        <time>2026-07-15T08:49:21Z</time>
      </trkpt>
      <trkpt lat="42.87532" lon="-0.18775">
        <ele>2300.4</ele>
        <time>2026-07-15T08:49:22Z</time>
      </trkpt>
      <trkpt lat="42.87532" lon="-0.18776">
        <ele>2299.4</ele>
        <time>2026-07-15T08:49:23Z</time>
      </trkpt>
      <trkpt lat="42.87531" lon="-0.18776">
        <ele>2299.4</ele>
        <time>2026-07-15T08:49:24Z</time>
      </trkpt>
      <trkpt lat="42.87531" lon="-0.18776">
        <ele>2299.4</ele>
        <time>2026-07-15T08:49:25Z</time>
      </trkpt>
      <trkpt lat="42.87531" lon="-0.18777">
        <ele>2299.4</ele>
        <time>2026-07-15T08:49:25Z</time>
      </trkpt>
      <trkpt lat="42.87531" lon="-0.18778">
        <ele>2299.4</ele>
        <time>2026-07-15T08:49:26Z</time>
      </trkpt>
      <trkpt lat="42.87531" lon="-0.18779">
        <ele>2299.4</ele>
        <time>2026-07-15T08:49:27Z</time>
      </trkpt>
      <trkpt lat="42.87531" lon="-0.18779">
        <ele>2300.4</ele>
        <time>2026-07-15T08:49:27Z</time>
      </trkpt>
      <trkpt lat="42.87531" lon="-0.1878">
        <ele>2300.4</ele>
        <time>2026-07-15T08:49:28Z</time>
      </trkpt>
      <trkpt lat="42.87531" lon="-0.18781">
        <ele>2300.4</ele>
        <time>2026-07-15T08:49:29Z</time>
      </trkpt>
      <trkpt lat="42.8753" lon="-0.18782">
        <ele>2300.4</ele>
        <time>2026-07-15T08:49:29Z</time>
      </trkpt>
      <trkpt lat="42.8753" lon="-0.18783">
        <ele>2301.4</ele>
        <time>2026-07-15T08:49:30Z</time>
      </trkpt>
      <trkpt lat="42.8753" lon="-0.18783">
        <ele>2301.4</ele>
        <time>2026-07-15T08:49:31Z</time>
      </trkpt>
      <trkpt lat="42.87529" lon="-0.18784">
        <ele>2301.4</ele>
        <time>2026-07-15T08:49:32Z</time>
      </trkpt>
      <trkpt lat="42.87528" lon="-0.18784">
        <ele>2301.4</ele>
        <time>2026-07-15T08:49:32Z</time>
      </trkpt>
      <trkpt lat="42.87528" lon="-0.18784">
        <ele>2300.4</ele>
        <time>2026-07-15T08:49:33Z</time>
      </trkpt>
      <trkpt lat="42.87527" lon="-0.18785">
        <ele>2300.4</ele>
        <time>2026-07-15T08:49:34Z</time>
      </trkpt>
      <trkpt lat="42.87526" lon="-0.18785">
        <ele>2301.4</ele>
        <time>2026-07-15T08:49:35Z</time>
      </trkpt>
      <trkpt lat="42.87526" lon="-0.18785">
        <ele>2300.4</ele>
        <time>2026-07-15T08:49:36Z</time>
      </trkpt>
      <trkpt lat="42.87525" lon="-0.18786">
        <ele>2300.4</ele>
        <time>2026-07-15T08:49:36Z</time>
      </trkpt>
      <trkpt lat="42.87525" lon="-0.18787">
        <ele>2300.4</ele>
        <time>2026-07-15T08:49:37Z</time>
      </trkpt>
      <trkpt lat="42.87524" lon="-0.18787">
        <ele>2300.4</ele>
        <time>2026-07-15T08:49:38Z</time>
      </trkpt>
      <trkpt lat="42.87524" lon="-0.18788">
        <ele>2300.4</ele>
        <time>2026-07-15T08:49:39Z</time>
      </trkpt>
      <trkpt lat="42.87523" lon="-0.18789">
        <ele>2300.4</ele>
        <time>2026-07-15T08:49:40Z</time>
      </trkpt>
      <trkpt lat="42.87523" lon="-0.1879">
        <ele>2300.4</ele>
        <time>2026-07-15T08:49:41Z</time>
      </trkpt>
      <trkpt lat="42.87522" lon="-0.18791">
        <ele>2300.4</ele>
        <time>2026-07-15T08:49:41Z</time>
      </trkpt>
      <trkpt lat="42.87522" lon="-0.18791">
        <ele>2301.4</ele>
        <time>2026-07-15T08:49:42Z</time>
      </trkpt>
      <trkpt lat="42.87522" lon="-0.18792">
        <ele>2301.4</ele>
        <time>2026-07-15T08:49:43Z</time>
      </trkpt>
      <trkpt lat="42.87522" lon="-0.18792">
        <ele>2301.4</ele>
        <time>2026-07-15T08:49:44Z</time>
      </trkpt>
      <trkpt lat="42.87522" lon="-0.18793">
        <ele>2301.4</ele>
        <time>2026-07-15T08:49:45Z</time>
      </trkpt>
      <trkpt lat="42.87521" lon="-0.18793">
        <ele>2301.4</ele>
        <time>2026-07-15T08:49:46Z</time>
      </trkpt>
      <trkpt lat="42.87521" lon="-0.18794">
        <ele>2301.4</ele>
        <time>2026-07-15T08:49:46Z</time>
      </trkpt>
      <trkpt lat="42.87521" lon="-0.18795">
        <ele>2301.4</ele>
        <time>2026-07-15T08:49:47Z</time>
      </trkpt>
      <trkpt lat="42.87521" lon="-0.18795">
        <ele>2301.4</ele>
        <time>2026-07-15T08:49:47Z</time>
      </trkpt>
      <trkpt lat="42.8752" lon="-0.18796">
        <ele>2301.4</ele>
        <time>2026-07-15T08:49:48Z</time>
      </trkpt>
      <trkpt lat="42.8752" lon="-0.18797">
        <ele>2301.4</ele>
        <time>2026-07-15T08:49:49Z</time>
      </trkpt>
      <trkpt lat="42.8752" lon="-0.18797">
        <ele>2301.4</ele>
        <time>2026-07-15T08:49:50Z</time>
      </trkpt>
      <trkpt lat="42.87519" lon="-0.18797">
        <ele>2301.4</ele>
        <time>2026-07-15T08:49:51Z</time>
      </trkpt>
      <trkpt lat="42.87519" lon="-0.18797">
        <ele>2301.4</ele>
        <time>2026-07-15T08:49:51Z</time>
      </trkpt>
      <trkpt lat="42.87519" lon="-0.18798">
        <ele>2301.4</ele>
        <time>2026-07-15T08:49:52Z</time>
      </trkpt>
      <trkpt lat="42.87519" lon="-0.18798">
        <ele>2301.4</ele>
        <time>2026-07-15T08:49:53Z</time>
      </trkpt>
      <trkpt lat="42.87519" lon="-0.18799">
        <ele>2301.4</ele>
        <time>2026-07-15T08:49:54Z</time>
      </trkpt>
      <trkpt lat="42.87519" lon="-0.188">
        <ele>2301.4</ele>
        <time>2026-07-15T08:49:55Z</time>
      </trkpt>
      <trkpt lat="42.87519" lon="-0.18801">
        <ele>2301.4</ele>
        <time>2026-07-15T08:49:56Z</time>
      </trkpt>
      <trkpt lat="42.87519" lon="-0.18801">
        <ele>2302.4</ele>
        <time>2026-07-15T08:49:57Z</time>
      </trkpt>
      <trkpt lat="42.87519" lon="-0.18802">
        <ele>2302.4</ele>
        <time>2026-07-15T08:49:57Z</time>
      </trkpt>
      <trkpt lat="42.87519" lon="-0.18803">
        <ele>2302.4</ele>
        <time>2026-07-15T08:49:58Z</time>
      </trkpt>
      <trkpt lat="42.8752" lon="-0.18803">
        <ele>2302.4</ele>
        <time>2026-07-15T08:49:59Z</time>
      </trkpt>
      <trkpt lat="42.8752" lon="-0.18804">
        <ele>2302.4</ele>
        <time>2026-07-15T08:50:00Z</time>
      </trkpt>
      <trkpt lat="42.8752" lon="-0.18805">
        <ele>2302.4</ele>
        <time>2026-07-15T08:50:01Z</time>
      </trkpt>
      <trkpt lat="42.8752" lon="-0.18805">
        <ele>2302.4</ele>
        <time>2026-07-15T08:50:02Z</time>
      </trkpt>
      <trkpt lat="42.8752" lon="-0.18806">
        <ele>2302.4</ele>
        <time>2026-07-15T08:50:02Z</time>
      </trkpt>
      <trkpt lat="42.8752" lon="-0.18807">
        <ele>2303.4</ele>
        <time>2026-07-15T08:50:03Z</time>
      </trkpt>
      <trkpt lat="42.8752" lon="-0.18808">
        <ele>2303.4</ele>
        <time>2026-07-15T08:50:04Z</time>
      </trkpt>
      <trkpt lat="42.8752" lon="-0.18808">
        <ele>2303.4</ele>
        <time>2026-07-15T08:50:05Z</time>
      </trkpt>
      <trkpt lat="42.8752" lon="-0.18809">
        <ele>2303.4</ele>
        <time>2026-07-15T08:50:05Z</time>
      </trkpt>
      <trkpt lat="42.87519" lon="-0.18809">
        <ele>2302.4</ele>
        <time>2026-07-15T08:50:06Z</time>
      </trkpt>
      <trkpt lat="42.87519" lon="-0.1881">
        <ele>2302.4</ele>
        <time>2026-07-15T08:50:07Z</time>
      </trkpt>
      <trkpt lat="42.87518" lon="-0.1881">
        <ele>2303.4</ele>
        <time>2026-07-15T08:50:08Z</time>
      </trkpt>
      <trkpt lat="42.87518" lon="-0.18811">
        <ele>2303.4</ele>
        <time>2026-07-15T08:50:09Z</time>
      </trkpt>
      <trkpt lat="42.87518" lon="-0.18811">
        <ele>2303.4</ele>
        <time>2026-07-15T08:50:10Z</time>
      </trkpt>
      <trkpt lat="42.87518" lon="-0.18812">
        <ele>2303.4</ele>
        <time>2026-07-15T08:50:11Z</time>
      </trkpt>
      <trkpt lat="42.87517" lon="-0.18812">
        <ele>2303.4</ele>
        <time>2026-07-15T08:50:12Z</time>
      </trkpt>
      <trkpt lat="42.87517" lon="-0.18812">
        <ele>2303.4</ele>
        <time>2026-07-15T08:50:12Z</time>
      </trkpt>
      <trkpt lat="42.87516" lon="-0.18813">
        <ele>2303.4</ele>
        <time>2026-07-15T08:50:13Z</time>
      </trkpt>
      <trkpt lat="42.87516" lon="-0.18813">
        <ele>2303.4</ele>
        <time>2026-07-15T08:50:14Z</time>
      </trkpt>
      <trkpt lat="42.87516" lon="-0.18814">
        <ele>2305.4</ele>
        <time>2026-07-15T08:50:15Z</time>
      </trkpt>
      <trkpt lat="42.87516" lon="-0.18814">
        <ele>2305.4</ele>
        <time>2026-07-15T08:50:16Z</time>
      </trkpt>
      <trkpt lat="42.87516" lon="-0.18814">
        <ele>2306.4</ele>
        <time>2026-07-15T08:50:17Z</time>
      </trkpt>
      <trkpt lat="42.87515" lon="-0.18814">
        <ele>2306.4</ele>
        <time>2026-07-15T08:50:18Z</time>
      </trkpt>
      <trkpt lat="42.87515" lon="-0.18815">
        <ele>2307.4</ele>
        <time>2026-07-15T08:50:19Z</time>
      </trkpt>
      <trkpt lat="42.87515" lon="-0.18815">
        <ele>2307.4</ele>
        <time>2026-07-15T08:50:20Z</time>
      </trkpt>
      <trkpt lat="42.87515" lon="-0.18815">
        <ele>2307.4</ele>
        <time>2026-07-15T08:50:21Z</time>
      </trkpt>
      <trkpt lat="42.87515" lon="-0.18815">
        <ele>2307.4</ele>
        <time>2026-07-15T08:50:22Z</time>
      </trkpt>
      <trkpt lat="42.87515" lon="-0.18816">
        <ele>2308.4</ele>
        <time>2026-07-15T08:50:23Z</time>
      </trkpt>
      <trkpt lat="42.87515" lon="-0.18816">
        <ele>2308.4</ele>
        <time>2026-07-15T08:50:24Z</time>
      </trkpt>
      <trkpt lat="42.87515" lon="-0.18817">
        <ele>2308.4</ele>
        <time>2026-07-15T08:50:25Z</time>
      </trkpt>
      <trkpt lat="42.87515" lon="-0.18817">
        <ele>2308.4</ele>
        <time>2026-07-15T08:50:26Z</time>
      </trkpt>
      <trkpt lat="42.87515" lon="-0.18818">
        <ele>2308.4</ele>
        <time>2026-07-15T08:50:27Z</time>
      </trkpt>
      <trkpt lat="42.87515" lon="-0.18818">
        <ele>2308.4</ele>
        <time>2026-07-15T08:50:27Z</time>
      </trkpt>
      <trkpt lat="42.87515" lon="-0.18819">
        <ele>2309.4</ele>
        <time>2026-07-15T08:50:28Z</time>
      </trkpt>
      <trkpt lat="42.87515" lon="-0.1882">
        <ele>2309.4</ele>
        <time>2026-07-15T08:50:29Z</time>
      </trkpt>
      <trkpt lat="42.87515" lon="-0.1882">
        <ele>2309.4</ele>
        <time>2026-07-15T08:50:30Z</time>
      </trkpt>
      <trkpt lat="42.87515" lon="-0.18821">
        <ele>2309.4</ele>
        <time>2026-07-15T08:50:31Z</time>
      </trkpt>
      <trkpt lat="42.87515" lon="-0.18822">
        <ele>2309.4</ele>
        <time>2026-07-15T08:50:32Z</time>
      </trkpt>
      <trkpt lat="42.87515" lon="-0.18823">
        <ele>2309.4</ele>
        <time>2026-07-15T08:50:33Z</time>
      </trkpt>
      <trkpt lat="42.87515" lon="-0.18824">
        <ele>2309.4</ele>
        <time>2026-07-15T08:50:33Z</time>
      </trkpt>
      <trkpt lat="42.87515" lon="-0.18824">
        <ele>2309.4</ele>
        <time>2026-07-15T08:50:34Z</time>
      </trkpt>
      <trkpt lat="42.87515" lon="-0.18825">
        <ele>2309.4</ele>
        <time>2026-07-15T08:50:35Z</time>
      </trkpt>
      <trkpt lat="42.87514" lon="-0.18826">
        <ele>2309.4</ele>
        <time>2026-07-15T08:50:36Z</time>
      </trkpt>
      <trkpt lat="42.87514" lon="-0.18827">
        <ele>2309.4</ele>
        <time>2026-07-15T08:50:37Z</time>
      </trkpt>
      <trkpt lat="42.87514" lon="-0.18827">
        <ele>2309.4</ele>
        <time>2026-07-15T08:50:37Z</time>
      </trkpt>
      <trkpt lat="42.87514" lon="-0.18828">
        <ele>2309.4</ele>
        <time>2026-07-15T08:50:38Z</time>
      </trkpt>
      <trkpt lat="42.87514" lon="-0.18829">
        <ele>2309.4</ele>
        <time>2026-07-15T08:50:39Z</time>
      </trkpt>
      <trkpt lat="42.87514" lon="-0.1883">
        <ele>2309.4</ele>
        <time>2026-07-15T08:50:40Z</time>
      </trkpt>
      <trkpt lat="42.87514" lon="-0.1883">
        <ele>2309.4</ele>
        <time>2026-07-15T08:50:41Z</time>
      </trkpt>
      <trkpt lat="42.87514" lon="-0.1883">
        <ele>2309.4</ele>
        <time>2026-07-15T08:50:41Z</time>
      </trkpt>
      <trkpt lat="42.87514" lon="-0.18831">
        <ele>2309.4</ele>
        <time>2026-07-15T08:50:42Z</time>
      </trkpt>
      <trkpt lat="42.87514" lon="-0.18831">
        <ele>2309.4</ele>
        <time>2026-07-15T08:50:43Z</time>
      </trkpt>
      <trkpt lat="42.87514" lon="-0.18832">
        <ele>2310.4</ele>
        <time>2026-07-15T08:50:44Z</time>
      </trkpt>
      <trkpt lat="42.87513" lon="-0.18833">
        <ele>2310.4</ele>
        <time>2026-07-15T08:50:45Z</time>
      </trkpt>
      <trkpt lat="42.87513" lon="-0.18833">
        <ele>2310.4</ele>
        <time>2026-07-15T08:50:46Z</time>
      </trkpt>
      <trkpt lat="42.87513" lon="-0.18833">
        <ele>2310.4</ele>
        <time>2026-07-15T08:50:47Z</time>
      </trkpt>
      <trkpt lat="42.87513" lon="-0.18834">
        <ele>2310.4</ele>
        <time>2026-07-15T08:50:47Z</time>
      </trkpt>
      <trkpt lat="42.87513" lon="-0.18834">
        <ele>2310.4</ele>
        <time>2026-07-15T08:50:48Z</time>
      </trkpt>
      <trkpt lat="42.87513" lon="-0.18835">
        <ele>2310.4</ele>
        <time>2026-07-15T08:50:49Z</time>
      </trkpt>
      <trkpt lat="42.87513" lon="-0.18836">
        <ele>2310.4</ele>
        <time>2026-07-15T08:50:50Z</time>
      </trkpt>
      <trkpt lat="42.87513" lon="-0.18836">
        <ele>2310.4</ele>
        <time>2026-07-15T08:50:51Z</time>
      </trkpt>
      <trkpt lat="42.87513" lon="-0.18837">
        <ele>2310.4</ele>
        <time>2026-07-15T08:50:52Z</time>
      </trkpt>
      <trkpt lat="42.87512" lon="-0.18838">
        <ele>2310.4</ele>
        <time>2026-07-15T08:50:53Z</time>
      </trkpt>
      <trkpt lat="42.87512" lon="-0.18839">
        <ele>2310.4</ele>
        <time>2026-07-15T08:50:53Z</time>
      </trkpt>
      <trkpt lat="42.87511" lon="-0.1884">
        <ele>2310.4</ele>
        <time>2026-07-15T08:50:54Z</time>
      </trkpt>
      <trkpt lat="42.87511" lon="-0.1884">
        <ele>2310.4</ele>
        <time>2026-07-15T08:50:54Z</time>
      </trkpt>
      <trkpt lat="42.87511" lon="-0.18841">
        <ele>2310.4</ele>
        <time>2026-07-15T08:50:55Z</time>
      </trkpt>
      <trkpt lat="42.87511" lon="-0.18842">
        <ele>2310.4</ele>
        <time>2026-07-15T08:50:56Z</time>
      </trkpt>
      <trkpt lat="42.87511" lon="-0.18843">
        <ele>2309.4</ele>
        <time>2026-07-15T08:50:57Z</time>
      </trkpt>
      <trkpt lat="42.87511" lon="-0.18844">
        <ele>2310.4</ele>
        <time>2026-07-15T08:50:57Z</time>
      </trkpt>
      <trkpt lat="42.87511" lon="-0.18845">
        <ele>2310.4</ele>
        <time>2026-07-15T08:50:58Z</time>
      </trkpt>
      <trkpt lat="42.87511" lon="-0.18845">
        <ele>2310.4</ele>
        <time>2026-07-15T08:50:59Z</time>
      </trkpt>
      <trkpt lat="42.8751" lon="-0.18846">
        <ele>2310.4</ele>
        <time>2026-07-15T08:51:00Z</time>
      </trkpt>
      <trkpt lat="42.8751" lon="-0.18846">
        <ele>2310.4</ele>
        <time>2026-07-15T08:51:00Z</time>
      </trkpt>
      <trkpt lat="42.8751" lon="-0.18847">
        <ele>2310.4</ele>
        <time>2026-07-15T08:51:01Z</time>
      </trkpt>
      <trkpt lat="42.8751" lon="-0.18848">
        <ele>2310.4</ele>
        <time>2026-07-15T08:51:02Z</time>
      </trkpt>
      <trkpt lat="42.87509" lon="-0.18849">
        <ele>2310.4</ele>
        <time>2026-07-15T08:51:03Z</time>
      </trkpt>
      <trkpt lat="42.87509" lon="-0.18849">
        <ele>2310.4</ele>
        <time>2026-07-15T08:51:04Z</time>
      </trkpt>
      <trkpt lat="42.87508" lon="-0.1885">
        <ele>2310.4</ele>
        <time>2026-07-15T08:51:05Z</time>
      </trkpt>
      <trkpt lat="42.87508" lon="-0.1885">
        <ele>2311.4</ele>
        <time>2026-07-15T08:51:05Z</time>
      </trkpt>
      <trkpt lat="42.87508" lon="-0.1885">
        <ele>2311.4</ele>
        <time>2026-07-15T08:51:06Z</time>
      </trkpt>
      <trkpt lat="42.87508" lon="-0.18851">
        <ele>2311.4</ele>
        <time>2026-07-15T08:51:06Z</time>
      </trkpt>
      <trkpt lat="42.87508" lon="-0.18851">
        <ele>2311.4</ele>
        <time>2026-07-15T08:51:07Z</time>
      </trkpt>
      <trkpt lat="42.87508" lon="-0.18852">
        <ele>2311.4</ele>
        <time>2026-07-15T08:51:08Z</time>
      </trkpt>
      <trkpt lat="42.87507" lon="-0.18853">
        <ele>2311.4</ele>
        <time>2026-07-15T08:51:09Z</time>
      </trkpt>
      <trkpt lat="42.87507" lon="-0.18853">
        <ele>2311.4</ele>
        <time>2026-07-15T08:51:09Z</time>
      </trkpt>
      <trkpt lat="42.87507" lon="-0.18854">
        <ele>2310.4</ele>
        <time>2026-07-15T08:51:10Z</time>
      </trkpt>
      <trkpt lat="42.87506" lon="-0.18855">
        <ele>2310.4</ele>
        <time>2026-07-15T08:51:11Z</time>
      </trkpt>
      <trkpt lat="42.87506" lon="-0.18855">
        <ele>2310.4</ele>
        <time>2026-07-15T08:51:12Z</time>
      </trkpt>
      <trkpt lat="42.87506" lon="-0.18856">
        <ele>2311.4</ele>
        <time>2026-07-15T08:51:13Z</time>
      </trkpt>
      <trkpt lat="42.87505" lon="-0.18856">
        <ele>2311.4</ele>
        <time>2026-07-15T08:51:14Z</time>
      </trkpt>
      <trkpt lat="42.87505" lon="-0.18857">
        <ele>2310.4</ele>
        <time>2026-07-15T08:51:15Z</time>
      </trkpt>
      <trkpt lat="42.87504" lon="-0.18857">
        <ele>2310.4</ele>
        <time>2026-07-15T08:51:15Z</time>
      </trkpt>
      <trkpt lat="42.87504" lon="-0.18858">
        <ele>2310.4</ele>
        <time>2026-07-15T08:51:16Z</time>
      </trkpt>
      <trkpt lat="42.87503" lon="-0.18859">
        <ele>2309.4</ele>
        <time>2026-07-15T08:51:17Z</time>
      </trkpt>
      <trkpt lat="42.87503" lon="-0.18859">
        <ele>2309.4</ele>
        <time>2026-07-15T08:51:18Z</time>
      </trkpt>
      <trkpt lat="42.87502" lon="-0.18859">
        <ele>2310.4</ele>
        <time>2026-07-15T08:51:18Z</time>
      </trkpt>
      <trkpt lat="42.87502" lon="-0.1886">
        <ele>2310.4</ele>
        <time>2026-07-15T08:51:19Z</time>
      </trkpt>
      <trkpt lat="42.87501" lon="-0.1886">
        <ele>2310.4</ele>
        <time>2026-07-15T08:51:20Z</time>
      </trkpt>
      <trkpt lat="42.87501" lon="-0.1886">
        <ele>2310.4</ele>
        <time>2026-07-15T08:51:21Z</time>
      </trkpt>
      <trkpt lat="42.87501" lon="-0.1886">
        <ele>2310.4</ele>
        <time>2026-07-15T08:51:22Z</time>
      </trkpt>
      <trkpt lat="42.87501" lon="-0.1886">
        <ele>2310.4</ele>
        <time>2026-07-15T08:51:23Z</time>
      </trkpt>
      <trkpt lat="42.87501" lon="-0.1886">
        <ele>2310.4</ele>
        <time>2026-07-15T08:51:24Z</time>
      </trkpt>
      <trkpt lat="42.87501" lon="-0.18861">
        <ele>2311.4</ele>
        <time>2026-07-15T08:51:25Z</time>
      </trkpt>
      <trkpt lat="42.87501" lon="-0.18861">
        <ele>2311.4</ele>
        <time>2026-07-15T08:51:26Z</time>
      </trkpt>
      <trkpt lat="42.875" lon="-0.18861">
        <ele>2310.4</ele>
        <time>2026-07-15T08:51:27Z</time>
      </trkpt>
      <trkpt lat="42.875" lon="-0.18861">
        <ele>2311.4</ele>
        <time>2026-07-15T08:51:28Z</time>
      </trkpt>
      <trkpt lat="42.875" lon="-0.18861">
        <ele>2311.4</ele>
        <time>2026-07-15T08:51:28Z</time>
      </trkpt>
      <trkpt lat="42.875" lon="-0.18861">
        <ele>2311.4</ele>
        <time>2026-07-15T08:51:29Z</time>
      </trkpt>
      <trkpt lat="42.87499" lon="-0.18861">
        <ele>2311.4</ele>
        <time>2026-07-15T08:51:30Z</time>
      </trkpt>
      <trkpt lat="42.87499" lon="-0.18862">
        <ele>2311.4</ele>
        <time>2026-07-15T08:51:31Z</time>
      </trkpt>
      <trkpt lat="42.87499" lon="-0.18862">
        <ele>2311.4</ele>
        <time>2026-07-15T08:51:32Z</time>
      </trkpt>
      <trkpt lat="42.87499" lon="-0.18862">
        <ele>2311.4</ele>
        <time>2026-07-15T08:51:33Z</time>
      </trkpt>
      <trkpt lat="42.87498" lon="-0.18862">
        <ele>2311.4</ele>
        <time>2026-07-15T08:51:34Z</time>
      </trkpt>
      <trkpt lat="42.87498" lon="-0.18863">
        <ele>2312.4</ele>
        <time>2026-07-15T08:51:34Z</time>
      </trkpt>
      <trkpt lat="42.87498" lon="-0.18863">
        <ele>2312.4</ele>
        <time>2026-07-15T08:51:35Z</time>
      </trkpt>
      <trkpt lat="42.87497" lon="-0.18864">
        <ele>2311.4</ele>
        <time>2026-07-15T08:51:36Z</time>
      </trkpt>
      <trkpt lat="42.87497" lon="-0.18865">
        <ele>2311.4</ele>
        <time>2026-07-15T08:51:37Z</time>
      </trkpt>
      <trkpt lat="42.87496" lon="-0.18865">
        <ele>2312.4</ele>
        <time>2026-07-15T08:51:38Z</time>
      </trkpt>
      <trkpt lat="42.87496" lon="-0.18866">
        <ele>2312.4</ele>
        <time>2026-07-15T08:51:39Z</time>
      </trkpt>
      <trkpt lat="42.87496" lon="-0.18866">
        <ele>2313.4</ele>
        <time>2026-07-15T08:51:39Z</time>
      </trkpt>
      <trkpt lat="42.87496" lon="-0.18867">
        <ele>2313.4</ele>
        <time>2026-07-15T08:51:40Z</time>
      </trkpt>
      <trkpt lat="42.87495" lon="-0.18868">
        <ele>2313.4</ele>
        <time>2026-07-15T08:51:40Z</time>
      </trkpt>
      <trkpt lat="42.87495" lon="-0.18868">
        <ele>2314.4</ele>
        <time>2026-07-15T08:51:41Z</time>
      </trkpt>
      <trkpt lat="42.87495" lon="-0.18869">
        <ele>2314.4</ele>
        <time>2026-07-15T08:51:42Z</time>
      </trkpt>
      <trkpt lat="42.87494" lon="-0.1887">
        <ele>2314.4</ele>
        <time>2026-07-15T08:51:42Z</time>
      </trkpt>
      <trkpt lat="42.87494" lon="-0.1887">
        <ele>2314.4</ele>
        <time>2026-07-15T08:51:43Z</time>
      </trkpt>
      <trkpt lat="42.87493" lon="-0.1887">
        <ele>2315.4</ele>
        <time>2026-07-15T08:51:44Z</time>
      </trkpt>
      <trkpt lat="42.87493" lon="-0.18871">
        <ele>2315.4</ele>
        <time>2026-07-15T08:51:44Z</time>
      </trkpt>
      <trkpt lat="42.87493" lon="-0.18871">
        <ele>2315.4</ele>
        <time>2026-07-15T08:51:45Z</time>
      </trkpt>
      <trkpt lat="42.87493" lon="-0.18872">
        <ele>2315.4</ele>
        <time>2026-07-15T08:51:46Z</time>
      </trkpt>
      <trkpt lat="42.87492" lon="-0.18872">
        <ele>2315.4</ele>
        <time>2026-07-15T08:51:46Z</time>
      </trkpt>
      <trkpt lat="42.87492" lon="-0.18873">
        <ele>2315.4</ele>
        <time>2026-07-15T08:51:47Z</time>
      </trkpt>
      <trkpt lat="42.87492" lon="-0.18874">
        <ele>2315.4</ele>
        <time>2026-07-15T08:51:48Z</time>
      </trkpt>
      <trkpt lat="42.87492" lon="-0.18874">
        <ele>2315.4</ele>
        <time>2026-07-15T08:51:48Z</time>
      </trkpt>
      <trkpt lat="42.87492" lon="-0.18875">
        <ele>2315.4</ele>
        <time>2026-07-15T08:51:49Z</time>
      </trkpt>
      <trkpt lat="42.87492" lon="-0.18875">
        <ele>2315.4</ele>
        <time>2026-07-15T08:51:50Z</time>
      </trkpt>
      <trkpt lat="42.87492" lon="-0.18876">
        <ele>2315.4</ele>
        <time>2026-07-15T08:51:51Z</time>
      </trkpt>
      <trkpt lat="42.87492" lon="-0.18877">
        <ele>2315.4</ele>
        <time>2026-07-15T08:51:51Z</time>
      </trkpt>
      <trkpt lat="42.87492" lon="-0.18878">
        <ele>2315.4</ele>
        <time>2026-07-15T08:51:52Z</time>
      </trkpt>
      <trkpt lat="42.87492" lon="-0.18878">
        <ele>2315.4</ele>
        <time>2026-07-15T08:51:53Z</time>
      </trkpt>
      <trkpt lat="42.87493" lon="-0.18879">
        <ele>2314.4</ele>
        <time>2026-07-15T08:51:54Z</time>
      </trkpt>
      <trkpt lat="42.87493" lon="-0.18879">
        <ele>2315.4</ele>
        <time>2026-07-15T08:51:54Z</time>
      </trkpt>
      <trkpt lat="42.87493" lon="-0.1888">
        <ele>2315.4</ele>
        <time>2026-07-15T08:51:55Z</time>
      </trkpt>
      <trkpt lat="42.87493" lon="-0.18881">
        <ele>2315.4</ele>
        <time>2026-07-15T08:51:56Z</time>
      </trkpt>
      <trkpt lat="42.87492" lon="-0.18882">
        <ele>2316.4</ele>
        <time>2026-07-15T08:51:57Z</time>
      </trkpt>
      <trkpt lat="42.87492" lon="-0.18882">
        <ele>2316.4</ele>
        <time>2026-07-15T08:51:58Z</time>
      </trkpt>
      <trkpt lat="42.87492" lon="-0.18883">
        <ele>2317.4</ele>
        <time>2026-07-15T08:51:58Z</time>
      </trkpt>
      <trkpt lat="42.87492" lon="-0.18883">
        <ele>2316.4</ele>
        <time>2026-07-15T08:51:59Z</time>
      </trkpt>
      <trkpt lat="42.87492" lon="-0.18884">
        <ele>2316.4</ele>
        <time>2026-07-15T08:52:00Z</time>
      </trkpt>
      <trkpt lat="42.87492" lon="-0.18885">
        <ele>2316.4</ele>
        <time>2026-07-15T08:52:01Z</time>
      </trkpt>
      <trkpt lat="42.87491" lon="-0.18886">
        <ele>2316.4</ele>
        <time>2026-07-15T08:52:02Z</time>
      </trkpt>
      <trkpt lat="42.87491" lon="-0.18886">
        <ele>2316.4</ele>
        <time>2026-07-15T08:52:03Z</time>
      </trkpt>
      <trkpt lat="42.87491" lon="-0.18887">
        <ele>2316.4</ele>
        <time>2026-07-15T08:52:04Z</time>
      </trkpt>
      <trkpt lat="42.87491" lon="-0.18888">
        <ele>2316.4</ele>
        <time>2026-07-15T08:52:04Z</time>
      </trkpt>
      <trkpt lat="42.8749" lon="-0.18889">
        <ele>2316.4</ele>
        <time>2026-07-15T08:52:05Z</time>
      </trkpt>
      <trkpt lat="42.8749" lon="-0.1889">
        <ele>2316.4</ele>
        <time>2026-07-15T08:52:05Z</time>
      </trkpt>
      <trkpt lat="42.8749" lon="-0.1889">
        <ele>2316.4</ele>
        <time>2026-07-15T08:52:06Z</time>
      </trkpt>
      <trkpt lat="42.8749" lon="-0.18891">
        <ele>2317.4</ele>
        <time>2026-07-15T08:52:07Z</time>
      </trkpt>
      <trkpt lat="42.87489" lon="-0.18892">
        <ele>2317.4</ele>
        <time>2026-07-15T08:52:08Z</time>
      </trkpt>
      <trkpt lat="42.87489" lon="-0.18892">
        <ele>2317.4</ele>
        <time>2026-07-15T08:52:09Z</time>
      </trkpt>
      <trkpt lat="42.87489" lon="-0.18893">
        <ele>2317.4</ele>
        <time>2026-07-15T08:52:09Z</time>
      </trkpt>
      <trkpt lat="42.87489" lon="-0.18893">
        <ele>2317.4</ele>
        <time>2026-07-15T08:52:10Z</time>
      </trkpt>
      <trkpt lat="42.87489" lon="-0.18894">
        <ele>2317.4</ele>
        <time>2026-07-15T08:52:11Z</time>
      </trkpt>
      <trkpt lat="42.87488" lon="-0.18893">
        <ele>2317.4</ele>
        <time>2026-07-15T08:52:12Z</time>
      </trkpt>
      <trkpt lat="42.87488" lon="-0.18894">
        <ele>2316.4</ele>
        <time>2026-07-15T08:52:13Z</time>
      </trkpt>
      <trkpt lat="42.87488" lon="-0.18896">
        <ele>2316.4</ele>
        <time>2026-07-15T08:52:14Z</time>
      </trkpt>
      <trkpt lat="42.87488" lon="-0.18897">
        <ele>2316.4</ele>
        <time>2026-07-15T08:52:15Z</time>
      </trkpt>
      <trkpt lat="42.87487" lon="-0.18898">
        <ele>2316.4</ele>
        <time>2026-07-15T08:52:16Z</time>
      </trkpt>
      <trkpt lat="42.87487" lon="-0.18898">
        <ele>2316.4</ele>
        <time>2026-07-15T08:52:17Z</time>
      </trkpt>
      <trkpt lat="42.87487" lon="-0.18899">
        <ele>2316.4</ele>
        <time>2026-07-15T08:52:18Z</time>
      </trkpt>
      <trkpt lat="42.87487" lon="-0.189">
        <ele>2315.4</ele>
        <time>2026-07-15T08:52:19Z</time>
      </trkpt>
      <trkpt lat="42.87486" lon="-0.18901">
        <ele>2315.4</ele>
        <time>2026-07-15T08:52:20Z</time>
      </trkpt>
      <trkpt lat="42.87485" lon="-0.18902">
        <ele>2315.4</ele>
        <time>2026-07-15T08:52:21Z</time>
      </trkpt>
      <trkpt lat="42.87484" lon="-0.18902">
        <ele>2314.4</ele>
        <time>2026-07-15T08:52:22Z</time>
      </trkpt>
      <trkpt lat="42.87484" lon="-0.18903">
        <ele>2314.4</ele>
        <time>2026-07-15T08:52:23Z</time>
      </trkpt>
      <trkpt lat="42.87483" lon="-0.18903">
        <ele>2314.4</ele>
        <time>2026-07-15T08:52:24Z</time>
      </trkpt>
      <trkpt lat="42.87483" lon="-0.18905">
        <ele>2314.4</ele>
        <time>2026-07-15T08:52:25Z</time>
      </trkpt>
      <trkpt lat="42.87482" lon="-0.18906">
        <ele>2314.4</ele>
        <time>2026-07-15T08:52:26Z</time>
      </trkpt>
      <trkpt lat="42.87482" lon="-0.18907">
        <ele>2314.4</ele>
        <time>2026-07-15T08:52:27Z</time>
      </trkpt>
      <trkpt lat="42.87482" lon="-0.18907">
        <ele>2314.4</ele>
        <time>2026-07-15T08:52:28Z</time>
      </trkpt>
      <trkpt lat="42.87482" lon="-0.18908">
        <ele>2313.4</ele>
        <time>2026-07-15T08:52:29Z</time>
      </trkpt>
      <trkpt lat="42.87482" lon="-0.18909">
        <ele>2313.4</ele>
        <time>2026-07-15T08:52:30Z</time>
      </trkpt>
      <trkpt lat="42.87481" lon="-0.1891">
        <ele>2313.4</ele>
        <time>2026-07-15T08:52:31Z</time>
      </trkpt>
      <trkpt lat="42.8748" lon="-0.18911">
        <ele>2313.4</ele>
        <time>2026-07-15T08:52:32Z</time>
      </trkpt>
      <trkpt lat="42.8748" lon="-0.18911">
        <ele>2313.4</ele>
        <time>2026-07-15T08:52:33Z</time>
      </trkpt>
      <trkpt lat="42.8748" lon="-0.18911">
        <ele>2314.4</ele>
        <time>2026-07-15T08:52:34Z</time>
      </trkpt>
      <trkpt lat="42.87479" lon="-0.18912">
        <ele>2314.4</ele>
        <time>2026-07-15T08:52:35Z</time>
      </trkpt>
      <trkpt lat="42.87479" lon="-0.18913">
        <ele>2314.4</ele>
        <time>2026-07-15T08:52:36Z</time>
      </trkpt>
      <trkpt lat="42.87478" lon="-0.18914">
        <ele>2314.4</ele>
        <time>2026-07-15T08:52:37Z</time>
      </trkpt>
      <trkpt lat="42.87478" lon="-0.18915">
        <ele>2314.4</ele>
        <time>2026-07-15T08:52:38Z</time>
      </trkpt>
      <trkpt lat="42.87478" lon="-0.18916">
        <ele>2314.4</ele>
        <time>2026-07-15T08:52:39Z</time>
      </trkpt>
      <trkpt lat="42.87478" lon="-0.18916">
        <ele>2314.4</ele>
        <time>2026-07-15T08:52:40Z</time>
      </trkpt>
      <trkpt lat="42.87477" lon="-0.18916">
        <ele>2314.4</ele>
        <time>2026-07-15T08:52:41Z</time>
      </trkpt>
      <trkpt lat="42.87476" lon="-0.18917">
        <ele>2314.4</ele>
        <time>2026-07-15T08:52:42Z</time>
      </trkpt>
      <trkpt lat="42.87476" lon="-0.18918">
        <ele>2314.4</ele>
        <time>2026-07-15T08:52:43Z</time>
      </trkpt>
      <trkpt lat="42.87475" lon="-0.18918">
        <ele>2314.4</ele>
        <time>2026-07-15T08:52:44Z</time>
      </trkpt>
      <trkpt lat="42.87475" lon="-0.18918">
        <ele>2314.4</ele>
        <time>2026-07-15T08:52:45Z</time>
      </trkpt>
      <trkpt lat="42.87474" lon="-0.18918">
        <ele>2315.4</ele>
        <time>2026-07-15T08:52:46Z</time>
      </trkpt>
      <trkpt lat="42.87473" lon="-0.18919">
        <ele>2315.4</ele>
        <time>2026-07-15T08:52:47Z</time>
      </trkpt>
      <trkpt lat="42.87472" lon="-0.1892">
        <ele>2315.4</ele>
        <time>2026-07-15T08:52:48Z</time>
      </trkpt>
      <trkpt lat="42.87471" lon="-0.1892">
        <ele>2315.4</ele>
        <time>2026-07-15T08:52:49Z</time>
      </trkpt>
      <trkpt lat="42.8747" lon="-0.1892">
        <ele>2314.4</ele>
        <time>2026-07-15T08:52:50Z</time>
      </trkpt>
      <trkpt lat="42.87469" lon="-0.1892">
        <ele>2314.4</ele>
        <time>2026-07-15T08:52:51Z</time>
      </trkpt>
      <trkpt lat="42.87468" lon="-0.1892">
        <ele>2314.4</ele>
        <time>2026-07-15T08:52:52Z</time>
      </trkpt>
      <trkpt lat="42.87467" lon="-0.18921">
        <ele>2314.4</ele>
        <time>2026-07-15T08:52:53Z</time>
      </trkpt>
      <trkpt lat="42.87466" lon="-0.18922">
        <ele>2314.4</ele>
        <time>2026-07-15T08:52:54Z</time>
      </trkpt>
      <trkpt lat="42.87465" lon="-0.18923">
        <ele>2315.4</ele>
        <time>2026-07-15T08:52:55Z</time>
      </trkpt>
      <trkpt lat="42.87464" lon="-0.18923">
        <ele>2315.4</ele>
        <time>2026-07-15T08:52:56Z</time>
      </trkpt>
      <trkpt lat="42.87464" lon="-0.18924">
        <ele>2315.4</ele>
        <time>2026-07-15T08:52:57Z</time>
      </trkpt>
      <trkpt lat="42.87463" lon="-0.18925">
        <ele>2315.4</ele>
        <time>2026-07-15T08:52:58Z</time>
      </trkpt>
      <trkpt lat="42.87463" lon="-0.18925">
        <ele>2314.4</ele>
        <time>2026-07-15T08:52:59Z</time>
      </trkpt>
      <trkpt lat="42.87462" lon="-0.18926">
        <ele>2314.4</ele>
        <time>2026-07-15T08:53:00Z</time>
      </trkpt>
      <trkpt lat="42.87461" lon="-0.18927">
        <ele>2313.4</ele>
        <time>2026-07-15T08:53:01Z</time>
      </trkpt>
      <trkpt lat="42.87461" lon="-0.18928">
        <ele>2312.4</ele>
        <time>2026-07-15T08:53:02Z</time>
      </trkpt>
      <trkpt lat="42.8746" lon="-0.18928">
        <ele>2312.4</ele>
        <time>2026-07-15T08:53:03Z</time>
      </trkpt>
      <trkpt lat="42.8746" lon="-0.18929">
        <ele>2312.4</ele>
        <time>2026-07-15T08:53:04Z</time>
      </trkpt>
      <trkpt lat="42.87459" lon="-0.18929">
        <ele>2312.4</ele>
        <time>2026-07-15T08:53:05Z</time>
      </trkpt>
      <trkpt lat="42.87459" lon="-0.1893">
        <ele>2312.4</ele>
        <time>2026-07-15T08:53:06Z</time>
      </trkpt>
      <trkpt lat="42.87459" lon="-0.18931">
        <ele>2313.4</ele>
        <time>2026-07-15T08:53:07Z</time>
      </trkpt>
      <trkpt lat="42.87459" lon="-0.18931">
        <ele>2313.4</ele>
        <time>2026-07-15T08:53:08Z</time>
      </trkpt>
      <trkpt lat="42.87458" lon="-0.18932">
        <ele>2312.4</ele>
        <time>2026-07-15T08:53:09Z</time>
      </trkpt>
      <trkpt lat="42.87458" lon="-0.18933">
        <ele>2311.4</ele>
        <time>2026-07-15T08:53:10Z</time>
      </trkpt>
      <trkpt lat="42.87457" lon="-0.18934">
        <ele>2311.4</ele>
        <time>2026-07-15T08:53:11Z</time>
      </trkpt>
      <trkpt lat="42.87456" lon="-0.18934">
        <ele>2311.4</ele>
        <time>2026-07-15T08:53:12Z</time>
      </trkpt>
      <trkpt lat="42.87455" lon="-0.18935">
        <ele>2311.4</ele>
        <time>2026-07-15T08:53:13Z</time>
      </trkpt>
      <trkpt lat="42.87454" lon="-0.18936">
        <ele>2311.4</ele>
        <time>2026-07-15T08:53:14Z</time>
      </trkpt>
      <trkpt lat="42.87454" lon="-0.18936">
        <ele>2311.4</ele>
        <time>2026-07-15T08:53:14Z</time>
      </trkpt>
      <trkpt lat="42.87454" lon="-0.18937">
        <ele>2311.4</ele>
        <time>2026-07-15T08:53:15Z</time>
      </trkpt>
      <trkpt lat="42.87454" lon="-0.18938">
        <ele>2310.4</ele>
        <time>2026-07-15T08:53:16Z</time>
      </trkpt>
      <trkpt lat="42.87454" lon="-0.18938">
        <ele>2310.4</ele>
        <time>2026-07-15T08:53:16Z</time>
      </trkpt>
      <trkpt lat="42.87454" lon="-0.18939">
        <ele>2310.4</ele>
        <time>2026-07-15T08:53:17Z</time>
      </trkpt>
      <trkpt lat="42.87454" lon="-0.18939">
        <ele>2310.4</ele>
        <time>2026-07-15T08:53:17Z</time>
      </trkpt>
      <trkpt lat="42.87454" lon="-0.1894">
        <ele>2311.4</ele>
        <time>2026-07-15T08:53:18Z</time>
      </trkpt>
      <trkpt lat="42.87454" lon="-0.18941">
        <ele>2311.4</ele>
        <time>2026-07-15T08:53:19Z</time>
      </trkpt>
      <trkpt lat="42.87453" lon="-0.18942">
        <ele>2311.4</ele>
        <time>2026-07-15T08:53:20Z</time>
      </trkpt>
      <trkpt lat="42.87453" lon="-0.18943">
        <ele>2311.4</ele>
        <time>2026-07-15T08:53:20Z</time>
      </trkpt>
      <trkpt lat="42.87453" lon="-0.18943">
        <ele>2311.4</ele>
        <time>2026-07-15T08:53:21Z</time>
      </trkpt>
      <trkpt lat="42.87453" lon="-0.18944">
        <ele>2311.4</ele>
        <time>2026-07-15T08:53:22Z</time>
      </trkpt>
      <trkpt lat="42.87453" lon="-0.18945">
        <ele>2311.4</ele>
        <time>2026-07-15T08:53:23Z</time>
      </trkpt>
      <trkpt lat="42.87452" lon="-0.18946">
        <ele>2311.4</ele>
        <time>2026-07-15T08:53:23Z</time>
      </trkpt>
      <trkpt lat="42.87452" lon="-0.18946">
        <ele>2311.4</ele>
        <time>2026-07-15T08:53:24Z</time>
      </trkpt>
      <trkpt lat="42.87452" lon="-0.18947">
        <ele>2311.4</ele>
        <time>2026-07-15T08:53:25Z</time>
      </trkpt>
      <trkpt lat="42.87451" lon="-0.18947">
        <ele>2312.4</ele>
        <time>2026-07-15T08:53:25Z</time>
      </trkpt>
      <trkpt lat="42.8745" lon="-0.18948">
        <ele>2312.4</ele>
        <time>2026-07-15T08:53:26Z</time>
      </trkpt>
      <trkpt lat="42.8745" lon="-0.18948">
        <ele>2312.4</ele>
        <time>2026-07-15T08:53:27Z</time>
      </trkpt>
      <trkpt lat="42.87449" lon="-0.18948">
        <ele>2312.4</ele>
        <time>2026-07-15T08:53:27Z</time>
      </trkpt>
      <trkpt lat="42.87449" lon="-0.18948">
        <ele>2312.4</ele>
        <time>2026-07-15T08:53:28Z</time>
      </trkpt>
      <trkpt lat="42.87448" lon="-0.18948">
        <ele>2313.4</ele>
        <time>2026-07-15T08:53:28Z</time>
      </trkpt>
      <trkpt lat="42.87448" lon="-0.18949">
        <ele>2312.4</ele>
        <time>2026-07-15T08:53:29Z</time>
      </trkpt>
      <trkpt lat="42.87447" lon="-0.18949">
        <ele>2312.4</ele>
        <time>2026-07-15T08:53:30Z</time>
      </trkpt>
      <trkpt lat="42.87447" lon="-0.1895">
        <ele>2313.4</ele>
        <time>2026-07-15T08:53:31Z</time>
      </trkpt>
      <trkpt lat="42.87448" lon="-0.18951">
        <ele>2313.4</ele>
        <time>2026-07-15T08:53:32Z</time>
      </trkpt>
      <trkpt lat="42.87448" lon="-0.18951">
        <ele>2313.4</ele>
        <time>2026-07-15T08:53:32Z</time>
      </trkpt>
      <trkpt lat="42.87448" lon="-0.18952">
        <ele>2313.4</ele>
        <time>2026-07-15T08:53:33Z</time>
      </trkpt>
      <trkpt lat="42.87448" lon="-0.18953">
        <ele>2313.4</ele>
        <time>2026-07-15T08:53:34Z</time>
      </trkpt>
      <trkpt lat="42.87448" lon="-0.18953">
        <ele>2313.4</ele>
        <time>2026-07-15T08:53:35Z</time>
      </trkpt>
      <trkpt lat="42.87448" lon="-0.18954">
        <ele>2314.4</ele>
        <time>2026-07-15T08:53:35Z</time>
      </trkpt>
      <trkpt lat="42.87448" lon="-0.18954">
        <ele>2314.4</ele>
        <time>2026-07-15T08:53:36Z</time>
      </trkpt>
      <trkpt lat="42.87448" lon="-0.18955">
        <ele>2314.4</ele>
        <time>2026-07-15T08:53:37Z</time>
      </trkpt>
      <trkpt lat="42.87448" lon="-0.18956">
        <ele>2313.4</ele>
        <time>2026-07-15T08:53:37Z</time>
      </trkpt>
      <trkpt lat="42.87448" lon="-0.18956">
        <ele>2313.4</ele>
        <time>2026-07-15T08:53:38Z</time>
      </trkpt>
      <trkpt lat="42.87448" lon="-0.18957">
        <ele>2314.4</ele>
        <time>2026-07-15T08:53:39Z</time>
      </trkpt>
      <trkpt lat="42.87447" lon="-0.18957">
        <ele>2314.4</ele>
        <time>2026-07-15T08:53:39Z</time>
      </trkpt>
      <trkpt lat="42.87447" lon="-0.18958">
        <ele>2314.4</ele>
        <time>2026-07-15T08:53:40Z</time>
      </trkpt>
      <trkpt lat="42.87447" lon="-0.18959">
        <ele>2313.4</ele>
        <time>2026-07-15T08:53:40Z</time>
      </trkpt>
      <trkpt lat="42.87447" lon="-0.1896">
        <ele>2313.4</ele>
        <time>2026-07-15T08:53:41Z</time>
      </trkpt>
      <trkpt lat="42.87446" lon="-0.1896">
        <ele>2313.4</ele>
        <time>2026-07-15T08:53:42Z</time>
      </trkpt>
      <trkpt lat="42.87446" lon="-0.18961">
        <ele>2313.4</ele>
        <time>2026-07-15T08:53:43Z</time>
      </trkpt>
      <trkpt lat="42.87446" lon="-0.18961">
        <ele>2313.4</ele>
        <time>2026-07-15T08:53:43Z</time>
      </trkpt>
      <trkpt lat="42.87446" lon="-0.18962">
        <ele>2313.4</ele>
        <time>2026-07-15T08:53:44Z</time>
      </trkpt>
      <trkpt lat="42.87445" lon="-0.18962">
        <ele>2313.4</ele>
        <time>2026-07-15T08:53:45Z</time>
      </trkpt>
      <trkpt lat="42.87445" lon="-0.18962">
        <ele>2314.4</ele>
        <time>2026-07-15T08:53:45Z</time>
      </trkpt>
      <trkpt lat="42.87445" lon="-0.18963">
        <ele>2314.4</ele>
        <time>2026-07-15T08:53:46Z</time>
      </trkpt>
      <trkpt lat="42.87444" lon="-0.18963">
        <ele>2314.4</ele>
        <time>2026-07-15T08:53:46Z</time>
      </trkpt>
      <trkpt lat="42.87444" lon="-0.18964">
        <ele>2314.4</ele>
        <time>2026-07-15T08:53:47Z</time>
      </trkpt>
      <trkpt lat="42.87443" lon="-0.18964">
        <ele>2314.4</ele>
        <time>2026-07-15T08:53:48Z</time>
      </trkpt>
      <trkpt lat="42.87443" lon="-0.18965">
        <ele>2315.4</ele>
        <time>2026-07-15T08:53:49Z</time>
      </trkpt>
      <trkpt lat="42.87443" lon="-0.18965">
        <ele>2316.4</ele>
        <time>2026-07-15T08:53:49Z</time>
      </trkpt>
      <trkpt lat="42.87442" lon="-0.18965">
        <ele>2316.4</ele>
        <time>2026-07-15T08:53:50Z</time>
      </trkpt>
      <trkpt lat="42.87442" lon="-0.18966">
        <ele>2316.4</ele>
        <time>2026-07-15T08:53:51Z</time>
      </trkpt>
      <trkpt lat="42.87441" lon="-0.18966">
        <ele>2317.4</ele>
        <time>2026-07-15T08:53:52Z</time>
      </trkpt>
      <trkpt lat="42.87441" lon="-0.18967">
        <ele>2317.4</ele>
        <time>2026-07-15T08:53:53Z</time>
      </trkpt>
      <trkpt lat="42.87441" lon="-0.18967">
        <ele>2317.4</ele>
        <time>2026-07-15T08:53:53Z</time>
      </trkpt>
      <trkpt lat="42.87441" lon="-0.18967">
        <ele>2317.4</ele>
        <time>2026-07-15T08:53:54Z</time>
      </trkpt>
      <trkpt lat="42.87441" lon="-0.18968">
        <ele>2317.4</ele>
        <time>2026-07-15T08:53:54Z</time>
      </trkpt>
      <trkpt lat="42.8744" lon="-0.18968">
        <ele>2316.4</ele>
        <time>2026-07-15T08:53:55Z</time>
      </trkpt>
      <trkpt lat="42.8744" lon="-0.18969">
        <ele>2317.4</ele>
        <time>2026-07-15T08:53:56Z</time>
      </trkpt>
      <trkpt lat="42.8744" lon="-0.18969">
        <ele>2317.4</ele>
        <time>2026-07-15T08:53:57Z</time>
      </trkpt>
      <trkpt lat="42.87439" lon="-0.1897">
        <ele>2317.4</ele>
        <time>2026-07-15T08:53:58Z</time>
      </trkpt>
      <trkpt lat="42.87439" lon="-0.18971">
        <ele>2317.4</ele>
        <time>2026-07-15T08:53:58Z</time>
      </trkpt>
      <trkpt lat="42.87439" lon="-0.18971">
        <ele>2317.4</ele>
        <time>2026-07-15T08:53:59Z</time>
      </trkpt>
      <trkpt lat="42.87438" lon="-0.18972">
        <ele>2316.4</ele>
        <time>2026-07-15T08:53:59Z</time>
      </trkpt>
      <trkpt lat="42.87438" lon="-0.18973">
        <ele>2316.4</ele>
        <time>2026-07-15T08:54:00Z</time>
      </trkpt>
      <trkpt lat="42.87438" lon="-0.18974">
        <ele>2316.4</ele>
        <time>2026-07-15T08:54:01Z</time>
      </trkpt>
      <trkpt lat="42.87437" lon="-0.18974">
        <ele>2316.4</ele>
        <time>2026-07-15T08:54:02Z</time>
      </trkpt>
      <trkpt lat="42.87437" lon="-0.18975">
        <ele>2316.4</ele>
        <time>2026-07-15T08:54:03Z</time>
      </trkpt>
      <trkpt lat="42.87436" lon="-0.18976">
        <ele>2316.4</ele>
        <time>2026-07-15T08:54:04Z</time>
      </trkpt>
      <trkpt lat="42.87436" lon="-0.18976">
        <ele>2317.4</ele>
        <time>2026-07-15T08:54:05Z</time>
      </trkpt>
      <trkpt lat="42.87436" lon="-0.18976">
        <ele>2318.4</ele>
        <time>2026-07-15T08:54:05Z</time>
      </trkpt>
      <trkpt lat="42.87435" lon="-0.18976">
        <ele>2318.4</ele>
        <time>2026-07-15T08:54:06Z</time>
      </trkpt>
      <trkpt lat="42.87435" lon="-0.18977">
        <ele>2318.4</ele>
        <time>2026-07-15T08:54:07Z</time>
      </trkpt>
      <trkpt lat="42.87435" lon="-0.18978">
        <ele>2318.4</ele>
        <time>2026-07-15T08:54:07Z</time>
      </trkpt>
      <trkpt lat="42.87435" lon="-0.18979">
        <ele>2318.4</ele>
        <time>2026-07-15T08:54:08Z</time>
      </trkpt>
      <trkpt lat="42.87435" lon="-0.1898">
        <ele>2319.4</ele>
        <time>2026-07-15T08:54:08Z</time>
      </trkpt>
      <trkpt lat="42.87435" lon="-0.18981">
        <ele>2319.4</ele>
        <time>2026-07-15T08:54:09Z</time>
      </trkpt>
      <trkpt lat="42.87435" lon="-0.18982">
        <ele>2319.4</ele>
        <time>2026-07-15T08:54:09Z</time>
      </trkpt>
      <trkpt lat="42.87435" lon="-0.18983">
        <ele>2319.4</ele>
        <time>2026-07-15T08:54:10Z</time>
      </trkpt>
      <trkpt lat="42.87435" lon="-0.18984">
        <ele>2319.4</ele>
        <time>2026-07-15T08:54:11Z</time>
      </trkpt>
      <trkpt lat="42.87436" lon="-0.18984">
        <ele>2319.4</ele>
        <time>2026-07-15T08:54:12Z</time>
      </trkpt>
      <trkpt lat="42.87436" lon="-0.18984">
        <ele>2319.4</ele>
        <time>2026-07-15T08:54:12Z</time>
      </trkpt>
      <trkpt lat="42.87436" lon="-0.18985">
        <ele>2319.4</ele>
        <time>2026-07-15T08:54:13Z</time>
      </trkpt>
      <trkpt lat="42.87437" lon="-0.18986">
        <ele>2318.4</ele>
        <time>2026-07-15T08:54:14Z</time>
      </trkpt>
      <trkpt lat="42.87437" lon="-0.18986">
        <ele>2318.4</ele>
        <time>2026-07-15T08:54:15Z</time>
      </trkpt>
      <trkpt lat="42.87437" lon="-0.18986">
        <ele>2318.4</ele>
        <time>2026-07-15T08:54:15Z</time>
      </trkpt>
      <trkpt lat="42.87437" lon="-0.18987">
        <ele>2318.4</ele>
        <time>2026-07-15T08:54:16Z</time>
      </trkpt>
      <trkpt lat="42.87437" lon="-0.18988">
        <ele>2319.4</ele>
        <time>2026-07-15T08:54:17Z</time>
      </trkpt>
      <trkpt lat="42.87436" lon="-0.18989">
        <ele>2318.4</ele>
        <time>2026-07-15T08:54:18Z</time>
      </trkpt>
      <trkpt lat="42.87436" lon="-0.18989">
        <ele>2319.4</ele>
        <time>2026-07-15T08:54:18Z</time>
      </trkpt>
      <trkpt lat="42.87436" lon="-0.1899">
        <ele>2319.4</ele>
        <time>2026-07-15T08:54:19Z</time>
      </trkpt>
      <trkpt lat="42.87436" lon="-0.1899">
        <ele>2319.4</ele>
        <time>2026-07-15T08:54:20Z</time>
      </trkpt>
      <trkpt lat="42.87436" lon="-0.18991">
        <ele>2319.4</ele>
        <time>2026-07-15T08:54:21Z</time>
      </trkpt>
      <trkpt lat="42.87435" lon="-0.18991">
        <ele>2319.4</ele>
        <time>2026-07-15T08:54:22Z</time>
      </trkpt>
      <trkpt lat="42.87435" lon="-0.18991">
        <ele>2319.4</ele>
        <time>2026-07-15T08:54:22Z</time>
      </trkpt>
      <trkpt lat="42.87435" lon="-0.18992">
        <ele>2319.4</ele>
        <time>2026-07-15T08:54:23Z</time>
      </trkpt>
      <trkpt lat="42.87435" lon="-0.18992">
        <ele>2319.4</ele>
        <time>2026-07-15T08:54:24Z</time>
      </trkpt>
      <trkpt lat="42.87434" lon="-0.18993">
        <ele>2319.4</ele>
        <time>2026-07-15T08:54:25Z</time>
      </trkpt>
      <trkpt lat="42.87434" lon="-0.18993">
        <ele>2319.4</ele>
        <time>2026-07-15T08:54:25Z</time>
      </trkpt>
      <trkpt lat="42.87434" lon="-0.18994">
        <ele>2319.4</ele>
        <time>2026-07-15T08:54:26Z</time>
      </trkpt>
      <trkpt lat="42.87434" lon="-0.18995">
        <ele>2319.4</ele>
        <time>2026-07-15T08:54:27Z</time>
      </trkpt>
      <trkpt lat="42.87434" lon="-0.18995">
        <ele>2319.4</ele>
        <time>2026-07-15T08:54:27Z</time>
      </trkpt>
      <trkpt lat="42.87434" lon="-0.18995">
        <ele>2319.4</ele>
        <time>2026-07-15T08:54:28Z</time>
      </trkpt>
      <trkpt lat="42.87434" lon="-0.18994">
        <ele>2319.4</ele>
        <time>2026-07-15T08:54:29Z</time>
      </trkpt>
      <trkpt lat="42.87434" lon="-0.18994">
        <ele>2319.4</ele>
        <time>2026-07-15T08:54:30Z</time>
      </trkpt>
      <trkpt lat="42.87434" lon="-0.18994">
        <ele>2319.4</ele>
        <time>2026-07-15T08:54:31Z</time>
      </trkpt>
      <trkpt lat="42.87434" lon="-0.18994">
        <ele>2319.4</ele>
        <time>2026-07-15T08:54:32Z</time>
      </trkpt>
      <trkpt lat="42.87434" lon="-0.18994">
        <ele>2319.4</ele>
        <time>2026-07-15T08:54:33Z</time>
      </trkpt>
      <trkpt lat="42.87434" lon="-0.18994">
        <ele>2319.4</ele>
        <time>2026-07-15T08:54:34Z</time>
      </trkpt>
      <trkpt lat="42.87434" lon="-0.18994">
        <ele>2319.4</ele>
        <time>2026-07-15T08:54:35Z</time>
      </trkpt>
      <trkpt lat="42.87434" lon="-0.18994">
        <ele>2319.4</ele>
        <time>2026-07-15T08:54:36Z</time>
      </trkpt>
      <trkpt lat="42.87434" lon="-0.18994">
        <ele>2319.4</ele>
        <time>2026-07-15T08:54:37Z</time>
      </trkpt>
      <trkpt lat="42.87434" lon="-0.18994">
        <ele>2320.4</ele>
        <time>2026-07-15T08:54:38Z</time>
      </trkpt>
      <trkpt lat="42.87434" lon="-0.18994">
        <ele>2320.4</ele>
        <time>2026-07-15T08:54:39Z</time>
      </trkpt>
      <trkpt lat="42.87434" lon="-0.18994">
        <ele>2320.4</ele>
        <time>2026-07-15T08:54:40Z</time>
      </trkpt>
      <trkpt lat="42.87434" lon="-0.18994">
        <ele>2320.4</ele>
        <time>2026-07-15T08:54:41Z</time>
      </trkpt>
      <trkpt lat="42.87434" lon="-0.18994">
        <ele>2320.4</ele>
        <time>2026-07-15T08:54:42Z</time>
      </trkpt>
      <trkpt lat="42.87434" lon="-0.18994">
        <ele>2320.4</ele>
        <time>2026-07-15T08:54:43Z</time>
      </trkpt>
      <trkpt lat="42.87434" lon="-0.18994">
        <ele>2320.4</ele>
        <time>2026-07-15T08:54:44Z</time>
      </trkpt>
      <trkpt lat="42.87434" lon="-0.18994">
        <ele>2320.4</ele>
        <time>2026-07-15T08:54:45Z</time>
      </trkpt>
      <trkpt lat="42.87434" lon="-0.18994">
        <ele>2320.4</ele>
        <time>2026-07-15T08:54:46Z</time>
      </trkpt>
      <trkpt lat="42.87434" lon="-0.18994">
        <ele>2320.4</ele>
        <time>2026-07-15T08:54:47Z</time>
      </trkpt>
      <trkpt lat="42.87434" lon="-0.18994">
        <ele>2319.4</ele>
        <time>2026-07-15T08:54:47Z</time>
      </trkpt>
      <trkpt lat="42.87434" lon="-0.18994">
        <ele>2319.4</ele>
        <time>2026-07-15T08:54:48Z</time>
      </trkpt>
      <trkpt lat="42.87434" lon="-0.18995">
        <ele>2319.4</ele>
        <time>2026-07-15T08:54:49Z</time>
      </trkpt>
      <trkpt lat="42.87434" lon="-0.18995">
        <ele>2319.4</ele>
        <time>2026-07-15T08:54:49Z</time>
      </trkpt>
      <trkpt lat="42.87434" lon="-0.18995">
        <ele>2320.4</ele>
        <time>2026-07-15T08:54:50Z</time>
      </trkpt>
      <trkpt lat="42.87434" lon="-0.18996">
        <ele>2320.4</ele>
        <time>2026-07-15T08:54:50Z</time>
      </trkpt>
      <trkpt lat="42.87433" lon="-0.18996">
        <ele>2320.4</ele>
        <time>2026-07-15T08:54:51Z</time>
      </trkpt>
      <trkpt lat="42.87432" lon="-0.18999">
        <ele>2320.4</ele>
        <time>2026-07-15T08:54:52Z</time>
      </trkpt>
      <trkpt lat="42.87431" lon="-0.19001">
        <ele>2320.4</ele>
        <time>2026-07-15T08:54:52Z</time>
      </trkpt>
      <trkpt lat="42.87431" lon="-0.19002">
        <ele>2320.4</ele>
        <time>2026-07-15T08:54:53Z</time>
      </trkpt>
      <trkpt lat="42.8743" lon="-0.19003">
        <ele>2320.4</ele>
        <time>2026-07-15T08:54:53Z</time>
      </trkpt>
      <trkpt lat="42.8743" lon="-0.19004">
        <ele>2320.4</ele>
        <time>2026-07-15T08:54:54Z</time>
      </trkpt>
      <trkpt lat="42.8743" lon="-0.19005">
        <ele>2320.4</ele>
        <time>2026-07-15T08:54:55Z</time>
      </trkpt>
      <trkpt lat="42.8743" lon="-0.19006">
        <ele>2320.4</ele>
        <time>2026-07-15T08:54:56Z</time>
      </trkpt>
      <trkpt lat="42.8743" lon="-0.19007">
        <ele>2319.4</ele>
        <time>2026-07-15T08:54:56Z</time>
      </trkpt>
      <trkpt lat="42.8743" lon="-0.19008">
        <ele>2319.4</ele>
        <time>2026-07-15T08:54:57Z</time>
      </trkpt>
      <trkpt lat="42.87429" lon="-0.19009">
        <ele>2320.4</ele>
        <time>2026-07-15T08:54:58Z</time>
      </trkpt>
      <trkpt lat="42.87429" lon="-0.1901">
        <ele>2320.4</ele>
        <time>2026-07-15T08:54:59Z</time>
      </trkpt>
      <trkpt lat="42.87429" lon="-0.19011">
        <ele>2320.4</ele>
        <time>2026-07-15T08:54:59Z</time>
      </trkpt>
      <trkpt lat="42.87429" lon="-0.19012">
        <ele>2320.4</ele>
        <time>2026-07-15T08:55:00Z</time>
      </trkpt>
      <trkpt lat="42.87428" lon="-0.19013">
        <ele>2320.4</ele>
        <time>2026-07-15T08:55:01Z</time>
      </trkpt>
      <trkpt lat="42.87427" lon="-0.19013">
        <ele>2320.4</ele>
        <time>2026-07-15T08:55:02Z</time>
      </trkpt>
      <trkpt lat="42.87427" lon="-0.19013">
        <ele>2320.4</ele>
        <time>2026-07-15T08:55:02Z</time>
      </trkpt>
      <trkpt lat="42.87427" lon="-0.19014">
        <ele>2320.4</ele>
        <time>2026-07-15T08:55:03Z</time>
      </trkpt>
      <trkpt lat="42.87426" lon="-0.19014">
        <ele>2320.4</ele>
        <time>2026-07-15T08:55:04Z</time>
      </trkpt>
      <trkpt lat="42.87426" lon="-0.19015">
        <ele>2321.4</ele>
        <time>2026-07-15T08:55:04Z</time>
      </trkpt>
      <trkpt lat="42.87425" lon="-0.19016">
        <ele>2321.4</ele>
        <time>2026-07-15T08:55:05Z</time>
      </trkpt>
      <trkpt lat="42.87425" lon="-0.19016">
        <ele>2321.4</ele>
        <time>2026-07-15T08:55:06Z</time>
      </trkpt>
      <trkpt lat="42.87424" lon="-0.19017">
        <ele>2321.4</ele>
        <time>2026-07-15T08:55:06Z</time>
      </trkpt>
      <trkpt lat="42.87424" lon="-0.19017">
        <ele>2321.4</ele>
        <time>2026-07-15T08:55:07Z</time>
      </trkpt>
      <trkpt lat="42.87424" lon="-0.19018">
        <ele>2321.4</ele>
        <time>2026-07-15T08:55:08Z</time>
      </trkpt>
      <trkpt lat="42.87424" lon="-0.19019">
        <ele>2321.4</ele>
        <time>2026-07-15T08:55:09Z</time>
      </trkpt>
      <trkpt lat="42.87424" lon="-0.19019">
        <ele>2322.4</ele>
        <time>2026-07-15T08:55:10Z</time>
      </trkpt>
      <trkpt lat="42.87424" lon="-0.1902">
        <ele>2322.4</ele>
        <time>2026-07-15T08:55:10Z</time>
      </trkpt>
      <trkpt lat="42.87424" lon="-0.1902">
        <ele>2321.4</ele>
        <time>2026-07-15T08:55:11Z</time>
      </trkpt>
      <trkpt lat="42.87423" lon="-0.19021">
        <ele>2320.4</ele>
        <time>2026-07-15T08:55:12Z</time>
      </trkpt>
      <trkpt lat="42.87423" lon="-0.19021">
        <ele>2320.4</ele>
        <time>2026-07-15T08:55:13Z</time>
      </trkpt>
      <trkpt lat="42.87422" lon="-0.19022">
        <ele>2319.4</ele>
        <time>2026-07-15T08:55:14Z</time>
      </trkpt>
      <trkpt lat="42.87422" lon="-0.19022">
        <ele>2320.4</ele>
        <time>2026-07-15T08:55:15Z</time>
      </trkpt>
      <trkpt lat="42.87422" lon="-0.19022">
        <ele>2321.4</ele>
        <time>2026-07-15T08:55:16Z</time>
      </trkpt>
      <trkpt lat="42.87422" lon="-0.19023">
        <ele>2323.4</ele>
        <time>2026-07-15T08:55:17Z</time>
      </trkpt>
      <trkpt lat="42.87422" lon="-0.19023">
        <ele>2322.4</ele>
        <time>2026-07-15T08:55:18Z</time>
      </trkpt>
      <trkpt lat="42.87422" lon="-0.19023">
        <ele>2322.4</ele>
        <time>2026-07-15T08:55:19Z</time>
      </trkpt>
      <trkpt lat="42.87422" lon="-0.19023">
        <ele>2322.4</ele>
        <time>2026-07-15T08:55:20Z</time>
      </trkpt>
      <trkpt lat="42.87422" lon="-0.19023">
        <ele>2323.4</ele>
        <time>2026-07-15T08:55:21Z</time>
      </trkpt>
      <trkpt lat="42.87423" lon="-0.19023">
        <ele>2323.4</ele>
        <time>2026-07-15T08:55:22Z</time>
      </trkpt>
      <trkpt lat="42.87423" lon="-0.19022">
        <ele>2323.4</ele>
        <time>2026-07-15T08:55:23Z</time>
      </trkpt>
      <trkpt lat="42.87423" lon="-0.19022">
        <ele>2323.4</ele>
        <time>2026-07-15T08:55:24Z</time>
      </trkpt>
      <trkpt lat="42.87423" lon="-0.19022">
        <ele>2323.4</ele>
        <time>2026-07-15T08:55:25Z</time>
      </trkpt>
      <trkpt lat="42.87423" lon="-0.19022">
        <ele>2323.4</ele>
        <time>2026-07-15T08:55:26Z</time>
      </trkpt>
      <trkpt lat="42.87422" lon="-0.19024">
        <ele>2323.4</ele>
        <time>2026-07-15T08:55:27Z</time>
      </trkpt>
      <trkpt lat="42.87422" lon="-0.19025">
        <ele>2323.4</ele>
        <time>2026-07-15T08:55:28Z</time>
      </trkpt>
      <trkpt lat="42.87422" lon="-0.19025">
        <ele>2323.4</ele>
        <time>2026-07-15T08:55:29Z</time>
      </trkpt>
      <trkpt lat="42.87422" lon="-0.19026">
        <ele>2323.4</ele>
        <time>2026-07-15T08:55:30Z</time>
      </trkpt>
      <trkpt lat="42.87422" lon="-0.19026">
        <ele>2323.4</ele>
        <time>2026-07-15T08:55:31Z</time>
      </trkpt>
      <trkpt lat="42.87422" lon="-0.19026">
        <ele>2322.4</ele>
        <time>2026-07-15T08:55:32Z</time>
      </trkpt>
      <trkpt lat="42.87422" lon="-0.19027">
        <ele>2322.4</ele>
        <time>2026-07-15T08:55:33Z</time>
      </trkpt>
      <trkpt lat="42.87422" lon="-0.19027">
        <ele>2322.4</ele>
        <time>2026-07-15T08:55:34Z</time>
      </trkpt>
      <trkpt lat="42.87421" lon="-0.19029">
        <ele>2322.4</ele>
        <time>2026-07-15T08:55:35Z</time>
      </trkpt>
      <trkpt lat="42.87422" lon="-0.1903">
        <ele>2322.4</ele>
        <time>2026-07-15T08:55:36Z</time>
      </trkpt>
      <trkpt lat="42.87422" lon="-0.1903">
        <ele>2322.4</ele>
        <time>2026-07-15T08:55:37Z</time>
      </trkpt>
      <trkpt lat="42.87422" lon="-0.19031">
        <ele>2321.4</ele>
        <time>2026-07-15T08:55:38Z</time>
      </trkpt>
      <trkpt lat="42.87423" lon="-0.19032">
        <ele>2322.4</ele>
        <time>2026-07-15T08:55:39Z</time>
      </trkpt>
      <trkpt lat="42.87423" lon="-0.19032">
        <ele>2323.4</ele>
        <time>2026-07-15T08:55:40Z</time>
      </trkpt>
      <trkpt lat="42.87422" lon="-0.19032">
        <ele>2322.4</ele>
        <time>2026-07-15T08:55:41Z</time>
      </trkpt>
      <trkpt lat="42.87422" lon="-0.19032">
        <ele>2321.4</ele>
        <time>2026-07-15T08:55:42Z</time>
      </trkpt>
      <trkpt lat="42.87422" lon="-0.19032">
        <ele>2321.4</ele>
        <time>2026-07-15T08:55:43Z</time>
      </trkpt>
      <trkpt lat="42.87422" lon="-0.19032">
        <ele>2321.4</ele>
        <time>2026-07-15T08:55:44Z</time>
      </trkpt>
      <trkpt lat="42.87421" lon="-0.19033">
        <ele>2322.4</ele>
        <time>2026-07-15T08:55:45Z</time>
      </trkpt>
      <trkpt lat="42.87421" lon="-0.19034">
        <ele>2322.4</ele>
        <time>2026-07-15T08:55:46Z</time>
      </trkpt>
      <trkpt lat="42.8742" lon="-0.19034">
        <ele>2322.4</ele>
        <time>2026-07-15T08:55:47Z</time>
      </trkpt>
      <trkpt lat="42.87421" lon="-0.19035">
        <ele>2322.4</ele>
        <time>2026-07-15T08:55:48Z</time>
      </trkpt>
      <trkpt lat="42.87421" lon="-0.19036">
        <ele>2321.4</ele>
        <time>2026-07-15T08:55:49Z</time>
      </trkpt>
      <trkpt lat="42.87421" lon="-0.19037">
        <ele>2321.4</ele>
        <time>2026-07-15T08:55:50Z</time>
      </trkpt>
      <trkpt lat="42.87421" lon="-0.19037">
        <ele>2321.4</ele>
        <time>2026-07-15T08:55:51Z</time>
      </trkpt>
      <trkpt lat="42.87421" lon="-0.19037">
        <ele>2321.4</ele>
        <time>2026-07-15T08:55:52Z</time>
      </trkpt>
      <trkpt lat="42.87421" lon="-0.19037">
        <ele>2321.4</ele>
        <time>2026-07-15T08:55:53Z</time>
      </trkpt>
      <trkpt lat="42.87421" lon="-0.19037">
        <ele>2321.4</ele>
        <time>2026-07-15T08:55:54Z</time>
      </trkpt>
      <trkpt lat="42.8742" lon="-0.19038">
        <ele>2320.4</ele>
        <time>2026-07-15T08:55:55Z</time>
      </trkpt>
      <trkpt lat="42.8742" lon="-0.19039">
        <ele>2319.4</ele>
        <time>2026-07-15T08:55:56Z</time>
      </trkpt>
      <trkpt lat="42.8742" lon="-0.1904">
        <ele>2318.4</ele>
        <time>2026-07-15T08:55:57Z</time>
      </trkpt>
      <trkpt lat="42.8742" lon="-0.1904">
        <ele>2318.4</ele>
        <time>2026-07-15T08:55:58Z</time>
      </trkpt>
      <trkpt lat="42.8742" lon="-0.19041">
        <ele>2317.4</ele>
        <time>2026-07-15T08:55:59Z</time>
      </trkpt>
      <trkpt lat="42.8742" lon="-0.19042">
        <ele>2317.4</ele>
        <time>2026-07-15T08:56:00Z</time>
      </trkpt>
      <trkpt lat="42.8742" lon="-0.19042">
        <ele>2317.4</ele>
        <time>2026-07-15T08:56:01Z</time>
      </trkpt>
      <trkpt lat="42.8742" lon="-0.19042">
        <ele>2317.4</ele>
        <time>2026-07-15T08:56:02Z</time>
      </trkpt>
      <trkpt lat="42.87418" lon="-0.19044">
        <ele>2315.4</ele>
        <time>2026-07-15T08:56:03Z</time>
      </trkpt>
      <trkpt lat="42.87418" lon="-0.19045">
        <ele>2315.4</ele>
        <time>2026-07-15T08:56:04Z</time>
      </trkpt>
      <trkpt lat="42.87417" lon="-0.19046">
        <ele>2314.4</ele>
        <time>2026-07-15T08:56:05Z</time>
      </trkpt>
      <trkpt lat="42.87417" lon="-0.19047">
        <ele>2315.4</ele>
        <time>2026-07-15T08:56:06Z</time>
      </trkpt>
      <trkpt lat="42.87416" lon="-0.19048">
        <ele>2315.4</ele>
        <time>2026-07-15T08:56:07Z</time>
      </trkpt>
      <trkpt lat="42.87416" lon="-0.19049">
        <ele>2315.4</ele>
        <time>2026-07-15T08:56:08Z</time>
      </trkpt>
      <trkpt lat="42.87416" lon="-0.1905">
        <ele>2316.4</ele>
        <time>2026-07-15T08:56:09Z</time>
      </trkpt>
      <trkpt lat="42.87415" lon="-0.19051">
        <ele>2315.4</ele>
        <time>2026-07-15T08:56:10Z</time>
      </trkpt>
      <trkpt lat="42.87415" lon="-0.19052">
        <ele>2315.4</ele>
        <time>2026-07-15T08:56:11Z</time>
      </trkpt>
      <trkpt lat="42.87416" lon="-0.19053">
        <ele>2315.4</ele>
        <time>2026-07-15T08:56:12Z</time>
      </trkpt>
      <trkpt lat="42.87416" lon="-0.19054">
        <ele>2315.4</ele>
        <time>2026-07-15T08:56:13Z</time>
      </trkpt>
      <trkpt lat="42.87416" lon="-0.19054">
        <ele>2315.4</ele>
        <time>2026-07-15T08:56:14Z</time>
      </trkpt>
      <trkpt lat="42.87416" lon="-0.19055">
        <ele>2316.4</ele>
        <time>2026-07-15T08:56:15Z</time>
      </trkpt>
      <trkpt lat="42.87416" lon="-0.19056">
        <ele>2317.4</ele>
        <time>2026-07-15T08:56:16Z</time>
      </trkpt>
      <trkpt lat="42.87415" lon="-0.19057">
        <ele>2316.4</ele>
        <time>2026-07-15T08:56:17Z</time>
      </trkpt>
      <trkpt lat="42.87415" lon="-0.19057">
        <ele>2316.4</ele>
        <time>2026-07-15T08:56:18Z</time>
      </trkpt>
      <trkpt lat="42.87415" lon="-0.19058">
        <ele>2316.4</ele>
        <time>2026-07-15T08:56:19Z</time>
      </trkpt>
      <trkpt lat="42.87415" lon="-0.19058">
        <ele>2316.4</ele>
        <time>2026-07-15T08:56:20Z</time>
      </trkpt>
      <trkpt lat="42.87415" lon="-0.19058">
        <ele>2315.4</ele>
        <time>2026-07-15T08:56:21Z</time>
      </trkpt>
      <trkpt lat="42.87415" lon="-0.19059">
        <ele>2315.4</ele>
        <time>2026-07-15T08:56:22Z</time>
      </trkpt>
      <trkpt lat="42.87415" lon="-0.1906">
        <ele>2315.4</ele>
        <time>2026-07-15T08:56:23Z</time>
      </trkpt>
      <trkpt lat="42.87414" lon="-0.19061">
        <ele>2315.4</ele>
        <time>2026-07-15T08:56:24Z</time>
      </trkpt>
      <trkpt lat="42.87413" lon="-0.1906">
        <ele>2315.4</ele>
        <time>2026-07-15T08:56:25Z</time>
      </trkpt>
      <trkpt lat="42.87412" lon="-0.1906">
        <ele>2316.4</ele>
        <time>2026-07-15T08:56:26Z</time>
      </trkpt>
      <trkpt lat="42.87412" lon="-0.1906">
        <ele>2316.4</ele>
        <time>2026-07-15T08:56:27Z</time>
      </trkpt>
      <trkpt lat="42.87411" lon="-0.1906">
        <ele>2316.4</ele>
        <time>2026-07-15T08:56:28Z</time>
      </trkpt>
      <trkpt lat="42.87411" lon="-0.1906">
        <ele>2316.4</ele>
        <time>2026-07-15T08:56:29Z</time>
      </trkpt>
      <trkpt lat="42.87411" lon="-0.1906">
        <ele>2316.4</ele>
        <time>2026-07-15T08:56:30Z</time>
      </trkpt>
      <trkpt lat="42.87412" lon="-0.19061">
        <ele>2316.4</ele>
        <time>2026-07-15T08:56:31Z</time>
      </trkpt>
      <trkpt lat="42.87412" lon="-0.19062">
        <ele>2316.4</ele>
        <time>2026-07-15T08:56:32Z</time>
      </trkpt>
      <trkpt lat="42.87412" lon="-0.19062">
        <ele>2317.4</ele>
        <time>2026-07-15T08:56:33Z</time>
      </trkpt>
      <trkpt lat="42.87411" lon="-0.19062">
        <ele>2317.4</ele>
        <time>2026-07-15T08:56:34Z</time>
      </trkpt>
      <trkpt lat="42.87411" lon="-0.19062">
        <ele>2317.4</ele>
        <time>2026-07-15T08:56:35Z</time>
      </trkpt>
      <trkpt lat="42.87411" lon="-0.19062">
        <ele>2317.4</ele>
        <time>2026-07-15T08:56:36Z</time>
      </trkpt>
      <trkpt lat="42.87411" lon="-0.19062">
        <ele>2317.4</ele>
        <time>2026-07-15T08:56:37Z</time>
      </trkpt>
      <trkpt lat="42.8741" lon="-0.19064">
        <ele>2317.4</ele>
        <time>2026-07-15T08:56:38Z</time>
      </trkpt>
      <trkpt lat="42.8741" lon="-0.19064">
        <ele>2317.4</ele>
        <time>2026-07-15T08:56:39Z</time>
      </trkpt>
      <trkpt lat="42.87411" lon="-0.19065">
        <ele>2317.4</ele>
        <time>2026-07-15T08:56:40Z</time>
      </trkpt>
      <trkpt lat="42.8741" lon="-0.19066">
        <ele>2317.4</ele>
        <time>2026-07-15T08:56:41Z</time>
      </trkpt>
      <trkpt lat="42.8741" lon="-0.19067">
        <ele>2317.4</ele>
        <time>2026-07-15T08:56:42Z</time>
      </trkpt>
      <trkpt lat="42.87409" lon="-0.19068">
        <ele>2316.4</ele>
        <time>2026-07-15T08:56:43Z</time>
      </trkpt>
      <trkpt lat="42.87409" lon="-0.19069">
        <ele>2317.4</ele>
        <time>2026-07-15T08:56:44Z</time>
      </trkpt>
      <trkpt lat="42.87409" lon="-0.19069">
        <ele>2317.4</ele>
        <time>2026-07-15T08:56:45Z</time>
      </trkpt>
      <trkpt lat="42.87408" lon="-0.1907">
        <ele>2317.4</ele>
        <time>2026-07-15T08:56:46Z</time>
      </trkpt>
      <trkpt lat="42.87408" lon="-0.1907">
        <ele>2317.4</ele>
        <time>2026-07-15T08:56:47Z</time>
      </trkpt>
      <trkpt lat="42.87409" lon="-0.1907">
        <ele>2317.4</ele>
        <time>2026-07-15T08:56:48Z</time>
      </trkpt>
      <trkpt lat="42.87409" lon="-0.1907">
        <ele>2317.4</ele>
        <time>2026-07-15T08:56:49Z</time>
      </trkpt>
      <trkpt lat="42.87409" lon="-0.19069">
        <ele>2318.4</ele>
        <time>2026-07-15T08:56:50Z</time>
      </trkpt>
      <trkpt lat="42.87409" lon="-0.19069">
        <ele>2318.4</ele>
        <time>2026-07-15T08:56:51Z</time>
      </trkpt>
      <trkpt lat="42.87409" lon="-0.19069">
        <ele>2318.4</ele>
        <time>2026-07-15T08:56:52Z</time>
      </trkpt>
      <trkpt lat="42.87408" lon="-0.19069">
        <ele>2317.4</ele>
        <time>2026-07-15T08:56:53Z</time>
      </trkpt>
      <trkpt lat="42.87408" lon="-0.19068">
        <ele>2317.4</ele>
        <time>2026-07-15T08:56:54Z</time>
      </trkpt>
      <trkpt lat="42.87407" lon="-0.19068">
        <ele>2317.4</ele>
        <time>2026-07-15T08:56:55Z</time>
      </trkpt>
      <trkpt lat="42.87407" lon="-0.19069">
        <ele>2317.4</ele>
        <time>2026-07-15T08:56:56Z</time>
      </trkpt>
      <trkpt lat="42.87407" lon="-0.19069">
        <ele>2317.4</ele>
        <time>2026-07-15T08:56:57Z</time>
      </trkpt>
      <trkpt lat="42.87406" lon="-0.19069">
        <ele>2317.4</ele>
        <time>2026-07-15T08:56:58Z</time>
      </trkpt>
      <trkpt lat="42.87405" lon="-0.19068">
        <ele>2317.4</ele>
        <time>2026-07-15T08:56:59Z</time>
      </trkpt>
      <trkpt lat="42.87405" lon="-0.19069">
        <ele>2316.4</ele>
        <time>2026-07-15T08:57:00Z</time>
      </trkpt>
      <trkpt lat="42.87405" lon="-0.19069">
        <ele>2316.4</ele>
        <time>2026-07-15T08:57:01Z</time>
      </trkpt>
      <trkpt lat="42.87405" lon="-0.19069">
        <ele>2316.4</ele>
        <time>2026-07-15T08:57:02Z</time>
      </trkpt>
      <trkpt lat="42.87405" lon="-0.19069">
        <ele>2316.4</ele>
        <time>2026-07-15T08:57:03Z</time>
      </trkpt>
      <trkpt lat="42.87404" lon="-0.1907">
        <ele>2316.4</ele>
        <time>2026-07-15T08:57:04Z</time>
      </trkpt>
      <trkpt lat="42.87404" lon="-0.1907">
        <ele>2316.4</ele>
        <time>2026-07-15T08:57:05Z</time>
      </trkpt>
      <trkpt lat="42.87404" lon="-0.19071">
        <ele>2316.4</ele>
        <time>2026-07-15T08:57:06Z</time>
      </trkpt>
      <trkpt lat="42.87404" lon="-0.19071">
        <ele>2317.4</ele>
        <time>2026-07-15T08:57:07Z</time>
      </trkpt>
      <trkpt lat="42.87404" lon="-0.19071">
        <ele>2317.4</ele>
        <time>2026-07-15T08:57:08Z</time>
      </trkpt>
      <trkpt lat="42.87404" lon="-0.19072">
        <ele>2317.4</ele>
        <time>2026-07-15T08:57:09Z</time>
      </trkpt>
      <trkpt lat="42.87404" lon="-0.19072">
        <ele>2317.4</ele>
        <time>2026-07-15T08:57:10Z</time>
      </trkpt>
      <trkpt lat="42.87404" lon="-0.19072">
        <ele>2318.4</ele>
        <time>2026-07-15T08:57:11Z</time>
      </trkpt>
      <trkpt lat="42.87404" lon="-0.19072">
        <ele>2318.4</ele>
        <time>2026-07-15T08:57:12Z</time>
      </trkpt>
      <trkpt lat="42.87404" lon="-0.19072">
        <ele>2318.4</ele>
        <time>2026-07-15T08:57:13Z</time>
      </trkpt>
      <trkpt lat="42.87404" lon="-0.19072">
        <ele>2318.4</ele>
        <time>2026-07-15T08:57:14Z</time>
      </trkpt>
      <trkpt lat="42.87404" lon="-0.19072">
        <ele>2318.4</ele>
        <time>2026-07-15T08:57:15Z</time>
      </trkpt>
      <trkpt lat="42.87404" lon="-0.19072">
        <ele>2318.4</ele>
        <time>2026-07-15T08:57:16Z</time>
      </trkpt>
      <trkpt lat="42.87404" lon="-0.19072">
        <ele>2318.4</ele>
        <time>2026-07-15T08:57:17Z</time>
      </trkpt>
      <trkpt lat="42.87404" lon="-0.19072">
        <ele>2318.4</ele>
        <time>2026-07-15T08:57:18Z</time>
      </trkpt>
      <trkpt lat="42.87403" lon="-0.19073">
        <ele>2317.4</ele>
        <time>2026-07-15T08:57:19Z</time>
      </trkpt>
      <trkpt lat="42.87403" lon="-0.19073">
        <ele>2317.4</ele>
        <time>2026-07-15T08:57:20Z</time>
      </trkpt>
      <trkpt lat="42.87402" lon="-0.19074">
        <ele>2317.4</ele>
        <time>2026-07-15T08:57:21Z</time>
      </trkpt>
      <trkpt lat="42.87401" lon="-0.19075">
        <ele>2317.4</ele>
        <time>2026-07-15T08:57:22Z</time>
      </trkpt>
      <trkpt lat="42.87401" lon="-0.19076">
        <ele>2317.4</ele>
        <time>2026-07-15T08:57:23Z</time>
      </trkpt>
      <trkpt lat="42.87402" lon="-0.19077">
        <ele>2317.4</ele>
        <time>2026-07-15T08:57:24Z</time>
      </trkpt>
      <trkpt lat="42.87402" lon="-0.19077">
        <ele>2318.4</ele>
        <time>2026-07-15T08:57:25Z</time>
      </trkpt>
      <trkpt lat="42.87402" lon="-0.19077">
        <ele>2318.4</ele>
        <time>2026-07-15T08:57:26Z</time>
      </trkpt>
      <trkpt lat="42.87402" lon="-0.19077">
        <ele>2318.4</ele>
        <time>2026-07-15T08:57:27Z</time>
      </trkpt>
      <trkpt lat="42.87402" lon="-0.19077">
        <ele>2318.4</ele>
        <time>2026-07-15T08:57:28Z</time>
      </trkpt>
      <trkpt lat="42.87402" lon="-0.19078">
        <ele>2318.4</ele>
        <time>2026-07-15T08:57:29Z</time>
      </trkpt>
      <trkpt lat="42.87402" lon="-0.19079">
        <ele>2318.4</ele>
        <time>2026-07-15T08:57:30Z</time>
      </trkpt>
      <trkpt lat="42.87402" lon="-0.19079">
        <ele>2318.4</ele>
        <time>2026-07-15T08:57:31Z</time>
      </trkpt>
      <trkpt lat="42.87402" lon="-0.1908">
        <ele>2317.4</ele>
        <time>2026-07-15T08:57:32Z</time>
      </trkpt>
      <trkpt lat="42.87402" lon="-0.1908">
        <ele>2318.4</ele>
        <time>2026-07-15T08:57:33Z</time>
      </trkpt>
      <trkpt lat="42.87402" lon="-0.1908">
        <ele>2318.4</ele>
        <time>2026-07-15T08:57:34Z</time>
      </trkpt>
      <trkpt lat="42.87402" lon="-0.1908">
        <ele>2318.4</ele>
        <time>2026-07-15T08:57:35Z</time>
      </trkpt>
      <trkpt lat="42.87402" lon="-0.1908">
        <ele>2318.4</ele>
        <time>2026-07-15T08:57:36Z</time>
      </trkpt>
      <trkpt lat="42.87402" lon="-0.1908">
        <ele>2318.4</ele>
        <time>2026-07-15T08:57:37Z</time>
      </trkpt>
      <trkpt lat="42.87403" lon="-0.19081">
        <ele>2318.4</ele>
        <time>2026-07-15T08:57:38Z</time>
      </trkpt>
      <trkpt lat="42.87403" lon="-0.19081">
        <ele>2318.4</ele>
        <time>2026-07-15T08:57:39Z</time>
      </trkpt>
      <trkpt lat="42.87403" lon="-0.19081">
        <ele>2318.4</ele>
        <time>2026-07-15T08:57:40Z</time>
      </trkpt>
      <trkpt lat="42.87403" lon="-0.19081">
        <ele>2318.4</ele>
        <time>2026-07-15T08:57:41Z</time>
      </trkpt>
      <trkpt lat="42.87403" lon="-0.19082">
        <ele>2317.4</ele>
        <time>2026-07-15T08:57:42Z</time>
      </trkpt>
      <trkpt lat="42.87403" lon="-0.19082">
        <ele>2316.4</ele>
        <time>2026-07-15T08:57:43Z</time>
      </trkpt>
      <trkpt lat="42.87402" lon="-0.19082">
        <ele>2315.4</ele>
        <time>2026-07-15T08:57:44Z</time>
      </trkpt>
      <trkpt lat="42.87402" lon="-0.19083">
        <ele>2315.4</ele>
        <time>2026-07-15T08:57:45Z</time>
      </trkpt>
      <trkpt lat="42.87403" lon="-0.19083">
        <ele>2315.4</ele>
        <time>2026-07-15T08:57:46Z</time>
      </trkpt>
      <trkpt lat="42.87403" lon="-0.19083">
        <ele>2315.4</ele>
        <time>2026-07-15T08:57:47Z</time>
      </trkpt>
      <trkpt lat="42.87403" lon="-0.19083">
        <ele>2315.4</ele>
        <time>2026-07-15T08:57:48Z</time>
      </trkpt>
      <trkpt lat="42.87402" lon="-0.19084">
        <ele>2315.4</ele>
        <time>2026-07-15T08:57:49Z</time>
      </trkpt>
      <trkpt lat="42.87402" lon="-0.19086">
        <ele>2315.4</ele>
        <time>2026-07-15T08:57:50Z</time>
      </trkpt>
      <trkpt lat="42.87403" lon="-0.19087">
        <ele>2316.4</ele>
        <time>2026-07-15T08:57:51Z</time>
      </trkpt>
      <trkpt lat="42.87403" lon="-0.19088">
        <ele>2316.4</ele>
        <time>2026-07-15T08:57:52Z</time>
      </trkpt>
      <trkpt lat="42.87403" lon="-0.19089">
        <ele>2317.4</ele>
        <time>2026-07-15T08:57:53Z</time>
      </trkpt>
      <trkpt lat="42.87403" lon="-0.19089">
        <ele>2317.4</ele>
        <time>2026-07-15T08:57:54Z</time>
      </trkpt>
      <trkpt lat="42.87402" lon="-0.19089">
        <ele>2317.4</ele>
        <time>2026-07-15T08:57:55Z</time>
      </trkpt>
      <trkpt lat="42.87402" lon="-0.19089">
        <ele>2317.4</ele>
        <time>2026-07-15T08:57:56Z</time>
      </trkpt>
      <trkpt lat="42.87402" lon="-0.19089">
        <ele>2317.4</ele>
        <time>2026-07-15T08:57:57Z</time>
      </trkpt>
      <trkpt lat="42.87402" lon="-0.19089">
        <ele>2317.4</ele>
        <time>2026-07-15T08:57:58Z</time>
      </trkpt>
      <trkpt lat="42.87402" lon="-0.19091">
        <ele>2317.4</ele>
        <time>2026-07-15T08:57:59Z</time>
      </trkpt>
      <trkpt lat="42.87402" lon="-0.19091">
        <ele>2317.4</ele>
        <time>2026-07-15T08:58:00Z</time>
      </trkpt>
      <trkpt lat="42.87401" lon="-0.19092">
        <ele>2317.4</ele>
        <time>2026-07-15T08:58:01Z</time>
      </trkpt>
      <trkpt lat="42.87401" lon="-0.19092">
        <ele>2317.4</ele>
        <time>2026-07-15T08:58:02Z</time>
      </trkpt>
      <trkpt lat="42.87402" lon="-0.19092">
        <ele>2317.4</ele>
        <time>2026-07-15T08:58:03Z</time>
      </trkpt>
      <trkpt lat="42.87401" lon="-0.19093">
        <ele>2317.4</ele>
        <time>2026-07-15T08:58:04Z</time>
      </trkpt>
      <trkpt lat="42.87401" lon="-0.19094">
        <ele>2317.4</ele>
        <time>2026-07-15T08:58:05Z</time>
      </trkpt>
      <trkpt lat="42.87401" lon="-0.19095">
        <ele>2317.4</ele>
        <time>2026-07-15T08:58:06Z</time>
      </trkpt>
      <trkpt lat="42.87402" lon="-0.19096">
        <ele>2317.4</ele>
        <time>2026-07-15T08:58:07Z</time>
      </trkpt>
      <trkpt lat="42.87402" lon="-0.19097">
        <ele>2317.4</ele>
        <time>2026-07-15T08:58:08Z</time>
      </trkpt>
      <trkpt lat="42.87402" lon="-0.19098">
        <ele>2317.4</ele>
        <time>2026-07-15T08:58:09Z</time>
      </trkpt>
      <trkpt lat="42.87403" lon="-0.19098">
        <ele>2317.4</ele>
        <time>2026-07-15T08:58:10Z</time>
      </trkpt>
      <trkpt lat="42.87403" lon="-0.19098">
        <ele>2318.4</ele>
        <time>2026-07-15T08:58:11Z</time>
      </trkpt>
      <trkpt lat="42.87404" lon="-0.19099">
        <ele>2318.4</ele>
        <time>2026-07-15T08:58:12Z</time>
      </trkpt>
      <trkpt lat="42.87404" lon="-0.191">
        <ele>2318.4</ele>
        <time>2026-07-15T08:58:13Z</time>
      </trkpt>
      <trkpt lat="42.87404" lon="-0.19101">
        <ele>2319.4</ele>
        <time>2026-07-15T08:58:14Z</time>
      </trkpt>
      <trkpt lat="42.87404" lon="-0.19101">
        <ele>2319.4</ele>
        <time>2026-07-15T08:58:15Z</time>
      </trkpt>
      <trkpt lat="42.87404" lon="-0.19102">
        <ele>2319.4</ele>
        <time>2026-07-15T08:58:16Z</time>
      </trkpt>
      <trkpt lat="42.87404" lon="-0.19103">
        <ele>2318.4</ele>
        <time>2026-07-15T08:58:17Z</time>
      </trkpt>
      <trkpt lat="42.87404" lon="-0.19104">
        <ele>2319.4</ele>
        <time>2026-07-15T08:58:18Z</time>
      </trkpt>
      <trkpt lat="42.87405" lon="-0.19104">
        <ele>2319.4</ele>
        <time>2026-07-15T08:58:19Z</time>
      </trkpt>
      <trkpt lat="42.87405" lon="-0.19105">
        <ele>2319.4</ele>
        <time>2026-07-15T08:58:20Z</time>
      </trkpt>
      <trkpt lat="42.87405" lon="-0.19106">
        <ele>2319.4</ele>
        <time>2026-07-15T08:58:21Z</time>
      </trkpt>
      <trkpt lat="42.87405" lon="-0.19106">
        <ele>2319.4</ele>
        <time>2026-07-15T08:58:22Z</time>
      </trkpt>
      <trkpt lat="42.87405" lon="-0.19107">
        <ele>2319.4</ele>
        <time>2026-07-15T08:58:23Z</time>
      </trkpt>
      <trkpt lat="42.87405" lon="-0.19107">
        <ele>2320.4</ele>
        <time>2026-07-15T08:58:24Z</time>
      </trkpt>
      <trkpt lat="42.87405" lon="-0.19107">
        <ele>2320.4</ele>
        <time>2026-07-15T08:58:25Z</time>
      </trkpt>
      <trkpt lat="42.87405" lon="-0.19108">
        <ele>2320.4</ele>
        <time>2026-07-15T08:58:26Z</time>
      </trkpt>
      <trkpt lat="42.87406" lon="-0.19108">
        <ele>2320.4</ele>
        <time>2026-07-15T08:58:27Z</time>
      </trkpt>
      <trkpt lat="42.87406" lon="-0.19108">
        <ele>2320.4</ele>
        <time>2026-07-15T08:58:28Z</time>
      </trkpt>
      <trkpt lat="42.87407" lon="-0.19109">
        <ele>2320.4</ele>
        <time>2026-07-15T08:58:29Z</time>
      </trkpt>
      <trkpt lat="42.87407" lon="-0.19109">
        <ele>2319.4</ele>
        <time>2026-07-15T08:58:30Z</time>
      </trkpt>
      <trkpt lat="42.87408" lon="-0.19111">
        <ele>2320.4</ele>
        <time>2026-07-15T08:58:31Z</time>
      </trkpt>
      <trkpt lat="42.87409" lon="-0.19111">
        <ele>2319.4</ele>
        <time>2026-07-15T08:58:32Z</time>
      </trkpt>
      <trkpt lat="42.87409" lon="-0.19112">
        <ele>2319.4</ele>
        <time>2026-07-15T08:58:33Z</time>
      </trkpt>
      <trkpt lat="42.8741" lon="-0.19112">
        <ele>2319.4</ele>
        <time>2026-07-15T08:58:34Z</time>
      </trkpt>
      <trkpt lat="42.8741" lon="-0.19113">
        <ele>2320.4</ele>
        <time>2026-07-15T08:58:35Z</time>
      </trkpt>
      <trkpt lat="42.8741" lon="-0.19113">
        <ele>2319.4</ele>
        <time>2026-07-15T08:58:36Z</time>
      </trkpt>
      <trkpt lat="42.87411" lon="-0.19113">
        <ele>2319.4</ele>
        <time>2026-07-15T08:58:37Z</time>
      </trkpt>
      <trkpt lat="42.87411" lon="-0.19113">
        <ele>2320.4</ele>
        <time>2026-07-15T08:58:38Z</time>
      </trkpt>
      <trkpt lat="42.87412" lon="-0.19113">
        <ele>2320.4</ele>
        <time>2026-07-15T08:58:39Z</time>
      </trkpt>
      <trkpt lat="42.87413" lon="-0.19114">
        <ele>2320.4</ele>
        <time>2026-07-15T08:58:40Z</time>
      </trkpt>
      <trkpt lat="42.87414" lon="-0.19115">
        <ele>2320.4</ele>
        <time>2026-07-15T08:58:41Z</time>
      </trkpt>
      <trkpt lat="42.87414" lon="-0.19116">
        <ele>2320.4</ele>
        <time>2026-07-15T08:58:42Z</time>
      </trkpt>
      <trkpt lat="42.87414" lon="-0.19116">
        <ele>2320.4</ele>
        <time>2026-07-15T08:58:43Z</time>
      </trkpt>
      <trkpt lat="42.87415" lon="-0.19116">
        <ele>2319.4</ele>
        <time>2026-07-15T08:58:44Z</time>
      </trkpt>
      <trkpt lat="42.87415" lon="-0.19117">
        <ele>2319.4</ele>
        <time>2026-07-15T08:58:45Z</time>
      </trkpt>
      <trkpt lat="42.87416" lon="-0.19117">
        <ele>2320.4</ele>
        <time>2026-07-15T08:58:46Z</time>
      </trkpt>
      <trkpt lat="42.87416" lon="-0.19117">
        <ele>2319.4</ele>
        <time>2026-07-15T08:58:47Z</time>
      </trkpt>
      <trkpt lat="42.87416" lon="-0.19117">
        <ele>2319.4</ele>
        <time>2026-07-15T08:58:48Z</time>
      </trkpt>
      <trkpt lat="42.87417" lon="-0.19118">
        <ele>2319.4</ele>
        <time>2026-07-15T08:58:49Z</time>
      </trkpt>
      <trkpt lat="42.87418" lon="-0.19118">
        <ele>2319.4</ele>
        <time>2026-07-15T08:58:50Z</time>
      </trkpt>
      <trkpt lat="42.87418" lon="-0.19118">
        <ele>2318.4</ele>
        <time>2026-07-15T08:58:51Z</time>
      </trkpt>
      <trkpt lat="42.87418" lon="-0.19119">
        <ele>2317.4</ele>
        <time>2026-07-15T08:58:52Z</time>
      </trkpt>
      <trkpt lat="42.87419" lon="-0.1912">
        <ele>2317.4</ele>
        <time>2026-07-15T08:58:53Z</time>
      </trkpt>
      <trkpt lat="42.8742" lon="-0.19121">
        <ele>2317.4</ele>
        <time>2026-07-15T08:58:54Z</time>
      </trkpt>
      <trkpt lat="42.8742" lon="-0.19121">
        <ele>2317.4</ele>
        <time>2026-07-15T08:58:55Z</time>
      </trkpt>
      <trkpt lat="42.8742" lon="-0.19121">
        <ele>2317.4</ele>
        <time>2026-07-15T08:58:56Z</time>
      </trkpt>
      <trkpt lat="42.8742" lon="-0.19121">
        <ele>2317.4</ele>
        <time>2026-07-15T08:58:57Z</time>
      </trkpt>
      <trkpt lat="42.8742" lon="-0.19121">
        <ele>2317.4</ele>
        <time>2026-07-15T08:58:58Z</time>
      </trkpt>
      <trkpt lat="42.8742" lon="-0.19121">
        <ele>2317.4</ele>
        <time>2026-07-15T08:58:59Z</time>
      </trkpt>
      <trkpt lat="42.8742" lon="-0.1912">
        <ele>2317.4</ele>
        <time>2026-07-15T08:59:00Z</time>
      </trkpt>
      <trkpt lat="42.8742" lon="-0.1912">
        <ele>2317.4</ele>
        <time>2026-07-15T08:59:01Z</time>
      </trkpt>
      <trkpt lat="42.8742" lon="-0.1912">
        <ele>2317.4</ele>
        <time>2026-07-15T08:59:02Z</time>
      </trkpt>
      <trkpt lat="42.8742" lon="-0.1912">
        <ele>2317.4</ele>
        <time>2026-07-15T08:59:03Z</time>
      </trkpt>
      <trkpt lat="42.8742" lon="-0.19121">
        <ele>2317.4</ele>
        <time>2026-07-15T08:59:04Z</time>
      </trkpt>
      <trkpt lat="42.8742" lon="-0.19121">
        <ele>2317.4</ele>
        <time>2026-07-15T08:59:05Z</time>
      </trkpt>
      <trkpt lat="42.87419" lon="-0.19121">
        <ele>2317.4</ele>
        <time>2026-07-15T08:59:06Z</time>
      </trkpt>
      <trkpt lat="42.87419" lon="-0.19122">
        <ele>2317.4</ele>
        <time>2026-07-15T08:59:07Z</time>
      </trkpt>
      <trkpt lat="42.87418" lon="-0.19122">
        <ele>2317.4</ele>
        <time>2026-07-15T08:59:08Z</time>
      </trkpt>
      <trkpt lat="42.87418" lon="-0.19122">
        <ele>2318.4</ele>
        <time>2026-07-15T08:59:09Z</time>
      </trkpt>
      <trkpt lat="42.87418" lon="-0.19123">
        <ele>2317.4</ele>
        <time>2026-07-15T08:59:10Z</time>
      </trkpt>
      <trkpt lat="42.87418" lon="-0.19124">
        <ele>2318.4</ele>
        <time>2026-07-15T08:59:11Z</time>
      </trkpt>
      <trkpt lat="42.87418" lon="-0.19124">
        <ele>2318.4</ele>
        <time>2026-07-15T08:59:12Z</time>
      </trkpt>
      <trkpt lat="42.87418" lon="-0.19125">
        <ele>2318.4</ele>
        <time>2026-07-15T08:59:13Z</time>
      </trkpt>
      <trkpt lat="42.87418" lon="-0.19125">
        <ele>2318.4</ele>
        <time>2026-07-15T08:59:14Z</time>
      </trkpt>
      <trkpt lat="42.87418" lon="-0.19125">
        <ele>2318.4</ele>
        <time>2026-07-15T08:59:15Z</time>
      </trkpt>
      <trkpt lat="42.87418" lon="-0.19125">
        <ele>2318.4</ele>
        <time>2026-07-15T08:59:16Z</time>
      </trkpt>
      <trkpt lat="42.87418" lon="-0.19127">
        <ele>2318.4</ele>
        <time>2026-07-15T08:59:17Z</time>
      </trkpt>
      <trkpt lat="42.87418" lon="-0.19128">
        <ele>2318.4</ele>
        <time>2026-07-15T08:59:18Z</time>
      </trkpt>
      <trkpt lat="42.87418" lon="-0.19128">
        <ele>2318.4</ele>
        <time>2026-07-15T08:59:19Z</time>
      </trkpt>
      <trkpt lat="42.87417" lon="-0.19127">
        <ele>2318.4</ele>
        <time>2026-07-15T08:59:20Z</time>
      </trkpt>
      <trkpt lat="42.87417" lon="-0.19128">
        <ele>2319.4</ele>
        <time>2026-07-15T08:59:21Z</time>
      </trkpt>
      <trkpt lat="42.87417" lon="-0.19128">
        <ele>2319.4</ele>
        <time>2026-07-15T08:59:22Z</time>
      </trkpt>
      <trkpt lat="42.87417" lon="-0.19128">
        <ele>2319.4</ele>
        <time>2026-07-15T08:59:23Z</time>
      </trkpt>
      <trkpt lat="42.87417" lon="-0.19129">
        <ele>2319.4</ele>
        <time>2026-07-15T08:59:24Z</time>
      </trkpt>
      <trkpt lat="42.87416" lon="-0.19129">
        <ele>2320.4</ele>
        <time>2026-07-15T08:59:25Z</time>
      </trkpt>
      <trkpt lat="42.87416" lon="-0.1913">
        <ele>2320.4</ele>
        <time>2026-07-15T08:59:26Z</time>
      </trkpt>
      <trkpt lat="42.87415" lon="-0.1913">
        <ele>2320.4</ele>
        <time>2026-07-15T08:59:27Z</time>
      </trkpt>
      <trkpt lat="42.87415" lon="-0.1913">
        <ele>2320.4</ele>
        <time>2026-07-15T08:59:28Z</time>
      </trkpt>
      <trkpt lat="42.87414" lon="-0.19131">
        <ele>2320.4</ele>
        <time>2026-07-15T08:59:29Z</time>
      </trkpt>
      <trkpt lat="42.87414" lon="-0.19131">
        <ele>2320.4</ele>
        <time>2026-07-15T08:59:30Z</time>
      </trkpt>
      <trkpt lat="42.87414" lon="-0.19131">
        <ele>2320.4</ele>
        <time>2026-07-15T08:59:31Z</time>
      </trkpt>
      <trkpt lat="42.87414" lon="-0.19131">
        <ele>2320.4</ele>
        <time>2026-07-15T08:59:32Z</time>
      </trkpt>
      <trkpt lat="42.87414" lon="-0.19132">
        <ele>2320.4</ele>
        <time>2026-07-15T08:59:33Z</time>
      </trkpt>
      <trkpt lat="42.87414" lon="-0.19133">
        <ele>2320.4</ele>
        <time>2026-07-15T08:59:34Z</time>
      </trkpt>
      <trkpt lat="42.87414" lon="-0.19134">
        <ele>2321.4</ele>
        <time>2026-07-15T08:59:35Z</time>
      </trkpt>
      <trkpt lat="42.87414" lon="-0.19134">
        <ele>2320.4</ele>
        <time>2026-07-15T08:59:36Z</time>
      </trkpt>
      <trkpt lat="42.87414" lon="-0.19135">
        <ele>2320.4</ele>
        <time>2026-07-15T08:59:37Z</time>
      </trkpt>
      <trkpt lat="42.87414" lon="-0.19136">
        <ele>2321.4</ele>
        <time>2026-07-15T08:59:38Z</time>
      </trkpt>
      <trkpt lat="42.87414" lon="-0.19137">
        <ele>2321.4</ele>
        <time>2026-07-15T08:59:39Z</time>
      </trkpt>
      <trkpt lat="42.87414" lon="-0.19138">
        <ele>2321.4</ele>
        <time>2026-07-15T08:59:40Z</time>
      </trkpt>
      <trkpt lat="42.87414" lon="-0.19138">
        <ele>2321.4</ele>
        <time>2026-07-15T08:59:41Z</time>
      </trkpt>
      <trkpt lat="42.87414" lon="-0.19138">
        <ele>2321.4</ele>
        <time>2026-07-15T08:59:42Z</time>
      </trkpt>
      <trkpt lat="42.87414" lon="-0.19138">
        <ele>2321.4</ele>
        <time>2026-07-15T08:59:43Z</time>
      </trkpt>
      <trkpt lat="42.87414" lon="-0.19138">
        <ele>2321.4</ele>
        <time>2026-07-15T08:59:44Z</time>
      </trkpt>
      <trkpt lat="42.87415" lon="-0.19139">
        <ele>2321.4</ele>
        <time>2026-07-15T08:59:45Z</time>
      </trkpt>
      <trkpt lat="42.87415" lon="-0.19139">
        <ele>2321.4</ele>
        <time>2026-07-15T08:59:46Z</time>
      </trkpt>
      <trkpt lat="42.87415" lon="-0.1914">
        <ele>2321.4</ele>
        <time>2026-07-15T08:59:47Z</time>
      </trkpt>
      <trkpt lat="42.87415" lon="-0.1914">
        <ele>2321.4</ele>
        <time>2026-07-15T08:59:48Z</time>
      </trkpt>
      <trkpt lat="42.87415" lon="-0.1914">
        <ele>2321.4</ele>
        <time>2026-07-15T08:59:49Z</time>
      </trkpt>
      <trkpt lat="42.87416" lon="-0.19141">
        <ele>2321.4</ele>
        <time>2026-07-15T08:59:50Z</time>
      </trkpt>
      <trkpt lat="42.87416" lon="-0.19142">
        <ele>2321.4</ele>
        <time>2026-07-15T08:59:51Z</time>
      </trkpt>
      <trkpt lat="42.87417" lon="-0.19143">
        <ele>2321.4</ele>
        <time>2026-07-15T08:59:52Z</time>
      </trkpt>
      <trkpt lat="42.87417" lon="-0.19143">
        <ele>2321.4</ele>
        <time>2026-07-15T08:59:53Z</time>
      </trkpt>
      <trkpt lat="42.87417" lon="-0.19143">
        <ele>2323.4</ele>
        <time>2026-07-15T08:59:54Z</time>
      </trkpt>
      <trkpt lat="42.87417" lon="-0.19144">
        <ele>2322.4</ele>
        <time>2026-07-15T08:59:55Z</time>
      </trkpt>
      <trkpt lat="42.87417" lon="-0.19144">
        <ele>2322.4</ele>
        <time>2026-07-15T08:59:56Z</time>
      </trkpt>
      <trkpt lat="42.87417" lon="-0.19144">
        <ele>2322.4</ele>
        <time>2026-07-15T08:59:57Z</time>
      </trkpt>
      <trkpt lat="42.87417" lon="-0.19144">
        <ele>2322.4</ele>
        <time>2026-07-15T08:59:58Z</time>
      </trkpt>
      <trkpt lat="42.87417" lon="-0.19145">
        <ele>2324.4</ele>
        <time>2026-07-15T08:59:59Z</time>
      </trkpt>
      <trkpt lat="42.87418" lon="-0.19145">
        <ele>2324.4</ele>
        <time>2026-07-15T09:00:00Z</time>
      </trkpt>
      <trkpt lat="42.87418" lon="-0.19146">
        <ele>2324.4</ele>
        <time>2026-07-15T09:00:01Z</time>
      </trkpt>
      <trkpt lat="42.87418" lon="-0.19147">
        <ele>2324.4</ele>
        <time>2026-07-15T09:00:02Z</time>
      </trkpt>
      <trkpt lat="42.87417" lon="-0.19148">
        <ele>2324.4</ele>
        <time>2026-07-15T09:00:03Z</time>
      </trkpt>
      <trkpt lat="42.87417" lon="-0.19149">
        <ele>2325.4</ele>
        <time>2026-07-15T09:00:04Z</time>
      </trkpt>
      <trkpt lat="42.87417" lon="-0.1915">
        <ele>2324.4</ele>
        <time>2026-07-15T09:00:05Z</time>
      </trkpt>
      <trkpt lat="42.87417" lon="-0.19151">
        <ele>2324.4</ele>
        <time>2026-07-15T09:00:06Z</time>
      </trkpt>
      <trkpt lat="42.87417" lon="-0.1915">
        <ele>2325.4</ele>
        <time>2026-07-15T09:00:07Z</time>
      </trkpt>
      <trkpt lat="42.87417" lon="-0.1915">
        <ele>2326.4</ele>
        <time>2026-07-15T09:00:08Z</time>
      </trkpt>
      <trkpt lat="42.87417" lon="-0.19151">
        <ele>2326.4</ele>
        <time>2026-07-15T09:00:09Z</time>
      </trkpt>
      <trkpt lat="42.87417" lon="-0.19152">
        <ele>2325.4</ele>
        <time>2026-07-15T09:00:10Z</time>
      </trkpt>
      <trkpt lat="42.87417" lon="-0.19152">
        <ele>2325.4</ele>
        <time>2026-07-15T09:00:11Z</time>
      </trkpt>
      <trkpt lat="42.87417" lon="-0.19153">
        <ele>2325.4</ele>
        <time>2026-07-15T09:00:12Z</time>
      </trkpt>
      <trkpt lat="42.87417" lon="-0.19152">
        <ele>2325.4</ele>
        <time>2026-07-15T09:00:13Z</time>
      </trkpt>
      <trkpt lat="42.87417" lon="-0.19154">
        <ele>2325.4</ele>
        <time>2026-07-15T09:00:14Z</time>
      </trkpt>
      <trkpt lat="42.87418" lon="-0.19155">
        <ele>2325.4</ele>
        <time>2026-07-15T09:00:15Z</time>
      </trkpt>
      <trkpt lat="42.87418" lon="-0.19155">
        <ele>2325.4</ele>
        <time>2026-07-15T09:00:16Z</time>
      </trkpt>
      <trkpt lat="42.87418" lon="-0.19155">
        <ele>2325.4</ele>
        <time>2026-07-15T09:00:17Z</time>
      </trkpt>
      <trkpt lat="42.87418" lon="-0.19155">
        <ele>2325.4</ele>
        <time>2026-07-15T09:00:18Z</time>
      </trkpt>
      <trkpt lat="42.87418" lon="-0.19155">
        <ele>2325.4</ele>
        <time>2026-07-15T09:00:19Z</time>
      </trkpt>
      <trkpt lat="42.87418" lon="-0.19155">
        <ele>2325.4</ele>
        <time>2026-07-15T09:00:20Z</time>
      </trkpt>
      <trkpt lat="42.87418" lon="-0.19155">
        <ele>2325.4</ele>
        <time>2026-07-15T09:00:21Z</time>
      </trkpt>
      <trkpt lat="42.87418" lon="-0.19155">
        <ele>2325.4</ele>
        <time>2026-07-15T09:00:22Z</time>
      </trkpt>
      <trkpt lat="42.87418" lon="-0.19155">
        <ele>2325.4</ele>
        <time>2026-07-15T09:00:23Z</time>
      </trkpt>
      <trkpt lat="42.87418" lon="-0.19155">
        <ele>2325.4</ele>
        <time>2026-07-15T09:00:24Z</time>
      </trkpt>
      <trkpt lat="42.87418" lon="-0.19155">
        <ele>2325.4</ele>
        <time>2026-07-15T09:00:25Z</time>
      </trkpt>
      <trkpt lat="42.87418" lon="-0.19155">
        <ele>2325.4</ele>
        <time>2026-07-15T09:00:26Z</time>
      </trkpt>
      <trkpt lat="42.87418" lon="-0.19155">
        <ele>2325.4</ele>
        <time>2026-07-15T09:00:27Z</time>
      </trkpt>
      <trkpt lat="42.87418" lon="-0.19155">
        <ele>2325.4</ele>
        <time>2026-07-15T09:00:28Z</time>
      </trkpt>
      <trkpt lat="42.87419" lon="-0.19156">
        <ele>2325.4</ele>
        <time>2026-07-15T09:00:29Z</time>
      </trkpt>
      <trkpt lat="42.87419" lon="-0.19156">
        <ele>2325.4</ele>
        <time>2026-07-15T09:00:30Z</time>
      </trkpt>
      <trkpt lat="42.87419" lon="-0.19157">
        <ele>2325.4</ele>
        <time>2026-07-15T09:00:31Z</time>
      </trkpt>
      <trkpt lat="42.87419" lon="-0.19157">
        <ele>2325.4</ele>
        <time>2026-07-15T09:00:32Z</time>
      </trkpt>
      <trkpt lat="42.87419" lon="-0.19157">
        <ele>2325.4</ele>
        <time>2026-07-15T09:00:33Z</time>
      </trkpt>
      <trkpt lat="42.87419" lon="-0.19158">
        <ele>2325.4</ele>
        <time>2026-07-15T09:00:34Z</time>
      </trkpt>
      <trkpt lat="42.87418" lon="-0.19158">
        <ele>2325.4</ele>
        <time>2026-07-15T09:00:35Z</time>
      </trkpt>
      <trkpt lat="42.87418" lon="-0.19159">
        <ele>2326.4</ele>
        <time>2026-07-15T09:00:36Z</time>
      </trkpt>
      <trkpt lat="42.87417" lon="-0.19159">
        <ele>2325.4</ele>
        <time>2026-07-15T09:00:37Z</time>
      </trkpt>
      <trkpt lat="42.87418" lon="-0.19159">
        <ele>2326.4</ele>
        <time>2026-07-15T09:00:38Z</time>
      </trkpt>
      <trkpt lat="42.87418" lon="-0.19159">
        <ele>2326.4</ele>
        <time>2026-07-15T09:00:39Z</time>
      </trkpt>
      <trkpt lat="42.87418" lon="-0.19159">
        <ele>2327.4</ele>
        <time>2026-07-15T09:00:40Z</time>
      </trkpt>
      <trkpt lat="42.87418" lon="-0.1916">
        <ele>2326.4</ele>
        <time>2026-07-15T09:00:41Z</time>
      </trkpt>
      <trkpt lat="42.87419" lon="-0.19161">
        <ele>2327.4</ele>
        <time>2026-07-15T09:00:42Z</time>
      </trkpt>
      <trkpt lat="42.87419" lon="-0.19162">
        <ele>2327.4</ele>
        <time>2026-07-15T09:00:43Z</time>
      </trkpt>
      <trkpt lat="42.87419" lon="-0.19162">
        <ele>2326.4</ele>
        <time>2026-07-15T09:00:44Z</time>
      </trkpt>
      <trkpt lat="42.87419" lon="-0.19163">
        <ele>2327.4</ele>
        <time>2026-07-15T09:00:45Z</time>
      </trkpt>
      <trkpt lat="42.87419" lon="-0.19164">
        <ele>2328.4</ele>
        <time>2026-07-15T09:00:46Z</time>
      </trkpt>
      <trkpt lat="42.87419" lon="-0.19164">
        <ele>2328.4</ele>
        <time>2026-07-15T09:00:47Z</time>
      </trkpt>
      <trkpt lat="42.87419" lon="-0.19164">
        <ele>2327.4</ele>
        <time>2026-07-15T09:00:48Z</time>
      </trkpt>
      <trkpt lat="42.87419" lon="-0.19164">
        <ele>2328.4</ele>
        <time>2026-07-15T09:00:49Z</time>
      </trkpt>
      <trkpt lat="42.87418" lon="-0.19164">
        <ele>2328.4</ele>
        <time>2026-07-15T09:00:50Z</time>
      </trkpt>
      <trkpt lat="42.87418" lon="-0.19165">
        <ele>2329.4</ele>
        <time>2026-07-15T09:00:51Z</time>
      </trkpt>
      <trkpt lat="42.87418" lon="-0.19166">
        <ele>2328.4</ele>
        <time>2026-07-15T09:00:52Z</time>
      </trkpt>
      <trkpt lat="42.87417" lon="-0.19166">
        <ele>2327.4</ele>
        <time>2026-07-15T09:00:53Z</time>
      </trkpt>
      <trkpt lat="42.87416" lon="-0.19168">
        <ele>2327.4</ele>
        <time>2026-07-15T09:00:54Z</time>
      </trkpt>
      <trkpt lat="42.87416" lon="-0.19169">
        <ele>2327.4</ele>
        <time>2026-07-15T09:00:55Z</time>
      </trkpt>
      <trkpt lat="42.87416" lon="-0.1917">
        <ele>2327.4</ele>
        <time>2026-07-15T09:00:56Z</time>
      </trkpt>
      <trkpt lat="42.87416" lon="-0.19171">
        <ele>2328.4</ele>
        <time>2026-07-15T09:00:57Z</time>
      </trkpt>
      <trkpt lat="42.87416" lon="-0.19171">
        <ele>2327.4</ele>
        <time>2026-07-15T09:00:58Z</time>
      </trkpt>
      <trkpt lat="42.87417" lon="-0.19172">
        <ele>2327.4</ele>
        <time>2026-07-15T09:00:59Z</time>
      </trkpt>
      <trkpt lat="42.87416" lon="-0.19173">
        <ele>2326.4</ele>
        <time>2026-07-15T09:01:00Z</time>
      </trkpt>
      <trkpt lat="42.87416" lon="-0.19173">
        <ele>2326.4</ele>
        <time>2026-07-15T09:01:01Z</time>
      </trkpt>
      <trkpt lat="42.87415" lon="-0.19173">
        <ele>2325.4</ele>
        <time>2026-07-15T09:01:02Z</time>
      </trkpt>
      <trkpt lat="42.87415" lon="-0.19173">
        <ele>2325.4</ele>
        <time>2026-07-15T09:01:03Z</time>
      </trkpt>
      <trkpt lat="42.87415" lon="-0.19173">
        <ele>2325.4</ele>
        <time>2026-07-15T09:01:04Z</time>
      </trkpt>
      <trkpt lat="42.87415" lon="-0.19173">
        <ele>2325.4</ele>
        <time>2026-07-15T09:01:05Z</time>
      </trkpt>
      <trkpt lat="42.87415" lon="-0.19173">
        <ele>2325.4</ele>
        <time>2026-07-15T09:01:06Z</time>
      </trkpt>
      <trkpt lat="42.87414" lon="-0.19174">
        <ele>2325.4</ele>
        <time>2026-07-15T09:01:07Z</time>
      </trkpt>
      <trkpt lat="42.87412" lon="-0.19175">
        <ele>2325.4</ele>
        <time>2026-07-15T09:01:08Z</time>
      </trkpt>
      <trkpt lat="42.87411" lon="-0.19175">
        <ele>2325.4</ele>
        <time>2026-07-15T09:01:09Z</time>
      </trkpt>
      <trkpt lat="42.8741" lon="-0.19175">
        <ele>2326.4</ele>
        <time>2026-07-15T09:01:10Z</time>
      </trkpt>
      <trkpt lat="42.8741" lon="-0.19174">
        <ele>2326.4</ele>
        <time>2026-07-15T09:01:11Z</time>
      </trkpt>
      <trkpt lat="42.87409" lon="-0.19174">
        <ele>2326.4</ele>
        <time>2026-07-15T09:01:12Z</time>
      </trkpt>
      <trkpt lat="42.87409" lon="-0.19174">
        <ele>2326.4</ele>
        <time>2026-07-15T09:01:13Z</time>
      </trkpt>
      <trkpt lat="42.87409" lon="-0.19174">
        <ele>2326.4</ele>
        <time>2026-07-15T09:01:14Z</time>
      </trkpt>
      <trkpt lat="42.87408" lon="-0.19174">
        <ele>2325.4</ele>
        <time>2026-07-15T09:01:15Z</time>
      </trkpt>
      <trkpt lat="42.87407" lon="-0.19175">
        <ele>2325.4</ele>
        <time>2026-07-15T09:01:16Z</time>
      </trkpt>
      <trkpt lat="42.87407" lon="-0.19175">
        <ele>2324.4</ele>
        <time>2026-07-15T09:01:17Z</time>
      </trkpt>
      <trkpt lat="42.87406" lon="-0.19176">
        <ele>2324.4</ele>
        <time>2026-07-15T09:01:18Z</time>
      </trkpt>
      <trkpt lat="42.87406" lon="-0.19176">
        <ele>2324.4</ele>
        <time>2026-07-15T09:01:19Z</time>
      </trkpt>
      <trkpt lat="42.87406" lon="-0.19176">
        <ele>2323.4</ele>
        <time>2026-07-15T09:01:20Z</time>
      </trkpt>
      <trkpt lat="42.87405" lon="-0.19177">
        <ele>2323.4</ele>
        <time>2026-07-15T09:01:21Z</time>
      </trkpt>
      <trkpt lat="42.87405" lon="-0.19177">
        <ele>2324.4</ele>
        <time>2026-07-15T09:01:22Z</time>
      </trkpt>
      <trkpt lat="42.87405" lon="-0.19178">
        <ele>2325.4</ele>
        <time>2026-07-15T09:01:23Z</time>
      </trkpt>
      <trkpt lat="42.87405" lon="-0.19178">
        <ele>2324.4</ele>
        <time>2026-07-15T09:01:24Z</time>
      </trkpt>
      <trkpt lat="42.87404" lon="-0.19178">
        <ele>2325.4</ele>
        <time>2026-07-15T09:01:25Z</time>
      </trkpt>
      <trkpt lat="42.87404" lon="-0.19178">
        <ele>2325.4</ele>
        <time>2026-07-15T09:01:26Z</time>
      </trkpt>
      <trkpt lat="42.87404" lon="-0.19178">
        <ele>2325.4</ele>
        <time>2026-07-15T09:01:27Z</time>
      </trkpt>
      <trkpt lat="42.87403" lon="-0.19179">
        <ele>2325.4</ele>
        <time>2026-07-15T09:01:28Z</time>
      </trkpt>
      <trkpt lat="42.87403" lon="-0.19179">
        <ele>2326.4</ele>
        <time>2026-07-15T09:01:29Z</time>
      </trkpt>
      <trkpt lat="42.87403" lon="-0.19179">
        <ele>2326.4</ele>
        <time>2026-07-15T09:01:30Z</time>
      </trkpt>
      <trkpt lat="42.87402" lon="-0.19179">
        <ele>2326.4</ele>
        <time>2026-07-15T09:01:31Z</time>
      </trkpt>
      <trkpt lat="42.87401" lon="-0.1918">
        <ele>2326.4</ele>
        <time>2026-07-15T09:01:32Z</time>
      </trkpt>
      <trkpt lat="42.874" lon="-0.1918">
        <ele>2325.4</ele>
        <time>2026-07-15T09:01:33Z</time>
      </trkpt>
      <trkpt lat="42.874" lon="-0.1918">
        <ele>2325.4</ele>
        <time>2026-07-15T09:01:34Z</time>
      </trkpt>
      <trkpt lat="42.87399" lon="-0.19179">
        <ele>2326.4</ele>
        <time>2026-07-15T09:01:35Z</time>
      </trkpt>
      <trkpt lat="42.87399" lon="-0.19179">
        <ele>2326.4</ele>
        <time>2026-07-15T09:01:36Z</time>
      </trkpt>
      <trkpt lat="42.87399" lon="-0.19179">
        <ele>2326.4</ele>
        <time>2026-07-15T09:01:37Z</time>
      </trkpt>
      <trkpt lat="42.87398" lon="-0.1918">
        <ele>2325.4</ele>
        <time>2026-07-15T09:01:38Z</time>
      </trkpt>
      <trkpt lat="42.87397" lon="-0.1918">
        <ele>2324.4</ele>
        <time>2026-07-15T09:01:39Z</time>
      </trkpt>
      <trkpt lat="42.87397" lon="-0.1918">
        <ele>2324.4</ele>
        <time>2026-07-15T09:01:40Z</time>
      </trkpt>
      <trkpt lat="42.87396" lon="-0.1918">
        <ele>2324.4</ele>
        <time>2026-07-15T09:01:41Z</time>
      </trkpt>
      <trkpt lat="42.87396" lon="-0.19179">
        <ele>2324.4</ele>
        <time>2026-07-15T09:01:42Z</time>
      </trkpt>
      <trkpt lat="42.87395" lon="-0.19179">
        <ele>2323.4</ele>
        <time>2026-07-15T09:01:43Z</time>
      </trkpt>
      <trkpt lat="42.87395" lon="-0.19179">
        <ele>2323.4</ele>
        <time>2026-07-15T09:01:44Z</time>
      </trkpt>
      <trkpt lat="42.87394" lon="-0.19179">
        <ele>2324.4</ele>
        <time>2026-07-15T09:01:45Z</time>
      </trkpt>
      <trkpt lat="42.87394" lon="-0.19179">
        <ele>2323.4</ele>
        <time>2026-07-15T09:01:46Z</time>
      </trkpt>
      <trkpt lat="42.87394" lon="-0.19179">
        <ele>2324.4</ele>
        <time>2026-07-15T09:01:47Z</time>
      </trkpt>
      <trkpt lat="42.87394" lon="-0.19179">
        <ele>2324.4</ele>
        <time>2026-07-15T09:01:48Z</time>
      </trkpt>
      <trkpt lat="42.87394" lon="-0.19179">
        <ele>2324.4</ele>
        <time>2026-07-15T09:01:49Z</time>
      </trkpt>
      <trkpt lat="42.87393" lon="-0.19179">
        <ele>2323.4</ele>
        <time>2026-07-15T09:01:50Z</time>
      </trkpt>
      <trkpt lat="42.87392" lon="-0.19179">
        <ele>2323.4</ele>
        <time>2026-07-15T09:01:51Z</time>
      </trkpt>
      <trkpt lat="42.87392" lon="-0.19179">
        <ele>2324.4</ele>
        <time>2026-07-15T09:01:52Z</time>
      </trkpt>
      <trkpt lat="42.87391" lon="-0.19179">
        <ele>2323.4</ele>
        <time>2026-07-15T09:01:53Z</time>
      </trkpt>
      <trkpt lat="42.87391" lon="-0.19179">
        <ele>2323.4</ele>
        <time>2026-07-15T09:01:54Z</time>
      </trkpt>
      <trkpt lat="42.87391" lon="-0.19179">
        <ele>2323.4</ele>
        <time>2026-07-15T09:01:55Z</time>
      </trkpt>
      <trkpt lat="42.8739" lon="-0.19179">
        <ele>2324.4</ele>
        <time>2026-07-15T09:01:56Z</time>
      </trkpt>
      <trkpt lat="42.8739" lon="-0.19179">
        <ele>2324.4</ele>
        <time>2026-07-15T09:01:57Z</time>
      </trkpt>
      <trkpt lat="42.8739" lon="-0.19179">
        <ele>2324.4</ele>
        <time>2026-07-15T09:01:58Z</time>
      </trkpt>
      <trkpt lat="42.8739" lon="-0.19179">
        <ele>2324.4</ele>
        <time>2026-07-15T09:01:59Z</time>
      </trkpt>
      <trkpt lat="42.8739" lon="-0.19179">
        <ele>2324.4</ele>
        <time>2026-07-15T09:02:00Z</time>
      </trkpt>
      <trkpt lat="42.8739" lon="-0.19179">
        <ele>2324.4</ele>
        <time>2026-07-15T09:02:01Z</time>
      </trkpt>
      <trkpt lat="42.8739" lon="-0.19179">
        <ele>2324.4</ele>
        <time>2026-07-15T09:02:02Z</time>
      </trkpt>
      <trkpt lat="42.8739" lon="-0.19179">
        <ele>2324.4</ele>
        <time>2026-07-15T09:02:03Z</time>
      </trkpt>
      <trkpt lat="42.8739" lon="-0.19179">
        <ele>2324.4</ele>
        <time>2026-07-15T09:02:04Z</time>
      </trkpt>
      <trkpt lat="42.87391" lon="-0.19181">
        <ele>2324.4</ele>
        <time>2026-07-15T09:02:05Z</time>
      </trkpt>
      <trkpt lat="42.87391" lon="-0.19182">
        <ele>2325.4</ele>
        <time>2026-07-15T09:02:06Z</time>
      </trkpt>
      <trkpt lat="42.87392" lon="-0.19183">
        <ele>2324.4</ele>
        <time>2026-07-15T09:02:07Z</time>
      </trkpt>
      <trkpt lat="42.87392" lon="-0.19184">
        <ele>2324.4</ele>
        <time>2026-07-15T09:02:08Z</time>
      </trkpt>
      <trkpt lat="42.87392" lon="-0.19185">
        <ele>2325.4</ele>
        <time>2026-07-15T09:02:09Z</time>
      </trkpt>
      <trkpt lat="42.87393" lon="-0.19186">
        <ele>2325.4</ele>
        <time>2026-07-15T09:02:10Z</time>
      </trkpt>
      <trkpt lat="42.87393" lon="-0.19187">
        <ele>2324.4</ele>
        <time>2026-07-15T09:02:11Z</time>
      </trkpt>
      <trkpt lat="42.87394" lon="-0.19186">
        <ele>2324.4</ele>
        <time>2026-07-15T09:02:12Z</time>
      </trkpt>
      <trkpt lat="42.87394" lon="-0.19186">
        <ele>2323.4</ele>
        <time>2026-07-15T09:02:13Z</time>
      </trkpt>
      <trkpt lat="42.87393" lon="-0.19186">
        <ele>2322.4</ele>
        <time>2026-07-15T09:02:14Z</time>
      </trkpt>
      <trkpt lat="42.87393" lon="-0.19186">
        <ele>2322.4</ele>
        <time>2026-07-15T09:02:15Z</time>
      </trkpt>
      <trkpt lat="42.87393" lon="-0.19186">
        <ele>2322.4</ele>
        <time>2026-07-15T09:02:16Z</time>
      </trkpt>
      <trkpt lat="42.87393" lon="-0.19186">
        <ele>2322.4</ele>
        <time>2026-07-15T09:02:17Z</time>
      </trkpt>
      <trkpt lat="42.87393" lon="-0.19186">
        <ele>2322.4</ele>
        <time>2026-07-15T09:02:18Z</time>
      </trkpt>
      <trkpt lat="42.87393" lon="-0.19186">
        <ele>2322.4</ele>
        <time>2026-07-15T09:02:19Z</time>
      </trkpt>
      <trkpt lat="42.87393" lon="-0.19186">
        <ele>2322.4</ele>
        <time>2026-07-15T09:02:20Z</time>
      </trkpt>
      <trkpt lat="42.87393" lon="-0.19186">
        <ele>2322.4</ele>
        <time>2026-07-15T09:02:21Z</time>
      </trkpt>
      <trkpt lat="42.87393" lon="-0.19186">
        <ele>2322.4</ele>
        <time>2026-07-15T09:02:22Z</time>
      </trkpt>
      <trkpt lat="42.87393" lon="-0.19186">
        <ele>2322.4</ele>
        <time>2026-07-15T09:02:23Z</time>
      </trkpt>
      <trkpt lat="42.87393" lon="-0.19186">
        <ele>2322.4</ele>
        <time>2026-07-15T09:02:24Z</time>
      </trkpt>
      <trkpt lat="42.87393" lon="-0.19186">
        <ele>2321.4</ele>
        <time>2026-07-15T09:02:25Z</time>
      </trkpt>
      <trkpt lat="42.87392" lon="-0.19187">
        <ele>2320.4</ele>
        <time>2026-07-15T09:02:26Z</time>
      </trkpt>
      <trkpt lat="42.87392" lon="-0.19188">
        <ele>2321.4</ele>
        <time>2026-07-15T09:02:27Z</time>
      </trkpt>
      <trkpt lat="42.87391" lon="-0.19188">
        <ele>2322.4</ele>
        <time>2026-07-15T09:02:28Z</time>
      </trkpt>
      <trkpt lat="42.87391" lon="-0.19188">
        <ele>2321.4</ele>
        <time>2026-07-15T09:02:29Z</time>
      </trkpt>
      <trkpt lat="42.8739" lon="-0.19188">
        <ele>2321.4</ele>
        <time>2026-07-15T09:02:30Z</time>
      </trkpt>
      <trkpt lat="42.8739" lon="-0.19188">
        <ele>2321.4</ele>
        <time>2026-07-15T09:02:31Z</time>
      </trkpt>
      <trkpt lat="42.8739" lon="-0.19189">
        <ele>2322.4</ele>
        <time>2026-07-15T09:02:32Z</time>
      </trkpt>
      <trkpt lat="42.8739" lon="-0.19188">
        <ele>2323.4</ele>
        <time>2026-07-15T09:02:33Z</time>
      </trkpt>
      <trkpt lat="42.87389" lon="-0.19188">
        <ele>2323.4</ele>
        <time>2026-07-15T09:02:34Z</time>
      </trkpt>
      <trkpt lat="42.87389" lon="-0.19188">
        <ele>2323.4</ele>
        <time>2026-07-15T09:02:35Z</time>
      </trkpt>
      <trkpt lat="42.87389" lon="-0.19188">
        <ele>2324.4</ele>
        <time>2026-07-15T09:02:36Z</time>
      </trkpt>
      <trkpt lat="42.87388" lon="-0.19188">
        <ele>2324.4</ele>
        <time>2026-07-15T09:02:37Z</time>
      </trkpt>
      <trkpt lat="42.87388" lon="-0.19188">
        <ele>2324.4</ele>
        <time>2026-07-15T09:02:38Z</time>
      </trkpt>
      <trkpt lat="42.87388" lon="-0.19188">
        <ele>2324.4</ele>
        <time>2026-07-15T09:02:39Z</time>
      </trkpt>
      <trkpt lat="42.87387" lon="-0.19188">
        <ele>2326.4</ele>
        <time>2026-07-15T09:02:40Z</time>
      </trkpt>
      <trkpt lat="42.87388" lon="-0.19187">
        <ele>2326.4</ele>
        <time>2026-07-15T09:02:41Z</time>
      </trkpt>
      <trkpt lat="42.87387" lon="-0.19188">
        <ele>2325.4</ele>
        <time>2026-07-15T09:02:42Z</time>
      </trkpt>
      <trkpt lat="42.87387" lon="-0.19187">
        <ele>2325.4</ele>
        <time>2026-07-15T09:02:43Z</time>
      </trkpt>
      <trkpt lat="42.87386" lon="-0.19187">
        <ele>2325.4</ele>
        <time>2026-07-15T09:02:44Z</time>
      </trkpt>
      <trkpt lat="42.87386" lon="-0.19187">
        <ele>2326.4</ele>
        <time>2026-07-15T09:02:45Z</time>
      </trkpt>
      <trkpt lat="42.87386" lon="-0.19186">
        <ele>2325.4</ele>
        <time>2026-07-15T09:02:46Z</time>
      </trkpt>
      <trkpt lat="42.87385" lon="-0.19186">
        <ele>2326.4</ele>
        <time>2026-07-15T09:02:47Z</time>
      </trkpt>
      <trkpt lat="42.87384" lon="-0.19185">
        <ele>2326.4</ele>
        <time>2026-07-15T09:02:48Z</time>
      </trkpt>
      <trkpt lat="42.87383" lon="-0.19185">
        <ele>2327.4</ele>
        <time>2026-07-15T09:02:49Z</time>
      </trkpt>
      <trkpt lat="42.87383" lon="-0.19185">
        <ele>2328.4</ele>
        <time>2026-07-15T09:02:50Z</time>
      </trkpt>
      <trkpt lat="42.87383" lon="-0.19185">
        <ele>2328.4</ele>
        <time>2026-07-15T09:02:51Z</time>
      </trkpt>
      <trkpt lat="42.87383" lon="-0.19186">
        <ele>2329.4</ele>
        <time>2026-07-15T09:02:52Z</time>
      </trkpt>
      <trkpt lat="42.87383" lon="-0.19186">
        <ele>2328.4</ele>
        <time>2026-07-15T09:02:53Z</time>
      </trkpt>
      <trkpt lat="42.87383" lon="-0.19186">
        <ele>2328.4</ele>
        <time>2026-07-15T09:02:54Z</time>
      </trkpt>
      <trkpt lat="42.87383" lon="-0.19186">
        <ele>2328.4</ele>
        <time>2026-07-15T09:02:55Z</time>
      </trkpt>
      <trkpt lat="42.87383" lon="-0.19185">
        <ele>2329.4</ele>
        <time>2026-07-15T09:02:56Z</time>
      </trkpt>
      <trkpt lat="42.87383" lon="-0.19186">
        <ele>2329.4</ele>
        <time>2026-07-15T09:02:57Z</time>
      </trkpt>
      <trkpt lat="42.87383" lon="-0.19185">
        <ele>2329.4</ele>
        <time>2026-07-15T09:02:58Z</time>
      </trkpt>
      <trkpt lat="42.87382" lon="-0.19185">
        <ele>2329.4</ele>
        <time>2026-07-15T09:02:59Z</time>
      </trkpt>
      <trkpt lat="42.87382" lon="-0.19185">
        <ele>2330.4</ele>
        <time>2026-07-15T09:03:00Z</time>
      </trkpt>
      <trkpt lat="42.87381" lon="-0.19184">
        <ele>2330.4</ele>
        <time>2026-07-15T09:03:01Z</time>
      </trkpt>
      <trkpt lat="42.8738" lon="-0.19183">
        <ele>2330.4</ele>
        <time>2026-07-15T09:03:02Z</time>
      </trkpt>
      <trkpt lat="42.87379" lon="-0.19183">
        <ele>2331.4</ele>
        <time>2026-07-15T09:03:03Z</time>
      </trkpt>
      <trkpt lat="42.87379" lon="-0.19183">
        <ele>2331.4</ele>
        <time>2026-07-15T09:03:04Z</time>
      </trkpt>
      <trkpt lat="42.87378" lon="-0.19182">
        <ele>2330.4</ele>
        <time>2026-07-15T09:03:05Z</time>
      </trkpt>
      <trkpt lat="42.87377" lon="-0.19182">
        <ele>2331.4</ele>
        <time>2026-07-15T09:03:06Z</time>
      </trkpt>
      <trkpt lat="42.87376" lon="-0.19181">
        <ele>2331.4</ele>
        <time>2026-07-15T09:03:07Z</time>
      </trkpt>
      <trkpt lat="42.87377" lon="-0.19181">
        <ele>2330.4</ele>
        <time>2026-07-15T09:03:08Z</time>
      </trkpt>
      <trkpt lat="42.87377" lon="-0.1918">
        <ele>2330.4</ele>
        <time>2026-07-15T09:03:09Z</time>
      </trkpt>
      <trkpt lat="42.87377" lon="-0.1918">
        <ele>2330.4</ele>
        <time>2026-07-15T09:03:10Z</time>
      </trkpt>
      <trkpt lat="42.87377" lon="-0.1918">
        <ele>2330.4</ele>
        <time>2026-07-15T09:03:11Z</time>
      </trkpt>
      <trkpt lat="42.87376" lon="-0.1918">
        <ele>2330.4</ele>
        <time>2026-07-15T09:03:12Z</time>
      </trkpt>
      <trkpt lat="42.87375" lon="-0.1918">
        <ele>2331.4</ele>
        <time>2026-07-15T09:03:13Z</time>
      </trkpt>
      <trkpt lat="42.87374" lon="-0.1918">
        <ele>2331.4</ele>
        <time>2026-07-15T09:03:14Z</time>
      </trkpt>
      <trkpt lat="42.87374" lon="-0.1918">
        <ele>2331.4</ele>
        <time>2026-07-15T09:03:15Z</time>
      </trkpt>
      <trkpt lat="42.87373" lon="-0.1918">
        <ele>2331.4</ele>
        <time>2026-07-15T09:03:16Z</time>
      </trkpt>
      <trkpt lat="42.87373" lon="-0.19181">
        <ele>2332.4</ele>
        <time>2026-07-15T09:03:17Z</time>
      </trkpt>
      <trkpt lat="42.87373" lon="-0.19181">
        <ele>2332.4</ele>
        <time>2026-07-15T09:03:18Z</time>
      </trkpt>
      <trkpt lat="42.87373" lon="-0.19181">
        <ele>2332.4</ele>
        <time>2026-07-15T09:03:19Z</time>
      </trkpt>
      <trkpt lat="42.87373" lon="-0.19181">
        <ele>2332.4</ele>
        <time>2026-07-15T09:03:20Z</time>
      </trkpt>
      <trkpt lat="42.87372" lon="-0.19181">
        <ele>2332.4</ele>
        <time>2026-07-15T09:03:21Z</time>
      </trkpt>
      <trkpt lat="42.87372" lon="-0.19182">
        <ele>2332.4</ele>
        <time>2026-07-15T09:03:22Z</time>
      </trkpt>
      <trkpt lat="42.87371" lon="-0.19181">
        <ele>2332.4</ele>
        <time>2026-07-15T09:03:23Z</time>
      </trkpt>
      <trkpt lat="42.8737" lon="-0.19181">
        <ele>2333.4</ele>
        <time>2026-07-15T09:03:24Z</time>
      </trkpt>
      <trkpt lat="42.8737" lon="-0.19181">
        <ele>2333.4</ele>
        <time>2026-07-15T09:03:25Z</time>
      </trkpt>
      <trkpt lat="42.87369" lon="-0.19181">
        <ele>2333.4</ele>
        <time>2026-07-15T09:03:26Z</time>
      </trkpt>
      <trkpt lat="42.87369" lon="-0.19181">
        <ele>2331.4</ele>
        <time>2026-07-15T09:03:27Z</time>
      </trkpt>
      <trkpt lat="42.87368" lon="-0.19181">
        <ele>2332.4</ele>
        <time>2026-07-15T09:03:28Z</time>
      </trkpt>
      <trkpt lat="42.87368" lon="-0.19181">
        <ele>2331.4</ele>
        <time>2026-07-15T09:03:29Z</time>
      </trkpt>
      <trkpt lat="42.87367" lon="-0.19181">
        <ele>2331.4</ele>
        <time>2026-07-15T09:03:30Z</time>
      </trkpt>
      <trkpt lat="42.87366" lon="-0.19181">
        <ele>2331.4</ele>
        <time>2026-07-15T09:03:31Z</time>
      </trkpt>
      <trkpt lat="42.87365" lon="-0.19182">
        <ele>2331.4</ele>
        <time>2026-07-15T09:03:32Z</time>
      </trkpt>
      <trkpt lat="42.87364" lon="-0.19182">
        <ele>2330.4</ele>
        <time>2026-07-15T09:03:33Z</time>
      </trkpt>
      <trkpt lat="42.87364" lon="-0.19182">
        <ele>2330.4</ele>
        <time>2026-07-15T09:03:34Z</time>
      </trkpt>
      <trkpt lat="42.87364" lon="-0.19183">
        <ele>2329.4</ele>
        <time>2026-07-15T09:03:35Z</time>
      </trkpt>
      <trkpt lat="42.87364" lon="-0.19183">
        <ele>2329.4</ele>
        <time>2026-07-15T09:03:36Z</time>
      </trkpt>
      <trkpt lat="42.87364" lon="-0.19183">
        <ele>2328.4</ele>
        <time>2026-07-15T09:03:37Z</time>
      </trkpt>
      <trkpt lat="42.87364" lon="-0.19183">
        <ele>2329.4</ele>
        <time>2026-07-15T09:03:38Z</time>
      </trkpt>
      <trkpt lat="42.87363" lon="-0.19183">
        <ele>2329.4</ele>
        <time>2026-07-15T09:03:39Z</time>
      </trkpt>
      <trkpt lat="42.87363" lon="-0.19183">
        <ele>2329.4</ele>
        <time>2026-07-15T09:03:40Z</time>
      </trkpt>
      <trkpt lat="42.87363" lon="-0.19183">
        <ele>2329.4</ele>
        <time>2026-07-15T09:03:41Z</time>
      </trkpt>
      <trkpt lat="42.87363" lon="-0.19183">
        <ele>2329.4</ele>
        <time>2026-07-15T09:03:42Z</time>
      </trkpt>
      <trkpt lat="42.87363" lon="-0.19184">
        <ele>2330.4</ele>
        <time>2026-07-15T09:03:43Z</time>
      </trkpt>
      <trkpt lat="42.87362" lon="-0.19184">
        <ele>2330.4</ele>
        <time>2026-07-15T09:03:44Z</time>
      </trkpt>
      <trkpt lat="42.87362" lon="-0.19184">
        <ele>2332.4</ele>
        <time>2026-07-15T09:03:45Z</time>
      </trkpt>
      <trkpt lat="42.87362" lon="-0.19184">
        <ele>2332.4</ele>
        <time>2026-07-15T09:03:46Z</time>
      </trkpt>
      <trkpt lat="42.87362" lon="-0.19184">
        <ele>2332.4</ele>
        <time>2026-07-15T09:03:47Z</time>
      </trkpt>
      <trkpt lat="42.87361" lon="-0.19184">
        <ele>2332.4</ele>
        <time>2026-07-15T09:03:48Z</time>
      </trkpt>
      <trkpt lat="42.87361" lon="-0.19184">
        <ele>2333.4</ele>
        <time>2026-07-15T09:03:49Z</time>
      </trkpt>
      <trkpt lat="42.87361" lon="-0.19184">
        <ele>2333.4</ele>
        <time>2026-07-15T09:03:50Z</time>
      </trkpt>
      <trkpt lat="42.87361" lon="-0.19184">
        <ele>2333.4</ele>
        <time>2026-07-15T09:03:50Z</time>
      </trkpt>
      <trkpt lat="42.8736" lon="-0.19184">
        <ele>2334.4</ele>
        <time>2026-07-15T09:03:51Z</time>
      </trkpt>
      <trkpt lat="42.8736" lon="-0.19184">
        <ele>2335.4</ele>
        <time>2026-07-15T09:03:52Z</time>
      </trkpt>
      <trkpt lat="42.87359" lon="-0.19185">
        <ele>2335.4</ele>
        <time>2026-07-15T09:03:53Z</time>
      </trkpt>
      <trkpt lat="42.87359" lon="-0.19185">
        <ele>2335.4</ele>
        <time>2026-07-15T09:03:54Z</time>
      </trkpt>
      <trkpt lat="42.87359" lon="-0.19185">
        <ele>2335.4</ele>
        <time>2026-07-15T09:03:55Z</time>
      </trkpt>
      <trkpt lat="42.87359" lon="-0.19186">
        <ele>2336.4</ele>
        <time>2026-07-15T09:03:56Z</time>
      </trkpt>
      <trkpt lat="42.87359" lon="-0.19186">
        <ele>2335.4</ele>
        <time>2026-07-15T09:03:57Z</time>
      </trkpt>
      <trkpt lat="42.87357" lon="-0.19186">
        <ele>2335.4</ele>
        <time>2026-07-15T09:03:58Z</time>
      </trkpt>
      <trkpt lat="42.87357" lon="-0.19186">
        <ele>2335.4</ele>
        <time>2026-07-15T09:03:59Z</time>
      </trkpt>
      <trkpt lat="42.87356" lon="-0.19186">
        <ele>2336.4</ele>
        <time>2026-07-15T09:04:00Z</time>
      </trkpt>
      <trkpt lat="42.87356" lon="-0.19186">
        <ele>2336.4</ele>
        <time>2026-07-15T09:04:01Z</time>
      </trkpt>
      <trkpt lat="42.87356" lon="-0.19186">
        <ele>2336.4</ele>
        <time>2026-07-15T09:04:02Z</time>
      </trkpt>
      <trkpt lat="42.87356" lon="-0.19187">
        <ele>2336.4</ele>
        <time>2026-07-15T09:04:03Z</time>
      </trkpt>
      <trkpt lat="42.87356" lon="-0.19188">
        <ele>2336.4</ele>
        <time>2026-07-15T09:04:04Z</time>
      </trkpt>
      <trkpt lat="42.87356" lon="-0.19188">
        <ele>2337.4</ele>
        <time>2026-07-15T09:04:05Z</time>
      </trkpt>
      <trkpt lat="42.87356" lon="-0.19188">
        <ele>2337.4</ele>
        <time>2026-07-15T09:04:06Z</time>
      </trkpt>
      <trkpt lat="42.87356" lon="-0.19189">
        <ele>2336.4</ele>
        <time>2026-07-15T09:04:07Z</time>
      </trkpt>
      <trkpt lat="42.87355" lon="-0.19189">
        <ele>2337.4</ele>
        <time>2026-07-15T09:04:08Z</time>
      </trkpt>
      <trkpt lat="42.87355" lon="-0.19189">
        <ele>2337.4</ele>
        <time>2026-07-15T09:04:09Z</time>
      </trkpt>
      <trkpt lat="42.87355" lon="-0.19189">
        <ele>2337.4</ele>
        <time>2026-07-15T09:04:10Z</time>
      </trkpt>
      <trkpt lat="42.87355" lon="-0.19189">
        <ele>2337.4</ele>
        <time>2026-07-15T09:04:11Z</time>
      </trkpt>
      <trkpt lat="42.87355" lon="-0.19189">
        <ele>2337.4</ele>
        <time>2026-07-15T09:04:12Z</time>
      </trkpt>
      <trkpt lat="42.87355" lon="-0.19189">
        <ele>2337.4</ele>
        <time>2026-07-15T09:04:13Z</time>
      </trkpt>
      <trkpt lat="42.87355" lon="-0.19189">
        <ele>2337.4</ele>
        <time>2026-07-15T09:04:14Z</time>
      </trkpt>
      <trkpt lat="42.87355" lon="-0.19189">
        <ele>2338.4</ele>
        <time>2026-07-15T09:04:15Z</time>
      </trkpt>
      <trkpt lat="42.87354" lon="-0.19189">
        <ele>2339.4</ele>
        <time>2026-07-15T09:04:16Z</time>
      </trkpt>
      <trkpt lat="42.87353" lon="-0.19189">
        <ele>2338.4</ele>
        <time>2026-07-15T09:04:17Z</time>
      </trkpt>
      <trkpt lat="42.87352" lon="-0.19189">
        <ele>2339.4</ele>
        <time>2026-07-15T09:04:18Z</time>
      </trkpt>
      <trkpt lat="42.87352" lon="-0.19189">
        <ele>2339.4</ele>
        <time>2026-07-15T09:04:19Z</time>
      </trkpt>
      <trkpt lat="42.87352" lon="-0.1919">
        <ele>2340.4</ele>
        <time>2026-07-15T09:04:20Z</time>
      </trkpt>
      <trkpt lat="42.87351" lon="-0.19191">
        <ele>2339.4</ele>
        <time>2026-07-15T09:04:21Z</time>
      </trkpt>
      <trkpt lat="42.8735" lon="-0.19191">
        <ele>2340.4</ele>
        <time>2026-07-15T09:04:22Z</time>
      </trkpt>
      <trkpt lat="42.8735" lon="-0.19192">
        <ele>2340.4</ele>
        <time>2026-07-15T09:04:23Z</time>
      </trkpt>
      <trkpt lat="42.87349" lon="-0.19192">
        <ele>2340.4</ele>
        <time>2026-07-15T09:04:24Z</time>
      </trkpt>
      <trkpt lat="42.8735" lon="-0.19192">
        <ele>2340.4</ele>
        <time>2026-07-15T09:04:25Z</time>
      </trkpt>
      <trkpt lat="42.87349" lon="-0.19193">
        <ele>2340.4</ele>
        <time>2026-07-15T09:04:26Z</time>
      </trkpt>
      <trkpt lat="42.87349" lon="-0.19193">
        <ele>2341.4</ele>
        <time>2026-07-15T09:04:27Z</time>
      </trkpt>
      <trkpt lat="42.8735" lon="-0.19193">
        <ele>2341.4</ele>
        <time>2026-07-15T09:04:28Z</time>
      </trkpt>
      <trkpt lat="42.8735" lon="-0.19193">
        <ele>2341.4</ele>
        <time>2026-07-15T09:04:29Z</time>
      </trkpt>
      <trkpt lat="42.8735" lon="-0.19193">
        <ele>2342.4</ele>
        <time>2026-07-15T09:04:30Z</time>
      </trkpt>
      <trkpt lat="42.8735" lon="-0.19194">
        <ele>2343.4</ele>
        <time>2026-07-15T09:04:31Z</time>
      </trkpt>
      <trkpt lat="42.87349" lon="-0.19194">
        <ele>2341.4</ele>
        <time>2026-07-15T09:04:32Z</time>
      </trkpt>
      <trkpt lat="42.87349" lon="-0.19194">
        <ele>2341.4</ele>
        <time>2026-07-15T09:04:33Z</time>
      </trkpt>
      <trkpt lat="42.87349" lon="-0.19194">
        <ele>2341.4</ele>
        <time>2026-07-15T09:04:34Z</time>
      </trkpt>
      <trkpt lat="42.87349" lon="-0.19194">
        <ele>2341.4</ele>
        <time>2026-07-15T09:04:35Z</time>
      </trkpt>
      <trkpt lat="42.87349" lon="-0.19194">
        <ele>2341.4</ele>
        <time>2026-07-15T09:04:36Z</time>
      </trkpt>
      <trkpt lat="42.87347" lon="-0.19195">
        <ele>2341.4</ele>
        <time>2026-07-15T09:04:37Z</time>
      </trkpt>
      <trkpt lat="42.87346" lon="-0.19196">
        <ele>2340.4</ele>
        <time>2026-07-15T09:04:38Z</time>
      </trkpt>
      <trkpt lat="42.87346" lon="-0.19196">
        <ele>2341.4</ele>
        <time>2026-07-15T09:04:39Z</time>
      </trkpt>
      <trkpt lat="42.87345" lon="-0.19197">
        <ele>2342.4</ele>
        <time>2026-07-15T09:04:40Z</time>
      </trkpt>
      <trkpt lat="42.87345" lon="-0.19198">
        <ele>2343.4</ele>
        <time>2026-07-15T09:04:41Z</time>
      </trkpt>
      <trkpt lat="42.87345" lon="-0.19198">
        <ele>2343.4</ele>
        <time>2026-07-15T09:04:42Z</time>
      </trkpt>
      <trkpt lat="42.87345" lon="-0.19198">
        <ele>2343.4</ele>
        <time>2026-07-15T09:04:43Z</time>
      </trkpt>
      <trkpt lat="42.87345" lon="-0.19198">
        <ele>2343.4</ele>
        <time>2026-07-15T09:04:43Z</time>
      </trkpt>
      <trkpt lat="42.87345" lon="-0.19198">
        <ele>2343.4</ele>
        <time>2026-07-15T09:04:44Z</time>
      </trkpt>
      <trkpt lat="42.87345" lon="-0.19199">
        <ele>2343.4</ele>
        <time>2026-07-15T09:04:45Z</time>
      </trkpt>
      <trkpt lat="42.87344" lon="-0.19199">
        <ele>2344.4</ele>
        <time>2026-07-15T09:04:46Z</time>
      </trkpt>
      <trkpt lat="42.87344" lon="-0.19199">
        <ele>2344.4</ele>
        <time>2026-07-15T09:04:47Z</time>
      </trkpt>
      <trkpt lat="42.87344" lon="-0.192">
        <ele>2344.4</ele>
        <time>2026-07-15T09:04:48Z</time>
      </trkpt>
      <trkpt lat="42.87343" lon="-0.19201">
        <ele>2344.4</ele>
        <time>2026-07-15T09:04:49Z</time>
      </trkpt>
      <trkpt lat="42.87343" lon="-0.19201">
        <ele>2344.4</ele>
        <time>2026-07-15T09:04:50Z</time>
      </trkpt>
      <trkpt lat="42.87343" lon="-0.19202">
        <ele>2344.4</ele>
        <time>2026-07-15T09:04:51Z</time>
      </trkpt>
      <trkpt lat="42.87342" lon="-0.19203">
        <ele>2344.4</ele>
        <time>2026-07-15T09:04:52Z</time>
      </trkpt>
      <trkpt lat="42.87342" lon="-0.19204">
        <ele>2345.4</ele>
        <time>2026-07-15T09:04:53Z</time>
      </trkpt>
      <trkpt lat="42.87342" lon="-0.19204">
        <ele>2345.4</ele>
        <time>2026-07-15T09:04:54Z</time>
      </trkpt>
      <trkpt lat="42.87342" lon="-0.19204">
        <ele>2345.4</ele>
        <time>2026-07-15T09:04:55Z</time>
      </trkpt>
      <trkpt lat="42.87342" lon="-0.19205">
        <ele>2345.4</ele>
        <time>2026-07-15T09:04:56Z</time>
      </trkpt>
      <trkpt lat="42.87342" lon="-0.19205">
        <ele>2345.4</ele>
        <time>2026-07-15T09:04:57Z</time>
      </trkpt>
      <trkpt lat="42.87342" lon="-0.19205">
        <ele>2345.4</ele>
        <time>2026-07-15T09:04:57Z</time>
      </trkpt>
      <trkpt lat="42.87342" lon="-0.19205">
        <ele>2343.4</ele>
        <time>2026-07-15T09:04:58Z</time>
      </trkpt>
      <trkpt lat="42.87342" lon="-0.19206">
        <ele>2343.4</ele>
        <time>2026-07-15T09:04:59Z</time>
      </trkpt>
      <trkpt lat="42.87341" lon="-0.19206">
        <ele>2344.4</ele>
        <time>2026-07-15T09:05:00Z</time>
      </trkpt>
      <trkpt lat="42.87341" lon="-0.19207">
        <ele>2343.4</ele>
        <time>2026-07-15T09:05:01Z</time>
      </trkpt>
      <trkpt lat="42.87341" lon="-0.19207">
        <ele>2344.4</ele>
        <time>2026-07-15T09:05:01Z</time>
      </trkpt>
      <trkpt lat="42.87341" lon="-0.19208">
        <ele>2344.4</ele>
        <time>2026-07-15T09:05:02Z</time>
      </trkpt>
      <trkpt lat="42.87341" lon="-0.19208">
        <ele>2344.4</ele>
        <time>2026-07-15T09:05:03Z</time>
      </trkpt>
      <trkpt lat="42.87341" lon="-0.19209">
        <ele>2344.4</ele>
        <time>2026-07-15T09:05:04Z</time>
      </trkpt>
      <trkpt lat="42.87342" lon="-0.19209">
        <ele>2345.4</ele>
        <time>2026-07-15T09:05:05Z</time>
      </trkpt>
      <trkpt lat="42.87342" lon="-0.1921">
        <ele>2346.4</ele>
        <time>2026-07-15T09:05:06Z</time>
      </trkpt>
      <trkpt lat="42.87342" lon="-0.1921">
        <ele>2346.4</ele>
        <time>2026-07-15T09:05:07Z</time>
      </trkpt>
      <trkpt lat="42.87342" lon="-0.19211">
        <ele>2345.4</ele>
        <time>2026-07-15T09:05:08Z</time>
      </trkpt>
      <trkpt lat="42.87342" lon="-0.19212">
        <ele>2346.4</ele>
        <time>2026-07-15T09:05:09Z</time>
      </trkpt>
      <trkpt lat="42.87342" lon="-0.19212">
        <ele>2346.4</ele>
        <time>2026-07-15T09:05:10Z</time>
      </trkpt>
      <trkpt lat="42.87342" lon="-0.19213">
        <ele>2345.4</ele>
        <time>2026-07-15T09:05:11Z</time>
      </trkpt>
      <trkpt lat="42.87342" lon="-0.19214">
        <ele>2344.4</ele>
        <time>2026-07-15T09:05:12Z</time>
      </trkpt>
      <trkpt lat="42.87342" lon="-0.19214">
        <ele>2344.4</ele>
        <time>2026-07-15T09:05:13Z</time>
      </trkpt>
      <trkpt lat="42.87342" lon="-0.19214">
        <ele>2344.4</ele>
        <time>2026-07-15T09:05:14Z</time>
      </trkpt>
      <trkpt lat="42.87342" lon="-0.19215">
        <ele>2345.4</ele>
        <time>2026-07-15T09:05:15Z</time>
      </trkpt>
      <trkpt lat="42.87342" lon="-0.19216">
        <ele>2346.4</ele>
        <time>2026-07-15T09:05:16Z</time>
      </trkpt>
      <trkpt lat="42.87343" lon="-0.19216">
        <ele>2346.4</ele>
        <time>2026-07-15T09:05:17Z</time>
      </trkpt>
      <trkpt lat="42.87343" lon="-0.19217">
        <ele>2347.4</ele>
        <time>2026-07-15T09:05:18Z</time>
      </trkpt>
      <trkpt lat="42.87343" lon="-0.19218">
        <ele>2347.4</ele>
        <time>2026-07-15T09:05:19Z</time>
      </trkpt>
      <trkpt lat="42.87343" lon="-0.19219">
        <ele>2347.4</ele>
        <time>2026-07-15T09:05:20Z</time>
      </trkpt>
      <trkpt lat="42.87343" lon="-0.19219">
        <ele>2348.4</ele>
        <time>2026-07-15T09:05:21Z</time>
      </trkpt>
      <trkpt lat="42.87343" lon="-0.1922">
        <ele>2348.4</ele>
        <time>2026-07-15T09:05:22Z</time>
      </trkpt>
      <trkpt lat="42.87342" lon="-0.19221">
        <ele>2347.4</ele>
        <time>2026-07-15T09:05:23Z</time>
      </trkpt>
      <trkpt lat="42.87342" lon="-0.19222">
        <ele>2347.4</ele>
        <time>2026-07-15T09:05:24Z</time>
      </trkpt>
      <trkpt lat="42.87342" lon="-0.19222">
        <ele>2346.4</ele>
        <time>2026-07-15T09:05:25Z</time>
      </trkpt>
      <trkpt lat="42.87341" lon="-0.19222">
        <ele>2346.4</ele>
        <time>2026-07-15T09:05:26Z</time>
      </trkpt>
      <trkpt lat="42.87341" lon="-0.19223">
        <ele>2346.4</ele>
        <time>2026-07-15T09:05:26Z</time>
      </trkpt>
      <trkpt lat="42.87341" lon="-0.19224">
        <ele>2346.4</ele>
        <time>2026-07-15T09:05:27Z</time>
      </trkpt>
      <trkpt lat="42.87341" lon="-0.19224">
        <ele>2346.4</ele>
        <time>2026-07-15T09:05:28Z</time>
      </trkpt>
      <trkpt lat="42.87341" lon="-0.19225">
        <ele>2346.4</ele>
        <time>2026-07-15T09:05:29Z</time>
      </trkpt>
      <trkpt lat="42.87342" lon="-0.19226">
        <ele>2346.4</ele>
        <time>2026-07-15T09:05:29Z</time>
      </trkpt>
      <trkpt lat="42.87342" lon="-0.19226">
        <ele>2346.4</ele>
        <time>2026-07-15T09:05:30Z</time>
      </trkpt>
      <trkpt lat="42.87342" lon="-0.19227">
        <ele>2347.4</ele>
        <time>2026-07-15T09:05:31Z</time>
      </trkpt>
      <trkpt lat="42.87342" lon="-0.19227">
        <ele>2347.4</ele>
        <time>2026-07-15T09:05:32Z</time>
      </trkpt>
      <trkpt lat="42.87342" lon="-0.19228">
        <ele>2347.4</ele>
        <time>2026-07-15T09:05:33Z</time>
      </trkpt>
      <trkpt lat="42.87342" lon="-0.19229">
        <ele>2347.4</ele>
        <time>2026-07-15T09:05:34Z</time>
      </trkpt>
      <trkpt lat="42.87342" lon="-0.19229">
        <ele>2347.4</ele>
        <time>2026-07-15T09:05:35Z</time>
      </trkpt>
      <trkpt lat="42.87342" lon="-0.19229">
        <ele>2347.4</ele>
        <time>2026-07-15T09:05:36Z</time>
      </trkpt>
      <trkpt lat="42.87342" lon="-0.19229">
        <ele>2347.4</ele>
        <time>2026-07-15T09:05:37Z</time>
      </trkpt>
      <trkpt lat="42.87342" lon="-0.19229">
        <ele>2347.4</ele>
        <time>2026-07-15T09:05:38Z</time>
      </trkpt>
      <trkpt lat="42.87342" lon="-0.19229">
        <ele>2347.4</ele>
        <time>2026-07-15T09:05:39Z</time>
      </trkpt>
      <trkpt lat="42.87342" lon="-0.1923">
        <ele>2348.4</ele>
        <time>2026-07-15T09:05:39Z</time>
      </trkpt>
      <trkpt lat="42.87342" lon="-0.1923">
        <ele>2348.4</ele>
        <time>2026-07-15T09:05:40Z</time>
      </trkpt>
      <trkpt lat="42.87342" lon="-0.1923">
        <ele>2347.4</ele>
        <time>2026-07-15T09:05:41Z</time>
      </trkpt>
      <trkpt lat="42.87342" lon="-0.1923">
        <ele>2347.4</ele>
        <time>2026-07-15T09:05:42Z</time>
      </trkpt>
      <trkpt lat="42.87343" lon="-0.19231">
        <ele>2347.4</ele>
        <time>2026-07-15T09:05:43Z</time>
      </trkpt>
      <trkpt lat="42.87343" lon="-0.19231">
        <ele>2347.4</ele>
        <time>2026-07-15T09:05:44Z</time>
      </trkpt>
      <trkpt lat="42.87343" lon="-0.19231">
        <ele>2348.4</ele>
        <time>2026-07-15T09:05:45Z</time>
      </trkpt>
      <trkpt lat="42.87343" lon="-0.19232">
        <ele>2347.4</ele>
        <time>2026-07-15T09:05:46Z</time>
      </trkpt>
      <trkpt lat="42.87343" lon="-0.19232">
        <ele>2348.4</ele>
        <time>2026-07-15T09:05:47Z</time>
      </trkpt>
      <trkpt lat="42.87343" lon="-0.19233">
        <ele>2349.4</ele>
        <time>2026-07-15T09:05:48Z</time>
      </trkpt>
      <trkpt lat="42.87343" lon="-0.19233">
        <ele>2350.4</ele>
        <time>2026-07-15T09:05:49Z</time>
      </trkpt>
      <trkpt lat="42.87343" lon="-0.19233">
        <ele>2351.4</ele>
        <time>2026-07-15T09:05:50Z</time>
      </trkpt>
      <trkpt lat="42.87343" lon="-0.19233">
        <ele>2351.4</ele>
        <time>2026-07-15T09:05:51Z</time>
      </trkpt>
      <trkpt lat="42.87343" lon="-0.19234">
        <ele>2351.4</ele>
        <time>2026-07-15T09:05:52Z</time>
      </trkpt>
      <trkpt lat="42.87343" lon="-0.19234">
        <ele>2351.4</ele>
        <time>2026-07-15T09:05:53Z</time>
      </trkpt>
      <trkpt lat="42.87343" lon="-0.19235">
        <ele>2352.4</ele>
        <time>2026-07-15T09:05:54Z</time>
      </trkpt>
      <trkpt lat="42.87343" lon="-0.19235">
        <ele>2352.4</ele>
        <time>2026-07-15T09:05:55Z</time>
      </trkpt>
      <trkpt lat="42.87343" lon="-0.19236">
        <ele>2352.4</ele>
        <time>2026-07-15T09:05:55Z</time>
      </trkpt>
      <trkpt lat="42.87343" lon="-0.19236">
        <ele>2352.4</ele>
        <time>2026-07-15T09:05:56Z</time>
      </trkpt>
      <trkpt lat="42.87344" lon="-0.19237">
        <ele>2353.4</ele>
        <time>2026-07-15T09:05:57Z</time>
      </trkpt>
      <trkpt lat="42.87344" lon="-0.19237">
        <ele>2353.4</ele>
        <time>2026-07-15T09:05:58Z</time>
      </trkpt>
      <trkpt lat="42.87344" lon="-0.19238">
        <ele>2353.4</ele>
        <time>2026-07-15T09:05:59Z</time>
      </trkpt>
      <trkpt lat="42.87344" lon="-0.19238">
        <ele>2353.4</ele>
        <time>2026-07-15T09:05:59Z</time>
      </trkpt>
      <trkpt lat="42.87343" lon="-0.19239">
        <ele>2352.4</ele>
        <time>2026-07-15T09:06:00Z</time>
      </trkpt>
      <trkpt lat="42.87343" lon="-0.1924">
        <ele>2352.4</ele>
        <time>2026-07-15T09:06:01Z</time>
      </trkpt>
      <trkpt lat="42.87343" lon="-0.1924">
        <ele>2352.4</ele>
        <time>2026-07-15T09:06:02Z</time>
      </trkpt>
      <trkpt lat="42.87343" lon="-0.19241">
        <ele>2352.4</ele>
        <time>2026-07-15T09:06:03Z</time>
      </trkpt>
      <trkpt lat="42.87343" lon="-0.19242">
        <ele>2352.4</ele>
        <time>2026-07-15T09:06:04Z</time>
      </trkpt>
      <trkpt lat="42.87344" lon="-0.19242">
        <ele>2352.4</ele>
        <time>2026-07-15T09:06:05Z</time>
      </trkpt>
      <trkpt lat="42.87344" lon="-0.19242">
        <ele>2352.4</ele>
        <time>2026-07-15T09:06:05Z</time>
      </trkpt>
      <trkpt lat="42.87344" lon="-0.19243">
        <ele>2352.4</ele>
        <time>2026-07-15T09:06:06Z</time>
      </trkpt>
      <trkpt lat="42.87344" lon="-0.19243">
        <ele>2352.4</ele>
        <time>2026-07-15T09:06:07Z</time>
      </trkpt>
      <trkpt lat="42.87344" lon="-0.19244">
        <ele>2352.4</ele>
        <time>2026-07-15T09:06:08Z</time>
      </trkpt>
      <trkpt lat="42.87344" lon="-0.19244">
        <ele>2352.4</ele>
        <time>2026-07-15T09:06:08Z</time>
      </trkpt>
      <trkpt lat="42.87344" lon="-0.19244">
        <ele>2353.4</ele>
        <time>2026-07-15T09:06:09Z</time>
      </trkpt>
      <trkpt lat="42.87344" lon="-0.19245">
        <ele>2353.4</ele>
        <time>2026-07-15T09:06:10Z</time>
      </trkpt>
      <trkpt lat="42.87344" lon="-0.19245">
        <ele>2354.4</ele>
        <time>2026-07-15T09:06:11Z</time>
      </trkpt>
      <trkpt lat="42.87344" lon="-0.19245">
        <ele>2354.4</ele>
        <time>2026-07-15T09:06:12Z</time>
      </trkpt>
      <trkpt lat="42.87344" lon="-0.19245">
        <ele>2354.4</ele>
        <time>2026-07-15T09:06:12Z</time>
      </trkpt>
      <trkpt lat="42.87346" lon="-0.19246">
        <ele>2355.4</ele>
        <time>2026-07-15T09:06:13Z</time>
      </trkpt>
      <trkpt lat="42.87346" lon="-0.19246">
        <ele>2355.4</ele>
        <time>2026-07-15T09:06:14Z</time>
      </trkpt>
      <trkpt lat="42.87346" lon="-0.19248">
        <ele>2355.4</ele>
        <time>2026-07-15T09:06:15Z</time>
      </trkpt>
      <trkpt lat="42.87345" lon="-0.1925">
        <ele>2356.4</ele>
        <time>2026-07-15T09:06:16Z</time>
      </trkpt>
      <trkpt lat="42.87345" lon="-0.19249">
        <ele>2356.4</ele>
        <time>2026-07-15T09:06:17Z</time>
      </trkpt>
      <trkpt lat="42.87345" lon="-0.1925">
        <ele>2356.4</ele>
        <time>2026-07-15T09:06:18Z</time>
      </trkpt>
      <trkpt lat="42.87346" lon="-0.1925">
        <ele>2356.4</ele>
        <time>2026-07-15T09:06:19Z</time>
      </trkpt>
      <trkpt lat="42.87346" lon="-0.19251">
        <ele>2356.4</ele>
        <time>2026-07-15T09:06:20Z</time>
      </trkpt>
      <trkpt lat="42.87346" lon="-0.19251">
        <ele>2356.4</ele>
        <time>2026-07-15T09:06:21Z</time>
      </trkpt>
      <trkpt lat="42.87346" lon="-0.19251">
        <ele>2356.4</ele>
        <time>2026-07-15T09:06:22Z</time>
      </trkpt>
      <trkpt lat="42.87347" lon="-0.19252">
        <ele>2357.4</ele>
        <time>2026-07-15T09:06:23Z</time>
      </trkpt>
      <trkpt lat="42.87347" lon="-0.19253">
        <ele>2357.4</ele>
        <time>2026-07-15T09:06:24Z</time>
      </trkpt>
      <trkpt lat="42.87347" lon="-0.19254">
        <ele>2357.4</ele>
        <time>2026-07-15T09:06:25Z</time>
      </trkpt>
      <trkpt lat="42.87347" lon="-0.19253">
        <ele>2357.4</ele>
        <time>2026-07-15T09:06:26Z</time>
      </trkpt>
      <trkpt lat="42.87347" lon="-0.19254">
        <ele>2357.4</ele>
        <time>2026-07-15T09:06:27Z</time>
      </trkpt>
      <trkpt lat="42.87347" lon="-0.19254">
        <ele>2357.4</ele>
        <time>2026-07-15T09:06:28Z</time>
      </trkpt>
      <trkpt lat="42.87348" lon="-0.19255">
        <ele>2357.4</ele>
        <time>2026-07-15T09:06:29Z</time>
      </trkpt>
      <trkpt lat="42.87347" lon="-0.19255">
        <ele>2357.4</ele>
        <time>2026-07-15T09:06:30Z</time>
      </trkpt>
      <trkpt lat="42.87347" lon="-0.19255">
        <ele>2357.4</ele>
        <time>2026-07-15T09:06:31Z</time>
      </trkpt>
      <trkpt lat="42.87347" lon="-0.19255">
        <ele>2357.4</ele>
        <time>2026-07-15T09:06:32Z</time>
      </trkpt>
      <trkpt lat="42.87347" lon="-0.19256">
        <ele>2357.4</ele>
        <time>2026-07-15T09:06:33Z</time>
      </trkpt>
      <trkpt lat="42.87347" lon="-0.19257">
        <ele>2358.4</ele>
        <time>2026-07-15T09:06:34Z</time>
      </trkpt>
      <trkpt lat="42.87347" lon="-0.19258">
        <ele>2358.4</ele>
        <time>2026-07-15T09:06:35Z</time>
      </trkpt>
      <trkpt lat="42.87347" lon="-0.19259">
        <ele>2358.4</ele>
        <time>2026-07-15T09:06:36Z</time>
      </trkpt>
      <trkpt lat="42.87347" lon="-0.19259">
        <ele>2358.4</ele>
        <time>2026-07-15T09:06:37Z</time>
      </trkpt>
      <trkpt lat="42.87347" lon="-0.19259">
        <ele>2358.4</ele>
        <time>2026-07-15T09:06:38Z</time>
      </trkpt>
      <trkpt lat="42.87347" lon="-0.19259">
        <ele>2358.4</ele>
        <time>2026-07-15T09:06:39Z</time>
      </trkpt>
      <trkpt lat="42.87347" lon="-0.19259">
        <ele>2358.4</ele>
        <time>2026-07-15T09:06:40Z</time>
      </trkpt>
      <trkpt lat="42.87346" lon="-0.1926">
        <ele>2358.4</ele>
        <time>2026-07-15T09:06:41Z</time>
      </trkpt>
      <trkpt lat="42.87346" lon="-0.1926">
        <ele>2358.4</ele>
        <time>2026-07-15T09:06:42Z</time>
      </trkpt>
      <trkpt lat="42.87346" lon="-0.19261">
        <ele>2358.4</ele>
        <time>2026-07-15T09:06:43Z</time>
      </trkpt>
      <trkpt lat="42.87346" lon="-0.19261">
        <ele>2358.4</ele>
        <time>2026-07-15T09:06:44Z</time>
      </trkpt>
      <trkpt lat="42.87346" lon="-0.19262">
        <ele>2358.4</ele>
        <time>2026-07-15T09:06:45Z</time>
      </trkpt>
      <trkpt lat="42.87346" lon="-0.19262">
        <ele>2358.4</ele>
        <time>2026-07-15T09:06:46Z</time>
      </trkpt>
      <trkpt lat="42.87345" lon="-0.19262">
        <ele>2358.4</ele>
        <time>2026-07-15T09:06:47Z</time>
      </trkpt>
      <trkpt lat="42.87345" lon="-0.19262">
        <ele>2359.4</ele>
        <time>2026-07-15T09:06:48Z</time>
      </trkpt>
      <trkpt lat="42.87345" lon="-0.19261">
        <ele>2360.4</ele>
        <time>2026-07-15T09:06:49Z</time>
      </trkpt>
      <trkpt lat="42.87346" lon="-0.19262">
        <ele>2359.4</ele>
        <time>2026-07-15T09:06:50Z</time>
      </trkpt>
      <trkpt lat="42.87346" lon="-0.19263">
        <ele>2359.4</ele>
        <time>2026-07-15T09:06:51Z</time>
      </trkpt>
      <trkpt lat="42.87346" lon="-0.19263">
        <ele>2359.4</ele>
        <time>2026-07-15T09:06:52Z</time>
      </trkpt>
      <trkpt lat="42.87346" lon="-0.19263">
        <ele>2359.4</ele>
        <time>2026-07-15T09:06:53Z</time>
      </trkpt>
      <trkpt lat="42.87346" lon="-0.19263">
        <ele>2359.4</ele>
        <time>2026-07-15T09:06:54Z</time>
      </trkpt>
      <trkpt lat="42.87346" lon="-0.19263">
        <ele>2359.4</ele>
        <time>2026-07-15T09:06:55Z</time>
      </trkpt>
      <trkpt lat="42.87345" lon="-0.19263">
        <ele>2360.4</ele>
        <time>2026-07-15T09:06:56Z</time>
      </trkpt>
      <trkpt lat="42.87345" lon="-0.19264">
        <ele>2360.4</ele>
        <time>2026-07-15T09:06:57Z</time>
      </trkpt>
      <trkpt lat="42.87345" lon="-0.19264">
        <ele>2360.4</ele>
        <time>2026-07-15T09:06:58Z</time>
      </trkpt>
      <trkpt lat="42.87346" lon="-0.19264">
        <ele>2361.4</ele>
        <time>2026-07-15T09:06:59Z</time>
      </trkpt>
      <trkpt lat="42.87346" lon="-0.19265">
        <ele>2361.4</ele>
        <time>2026-07-15T09:07:00Z</time>
      </trkpt>
      <trkpt lat="42.87346" lon="-0.19264">
        <ele>2361.4</ele>
        <time>2026-07-15T09:07:01Z</time>
      </trkpt>
      <trkpt lat="42.87346" lon="-0.19265">
        <ele>2361.4</ele>
        <time>2026-07-15T09:07:02Z</time>
      </trkpt>
      <trkpt lat="42.87347" lon="-0.19266">
        <ele>2360.4</ele>
        <time>2026-07-15T09:07:03Z</time>
      </trkpt>
      <trkpt lat="42.87347" lon="-0.19266">
        <ele>2360.4</ele>
        <time>2026-07-15T09:07:04Z</time>
      </trkpt>
      <trkpt lat="42.87347" lon="-0.19266">
        <ele>2361.4</ele>
        <time>2026-07-15T09:07:05Z</time>
      </trkpt>
      <trkpt lat="42.87347" lon="-0.19266">
        <ele>2361.4</ele>
        <time>2026-07-15T09:07:06Z</time>
      </trkpt>
      <trkpt lat="42.87346" lon="-0.19267">
        <ele>2361.4</ele>
        <time>2026-07-15T09:07:07Z</time>
      </trkpt>
      <trkpt lat="42.87346" lon="-0.19267">
        <ele>2361.4</ele>
        <time>2026-07-15T09:07:08Z</time>
      </trkpt>
      <trkpt lat="42.87346" lon="-0.19266">
        <ele>2360.4</ele>
        <time>2026-07-15T09:07:09Z</time>
      </trkpt>
      <trkpt lat="42.87345" lon="-0.19267">
        <ele>2359.4</ele>
        <time>2026-07-15T09:07:10Z</time>
      </trkpt>
      <trkpt lat="42.87345" lon="-0.19267">
        <ele>2359.4</ele>
        <time>2026-07-15T09:07:11Z</time>
      </trkpt>
      <trkpt lat="42.87345" lon="-0.19268">
        <ele>2359.4</ele>
        <time>2026-07-15T09:07:12Z</time>
      </trkpt>
      <trkpt lat="42.87345" lon="-0.19268">
        <ele>2359.4</ele>
        <time>2026-07-15T09:07:13Z</time>
      </trkpt>
      <trkpt lat="42.87345" lon="-0.19268">
        <ele>2358.4</ele>
        <time>2026-07-15T09:07:14Z</time>
      </trkpt>
      <trkpt lat="42.87344" lon="-0.19269">
        <ele>2358.4</ele>
        <time>2026-07-15T09:07:15Z</time>
      </trkpt>
      <trkpt lat="42.87344" lon="-0.19269">
        <ele>2359.4</ele>
        <time>2026-07-15T09:07:16Z</time>
      </trkpt>
      <trkpt lat="42.87344" lon="-0.1927">
        <ele>2359.4</ele>
        <time>2026-07-15T09:07:17Z</time>
      </trkpt>
      <trkpt lat="42.87344" lon="-0.1927">
        <ele>2360.4</ele>
        <time>2026-07-15T09:07:18Z</time>
      </trkpt>
      <trkpt lat="42.87344" lon="-0.19271">
        <ele>2360.4</ele>
        <time>2026-07-15T09:07:19Z</time>
      </trkpt>
      <trkpt lat="42.87344" lon="-0.19272">
        <ele>2361.4</ele>
        <time>2026-07-15T09:07:20Z</time>
      </trkpt>
      <trkpt lat="42.87344" lon="-0.19272">
        <ele>2360.4</ele>
        <time>2026-07-15T09:07:21Z</time>
      </trkpt>
      <trkpt lat="42.87344" lon="-0.19273">
        <ele>2361.4</ele>
        <time>2026-07-15T09:07:22Z</time>
      </trkpt>
      <trkpt lat="42.87344" lon="-0.19274">
        <ele>2361.4</ele>
        <time>2026-07-15T09:07:23Z</time>
      </trkpt>
      <trkpt lat="42.87344" lon="-0.19273">
        <ele>2361.4</ele>
        <time>2026-07-15T09:07:24Z</time>
      </trkpt>
      <trkpt lat="42.87343" lon="-0.19274">
        <ele>2362.4</ele>
        <time>2026-07-15T09:07:25Z</time>
      </trkpt>
      <trkpt lat="42.87343" lon="-0.19275">
        <ele>2362.4</ele>
        <time>2026-07-15T09:07:26Z</time>
      </trkpt>
      <trkpt lat="42.87342" lon="-0.19276">
        <ele>2361.4</ele>
        <time>2026-07-15T09:07:27Z</time>
      </trkpt>
      <trkpt lat="42.87342" lon="-0.19277">
        <ele>2361.4</ele>
        <time>2026-07-15T09:07:28Z</time>
      </trkpt>
      <trkpt lat="42.87342" lon="-0.19278">
        <ele>2361.4</ele>
        <time>2026-07-15T09:07:29Z</time>
      </trkpt>
      <trkpt lat="42.87342" lon="-0.19279">
        <ele>2362.4</ele>
        <time>2026-07-15T09:07:30Z</time>
      </trkpt>
      <trkpt lat="42.87342" lon="-0.19279">
        <ele>2362.4</ele>
        <time>2026-07-15T09:07:31Z</time>
      </trkpt>
      <trkpt lat="42.87342" lon="-0.19279">
        <ele>2363.4</ele>
        <time>2026-07-15T09:07:32Z</time>
      </trkpt>
      <trkpt lat="42.87343" lon="-0.1928">
        <ele>2362.4</ele>
        <time>2026-07-15T09:07:33Z</time>
      </trkpt>
      <trkpt lat="42.87343" lon="-0.1928">
        <ele>2363.4</ele>
        <time>2026-07-15T09:07:34Z</time>
      </trkpt>
      <trkpt lat="42.87344" lon="-0.19281">
        <ele>2363.4</ele>
        <time>2026-07-15T09:07:35Z</time>
      </trkpt>
      <trkpt lat="42.87344" lon="-0.19281">
        <ele>2363.4</ele>
        <time>2026-07-15T09:07:36Z</time>
      </trkpt>
      <trkpt lat="42.87344" lon="-0.19281">
        <ele>2363.4</ele>
        <time>2026-07-15T09:07:37Z</time>
      </trkpt>
      <trkpt lat="42.87344" lon="-0.19281">
        <ele>2363.4</ele>
        <time>2026-07-15T09:07:38Z</time>
      </trkpt>
      <trkpt lat="42.87344" lon="-0.19281">
        <ele>2363.4</ele>
        <time>2026-07-15T09:07:39Z</time>
      </trkpt>
      <trkpt lat="42.87343" lon="-0.19282">
        <ele>2363.4</ele>
        <time>2026-07-15T09:07:40Z</time>
      </trkpt>
      <trkpt lat="42.87344" lon="-0.19283">
        <ele>2362.4</ele>
        <time>2026-07-15T09:07:41Z</time>
      </trkpt>
      <trkpt lat="42.87344" lon="-0.19283">
        <ele>2362.4</ele>
        <time>2026-07-15T09:07:42Z</time>
      </trkpt>
      <trkpt lat="42.87343" lon="-0.19284">
        <ele>2362.4</ele>
        <time>2026-07-15T09:07:43Z</time>
      </trkpt>
      <trkpt lat="42.87343" lon="-0.19285">
        <ele>2363.4</ele>
        <time>2026-07-15T09:07:44Z</time>
      </trkpt>
      <trkpt lat="42.87344" lon="-0.19285">
        <ele>2364.4</ele>
        <time>2026-07-15T09:07:45Z</time>
      </trkpt>
      <trkpt lat="42.87344" lon="-0.19286">
        <ele>2365.4</ele>
        <time>2026-07-15T09:07:46Z</time>
      </trkpt>
      <trkpt lat="42.87345" lon="-0.19286">
        <ele>2365.4</ele>
        <time>2026-07-15T09:07:47Z</time>
      </trkpt>
      <trkpt lat="42.87345" lon="-0.19286">
        <ele>2365.4</ele>
        <time>2026-07-15T09:07:48Z</time>
      </trkpt>
      <trkpt lat="42.87345" lon="-0.19286">
        <ele>2365.4</ele>
        <time>2026-07-15T09:07:49Z</time>
      </trkpt>
      <trkpt lat="42.87345" lon="-0.19286">
        <ele>2365.4</ele>
        <time>2026-07-15T09:07:50Z</time>
      </trkpt>
      <trkpt lat="42.87345" lon="-0.19286">
        <ele>2365.4</ele>
        <time>2026-07-15T09:07:51Z</time>
      </trkpt>
      <trkpt lat="42.87345" lon="-0.19286">
        <ele>2365.4</ele>
        <time>2026-07-15T09:07:52Z</time>
      </trkpt>
      <trkpt lat="42.87345" lon="-0.19286">
        <ele>2365.4</ele>
        <time>2026-07-15T09:07:53Z</time>
      </trkpt>
      <trkpt lat="42.87345" lon="-0.19286">
        <ele>2365.4</ele>
        <time>2026-07-15T09:07:54Z</time>
      </trkpt>
      <trkpt lat="42.87345" lon="-0.19286">
        <ele>2365.4</ele>
        <time>2026-07-15T09:07:55Z</time>
      </trkpt>
      <trkpt lat="42.87345" lon="-0.19286">
        <ele>2365.4</ele>
        <time>2026-07-15T09:07:56Z</time>
      </trkpt>
      <trkpt lat="42.87345" lon="-0.19286">
        <ele>2365.4</ele>
        <time>2026-07-15T09:07:57Z</time>
      </trkpt>
      <trkpt lat="42.87345" lon="-0.19286">
        <ele>2365.4</ele>
        <time>2026-07-15T09:07:58Z</time>
      </trkpt>
      <trkpt lat="42.87345" lon="-0.19286">
        <ele>2365.4</ele>
        <time>2026-07-15T09:07:59Z</time>
      </trkpt>
      <trkpt lat="42.87344" lon="-0.19286">
        <ele>2365.4</ele>
        <time>2026-07-15T09:08:00Z</time>
      </trkpt>
      <trkpt lat="42.87343" lon="-0.19286">
        <ele>2365.4</ele>
        <time>2026-07-15T09:08:01Z</time>
      </trkpt>
      <trkpt lat="42.87343" lon="-0.19286">
        <ele>2365.4</ele>
        <time>2026-07-15T09:08:02Z</time>
      </trkpt>
      <trkpt lat="42.87342" lon="-0.19286">
        <ele>2365.4</ele>
        <time>2026-07-15T09:08:03Z</time>
      </trkpt>
      <trkpt lat="42.87341" lon="-0.19287">
        <ele>2364.4</ele>
        <time>2026-07-15T09:08:04Z</time>
      </trkpt>
      <trkpt lat="42.87341" lon="-0.19288">
        <ele>2365.4</ele>
        <time>2026-07-15T09:08:05Z</time>
      </trkpt>
      <trkpt lat="42.87341" lon="-0.19288">
        <ele>2365.4</ele>
        <time>2026-07-15T09:08:06Z</time>
      </trkpt>
      <trkpt lat="42.8734" lon="-0.19289">
        <ele>2365.4</ele>
        <time>2026-07-15T09:08:07Z</time>
      </trkpt>
      <trkpt lat="42.8734" lon="-0.19289">
        <ele>2365.4</ele>
        <time>2026-07-15T09:08:08Z</time>
      </trkpt>
      <trkpt lat="42.8734" lon="-0.19289">
        <ele>2365.4</ele>
        <time>2026-07-15T09:08:09Z</time>
      </trkpt>
      <trkpt lat="42.8734" lon="-0.19289">
        <ele>2365.4</ele>
        <time>2026-07-15T09:08:10Z</time>
      </trkpt>
      <trkpt lat="42.8734" lon="-0.19289">
        <ele>2365.4</ele>
        <time>2026-07-15T09:08:11Z</time>
      </trkpt>
      <trkpt lat="42.8734" lon="-0.19289">
        <ele>2365.4</ele>
        <time>2026-07-15T09:08:12Z</time>
      </trkpt>
      <trkpt lat="42.8734" lon="-0.19289">
        <ele>2365.4</ele>
        <time>2026-07-15T09:08:13Z</time>
      </trkpt>
      <trkpt lat="42.8734" lon="-0.19289">
        <ele>2365.4</ele>
        <time>2026-07-15T09:08:14Z</time>
      </trkpt>
      <trkpt lat="42.8734" lon="-0.19289">
        <ele>2365.4</ele>
        <time>2026-07-15T09:08:15Z</time>
      </trkpt>
      <trkpt lat="42.8734" lon="-0.19289">
        <ele>2365.4</ele>
        <time>2026-07-15T09:08:16Z</time>
      </trkpt>
      <trkpt lat="42.8734" lon="-0.1929">
        <ele>2365.4</ele>
        <time>2026-07-15T09:08:17Z</time>
      </trkpt>
      <trkpt lat="42.8734" lon="-0.1929">
        <ele>2365.4</ele>
        <time>2026-07-15T09:08:18Z</time>
      </trkpt>
      <trkpt lat="42.8734" lon="-0.1929">
        <ele>2364.4</ele>
        <time>2026-07-15T09:08:19Z</time>
      </trkpt>
      <trkpt lat="42.8734" lon="-0.1929">
        <ele>2364.4</ele>
        <time>2026-07-15T09:08:20Z</time>
      </trkpt>
      <trkpt lat="42.8734" lon="-0.1929">
        <ele>2364.4</ele>
        <time>2026-07-15T09:08:21Z</time>
      </trkpt>
      <trkpt lat="42.8734" lon="-0.1929">
        <ele>2364.4</ele>
        <time>2026-07-15T09:08:22Z</time>
      </trkpt>
      <trkpt lat="42.8734" lon="-0.1929">
        <ele>2364.4</ele>
        <time>2026-07-15T09:08:23Z</time>
      </trkpt>
      <trkpt lat="42.87339" lon="-0.1929">
        <ele>2364.4</ele>
        <time>2026-07-15T09:08:24Z</time>
      </trkpt>
      <trkpt lat="42.87338" lon="-0.1929">
        <ele>2365.4</ele>
        <time>2026-07-15T09:08:25Z</time>
      </trkpt>
      <trkpt lat="42.87338" lon="-0.19291">
        <ele>2365.4</ele>
        <time>2026-07-15T09:08:26Z</time>
      </trkpt>
      <trkpt lat="42.87337" lon="-0.19291">
        <ele>2365.4</ele>
        <time>2026-07-15T09:08:27Z</time>
      </trkpt>
      <trkpt lat="42.87336" lon="-0.19291">
        <ele>2366.4</ele>
        <time>2026-07-15T09:08:28Z</time>
      </trkpt>
      <trkpt lat="42.87336" lon="-0.19291">
        <ele>2365.4</ele>
        <time>2026-07-15T09:08:29Z</time>
      </trkpt>
      <trkpt lat="42.87335" lon="-0.19291">
        <ele>2365.4</ele>
        <time>2026-07-15T09:08:30Z</time>
      </trkpt>
      <trkpt lat="42.87335" lon="-0.19292">
        <ele>2365.4</ele>
        <time>2026-07-15T09:08:31Z</time>
      </trkpt>
      <trkpt lat="42.87335" lon="-0.19293">
        <ele>2365.4</ele>
        <time>2026-07-15T09:08:32Z</time>
      </trkpt>
      <trkpt lat="42.87335" lon="-0.19293">
        <ele>2365.4</ele>
        <time>2026-07-15T09:08:33Z</time>
      </trkpt>
      <trkpt lat="42.87335" lon="-0.19293">
        <ele>2365.4</ele>
        <time>2026-07-15T09:08:34Z</time>
      </trkpt>
      <trkpt lat="42.87335" lon="-0.19293">
        <ele>2366.4</ele>
        <time>2026-07-15T09:08:35Z</time>
      </trkpt>
      <trkpt lat="42.87335" lon="-0.19293">
        <ele>2366.4</ele>
        <time>2026-07-15T09:08:36Z</time>
      </trkpt>
      <trkpt lat="42.87334" lon="-0.19294">
        <ele>2366.4</ele>
        <time>2026-07-15T09:08:37Z</time>
      </trkpt>
      <trkpt lat="42.87334" lon="-0.19295">
        <ele>2366.4</ele>
        <time>2026-07-15T09:08:38Z</time>
      </trkpt>
      <trkpt lat="42.87333" lon="-0.19296">
        <ele>2366.4</ele>
        <time>2026-07-15T09:08:39Z</time>
      </trkpt>
      <trkpt lat="42.87333" lon="-0.19297">
        <ele>2366.4</ele>
        <time>2026-07-15T09:08:40Z</time>
      </trkpt>
      <trkpt lat="42.87333" lon="-0.19297">
        <ele>2367.4</ele>
        <time>2026-07-15T09:08:41Z</time>
      </trkpt>
      <trkpt lat="42.87334" lon="-0.19297">
        <ele>2368.4</ele>
        <time>2026-07-15T09:08:42Z</time>
      </trkpt>
      <trkpt lat="42.87334" lon="-0.19298">
        <ele>2368.4</ele>
        <time>2026-07-15T09:08:43Z</time>
      </trkpt>
      <trkpt lat="42.87335" lon="-0.19297">
        <ele>2367.4</ele>
        <time>2026-07-15T09:08:44Z</time>
      </trkpt>
      <trkpt lat="42.87335" lon="-0.19298">
        <ele>2367.4</ele>
        <time>2026-07-15T09:08:45Z</time>
      </trkpt>
      <trkpt lat="42.87335" lon="-0.19298">
        <ele>2368.4</ele>
        <time>2026-07-15T09:08:46Z</time>
      </trkpt>
      <trkpt lat="42.87336" lon="-0.19299">
        <ele>2368.4</ele>
        <time>2026-07-15T09:08:47Z</time>
      </trkpt>
      <trkpt lat="42.87336" lon="-0.19299">
        <ele>2368.4</ele>
        <time>2026-07-15T09:08:48Z</time>
      </trkpt>
      <trkpt lat="42.87336" lon="-0.193">
        <ele>2368.4</ele>
        <time>2026-07-15T09:08:49Z</time>
      </trkpt>
      <trkpt lat="42.87336" lon="-0.193">
        <ele>2368.4</ele>
        <time>2026-07-15T09:08:50Z</time>
      </trkpt>
      <trkpt lat="42.87336" lon="-0.193">
        <ele>2368.4</ele>
        <time>2026-07-15T09:08:51Z</time>
      </trkpt>
      <trkpt lat="42.87336" lon="-0.19299">
        <ele>2368.4</ele>
        <time>2026-07-15T09:08:52Z</time>
      </trkpt>
      <trkpt lat="42.87337" lon="-0.19299">
        <ele>2368.4</ele>
        <time>2026-07-15T09:08:53Z</time>
      </trkpt>
      <trkpt lat="42.87337" lon="-0.193">
        <ele>2368.4</ele>
        <time>2026-07-15T09:08:54Z</time>
      </trkpt>
      <trkpt lat="42.87337" lon="-0.19301">
        <ele>2368.4</ele>
        <time>2026-07-15T09:08:55Z</time>
      </trkpt>
      <trkpt lat="42.87338" lon="-0.19302">
        <ele>2368.4</ele>
        <time>2026-07-15T09:08:56Z</time>
      </trkpt>
      <trkpt lat="42.87337" lon="-0.19302">
        <ele>2368.4</ele>
        <time>2026-07-15T09:08:57Z</time>
      </trkpt>
      <trkpt lat="42.87338" lon="-0.19303">
        <ele>2368.4</ele>
        <time>2026-07-15T09:08:58Z</time>
      </trkpt>
      <trkpt lat="42.87338" lon="-0.19303">
        <ele>2368.4</ele>
        <time>2026-07-15T09:08:59Z</time>
      </trkpt>
      <trkpt lat="42.87338" lon="-0.19303">
        <ele>2369.4</ele>
        <time>2026-07-15T09:09:00Z</time>
      </trkpt>
      <trkpt lat="42.87338" lon="-0.19304">
        <ele>2369.4</ele>
        <time>2026-07-15T09:09:01Z</time>
      </trkpt>
      <trkpt lat="42.87338" lon="-0.19304">
        <ele>2369.4</ele>
        <time>2026-07-15T09:09:02Z</time>
      </trkpt>
      <trkpt lat="42.87338" lon="-0.19304">
        <ele>2369.4</ele>
        <time>2026-07-15T09:09:03Z</time>
      </trkpt>
      <trkpt lat="42.87338" lon="-0.19304">
        <ele>2370.4</ele>
        <time>2026-07-15T09:09:04Z</time>
      </trkpt>
      <trkpt lat="42.87338" lon="-0.19304">
        <ele>2371.4</ele>
        <time>2026-07-15T09:09:05Z</time>
      </trkpt>
      <trkpt lat="42.87338" lon="-0.19305">
        <ele>2370.4</ele>
        <time>2026-07-15T09:09:06Z</time>
      </trkpt>
      <trkpt lat="42.87338" lon="-0.19305">
        <ele>2370.4</ele>
        <time>2026-07-15T09:09:07Z</time>
      </trkpt>
      <trkpt lat="42.87338" lon="-0.19306">
        <ele>2371.4</ele>
        <time>2026-07-15T09:09:08Z</time>
      </trkpt>
      <trkpt lat="42.87338" lon="-0.19306">
        <ele>2371.4</ele>
        <time>2026-07-15T09:09:09Z</time>
      </trkpt>
      <trkpt lat="42.87338" lon="-0.19306">
        <ele>2371.4</ele>
        <time>2026-07-15T09:09:10Z</time>
      </trkpt>
      <trkpt lat="42.87338" lon="-0.19306">
        <ele>2371.4</ele>
        <time>2026-07-15T09:09:11Z</time>
      </trkpt>
      <trkpt lat="42.87338" lon="-0.19306">
        <ele>2370.4</ele>
        <time>2026-07-15T09:09:12Z</time>
      </trkpt>
      <trkpt lat="42.87338" lon="-0.19307">
        <ele>2371.4</ele>
        <time>2026-07-15T09:09:13Z</time>
      </trkpt>
      <trkpt lat="42.87338" lon="-0.19308">
        <ele>2371.4</ele>
        <time>2026-07-15T09:09:14Z</time>
      </trkpt>
      <trkpt lat="42.87339" lon="-0.19309">
        <ele>2371.4</ele>
        <time>2026-07-15T09:09:15Z</time>
      </trkpt>
      <trkpt lat="42.87338" lon="-0.19309">
        <ele>2372.4</ele>
        <time>2026-07-15T09:09:16Z</time>
      </trkpt>
      <trkpt lat="42.87338" lon="-0.19309">
        <ele>2372.4</ele>
        <time>2026-07-15T09:09:17Z</time>
      </trkpt>
      <trkpt lat="42.87338" lon="-0.1931">
        <ele>2372.4</ele>
        <time>2026-07-15T09:09:18Z</time>
      </trkpt>
      <trkpt lat="42.87339" lon="-0.1931">
        <ele>2372.4</ele>
        <time>2026-07-15T09:09:19Z</time>
      </trkpt>
      <trkpt lat="42.87339" lon="-0.1931">
        <ele>2372.4</ele>
        <time>2026-07-15T09:09:20Z</time>
      </trkpt>
      <trkpt lat="42.87339" lon="-0.1931">
        <ele>2373.4</ele>
        <time>2026-07-15T09:09:21Z</time>
      </trkpt>
      <trkpt lat="42.87339" lon="-0.1931">
        <ele>2373.4</ele>
        <time>2026-07-15T09:09:22Z</time>
      </trkpt>
      <trkpt lat="42.87339" lon="-0.1931">
        <ele>2373.4</ele>
        <time>2026-07-15T09:09:23Z</time>
      </trkpt>
      <trkpt lat="42.87338" lon="-0.19311">
        <ele>2374.4</ele>
        <time>2026-07-15T09:09:24Z</time>
      </trkpt>
      <trkpt lat="42.87338" lon="-0.19311">
        <ele>2373.4</ele>
        <time>2026-07-15T09:09:25Z</time>
      </trkpt>
      <trkpt lat="42.87338" lon="-0.19312">
        <ele>2373.4</ele>
        <time>2026-07-15T09:09:26Z</time>
      </trkpt>
      <trkpt lat="42.87338" lon="-0.19312">
        <ele>2373.4</ele>
        <time>2026-07-15T09:09:27Z</time>
      </trkpt>
      <trkpt lat="42.87338" lon="-0.19312">
        <ele>2373.4</ele>
        <time>2026-07-15T09:09:28Z</time>
      </trkpt>
      <trkpt lat="42.87338" lon="-0.19312">
        <ele>2373.4</ele>
        <time>2026-07-15T09:09:29Z</time>
      </trkpt>
      <trkpt lat="42.87338" lon="-0.19313">
        <ele>2374.4</ele>
        <time>2026-07-15T09:09:30Z</time>
      </trkpt>
      <trkpt lat="42.87338" lon="-0.19313">
        <ele>2373.4</ele>
        <time>2026-07-15T09:09:31Z</time>
      </trkpt>
      <trkpt lat="42.87338" lon="-0.19313">
        <ele>2373.4</ele>
        <time>2026-07-15T09:09:32Z</time>
      </trkpt>
      <trkpt lat="42.87339" lon="-0.19314">
        <ele>2373.4</ele>
        <time>2026-07-15T09:09:33Z</time>
      </trkpt>
      <trkpt lat="42.87339" lon="-0.19314">
        <ele>2374.4</ele>
        <time>2026-07-15T09:09:34Z</time>
      </trkpt>
      <trkpt lat="42.87339" lon="-0.19314">
        <ele>2374.4</ele>
        <time>2026-07-15T09:09:35Z</time>
      </trkpt>
      <trkpt lat="42.87339" lon="-0.19314">
        <ele>2375.4</ele>
        <time>2026-07-15T09:09:36Z</time>
      </trkpt>
      <trkpt lat="42.87338" lon="-0.19314">
        <ele>2375.4</ele>
        <time>2026-07-15T09:09:37Z</time>
      </trkpt>
      <trkpt lat="42.87338" lon="-0.19314">
        <ele>2375.4</ele>
        <time>2026-07-15T09:09:38Z</time>
      </trkpt>
      <trkpt lat="42.87338" lon="-0.19315">
        <ele>2375.4</ele>
        <time>2026-07-15T09:09:39Z</time>
      </trkpt>
      <trkpt lat="42.87338" lon="-0.19314">
        <ele>2375.4</ele>
        <time>2026-07-15T09:09:40Z</time>
      </trkpt>
      <trkpt lat="42.87338" lon="-0.19314">
        <ele>2375.4</ele>
        <time>2026-07-15T09:09:41Z</time>
      </trkpt>
      <trkpt lat="42.87338" lon="-0.19315">
        <ele>2375.4</ele>
        <time>2026-07-15T09:09:42Z</time>
      </trkpt>
      <trkpt lat="42.87338" lon="-0.19315">
        <ele>2376.4</ele>
        <time>2026-07-15T09:09:43Z</time>
      </trkpt>
      <trkpt lat="42.87338" lon="-0.19315">
        <ele>2376.4</ele>
        <time>2026-07-15T09:09:44Z</time>
      </trkpt>
      <trkpt lat="42.87338" lon="-0.19316">
        <ele>2376.4</ele>
        <time>2026-07-15T09:09:45Z</time>
      </trkpt>
      <trkpt lat="42.87338" lon="-0.19316">
        <ele>2376.4</ele>
        <time>2026-07-15T09:09:46Z</time>
      </trkpt>
      <trkpt lat="42.87339" lon="-0.19317">
        <ele>2377.4</ele>
        <time>2026-07-15T09:09:47Z</time>
      </trkpt>
      <trkpt lat="42.87339" lon="-0.19318">
        <ele>2376.4</ele>
        <time>2026-07-15T09:09:48Z</time>
      </trkpt>
      <trkpt lat="42.87339" lon="-0.19318">
        <ele>2377.4</ele>
        <time>2026-07-15T09:09:49Z</time>
      </trkpt>
      <trkpt lat="42.87339" lon="-0.19319">
        <ele>2377.4</ele>
        <time>2026-07-15T09:09:50Z</time>
      </trkpt>
      <trkpt lat="42.87339" lon="-0.1932">
        <ele>2377.4</ele>
        <time>2026-07-15T09:09:51Z</time>
      </trkpt>
      <trkpt lat="42.87339" lon="-0.1932">
        <ele>2378.4</ele>
        <time>2026-07-15T09:09:52Z</time>
      </trkpt>
      <trkpt lat="42.87339" lon="-0.1932">
        <ele>2378.4</ele>
        <time>2026-07-15T09:09:53Z</time>
      </trkpt>
      <trkpt lat="42.87339" lon="-0.1932">
        <ele>2378.4</ele>
        <time>2026-07-15T09:09:54Z</time>
      </trkpt>
      <trkpt lat="42.87339" lon="-0.19321">
        <ele>2377.4</ele>
        <time>2026-07-15T09:09:55Z</time>
      </trkpt>
      <trkpt lat="42.87339" lon="-0.19321">
        <ele>2377.4</ele>
        <time>2026-07-15T09:09:56Z</time>
      </trkpt>
      <trkpt lat="42.87338" lon="-0.19321">
        <ele>2377.4</ele>
        <time>2026-07-15T09:09:57Z</time>
      </trkpt>
      <trkpt lat="42.87337" lon="-0.19321">
        <ele>2377.4</ele>
        <time>2026-07-15T09:09:58Z</time>
      </trkpt>
      <trkpt lat="42.87337" lon="-0.19322">
        <ele>2376.4</ele>
        <time>2026-07-15T09:09:59Z</time>
      </trkpt>
      <trkpt lat="42.87337" lon="-0.19322">
        <ele>2376.4</ele>
        <time>2026-07-15T09:10:00Z</time>
      </trkpt>
      <trkpt lat="42.87337" lon="-0.19322">
        <ele>2377.4</ele>
        <time>2026-07-15T09:10:01Z</time>
      </trkpt>
      <trkpt lat="42.87337" lon="-0.19323">
        <ele>2377.4</ele>
        <time>2026-07-15T09:10:02Z</time>
      </trkpt>
      <trkpt lat="42.87337" lon="-0.19323">
        <ele>2377.4</ele>
        <time>2026-07-15T09:10:03Z</time>
      </trkpt>
      <trkpt lat="42.87336" lon="-0.19325">
        <ele>2377.4</ele>
        <time>2026-07-15T09:10:04Z</time>
      </trkpt>
      <trkpt lat="42.87336" lon="-0.19325">
        <ele>2377.4</ele>
        <time>2026-07-15T09:10:05Z</time>
      </trkpt>
      <trkpt lat="42.87336" lon="-0.19325">
        <ele>2377.4</ele>
        <time>2026-07-15T09:10:06Z</time>
      </trkpt>
      <trkpt lat="42.87336" lon="-0.19325">
        <ele>2377.4</ele>
        <time>2026-07-15T09:10:07Z</time>
      </trkpt>
      <trkpt lat="42.87336" lon="-0.19325">
        <ele>2377.4</ele>
        <time>2026-07-15T09:10:08Z</time>
      </trkpt>
      <trkpt lat="42.87336" lon="-0.19325">
        <ele>2377.4</ele>
        <time>2026-07-15T09:10:09Z</time>
      </trkpt>
      <trkpt lat="42.87336" lon="-0.19325">
        <ele>2377.4</ele>
        <time>2026-07-15T09:10:10Z</time>
      </trkpt>
      <trkpt lat="42.87336" lon="-0.19327">
        <ele>2377.4</ele>
        <time>2026-07-15T09:10:11Z</time>
      </trkpt>
      <trkpt lat="42.87335" lon="-0.19327">
        <ele>2377.4</ele>
        <time>2026-07-15T09:10:12Z</time>
      </trkpt>
      <trkpt lat="42.87336" lon="-0.19328">
        <ele>2377.4</ele>
        <time>2026-07-15T09:10:13Z</time>
      </trkpt>
      <trkpt lat="42.87336" lon="-0.19329">
        <ele>2377.4</ele>
        <time>2026-07-15T09:10:14Z</time>
      </trkpt>
      <trkpt lat="42.87337" lon="-0.19329">
        <ele>2377.4</ele>
        <time>2026-07-15T09:10:15Z</time>
      </trkpt>
      <trkpt lat="42.87336" lon="-0.19331">
        <ele>2377.4</ele>
        <time>2026-07-15T09:10:16Z</time>
      </trkpt>
      <trkpt lat="42.87336" lon="-0.19331">
        <ele>2378.4</ele>
        <time>2026-07-15T09:10:17Z</time>
      </trkpt>
      <trkpt lat="42.87336" lon="-0.19331">
        <ele>2378.4</ele>
        <time>2026-07-15T09:10:18Z</time>
      </trkpt>
      <trkpt lat="42.87336" lon="-0.19331">
        <ele>2378.4</ele>
        <time>2026-07-15T09:10:19Z</time>
      </trkpt>
      <trkpt lat="42.87336" lon="-0.19331">
        <ele>2377.4</ele>
        <time>2026-07-15T09:10:20Z</time>
      </trkpt>
      <trkpt lat="42.87336" lon="-0.19332">
        <ele>2377.4</ele>
        <time>2026-07-15T09:10:21Z</time>
      </trkpt>
      <trkpt lat="42.87336" lon="-0.19332">
        <ele>2377.4</ele>
        <time>2026-07-15T09:10:22Z</time>
      </trkpt>
      <trkpt lat="42.87336" lon="-0.19333">
        <ele>2377.4</ele>
        <time>2026-07-15T09:10:23Z</time>
      </trkpt>
      <trkpt lat="42.87336" lon="-0.19333">
        <ele>2377.4</ele>
        <time>2026-07-15T09:10:24Z</time>
      </trkpt>
      <trkpt lat="42.87334" lon="-0.19333">
        <ele>2377.4</ele>
        <time>2026-07-15T09:10:25Z</time>
      </trkpt>
      <trkpt lat="42.87334" lon="-0.19333">
        <ele>2377.4</ele>
        <time>2026-07-15T09:10:26Z</time>
      </trkpt>
      <trkpt lat="42.87334" lon="-0.19334">
        <ele>2377.4</ele>
        <time>2026-07-15T09:10:27Z</time>
      </trkpt>
      <trkpt lat="42.87334" lon="-0.19334">
        <ele>2377.4</ele>
        <time>2026-07-15T09:10:28Z</time>
      </trkpt>
      <trkpt lat="42.87334" lon="-0.19335">
        <ele>2377.4</ele>
        <time>2026-07-15T09:10:29Z</time>
      </trkpt>
      <trkpt lat="42.87334" lon="-0.19335">
        <ele>2377.4</ele>
        <time>2026-07-15T09:10:30Z</time>
      </trkpt>
      <trkpt lat="42.87334" lon="-0.19335">
        <ele>2377.4</ele>
        <time>2026-07-15T09:10:31Z</time>
      </trkpt>
      <trkpt lat="42.87334" lon="-0.19335">
        <ele>2377.4</ele>
        <time>2026-07-15T09:10:32Z</time>
      </trkpt>
      <trkpt lat="42.87334" lon="-0.19335">
        <ele>2378.4</ele>
        <time>2026-07-15T09:10:33Z</time>
      </trkpt>
      <trkpt lat="42.87334" lon="-0.19336">
        <ele>2378.4</ele>
        <time>2026-07-15T09:10:34Z</time>
      </trkpt>
      <trkpt lat="42.87333" lon="-0.19336">
        <ele>2378.4</ele>
        <time>2026-07-15T09:10:35Z</time>
      </trkpt>
      <trkpt lat="42.87333" lon="-0.19336">
        <ele>2379.4</ele>
        <time>2026-07-15T09:10:36Z</time>
      </trkpt>
      <trkpt lat="42.87333" lon="-0.19336">
        <ele>2379.4</ele>
        <time>2026-07-15T09:10:37Z</time>
      </trkpt>
      <trkpt lat="42.87333" lon="-0.19336">
        <ele>2379.4</ele>
        <time>2026-07-15T09:10:38Z</time>
      </trkpt>
      <trkpt lat="42.87333" lon="-0.19336">
        <ele>2380.4</ele>
        <time>2026-07-15T09:10:39Z</time>
      </trkpt>
      <trkpt lat="42.87333" lon="-0.19336">
        <ele>2380.4</ele>
        <time>2026-07-15T09:10:40Z</time>
      </trkpt>
      <trkpt lat="42.87333" lon="-0.19336">
        <ele>2380.4</ele>
        <time>2026-07-15T09:10:41Z</time>
      </trkpt>
      <trkpt lat="42.87333" lon="-0.19336">
        <ele>2380.4</ele>
        <time>2026-07-15T09:10:42Z</time>
      </trkpt>
      <trkpt lat="42.87333" lon="-0.19336">
        <ele>2380.4</ele>
        <time>2026-07-15T09:10:43Z</time>
      </trkpt>
      <trkpt lat="42.87333" lon="-0.19336">
        <ele>2380.4</ele>
        <time>2026-07-15T09:10:44Z</time>
      </trkpt>
      <trkpt lat="42.87333" lon="-0.19336">
        <ele>2380.4</ele>
        <time>2026-07-15T09:10:45Z</time>
      </trkpt>
      <trkpt lat="42.87333" lon="-0.19336">
        <ele>2380.4</ele>
        <time>2026-07-15T09:10:46Z</time>
      </trkpt>
      <trkpt lat="42.87333" lon="-0.19336">
        <ele>2380.4</ele>
        <time>2026-07-15T09:10:47Z</time>
      </trkpt>
      <trkpt lat="42.87333" lon="-0.19336">
        <ele>2380.4</ele>
        <time>2026-07-15T09:10:48Z</time>
      </trkpt>
      <trkpt lat="42.87333" lon="-0.19336">
        <ele>2380.4</ele>
        <time>2026-07-15T09:10:49Z</time>
      </trkpt>
      <trkpt lat="42.87333" lon="-0.19336">
        <ele>2380.4</ele>
        <time>2026-07-15T09:10:50Z</time>
      </trkpt>
      <trkpt lat="42.87333" lon="-0.19336">
        <ele>2380.4</ele>
        <time>2026-07-15T09:10:51Z</time>
      </trkpt>
      <trkpt lat="42.87333" lon="-0.19336">
        <ele>2380.4</ele>
        <time>2026-07-15T09:10:52Z</time>
      </trkpt>
      <trkpt lat="42.87333" lon="-0.19336">
        <ele>2380.4</ele>
        <time>2026-07-15T09:10:53Z</time>
      </trkpt>
      <trkpt lat="42.87333" lon="-0.19336">
        <ele>2380.4</ele>
        <time>2026-07-15T09:10:54Z</time>
      </trkpt>
      <trkpt lat="42.87331" lon="-0.19337">
        <ele>2380.4</ele>
        <time>2026-07-15T09:10:55Z</time>
      </trkpt>
      <trkpt lat="42.8733" lon="-0.19337">
        <ele>2379.4</ele>
        <time>2026-07-15T09:10:56Z</time>
      </trkpt>
      <trkpt lat="42.8733" lon="-0.19337">
        <ele>2379.4</ele>
        <time>2026-07-15T09:10:57Z</time>
      </trkpt>
      <trkpt lat="42.8733" lon="-0.19337">
        <ele>2380.4</ele>
        <time>2026-07-15T09:10:58Z</time>
      </trkpt>
      <trkpt lat="42.8733" lon="-0.19337">
        <ele>2380.4</ele>
        <time>2026-07-15T09:10:59Z</time>
      </trkpt>
      <trkpt lat="42.8733" lon="-0.19338">
        <ele>2380.4</ele>
        <time>2026-07-15T09:11:00Z</time>
      </trkpt>
      <trkpt lat="42.8733" lon="-0.19338">
        <ele>2380.4</ele>
        <time>2026-07-15T09:11:01Z</time>
      </trkpt>
      <trkpt lat="42.8733" lon="-0.19337">
        <ele>2380.4</ele>
        <time>2026-07-15T09:11:02Z</time>
      </trkpt>
      <trkpt lat="42.87329" lon="-0.19337">
        <ele>2381.4</ele>
        <time>2026-07-15T09:11:03Z</time>
      </trkpt>
      <trkpt lat="42.87328" lon="-0.19338">
        <ele>2382.4</ele>
        <time>2026-07-15T09:11:04Z</time>
      </trkpt>
      <trkpt lat="42.87327" lon="-0.19338">
        <ele>2383.4</ele>
        <time>2026-07-15T09:11:05Z</time>
      </trkpt>
      <trkpt lat="42.87327" lon="-0.19338">
        <ele>2383.4</ele>
        <time>2026-07-15T09:11:06Z</time>
      </trkpt>
      <trkpt lat="42.87327" lon="-0.19338">
        <ele>2383.4</ele>
        <time>2026-07-15T09:11:07Z</time>
      </trkpt>
      <trkpt lat="42.87327" lon="-0.19338">
        <ele>2383.4</ele>
        <time>2026-07-15T09:11:08Z</time>
      </trkpt>
      <trkpt lat="42.87327" lon="-0.19338">
        <ele>2384.4</ele>
        <time>2026-07-15T09:11:09Z</time>
      </trkpt>
      <trkpt lat="42.87327" lon="-0.19338">
        <ele>2384.4</ele>
        <time>2026-07-15T09:11:10Z</time>
      </trkpt>
      <trkpt lat="42.87326" lon="-0.19338">
        <ele>2384.4</ele>
        <time>2026-07-15T09:11:11Z</time>
      </trkpt>
      <trkpt lat="42.87326" lon="-0.19337">
        <ele>2384.4</ele>
        <time>2026-07-15T09:11:12Z</time>
      </trkpt>
      <trkpt lat="42.87326" lon="-0.19336">
        <ele>2384.4</ele>
        <time>2026-07-15T09:11:13Z</time>
      </trkpt>
      <trkpt lat="42.87325" lon="-0.19335">
        <ele>2384.4</ele>
        <time>2026-07-15T09:11:14Z</time>
      </trkpt>
      <trkpt lat="42.87325" lon="-0.19335">
        <ele>2384.4</ele>
        <time>2026-07-15T09:11:15Z</time>
      </trkpt>
      <trkpt lat="42.87325" lon="-0.19334">
        <ele>2385.4</ele>
        <time>2026-07-15T09:11:16Z</time>
      </trkpt>
      <trkpt lat="42.87324" lon="-0.19334">
        <ele>2385.4</ele>
        <time>2026-07-15T09:11:17Z</time>
      </trkpt>
      <trkpt lat="42.87324" lon="-0.19334">
        <ele>2385.4</ele>
        <time>2026-07-15T09:11:18Z</time>
      </trkpt>
      <trkpt lat="42.87324" lon="-0.19334">
        <ele>2386.4</ele>
        <time>2026-07-15T09:11:19Z</time>
      </trkpt>
      <trkpt lat="42.87324" lon="-0.19335">
        <ele>2385.4</ele>
        <time>2026-07-15T09:11:20Z</time>
      </trkpt>
      <trkpt lat="42.87323" lon="-0.19335">
        <ele>2385.4</ele>
        <time>2026-07-15T09:11:21Z</time>
      </trkpt>
      <trkpt lat="42.87322" lon="-0.19335">
        <ele>2386.4</ele>
        <time>2026-07-15T09:11:22Z</time>
      </trkpt>
      <trkpt lat="42.87322" lon="-0.19335">
        <ele>2386.4</ele>
        <time>2026-07-15T09:11:23Z</time>
      </trkpt>
      <trkpt lat="42.87322" lon="-0.19335">
        <ele>2386.4</ele>
        <time>2026-07-15T09:11:24Z</time>
      </trkpt>
      <trkpt lat="42.87322" lon="-0.19335">
        <ele>2386.4</ele>
        <time>2026-07-15T09:11:25Z</time>
      </trkpt>
      <trkpt lat="42.87322" lon="-0.19335">
        <ele>2386.4</ele>
        <time>2026-07-15T09:11:26Z</time>
      </trkpt>
      <trkpt lat="42.87322" lon="-0.19336">
        <ele>2387.4</ele>
        <time>2026-07-15T09:11:27Z</time>
      </trkpt>
      <trkpt lat="42.87322" lon="-0.19337">
        <ele>2389.4</ele>
        <time>2026-07-15T09:11:28Z</time>
      </trkpt>
      <trkpt lat="42.87322" lon="-0.19338">
        <ele>2389.4</ele>
        <time>2026-07-15T09:11:29Z</time>
      </trkpt>
      <trkpt lat="42.87322" lon="-0.19339">
        <ele>2389.4</ele>
        <time>2026-07-15T09:11:30Z</time>
      </trkpt>
      <trkpt lat="42.87322" lon="-0.19339">
        <ele>2390.4</ele>
        <time>2026-07-15T09:11:31Z</time>
      </trkpt>
      <trkpt lat="42.87322" lon="-0.19339">
        <ele>2390.4</ele>
        <time>2026-07-15T09:11:32Z</time>
      </trkpt>
      <trkpt lat="42.87322" lon="-0.1934">
        <ele>2390.4</ele>
        <time>2026-07-15T09:11:33Z</time>
      </trkpt>
      <trkpt lat="42.87323" lon="-0.1934">
        <ele>2390.4</ele>
        <time>2026-07-15T09:11:34Z</time>
      </trkpt>
      <trkpt lat="42.87323" lon="-0.1934">
        <ele>2390.4</ele>
        <time>2026-07-15T09:11:35Z</time>
      </trkpt>
      <trkpt lat="42.87322" lon="-0.19339">
        <ele>2390.4</ele>
        <time>2026-07-15T09:11:36Z</time>
      </trkpt>
      <trkpt lat="42.87322" lon="-0.19339">
        <ele>2389.4</ele>
        <time>2026-07-15T09:11:37Z</time>
      </trkpt>
      <trkpt lat="42.87322" lon="-0.1934">
        <ele>2389.4</ele>
        <time>2026-07-15T09:11:38Z</time>
      </trkpt>
      <trkpt lat="42.87323" lon="-0.1934">
        <ele>2390.4</ele>
        <time>2026-07-15T09:11:39Z</time>
      </trkpt>
      <trkpt lat="42.87322" lon="-0.19341">
        <ele>2391.4</ele>
        <time>2026-07-15T09:11:40Z</time>
      </trkpt>
      <trkpt lat="42.87322" lon="-0.19341">
        <ele>2390.4</ele>
        <time>2026-07-15T09:11:41Z</time>
      </trkpt>
      <trkpt lat="42.87322" lon="-0.19342">
        <ele>2391.4</ele>
        <time>2026-07-15T09:11:42Z</time>
      </trkpt>
      <trkpt lat="42.87322" lon="-0.19342">
        <ele>2391.4</ele>
        <time>2026-07-15T09:11:43Z</time>
      </trkpt>
      <trkpt lat="42.87322" lon="-0.19342">
        <ele>2391.4</ele>
        <time>2026-07-15T09:11:44Z</time>
      </trkpt>
      <trkpt lat="42.87322" lon="-0.19342">
        <ele>2391.4</ele>
        <time>2026-07-15T09:11:45Z</time>
      </trkpt>
      <trkpt lat="42.87321" lon="-0.19343">
        <ele>2393.4</ele>
        <time>2026-07-15T09:11:46Z</time>
      </trkpt>
      <trkpt lat="42.87321" lon="-0.19343">
        <ele>2393.4</ele>
        <time>2026-07-15T09:11:47Z</time>
      </trkpt>
      <trkpt lat="42.87321" lon="-0.19344">
        <ele>2394.4</ele>
        <time>2026-07-15T09:11:48Z</time>
      </trkpt>
      <trkpt lat="42.87321" lon="-0.19345">
        <ele>2393.4</ele>
        <time>2026-07-15T09:11:49Z</time>
      </trkpt>
      <trkpt lat="42.87321" lon="-0.19345">
        <ele>2393.4</ele>
        <time>2026-07-15T09:11:50Z</time>
      </trkpt>
      <trkpt lat="42.87321" lon="-0.19346">
        <ele>2393.4</ele>
        <time>2026-07-15T09:11:51Z</time>
      </trkpt>
      <trkpt lat="42.87321" lon="-0.19346">
        <ele>2393.4</ele>
        <time>2026-07-15T09:11:52Z</time>
      </trkpt>
      <trkpt lat="42.87322" lon="-0.19347">
        <ele>2394.4</ele>
        <time>2026-07-15T09:11:53Z</time>
      </trkpt>
      <trkpt lat="42.87322" lon="-0.19347">
        <ele>2395.4</ele>
        <time>2026-07-15T09:11:54Z</time>
      </trkpt>
      <trkpt lat="42.87322" lon="-0.19348">
        <ele>2395.4</ele>
        <time>2026-07-15T09:11:55Z</time>
      </trkpt>
      <trkpt lat="42.87322" lon="-0.19348">
        <ele>2394.4</ele>
        <time>2026-07-15T09:11:56Z</time>
      </trkpt>
      <trkpt lat="42.87322" lon="-0.19348">
        <ele>2394.4</ele>
        <time>2026-07-15T09:11:57Z</time>
      </trkpt>
      <trkpt lat="42.87323" lon="-0.19349">
        <ele>2394.4</ele>
        <time>2026-07-15T09:11:58Z</time>
      </trkpt>
      <trkpt lat="42.87322" lon="-0.19349">
        <ele>2394.4</ele>
        <time>2026-07-15T09:11:59Z</time>
      </trkpt>
      <trkpt lat="42.87321" lon="-0.1935">
        <ele>2394.4</ele>
        <time>2026-07-15T09:12:00Z</time>
      </trkpt>
      <trkpt lat="42.87321" lon="-0.19351">
        <ele>2394.4</ele>
        <time>2026-07-15T09:12:01Z</time>
      </trkpt>
      <trkpt lat="42.87321" lon="-0.19351">
        <ele>2394.4</ele>
        <time>2026-07-15T09:12:02Z</time>
      </trkpt>
      <trkpt lat="42.87321" lon="-0.1935">
        <ele>2393.4</ele>
        <time>2026-07-15T09:12:03Z</time>
      </trkpt>
      <trkpt lat="42.87321" lon="-0.1935">
        <ele>2393.4</ele>
        <time>2026-07-15T09:12:04Z</time>
      </trkpt>
      <trkpt lat="42.87321" lon="-0.1935">
        <ele>2394.4</ele>
        <time>2026-07-15T09:12:05Z</time>
      </trkpt>
      <trkpt lat="42.8732" lon="-0.1935">
        <ele>2394.4</ele>
        <time>2026-07-15T09:12:06Z</time>
      </trkpt>
      <trkpt lat="42.8732" lon="-0.1935">
        <ele>2394.4</ele>
        <time>2026-07-15T09:12:07Z</time>
      </trkpt>
      <trkpt lat="42.8732" lon="-0.19351">
        <ele>2394.4</ele>
        <time>2026-07-15T09:12:08Z</time>
      </trkpt>
      <trkpt lat="42.8732" lon="-0.19352">
        <ele>2394.4</ele>
        <time>2026-07-15T09:12:09Z</time>
      </trkpt>
      <trkpt lat="42.8732" lon="-0.19352">
        <ele>2394.4</ele>
        <time>2026-07-15T09:12:10Z</time>
      </trkpt>
      <trkpt lat="42.8732" lon="-0.19353">
        <ele>2394.4</ele>
        <time>2026-07-15T09:12:11Z</time>
      </trkpt>
      <trkpt lat="42.8732" lon="-0.19353">
        <ele>2394.4</ele>
        <time>2026-07-15T09:12:12Z</time>
      </trkpt>
      <trkpt lat="42.8732" lon="-0.19353">
        <ele>2394.4</ele>
        <time>2026-07-15T09:12:13Z</time>
      </trkpt>
      <trkpt lat="42.8732" lon="-0.19353">
        <ele>2394.4</ele>
        <time>2026-07-15T09:12:14Z</time>
      </trkpt>
      <trkpt lat="42.8732" lon="-0.19354">
        <ele>2395.4</ele>
        <time>2026-07-15T09:12:15Z</time>
      </trkpt>
      <trkpt lat="42.8732" lon="-0.19354">
        <ele>2395.4</ele>
        <time>2026-07-15T09:12:16Z</time>
      </trkpt>
      <trkpt lat="42.8732" lon="-0.19355">
        <ele>2395.4</ele>
        <time>2026-07-15T09:12:17Z</time>
      </trkpt>
      <trkpt lat="42.8732" lon="-0.19356">
        <ele>2395.4</ele>
        <time>2026-07-15T09:12:18Z</time>
      </trkpt>
      <trkpt lat="42.87319" lon="-0.19357">
        <ele>2394.4</ele>
        <time>2026-07-15T09:12:19Z</time>
      </trkpt>
      <trkpt lat="42.87319" lon="-0.19357">
        <ele>2395.4</ele>
        <time>2026-07-15T09:12:20Z</time>
      </trkpt>
      <trkpt lat="42.87318" lon="-0.19357">
        <ele>2395.4</ele>
        <time>2026-07-15T09:12:21Z</time>
      </trkpt>
      <trkpt lat="42.87318" lon="-0.19358">
        <ele>2395.4</ele>
        <time>2026-07-15T09:12:22Z</time>
      </trkpt>
      <trkpt lat="42.87318" lon="-0.19358">
        <ele>2397.4</ele>
        <time>2026-07-15T09:12:23Z</time>
      </trkpt>
      <trkpt lat="42.87318" lon="-0.19358">
        <ele>2397.4</ele>
        <time>2026-07-15T09:12:24Z</time>
      </trkpt>
      <trkpt lat="42.87318" lon="-0.19358">
        <ele>2397.4</ele>
        <time>2026-07-15T09:12:25Z</time>
      </trkpt>
      <trkpt lat="42.87318" lon="-0.19358">
        <ele>2397.4</ele>
        <time>2026-07-15T09:12:26Z</time>
      </trkpt>
      <trkpt lat="42.87318" lon="-0.19358">
        <ele>2397.4</ele>
        <time>2026-07-15T09:12:27Z</time>
      </trkpt>
      <trkpt lat="42.87318" lon="-0.19358">
        <ele>2397.4</ele>
        <time>2026-07-15T09:12:28Z</time>
      </trkpt>
      <trkpt lat="42.87318" lon="-0.19358">
        <ele>2397.4</ele>
        <time>2026-07-15T09:12:29Z</time>
      </trkpt>
      <trkpt lat="42.87318" lon="-0.19358">
        <ele>2397.4</ele>
        <time>2026-07-15T09:12:30Z</time>
      </trkpt>
      <trkpt lat="42.87318" lon="-0.19358">
        <ele>2397.4</ele>
        <time>2026-07-15T09:12:31Z</time>
      </trkpt>
      <trkpt lat="42.87318" lon="-0.19358">
        <ele>2397.4</ele>
        <time>2026-07-15T09:12:32Z</time>
      </trkpt>
      <trkpt lat="42.87318" lon="-0.19358">
        <ele>2397.4</ele>
        <time>2026-07-15T09:12:33Z</time>
      </trkpt>
      <trkpt lat="42.87318" lon="-0.19358">
        <ele>2397.4</ele>
        <time>2026-07-15T09:12:34Z</time>
      </trkpt>
      <trkpt lat="42.87318" lon="-0.19358">
        <ele>2397.4</ele>
        <time>2026-07-15T09:12:35Z</time>
      </trkpt>
      <trkpt lat="42.87317" lon="-0.19358">
        <ele>2396.4</ele>
        <time>2026-07-15T09:12:36Z</time>
      </trkpt>
      <trkpt lat="42.87316" lon="-0.19357">
        <ele>2396.4</ele>
        <time>2026-07-15T09:12:37Z</time>
      </trkpt>
      <trkpt lat="42.87315" lon="-0.19356">
        <ele>2395.4</ele>
        <time>2026-07-15T09:12:38Z</time>
      </trkpt>
      <trkpt lat="42.87315" lon="-0.19355">
        <ele>2395.4</ele>
        <time>2026-07-15T09:12:39Z</time>
      </trkpt>
      <trkpt lat="42.87315" lon="-0.19354">
        <ele>2395.4</ele>
        <time>2026-07-15T09:12:40Z</time>
      </trkpt>
      <trkpt lat="42.87313" lon="-0.19353">
        <ele>2395.4</ele>
        <time>2026-07-15T09:12:41Z</time>
      </trkpt>
      <trkpt lat="42.87312" lon="-0.19352">
        <ele>2395.4</ele>
        <time>2026-07-15T09:12:42Z</time>
      </trkpt>
      <trkpt lat="42.87311" lon="-0.19351">
        <ele>2394.4</ele>
        <time>2026-07-15T09:12:43Z</time>
      </trkpt>
      <trkpt lat="42.87311" lon="-0.19351">
        <ele>2394.4</ele>
        <time>2026-07-15T09:12:44Z</time>
      </trkpt>
      <trkpt lat="42.8731" lon="-0.1935">
        <ele>2394.4</ele>
        <time>2026-07-15T09:12:45Z</time>
      </trkpt>
      <trkpt lat="42.87311" lon="-0.1935">
        <ele>2394.4</ele>
        <time>2026-07-15T09:12:46Z</time>
      </trkpt>
      <trkpt lat="42.87311" lon="-0.19349">
        <ele>2394.4</ele>
        <time>2026-07-15T09:12:47Z</time>
      </trkpt>
      <trkpt lat="42.87311" lon="-0.19348">
        <ele>2395.4</ele>
        <time>2026-07-15T09:12:48Z</time>
      </trkpt>
      <trkpt lat="42.87311" lon="-0.19349">
        <ele>2396.4</ele>
        <time>2026-07-15T09:12:49Z</time>
      </trkpt>
      <trkpt lat="42.87311" lon="-0.19348">
        <ele>2396.4</ele>
        <time>2026-07-15T09:12:50Z</time>
      </trkpt>
      <trkpt lat="42.8731" lon="-0.19348">
        <ele>2396.4</ele>
        <time>2026-07-15T09:12:51Z</time>
      </trkpt>
      <trkpt lat="42.8731" lon="-0.19348">
        <ele>2396.4</ele>
        <time>2026-07-15T09:12:52Z</time>
      </trkpt>
      <trkpt lat="42.8731" lon="-0.19348">
        <ele>2396.4</ele>
        <time>2026-07-15T09:12:53Z</time>
      </trkpt>
      <trkpt lat="42.87309" lon="-0.19347">
        <ele>2396.4</ele>
        <time>2026-07-15T09:12:54Z</time>
      </trkpt>
      <trkpt lat="42.87309" lon="-0.19347">
        <ele>2397.4</ele>
        <time>2026-07-15T09:12:55Z</time>
      </trkpt>
      <trkpt lat="42.87309" lon="-0.19346">
        <ele>2397.4</ele>
        <time>2026-07-15T09:12:56Z</time>
      </trkpt>
      <trkpt lat="42.87309" lon="-0.19346">
        <ele>2398.4</ele>
        <time>2026-07-15T09:12:57Z</time>
      </trkpt>
      <trkpt lat="42.87309" lon="-0.19346">
        <ele>2398.4</ele>
        <time>2026-07-15T09:12:58Z</time>
      </trkpt>
      <trkpt lat="42.87309" lon="-0.19345">
        <ele>2398.4</ele>
        <time>2026-07-15T09:12:59Z</time>
      </trkpt>
      <trkpt lat="42.87309" lon="-0.19345">
        <ele>2398.4</ele>
        <time>2026-07-15T09:13:00Z</time>
      </trkpt>
      <trkpt lat="42.87309" lon="-0.19345">
        <ele>2399.4</ele>
        <time>2026-07-15T09:13:01Z</time>
      </trkpt>
      <trkpt lat="42.87309" lon="-0.19345">
        <ele>2399.4</ele>
        <time>2026-07-15T09:13:02Z</time>
      </trkpt>
      <trkpt lat="42.87309" lon="-0.19344">
        <ele>2398.4</ele>
        <time>2026-07-15T09:13:03Z</time>
      </trkpt>
      <trkpt lat="42.87309" lon="-0.19343">
        <ele>2398.4</ele>
        <time>2026-07-15T09:13:04Z</time>
      </trkpt>
      <trkpt lat="42.87309" lon="-0.19343">
        <ele>2397.4</ele>
        <time>2026-07-15T09:13:05Z</time>
      </trkpt>
      <trkpt lat="42.87309" lon="-0.19343">
        <ele>2397.4</ele>
        <time>2026-07-15T09:13:06Z</time>
      </trkpt>
      <trkpt lat="42.87308" lon="-0.19343">
        <ele>2397.4</ele>
        <time>2026-07-15T09:13:07Z</time>
      </trkpt>
      <trkpt lat="42.87308" lon="-0.19342">
        <ele>2398.4</ele>
        <time>2026-07-15T09:13:08Z</time>
      </trkpt>
      <trkpt lat="42.87308" lon="-0.1934">
        <ele>2399.4</ele>
        <time>2026-07-15T09:13:09Z</time>
      </trkpt>
      <trkpt lat="42.87307" lon="-0.19339">
        <ele>2399.4</ele>
        <time>2026-07-15T09:13:10Z</time>
      </trkpt>
      <trkpt lat="42.87307" lon="-0.1934">
        <ele>2398.4</ele>
        <time>2026-07-15T09:13:11Z</time>
      </trkpt>
      <trkpt lat="42.87307" lon="-0.19339">
        <ele>2398.4</ele>
        <time>2026-07-15T09:13:12Z</time>
      </trkpt>
      <trkpt lat="42.87306" lon="-0.19339">
        <ele>2398.4</ele>
        <time>2026-07-15T09:13:13Z</time>
      </trkpt>
      <trkpt lat="42.87305" lon="-0.1934">
        <ele>2399.4</ele>
        <time>2026-07-15T09:13:14Z</time>
      </trkpt>
      <trkpt lat="42.87304" lon="-0.1934">
        <ele>2400.4</ele>
        <time>2026-07-15T09:13:15Z</time>
      </trkpt>
      <trkpt lat="42.87303" lon="-0.1934">
        <ele>2400.4</ele>
        <time>2026-07-15T09:13:16Z</time>
      </trkpt>
      <trkpt lat="42.87302" lon="-0.19341">
        <ele>2400.4</ele>
        <time>2026-07-15T09:13:17Z</time>
      </trkpt>
      <trkpt lat="42.87302" lon="-0.19341">
        <ele>2400.4</ele>
        <time>2026-07-15T09:13:18Z</time>
      </trkpt>
      <trkpt lat="42.87302" lon="-0.19341">
        <ele>2400.4</ele>
        <time>2026-07-15T09:13:19Z</time>
      </trkpt>
      <trkpt lat="42.87302" lon="-0.19341">
        <ele>2400.4</ele>
        <time>2026-07-15T09:13:20Z</time>
      </trkpt>
      <trkpt lat="42.87302" lon="-0.19341">
        <ele>2400.4</ele>
        <time>2026-07-15T09:13:21Z</time>
      </trkpt>
      <trkpt lat="42.87301" lon="-0.19342">
        <ele>2399.4</ele>
        <time>2026-07-15T09:13:22Z</time>
      </trkpt>
      <trkpt lat="42.87301" lon="-0.19342">
        <ele>2400.4</ele>
        <time>2026-07-15T09:13:23Z</time>
      </trkpt>
      <trkpt lat="42.87301" lon="-0.19342">
        <ele>2400.4</ele>
        <time>2026-07-15T09:13:24Z</time>
      </trkpt>
      <trkpt lat="42.873" lon="-0.19342">
        <ele>2401.4</ele>
        <time>2026-07-15T09:13:25Z</time>
      </trkpt>
      <trkpt lat="42.873" lon="-0.19342">
        <ele>2401.4</ele>
        <time>2026-07-15T09:13:26Z</time>
      </trkpt>
      <trkpt lat="42.873" lon="-0.19341">
        <ele>2401.4</ele>
        <time>2026-07-15T09:13:27Z</time>
      </trkpt>
      <trkpt lat="42.873" lon="-0.1934">
        <ele>2401.4</ele>
        <time>2026-07-15T09:13:28Z</time>
      </trkpt>
      <trkpt lat="42.873" lon="-0.19341">
        <ele>2402.4</ele>
        <time>2026-07-15T09:13:29Z</time>
      </trkpt>
      <trkpt lat="42.873" lon="-0.1934">
        <ele>2401.4</ele>
        <time>2026-07-15T09:13:30Z</time>
      </trkpt>
      <trkpt lat="42.87299" lon="-0.1934">
        <ele>2401.4</ele>
        <time>2026-07-15T09:13:31Z</time>
      </trkpt>
      <trkpt lat="42.87299" lon="-0.1934">
        <ele>2401.4</ele>
        <time>2026-07-15T09:13:32Z</time>
      </trkpt>
      <trkpt lat="42.87299" lon="-0.1934">
        <ele>2400.4</ele>
        <time>2026-07-15T09:13:33Z</time>
      </trkpt>
      <trkpt lat="42.87299" lon="-0.19339">
        <ele>2400.4</ele>
        <time>2026-07-15T09:13:34Z</time>
      </trkpt>
      <trkpt lat="42.87299" lon="-0.19339">
        <ele>2400.4</ele>
        <time>2026-07-15T09:13:35Z</time>
      </trkpt>
      <trkpt lat="42.87299" lon="-0.19338">
        <ele>2400.4</ele>
        <time>2026-07-15T09:13:36Z</time>
      </trkpt>
      <trkpt lat="42.87299" lon="-0.19337">
        <ele>2400.4</ele>
        <time>2026-07-15T09:13:37Z</time>
      </trkpt>
      <trkpt lat="42.87298" lon="-0.19337">
        <ele>2399.4</ele>
        <time>2026-07-15T09:13:38Z</time>
      </trkpt>
      <trkpt lat="42.87298" lon="-0.19336">
        <ele>2400.4</ele>
        <time>2026-07-15T09:13:39Z</time>
      </trkpt>
      <trkpt lat="42.87297" lon="-0.19337">
        <ele>2399.4</ele>
        <time>2026-07-15T09:13:40Z</time>
      </trkpt>
      <trkpt lat="42.87298" lon="-0.19337">
        <ele>2400.4</ele>
        <time>2026-07-15T09:13:41Z</time>
      </trkpt>
      <trkpt lat="42.87297" lon="-0.19337">
        <ele>2400.4</ele>
        <time>2026-07-15T09:13:42Z</time>
      </trkpt>
      <trkpt lat="42.87297" lon="-0.19338">
        <ele>2401.4</ele>
        <time>2026-07-15T09:13:43Z</time>
      </trkpt>
      <trkpt lat="42.87296" lon="-0.19338">
        <ele>2400.4</ele>
        <time>2026-07-15T09:13:44Z</time>
      </trkpt>
      <trkpt lat="42.87296" lon="-0.19338">
        <ele>2400.4</ele>
        <time>2026-07-15T09:13:45Z</time>
      </trkpt>
      <trkpt lat="42.87296" lon="-0.19337">
        <ele>2400.4</ele>
        <time>2026-07-15T09:13:46Z</time>
      </trkpt>
      <trkpt lat="42.87295" lon="-0.19337">
        <ele>2400.4</ele>
        <time>2026-07-15T09:13:47Z</time>
      </trkpt>
      <trkpt lat="42.87295" lon="-0.19337">
        <ele>2400.4</ele>
        <time>2026-07-15T09:13:48Z</time>
      </trkpt>
      <trkpt lat="42.87295" lon="-0.19337">
        <ele>2400.4</ele>
        <time>2026-07-15T09:13:49Z</time>
      </trkpt>
      <trkpt lat="42.87295" lon="-0.19337">
        <ele>2400.4</ele>
        <time>2026-07-15T09:13:50Z</time>
      </trkpt>
      <trkpt lat="42.87293" lon="-0.19337">
        <ele>2401.4</ele>
        <time>2026-07-15T09:13:51Z</time>
      </trkpt>
      <trkpt lat="42.87293" lon="-0.19337">
        <ele>2401.4</ele>
        <time>2026-07-15T09:13:52Z</time>
      </trkpt>
      <trkpt lat="42.87293" lon="-0.19337">
        <ele>2402.4</ele>
        <time>2026-07-15T09:13:53Z</time>
      </trkpt>
      <trkpt lat="42.87293" lon="-0.19336">
        <ele>2402.4</ele>
        <time>2026-07-15T09:13:54Z</time>
      </trkpt>
      <trkpt lat="42.87292" lon="-0.19336">
        <ele>2402.4</ele>
        <time>2026-07-15T09:13:55Z</time>
      </trkpt>
      <trkpt lat="42.87292" lon="-0.19336">
        <ele>2402.4</ele>
        <time>2026-07-15T09:13:56Z</time>
      </trkpt>
      <trkpt lat="42.87292" lon="-0.19336">
        <ele>2402.4</ele>
        <time>2026-07-15T09:13:57Z</time>
      </trkpt>
      <trkpt lat="42.87292" lon="-0.19336">
        <ele>2402.4</ele>
        <time>2026-07-15T09:13:58Z</time>
      </trkpt>
      <trkpt lat="42.87291" lon="-0.19337">
        <ele>2403.4</ele>
        <time>2026-07-15T09:13:59Z</time>
      </trkpt>
      <trkpt lat="42.87292" lon="-0.19336">
        <ele>2404.4</ele>
        <time>2026-07-15T09:14:00Z</time>
      </trkpt>
      <trkpt lat="42.87291" lon="-0.19337">
        <ele>2403.4</ele>
        <time>2026-07-15T09:14:01Z</time>
      </trkpt>
      <trkpt lat="42.8729" lon="-0.19337">
        <ele>2402.4</ele>
        <time>2026-07-15T09:14:02Z</time>
      </trkpt>
      <trkpt lat="42.8729" lon="-0.19337">
        <ele>2402.4</ele>
        <time>2026-07-15T09:14:03Z</time>
      </trkpt>
      <trkpt lat="42.8729" lon="-0.19338">
        <ele>2402.4</ele>
        <time>2026-07-15T09:14:04Z</time>
      </trkpt>
      <trkpt lat="42.87289" lon="-0.19338">
        <ele>2403.4</ele>
        <time>2026-07-15T09:14:05Z</time>
      </trkpt>
      <trkpt lat="42.8729" lon="-0.19339">
        <ele>2403.4</ele>
        <time>2026-07-15T09:14:06Z</time>
      </trkpt>
      <trkpt lat="42.8729" lon="-0.19339">
        <ele>2403.4</ele>
        <time>2026-07-15T09:14:07Z</time>
      </trkpt>
      <trkpt lat="42.8729" lon="-0.19339">
        <ele>2404.4</ele>
        <time>2026-07-15T09:14:08Z</time>
      </trkpt>
      <trkpt lat="42.87289" lon="-0.19339">
        <ele>2404.4</ele>
        <time>2026-07-15T09:14:09Z</time>
      </trkpt>
      <trkpt lat="42.87289" lon="-0.19339">
        <ele>2404.4</ele>
        <time>2026-07-15T09:14:10Z</time>
      </trkpt>
      <trkpt lat="42.87288" lon="-0.1934">
        <ele>2404.4</ele>
        <time>2026-07-15T09:14:11Z</time>
      </trkpt>
      <trkpt lat="42.87288" lon="-0.1934">
        <ele>2404.4</ele>
        <time>2026-07-15T09:14:12Z</time>
      </trkpt>
      <trkpt lat="42.87288" lon="-0.19341">
        <ele>2405.4</ele>
        <time>2026-07-15T09:14:13Z</time>
      </trkpt>
      <trkpt lat="42.87287" lon="-0.19341">
        <ele>2406.4</ele>
        <time>2026-07-15T09:14:14Z</time>
      </trkpt>
      <trkpt lat="42.87286" lon="-0.19341">
        <ele>2406.4</ele>
        <time>2026-07-15T09:14:15Z</time>
      </trkpt>
      <trkpt lat="42.87286" lon="-0.19341">
        <ele>2406.4</ele>
        <time>2026-07-15T09:14:16Z</time>
      </trkpt>
      <trkpt lat="42.87286" lon="-0.19341">
        <ele>2406.4</ele>
        <time>2026-07-15T09:14:17Z</time>
      </trkpt>
      <trkpt lat="42.87286" lon="-0.19341">
        <ele>2407.4</ele>
        <time>2026-07-15T09:14:18Z</time>
      </trkpt>
      <trkpt lat="42.87285" lon="-0.19341">
        <ele>2408.4</ele>
        <time>2026-07-15T09:14:19Z</time>
      </trkpt>
      <trkpt lat="42.87285" lon="-0.19341">
        <ele>2408.4</ele>
        <time>2026-07-15T09:14:20Z</time>
      </trkpt>
      <trkpt lat="42.87285" lon="-0.19341">
        <ele>2408.4</ele>
        <time>2026-07-15T09:14:21Z</time>
      </trkpt>
      <trkpt lat="42.87285" lon="-0.19341">
        <ele>2408.4</ele>
        <time>2026-07-15T09:14:22Z</time>
      </trkpt>
      <trkpt lat="42.87285" lon="-0.19342">
        <ele>2408.4</ele>
        <time>2026-07-15T09:14:23Z</time>
      </trkpt>
      <trkpt lat="42.87284" lon="-0.19342">
        <ele>2409.4</ele>
        <time>2026-07-15T09:14:24Z</time>
      </trkpt>
      <trkpt lat="42.87283" lon="-0.19342">
        <ele>2408.4</ele>
        <time>2026-07-15T09:14:25Z</time>
      </trkpt>
      <trkpt lat="42.87283" lon="-0.19343">
        <ele>2409.4</ele>
        <time>2026-07-15T09:14:26Z</time>
      </trkpt>
      <trkpt lat="42.87283" lon="-0.19343">
        <ele>2410.4</ele>
        <time>2026-07-15T09:14:27Z</time>
      </trkpt>
      <trkpt lat="42.87283" lon="-0.19343">
        <ele>2410.4</ele>
        <time>2026-07-15T09:14:28Z</time>
      </trkpt>
      <trkpt lat="42.87283" lon="-0.19343">
        <ele>2411.4</ele>
        <time>2026-07-15T09:14:29Z</time>
      </trkpt>
      <trkpt lat="42.87283" lon="-0.19343">
        <ele>2410.4</ele>
        <time>2026-07-15T09:14:30Z</time>
      </trkpt>
      <trkpt lat="42.87283" lon="-0.19343">
        <ele>2410.4</ele>
        <time>2026-07-15T09:14:31Z</time>
      </trkpt>
      <trkpt lat="42.87283" lon="-0.19343">
        <ele>2411.4</ele>
        <time>2026-07-15T09:14:32Z</time>
      </trkpt>
      <trkpt lat="42.87283" lon="-0.19342">
        <ele>2412.4</ele>
        <time>2026-07-15T09:14:33Z</time>
      </trkpt>
      <trkpt lat="42.87283" lon="-0.19342">
        <ele>2412.4</ele>
        <time>2026-07-15T09:14:34Z</time>
      </trkpt>
      <trkpt lat="42.87283" lon="-0.19341">
        <ele>2412.4</ele>
        <time>2026-07-15T09:14:35Z</time>
      </trkpt>
      <trkpt lat="42.87283" lon="-0.1934">
        <ele>2412.4</ele>
        <time>2026-07-15T09:14:36Z</time>
      </trkpt>
      <trkpt lat="42.87282" lon="-0.19339">
        <ele>2412.4</ele>
        <time>2026-07-15T09:14:37Z</time>
      </trkpt>
      <trkpt lat="42.87282" lon="-0.1934">
        <ele>2412.4</ele>
        <time>2026-07-15T09:14:38Z</time>
      </trkpt>
      <trkpt lat="42.87281" lon="-0.19339">
        <ele>2412.4</ele>
        <time>2026-07-15T09:14:39Z</time>
      </trkpt>
      <trkpt lat="42.87281" lon="-0.19339">
        <ele>2412.4</ele>
        <time>2026-07-15T09:14:40Z</time>
      </trkpt>
      <trkpt lat="42.8728" lon="-0.19339">
        <ele>2412.4</ele>
        <time>2026-07-15T09:14:41Z</time>
      </trkpt>
      <trkpt lat="42.8728" lon="-0.19339">
        <ele>2413.4</ele>
        <time>2026-07-15T09:14:42Z</time>
      </trkpt>
      <trkpt lat="42.87281" lon="-0.19339">
        <ele>2412.4</ele>
        <time>2026-07-15T09:14:43Z</time>
      </trkpt>
      <trkpt lat="42.87281" lon="-0.19339">
        <ele>2411.4</ele>
        <time>2026-07-15T09:14:44Z</time>
      </trkpt>
      <trkpt lat="42.8728" lon="-0.19338">
        <ele>2411.4</ele>
        <time>2026-07-15T09:14:45Z</time>
      </trkpt>
      <trkpt lat="42.8728" lon="-0.19338">
        <ele>2412.4</ele>
        <time>2026-07-15T09:14:46Z</time>
      </trkpt>
      <trkpt lat="42.8728" lon="-0.19338">
        <ele>2411.4</ele>
        <time>2026-07-15T09:14:47Z</time>
      </trkpt>
      <trkpt lat="42.87279" lon="-0.19337">
        <ele>2411.4</ele>
        <time>2026-07-15T09:14:48Z</time>
      </trkpt>
      <trkpt lat="42.87279" lon="-0.19338">
        <ele>2411.4</ele>
        <time>2026-07-15T09:14:49Z</time>
      </trkpt>
      <trkpt lat="42.87278" lon="-0.19337">
        <ele>2411.4</ele>
        <time>2026-07-15T09:14:50Z</time>
      </trkpt>
      <trkpt lat="42.87278" lon="-0.19338">
        <ele>2411.4</ele>
        <time>2026-07-15T09:14:51Z</time>
      </trkpt>
      <trkpt lat="42.87278" lon="-0.19338">
        <ele>2411.4</ele>
        <time>2026-07-15T09:14:52Z</time>
      </trkpt>
      <trkpt lat="42.87277" lon="-0.19337">
        <ele>2412.4</ele>
        <time>2026-07-15T09:14:53Z</time>
      </trkpt>
      <trkpt lat="42.87277" lon="-0.19337">
        <ele>2412.4</ele>
        <time>2026-07-15T09:14:54Z</time>
      </trkpt>
      <trkpt lat="42.87276" lon="-0.19336">
        <ele>2412.4</ele>
        <time>2026-07-15T09:14:55Z</time>
      </trkpt>
      <trkpt lat="42.87276" lon="-0.19336">
        <ele>2412.4</ele>
        <time>2026-07-15T09:14:56Z</time>
      </trkpt>
      <trkpt lat="42.87276" lon="-0.19336">
        <ele>2412.4</ele>
        <time>2026-07-15T09:14:57Z</time>
      </trkpt>
      <trkpt lat="42.87275" lon="-0.19336">
        <ele>2412.4</ele>
        <time>2026-07-15T09:14:58Z</time>
      </trkpt>
      <trkpt lat="42.87275" lon="-0.19336">
        <ele>2413.4</ele>
        <time>2026-07-15T09:14:59Z</time>
      </trkpt>
      <trkpt lat="42.87275" lon="-0.19335">
        <ele>2413.4</ele>
        <time>2026-07-15T09:15:00Z</time>
      </trkpt>
      <trkpt lat="42.87275" lon="-0.19336">
        <ele>2413.4</ele>
        <time>2026-07-15T09:15:01Z</time>
      </trkpt>
      <trkpt lat="42.87275" lon="-0.19336">
        <ele>2414.4</ele>
        <time>2026-07-15T09:15:02Z</time>
      </trkpt>
      <trkpt lat="42.87274" lon="-0.19335">
        <ele>2414.4</ele>
        <time>2026-07-15T09:15:03Z</time>
      </trkpt>
      <trkpt lat="42.87274" lon="-0.19335">
        <ele>2414.4</ele>
        <time>2026-07-15T09:15:04Z</time>
      </trkpt>
      <trkpt lat="42.87274" lon="-0.19336">
        <ele>2414.4</ele>
        <time>2026-07-15T09:15:05Z</time>
      </trkpt>
      <trkpt lat="42.87274" lon="-0.19336">
        <ele>2415.4</ele>
        <time>2026-07-15T09:15:06Z</time>
      </trkpt>
      <trkpt lat="42.87274" lon="-0.19336">
        <ele>2415.4</ele>
        <time>2026-07-15T09:15:07Z</time>
      </trkpt>
      <trkpt lat="42.87273" lon="-0.19335">
        <ele>2414.4</ele>
        <time>2026-07-15T09:15:08Z</time>
      </trkpt>
      <trkpt lat="42.87273" lon="-0.19336">
        <ele>2415.4</ele>
        <time>2026-07-15T09:15:09Z</time>
      </trkpt>
      <trkpt lat="42.87273" lon="-0.19336">
        <ele>2415.4</ele>
        <time>2026-07-15T09:15:10Z</time>
      </trkpt>
      <trkpt lat="42.87272" lon="-0.19336">
        <ele>2415.4</ele>
        <time>2026-07-15T09:15:11Z</time>
      </trkpt>
      <trkpt lat="42.87271" lon="-0.19335">
        <ele>2415.4</ele>
        <time>2026-07-15T09:15:12Z</time>
      </trkpt>
      <trkpt lat="42.87271" lon="-0.19335">
        <ele>2414.4</ele>
        <time>2026-07-15T09:15:13Z</time>
      </trkpt>
      <trkpt lat="42.87271" lon="-0.19334">
        <ele>2414.4</ele>
        <time>2026-07-15T09:15:14Z</time>
      </trkpt>
      <trkpt lat="42.87269" lon="-0.19334">
        <ele>2413.4</ele>
        <time>2026-07-15T09:15:15Z</time>
      </trkpt>
      <trkpt lat="42.87268" lon="-0.19334">
        <ele>2413.4</ele>
        <time>2026-07-15T09:15:16Z</time>
      </trkpt>
      <trkpt lat="42.87267" lon="-0.19333">
        <ele>2413.4</ele>
        <time>2026-07-15T09:15:17Z</time>
      </trkpt>
      <trkpt lat="42.87267" lon="-0.19333">
        <ele>2413.4</ele>
        <time>2026-07-15T09:15:18Z</time>
      </trkpt>
      <trkpt lat="42.87267" lon="-0.19334">
        <ele>2413.4</ele>
        <time>2026-07-15T09:15:19Z</time>
      </trkpt>
      <trkpt lat="42.87267" lon="-0.19333">
        <ele>2414.4</ele>
        <time>2026-07-15T09:15:20Z</time>
      </trkpt>
      <trkpt lat="42.87266" lon="-0.19333">
        <ele>2414.4</ele>
        <time>2026-07-15T09:15:21Z</time>
      </trkpt>
      <trkpt lat="42.87266" lon="-0.19333">
        <ele>2414.4</ele>
        <time>2026-07-15T09:15:22Z</time>
      </trkpt>
      <trkpt lat="42.87266" lon="-0.19334">
        <ele>2414.4</ele>
        <time>2026-07-15T09:15:23Z</time>
      </trkpt>
      <trkpt lat="42.87266" lon="-0.19332">
        <ele>2414.4</ele>
        <time>2026-07-15T09:15:24Z</time>
      </trkpt>
      <trkpt lat="42.87265" lon="-0.19331">
        <ele>2415.4</ele>
        <time>2026-07-15T09:15:25Z</time>
      </trkpt>
      <trkpt lat="42.87265" lon="-0.19332">
        <ele>2415.4</ele>
        <time>2026-07-15T09:15:26Z</time>
      </trkpt>
      <trkpt lat="42.87264" lon="-0.19332">
        <ele>2416.4</ele>
        <time>2026-07-15T09:15:27Z</time>
      </trkpt>
      <trkpt lat="42.87264" lon="-0.19333">
        <ele>2417.4</ele>
        <time>2026-07-15T09:15:28Z</time>
      </trkpt>
      <trkpt lat="42.87264" lon="-0.19333">
        <ele>2417.4</ele>
        <time>2026-07-15T09:15:29Z</time>
      </trkpt>
      <trkpt lat="42.87263" lon="-0.19334">
        <ele>2417.4</ele>
        <time>2026-07-15T09:15:30Z</time>
      </trkpt>
      <trkpt lat="42.87262" lon="-0.19334">
        <ele>2417.4</ele>
        <time>2026-07-15T09:15:31Z</time>
      </trkpt>
      <trkpt lat="42.87261" lon="-0.19334">
        <ele>2416.4</ele>
        <time>2026-07-15T09:15:32Z</time>
      </trkpt>
      <trkpt lat="42.87261" lon="-0.19336">
        <ele>2416.4</ele>
        <time>2026-07-15T09:15:33Z</time>
      </trkpt>
      <trkpt lat="42.8726" lon="-0.19336">
        <ele>2416.4</ele>
        <time>2026-07-15T09:15:34Z</time>
      </trkpt>
      <trkpt lat="42.87261" lon="-0.19336">
        <ele>2416.4</ele>
        <time>2026-07-15T09:15:35Z</time>
      </trkpt>
      <trkpt lat="42.8726" lon="-0.19336">
        <ele>2417.4</ele>
        <time>2026-07-15T09:15:36Z</time>
      </trkpt>
      <trkpt lat="42.8726" lon="-0.19337">
        <ele>2418.4</ele>
        <time>2026-07-15T09:15:37Z</time>
      </trkpt>
      <trkpt lat="42.87259" lon="-0.19337">
        <ele>2418.4</ele>
        <time>2026-07-15T09:15:38Z</time>
      </trkpt>
      <trkpt lat="42.87258" lon="-0.19337">
        <ele>2418.4</ele>
        <time>2026-07-15T09:15:39Z</time>
      </trkpt>
      <trkpt lat="42.87257" lon="-0.19338">
        <ele>2418.4</ele>
        <time>2026-07-15T09:15:40Z</time>
      </trkpt>
      <trkpt lat="42.87256" lon="-0.19339">
        <ele>2418.4</ele>
        <time>2026-07-15T09:15:41Z</time>
      </trkpt>
      <trkpt lat="42.87256" lon="-0.19339">
        <ele>2418.4</ele>
        <time>2026-07-15T09:15:42Z</time>
      </trkpt>
      <trkpt lat="42.87256" lon="-0.19339">
        <ele>2417.4</ele>
        <time>2026-07-15T09:15:43Z</time>
      </trkpt>
      <trkpt lat="42.87256" lon="-0.1934">
        <ele>2418.4</ele>
        <time>2026-07-15T09:15:44Z</time>
      </trkpt>
      <trkpt lat="42.87255" lon="-0.19341">
        <ele>2417.4</ele>
        <time>2026-07-15T09:15:45Z</time>
      </trkpt>
      <trkpt lat="42.87255" lon="-0.19341">
        <ele>2418.4</ele>
        <time>2026-07-15T09:15:46Z</time>
      </trkpt>
      <trkpt lat="42.87255" lon="-0.19341">
        <ele>2418.4</ele>
        <time>2026-07-15T09:15:47Z</time>
      </trkpt>
      <trkpt lat="42.87255" lon="-0.19341">
        <ele>2418.4</ele>
        <time>2026-07-15T09:15:48Z</time>
      </trkpt>
      <trkpt lat="42.87254" lon="-0.1934">
        <ele>2417.4</ele>
        <time>2026-07-15T09:15:49Z</time>
      </trkpt>
      <trkpt lat="42.87253" lon="-0.19341">
        <ele>2418.4</ele>
        <time>2026-07-15T09:15:50Z</time>
      </trkpt>
      <trkpt lat="42.87254" lon="-0.19341">
        <ele>2419.4</ele>
        <time>2026-07-15T09:15:51Z</time>
      </trkpt>
      <trkpt lat="42.87253" lon="-0.19341">
        <ele>2419.4</ele>
        <time>2026-07-15T09:15:52Z</time>
      </trkpt>
      <trkpt lat="42.87253" lon="-0.19341">
        <ele>2419.4</ele>
        <time>2026-07-15T09:15:53Z</time>
      </trkpt>
      <trkpt lat="42.87253" lon="-0.19341">
        <ele>2419.4</ele>
        <time>2026-07-15T09:15:54Z</time>
      </trkpt>
      <trkpt lat="42.87253" lon="-0.19341">
        <ele>2419.4</ele>
        <time>2026-07-15T09:15:55Z</time>
      </trkpt>
      <trkpt lat="42.87252" lon="-0.19341">
        <ele>2419.4</ele>
        <time>2026-07-15T09:15:56Z</time>
      </trkpt>
      <trkpt lat="42.87251" lon="-0.19341">
        <ele>2420.4</ele>
        <time>2026-07-15T09:15:57Z</time>
      </trkpt>
      <trkpt lat="42.87251" lon="-0.19341">
        <ele>2421.4</ele>
        <time>2026-07-15T09:15:58Z</time>
      </trkpt>
      <trkpt lat="42.8725" lon="-0.19341">
        <ele>2421.4</ele>
        <time>2026-07-15T09:15:59Z</time>
      </trkpt>
      <trkpt lat="42.87249" lon="-0.19341">
        <ele>2421.4</ele>
        <time>2026-07-15T09:16:00Z</time>
      </trkpt>
      <trkpt lat="42.87249" lon="-0.19341">
        <ele>2421.4</ele>
        <time>2026-07-15T09:16:01Z</time>
      </trkpt>
      <trkpt lat="42.87248" lon="-0.1934">
        <ele>2421.4</ele>
        <time>2026-07-15T09:16:02Z</time>
      </trkpt>
      <trkpt lat="42.87248" lon="-0.19341">
        <ele>2421.4</ele>
        <time>2026-07-15T09:16:03Z</time>
      </trkpt>
      <trkpt lat="42.87247" lon="-0.19341">
        <ele>2422.4</ele>
        <time>2026-07-15T09:16:04Z</time>
      </trkpt>
      <trkpt lat="42.87247" lon="-0.19341">
        <ele>2422.4</ele>
        <time>2026-07-15T09:16:05Z</time>
      </trkpt>
      <trkpt lat="42.87245" lon="-0.19341">
        <ele>2422.4</ele>
        <time>2026-07-15T09:16:06Z</time>
      </trkpt>
      <trkpt lat="42.87245" lon="-0.19341">
        <ele>2422.4</ele>
        <time>2026-07-15T09:16:07Z</time>
      </trkpt>
      <trkpt lat="42.87244" lon="-0.19342">
        <ele>2422.4</ele>
        <time>2026-07-15T09:16:08Z</time>
      </trkpt>
      <trkpt lat="42.87244" lon="-0.19342">
        <ele>2422.4</ele>
        <time>2026-07-15T09:16:09Z</time>
      </trkpt>
      <trkpt lat="42.87244" lon="-0.19342">
        <ele>2422.4</ele>
        <time>2026-07-15T09:16:10Z</time>
      </trkpt>
      <trkpt lat="42.87243" lon="-0.19341">
        <ele>2422.4</ele>
        <time>2026-07-15T09:16:11Z</time>
      </trkpt>
      <trkpt lat="42.87242" lon="-0.19342">
        <ele>2422.4</ele>
        <time>2026-07-15T09:16:12Z</time>
      </trkpt>
      <trkpt lat="42.87241" lon="-0.19342">
        <ele>2422.4</ele>
        <time>2026-07-15T09:16:13Z</time>
      </trkpt>
      <trkpt lat="42.87241" lon="-0.19343">
        <ele>2423.4</ele>
        <time>2026-07-15T09:16:14Z</time>
      </trkpt>
      <trkpt lat="42.87241" lon="-0.19343">
        <ele>2423.4</ele>
        <time>2026-07-15T09:16:15Z</time>
      </trkpt>
      <trkpt lat="42.87241" lon="-0.19343">
        <ele>2423.4</ele>
        <time>2026-07-15T09:16:16Z</time>
      </trkpt>
      <trkpt lat="42.8724" lon="-0.19344">
        <ele>2424.4</ele>
        <time>2026-07-15T09:16:17Z</time>
      </trkpt>
      <trkpt lat="42.8724" lon="-0.19344">
        <ele>2425.4</ele>
        <time>2026-07-15T09:16:18Z</time>
      </trkpt>
      <trkpt lat="42.8724" lon="-0.19344">
        <ele>2425.4</ele>
        <time>2026-07-15T09:16:19Z</time>
      </trkpt>
      <trkpt lat="42.8724" lon="-0.19344">
        <ele>2426.4</ele>
        <time>2026-07-15T09:16:20Z</time>
      </trkpt>
      <trkpt lat="42.87239" lon="-0.19344">
        <ele>2426.4</ele>
        <time>2026-07-15T09:16:21Z</time>
      </trkpt>
      <trkpt lat="42.87239" lon="-0.19345">
        <ele>2426.4</ele>
        <time>2026-07-15T09:16:22Z</time>
      </trkpt>
      <trkpt lat="42.87239" lon="-0.19345">
        <ele>2426.4</ele>
        <time>2026-07-15T09:16:23Z</time>
      </trkpt>
      <trkpt lat="42.87238" lon="-0.19345">
        <ele>2426.4</ele>
        <time>2026-07-15T09:16:24Z</time>
      </trkpt>
      <trkpt lat="42.87238" lon="-0.19346">
        <ele>2426.4</ele>
        <time>2026-07-15T09:16:25Z</time>
      </trkpt>
      <trkpt lat="42.87238" lon="-0.19346">
        <ele>2427.4</ele>
        <time>2026-07-15T09:16:26Z</time>
      </trkpt>
      <trkpt lat="42.87238" lon="-0.19347">
        <ele>2427.4</ele>
        <time>2026-07-15T09:16:27Z</time>
      </trkpt>
      <trkpt lat="42.87238" lon="-0.19347">
        <ele>2427.4</ele>
        <time>2026-07-15T09:16:28Z</time>
      </trkpt>
      <trkpt lat="42.87238" lon="-0.19347">
        <ele>2427.4</ele>
        <time>2026-07-15T09:16:29Z</time>
      </trkpt>
      <trkpt lat="42.87238" lon="-0.19346">
        <ele>2428.4</ele>
        <time>2026-07-15T09:16:30Z</time>
      </trkpt>
      <trkpt lat="42.87238" lon="-0.19345">
        <ele>2427.4</ele>
        <time>2026-07-15T09:16:31Z</time>
      </trkpt>
      <trkpt lat="42.87237" lon="-0.19345">
        <ele>2427.4</ele>
        <time>2026-07-15T09:16:32Z</time>
      </trkpt>
      <trkpt lat="42.87237" lon="-0.19345">
        <ele>2427.4</ele>
        <time>2026-07-15T09:16:33Z</time>
      </trkpt>
      <trkpt lat="42.87236" lon="-0.19346">
        <ele>2428.4</ele>
        <time>2026-07-15T09:16:34Z</time>
      </trkpt>
      <trkpt lat="42.87236" lon="-0.19345">
        <ele>2427.4</ele>
        <time>2026-07-15T09:16:35Z</time>
      </trkpt>
      <trkpt lat="42.87236" lon="-0.19345">
        <ele>2427.4</ele>
        <time>2026-07-15T09:16:36Z</time>
      </trkpt>
      <trkpt lat="42.87235" lon="-0.19345">
        <ele>2427.4</ele>
        <time>2026-07-15T09:16:37Z</time>
      </trkpt>
      <trkpt lat="42.87234" lon="-0.19346">
        <ele>2427.4</ele>
        <time>2026-07-15T09:16:38Z</time>
      </trkpt>
      <trkpt lat="42.87233" lon="-0.19346">
        <ele>2428.4</ele>
        <time>2026-07-15T09:16:39Z</time>
      </trkpt>
      <trkpt lat="42.87232" lon="-0.19346">
        <ele>2429.4</ele>
        <time>2026-07-15T09:16:40Z</time>
      </trkpt>
      <trkpt lat="42.87232" lon="-0.19346">
        <ele>2429.4</ele>
        <time>2026-07-15T09:16:41Z</time>
      </trkpt>
      <trkpt lat="42.87232" lon="-0.19346">
        <ele>2429.4</ele>
        <time>2026-07-15T09:16:42Z</time>
      </trkpt>
      <trkpt lat="42.87232" lon="-0.19346">
        <ele>2428.4</ele>
        <time>2026-07-15T09:16:43Z</time>
      </trkpt>
      <trkpt lat="42.87231" lon="-0.19346">
        <ele>2428.4</ele>
        <time>2026-07-15T09:16:44Z</time>
      </trkpt>
      <trkpt lat="42.8723" lon="-0.19347">
        <ele>2428.4</ele>
        <time>2026-07-15T09:16:45Z</time>
      </trkpt>
      <trkpt lat="42.8723" lon="-0.19346">
        <ele>2428.4</ele>
        <time>2026-07-15T09:16:46Z</time>
      </trkpt>
      <trkpt lat="42.8723" lon="-0.19347">
        <ele>2427.4</ele>
        <time>2026-07-15T09:16:47Z</time>
      </trkpt>
      <trkpt lat="42.8723" lon="-0.19348">
        <ele>2428.4</ele>
        <time>2026-07-15T09:16:48Z</time>
      </trkpt>
      <trkpt lat="42.8723" lon="-0.19348">
        <ele>2428.4</ele>
        <time>2026-07-15T09:16:49Z</time>
      </trkpt>
      <trkpt lat="42.87229" lon="-0.19348">
        <ele>2428.4</ele>
        <time>2026-07-15T09:16:50Z</time>
      </trkpt>
      <trkpt lat="42.87229" lon="-0.19348">
        <ele>2428.4</ele>
        <time>2026-07-15T09:16:51Z</time>
      </trkpt>
      <trkpt lat="42.87228" lon="-0.19348">
        <ele>2428.4</ele>
        <time>2026-07-15T09:16:52Z</time>
      </trkpt>
      <trkpt lat="42.87227" lon="-0.19349">
        <ele>2428.4</ele>
        <time>2026-07-15T09:16:53Z</time>
      </trkpt>
      <trkpt lat="42.87226" lon="-0.1935">
        <ele>2427.4</ele>
        <time>2026-07-15T09:16:54Z</time>
      </trkpt>
      <trkpt lat="42.87226" lon="-0.1935">
        <ele>2427.4</ele>
        <time>2026-07-15T09:16:55Z</time>
      </trkpt>
      <trkpt lat="42.87226" lon="-0.1935">
        <ele>2426.4</ele>
        <time>2026-07-15T09:16:56Z</time>
      </trkpt>
      <trkpt lat="42.87225" lon="-0.19352">
        <ele>2426.4</ele>
        <time>2026-07-15T09:16:57Z</time>
      </trkpt>
      <trkpt lat="42.87225" lon="-0.19352">
        <ele>2425.4</ele>
        <time>2026-07-15T09:16:58Z</time>
      </trkpt>
      <trkpt lat="42.87224" lon="-0.19353">
        <ele>2425.4</ele>
        <time>2026-07-15T09:16:59Z</time>
      </trkpt>
      <trkpt lat="42.87224" lon="-0.19353">
        <ele>2425.4</ele>
        <time>2026-07-15T09:17:00Z</time>
      </trkpt>
      <trkpt lat="42.87223" lon="-0.19354">
        <ele>2426.4</ele>
        <time>2026-07-15T09:17:01Z</time>
      </trkpt>
      <trkpt lat="42.87223" lon="-0.19354">
        <ele>2426.4</ele>
        <time>2026-07-15T09:17:02Z</time>
      </trkpt>
      <trkpt lat="42.87222" lon="-0.19354">
        <ele>2427.4</ele>
        <time>2026-07-15T09:17:03Z</time>
      </trkpt>
      <trkpt lat="42.87221" lon="-0.19354">
        <ele>2427.4</ele>
        <time>2026-07-15T09:17:04Z</time>
      </trkpt>
      <trkpt lat="42.87221" lon="-0.19354">
        <ele>2427.4</ele>
        <time>2026-07-15T09:17:05Z</time>
      </trkpt>
      <trkpt lat="42.87221" lon="-0.19353">
        <ele>2426.4</ele>
        <time>2026-07-15T09:17:06Z</time>
      </trkpt>
      <trkpt lat="42.8722" lon="-0.19353">
        <ele>2427.4</ele>
        <time>2026-07-15T09:17:07Z</time>
      </trkpt>
      <trkpt lat="42.87219" lon="-0.19353">
        <ele>2428.4</ele>
        <time>2026-07-15T09:17:08Z</time>
      </trkpt>
      <trkpt lat="42.87218" lon="-0.19351">
        <ele>2428.4</ele>
        <time>2026-07-15T09:17:09Z</time>
      </trkpt>
      <trkpt lat="42.87218" lon="-0.19351">
        <ele>2429.4</ele>
        <time>2026-07-15T09:17:10Z</time>
      </trkpt>
      <trkpt lat="42.87218" lon="-0.1935">
        <ele>2429.4</ele>
        <time>2026-07-15T09:17:11Z</time>
      </trkpt>
      <trkpt lat="42.87218" lon="-0.1935">
        <ele>2428.4</ele>
        <time>2026-07-15T09:17:12Z</time>
      </trkpt>
      <trkpt lat="42.87217" lon="-0.19349">
        <ele>2429.4</ele>
        <time>2026-07-15T09:17:13Z</time>
      </trkpt>
      <trkpt lat="42.87216" lon="-0.19348">
        <ele>2429.4</ele>
        <time>2026-07-15T09:17:14Z</time>
      </trkpt>
      <trkpt lat="42.87216" lon="-0.19348">
        <ele>2430.4</ele>
        <time>2026-07-15T09:17:15Z</time>
      </trkpt>
      <trkpt lat="42.87215" lon="-0.19347">
        <ele>2429.4</ele>
        <time>2026-07-15T09:17:16Z</time>
      </trkpt>
      <trkpt lat="42.87215" lon="-0.19347">
        <ele>2429.4</ele>
        <time>2026-07-15T09:17:17Z</time>
      </trkpt>
      <trkpt lat="42.87215" lon="-0.19347">
        <ele>2430.4</ele>
        <time>2026-07-15T09:17:18Z</time>
      </trkpt>
      <trkpt lat="42.87214" lon="-0.19347">
        <ele>2431.4</ele>
        <time>2026-07-15T09:17:19Z</time>
      </trkpt>
      <trkpt lat="42.87214" lon="-0.19348">
        <ele>2431.4</ele>
        <time>2026-07-15T09:17:20Z</time>
      </trkpt>
      <trkpt lat="42.87213" lon="-0.19348">
        <ele>2430.4</ele>
        <time>2026-07-15T09:17:21Z</time>
      </trkpt>
      <trkpt lat="42.87212" lon="-0.19348">
        <ele>2430.4</ele>
        <time>2026-07-15T09:17:22Z</time>
      </trkpt>
      <trkpt lat="42.87212" lon="-0.19347">
        <ele>2430.4</ele>
        <time>2026-07-15T09:17:23Z</time>
      </trkpt>
      <trkpt lat="42.87211" lon="-0.19347">
        <ele>2430.4</ele>
        <time>2026-07-15T09:17:24Z</time>
      </trkpt>
      <trkpt lat="42.87211" lon="-0.19346">
        <ele>2431.4</ele>
        <time>2026-07-15T09:17:25Z</time>
      </trkpt>
      <trkpt lat="42.8721" lon="-0.19347">
        <ele>2431.4</ele>
        <time>2026-07-15T09:17:26Z</time>
      </trkpt>
      <trkpt lat="42.87211" lon="-0.19346">
        <ele>2432.4</ele>
        <time>2026-07-15T09:17:27Z</time>
      </trkpt>
      <trkpt lat="42.8721" lon="-0.19346">
        <ele>2432.4</ele>
        <time>2026-07-15T09:17:28Z</time>
      </trkpt>
      <trkpt lat="42.87209" lon="-0.19347">
        <ele>2431.4</ele>
        <time>2026-07-15T09:17:29Z</time>
      </trkpt>
      <trkpt lat="42.87208" lon="-0.19347">
        <ele>2431.4</ele>
        <time>2026-07-15T09:17:30Z</time>
      </trkpt>
      <trkpt lat="42.87208" lon="-0.19347">
        <ele>2431.4</ele>
        <time>2026-07-15T09:17:31Z</time>
      </trkpt>
      <trkpt lat="42.87208" lon="-0.19347">
        <ele>2431.4</ele>
        <time>2026-07-15T09:17:32Z</time>
      </trkpt>
      <trkpt lat="42.87208" lon="-0.19348">
        <ele>2432.4</ele>
        <time>2026-07-15T09:17:33Z</time>
      </trkpt>
      <trkpt lat="42.87207" lon="-0.19348">
        <ele>2433.4</ele>
        <time>2026-07-15T09:17:34Z</time>
      </trkpt>
      <trkpt lat="42.87207" lon="-0.19348">
        <ele>2432.4</ele>
        <time>2026-07-15T09:17:35Z</time>
      </trkpt>
      <trkpt lat="42.87207" lon="-0.19348">
        <ele>2432.4</ele>
        <time>2026-07-15T09:17:36Z</time>
      </trkpt>
      <trkpt lat="42.87207" lon="-0.19349">
        <ele>2431.4</ele>
        <time>2026-07-15T09:17:37Z</time>
      </trkpt>
      <trkpt lat="42.87206" lon="-0.19349">
        <ele>2430.4</ele>
        <time>2026-07-15T09:17:38Z</time>
      </trkpt>
      <trkpt lat="42.87206" lon="-0.19349">
        <ele>2430.4</ele>
        <time>2026-07-15T09:17:39Z</time>
      </trkpt>
      <trkpt lat="42.87206" lon="-0.19349">
        <ele>2431.4</ele>
        <time>2026-07-15T09:17:40Z</time>
      </trkpt>
      <trkpt lat="42.87205" lon="-0.19349">
        <ele>2431.4</ele>
        <time>2026-07-15T09:17:41Z</time>
      </trkpt>
      <trkpt lat="42.87204" lon="-0.19348">
        <ele>2430.4</ele>
        <time>2026-07-15T09:17:42Z</time>
      </trkpt>
      <trkpt lat="42.87204" lon="-0.19349">
        <ele>2431.4</ele>
        <time>2026-07-15T09:17:43Z</time>
      </trkpt>
      <trkpt lat="42.87204" lon="-0.1935">
        <ele>2431.4</ele>
        <time>2026-07-15T09:17:44Z</time>
      </trkpt>
      <trkpt lat="42.87204" lon="-0.19349">
        <ele>2431.4</ele>
        <time>2026-07-15T09:17:45Z</time>
      </trkpt>
      <trkpt lat="42.87204" lon="-0.19349">
        <ele>2431.4</ele>
        <time>2026-07-15T09:17:46Z</time>
      </trkpt>
      <trkpt lat="42.87204" lon="-0.19349">
        <ele>2431.4</ele>
        <time>2026-07-15T09:17:47Z</time>
      </trkpt>
      <trkpt lat="42.87203" lon="-0.19349">
        <ele>2432.4</ele>
        <time>2026-07-15T09:17:48Z</time>
      </trkpt>
      <trkpt lat="42.87203" lon="-0.19349">
        <ele>2432.4</ele>
        <time>2026-07-15T09:17:49Z</time>
      </trkpt>
      <trkpt lat="42.87202" lon="-0.1935">
        <ele>2433.4</ele>
        <time>2026-07-15T09:17:50Z</time>
      </trkpt>
      <trkpt lat="42.87202" lon="-0.1935">
        <ele>2432.4</ele>
        <time>2026-07-15T09:17:51Z</time>
      </trkpt>
      <trkpt lat="42.87201" lon="-0.19351">
        <ele>2432.4</ele>
        <time>2026-07-15T09:17:52Z</time>
      </trkpt>
      <trkpt lat="42.87201" lon="-0.19351">
        <ele>2432.4</ele>
        <time>2026-07-15T09:17:53Z</time>
      </trkpt>
      <trkpt lat="42.872" lon="-0.19352">
        <ele>2432.4</ele>
        <time>2026-07-15T09:17:54Z</time>
      </trkpt>
      <trkpt lat="42.872" lon="-0.19352">
        <ele>2432.4</ele>
        <time>2026-07-15T09:17:55Z</time>
      </trkpt>
      <trkpt lat="42.872" lon="-0.19353">
        <ele>2432.4</ele>
        <time>2026-07-15T09:17:56Z</time>
      </trkpt>
      <trkpt lat="42.87199" lon="-0.19354">
        <ele>2432.4</ele>
        <time>2026-07-15T09:17:57Z</time>
      </trkpt>
      <trkpt lat="42.87199" lon="-0.19355">
        <ele>2432.4</ele>
        <time>2026-07-15T09:17:58Z</time>
      </trkpt>
      <trkpt lat="42.87199" lon="-0.19354">
        <ele>2433.4</ele>
        <time>2026-07-15T09:17:59Z</time>
      </trkpt>
      <trkpt lat="42.87199" lon="-0.19355">
        <ele>2433.4</ele>
        <time>2026-07-15T09:18:00Z</time>
      </trkpt>
      <trkpt lat="42.87199" lon="-0.19356">
        <ele>2434.4</ele>
        <time>2026-07-15T09:18:01Z</time>
      </trkpt>
      <trkpt lat="42.87198" lon="-0.19356">
        <ele>2434.4</ele>
        <time>2026-07-15T09:18:02Z</time>
      </trkpt>
      <trkpt lat="42.87198" lon="-0.19357">
        <ele>2434.4</ele>
        <time>2026-07-15T09:18:03Z</time>
      </trkpt>
      <trkpt lat="42.87198" lon="-0.19357">
        <ele>2435.4</ele>
        <time>2026-07-15T09:18:04Z</time>
      </trkpt>
      <trkpt lat="42.87197" lon="-0.19358">
        <ele>2436.4</ele>
        <time>2026-07-15T09:18:05Z</time>
      </trkpt>
      <trkpt lat="42.87197" lon="-0.19358">
        <ele>2436.4</ele>
        <time>2026-07-15T09:18:06Z</time>
      </trkpt>
      <trkpt lat="42.87197" lon="-0.19358">
        <ele>2437.4</ele>
        <time>2026-07-15T09:18:07Z</time>
      </trkpt>
      <trkpt lat="42.87197" lon="-0.19359">
        <ele>2437.4</ele>
        <time>2026-07-15T09:18:08Z</time>
      </trkpt>
      <trkpt lat="42.87197" lon="-0.19359">
        <ele>2437.4</ele>
        <time>2026-07-15T09:18:09Z</time>
      </trkpt>
      <trkpt lat="42.87196" lon="-0.19359">
        <ele>2437.4</ele>
        <time>2026-07-15T09:18:10Z</time>
      </trkpt>
      <trkpt lat="42.87195" lon="-0.1936">
        <ele>2437.4</ele>
        <time>2026-07-15T09:18:11Z</time>
      </trkpt>
      <trkpt lat="42.87195" lon="-0.1936">
        <ele>2438.4</ele>
        <time>2026-07-15T09:18:12Z</time>
      </trkpt>
      <trkpt lat="42.87194" lon="-0.19361">
        <ele>2438.4</ele>
        <time>2026-07-15T09:18:13Z</time>
      </trkpt>
      <trkpt lat="42.87194" lon="-0.19361">
        <ele>2438.4</ele>
        <time>2026-07-15T09:18:14Z</time>
      </trkpt>
      <trkpt lat="42.87194" lon="-0.19361">
        <ele>2438.4</ele>
        <time>2026-07-15T09:18:15Z</time>
      </trkpt>
      <trkpt lat="42.87193" lon="-0.19362">
        <ele>2439.4</ele>
        <time>2026-07-15T09:18:16Z</time>
      </trkpt>
      <trkpt lat="42.87192" lon="-0.19363">
        <ele>2439.4</ele>
        <time>2026-07-15T09:18:17Z</time>
      </trkpt>
      <trkpt lat="42.87192" lon="-0.19363">
        <ele>2440.4</ele>
        <time>2026-07-15T09:18:18Z</time>
      </trkpt>
      <trkpt lat="42.87192" lon="-0.19363">
        <ele>2440.4</ele>
        <time>2026-07-15T09:18:19Z</time>
      </trkpt>
      <trkpt lat="42.87191" lon="-0.19363">
        <ele>2441.4</ele>
        <time>2026-07-15T09:18:20Z</time>
      </trkpt>
      <trkpt lat="42.87191" lon="-0.19363">
        <ele>2441.4</ele>
        <time>2026-07-15T09:18:21Z</time>
      </trkpt>
      <trkpt lat="42.87191" lon="-0.19363">
        <ele>2442.4</ele>
        <time>2026-07-15T09:18:22Z</time>
      </trkpt>
      <trkpt lat="42.8719" lon="-0.19363">
        <ele>2442.4</ele>
        <time>2026-07-15T09:18:23Z</time>
      </trkpt>
      <trkpt lat="42.87189" lon="-0.19364">
        <ele>2442.4</ele>
        <time>2026-07-15T09:18:24Z</time>
      </trkpt>
      <trkpt lat="42.87189" lon="-0.19364">
        <ele>2442.4</ele>
        <time>2026-07-15T09:18:25Z</time>
      </trkpt>
      <trkpt lat="42.87189" lon="-0.19364">
        <ele>2443.4</ele>
        <time>2026-07-15T09:18:26Z</time>
      </trkpt>
      <trkpt lat="42.87188" lon="-0.19365">
        <ele>2443.4</ele>
        <time>2026-07-15T09:18:27Z</time>
      </trkpt>
      <trkpt lat="42.87188" lon="-0.19365">
        <ele>2443.4</ele>
        <time>2026-07-15T09:18:28Z</time>
      </trkpt>
      <trkpt lat="42.87188" lon="-0.19366">
        <ele>2442.4</ele>
        <time>2026-07-15T09:18:29Z</time>
      </trkpt>
      <trkpt lat="42.87188" lon="-0.19366">
        <ele>2442.4</ele>
        <time>2026-07-15T09:18:30Z</time>
      </trkpt>
      <trkpt lat="42.87188" lon="-0.19366">
        <ele>2442.4</ele>
        <time>2026-07-15T09:18:31Z</time>
      </trkpt>
      <trkpt lat="42.87188" lon="-0.19366">
        <ele>2442.4</ele>
        <time>2026-07-15T09:18:32Z</time>
      </trkpt>
      <trkpt lat="42.87187" lon="-0.19367">
        <ele>2443.4</ele>
        <time>2026-07-15T09:18:33Z</time>
      </trkpt>
      <trkpt lat="42.87187" lon="-0.19366">
        <ele>2442.4</ele>
        <time>2026-07-15T09:18:34Z</time>
      </trkpt>
      <trkpt lat="42.87187" lon="-0.19366">
        <ele>2442.4</ele>
        <time>2026-07-15T09:18:35Z</time>
      </trkpt>
      <trkpt lat="42.87187" lon="-0.19366">
        <ele>2441.4</ele>
        <time>2026-07-15T09:18:36Z</time>
      </trkpt>
      <trkpt lat="42.87186" lon="-0.19365">
        <ele>2441.4</ele>
        <time>2026-07-15T09:18:37Z</time>
      </trkpt>
      <trkpt lat="42.87186" lon="-0.19365">
        <ele>2441.4</ele>
        <time>2026-07-15T09:18:38Z</time>
      </trkpt>
      <trkpt lat="42.87186" lon="-0.19365">
        <ele>2441.4</ele>
        <time>2026-07-15T09:18:39Z</time>
      </trkpt>
      <trkpt lat="42.87186" lon="-0.19365">
        <ele>2441.4</ele>
        <time>2026-07-15T09:18:40Z</time>
      </trkpt>
      <trkpt lat="42.87185" lon="-0.19365">
        <ele>2441.4</ele>
        <time>2026-07-15T09:18:41Z</time>
      </trkpt>
      <trkpt lat="42.87184" lon="-0.19365">
        <ele>2442.4</ele>
        <time>2026-07-15T09:18:42Z</time>
      </trkpt>
      <trkpt lat="42.87184" lon="-0.19365">
        <ele>2442.4</ele>
        <time>2026-07-15T09:18:43Z</time>
      </trkpt>
      <trkpt lat="42.87184" lon="-0.19365">
        <ele>2442.4</ele>
        <time>2026-07-15T09:18:44Z</time>
      </trkpt>
      <trkpt lat="42.87183" lon="-0.19366">
        <ele>2443.4</ele>
        <time>2026-07-15T09:18:45Z</time>
      </trkpt>
      <trkpt lat="42.87183" lon="-0.19366">
        <ele>2443.4</ele>
        <time>2026-07-15T09:18:46Z</time>
      </trkpt>
      <trkpt lat="42.87183" lon="-0.19366">
        <ele>2444.4</ele>
        <time>2026-07-15T09:18:47Z</time>
      </trkpt>
      <trkpt lat="42.87182" lon="-0.19365">
        <ele>2444.4</ele>
        <time>2026-07-15T09:18:48Z</time>
      </trkpt>
      <trkpt lat="42.87182" lon="-0.19365">
        <ele>2445.4</ele>
        <time>2026-07-15T09:18:49Z</time>
      </trkpt>
      <trkpt lat="42.87182" lon="-0.19365">
        <ele>2444.4</ele>
        <time>2026-07-15T09:18:50Z</time>
      </trkpt>
      <trkpt lat="42.87182" lon="-0.19365">
        <ele>2445.4</ele>
        <time>2026-07-15T09:18:51Z</time>
      </trkpt>
      <trkpt lat="42.87181" lon="-0.19365">
        <ele>2445.4</ele>
        <time>2026-07-15T09:18:52Z</time>
      </trkpt>
      <trkpt lat="42.87181" lon="-0.19364">
        <ele>2445.4</ele>
        <time>2026-07-15T09:18:53Z</time>
      </trkpt>
      <trkpt lat="42.87181" lon="-0.19364">
        <ele>2444.4</ele>
        <time>2026-07-15T09:18:54Z</time>
      </trkpt>
      <trkpt lat="42.8718" lon="-0.19365">
        <ele>2444.4</ele>
        <time>2026-07-15T09:18:55Z</time>
      </trkpt>
      <trkpt lat="42.87179" lon="-0.19365">
        <ele>2443.4</ele>
        <time>2026-07-15T09:18:56Z</time>
      </trkpt>
      <trkpt lat="42.87179" lon="-0.19365">
        <ele>2443.4</ele>
        <time>2026-07-15T09:18:57Z</time>
      </trkpt>
      <trkpt lat="42.87178" lon="-0.19364">
        <ele>2443.4</ele>
        <time>2026-07-15T09:18:58Z</time>
      </trkpt>
      <trkpt lat="42.87178" lon="-0.19364">
        <ele>2442.4</ele>
        <time>2026-07-15T09:18:59Z</time>
      </trkpt>
      <trkpt lat="42.87177" lon="-0.19363">
        <ele>2443.4</ele>
        <time>2026-07-15T09:19:00Z</time>
      </trkpt>
      <trkpt lat="42.87176" lon="-0.19364">
        <ele>2444.4</ele>
        <time>2026-07-15T09:19:01Z</time>
      </trkpt>
      <trkpt lat="42.87176" lon="-0.19363">
        <ele>2444.4</ele>
        <time>2026-07-15T09:19:02Z</time>
      </trkpt>
      <trkpt lat="42.87176" lon="-0.19364">
        <ele>2443.4</ele>
        <time>2026-07-15T09:19:03Z</time>
      </trkpt>
      <trkpt lat="42.87176" lon="-0.19363">
        <ele>2443.4</ele>
        <time>2026-07-15T09:19:04Z</time>
      </trkpt>
      <trkpt lat="42.87175" lon="-0.19362">
        <ele>2444.4</ele>
        <time>2026-07-15T09:19:05Z</time>
      </trkpt>
      <trkpt lat="42.87175" lon="-0.19362">
        <ele>2443.4</ele>
        <time>2026-07-15T09:19:06Z</time>
      </trkpt>
      <trkpt lat="42.87175" lon="-0.19363">
        <ele>2442.4</ele>
        <time>2026-07-15T09:19:07Z</time>
      </trkpt>
      <trkpt lat="42.87174" lon="-0.19362">
        <ele>2443.4</ele>
        <time>2026-07-15T09:19:08Z</time>
      </trkpt>
      <trkpt lat="42.87174" lon="-0.19362">
        <ele>2443.4</ele>
        <time>2026-07-15T09:19:09Z</time>
      </trkpt>
      <trkpt lat="42.87173" lon="-0.19362">
        <ele>2443.4</ele>
        <time>2026-07-15T09:19:10Z</time>
      </trkpt>
      <trkpt lat="42.87173" lon="-0.19362">
        <ele>2443.4</ele>
        <time>2026-07-15T09:19:11Z</time>
      </trkpt>
      <trkpt lat="42.87173" lon="-0.19362">
        <ele>2443.4</ele>
        <time>2026-07-15T09:19:12Z</time>
      </trkpt>
      <trkpt lat="42.87172" lon="-0.19361">
        <ele>2444.4</ele>
        <time>2026-07-15T09:19:13Z</time>
      </trkpt>
      <trkpt lat="42.87172" lon="-0.19361">
        <ele>2445.4</ele>
        <time>2026-07-15T09:19:14Z</time>
      </trkpt>
      <trkpt lat="42.87171" lon="-0.19361">
        <ele>2444.4</ele>
        <time>2026-07-15T09:19:15Z</time>
      </trkpt>
      <trkpt lat="42.8717" lon="-0.19361">
        <ele>2445.4</ele>
        <time>2026-07-15T09:19:16Z</time>
      </trkpt>
      <trkpt lat="42.8717" lon="-0.19361">
        <ele>2445.4</ele>
        <time>2026-07-15T09:19:17Z</time>
      </trkpt>
      <trkpt lat="42.8717" lon="-0.19361">
        <ele>2445.4</ele>
        <time>2026-07-15T09:19:18Z</time>
      </trkpt>
      <trkpt lat="42.8717" lon="-0.1936">
        <ele>2445.4</ele>
        <time>2026-07-15T09:19:19Z</time>
      </trkpt>
      <trkpt lat="42.8717" lon="-0.19359">
        <ele>2444.4</ele>
        <time>2026-07-15T09:19:20Z</time>
      </trkpt>
      <trkpt lat="42.87169" lon="-0.19359">
        <ele>2445.4</ele>
        <time>2026-07-15T09:19:21Z</time>
      </trkpt>
      <trkpt lat="42.87169" lon="-0.1936">
        <ele>2444.4</ele>
        <time>2026-07-15T09:19:22Z</time>
      </trkpt>
      <trkpt lat="42.87169" lon="-0.19361">
        <ele>2444.4</ele>
        <time>2026-07-15T09:19:23Z</time>
      </trkpt>
      <trkpt lat="42.87168" lon="-0.1936">
        <ele>2444.4</ele>
        <time>2026-07-15T09:19:24Z</time>
      </trkpt>
      <trkpt lat="42.87168" lon="-0.1936">
        <ele>2445.4</ele>
        <time>2026-07-15T09:19:25Z</time>
      </trkpt>
      <trkpt lat="42.87168" lon="-0.1936">
        <ele>2446.4</ele>
        <time>2026-07-15T09:19:26Z</time>
      </trkpt>
      <trkpt lat="42.87168" lon="-0.1936">
        <ele>2446.4</ele>
        <time>2026-07-15T09:19:27Z</time>
      </trkpt>
      <trkpt lat="42.87167" lon="-0.19361">
        <ele>2447.4</ele>
        <time>2026-07-15T09:19:28Z</time>
      </trkpt>
      <trkpt lat="42.87167" lon="-0.1936">
        <ele>2447.4</ele>
        <time>2026-07-15T09:19:29Z</time>
      </trkpt>
      <trkpt lat="42.87167" lon="-0.19359">
        <ele>2448.4</ele>
        <time>2026-07-15T09:19:30Z</time>
      </trkpt>
      <trkpt lat="42.87167" lon="-0.1936">
        <ele>2448.4</ele>
        <time>2026-07-15T09:19:31Z</time>
      </trkpt>
      <trkpt lat="42.87167" lon="-0.1936">
        <ele>2448.4</ele>
        <time>2026-07-15T09:19:32Z</time>
      </trkpt>
      <trkpt lat="42.87166" lon="-0.1936">
        <ele>2448.4</ele>
        <time>2026-07-15T09:19:33Z</time>
      </trkpt>
      <trkpt lat="42.87165" lon="-0.1936">
        <ele>2449.4</ele>
        <time>2026-07-15T09:19:34Z</time>
      </trkpt>
      <trkpt lat="42.87164" lon="-0.19359">
        <ele>2449.4</ele>
        <time>2026-07-15T09:19:35Z</time>
      </trkpt>
      <trkpt lat="42.87164" lon="-0.19359">
        <ele>2450.4</ele>
        <time>2026-07-15T09:19:36Z</time>
      </trkpt>
      <trkpt lat="42.87162" lon="-0.19359">
        <ele>2450.4</ele>
        <time>2026-07-15T09:19:37Z</time>
      </trkpt>
      <trkpt lat="42.87162" lon="-0.19359">
        <ele>2450.4</ele>
        <time>2026-07-15T09:19:38Z</time>
      </trkpt>
      <trkpt lat="42.87161" lon="-0.19359">
        <ele>2449.4</ele>
        <time>2026-07-15T09:19:39Z</time>
      </trkpt>
      <trkpt lat="42.87161" lon="-0.19359">
        <ele>2450.4</ele>
        <time>2026-07-15T09:19:40Z</time>
      </trkpt>
      <trkpt lat="42.8716" lon="-0.19359">
        <ele>2450.4</ele>
        <time>2026-07-15T09:19:41Z</time>
      </trkpt>
      <trkpt lat="42.8716" lon="-0.19359">
        <ele>2450.4</ele>
        <time>2026-07-15T09:19:42Z</time>
      </trkpt>
      <trkpt lat="42.87159" lon="-0.1936">
        <ele>2450.4</ele>
        <time>2026-07-15T09:19:43Z</time>
      </trkpt>
      <trkpt lat="42.8716" lon="-0.19361">
        <ele>2451.4</ele>
        <time>2026-07-15T09:19:44Z</time>
      </trkpt>
      <trkpt lat="42.8716" lon="-0.19361">
        <ele>2451.4</ele>
        <time>2026-07-15T09:19:45Z</time>
      </trkpt>
      <trkpt lat="42.87159" lon="-0.19361">
        <ele>2451.4</ele>
        <time>2026-07-15T09:19:46Z</time>
      </trkpt>
      <trkpt lat="42.87158" lon="-0.19362">
        <ele>2452.4</ele>
        <time>2026-07-15T09:19:47Z</time>
      </trkpt>
      <trkpt lat="42.87158" lon="-0.19362">
        <ele>2452.4</ele>
        <time>2026-07-15T09:19:48Z</time>
      </trkpt>
      <trkpt lat="42.87158" lon="-0.19363">
        <ele>2453.4</ele>
        <time>2026-07-15T09:19:49Z</time>
      </trkpt>
      <trkpt lat="42.87157" lon="-0.19363">
        <ele>2453.4</ele>
        <time>2026-07-15T09:19:50Z</time>
      </trkpt>
      <trkpt lat="42.87156" lon="-0.19363">
        <ele>2453.4</ele>
        <time>2026-07-15T09:19:51Z</time>
      </trkpt>
      <trkpt lat="42.87156" lon="-0.19363">
        <ele>2454.4</ele>
        <time>2026-07-15T09:19:52Z</time>
      </trkpt>
      <trkpt lat="42.87156" lon="-0.19362">
        <ele>2454.4</ele>
        <time>2026-07-15T09:19:53Z</time>
      </trkpt>
      <trkpt lat="42.87156" lon="-0.19362">
        <ele>2454.4</ele>
        <time>2026-07-15T09:19:54Z</time>
      </trkpt>
      <trkpt lat="42.87156" lon="-0.19361">
        <ele>2454.4</ele>
        <time>2026-07-15T09:19:55Z</time>
      </trkpt>
      <trkpt lat="42.87155" lon="-0.19361">
        <ele>2454.4</ele>
        <time>2026-07-15T09:19:56Z</time>
      </trkpt>
      <trkpt lat="42.87154" lon="-0.1936">
        <ele>2453.4</ele>
        <time>2026-07-15T09:19:57Z</time>
      </trkpt>
      <trkpt lat="42.87153" lon="-0.1936">
        <ele>2453.4</ele>
        <time>2026-07-15T09:19:58Z</time>
      </trkpt>
      <trkpt lat="42.87153" lon="-0.1936">
        <ele>2452.4</ele>
        <time>2026-07-15T09:19:59Z</time>
      </trkpt>
      <trkpt lat="42.87153" lon="-0.1936">
        <ele>2452.4</ele>
        <time>2026-07-15T09:20:00Z</time>
      </trkpt>
      <trkpt lat="42.87153" lon="-0.1936">
        <ele>2453.4</ele>
        <time>2026-07-15T09:20:01Z</time>
      </trkpt>
      <trkpt lat="42.87152" lon="-0.1936">
        <ele>2453.4</ele>
        <time>2026-07-15T09:20:02Z</time>
      </trkpt>
      <trkpt lat="42.87151" lon="-0.1936">
        <ele>2452.4</ele>
        <time>2026-07-15T09:20:03Z</time>
      </trkpt>
      <trkpt lat="42.87151" lon="-0.19359">
        <ele>2452.4</ele>
        <time>2026-07-15T09:20:04Z</time>
      </trkpt>
      <trkpt lat="42.87149" lon="-0.1936">
        <ele>2452.4</ele>
        <time>2026-07-15T09:20:05Z</time>
      </trkpt>
      <trkpt lat="42.87149" lon="-0.1936">
        <ele>2452.4</ele>
        <time>2026-07-15T09:20:06Z</time>
      </trkpt>
      <trkpt lat="42.87148" lon="-0.1936">
        <ele>2452.4</ele>
        <time>2026-07-15T09:20:07Z</time>
      </trkpt>
      <trkpt lat="42.87147" lon="-0.1936">
        <ele>2452.4</ele>
        <time>2026-07-15T09:20:08Z</time>
      </trkpt>
      <trkpt lat="42.87146" lon="-0.1936">
        <ele>2453.4</ele>
        <time>2026-07-15T09:20:09Z</time>
      </trkpt>
      <trkpt lat="42.87146" lon="-0.1936">
        <ele>2454.4</ele>
        <time>2026-07-15T09:20:10Z</time>
      </trkpt>
      <trkpt lat="42.87146" lon="-0.1936">
        <ele>2454.4</ele>
        <time>2026-07-15T09:20:11Z</time>
      </trkpt>
      <trkpt lat="42.87146" lon="-0.19359">
        <ele>2455.4</ele>
        <time>2026-07-15T09:20:12Z</time>
      </trkpt>
      <trkpt lat="42.87146" lon="-0.19359">
        <ele>2455.4</ele>
        <time>2026-07-15T09:20:13Z</time>
      </trkpt>
      <trkpt lat="42.87146" lon="-0.19359">
        <ele>2455.4</ele>
        <time>2026-07-15T09:20:14Z</time>
      </trkpt>
      <trkpt lat="42.87146" lon="-0.19359">
        <ele>2455.4</ele>
        <time>2026-07-15T09:20:15Z</time>
      </trkpt>
      <trkpt lat="42.87146" lon="-0.19359">
        <ele>2455.4</ele>
        <time>2026-07-15T09:20:16Z</time>
      </trkpt>
      <trkpt lat="42.87146" lon="-0.19359">
        <ele>2455.4</ele>
        <time>2026-07-15T09:20:17Z</time>
      </trkpt>
      <trkpt lat="42.87146" lon="-0.19359">
        <ele>2455.4</ele>
        <time>2026-07-15T09:20:18Z</time>
      </trkpt>
      <trkpt lat="42.87146" lon="-0.19359">
        <ele>2455.4</ele>
        <time>2026-07-15T09:20:19Z</time>
      </trkpt>
      <trkpt lat="42.87147" lon="-0.19359">
        <ele>2456.4</ele>
        <time>2026-07-15T09:20:20Z</time>
      </trkpt>
      <trkpt lat="42.87147" lon="-0.19359">
        <ele>2456.4</ele>
        <time>2026-07-15T09:20:21Z</time>
      </trkpt>
      <trkpt lat="42.87147" lon="-0.19359">
        <ele>2456.4</ele>
        <time>2026-07-15T09:20:22Z</time>
      </trkpt>
      <trkpt lat="42.87148" lon="-0.19359">
        <ele>2456.4</ele>
        <time>2026-07-15T09:20:23Z</time>
      </trkpt>
      <trkpt lat="42.87148" lon="-0.19359">
        <ele>2456.4</ele>
        <time>2026-07-15T09:20:24Z</time>
      </trkpt>
      <trkpt lat="42.87148" lon="-0.19359">
        <ele>2456.4</ele>
        <time>2026-07-15T09:20:25Z</time>
      </trkpt>
      <trkpt lat="42.87148" lon="-0.19359">
        <ele>2456.4</ele>
        <time>2026-07-15T09:20:26Z</time>
      </trkpt>
      <trkpt lat="42.87147" lon="-0.19359">
        <ele>2456.4</ele>
        <time>2026-07-15T09:20:27Z</time>
      </trkpt>
      <trkpt lat="42.87147" lon="-0.1936">
        <ele>2455.4</ele>
        <time>2026-07-15T09:20:28Z</time>
      </trkpt>
      <trkpt lat="42.87147" lon="-0.1936">
        <ele>2455.4</ele>
        <time>2026-07-15T09:20:29Z</time>
      </trkpt>
      <trkpt lat="42.87147" lon="-0.1936">
        <ele>2455.4</ele>
        <time>2026-07-15T09:20:30Z</time>
      </trkpt>
      <trkpt lat="42.87147" lon="-0.1936">
        <ele>2456.4</ele>
        <time>2026-07-15T09:20:31Z</time>
      </trkpt>
      <trkpt lat="42.87147" lon="-0.1936">
        <ele>2456.4</ele>
        <time>2026-07-15T09:20:32Z</time>
      </trkpt>
      <trkpt lat="42.87147" lon="-0.1936">
        <ele>2456.4</ele>
        <time>2026-07-15T09:20:33Z</time>
      </trkpt>
      <trkpt lat="42.87147" lon="-0.1936">
        <ele>2456.4</ele>
        <time>2026-07-15T09:20:34Z</time>
      </trkpt>
      <trkpt lat="42.87147" lon="-0.1936">
        <ele>2456.4</ele>
        <time>2026-07-15T09:20:35Z</time>
      </trkpt>
      <trkpt lat="42.87147" lon="-0.1936">
        <ele>2456.4</ele>
        <time>2026-07-15T09:20:36Z</time>
      </trkpt>
      <trkpt lat="42.87147" lon="-0.1936">
        <ele>2456.4</ele>
        <time>2026-07-15T09:20:37Z</time>
      </trkpt>
      <trkpt lat="42.87147" lon="-0.1936">
        <ele>2456.4</ele>
        <time>2026-07-15T09:20:38Z</time>
      </trkpt>
      <trkpt lat="42.87147" lon="-0.1936">
        <ele>2456.4</ele>
        <time>2026-07-15T09:20:39Z</time>
      </trkpt>
      <trkpt lat="42.87147" lon="-0.1936">
        <ele>2456.4</ele>
        <time>2026-07-15T09:20:40Z</time>
      </trkpt>
      <trkpt lat="42.87147" lon="-0.1936">
        <ele>2456.4</ele>
        <time>2026-07-15T09:20:41Z</time>
      </trkpt>
      <trkpt lat="42.87147" lon="-0.1936">
        <ele>2456.4</ele>
        <time>2026-07-15T09:20:42Z</time>
      </trkpt>
      <trkpt lat="42.87147" lon="-0.1936">
        <ele>2456.4</ele>
        <time>2026-07-15T09:20:43Z</time>
      </trkpt>
      <trkpt lat="42.87147" lon="-0.1936">
        <ele>2455.4</ele>
        <time>2026-07-15T09:20:44Z</time>
      </trkpt>
      <trkpt lat="42.87147" lon="-0.1936">
        <ele>2456.4</ele>
        <time>2026-07-15T09:20:45Z</time>
      </trkpt>
      <trkpt lat="42.87147" lon="-0.19359">
        <ele>2456.4</ele>
        <time>2026-07-15T09:20:46Z</time>
      </trkpt>
      <trkpt lat="42.87147" lon="-0.19359">
        <ele>2456.4</ele>
        <time>2026-07-15T09:20:47Z</time>
      </trkpt>
      <trkpt lat="42.87147" lon="-0.19359">
        <ele>2456.4</ele>
        <time>2026-07-15T09:20:48Z</time>
      </trkpt>
      <trkpt lat="42.87147" lon="-0.19359">
        <ele>2456.4</ele>
        <time>2026-07-15T09:20:49Z</time>
      </trkpt>
      <trkpt lat="42.87147" lon="-0.19359">
        <ele>2456.4</ele>
        <time>2026-07-15T09:20:50Z</time>
      </trkpt>
      <trkpt lat="42.87147" lon="-0.19359">
        <ele>2457.4</ele>
        <time>2026-07-15T09:20:51Z</time>
      </trkpt>
      <trkpt lat="42.87147" lon="-0.19359">
        <ele>2456.4</ele>
        <time>2026-07-15T09:20:52Z</time>
      </trkpt>
      <trkpt lat="42.87147" lon="-0.19359">
        <ele>2455.4</ele>
        <time>2026-07-15T09:20:53Z</time>
      </trkpt>
      <trkpt lat="42.87147" lon="-0.19359">
        <ele>2455.4</ele>
        <time>2026-07-15T09:20:54Z</time>
      </trkpt>
      <trkpt lat="42.87147" lon="-0.19359">
        <ele>2454.4</ele>
        <time>2026-07-15T09:20:55Z</time>
      </trkpt>
      <trkpt lat="42.87146" lon="-0.19359">
        <ele>2455.4</ele>
        <time>2026-07-15T09:20:56Z</time>
      </trkpt>
      <trkpt lat="42.87146" lon="-0.19359">
        <ele>2454.4</ele>
        <time>2026-07-15T09:20:57Z</time>
      </trkpt>
      <trkpt lat="42.87146" lon="-0.1936">
        <ele>2455.4</ele>
        <time>2026-07-15T09:20:58Z</time>
      </trkpt>
      <trkpt lat="42.87146" lon="-0.19359">
        <ele>2454.4</ele>
        <time>2026-07-15T09:20:59Z</time>
      </trkpt>
      <trkpt lat="42.87145" lon="-0.19358">
        <ele>2454.4</ele>
        <time>2026-07-15T09:21:00Z</time>
      </trkpt>
      <trkpt lat="42.87145" lon="-0.19358">
        <ele>2454.4</ele>
        <time>2026-07-15T09:21:01Z</time>
      </trkpt>
      <trkpt lat="42.87146" lon="-0.19359">
        <ele>2454.4</ele>
        <time>2026-07-15T09:21:02Z</time>
      </trkpt>
      <trkpt lat="42.87146" lon="-0.19361">
        <ele>2452.4</ele>
        <time>2026-07-15T09:21:03Z</time>
      </trkpt>
      <trkpt lat="42.87146" lon="-0.19363">
        <ele>2450.4</ele>
        <time>2026-07-15T09:21:04Z</time>
      </trkpt>
      <trkpt lat="42.87146" lon="-0.19363">
        <ele>2450.4</ele>
        <time>2026-07-15T09:21:05Z</time>
      </trkpt>
      <trkpt lat="42.87145" lon="-0.19363">
        <ele>2449.4</ele>
        <time>2026-07-15T09:21:06Z</time>
      </trkpt>
      <trkpt lat="42.87145" lon="-0.19362">
        <ele>2449.4</ele>
        <time>2026-07-15T09:21:07Z</time>
      </trkpt>
      <trkpt lat="42.87145" lon="-0.19362">
        <ele>2448.4</ele>
        <time>2026-07-15T09:21:08Z</time>
      </trkpt>
      <trkpt lat="42.87146" lon="-0.19362">
        <ele>2447.4</ele>
        <time>2026-07-15T09:21:09Z</time>
      </trkpt>
      <trkpt lat="42.87146" lon="-0.19362">
        <ele>2447.4</ele>
        <time>2026-07-15T09:21:10Z</time>
      </trkpt>
      <trkpt lat="42.87145" lon="-0.19362">
        <ele>2448.4</ele>
        <time>2026-07-15T09:21:11Z</time>
      </trkpt>
      <trkpt lat="42.87144" lon="-0.19361">
        <ele>2448.4</ele>
        <time>2026-07-15T09:21:12Z</time>
      </trkpt>
      <trkpt lat="42.87144" lon="-0.19361">
        <ele>2448.4</ele>
        <time>2026-07-15T09:21:13Z</time>
      </trkpt>
      <trkpt lat="42.87142" lon="-0.1936">
        <ele>2448.4</ele>
        <time>2026-07-15T09:21:14Z</time>
      </trkpt>
      <trkpt lat="42.87141" lon="-0.1936">
        <ele>2448.4</ele>
        <time>2026-07-15T09:21:15Z</time>
      </trkpt>
      <trkpt lat="42.8714" lon="-0.19359">
        <ele>2448.4</ele>
        <time>2026-07-15T09:21:16Z</time>
      </trkpt>
      <trkpt lat="42.87139" lon="-0.19358">
        <ele>2449.4</ele>
        <time>2026-07-15T09:21:17Z</time>
      </trkpt>
      <trkpt lat="42.87138" lon="-0.19359">
        <ele>2449.4</ele>
        <time>2026-07-15T09:21:18Z</time>
      </trkpt>
      <trkpt lat="42.87138" lon="-0.19359">
        <ele>2448.4</ele>
        <time>2026-07-15T09:21:19Z</time>
      </trkpt>
      <trkpt lat="42.87137" lon="-0.19359">
        <ele>2448.4</ele>
        <time>2026-07-15T09:21:20Z</time>
      </trkpt>
      <trkpt lat="42.87137" lon="-0.19359">
        <ele>2448.4</ele>
        <time>2026-07-15T09:21:21Z</time>
      </trkpt>
      <trkpt lat="42.87136" lon="-0.19359">
        <ele>2448.4</ele>
        <time>2026-07-15T09:21:22Z</time>
      </trkpt>
      <trkpt lat="42.87136" lon="-0.1936">
        <ele>2448.4</ele>
        <time>2026-07-15T09:21:23Z</time>
      </trkpt>
      <trkpt lat="42.87136" lon="-0.1936">
        <ele>2448.4</ele>
        <time>2026-07-15T09:21:24Z</time>
      </trkpt>
      <trkpt lat="42.87136" lon="-0.1936">
        <ele>2448.4</ele>
        <time>2026-07-15T09:21:25Z</time>
      </trkpt>
      <trkpt lat="42.87136" lon="-0.1936">
        <ele>2447.4</ele>
        <time>2026-07-15T09:21:26Z</time>
      </trkpt>
      <trkpt lat="42.87136" lon="-0.19359">
        <ele>2448.4</ele>
        <time>2026-07-15T09:21:27Z</time>
      </trkpt>
      <trkpt lat="42.87136" lon="-0.19359">
        <ele>2450.4</ele>
        <time>2026-07-15T09:21:28Z</time>
      </trkpt>
      <trkpt lat="42.87137" lon="-0.19358">
        <ele>2451.4</ele>
        <time>2026-07-15T09:21:29Z</time>
      </trkpt>
      <trkpt lat="42.87137" lon="-0.19359">
        <ele>2451.4</ele>
        <time>2026-07-15T09:21:30Z</time>
      </trkpt>
      <trkpt lat="42.87137" lon="-0.1936">
        <ele>2451.4</ele>
        <time>2026-07-15T09:21:31Z</time>
      </trkpt>
      <trkpt lat="42.87137" lon="-0.1936">
        <ele>2451.4</ele>
        <time>2026-07-15T09:21:32Z</time>
      </trkpt>
      <trkpt lat="42.87137" lon="-0.1936">
        <ele>2451.4</ele>
        <time>2026-07-15T09:21:33Z</time>
      </trkpt>
      <trkpt lat="42.87137" lon="-0.1936">
        <ele>2451.4</ele>
        <time>2026-07-15T09:21:34Z</time>
      </trkpt>
      <trkpt lat="42.87137" lon="-0.1936">
        <ele>2451.4</ele>
        <time>2026-07-15T09:21:35Z</time>
      </trkpt>
      <trkpt lat="42.87137" lon="-0.1936">
        <ele>2451.4</ele>
        <time>2026-07-15T09:21:36Z</time>
      </trkpt>
      <trkpt lat="42.87137" lon="-0.1936">
        <ele>2451.4</ele>
        <time>2026-07-15T09:21:37Z</time>
      </trkpt>
      <trkpt lat="42.87137" lon="-0.1936">
        <ele>2451.4</ele>
        <time>2026-07-15T09:21:38Z</time>
      </trkpt>
      <trkpt lat="42.87137" lon="-0.1936">
        <ele>2451.4</ele>
        <time>2026-07-15T09:21:39Z</time>
      </trkpt>
      <trkpt lat="42.87137" lon="-0.1936">
        <ele>2451.4</ele>
        <time>2026-07-15T09:21:40Z</time>
      </trkpt>
      <trkpt lat="42.87137" lon="-0.1936">
        <ele>2451.4</ele>
        <time>2026-07-15T09:21:41Z</time>
      </trkpt>
      <trkpt lat="42.87137" lon="-0.1936">
        <ele>2451.4</ele>
        <time>2026-07-15T09:21:42Z</time>
      </trkpt>
      <trkpt lat="42.87137" lon="-0.1936">
        <ele>2451.4</ele>
        <time>2026-07-15T09:21:43Z</time>
      </trkpt>
      <trkpt lat="42.87137" lon="-0.1936">
        <ele>2451.4</ele>
        <time>2026-07-15T09:21:44Z</time>
      </trkpt>
      <trkpt lat="42.87137" lon="-0.19359">
        <ele>2451.4</ele>
        <time>2026-07-15T09:21:45Z</time>
      </trkpt>
      <trkpt lat="42.87137" lon="-0.19358">
        <ele>2452.4</ele>
        <time>2026-07-15T09:21:46Z</time>
      </trkpt>
      <trkpt lat="42.87137" lon="-0.19358">
        <ele>2452.4</ele>
        <time>2026-07-15T09:21:47Z</time>
      </trkpt>
      <trkpt lat="42.87136" lon="-0.19359">
        <ele>2452.4</ele>
        <time>2026-07-15T09:21:48Z</time>
      </trkpt>
      <trkpt lat="42.87136" lon="-0.19359">
        <ele>2452.4</ele>
        <time>2026-07-15T09:21:49Z</time>
      </trkpt>
      <trkpt lat="42.87136" lon="-0.19359">
        <ele>2452.4</ele>
        <time>2026-07-15T09:21:50Z</time>
      </trkpt>
      <trkpt lat="42.87136" lon="-0.19359">
        <ele>2452.4</ele>
        <time>2026-07-15T09:21:51Z</time>
      </trkpt>
      <trkpt lat="42.87136" lon="-0.19359">
        <ele>2452.4</ele>
        <time>2026-07-15T09:21:52Z</time>
      </trkpt>
      <trkpt lat="42.87136" lon="-0.19359">
        <ele>2452.4</ele>
        <time>2026-07-15T09:21:53Z</time>
      </trkpt>
      <trkpt lat="42.87136" lon="-0.19359">
        <ele>2452.4</ele>
        <time>2026-07-15T09:21:54Z</time>
      </trkpt>
      <trkpt lat="42.87136" lon="-0.19359">
        <ele>2452.4</ele>
        <time>2026-07-15T09:21:55Z</time>
      </trkpt>
      <trkpt lat="42.87136" lon="-0.19359">
        <ele>2452.4</ele>
        <time>2026-07-15T09:21:56Z</time>
      </trkpt>
      <trkpt lat="42.87136" lon="-0.19359">
        <ele>2452.4</ele>
        <time>2026-07-15T09:21:57Z</time>
      </trkpt>
      <trkpt lat="42.87136" lon="-0.19359">
        <ele>2452.4</ele>
        <time>2026-07-15T09:21:58Z</time>
      </trkpt>
      <trkpt lat="42.87136" lon="-0.19359">
        <ele>2452.4</ele>
        <time>2026-07-15T09:21:59Z</time>
      </trkpt>
      <trkpt lat="42.87136" lon="-0.19359">
        <ele>2452.4</ele>
        <time>2026-07-15T09:22:00Z</time>
      </trkpt>
      <trkpt lat="42.87136" lon="-0.19359">
        <ele>2452.4</ele>
        <time>2026-07-15T09:22:01Z</time>
      </trkpt>
      <trkpt lat="42.87136" lon="-0.19357">
        <ele>2452.4</ele>
        <time>2026-07-15T09:22:02Z</time>
      </trkpt>
      <trkpt lat="42.87137" lon="-0.19356">
        <ele>2451.4</ele>
        <time>2026-07-15T09:22:03Z</time>
      </trkpt>
      <trkpt lat="42.87137" lon="-0.19356">
        <ele>2451.4</ele>
        <time>2026-07-15T09:22:04Z</time>
      </trkpt>
      <trkpt lat="42.87137" lon="-0.19357">
        <ele>2453.4</ele>
        <time>2026-07-15T09:22:05Z</time>
      </trkpt>
      <trkpt lat="42.87137" lon="-0.19357">
        <ele>2453.4</ele>
        <time>2026-07-15T09:22:06Z</time>
      </trkpt>
      <trkpt lat="42.87137" lon="-0.19357">
        <ele>2453.4</ele>
        <time>2026-07-15T09:22:07Z</time>
      </trkpt>
      <trkpt lat="42.87137" lon="-0.19357">
        <ele>2453.4</ele>
        <time>2026-07-15T09:22:08Z</time>
      </trkpt>
      <trkpt lat="42.87137" lon="-0.19357">
        <ele>2453.4</ele>
        <time>2026-07-15T09:22:09Z</time>
      </trkpt>
      <trkpt lat="42.87137" lon="-0.19357">
        <ele>2453.4</ele>
        <time>2026-07-15T09:22:10Z</time>
      </trkpt>
      <trkpt lat="42.87137" lon="-0.19357">
        <ele>2453.4</ele>
        <time>2026-07-15T09:22:11Z</time>
      </trkpt>
      <trkpt lat="42.87137" lon="-0.19357">
        <ele>2453.4</ele>
        <time>2026-07-15T09:22:12Z</time>
      </trkpt>
      <trkpt lat="42.87137" lon="-0.19357">
        <ele>2453.4</ele>
        <time>2026-07-15T09:22:13Z</time>
      </trkpt>
      <trkpt lat="42.87137" lon="-0.19357">
        <ele>2453.4</ele>
        <time>2026-07-15T09:22:14Z</time>
      </trkpt>
      <trkpt lat="42.87137" lon="-0.19357">
        <ele>2453.4</ele>
        <time>2026-07-15T09:22:15Z</time>
      </trkpt>
      <trkpt lat="42.87137" lon="-0.19357">
        <ele>2453.4</ele>
        <time>2026-07-15T09:22:16Z</time>
      </trkpt>
      <trkpt lat="42.87137" lon="-0.19357">
        <ele>2453.4</ele>
        <time>2026-07-15T09:22:17Z</time>
      </trkpt>
      <trkpt lat="42.87137" lon="-0.19357">
        <ele>2453.4</ele>
        <time>2026-07-15T09:22:18Z</time>
      </trkpt>
      <trkpt lat="42.87137" lon="-0.19357">
        <ele>2453.4</ele>
        <time>2026-07-15T09:22:19Z</time>
      </trkpt>
      <trkpt lat="42.87137" lon="-0.19357">
        <ele>2453.4</ele>
        <time>2026-07-15T09:22:20Z</time>
      </trkpt>
      <trkpt lat="42.87137" lon="-0.19357">
        <ele>2453.4</ele>
        <time>2026-07-15T09:22:21Z</time>
      </trkpt>
      <trkpt lat="42.87137" lon="-0.19357">
        <ele>2453.4</ele>
        <time>2026-07-15T09:22:22Z</time>
      </trkpt>
      <trkpt lat="42.87137" lon="-0.19357">
        <ele>2453.4</ele>
        <time>2026-07-15T09:22:23Z</time>
      </trkpt>
      <trkpt lat="42.87136" lon="-0.19359">
        <ele>2454.4</ele>
        <time>2026-07-15T09:22:24Z</time>
      </trkpt>
      <trkpt lat="42.87137" lon="-0.1936">
        <ele>2454.4</ele>
        <time>2026-07-15T09:22:25Z</time>
      </trkpt>
      <trkpt lat="42.87136" lon="-0.1936">
        <ele>2454.4</ele>
        <time>2026-07-15T09:22:26Z</time>
      </trkpt>
      <trkpt lat="42.87136" lon="-0.1936">
        <ele>2454.4</ele>
        <time>2026-07-15T09:22:27Z</time>
      </trkpt>
      <trkpt lat="42.87136" lon="-0.1936">
        <ele>2454.4</ele>
        <time>2026-07-15T09:22:28Z</time>
      </trkpt>
      <trkpt lat="42.87136" lon="-0.1936">
        <ele>2454.4</ele>
        <time>2026-07-15T09:22:29Z</time>
      </trkpt>
      <trkpt lat="42.87136" lon="-0.1936">
        <ele>2454.4</ele>
        <time>2026-07-15T09:22:30Z</time>
      </trkpt>
      <trkpt lat="42.87137" lon="-0.19359">
        <ele>2454.4</ele>
        <time>2026-07-15T09:22:31Z</time>
      </trkpt>
      <trkpt lat="42.87137" lon="-0.19358">
        <ele>2455.4</ele>
        <time>2026-07-15T09:22:32Z</time>
      </trkpt>
      <trkpt lat="42.87137" lon="-0.19357">
        <ele>2455.4</ele>
        <time>2026-07-15T09:22:33Z</time>
      </trkpt>
      <trkpt lat="42.87136" lon="-0.19357">
        <ele>2454.4</ele>
        <time>2026-07-15T09:22:34Z</time>
      </trkpt>
      <trkpt lat="42.87136" lon="-0.19357">
        <ele>2454.4</ele>
        <time>2026-07-15T09:22:35Z</time>
      </trkpt>
      <trkpt lat="42.87137" lon="-0.19357">
        <ele>2455.4</ele>
        <time>2026-07-15T09:22:36Z</time>
      </trkpt>
      <trkpt lat="42.87137" lon="-0.19357">
        <ele>2454.4</ele>
        <time>2026-07-15T09:22:37Z</time>
      </trkpt>
      <trkpt lat="42.87137" lon="-0.19357">
        <ele>2454.4</ele>
        <time>2026-07-15T09:22:38Z</time>
      </trkpt>
      <trkpt lat="42.87137" lon="-0.19357">
        <ele>2454.4</ele>
        <time>2026-07-15T09:22:39Z</time>
      </trkpt>
      <trkpt lat="42.87137" lon="-0.19357">
        <ele>2454.4</ele>
        <time>2026-07-15T09:22:40Z</time>
      </trkpt>
      <trkpt lat="42.87137" lon="-0.19357">
        <ele>2454.4</ele>
        <time>2026-07-15T09:22:41Z</time>
      </trkpt>
      <trkpt lat="42.87137" lon="-0.19357">
        <ele>2454.4</ele>
        <time>2026-07-15T09:22:42Z</time>
      </trkpt>
      <trkpt lat="42.87137" lon="-0.19356">
        <ele>2454.4</ele>
        <time>2026-07-15T09:22:43Z</time>
      </trkpt>
      <trkpt lat="42.87137" lon="-0.19356">
        <ele>2455.4</ele>
        <time>2026-07-15T09:22:44Z</time>
      </trkpt>
      <trkpt lat="42.87136" lon="-0.19355">
        <ele>2455.4</ele>
        <time>2026-07-15T09:22:45Z</time>
      </trkpt>
      <trkpt lat="42.87136" lon="-0.19356">
        <ele>2455.4</ele>
        <time>2026-07-15T09:22:46Z</time>
      </trkpt>
      <trkpt lat="42.87137" lon="-0.19355">
        <ele>2455.4</ele>
        <time>2026-07-15T09:22:47Z</time>
      </trkpt>
      <trkpt lat="42.87137" lon="-0.19355">
        <ele>2455.4</ele>
        <time>2026-07-15T09:22:48Z</time>
      </trkpt>
      <trkpt lat="42.87137" lon="-0.19355">
        <ele>2455.4</ele>
        <time>2026-07-15T09:22:49Z</time>
      </trkpt>
      <trkpt lat="42.87137" lon="-0.19355">
        <ele>2455.4</ele>
        <time>2026-07-15T09:22:50Z</time>
      </trkpt>
      <trkpt lat="42.87137" lon="-0.19355">
        <ele>2455.4</ele>
        <time>2026-07-15T09:22:51Z</time>
      </trkpt>
      <trkpt lat="42.87137" lon="-0.19355">
        <ele>2455.4</ele>
        <time>2026-07-15T09:22:52Z</time>
      </trkpt>
      <trkpt lat="42.87137" lon="-0.19355">
        <ele>2455.4</ele>
        <time>2026-07-15T09:22:53Z</time>
      </trkpt>
      <trkpt lat="42.87137" lon="-0.19355">
        <ele>2455.4</ele>
        <time>2026-07-15T09:22:54Z</time>
      </trkpt>
      <trkpt lat="42.87137" lon="-0.19355">
        <ele>2455.4</ele>
        <time>2026-07-15T09:22:55Z</time>
      </trkpt>
      <trkpt lat="42.87137" lon="-0.19355">
        <ele>2455.4</ele>
        <time>2026-07-15T09:22:56Z</time>
      </trkpt>
      <trkpt lat="42.87137" lon="-0.19355">
        <ele>2455.4</ele>
        <time>2026-07-15T09:22:57Z</time>
      </trkpt>
      <trkpt lat="42.87137" lon="-0.19355">
        <ele>2455.4</ele>
        <time>2026-07-15T09:22:58Z</time>
      </trkpt>
      <trkpt lat="42.87137" lon="-0.19355">
        <ele>2455.4</ele>
        <time>2026-07-15T09:22:59Z</time>
      </trkpt>
      <trkpt lat="42.87137" lon="-0.19355">
        <ele>2455.4</ele>
        <time>2026-07-15T09:23:00Z</time>
      </trkpt>
      <trkpt lat="42.87137" lon="-0.19355">
        <ele>2455.4</ele>
        <time>2026-07-15T09:23:01Z</time>
      </trkpt>
      <trkpt lat="42.87137" lon="-0.19355">
        <ele>2455.4</ele>
        <time>2026-07-15T09:23:02Z</time>
      </trkpt>
      <trkpt lat="42.87137" lon="-0.19355">
        <ele>2455.4</ele>
        <time>2026-07-15T09:23:03Z</time>
      </trkpt>
      <trkpt lat="42.87137" lon="-0.19355">
        <ele>2455.4</ele>
        <time>2026-07-15T09:23:04Z</time>
      </trkpt>
      <trkpt lat="42.87137" lon="-0.19355">
        <ele>2455.4</ele>
        <time>2026-07-15T09:23:05Z</time>
      </trkpt>
      <trkpt lat="42.87137" lon="-0.19355">
        <ele>2455.4</ele>
        <time>2026-07-15T09:23:06Z</time>
      </trkpt>
      <trkpt lat="42.87137" lon="-0.19355">
        <ele>2455.4</ele>
        <time>2026-07-15T09:23:07Z</time>
      </trkpt>
      <trkpt lat="42.87137" lon="-0.19355">
        <ele>2455.4</ele>
        <time>2026-07-15T09:23:08Z</time>
      </trkpt>
      <trkpt lat="42.87137" lon="-0.19355">
        <ele>2455.4</ele>
        <time>2026-07-15T09:23:09Z</time>
      </trkpt>
      <trkpt lat="42.87137" lon="-0.19355">
        <ele>2455.4</ele>
        <time>2026-07-15T09:23:10Z</time>
      </trkpt>
      <trkpt lat="42.87137" lon="-0.19355">
        <ele>2455.4</ele>
        <time>2026-07-15T09:23:11Z</time>
      </trkpt>
      <trkpt lat="42.87137" lon="-0.19355">
        <ele>2455.4</ele>
        <time>2026-07-15T09:23:12Z</time>
      </trkpt>
      <trkpt lat="42.87137" lon="-0.19355">
        <ele>2455.4</ele>
        <time>2026-07-15T09:23:13Z</time>
      </trkpt>
      <trkpt lat="42.87137" lon="-0.19355">
        <ele>2455.4</ele>
        <time>2026-07-15T09:23:14Z</time>
      </trkpt>
      <trkpt lat="42.87137" lon="-0.19355">
        <ele>2455.4</ele>
        <time>2026-07-15T09:23:15Z</time>
      </trkpt>
      <trkpt lat="42.87137" lon="-0.19355">
        <ele>2455.4</ele>
        <time>2026-07-15T09:23:16Z</time>
      </trkpt>
      <trkpt lat="42.87137" lon="-0.19355">
        <ele>2455.4</ele>
        <time>2026-07-15T09:23:17Z</time>
      </trkpt>
      <trkpt lat="42.87137" lon="-0.19355">
        <ele>2455.4</ele>
        <time>2026-07-15T09:23:18Z</time>
      </trkpt>
      <trkpt lat="42.87137" lon="-0.19355">
        <ele>2455.4</ele>
        <time>2026-07-15T09:23:19Z</time>
      </trkpt>
      <trkpt lat="42.87137" lon="-0.19355">
        <ele>2455.4</ele>
        <time>2026-07-15T09:23:20Z</time>
      </trkpt>
      <trkpt lat="42.87137" lon="-0.19355">
        <ele>2455.4</ele>
        <time>2026-07-15T09:23:21Z</time>
      </trkpt>
      <trkpt lat="42.87137" lon="-0.19355">
        <ele>2455.4</ele>
        <time>2026-07-15T09:23:22Z</time>
      </trkpt>
      <trkpt lat="42.87137" lon="-0.19355">
        <ele>2455.4</ele>
        <time>2026-07-15T09:23:23Z</time>
      </trkpt>
      <trkpt lat="42.87137" lon="-0.19355">
        <ele>2455.4</ele>
        <time>2026-07-15T09:23:24Z</time>
      </trkpt>
      <trkpt lat="42.87137" lon="-0.19355">
        <ele>2455.4</ele>
        <time>2026-07-15T09:23:25Z</time>
      </trkpt>
      <trkpt lat="42.87137" lon="-0.19355">
        <ele>2455.4</ele>
        <time>2026-07-15T09:23:26Z</time>
      </trkpt>
      <trkpt lat="42.87137" lon="-0.19355">
        <ele>2455.4</ele>
        <time>2026-07-15T09:23:27Z</time>
      </trkpt>
      <trkpt lat="42.87137" lon="-0.19355">
        <ele>2455.4</ele>
        <time>2026-07-15T09:23:28Z</time>
      </trkpt>
      <trkpt lat="42.87137" lon="-0.19355">
        <ele>2455.4</ele>
        <time>2026-07-15T09:23:29Z</time>
      </trkpt>
      <trkpt lat="42.87138" lon="-0.19356">
        <ele>2455.4</ele>
        <time>2026-07-15T09:23:30Z</time>
      </trkpt>
      <trkpt lat="42.87138" lon="-0.19357">
        <ele>2455.4</ele>
        <time>2026-07-15T09:23:31Z</time>
      </trkpt>
      <trkpt lat="42.87138" lon="-0.19357">
        <ele>2455.4</ele>
        <time>2026-07-15T09:23:32Z</time>
      </trkpt>
      <trkpt lat="42.87139" lon="-0.19358">
        <ele>2455.4</ele>
        <time>2026-07-15T09:23:33Z</time>
      </trkpt>
      <trkpt lat="42.87138" lon="-0.19359">
        <ele>2455.4</ele>
        <time>2026-07-15T09:23:34Z</time>
      </trkpt>
      <trkpt lat="42.87138" lon="-0.1936">
        <ele>2455.4</ele>
        <time>2026-07-15T09:23:35Z</time>
      </trkpt>
      <trkpt lat="42.87138" lon="-0.19359">
        <ele>2454.4</ele>
        <time>2026-07-15T09:23:36Z</time>
      </trkpt>
      <trkpt lat="42.87138" lon="-0.19358">
        <ele>2453.4</ele>
        <time>2026-07-15T09:23:37Z</time>
      </trkpt>
      <trkpt lat="42.87137" lon="-0.19356">
        <ele>2452.4</ele>
        <time>2026-07-15T09:23:38Z</time>
      </trkpt>
      <trkpt lat="42.87137" lon="-0.19355">
        <ele>2451.4</ele>
        <time>2026-07-15T09:23:39Z</time>
      </trkpt>
      <trkpt lat="42.87136" lon="-0.19354">
        <ele>2452.4</ele>
        <time>2026-07-15T09:23:40Z</time>
      </trkpt>
      <trkpt lat="42.87136" lon="-0.19353">
        <ele>2453.4</ele>
        <time>2026-07-15T09:23:41Z</time>
      </trkpt>
      <trkpt lat="42.87134" lon="-0.19353">
        <ele>2453.4</ele>
        <time>2026-07-15T09:23:42Z</time>
      </trkpt>
      <trkpt lat="42.87134" lon="-0.19351">
        <ele>2453.4</ele>
        <time>2026-07-15T09:23:43Z</time>
      </trkpt>
      <trkpt lat="42.87133" lon="-0.19351">
        <ele>2454.4</ele>
        <time>2026-07-15T09:23:44Z</time>
      </trkpt>
      <trkpt lat="42.87133" lon="-0.19352">
        <ele>2454.4</ele>
        <time>2026-07-15T09:23:45Z</time>
      </trkpt>
      <trkpt lat="42.87133" lon="-0.19351">
        <ele>2454.4</ele>
        <time>2026-07-15T09:23:46Z</time>
      </trkpt>
      <trkpt lat="42.87132" lon="-0.19351">
        <ele>2454.4</ele>
        <time>2026-07-15T09:23:47Z</time>
      </trkpt>
      <trkpt lat="42.8713" lon="-0.1935">
        <ele>2454.4</ele>
        <time>2026-07-15T09:23:48Z</time>
      </trkpt>
      <trkpt lat="42.87129" lon="-0.19349">
        <ele>2454.4</ele>
        <time>2026-07-15T09:23:49Z</time>
      </trkpt>
      <trkpt lat="42.87129" lon="-0.19348">
        <ele>2453.4</ele>
        <time>2026-07-15T09:23:50Z</time>
      </trkpt>
      <trkpt lat="42.87128" lon="-0.19348">
        <ele>2453.4</ele>
        <time>2026-07-15T09:23:51Z</time>
      </trkpt>
      <trkpt lat="42.87127" lon="-0.19348">
        <ele>2453.4</ele>
        <time>2026-07-15T09:23:52Z</time>
      </trkpt>
      <trkpt lat="42.87127" lon="-0.19346">
        <ele>2453.4</ele>
        <time>2026-07-15T09:23:53Z</time>
      </trkpt>
      <trkpt lat="42.87127" lon="-0.19345">
        <ele>2454.4</ele>
        <time>2026-07-15T09:23:54Z</time>
      </trkpt>
      <trkpt lat="42.87126" lon="-0.19343">
        <ele>2454.4</ele>
        <time>2026-07-15T09:23:55Z</time>
      </trkpt>
      <trkpt lat="42.87125" lon="-0.19342">
        <ele>2454.4</ele>
        <time>2026-07-15T09:23:56Z</time>
      </trkpt>
      <trkpt lat="42.87125" lon="-0.19341">
        <ele>2455.4</ele>
        <time>2026-07-15T09:23:57Z</time>
      </trkpt>
      <trkpt lat="42.87125" lon="-0.1934">
        <ele>2455.4</ele>
        <time>2026-07-15T09:23:58Z</time>
      </trkpt>
      <trkpt lat="42.87124" lon="-0.19339">
        <ele>2455.4</ele>
        <time>2026-07-15T09:23:59Z</time>
      </trkpt>
      <trkpt lat="42.87123" lon="-0.19339">
        <ele>2456.4</ele>
        <time>2026-07-15T09:24:00Z</time>
      </trkpt>
      <trkpt lat="42.87122" lon="-0.19336">
        <ele>2456.4</ele>
        <time>2026-07-15T09:24:01Z</time>
      </trkpt>
      <trkpt lat="42.87122" lon="-0.19336">
        <ele>2456.4</ele>
        <time>2026-07-15T09:24:01Z</time>
      </trkpt>
      <trkpt lat="42.87121" lon="-0.19336">
        <ele>2456.4</ele>
        <time>2026-07-15T09:24:02Z</time>
      </trkpt>
      <trkpt lat="42.87121" lon="-0.19335">
        <ele>2456.4</ele>
        <time>2026-07-15T09:24:03Z</time>
      </trkpt>
      <trkpt lat="42.8712" lon="-0.19335">
        <ele>2456.4</ele>
        <time>2026-07-15T09:24:04Z</time>
      </trkpt>
      <trkpt lat="42.8712" lon="-0.19334">
        <ele>2456.4</ele>
        <time>2026-07-15T09:24:04Z</time>
      </trkpt>
      <trkpt lat="42.87119" lon="-0.19334">
        <ele>2456.4</ele>
        <time>2026-07-15T09:24:05Z</time>
      </trkpt>
      <trkpt lat="42.87119" lon="-0.19334">
        <ele>2456.4</ele>
        <time>2026-07-15T09:24:06Z</time>
      </trkpt>
      <trkpt lat="42.87118" lon="-0.19334">
        <ele>2455.4</ele>
        <time>2026-07-15T09:24:06Z</time>
      </trkpt>
      <trkpt lat="42.87118" lon="-0.19333">
        <ele>2455.4</ele>
        <time>2026-07-15T09:24:07Z</time>
      </trkpt>
      <trkpt lat="42.87118" lon="-0.19333">
        <ele>2455.4</ele>
        <time>2026-07-15T09:24:08Z</time>
      </trkpt>
      <trkpt lat="42.87118" lon="-0.19333">
        <ele>2455.4</ele>
        <time>2026-07-15T09:24:09Z</time>
      </trkpt>
      <trkpt lat="42.87118" lon="-0.19333">
        <ele>2455.4</ele>
        <time>2026-07-15T09:24:10Z</time>
      </trkpt>
      <trkpt lat="42.87117" lon="-0.19332">
        <ele>2455.4</ele>
        <time>2026-07-15T09:24:10Z</time>
      </trkpt>
      <trkpt lat="42.87117" lon="-0.19332">
        <ele>2455.4</ele>
        <time>2026-07-15T09:24:11Z</time>
      </trkpt>
      <trkpt lat="42.87117" lon="-0.19331">
        <ele>2455.4</ele>
        <time>2026-07-15T09:24:12Z</time>
      </trkpt>
      <trkpt lat="42.87116" lon="-0.1933">
        <ele>2455.4</ele>
        <time>2026-07-15T09:24:12Z</time>
      </trkpt>
      <trkpt lat="42.87116" lon="-0.1933">
        <ele>2455.4</ele>
        <time>2026-07-15T09:24:13Z</time>
      </trkpt>
      <trkpt lat="42.87116" lon="-0.19329">
        <ele>2455.4</ele>
        <time>2026-07-15T09:24:14Z</time>
      </trkpt>
      <trkpt lat="42.87115" lon="-0.19328">
        <ele>2455.4</ele>
        <time>2026-07-15T09:24:15Z</time>
      </trkpt>
      <trkpt lat="42.87115" lon="-0.19328">
        <ele>2454.4</ele>
        <time>2026-07-15T09:24:15Z</time>
      </trkpt>
      <trkpt lat="42.87115" lon="-0.19327">
        <ele>2454.4</ele>
        <time>2026-07-15T09:24:16Z</time>
      </trkpt>
      <trkpt lat="42.87114" lon="-0.19327">
        <ele>2454.4</ele>
        <time>2026-07-15T09:24:17Z</time>
      </trkpt>
      <trkpt lat="42.87114" lon="-0.19326">
        <ele>2454.4</ele>
        <time>2026-07-15T09:24:17Z</time>
      </trkpt>
      <trkpt lat="42.87114" lon="-0.19326">
        <ele>2455.4</ele>
        <time>2026-07-15T09:24:18Z</time>
      </trkpt>
      <trkpt lat="42.87114" lon="-0.19326">
        <ele>2455.4</ele>
        <time>2026-07-15T09:24:19Z</time>
      </trkpt>
      <trkpt lat="42.87113" lon="-0.19325">
        <ele>2454.4</ele>
        <time>2026-07-15T09:24:20Z</time>
      </trkpt>
      <trkpt lat="42.87113" lon="-0.19324">
        <ele>2454.4</ele>
        <time>2026-07-15T09:24:20Z</time>
      </trkpt>
      <trkpt lat="42.87113" lon="-0.19324">
        <ele>2455.4</ele>
        <time>2026-07-15T09:24:21Z</time>
      </trkpt>
      <trkpt lat="42.87112" lon="-0.19323">
        <ele>2455.4</ele>
        <time>2026-07-15T09:24:22Z</time>
      </trkpt>
      <trkpt lat="42.87112" lon="-0.19322">
        <ele>2454.4</ele>
        <time>2026-07-15T09:24:23Z</time>
      </trkpt>
      <trkpt lat="42.87112" lon="-0.19322">
        <ele>2454.4</ele>
        <time>2026-07-15T09:24:24Z</time>
      </trkpt>
      <trkpt lat="42.87112" lon="-0.19321">
        <ele>2454.4</ele>
        <time>2026-07-15T09:24:25Z</time>
      </trkpt>
      <trkpt lat="42.87112" lon="-0.19321">
        <ele>2454.4</ele>
        <time>2026-07-15T09:24:25Z</time>
      </trkpt>
      <trkpt lat="42.87112" lon="-0.1932">
        <ele>2454.4</ele>
        <time>2026-07-15T09:24:26Z</time>
      </trkpt>
      <trkpt lat="42.87112" lon="-0.1932">
        <ele>2454.4</ele>
        <time>2026-07-15T09:24:27Z</time>
      </trkpt>
      <trkpt lat="42.87111" lon="-0.19319">
        <ele>2455.4</ele>
        <time>2026-07-15T09:24:27Z</time>
      </trkpt>
      <trkpt lat="42.87111" lon="-0.19318">
        <ele>2455.4</ele>
        <time>2026-07-15T09:24:28Z</time>
      </trkpt>
      <trkpt lat="42.87111" lon="-0.19317">
        <ele>2455.4</ele>
        <time>2026-07-15T09:24:29Z</time>
      </trkpt>
      <trkpt lat="42.8711" lon="-0.19316">
        <ele>2455.4</ele>
        <time>2026-07-15T09:24:30Z</time>
      </trkpt>
      <trkpt lat="42.8711" lon="-0.19316">
        <ele>2454.4</ele>
        <time>2026-07-15T09:24:30Z</time>
      </trkpt>
      <trkpt lat="42.87109" lon="-0.19316">
        <ele>2454.4</ele>
        <time>2026-07-15T09:24:31Z</time>
      </trkpt>
      <trkpt lat="42.87109" lon="-0.19315">
        <ele>2454.4</ele>
        <time>2026-07-15T09:24:32Z</time>
      </trkpt>
      <trkpt lat="42.87108" lon="-0.19314">
        <ele>2454.4</ele>
        <time>2026-07-15T09:24:32Z</time>
      </trkpt>
      <trkpt lat="42.87108" lon="-0.19314">
        <ele>2454.4</ele>
        <time>2026-07-15T09:24:33Z</time>
      </trkpt>
      <trkpt lat="42.87108" lon="-0.19313">
        <ele>2454.4</ele>
        <time>2026-07-15T09:24:34Z</time>
      </trkpt>
      <trkpt lat="42.87107" lon="-0.19313">
        <ele>2454.4</ele>
        <time>2026-07-15T09:24:34Z</time>
      </trkpt>
      <trkpt lat="42.87107" lon="-0.19312">
        <ele>2454.4</ele>
        <time>2026-07-15T09:24:35Z</time>
      </trkpt>
      <trkpt lat="42.87107" lon="-0.19311">
        <ele>2454.4</ele>
        <time>2026-07-15T09:24:36Z</time>
      </trkpt>
      <trkpt lat="42.87107" lon="-0.19311">
        <ele>2454.4</ele>
        <time>2026-07-15T09:24:36Z</time>
      </trkpt>
      <trkpt lat="42.87107" lon="-0.1931">
        <ele>2454.4</ele>
        <time>2026-07-15T09:24:37Z</time>
      </trkpt>
      <trkpt lat="42.87107" lon="-0.19309">
        <ele>2453.4</ele>
        <time>2026-07-15T09:24:37Z</time>
      </trkpt>
      <trkpt lat="42.87107" lon="-0.19309">
        <ele>2453.4</ele>
        <time>2026-07-15T09:24:38Z</time>
      </trkpt>
      <trkpt lat="42.87106" lon="-0.19307">
        <ele>2453.4</ele>
        <time>2026-07-15T09:24:39Z</time>
      </trkpt>
      <trkpt lat="42.87106" lon="-0.19307">
        <ele>2453.4</ele>
        <time>2026-07-15T09:24:40Z</time>
      </trkpt>
      <trkpt lat="42.87106" lon="-0.19307">
        <ele>2453.4</ele>
        <time>2026-07-15T09:24:40Z</time>
      </trkpt>
      <trkpt lat="42.87106" lon="-0.19306">
        <ele>2453.4</ele>
        <time>2026-07-15T09:24:41Z</time>
      </trkpt>
      <trkpt lat="42.87105" lon="-0.19306">
        <ele>2452.4</ele>
        <time>2026-07-15T09:24:41Z</time>
      </trkpt>
      <trkpt lat="42.87105" lon="-0.19305">
        <ele>2452.4</ele>
        <time>2026-07-15T09:24:42Z</time>
      </trkpt>
      <trkpt lat="42.87105" lon="-0.19304">
        <ele>2452.4</ele>
        <time>2026-07-15T09:24:42Z</time>
      </trkpt>
      <trkpt lat="42.87104" lon="-0.19304">
        <ele>2452.4</ele>
        <time>2026-07-15T09:24:43Z</time>
      </trkpt>
      <trkpt lat="42.87104" lon="-0.19303">
        <ele>2452.4</ele>
        <time>2026-07-15T09:24:44Z</time>
      </trkpt>
      <trkpt lat="42.87104" lon="-0.19302">
        <ele>2452.4</ele>
        <time>2026-07-15T09:24:45Z</time>
      </trkpt>
      <trkpt lat="42.87104" lon="-0.19302">
        <ele>2452.4</ele>
        <time>2026-07-15T09:24:45Z</time>
      </trkpt>
      <trkpt lat="42.87103" lon="-0.19301">
        <ele>2452.4</ele>
        <time>2026-07-15T09:24:46Z</time>
      </trkpt>
      <trkpt lat="42.87102" lon="-0.193">
        <ele>2451.4</ele>
        <time>2026-07-15T09:24:47Z</time>
      </trkpt>
      <trkpt lat="42.87101" lon="-0.193">
        <ele>2451.4</ele>
        <time>2026-07-15T09:24:48Z</time>
      </trkpt>
      <trkpt lat="42.871" lon="-0.19299">
        <ele>2451.4</ele>
        <time>2026-07-15T09:24:49Z</time>
      </trkpt>
      <trkpt lat="42.87099" lon="-0.19299">
        <ele>2451.4</ele>
        <time>2026-07-15T09:24:50Z</time>
      </trkpt>
      <trkpt lat="42.87099" lon="-0.19298">
        <ele>2451.4</ele>
        <time>2026-07-15T09:24:51Z</time>
      </trkpt>
      <trkpt lat="42.87098" lon="-0.19298">
        <ele>2452.4</ele>
        <time>2026-07-15T09:24:51Z</time>
      </trkpt>
      <trkpt lat="42.87098" lon="-0.19297">
        <ele>2452.4</ele>
        <time>2026-07-15T09:24:52Z</time>
      </trkpt>
      <trkpt lat="42.87097" lon="-0.19296">
        <ele>2452.4</ele>
        <time>2026-07-15T09:24:53Z</time>
      </trkpt>
      <trkpt lat="42.87097" lon="-0.19295">
        <ele>2452.4</ele>
        <time>2026-07-15T09:24:54Z</time>
      </trkpt>
      <trkpt lat="42.87097" lon="-0.19295">
        <ele>2453.4</ele>
        <time>2026-07-15T09:24:54Z</time>
      </trkpt>
      <trkpt lat="42.87097" lon="-0.19294">
        <ele>2453.4</ele>
        <time>2026-07-15T09:24:55Z</time>
      </trkpt>
      <trkpt lat="42.87096" lon="-0.19294">
        <ele>2453.4</ele>
        <time>2026-07-15T09:24:56Z</time>
      </trkpt>
      <trkpt lat="42.87096" lon="-0.19293">
        <ele>2453.4</ele>
        <time>2026-07-15T09:24:57Z</time>
      </trkpt>
      <trkpt lat="42.87095" lon="-0.19293">
        <ele>2453.4</ele>
        <time>2026-07-15T09:24:58Z</time>
      </trkpt>
      <trkpt lat="42.87095" lon="-0.19292">
        <ele>2453.4</ele>
        <time>2026-07-15T09:24:59Z</time>
      </trkpt>
      <trkpt lat="42.87095" lon="-0.19292">
        <ele>2453.4</ele>
        <time>2026-07-15T09:25:00Z</time>
      </trkpt>
      <trkpt lat="42.87095" lon="-0.19292">
        <ele>2453.4</ele>
        <time>2026-07-15T09:25:01Z</time>
      </trkpt>
      <trkpt lat="42.87095" lon="-0.19293">
        <ele>2453.4</ele>
        <time>2026-07-15T09:25:02Z</time>
      </trkpt>
      <trkpt lat="42.87095" lon="-0.19293">
        <ele>2454.4</ele>
        <time>2026-07-15T09:25:03Z</time>
      </trkpt>
      <trkpt lat="42.87096" lon="-0.19293">
        <ele>2454.4</ele>
        <time>2026-07-15T09:25:04Z</time>
      </trkpt>
      <trkpt lat="42.87096" lon="-0.19293">
        <ele>2454.4</ele>
        <time>2026-07-15T09:25:05Z</time>
      </trkpt>
      <trkpt lat="42.87096" lon="-0.19293">
        <ele>2454.4</ele>
        <time>2026-07-15T09:25:06Z</time>
      </trkpt>
      <trkpt lat="42.87096" lon="-0.19294">
        <ele>2454.4</ele>
        <time>2026-07-15T09:25:07Z</time>
      </trkpt>
      <trkpt lat="42.87096" lon="-0.19294">
        <ele>2454.4</ele>
        <time>2026-07-15T09:25:08Z</time>
      </trkpt>
      <trkpt lat="42.87096" lon="-0.19294">
        <ele>2454.4</ele>
        <time>2026-07-15T09:25:09Z</time>
      </trkpt>
      <trkpt lat="42.87096" lon="-0.19294">
        <ele>2454.4</ele>
        <time>2026-07-15T09:25:10Z</time>
      </trkpt>
      <trkpt lat="42.87096" lon="-0.19294">
        <ele>2451.4</ele>
        <time>2026-07-15T09:25:11Z</time>
      </trkpt>
      <trkpt lat="42.87096" lon="-0.19294">
        <ele>2451.4</ele>
        <time>2026-07-15T09:25:12Z</time>
      </trkpt>
      <trkpt lat="42.87096" lon="-0.19294">
        <ele>2451.4</ele>
        <time>2026-07-15T09:25:13Z</time>
      </trkpt>
      <trkpt lat="42.87096" lon="-0.19294">
        <ele>2451.4</ele>
        <time>2026-07-15T09:25:14Z</time>
      </trkpt>
      <trkpt lat="42.87096" lon="-0.19294">
        <ele>2451.4</ele>
        <time>2026-07-15T09:25:14Z</time>
      </trkpt>
      <trkpt lat="42.87095" lon="-0.19293">
        <ele>2451.4</ele>
        <time>2026-07-15T09:25:15Z</time>
      </trkpt>
      <trkpt lat="42.87095" lon="-0.19293">
        <ele>2451.4</ele>
        <time>2026-07-15T09:25:16Z</time>
      </trkpt>
      <trkpt lat="42.87095" lon="-0.19293">
        <ele>2451.4</ele>
        <time>2026-07-15T09:25:17Z</time>
      </trkpt>
      <trkpt lat="42.87095" lon="-0.19293">
        <ele>2451.4</ele>
        <time>2026-07-15T09:25:18Z</time>
      </trkpt>
      <trkpt lat="42.87095" lon="-0.19293">
        <ele>2451.4</ele>
        <time>2026-07-15T09:25:19Z</time>
      </trkpt>
      <trkpt lat="42.87095" lon="-0.19293">
        <ele>2451.4</ele>
        <time>2026-07-15T09:25:20Z</time>
      </trkpt>
      <trkpt lat="42.87096" lon="-0.19293">
        <ele>2451.4</ele>
        <time>2026-07-15T09:25:21Z</time>
      </trkpt>
      <trkpt lat="42.87095" lon="-0.19293">
        <ele>2451.4</ele>
        <time>2026-07-15T09:25:22Z</time>
      </trkpt>
      <trkpt lat="42.87095" lon="-0.19292">
        <ele>2451.4</ele>
        <time>2026-07-15T09:25:22Z</time>
      </trkpt>
      <trkpt lat="42.87095" lon="-0.19292">
        <ele>2451.4</ele>
        <time>2026-07-15T09:25:23Z</time>
      </trkpt>
      <trkpt lat="42.87095" lon="-0.19292">
        <ele>2451.4</ele>
        <time>2026-07-15T09:25:24Z</time>
      </trkpt>
      <trkpt lat="42.87095" lon="-0.19291">
        <ele>2450.4</ele>
        <time>2026-07-15T09:25:25Z</time>
      </trkpt>
      <trkpt lat="42.87094" lon="-0.19291">
        <ele>2450.4</ele>
        <time>2026-07-15T09:25:26Z</time>
      </trkpt>
      <trkpt lat="42.87094" lon="-0.19291">
        <ele>2450.4</ele>
        <time>2026-07-15T09:25:27Z</time>
      </trkpt>
      <trkpt lat="42.87094" lon="-0.19291">
        <ele>2451.4</ele>
        <time>2026-07-15T09:25:28Z</time>
      </trkpt>
      <trkpt lat="42.87093" lon="-0.1929">
        <ele>2451.4</ele>
        <time>2026-07-15T09:25:29Z</time>
      </trkpt>
      <trkpt lat="42.87093" lon="-0.1929">
        <ele>2451.4</ele>
        <time>2026-07-15T09:25:30Z</time>
      </trkpt>
      <trkpt lat="42.87093" lon="-0.1929">
        <ele>2451.4</ele>
        <time>2026-07-15T09:25:31Z</time>
      </trkpt>
      <trkpt lat="42.87092" lon="-0.1929">
        <ele>2451.4</ele>
        <time>2026-07-15T09:25:31Z</time>
      </trkpt>
      <trkpt lat="42.87092" lon="-0.19289">
        <ele>2451.4</ele>
        <time>2026-07-15T09:25:32Z</time>
      </trkpt>
      <trkpt lat="42.87092" lon="-0.19289">
        <ele>2451.4</ele>
        <time>2026-07-15T09:25:33Z</time>
      </trkpt>
      <trkpt lat="42.87091" lon="-0.19288">
        <ele>2450.4</ele>
        <time>2026-07-15T09:25:34Z</time>
      </trkpt>
      <trkpt lat="42.87091" lon="-0.19288">
        <ele>2450.4</ele>
        <time>2026-07-15T09:25:35Z</time>
      </trkpt>
      <trkpt lat="42.87091" lon="-0.19288">
        <ele>2450.4</ele>
        <time>2026-07-15T09:25:36Z</time>
      </trkpt>
      <trkpt lat="42.8709" lon="-0.19287">
        <ele>2451.4</ele>
        <time>2026-07-15T09:25:36Z</time>
      </trkpt>
      <trkpt lat="42.8709" lon="-0.19287">
        <ele>2451.4</ele>
        <time>2026-07-15T09:25:37Z</time>
      </trkpt>
      <trkpt lat="42.8709" lon="-0.19286">
        <ele>2451.4</ele>
        <time>2026-07-15T09:25:38Z</time>
      </trkpt>
      <trkpt lat="42.87089" lon="-0.19284">
        <ele>2451.4</ele>
        <time>2026-07-15T09:25:39Z</time>
      </trkpt>
      <trkpt lat="42.87089" lon="-0.19283">
        <ele>2451.4</ele>
        <time>2026-07-15T09:25:39Z</time>
      </trkpt>
      <trkpt lat="42.87089" lon="-0.19282">
        <ele>2451.4</ele>
        <time>2026-07-15T09:25:40Z</time>
      </trkpt>
      <trkpt lat="42.87089" lon="-0.19281">
        <ele>2451.4</ele>
        <time>2026-07-15T09:25:41Z</time>
      </trkpt>
      <trkpt lat="42.8709" lon="-0.1928">
        <ele>2450.4</ele>
        <time>2026-07-15T09:25:41Z</time>
      </trkpt>
      <trkpt lat="42.8709" lon="-0.19279">
        <ele>2450.4</ele>
        <time>2026-07-15T09:25:42Z</time>
      </trkpt>
      <trkpt lat="42.8709" lon="-0.19278">
        <ele>2450.4</ele>
        <time>2026-07-15T09:25:43Z</time>
      </trkpt>
      <trkpt lat="42.8709" lon="-0.19277">
        <ele>2450.4</ele>
        <time>2026-07-15T09:25:43Z</time>
      </trkpt>
      <trkpt lat="42.8709" lon="-0.19276">
        <ele>2450.4</ele>
        <time>2026-07-15T09:25:44Z</time>
      </trkpt>
      <trkpt lat="42.87089" lon="-0.19276">
        <ele>2451.4</ele>
        <time>2026-07-15T09:25:45Z</time>
      </trkpt>
      <trkpt lat="42.87089" lon="-0.19275">
        <ele>2452.4</ele>
        <time>2026-07-15T09:25:45Z</time>
      </trkpt>
      <trkpt lat="42.87089" lon="-0.19274">
        <ele>2451.4</ele>
        <time>2026-07-15T09:25:46Z</time>
      </trkpt>
      <trkpt lat="42.87088" lon="-0.19274">
        <ele>2451.4</ele>
        <time>2026-07-15T09:25:47Z</time>
      </trkpt>
      <trkpt lat="42.87087" lon="-0.19273">
        <ele>2451.4</ele>
        <time>2026-07-15T09:25:48Z</time>
      </trkpt>
      <trkpt lat="42.87087" lon="-0.19273">
        <ele>2450.4</ele>
        <time>2026-07-15T09:25:49Z</time>
      </trkpt>
      <trkpt lat="42.87086" lon="-0.19274">
        <ele>2449.4</ele>
        <time>2026-07-15T09:25:50Z</time>
      </trkpt>
      <trkpt lat="42.87086" lon="-0.19274">
        <ele>2449.4</ele>
        <time>2026-07-15T09:25:51Z</time>
      </trkpt>
      <trkpt lat="42.87086" lon="-0.19274">
        <ele>2449.4</ele>
        <time>2026-07-15T09:25:52Z</time>
      </trkpt>
      <trkpt lat="42.87085" lon="-0.19274">
        <ele>2448.4</ele>
        <time>2026-07-15T09:25:53Z</time>
      </trkpt>
      <trkpt lat="42.87084" lon="-0.19274">
        <ele>2448.4</ele>
        <time>2026-07-15T09:25:54Z</time>
      </trkpt>
      <trkpt lat="42.87083" lon="-0.19273">
        <ele>2448.4</ele>
        <time>2026-07-15T09:25:55Z</time>
      </trkpt>
      <trkpt lat="42.87082" lon="-0.19272">
        <ele>2448.4</ele>
        <time>2026-07-15T09:25:56Z</time>
      </trkpt>
      <trkpt lat="42.87082" lon="-0.19273">
        <ele>2449.4</ele>
        <time>2026-07-15T09:25:57Z</time>
      </trkpt>
      <trkpt lat="42.87082" lon="-0.19273">
        <ele>2449.4</ele>
        <time>2026-07-15T09:25:58Z</time>
      </trkpt>
      <trkpt lat="42.87082" lon="-0.19273">
        <ele>2450.4</ele>
        <time>2026-07-15T09:25:59Z</time>
      </trkpt>
      <trkpt lat="42.87082" lon="-0.19273">
        <ele>2449.4</ele>
        <time>2026-07-15T09:26:00Z</time>
      </trkpt>
      <trkpt lat="42.87082" lon="-0.19272">
        <ele>2449.4</ele>
        <time>2026-07-15T09:26:01Z</time>
      </trkpt>
      <trkpt lat="42.87081" lon="-0.19272">
        <ele>2449.4</ele>
        <time>2026-07-15T09:26:01Z</time>
      </trkpt>
      <trkpt lat="42.87081" lon="-0.19272">
        <ele>2449.4</ele>
        <time>2026-07-15T09:26:02Z</time>
      </trkpt>
      <trkpt lat="42.87081" lon="-0.19271">
        <ele>2449.4</ele>
        <time>2026-07-15T09:26:03Z</time>
      </trkpt>
      <trkpt lat="42.87081" lon="-0.19271">
        <ele>2449.4</ele>
        <time>2026-07-15T09:26:03Z</time>
      </trkpt>
      <trkpt lat="42.8708" lon="-0.19271">
        <ele>2449.4</ele>
        <time>2026-07-15T09:26:04Z</time>
      </trkpt>
      <trkpt lat="42.8708" lon="-0.1927">
        <ele>2449.4</ele>
        <time>2026-07-15T09:26:05Z</time>
      </trkpt>
      <trkpt lat="42.87079" lon="-0.1927">
        <ele>2449.4</ele>
        <time>2026-07-15T09:26:06Z</time>
      </trkpt>
      <trkpt lat="42.87079" lon="-0.19269">
        <ele>2449.4</ele>
        <time>2026-07-15T09:26:07Z</time>
      </trkpt>
      <trkpt lat="42.87079" lon="-0.19269">
        <ele>2449.4</ele>
        <time>2026-07-15T09:26:07Z</time>
      </trkpt>
      <trkpt lat="42.87078" lon="-0.19269">
        <ele>2448.4</ele>
        <time>2026-07-15T09:26:08Z</time>
      </trkpt>
      <trkpt lat="42.87078" lon="-0.19269">
        <ele>2448.4</ele>
        <time>2026-07-15T09:26:09Z</time>
      </trkpt>
      <trkpt lat="42.87077" lon="-0.19268">
        <ele>2448.4</ele>
        <time>2026-07-15T09:26:10Z</time>
      </trkpt>
      <trkpt lat="42.87077" lon="-0.19267">
        <ele>2448.4</ele>
        <time>2026-07-15T09:26:11Z</time>
      </trkpt>
      <trkpt lat="42.87076" lon="-0.19267">
        <ele>2448.4</ele>
        <time>2026-07-15T09:26:12Z</time>
      </trkpt>
      <trkpt lat="42.87075" lon="-0.19266">
        <ele>2449.4</ele>
        <time>2026-07-15T09:26:12Z</time>
      </trkpt>
      <trkpt lat="42.87075" lon="-0.19265">
        <ele>2448.4</ele>
        <time>2026-07-15T09:26:13Z</time>
      </trkpt>
      <trkpt lat="42.87075" lon="-0.19265">
        <ele>2448.4</ele>
        <time>2026-07-15T09:26:14Z</time>
      </trkpt>
      <trkpt lat="42.87074" lon="-0.19265">
        <ele>2449.4</ele>
        <time>2026-07-15T09:26:15Z</time>
      </trkpt>
      <trkpt lat="42.87073" lon="-0.19264">
        <ele>2449.4</ele>
        <time>2026-07-15T09:26:16Z</time>
      </trkpt>
      <trkpt lat="42.87073" lon="-0.19264">
        <ele>2449.4</ele>
        <time>2026-07-15T09:26:16Z</time>
      </trkpt>
      <trkpt lat="42.87073" lon="-0.19264">
        <ele>2449.4</ele>
        <time>2026-07-15T09:26:17Z</time>
      </trkpt>
      <trkpt lat="42.87073" lon="-0.19264">
        <ele>2449.4</ele>
        <time>2026-07-15T09:26:18Z</time>
      </trkpt>
      <trkpt lat="42.87073" lon="-0.19264">
        <ele>2450.4</ele>
        <time>2026-07-15T09:26:19Z</time>
      </trkpt>
      <trkpt lat="42.87073" lon="-0.19264">
        <ele>2450.4</ele>
        <time>2026-07-15T09:26:20Z</time>
      </trkpt>
      <trkpt lat="42.87073" lon="-0.19264">
        <ele>2450.4</ele>
        <time>2026-07-15T09:26:20Z</time>
      </trkpt>
      <trkpt lat="42.87072" lon="-0.19264">
        <ele>2451.4</ele>
        <time>2026-07-15T09:26:21Z</time>
      </trkpt>
      <trkpt lat="42.87072" lon="-0.19264">
        <ele>2451.4</ele>
        <time>2026-07-15T09:26:22Z</time>
      </trkpt>
      <trkpt lat="42.87072" lon="-0.19264">
        <ele>2451.4</ele>
        <time>2026-07-15T09:26:23Z</time>
      </trkpt>
      <trkpt lat="42.87071" lon="-0.19263">
        <ele>2451.4</ele>
        <time>2026-07-15T09:26:23Z</time>
      </trkpt>
      <trkpt lat="42.87071" lon="-0.19263">
        <ele>2451.4</ele>
        <time>2026-07-15T09:26:24Z</time>
      </trkpt>
      <trkpt lat="42.8707" lon="-0.19263">
        <ele>2451.4</ele>
        <time>2026-07-15T09:26:25Z</time>
      </trkpt>
      <trkpt lat="42.87069" lon="-0.19263">
        <ele>2451.4</ele>
        <time>2026-07-15T09:26:26Z</time>
      </trkpt>
      <trkpt lat="42.87068" lon="-0.19262">
        <ele>2451.4</ele>
        <time>2026-07-15T09:26:26Z</time>
      </trkpt>
      <trkpt lat="42.87067" lon="-0.19262">
        <ele>2452.4</ele>
        <time>2026-07-15T09:26:27Z</time>
      </trkpt>
      <trkpt lat="42.87067" lon="-0.19262">
        <ele>2452.4</ele>
        <time>2026-07-15T09:26:28Z</time>
      </trkpt>
      <trkpt lat="42.87066" lon="-0.19261">
        <ele>2452.4</ele>
        <time>2026-07-15T09:26:29Z</time>
      </trkpt>
      <trkpt lat="42.87065" lon="-0.19261">
        <ele>2452.4</ele>
        <time>2026-07-15T09:26:30Z</time>
      </trkpt>
      <trkpt lat="42.87065" lon="-0.19261">
        <ele>2451.4</ele>
        <time>2026-07-15T09:26:31Z</time>
      </trkpt>
      <trkpt lat="42.87065" lon="-0.1926">
        <ele>2451.4</ele>
        <time>2026-07-15T09:26:32Z</time>
      </trkpt>
      <trkpt lat="42.87064" lon="-0.1926">
        <ele>2451.4</ele>
        <time>2026-07-15T09:26:33Z</time>
      </trkpt>
      <trkpt lat="42.87064" lon="-0.1926">
        <ele>2451.4</ele>
        <time>2026-07-15T09:26:34Z</time>
      </trkpt>
      <trkpt lat="42.87064" lon="-0.1926">
        <ele>2451.4</ele>
        <time>2026-07-15T09:26:35Z</time>
      </trkpt>
      <trkpt lat="42.87064" lon="-0.1926">
        <ele>2451.4</ele>
        <time>2026-07-15T09:26:36Z</time>
      </trkpt>
      <trkpt lat="42.87064" lon="-0.1926">
        <ele>2451.4</ele>
        <time>2026-07-15T09:26:37Z</time>
      </trkpt>
      <trkpt lat="42.87064" lon="-0.1926">
        <ele>2451.4</ele>
        <time>2026-07-15T09:26:37Z</time>
      </trkpt>
      <trkpt lat="42.87064" lon="-0.1926">
        <ele>2450.4</ele>
        <time>2026-07-15T09:26:38Z</time>
      </trkpt>
      <trkpt lat="42.87064" lon="-0.1926">
        <ele>2450.4</ele>
        <time>2026-07-15T09:26:39Z</time>
      </trkpt>
      <trkpt lat="42.87063" lon="-0.1926">
        <ele>2450.4</ele>
        <time>2026-07-15T09:26:40Z</time>
      </trkpt>
      <trkpt lat="42.87063" lon="-0.1926">
        <ele>2449.4</ele>
        <time>2026-07-15T09:26:41Z</time>
      </trkpt>
      <trkpt lat="42.87063" lon="-0.1926">
        <ele>2449.4</ele>
        <time>2026-07-15T09:26:42Z</time>
      </trkpt>
      <trkpt lat="42.87063" lon="-0.1926">
        <ele>2449.4</ele>
        <time>2026-07-15T09:26:42Z</time>
      </trkpt>
      <trkpt lat="42.87063" lon="-0.1926">
        <ele>2449.4</ele>
        <time>2026-07-15T09:26:43Z</time>
      </trkpt>
      <trkpt lat="42.87063" lon="-0.1926">
        <ele>2449.4</ele>
        <time>2026-07-15T09:26:44Z</time>
      </trkpt>
      <trkpt lat="42.87063" lon="-0.1926">
        <ele>2449.4</ele>
        <time>2026-07-15T09:26:44Z</time>
      </trkpt>
      <trkpt lat="42.87063" lon="-0.1926">
        <ele>2449.4</ele>
        <time>2026-07-15T09:26:45Z</time>
      </trkpt>
      <trkpt lat="42.87063" lon="-0.1926">
        <ele>2449.4</ele>
        <time>2026-07-15T09:26:45Z</time>
      </trkpt>
      <trkpt lat="42.87063" lon="-0.1926">
        <ele>2449.4</ele>
        <time>2026-07-15T09:26:46Z</time>
      </trkpt>
      <trkpt lat="42.87063" lon="-0.19261">
        <ele>2449.4</ele>
        <time>2026-07-15T09:26:47Z</time>
      </trkpt>
      <trkpt lat="42.87063" lon="-0.19261">
        <ele>2449.4</ele>
        <time>2026-07-15T09:26:48Z</time>
      </trkpt>
      <trkpt lat="42.87063" lon="-0.19261">
        <ele>2449.4</ele>
        <time>2026-07-15T09:26:49Z</time>
      </trkpt>
      <trkpt lat="42.87063" lon="-0.19261">
        <ele>2449.4</ele>
        <time>2026-07-15T09:26:50Z</time>
      </trkpt>
      <trkpt lat="42.87063" lon="-0.19261">
        <ele>2449.4</ele>
        <time>2026-07-15T09:26:51Z</time>
      </trkpt>
      <trkpt lat="42.87063" lon="-0.19261">
        <ele>2449.4</ele>
        <time>2026-07-15T09:26:51Z</time>
      </trkpt>
      <trkpt lat="42.87063" lon="-0.19261">
        <ele>2449.4</ele>
        <time>2026-07-15T09:26:52Z</time>
      </trkpt>
      <trkpt lat="42.87063" lon="-0.19261">
        <ele>2449.4</ele>
        <time>2026-07-15T09:26:53Z</time>
      </trkpt>
      <trkpt lat="42.87063" lon="-0.19261">
        <ele>2449.4</ele>
        <time>2026-07-15T09:26:54Z</time>
      </trkpt>
      <trkpt lat="42.87063" lon="-0.19261">
        <ele>2449.4</ele>
        <time>2026-07-15T09:26:55Z</time>
      </trkpt>
      <trkpt lat="42.87063" lon="-0.19261">
        <ele>2449.4</ele>
        <time>2026-07-15T09:26:56Z</time>
      </trkpt>
      <trkpt lat="42.87063" lon="-0.19261">
        <ele>2449.4</ele>
        <time>2026-07-15T09:26:56Z</time>
      </trkpt>
      <trkpt lat="42.87063" lon="-0.19261">
        <ele>2449.4</ele>
        <time>2026-07-15T09:26:57Z</time>
      </trkpt>
      <trkpt lat="42.87063" lon="-0.19261">
        <ele>2449.4</ele>
        <time>2026-07-15T09:26:58Z</time>
      </trkpt>
      <trkpt lat="42.87063" lon="-0.19261">
        <ele>2449.4</ele>
        <time>2026-07-15T09:26:59Z</time>
      </trkpt>
      <trkpt lat="42.87063" lon="-0.19261">
        <ele>2449.4</ele>
        <time>2026-07-15T09:27:00Z</time>
      </trkpt>
      <trkpt lat="42.87063" lon="-0.19261">
        <ele>2449.4</ele>
        <time>2026-07-15T09:27:01Z</time>
      </trkpt>
      <trkpt lat="42.87063" lon="-0.19261">
        <ele>2449.4</ele>
        <time>2026-07-15T09:27:02Z</time>
      </trkpt>
      <trkpt lat="42.87063" lon="-0.19261">
        <ele>2449.4</ele>
        <time>2026-07-15T09:27:03Z</time>
      </trkpt>
      <trkpt lat="42.87063" lon="-0.19261">
        <ele>2449.4</ele>
        <time>2026-07-15T09:27:04Z</time>
      </trkpt>
      <trkpt lat="42.87063" lon="-0.19261">
        <ele>2451.4</ele>
        <time>2026-07-15T09:27:05Z</time>
      </trkpt>
      <trkpt lat="42.87063" lon="-0.1926">
        <ele>2451.4</ele>
        <time>2026-07-15T09:27:06Z</time>
      </trkpt>
      <trkpt lat="42.87063" lon="-0.1926">
        <ele>2451.4</ele>
        <time>2026-07-15T09:27:07Z</time>
      </trkpt>
      <trkpt lat="42.87063" lon="-0.1926">
        <ele>2451.4</ele>
        <time>2026-07-15T09:27:08Z</time>
      </trkpt>
      <trkpt lat="42.87063" lon="-0.1926">
        <ele>2451.4</ele>
        <time>2026-07-15T09:27:09Z</time>
      </trkpt>
      <trkpt lat="42.87062" lon="-0.1926">
        <ele>2451.4</ele>
        <time>2026-07-15T09:27:10Z</time>
      </trkpt>
      <trkpt lat="42.87062" lon="-0.1926">
        <ele>2451.4</ele>
        <time>2026-07-15T09:27:11Z</time>
      </trkpt>
      <trkpt lat="42.87062" lon="-0.1926">
        <ele>2451.4</ele>
        <time>2026-07-15T09:27:12Z</time>
      </trkpt>
      <trkpt lat="42.87063" lon="-0.1926">
        <ele>2451.4</ele>
        <time>2026-07-15T09:27:13Z</time>
      </trkpt>
      <trkpt lat="42.87062" lon="-0.1926">
        <ele>2451.4</ele>
        <time>2026-07-15T09:27:14Z</time>
      </trkpt>
      <trkpt lat="42.87062" lon="-0.1926">
        <ele>2451.4</ele>
        <time>2026-07-15T09:27:15Z</time>
      </trkpt>
      <trkpt lat="42.87062" lon="-0.1926">
        <ele>2451.4</ele>
        <time>2026-07-15T09:27:16Z</time>
      </trkpt>
      <trkpt lat="42.87062" lon="-0.1926">
        <ele>2451.4</ele>
        <time>2026-07-15T09:27:17Z</time>
      </trkpt>
      <trkpt lat="42.87062" lon="-0.1926">
        <ele>2451.4</ele>
        <time>2026-07-15T09:27:18Z</time>
      </trkpt>
      <trkpt lat="42.87062" lon="-0.1926">
        <ele>2451.4</ele>
        <time>2026-07-15T09:27:19Z</time>
      </trkpt>
      <trkpt lat="42.87062" lon="-0.1926">
        <ele>2451.4</ele>
        <time>2026-07-15T09:27:19Z</time>
      </trkpt>
      <trkpt lat="42.87062" lon="-0.1926">
        <ele>2451.4</ele>
        <time>2026-07-15T09:27:20Z</time>
      </trkpt>
      <trkpt lat="42.87062" lon="-0.1926">
        <ele>2451.4</ele>
        <time>2026-07-15T09:27:21Z</time>
      </trkpt>
      <trkpt lat="42.87062" lon="-0.1926">
        <ele>2452.4</ele>
        <time>2026-07-15T09:27:22Z</time>
      </trkpt>
      <trkpt lat="42.87062" lon="-0.19259">
        <ele>2452.4</ele>
        <time>2026-07-15T09:27:23Z</time>
      </trkpt>
      <trkpt lat="42.87062" lon="-0.19259">
        <ele>2452.4</ele>
        <time>2026-07-15T09:27:24Z</time>
      </trkpt>
      <trkpt lat="42.87062" lon="-0.19259">
        <ele>2452.4</ele>
        <time>2026-07-15T09:27:25Z</time>
      </trkpt>
      <trkpt lat="42.87062" lon="-0.19259">
        <ele>2452.4</ele>
        <time>2026-07-15T09:27:26Z</time>
      </trkpt>
      <trkpt lat="42.87062" lon="-0.19259">
        <ele>2452.4</ele>
        <time>2026-07-15T09:27:27Z</time>
      </trkpt>
      <trkpt lat="42.87062" lon="-0.19259">
        <ele>2452.4</ele>
        <time>2026-07-15T09:27:28Z</time>
      </trkpt>
      <trkpt lat="42.87061" lon="-0.19259">
        <ele>2452.4</ele>
        <time>2026-07-15T09:27:29Z</time>
      </trkpt>
      <trkpt lat="42.87061" lon="-0.19259">
        <ele>2452.4</ele>
        <time>2026-07-15T09:27:30Z</time>
      </trkpt>
      <trkpt lat="42.87061" lon="-0.19259">
        <ele>2452.4</ele>
        <time>2026-07-15T09:27:31Z</time>
      </trkpt>
      <trkpt lat="42.87061" lon="-0.19259">
        <ele>2452.4</ele>
        <time>2026-07-15T09:27:32Z</time>
      </trkpt>
      <trkpt lat="42.87061" lon="-0.19259">
        <ele>2452.4</ele>
        <time>2026-07-15T09:27:33Z</time>
      </trkpt>
      <trkpt lat="42.87061" lon="-0.19259">
        <ele>2452.4</ele>
        <time>2026-07-15T09:27:34Z</time>
      </trkpt>
      <trkpt lat="42.87062" lon="-0.19259">
        <ele>2452.4</ele>
        <time>2026-07-15T09:27:35Z</time>
      </trkpt>
      <trkpt lat="42.87062" lon="-0.19259">
        <ele>2452.4</ele>
        <time>2026-07-15T09:27:36Z</time>
      </trkpt>
      <trkpt lat="42.87062" lon="-0.19259">
        <ele>2451.4</ele>
        <time>2026-07-15T09:27:37Z</time>
      </trkpt>
      <trkpt lat="42.87062" lon="-0.19258">
        <ele>2450.4</ele>
        <time>2026-07-15T09:27:38Z</time>
      </trkpt>
      <trkpt lat="42.87062" lon="-0.19258">
        <ele>2450.4</ele>
        <time>2026-07-15T09:27:39Z</time>
      </trkpt>
      <trkpt lat="42.87062" lon="-0.19258">
        <ele>2450.4</ele>
        <time>2026-07-15T09:27:39Z</time>
      </trkpt>
      <trkpt lat="42.87062" lon="-0.19258">
        <ele>2450.4</ele>
        <time>2026-07-15T09:27:40Z</time>
      </trkpt>
      <trkpt lat="42.87063" lon="-0.19258">
        <ele>2450.4</ele>
        <time>2026-07-15T09:27:40Z</time>
      </trkpt>
      <trkpt lat="42.87063" lon="-0.19258">
        <ele>2451.4</ele>
        <time>2026-07-15T09:27:41Z</time>
      </trkpt>
      <trkpt lat="42.87063" lon="-0.19258">
        <ele>2451.4</ele>
        <time>2026-07-15T09:27:42Z</time>
      </trkpt>
      <trkpt lat="42.87063" lon="-0.19258">
        <ele>2451.4</ele>
        <time>2026-07-15T09:27:42Z</time>
      </trkpt>
      <trkpt lat="42.87063" lon="-0.19258">
        <ele>2451.4</ele>
        <time>2026-07-15T09:27:43Z</time>
      </trkpt>
      <trkpt lat="42.87063" lon="-0.19258">
        <ele>2451.4</ele>
        <time>2026-07-15T09:27:44Z</time>
      </trkpt>
      <trkpt lat="42.87064" lon="-0.19259">
        <ele>2451.4</ele>
        <time>2026-07-15T09:27:45Z</time>
      </trkpt>
      <trkpt lat="42.87064" lon="-0.19259">
        <ele>2451.4</ele>
        <time>2026-07-15T09:27:46Z</time>
      </trkpt>
      <trkpt lat="42.87064" lon="-0.19259">
        <ele>2451.4</ele>
        <time>2026-07-15T09:27:47Z</time>
      </trkpt>
      <trkpt lat="42.87064" lon="-0.19259">
        <ele>2451.4</ele>
        <time>2026-07-15T09:27:48Z</time>
      </trkpt>
      <trkpt lat="42.87064" lon="-0.19259">
        <ele>2451.4</ele>
        <time>2026-07-15T09:27:49Z</time>
      </trkpt>
      <trkpt lat="42.87064" lon="-0.19259">
        <ele>2451.4</ele>
        <time>2026-07-15T09:27:50Z</time>
      </trkpt>
      <trkpt lat="42.87064" lon="-0.19259">
        <ele>2451.4</ele>
        <time>2026-07-15T09:27:51Z</time>
      </trkpt>
      <trkpt lat="42.87064" lon="-0.19259">
        <ele>2451.4</ele>
        <time>2026-07-15T09:27:52Z</time>
      </trkpt>
      <trkpt lat="42.87064" lon="-0.19259">
        <ele>2451.4</ele>
        <time>2026-07-15T09:27:53Z</time>
      </trkpt>
      <trkpt lat="42.87064" lon="-0.19259">
        <ele>2451.4</ele>
        <time>2026-07-15T09:27:54Z</time>
      </trkpt>
      <trkpt lat="42.87064" lon="-0.19259">
        <ele>2451.4</ele>
        <time>2026-07-15T09:27:55Z</time>
      </trkpt>
      <trkpt lat="42.87064" lon="-0.19259">
        <ele>2451.4</ele>
        <time>2026-07-15T09:27:56Z</time>
      </trkpt>
      <trkpt lat="42.87064" lon="-0.19259">
        <ele>2451.4</ele>
        <time>2026-07-15T09:27:57Z</time>
      </trkpt>
      <trkpt lat="42.87064" lon="-0.19259">
        <ele>2451.4</ele>
        <time>2026-07-15T09:27:58Z</time>
      </trkpt>
      <trkpt lat="42.87064" lon="-0.19259">
        <ele>2451.4</ele>
        <time>2026-07-15T09:27:59Z</time>
      </trkpt>
      <trkpt lat="42.87064" lon="-0.19259">
        <ele>2451.4</ele>
        <time>2026-07-15T09:27:59Z</time>
      </trkpt>
      <trkpt lat="42.87064" lon="-0.19259">
        <ele>2451.4</ele>
        <time>2026-07-15T09:28:00Z</time>
      </trkpt>
      <trkpt lat="42.87064" lon="-0.19259">
        <ele>2452.4</ele>
        <time>2026-07-15T09:28:00Z</time>
      </trkpt>
      <trkpt lat="42.87064" lon="-0.19259">
        <ele>2452.4</ele>
        <time>2026-07-15T09:28:01Z</time>
      </trkpt>
      <trkpt lat="42.87064" lon="-0.19259">
        <ele>2452.4</ele>
        <time>2026-07-15T09:28:02Z</time>
      </trkpt>
      <trkpt lat="42.87064" lon="-0.19259">
        <ele>2452.4</ele>
        <time>2026-07-15T09:28:02Z</time>
      </trkpt>
      <trkpt lat="42.87064" lon="-0.19259">
        <ele>2452.4</ele>
        <time>2026-07-15T09:28:03Z</time>
      </trkpt>
      <trkpt lat="42.87064" lon="-0.19259">
        <ele>2451.4</ele>
        <time>2026-07-15T09:28:04Z</time>
      </trkpt>
      <trkpt lat="42.87065" lon="-0.19258">
        <ele>2451.4</ele>
        <time>2026-07-15T09:28:05Z</time>
      </trkpt>
      <trkpt lat="42.87065" lon="-0.19258">
        <ele>2451.4</ele>
        <time>2026-07-15T09:28:06Z</time>
      </trkpt>
      <trkpt lat="42.87065" lon="-0.19258">
        <ele>2451.4</ele>
        <time>2026-07-15T09:28:07Z</time>
      </trkpt>
      <trkpt lat="42.87065" lon="-0.19259">
        <ele>2451.4</ele>
        <time>2026-07-15T09:28:08Z</time>
      </trkpt>
      <trkpt lat="42.87065" lon="-0.19259">
        <ele>2451.4</ele>
        <time>2026-07-15T09:28:08Z</time>
      </trkpt>
      <trkpt lat="42.87065" lon="-0.19259">
        <ele>2451.4</ele>
        <time>2026-07-15T09:28:09Z</time>
      </trkpt>
      <trkpt lat="42.87066" lon="-0.19259">
        <ele>2451.4</ele>
        <time>2026-07-15T09:28:10Z</time>
      </trkpt>
      <trkpt lat="42.87066" lon="-0.19258">
        <ele>2451.4</ele>
        <time>2026-07-15T09:28:11Z</time>
      </trkpt>
      <trkpt lat="42.87066" lon="-0.19258">
        <ele>2451.4</ele>
        <time>2026-07-15T09:28:11Z</time>
      </trkpt>
      <trkpt lat="42.87067" lon="-0.19258">
        <ele>2452.4</ele>
        <time>2026-07-15T09:28:12Z</time>
      </trkpt>
      <trkpt lat="42.87068" lon="-0.19257">
        <ele>2452.4</ele>
        <time>2026-07-15T09:28:13Z</time>
      </trkpt>
      <trkpt lat="42.87068" lon="-0.19257">
        <ele>2452.4</ele>
        <time>2026-07-15T09:28:14Z</time>
      </trkpt>
      <trkpt lat="42.87069" lon="-0.19256">
        <ele>2452.4</ele>
        <time>2026-07-15T09:28:14Z</time>
      </trkpt>
      <trkpt lat="42.87069" lon="-0.19256">
        <ele>2453.4</ele>
        <time>2026-07-15T09:28:15Z</time>
      </trkpt>
      <trkpt lat="42.8707" lon="-0.19255">
        <ele>2453.4</ele>
        <time>2026-07-15T09:28:16Z</time>
      </trkpt>
      <trkpt lat="42.8707" lon="-0.19255">
        <ele>2452.4</ele>
        <time>2026-07-15T09:28:17Z</time>
      </trkpt>
      <trkpt lat="42.8707" lon="-0.19254">
        <ele>2452.4</ele>
        <time>2026-07-15T09:28:18Z</time>
      </trkpt>
      <trkpt lat="42.8707" lon="-0.19254">
        <ele>2452.4</ele>
        <time>2026-07-15T09:28:19Z</time>
      </trkpt>
      <trkpt lat="42.8707" lon="-0.19254">
        <ele>2453.4</ele>
        <time>2026-07-15T09:28:20Z</time>
      </trkpt>
      <trkpt lat="42.8707" lon="-0.19253">
        <ele>2452.4</ele>
        <time>2026-07-15T09:28:21Z</time>
      </trkpt>
      <trkpt lat="42.8707" lon="-0.19253">
        <ele>2451.4</ele>
        <time>2026-07-15T09:28:21Z</time>
      </trkpt>
      <trkpt lat="42.87069" lon="-0.19253">
        <ele>2451.4</ele>
        <time>2026-07-15T09:28:22Z</time>
      </trkpt>
      <trkpt lat="42.87069" lon="-0.19253">
        <ele>2451.4</ele>
        <time>2026-07-15T09:28:23Z</time>
      </trkpt>
      <trkpt lat="42.87069" lon="-0.19253">
        <ele>2451.4</ele>
        <time>2026-07-15T09:28:24Z</time>
      </trkpt>
      <trkpt lat="42.87069" lon="-0.19253">
        <ele>2452.4</ele>
        <time>2026-07-15T09:28:25Z</time>
      </trkpt>
      <trkpt lat="42.87069" lon="-0.19253">
        <ele>2452.4</ele>
        <time>2026-07-15T09:28:26Z</time>
      </trkpt>
      <trkpt lat="42.87068" lon="-0.19253">
        <ele>2452.4</ele>
        <time>2026-07-15T09:28:27Z</time>
      </trkpt>
      <trkpt lat="42.87068" lon="-0.19253">
        <ele>2452.4</ele>
        <time>2026-07-15T09:28:27Z</time>
      </trkpt>
      <trkpt lat="42.87068" lon="-0.19253">
        <ele>2452.4</ele>
        <time>2026-07-15T09:28:28Z</time>
      </trkpt>
      <trkpt lat="42.87068" lon="-0.19254">
        <ele>2452.4</ele>
        <time>2026-07-15T09:28:29Z</time>
      </trkpt>
      <trkpt lat="42.87067" lon="-0.19254">
        <ele>2451.4</ele>
        <time>2026-07-15T09:28:30Z</time>
      </trkpt>
      <trkpt lat="42.87066" lon="-0.19255">
        <ele>2451.4</ele>
        <time>2026-07-15T09:28:31Z</time>
      </trkpt>
      <trkpt lat="42.87065" lon="-0.19255">
        <ele>2451.4</ele>
        <time>2026-07-15T09:28:32Z</time>
      </trkpt>
      <trkpt lat="42.87064" lon="-0.19254">
        <ele>2450.4</ele>
        <time>2026-07-15T09:28:33Z</time>
      </trkpt>
      <trkpt lat="42.87064" lon="-0.19253">
        <ele>2449.4</ele>
        <time>2026-07-15T09:28:34Z</time>
      </trkpt>
      <trkpt lat="42.87064" lon="-0.19253">
        <ele>2449.4</ele>
        <time>2026-07-15T09:28:35Z</time>
      </trkpt>
      <trkpt lat="42.87064" lon="-0.19253">
        <ele>2450.4</ele>
        <time>2026-07-15T09:28:36Z</time>
      </trkpt>
      <trkpt lat="42.87064" lon="-0.19253">
        <ele>2450.4</ele>
        <time>2026-07-15T09:28:37Z</time>
      </trkpt>
      <trkpt lat="42.87064" lon="-0.19253">
        <ele>2450.4</ele>
        <time>2026-07-15T09:28:38Z</time>
      </trkpt>
      <trkpt lat="42.87065" lon="-0.19252">
        <ele>2449.4</ele>
        <time>2026-07-15T09:28:39Z</time>
      </trkpt>
      <trkpt lat="42.87065" lon="-0.19251">
        <ele>2450.4</ele>
        <time>2026-07-15T09:28:40Z</time>
      </trkpt>
      <trkpt lat="42.87065" lon="-0.1925">
        <ele>2451.4</ele>
        <time>2026-07-15T09:28:41Z</time>
      </trkpt>
      <trkpt lat="42.87065" lon="-0.19249">
        <ele>2452.4</ele>
        <time>2026-07-15T09:28:42Z</time>
      </trkpt>
      <trkpt lat="42.87065" lon="-0.19248">
        <ele>2452.4</ele>
        <time>2026-07-15T09:28:43Z</time>
      </trkpt>
      <trkpt lat="42.87065" lon="-0.19248">
        <ele>2452.4</ele>
        <time>2026-07-15T09:28:44Z</time>
      </trkpt>
      <trkpt lat="42.87065" lon="-0.19248">
        <ele>2452.4</ele>
        <time>2026-07-15T09:28:45Z</time>
      </trkpt>
      <trkpt lat="42.87065" lon="-0.19247">
        <ele>2453.4</ele>
        <time>2026-07-15T09:28:46Z</time>
      </trkpt>
      <trkpt lat="42.87064" lon="-0.19247">
        <ele>2452.4</ele>
        <time>2026-07-15T09:28:47Z</time>
      </trkpt>
      <trkpt lat="42.87063" lon="-0.19248">
        <ele>2452.4</ele>
        <time>2026-07-15T09:28:48Z</time>
      </trkpt>
      <trkpt lat="42.87062" lon="-0.19247">
        <ele>2451.4</ele>
        <time>2026-07-15T09:28:49Z</time>
      </trkpt>
      <trkpt lat="42.87061" lon="-0.19247">
        <ele>2452.4</ele>
        <time>2026-07-15T09:28:50Z</time>
      </trkpt>
      <trkpt lat="42.87061" lon="-0.19247">
        <ele>2452.4</ele>
        <time>2026-07-15T09:28:51Z</time>
      </trkpt>
      <trkpt lat="42.87061" lon="-0.19247">
        <ele>2452.4</ele>
        <time>2026-07-15T09:28:52Z</time>
      </trkpt>
      <trkpt lat="42.87061" lon="-0.19246">
        <ele>2452.4</ele>
        <time>2026-07-15T09:28:53Z</time>
      </trkpt>
      <trkpt lat="42.87061" lon="-0.19244">
        <ele>2452.4</ele>
        <time>2026-07-15T09:28:54Z</time>
      </trkpt>
      <trkpt lat="42.87062" lon="-0.19245">
        <ele>2452.4</ele>
        <time>2026-07-15T09:28:55Z</time>
      </trkpt>
      <trkpt lat="42.87062" lon="-0.19245">
        <ele>2452.4</ele>
        <time>2026-07-15T09:28:56Z</time>
      </trkpt>
      <trkpt lat="42.87062" lon="-0.19244">
        <ele>2453.4</ele>
        <time>2026-07-15T09:28:57Z</time>
      </trkpt>
      <trkpt lat="42.87062" lon="-0.19245">
        <ele>2454.4</ele>
        <time>2026-07-15T09:28:58Z</time>
      </trkpt>
      <trkpt lat="42.87062" lon="-0.19244">
        <ele>2455.4</ele>
        <time>2026-07-15T09:28:59Z</time>
      </trkpt>
      <trkpt lat="42.87062" lon="-0.19244">
        <ele>2455.4</ele>
        <time>2026-07-15T09:29:00Z</time>
      </trkpt>
      <trkpt lat="42.87062" lon="-0.19244">
        <ele>2456.4</ele>
        <time>2026-07-15T09:29:01Z</time>
      </trkpt>
      <trkpt lat="42.87062" lon="-0.19244">
        <ele>2456.4</ele>
        <time>2026-07-15T09:29:02Z</time>
      </trkpt>
      <trkpt lat="42.87063" lon="-0.19245">
        <ele>2457.4</ele>
        <time>2026-07-15T09:29:03Z</time>
      </trkpt>
      <trkpt lat="42.87064" lon="-0.19244">
        <ele>2457.4</ele>
        <time>2026-07-15T09:29:04Z</time>
      </trkpt>
      <trkpt lat="42.87064" lon="-0.19245">
        <ele>2457.4</ele>
        <time>2026-07-15T09:29:05Z</time>
      </trkpt>
      <trkpt lat="42.87065" lon="-0.19244">
        <ele>2457.4</ele>
        <time>2026-07-15T09:29:06Z</time>
      </trkpt>
      <trkpt lat="42.87065" lon="-0.19244">
        <ele>2457.4</ele>
        <time>2026-07-15T09:29:07Z</time>
      </trkpt>
      <trkpt lat="42.87065" lon="-0.19243">
        <ele>2457.4</ele>
        <time>2026-07-15T09:29:08Z</time>
      </trkpt>
      <trkpt lat="42.87065" lon="-0.19242">
        <ele>2458.4</ele>
        <time>2026-07-15T09:29:09Z</time>
      </trkpt>
      <trkpt lat="42.87065" lon="-0.19242">
        <ele>2458.4</ele>
        <time>2026-07-15T09:29:10Z</time>
      </trkpt>
      <trkpt lat="42.87065" lon="-0.19242">
        <ele>2458.4</ele>
        <time>2026-07-15T09:29:11Z</time>
      </trkpt>
      <trkpt lat="42.87064" lon="-0.19241">
        <ele>2458.4</ele>
        <time>2026-07-15T09:29:12Z</time>
      </trkpt>
      <trkpt lat="42.87064" lon="-0.1924">
        <ele>2458.4</ele>
        <time>2026-07-15T09:29:13Z</time>
      </trkpt>
      <trkpt lat="42.87064" lon="-0.1924">
        <ele>2457.4</ele>
        <time>2026-07-15T09:29:14Z</time>
      </trkpt>
      <trkpt lat="42.87064" lon="-0.19239">
        <ele>2457.4</ele>
        <time>2026-07-15T09:29:15Z</time>
      </trkpt>
      <trkpt lat="42.87064" lon="-0.19239">
        <ele>2457.4</ele>
        <time>2026-07-15T09:29:16Z</time>
      </trkpt>
      <trkpt lat="42.87064" lon="-0.19239">
        <ele>2457.4</ele>
        <time>2026-07-15T09:29:17Z</time>
      </trkpt>
      <trkpt lat="42.87063" lon="-0.1924">
        <ele>2457.4</ele>
        <time>2026-07-15T09:29:18Z</time>
      </trkpt>
      <trkpt lat="42.87064" lon="-0.19239">
        <ele>2457.4</ele>
        <time>2026-07-15T09:29:19Z</time>
      </trkpt>
      <trkpt lat="42.87063" lon="-0.19239">
        <ele>2457.4</ele>
        <time>2026-07-15T09:29:20Z</time>
      </trkpt>
      <trkpt lat="42.87063" lon="-0.19239">
        <ele>2457.4</ele>
        <time>2026-07-15T09:29:21Z</time>
      </trkpt>
      <trkpt lat="42.87063" lon="-0.19239">
        <ele>2457.4</ele>
        <time>2026-07-15T09:29:22Z</time>
      </trkpt>
      <trkpt lat="42.87063" lon="-0.19239">
        <ele>2458.4</ele>
        <time>2026-07-15T09:29:23Z</time>
      </trkpt>
      <trkpt lat="42.87063" lon="-0.19239">
        <ele>2458.4</ele>
        <time>2026-07-15T09:29:24Z</time>
      </trkpt>
      <trkpt lat="42.87062" lon="-0.19239">
        <ele>2459.4</ele>
        <time>2026-07-15T09:29:25Z</time>
      </trkpt>
      <trkpt lat="42.87062" lon="-0.19239">
        <ele>2459.4</ele>
        <time>2026-07-15T09:29:26Z</time>
      </trkpt>
      <trkpt lat="42.87062" lon="-0.19239">
        <ele>2459.4</ele>
        <time>2026-07-15T09:29:27Z</time>
      </trkpt>
      <trkpt lat="42.87061" lon="-0.1924">
        <ele>2458.4</ele>
        <time>2026-07-15T09:29:28Z</time>
      </trkpt>
      <trkpt lat="42.8706" lon="-0.1924">
        <ele>2458.4</ele>
        <time>2026-07-15T09:29:29Z</time>
      </trkpt>
      <trkpt lat="42.8706" lon="-0.1924">
        <ele>2458.4</ele>
        <time>2026-07-15T09:29:30Z</time>
      </trkpt>
      <trkpt lat="42.8706" lon="-0.1924">
        <ele>2458.4</ele>
        <time>2026-07-15T09:29:31Z</time>
      </trkpt>
      <trkpt lat="42.8706" lon="-0.19239">
        <ele>2458.4</ele>
        <time>2026-07-15T09:29:32Z</time>
      </trkpt>
      <trkpt lat="42.8706" lon="-0.19239">
        <ele>2458.4</ele>
        <time>2026-07-15T09:29:33Z</time>
      </trkpt>
      <trkpt lat="42.8706" lon="-0.19237">
        <ele>2458.4</ele>
        <time>2026-07-15T09:29:34Z</time>
      </trkpt>
      <trkpt lat="42.87061" lon="-0.19236">
        <ele>2457.4</ele>
        <time>2026-07-15T09:29:35Z</time>
      </trkpt>
      <trkpt lat="42.87061" lon="-0.19235">
        <ele>2458.4</ele>
        <time>2026-07-15T09:29:36Z</time>
      </trkpt>
      <trkpt lat="42.87061" lon="-0.19234">
        <ele>2457.4</ele>
        <time>2026-07-15T09:29:37Z</time>
      </trkpt>
      <trkpt lat="42.87061" lon="-0.19232">
        <ele>2457.4</ele>
        <time>2026-07-15T09:29:38Z</time>
      </trkpt>
      <trkpt lat="42.87062" lon="-0.19233">
        <ele>2457.4</ele>
        <time>2026-07-15T09:29:39Z</time>
      </trkpt>
      <trkpt lat="42.87062" lon="-0.19233">
        <ele>2458.4</ele>
        <time>2026-07-15T09:29:40Z</time>
      </trkpt>
      <trkpt lat="42.87062" lon="-0.19233">
        <ele>2458.4</ele>
        <time>2026-07-15T09:29:41Z</time>
      </trkpt>
      <trkpt lat="42.87062" lon="-0.19233">
        <ele>2458.4</ele>
        <time>2026-07-15T09:29:42Z</time>
      </trkpt>
      <trkpt lat="42.87062" lon="-0.19233">
        <ele>2458.4</ele>
        <time>2026-07-15T09:29:43Z</time>
      </trkpt>
      <trkpt lat="42.87062" lon="-0.19233">
        <ele>2458.4</ele>
        <time>2026-07-15T09:29:44Z</time>
      </trkpt>
      <trkpt lat="42.87062" lon="-0.19233">
        <ele>2458.4</ele>
        <time>2026-07-15T09:29:45Z</time>
      </trkpt>
      <trkpt lat="42.87062" lon="-0.19233">
        <ele>2458.4</ele>
        <time>2026-07-15T09:29:46Z</time>
      </trkpt>
      <trkpt lat="42.87062" lon="-0.19233">
        <ele>2458.4</ele>
        <time>2026-07-15T09:29:47Z</time>
      </trkpt>
      <trkpt lat="42.87062" lon="-0.19233">
        <ele>2458.4</ele>
        <time>2026-07-15T09:29:48Z</time>
      </trkpt>
      <trkpt lat="42.87062" lon="-0.19233">
        <ele>2458.4</ele>
        <time>2026-07-15T09:29:49Z</time>
      </trkpt>
      <trkpt lat="42.87062" lon="-0.19232">
        <ele>2460.4</ele>
        <time>2026-07-15T09:29:50Z</time>
      </trkpt>
      <trkpt lat="42.87061" lon="-0.19231">
        <ele>2460.4</ele>
        <time>2026-07-15T09:29:51Z</time>
      </trkpt>
      <trkpt lat="42.87061" lon="-0.19232">
        <ele>2460.4</ele>
        <time>2026-07-15T09:29:52Z</time>
      </trkpt>
      <trkpt lat="42.87061" lon="-0.19233">
        <ele>2460.4</ele>
        <time>2026-07-15T09:29:53Z</time>
      </trkpt>
      <trkpt lat="42.87061" lon="-0.19233">
        <ele>2459.4</ele>
        <time>2026-07-15T09:29:54Z</time>
      </trkpt>
      <trkpt lat="42.8706" lon="-0.19234">
        <ele>2460.4</ele>
        <time>2026-07-15T09:29:55Z</time>
      </trkpt>
      <trkpt lat="42.8706" lon="-0.19233">
        <ele>2461.4</ele>
        <time>2026-07-15T09:29:56Z</time>
      </trkpt>
      <trkpt lat="42.8706" lon="-0.19233">
        <ele>2461.4</ele>
        <time>2026-07-15T09:29:57Z</time>
      </trkpt>
      <trkpt lat="42.87059" lon="-0.19232">
        <ele>2461.4</ele>
        <time>2026-07-15T09:29:58Z</time>
      </trkpt>
      <trkpt lat="42.87059" lon="-0.19232">
        <ele>2461.4</ele>
        <time>2026-07-15T09:29:59Z</time>
      </trkpt>
      <trkpt lat="42.87059" lon="-0.19232">
        <ele>2461.4</ele>
        <time>2026-07-15T09:30:00Z</time>
      </trkpt>
      <trkpt lat="42.87059" lon="-0.19232">
        <ele>2461.4</ele>
        <time>2026-07-15T09:30:01Z</time>
      </trkpt>
      <trkpt lat="42.87058" lon="-0.19231">
        <ele>2462.4</ele>
        <time>2026-07-15T09:30:02Z</time>
      </trkpt>
      <trkpt lat="42.87058" lon="-0.19232">
        <ele>2462.4</ele>
        <time>2026-07-15T09:30:03Z</time>
      </trkpt>
      <trkpt lat="42.87058" lon="-0.19233">
        <ele>2463.4</ele>
        <time>2026-07-15T09:30:04Z</time>
      </trkpt>
      <trkpt lat="42.87057" lon="-0.19233">
        <ele>2463.4</ele>
        <time>2026-07-15T09:30:05Z</time>
      </trkpt>
      <trkpt lat="42.87057" lon="-0.19232">
        <ele>2462.4</ele>
        <time>2026-07-15T09:30:06Z</time>
      </trkpt>
      <trkpt lat="42.87056" lon="-0.19231">
        <ele>2462.4</ele>
        <time>2026-07-15T09:30:07Z</time>
      </trkpt>
      <trkpt lat="42.87056" lon="-0.19231">
        <ele>2461.4</ele>
        <time>2026-07-15T09:30:08Z</time>
      </trkpt>
      <trkpt lat="42.87057" lon="-0.1923">
        <ele>2462.4</ele>
        <time>2026-07-15T09:30:09Z</time>
      </trkpt>
      <trkpt lat="42.87057" lon="-0.19229">
        <ele>2462.4</ele>
        <time>2026-07-15T09:30:10Z</time>
      </trkpt>
      <trkpt lat="42.87057" lon="-0.19228">
        <ele>2463.4</ele>
        <time>2026-07-15T09:30:11Z</time>
      </trkpt>
      <trkpt lat="42.87057" lon="-0.19228">
        <ele>2463.4</ele>
        <time>2026-07-15T09:30:12Z</time>
      </trkpt>
      <trkpt lat="42.87057" lon="-0.19228">
        <ele>2463.4</ele>
        <time>2026-07-15T09:30:13Z</time>
      </trkpt>
      <trkpt lat="42.87057" lon="-0.19228">
        <ele>2463.4</ele>
        <time>2026-07-15T09:30:14Z</time>
      </trkpt>
      <trkpt lat="42.87057" lon="-0.19228">
        <ele>2463.4</ele>
        <time>2026-07-15T09:30:15Z</time>
      </trkpt>
      <trkpt lat="42.87057" lon="-0.19228">
        <ele>2463.4</ele>
        <time>2026-07-15T09:30:16Z</time>
      </trkpt>
      <trkpt lat="42.87057" lon="-0.19227">
        <ele>2464.4</ele>
        <time>2026-07-15T09:30:17Z</time>
      </trkpt>
      <trkpt lat="42.87056" lon="-0.19226">
        <ele>2464.4</ele>
        <time>2026-07-15T09:30:18Z</time>
      </trkpt>
      <trkpt lat="42.87056" lon="-0.19225">
        <ele>2464.4</ele>
        <time>2026-07-15T09:30:19Z</time>
      </trkpt>
      <trkpt lat="42.87056" lon="-0.19226">
        <ele>2464.4</ele>
        <time>2026-07-15T09:30:20Z</time>
      </trkpt>
      <trkpt lat="42.87055" lon="-0.19227">
        <ele>2463.4</ele>
        <time>2026-07-15T09:30:21Z</time>
      </trkpt>
      <trkpt lat="42.87055" lon="-0.19227">
        <ele>2463.4</ele>
        <time>2026-07-15T09:30:22Z</time>
      </trkpt>
      <trkpt lat="42.87053" lon="-0.19228">
        <ele>2463.4</ele>
        <time>2026-07-15T09:30:23Z</time>
      </trkpt>
      <trkpt lat="42.87052" lon="-0.19227">
        <ele>2465.4</ele>
        <time>2026-07-15T09:30:24Z</time>
      </trkpt>
      <trkpt lat="42.87053" lon="-0.19226">
        <ele>2466.4</ele>
        <time>2026-07-15T09:30:25Z</time>
      </trkpt>
      <trkpt lat="42.87054" lon="-0.19225">
        <ele>2466.4</ele>
        <time>2026-07-15T09:30:26Z</time>
      </trkpt>
      <trkpt lat="42.87053" lon="-0.19225">
        <ele>2466.4</ele>
        <time>2026-07-15T09:30:27Z</time>
      </trkpt>
      <trkpt lat="42.87054" lon="-0.19225">
        <ele>2466.4</ele>
        <time>2026-07-15T09:30:28Z</time>
      </trkpt>
      <trkpt lat="42.87054" lon="-0.19226">
        <ele>2466.4</ele>
        <time>2026-07-15T09:30:29Z</time>
      </trkpt>
      <trkpt lat="42.87054" lon="-0.19226">
        <ele>2467.4</ele>
        <time>2026-07-15T09:30:30Z</time>
      </trkpt>
      <trkpt lat="42.87053" lon="-0.19227">
        <ele>2467.4</ele>
        <time>2026-07-15T09:30:31Z</time>
      </trkpt>
      <trkpt lat="42.87053" lon="-0.19226">
        <ele>2466.4</ele>
        <time>2026-07-15T09:30:32Z</time>
      </trkpt>
      <trkpt lat="42.87053" lon="-0.19226">
        <ele>2467.4</ele>
        <time>2026-07-15T09:30:33Z</time>
      </trkpt>
      <trkpt lat="42.87052" lon="-0.19225">
        <ele>2466.4</ele>
        <time>2026-07-15T09:30:34Z</time>
      </trkpt>
      <trkpt lat="42.87053" lon="-0.19225">
        <ele>2465.4</ele>
        <time>2026-07-15T09:30:35Z</time>
      </trkpt>
      <trkpt lat="42.87053" lon="-0.19225">
        <ele>2466.4</ele>
        <time>2026-07-15T09:30:36Z</time>
      </trkpt>
      <trkpt lat="42.87053" lon="-0.19225">
        <ele>2465.4</ele>
        <time>2026-07-15T09:30:37Z</time>
      </trkpt>
      <trkpt lat="42.87054" lon="-0.19224">
        <ele>2465.4</ele>
        <time>2026-07-15T09:30:38Z</time>
      </trkpt>
      <trkpt lat="42.87054" lon="-0.19224">
        <ele>2466.4</ele>
        <time>2026-07-15T09:30:39Z</time>
      </trkpt>
      <trkpt lat="42.87054" lon="-0.19224">
        <ele>2466.4</ele>
        <time>2026-07-15T09:30:40Z</time>
      </trkpt>
      <trkpt lat="42.87054" lon="-0.19225">
        <ele>2466.4</ele>
        <time>2026-07-15T09:30:41Z</time>
      </trkpt>
      <trkpt lat="42.87054" lon="-0.19224">
        <ele>2466.4</ele>
        <time>2026-07-15T09:30:42Z</time>
      </trkpt>
      <trkpt lat="42.87054" lon="-0.19222">
        <ele>2466.4</ele>
        <time>2026-07-15T09:30:43Z</time>
      </trkpt>
      <trkpt lat="42.87054" lon="-0.19223">
        <ele>2466.4</ele>
        <time>2026-07-15T09:30:44Z</time>
      </trkpt>
      <trkpt lat="42.87053" lon="-0.19223">
        <ele>2465.4</ele>
        <time>2026-07-15T09:30:45Z</time>
      </trkpt>
      <trkpt lat="42.87053" lon="-0.19223">
        <ele>2464.4</ele>
        <time>2026-07-15T09:30:46Z</time>
      </trkpt>
      <trkpt lat="42.87053" lon="-0.19223">
        <ele>2465.4</ele>
        <time>2026-07-15T09:30:47Z</time>
      </trkpt>
      <trkpt lat="42.87053" lon="-0.19223">
        <ele>2465.4</ele>
        <time>2026-07-15T09:30:48Z</time>
      </trkpt>
      <trkpt lat="42.87053" lon="-0.19222">
        <ele>2465.4</ele>
        <time>2026-07-15T09:30:49Z</time>
      </trkpt>
      <trkpt lat="42.87052" lon="-0.19221">
        <ele>2465.4</ele>
        <time>2026-07-15T09:30:50Z</time>
      </trkpt>
      <trkpt lat="42.87053" lon="-0.19221">
        <ele>2465.4</ele>
        <time>2026-07-15T09:30:51Z</time>
      </trkpt>
      <trkpt lat="42.87053" lon="-0.19221">
        <ele>2464.4</ele>
        <time>2026-07-15T09:30:52Z</time>
      </trkpt>
      <trkpt lat="42.87053" lon="-0.19221">
        <ele>2464.4</ele>
        <time>2026-07-15T09:30:53Z</time>
      </trkpt>
      <trkpt lat="42.87054" lon="-0.19221">
        <ele>2464.4</ele>
        <time>2026-07-15T09:30:54Z</time>
      </trkpt>
      <trkpt lat="42.87054" lon="-0.19221">
        <ele>2464.4</ele>
        <time>2026-07-15T09:30:55Z</time>
      </trkpt>
      <trkpt lat="42.87054" lon="-0.19221">
        <ele>2464.4</ele>
        <time>2026-07-15T09:30:56Z</time>
      </trkpt>
      <trkpt lat="42.87054" lon="-0.19221">
        <ele>2464.4</ele>
        <time>2026-07-15T09:30:57Z</time>
      </trkpt>
      <trkpt lat="42.87054" lon="-0.19221">
        <ele>2464.4</ele>
        <time>2026-07-15T09:30:58Z</time>
      </trkpt>
      <trkpt lat="42.87054" lon="-0.19221">
        <ele>2466.4</ele>
        <time>2026-07-15T09:30:59Z</time>
      </trkpt>
      <trkpt lat="42.87054" lon="-0.1922">
        <ele>2466.4</ele>
        <time>2026-07-15T09:31:00Z</time>
      </trkpt>
      <trkpt lat="42.87054" lon="-0.1922">
        <ele>2467.4</ele>
        <time>2026-07-15T09:31:01Z</time>
      </trkpt>
      <trkpt lat="42.87054" lon="-0.1922">
        <ele>2467.4</ele>
        <time>2026-07-15T09:31:02Z</time>
      </trkpt>
      <trkpt lat="42.87054" lon="-0.1922">
        <ele>2467.4</ele>
        <time>2026-07-15T09:31:03Z</time>
      </trkpt>
      <trkpt lat="42.87054" lon="-0.1922">
        <ele>2467.4</ele>
        <time>2026-07-15T09:31:04Z</time>
      </trkpt>
      <trkpt lat="42.87054" lon="-0.1922">
        <ele>2467.4</ele>
        <time>2026-07-15T09:31:05Z</time>
      </trkpt>
      <trkpt lat="42.87054" lon="-0.1922">
        <ele>2467.4</ele>
        <time>2026-07-15T09:31:06Z</time>
      </trkpt>
      <trkpt lat="42.87054" lon="-0.1922">
        <ele>2467.4</ele>
        <time>2026-07-15T09:31:07Z</time>
      </trkpt>
      <trkpt lat="42.87054" lon="-0.1922">
        <ele>2467.4</ele>
        <time>2026-07-15T09:31:08Z</time>
      </trkpt>
      <trkpt lat="42.87054" lon="-0.1922">
        <ele>2467.4</ele>
        <time>2026-07-15T09:31:09Z</time>
      </trkpt>
      <trkpt lat="42.87054" lon="-0.1922">
        <ele>2467.4</ele>
        <time>2026-07-15T09:31:10Z</time>
      </trkpt>
      <trkpt lat="42.87054" lon="-0.1922">
        <ele>2467.4</ele>
        <time>2026-07-15T09:31:11Z</time>
      </trkpt>
      <trkpt lat="42.87054" lon="-0.19219">
        <ele>2468.4</ele>
        <time>2026-07-15T09:31:12Z</time>
      </trkpt>
      <trkpt lat="42.87054" lon="-0.19218">
        <ele>2468.4</ele>
        <time>2026-07-15T09:31:13Z</time>
      </trkpt>
      <trkpt lat="42.87055" lon="-0.19217">
        <ele>2468.4</ele>
        <time>2026-07-15T09:31:14Z</time>
      </trkpt>
      <trkpt lat="42.87055" lon="-0.19217">
        <ele>2468.4</ele>
        <time>2026-07-15T09:31:15Z</time>
      </trkpt>
      <trkpt lat="42.87054" lon="-0.19218">
        <ele>2468.4</ele>
        <time>2026-07-15T09:31:16Z</time>
      </trkpt>
      <trkpt lat="42.87055" lon="-0.19217">
        <ele>2469.4</ele>
        <time>2026-07-15T09:31:17Z</time>
      </trkpt>
      <trkpt lat="42.87055" lon="-0.19217">
        <ele>2470.4</ele>
        <time>2026-07-15T09:31:18Z</time>
      </trkpt>
      <trkpt lat="42.87055" lon="-0.19217">
        <ele>2470.4</ele>
        <time>2026-07-15T09:31:19Z</time>
      </trkpt>
      <trkpt lat="42.87055" lon="-0.19217">
        <ele>2470.4</ele>
        <time>2026-07-15T09:31:20Z</time>
      </trkpt>
      <trkpt lat="42.87054" lon="-0.19216">
        <ele>2471.4</ele>
        <time>2026-07-15T09:31:21Z</time>
      </trkpt>
      <trkpt lat="42.87054" lon="-0.19216">
        <ele>2472.4</ele>
        <time>2026-07-15T09:31:22Z</time>
      </trkpt>
      <trkpt lat="42.87054" lon="-0.19216">
        <ele>2473.4</ele>
        <time>2026-07-15T09:31:23Z</time>
      </trkpt>
      <trkpt lat="42.87053" lon="-0.19215">
        <ele>2474.4</ele>
        <time>2026-07-15T09:31:24Z</time>
      </trkpt>
      <trkpt lat="42.87052" lon="-0.19214">
        <ele>2474.4</ele>
        <time>2026-07-15T09:31:25Z</time>
      </trkpt>
      <trkpt lat="42.87052" lon="-0.19214">
        <ele>2473.4</ele>
        <time>2026-07-15T09:31:26Z</time>
      </trkpt>
      <trkpt lat="42.87051" lon="-0.19215">
        <ele>2473.4</ele>
        <time>2026-07-15T09:31:27Z</time>
      </trkpt>
      <trkpt lat="42.87051" lon="-0.19215">
        <ele>2473.4</ele>
        <time>2026-07-15T09:31:28Z</time>
      </trkpt>
      <trkpt lat="42.87051" lon="-0.19215">
        <ele>2474.4</ele>
        <time>2026-07-15T09:31:29Z</time>
      </trkpt>
      <trkpt lat="42.87051" lon="-0.19214">
        <ele>2474.4</ele>
        <time>2026-07-15T09:31:30Z</time>
      </trkpt>
      <trkpt lat="42.8705" lon="-0.19214">
        <ele>2474.4</ele>
        <time>2026-07-15T09:31:31Z</time>
      </trkpt>
      <trkpt lat="42.8705" lon="-0.19214">
        <ele>2474.4</ele>
        <time>2026-07-15T09:31:32Z</time>
      </trkpt>
      <trkpt lat="42.8705" lon="-0.19215">
        <ele>2475.4</ele>
        <time>2026-07-15T09:31:33Z</time>
      </trkpt>
      <trkpt lat="42.8705" lon="-0.19216">
        <ele>2475.4</ele>
        <time>2026-07-15T09:31:34Z</time>
      </trkpt>
      <trkpt lat="42.8705" lon="-0.19216">
        <ele>2474.4</ele>
        <time>2026-07-15T09:31:35Z</time>
      </trkpt>
      <trkpt lat="42.87049" lon="-0.19216">
        <ele>2475.4</ele>
        <time>2026-07-15T09:31:36Z</time>
      </trkpt>
      <trkpt lat="42.87049" lon="-0.19216">
        <ele>2475.4</ele>
        <time>2026-07-15T09:31:37Z</time>
      </trkpt>
      <trkpt lat="42.87049" lon="-0.19216">
        <ele>2475.4</ele>
        <time>2026-07-15T09:31:38Z</time>
      </trkpt>
      <trkpt lat="42.87049" lon="-0.19216">
        <ele>2475.4</ele>
        <time>2026-07-15T09:31:39Z</time>
      </trkpt>
      <trkpt lat="42.87049" lon="-0.19216">
        <ele>2475.4</ele>
        <time>2026-07-15T09:31:40Z</time>
      </trkpt>
      <trkpt lat="42.87049" lon="-0.19216">
        <ele>2475.4</ele>
        <time>2026-07-15T09:31:41Z</time>
      </trkpt>
      <trkpt lat="42.87049" lon="-0.19216">
        <ele>2475.4</ele>
        <time>2026-07-15T09:31:42Z</time>
      </trkpt>
      <trkpt lat="42.87049" lon="-0.19215">
        <ele>2475.4</ele>
        <time>2026-07-15T09:31:43Z</time>
      </trkpt>
      <trkpt lat="42.87048" lon="-0.19214">
        <ele>2475.4</ele>
        <time>2026-07-15T09:31:44Z</time>
      </trkpt>
      <trkpt lat="42.87049" lon="-0.19213">
        <ele>2475.4</ele>
        <time>2026-07-15T09:31:45Z</time>
      </trkpt>
      <trkpt lat="42.87048" lon="-0.19213">
        <ele>2475.4</ele>
        <time>2026-07-15T09:31:46Z</time>
      </trkpt>
      <trkpt lat="42.87048" lon="-0.19212">
        <ele>2475.4</ele>
        <time>2026-07-15T09:31:47Z</time>
      </trkpt>
      <trkpt lat="42.87047" lon="-0.19212">
        <ele>2475.4</ele>
        <time>2026-07-15T09:31:48Z</time>
      </trkpt>
      <trkpt lat="42.87047" lon="-0.19212">
        <ele>2475.4</ele>
        <time>2026-07-15T09:31:49Z</time>
      </trkpt>
      <trkpt lat="42.87046" lon="-0.19212">
        <ele>2475.4</ele>
        <time>2026-07-15T09:31:50Z</time>
      </trkpt>
      <trkpt lat="42.87046" lon="-0.19212">
        <ele>2476.4</ele>
        <time>2026-07-15T09:31:51Z</time>
      </trkpt>
      <trkpt lat="42.87046" lon="-0.19213">
        <ele>2476.4</ele>
        <time>2026-07-15T09:31:52Z</time>
      </trkpt>
      <trkpt lat="42.87046" lon="-0.19214">
        <ele>2476.4</ele>
        <time>2026-07-15T09:31:53Z</time>
      </trkpt>
      <trkpt lat="42.87046" lon="-0.19214">
        <ele>2476.4</ele>
        <time>2026-07-15T09:31:54Z</time>
      </trkpt>
      <trkpt lat="42.87045" lon="-0.19213">
        <ele>2476.4</ele>
        <time>2026-07-15T09:31:55Z</time>
      </trkpt>
      <trkpt lat="42.87044" lon="-0.19213">
        <ele>2476.4</ele>
        <time>2026-07-15T09:31:56Z</time>
      </trkpt>
      <trkpt lat="42.87044" lon="-0.19213">
        <ele>2476.4</ele>
        <time>2026-07-15T09:31:57Z</time>
      </trkpt>
      <trkpt lat="42.87043" lon="-0.19213">
        <ele>2476.4</ele>
        <time>2026-07-15T09:31:58Z</time>
      </trkpt>
      <trkpt lat="42.87043" lon="-0.19213">
        <ele>2476.4</ele>
        <time>2026-07-15T09:31:59Z</time>
      </trkpt>
      <trkpt lat="42.87042" lon="-0.19213">
        <ele>2476.4</ele>
        <time>2026-07-15T09:32:00Z</time>
      </trkpt>
      <trkpt lat="42.87042" lon="-0.19214">
        <ele>2476.4</ele>
        <time>2026-07-15T09:32:01Z</time>
      </trkpt>
      <trkpt lat="42.87042" lon="-0.19213">
        <ele>2476.4</ele>
        <time>2026-07-15T09:32:02Z</time>
      </trkpt>
      <trkpt lat="42.87041" lon="-0.19213">
        <ele>2476.4</ele>
        <time>2026-07-15T09:32:03Z</time>
      </trkpt>
      <trkpt lat="42.87041" lon="-0.19211">
        <ele>2476.4</ele>
        <time>2026-07-15T09:32:04Z</time>
      </trkpt>
      <trkpt lat="42.8704" lon="-0.19211">
        <ele>2476.4</ele>
        <time>2026-07-15T09:32:05Z</time>
      </trkpt>
      <trkpt lat="42.87041" lon="-0.19211">
        <ele>2476.4</ele>
        <time>2026-07-15T09:32:06Z</time>
      </trkpt>
      <trkpt lat="42.87041" lon="-0.1921">
        <ele>2476.4</ele>
        <time>2026-07-15T09:32:07Z</time>
      </trkpt>
      <trkpt lat="42.8704" lon="-0.1921">
        <ele>2476.4</ele>
        <time>2026-07-15T09:32:08Z</time>
      </trkpt>
      <trkpt lat="42.8704" lon="-0.1921">
        <ele>2476.4</ele>
        <time>2026-07-15T09:32:09Z</time>
      </trkpt>
      <trkpt lat="42.8704" lon="-0.1921">
        <ele>2476.4</ele>
        <time>2026-07-15T09:32:10Z</time>
      </trkpt>
      <trkpt lat="42.87039" lon="-0.1921">
        <ele>2477.4</ele>
        <time>2026-07-15T09:32:11Z</time>
      </trkpt>
      <trkpt lat="42.8704" lon="-0.19211">
        <ele>2478.4</ele>
        <time>2026-07-15T09:32:12Z</time>
      </trkpt>
      <trkpt lat="42.8704" lon="-0.19211">
        <ele>2478.4</ele>
        <time>2026-07-15T09:32:13Z</time>
      </trkpt>
      <trkpt lat="42.8704" lon="-0.19211">
        <ele>2478.4</ele>
        <time>2026-07-15T09:32:14Z</time>
      </trkpt>
      <trkpt lat="42.8704" lon="-0.19211">
        <ele>2478.4</ele>
        <time>2026-07-15T09:32:15Z</time>
      </trkpt>
      <trkpt lat="42.8704" lon="-0.19211">
        <ele>2478.4</ele>
        <time>2026-07-15T09:32:16Z</time>
      </trkpt>
      <trkpt lat="42.8704" lon="-0.19211">
        <ele>2478.4</ele>
        <time>2026-07-15T09:32:17Z</time>
      </trkpt>
      <trkpt lat="42.8704" lon="-0.19211">
        <ele>2478.4</ele>
        <time>2026-07-15T09:32:18Z</time>
      </trkpt>
      <trkpt lat="42.87039" lon="-0.19212">
        <ele>2478.4</ele>
        <time>2026-07-15T09:32:19Z</time>
      </trkpt>
      <trkpt lat="42.87039" lon="-0.19212">
        <ele>2478.4</ele>
        <time>2026-07-15T09:32:20Z</time>
      </trkpt>
      <trkpt lat="42.87039" lon="-0.19213">
        <ele>2478.4</ele>
        <time>2026-07-15T09:32:21Z</time>
      </trkpt>
      <trkpt lat="42.87039" lon="-0.19213">
        <ele>2478.4</ele>
        <time>2026-07-15T09:32:22Z</time>
      </trkpt>
      <trkpt lat="42.87039" lon="-0.19214">
        <ele>2478.4</ele>
        <time>2026-07-15T09:32:23Z</time>
      </trkpt>
      <trkpt lat="42.87039" lon="-0.19214">
        <ele>2478.4</ele>
        <time>2026-07-15T09:32:24Z</time>
      </trkpt>
      <trkpt lat="42.87038" lon="-0.19215">
        <ele>2478.4</ele>
        <time>2026-07-15T09:32:25Z</time>
      </trkpt>
      <trkpt lat="42.87038" lon="-0.19215">
        <ele>2478.4</ele>
        <time>2026-07-15T09:32:26Z</time>
      </trkpt>
      <trkpt lat="42.87038" lon="-0.19215">
        <ele>2478.4</ele>
        <time>2026-07-15T09:32:27Z</time>
      </trkpt>
      <trkpt lat="42.87037" lon="-0.19215">
        <ele>2478.4</ele>
        <time>2026-07-15T09:32:28Z</time>
      </trkpt>
      <trkpt lat="42.87036" lon="-0.19215">
        <ele>2478.4</ele>
        <time>2026-07-15T09:32:29Z</time>
      </trkpt>
      <trkpt lat="42.87036" lon="-0.19217">
        <ele>2480.4</ele>
        <time>2026-07-15T09:32:30Z</time>
      </trkpt>
      <trkpt lat="42.87036" lon="-0.19217">
        <ele>2480.4</ele>
        <time>2026-07-15T09:32:31Z</time>
      </trkpt>
      <trkpt lat="42.87036" lon="-0.19218">
        <ele>2479.4</ele>
        <time>2026-07-15T09:32:32Z</time>
      </trkpt>
      <trkpt lat="42.87036" lon="-0.19218">
        <ele>2479.4</ele>
        <time>2026-07-15T09:32:33Z</time>
      </trkpt>
      <trkpt lat="42.87036" lon="-0.19218">
        <ele>2479.4</ele>
        <time>2026-07-15T09:32:34Z</time>
      </trkpt>
      <trkpt lat="42.87036" lon="-0.19218">
        <ele>2479.4</ele>
        <time>2026-07-15T09:32:35Z</time>
      </trkpt>
      <trkpt lat="42.87036" lon="-0.19218">
        <ele>2479.4</ele>
        <time>2026-07-15T09:32:36Z</time>
      </trkpt>
      <trkpt lat="42.87037" lon="-0.19217">
        <ele>2479.4</ele>
        <time>2026-07-15T09:32:37Z</time>
      </trkpt>
      <trkpt lat="42.87036" lon="-0.19217">
        <ele>2479.4</ele>
        <time>2026-07-15T09:32:38Z</time>
      </trkpt>
      <trkpt lat="42.87036" lon="-0.19217">
        <ele>2479.4</ele>
        <time>2026-07-15T09:32:39Z</time>
      </trkpt>
      <trkpt lat="42.87036" lon="-0.19218">
        <ele>2479.4</ele>
        <time>2026-07-15T09:32:40Z</time>
      </trkpt>
      <trkpt lat="42.87036" lon="-0.19218">
        <ele>2479.4</ele>
        <time>2026-07-15T09:32:41Z</time>
      </trkpt>
      <trkpt lat="42.87036" lon="-0.19219">
        <ele>2480.4</ele>
        <time>2026-07-15T09:32:42Z</time>
      </trkpt>
      <trkpt lat="42.87036" lon="-0.19219">
        <ele>2480.4</ele>
        <time>2026-07-15T09:32:43Z</time>
      </trkpt>
      <trkpt lat="42.87035" lon="-0.19219">
        <ele>2480.4</ele>
        <time>2026-07-15T09:32:44Z</time>
      </trkpt>
      <trkpt lat="42.87035" lon="-0.19219">
        <ele>2480.4</ele>
        <time>2026-07-15T09:32:45Z</time>
      </trkpt>
      <trkpt lat="42.87035" lon="-0.19219">
        <ele>2480.4</ele>
        <time>2026-07-15T09:32:46Z</time>
      </trkpt>
      <trkpt lat="42.87035" lon="-0.19219">
        <ele>2480.4</ele>
        <time>2026-07-15T09:32:47Z</time>
      </trkpt>
      <trkpt lat="42.87035" lon="-0.19219">
        <ele>2480.4</ele>
        <time>2026-07-15T09:32:48Z</time>
      </trkpt>
      <trkpt lat="42.87035" lon="-0.19219">
        <ele>2480.4</ele>
        <time>2026-07-15T09:32:49Z</time>
      </trkpt>
      <trkpt lat="42.87035" lon="-0.19219">
        <ele>2480.4</ele>
        <time>2026-07-15T09:32:50Z</time>
      </trkpt>
      <trkpt lat="42.87035" lon="-0.19219">
        <ele>2480.4</ele>
        <time>2026-07-15T09:32:51Z</time>
      </trkpt>
      <trkpt lat="42.87035" lon="-0.19219">
        <ele>2480.4</ele>
        <time>2026-07-15T09:32:52Z</time>
      </trkpt>
      <trkpt lat="42.87035" lon="-0.19219">
        <ele>2480.4</ele>
        <time>2026-07-15T09:32:53Z</time>
      </trkpt>
      <trkpt lat="42.87035" lon="-0.19219">
        <ele>2480.4</ele>
        <time>2026-07-15T09:32:54Z</time>
      </trkpt>
      <trkpt lat="42.87035" lon="-0.19219">
        <ele>2480.4</ele>
        <time>2026-07-15T09:32:55Z</time>
      </trkpt>
      <trkpt lat="42.87035" lon="-0.19219">
        <ele>2480.4</ele>
        <time>2026-07-15T09:32:56Z</time>
      </trkpt>
      <trkpt lat="42.87035" lon="-0.19219">
        <ele>2480.4</ele>
        <time>2026-07-15T09:32:57Z</time>
      </trkpt>
      <trkpt lat="42.87035" lon="-0.19219">
        <ele>2480.4</ele>
        <time>2026-07-15T09:32:58Z</time>
      </trkpt>
      <trkpt lat="42.87035" lon="-0.19219">
        <ele>2480.4</ele>
        <time>2026-07-15T09:32:59Z</time>
      </trkpt>
      <trkpt lat="42.87035" lon="-0.19219">
        <ele>2480.4</ele>
        <time>2026-07-15T09:33:00Z</time>
      </trkpt>
      <trkpt lat="42.87035" lon="-0.19218">
        <ele>2481.4</ele>
        <time>2026-07-15T09:33:01Z</time>
      </trkpt>
      <trkpt lat="42.87035" lon="-0.19219">
        <ele>2481.4</ele>
        <time>2026-07-15T09:33:02Z</time>
      </trkpt>
      <trkpt lat="42.87035" lon="-0.19219">
        <ele>2482.4</ele>
        <time>2026-07-15T09:33:03Z</time>
      </trkpt>
      <trkpt lat="42.87035" lon="-0.19219">
        <ele>2482.4</ele>
        <time>2026-07-15T09:33:04Z</time>
      </trkpt>
      <trkpt lat="42.87036" lon="-0.19219">
        <ele>2482.4</ele>
        <time>2026-07-15T09:33:05Z</time>
      </trkpt>
      <trkpt lat="42.87036" lon="-0.19219">
        <ele>2482.4</ele>
        <time>2026-07-15T09:33:06Z</time>
      </trkpt>
      <trkpt lat="42.87036" lon="-0.19219">
        <ele>2482.4</ele>
        <time>2026-07-15T09:33:07Z</time>
      </trkpt>
      <trkpt lat="42.87036" lon="-0.19219">
        <ele>2482.4</ele>
        <time>2026-07-15T09:33:08Z</time>
      </trkpt>
      <trkpt lat="42.87035" lon="-0.19219">
        <ele>2481.4</ele>
        <time>2026-07-15T09:33:09Z</time>
      </trkpt>
      <trkpt lat="42.87035" lon="-0.19219">
        <ele>2481.4</ele>
        <time>2026-07-15T09:33:10Z</time>
      </trkpt>
      <trkpt lat="42.87035" lon="-0.19219">
        <ele>2481.4</ele>
        <time>2026-07-15T09:33:11Z</time>
      </trkpt>
      <trkpt lat="42.87035" lon="-0.19219">
        <ele>2481.4</ele>
        <time>2026-07-15T09:33:12Z</time>
      </trkpt>
      <trkpt lat="42.87036" lon="-0.19219">
        <ele>2481.4</ele>
        <time>2026-07-15T09:33:13Z</time>
      </trkpt>
      <trkpt lat="42.87036" lon="-0.19218">
        <ele>2481.4</ele>
        <time>2026-07-15T09:33:14Z</time>
      </trkpt>
      <trkpt lat="42.87036" lon="-0.19218">
        <ele>2481.4</ele>
        <time>2026-07-15T09:33:15Z</time>
      </trkpt>
      <trkpt lat="42.87036" lon="-0.19218">
        <ele>2482.4</ele>
        <time>2026-07-15T09:33:16Z</time>
      </trkpt>
      <trkpt lat="42.87036" lon="-0.19218">
        <ele>2482.4</ele>
        <time>2026-07-15T09:33:17Z</time>
      </trkpt>
      <trkpt lat="42.87036" lon="-0.19217">
        <ele>2482.4</ele>
        <time>2026-07-15T09:33:18Z</time>
      </trkpt>
      <trkpt lat="42.87036" lon="-0.19216">
        <ele>2482.4</ele>
        <time>2026-07-15T09:33:19Z</time>
      </trkpt>
      <trkpt lat="42.87036" lon="-0.19216">
        <ele>2482.4</ele>
        <time>2026-07-15T09:33:20Z</time>
      </trkpt>
      <trkpt lat="42.87036" lon="-0.19216">
        <ele>2481.4</ele>
        <time>2026-07-15T09:33:21Z</time>
      </trkpt>
      <trkpt lat="42.87036" lon="-0.19216">
        <ele>2481.4</ele>
        <time>2026-07-15T09:33:22Z</time>
      </trkpt>
      <trkpt lat="42.87037" lon="-0.19215">
        <ele>2482.4</ele>
        <time>2026-07-15T09:33:23Z</time>
      </trkpt>
      <trkpt lat="42.87037" lon="-0.19215">
        <ele>2482.4</ele>
        <time>2026-07-15T09:33:24Z</time>
      </trkpt>
      <trkpt lat="42.87038" lon="-0.19215">
        <ele>2482.4</ele>
        <time>2026-07-15T09:33:25Z</time>
      </trkpt>
      <trkpt lat="42.87037" lon="-0.19215">
        <ele>2482.4</ele>
        <time>2026-07-15T09:33:26Z</time>
      </trkpt>
      <trkpt lat="42.87036" lon="-0.19217">
        <ele>2482.4</ele>
        <time>2026-07-15T09:33:27Z</time>
      </trkpt>
      <trkpt lat="42.87037" lon="-0.19218">
        <ele>2482.4</ele>
        <time>2026-07-15T09:33:28Z</time>
      </trkpt>
      <trkpt lat="42.87037" lon="-0.19218">
        <ele>2482.4</ele>
        <time>2026-07-15T09:33:29Z</time>
      </trkpt>
      <trkpt lat="42.87037" lon="-0.19218">
        <ele>2482.4</ele>
        <time>2026-07-15T09:33:30Z</time>
      </trkpt>
      <trkpt lat="42.87037" lon="-0.19218">
        <ele>2482.4</ele>
        <time>2026-07-15T09:33:31Z</time>
      </trkpt>
      <trkpt lat="42.87037" lon="-0.19218">
        <ele>2482.4</ele>
        <time>2026-07-15T09:33:32Z</time>
      </trkpt>
      <trkpt lat="42.87037" lon="-0.19218">
        <ele>2482.4</ele>
        <time>2026-07-15T09:33:33Z</time>
      </trkpt>
      <trkpt lat="42.87037" lon="-0.19218">
        <ele>2482.4</ele>
        <time>2026-07-15T09:33:34Z</time>
      </trkpt>
      <trkpt lat="42.87037" lon="-0.19218">
        <ele>2482.4</ele>
        <time>2026-07-15T09:33:35Z</time>
      </trkpt>
      <trkpt lat="42.87037" lon="-0.19218">
        <ele>2482.4</ele>
        <time>2026-07-15T09:33:36Z</time>
      </trkpt>
      <trkpt lat="42.87037" lon="-0.19218">
        <ele>2482.4</ele>
        <time>2026-07-15T09:33:37Z</time>
      </trkpt>
      <trkpt lat="42.87038" lon="-0.19219">
        <ele>2483.4</ele>
        <time>2026-07-15T09:33:38Z</time>
      </trkpt>
      <trkpt lat="42.87038" lon="-0.19219">
        <ele>2483.4</ele>
        <time>2026-07-15T09:33:39Z</time>
      </trkpt>
      <trkpt lat="42.87038" lon="-0.19219">
        <ele>2483.4</ele>
        <time>2026-07-15T09:33:40Z</time>
      </trkpt>
      <trkpt lat="42.87038" lon="-0.19219">
        <ele>2484.4</ele>
        <time>2026-07-15T09:33:41Z</time>
      </trkpt>
      <trkpt lat="42.87038" lon="-0.19219">
        <ele>2484.4</ele>
        <time>2026-07-15T09:33:42Z</time>
      </trkpt>
      <trkpt lat="42.87038" lon="-0.19219">
        <ele>2484.4</ele>
        <time>2026-07-15T09:33:43Z</time>
      </trkpt>
      <trkpt lat="42.87038" lon="-0.19219">
        <ele>2484.4</ele>
        <time>2026-07-15T09:33:44Z</time>
      </trkpt>
      <trkpt lat="42.87038" lon="-0.19219">
        <ele>2484.4</ele>
        <time>2026-07-15T09:33:45Z</time>
      </trkpt>
      <trkpt lat="42.87038" lon="-0.19219">
        <ele>2484.4</ele>
        <time>2026-07-15T09:33:46Z</time>
      </trkpt>
      <trkpt lat="42.87038" lon="-0.19219">
        <ele>2484.4</ele>
        <time>2026-07-15T09:33:47Z</time>
      </trkpt>
      <trkpt lat="42.87038" lon="-0.19219">
        <ele>2484.4</ele>
        <time>2026-07-15T09:33:48Z</time>
      </trkpt>
      <trkpt lat="42.87038" lon="-0.19219">
        <ele>2484.4</ele>
        <time>2026-07-15T09:33:49Z</time>
      </trkpt>
      <trkpt lat="42.87038" lon="-0.19219">
        <ele>2484.4</ele>
        <time>2026-07-15T09:33:50Z</time>
      </trkpt>
      <trkpt lat="42.87038" lon="-0.19219">
        <ele>2484.4</ele>
        <time>2026-07-15T09:33:51Z</time>
      </trkpt>
      <trkpt lat="42.87038" lon="-0.19219">
        <ele>2484.4</ele>
        <time>2026-07-15T09:33:52Z</time>
      </trkpt>
      <trkpt lat="42.87038" lon="-0.19219">
        <ele>2484.4</ele>
        <time>2026-07-15T09:33:53Z</time>
      </trkpt>
      <trkpt lat="42.87038" lon="-0.19219">
        <ele>2484.4</ele>
        <time>2026-07-15T09:33:54Z</time>
      </trkpt>
      <trkpt lat="42.87038" lon="-0.19219">
        <ele>2482.4</ele>
        <time>2026-07-15T09:33:55Z</time>
      </trkpt>
      <trkpt lat="42.87037" lon="-0.1922">
        <ele>2481.4</ele>
        <time>2026-07-15T09:33:56Z</time>
      </trkpt>
      <trkpt lat="42.87037" lon="-0.1922">
        <ele>2482.4</ele>
        <time>2026-07-15T09:33:57Z</time>
      </trkpt>
      <trkpt lat="42.87037" lon="-0.1922">
        <ele>2483.4</ele>
        <time>2026-07-15T09:33:58Z</time>
      </trkpt>
      <trkpt lat="42.87036" lon="-0.1922">
        <ele>2483.4</ele>
        <time>2026-07-15T09:33:59Z</time>
      </trkpt>
      <trkpt lat="42.87037" lon="-0.19221">
        <ele>2483.4</ele>
        <time>2026-07-15T09:34:00Z</time>
      </trkpt>
      <trkpt lat="42.87037" lon="-0.19221">
        <ele>2483.4</ele>
        <time>2026-07-15T09:34:01Z</time>
      </trkpt>
      <trkpt lat="42.87037" lon="-0.19221">
        <ele>2483.4</ele>
        <time>2026-07-15T09:34:02Z</time>
      </trkpt>
      <trkpt lat="42.87037" lon="-0.19221">
        <ele>2483.4</ele>
        <time>2026-07-15T09:34:03Z</time>
      </trkpt>
      <trkpt lat="42.87037" lon="-0.19221">
        <ele>2483.4</ele>
        <time>2026-07-15T09:34:04Z</time>
      </trkpt>
      <trkpt lat="42.87037" lon="-0.19221">
        <ele>2483.4</ele>
        <time>2026-07-15T09:34:05Z</time>
      </trkpt>
      <trkpt lat="42.87037" lon="-0.19221">
        <ele>2483.4</ele>
        <time>2026-07-15T09:34:06Z</time>
      </trkpt>
      <trkpt lat="42.87037" lon="-0.19221">
        <ele>2483.4</ele>
        <time>2026-07-15T09:34:07Z</time>
      </trkpt>
      <trkpt lat="42.87037" lon="-0.19221">
        <ele>2483.4</ele>
        <time>2026-07-15T09:34:08Z</time>
      </trkpt>
      <trkpt lat="42.87037" lon="-0.19221">
        <ele>2483.4</ele>
        <time>2026-07-15T09:34:09Z</time>
      </trkpt>
      <trkpt lat="42.87037" lon="-0.19221">
        <ele>2483.4</ele>
        <time>2026-07-15T09:34:10Z</time>
      </trkpt>
      <trkpt lat="42.87037" lon="-0.19221">
        <ele>2483.4</ele>
        <time>2026-07-15T09:34:11Z</time>
      </trkpt>
      <trkpt lat="42.87037" lon="-0.19221">
        <ele>2483.4</ele>
        <time>2026-07-15T09:34:12Z</time>
      </trkpt>
      <trkpt lat="42.87037" lon="-0.19221">
        <ele>2483.4</ele>
        <time>2026-07-15T09:34:13Z</time>
      </trkpt>
      <trkpt lat="42.87037" lon="-0.19221">
        <ele>2483.4</ele>
        <time>2026-07-15T09:34:14Z</time>
      </trkpt>
      <trkpt lat="42.87037" lon="-0.19221">
        <ele>2483.4</ele>
        <time>2026-07-15T09:34:15Z</time>
      </trkpt>
      <trkpt lat="42.87038" lon="-0.19221">
        <ele>2483.4</ele>
        <time>2026-07-15T09:34:16Z</time>
      </trkpt>
      <trkpt lat="42.87037" lon="-0.19221">
        <ele>2483.4</ele>
        <time>2026-07-15T09:34:17Z</time>
      </trkpt>
      <trkpt lat="42.87038" lon="-0.19221">
        <ele>2482.4</ele>
        <time>2026-07-15T09:34:18Z</time>
      </trkpt>
      <trkpt lat="42.87038" lon="-0.19221">
        <ele>2482.4</ele>
        <time>2026-07-15T09:34:19Z</time>
      </trkpt>
      <trkpt lat="42.87038" lon="-0.19221">
        <ele>2483.4</ele>
        <time>2026-07-15T09:34:20Z</time>
      </trkpt>
      <trkpt lat="42.87038" lon="-0.19221">
        <ele>2483.4</ele>
        <time>2026-07-15T09:34:21Z</time>
      </trkpt>
      <trkpt lat="42.87038" lon="-0.19221">
        <ele>2483.4</ele>
        <time>2026-07-15T09:34:22Z</time>
      </trkpt>
      <trkpt lat="42.87039" lon="-0.19222">
        <ele>2483.4</ele>
        <time>2026-07-15T09:34:23Z</time>
      </trkpt>
      <trkpt lat="42.87039" lon="-0.19222">
        <ele>2483.4</ele>
        <time>2026-07-15T09:34:24Z</time>
      </trkpt>
      <trkpt lat="42.87039" lon="-0.19222">
        <ele>2483.4</ele>
        <time>2026-07-15T09:34:25Z</time>
      </trkpt>
      <trkpt lat="42.87039" lon="-0.19222">
        <ele>2483.4</ele>
        <time>2026-07-15T09:34:26Z</time>
      </trkpt>
      <trkpt lat="42.87039" lon="-0.19222">
        <ele>2483.4</ele>
        <time>2026-07-15T09:34:27Z</time>
      </trkpt>
      <trkpt lat="42.87039" lon="-0.19222">
        <ele>2483.4</ele>
        <time>2026-07-15T09:34:28Z</time>
      </trkpt>
      <trkpt lat="42.87039" lon="-0.19222">
        <ele>2483.4</ele>
        <time>2026-07-15T09:34:29Z</time>
      </trkpt>
      <trkpt lat="42.87039" lon="-0.19222">
        <ele>2483.4</ele>
        <time>2026-07-15T09:34:30Z</time>
      </trkpt>
      <trkpt lat="42.87039" lon="-0.19222">
        <ele>2483.4</ele>
        <time>2026-07-15T09:34:31Z</time>
      </trkpt>
      <trkpt lat="42.87039" lon="-0.19222">
        <ele>2483.4</ele>
        <time>2026-07-15T09:34:32Z</time>
      </trkpt>
      <trkpt lat="42.87039" lon="-0.19222">
        <ele>2483.4</ele>
        <time>2026-07-15T09:34:33Z</time>
      </trkpt>
      <trkpt lat="42.87039" lon="-0.19222">
        <ele>2483.4</ele>
        <time>2026-07-15T09:34:34Z</time>
      </trkpt>
      <trkpt lat="42.87038" lon="-0.19222">
        <ele>2483.4</ele>
        <time>2026-07-15T09:34:35Z</time>
      </trkpt>
      <trkpt lat="42.87038" lon="-0.19222">
        <ele>2483.4</ele>
        <time>2026-07-15T09:34:36Z</time>
      </trkpt>
      <trkpt lat="42.87038" lon="-0.19222">
        <ele>2484.4</ele>
        <time>2026-07-15T09:34:37Z</time>
      </trkpt>
      <trkpt lat="42.87037" lon="-0.19222">
        <ele>2484.4</ele>
        <time>2026-07-15T09:34:38Z</time>
      </trkpt>
      <trkpt lat="42.87037" lon="-0.19221">
        <ele>2482.4</ele>
        <time>2026-07-15T09:34:39Z</time>
      </trkpt>
      <trkpt lat="42.87037" lon="-0.1922">
        <ele>2483.4</ele>
        <time>2026-07-15T09:34:40Z</time>
      </trkpt>
      <trkpt lat="42.87036" lon="-0.19219">
        <ele>2482.4</ele>
        <time>2026-07-15T09:34:41Z</time>
      </trkpt>
      <trkpt lat="42.87036" lon="-0.19218">
        <ele>2482.4</ele>
        <time>2026-07-15T09:34:42Z</time>
      </trkpt>
      <trkpt lat="42.87036" lon="-0.19217">
        <ele>2481.4</ele>
        <time>2026-07-15T09:34:43Z</time>
      </trkpt>
      <trkpt lat="42.87036" lon="-0.19217">
        <ele>2481.4</ele>
        <time>2026-07-15T09:34:44Z</time>
      </trkpt>
      <trkpt lat="42.87036" lon="-0.19217">
        <ele>2481.4</ele>
        <time>2026-07-15T09:34:45Z</time>
      </trkpt>
      <trkpt lat="42.87036" lon="-0.19217">
        <ele>2481.4</ele>
        <time>2026-07-15T09:34:46Z</time>
      </trkpt>
      <trkpt lat="42.87036" lon="-0.19216">
        <ele>2481.4</ele>
        <time>2026-07-15T09:34:47Z</time>
      </trkpt>
      <trkpt lat="42.87036" lon="-0.19215">
        <ele>2481.4</ele>
        <time>2026-07-15T09:34:48Z</time>
      </trkpt>
      <trkpt lat="42.87037" lon="-0.19215">
        <ele>2481.4</ele>
        <time>2026-07-15T09:34:49Z</time>
      </trkpt>
      <trkpt lat="42.87037" lon="-0.19215">
        <ele>2481.4</ele>
        <time>2026-07-15T09:34:50Z</time>
      </trkpt>
      <trkpt lat="42.87037" lon="-0.19215">
        <ele>2481.4</ele>
        <time>2026-07-15T09:34:51Z</time>
      </trkpt>
      <trkpt lat="42.87037" lon="-0.19215">
        <ele>2481.4</ele>
        <time>2026-07-15T09:34:52Z</time>
      </trkpt>
      <trkpt lat="42.87037" lon="-0.19215">
        <ele>2481.4</ele>
        <time>2026-07-15T09:34:53Z</time>
      </trkpt>
      <trkpt lat="42.87037" lon="-0.19215">
        <ele>2481.4</ele>
        <time>2026-07-15T09:34:54Z</time>
      </trkpt>
      <trkpt lat="42.87037" lon="-0.19215">
        <ele>2481.4</ele>
        <time>2026-07-15T09:34:55Z</time>
      </trkpt>
      <trkpt lat="42.87038" lon="-0.19214">
        <ele>2480.4</ele>
        <time>2026-07-15T09:34:56Z</time>
      </trkpt>
      <trkpt lat="42.87038" lon="-0.19213">
        <ele>2480.4</ele>
        <time>2026-07-15T09:34:57Z</time>
      </trkpt>
      <trkpt lat="42.87039" lon="-0.19213">
        <ele>2480.4</ele>
        <time>2026-07-15T09:34:58Z</time>
      </trkpt>
      <trkpt lat="42.87039" lon="-0.19214">
        <ele>2479.4</ele>
        <time>2026-07-15T09:34:59Z</time>
      </trkpt>
      <trkpt lat="42.87039" lon="-0.19215">
        <ele>2479.4</ele>
        <time>2026-07-15T09:35:00Z</time>
      </trkpt>
      <trkpt lat="42.87038" lon="-0.19214">
        <ele>2478.4</ele>
        <time>2026-07-15T09:35:01Z</time>
      </trkpt>
      <trkpt lat="42.87039" lon="-0.19214">
        <ele>2479.4</ele>
        <time>2026-07-15T09:35:02Z</time>
      </trkpt>
      <trkpt lat="42.87039" lon="-0.19214">
        <ele>2478.4</ele>
        <time>2026-07-15T09:35:03Z</time>
      </trkpt>
      <trkpt lat="42.87038" lon="-0.19214">
        <ele>2478.4</ele>
        <time>2026-07-15T09:35:04Z</time>
      </trkpt>
      <trkpt lat="42.87038" lon="-0.19214">
        <ele>2477.4</ele>
        <time>2026-07-15T09:35:05Z</time>
      </trkpt>
      <trkpt lat="42.87038" lon="-0.19214">
        <ele>2477.4</ele>
        <time>2026-07-15T09:35:06Z</time>
      </trkpt>
      <trkpt lat="42.87037" lon="-0.19214">
        <ele>2476.4</ele>
        <time>2026-07-15T09:35:07Z</time>
      </trkpt>
      <trkpt lat="42.87037" lon="-0.19214">
        <ele>2475.4</ele>
        <time>2026-07-15T09:35:08Z</time>
      </trkpt>
      <trkpt lat="42.87037" lon="-0.19214">
        <ele>2475.4</ele>
        <time>2026-07-15T09:35:09Z</time>
      </trkpt>
      <trkpt lat="42.87036" lon="-0.19214">
        <ele>2475.4</ele>
        <time>2026-07-15T09:35:10Z</time>
      </trkpt>
      <trkpt lat="42.87035" lon="-0.19213">
        <ele>2474.4</ele>
        <time>2026-07-15T09:35:11Z</time>
      </trkpt>
      <trkpt lat="42.87035" lon="-0.19212">
        <ele>2474.4</ele>
        <time>2026-07-15T09:35:12Z</time>
      </trkpt>
      <trkpt lat="42.87035" lon="-0.19212">
        <ele>2475.4</ele>
        <time>2026-07-15T09:35:13Z</time>
      </trkpt>
      <trkpt lat="42.87036" lon="-0.19212">
        <ele>2475.4</ele>
        <time>2026-07-15T09:35:14Z</time>
      </trkpt>
      <trkpt lat="42.87035" lon="-0.19212">
        <ele>2475.4</ele>
        <time>2026-07-15T09:35:15Z</time>
      </trkpt>
      <trkpt lat="42.87036" lon="-0.19212">
        <ele>2475.4</ele>
        <time>2026-07-15T09:35:16Z</time>
      </trkpt>
      <trkpt lat="42.87036" lon="-0.19212">
        <ele>2475.4</ele>
        <time>2026-07-15T09:35:17Z</time>
      </trkpt>
      <trkpt lat="42.87036" lon="-0.19212">
        <ele>2475.4</ele>
        <time>2026-07-15T09:35:18Z</time>
      </trkpt>
      <trkpt lat="42.87036" lon="-0.19212">
        <ele>2475.4</ele>
        <time>2026-07-15T09:35:19Z</time>
      </trkpt>
      <trkpt lat="42.87036" lon="-0.19212">
        <ele>2475.4</ele>
        <time>2026-07-15T09:35:20Z</time>
      </trkpt>
      <trkpt lat="42.87036" lon="-0.19212">
        <ele>2475.4</ele>
        <time>2026-07-15T09:35:21Z</time>
      </trkpt>
      <trkpt lat="42.87036" lon="-0.19212">
        <ele>2475.4</ele>
        <time>2026-07-15T09:35:22Z</time>
      </trkpt>
      <trkpt lat="42.87036" lon="-0.19212">
        <ele>2475.4</ele>
        <time>2026-07-15T09:35:23Z</time>
      </trkpt>
      <trkpt lat="42.87036" lon="-0.19212">
        <ele>2475.4</ele>
        <time>2026-07-15T09:35:24Z</time>
      </trkpt>
      <trkpt lat="42.87036" lon="-0.19212">
        <ele>2475.4</ele>
        <time>2026-07-15T09:35:25Z</time>
      </trkpt>
      <trkpt lat="42.87036" lon="-0.19212">
        <ele>2475.4</ele>
        <time>2026-07-15T09:35:26Z</time>
      </trkpt>
      <trkpt lat="42.87036" lon="-0.19212">
        <ele>2475.4</ele>
        <time>2026-07-15T09:35:27Z</time>
      </trkpt>
      <trkpt lat="42.87036" lon="-0.19212">
        <ele>2475.4</ele>
        <time>2026-07-15T09:35:28Z</time>
      </trkpt>
      <trkpt lat="42.87036" lon="-0.19212">
        <ele>2475.4</ele>
        <time>2026-07-15T09:35:29Z</time>
      </trkpt>
      <trkpt lat="42.87036" lon="-0.19212">
        <ele>2475.4</ele>
        <time>2026-07-15T09:35:30Z</time>
      </trkpt>
      <trkpt lat="42.87036" lon="-0.19212">
        <ele>2475.4</ele>
        <time>2026-07-15T09:35:31Z</time>
      </trkpt>
      <trkpt lat="42.87036" lon="-0.19212">
        <ele>2475.4</ele>
        <time>2026-07-15T09:35:32Z</time>
      </trkpt>
      <trkpt lat="42.87036" lon="-0.19213">
        <ele>2476.4</ele>
        <time>2026-07-15T09:35:33Z</time>
      </trkpt>
      <trkpt lat="42.87036" lon="-0.19213">
        <ele>2477.4</ele>
        <time>2026-07-15T09:35:34Z</time>
      </trkpt>
      <trkpt lat="42.87036" lon="-0.19213">
        <ele>2478.4</ele>
        <time>2026-07-15T09:35:35Z</time>
      </trkpt>
      <trkpt lat="42.87036" lon="-0.19213">
        <ele>2478.4</ele>
        <time>2026-07-15T09:35:36Z</time>
      </trkpt>
      <trkpt lat="42.87036" lon="-0.19213">
        <ele>2478.4</ele>
        <time>2026-07-15T09:35:37Z</time>
      </trkpt>
      <trkpt lat="42.87036" lon="-0.19213">
        <ele>2478.4</ele>
        <time>2026-07-15T09:35:38Z</time>
      </trkpt>
      <trkpt lat="42.87036" lon="-0.19213">
        <ele>2478.4</ele>
        <time>2026-07-15T09:35:39Z</time>
      </trkpt>
      <trkpt lat="42.87036" lon="-0.19213">
        <ele>2478.4</ele>
        <time>2026-07-15T09:35:40Z</time>
      </trkpt>
      <trkpt lat="42.87036" lon="-0.19213">
        <ele>2478.4</ele>
        <time>2026-07-15T09:35:41Z</time>
      </trkpt>
      <trkpt lat="42.87036" lon="-0.19213">
        <ele>2478.4</ele>
        <time>2026-07-15T09:35:42Z</time>
      </trkpt>
      <trkpt lat="42.87037" lon="-0.19212">
        <ele>2478.4</ele>
        <time>2026-07-15T09:35:43Z</time>
      </trkpt>
      <trkpt lat="42.87037" lon="-0.19213">
        <ele>2477.4</ele>
        <time>2026-07-15T09:35:44Z</time>
      </trkpt>
      <trkpt lat="42.87037" lon="-0.19213">
        <ele>2477.4</ele>
        <time>2026-07-15T09:35:45Z</time>
      </trkpt>
      <trkpt lat="42.87037" lon="-0.19213">
        <ele>2477.4</ele>
        <time>2026-07-15T09:35:46Z</time>
      </trkpt>
      <trkpt lat="42.87037" lon="-0.19213">
        <ele>2477.4</ele>
        <time>2026-07-15T09:35:47Z</time>
      </trkpt>
      <trkpt lat="42.87037" lon="-0.19213">
        <ele>2477.4</ele>
        <time>2026-07-15T09:35:48Z</time>
      </trkpt>
      <trkpt lat="42.87037" lon="-0.19213">
        <ele>2477.4</ele>
        <time>2026-07-15T09:35:49Z</time>
      </trkpt>
      <trkpt lat="42.87037" lon="-0.19213">
        <ele>2477.4</ele>
        <time>2026-07-15T09:35:50Z</time>
      </trkpt>
      <trkpt lat="42.87037" lon="-0.19213">
        <ele>2477.4</ele>
        <time>2026-07-15T09:35:51Z</time>
      </trkpt>
      <trkpt lat="42.87037" lon="-0.19213">
        <ele>2477.4</ele>
        <time>2026-07-15T09:35:52Z</time>
      </trkpt>
      <trkpt lat="42.87037" lon="-0.19213">
        <ele>2477.4</ele>
        <time>2026-07-15T09:35:53Z</time>
      </trkpt>
      <trkpt lat="42.87037" lon="-0.19213">
        <ele>2477.4</ele>
        <time>2026-07-15T09:35:54Z</time>
      </trkpt>
      <trkpt lat="42.87037" lon="-0.19214">
        <ele>2476.4</ele>
        <time>2026-07-15T09:35:55Z</time>
      </trkpt>
      <trkpt lat="42.87037" lon="-0.19214">
        <ele>2476.4</ele>
        <time>2026-07-15T09:35:56Z</time>
      </trkpt>
      <trkpt lat="42.87037" lon="-0.19214">
        <ele>2475.4</ele>
        <time>2026-07-15T09:35:57Z</time>
      </trkpt>
      <trkpt lat="42.87037" lon="-0.19213">
        <ele>2475.4</ele>
        <time>2026-07-15T09:35:58Z</time>
      </trkpt>
      <trkpt lat="42.87037" lon="-0.19213">
        <ele>2475.4</ele>
        <time>2026-07-15T09:35:59Z</time>
      </trkpt>
      <trkpt lat="42.87038" lon="-0.19212">
        <ele>2475.4</ele>
        <time>2026-07-15T09:36:00Z</time>
      </trkpt>
      <trkpt lat="42.87038" lon="-0.19212">
        <ele>2476.4</ele>
        <time>2026-07-15T09:36:01Z</time>
      </trkpt>
      <trkpt lat="42.87037" lon="-0.19211">
        <ele>2476.4</ele>
        <time>2026-07-15T09:36:02Z</time>
      </trkpt>
      <trkpt lat="42.87037" lon="-0.19212">
        <ele>2476.4</ele>
        <time>2026-07-15T09:36:03Z</time>
      </trkpt>
      <trkpt lat="42.87037" lon="-0.19211">
        <ele>2476.4</ele>
        <time>2026-07-15T09:36:04Z</time>
      </trkpt>
      <trkpt lat="42.87036" lon="-0.1921">
        <ele>2475.4</ele>
        <time>2026-07-15T09:36:05Z</time>
      </trkpt>
      <trkpt lat="42.87036" lon="-0.1921">
        <ele>2476.4</ele>
        <time>2026-07-15T09:36:06Z</time>
      </trkpt>
      <trkpt lat="42.87036" lon="-0.1921">
        <ele>2476.4</ele>
        <time>2026-07-15T09:36:07Z</time>
      </trkpt>
      <trkpt lat="42.87036" lon="-0.1921">
        <ele>2476.4</ele>
        <time>2026-07-15T09:36:08Z</time>
      </trkpt>
      <trkpt lat="42.87036" lon="-0.19208">
        <ele>2476.4</ele>
        <time>2026-07-15T09:36:09Z</time>
      </trkpt>
      <trkpt lat="42.87036" lon="-0.19207">
        <ele>2477.4</ele>
        <time>2026-07-15T09:36:10Z</time>
      </trkpt>
      <trkpt lat="42.87037" lon="-0.19207">
        <ele>2477.4</ele>
        <time>2026-07-15T09:36:11Z</time>
      </trkpt>
      <trkpt lat="42.87038" lon="-0.19206">
        <ele>2476.4</ele>
        <time>2026-07-15T09:36:12Z</time>
      </trkpt>
      <trkpt lat="42.87038" lon="-0.19205">
        <ele>2476.4</ele>
        <time>2026-07-15T09:36:13Z</time>
      </trkpt>
      <trkpt lat="42.87039" lon="-0.19205">
        <ele>2476.4</ele>
        <time>2026-07-15T09:36:14Z</time>
      </trkpt>
      <trkpt lat="42.8704" lon="-0.19205">
        <ele>2477.4</ele>
        <time>2026-07-15T09:36:15Z</time>
      </trkpt>
      <trkpt lat="42.8704" lon="-0.19205">
        <ele>2477.4</ele>
        <time>2026-07-15T09:36:16Z</time>
      </trkpt>
      <trkpt lat="42.87039" lon="-0.19205">
        <ele>2478.4</ele>
        <time>2026-07-15T09:36:17Z</time>
      </trkpt>
      <trkpt lat="42.87039" lon="-0.19205">
        <ele>2478.4</ele>
        <time>2026-07-15T09:36:18Z</time>
      </trkpt>
      <trkpt lat="42.87039" lon="-0.19205">
        <ele>2478.4</ele>
        <time>2026-07-15T09:36:19Z</time>
      </trkpt>
      <trkpt lat="42.87039" lon="-0.19204">
        <ele>2477.4</ele>
        <time>2026-07-15T09:36:20Z</time>
      </trkpt>
      <trkpt lat="42.87039" lon="-0.19203">
        <ele>2478.4</ele>
        <time>2026-07-15T09:36:21Z</time>
      </trkpt>
      <trkpt lat="42.87039" lon="-0.19202">
        <ele>2478.4</ele>
        <time>2026-07-15T09:36:22Z</time>
      </trkpt>
      <trkpt lat="42.87039" lon="-0.19201">
        <ele>2478.4</ele>
        <time>2026-07-15T09:36:23Z</time>
      </trkpt>
      <trkpt lat="42.87039" lon="-0.19201">
        <ele>2478.4</ele>
        <time>2026-07-15T09:36:24Z</time>
      </trkpt>
      <trkpt lat="42.8704" lon="-0.19201">
        <ele>2478.4</ele>
        <time>2026-07-15T09:36:25Z</time>
      </trkpt>
      <trkpt lat="42.8704" lon="-0.19201">
        <ele>2478.4</ele>
        <time>2026-07-15T09:36:26Z</time>
      </trkpt>
      <trkpt lat="42.8704" lon="-0.19201">
        <ele>2479.4</ele>
        <time>2026-07-15T09:36:27Z</time>
      </trkpt>
      <trkpt lat="42.87039" lon="-0.19201">
        <ele>2479.4</ele>
        <time>2026-07-15T09:36:28Z</time>
      </trkpt>
      <trkpt lat="42.87039" lon="-0.19201">
        <ele>2479.4</ele>
        <time>2026-07-15T09:36:29Z</time>
      </trkpt>
      <trkpt lat="42.8704" lon="-0.19202">
        <ele>2479.4</ele>
        <time>2026-07-15T09:36:30Z</time>
      </trkpt>
      <trkpt lat="42.87041" lon="-0.19202">
        <ele>2479.4</ele>
        <time>2026-07-15T09:36:31Z</time>
      </trkpt>
      <trkpt lat="42.8704" lon="-0.19202">
        <ele>2479.4</ele>
        <time>2026-07-15T09:36:32Z</time>
      </trkpt>
      <trkpt lat="42.87041" lon="-0.19203">
        <ele>2479.4</ele>
        <time>2026-07-15T09:36:33Z</time>
      </trkpt>
      <trkpt lat="42.87043" lon="-0.19202">
        <ele>2480.4</ele>
        <time>2026-07-15T09:36:34Z</time>
      </trkpt>
      <trkpt lat="42.87043" lon="-0.19201">
        <ele>2483.4</ele>
        <time>2026-07-15T09:36:35Z</time>
      </trkpt>
      <trkpt lat="42.87044" lon="-0.192">
        <ele>2483.4</ele>
        <time>2026-07-15T09:36:36Z</time>
      </trkpt>
      <trkpt lat="42.87044" lon="-0.19199">
        <ele>2484.4</ele>
        <time>2026-07-15T09:36:37Z</time>
      </trkpt>
      <trkpt lat="42.87043" lon="-0.19198">
        <ele>2485.4</ele>
        <time>2026-07-15T09:36:38Z</time>
      </trkpt>
      <trkpt lat="42.87044" lon="-0.19198">
        <ele>2485.4</ele>
        <time>2026-07-15T09:36:39Z</time>
      </trkpt>
      <trkpt lat="42.87044" lon="-0.19198">
        <ele>2484.4</ele>
        <time>2026-07-15T09:36:40Z</time>
      </trkpt>
      <trkpt lat="42.87044" lon="-0.19198">
        <ele>2484.4</ele>
        <time>2026-07-15T09:36:41Z</time>
      </trkpt>
      <trkpt lat="42.87045" lon="-0.19198">
        <ele>2484.4</ele>
        <time>2026-07-15T09:36:42Z</time>
      </trkpt>
      <trkpt lat="42.87045" lon="-0.19198">
        <ele>2484.4</ele>
        <time>2026-07-15T09:36:43Z</time>
      </trkpt>
      <trkpt lat="42.87046" lon="-0.19198">
        <ele>2485.4</ele>
        <time>2026-07-15T09:36:44Z</time>
      </trkpt>
      <trkpt lat="42.87045" lon="-0.19196">
        <ele>2485.4</ele>
        <time>2026-07-15T09:36:45Z</time>
      </trkpt>
      <trkpt lat="42.87045" lon="-0.19196">
        <ele>2485.4</ele>
        <time>2026-07-15T09:36:46Z</time>
      </trkpt>
      <trkpt lat="42.87044" lon="-0.19194">
        <ele>2485.4</ele>
        <time>2026-07-15T09:36:47Z</time>
      </trkpt>
      <trkpt lat="42.87044" lon="-0.19194">
        <ele>2485.4</ele>
        <time>2026-07-15T09:36:48Z</time>
      </trkpt>
      <trkpt lat="42.87044" lon="-0.19194">
        <ele>2485.4</ele>
        <time>2026-07-15T09:36:49Z</time>
      </trkpt>
      <trkpt lat="42.87044" lon="-0.19194">
        <ele>2485.4</ele>
        <time>2026-07-15T09:36:50Z</time>
      </trkpt>
      <trkpt lat="42.87044" lon="-0.19194">
        <ele>2485.4</ele>
        <time>2026-07-15T09:36:51Z</time>
      </trkpt>
      <trkpt lat="42.87044" lon="-0.19194">
        <ele>2485.4</ele>
        <time>2026-07-15T09:36:52Z</time>
      </trkpt>
      <trkpt lat="42.87044" lon="-0.19194">
        <ele>2485.4</ele>
        <time>2026-07-15T09:36:53Z</time>
      </trkpt>
      <trkpt lat="42.87045" lon="-0.19195">
        <ele>2485.4</ele>
        <time>2026-07-15T09:36:54Z</time>
      </trkpt>
      <trkpt lat="42.87046" lon="-0.19195">
        <ele>2485.4</ele>
        <time>2026-07-15T09:36:55Z</time>
      </trkpt>
      <trkpt lat="42.87047" lon="-0.19195">
        <ele>2485.4</ele>
        <time>2026-07-15T09:36:56Z</time>
      </trkpt>
      <trkpt lat="42.87047" lon="-0.19195">
        <ele>2485.4</ele>
        <time>2026-07-15T09:36:57Z</time>
      </trkpt>
      <trkpt lat="42.87047" lon="-0.19194">
        <ele>2485.4</ele>
        <time>2026-07-15T09:36:58Z</time>
      </trkpt>
      <trkpt lat="42.87047" lon="-0.19194">
        <ele>2485.4</ele>
        <time>2026-07-15T09:36:59Z</time>
      </trkpt>
      <trkpt lat="42.87046" lon="-0.19192">
        <ele>2484.4</ele>
        <time>2026-07-15T09:37:00Z</time>
      </trkpt>
      <trkpt lat="42.87045" lon="-0.19192">
        <ele>2484.4</ele>
        <time>2026-07-15T09:37:01Z</time>
      </trkpt>
      <trkpt lat="42.87045" lon="-0.19192">
        <ele>2484.4</ele>
        <time>2026-07-15T09:37:02Z</time>
      </trkpt>
      <trkpt lat="42.87045" lon="-0.19192">
        <ele>2483.4</ele>
        <time>2026-07-15T09:37:03Z</time>
      </trkpt>
      <trkpt lat="42.87046" lon="-0.19191">
        <ele>2483.4</ele>
        <time>2026-07-15T09:37:04Z</time>
      </trkpt>
      <trkpt lat="42.87046" lon="-0.19191">
        <ele>2484.4</ele>
        <time>2026-07-15T09:37:05Z</time>
      </trkpt>
      <trkpt lat="42.87046" lon="-0.19191">
        <ele>2484.4</ele>
        <time>2026-07-15T09:37:06Z</time>
      </trkpt>
      <trkpt lat="42.87047" lon="-0.1919">
        <ele>2484.4</ele>
        <time>2026-07-15T09:37:07Z</time>
      </trkpt>
      <trkpt lat="42.87047" lon="-0.1919">
        <ele>2484.4</ele>
        <time>2026-07-15T09:37:08Z</time>
      </trkpt>
      <trkpt lat="42.87048" lon="-0.19189">
        <ele>2483.4</ele>
        <time>2026-07-15T09:37:09Z</time>
      </trkpt>
      <trkpt lat="42.87049" lon="-0.19189">
        <ele>2483.4</ele>
        <time>2026-07-15T09:37:10Z</time>
      </trkpt>
      <trkpt lat="42.87049" lon="-0.19189">
        <ele>2484.4</ele>
        <time>2026-07-15T09:37:11Z</time>
      </trkpt>
      <trkpt lat="42.87048" lon="-0.19188">
        <ele>2484.4</ele>
        <time>2026-07-15T09:37:12Z</time>
      </trkpt>
      <trkpt lat="42.87048" lon="-0.19187">
        <ele>2483.4</ele>
        <time>2026-07-15T09:37:13Z</time>
      </trkpt>
      <trkpt lat="42.87048" lon="-0.19187">
        <ele>2483.4</ele>
        <time>2026-07-15T09:37:14Z</time>
      </trkpt>
      <trkpt lat="42.87048" lon="-0.19187">
        <ele>2483.4</ele>
        <time>2026-07-15T09:37:15Z</time>
      </trkpt>
      <trkpt lat="42.87047" lon="-0.19187">
        <ele>2484.4</ele>
        <time>2026-07-15T09:37:16Z</time>
      </trkpt>
      <trkpt lat="42.87045" lon="-0.19186">
        <ele>2483.4</ele>
        <time>2026-07-15T09:37:17Z</time>
      </trkpt>
      <trkpt lat="42.87044" lon="-0.19184">
        <ele>2481.4</ele>
        <time>2026-07-15T09:37:18Z</time>
      </trkpt>
      <trkpt lat="42.87043" lon="-0.19183">
        <ele>2481.4</ele>
        <time>2026-07-15T09:37:19Z</time>
      </trkpt>
      <trkpt lat="42.87043" lon="-0.19183">
        <ele>2480.4</ele>
        <time>2026-07-15T09:37:20Z</time>
      </trkpt>
      <trkpt lat="42.87043" lon="-0.19183">
        <ele>2481.4</ele>
        <time>2026-07-15T09:37:21Z</time>
      </trkpt>
      <trkpt lat="42.87045" lon="-0.19182">
        <ele>2481.4</ele>
        <time>2026-07-15T09:37:22Z</time>
      </trkpt>
      <trkpt lat="42.87045" lon="-0.19182">
        <ele>2481.4</ele>
        <time>2026-07-15T09:37:23Z</time>
      </trkpt>
      <trkpt lat="42.87045" lon="-0.19182">
        <ele>2481.4</ele>
        <time>2026-07-15T09:37:24Z</time>
      </trkpt>
      <trkpt lat="42.87045" lon="-0.19182">
        <ele>2481.4</ele>
        <time>2026-07-15T09:37:25Z</time>
      </trkpt>
      <trkpt lat="42.87045" lon="-0.19182">
        <ele>2481.4</ele>
        <time>2026-07-15T09:37:26Z</time>
      </trkpt>
      <trkpt lat="42.87045" lon="-0.19182">
        <ele>2481.4</ele>
        <time>2026-07-15T09:37:27Z</time>
      </trkpt>
      <trkpt lat="42.87045" lon="-0.19182">
        <ele>2481.4</ele>
        <time>2026-07-15T09:37:28Z</time>
      </trkpt>
      <trkpt lat="42.87046" lon="-0.19182">
        <ele>2481.4</ele>
        <time>2026-07-15T09:37:29Z</time>
      </trkpt>
      <trkpt lat="42.87047" lon="-0.19181">
        <ele>2481.4</ele>
        <time>2026-07-15T09:37:30Z</time>
      </trkpt>
      <trkpt lat="42.87047" lon="-0.19181">
        <ele>2482.4</ele>
        <time>2026-07-15T09:37:31Z</time>
      </trkpt>
      <trkpt lat="42.87048" lon="-0.19181">
        <ele>2482.4</ele>
        <time>2026-07-15T09:37:32Z</time>
      </trkpt>
      <trkpt lat="42.87048" lon="-0.1918">
        <ele>2482.4</ele>
        <time>2026-07-15T09:37:33Z</time>
      </trkpt>
      <trkpt lat="42.87048" lon="-0.1918">
        <ele>2482.4</ele>
        <time>2026-07-15T09:37:34Z</time>
      </trkpt>
      <trkpt lat="42.87049" lon="-0.19179">
        <ele>2482.4</ele>
        <time>2026-07-15T09:37:35Z</time>
      </trkpt>
      <trkpt lat="42.87049" lon="-0.19178">
        <ele>2482.4</ele>
        <time>2026-07-15T09:37:36Z</time>
      </trkpt>
      <trkpt lat="42.87049" lon="-0.19178">
        <ele>2482.4</ele>
        <time>2026-07-15T09:37:37Z</time>
      </trkpt>
      <trkpt lat="42.87049" lon="-0.19178">
        <ele>2482.4</ele>
        <time>2026-07-15T09:37:38Z</time>
      </trkpt>
      <trkpt lat="42.87049" lon="-0.19178">
        <ele>2482.4</ele>
        <time>2026-07-15T09:37:39Z</time>
      </trkpt>
      <trkpt lat="42.87049" lon="-0.19178">
        <ele>2482.4</ele>
        <time>2026-07-15T09:37:40Z</time>
      </trkpt>
      <trkpt lat="42.87049" lon="-0.19178">
        <ele>2482.4</ele>
        <time>2026-07-15T09:37:41Z</time>
      </trkpt>
      <trkpt lat="42.87049" lon="-0.19178">
        <ele>2482.4</ele>
        <time>2026-07-15T09:37:42Z</time>
      </trkpt>
      <trkpt lat="42.87049" lon="-0.19178">
        <ele>2482.4</ele>
        <time>2026-07-15T09:37:43Z</time>
      </trkpt>
      <trkpt lat="42.87049" lon="-0.19178">
        <ele>2482.4</ele>
        <time>2026-07-15T09:37:44Z</time>
      </trkpt>
      <trkpt lat="42.87049" lon="-0.19178">
        <ele>2482.4</ele>
        <time>2026-07-15T09:37:45Z</time>
      </trkpt>
      <trkpt lat="42.87049" lon="-0.19178">
        <ele>2482.4</ele>
        <time>2026-07-15T09:37:46Z</time>
      </trkpt>
      <trkpt lat="42.87049" lon="-0.19178">
        <ele>2482.4</ele>
        <time>2026-07-15T09:37:47Z</time>
      </trkpt>
      <trkpt lat="42.87049" lon="-0.19178">
        <ele>2482.4</ele>
        <time>2026-07-15T09:37:48Z</time>
      </trkpt>
      <trkpt lat="42.87049" lon="-0.19178">
        <ele>2482.4</ele>
        <time>2026-07-15T09:37:49Z</time>
      </trkpt>
      <trkpt lat="42.87049" lon="-0.19178">
        <ele>2482.4</ele>
        <time>2026-07-15T09:37:50Z</time>
      </trkpt>
      <trkpt lat="42.87049" lon="-0.19178">
        <ele>2482.4</ele>
        <time>2026-07-15T09:37:51Z</time>
      </trkpt>
      <trkpt lat="42.87049" lon="-0.19178">
        <ele>2482.4</ele>
        <time>2026-07-15T09:37:52Z</time>
      </trkpt>
      <trkpt lat="42.87049" lon="-0.19178">
        <ele>2482.4</ele>
        <time>2026-07-15T09:37:53Z</time>
      </trkpt>
      <trkpt lat="42.87048" lon="-0.19178">
        <ele>2482.4</ele>
        <time>2026-07-15T09:37:54Z</time>
      </trkpt>
      <trkpt lat="42.87048" lon="-0.19178">
        <ele>2484.4</ele>
        <time>2026-07-15T09:37:55Z</time>
      </trkpt>
      <trkpt lat="42.87048" lon="-0.19178">
        <ele>2484.4</ele>
        <time>2026-07-15T09:37:56Z</time>
      </trkpt>
      <trkpt lat="42.87048" lon="-0.19178">
        <ele>2484.4</ele>
        <time>2026-07-15T09:37:57Z</time>
      </trkpt>
      <trkpt lat="42.87048" lon="-0.19177">
        <ele>2485.4</ele>
        <time>2026-07-15T09:37:58Z</time>
      </trkpt>
      <trkpt lat="42.87048" lon="-0.19177">
        <ele>2485.4</ele>
        <time>2026-07-15T09:37:59Z</time>
      </trkpt>
      <trkpt lat="42.87048" lon="-0.19177">
        <ele>2485.4</ele>
        <time>2026-07-15T09:38:00Z</time>
      </trkpt>
      <trkpt lat="42.87048" lon="-0.19178">
        <ele>2486.4</ele>
        <time>2026-07-15T09:38:01Z</time>
      </trkpt>
      <trkpt lat="42.87048" lon="-0.19178">
        <ele>2486.4</ele>
        <time>2026-07-15T09:38:02Z</time>
      </trkpt>
      <trkpt lat="42.87048" lon="-0.19178">
        <ele>2486.4</ele>
        <time>2026-07-15T09:38:03Z</time>
      </trkpt>
      <trkpt lat="42.87048" lon="-0.19178">
        <ele>2486.4</ele>
        <time>2026-07-15T09:38:04Z</time>
      </trkpt>
      <trkpt lat="42.87048" lon="-0.19178">
        <ele>2486.4</ele>
        <time>2026-07-15T09:38:05Z</time>
      </trkpt>
      <trkpt lat="42.87048" lon="-0.19178">
        <ele>2486.4</ele>
        <time>2026-07-15T09:38:06Z</time>
      </trkpt>
      <trkpt lat="42.87048" lon="-0.19178">
        <ele>2486.4</ele>
        <time>2026-07-15T09:38:07Z</time>
      </trkpt>
      <trkpt lat="42.87048" lon="-0.19178">
        <ele>2487.4</ele>
        <time>2026-07-15T09:38:08Z</time>
      </trkpt>
      <trkpt lat="42.87048" lon="-0.19178">
        <ele>2487.4</ele>
        <time>2026-07-15T09:38:09Z</time>
      </trkpt>
      <trkpt lat="42.87048" lon="-0.19178">
        <ele>2487.4</ele>
        <time>2026-07-15T09:38:10Z</time>
      </trkpt>
      <trkpt lat="42.87048" lon="-0.19178">
        <ele>2487.4</ele>
        <time>2026-07-15T09:38:11Z</time>
      </trkpt>
      <trkpt lat="42.87048" lon="-0.19179">
        <ele>2488.4</ele>
        <time>2026-07-15T09:38:12Z</time>
      </trkpt>
      <trkpt lat="42.87048" lon="-0.19179">
        <ele>2489.4</ele>
        <time>2026-07-15T09:38:13Z</time>
      </trkpt>
      <trkpt lat="42.87048" lon="-0.1918">
        <ele>2488.4</ele>
        <time>2026-07-15T09:38:14Z</time>
      </trkpt>
      <trkpt lat="42.87048" lon="-0.1918">
        <ele>2488.4</ele>
        <time>2026-07-15T09:38:15Z</time>
      </trkpt>
      <trkpt lat="42.87048" lon="-0.1918">
        <ele>2488.4</ele>
        <time>2026-07-15T09:38:16Z</time>
      </trkpt>
      <trkpt lat="42.87048" lon="-0.1918">
        <ele>2488.4</ele>
        <time>2026-07-15T09:38:17Z</time>
      </trkpt>
      <trkpt lat="42.87048" lon="-0.1918">
        <ele>2488.4</ele>
        <time>2026-07-15T09:38:18Z</time>
      </trkpt>
      <trkpt lat="42.87048" lon="-0.1918">
        <ele>2488.4</ele>
        <time>2026-07-15T09:38:19Z</time>
      </trkpt>
      <trkpt lat="42.87048" lon="-0.1918">
        <ele>2488.4</ele>
        <time>2026-07-15T09:38:20Z</time>
      </trkpt>
      <trkpt lat="42.87048" lon="-0.1918">
        <ele>2488.4</ele>
        <time>2026-07-15T09:38:21Z</time>
      </trkpt>
      <trkpt lat="42.87048" lon="-0.1918">
        <ele>2488.4</ele>
        <time>2026-07-15T09:38:22Z</time>
      </trkpt>
      <trkpt lat="42.87048" lon="-0.1918">
        <ele>2489.4</ele>
        <time>2026-07-15T09:38:23Z</time>
      </trkpt>
      <trkpt lat="42.87049" lon="-0.19182">
        <ele>2488.4</ele>
        <time>2026-07-15T09:38:24Z</time>
      </trkpt>
      <trkpt lat="42.87049" lon="-0.19182">
        <ele>2488.4</ele>
        <time>2026-07-15T09:38:25Z</time>
      </trkpt>
      <trkpt lat="42.87049" lon="-0.19183">
        <ele>2488.4</ele>
        <time>2026-07-15T09:38:26Z</time>
      </trkpt>
      <trkpt lat="42.8705" lon="-0.19182">
        <ele>2487.4</ele>
        <time>2026-07-15T09:38:27Z</time>
      </trkpt>
      <trkpt lat="42.8705" lon="-0.19183">
        <ele>2487.4</ele>
        <time>2026-07-15T09:38:28Z</time>
      </trkpt>
      <trkpt lat="42.87049" lon="-0.19183">
        <ele>2487.4</ele>
        <time>2026-07-15T09:38:29Z</time>
      </trkpt>
      <trkpt lat="42.87049" lon="-0.19183">
        <ele>2487.4</ele>
        <time>2026-07-15T09:38:30Z</time>
      </trkpt>
      <trkpt lat="42.87049" lon="-0.19184">
        <ele>2487.4</ele>
        <time>2026-07-15T09:38:31Z</time>
      </trkpt>
      <trkpt lat="42.87049" lon="-0.19184">
        <ele>2487.4</ele>
        <time>2026-07-15T09:38:32Z</time>
      </trkpt>
      <trkpt lat="42.87049" lon="-0.19185">
        <ele>2485.4</ele>
        <time>2026-07-15T09:38:33Z</time>
      </trkpt>
      <trkpt lat="42.87049" lon="-0.19185">
        <ele>2486.4</ele>
        <time>2026-07-15T09:38:34Z</time>
      </trkpt>
      <trkpt lat="42.87049" lon="-0.19186">
        <ele>2486.4</ele>
        <time>2026-07-15T09:38:35Z</time>
      </trkpt>
      <trkpt lat="42.87049" lon="-0.19186">
        <ele>2486.4</ele>
        <time>2026-07-15T09:38:36Z</time>
      </trkpt>
      <trkpt lat="42.87049" lon="-0.19187">
        <ele>2487.4</ele>
        <time>2026-07-15T09:38:37Z</time>
      </trkpt>
      <trkpt lat="42.87049" lon="-0.19188">
        <ele>2487.4</ele>
        <time>2026-07-15T09:38:38Z</time>
      </trkpt>
      <trkpt lat="42.87049" lon="-0.19188">
        <ele>2488.4</ele>
        <time>2026-07-15T09:38:39Z</time>
      </trkpt>
      <trkpt lat="42.87049" lon="-0.19189">
        <ele>2488.4</ele>
        <time>2026-07-15T09:38:40Z</time>
      </trkpt>
      <trkpt lat="42.87048" lon="-0.19189">
        <ele>2488.4</ele>
        <time>2026-07-15T09:38:41Z</time>
      </trkpt>
      <trkpt lat="42.87049" lon="-0.19189">
        <ele>2489.4</ele>
        <time>2026-07-15T09:38:42Z</time>
      </trkpt>
      <trkpt lat="42.87049" lon="-0.19189">
        <ele>2488.4</ele>
        <time>2026-07-15T09:38:43Z</time>
      </trkpt>
      <trkpt lat="42.87049" lon="-0.19189">
        <ele>2489.4</ele>
        <time>2026-07-15T09:38:44Z</time>
      </trkpt>
      <trkpt lat="42.8705" lon="-0.19189">
        <ele>2489.4</ele>
        <time>2026-07-15T09:38:45Z</time>
      </trkpt>
      <trkpt lat="42.8705" lon="-0.19189">
        <ele>2489.4</ele>
        <time>2026-07-15T09:38:46Z</time>
      </trkpt>
      <trkpt lat="42.87049" lon="-0.19189">
        <ele>2488.4</ele>
        <time>2026-07-15T09:38:47Z</time>
      </trkpt>
      <trkpt lat="42.87049" lon="-0.19189">
        <ele>2488.4</ele>
        <time>2026-07-15T09:38:48Z</time>
      </trkpt>
      <trkpt lat="42.87049" lon="-0.19189">
        <ele>2489.4</ele>
        <time>2026-07-15T09:38:49Z</time>
      </trkpt>
      <trkpt lat="42.87049" lon="-0.19189">
        <ele>2489.4</ele>
        <time>2026-07-15T09:38:50Z</time>
      </trkpt>
      <trkpt lat="42.87048" lon="-0.19189">
        <ele>2489.4</ele>
        <time>2026-07-15T09:38:51Z</time>
      </trkpt>
      <trkpt lat="42.87048" lon="-0.19189">
        <ele>2489.4</ele>
        <time>2026-07-15T09:38:52Z</time>
      </trkpt>
      <trkpt lat="42.87048" lon="-0.19189">
        <ele>2489.4</ele>
        <time>2026-07-15T09:38:53Z</time>
      </trkpt>
      <trkpt lat="42.87048" lon="-0.19189">
        <ele>2489.4</ele>
        <time>2026-07-15T09:38:54Z</time>
      </trkpt>
      <trkpt lat="42.87048" lon="-0.19189">
        <ele>2489.4</ele>
        <time>2026-07-15T09:38:55Z</time>
      </trkpt>
      <trkpt lat="42.87048" lon="-0.19189">
        <ele>2489.4</ele>
        <time>2026-07-15T09:38:56Z</time>
      </trkpt>
      <trkpt lat="42.87048" lon="-0.1919">
        <ele>2489.4</ele>
        <time>2026-07-15T09:38:57Z</time>
      </trkpt>
      <trkpt lat="42.87048" lon="-0.1919">
        <ele>2489.4</ele>
        <time>2026-07-15T09:38:58Z</time>
      </trkpt>
      <trkpt lat="42.87047" lon="-0.1919">
        <ele>2489.4</ele>
        <time>2026-07-15T09:38:59Z</time>
      </trkpt>
      <trkpt lat="42.87048" lon="-0.19191">
        <ele>2489.4</ele>
        <time>2026-07-15T09:39:00Z</time>
      </trkpt>
      <trkpt lat="42.87048" lon="-0.19191">
        <ele>2489.4</ele>
        <time>2026-07-15T09:39:01Z</time>
      </trkpt>
      <trkpt lat="42.87048" lon="-0.1919">
        <ele>2490.4</ele>
        <time>2026-07-15T09:39:02Z</time>
      </trkpt>
      <trkpt lat="42.87048" lon="-0.1919">
        <ele>2490.4</ele>
        <time>2026-07-15T09:39:03Z</time>
      </trkpt>
      <trkpt lat="42.87048" lon="-0.1919">
        <ele>2490.4</ele>
        <time>2026-07-15T09:39:04Z</time>
      </trkpt>
      <trkpt lat="42.87048" lon="-0.1919">
        <ele>2490.4</ele>
        <time>2026-07-15T09:39:05Z</time>
      </trkpt>
      <trkpt lat="42.87049" lon="-0.1919">
        <ele>2490.4</ele>
        <time>2026-07-15T09:39:06Z</time>
      </trkpt>
      <trkpt lat="42.87049" lon="-0.1919">
        <ele>2489.4</ele>
        <time>2026-07-15T09:39:07Z</time>
      </trkpt>
      <trkpt lat="42.87049" lon="-0.1919">
        <ele>2489.4</ele>
        <time>2026-07-15T09:39:08Z</time>
      </trkpt>
      <trkpt lat="42.87049" lon="-0.1919">
        <ele>2489.4</ele>
        <time>2026-07-15T09:39:09Z</time>
      </trkpt>
      <trkpt lat="42.87049" lon="-0.1919">
        <ele>2489.4</ele>
        <time>2026-07-15T09:39:10Z</time>
      </trkpt>
      <trkpt lat="42.87049" lon="-0.1919">
        <ele>2489.4</ele>
        <time>2026-07-15T09:39:11Z</time>
      </trkpt>
      <trkpt lat="42.87049" lon="-0.1919">
        <ele>2489.4</ele>
        <time>2026-07-15T09:39:12Z</time>
      </trkpt>
      <trkpt lat="42.87047" lon="-0.19189">
        <ele>2490.4</ele>
        <time>2026-07-15T09:39:13Z</time>
      </trkpt>
      <trkpt lat="42.87047" lon="-0.19189">
        <ele>2490.4</ele>
        <time>2026-07-15T09:39:14Z</time>
      </trkpt>
      <trkpt lat="42.87046" lon="-0.1919">
        <ele>2491.4</ele>
        <time>2026-07-15T09:39:15Z</time>
      </trkpt>
      <trkpt lat="42.87047" lon="-0.1919">
        <ele>2489.4</ele>
        <time>2026-07-15T09:39:16Z</time>
      </trkpt>
      <trkpt lat="42.87047" lon="-0.19191">
        <ele>2489.4</ele>
        <time>2026-07-15T09:39:17Z</time>
      </trkpt>
      <trkpt lat="42.87049" lon="-0.19194">
        <ele>2488.4</ele>
        <time>2026-07-15T09:39:18Z</time>
      </trkpt>
      <trkpt lat="42.8705" lon="-0.19196">
        <ele>2488.4</ele>
        <time>2026-07-15T09:39:19Z</time>
      </trkpt>
      <trkpt lat="42.87054" lon="-0.19196">
        <ele>2487.4</ele>
        <time>2026-07-15T09:39:20Z</time>
      </trkpt>
      <trkpt lat="42.87054" lon="-0.19195">
        <ele>2487.4</ele>
        <time>2026-07-15T09:39:21Z</time>
      </trkpt>
      <trkpt lat="42.87054" lon="-0.19194">
        <ele>2487.4</ele>
        <time>2026-07-15T09:39:22Z</time>
      </trkpt>
      <trkpt lat="42.87053" lon="-0.19195">
        <ele>2487.4</ele>
        <time>2026-07-15T09:39:23Z</time>
      </trkpt>
      <trkpt lat="42.87052" lon="-0.19197">
        <ele>2486.4</ele>
        <time>2026-07-15T09:39:24Z</time>
      </trkpt>
      <trkpt lat="42.87051" lon="-0.19196">
        <ele>2486.4</ele>
        <time>2026-07-15T09:39:25Z</time>
      </trkpt>
      <trkpt lat="42.87051" lon="-0.19197">
        <ele>2484.4</ele>
        <time>2026-07-15T09:39:26Z</time>
      </trkpt>
      <trkpt lat="42.87051" lon="-0.19197">
        <ele>2484.4</ele>
        <time>2026-07-15T09:39:27Z</time>
      </trkpt>
      <trkpt lat="42.87051" lon="-0.19197">
        <ele>2484.4</ele>
        <time>2026-07-15T09:39:28Z</time>
      </trkpt>
      <trkpt lat="42.87051" lon="-0.19197">
        <ele>2484.4</ele>
        <time>2026-07-15T09:39:29Z</time>
      </trkpt>
      <trkpt lat="42.8705" lon="-0.19197">
        <ele>2484.4</ele>
        <time>2026-07-15T09:39:30Z</time>
      </trkpt>
      <trkpt lat="42.8705" lon="-0.19197">
        <ele>2484.4</ele>
        <time>2026-07-15T09:39:31Z</time>
      </trkpt>
      <trkpt lat="42.8705" lon="-0.19198">
        <ele>2485.4</ele>
        <time>2026-07-15T09:39:32Z</time>
      </trkpt>
      <trkpt lat="42.8705" lon="-0.19198">
        <ele>2485.4</ele>
        <time>2026-07-15T09:39:33Z</time>
      </trkpt>
      <trkpt lat="42.87049" lon="-0.19199">
        <ele>2485.4</ele>
        <time>2026-07-15T09:39:34Z</time>
      </trkpt>
      <trkpt lat="42.87049" lon="-0.19199">
        <ele>2484.4</ele>
        <time>2026-07-15T09:39:35Z</time>
      </trkpt>
      <trkpt lat="42.87048" lon="-0.19199">
        <ele>2484.4</ele>
        <time>2026-07-15T09:39:36Z</time>
      </trkpt>
      <trkpt lat="42.87048" lon="-0.192">
        <ele>2484.4</ele>
        <time>2026-07-15T09:39:37Z</time>
      </trkpt>
      <trkpt lat="42.87047" lon="-0.192">
        <ele>2484.4</ele>
        <time>2026-07-15T09:39:38Z</time>
      </trkpt>
      <trkpt lat="42.87047" lon="-0.192">
        <ele>2484.4</ele>
        <time>2026-07-15T09:39:39Z</time>
      </trkpt>
      <trkpt lat="42.87047" lon="-0.19201">
        <ele>2484.4</ele>
        <time>2026-07-15T09:39:40Z</time>
      </trkpt>
      <trkpt lat="42.87046" lon="-0.19201">
        <ele>2485.4</ele>
        <time>2026-07-15T09:39:41Z</time>
      </trkpt>
      <trkpt lat="42.87046" lon="-0.19201">
        <ele>2485.4</ele>
        <time>2026-07-15T09:39:42Z</time>
      </trkpt>
      <trkpt lat="42.87046" lon="-0.19202">
        <ele>2486.4</ele>
        <time>2026-07-15T09:39:43Z</time>
      </trkpt>
      <trkpt lat="42.87046" lon="-0.19202">
        <ele>2486.4</ele>
        <time>2026-07-15T09:39:44Z</time>
      </trkpt>
      <trkpt lat="42.87046" lon="-0.19202">
        <ele>2486.4</ele>
        <time>2026-07-15T09:39:45Z</time>
      </trkpt>
      <trkpt lat="42.87045" lon="-0.19202">
        <ele>2487.4</ele>
        <time>2026-07-15T09:39:46Z</time>
      </trkpt>
      <trkpt lat="42.87045" lon="-0.19202">
        <ele>2487.4</ele>
        <time>2026-07-15T09:39:47Z</time>
      </trkpt>
      <trkpt lat="42.87045" lon="-0.19203">
        <ele>2487.4</ele>
        <time>2026-07-15T09:39:48Z</time>
      </trkpt>
      <trkpt lat="42.87044" lon="-0.19203">
        <ele>2487.4</ele>
        <time>2026-07-15T09:39:49Z</time>
      </trkpt>
      <trkpt lat="42.87044" lon="-0.19204">
        <ele>2487.4</ele>
        <time>2026-07-15T09:39:50Z</time>
      </trkpt>
      <trkpt lat="42.87043" lon="-0.19203">
        <ele>2487.4</ele>
        <time>2026-07-15T09:39:51Z</time>
      </trkpt>
      <trkpt lat="42.87044" lon="-0.19204">
        <ele>2487.4</ele>
        <time>2026-07-15T09:39:52Z</time>
      </trkpt>
      <trkpt lat="42.87044" lon="-0.19204">
        <ele>2487.4</ele>
        <time>2026-07-15T09:39:53Z</time>
      </trkpt>
      <trkpt lat="42.87044" lon="-0.19204">
        <ele>2486.4</ele>
        <time>2026-07-15T09:39:54Z</time>
      </trkpt>
      <trkpt lat="42.87044" lon="-0.19204">
        <ele>2486.4</ele>
        <time>2026-07-15T09:39:55Z</time>
      </trkpt>
      <trkpt lat="42.87044" lon="-0.19204">
        <ele>2486.4</ele>
        <time>2026-07-15T09:39:56Z</time>
      </trkpt>
      <trkpt lat="42.87044" lon="-0.19204">
        <ele>2486.4</ele>
        <time>2026-07-15T09:39:57Z</time>
      </trkpt>
      <trkpt lat="42.87044" lon="-0.19204">
        <ele>2486.4</ele>
        <time>2026-07-15T09:39:58Z</time>
      </trkpt>
      <trkpt lat="42.87044" lon="-0.19204">
        <ele>2487.4</ele>
        <time>2026-07-15T09:39:59Z</time>
      </trkpt>
      <trkpt lat="42.87044" lon="-0.19204">
        <ele>2487.4</ele>
        <time>2026-07-15T09:40:00Z</time>
      </trkpt>
      <trkpt lat="42.87044" lon="-0.19204">
        <ele>2485.4</ele>
        <time>2026-07-15T09:40:01Z</time>
      </trkpt>
      <trkpt lat="42.87044" lon="-0.19204">
        <ele>2485.4</ele>
        <time>2026-07-15T09:40:02Z</time>
      </trkpt>
      <trkpt lat="42.87044" lon="-0.19204">
        <ele>2485.4</ele>
        <time>2026-07-15T09:40:03Z</time>
      </trkpt>
      <trkpt lat="42.87044" lon="-0.19205">
        <ele>2485.4</ele>
        <time>2026-07-15T09:40:04Z</time>
      </trkpt>
      <trkpt lat="42.87044" lon="-0.19204">
        <ele>2485.4</ele>
        <time>2026-07-15T09:40:05Z</time>
      </trkpt>
      <trkpt lat="42.87043" lon="-0.19203">
        <ele>2485.4</ele>
        <time>2026-07-15T09:40:06Z</time>
      </trkpt>
      <trkpt lat="42.87043" lon="-0.19204">
        <ele>2485.4</ele>
        <time>2026-07-15T09:40:07Z</time>
      </trkpt>
      <trkpt lat="42.87043" lon="-0.19203">
        <ele>2485.4</ele>
        <time>2026-07-15T09:40:08Z</time>
      </trkpt>
      <trkpt lat="42.87043" lon="-0.19203">
        <ele>2485.4</ele>
        <time>2026-07-15T09:40:09Z</time>
      </trkpt>
      <trkpt lat="42.87043" lon="-0.19203">
        <ele>2485.4</ele>
        <time>2026-07-15T09:40:10Z</time>
      </trkpt>
      <trkpt lat="42.87043" lon="-0.19203">
        <ele>2485.4</ele>
        <time>2026-07-15T09:40:11Z</time>
      </trkpt>
      <trkpt lat="42.87043" lon="-0.19203">
        <ele>2485.4</ele>
        <time>2026-07-15T09:40:12Z</time>
      </trkpt>
      <trkpt lat="42.87043" lon="-0.19203">
        <ele>2485.4</ele>
        <time>2026-07-15T09:40:13Z</time>
      </trkpt>
      <trkpt lat="42.87043" lon="-0.19203">
        <ele>2485.4</ele>
        <time>2026-07-15T09:40:14Z</time>
      </trkpt>
      <trkpt lat="42.87043" lon="-0.19203">
        <ele>2485.4</ele>
        <time>2026-07-15T09:40:15Z</time>
      </trkpt>
      <trkpt lat="42.87043" lon="-0.19204">
        <ele>2485.4</ele>
        <time>2026-07-15T09:40:16Z</time>
      </trkpt>
      <trkpt lat="42.87042" lon="-0.19204">
        <ele>2485.4</ele>
        <time>2026-07-15T09:40:17Z</time>
      </trkpt>
      <trkpt lat="42.87043" lon="-0.19204">
        <ele>2484.4</ele>
        <time>2026-07-15T09:40:18Z</time>
      </trkpt>
      <trkpt lat="42.87043" lon="-0.19202">
        <ele>2485.4</ele>
        <time>2026-07-15T09:40:19Z</time>
      </trkpt>
      <trkpt lat="42.87043" lon="-0.19203">
        <ele>2485.4</ele>
        <time>2026-07-15T09:40:20Z</time>
      </trkpt>
      <trkpt lat="42.87043" lon="-0.19203">
        <ele>2485.4</ele>
        <time>2026-07-15T09:40:21Z</time>
      </trkpt>
      <trkpt lat="42.87043" lon="-0.19203">
        <ele>2484.4</ele>
        <time>2026-07-15T09:40:22Z</time>
      </trkpt>
      <trkpt lat="42.87043" lon="-0.19203">
        <ele>2484.4</ele>
        <time>2026-07-15T09:40:23Z</time>
      </trkpt>
      <trkpt lat="42.87043" lon="-0.19202">
        <ele>2485.4</ele>
        <time>2026-07-15T09:40:24Z</time>
      </trkpt>
      <trkpt lat="42.87043" lon="-0.19202">
        <ele>2485.4</ele>
        <time>2026-07-15T09:40:25Z</time>
      </trkpt>
      <trkpt lat="42.87043" lon="-0.19203">
        <ele>2485.4</ele>
        <time>2026-07-15T09:40:26Z</time>
      </trkpt>
      <trkpt lat="42.87043" lon="-0.19203">
        <ele>2484.4</ele>
        <time>2026-07-15T09:40:27Z</time>
      </trkpt>
      <trkpt lat="42.87043" lon="-0.19204">
        <ele>2484.4</ele>
        <time>2026-07-15T09:40:28Z</time>
      </trkpt>
      <trkpt lat="42.87043" lon="-0.19204">
        <ele>2484.4</ele>
        <time>2026-07-15T09:40:29Z</time>
      </trkpt>
      <trkpt lat="42.87043" lon="-0.19204">
        <ele>2483.4</ele>
        <time>2026-07-15T09:40:30Z</time>
      </trkpt>
      <trkpt lat="42.87043" lon="-0.19205">
        <ele>2483.4</ele>
        <time>2026-07-15T09:40:31Z</time>
      </trkpt>
      <trkpt lat="42.87044" lon="-0.19206">
        <ele>2483.4</ele>
        <time>2026-07-15T09:40:32Z</time>
      </trkpt>
      <trkpt lat="42.87044" lon="-0.19208">
        <ele>2483.4</ele>
        <time>2026-07-15T09:40:33Z</time>
      </trkpt>
      <trkpt lat="42.87044" lon="-0.19209">
        <ele>2483.4</ele>
        <time>2026-07-15T09:40:34Z</time>
      </trkpt>
      <trkpt lat="42.87044" lon="-0.19208">
        <ele>2483.4</ele>
        <time>2026-07-15T09:40:35Z</time>
      </trkpt>
      <trkpt lat="42.87044" lon="-0.19208">
        <ele>2483.4</ele>
        <time>2026-07-15T09:40:36Z</time>
      </trkpt>
      <trkpt lat="42.87044" lon="-0.19208">
        <ele>2483.4</ele>
        <time>2026-07-15T09:40:37Z</time>
      </trkpt>
      <trkpt lat="42.87044" lon="-0.19208">
        <ele>2483.4</ele>
        <time>2026-07-15T09:40:38Z</time>
      </trkpt>
      <trkpt lat="42.87044" lon="-0.19208">
        <ele>2483.4</ele>
        <time>2026-07-15T09:40:39Z</time>
      </trkpt>
      <trkpt lat="42.87044" lon="-0.19209">
        <ele>2482.4</ele>
        <time>2026-07-15T09:40:40Z</time>
      </trkpt>
      <trkpt lat="42.87044" lon="-0.19209">
        <ele>2482.4</ele>
        <time>2026-07-15T09:40:41Z</time>
      </trkpt>
      <trkpt lat="42.87044" lon="-0.19209">
        <ele>2482.4</ele>
        <time>2026-07-15T09:40:42Z</time>
      </trkpt>
      <trkpt lat="42.87044" lon="-0.19209">
        <ele>2482.4</ele>
        <time>2026-07-15T09:40:43Z</time>
      </trkpt>
      <trkpt lat="42.87044" lon="-0.19209">
        <ele>2482.4</ele>
        <time>2026-07-15T09:40:44Z</time>
      </trkpt>
      <trkpt lat="42.87044" lon="-0.19209">
        <ele>2482.4</ele>
        <time>2026-07-15T09:40:45Z</time>
      </trkpt>
      <trkpt lat="42.87044" lon="-0.19209">
        <ele>2482.4</ele>
        <time>2026-07-15T09:40:46Z</time>
      </trkpt>
      <trkpt lat="42.87044" lon="-0.19209">
        <ele>2482.4</ele>
        <time>2026-07-15T09:40:47Z</time>
      </trkpt>
      <trkpt lat="42.87044" lon="-0.19209">
        <ele>2482.4</ele>
        <time>2026-07-15T09:40:48Z</time>
      </trkpt>
      <trkpt lat="42.87044" lon="-0.19208">
        <ele>2481.4</ele>
        <time>2026-07-15T09:40:49Z</time>
      </trkpt>
      <trkpt lat="42.87044" lon="-0.19209">
        <ele>2481.4</ele>
        <time>2026-07-15T09:40:50Z</time>
      </trkpt>
      <trkpt lat="42.87044" lon="-0.19209">
        <ele>2481.4</ele>
        <time>2026-07-15T09:40:51Z</time>
      </trkpt>
      <trkpt lat="42.87044" lon="-0.19209">
        <ele>2481.4</ele>
        <time>2026-07-15T09:40:52Z</time>
      </trkpt>
      <trkpt lat="42.87044" lon="-0.19209">
        <ele>2481.4</ele>
        <time>2026-07-15T09:40:53Z</time>
      </trkpt>
      <trkpt lat="42.87044" lon="-0.19209">
        <ele>2481.4</ele>
        <time>2026-07-15T09:40:54Z</time>
      </trkpt>
      <trkpt lat="42.87044" lon="-0.19209">
        <ele>2481.4</ele>
        <time>2026-07-15T09:40:55Z</time>
      </trkpt>
      <trkpt lat="42.87045" lon="-0.1921">
        <ele>2481.4</ele>
        <time>2026-07-15T09:40:56Z</time>
      </trkpt>
      <trkpt lat="42.87045" lon="-0.19209">
        <ele>2481.4</ele>
        <time>2026-07-15T09:40:57Z</time>
      </trkpt>
      <trkpt lat="42.87046" lon="-0.19209">
        <ele>2481.4</ele>
        <time>2026-07-15T09:40:58Z</time>
      </trkpt>
      <trkpt lat="42.87046" lon="-0.19209">
        <ele>2481.4</ele>
        <time>2026-07-15T09:40:59Z</time>
      </trkpt>
      <trkpt lat="42.87046" lon="-0.19209">
        <ele>2481.4</ele>
        <time>2026-07-15T09:41:00Z</time>
      </trkpt>
      <trkpt lat="42.87046" lon="-0.19209">
        <ele>2481.4</ele>
        <time>2026-07-15T09:41:01Z</time>
      </trkpt>
      <trkpt lat="42.87046" lon="-0.19209">
        <ele>2481.4</ele>
        <time>2026-07-15T09:41:02Z</time>
      </trkpt>
      <trkpt lat="42.87046" lon="-0.19209">
        <ele>2481.4</ele>
        <time>2026-07-15T09:41:03Z</time>
      </trkpt>
      <trkpt lat="42.87046" lon="-0.19209">
        <ele>2481.4</ele>
        <time>2026-07-15T09:41:04Z</time>
      </trkpt>
      <trkpt lat="42.87046" lon="-0.19209">
        <ele>2481.4</ele>
        <time>2026-07-15T09:41:05Z</time>
      </trkpt>
      <trkpt lat="42.87046" lon="-0.19209">
        <ele>2481.4</ele>
        <time>2026-07-15T09:41:06Z</time>
      </trkpt>
      <trkpt lat="42.87046" lon="-0.19209">
        <ele>2481.4</ele>
        <time>2026-07-15T09:41:07Z</time>
      </trkpt>
      <trkpt lat="42.87046" lon="-0.19209">
        <ele>2481.4</ele>
        <time>2026-07-15T09:41:08Z</time>
      </trkpt>
      <trkpt lat="42.87046" lon="-0.19208">
        <ele>2481.4</ele>
        <time>2026-07-15T09:41:09Z</time>
      </trkpt>
      <trkpt lat="42.87046" lon="-0.19208">
        <ele>2482.4</ele>
        <time>2026-07-15T09:41:10Z</time>
      </trkpt>
      <trkpt lat="42.87046" lon="-0.19208">
        <ele>2481.4</ele>
        <time>2026-07-15T09:41:11Z</time>
      </trkpt>
      <trkpt lat="42.87047" lon="-0.19208">
        <ele>2481.4</ele>
        <time>2026-07-15T09:41:12Z</time>
      </trkpt>
      <trkpt lat="42.87047" lon="-0.19209">
        <ele>2481.4</ele>
        <time>2026-07-15T09:41:13Z</time>
      </trkpt>
      <trkpt lat="42.87047" lon="-0.19209">
        <ele>2481.4</ele>
        <time>2026-07-15T09:41:14Z</time>
      </trkpt>
      <trkpt lat="42.87047" lon="-0.19209">
        <ele>2481.4</ele>
        <time>2026-07-15T09:41:15Z</time>
      </trkpt>
      <trkpt lat="42.87047" lon="-0.19209">
        <ele>2481.4</ele>
        <time>2026-07-15T09:41:16Z</time>
      </trkpt>
      <trkpt lat="42.87047" lon="-0.1921">
        <ele>2480.4</ele>
        <time>2026-07-15T09:41:17Z</time>
      </trkpt>
      <trkpt lat="42.87047" lon="-0.1921">
        <ele>2480.4</ele>
        <time>2026-07-15T09:41:18Z</time>
      </trkpt>
      <trkpt lat="42.87047" lon="-0.19211">
        <ele>2479.4</ele>
        <time>2026-07-15T09:41:19Z</time>
      </trkpt>
      <trkpt lat="42.87047" lon="-0.19211">
        <ele>2479.4</ele>
        <time>2026-07-15T09:41:20Z</time>
      </trkpt>
      <trkpt lat="42.87047" lon="-0.19211">
        <ele>2479.4</ele>
        <time>2026-07-15T09:41:21Z</time>
      </trkpt>
      <trkpt lat="42.87047" lon="-0.19211">
        <ele>2478.4</ele>
        <time>2026-07-15T09:41:22Z</time>
      </trkpt>
      <trkpt lat="42.87047" lon="-0.19211">
        <ele>2478.4</ele>
        <time>2026-07-15T09:41:23Z</time>
      </trkpt>
      <trkpt lat="42.87047" lon="-0.19211">
        <ele>2478.4</ele>
        <time>2026-07-15T09:41:24Z</time>
      </trkpt>
      <trkpt lat="42.87046" lon="-0.19211">
        <ele>2478.4</ele>
        <time>2026-07-15T09:41:25Z</time>
      </trkpt>
      <trkpt lat="42.87046" lon="-0.19211">
        <ele>2478.4</ele>
        <time>2026-07-15T09:41:26Z</time>
      </trkpt>
      <trkpt lat="42.87046" lon="-0.19212">
        <ele>2478.4</ele>
        <time>2026-07-15T09:41:27Z</time>
      </trkpt>
      <trkpt lat="42.87045" lon="-0.19212">
        <ele>2478.4</ele>
        <time>2026-07-15T09:41:28Z</time>
      </trkpt>
      <trkpt lat="42.87045" lon="-0.19213">
        <ele>2478.4</ele>
        <time>2026-07-15T09:41:29Z</time>
      </trkpt>
      <trkpt lat="42.87046" lon="-0.19214">
        <ele>2478.4</ele>
        <time>2026-07-15T09:41:30Z</time>
      </trkpt>
      <trkpt lat="42.87045" lon="-0.19214">
        <ele>2478.4</ele>
        <time>2026-07-15T09:41:31Z</time>
      </trkpt>
      <trkpt lat="42.87044" lon="-0.19213">
        <ele>2477.4</ele>
        <time>2026-07-15T09:41:32Z</time>
      </trkpt>
      <trkpt lat="42.87044" lon="-0.19213">
        <ele>2477.4</ele>
        <time>2026-07-15T09:41:33Z</time>
      </trkpt>
      <trkpt lat="42.87045" lon="-0.19213">
        <ele>2477.4</ele>
        <time>2026-07-15T09:41:34Z</time>
      </trkpt>
      <trkpt lat="42.87045" lon="-0.19212">
        <ele>2477.4</ele>
        <time>2026-07-15T09:41:35Z</time>
      </trkpt>
      <trkpt lat="42.87046" lon="-0.19213">
        <ele>2478.4</ele>
        <time>2026-07-15T09:41:36Z</time>
      </trkpt>
      <trkpt lat="42.87046" lon="-0.19214">
        <ele>2478.4</ele>
        <time>2026-07-15T09:41:37Z</time>
      </trkpt>
      <trkpt lat="42.87046" lon="-0.19213">
        <ele>2478.4</ele>
        <time>2026-07-15T09:41:38Z</time>
      </trkpt>
      <trkpt lat="42.87047" lon="-0.19212">
        <ele>2477.4</ele>
        <time>2026-07-15T09:41:39Z</time>
      </trkpt>
      <trkpt lat="42.87047" lon="-0.19212">
        <ele>2477.4</ele>
        <time>2026-07-15T09:41:40Z</time>
      </trkpt>
      <trkpt lat="42.87047" lon="-0.19212">
        <ele>2477.4</ele>
        <time>2026-07-15T09:41:41Z</time>
      </trkpt>
      <trkpt lat="42.87048" lon="-0.19211">
        <ele>2476.4</ele>
        <time>2026-07-15T09:41:42Z</time>
      </trkpt>
      <trkpt lat="42.87048" lon="-0.19211">
        <ele>2476.4</ele>
        <time>2026-07-15T09:41:43Z</time>
      </trkpt>
      <trkpt lat="42.87048" lon="-0.19211">
        <ele>2476.4</ele>
        <time>2026-07-15T09:41:44Z</time>
      </trkpt>
      <trkpt lat="42.87048" lon="-0.19211">
        <ele>2476.4</ele>
        <time>2026-07-15T09:41:45Z</time>
      </trkpt>
      <trkpt lat="42.87048" lon="-0.19211">
        <ele>2476.4</ele>
        <time>2026-07-15T09:41:46Z</time>
      </trkpt>
      <trkpt lat="42.87048" lon="-0.19212">
        <ele>2476.4</ele>
        <time>2026-07-15T09:41:47Z</time>
      </trkpt>
      <trkpt lat="42.87047" lon="-0.19212">
        <ele>2476.4</ele>
        <time>2026-07-15T09:41:48Z</time>
      </trkpt>
      <trkpt lat="42.87048" lon="-0.19213">
        <ele>2476.4</ele>
        <time>2026-07-15T09:41:49Z</time>
      </trkpt>
      <trkpt lat="42.87048" lon="-0.19213">
        <ele>2476.4</ele>
        <time>2026-07-15T09:41:50Z</time>
      </trkpt>
      <trkpt lat="42.87048" lon="-0.19213">
        <ele>2476.4</ele>
        <time>2026-07-15T09:41:51Z</time>
      </trkpt>
      <trkpt lat="42.87048" lon="-0.19213">
        <ele>2477.4</ele>
        <time>2026-07-15T09:41:52Z</time>
      </trkpt>
      <trkpt lat="42.87048" lon="-0.19213">
        <ele>2477.4</ele>
        <time>2026-07-15T09:41:53Z</time>
      </trkpt>
      <trkpt lat="42.87049" lon="-0.19214">
        <ele>2477.4</ele>
        <time>2026-07-15T09:41:54Z</time>
      </trkpt>
      <trkpt lat="42.87049" lon="-0.19214">
        <ele>2477.4</ele>
        <time>2026-07-15T09:41:55Z</time>
      </trkpt>
      <trkpt lat="42.87049" lon="-0.19214">
        <ele>2477.4</ele>
        <time>2026-07-15T09:41:56Z</time>
      </trkpt>
      <trkpt lat="42.87049" lon="-0.19214">
        <ele>2477.4</ele>
        <time>2026-07-15T09:41:57Z</time>
      </trkpt>
      <trkpt lat="42.87049" lon="-0.19214">
        <ele>2477.4</ele>
        <time>2026-07-15T09:41:58Z</time>
      </trkpt>
      <trkpt lat="42.87049" lon="-0.19214">
        <ele>2476.4</ele>
        <time>2026-07-15T09:41:59Z</time>
      </trkpt>
      <trkpt lat="42.87049" lon="-0.19214">
        <ele>2476.4</ele>
        <time>2026-07-15T09:42:00Z</time>
      </trkpt>
      <trkpt lat="42.87049" lon="-0.19213">
        <ele>2476.4</ele>
        <time>2026-07-15T09:42:01Z</time>
      </trkpt>
      <trkpt lat="42.8705" lon="-0.19213">
        <ele>2475.4</ele>
        <time>2026-07-15T09:42:02Z</time>
      </trkpt>
      <trkpt lat="42.8705" lon="-0.19213">
        <ele>2476.4</ele>
        <time>2026-07-15T09:42:03Z</time>
      </trkpt>
      <trkpt lat="42.87049" lon="-0.19213">
        <ele>2476.4</ele>
        <time>2026-07-15T09:42:04Z</time>
      </trkpt>
      <trkpt lat="42.87049" lon="-0.19213">
        <ele>2475.4</ele>
        <time>2026-07-15T09:42:05Z</time>
      </trkpt>
      <trkpt lat="42.87049" lon="-0.19213">
        <ele>2475.4</ele>
        <time>2026-07-15T09:42:06Z</time>
      </trkpt>
      <trkpt lat="42.8705" lon="-0.19213">
        <ele>2474.4</ele>
        <time>2026-07-15T09:42:07Z</time>
      </trkpt>
      <trkpt lat="42.8705" lon="-0.19213">
        <ele>2474.4</ele>
        <time>2026-07-15T09:42:08Z</time>
      </trkpt>
      <trkpt lat="42.8705" lon="-0.19213">
        <ele>2474.4</ele>
        <time>2026-07-15T09:42:09Z</time>
      </trkpt>
      <trkpt lat="42.8705" lon="-0.19213">
        <ele>2474.4</ele>
        <time>2026-07-15T09:42:10Z</time>
      </trkpt>
      <trkpt lat="42.8705" lon="-0.19213">
        <ele>2474.4</ele>
        <time>2026-07-15T09:42:11Z</time>
      </trkpt>
      <trkpt lat="42.8705" lon="-0.19213">
        <ele>2474.4</ele>
        <time>2026-07-15T09:42:12Z</time>
      </trkpt>
      <trkpt lat="42.87051" lon="-0.19213">
        <ele>2474.4</ele>
        <time>2026-07-15T09:42:13Z</time>
      </trkpt>
      <trkpt lat="42.87051" lon="-0.19213">
        <ele>2474.4</ele>
        <time>2026-07-15T09:42:14Z</time>
      </trkpt>
      <trkpt lat="42.87051" lon="-0.19213">
        <ele>2474.4</ele>
        <time>2026-07-15T09:42:15Z</time>
      </trkpt>
      <trkpt lat="42.87051" lon="-0.19213">
        <ele>2474.4</ele>
        <time>2026-07-15T09:42:16Z</time>
      </trkpt>
      <trkpt lat="42.8705" lon="-0.19213">
        <ele>2473.4</ele>
        <time>2026-07-15T09:42:17Z</time>
      </trkpt>
      <trkpt lat="42.87051" lon="-0.19214">
        <ele>2473.4</ele>
        <time>2026-07-15T09:42:18Z</time>
      </trkpt>
      <trkpt lat="42.87051" lon="-0.19214">
        <ele>2473.4</ele>
        <time>2026-07-15T09:42:19Z</time>
      </trkpt>
      <trkpt lat="42.87051" lon="-0.19214">
        <ele>2473.4</ele>
        <time>2026-07-15T09:42:20Z</time>
      </trkpt>
      <trkpt lat="42.87051" lon="-0.19214">
        <ele>2473.4</ele>
        <time>2026-07-15T09:42:21Z</time>
      </trkpt>
      <trkpt lat="42.87051" lon="-0.19214">
        <ele>2473.4</ele>
        <time>2026-07-15T09:42:22Z</time>
      </trkpt>
      <trkpt lat="42.87051" lon="-0.19214">
        <ele>2473.4</ele>
        <time>2026-07-15T09:42:23Z</time>
      </trkpt>
      <trkpt lat="42.87052" lon="-0.19214">
        <ele>2473.4</ele>
        <time>2026-07-15T09:42:24Z</time>
      </trkpt>
      <trkpt lat="42.87052" lon="-0.19214">
        <ele>2472.4</ele>
        <time>2026-07-15T09:42:25Z</time>
      </trkpt>
      <trkpt lat="42.87052" lon="-0.19214">
        <ele>2472.4</ele>
        <time>2026-07-15T09:42:26Z</time>
      </trkpt>
      <trkpt lat="42.87052" lon="-0.19214">
        <ele>2472.4</ele>
        <time>2026-07-15T09:42:27Z</time>
      </trkpt>
      <trkpt lat="42.87052" lon="-0.19214">
        <ele>2472.4</ele>
        <time>2026-07-15T09:42:28Z</time>
      </trkpt>
      <trkpt lat="42.87052" lon="-0.19214">
        <ele>2471.4</ele>
        <time>2026-07-15T09:42:29Z</time>
      </trkpt>
      <trkpt lat="42.87052" lon="-0.19215">
        <ele>2471.4</ele>
        <time>2026-07-15T09:42:30Z</time>
      </trkpt>
      <trkpt lat="42.87053" lon="-0.19215">
        <ele>2472.4</ele>
        <time>2026-07-15T09:42:31Z</time>
      </trkpt>
      <trkpt lat="42.87053" lon="-0.19215">
        <ele>2472.4</ele>
        <time>2026-07-15T09:42:32Z</time>
      </trkpt>
      <trkpt lat="42.87053" lon="-0.19215">
        <ele>2472.4</ele>
        <time>2026-07-15T09:42:33Z</time>
      </trkpt>
      <trkpt lat="42.87054" lon="-0.19215">
        <ele>2472.4</ele>
        <time>2026-07-15T09:42:34Z</time>
      </trkpt>
      <trkpt lat="42.87054" lon="-0.19215">
        <ele>2471.4</ele>
        <time>2026-07-15T09:42:35Z</time>
      </trkpt>
      <trkpt lat="42.87054" lon="-0.19216">
        <ele>2470.4</ele>
        <time>2026-07-15T09:42:36Z</time>
      </trkpt>
      <trkpt lat="42.87053" lon="-0.19216">
        <ele>2470.4</ele>
        <time>2026-07-15T09:42:37Z</time>
      </trkpt>
      <trkpt lat="42.87053" lon="-0.19216">
        <ele>2470.4</ele>
        <time>2026-07-15T09:42:38Z</time>
      </trkpt>
      <trkpt lat="42.87053" lon="-0.19215">
        <ele>2470.4</ele>
        <time>2026-07-15T09:42:39Z</time>
      </trkpt>
      <trkpt lat="42.87053" lon="-0.19215">
        <ele>2470.4</ele>
        <time>2026-07-15T09:42:40Z</time>
      </trkpt>
      <trkpt lat="42.87053" lon="-0.19215">
        <ele>2471.4</ele>
        <time>2026-07-15T09:42:41Z</time>
      </trkpt>
      <trkpt lat="42.87053" lon="-0.19215">
        <ele>2470.4</ele>
        <time>2026-07-15T09:42:42Z</time>
      </trkpt>
      <trkpt lat="42.87053" lon="-0.19215">
        <ele>2470.4</ele>
        <time>2026-07-15T09:42:43Z</time>
      </trkpt>
      <trkpt lat="42.87054" lon="-0.19214">
        <ele>2469.4</ele>
        <time>2026-07-15T09:42:44Z</time>
      </trkpt>
      <trkpt lat="42.87054" lon="-0.19215">
        <ele>2469.4</ele>
        <time>2026-07-15T09:42:45Z</time>
      </trkpt>
      <trkpt lat="42.87055" lon="-0.19215">
        <ele>2469.4</ele>
        <time>2026-07-15T09:42:46Z</time>
      </trkpt>
      <trkpt lat="42.87056" lon="-0.19215">
        <ele>2468.4</ele>
        <time>2026-07-15T09:42:47Z</time>
      </trkpt>
      <trkpt lat="42.87056" lon="-0.19216">
        <ele>2468.4</ele>
        <time>2026-07-15T09:42:48Z</time>
      </trkpt>
      <trkpt lat="42.87057" lon="-0.19215">
        <ele>2469.4</ele>
        <time>2026-07-15T09:42:49Z</time>
      </trkpt>
      <trkpt lat="42.87057" lon="-0.19215">
        <ele>2469.4</ele>
        <time>2026-07-15T09:42:50Z</time>
      </trkpt>
      <trkpt lat="42.87057" lon="-0.19215">
        <ele>2469.4</ele>
        <time>2026-07-15T09:42:51Z</time>
      </trkpt>
      <trkpt lat="42.87057" lon="-0.19215">
        <ele>2469.4</ele>
        <time>2026-07-15T09:42:52Z</time>
      </trkpt>
      <trkpt lat="42.87057" lon="-0.19215">
        <ele>2469.4</ele>
        <time>2026-07-15T09:42:53Z</time>
      </trkpt>
      <trkpt lat="42.87057" lon="-0.19215">
        <ele>2469.4</ele>
        <time>2026-07-15T09:42:54Z</time>
      </trkpt>
      <trkpt lat="42.87057" lon="-0.19215">
        <ele>2469.4</ele>
        <time>2026-07-15T09:42:55Z</time>
      </trkpt>
      <trkpt lat="42.87057" lon="-0.19215">
        <ele>2469.4</ele>
        <time>2026-07-15T09:42:56Z</time>
      </trkpt>
      <trkpt lat="42.87057" lon="-0.19215">
        <ele>2469.4</ele>
        <time>2026-07-15T09:42:57Z</time>
      </trkpt>
      <trkpt lat="42.87057" lon="-0.19215">
        <ele>2469.4</ele>
        <time>2026-07-15T09:42:58Z</time>
      </trkpt>
      <trkpt lat="42.87057" lon="-0.19215">
        <ele>2469.4</ele>
        <time>2026-07-15T09:42:59Z</time>
      </trkpt>
      <trkpt lat="42.87057" lon="-0.19215">
        <ele>2469.4</ele>
        <time>2026-07-15T09:43:00Z</time>
      </trkpt>
      <trkpt lat="42.87057" lon="-0.19215">
        <ele>2469.4</ele>
        <time>2026-07-15T09:43:01Z</time>
      </trkpt>
      <trkpt lat="42.87057" lon="-0.19215">
        <ele>2469.4</ele>
        <time>2026-07-15T09:43:02Z</time>
      </trkpt>
      <trkpt lat="42.87057" lon="-0.19215">
        <ele>2469.4</ele>
        <time>2026-07-15T09:43:03Z</time>
      </trkpt>
      <trkpt lat="42.87057" lon="-0.19215">
        <ele>2469.4</ele>
        <time>2026-07-15T09:43:04Z</time>
      </trkpt>
      <trkpt lat="42.87057" lon="-0.19215">
        <ele>2469.4</ele>
        <time>2026-07-15T09:43:05Z</time>
      </trkpt>
      <trkpt lat="42.87057" lon="-0.19215">
        <ele>2470.4</ele>
        <time>2026-07-15T09:43:06Z</time>
      </trkpt>
      <trkpt lat="42.87057" lon="-0.19214">
        <ele>2470.4</ele>
        <time>2026-07-15T09:43:07Z</time>
      </trkpt>
      <trkpt lat="42.87057" lon="-0.19214">
        <ele>2470.4</ele>
        <time>2026-07-15T09:43:08Z</time>
      </trkpt>
      <trkpt lat="42.87058" lon="-0.19215">
        <ele>2470.4</ele>
        <time>2026-07-15T09:43:09Z</time>
      </trkpt>
      <trkpt lat="42.87058" lon="-0.19215">
        <ele>2470.4</ele>
        <time>2026-07-15T09:43:10Z</time>
      </trkpt>
      <trkpt lat="42.87058" lon="-0.19215">
        <ele>2470.4</ele>
        <time>2026-07-15T09:43:11Z</time>
      </trkpt>
      <trkpt lat="42.87058" lon="-0.19215">
        <ele>2470.4</ele>
        <time>2026-07-15T09:43:12Z</time>
      </trkpt>
      <trkpt lat="42.87058" lon="-0.19215">
        <ele>2470.4</ele>
        <time>2026-07-15T09:43:13Z</time>
      </trkpt>
      <trkpt lat="42.87058" lon="-0.19215">
        <ele>2469.4</ele>
        <time>2026-07-15T09:43:14Z</time>
      </trkpt>
      <trkpt lat="42.87058" lon="-0.19215">
        <ele>2469.4</ele>
        <time>2026-07-15T09:43:15Z</time>
      </trkpt>
      <trkpt lat="42.87058" lon="-0.19215">
        <ele>2469.4</ele>
        <time>2026-07-15T09:43:16Z</time>
      </trkpt>
      <trkpt lat="42.87058" lon="-0.19215">
        <ele>2469.4</ele>
        <time>2026-07-15T09:43:17Z</time>
      </trkpt>
      <trkpt lat="42.87057" lon="-0.19215">
        <ele>2469.4</ele>
        <time>2026-07-15T09:43:18Z</time>
      </trkpt>
      <trkpt lat="42.87058" lon="-0.19217">
        <ele>2469.4</ele>
        <time>2026-07-15T09:43:19Z</time>
      </trkpt>
      <trkpt lat="42.87058" lon="-0.19218">
        <ele>2468.4</ele>
        <time>2026-07-15T09:43:20Z</time>
      </trkpt>
      <trkpt lat="42.87058" lon="-0.19218">
        <ele>2469.4</ele>
        <time>2026-07-15T09:43:21Z</time>
      </trkpt>
      <trkpt lat="42.87058" lon="-0.19218">
        <ele>2469.4</ele>
        <time>2026-07-15T09:43:22Z</time>
      </trkpt>
      <trkpt lat="42.87058" lon="-0.19218">
        <ele>2469.4</ele>
        <time>2026-07-15T09:43:23Z</time>
      </trkpt>
      <trkpt lat="42.87058" lon="-0.19217">
        <ele>2469.4</ele>
        <time>2026-07-15T09:43:24Z</time>
      </trkpt>
      <trkpt lat="42.87058" lon="-0.19217">
        <ele>2469.4</ele>
        <time>2026-07-15T09:43:25Z</time>
      </trkpt>
      <trkpt lat="42.87058" lon="-0.19217">
        <ele>2469.4</ele>
        <time>2026-07-15T09:43:26Z</time>
      </trkpt>
      <trkpt lat="42.87058" lon="-0.19217">
        <ele>2469.4</ele>
        <time>2026-07-15T09:43:27Z</time>
      </trkpt>
      <trkpt lat="42.87058" lon="-0.19217">
        <ele>2469.4</ele>
        <time>2026-07-15T09:43:28Z</time>
      </trkpt>
      <trkpt lat="42.87058" lon="-0.19217">
        <ele>2469.4</ele>
        <time>2026-07-15T09:43:29Z</time>
      </trkpt>
      <trkpt lat="42.87058" lon="-0.19217">
        <ele>2469.4</ele>
        <time>2026-07-15T09:43:30Z</time>
      </trkpt>
      <trkpt lat="42.87058" lon="-0.19217">
        <ele>2469.4</ele>
        <time>2026-07-15T09:43:31Z</time>
      </trkpt>
      <trkpt lat="42.87058" lon="-0.19217">
        <ele>2469.4</ele>
        <time>2026-07-15T09:43:32Z</time>
      </trkpt>
      <trkpt lat="42.87058" lon="-0.19217">
        <ele>2469.4</ele>
        <time>2026-07-15T09:43:33Z</time>
      </trkpt>
      <trkpt lat="42.87058" lon="-0.19217">
        <ele>2469.4</ele>
        <time>2026-07-15T09:43:34Z</time>
      </trkpt>
      <trkpt lat="42.87058" lon="-0.19217">
        <ele>2469.4</ele>
        <time>2026-07-15T09:43:35Z</time>
      </trkpt>
      <trkpt lat="42.87058" lon="-0.19217">
        <ele>2469.4</ele>
        <time>2026-07-15T09:43:36Z</time>
      </trkpt>
      <trkpt lat="42.87058" lon="-0.19217">
        <ele>2469.4</ele>
        <time>2026-07-15T09:43:37Z</time>
      </trkpt>
      <trkpt lat="42.87058" lon="-0.19217">
        <ele>2469.4</ele>
        <time>2026-07-15T09:43:38Z</time>
      </trkpt>
      <trkpt lat="42.87058" lon="-0.19217">
        <ele>2469.4</ele>
        <time>2026-07-15T09:43:39Z</time>
      </trkpt>
      <trkpt lat="42.87058" lon="-0.19217">
        <ele>2469.4</ele>
        <time>2026-07-15T09:43:40Z</time>
      </trkpt>
      <trkpt lat="42.87058" lon="-0.19217">
        <ele>2469.4</ele>
        <time>2026-07-15T09:43:41Z</time>
      </trkpt>
      <trkpt lat="42.87059" lon="-0.19219">
        <ele>2470.4</ele>
        <time>2026-07-15T09:43:42Z</time>
      </trkpt>
      <trkpt lat="42.87059" lon="-0.19219">
        <ele>2469.4</ele>
        <time>2026-07-15T09:43:43Z</time>
      </trkpt>
      <trkpt lat="42.87059" lon="-0.19219">
        <ele>2469.4</ele>
        <time>2026-07-15T09:43:44Z</time>
      </trkpt>
      <trkpt lat="42.87058" lon="-0.19219">
        <ele>2469.4</ele>
        <time>2026-07-15T09:43:45Z</time>
      </trkpt>
      <trkpt lat="42.87058" lon="-0.19219">
        <ele>2469.4</ele>
        <time>2026-07-15T09:43:46Z</time>
      </trkpt>
      <trkpt lat="42.87058" lon="-0.19219">
        <ele>2468.4</ele>
        <time>2026-07-15T09:43:47Z</time>
      </trkpt>
      <trkpt lat="42.87057" lon="-0.19219">
        <ele>2468.4</ele>
        <time>2026-07-15T09:43:48Z</time>
      </trkpt>
      <trkpt lat="42.87057" lon="-0.19219">
        <ele>2468.4</ele>
        <time>2026-07-15T09:43:49Z</time>
      </trkpt>
      <trkpt lat="42.87057" lon="-0.19219">
        <ele>2468.4</ele>
        <time>2026-07-15T09:43:50Z</time>
      </trkpt>
      <trkpt lat="42.87057" lon="-0.19219">
        <ele>2468.4</ele>
        <time>2026-07-15T09:43:51Z</time>
      </trkpt>
      <trkpt lat="42.87057" lon="-0.1922">
        <ele>2468.4</ele>
        <time>2026-07-15T09:43:52Z</time>
      </trkpt>
      <trkpt lat="42.87057" lon="-0.1922">
        <ele>2468.4</ele>
        <time>2026-07-15T09:43:53Z</time>
      </trkpt>
      <trkpt lat="42.87056" lon="-0.1922">
        <ele>2468.4</ele>
        <time>2026-07-15T09:43:54Z</time>
      </trkpt>
      <trkpt lat="42.87056" lon="-0.1922">
        <ele>2468.4</ele>
        <time>2026-07-15T09:43:55Z</time>
      </trkpt>
      <trkpt lat="42.87055" lon="-0.19221">
        <ele>2467.4</ele>
        <time>2026-07-15T09:43:56Z</time>
      </trkpt>
      <trkpt lat="42.87056" lon="-0.19221">
        <ele>2467.4</ele>
        <time>2026-07-15T09:43:57Z</time>
      </trkpt>
      <trkpt lat="42.87055" lon="-0.19222">
        <ele>2467.4</ele>
        <time>2026-07-15T09:43:58Z</time>
      </trkpt>
      <trkpt lat="42.87054" lon="-0.19222">
        <ele>2467.4</ele>
        <time>2026-07-15T09:43:59Z</time>
      </trkpt>
      <trkpt lat="42.87054" lon="-0.19221">
        <ele>2467.4</ele>
        <time>2026-07-15T09:44:00Z</time>
      </trkpt>
      <trkpt lat="42.87054" lon="-0.19222">
        <ele>2467.4</ele>
        <time>2026-07-15T09:44:01Z</time>
      </trkpt>
      <trkpt lat="42.87054" lon="-0.19222">
        <ele>2467.4</ele>
        <time>2026-07-15T09:44:02Z</time>
      </trkpt>
      <trkpt lat="42.87054" lon="-0.19222">
        <ele>2467.4</ele>
        <time>2026-07-15T09:44:03Z</time>
      </trkpt>
      <trkpt lat="42.87054" lon="-0.19222">
        <ele>2467.4</ele>
        <time>2026-07-15T09:44:04Z</time>
      </trkpt>
      <trkpt lat="42.87054" lon="-0.19222">
        <ele>2467.4</ele>
        <time>2026-07-15T09:44:05Z</time>
      </trkpt>
      <trkpt lat="42.87054" lon="-0.19222">
        <ele>2467.4</ele>
        <time>2026-07-15T09:44:06Z</time>
      </trkpt>
      <trkpt lat="42.87054" lon="-0.19222">
        <ele>2467.4</ele>
        <time>2026-07-15T09:44:07Z</time>
      </trkpt>
      <trkpt lat="42.87054" lon="-0.19222">
        <ele>2467.4</ele>
        <time>2026-07-15T09:44:08Z</time>
      </trkpt>
      <trkpt lat="42.87054" lon="-0.19222">
        <ele>2467.4</ele>
        <time>2026-07-15T09:44:09Z</time>
      </trkpt>
      <trkpt lat="42.87054" lon="-0.19222">
        <ele>2467.4</ele>
        <time>2026-07-15T09:44:10Z</time>
      </trkpt>
      <trkpt lat="42.87054" lon="-0.19222">
        <ele>2467.4</ele>
        <time>2026-07-15T09:44:11Z</time>
      </trkpt>
      <trkpt lat="42.87054" lon="-0.19222">
        <ele>2467.4</ele>
        <time>2026-07-15T09:44:12Z</time>
      </trkpt>
      <trkpt lat="42.87054" lon="-0.19222">
        <ele>2467.4</ele>
        <time>2026-07-15T09:44:13Z</time>
      </trkpt>
      <trkpt lat="42.87054" lon="-0.19224">
        <ele>2467.4</ele>
        <time>2026-07-15T09:44:14Z</time>
      </trkpt>
      <trkpt lat="42.87055" lon="-0.19225">
        <ele>2466.4</ele>
        <time>2026-07-15T09:44:15Z</time>
      </trkpt>
      <trkpt lat="42.87055" lon="-0.19225">
        <ele>2467.4</ele>
        <time>2026-07-15T09:44:16Z</time>
      </trkpt>
      <trkpt lat="42.87055" lon="-0.19225">
        <ele>2467.4</ele>
        <time>2026-07-15T09:44:17Z</time>
      </trkpt>
      <trkpt lat="42.87054" lon="-0.19225">
        <ele>2467.4</ele>
        <time>2026-07-15T09:44:18Z</time>
      </trkpt>
      <trkpt lat="42.87054" lon="-0.19225">
        <ele>2467.4</ele>
        <time>2026-07-15T09:44:19Z</time>
      </trkpt>
      <trkpt lat="42.87054" lon="-0.19225">
        <ele>2467.4</ele>
        <time>2026-07-15T09:44:20Z</time>
      </trkpt>
      <trkpt lat="42.87054" lon="-0.19226">
        <ele>2467.4</ele>
        <time>2026-07-15T09:44:21Z</time>
      </trkpt>
      <trkpt lat="42.87053" lon="-0.19226">
        <ele>2468.4</ele>
        <time>2026-07-15T09:44:22Z</time>
      </trkpt>
      <trkpt lat="42.87053" lon="-0.19227">
        <ele>2469.4</ele>
        <time>2026-07-15T09:44:23Z</time>
      </trkpt>
      <trkpt lat="42.87053" lon="-0.19229">
        <ele>2468.4</ele>
        <time>2026-07-15T09:44:24Z</time>
      </trkpt>
      <trkpt lat="42.87053" lon="-0.19229">
        <ele>2468.4</ele>
        <time>2026-07-15T09:44:25Z</time>
      </trkpt>
      <trkpt lat="42.87054" lon="-0.19229">
        <ele>2469.4</ele>
        <time>2026-07-15T09:44:26Z</time>
      </trkpt>
      <trkpt lat="42.87054" lon="-0.1923">
        <ele>2469.4</ele>
        <time>2026-07-15T09:44:27Z</time>
      </trkpt>
      <trkpt lat="42.87054" lon="-0.19231">
        <ele>2470.4</ele>
        <time>2026-07-15T09:44:28Z</time>
      </trkpt>
      <trkpt lat="42.87054" lon="-0.19231">
        <ele>2470.4</ele>
        <time>2026-07-15T09:44:29Z</time>
      </trkpt>
      <trkpt lat="42.87054" lon="-0.19231">
        <ele>2470.4</ele>
        <time>2026-07-15T09:44:30Z</time>
      </trkpt>
      <trkpt lat="42.87054" lon="-0.19232">
        <ele>2469.4</ele>
        <time>2026-07-15T09:44:31Z</time>
      </trkpt>
      <trkpt lat="42.87055" lon="-0.19231">
        <ele>2468.4</ele>
        <time>2026-07-15T09:44:32Z</time>
      </trkpt>
      <trkpt lat="42.87055" lon="-0.19231">
        <ele>2467.4</ele>
        <time>2026-07-15T09:44:33Z</time>
      </trkpt>
      <trkpt lat="42.87055" lon="-0.19231">
        <ele>2467.4</ele>
        <time>2026-07-15T09:44:34Z</time>
      </trkpt>
      <trkpt lat="42.87056" lon="-0.19231">
        <ele>2466.4</ele>
        <time>2026-07-15T09:44:35Z</time>
      </trkpt>
      <trkpt lat="42.87056" lon="-0.1923">
        <ele>2465.4</ele>
        <time>2026-07-15T09:44:36Z</time>
      </trkpt>
      <trkpt lat="42.87056" lon="-0.19231">
        <ele>2465.4</ele>
        <time>2026-07-15T09:44:37Z</time>
      </trkpt>
      <trkpt lat="42.87055" lon="-0.19231">
        <ele>2464.4</ele>
        <time>2026-07-15T09:44:38Z</time>
      </trkpt>
      <trkpt lat="42.87055" lon="-0.19231">
        <ele>2465.4</ele>
        <time>2026-07-15T09:44:39Z</time>
      </trkpt>
      <trkpt lat="42.87055" lon="-0.19231">
        <ele>2464.4</ele>
        <time>2026-07-15T09:44:40Z</time>
      </trkpt>
      <trkpt lat="42.87055" lon="-0.19231">
        <ele>2464.4</ele>
        <time>2026-07-15T09:44:41Z</time>
      </trkpt>
      <trkpt lat="42.87056" lon="-0.19232">
        <ele>2463.4</ele>
        <time>2026-07-15T09:44:42Z</time>
      </trkpt>
      <trkpt lat="42.87056" lon="-0.19232">
        <ele>2463.4</ele>
        <time>2026-07-15T09:44:43Z</time>
      </trkpt>
      <trkpt lat="42.87056" lon="-0.19232">
        <ele>2463.4</ele>
        <time>2026-07-15T09:44:44Z</time>
      </trkpt>
      <trkpt lat="42.87056" lon="-0.19232">
        <ele>2462.4</ele>
        <time>2026-07-15T09:44:45Z</time>
      </trkpt>
      <trkpt lat="42.87056" lon="-0.19232">
        <ele>2463.4</ele>
        <time>2026-07-15T09:44:46Z</time>
      </trkpt>
      <trkpt lat="42.87056" lon="-0.19232">
        <ele>2463.4</ele>
        <time>2026-07-15T09:44:47Z</time>
      </trkpt>
      <trkpt lat="42.87056" lon="-0.1923">
        <ele>2461.4</ele>
        <time>2026-07-15T09:44:48Z</time>
      </trkpt>
      <trkpt lat="42.87057" lon="-0.1923">
        <ele>2462.4</ele>
        <time>2026-07-15T09:44:49Z</time>
      </trkpt>
      <trkpt lat="42.87057" lon="-0.19232">
        <ele>2463.4</ele>
        <time>2026-07-15T09:44:50Z</time>
      </trkpt>
      <trkpt lat="42.87057" lon="-0.19231">
        <ele>2463.4</ele>
        <time>2026-07-15T09:44:51Z</time>
      </trkpt>
      <trkpt lat="42.87057" lon="-0.19231">
        <ele>2463.4</ele>
        <time>2026-07-15T09:44:52Z</time>
      </trkpt>
      <trkpt lat="42.87057" lon="-0.19231">
        <ele>2463.4</ele>
        <time>2026-07-15T09:44:53Z</time>
      </trkpt>
      <trkpt lat="42.87057" lon="-0.19231">
        <ele>2463.4</ele>
        <time>2026-07-15T09:44:54Z</time>
      </trkpt>
      <trkpt lat="42.87059" lon="-0.19231">
        <ele>2464.4</ele>
        <time>2026-07-15T09:44:55Z</time>
      </trkpt>
      <trkpt lat="42.87059" lon="-0.19232">
        <ele>2465.4</ele>
        <time>2026-07-15T09:44:56Z</time>
      </trkpt>
      <trkpt lat="42.87059" lon="-0.19233">
        <ele>2466.4</ele>
        <time>2026-07-15T09:44:57Z</time>
      </trkpt>
      <trkpt lat="42.87059" lon="-0.19233">
        <ele>2466.4</ele>
        <time>2026-07-15T09:44:58Z</time>
      </trkpt>
      <trkpt lat="42.87059" lon="-0.19234">
        <ele>2466.4</ele>
        <time>2026-07-15T09:44:59Z</time>
      </trkpt>
      <trkpt lat="42.8706" lon="-0.19234">
        <ele>2465.4</ele>
        <time>2026-07-15T09:45:00Z</time>
      </trkpt>
      <trkpt lat="42.8706" lon="-0.19234">
        <ele>2465.4</ele>
        <time>2026-07-15T09:45:01Z</time>
      </trkpt>
      <trkpt lat="42.8706" lon="-0.19234">
        <ele>2465.4</ele>
        <time>2026-07-15T09:45:02Z</time>
      </trkpt>
      <trkpt lat="42.8706" lon="-0.19234">
        <ele>2464.4</ele>
        <time>2026-07-15T09:45:03Z</time>
      </trkpt>
      <trkpt lat="42.8706" lon="-0.19234">
        <ele>2464.4</ele>
        <time>2026-07-15T09:45:04Z</time>
      </trkpt>
      <trkpt lat="42.8706" lon="-0.19234">
        <ele>2464.4</ele>
        <time>2026-07-15T09:45:05Z</time>
      </trkpt>
      <trkpt lat="42.8706" lon="-0.19234">
        <ele>2464.4</ele>
        <time>2026-07-15T09:45:06Z</time>
      </trkpt>
      <trkpt lat="42.8706" lon="-0.19234">
        <ele>2464.4</ele>
        <time>2026-07-15T09:45:07Z</time>
      </trkpt>
      <trkpt lat="42.8706" lon="-0.19234">
        <ele>2464.4</ele>
        <time>2026-07-15T09:45:08Z</time>
      </trkpt>
      <trkpt lat="42.8706" lon="-0.19234">
        <ele>2464.4</ele>
        <time>2026-07-15T09:45:09Z</time>
      </trkpt>
      <trkpt lat="42.8706" lon="-0.19234">
        <ele>2464.4</ele>
        <time>2026-07-15T09:45:10Z</time>
      </trkpt>
      <trkpt lat="42.8706" lon="-0.19234">
        <ele>2462.4</ele>
        <time>2026-07-15T09:45:11Z</time>
      </trkpt>
      <trkpt lat="42.87061" lon="-0.19235">
        <ele>2461.4</ele>
        <time>2026-07-15T09:45:12Z</time>
      </trkpt>
      <trkpt lat="42.8706" lon="-0.19235">
        <ele>2462.4</ele>
        <time>2026-07-15T09:45:13Z</time>
      </trkpt>
      <trkpt lat="42.8706" lon="-0.19235">
        <ele>2460.4</ele>
        <time>2026-07-15T09:45:14Z</time>
      </trkpt>
      <trkpt lat="42.87061" lon="-0.19236">
        <ele>2460.4</ele>
        <time>2026-07-15T09:45:15Z</time>
      </trkpt>
      <trkpt lat="42.87062" lon="-0.19236">
        <ele>2460.4</ele>
        <time>2026-07-15T09:45:16Z</time>
      </trkpt>
      <trkpt lat="42.87063" lon="-0.19236">
        <ele>2460.4</ele>
        <time>2026-07-15T09:45:17Z</time>
      </trkpt>
      <trkpt lat="42.87063" lon="-0.19237">
        <ele>2460.4</ele>
        <time>2026-07-15T09:45:18Z</time>
      </trkpt>
      <trkpt lat="42.87063" lon="-0.19237">
        <ele>2460.4</ele>
        <time>2026-07-15T09:45:19Z</time>
      </trkpt>
      <trkpt lat="42.87063" lon="-0.19236">
        <ele>2460.4</ele>
        <time>2026-07-15T09:45:20Z</time>
      </trkpt>
      <trkpt lat="42.87062" lon="-0.19236">
        <ele>2460.4</ele>
        <time>2026-07-15T09:45:21Z</time>
      </trkpt>
      <trkpt lat="42.87062" lon="-0.19236">
        <ele>2460.4</ele>
        <time>2026-07-15T09:45:22Z</time>
      </trkpt>
      <trkpt lat="42.87062" lon="-0.19237">
        <ele>2460.4</ele>
        <time>2026-07-15T09:45:23Z</time>
      </trkpt>
      <trkpt lat="42.87063" lon="-0.19236">
        <ele>2460.4</ele>
        <time>2026-07-15T09:45:24Z</time>
      </trkpt>
      <trkpt lat="42.87063" lon="-0.19236">
        <ele>2460.4</ele>
        <time>2026-07-15T09:45:25Z</time>
      </trkpt>
      <trkpt lat="42.87063" lon="-0.19236">
        <ele>2460.4</ele>
        <time>2026-07-15T09:45:26Z</time>
      </trkpt>
      <trkpt lat="42.87063" lon="-0.19236">
        <ele>2460.4</ele>
        <time>2026-07-15T09:45:27Z</time>
      </trkpt>
      <trkpt lat="42.87063" lon="-0.19237">
        <ele>2460.4</ele>
        <time>2026-07-15T09:45:28Z</time>
      </trkpt>
      <trkpt lat="42.87063" lon="-0.19238">
        <ele>2460.4</ele>
        <time>2026-07-15T09:45:29Z</time>
      </trkpt>
      <trkpt lat="42.87063" lon="-0.19238">
        <ele>2459.4</ele>
        <time>2026-07-15T09:45:30Z</time>
      </trkpt>
      <trkpt lat="42.87062" lon="-0.19238">
        <ele>2459.4</ele>
        <time>2026-07-15T09:45:31Z</time>
      </trkpt>
      <trkpt lat="42.87062" lon="-0.19238">
        <ele>2459.4</ele>
        <time>2026-07-15T09:45:32Z</time>
      </trkpt>
      <trkpt lat="42.87062" lon="-0.19238">
        <ele>2459.4</ele>
        <time>2026-07-15T09:45:33Z</time>
      </trkpt>
      <trkpt lat="42.87063" lon="-0.19238">
        <ele>2460.4</ele>
        <time>2026-07-15T09:45:34Z</time>
      </trkpt>
      <trkpt lat="42.87063" lon="-0.19239">
        <ele>2460.4</ele>
        <time>2026-07-15T09:45:35Z</time>
      </trkpt>
      <trkpt lat="42.87063" lon="-0.19238">
        <ele>2461.4</ele>
        <time>2026-07-15T09:45:36Z</time>
      </trkpt>
      <trkpt lat="42.87063" lon="-0.19239">
        <ele>2461.4</ele>
        <time>2026-07-15T09:45:37Z</time>
      </trkpt>
      <trkpt lat="42.87063" lon="-0.1924">
        <ele>2461.4</ele>
        <time>2026-07-15T09:45:38Z</time>
      </trkpt>
      <trkpt lat="42.87063" lon="-0.1924">
        <ele>2462.4</ele>
        <time>2026-07-15T09:45:39Z</time>
      </trkpt>
      <trkpt lat="42.87063" lon="-0.1924">
        <ele>2462.4</ele>
        <time>2026-07-15T09:45:40Z</time>
      </trkpt>
      <trkpt lat="42.87064" lon="-0.1924">
        <ele>2462.4</ele>
        <time>2026-07-15T09:45:41Z</time>
      </trkpt>
      <trkpt lat="42.87064" lon="-0.19239">
        <ele>2462.4</ele>
        <time>2026-07-15T09:45:42Z</time>
      </trkpt>
      <trkpt lat="42.87064" lon="-0.19239">
        <ele>2462.4</ele>
        <time>2026-07-15T09:45:43Z</time>
      </trkpt>
      <trkpt lat="42.87063" lon="-0.1924">
        <ele>2462.4</ele>
        <time>2026-07-15T09:45:44Z</time>
      </trkpt>
      <trkpt lat="42.87063" lon="-0.19241">
        <ele>2463.4</ele>
        <time>2026-07-15T09:45:45Z</time>
      </trkpt>
      <trkpt lat="42.87062" lon="-0.19241">
        <ele>2462.4</ele>
        <time>2026-07-15T09:45:46Z</time>
      </trkpt>
      <trkpt lat="42.87063" lon="-0.19242">
        <ele>2462.4</ele>
        <time>2026-07-15T09:45:47Z</time>
      </trkpt>
      <trkpt lat="42.87064" lon="-0.19242">
        <ele>2463.4</ele>
        <time>2026-07-15T09:45:48Z</time>
      </trkpt>
      <trkpt lat="42.87064" lon="-0.19241">
        <ele>2463.4</ele>
        <time>2026-07-15T09:45:49Z</time>
      </trkpt>
      <trkpt lat="42.87065" lon="-0.1924">
        <ele>2461.4</ele>
        <time>2026-07-15T09:45:50Z</time>
      </trkpt>
      <trkpt lat="42.87065" lon="-0.1924">
        <ele>2461.4</ele>
        <time>2026-07-15T09:45:51Z</time>
      </trkpt>
      <trkpt lat="42.87065" lon="-0.1924">
        <ele>2461.4</ele>
        <time>2026-07-15T09:45:52Z</time>
      </trkpt>
      <trkpt lat="42.87065" lon="-0.1924">
        <ele>2462.4</ele>
        <time>2026-07-15T09:45:53Z</time>
      </trkpt>
      <trkpt lat="42.87065" lon="-0.19241">
        <ele>2461.4</ele>
        <time>2026-07-15T09:45:54Z</time>
      </trkpt>
      <trkpt lat="42.87065" lon="-0.19241">
        <ele>2461.4</ele>
        <time>2026-07-15T09:45:55Z</time>
      </trkpt>
      <trkpt lat="42.87065" lon="-0.19241">
        <ele>2460.4</ele>
        <time>2026-07-15T09:45:56Z</time>
      </trkpt>
      <trkpt lat="42.87065" lon="-0.19241">
        <ele>2460.4</ele>
        <time>2026-07-15T09:45:57Z</time>
      </trkpt>
      <trkpt lat="42.87064" lon="-0.19241">
        <ele>2459.4</ele>
        <time>2026-07-15T09:45:58Z</time>
      </trkpt>
      <trkpt lat="42.87064" lon="-0.19242">
        <ele>2459.4</ele>
        <time>2026-07-15T09:45:59Z</time>
      </trkpt>
      <trkpt lat="42.87064" lon="-0.19242">
        <ele>2458.4</ele>
        <time>2026-07-15T09:46:00Z</time>
      </trkpt>
      <trkpt lat="42.87065" lon="-0.19242">
        <ele>2457.4</ele>
        <time>2026-07-15T09:46:01Z</time>
      </trkpt>
      <trkpt lat="42.87065" lon="-0.19242">
        <ele>2457.4</ele>
        <time>2026-07-15T09:46:02Z</time>
      </trkpt>
      <trkpt lat="42.87065" lon="-0.19242">
        <ele>2457.4</ele>
        <time>2026-07-15T09:46:03Z</time>
      </trkpt>
      <trkpt lat="42.87065" lon="-0.19243">
        <ele>2457.4</ele>
        <time>2026-07-15T09:46:04Z</time>
      </trkpt>
      <trkpt lat="42.87065" lon="-0.19242">
        <ele>2457.4</ele>
        <time>2026-07-15T09:46:05Z</time>
      </trkpt>
      <trkpt lat="42.87064" lon="-0.19242">
        <ele>2458.4</ele>
        <time>2026-07-15T09:46:06Z</time>
      </trkpt>
      <trkpt lat="42.87063" lon="-0.19242">
        <ele>2457.4</ele>
        <time>2026-07-15T09:46:07Z</time>
      </trkpt>
      <trkpt lat="42.87062" lon="-0.19243">
        <ele>2457.4</ele>
        <time>2026-07-15T09:46:08Z</time>
      </trkpt>
      <trkpt lat="42.87062" lon="-0.19243">
        <ele>2458.4</ele>
        <time>2026-07-15T09:46:09Z</time>
      </trkpt>
      <trkpt lat="42.87062" lon="-0.19242">
        <ele>2457.4</ele>
        <time>2026-07-15T09:46:10Z</time>
      </trkpt>
      <trkpt lat="42.87062" lon="-0.19242">
        <ele>2457.4</ele>
        <time>2026-07-15T09:46:11Z</time>
      </trkpt>
      <trkpt lat="42.87062" lon="-0.19242">
        <ele>2457.4</ele>
        <time>2026-07-15T09:46:12Z</time>
      </trkpt>
      <trkpt lat="42.87062" lon="-0.19242">
        <ele>2457.4</ele>
        <time>2026-07-15T09:46:13Z</time>
      </trkpt>
      <trkpt lat="42.87062" lon="-0.19241">
        <ele>2457.4</ele>
        <time>2026-07-15T09:46:14Z</time>
      </trkpt>
      <trkpt lat="42.87062" lon="-0.19241">
        <ele>2457.4</ele>
        <time>2026-07-15T09:46:15Z</time>
      </trkpt>
      <trkpt lat="42.87062" lon="-0.19241">
        <ele>2457.4</ele>
        <time>2026-07-15T09:46:16Z</time>
      </trkpt>
      <trkpt lat="42.87062" lon="-0.19241">
        <ele>2457.4</ele>
        <time>2026-07-15T09:46:17Z</time>
      </trkpt>
      <trkpt lat="42.87062" lon="-0.19244">
        <ele>2457.4</ele>
        <time>2026-07-15T09:46:18Z</time>
      </trkpt>
      <trkpt lat="42.87062" lon="-0.19245">
        <ele>2457.4</ele>
        <time>2026-07-15T09:46:19Z</time>
      </trkpt>
      <trkpt lat="42.87063" lon="-0.19245">
        <ele>2457.4</ele>
        <time>2026-07-15T09:46:20Z</time>
      </trkpt>
      <trkpt lat="42.87063" lon="-0.19245">
        <ele>2457.4</ele>
        <time>2026-07-15T09:46:21Z</time>
      </trkpt>
      <trkpt lat="42.87063" lon="-0.19245">
        <ele>2457.4</ele>
        <time>2026-07-15T09:46:22Z</time>
      </trkpt>
      <trkpt lat="42.87063" lon="-0.19245">
        <ele>2458.4</ele>
        <time>2026-07-15T09:46:23Z</time>
      </trkpt>
      <trkpt lat="42.87064" lon="-0.19246">
        <ele>2457.4</ele>
        <time>2026-07-15T09:46:24Z</time>
      </trkpt>
      <trkpt lat="42.87064" lon="-0.19246">
        <ele>2457.4</ele>
        <time>2026-07-15T09:46:25Z</time>
      </trkpt>
      <trkpt lat="42.87065" lon="-0.19246">
        <ele>2458.4</ele>
        <time>2026-07-15T09:46:26Z</time>
      </trkpt>
      <trkpt lat="42.87065" lon="-0.19246">
        <ele>2458.4</ele>
        <time>2026-07-15T09:46:27Z</time>
      </trkpt>
      <trkpt lat="42.87065" lon="-0.19246">
        <ele>2458.4</ele>
        <time>2026-07-15T09:46:28Z</time>
      </trkpt>
      <trkpt lat="42.87064" lon="-0.19246">
        <ele>2458.4</ele>
        <time>2026-07-15T09:46:29Z</time>
      </trkpt>
      <trkpt lat="42.87065" lon="-0.19247">
        <ele>2458.4</ele>
        <time>2026-07-15T09:46:30Z</time>
      </trkpt>
      <trkpt lat="42.87065" lon="-0.19247">
        <ele>2458.4</ele>
        <time>2026-07-15T09:46:31Z</time>
      </trkpt>
      <trkpt lat="42.87066" lon="-0.19247">
        <ele>2458.4</ele>
        <time>2026-07-15T09:46:32Z</time>
      </trkpt>
      <trkpt lat="42.87065" lon="-0.19248">
        <ele>2457.4</ele>
        <time>2026-07-15T09:46:33Z</time>
      </trkpt>
      <trkpt lat="42.87065" lon="-0.19248">
        <ele>2457.4</ele>
        <time>2026-07-15T09:46:34Z</time>
      </trkpt>
      <trkpt lat="42.87065" lon="-0.19248">
        <ele>2456.4</ele>
        <time>2026-07-15T09:46:35Z</time>
      </trkpt>
      <trkpt lat="42.87065" lon="-0.19248">
        <ele>2456.4</ele>
        <time>2026-07-15T09:46:36Z</time>
      </trkpt>
      <trkpt lat="42.87065" lon="-0.19247">
        <ele>2456.4</ele>
        <time>2026-07-15T09:46:37Z</time>
      </trkpt>
      <trkpt lat="42.87065" lon="-0.19247">
        <ele>2457.4</ele>
        <time>2026-07-15T09:46:38Z</time>
      </trkpt>
      <trkpt lat="42.87065" lon="-0.19247">
        <ele>2456.4</ele>
        <time>2026-07-15T09:46:39Z</time>
      </trkpt>
      <trkpt lat="42.87065" lon="-0.19246">
        <ele>2456.4</ele>
        <time>2026-07-15T09:46:40Z</time>
      </trkpt>
      <trkpt lat="42.87065" lon="-0.19248">
        <ele>2456.4</ele>
        <time>2026-07-15T09:46:41Z</time>
      </trkpt>
      <trkpt lat="42.87065" lon="-0.19248">
        <ele>2456.4</ele>
        <time>2026-07-15T09:46:42Z</time>
      </trkpt>
      <trkpt lat="42.87065" lon="-0.19248">
        <ele>2456.4</ele>
        <time>2026-07-15T09:46:43Z</time>
      </trkpt>
      <trkpt lat="42.87064" lon="-0.19249">
        <ele>2456.4</ele>
        <time>2026-07-15T09:46:44Z</time>
      </trkpt>
      <trkpt lat="42.87063" lon="-0.1925">
        <ele>2456.4</ele>
        <time>2026-07-15T09:46:45Z</time>
      </trkpt>
      <trkpt lat="42.87062" lon="-0.19252">
        <ele>2455.4</ele>
        <time>2026-07-15T09:46:46Z</time>
      </trkpt>
      <trkpt lat="42.87061" lon="-0.19252">
        <ele>2455.4</ele>
        <time>2026-07-15T09:46:47Z</time>
      </trkpt>
      <trkpt lat="42.87059" lon="-0.19252">
        <ele>2455.4</ele>
        <time>2026-07-15T09:46:48Z</time>
      </trkpt>
      <trkpt lat="42.87059" lon="-0.19252">
        <ele>2455.4</ele>
        <time>2026-07-15T09:46:49Z</time>
      </trkpt>
      <trkpt lat="42.87059" lon="-0.19251">
        <ele>2455.4</ele>
        <time>2026-07-15T09:46:50Z</time>
      </trkpt>
      <trkpt lat="42.87059" lon="-0.19252">
        <ele>2455.4</ele>
        <time>2026-07-15T09:46:51Z</time>
      </trkpt>
      <trkpt lat="42.87059" lon="-0.19252">
        <ele>2455.4</ele>
        <time>2026-07-15T09:46:52Z</time>
      </trkpt>
      <trkpt lat="42.87058" lon="-0.19252">
        <ele>2454.4</ele>
        <time>2026-07-15T09:46:53Z</time>
      </trkpt>
      <trkpt lat="42.87058" lon="-0.19252">
        <ele>2454.4</ele>
        <time>2026-07-15T09:46:54Z</time>
      </trkpt>
      <trkpt lat="42.87059" lon="-0.19253">
        <ele>2454.4</ele>
        <time>2026-07-15T09:46:55Z</time>
      </trkpt>
      <trkpt lat="42.8706" lon="-0.19253">
        <ele>2454.4</ele>
        <time>2026-07-15T09:46:56Z</time>
      </trkpt>
      <trkpt lat="42.8706" lon="-0.19253">
        <ele>2454.4</ele>
        <time>2026-07-15T09:46:57Z</time>
      </trkpt>
      <trkpt lat="42.87061" lon="-0.19253">
        <ele>2453.4</ele>
        <time>2026-07-15T09:46:58Z</time>
      </trkpt>
      <trkpt lat="42.87062" lon="-0.19253">
        <ele>2453.4</ele>
        <time>2026-07-15T09:46:59Z</time>
      </trkpt>
      <trkpt lat="42.87063" lon="-0.19253">
        <ele>2453.4</ele>
        <time>2026-07-15T09:47:00Z</time>
      </trkpt>
      <trkpt lat="42.87064" lon="-0.19254">
        <ele>2453.4</ele>
        <time>2026-07-15T09:47:01Z</time>
      </trkpt>
      <trkpt lat="42.87065" lon="-0.19254">
        <ele>2453.4</ele>
        <time>2026-07-15T09:47:02Z</time>
      </trkpt>
      <trkpt lat="42.87066" lon="-0.19253">
        <ele>2453.4</ele>
        <time>2026-07-15T09:47:03Z</time>
      </trkpt>
      <trkpt lat="42.87067" lon="-0.19253">
        <ele>2453.4</ele>
        <time>2026-07-15T09:47:04Z</time>
      </trkpt>
      <trkpt lat="42.87068" lon="-0.19253">
        <ele>2453.4</ele>
        <time>2026-07-15T09:47:05Z</time>
      </trkpt>
      <trkpt lat="42.87068" lon="-0.19253">
        <ele>2453.4</ele>
        <time>2026-07-15T09:47:06Z</time>
      </trkpt>
      <trkpt lat="42.87069" lon="-0.19253">
        <ele>2453.4</ele>
        <time>2026-07-15T09:47:07Z</time>
      </trkpt>
      <trkpt lat="42.87069" lon="-0.19253">
        <ele>2452.4</ele>
        <time>2026-07-15T09:47:08Z</time>
      </trkpt>
      <trkpt lat="42.87069" lon="-0.19253">
        <ele>2452.4</ele>
        <time>2026-07-15T09:47:09Z</time>
      </trkpt>
      <trkpt lat="42.87069" lon="-0.19253">
        <ele>2452.4</ele>
        <time>2026-07-15T09:47:10Z</time>
      </trkpt>
      <trkpt lat="42.8707" lon="-0.19254">
        <ele>2452.4</ele>
        <time>2026-07-15T09:47:11Z</time>
      </trkpt>
      <trkpt lat="42.8707" lon="-0.19254">
        <ele>2452.4</ele>
        <time>2026-07-15T09:47:12Z</time>
      </trkpt>
      <trkpt lat="42.8707" lon="-0.19254">
        <ele>2451.4</ele>
        <time>2026-07-15T09:47:13Z</time>
      </trkpt>
      <trkpt lat="42.8707" lon="-0.19254">
        <ele>2451.4</ele>
        <time>2026-07-15T09:47:14Z</time>
      </trkpt>
      <trkpt lat="42.8707" lon="-0.19254">
        <ele>2451.4</ele>
        <time>2026-07-15T09:47:15Z</time>
      </trkpt>
      <trkpt lat="42.8707" lon="-0.19254">
        <ele>2451.4</ele>
        <time>2026-07-15T09:47:16Z</time>
      </trkpt>
      <trkpt lat="42.8707" lon="-0.19254">
        <ele>2451.4</ele>
        <time>2026-07-15T09:47:17Z</time>
      </trkpt>
      <trkpt lat="42.8707" lon="-0.19254">
        <ele>2451.4</ele>
        <time>2026-07-15T09:47:18Z</time>
      </trkpt>
      <trkpt lat="42.8707" lon="-0.19254">
        <ele>2450.4</ele>
        <time>2026-07-15T09:47:19Z</time>
      </trkpt>
      <trkpt lat="42.8707" lon="-0.19255">
        <ele>2450.4</ele>
        <time>2026-07-15T09:47:20Z</time>
      </trkpt>
      <trkpt lat="42.87071" lon="-0.19255">
        <ele>2450.4</ele>
        <time>2026-07-15T09:47:21Z</time>
      </trkpt>
      <trkpt lat="42.87071" lon="-0.19256">
        <ele>2450.4</ele>
        <time>2026-07-15T09:47:22Z</time>
      </trkpt>
      <trkpt lat="42.87072" lon="-0.19257">
        <ele>2450.4</ele>
        <time>2026-07-15T09:47:23Z</time>
      </trkpt>
      <trkpt lat="42.87073" lon="-0.19257">
        <ele>2450.4</ele>
        <time>2026-07-15T09:47:24Z</time>
      </trkpt>
      <trkpt lat="42.87073" lon="-0.19258">
        <ele>2450.4</ele>
        <time>2026-07-15T09:47:25Z</time>
      </trkpt>
      <trkpt lat="42.87074" lon="-0.19259">
        <ele>2450.4</ele>
        <time>2026-07-15T09:47:26Z</time>
      </trkpt>
      <trkpt lat="42.87075" lon="-0.19259">
        <ele>2450.4</ele>
        <time>2026-07-15T09:47:27Z</time>
      </trkpt>
      <trkpt lat="42.87076" lon="-0.1926">
        <ele>2450.4</ele>
        <time>2026-07-15T09:47:28Z</time>
      </trkpt>
      <trkpt lat="42.87077" lon="-0.1926">
        <ele>2450.4</ele>
        <time>2026-07-15T09:47:29Z</time>
      </trkpt>
      <trkpt lat="42.87077" lon="-0.19261">
        <ele>2449.4</ele>
        <time>2026-07-15T09:47:30Z</time>
      </trkpt>
      <trkpt lat="42.87078" lon="-0.19262">
        <ele>2449.4</ele>
        <time>2026-07-15T09:47:31Z</time>
      </trkpt>
      <trkpt lat="42.87078" lon="-0.19263">
        <ele>2449.4</ele>
        <time>2026-07-15T09:47:32Z</time>
      </trkpt>
      <trkpt lat="42.87078" lon="-0.19263">
        <ele>2449.4</ele>
        <time>2026-07-15T09:47:33Z</time>
      </trkpt>
      <trkpt lat="42.87079" lon="-0.19264">
        <ele>2449.4</ele>
        <time>2026-07-15T09:47:34Z</time>
      </trkpt>
      <trkpt lat="42.87079" lon="-0.19264">
        <ele>2450.4</ele>
        <time>2026-07-15T09:47:35Z</time>
      </trkpt>
      <trkpt lat="42.87079" lon="-0.19265">
        <ele>2450.4</ele>
        <time>2026-07-15T09:47:36Z</time>
      </trkpt>
      <trkpt lat="42.8708" lon="-0.19264">
        <ele>2450.4</ele>
        <time>2026-07-15T09:47:37Z</time>
      </trkpt>
      <trkpt lat="42.8708" lon="-0.19265">
        <ele>2450.4</ele>
        <time>2026-07-15T09:47:38Z</time>
      </trkpt>
      <trkpt lat="42.87081" lon="-0.19265">
        <ele>2450.4</ele>
        <time>2026-07-15T09:47:39Z</time>
      </trkpt>
      <trkpt lat="42.87081" lon="-0.19265">
        <ele>2450.4</ele>
        <time>2026-07-15T09:47:40Z</time>
      </trkpt>
      <trkpt lat="42.87081" lon="-0.19265">
        <ele>2450.4</ele>
        <time>2026-07-15T09:47:41Z</time>
      </trkpt>
      <trkpt lat="42.87081" lon="-0.19266">
        <ele>2449.4</ele>
        <time>2026-07-15T09:47:42Z</time>
      </trkpt>
      <trkpt lat="42.87082" lon="-0.19266">
        <ele>2449.4</ele>
        <time>2026-07-15T09:47:43Z</time>
      </trkpt>
      <trkpt lat="42.87082" lon="-0.19267">
        <ele>2449.4</ele>
        <time>2026-07-15T09:47:44Z</time>
      </trkpt>
      <trkpt lat="42.87082" lon="-0.19268">
        <ele>2450.4</ele>
        <time>2026-07-15T09:47:45Z</time>
      </trkpt>
      <trkpt lat="42.87083" lon="-0.19269">
        <ele>2449.4</ele>
        <time>2026-07-15T09:47:46Z</time>
      </trkpt>
      <trkpt lat="42.87083" lon="-0.1927">
        <ele>2448.4</ele>
        <time>2026-07-15T09:47:47Z</time>
      </trkpt>
      <trkpt lat="42.87084" lon="-0.19271">
        <ele>2448.4</ele>
        <time>2026-07-15T09:47:48Z</time>
      </trkpt>
      <trkpt lat="42.87084" lon="-0.19272">
        <ele>2448.4</ele>
        <time>2026-07-15T09:47:49Z</time>
      </trkpt>
      <trkpt lat="42.87086" lon="-0.19273">
        <ele>2449.4</ele>
        <time>2026-07-15T09:47:50Z</time>
      </trkpt>
      <trkpt lat="42.87085" lon="-0.19274">
        <ele>2449.4</ele>
        <time>2026-07-15T09:47:51Z</time>
      </trkpt>
      <trkpt lat="42.87086" lon="-0.19275">
        <ele>2450.4</ele>
        <time>2026-07-15T09:47:52Z</time>
      </trkpt>
      <trkpt lat="42.87086" lon="-0.19275">
        <ele>2451.4</ele>
        <time>2026-07-15T09:47:53Z</time>
      </trkpt>
      <trkpt lat="42.87086" lon="-0.19275">
        <ele>2451.4</ele>
        <time>2026-07-15T09:47:54Z</time>
      </trkpt>
      <trkpt lat="42.87086" lon="-0.19275">
        <ele>2451.4</ele>
        <time>2026-07-15T09:47:55Z</time>
      </trkpt>
      <trkpt lat="42.87086" lon="-0.19275">
        <ele>2451.4</ele>
        <time>2026-07-15T09:47:56Z</time>
      </trkpt>
      <trkpt lat="42.87086" lon="-0.19275">
        <ele>2451.4</ele>
        <time>2026-07-15T09:47:57Z</time>
      </trkpt>
      <trkpt lat="42.87085" lon="-0.19274">
        <ele>2447.4</ele>
        <time>2026-07-15T09:47:58Z</time>
      </trkpt>
      <trkpt lat="42.87084" lon="-0.19272">
        <ele>2446.4</ele>
        <time>2026-07-15T09:47:59Z</time>
      </trkpt>
      <trkpt lat="42.87085" lon="-0.19271">
        <ele>2447.4</ele>
        <time>2026-07-15T09:48:00Z</time>
      </trkpt>
      <trkpt lat="42.87083" lon="-0.1927">
        <ele>2446.4</ele>
        <time>2026-07-15T09:48:01Z</time>
      </trkpt>
      <trkpt lat="42.87083" lon="-0.1927">
        <ele>2446.4</ele>
        <time>2026-07-15T09:48:02Z</time>
      </trkpt>
      <trkpt lat="42.87083" lon="-0.1927">
        <ele>2446.4</ele>
        <time>2026-07-15T09:48:03Z</time>
      </trkpt>
      <trkpt lat="42.87083" lon="-0.1927">
        <ele>2446.4</ele>
        <time>2026-07-15T09:48:04Z</time>
      </trkpt>
      <trkpt lat="42.87083" lon="-0.1927">
        <ele>2446.4</ele>
        <time>2026-07-15T09:48:05Z</time>
      </trkpt>
      <trkpt lat="42.87083" lon="-0.1927">
        <ele>2445.4</ele>
        <time>2026-07-15T09:48:06Z</time>
      </trkpt>
      <trkpt lat="42.87083" lon="-0.1927">
        <ele>2446.4</ele>
        <time>2026-07-15T09:48:07Z</time>
      </trkpt>
      <trkpt lat="42.87083" lon="-0.19271">
        <ele>2447.4</ele>
        <time>2026-07-15T09:48:08Z</time>
      </trkpt>
      <trkpt lat="42.87083" lon="-0.19271">
        <ele>2447.4</ele>
        <time>2026-07-15T09:48:09Z</time>
      </trkpt>
      <trkpt lat="42.87083" lon="-0.19271">
        <ele>2447.4</ele>
        <time>2026-07-15T09:48:10Z</time>
      </trkpt>
      <trkpt lat="42.87083" lon="-0.19271">
        <ele>2447.4</ele>
        <time>2026-07-15T09:48:11Z</time>
      </trkpt>
      <trkpt lat="42.87083" lon="-0.19271">
        <ele>2447.4</ele>
        <time>2026-07-15T09:48:12Z</time>
      </trkpt>
      <trkpt lat="42.87083" lon="-0.19271">
        <ele>2447.4</ele>
        <time>2026-07-15T09:48:13Z</time>
      </trkpt>
      <trkpt lat="42.87083" lon="-0.19271">
        <ele>2447.4</ele>
        <time>2026-07-15T09:48:14Z</time>
      </trkpt>
      <trkpt lat="42.87083" lon="-0.19274">
        <ele>2447.4</ele>
        <time>2026-07-15T09:48:15Z</time>
      </trkpt>
      <trkpt lat="42.87083" lon="-0.19275">
        <ele>2447.4</ele>
        <time>2026-07-15T09:48:16Z</time>
      </trkpt>
      <trkpt lat="42.87083" lon="-0.19276">
        <ele>2448.4</ele>
        <time>2026-07-15T09:48:17Z</time>
      </trkpt>
      <trkpt lat="42.87084" lon="-0.19277">
        <ele>2448.4</ele>
        <time>2026-07-15T09:48:18Z</time>
      </trkpt>
      <trkpt lat="42.87085" lon="-0.19277">
        <ele>2448.4</ele>
        <time>2026-07-15T09:48:19Z</time>
      </trkpt>
      <trkpt lat="42.87085" lon="-0.19278">
        <ele>2449.4</ele>
        <time>2026-07-15T09:48:20Z</time>
      </trkpt>
      <trkpt lat="42.87086" lon="-0.19278">
        <ele>2448.4</ele>
        <time>2026-07-15T09:48:21Z</time>
      </trkpt>
      <trkpt lat="42.87086" lon="-0.19278">
        <ele>2448.4</ele>
        <time>2026-07-15T09:48:22Z</time>
      </trkpt>
      <trkpt lat="42.87086" lon="-0.19278">
        <ele>2448.4</ele>
        <time>2026-07-15T09:48:23Z</time>
      </trkpt>
      <trkpt lat="42.87086" lon="-0.19278">
        <ele>2448.4</ele>
        <time>2026-07-15T09:48:24Z</time>
      </trkpt>
      <trkpt lat="42.87086" lon="-0.19278">
        <ele>2448.4</ele>
        <time>2026-07-15T09:48:25Z</time>
      </trkpt>
      <trkpt lat="42.87086" lon="-0.19278">
        <ele>2448.4</ele>
        <time>2026-07-15T09:48:26Z</time>
      </trkpt>
      <trkpt lat="42.87086" lon="-0.19278">
        <ele>2448.4</ele>
        <time>2026-07-15T09:48:27Z</time>
      </trkpt>
      <trkpt lat="42.87086" lon="-0.19278">
        <ele>2448.4</ele>
        <time>2026-07-15T09:48:28Z</time>
      </trkpt>
      <trkpt lat="42.87086" lon="-0.19278">
        <ele>2448.4</ele>
        <time>2026-07-15T09:48:29Z</time>
      </trkpt>
      <trkpt lat="42.87088" lon="-0.19279">
        <ele>2449.4</ele>
        <time>2026-07-15T09:48:30Z</time>
      </trkpt>
      <trkpt lat="42.87088" lon="-0.19279">
        <ele>2449.4</ele>
        <time>2026-07-15T09:48:31Z</time>
      </trkpt>
      <trkpt lat="42.87089" lon="-0.1928">
        <ele>2449.4</ele>
        <time>2026-07-15T09:48:32Z</time>
      </trkpt>
      <trkpt lat="42.8709" lon="-0.19281">
        <ele>2449.4</ele>
        <time>2026-07-15T09:48:33Z</time>
      </trkpt>
      <trkpt lat="42.8709" lon="-0.19281">
        <ele>2449.4</ele>
        <time>2026-07-15T09:48:34Z</time>
      </trkpt>
      <trkpt lat="42.8709" lon="-0.19282">
        <ele>2449.4</ele>
        <time>2026-07-15T09:48:35Z</time>
      </trkpt>
      <trkpt lat="42.8709" lon="-0.19283">
        <ele>2448.4</ele>
        <time>2026-07-15T09:48:36Z</time>
      </trkpt>
      <trkpt lat="42.8709" lon="-0.19284">
        <ele>2448.4</ele>
        <time>2026-07-15T09:48:37Z</time>
      </trkpt>
      <trkpt lat="42.8709" lon="-0.19285">
        <ele>2447.4</ele>
        <time>2026-07-15T09:48:38Z</time>
      </trkpt>
      <trkpt lat="42.87091" lon="-0.19286">
        <ele>2448.4</ele>
        <time>2026-07-15T09:48:39Z</time>
      </trkpt>
      <trkpt lat="42.87091" lon="-0.19287">
        <ele>2448.4</ele>
        <time>2026-07-15T09:48:40Z</time>
      </trkpt>
      <trkpt lat="42.87092" lon="-0.19288">
        <ele>2448.4</ele>
        <time>2026-07-15T09:48:41Z</time>
      </trkpt>
      <trkpt lat="42.87092" lon="-0.19288">
        <ele>2448.4</ele>
        <time>2026-07-15T09:48:42Z</time>
      </trkpt>
      <trkpt lat="42.87092" lon="-0.19289">
        <ele>2448.4</ele>
        <time>2026-07-15T09:48:43Z</time>
      </trkpt>
      <trkpt lat="42.87093" lon="-0.19289">
        <ele>2448.4</ele>
        <time>2026-07-15T09:48:44Z</time>
      </trkpt>
      <trkpt lat="42.87094" lon="-0.1929">
        <ele>2448.4</ele>
        <time>2026-07-15T09:48:45Z</time>
      </trkpt>
      <trkpt lat="42.87094" lon="-0.1929">
        <ele>2448.4</ele>
        <time>2026-07-15T09:48:46Z</time>
      </trkpt>
      <trkpt lat="42.87094" lon="-0.19291">
        <ele>2448.4</ele>
        <time>2026-07-15T09:48:47Z</time>
      </trkpt>
      <trkpt lat="42.87095" lon="-0.19291">
        <ele>2447.4</ele>
        <time>2026-07-15T09:48:48Z</time>
      </trkpt>
      <trkpt lat="42.87095" lon="-0.19292">
        <ele>2447.4</ele>
        <time>2026-07-15T09:48:49Z</time>
      </trkpt>
      <trkpt lat="42.87096" lon="-0.19293">
        <ele>2447.4</ele>
        <time>2026-07-15T09:48:50Z</time>
      </trkpt>
      <trkpt lat="42.87097" lon="-0.19294">
        <ele>2447.4</ele>
        <time>2026-07-15T09:48:51Z</time>
      </trkpt>
      <trkpt lat="42.87099" lon="-0.19295">
        <ele>2447.4</ele>
        <time>2026-07-15T09:48:52Z</time>
      </trkpt>
      <trkpt lat="42.871" lon="-0.19296">
        <ele>2447.4</ele>
        <time>2026-07-15T09:48:53Z</time>
      </trkpt>
      <trkpt lat="42.87101" lon="-0.19296">
        <ele>2447.4</ele>
        <time>2026-07-15T09:48:54Z</time>
      </trkpt>
      <trkpt lat="42.87101" lon="-0.19297">
        <ele>2447.4</ele>
        <time>2026-07-15T09:48:55Z</time>
      </trkpt>
      <trkpt lat="42.87102" lon="-0.19298">
        <ele>2447.4</ele>
        <time>2026-07-15T09:48:56Z</time>
      </trkpt>
      <trkpt lat="42.87102" lon="-0.19298">
        <ele>2447.4</ele>
        <time>2026-07-15T09:48:57Z</time>
      </trkpt>
      <trkpt lat="42.87102" lon="-0.19299">
        <ele>2447.4</ele>
        <time>2026-07-15T09:48:58Z</time>
      </trkpt>
      <trkpt lat="42.87102" lon="-0.19299">
        <ele>2447.4</ele>
        <time>2026-07-15T09:48:59Z</time>
      </trkpt>
      <trkpt lat="42.87102" lon="-0.19299">
        <ele>2447.4</ele>
        <time>2026-07-15T09:49:00Z</time>
      </trkpt>
      <trkpt lat="42.87103" lon="-0.193">
        <ele>2448.4</ele>
        <time>2026-07-15T09:49:01Z</time>
      </trkpt>
      <trkpt lat="42.87103" lon="-0.19301">
        <ele>2448.4</ele>
        <time>2026-07-15T09:49:02Z</time>
      </trkpt>
      <trkpt lat="42.87103" lon="-0.19302">
        <ele>2449.4</ele>
        <time>2026-07-15T09:49:03Z</time>
      </trkpt>
      <trkpt lat="42.87103" lon="-0.19302">
        <ele>2449.4</ele>
        <time>2026-07-15T09:49:04Z</time>
      </trkpt>
      <trkpt lat="42.87104" lon="-0.19303">
        <ele>2450.4</ele>
        <time>2026-07-15T09:49:05Z</time>
      </trkpt>
      <trkpt lat="42.87104" lon="-0.19303">
        <ele>2450.4</ele>
        <time>2026-07-15T09:49:06Z</time>
      </trkpt>
      <trkpt lat="42.87104" lon="-0.19303">
        <ele>2450.4</ele>
        <time>2026-07-15T09:49:07Z</time>
      </trkpt>
      <trkpt lat="42.87104" lon="-0.19304">
        <ele>2450.4</ele>
        <time>2026-07-15T09:49:08Z</time>
      </trkpt>
      <trkpt lat="42.87104" lon="-0.19304">
        <ele>2450.4</ele>
        <time>2026-07-15T09:49:09Z</time>
      </trkpt>
      <trkpt lat="42.87104" lon="-0.19304">
        <ele>2450.4</ele>
        <time>2026-07-15T09:49:10Z</time>
      </trkpt>
      <trkpt lat="42.87106" lon="-0.19305">
        <ele>2451.4</ele>
        <time>2026-07-15T09:49:11Z</time>
      </trkpt>
      <trkpt lat="42.87107" lon="-0.19307">
        <ele>2452.4</ele>
        <time>2026-07-15T09:49:12Z</time>
      </trkpt>
      <trkpt lat="42.87107" lon="-0.19307">
        <ele>2452.4</ele>
        <time>2026-07-15T09:49:13Z</time>
      </trkpt>
      <trkpt lat="42.87107" lon="-0.19307">
        <ele>2452.4</ele>
        <time>2026-07-15T09:49:14Z</time>
      </trkpt>
      <trkpt lat="42.87108" lon="-0.19307">
        <ele>2453.4</ele>
        <time>2026-07-15T09:49:15Z</time>
      </trkpt>
      <trkpt lat="42.87109" lon="-0.19309">
        <ele>2452.4</ele>
        <time>2026-07-15T09:49:16Z</time>
      </trkpt>
      <trkpt lat="42.87109" lon="-0.19309">
        <ele>2453.4</ele>
        <time>2026-07-15T09:49:17Z</time>
      </trkpt>
      <trkpt lat="42.87109" lon="-0.19309">
        <ele>2453.4</ele>
        <time>2026-07-15T09:49:18Z</time>
      </trkpt>
      <trkpt lat="42.87109" lon="-0.19309">
        <ele>2453.4</ele>
        <time>2026-07-15T09:49:19Z</time>
      </trkpt>
      <trkpt lat="42.87109" lon="-0.1931">
        <ele>2452.4</ele>
        <time>2026-07-15T09:49:20Z</time>
      </trkpt>
      <trkpt lat="42.87109" lon="-0.1931">
        <ele>2452.4</ele>
        <time>2026-07-15T09:49:21Z</time>
      </trkpt>
      <trkpt lat="42.87109" lon="-0.1931">
        <ele>2452.4</ele>
        <time>2026-07-15T09:49:22Z</time>
      </trkpt>
      <trkpt lat="42.87109" lon="-0.1931">
        <ele>2452.4</ele>
        <time>2026-07-15T09:49:23Z</time>
      </trkpt>
      <trkpt lat="42.87109" lon="-0.1931">
        <ele>2452.4</ele>
        <time>2026-07-15T09:49:24Z</time>
      </trkpt>
      <trkpt lat="42.87109" lon="-0.1931">
        <ele>2452.4</ele>
        <time>2026-07-15T09:49:25Z</time>
      </trkpt>
      <trkpt lat="42.87109" lon="-0.1931">
        <ele>2452.4</ele>
        <time>2026-07-15T09:49:26Z</time>
      </trkpt>
      <trkpt lat="42.87109" lon="-0.1931">
        <ele>2452.4</ele>
        <time>2026-07-15T09:49:27Z</time>
      </trkpt>
      <trkpt lat="42.87109" lon="-0.1931">
        <ele>2452.4</ele>
        <time>2026-07-15T09:49:28Z</time>
      </trkpt>
      <trkpt lat="42.87109" lon="-0.1931">
        <ele>2452.4</ele>
        <time>2026-07-15T09:49:29Z</time>
      </trkpt>
      <trkpt lat="42.87109" lon="-0.1931">
        <ele>2452.4</ele>
        <time>2026-07-15T09:49:30Z</time>
      </trkpt>
      <trkpt lat="42.87109" lon="-0.1931">
        <ele>2452.4</ele>
        <time>2026-07-15T09:49:31Z</time>
      </trkpt>
      <trkpt lat="42.87109" lon="-0.1931">
        <ele>2452.4</ele>
        <time>2026-07-15T09:49:32Z</time>
      </trkpt>
      <trkpt lat="42.87109" lon="-0.1931">
        <ele>2452.4</ele>
        <time>2026-07-15T09:49:33Z</time>
      </trkpt>
      <trkpt lat="42.87109" lon="-0.1931">
        <ele>2452.4</ele>
        <time>2026-07-15T09:49:34Z</time>
      </trkpt>
      <trkpt lat="42.87109" lon="-0.19312">
        <ele>2454.4</ele>
        <time>2026-07-15T09:49:35Z</time>
      </trkpt>
      <trkpt lat="42.8711" lon="-0.19312">
        <ele>2454.4</ele>
        <time>2026-07-15T09:49:36Z</time>
      </trkpt>
      <trkpt lat="42.8711" lon="-0.19312">
        <ele>2454.4</ele>
        <time>2026-07-15T09:49:37Z</time>
      </trkpt>
      <trkpt lat="42.8711" lon="-0.19312">
        <ele>2454.4</ele>
        <time>2026-07-15T09:49:38Z</time>
      </trkpt>
      <trkpt lat="42.8711" lon="-0.19312">
        <ele>2454.4</ele>
        <time>2026-07-15T09:49:39Z</time>
      </trkpt>
      <trkpt lat="42.8711" lon="-0.19312">
        <ele>2454.4</ele>
        <time>2026-07-15T09:49:40Z</time>
      </trkpt>
      <trkpt lat="42.87111" lon="-0.19314">
        <ele>2455.4</ele>
        <time>2026-07-15T09:49:41Z</time>
      </trkpt>
      <trkpt lat="42.87111" lon="-0.19314">
        <ele>2455.4</ele>
        <time>2026-07-15T09:49:42Z</time>
      </trkpt>
      <trkpt lat="42.87111" lon="-0.19314">
        <ele>2455.4</ele>
        <time>2026-07-15T09:49:43Z</time>
      </trkpt>
      <trkpt lat="42.87111" lon="-0.19314">
        <ele>2455.4</ele>
        <time>2026-07-15T09:49:44Z</time>
      </trkpt>
      <trkpt lat="42.87111" lon="-0.19314">
        <ele>2455.4</ele>
        <time>2026-07-15T09:49:45Z</time>
      </trkpt>
      <trkpt lat="42.87111" lon="-0.19314">
        <ele>2455.4</ele>
        <time>2026-07-15T09:49:46Z</time>
      </trkpt>
      <trkpt lat="42.87111" lon="-0.19314">
        <ele>2455.4</ele>
        <time>2026-07-15T09:49:47Z</time>
      </trkpt>
      <trkpt lat="42.87111" lon="-0.19314">
        <ele>2455.4</ele>
        <time>2026-07-15T09:49:48Z</time>
      </trkpt>
      <trkpt lat="42.87111" lon="-0.19314">
        <ele>2455.4</ele>
        <time>2026-07-15T09:49:49Z</time>
      </trkpt>
      <trkpt lat="42.8711" lon="-0.19314">
        <ele>2455.4</ele>
        <time>2026-07-15T09:49:50Z</time>
      </trkpt>
      <trkpt lat="42.8711" lon="-0.19314">
        <ele>2455.4</ele>
        <time>2026-07-15T09:49:51Z</time>
      </trkpt>
      <trkpt lat="42.8711" lon="-0.19314">
        <ele>2455.4</ele>
        <time>2026-07-15T09:49:52Z</time>
      </trkpt>
      <trkpt lat="42.8711" lon="-0.19314">
        <ele>2455.4</ele>
        <time>2026-07-15T09:49:53Z</time>
      </trkpt>
      <trkpt lat="42.8711" lon="-0.19314">
        <ele>2455.4</ele>
        <time>2026-07-15T09:49:54Z</time>
      </trkpt>
      <trkpt lat="42.8711" lon="-0.19314">
        <ele>2455.4</ele>
        <time>2026-07-15T09:49:55Z</time>
      </trkpt>
      <trkpt lat="42.8711" lon="-0.19314">
        <ele>2455.4</ele>
        <time>2026-07-15T09:49:56Z</time>
      </trkpt>
      <trkpt lat="42.8711" lon="-0.19314">
        <ele>2455.4</ele>
        <time>2026-07-15T09:49:57Z</time>
      </trkpt>
      <trkpt lat="42.8711" lon="-0.19314">
        <ele>2455.4</ele>
        <time>2026-07-15T09:49:58Z</time>
      </trkpt>
      <trkpt lat="42.8711" lon="-0.19314">
        <ele>2455.4</ele>
        <time>2026-07-15T09:49:59Z</time>
      </trkpt>
      <trkpt lat="42.8711" lon="-0.19314">
        <ele>2455.4</ele>
        <time>2026-07-15T09:50:00Z</time>
      </trkpt>
      <trkpt lat="42.8711" lon="-0.19314">
        <ele>2455.4</ele>
        <time>2026-07-15T09:50:01Z</time>
      </trkpt>
      <trkpt lat="42.8711" lon="-0.19314">
        <ele>2455.4</ele>
        <time>2026-07-15T09:50:02Z</time>
      </trkpt>
      <trkpt lat="42.8711" lon="-0.19314">
        <ele>2455.4</ele>
        <time>2026-07-15T09:50:03Z</time>
      </trkpt>
      <trkpt lat="42.8711" lon="-0.19314">
        <ele>2455.4</ele>
        <time>2026-07-15T09:50:04Z</time>
      </trkpt>
      <trkpt lat="42.8711" lon="-0.19314">
        <ele>2455.4</ele>
        <time>2026-07-15T09:50:05Z</time>
      </trkpt>
      <trkpt lat="42.8711" lon="-0.19314">
        <ele>2455.4</ele>
        <time>2026-07-15T09:50:06Z</time>
      </trkpt>
      <trkpt lat="42.8711" lon="-0.19314">
        <ele>2455.4</ele>
        <time>2026-07-15T09:50:07Z</time>
      </trkpt>
      <trkpt lat="42.8711" lon="-0.19314">
        <ele>2455.4</ele>
        <time>2026-07-15T09:50:08Z</time>
      </trkpt>
      <trkpt lat="42.8711" lon="-0.19314">
        <ele>2455.4</ele>
        <time>2026-07-15T09:50:09Z</time>
      </trkpt>
      <trkpt lat="42.8711" lon="-0.19314">
        <ele>2455.4</ele>
        <time>2026-07-15T09:50:10Z</time>
      </trkpt>
      <trkpt lat="42.87111" lon="-0.19316">
        <ele>2454.4</ele>
        <time>2026-07-15T09:50:11Z</time>
      </trkpt>
      <trkpt lat="42.87111" lon="-0.19316">
        <ele>2454.4</ele>
        <time>2026-07-15T09:50:12Z</time>
      </trkpt>
      <trkpt lat="42.87112" lon="-0.19317">
        <ele>2454.4</ele>
        <time>2026-07-15T09:50:13Z</time>
      </trkpt>
      <trkpt lat="42.87112" lon="-0.19318">
        <ele>2454.4</ele>
        <time>2026-07-15T09:50:14Z</time>
      </trkpt>
      <trkpt lat="42.87113" lon="-0.19319">
        <ele>2454.4</ele>
        <time>2026-07-15T09:50:15Z</time>
      </trkpt>
      <trkpt lat="42.87114" lon="-0.1932">
        <ele>2454.4</ele>
        <time>2026-07-15T09:50:16Z</time>
      </trkpt>
      <trkpt lat="42.87115" lon="-0.19322">
        <ele>2454.4</ele>
        <time>2026-07-15T09:50:17Z</time>
      </trkpt>
      <trkpt lat="42.87116" lon="-0.19324">
        <ele>2453.4</ele>
        <time>2026-07-15T09:50:18Z</time>
      </trkpt>
      <trkpt lat="42.87116" lon="-0.19325">
        <ele>2454.4</ele>
        <time>2026-07-15T09:50:19Z</time>
      </trkpt>
      <trkpt lat="42.87117" lon="-0.19326">
        <ele>2454.4</ele>
        <time>2026-07-15T09:50:20Z</time>
      </trkpt>
      <trkpt lat="42.87118" lon="-0.19327">
        <ele>2454.4</ele>
        <time>2026-07-15T09:50:21Z</time>
      </trkpt>
      <trkpt lat="42.87119" lon="-0.19327">
        <ele>2454.4</ele>
        <time>2026-07-15T09:50:22Z</time>
      </trkpt>
      <trkpt lat="42.87119" lon="-0.19328">
        <ele>2454.4</ele>
        <time>2026-07-15T09:50:23Z</time>
      </trkpt>
      <trkpt lat="42.8712" lon="-0.19328">
        <ele>2454.4</ele>
        <time>2026-07-15T09:50:24Z</time>
      </trkpt>
      <trkpt lat="42.87121" lon="-0.19328">
        <ele>2454.4</ele>
        <time>2026-07-15T09:50:25Z</time>
      </trkpt>
      <trkpt lat="42.87121" lon="-0.19329">
        <ele>2454.4</ele>
        <time>2026-07-15T09:50:26Z</time>
      </trkpt>
      <trkpt lat="42.87121" lon="-0.1933">
        <ele>2454.4</ele>
        <time>2026-07-15T09:50:27Z</time>
      </trkpt>
      <trkpt lat="42.87121" lon="-0.1933">
        <ele>2453.4</ele>
        <time>2026-07-15T09:50:28Z</time>
      </trkpt>
      <trkpt lat="42.87122" lon="-0.19332">
        <ele>2453.4</ele>
        <time>2026-07-15T09:50:29Z</time>
      </trkpt>
      <trkpt lat="42.87122" lon="-0.19333">
        <ele>2454.4</ele>
        <time>2026-07-15T09:50:30Z</time>
      </trkpt>
      <trkpt lat="42.87123" lon="-0.19334">
        <ele>2453.4</ele>
        <time>2026-07-15T09:50:31Z</time>
      </trkpt>
      <trkpt lat="42.87124" lon="-0.19335">
        <ele>2453.4</ele>
        <time>2026-07-15T09:50:32Z</time>
      </trkpt>
      <trkpt lat="42.87125" lon="-0.19336">
        <ele>2453.4</ele>
        <time>2026-07-15T09:50:33Z</time>
      </trkpt>
      <trkpt lat="42.87125" lon="-0.19336">
        <ele>2454.4</ele>
        <time>2026-07-15T09:50:34Z</time>
      </trkpt>
      <trkpt lat="42.87126" lon="-0.19337">
        <ele>2454.4</ele>
        <time>2026-07-15T09:50:34Z</time>
      </trkpt>
      <trkpt lat="42.87126" lon="-0.19337">
        <ele>2454.4</ele>
        <time>2026-07-15T09:50:35Z</time>
      </trkpt>
      <trkpt lat="42.87127" lon="-0.19338">
        <ele>2454.4</ele>
        <time>2026-07-15T09:50:35Z</time>
      </trkpt>
      <trkpt lat="42.87127" lon="-0.19338">
        <ele>2454.4</ele>
        <time>2026-07-15T09:50:36Z</time>
      </trkpt>
      <trkpt lat="42.87127" lon="-0.1934">
        <ele>2454.4</ele>
        <time>2026-07-15T09:50:37Z</time>
      </trkpt>
      <trkpt lat="42.87127" lon="-0.1934">
        <ele>2454.4</ele>
        <time>2026-07-15T09:50:38Z</time>
      </trkpt>
      <trkpt lat="42.87127" lon="-0.19341">
        <ele>2453.4</ele>
        <time>2026-07-15T09:50:38Z</time>
      </trkpt>
      <trkpt lat="42.87127" lon="-0.19342">
        <ele>2453.4</ele>
        <time>2026-07-15T09:50:39Z</time>
      </trkpt>
      <trkpt lat="42.87127" lon="-0.19343">
        <ele>2453.4</ele>
        <time>2026-07-15T09:50:40Z</time>
      </trkpt>
      <trkpt lat="42.87127" lon="-0.19343">
        <ele>2454.4</ele>
        <time>2026-07-15T09:50:41Z</time>
      </trkpt>
      <trkpt lat="42.87128" lon="-0.19344">
        <ele>2454.4</ele>
        <time>2026-07-15T09:50:42Z</time>
      </trkpt>
      <trkpt lat="42.87128" lon="-0.19344">
        <ele>2454.4</ele>
        <time>2026-07-15T09:50:42Z</time>
      </trkpt>
      <trkpt lat="42.87128" lon="-0.19344">
        <ele>2454.4</ele>
        <time>2026-07-15T09:50:43Z</time>
      </trkpt>
      <trkpt lat="42.87128" lon="-0.19345">
        <ele>2454.4</ele>
        <time>2026-07-15T09:50:43Z</time>
      </trkpt>
      <trkpt lat="42.87129" lon="-0.19345">
        <ele>2454.4</ele>
        <time>2026-07-15T09:50:44Z</time>
      </trkpt>
      <trkpt lat="42.87129" lon="-0.19346">
        <ele>2454.4</ele>
        <time>2026-07-15T09:50:45Z</time>
      </trkpt>
      <trkpt lat="42.8713" lon="-0.19346">
        <ele>2453.4</ele>
        <time>2026-07-15T09:50:45Z</time>
      </trkpt>
      <trkpt lat="42.8713" lon="-0.19347">
        <ele>2453.4</ele>
        <time>2026-07-15T09:50:46Z</time>
      </trkpt>
      <trkpt lat="42.87131" lon="-0.19347">
        <ele>2454.4</ele>
        <time>2026-07-15T09:50:46Z</time>
      </trkpt>
      <trkpt lat="42.87131" lon="-0.19347">
        <ele>2454.4</ele>
        <time>2026-07-15T09:50:47Z</time>
      </trkpt>
      <trkpt lat="42.87132" lon="-0.19348">
        <ele>2454.4</ele>
        <time>2026-07-15T09:50:48Z</time>
      </trkpt>
      <trkpt lat="42.87132" lon="-0.19348">
        <ele>2454.4</ele>
        <time>2026-07-15T09:50:48Z</time>
      </trkpt>
      <trkpt lat="42.87132" lon="-0.19349">
        <ele>2455.4</ele>
        <time>2026-07-15T09:50:49Z</time>
      </trkpt>
      <trkpt lat="42.87132" lon="-0.19349">
        <ele>2455.4</ele>
        <time>2026-07-15T09:50:50Z</time>
      </trkpt>
      <trkpt lat="42.87133" lon="-0.1935">
        <ele>2455.4</ele>
        <time>2026-07-15T09:50:51Z</time>
      </trkpt>
      <trkpt lat="42.87133" lon="-0.19349">
        <ele>2456.4</ele>
        <time>2026-07-15T09:50:51Z</time>
      </trkpt>
      <trkpt lat="42.87133" lon="-0.19349">
        <ele>2455.4</ele>
        <time>2026-07-15T09:50:52Z</time>
      </trkpt>
      <trkpt lat="42.87133" lon="-0.19349">
        <ele>2456.4</ele>
        <time>2026-07-15T09:50:53Z</time>
      </trkpt>
      <trkpt lat="42.87132" lon="-0.19349">
        <ele>2456.4</ele>
        <time>2026-07-15T09:50:54Z</time>
      </trkpt>
      <trkpt lat="42.87132" lon="-0.19349">
        <ele>2456.4</ele>
        <time>2026-07-15T09:50:55Z</time>
      </trkpt>
      <trkpt lat="42.87132" lon="-0.19349">
        <ele>2456.4</ele>
        <time>2026-07-15T09:50:56Z</time>
      </trkpt>
      <trkpt lat="42.87132" lon="-0.19349">
        <ele>2456.4</ele>
        <time>2026-07-15T09:50:57Z</time>
      </trkpt>
      <trkpt lat="42.87132" lon="-0.19349">
        <ele>2456.4</ele>
        <time>2026-07-15T09:50:57Z</time>
      </trkpt>
      <trkpt lat="42.87132" lon="-0.19349">
        <ele>2456.4</ele>
        <time>2026-07-15T09:50:58Z</time>
      </trkpt>
      <trkpt lat="42.87132" lon="-0.19349">
        <ele>2456.4</ele>
        <time>2026-07-15T09:50:59Z</time>
      </trkpt>
      <trkpt lat="42.87133" lon="-0.1935">
        <ele>2457.4</ele>
        <time>2026-07-15T09:50:59Z</time>
      </trkpt>
      <trkpt lat="42.87133" lon="-0.1935">
        <ele>2458.4</ele>
        <time>2026-07-15T09:51:00Z</time>
      </trkpt>
      <trkpt lat="42.87133" lon="-0.19351">
        <ele>2457.4</ele>
        <time>2026-07-15T09:51:01Z</time>
      </trkpt>
      <trkpt lat="42.87133" lon="-0.19351">
        <ele>2457.4</ele>
        <time>2026-07-15T09:51:02Z</time>
      </trkpt>
      <trkpt lat="42.87133" lon="-0.19351">
        <ele>2456.4</ele>
        <time>2026-07-15T09:51:03Z</time>
      </trkpt>
      <trkpt lat="42.87134" lon="-0.19352">
        <ele>2457.4</ele>
        <time>2026-07-15T09:51:04Z</time>
      </trkpt>
      <trkpt lat="42.87134" lon="-0.19352">
        <ele>2457.4</ele>
        <time>2026-07-15T09:51:05Z</time>
      </trkpt>
      <trkpt lat="42.87134" lon="-0.19353">
        <ele>2457.4</ele>
        <time>2026-07-15T09:51:06Z</time>
      </trkpt>
      <trkpt lat="42.87134" lon="-0.19353">
        <ele>2457.4</ele>
        <time>2026-07-15T09:51:07Z</time>
      </trkpt>
      <trkpt lat="42.87134" lon="-0.19354">
        <ele>2457.4</ele>
        <time>2026-07-15T09:51:08Z</time>
      </trkpt>
      <trkpt lat="42.87134" lon="-0.19354">
        <ele>2457.4</ele>
        <time>2026-07-15T09:51:09Z</time>
      </trkpt>
      <trkpt lat="42.87134" lon="-0.19354">
        <ele>2457.4</ele>
        <time>2026-07-15T09:51:10Z</time>
      </trkpt>
      <trkpt lat="42.87134" lon="-0.19354">
        <ele>2457.4</ele>
        <time>2026-07-15T09:51:11Z</time>
      </trkpt>
      <trkpt lat="42.87134" lon="-0.19354">
        <ele>2457.4</ele>
        <time>2026-07-15T09:51:12Z</time>
      </trkpt>
      <trkpt lat="42.87134" lon="-0.19354">
        <ele>2457.4</ele>
        <time>2026-07-15T09:51:13Z</time>
      </trkpt>
      <trkpt lat="42.87134" lon="-0.19355">
        <ele>2457.4</ele>
        <time>2026-07-15T09:51:14Z</time>
      </trkpt>
      <trkpt lat="42.87134" lon="-0.19355">
        <ele>2457.4</ele>
        <time>2026-07-15T09:51:15Z</time>
      </trkpt>
      <trkpt lat="42.87134" lon="-0.19355">
        <ele>2457.4</ele>
        <time>2026-07-15T09:51:16Z</time>
      </trkpt>
      <trkpt lat="42.87134" lon="-0.19355">
        <ele>2457.4</ele>
        <time>2026-07-15T09:51:17Z</time>
      </trkpt>
      <trkpt lat="42.87134" lon="-0.19355">
        <ele>2457.4</ele>
        <time>2026-07-15T09:51:18Z</time>
      </trkpt>
      <trkpt lat="42.87134" lon="-0.19355">
        <ele>2457.4</ele>
        <time>2026-07-15T09:51:19Z</time>
      </trkpt>
      <trkpt lat="42.87134" lon="-0.19355">
        <ele>2457.4</ele>
        <time>2026-07-15T09:51:20Z</time>
      </trkpt>
      <trkpt lat="42.87134" lon="-0.19355">
        <ele>2457.4</ele>
        <time>2026-07-15T09:51:21Z</time>
      </trkpt>
      <trkpt lat="42.87134" lon="-0.19355">
        <ele>2457.4</ele>
        <time>2026-07-15T09:51:22Z</time>
      </trkpt>
      <trkpt lat="42.87134" lon="-0.19355">
        <ele>2457.4</ele>
        <time>2026-07-15T09:51:23Z</time>
      </trkpt>
      <trkpt lat="42.87134" lon="-0.19355">
        <ele>2457.4</ele>
        <time>2026-07-15T09:51:23Z</time>
      </trkpt>
      <trkpt lat="42.87135" lon="-0.19355">
        <ele>2457.4</ele>
        <time>2026-07-15T09:51:24Z</time>
      </trkpt>
      <trkpt lat="42.87135" lon="-0.19355">
        <ele>2456.4</ele>
        <time>2026-07-15T09:51:24Z</time>
      </trkpt>
      <trkpt lat="42.87135" lon="-0.19355">
        <ele>2456.4</ele>
        <time>2026-07-15T09:51:25Z</time>
      </trkpt>
      <trkpt lat="42.87136" lon="-0.19355">
        <ele>2456.4</ele>
        <time>2026-07-15T09:51:26Z</time>
      </trkpt>
      <trkpt lat="42.87136" lon="-0.19355">
        <ele>2456.4</ele>
        <time>2026-07-15T09:51:27Z</time>
      </trkpt>
      <trkpt lat="42.87137" lon="-0.19355">
        <ele>2456.4</ele>
        <time>2026-07-15T09:51:27Z</time>
      </trkpt>
      <trkpt lat="42.87137" lon="-0.19355">
        <ele>2456.4</ele>
        <time>2026-07-15T09:51:28Z</time>
      </trkpt>
      <trkpt lat="42.87138" lon="-0.19356">
        <ele>2456.4</ele>
        <time>2026-07-15T09:51:29Z</time>
      </trkpt>
      <trkpt lat="42.87139" lon="-0.19356">
        <ele>2456.4</ele>
        <time>2026-07-15T09:51:30Z</time>
      </trkpt>
      <trkpt lat="42.87139" lon="-0.19356">
        <ele>2456.4</ele>
        <time>2026-07-15T09:51:31Z</time>
      </trkpt>
      <trkpt lat="42.87141" lon="-0.19356">
        <ele>2456.4</ele>
        <time>2026-07-15T09:51:32Z</time>
      </trkpt>
      <trkpt lat="42.87141" lon="-0.19357">
        <ele>2456.4</ele>
        <time>2026-07-15T09:51:33Z</time>
      </trkpt>
      <trkpt lat="42.87142" lon="-0.19357">
        <ele>2456.4</ele>
        <time>2026-07-15T09:51:33Z</time>
      </trkpt>
      <trkpt lat="42.87142" lon="-0.19357">
        <ele>2456.4</ele>
        <time>2026-07-15T09:51:34Z</time>
      </trkpt>
      <trkpt lat="42.87143" lon="-0.19357">
        <ele>2457.4</ele>
        <time>2026-07-15T09:51:34Z</time>
      </trkpt>
      <trkpt lat="42.87143" lon="-0.19357">
        <ele>2457.4</ele>
        <time>2026-07-15T09:51:35Z</time>
      </trkpt>
      <trkpt lat="42.87142" lon="-0.19357">
        <ele>2457.4</ele>
        <time>2026-07-15T09:51:36Z</time>
      </trkpt>
      <trkpt lat="42.87141" lon="-0.19357">
        <ele>2457.4</ele>
        <time>2026-07-15T09:51:37Z</time>
      </trkpt>
      <trkpt lat="42.87141" lon="-0.19358">
        <ele>2457.4</ele>
        <time>2026-07-15T09:51:38Z</time>
      </trkpt>
      <trkpt lat="42.87141" lon="-0.19358">
        <ele>2456.4</ele>
        <time>2026-07-15T09:51:39Z</time>
      </trkpt>
      <trkpt lat="42.87141" lon="-0.19358">
        <ele>2456.4</ele>
        <time>2026-07-15T09:51:40Z</time>
      </trkpt>
      <trkpt lat="42.87141" lon="-0.19358">
        <ele>2456.4</ele>
        <time>2026-07-15T09:51:41Z</time>
      </trkpt>
      <trkpt lat="42.87141" lon="-0.19358">
        <ele>2456.4</ele>
        <time>2026-07-15T09:51:42Z</time>
      </trkpt>
      <trkpt lat="42.87141" lon="-0.19358">
        <ele>2456.4</ele>
        <time>2026-07-15T09:51:43Z</time>
      </trkpt>
      <trkpt lat="42.87141" lon="-0.19358">
        <ele>2456.4</ele>
        <time>2026-07-15T09:51:44Z</time>
      </trkpt>
      <trkpt lat="42.87141" lon="-0.19358">
        <ele>2456.4</ele>
        <time>2026-07-15T09:51:45Z</time>
      </trkpt>
      <trkpt lat="42.87142" lon="-0.19358">
        <ele>2456.4</ele>
        <time>2026-07-15T09:51:46Z</time>
      </trkpt>
      <trkpt lat="42.87142" lon="-0.19358">
        <ele>2456.4</ele>
        <time>2026-07-15T09:51:47Z</time>
      </trkpt>
      <trkpt lat="42.87142" lon="-0.19358">
        <ele>2456.4</ele>
        <time>2026-07-15T09:51:48Z</time>
      </trkpt>
      <trkpt lat="42.87142" lon="-0.19358">
        <ele>2456.4</ele>
        <time>2026-07-15T09:51:49Z</time>
      </trkpt>
      <trkpt lat="42.87142" lon="-0.19358">
        <ele>2456.4</ele>
        <time>2026-07-15T09:51:49Z</time>
      </trkpt>
      <trkpt lat="42.87142" lon="-0.19358">
        <ele>2456.4</ele>
        <time>2026-07-15T09:51:50Z</time>
      </trkpt>
      <trkpt lat="42.87142" lon="-0.19358">
        <ele>2456.4</ele>
        <time>2026-07-15T09:51:51Z</time>
      </trkpt>
      <trkpt lat="42.87142" lon="-0.19358">
        <ele>2456.4</ele>
        <time>2026-07-15T09:51:51Z</time>
      </trkpt>
      <trkpt lat="42.87142" lon="-0.19358">
        <ele>2456.4</ele>
        <time>2026-07-15T09:51:52Z</time>
      </trkpt>
      <trkpt lat="42.87142" lon="-0.19358">
        <ele>2456.4</ele>
        <time>2026-07-15T09:51:53Z</time>
      </trkpt>
      <trkpt lat="42.87143" lon="-0.19358">
        <ele>2455.4</ele>
        <time>2026-07-15T09:51:53Z</time>
      </trkpt>
      <trkpt lat="42.87143" lon="-0.19358">
        <ele>2455.4</ele>
        <time>2026-07-15T09:51:54Z</time>
      </trkpt>
      <trkpt lat="42.87143" lon="-0.19358">
        <ele>2455.4</ele>
        <time>2026-07-15T09:51:54Z</time>
      </trkpt>
      <trkpt lat="42.87144" lon="-0.19358">
        <ele>2455.4</ele>
        <time>2026-07-15T09:51:55Z</time>
      </trkpt>
      <trkpt lat="42.87144" lon="-0.19358">
        <ele>2455.4</ele>
        <time>2026-07-15T09:51:56Z</time>
      </trkpt>
      <trkpt lat="42.87145" lon="-0.19359">
        <ele>2456.4</ele>
        <time>2026-07-15T09:51:56Z</time>
      </trkpt>
      <trkpt lat="42.87147" lon="-0.19359">
        <ele>2456.4</ele>
        <time>2026-07-15T09:51:57Z</time>
      </trkpt>
      <trkpt lat="42.87148" lon="-0.1936">
        <ele>2456.4</ele>
        <time>2026-07-15T09:51:58Z</time>
      </trkpt>
      <trkpt lat="42.87148" lon="-0.1936">
        <ele>2456.4</ele>
        <time>2026-07-15T09:51:58Z</time>
      </trkpt>
      <trkpt lat="42.87149" lon="-0.1936">
        <ele>2456.4</ele>
        <time>2026-07-15T09:51:59Z</time>
      </trkpt>
      <trkpt lat="42.8715" lon="-0.1936">
        <ele>2456.4</ele>
        <time>2026-07-15T09:51:59Z</time>
      </trkpt>
      <trkpt lat="42.87151" lon="-0.1936">
        <ele>2455.4</ele>
        <time>2026-07-15T09:52:00Z</time>
      </trkpt>
      <trkpt lat="42.87152" lon="-0.1936">
        <ele>2455.4</ele>
        <time>2026-07-15T09:52:01Z</time>
      </trkpt>
      <trkpt lat="42.87152" lon="-0.19359">
        <ele>2455.4</ele>
        <time>2026-07-15T09:52:02Z</time>
      </trkpt>
      <trkpt lat="42.87153" lon="-0.19359">
        <ele>2455.4</ele>
        <time>2026-07-15T09:52:02Z</time>
      </trkpt>
      <trkpt lat="42.87153" lon="-0.19359">
        <ele>2455.4</ele>
        <time>2026-07-15T09:52:03Z</time>
      </trkpt>
      <trkpt lat="42.87153" lon="-0.19359">
        <ele>2454.4</ele>
        <time>2026-07-15T09:52:03Z</time>
      </trkpt>
      <trkpt lat="42.87154" lon="-0.19359">
        <ele>2454.4</ele>
        <time>2026-07-15T09:52:04Z</time>
      </trkpt>
      <trkpt lat="42.87155" lon="-0.19358">
        <ele>2454.4</ele>
        <time>2026-07-15T09:52:05Z</time>
      </trkpt>
      <trkpt lat="42.87155" lon="-0.19358">
        <ele>2454.4</ele>
        <time>2026-07-15T09:52:05Z</time>
      </trkpt>
      <trkpt lat="42.87156" lon="-0.19358">
        <ele>2454.4</ele>
        <time>2026-07-15T09:52:06Z</time>
      </trkpt>
      <trkpt lat="42.87156" lon="-0.19358">
        <ele>2454.4</ele>
        <time>2026-07-15T09:52:07Z</time>
      </trkpt>
      <trkpt lat="42.87157" lon="-0.19358">
        <ele>2454.4</ele>
        <time>2026-07-15T09:52:07Z</time>
      </trkpt>
      <trkpt lat="42.87158" lon="-0.19358">
        <ele>2453.4</ele>
        <time>2026-07-15T09:52:08Z</time>
      </trkpt>
      <trkpt lat="42.87158" lon="-0.19359">
        <ele>2453.4</ele>
        <time>2026-07-15T09:52:08Z</time>
      </trkpt>
      <trkpt lat="42.87159" lon="-0.19359">
        <ele>2453.4</ele>
        <time>2026-07-15T09:52:09Z</time>
      </trkpt>
      <trkpt lat="42.87159" lon="-0.19359">
        <ele>2454.4</ele>
        <time>2026-07-15T09:52:10Z</time>
      </trkpt>
      <trkpt lat="42.87159" lon="-0.19359">
        <ele>2453.4</ele>
        <time>2026-07-15T09:52:10Z</time>
      </trkpt>
      <trkpt lat="42.8716" lon="-0.19359">
        <ele>2453.4</ele>
        <time>2026-07-15T09:52:11Z</time>
      </trkpt>
      <trkpt lat="42.87161" lon="-0.19359">
        <ele>2453.4</ele>
        <time>2026-07-15T09:52:11Z</time>
      </trkpt>
      <trkpt lat="42.87161" lon="-0.19359">
        <ele>2453.4</ele>
        <time>2026-07-15T09:52:12Z</time>
      </trkpt>
      <trkpt lat="42.87162" lon="-0.19359">
        <ele>2454.4</ele>
        <time>2026-07-15T09:52:13Z</time>
      </trkpt>
      <trkpt lat="42.87163" lon="-0.19359">
        <ele>2453.4</ele>
        <time>2026-07-15T09:52:14Z</time>
      </trkpt>
      <trkpt lat="42.87163" lon="-0.19358">
        <ele>2453.4</ele>
        <time>2026-07-15T09:52:15Z</time>
      </trkpt>
      <trkpt lat="42.87164" lon="-0.19358">
        <ele>2453.4</ele>
        <time>2026-07-15T09:52:15Z</time>
      </trkpt>
      <trkpt lat="42.87164" lon="-0.19357">
        <ele>2452.4</ele>
        <time>2026-07-15T09:52:16Z</time>
      </trkpt>
      <trkpt lat="42.87165" lon="-0.19358">
        <ele>2452.4</ele>
        <time>2026-07-15T09:52:17Z</time>
      </trkpt>
      <trkpt lat="42.87165" lon="-0.19358">
        <ele>2452.4</ele>
        <time>2026-07-15T09:52:17Z</time>
      </trkpt>
      <trkpt lat="42.87165" lon="-0.19359">
        <ele>2452.4</ele>
        <time>2026-07-15T09:52:18Z</time>
      </trkpt>
      <trkpt lat="42.87166" lon="-0.19359">
        <ele>2452.4</ele>
        <time>2026-07-15T09:52:19Z</time>
      </trkpt>
      <trkpt lat="42.87166" lon="-0.19359">
        <ele>2452.4</ele>
        <time>2026-07-15T09:52:20Z</time>
      </trkpt>
      <trkpt lat="42.87166" lon="-0.1936">
        <ele>2451.4</ele>
        <time>2026-07-15T09:52:20Z</time>
      </trkpt>
      <trkpt lat="42.87166" lon="-0.1936">
        <ele>2451.4</ele>
        <time>2026-07-15T09:52:21Z</time>
      </trkpt>
      <trkpt lat="42.87165" lon="-0.1936">
        <ele>2451.4</ele>
        <time>2026-07-15T09:52:22Z</time>
      </trkpt>
      <trkpt lat="42.87164" lon="-0.1936">
        <ele>2450.4</ele>
        <time>2026-07-15T09:52:23Z</time>
      </trkpt>
      <trkpt lat="42.87164" lon="-0.1936">
        <ele>2449.4</ele>
        <time>2026-07-15T09:52:23Z</time>
      </trkpt>
      <trkpt lat="42.87163" lon="-0.19359">
        <ele>2450.4</ele>
        <time>2026-07-15T09:52:24Z</time>
      </trkpt>
      <trkpt lat="42.87163" lon="-0.19359">
        <ele>2450.4</ele>
        <time>2026-07-15T09:52:25Z</time>
      </trkpt>
      <trkpt lat="42.87163" lon="-0.19359">
        <ele>2450.4</ele>
        <time>2026-07-15T09:52:26Z</time>
      </trkpt>
      <trkpt lat="42.87164" lon="-0.1936">
        <ele>2450.4</ele>
        <time>2026-07-15T09:52:27Z</time>
      </trkpt>
      <trkpt lat="42.87164" lon="-0.1936">
        <ele>2450.4</ele>
        <time>2026-07-15T09:52:28Z</time>
      </trkpt>
      <trkpt lat="42.87164" lon="-0.1936">
        <ele>2450.4</ele>
        <time>2026-07-15T09:52:29Z</time>
      </trkpt>
      <trkpt lat="42.87164" lon="-0.1936">
        <ele>2450.4</ele>
        <time>2026-07-15T09:52:29Z</time>
      </trkpt>
      <trkpt lat="42.87164" lon="-0.1936">
        <ele>2450.4</ele>
        <time>2026-07-15T09:52:30Z</time>
      </trkpt>
      <trkpt lat="42.87164" lon="-0.1936">
        <ele>2451.4</ele>
        <time>2026-07-15T09:52:31Z</time>
      </trkpt>
      <trkpt lat="42.87164" lon="-0.1936">
        <ele>2451.4</ele>
        <time>2026-07-15T09:52:32Z</time>
      </trkpt>
      <trkpt lat="42.87164" lon="-0.1936">
        <ele>2451.4</ele>
        <time>2026-07-15T09:52:33Z</time>
      </trkpt>
      <trkpt lat="42.87164" lon="-0.1936">
        <ele>2451.4</ele>
        <time>2026-07-15T09:52:33Z</time>
      </trkpt>
      <trkpt lat="42.87165" lon="-0.19361">
        <ele>2451.4</ele>
        <time>2026-07-15T09:52:34Z</time>
      </trkpt>
      <trkpt lat="42.87165" lon="-0.19361">
        <ele>2451.4</ele>
        <time>2026-07-15T09:52:35Z</time>
      </trkpt>
      <trkpt lat="42.87165" lon="-0.19361">
        <ele>2450.4</ele>
        <time>2026-07-15T09:52:36Z</time>
      </trkpt>
      <trkpt lat="42.87165" lon="-0.1936">
        <ele>2450.4</ele>
        <time>2026-07-15T09:52:36Z</time>
      </trkpt>
      <trkpt lat="42.87166" lon="-0.1936">
        <ele>2450.4</ele>
        <time>2026-07-15T09:52:37Z</time>
      </trkpt>
      <trkpt lat="42.87166" lon="-0.1936">
        <ele>2449.4</ele>
        <time>2026-07-15T09:52:38Z</time>
      </trkpt>
      <trkpt lat="42.87167" lon="-0.1936">
        <ele>2449.4</ele>
        <time>2026-07-15T09:52:38Z</time>
      </trkpt>
      <trkpt lat="42.87167" lon="-0.1936">
        <ele>2449.4</ele>
        <time>2026-07-15T09:52:39Z</time>
      </trkpt>
      <trkpt lat="42.87168" lon="-0.1936">
        <ele>2450.4</ele>
        <time>2026-07-15T09:52:40Z</time>
      </trkpt>
      <trkpt lat="42.87168" lon="-0.1936">
        <ele>2450.4</ele>
        <time>2026-07-15T09:52:40Z</time>
      </trkpt>
      <trkpt lat="42.87169" lon="-0.1936">
        <ele>2450.4</ele>
        <time>2026-07-15T09:52:41Z</time>
      </trkpt>
      <trkpt lat="42.8717" lon="-0.1936">
        <ele>2449.4</ele>
        <time>2026-07-15T09:52:42Z</time>
      </trkpt>
      <trkpt lat="42.87171" lon="-0.1936">
        <ele>2449.4</ele>
        <time>2026-07-15T09:52:42Z</time>
      </trkpt>
      <trkpt lat="42.87172" lon="-0.1936">
        <ele>2449.4</ele>
        <time>2026-07-15T09:52:43Z</time>
      </trkpt>
      <trkpt lat="42.87172" lon="-0.19361">
        <ele>2449.4</ele>
        <time>2026-07-15T09:52:43Z</time>
      </trkpt>
      <trkpt lat="42.87173" lon="-0.19361">
        <ele>2449.4</ele>
        <time>2026-07-15T09:52:44Z</time>
      </trkpt>
      <trkpt lat="42.87173" lon="-0.19362">
        <ele>2449.4</ele>
        <time>2026-07-15T09:52:45Z</time>
      </trkpt>
      <trkpt lat="42.87174" lon="-0.19362">
        <ele>2449.4</ele>
        <time>2026-07-15T09:52:46Z</time>
      </trkpt>
      <trkpt lat="42.87175" lon="-0.19362">
        <ele>2448.4</ele>
        <time>2026-07-15T09:52:47Z</time>
      </trkpt>
      <trkpt lat="42.87175" lon="-0.19362">
        <ele>2448.4</ele>
        <time>2026-07-15T09:52:48Z</time>
      </trkpt>
      <trkpt lat="42.87176" lon="-0.19362">
        <ele>2448.4</ele>
        <time>2026-07-15T09:52:48Z</time>
      </trkpt>
      <trkpt lat="42.87176" lon="-0.19362">
        <ele>2448.4</ele>
        <time>2026-07-15T09:52:49Z</time>
      </trkpt>
      <trkpt lat="42.87177" lon="-0.19362">
        <ele>2448.4</ele>
        <time>2026-07-15T09:52:50Z</time>
      </trkpt>
      <trkpt lat="42.87178" lon="-0.19362">
        <ele>2448.4</ele>
        <time>2026-07-15T09:52:50Z</time>
      </trkpt>
      <trkpt lat="42.87178" lon="-0.19363">
        <ele>2448.4</ele>
        <time>2026-07-15T09:52:51Z</time>
      </trkpt>
      <trkpt lat="42.87179" lon="-0.19363">
        <ele>2447.4</ele>
        <time>2026-07-15T09:52:52Z</time>
      </trkpt>
      <trkpt lat="42.87179" lon="-0.19363">
        <ele>2447.4</ele>
        <time>2026-07-15T09:52:52Z</time>
      </trkpt>
      <trkpt lat="42.87179" lon="-0.19363">
        <ele>2447.4</ele>
        <time>2026-07-15T09:52:53Z</time>
      </trkpt>
      <trkpt lat="42.8718" lon="-0.19363">
        <ele>2447.4</ele>
        <time>2026-07-15T09:52:53Z</time>
      </trkpt>
      <trkpt lat="42.8718" lon="-0.19363">
        <ele>2447.4</ele>
        <time>2026-07-15T09:52:54Z</time>
      </trkpt>
      <trkpt lat="42.8718" lon="-0.19363">
        <ele>2447.4</ele>
        <time>2026-07-15T09:52:54Z</time>
      </trkpt>
      <trkpt lat="42.8718" lon="-0.19363">
        <ele>2447.4</ele>
        <time>2026-07-15T09:52:55Z</time>
      </trkpt>
      <trkpt lat="42.87181" lon="-0.19363">
        <ele>2447.4</ele>
        <time>2026-07-15T09:52:56Z</time>
      </trkpt>
      <trkpt lat="42.87181" lon="-0.19363">
        <ele>2447.4</ele>
        <time>2026-07-15T09:52:56Z</time>
      </trkpt>
      <trkpt lat="42.87182" lon="-0.19363">
        <ele>2447.4</ele>
        <time>2026-07-15T09:52:57Z</time>
      </trkpt>
      <trkpt lat="42.87182" lon="-0.19362">
        <ele>2447.4</ele>
        <time>2026-07-15T09:52:58Z</time>
      </trkpt>
      <trkpt lat="42.87182" lon="-0.19362">
        <ele>2448.4</ele>
        <time>2026-07-15T09:52:58Z</time>
      </trkpt>
      <trkpt lat="42.87183" lon="-0.19361">
        <ele>2448.4</ele>
        <time>2026-07-15T09:52:59Z</time>
      </trkpt>
      <trkpt lat="42.87182" lon="-0.1936">
        <ele>2448.4</ele>
        <time>2026-07-15T09:53:00Z</time>
      </trkpt>
      <trkpt lat="42.87182" lon="-0.19359">
        <ele>2448.4</ele>
        <time>2026-07-15T09:53:01Z</time>
      </trkpt>
      <trkpt lat="42.87182" lon="-0.19359">
        <ele>2446.4</ele>
        <time>2026-07-15T09:53:02Z</time>
      </trkpt>
      <trkpt lat="42.87182" lon="-0.19358">
        <ele>2446.4</ele>
        <time>2026-07-15T09:53:02Z</time>
      </trkpt>
      <trkpt lat="42.87182" lon="-0.19358">
        <ele>2446.4</ele>
        <time>2026-07-15T09:53:03Z</time>
      </trkpt>
      <trkpt lat="42.87183" lon="-0.19357">
        <ele>2446.4</ele>
        <time>2026-07-15T09:53:04Z</time>
      </trkpt>
      <trkpt lat="42.87183" lon="-0.19357">
        <ele>2445.4</ele>
        <time>2026-07-15T09:53:05Z</time>
      </trkpt>
      <trkpt lat="42.87183" lon="-0.19357">
        <ele>2445.4</ele>
        <time>2026-07-15T09:53:05Z</time>
      </trkpt>
      <trkpt lat="42.87183" lon="-0.19356">
        <ele>2445.4</ele>
        <time>2026-07-15T09:53:06Z</time>
      </trkpt>
      <trkpt lat="42.87183" lon="-0.19356">
        <ele>2445.4</ele>
        <time>2026-07-15T09:53:07Z</time>
      </trkpt>
      <trkpt lat="42.87183" lon="-0.19356">
        <ele>2445.4</ele>
        <time>2026-07-15T09:53:07Z</time>
      </trkpt>
      <trkpt lat="42.87184" lon="-0.19356">
        <ele>2445.4</ele>
        <time>2026-07-15T09:53:08Z</time>
      </trkpt>
      <trkpt lat="42.87184" lon="-0.19355">
        <ele>2445.4</ele>
        <time>2026-07-15T09:53:09Z</time>
      </trkpt>
      <trkpt lat="42.87184" lon="-0.19355">
        <ele>2445.4</ele>
        <time>2026-07-15T09:53:09Z</time>
      </trkpt>
      <trkpt lat="42.87185" lon="-0.19355">
        <ele>2445.4</ele>
        <time>2026-07-15T09:53:10Z</time>
      </trkpt>
      <trkpt lat="42.87185" lon="-0.19355">
        <ele>2445.4</ele>
        <time>2026-07-15T09:53:11Z</time>
      </trkpt>
      <trkpt lat="42.87185" lon="-0.19355">
        <ele>2445.4</ele>
        <time>2026-07-15T09:53:11Z</time>
      </trkpt>
      <trkpt lat="42.87186" lon="-0.19356">
        <ele>2445.4</ele>
        <time>2026-07-15T09:53:12Z</time>
      </trkpt>
      <trkpt lat="42.87187" lon="-0.19356">
        <ele>2445.4</ele>
        <time>2026-07-15T09:53:13Z</time>
      </trkpt>
      <trkpt lat="42.87188" lon="-0.19356">
        <ele>2444.4</ele>
        <time>2026-07-15T09:53:14Z</time>
      </trkpt>
      <trkpt lat="42.87188" lon="-0.19355">
        <ele>2444.4</ele>
        <time>2026-07-15T09:53:15Z</time>
      </trkpt>
      <trkpt lat="42.87188" lon="-0.19355">
        <ele>2444.4</ele>
        <time>2026-07-15T09:53:16Z</time>
      </trkpt>
      <trkpt lat="42.87189" lon="-0.19354">
        <ele>2444.4</ele>
        <time>2026-07-15T09:53:17Z</time>
      </trkpt>
      <trkpt lat="42.87189" lon="-0.19353">
        <ele>2443.4</ele>
        <time>2026-07-15T09:53:18Z</time>
      </trkpt>
      <trkpt lat="42.87189" lon="-0.19353">
        <ele>2442.4</ele>
        <time>2026-07-15T09:53:18Z</time>
      </trkpt>
      <trkpt lat="42.8719" lon="-0.19352">
        <ele>2443.4</ele>
        <time>2026-07-15T09:53:19Z</time>
      </trkpt>
      <trkpt lat="42.8719" lon="-0.19352">
        <ele>2443.4</ele>
        <time>2026-07-15T09:53:20Z</time>
      </trkpt>
      <trkpt lat="42.8719" lon="-0.19352">
        <ele>2442.4</ele>
        <time>2026-07-15T09:53:20Z</time>
      </trkpt>
      <trkpt lat="42.87191" lon="-0.19352">
        <ele>2442.4</ele>
        <time>2026-07-15T09:53:21Z</time>
      </trkpt>
      <trkpt lat="42.87191" lon="-0.19352">
        <ele>2442.4</ele>
        <time>2026-07-15T09:53:22Z</time>
      </trkpt>
      <trkpt lat="42.87192" lon="-0.19352">
        <ele>2442.4</ele>
        <time>2026-07-15T09:53:22Z</time>
      </trkpt>
      <trkpt lat="42.87192" lon="-0.19352">
        <ele>2443.4</ele>
        <time>2026-07-15T09:53:23Z</time>
      </trkpt>
      <trkpt lat="42.87193" lon="-0.19351">
        <ele>2443.4</ele>
        <time>2026-07-15T09:53:24Z</time>
      </trkpt>
      <trkpt lat="42.87194" lon="-0.19351">
        <ele>2443.4</ele>
        <time>2026-07-15T09:53:25Z</time>
      </trkpt>
      <trkpt lat="42.87194" lon="-0.19351">
        <ele>2441.4</ele>
        <time>2026-07-15T09:53:26Z</time>
      </trkpt>
      <trkpt lat="42.87194" lon="-0.19351">
        <ele>2441.4</ele>
        <time>2026-07-15T09:53:27Z</time>
      </trkpt>
      <trkpt lat="42.87195" lon="-0.19351">
        <ele>2441.4</ele>
        <time>2026-07-15T09:53:28Z</time>
      </trkpt>
      <trkpt lat="42.87195" lon="-0.19351">
        <ele>2441.4</ele>
        <time>2026-07-15T09:53:28Z</time>
      </trkpt>
      <trkpt lat="42.87196" lon="-0.19351">
        <ele>2441.4</ele>
        <time>2026-07-15T09:53:29Z</time>
      </trkpt>
      <trkpt lat="42.87196" lon="-0.19351">
        <ele>2441.4</ele>
        <time>2026-07-15T09:53:30Z</time>
      </trkpt>
      <trkpt lat="42.87196" lon="-0.19352">
        <ele>2441.4</ele>
        <time>2026-07-15T09:53:31Z</time>
      </trkpt>
      <trkpt lat="42.87196" lon="-0.19352">
        <ele>2441.4</ele>
        <time>2026-07-15T09:53:31Z</time>
      </trkpt>
      <trkpt lat="42.87197" lon="-0.19352">
        <ele>2441.4</ele>
        <time>2026-07-15T09:53:32Z</time>
      </trkpt>
      <trkpt lat="42.87197" lon="-0.19353">
        <ele>2440.4</ele>
        <time>2026-07-15T09:53:33Z</time>
      </trkpt>
      <trkpt lat="42.87197" lon="-0.19353">
        <ele>2440.4</ele>
        <time>2026-07-15T09:53:33Z</time>
      </trkpt>
      <trkpt lat="42.87198" lon="-0.19353">
        <ele>2440.4</ele>
        <time>2026-07-15T09:53:34Z</time>
      </trkpt>
      <trkpt lat="42.87198" lon="-0.19353">
        <ele>2440.4</ele>
        <time>2026-07-15T09:53:35Z</time>
      </trkpt>
      <trkpt lat="42.87198" lon="-0.19353">
        <ele>2439.4</ele>
        <time>2026-07-15T09:53:35Z</time>
      </trkpt>
      <trkpt lat="42.87199" lon="-0.19352">
        <ele>2439.4</ele>
        <time>2026-07-15T09:53:36Z</time>
      </trkpt>
      <trkpt lat="42.872" lon="-0.19352">
        <ele>2439.4</ele>
        <time>2026-07-15T09:53:37Z</time>
      </trkpt>
      <trkpt lat="42.872" lon="-0.19352">
        <ele>2439.4</ele>
        <time>2026-07-15T09:53:38Z</time>
      </trkpt>
      <trkpt lat="42.872" lon="-0.19352">
        <ele>2440.4</ele>
        <time>2026-07-15T09:53:39Z</time>
      </trkpt>
      <trkpt lat="42.872" lon="-0.19352">
        <ele>2440.4</ele>
        <time>2026-07-15T09:53:39Z</time>
      </trkpt>
      <trkpt lat="42.87201" lon="-0.19352">
        <ele>2440.4</ele>
        <time>2026-07-15T09:53:40Z</time>
      </trkpt>
      <trkpt lat="42.87201" lon="-0.19351">
        <ele>2439.4</ele>
        <time>2026-07-15T09:53:41Z</time>
      </trkpt>
      <trkpt lat="42.87201" lon="-0.19351">
        <ele>2439.4</ele>
        <time>2026-07-15T09:53:41Z</time>
      </trkpt>
      <trkpt lat="42.87202" lon="-0.19351">
        <ele>2439.4</ele>
        <time>2026-07-15T09:53:42Z</time>
      </trkpt>
      <trkpt lat="42.87202" lon="-0.19351">
        <ele>2439.4</ele>
        <time>2026-07-15T09:53:42Z</time>
      </trkpt>
      <trkpt lat="42.87202" lon="-0.19351">
        <ele>2439.4</ele>
        <time>2026-07-15T09:53:43Z</time>
      </trkpt>
      <trkpt lat="42.87203" lon="-0.1935">
        <ele>2439.4</ele>
        <time>2026-07-15T09:53:44Z</time>
      </trkpt>
      <trkpt lat="42.87203" lon="-0.1935">
        <ele>2439.4</ele>
        <time>2026-07-15T09:53:44Z</time>
      </trkpt>
      <trkpt lat="42.87203" lon="-0.19349">
        <ele>2439.4</ele>
        <time>2026-07-15T09:53:45Z</time>
      </trkpt>
      <trkpt lat="42.87203" lon="-0.19349">
        <ele>2438.4</ele>
        <time>2026-07-15T09:53:45Z</time>
      </trkpt>
      <trkpt lat="42.87204" lon="-0.19348">
        <ele>2438.4</ele>
        <time>2026-07-15T09:53:46Z</time>
      </trkpt>
      <trkpt lat="42.87204" lon="-0.19348">
        <ele>2438.4</ele>
        <time>2026-07-15T09:53:47Z</time>
      </trkpt>
      <trkpt lat="42.87204" lon="-0.19348">
        <ele>2438.4</ele>
        <time>2026-07-15T09:53:47Z</time>
      </trkpt>
      <trkpt lat="42.87204" lon="-0.19347">
        <ele>2438.4</ele>
        <time>2026-07-15T09:53:48Z</time>
      </trkpt>
      <trkpt lat="42.87205" lon="-0.19347">
        <ele>2438.4</ele>
        <time>2026-07-15T09:53:48Z</time>
      </trkpt>
      <trkpt lat="42.87205" lon="-0.19346">
        <ele>2438.4</ele>
        <time>2026-07-15T09:53:49Z</time>
      </trkpt>
      <trkpt lat="42.87206" lon="-0.19346">
        <ele>2438.4</ele>
        <time>2026-07-15T09:53:50Z</time>
      </trkpt>
      <trkpt lat="42.87206" lon="-0.19346">
        <ele>2438.4</ele>
        <time>2026-07-15T09:53:51Z</time>
      </trkpt>
      <trkpt lat="42.87206" lon="-0.19346">
        <ele>2438.4</ele>
        <time>2026-07-15T09:53:52Z</time>
      </trkpt>
      <trkpt lat="42.87207" lon="-0.19346">
        <ele>2438.4</ele>
        <time>2026-07-15T09:53:53Z</time>
      </trkpt>
      <trkpt lat="42.87207" lon="-0.19347">
        <ele>2437.4</ele>
        <time>2026-07-15T09:53:54Z</time>
      </trkpt>
      <trkpt lat="42.87207" lon="-0.19347">
        <ele>2437.4</ele>
        <time>2026-07-15T09:53:55Z</time>
      </trkpt>
      <trkpt lat="42.87207" lon="-0.19348">
        <ele>2436.4</ele>
        <time>2026-07-15T09:53:55Z</time>
      </trkpt>
      <trkpt lat="42.87208" lon="-0.19348">
        <ele>2436.4</ele>
        <time>2026-07-15T09:53:56Z</time>
      </trkpt>
      <trkpt lat="42.87208" lon="-0.19348">
        <ele>2436.4</ele>
        <time>2026-07-15T09:53:57Z</time>
      </trkpt>
      <trkpt lat="42.87209" lon="-0.19348">
        <ele>2436.4</ele>
        <time>2026-07-15T09:53:57Z</time>
      </trkpt>
      <trkpt lat="42.87209" lon="-0.19347">
        <ele>2436.4</ele>
        <time>2026-07-15T09:53:58Z</time>
      </trkpt>
      <trkpt lat="42.8721" lon="-0.19347">
        <ele>2435.4</ele>
        <time>2026-07-15T09:53:59Z</time>
      </trkpt>
      <trkpt lat="42.8721" lon="-0.19347">
        <ele>2435.4</ele>
        <time>2026-07-15T09:53:59Z</time>
      </trkpt>
      <trkpt lat="42.87211" lon="-0.19347">
        <ele>2435.4</ele>
        <time>2026-07-15T09:54:00Z</time>
      </trkpt>
      <trkpt lat="42.87211" lon="-0.19347">
        <ele>2434.4</ele>
        <time>2026-07-15T09:54:01Z</time>
      </trkpt>
      <trkpt lat="42.87212" lon="-0.19347">
        <ele>2434.4</ele>
        <time>2026-07-15T09:54:02Z</time>
      </trkpt>
      <trkpt lat="42.87212" lon="-0.19347">
        <ele>2434.4</ele>
        <time>2026-07-15T09:54:02Z</time>
      </trkpt>
      <trkpt lat="42.87212" lon="-0.19346">
        <ele>2433.4</ele>
        <time>2026-07-15T09:54:03Z</time>
      </trkpt>
      <trkpt lat="42.87213" lon="-0.19346">
        <ele>2433.4</ele>
        <time>2026-07-15T09:54:04Z</time>
      </trkpt>
      <trkpt lat="42.87213" lon="-0.19346">
        <ele>2433.4</ele>
        <time>2026-07-15T09:54:05Z</time>
      </trkpt>
      <trkpt lat="42.87214" lon="-0.19346">
        <ele>2433.4</ele>
        <time>2026-07-15T09:54:06Z</time>
      </trkpt>
      <trkpt lat="42.87214" lon="-0.19347">
        <ele>2433.4</ele>
        <time>2026-07-15T09:54:07Z</time>
      </trkpt>
      <trkpt lat="42.87214" lon="-0.19347">
        <ele>2433.4</ele>
        <time>2026-07-15T09:54:08Z</time>
      </trkpt>
      <trkpt lat="42.87214" lon="-0.19347">
        <ele>2434.4</ele>
        <time>2026-07-15T09:54:08Z</time>
      </trkpt>
      <trkpt lat="42.87214" lon="-0.19347">
        <ele>2434.4</ele>
        <time>2026-07-15T09:54:09Z</time>
      </trkpt>
      <trkpt lat="42.87214" lon="-0.19347">
        <ele>2434.4</ele>
        <time>2026-07-15T09:54:10Z</time>
      </trkpt>
      <trkpt lat="42.87214" lon="-0.19347">
        <ele>2434.4</ele>
        <time>2026-07-15T09:54:11Z</time>
      </trkpt>
      <trkpt lat="42.87215" lon="-0.19347">
        <ele>2434.4</ele>
        <time>2026-07-15T09:54:12Z</time>
      </trkpt>
      <trkpt lat="42.87215" lon="-0.19347">
        <ele>2434.4</ele>
        <time>2026-07-15T09:54:13Z</time>
      </trkpt>
      <trkpt lat="42.87215" lon="-0.19347">
        <ele>2434.4</ele>
        <time>2026-07-15T09:54:14Z</time>
      </trkpt>
      <trkpt lat="42.87215" lon="-0.19346">
        <ele>2434.4</ele>
        <time>2026-07-15T09:54:14Z</time>
      </trkpt>
      <trkpt lat="42.87215" lon="-0.19346">
        <ele>2434.4</ele>
        <time>2026-07-15T09:54:15Z</time>
      </trkpt>
      <trkpt lat="42.87216" lon="-0.19346">
        <ele>2434.4</ele>
        <time>2026-07-15T09:54:16Z</time>
      </trkpt>
      <trkpt lat="42.87216" lon="-0.19347">
        <ele>2433.4</ele>
        <time>2026-07-15T09:54:16Z</time>
      </trkpt>
      <trkpt lat="42.87216" lon="-0.19347">
        <ele>2434.4</ele>
        <time>2026-07-15T09:54:17Z</time>
      </trkpt>
      <trkpt lat="42.87217" lon="-0.19347">
        <ele>2434.4</ele>
        <time>2026-07-15T09:54:18Z</time>
      </trkpt>
      <trkpt lat="42.87217" lon="-0.19347">
        <ele>2434.4</ele>
        <time>2026-07-15T09:54:19Z</time>
      </trkpt>
      <trkpt lat="42.87218" lon="-0.19347">
        <ele>2434.4</ele>
        <time>2026-07-15T09:54:20Z</time>
      </trkpt>
      <trkpt lat="42.87218" lon="-0.19347">
        <ele>2434.4</ele>
        <time>2026-07-15T09:54:20Z</time>
      </trkpt>
      <trkpt lat="42.87219" lon="-0.19348">
        <ele>2434.4</ele>
        <time>2026-07-15T09:54:21Z</time>
      </trkpt>
      <trkpt lat="42.87219" lon="-0.19348">
        <ele>2434.4</ele>
        <time>2026-07-15T09:54:22Z</time>
      </trkpt>
      <trkpt lat="42.8722" lon="-0.19349">
        <ele>2433.4</ele>
        <time>2026-07-15T09:54:22Z</time>
      </trkpt>
      <trkpt lat="42.8722" lon="-0.1935">
        <ele>2432.4</ele>
        <time>2026-07-15T09:54:23Z</time>
      </trkpt>
      <trkpt lat="42.8722" lon="-0.1935">
        <ele>2432.4</ele>
        <time>2026-07-15T09:54:24Z</time>
      </trkpt>
      <trkpt lat="42.8722" lon="-0.1935">
        <ele>2432.4</ele>
        <time>2026-07-15T09:54:25Z</time>
      </trkpt>
      <trkpt lat="42.8722" lon="-0.1935">
        <ele>2432.4</ele>
        <time>2026-07-15T09:54:26Z</time>
      </trkpt>
      <trkpt lat="42.8722" lon="-0.1935">
        <ele>2431.4</ele>
        <time>2026-07-15T09:54:27Z</time>
      </trkpt>
      <trkpt lat="42.8722" lon="-0.1935">
        <ele>2432.4</ele>
        <time>2026-07-15T09:54:28Z</time>
      </trkpt>
      <trkpt lat="42.8722" lon="-0.1935">
        <ele>2432.4</ele>
        <time>2026-07-15T09:54:28Z</time>
      </trkpt>
      <trkpt lat="42.8722" lon="-0.19351">
        <ele>2432.4</ele>
        <time>2026-07-15T09:54:29Z</time>
      </trkpt>
      <trkpt lat="42.87221" lon="-0.19351">
        <ele>2432.4</ele>
        <time>2026-07-15T09:54:30Z</time>
      </trkpt>
      <trkpt lat="42.87221" lon="-0.19351">
        <ele>2431.4</ele>
        <time>2026-07-15T09:54:31Z</time>
      </trkpt>
      <trkpt lat="42.87221" lon="-0.19351">
        <ele>2431.4</ele>
        <time>2026-07-15T09:54:32Z</time>
      </trkpt>
      <trkpt lat="42.87221" lon="-0.19351">
        <ele>2431.4</ele>
        <time>2026-07-15T09:54:32Z</time>
      </trkpt>
      <trkpt lat="42.87222" lon="-0.1935">
        <ele>2431.4</ele>
        <time>2026-07-15T09:54:33Z</time>
      </trkpt>
      <trkpt lat="42.87222" lon="-0.1935">
        <ele>2431.4</ele>
        <time>2026-07-15T09:54:34Z</time>
      </trkpt>
      <trkpt lat="42.87222" lon="-0.1935">
        <ele>2431.4</ele>
        <time>2026-07-15T09:54:35Z</time>
      </trkpt>
      <trkpt lat="42.87222" lon="-0.1935">
        <ele>2431.4</ele>
        <time>2026-07-15T09:54:35Z</time>
      </trkpt>
      <trkpt lat="42.87222" lon="-0.1935">
        <ele>2431.4</ele>
        <time>2026-07-15T09:54:36Z</time>
      </trkpt>
      <trkpt lat="42.87223" lon="-0.1935">
        <ele>2431.4</ele>
        <time>2026-07-15T09:54:36Z</time>
      </trkpt>
      <trkpt lat="42.87223" lon="-0.1935">
        <ele>2431.4</ele>
        <time>2026-07-15T09:54:37Z</time>
      </trkpt>
      <trkpt lat="42.87224" lon="-0.19349">
        <ele>2431.4</ele>
        <time>2026-07-15T09:54:38Z</time>
      </trkpt>
      <trkpt lat="42.87224" lon="-0.1935">
        <ele>2430.4</ele>
        <time>2026-07-15T09:54:38Z</time>
      </trkpt>
      <trkpt lat="42.87225" lon="-0.1935">
        <ele>2430.4</ele>
        <time>2026-07-15T09:54:39Z</time>
      </trkpt>
      <trkpt lat="42.87226" lon="-0.1935">
        <ele>2429.4</ele>
        <time>2026-07-15T09:54:40Z</time>
      </trkpt>
      <trkpt lat="42.87226" lon="-0.1935">
        <ele>2429.4</ele>
        <time>2026-07-15T09:54:40Z</time>
      </trkpt>
      <trkpt lat="42.87226" lon="-0.1935">
        <ele>2429.4</ele>
        <time>2026-07-15T09:54:41Z</time>
      </trkpt>
      <trkpt lat="42.87227" lon="-0.1935">
        <ele>2428.4</ele>
        <time>2026-07-15T09:54:42Z</time>
      </trkpt>
      <trkpt lat="42.87227" lon="-0.19349">
        <ele>2427.4</ele>
        <time>2026-07-15T09:54:43Z</time>
      </trkpt>
      <trkpt lat="42.87227" lon="-0.19349">
        <ele>2427.4</ele>
        <time>2026-07-15T09:54:43Z</time>
      </trkpt>
      <trkpt lat="42.87226" lon="-0.19349">
        <ele>2427.4</ele>
        <time>2026-07-15T09:54:44Z</time>
      </trkpt>
      <trkpt lat="42.87226" lon="-0.19349">
        <ele>2427.4</ele>
        <time>2026-07-15T09:54:45Z</time>
      </trkpt>
      <trkpt lat="42.87227" lon="-0.19348">
        <ele>2427.4</ele>
        <time>2026-07-15T09:54:46Z</time>
      </trkpt>
      <trkpt lat="42.87227" lon="-0.19348">
        <ele>2427.4</ele>
        <time>2026-07-15T09:54:46Z</time>
      </trkpt>
      <trkpt lat="42.87228" lon="-0.19348">
        <ele>2427.4</ele>
        <time>2026-07-15T09:54:47Z</time>
      </trkpt>
      <trkpt lat="42.87228" lon="-0.19348">
        <ele>2427.4</ele>
        <time>2026-07-15T09:54:48Z</time>
      </trkpt>
      <trkpt lat="42.87229" lon="-0.19348">
        <ele>2427.4</ele>
        <time>2026-07-15T09:54:49Z</time>
      </trkpt>
      <trkpt lat="42.8723" lon="-0.19348">
        <ele>2427.4</ele>
        <time>2026-07-15T09:54:50Z</time>
      </trkpt>
      <trkpt lat="42.8723" lon="-0.19348">
        <ele>2428.4</ele>
        <time>2026-07-15T09:54:50Z</time>
      </trkpt>
      <trkpt lat="42.87231" lon="-0.19348">
        <ele>2428.4</ele>
        <time>2026-07-15T09:54:51Z</time>
      </trkpt>
      <trkpt lat="42.87232" lon="-0.19347">
        <ele>2427.4</ele>
        <time>2026-07-15T09:54:52Z</time>
      </trkpt>
      <trkpt lat="42.87232" lon="-0.19348">
        <ele>2427.4</ele>
        <time>2026-07-15T09:54:52Z</time>
      </trkpt>
      <trkpt lat="42.87232" lon="-0.19348">
        <ele>2427.4</ele>
        <time>2026-07-15T09:54:53Z</time>
      </trkpt>
      <trkpt lat="42.87233" lon="-0.19348">
        <ele>2427.4</ele>
        <time>2026-07-15T09:54:54Z</time>
      </trkpt>
      <trkpt lat="42.87234" lon="-0.19348">
        <ele>2427.4</ele>
        <time>2026-07-15T09:54:54Z</time>
      </trkpt>
      <trkpt lat="42.87234" lon="-0.19348">
        <ele>2426.4</ele>
        <time>2026-07-15T09:54:55Z</time>
      </trkpt>
      <trkpt lat="42.87235" lon="-0.19347">
        <ele>2426.4</ele>
        <time>2026-07-15T09:54:56Z</time>
      </trkpt>
      <trkpt lat="42.87235" lon="-0.19347">
        <ele>2426.4</ele>
        <time>2026-07-15T09:54:56Z</time>
      </trkpt>
      <trkpt lat="42.87236" lon="-0.19347">
        <ele>2426.4</ele>
        <time>2026-07-15T09:54:57Z</time>
      </trkpt>
      <trkpt lat="42.87236" lon="-0.19347">
        <ele>2426.4</ele>
        <time>2026-07-15T09:54:58Z</time>
      </trkpt>
      <trkpt lat="42.87237" lon="-0.19347">
        <ele>2425.4</ele>
        <time>2026-07-15T09:54:59Z</time>
      </trkpt>
      <trkpt lat="42.87237" lon="-0.19348">
        <ele>2425.4</ele>
        <time>2026-07-15T09:54:59Z</time>
      </trkpt>
      <trkpt lat="42.87237" lon="-0.19348">
        <ele>2425.4</ele>
        <time>2026-07-15T09:55:00Z</time>
      </trkpt>
      <trkpt lat="42.87237" lon="-0.19348">
        <ele>2425.4</ele>
        <time>2026-07-15T09:55:01Z</time>
      </trkpt>
      <trkpt lat="42.87237" lon="-0.19348">
        <ele>2425.4</ele>
        <time>2026-07-15T09:55:02Z</time>
      </trkpt>
      <trkpt lat="42.87238" lon="-0.19347">
        <ele>2424.4</ele>
        <time>2026-07-15T09:55:02Z</time>
      </trkpt>
      <trkpt lat="42.87238" lon="-0.19347">
        <ele>2424.4</ele>
        <time>2026-07-15T09:55:03Z</time>
      </trkpt>
      <trkpt lat="42.87238" lon="-0.19347">
        <ele>2423.4</ele>
        <time>2026-07-15T09:55:03Z</time>
      </trkpt>
      <trkpt lat="42.87239" lon="-0.19348">
        <ele>2423.4</ele>
        <time>2026-07-15T09:55:04Z</time>
      </trkpt>
      <trkpt lat="42.87239" lon="-0.19348">
        <ele>2422.4</ele>
        <time>2026-07-15T09:55:05Z</time>
      </trkpt>
      <trkpt lat="42.8724" lon="-0.19347">
        <ele>2423.4</ele>
        <time>2026-07-15T09:55:05Z</time>
      </trkpt>
      <trkpt lat="42.8724" lon="-0.19347">
        <ele>2423.4</ele>
        <time>2026-07-15T09:55:06Z</time>
      </trkpt>
      <trkpt lat="42.8724" lon="-0.19347">
        <ele>2423.4</ele>
        <time>2026-07-15T09:55:07Z</time>
      </trkpt>
      <trkpt lat="42.87241" lon="-0.19346">
        <ele>2422.4</ele>
        <time>2026-07-15T09:55:08Z</time>
      </trkpt>
      <trkpt lat="42.87242" lon="-0.19345">
        <ele>2422.4</ele>
        <time>2026-07-15T09:55:09Z</time>
      </trkpt>
      <trkpt lat="42.87242" lon="-0.19345">
        <ele>2422.4</ele>
        <time>2026-07-15T09:55:09Z</time>
      </trkpt>
      <trkpt lat="42.87242" lon="-0.19344">
        <ele>2422.4</ele>
        <time>2026-07-15T09:55:10Z</time>
      </trkpt>
      <trkpt lat="42.87243" lon="-0.19343">
        <ele>2422.4</ele>
        <time>2026-07-15T09:55:11Z</time>
      </trkpt>
      <trkpt lat="42.87243" lon="-0.19342">
        <ele>2423.4</ele>
        <time>2026-07-15T09:55:11Z</time>
      </trkpt>
      <trkpt lat="42.87244" lon="-0.19342">
        <ele>2423.4</ele>
        <time>2026-07-15T09:55:12Z</time>
      </trkpt>
      <trkpt lat="42.87244" lon="-0.19341">
        <ele>2423.4</ele>
        <time>2026-07-15T09:55:13Z</time>
      </trkpt>
      <trkpt lat="42.87245" lon="-0.19341">
        <ele>2423.4</ele>
        <time>2026-07-15T09:55:13Z</time>
      </trkpt>
      <trkpt lat="42.87245" lon="-0.19341">
        <ele>2423.4</ele>
        <time>2026-07-15T09:55:14Z</time>
      </trkpt>
      <trkpt lat="42.87246" lon="-0.19341">
        <ele>2423.4</ele>
        <time>2026-07-15T09:55:15Z</time>
      </trkpt>
      <trkpt lat="42.87246" lon="-0.19341">
        <ele>2423.4</ele>
        <time>2026-07-15T09:55:16Z</time>
      </trkpt>
      <trkpt lat="42.87246" lon="-0.19341">
        <ele>2423.4</ele>
        <time>2026-07-15T09:55:16Z</time>
      </trkpt>
      <trkpt lat="42.87247" lon="-0.1934">
        <ele>2423.4</ele>
        <time>2026-07-15T09:55:17Z</time>
      </trkpt>
      <trkpt lat="42.87247" lon="-0.1934">
        <ele>2422.4</ele>
        <time>2026-07-15T09:55:18Z</time>
      </trkpt>
      <trkpt lat="42.87248" lon="-0.1934">
        <ele>2422.4</ele>
        <time>2026-07-15T09:55:19Z</time>
      </trkpt>
      <trkpt lat="42.87248" lon="-0.1934">
        <ele>2423.4</ele>
        <time>2026-07-15T09:55:20Z</time>
      </trkpt>
      <trkpt lat="42.87249" lon="-0.1934">
        <ele>2423.4</ele>
        <time>2026-07-15T09:55:21Z</time>
      </trkpt>
      <trkpt lat="42.87249" lon="-0.1934">
        <ele>2423.4</ele>
        <time>2026-07-15T09:55:21Z</time>
      </trkpt>
      <trkpt lat="42.87249" lon="-0.1934">
        <ele>2422.4</ele>
        <time>2026-07-15T09:55:22Z</time>
      </trkpt>
      <trkpt lat="42.87249" lon="-0.1934">
        <ele>2422.4</ele>
        <time>2026-07-15T09:55:23Z</time>
      </trkpt>
      <trkpt lat="42.8725" lon="-0.1934">
        <ele>2422.4</ele>
        <time>2026-07-15T09:55:24Z</time>
      </trkpt>
      <trkpt lat="42.8725" lon="-0.19339">
        <ele>2422.4</ele>
        <time>2026-07-15T09:55:24Z</time>
      </trkpt>
      <trkpt lat="42.87251" lon="-0.19339">
        <ele>2422.4</ele>
        <time>2026-07-15T09:55:25Z</time>
      </trkpt>
      <trkpt lat="42.87251" lon="-0.19338">
        <ele>2422.4</ele>
        <time>2026-07-15T09:55:25Z</time>
      </trkpt>
      <trkpt lat="42.87251" lon="-0.19338">
        <ele>2422.4</ele>
        <time>2026-07-15T09:55:26Z</time>
      </trkpt>
      <trkpt lat="42.87252" lon="-0.19337">
        <ele>2422.4</ele>
        <time>2026-07-15T09:55:27Z</time>
      </trkpt>
      <trkpt lat="42.87252" lon="-0.19337">
        <ele>2422.4</ele>
        <time>2026-07-15T09:55:28Z</time>
      </trkpt>
      <trkpt lat="42.87253" lon="-0.19337">
        <ele>2422.4</ele>
        <time>2026-07-15T09:55:28Z</time>
      </trkpt>
      <trkpt lat="42.87253" lon="-0.19337">
        <ele>2422.4</ele>
        <time>2026-07-15T09:55:29Z</time>
      </trkpt>
      <trkpt lat="42.87254" lon="-0.19337">
        <ele>2422.4</ele>
        <time>2026-07-15T09:55:30Z</time>
      </trkpt>
      <trkpt lat="42.87254" lon="-0.19337">
        <ele>2422.4</ele>
        <time>2026-07-15T09:55:30Z</time>
      </trkpt>
      <trkpt lat="42.87254" lon="-0.19337">
        <ele>2422.4</ele>
        <time>2026-07-15T09:55:31Z</time>
      </trkpt>
      <trkpt lat="42.87255" lon="-0.19337">
        <ele>2421.4</ele>
        <time>2026-07-15T09:55:32Z</time>
      </trkpt>
      <trkpt lat="42.87255" lon="-0.19337">
        <ele>2421.4</ele>
        <time>2026-07-15T09:55:33Z</time>
      </trkpt>
      <trkpt lat="42.87255" lon="-0.19337">
        <ele>2421.4</ele>
        <time>2026-07-15T09:55:33Z</time>
      </trkpt>
      <trkpt lat="42.87255" lon="-0.19337">
        <ele>2421.4</ele>
        <time>2026-07-15T09:55:34Z</time>
      </trkpt>
      <trkpt lat="42.87256" lon="-0.19338">
        <ele>2421.4</ele>
        <time>2026-07-15T09:55:35Z</time>
      </trkpt>
      <trkpt lat="42.87256" lon="-0.19338">
        <ele>2421.4</ele>
        <time>2026-07-15T09:55:36Z</time>
      </trkpt>
      <trkpt lat="42.87256" lon="-0.19338">
        <ele>2420.4</ele>
        <time>2026-07-15T09:55:36Z</time>
      </trkpt>
      <trkpt lat="42.87257" lon="-0.19338">
        <ele>2420.4</ele>
        <time>2026-07-15T09:55:37Z</time>
      </trkpt>
      <trkpt lat="42.87258" lon="-0.19338">
        <ele>2420.4</ele>
        <time>2026-07-15T09:55:38Z</time>
      </trkpt>
      <trkpt lat="42.87259" lon="-0.19338">
        <ele>2420.4</ele>
        <time>2026-07-15T09:55:39Z</time>
      </trkpt>
      <trkpt lat="42.87259" lon="-0.19338">
        <ele>2420.4</ele>
        <time>2026-07-15T09:55:40Z</time>
      </trkpt>
      <trkpt lat="42.8726" lon="-0.19338">
        <ele>2420.4</ele>
        <time>2026-07-15T09:55:40Z</time>
      </trkpt>
      <trkpt lat="42.8726" lon="-0.19337">
        <ele>2420.4</ele>
        <time>2026-07-15T09:55:41Z</time>
      </trkpt>
      <trkpt lat="42.87261" lon="-0.19337">
        <ele>2419.4</ele>
        <time>2026-07-15T09:55:42Z</time>
      </trkpt>
      <trkpt lat="42.87262" lon="-0.19336">
        <ele>2419.4</ele>
        <time>2026-07-15T09:55:43Z</time>
      </trkpt>
      <trkpt lat="42.87262" lon="-0.19336">
        <ele>2419.4</ele>
        <time>2026-07-15T09:55:44Z</time>
      </trkpt>
      <trkpt lat="42.87262" lon="-0.19336">
        <ele>2419.4</ele>
        <time>2026-07-15T09:55:44Z</time>
      </trkpt>
      <trkpt lat="42.87263" lon="-0.19335">
        <ele>2419.4</ele>
        <time>2026-07-15T09:55:45Z</time>
      </trkpt>
      <trkpt lat="42.87263" lon="-0.19335">
        <ele>2419.4</ele>
        <time>2026-07-15T09:55:45Z</time>
      </trkpt>
      <trkpt lat="42.87264" lon="-0.19335">
        <ele>2419.4</ele>
        <time>2026-07-15T09:55:46Z</time>
      </trkpt>
      <trkpt lat="42.87265" lon="-0.19335">
        <ele>2419.4</ele>
        <time>2026-07-15T09:55:47Z</time>
      </trkpt>
      <trkpt lat="42.87265" lon="-0.19334">
        <ele>2419.4</ele>
        <time>2026-07-15T09:55:47Z</time>
      </trkpt>
      <trkpt lat="42.87266" lon="-0.19334">
        <ele>2419.4</ele>
        <time>2026-07-15T09:55:48Z</time>
      </trkpt>
      <trkpt lat="42.87266" lon="-0.19333">
        <ele>2419.4</ele>
        <time>2026-07-15T09:55:49Z</time>
      </trkpt>
      <trkpt lat="42.87266" lon="-0.19333">
        <ele>2419.4</ele>
        <time>2026-07-15T09:55:49Z</time>
      </trkpt>
      <trkpt lat="42.87267" lon="-0.19332">
        <ele>2419.4</ele>
        <time>2026-07-15T09:55:50Z</time>
      </trkpt>
      <trkpt lat="42.87267" lon="-0.19331">
        <ele>2419.4</ele>
        <time>2026-07-15T09:55:51Z</time>
      </trkpt>
      <trkpt lat="42.87268" lon="-0.19331">
        <ele>2419.4</ele>
        <time>2026-07-15T09:55:51Z</time>
      </trkpt>
      <trkpt lat="42.87268" lon="-0.1933">
        <ele>2419.4</ele>
        <time>2026-07-15T09:55:52Z</time>
      </trkpt>
      <trkpt lat="42.87269" lon="-0.1933">
        <ele>2418.4</ele>
        <time>2026-07-15T09:55:52Z</time>
      </trkpt>
      <trkpt lat="42.87269" lon="-0.1933">
        <ele>2418.4</ele>
        <time>2026-07-15T09:55:53Z</time>
      </trkpt>
      <trkpt lat="42.8727" lon="-0.19329">
        <ele>2418.4</ele>
        <time>2026-07-15T09:55:54Z</time>
      </trkpt>
      <trkpt lat="42.8727" lon="-0.19329">
        <ele>2418.4</ele>
        <time>2026-07-15T09:55:54Z</time>
      </trkpt>
      <trkpt lat="42.87271" lon="-0.19329">
        <ele>2418.4</ele>
        <time>2026-07-15T09:55:55Z</time>
      </trkpt>
      <trkpt lat="42.87271" lon="-0.19329">
        <ele>2418.4</ele>
        <time>2026-07-15T09:55:56Z</time>
      </trkpt>
      <trkpt lat="42.87272" lon="-0.19329">
        <ele>2418.4</ele>
        <time>2026-07-15T09:55:56Z</time>
      </trkpt>
      <trkpt lat="42.87272" lon="-0.1933">
        <ele>2417.4</ele>
        <time>2026-07-15T09:55:57Z</time>
      </trkpt>
      <trkpt lat="42.87272" lon="-0.1933">
        <ele>2417.4</ele>
        <time>2026-07-15T09:55:58Z</time>
      </trkpt>
      <trkpt lat="42.87273" lon="-0.19331">
        <ele>2418.4</ele>
        <time>2026-07-15T09:55:58Z</time>
      </trkpt>
      <trkpt lat="42.87273" lon="-0.19331">
        <ele>2418.4</ele>
        <time>2026-07-15T09:55:59Z</time>
      </trkpt>
      <trkpt lat="42.87273" lon="-0.19332">
        <ele>2418.4</ele>
        <time>2026-07-15T09:56:00Z</time>
      </trkpt>
      <trkpt lat="42.87274" lon="-0.19333">
        <ele>2418.4</ele>
        <time>2026-07-15T09:56:00Z</time>
      </trkpt>
      <trkpt lat="42.87274" lon="-0.19333">
        <ele>2418.4</ele>
        <time>2026-07-15T09:56:01Z</time>
      </trkpt>
      <trkpt lat="42.87274" lon="-0.19333">
        <ele>2418.4</ele>
        <time>2026-07-15T09:56:01Z</time>
      </trkpt>
      <trkpt lat="42.87275" lon="-0.19334">
        <ele>2418.4</ele>
        <time>2026-07-15T09:56:02Z</time>
      </trkpt>
      <trkpt lat="42.87275" lon="-0.19334">
        <ele>2417.4</ele>
        <time>2026-07-15T09:56:03Z</time>
      </trkpt>
      <trkpt lat="42.87276" lon="-0.19335">
        <ele>2417.4</ele>
        <time>2026-07-15T09:56:04Z</time>
      </trkpt>
      <trkpt lat="42.87277" lon="-0.19335">
        <ele>2417.4</ele>
        <time>2026-07-15T09:56:05Z</time>
      </trkpt>
      <trkpt lat="42.87276" lon="-0.19336">
        <ele>2416.4</ele>
        <time>2026-07-15T09:56:05Z</time>
      </trkpt>
      <trkpt lat="42.87277" lon="-0.19336">
        <ele>2416.4</ele>
        <time>2026-07-15T09:56:06Z</time>
      </trkpt>
      <trkpt lat="42.87277" lon="-0.19337">
        <ele>2416.4</ele>
        <time>2026-07-15T09:56:07Z</time>
      </trkpt>
      <trkpt lat="42.87277" lon="-0.19338">
        <ele>2415.4</ele>
        <time>2026-07-15T09:56:07Z</time>
      </trkpt>
      <trkpt lat="42.87277" lon="-0.19338">
        <ele>2415.4</ele>
        <time>2026-07-15T09:56:08Z</time>
      </trkpt>
      <trkpt lat="42.87277" lon="-0.19339">
        <ele>2415.4</ele>
        <time>2026-07-15T09:56:09Z</time>
      </trkpt>
      <trkpt lat="42.87277" lon="-0.19339">
        <ele>2414.4</ele>
        <time>2026-07-15T09:56:09Z</time>
      </trkpt>
      <trkpt lat="42.87277" lon="-0.1934">
        <ele>2414.4</ele>
        <time>2026-07-15T09:56:10Z</time>
      </trkpt>
      <trkpt lat="42.87277" lon="-0.1934">
        <ele>2414.4</ele>
        <time>2026-07-15T09:56:11Z</time>
      </trkpt>
      <trkpt lat="42.87276" lon="-0.19341">
        <ele>2414.4</ele>
        <time>2026-07-15T09:56:11Z</time>
      </trkpt>
      <trkpt lat="42.87276" lon="-0.19341">
        <ele>2414.4</ele>
        <time>2026-07-15T09:56:12Z</time>
      </trkpt>
      <trkpt lat="42.87276" lon="-0.19341">
        <ele>2414.4</ele>
        <time>2026-07-15T09:56:12Z</time>
      </trkpt>
      <trkpt lat="42.87276" lon="-0.19341">
        <ele>2414.4</ele>
        <time>2026-07-15T09:56:13Z</time>
      </trkpt>
      <trkpt lat="42.87277" lon="-0.19341">
        <ele>2414.4</ele>
        <time>2026-07-15T09:56:14Z</time>
      </trkpt>
      <trkpt lat="42.87277" lon="-0.19341">
        <ele>2413.4</ele>
        <time>2026-07-15T09:56:15Z</time>
      </trkpt>
      <trkpt lat="42.87278" lon="-0.1934">
        <ele>2414.4</ele>
        <time>2026-07-15T09:56:15Z</time>
      </trkpt>
      <trkpt lat="42.87278" lon="-0.1934">
        <ele>2414.4</ele>
        <time>2026-07-15T09:56:16Z</time>
      </trkpt>
      <trkpt lat="42.87279" lon="-0.1934">
        <ele>2414.4</ele>
        <time>2026-07-15T09:56:16Z</time>
      </trkpt>
      <trkpt lat="42.87279" lon="-0.1934">
        <ele>2413.4</ele>
        <time>2026-07-15T09:56:17Z</time>
      </trkpt>
      <trkpt lat="42.8728" lon="-0.1934">
        <ele>2413.4</ele>
        <time>2026-07-15T09:56:18Z</time>
      </trkpt>
      <trkpt lat="42.8728" lon="-0.19341">
        <ele>2413.4</ele>
        <time>2026-07-15T09:56:18Z</time>
      </trkpt>
      <trkpt lat="42.8728" lon="-0.19342">
        <ele>2413.4</ele>
        <time>2026-07-15T09:56:19Z</time>
      </trkpt>
      <trkpt lat="42.8728" lon="-0.19342">
        <ele>2413.4</ele>
        <time>2026-07-15T09:56:20Z</time>
      </trkpt>
      <trkpt lat="42.8728" lon="-0.19342">
        <ele>2413.4</ele>
        <time>2026-07-15T09:56:21Z</time>
      </trkpt>
      <trkpt lat="42.8728" lon="-0.19343">
        <ele>2413.4</ele>
        <time>2026-07-15T09:56:22Z</time>
      </trkpt>
      <trkpt lat="42.87281" lon="-0.19343">
        <ele>2413.4</ele>
        <time>2026-07-15T09:56:23Z</time>
      </trkpt>
      <trkpt lat="42.87281" lon="-0.19343">
        <ele>2413.4</ele>
        <time>2026-07-15T09:56:23Z</time>
      </trkpt>
      <trkpt lat="42.87281" lon="-0.19342">
        <ele>2413.4</ele>
        <time>2026-07-15T09:56:24Z</time>
      </trkpt>
      <trkpt lat="42.87281" lon="-0.19342">
        <ele>2413.4</ele>
        <time>2026-07-15T09:56:25Z</time>
      </trkpt>
      <trkpt lat="42.87281" lon="-0.19342">
        <ele>2413.4</ele>
        <time>2026-07-15T09:56:25Z</time>
      </trkpt>
      <trkpt lat="42.87282" lon="-0.19342">
        <ele>2413.4</ele>
        <time>2026-07-15T09:56:26Z</time>
      </trkpt>
      <trkpt lat="42.87282" lon="-0.19342">
        <ele>2413.4</ele>
        <time>2026-07-15T09:56:27Z</time>
      </trkpt>
      <trkpt lat="42.87282" lon="-0.19342">
        <ele>2413.4</ele>
        <time>2026-07-15T09:56:28Z</time>
      </trkpt>
      <trkpt lat="42.87282" lon="-0.19342">
        <ele>2413.4</ele>
        <time>2026-07-15T09:56:29Z</time>
      </trkpt>
      <trkpt lat="42.87282" lon="-0.19342">
        <ele>2413.4</ele>
        <time>2026-07-15T09:56:30Z</time>
      </trkpt>
      <trkpt lat="42.87282" lon="-0.19341">
        <ele>2413.4</ele>
        <time>2026-07-15T09:56:31Z</time>
      </trkpt>
      <trkpt lat="42.87282" lon="-0.19341">
        <ele>2412.4</ele>
        <time>2026-07-15T09:56:32Z</time>
      </trkpt>
      <trkpt lat="42.87282" lon="-0.19341">
        <ele>2413.4</ele>
        <time>2026-07-15T09:56:33Z</time>
      </trkpt>
      <trkpt lat="42.87282" lon="-0.19341">
        <ele>2412.4</ele>
        <time>2026-07-15T09:56:34Z</time>
      </trkpt>
      <trkpt lat="42.87282" lon="-0.19341">
        <ele>2412.4</ele>
        <time>2026-07-15T09:56:35Z</time>
      </trkpt>
      <trkpt lat="42.87283" lon="-0.19341">
        <ele>2412.4</ele>
        <time>2026-07-15T09:56:36Z</time>
      </trkpt>
      <trkpt lat="42.87283" lon="-0.1934">
        <ele>2412.4</ele>
        <time>2026-07-15T09:56:37Z</time>
      </trkpt>
      <trkpt lat="42.87283" lon="-0.1934">
        <ele>2412.4</ele>
        <time>2026-07-15T09:56:38Z</time>
      </trkpt>
      <trkpt lat="42.87283" lon="-0.1934">
        <ele>2412.4</ele>
        <time>2026-07-15T09:56:39Z</time>
      </trkpt>
      <trkpt lat="42.87283" lon="-0.1934">
        <ele>2412.4</ele>
        <time>2026-07-15T09:56:40Z</time>
      </trkpt>
      <trkpt lat="42.87283" lon="-0.1934">
        <ele>2412.4</ele>
        <time>2026-07-15T09:56:40Z</time>
      </trkpt>
      <trkpt lat="42.87283" lon="-0.1934">
        <ele>2412.4</ele>
        <time>2026-07-15T09:56:41Z</time>
      </trkpt>
      <trkpt lat="42.87283" lon="-0.1934">
        <ele>2412.4</ele>
        <time>2026-07-15T09:56:42Z</time>
      </trkpt>
      <trkpt lat="42.87283" lon="-0.1934">
        <ele>2412.4</ele>
        <time>2026-07-15T09:56:43Z</time>
      </trkpt>
      <trkpt lat="42.87283" lon="-0.1934">
        <ele>2412.4</ele>
        <time>2026-07-15T09:56:44Z</time>
      </trkpt>
      <trkpt lat="42.87283" lon="-0.1934">
        <ele>2412.4</ele>
        <time>2026-07-15T09:56:45Z</time>
      </trkpt>
      <trkpt lat="42.87283" lon="-0.1934">
        <ele>2411.4</ele>
        <time>2026-07-15T09:56:45Z</time>
      </trkpt>
      <trkpt lat="42.87283" lon="-0.1934">
        <ele>2411.4</ele>
        <time>2026-07-15T09:56:46Z</time>
      </trkpt>
      <trkpt lat="42.87283" lon="-0.1934">
        <ele>2411.4</ele>
        <time>2026-07-15T09:56:47Z</time>
      </trkpt>
      <trkpt lat="42.87283" lon="-0.1934">
        <ele>2411.4</ele>
        <time>2026-07-15T09:56:47Z</time>
      </trkpt>
      <trkpt lat="42.87283" lon="-0.1934">
        <ele>2411.4</ele>
        <time>2026-07-15T09:56:48Z</time>
      </trkpt>
      <trkpt lat="42.87283" lon="-0.19341">
        <ele>2411.4</ele>
        <time>2026-07-15T09:56:49Z</time>
      </trkpt>
      <trkpt lat="42.87283" lon="-0.19341">
        <ele>2411.4</ele>
        <time>2026-07-15T09:56:49Z</time>
      </trkpt>
      <trkpt lat="42.87284" lon="-0.19341">
        <ele>2411.4</ele>
        <time>2026-07-15T09:56:50Z</time>
      </trkpt>
      <trkpt lat="42.87285" lon="-0.19341">
        <ele>2411.4</ele>
        <time>2026-07-15T09:56:51Z</time>
      </trkpt>
      <trkpt lat="42.87285" lon="-0.19341">
        <ele>2411.4</ele>
        <time>2026-07-15T09:56:52Z</time>
      </trkpt>
      <trkpt lat="42.87286" lon="-0.1934">
        <ele>2411.4</ele>
        <time>2026-07-15T09:56:53Z</time>
      </trkpt>
      <trkpt lat="42.87286" lon="-0.1934">
        <ele>2411.4</ele>
        <time>2026-07-15T09:56:53Z</time>
      </trkpt>
      <trkpt lat="42.87286" lon="-0.1934">
        <ele>2411.4</ele>
        <time>2026-07-15T09:56:54Z</time>
      </trkpt>
      <trkpt lat="42.87286" lon="-0.1934">
        <ele>2411.4</ele>
        <time>2026-07-15T09:56:55Z</time>
      </trkpt>
      <trkpt lat="42.87286" lon="-0.19339">
        <ele>2411.4</ele>
        <time>2026-07-15T09:56:55Z</time>
      </trkpt>
      <trkpt lat="42.87286" lon="-0.19339">
        <ele>2411.4</ele>
        <time>2026-07-15T09:56:56Z</time>
      </trkpt>
      <trkpt lat="42.87285" lon="-0.19339">
        <ele>2411.4</ele>
        <time>2026-07-15T09:56:56Z</time>
      </trkpt>
      <trkpt lat="42.87285" lon="-0.19339">
        <ele>2412.4</ele>
        <time>2026-07-15T09:56:57Z</time>
      </trkpt>
      <trkpt lat="42.87285" lon="-0.19339">
        <ele>2412.4</ele>
        <time>2026-07-15T09:56:58Z</time>
      </trkpt>
      <trkpt lat="42.87286" lon="-0.19339">
        <ele>2412.4</ele>
        <time>2026-07-15T09:56:58Z</time>
      </trkpt>
      <trkpt lat="42.87286" lon="-0.19339">
        <ele>2412.4</ele>
        <time>2026-07-15T09:56:59Z</time>
      </trkpt>
      <trkpt lat="42.87286" lon="-0.19339">
        <ele>2411.4</ele>
        <time>2026-07-15T09:56:59Z</time>
      </trkpt>
      <trkpt lat="42.87286" lon="-0.19339">
        <ele>2411.4</ele>
        <time>2026-07-15T09:57:00Z</time>
      </trkpt>
      <trkpt lat="42.87286" lon="-0.19339">
        <ele>2412.4</ele>
        <time>2026-07-15T09:57:01Z</time>
      </trkpt>
      <trkpt lat="42.87287" lon="-0.19339">
        <ele>2412.4</ele>
        <time>2026-07-15T09:57:02Z</time>
      </trkpt>
      <trkpt lat="42.87287" lon="-0.19339">
        <ele>2412.4</ele>
        <time>2026-07-15T09:57:03Z</time>
      </trkpt>
      <trkpt lat="42.87287" lon="-0.19339">
        <ele>2412.4</ele>
        <time>2026-07-15T09:57:04Z</time>
      </trkpt>
      <trkpt lat="42.87287" lon="-0.19339">
        <ele>2412.4</ele>
        <time>2026-07-15T09:57:05Z</time>
      </trkpt>
      <trkpt lat="42.87287" lon="-0.19339">
        <ele>2411.4</ele>
        <time>2026-07-15T09:57:06Z</time>
      </trkpt>
      <trkpt lat="42.87287" lon="-0.19339">
        <ele>2411.4</ele>
        <time>2026-07-15T09:57:07Z</time>
      </trkpt>
      <trkpt lat="42.87287" lon="-0.19339">
        <ele>2411.4</ele>
        <time>2026-07-15T09:57:08Z</time>
      </trkpt>
      <trkpt lat="42.87288" lon="-0.19339">
        <ele>2411.4</ele>
        <time>2026-07-15T09:57:09Z</time>
      </trkpt>
      <trkpt lat="42.87288" lon="-0.19339">
        <ele>2411.4</ele>
        <time>2026-07-15T09:57:10Z</time>
      </trkpt>
      <trkpt lat="42.87288" lon="-0.19339">
        <ele>2411.4</ele>
        <time>2026-07-15T09:57:11Z</time>
      </trkpt>
      <trkpt lat="42.87288" lon="-0.19338">
        <ele>2410.4</ele>
        <time>2026-07-15T09:57:12Z</time>
      </trkpt>
      <trkpt lat="42.87289" lon="-0.19338">
        <ele>2410.4</ele>
        <time>2026-07-15T09:57:12Z</time>
      </trkpt>
      <trkpt lat="42.87289" lon="-0.19338">
        <ele>2410.4</ele>
        <time>2026-07-15T09:57:12Z</time>
      </trkpt>
      <trkpt lat="42.87289" lon="-0.19338">
        <ele>2410.4</ele>
        <time>2026-07-15T09:57:13Z</time>
      </trkpt>
      <trkpt lat="42.8729" lon="-0.19337">
        <ele>2410.4</ele>
        <time>2026-07-15T09:57:14Z</time>
      </trkpt>
      <trkpt lat="42.8729" lon="-0.19337">
        <ele>2410.4</ele>
        <time>2026-07-15T09:57:15Z</time>
      </trkpt>
      <trkpt lat="42.8729" lon="-0.19337">
        <ele>2410.4</ele>
        <time>2026-07-15T09:57:15Z</time>
      </trkpt>
      <trkpt lat="42.8729" lon="-0.19336">
        <ele>2410.4</ele>
        <time>2026-07-15T09:57:16Z</time>
      </trkpt>
      <trkpt lat="42.8729" lon="-0.19336">
        <ele>2410.4</ele>
        <time>2026-07-15T09:57:17Z</time>
      </trkpt>
      <trkpt lat="42.8729" lon="-0.19336">
        <ele>2410.4</ele>
        <time>2026-07-15T09:57:18Z</time>
      </trkpt>
      <trkpt lat="42.87291" lon="-0.19336">
        <ele>2409.4</ele>
        <time>2026-07-15T09:57:19Z</time>
      </trkpt>
      <trkpt lat="42.87291" lon="-0.19337">
        <ele>2408.4</ele>
        <time>2026-07-15T09:57:19Z</time>
      </trkpt>
      <trkpt lat="42.87292" lon="-0.19337">
        <ele>2408.4</ele>
        <time>2026-07-15T09:57:20Z</time>
      </trkpt>
      <trkpt lat="42.87292" lon="-0.19338">
        <ele>2408.4</ele>
        <time>2026-07-15T09:57:21Z</time>
      </trkpt>
      <trkpt lat="42.87293" lon="-0.19339">
        <ele>2408.4</ele>
        <time>2026-07-15T09:57:22Z</time>
      </trkpt>
      <trkpt lat="42.87293" lon="-0.1934">
        <ele>2408.4</ele>
        <time>2026-07-15T09:57:22Z</time>
      </trkpt>
      <trkpt lat="42.87294" lon="-0.1934">
        <ele>2408.4</ele>
        <time>2026-07-15T09:57:23Z</time>
      </trkpt>
      <trkpt lat="42.87295" lon="-0.19339">
        <ele>2408.4</ele>
        <time>2026-07-15T09:57:24Z</time>
      </trkpt>
      <trkpt lat="42.87295" lon="-0.19339">
        <ele>2408.4</ele>
        <time>2026-07-15T09:57:25Z</time>
      </trkpt>
      <trkpt lat="42.87296" lon="-0.19338">
        <ele>2407.4</ele>
        <time>2026-07-15T09:57:25Z</time>
      </trkpt>
      <trkpt lat="42.87296" lon="-0.19337">
        <ele>2407.4</ele>
        <time>2026-07-15T09:57:26Z</time>
      </trkpt>
      <trkpt lat="42.87297" lon="-0.19337">
        <ele>2407.4</ele>
        <time>2026-07-15T09:57:27Z</time>
      </trkpt>
      <trkpt lat="42.87298" lon="-0.19337">
        <ele>2406.4</ele>
        <time>2026-07-15T09:57:27Z</time>
      </trkpt>
      <trkpt lat="42.87298" lon="-0.19337">
        <ele>2406.4</ele>
        <time>2026-07-15T09:57:28Z</time>
      </trkpt>
      <trkpt lat="42.87299" lon="-0.19337">
        <ele>2406.4</ele>
        <time>2026-07-15T09:57:29Z</time>
      </trkpt>
      <trkpt lat="42.873" lon="-0.19337">
        <ele>2406.4</ele>
        <time>2026-07-15T09:57:29Z</time>
      </trkpt>
      <trkpt lat="42.873" lon="-0.19337">
        <ele>2406.4</ele>
        <time>2026-07-15T09:57:30Z</time>
      </trkpt>
      <trkpt lat="42.87301" lon="-0.19337">
        <ele>2406.4</ele>
        <time>2026-07-15T09:57:31Z</time>
      </trkpt>
      <trkpt lat="42.87302" lon="-0.19338">
        <ele>2405.4</ele>
        <time>2026-07-15T09:57:32Z</time>
      </trkpt>
      <trkpt lat="42.87302" lon="-0.19339">
        <ele>2405.4</ele>
        <time>2026-07-15T09:57:33Z</time>
      </trkpt>
      <trkpt lat="42.87303" lon="-0.19339">
        <ele>2405.4</ele>
        <time>2026-07-15T09:57:33Z</time>
      </trkpt>
      <trkpt lat="42.87303" lon="-0.1934">
        <ele>2405.4</ele>
        <time>2026-07-15T09:57:34Z</time>
      </trkpt>
      <trkpt lat="42.87303" lon="-0.1934">
        <ele>2405.4</ele>
        <time>2026-07-15T09:57:35Z</time>
      </trkpt>
      <trkpt lat="42.87303" lon="-0.19341">
        <ele>2404.4</ele>
        <time>2026-07-15T09:57:35Z</time>
      </trkpt>
      <trkpt lat="42.87303" lon="-0.19341">
        <ele>2404.4</ele>
        <time>2026-07-15T09:57:36Z</time>
      </trkpt>
      <trkpt lat="42.87303" lon="-0.19341">
        <ele>2404.4</ele>
        <time>2026-07-15T09:57:37Z</time>
      </trkpt>
      <trkpt lat="42.87304" lon="-0.19342">
        <ele>2404.4</ele>
        <time>2026-07-15T09:57:37Z</time>
      </trkpt>
      <trkpt lat="42.87304" lon="-0.19342">
        <ele>2404.4</ele>
        <time>2026-07-15T09:57:38Z</time>
      </trkpt>
      <trkpt lat="42.87304" lon="-0.19343">
        <ele>2404.4</ele>
        <time>2026-07-15T09:57:39Z</time>
      </trkpt>
      <trkpt lat="42.87304" lon="-0.19343">
        <ele>2403.4</ele>
        <time>2026-07-15T09:57:39Z</time>
      </trkpt>
      <trkpt lat="42.87304" lon="-0.19343">
        <ele>2403.4</ele>
        <time>2026-07-15T09:57:40Z</time>
      </trkpt>
      <trkpt lat="42.87305" lon="-0.19343">
        <ele>2403.4</ele>
        <time>2026-07-15T09:57:41Z</time>
      </trkpt>
      <trkpt lat="42.87306" lon="-0.19343">
        <ele>2403.4</ele>
        <time>2026-07-15T09:57:42Z</time>
      </trkpt>
      <trkpt lat="42.87306" lon="-0.19343">
        <ele>2402.4</ele>
        <time>2026-07-15T09:57:42Z</time>
      </trkpt>
      <trkpt lat="42.87306" lon="-0.19344">
        <ele>2403.4</ele>
        <time>2026-07-15T09:57:43Z</time>
      </trkpt>
      <trkpt lat="42.87307" lon="-0.19344">
        <ele>2402.4</ele>
        <time>2026-07-15T09:57:44Z</time>
      </trkpt>
      <trkpt lat="42.87308" lon="-0.19345">
        <ele>2402.4</ele>
        <time>2026-07-15T09:57:45Z</time>
      </trkpt>
      <trkpt lat="42.87308" lon="-0.19345">
        <ele>2402.4</ele>
        <time>2026-07-15T09:57:45Z</time>
      </trkpt>
      <trkpt lat="42.87309" lon="-0.19346">
        <ele>2402.4</ele>
        <time>2026-07-15T09:57:46Z</time>
      </trkpt>
      <trkpt lat="42.87309" lon="-0.19346">
        <ele>2402.4</ele>
        <time>2026-07-15T09:57:47Z</time>
      </trkpt>
      <trkpt lat="42.87309" lon="-0.19347">
        <ele>2402.4</ele>
        <time>2026-07-15T09:57:47Z</time>
      </trkpt>
      <trkpt lat="42.8731" lon="-0.19348">
        <ele>2401.4</ele>
        <time>2026-07-15T09:57:48Z</time>
      </trkpt>
      <trkpt lat="42.8731" lon="-0.19348">
        <ele>2401.4</ele>
        <time>2026-07-15T09:57:49Z</time>
      </trkpt>
      <trkpt lat="42.8731" lon="-0.19348">
        <ele>2401.4</ele>
        <time>2026-07-15T09:57:49Z</time>
      </trkpt>
      <trkpt lat="42.87311" lon="-0.19349">
        <ele>2401.4</ele>
        <time>2026-07-15T09:57:50Z</time>
      </trkpt>
      <trkpt lat="42.87311" lon="-0.19349">
        <ele>2401.4</ele>
        <time>2026-07-15T09:57:51Z</time>
      </trkpt>
      <trkpt lat="42.87311" lon="-0.1935">
        <ele>2401.4</ele>
        <time>2026-07-15T09:57:52Z</time>
      </trkpt>
      <trkpt lat="42.87311" lon="-0.1935">
        <ele>2401.4</ele>
        <time>2026-07-15T09:57:52Z</time>
      </trkpt>
      <trkpt lat="42.87311" lon="-0.1935">
        <ele>2401.4</ele>
        <time>2026-07-15T09:57:53Z</time>
      </trkpt>
      <trkpt lat="42.87312" lon="-0.19351">
        <ele>2401.4</ele>
        <time>2026-07-15T09:57:54Z</time>
      </trkpt>
      <trkpt lat="42.87313" lon="-0.19351">
        <ele>2401.4</ele>
        <time>2026-07-15T09:57:55Z</time>
      </trkpt>
      <trkpt lat="42.87313" lon="-0.19351">
        <ele>2400.4</ele>
        <time>2026-07-15T09:57:56Z</time>
      </trkpt>
      <trkpt lat="42.87313" lon="-0.1935">
        <ele>2401.4</ele>
        <time>2026-07-15T09:57:57Z</time>
      </trkpt>
      <trkpt lat="42.87313" lon="-0.19349">
        <ele>2401.4</ele>
        <time>2026-07-15T09:57:58Z</time>
      </trkpt>
      <trkpt lat="42.87314" lon="-0.19349">
        <ele>2401.4</ele>
        <time>2026-07-15T09:57:58Z</time>
      </trkpt>
      <trkpt lat="42.87314" lon="-0.19349">
        <ele>2401.4</ele>
        <time>2026-07-15T09:57:59Z</time>
      </trkpt>
      <trkpt lat="42.87314" lon="-0.1935">
        <ele>2402.4</ele>
        <time>2026-07-15T09:58:00Z</time>
      </trkpt>
      <trkpt lat="42.87315" lon="-0.1935">
        <ele>2402.4</ele>
        <time>2026-07-15T09:58:01Z</time>
      </trkpt>
      <trkpt lat="42.87315" lon="-0.1935">
        <ele>2402.4</ele>
        <time>2026-07-15T09:58:02Z</time>
      </trkpt>
      <trkpt lat="42.87315" lon="-0.1935">
        <ele>2402.4</ele>
        <time>2026-07-15T09:58:03Z</time>
      </trkpt>
      <trkpt lat="42.87315" lon="-0.1935">
        <ele>2402.4</ele>
        <time>2026-07-15T09:58:03Z</time>
      </trkpt>
      <trkpt lat="42.87315" lon="-0.19349">
        <ele>2402.4</ele>
        <time>2026-07-15T09:58:04Z</time>
      </trkpt>
      <trkpt lat="42.87316" lon="-0.19349">
        <ele>2402.4</ele>
        <time>2026-07-15T09:58:05Z</time>
      </trkpt>
      <trkpt lat="42.87315" lon="-0.19349">
        <ele>2401.4</ele>
        <time>2026-07-15T09:58:06Z</time>
      </trkpt>
      <trkpt lat="42.87315" lon="-0.19349">
        <ele>2400.4</ele>
        <time>2026-07-15T09:58:06Z</time>
      </trkpt>
      <trkpt lat="42.87315" lon="-0.19349">
        <ele>2400.4</ele>
        <time>2026-07-15T09:58:07Z</time>
      </trkpt>
      <trkpt lat="42.87316" lon="-0.1935">
        <ele>2400.4</ele>
        <time>2026-07-15T09:58:08Z</time>
      </trkpt>
      <trkpt lat="42.87316" lon="-0.1935">
        <ele>2400.4</ele>
        <time>2026-07-15T09:58:09Z</time>
      </trkpt>
      <trkpt lat="42.87316" lon="-0.19351">
        <ele>2400.4</ele>
        <time>2026-07-15T09:58:09Z</time>
      </trkpt>
      <trkpt lat="42.87317" lon="-0.19351">
        <ele>2400.4</ele>
        <time>2026-07-15T09:58:10Z</time>
      </trkpt>
      <trkpt lat="42.87317" lon="-0.19351">
        <ele>2400.4</ele>
        <time>2026-07-15T09:58:11Z</time>
      </trkpt>
      <trkpt lat="42.87317" lon="-0.19351">
        <ele>2400.4</ele>
        <time>2026-07-15T09:58:12Z</time>
      </trkpt>
      <trkpt lat="42.87317" lon="-0.19352">
        <ele>2400.4</ele>
        <time>2026-07-15T09:58:13Z</time>
      </trkpt>
      <trkpt lat="42.87317" lon="-0.19352">
        <ele>2400.4</ele>
        <time>2026-07-15T09:58:13Z</time>
      </trkpt>
      <trkpt lat="42.87318" lon="-0.19352">
        <ele>2400.4</ele>
        <time>2026-07-15T09:58:14Z</time>
      </trkpt>
      <trkpt lat="42.87317" lon="-0.19353">
        <ele>2400.4</ele>
        <time>2026-07-15T09:58:15Z</time>
      </trkpt>
      <trkpt lat="42.87317" lon="-0.19353">
        <ele>2400.4</ele>
        <time>2026-07-15T09:58:16Z</time>
      </trkpt>
      <trkpt lat="42.87317" lon="-0.19353">
        <ele>2399.4</ele>
        <time>2026-07-15T09:58:16Z</time>
      </trkpt>
      <trkpt lat="42.87317" lon="-0.19354">
        <ele>2399.4</ele>
        <time>2026-07-15T09:58:17Z</time>
      </trkpt>
      <trkpt lat="42.87318" lon="-0.19354">
        <ele>2399.4</ele>
        <time>2026-07-15T09:58:18Z</time>
      </trkpt>
      <trkpt lat="42.87318" lon="-0.19354">
        <ele>2399.4</ele>
        <time>2026-07-15T09:58:19Z</time>
      </trkpt>
      <trkpt lat="42.87319" lon="-0.19355">
        <ele>2399.4</ele>
        <time>2026-07-15T09:58:19Z</time>
      </trkpt>
      <trkpt lat="42.8732" lon="-0.19355">
        <ele>2399.4</ele>
        <time>2026-07-15T09:58:20Z</time>
      </trkpt>
      <trkpt lat="42.8732" lon="-0.19356">
        <ele>2399.4</ele>
        <time>2026-07-15T09:58:21Z</time>
      </trkpt>
      <trkpt lat="42.87321" lon="-0.19356">
        <ele>2400.4</ele>
        <time>2026-07-15T09:58:22Z</time>
      </trkpt>
      <trkpt lat="42.87321" lon="-0.19357">
        <ele>2400.4</ele>
        <time>2026-07-15T09:58:22Z</time>
      </trkpt>
      <trkpt lat="42.87321" lon="-0.19357">
        <ele>2399.4</ele>
        <time>2026-07-15T09:58:23Z</time>
      </trkpt>
      <trkpt lat="42.87322" lon="-0.19357">
        <ele>2399.4</ele>
        <time>2026-07-15T09:58:24Z</time>
      </trkpt>
      <trkpt lat="42.87322" lon="-0.19358">
        <ele>2399.4</ele>
        <time>2026-07-15T09:58:25Z</time>
      </trkpt>
      <trkpt lat="42.87322" lon="-0.19358">
        <ele>2399.4</ele>
        <time>2026-07-15T09:58:25Z</time>
      </trkpt>
      <trkpt lat="42.87323" lon="-0.19359">
        <ele>2399.4</ele>
        <time>2026-07-15T09:58:26Z</time>
      </trkpt>
      <trkpt lat="42.87323" lon="-0.19359">
        <ele>2399.4</ele>
        <time>2026-07-15T09:58:27Z</time>
      </trkpt>
      <trkpt lat="42.87324" lon="-0.1936">
        <ele>2399.4</ele>
        <time>2026-07-15T09:58:28Z</time>
      </trkpt>
      <trkpt lat="42.87324" lon="-0.19361">
        <ele>2399.4</ele>
        <time>2026-07-15T09:58:28Z</time>
      </trkpt>
      <trkpt lat="42.87324" lon="-0.19361">
        <ele>2399.4</ele>
        <time>2026-07-15T09:58:29Z</time>
      </trkpt>
      <trkpt lat="42.87325" lon="-0.19362">
        <ele>2399.4</ele>
        <time>2026-07-15T09:58:30Z</time>
      </trkpt>
      <trkpt lat="42.87325" lon="-0.19362">
        <ele>2399.4</ele>
        <time>2026-07-15T09:58:31Z</time>
      </trkpt>
      <trkpt lat="42.87325" lon="-0.19363">
        <ele>2399.4</ele>
        <time>2026-07-15T09:58:32Z</time>
      </trkpt>
      <trkpt lat="42.87326" lon="-0.19364">
        <ele>2399.4</ele>
        <time>2026-07-15T09:58:33Z</time>
      </trkpt>
      <trkpt lat="42.87326" lon="-0.19365">
        <ele>2399.4</ele>
        <time>2026-07-15T09:58:34Z</time>
      </trkpt>
      <trkpt lat="42.87326" lon="-0.19366">
        <ele>2398.4</ele>
        <time>2026-07-15T09:58:34Z</time>
      </trkpt>
      <trkpt lat="42.87326" lon="-0.19366">
        <ele>2399.4</ele>
        <time>2026-07-15T09:58:35Z</time>
      </trkpt>
      <trkpt lat="42.87327" lon="-0.19367">
        <ele>2399.4</ele>
        <time>2026-07-15T09:58:36Z</time>
      </trkpt>
      <trkpt lat="42.87327" lon="-0.19367">
        <ele>2399.4</ele>
        <time>2026-07-15T09:58:37Z</time>
      </trkpt>
      <trkpt lat="42.87328" lon="-0.19368">
        <ele>2399.4</ele>
        <time>2026-07-15T09:58:37Z</time>
      </trkpt>
      <trkpt lat="42.87328" lon="-0.19368">
        <ele>2399.4</ele>
        <time>2026-07-15T09:58:38Z</time>
      </trkpt>
      <trkpt lat="42.87328" lon="-0.19368">
        <ele>2399.4</ele>
        <time>2026-07-15T09:58:39Z</time>
      </trkpt>
      <trkpt lat="42.87329" lon="-0.19368">
        <ele>2399.4</ele>
        <time>2026-07-15T09:58:39Z</time>
      </trkpt>
      <trkpt lat="42.87329" lon="-0.19368">
        <ele>2399.4</ele>
        <time>2026-07-15T09:58:40Z</time>
      </trkpt>
      <trkpt lat="42.87329" lon="-0.19368">
        <ele>2399.4</ele>
        <time>2026-07-15T09:58:41Z</time>
      </trkpt>
      <trkpt lat="42.87329" lon="-0.19368">
        <ele>2400.4</ele>
        <time>2026-07-15T09:58:41Z</time>
      </trkpt>
      <trkpt lat="42.87329" lon="-0.19368">
        <ele>2400.4</ele>
        <time>2026-07-15T09:58:42Z</time>
      </trkpt>
      <trkpt lat="42.87329" lon="-0.19368">
        <ele>2400.4</ele>
        <time>2026-07-15T09:58:43Z</time>
      </trkpt>
      <trkpt lat="42.87329" lon="-0.19369">
        <ele>2400.4</ele>
        <time>2026-07-15T09:58:44Z</time>
      </trkpt>
      <trkpt lat="42.8733" lon="-0.19369">
        <ele>2400.4</ele>
        <time>2026-07-15T09:58:44Z</time>
      </trkpt>
      <trkpt lat="42.8733" lon="-0.19369">
        <ele>2400.4</ele>
        <time>2026-07-15T09:58:45Z</time>
      </trkpt>
      <trkpt lat="42.8733" lon="-0.19369">
        <ele>2400.4</ele>
        <time>2026-07-15T09:58:46Z</time>
      </trkpt>
      <trkpt lat="42.8733" lon="-0.1937">
        <ele>2400.4</ele>
        <time>2026-07-15T09:58:46Z</time>
      </trkpt>
      <trkpt lat="42.8733" lon="-0.1937">
        <ele>2401.4</ele>
        <time>2026-07-15T09:58:47Z</time>
      </trkpt>
      <trkpt lat="42.8733" lon="-0.1937">
        <ele>2401.4</ele>
        <time>2026-07-15T09:58:48Z</time>
      </trkpt>
      <trkpt lat="42.8733" lon="-0.1937">
        <ele>2400.4</ele>
        <time>2026-07-15T09:58:49Z</time>
      </trkpt>
      <trkpt lat="42.8733" lon="-0.1937">
        <ele>2400.4</ele>
        <time>2026-07-15T09:58:50Z</time>
      </trkpt>
      <trkpt lat="42.87331" lon="-0.1937">
        <ele>2400.4</ele>
        <time>2026-07-15T09:58:51Z</time>
      </trkpt>
      <trkpt lat="42.87331" lon="-0.19371">
        <ele>2399.4</ele>
        <time>2026-07-15T09:58:52Z</time>
      </trkpt>
      <trkpt lat="42.87331" lon="-0.19371">
        <ele>2399.4</ele>
        <time>2026-07-15T09:58:53Z</time>
      </trkpt>
      <trkpt lat="42.87331" lon="-0.19372">
        <ele>2400.4</ele>
        <time>2026-07-15T09:58:54Z</time>
      </trkpt>
      <trkpt lat="42.87332" lon="-0.19372">
        <ele>2400.4</ele>
        <time>2026-07-15T09:58:55Z</time>
      </trkpt>
      <trkpt lat="42.87332" lon="-0.19372">
        <ele>2400.4</ele>
        <time>2026-07-15T09:58:55Z</time>
      </trkpt>
      <trkpt lat="42.87332" lon="-0.19373">
        <ele>2400.4</ele>
        <time>2026-07-15T09:58:56Z</time>
      </trkpt>
      <trkpt lat="42.87332" lon="-0.19373">
        <ele>2400.4</ele>
        <time>2026-07-15T09:58:57Z</time>
      </trkpt>
      <trkpt lat="42.87332" lon="-0.19373">
        <ele>2401.4</ele>
        <time>2026-07-15T09:58:58Z</time>
      </trkpt>
      <trkpt lat="42.87331" lon="-0.19374">
        <ele>2401.4</ele>
        <time>2026-07-15T09:58:59Z</time>
      </trkpt>
      <trkpt lat="42.87331" lon="-0.19374">
        <ele>2401.4</ele>
        <time>2026-07-15T09:58:59Z</time>
      </trkpt>
      <trkpt lat="42.87331" lon="-0.19374">
        <ele>2401.4</ele>
        <time>2026-07-15T09:59:00Z</time>
      </trkpt>
      <trkpt lat="42.87331" lon="-0.19374">
        <ele>2402.4</ele>
        <time>2026-07-15T09:59:01Z</time>
      </trkpt>
      <trkpt lat="42.87331" lon="-0.19375">
        <ele>2401.4</ele>
        <time>2026-07-15T09:59:01Z</time>
      </trkpt>
      <trkpt lat="42.87331" lon="-0.19375">
        <ele>2401.4</ele>
        <time>2026-07-15T09:59:02Z</time>
      </trkpt>
      <trkpt lat="42.87331" lon="-0.19376">
        <ele>2401.4</ele>
        <time>2026-07-15T09:59:03Z</time>
      </trkpt>
      <trkpt lat="42.87331" lon="-0.19376">
        <ele>2402.4</ele>
        <time>2026-07-15T09:59:04Z</time>
      </trkpt>
      <trkpt lat="42.87331" lon="-0.19376">
        <ele>2402.4</ele>
        <time>2026-07-15T09:59:05Z</time>
      </trkpt>
      <trkpt lat="42.87331" lon="-0.19376">
        <ele>2402.4</ele>
        <time>2026-07-15T09:59:06Z</time>
      </trkpt>
      <trkpt lat="42.87331" lon="-0.19376">
        <ele>2401.4</ele>
        <time>2026-07-15T09:59:07Z</time>
      </trkpt>
      <trkpt lat="42.87331" lon="-0.19376">
        <ele>2401.4</ele>
        <time>2026-07-15T09:59:07Z</time>
      </trkpt>
      <trkpt lat="42.87331" lon="-0.19377">
        <ele>2402.4</ele>
        <time>2026-07-15T09:59:08Z</time>
      </trkpt>
      <trkpt lat="42.87332" lon="-0.19377">
        <ele>2403.4</ele>
        <time>2026-07-15T09:59:09Z</time>
      </trkpt>
      <trkpt lat="42.87332" lon="-0.19377">
        <ele>2403.4</ele>
        <time>2026-07-15T09:59:10Z</time>
      </trkpt>
      <trkpt lat="42.87332" lon="-0.19378">
        <ele>2403.4</ele>
        <time>2026-07-15T09:59:11Z</time>
      </trkpt>
      <trkpt lat="42.87332" lon="-0.19378">
        <ele>2402.4</ele>
        <time>2026-07-15T09:59:12Z</time>
      </trkpt>
      <trkpt lat="42.87332" lon="-0.19379">
        <ele>2402.4</ele>
        <time>2026-07-15T09:59:13Z</time>
      </trkpt>
      <trkpt lat="42.87332" lon="-0.1938">
        <ele>2402.4</ele>
        <time>2026-07-15T09:59:14Z</time>
      </trkpt>
      <trkpt lat="42.87332" lon="-0.1938">
        <ele>2403.4</ele>
        <time>2026-07-15T09:59:15Z</time>
      </trkpt>
      <trkpt lat="42.87333" lon="-0.19381">
        <ele>2403.4</ele>
        <time>2026-07-15T09:59:16Z</time>
      </trkpt>
      <trkpt lat="42.87333" lon="-0.19381">
        <ele>2403.4</ele>
        <time>2026-07-15T09:59:17Z</time>
      </trkpt>
      <trkpt lat="42.87333" lon="-0.19381">
        <ele>2403.4</ele>
        <time>2026-07-15T09:59:18Z</time>
      </trkpt>
      <trkpt lat="42.87333" lon="-0.19381">
        <ele>2403.4</ele>
        <time>2026-07-15T09:59:19Z</time>
      </trkpt>
      <trkpt lat="42.87333" lon="-0.19381">
        <ele>2403.4</ele>
        <time>2026-07-15T09:59:20Z</time>
      </trkpt>
      <trkpt lat="42.87333" lon="-0.19381">
        <ele>2403.4</ele>
        <time>2026-07-15T09:59:21Z</time>
      </trkpt>
      <trkpt lat="42.87333" lon="-0.19381">
        <ele>2403.4</ele>
        <time>2026-07-15T09:59:22Z</time>
      </trkpt>
      <trkpt lat="42.87333" lon="-0.19381">
        <ele>2403.4</ele>
        <time>2026-07-15T09:59:23Z</time>
      </trkpt>
      <trkpt lat="42.87333" lon="-0.19383">
        <ele>2404.4</ele>
        <time>2026-07-15T09:59:24Z</time>
      </trkpt>
      <trkpt lat="42.87333" lon="-0.19383">
        <ele>2404.4</ele>
        <time>2026-07-15T09:59:25Z</time>
      </trkpt>
      <trkpt lat="42.87333" lon="-0.19384">
        <ele>2404.4</ele>
        <time>2026-07-15T09:59:26Z</time>
      </trkpt>
      <trkpt lat="42.87332" lon="-0.19385">
        <ele>2404.4</ele>
        <time>2026-07-15T09:59:27Z</time>
      </trkpt>
      <trkpt lat="42.87332" lon="-0.19385">
        <ele>2406.4</ele>
        <time>2026-07-15T09:59:28Z</time>
      </trkpt>
      <trkpt lat="42.87332" lon="-0.19385">
        <ele>2406.4</ele>
        <time>2026-07-15T09:59:29Z</time>
      </trkpt>
      <trkpt lat="42.87332" lon="-0.19385">
        <ele>2406.4</ele>
        <time>2026-07-15T09:59:30Z</time>
      </trkpt>
      <trkpt lat="42.87332" lon="-0.19387">
        <ele>2407.4</ele>
        <time>2026-07-15T09:59:31Z</time>
      </trkpt>
      <trkpt lat="42.87332" lon="-0.19387">
        <ele>2407.4</ele>
        <time>2026-07-15T09:59:32Z</time>
      </trkpt>
      <trkpt lat="42.87332" lon="-0.19388">
        <ele>2406.4</ele>
        <time>2026-07-15T09:59:33Z</time>
      </trkpt>
      <trkpt lat="42.87332" lon="-0.19388">
        <ele>2406.4</ele>
        <time>2026-07-15T09:59:34Z</time>
      </trkpt>
      <trkpt lat="42.87332" lon="-0.19388">
        <ele>2406.4</ele>
        <time>2026-07-15T09:59:35Z</time>
      </trkpt>
      <trkpt lat="42.87332" lon="-0.19388">
        <ele>2406.4</ele>
        <time>2026-07-15T09:59:36Z</time>
      </trkpt>
      <trkpt lat="42.87333" lon="-0.1939">
        <ele>2407.4</ele>
        <time>2026-07-15T09:59:37Z</time>
      </trkpt>
      <trkpt lat="42.87333" lon="-0.19391">
        <ele>2406.4</ele>
        <time>2026-07-15T09:59:38Z</time>
      </trkpt>
      <trkpt lat="42.87333" lon="-0.19392">
        <ele>2407.4</ele>
        <time>2026-07-15T09:59:39Z</time>
      </trkpt>
      <trkpt lat="42.87333" lon="-0.19392">
        <ele>2407.4</ele>
        <time>2026-07-15T09:59:40Z</time>
      </trkpt>
      <trkpt lat="42.87333" lon="-0.19392">
        <ele>2407.4</ele>
        <time>2026-07-15T09:59:41Z</time>
      </trkpt>
      <trkpt lat="42.87333" lon="-0.19392">
        <ele>2407.4</ele>
        <time>2026-07-15T09:59:42Z</time>
      </trkpt>
      <trkpt lat="42.87333" lon="-0.19392">
        <ele>2407.4</ele>
        <time>2026-07-15T09:59:43Z</time>
      </trkpt>
      <trkpt lat="42.87333" lon="-0.19392">
        <ele>2407.4</ele>
        <time>2026-07-15T09:59:44Z</time>
      </trkpt>
      <trkpt lat="42.87333" lon="-0.19393">
        <ele>2408.4</ele>
        <time>2026-07-15T09:59:45Z</time>
      </trkpt>
      <trkpt lat="42.87333" lon="-0.19394">
        <ele>2408.4</ele>
        <time>2026-07-15T09:59:46Z</time>
      </trkpt>
      <trkpt lat="42.87333" lon="-0.19395">
        <ele>2408.4</ele>
        <time>2026-07-15T09:59:47Z</time>
      </trkpt>
      <trkpt lat="42.87333" lon="-0.19395">
        <ele>2408.4</ele>
        <time>2026-07-15T09:59:48Z</time>
      </trkpt>
      <trkpt lat="42.87333" lon="-0.19395">
        <ele>2408.4</ele>
        <time>2026-07-15T09:59:49Z</time>
      </trkpt>
      <trkpt lat="42.87333" lon="-0.19396">
        <ele>2408.4</ele>
        <time>2026-07-15T09:59:50Z</time>
      </trkpt>
      <trkpt lat="42.87333" lon="-0.19396">
        <ele>2408.4</ele>
        <time>2026-07-15T09:59:51Z</time>
      </trkpt>
      <trkpt lat="42.87333" lon="-0.19396">
        <ele>2408.4</ele>
        <time>2026-07-15T09:59:52Z</time>
      </trkpt>
      <trkpt lat="42.87333" lon="-0.19396">
        <ele>2409.4</ele>
        <time>2026-07-15T09:59:53Z</time>
      </trkpt>
      <trkpt lat="42.87333" lon="-0.19396">
        <ele>2408.4</ele>
        <time>2026-07-15T09:59:54Z</time>
      </trkpt>
      <trkpt lat="42.87334" lon="-0.19396">
        <ele>2409.4</ele>
        <time>2026-07-15T09:59:55Z</time>
      </trkpt>
      <trkpt lat="42.87334" lon="-0.19396">
        <ele>2409.4</ele>
        <time>2026-07-15T09:59:56Z</time>
      </trkpt>
      <trkpt lat="42.87335" lon="-0.19396">
        <ele>2409.4</ele>
        <time>2026-07-15T09:59:57Z</time>
      </trkpt>
      <trkpt lat="42.87335" lon="-0.19397">
        <ele>2409.4</ele>
        <time>2026-07-15T09:59:58Z</time>
      </trkpt>
      <trkpt lat="42.87336" lon="-0.19397">
        <ele>2409.4</ele>
        <time>2026-07-15T09:59:59Z</time>
      </trkpt>
      <trkpt lat="42.87336" lon="-0.19397">
        <ele>2409.4</ele>
        <time>2026-07-15T10:00:00Z</time>
      </trkpt>
      <trkpt lat="42.87337" lon="-0.19398">
        <ele>2410.4</ele>
        <time>2026-07-15T10:00:01Z</time>
      </trkpt>
      <trkpt lat="42.87338" lon="-0.19397">
        <ele>2410.4</ele>
        <time>2026-07-15T10:00:02Z</time>
      </trkpt>
      <trkpt lat="42.87338" lon="-0.19398">
        <ele>2410.4</ele>
        <time>2026-07-15T10:00:03Z</time>
      </trkpt>
      <trkpt lat="42.87338" lon="-0.19398">
        <ele>2410.4</ele>
        <time>2026-07-15T10:00:04Z</time>
      </trkpt>
      <trkpt lat="42.87338" lon="-0.19398">
        <ele>2410.4</ele>
        <time>2026-07-15T10:00:05Z</time>
      </trkpt>
      <trkpt lat="42.87337" lon="-0.19398">
        <ele>2410.4</ele>
        <time>2026-07-15T10:00:06Z</time>
      </trkpt>
      <trkpt lat="42.87338" lon="-0.19398">
        <ele>2410.4</ele>
        <time>2026-07-15T10:00:07Z</time>
      </trkpt>
      <trkpt lat="42.87338" lon="-0.19398">
        <ele>2410.4</ele>
        <time>2026-07-15T10:00:08Z</time>
      </trkpt>
      <trkpt lat="42.87338" lon="-0.19398">
        <ele>2410.4</ele>
        <time>2026-07-15T10:00:09Z</time>
      </trkpt>
      <trkpt lat="42.87339" lon="-0.19399">
        <ele>2410.4</ele>
        <time>2026-07-15T10:00:10Z</time>
      </trkpt>
      <trkpt lat="42.87339" lon="-0.19398">
        <ele>2410.4</ele>
        <time>2026-07-15T10:00:11Z</time>
      </trkpt>
      <trkpt lat="42.8734" lon="-0.19398">
        <ele>2410.4</ele>
        <time>2026-07-15T10:00:12Z</time>
      </trkpt>
      <trkpt lat="42.8734" lon="-0.19398">
        <ele>2411.4</ele>
        <time>2026-07-15T10:00:13Z</time>
      </trkpt>
      <trkpt lat="42.87341" lon="-0.19398">
        <ele>2410.4</ele>
        <time>2026-07-15T10:00:14Z</time>
      </trkpt>
      <trkpt lat="42.87342" lon="-0.19398">
        <ele>2411.4</ele>
        <time>2026-07-15T10:00:15Z</time>
      </trkpt>
      <trkpt lat="42.87343" lon="-0.19398">
        <ele>2412.4</ele>
        <time>2026-07-15T10:00:16Z</time>
      </trkpt>
      <trkpt lat="42.87344" lon="-0.19399">
        <ele>2412.4</ele>
        <time>2026-07-15T10:00:17Z</time>
      </trkpt>
      <trkpt lat="42.87345" lon="-0.194">
        <ele>2412.4</ele>
        <time>2026-07-15T10:00:18Z</time>
      </trkpt>
      <trkpt lat="42.87345" lon="-0.194">
        <ele>2413.4</ele>
        <time>2026-07-15T10:00:19Z</time>
      </trkpt>
      <trkpt lat="42.87345" lon="-0.194">
        <ele>2412.4</ele>
        <time>2026-07-15T10:00:20Z</time>
      </trkpt>
      <trkpt lat="42.87345" lon="-0.19401">
        <ele>2413.4</ele>
        <time>2026-07-15T10:00:21Z</time>
      </trkpt>
      <trkpt lat="42.87346" lon="-0.19401">
        <ele>2413.4</ele>
        <time>2026-07-15T10:00:22Z</time>
      </trkpt>
      <trkpt lat="42.87346" lon="-0.19402">
        <ele>2414.4</ele>
        <time>2026-07-15T10:00:23Z</time>
      </trkpt>
      <trkpt lat="42.87347" lon="-0.19401">
        <ele>2414.4</ele>
        <time>2026-07-15T10:00:24Z</time>
      </trkpt>
      <trkpt lat="42.87347" lon="-0.19401">
        <ele>2414.4</ele>
        <time>2026-07-15T10:00:25Z</time>
      </trkpt>
      <trkpt lat="42.87348" lon="-0.19401">
        <ele>2413.4</ele>
        <time>2026-07-15T10:00:26Z</time>
      </trkpt>
      <trkpt lat="42.87348" lon="-0.19401">
        <ele>2414.4</ele>
        <time>2026-07-15T10:00:27Z</time>
      </trkpt>
      <trkpt lat="42.87349" lon="-0.19401">
        <ele>2413.4</ele>
        <time>2026-07-15T10:00:28Z</time>
      </trkpt>
      <trkpt lat="42.87349" lon="-0.19401">
        <ele>2413.4</ele>
        <time>2026-07-15T10:00:29Z</time>
      </trkpt>
      <trkpt lat="42.8735" lon="-0.19402">
        <ele>2414.4</ele>
        <time>2026-07-15T10:00:30Z</time>
      </trkpt>
      <trkpt lat="42.8735" lon="-0.19402">
        <ele>2414.4</ele>
        <time>2026-07-15T10:00:31Z</time>
      </trkpt>
      <trkpt lat="42.87351" lon="-0.19403">
        <ele>2414.4</ele>
        <time>2026-07-15T10:00:32Z</time>
      </trkpt>
      <trkpt lat="42.87351" lon="-0.19404">
        <ele>2414.4</ele>
        <time>2026-07-15T10:00:33Z</time>
      </trkpt>
      <trkpt lat="42.87351" lon="-0.19404">
        <ele>2414.4</ele>
        <time>2026-07-15T10:00:34Z</time>
      </trkpt>
      <trkpt lat="42.87352" lon="-0.19405">
        <ele>2413.4</ele>
        <time>2026-07-15T10:00:35Z</time>
      </trkpt>
      <trkpt lat="42.87352" lon="-0.19405">
        <ele>2414.4</ele>
        <time>2026-07-15T10:00:36Z</time>
      </trkpt>
      <trkpt lat="42.87353" lon="-0.19405">
        <ele>2414.4</ele>
        <time>2026-07-15T10:00:37Z</time>
      </trkpt>
      <trkpt lat="42.87353" lon="-0.19405">
        <ele>2414.4</ele>
        <time>2026-07-15T10:00:38Z</time>
      </trkpt>
      <trkpt lat="42.87353" lon="-0.19405">
        <ele>2414.4</ele>
        <time>2026-07-15T10:00:39Z</time>
      </trkpt>
      <trkpt lat="42.87354" lon="-0.19407">
        <ele>2414.4</ele>
        <time>2026-07-15T10:00:40Z</time>
      </trkpt>
      <trkpt lat="42.87354" lon="-0.19407">
        <ele>2413.4</ele>
        <time>2026-07-15T10:00:41Z</time>
      </trkpt>
      <trkpt lat="42.87354" lon="-0.19407">
        <ele>2413.4</ele>
        <time>2026-07-15T10:00:42Z</time>
      </trkpt>
      <trkpt lat="42.87354" lon="-0.19408">
        <ele>2414.4</ele>
        <time>2026-07-15T10:00:43Z</time>
      </trkpt>
      <trkpt lat="42.87354" lon="-0.19408">
        <ele>2414.4</ele>
        <time>2026-07-15T10:00:44Z</time>
      </trkpt>
      <trkpt lat="42.87354" lon="-0.19408">
        <ele>2414.4</ele>
        <time>2026-07-15T10:00:45Z</time>
      </trkpt>
      <trkpt lat="42.87354" lon="-0.19408">
        <ele>2414.4</ele>
        <time>2026-07-15T10:00:46Z</time>
      </trkpt>
      <trkpt lat="42.87354" lon="-0.19408">
        <ele>2414.4</ele>
        <time>2026-07-15T10:00:47Z</time>
      </trkpt>
      <trkpt lat="42.87354" lon="-0.19408">
        <ele>2414.4</ele>
        <time>2026-07-15T10:00:48Z</time>
      </trkpt>
      <trkpt lat="42.87356" lon="-0.19409">
        <ele>2414.4</ele>
        <time>2026-07-15T10:00:49Z</time>
      </trkpt>
      <trkpt lat="42.87356" lon="-0.1941">
        <ele>2413.4</ele>
        <time>2026-07-15T10:00:50Z</time>
      </trkpt>
      <trkpt lat="42.87357" lon="-0.1941">
        <ele>2414.4</ele>
        <time>2026-07-15T10:00:51Z</time>
      </trkpt>
      <trkpt lat="42.87357" lon="-0.1941">
        <ele>2414.4</ele>
        <time>2026-07-15T10:00:52Z</time>
      </trkpt>
      <trkpt lat="42.87357" lon="-0.19411">
        <ele>2414.4</ele>
        <time>2026-07-15T10:00:53Z</time>
      </trkpt>
      <trkpt lat="42.87357" lon="-0.19411">
        <ele>2414.4</ele>
        <time>2026-07-15T10:00:54Z</time>
      </trkpt>
      <trkpt lat="42.87357" lon="-0.19411">
        <ele>2415.4</ele>
        <time>2026-07-15T10:00:55Z</time>
      </trkpt>
      <trkpt lat="42.87358" lon="-0.19411">
        <ele>2415.4</ele>
        <time>2026-07-15T10:00:56Z</time>
      </trkpt>
      <trkpt lat="42.87358" lon="-0.19412">
        <ele>2415.4</ele>
        <time>2026-07-15T10:00:57Z</time>
      </trkpt>
      <trkpt lat="42.87358" lon="-0.19412">
        <ele>2415.4</ele>
        <time>2026-07-15T10:00:58Z</time>
      </trkpt>
      <trkpt lat="42.87359" lon="-0.19412">
        <ele>2415.4</ele>
        <time>2026-07-15T10:00:59Z</time>
      </trkpt>
      <trkpt lat="42.87359" lon="-0.19412">
        <ele>2415.4</ele>
        <time>2026-07-15T10:01:00Z</time>
      </trkpt>
      <trkpt lat="42.8736" lon="-0.19412">
        <ele>2415.4</ele>
        <time>2026-07-15T10:01:01Z</time>
      </trkpt>
      <trkpt lat="42.8736" lon="-0.19412">
        <ele>2416.4</ele>
        <time>2026-07-15T10:01:02Z</time>
      </trkpt>
      <trkpt lat="42.87361" lon="-0.19412">
        <ele>2416.4</ele>
        <time>2026-07-15T10:01:03Z</time>
      </trkpt>
      <trkpt lat="42.87361" lon="-0.19413">
        <ele>2415.4</ele>
        <time>2026-07-15T10:01:04Z</time>
      </trkpt>
      <trkpt lat="42.87361" lon="-0.19413">
        <ele>2415.4</ele>
        <time>2026-07-15T10:01:05Z</time>
      </trkpt>
      <trkpt lat="42.87361" lon="-0.19413">
        <ele>2415.4</ele>
        <time>2026-07-15T10:01:06Z</time>
      </trkpt>
      <trkpt lat="42.87361" lon="-0.19413">
        <ele>2415.4</ele>
        <time>2026-07-15T10:01:07Z</time>
      </trkpt>
      <trkpt lat="42.87362" lon="-0.19413">
        <ele>2416.4</ele>
        <time>2026-07-15T10:01:08Z</time>
      </trkpt>
      <trkpt lat="42.87363" lon="-0.19414">
        <ele>2416.4</ele>
        <time>2026-07-15T10:01:09Z</time>
      </trkpt>
      <trkpt lat="42.87363" lon="-0.19413">
        <ele>2417.4</ele>
        <time>2026-07-15T10:01:10Z</time>
      </trkpt>
      <trkpt lat="42.87363" lon="-0.19413">
        <ele>2418.4</ele>
        <time>2026-07-15T10:01:11Z</time>
      </trkpt>
      <trkpt lat="42.87363" lon="-0.19413">
        <ele>2418.4</ele>
        <time>2026-07-15T10:01:12Z</time>
      </trkpt>
      <trkpt lat="42.87363" lon="-0.19413">
        <ele>2418.4</ele>
        <time>2026-07-15T10:01:13Z</time>
      </trkpt>
      <trkpt lat="42.87363" lon="-0.19413">
        <ele>2418.4</ele>
        <time>2026-07-15T10:01:14Z</time>
      </trkpt>
      <trkpt lat="42.87363" lon="-0.19413">
        <ele>2418.4</ele>
        <time>2026-07-15T10:01:15Z</time>
      </trkpt>
      <trkpt lat="42.87363" lon="-0.19413">
        <ele>2418.4</ele>
        <time>2026-07-15T10:01:16Z</time>
      </trkpt>
      <trkpt lat="42.87363" lon="-0.19413">
        <ele>2418.4</ele>
        <time>2026-07-15T10:01:17Z</time>
      </trkpt>
      <trkpt lat="42.87363" lon="-0.19413">
        <ele>2418.4</ele>
        <time>2026-07-15T10:01:18Z</time>
      </trkpt>
      <trkpt lat="42.87363" lon="-0.19413">
        <ele>2418.4</ele>
        <time>2026-07-15T10:01:19Z</time>
      </trkpt>
      <trkpt lat="42.87363" lon="-0.19413">
        <ele>2418.4</ele>
        <time>2026-07-15T10:01:20Z</time>
      </trkpt>
      <trkpt lat="42.87363" lon="-0.19413">
        <ele>2418.4</ele>
        <time>2026-07-15T10:01:21Z</time>
      </trkpt>
      <trkpt lat="42.87363" lon="-0.19413">
        <ele>2418.4</ele>
        <time>2026-07-15T10:01:22Z</time>
      </trkpt>
      <trkpt lat="42.87363" lon="-0.19413">
        <ele>2418.4</ele>
        <time>2026-07-15T10:01:23Z</time>
      </trkpt>
      <trkpt lat="42.87363" lon="-0.19413">
        <ele>2418.4</ele>
        <time>2026-07-15T10:01:24Z</time>
      </trkpt>
      <trkpt lat="42.87363" lon="-0.19413">
        <ele>2418.4</ele>
        <time>2026-07-15T10:01:25Z</time>
      </trkpt>
      <trkpt lat="42.87363" lon="-0.19413">
        <ele>2418.4</ele>
        <time>2026-07-15T10:01:26Z</time>
      </trkpt>
      <trkpt lat="42.87364" lon="-0.19414">
        <ele>2417.4</ele>
        <time>2026-07-15T10:01:27Z</time>
      </trkpt>
      <trkpt lat="42.87364" lon="-0.19414">
        <ele>2418.4</ele>
        <time>2026-07-15T10:01:28Z</time>
      </trkpt>
      <trkpt lat="42.87365" lon="-0.19415">
        <ele>2418.4</ele>
        <time>2026-07-15T10:01:29Z</time>
      </trkpt>
      <trkpt lat="42.87365" lon="-0.19415">
        <ele>2418.4</ele>
        <time>2026-07-15T10:01:30Z</time>
      </trkpt>
      <trkpt lat="42.87365" lon="-0.19415">
        <ele>2418.4</ele>
        <time>2026-07-15T10:01:31Z</time>
      </trkpt>
      <trkpt lat="42.87366" lon="-0.19415">
        <ele>2419.4</ele>
        <time>2026-07-15T10:01:32Z</time>
      </trkpt>
      <trkpt lat="42.87367" lon="-0.19415">
        <ele>2420.4</ele>
        <time>2026-07-15T10:01:33Z</time>
      </trkpt>
      <trkpt lat="42.87367" lon="-0.19415">
        <ele>2419.4</ele>
        <time>2026-07-15T10:01:34Z</time>
      </trkpt>
      <trkpt lat="42.87367" lon="-0.19415">
        <ele>2420.4</ele>
        <time>2026-07-15T10:01:35Z</time>
      </trkpt>
      <trkpt lat="42.87367" lon="-0.19415">
        <ele>2420.4</ele>
        <time>2026-07-15T10:01:36Z</time>
      </trkpt>
      <trkpt lat="42.87367" lon="-0.19415">
        <ele>2420.4</ele>
        <time>2026-07-15T10:01:37Z</time>
      </trkpt>
      <trkpt lat="42.87367" lon="-0.19415">
        <ele>2420.4</ele>
        <time>2026-07-15T10:01:38Z</time>
      </trkpt>
      <trkpt lat="42.87367" lon="-0.19415">
        <ele>2420.4</ele>
        <time>2026-07-15T10:01:39Z</time>
      </trkpt>
      <trkpt lat="42.87367" lon="-0.19415">
        <ele>2420.4</ele>
        <time>2026-07-15T10:01:40Z</time>
      </trkpt>
      <trkpt lat="42.87367" lon="-0.19415">
        <ele>2420.4</ele>
        <time>2026-07-15T10:01:41Z</time>
      </trkpt>
      <trkpt lat="42.87367" lon="-0.19415">
        <ele>2420.4</ele>
        <time>2026-07-15T10:01:42Z</time>
      </trkpt>
      <trkpt lat="42.87367" lon="-0.19415">
        <ele>2420.4</ele>
        <time>2026-07-15T10:01:43Z</time>
      </trkpt>
      <trkpt lat="42.87367" lon="-0.19415">
        <ele>2420.4</ele>
        <time>2026-07-15T10:01:44Z</time>
      </trkpt>
      <trkpt lat="42.87367" lon="-0.19415">
        <ele>2420.4</ele>
        <time>2026-07-15T10:01:45Z</time>
      </trkpt>
      <trkpt lat="42.87368" lon="-0.19415">
        <ele>2419.4</ele>
        <time>2026-07-15T10:01:46Z</time>
      </trkpt>
      <trkpt lat="42.87369" lon="-0.19415">
        <ele>2419.4</ele>
        <time>2026-07-15T10:01:47Z</time>
      </trkpt>
      <trkpt lat="42.87369" lon="-0.19415">
        <ele>2419.4</ele>
        <time>2026-07-15T10:01:48Z</time>
      </trkpt>
      <trkpt lat="42.87369" lon="-0.19416">
        <ele>2419.4</ele>
        <time>2026-07-15T10:01:49Z</time>
      </trkpt>
      <trkpt lat="42.87369" lon="-0.19416">
        <ele>2419.4</ele>
        <time>2026-07-15T10:01:50Z</time>
      </trkpt>
      <trkpt lat="42.87369" lon="-0.19416">
        <ele>2420.4</ele>
        <time>2026-07-15T10:01:51Z</time>
      </trkpt>
      <trkpt lat="42.87369" lon="-0.19417">
        <ele>2420.4</ele>
        <time>2026-07-15T10:01:52Z</time>
      </trkpt>
      <trkpt lat="42.8737" lon="-0.19417">
        <ele>2420.4</ele>
        <time>2026-07-15T10:01:53Z</time>
      </trkpt>
      <trkpt lat="42.87371" lon="-0.19417">
        <ele>2420.4</ele>
        <time>2026-07-15T10:01:54Z</time>
      </trkpt>
      <trkpt lat="42.87372" lon="-0.19418">
        <ele>2420.4</ele>
        <time>2026-07-15T10:01:55Z</time>
      </trkpt>
      <trkpt lat="42.87373" lon="-0.19418">
        <ele>2420.4</ele>
        <time>2026-07-15T10:01:56Z</time>
      </trkpt>
      <trkpt lat="42.87373" lon="-0.19417">
        <ele>2420.4</ele>
        <time>2026-07-15T10:01:57Z</time>
      </trkpt>
      <trkpt lat="42.87373" lon="-0.19418">
        <ele>2420.4</ele>
        <time>2026-07-15T10:01:58Z</time>
      </trkpt>
      <trkpt lat="42.87374" lon="-0.19418">
        <ele>2421.4</ele>
        <time>2026-07-15T10:01:59Z</time>
      </trkpt>
      <trkpt lat="42.87375" lon="-0.19419">
        <ele>2421.4</ele>
        <time>2026-07-15T10:02:00Z</time>
      </trkpt>
      <trkpt lat="42.87375" lon="-0.19419">
        <ele>2422.4</ele>
        <time>2026-07-15T10:02:01Z</time>
      </trkpt>
      <trkpt lat="42.87375" lon="-0.19419">
        <ele>2421.4</ele>
        <time>2026-07-15T10:02:02Z</time>
      </trkpt>
      <trkpt lat="42.87376" lon="-0.19419">
        <ele>2421.4</ele>
        <time>2026-07-15T10:02:03Z</time>
      </trkpt>
      <trkpt lat="42.87376" lon="-0.19419">
        <ele>2422.4</ele>
        <time>2026-07-15T10:02:04Z</time>
      </trkpt>
      <trkpt lat="42.87376" lon="-0.1942">
        <ele>2422.4</ele>
        <time>2026-07-15T10:02:05Z</time>
      </trkpt>
      <trkpt lat="42.87377" lon="-0.1942">
        <ele>2422.4</ele>
        <time>2026-07-15T10:02:06Z</time>
      </trkpt>
      <trkpt lat="42.87377" lon="-0.1942">
        <ele>2422.4</ele>
        <time>2026-07-15T10:02:07Z</time>
      </trkpt>
      <trkpt lat="42.87377" lon="-0.1942">
        <ele>2422.4</ele>
        <time>2026-07-15T10:02:08Z</time>
      </trkpt>
      <trkpt lat="42.87378" lon="-0.1942">
        <ele>2422.4</ele>
        <time>2026-07-15T10:02:09Z</time>
      </trkpt>
      <trkpt lat="42.87379" lon="-0.19421">
        <ele>2422.4</ele>
        <time>2026-07-15T10:02:10Z</time>
      </trkpt>
      <trkpt lat="42.8738" lon="-0.19421">
        <ele>2422.4</ele>
        <time>2026-07-15T10:02:11Z</time>
      </trkpt>
      <trkpt lat="42.8738" lon="-0.19421">
        <ele>2422.4</ele>
        <time>2026-07-15T10:02:12Z</time>
      </trkpt>
      <trkpt lat="42.8738" lon="-0.19422">
        <ele>2422.4</ele>
        <time>2026-07-15T10:02:13Z</time>
      </trkpt>
      <trkpt lat="42.87381" lon="-0.19422">
        <ele>2422.4</ele>
        <time>2026-07-15T10:02:14Z</time>
      </trkpt>
      <trkpt lat="42.87382" lon="-0.19423">
        <ele>2422.4</ele>
        <time>2026-07-15T10:02:15Z</time>
      </trkpt>
      <trkpt lat="42.87382" lon="-0.19423">
        <ele>2422.4</ele>
        <time>2026-07-15T10:02:16Z</time>
      </trkpt>
      <trkpt lat="42.87383" lon="-0.19423">
        <ele>2422.4</ele>
        <time>2026-07-15T10:02:17Z</time>
      </trkpt>
      <trkpt lat="42.87384" lon="-0.19423">
        <ele>2422.4</ele>
        <time>2026-07-15T10:02:18Z</time>
      </trkpt>
      <trkpt lat="42.87384" lon="-0.19423">
        <ele>2422.4</ele>
        <time>2026-07-15T10:02:19Z</time>
      </trkpt>
      <trkpt lat="42.87385" lon="-0.19423">
        <ele>2422.4</ele>
        <time>2026-07-15T10:02:20Z</time>
      </trkpt>
      <trkpt lat="42.87386" lon="-0.19423">
        <ele>2422.4</ele>
        <time>2026-07-15T10:02:21Z</time>
      </trkpt>
      <trkpt lat="42.87387" lon="-0.19423">
        <ele>2422.4</ele>
        <time>2026-07-15T10:02:22Z</time>
      </trkpt>
      <trkpt lat="42.87388" lon="-0.19423">
        <ele>2422.4</ele>
        <time>2026-07-15T10:02:23Z</time>
      </trkpt>
      <trkpt lat="42.87388" lon="-0.19423">
        <ele>2422.4</ele>
        <time>2026-07-15T10:02:24Z</time>
      </trkpt>
      <trkpt lat="42.87389" lon="-0.19423">
        <ele>2422.4</ele>
        <time>2026-07-15T10:02:25Z</time>
      </trkpt>
      <trkpt lat="42.87389" lon="-0.19422">
        <ele>2422.4</ele>
        <time>2026-07-15T10:02:26Z</time>
      </trkpt>
      <trkpt lat="42.8739" lon="-0.19422">
        <ele>2422.4</ele>
        <time>2026-07-15T10:02:27Z</time>
      </trkpt>
      <trkpt lat="42.8739" lon="-0.19422">
        <ele>2422.4</ele>
        <time>2026-07-15T10:02:28Z</time>
      </trkpt>
      <trkpt lat="42.8739" lon="-0.19422">
        <ele>2422.4</ele>
        <time>2026-07-15T10:02:29Z</time>
      </trkpt>
      <trkpt lat="42.8739" lon="-0.19422">
        <ele>2422.4</ele>
        <time>2026-07-15T10:02:30Z</time>
      </trkpt>
      <trkpt lat="42.87391" lon="-0.19421">
        <ele>2422.4</ele>
        <time>2026-07-15T10:02:31Z</time>
      </trkpt>
      <trkpt lat="42.87392" lon="-0.1942">
        <ele>2423.4</ele>
        <time>2026-07-15T10:02:32Z</time>
      </trkpt>
      <trkpt lat="42.87392" lon="-0.1942">
        <ele>2423.4</ele>
        <time>2026-07-15T10:02:33Z</time>
      </trkpt>
      <trkpt lat="42.87393" lon="-0.19419">
        <ele>2423.4</ele>
        <time>2026-07-15T10:02:34Z</time>
      </trkpt>
      <trkpt lat="42.87394" lon="-0.19419">
        <ele>2423.4</ele>
        <time>2026-07-15T10:02:35Z</time>
      </trkpt>
      <trkpt lat="42.87394" lon="-0.19419">
        <ele>2422.4</ele>
        <time>2026-07-15T10:02:36Z</time>
      </trkpt>
      <trkpt lat="42.87395" lon="-0.19419">
        <ele>2421.4</ele>
        <time>2026-07-15T10:02:37Z</time>
      </trkpt>
      <trkpt lat="42.87395" lon="-0.19419">
        <ele>2421.4</ele>
        <time>2026-07-15T10:02:38Z</time>
      </trkpt>
      <trkpt lat="42.87396" lon="-0.19418">
        <ele>2422.4</ele>
        <time>2026-07-15T10:02:39Z</time>
      </trkpt>
      <trkpt lat="42.87397" lon="-0.19418">
        <ele>2422.4</ele>
        <time>2026-07-15T10:02:40Z</time>
      </trkpt>
      <trkpt lat="42.87398" lon="-0.19419">
        <ele>2422.4</ele>
        <time>2026-07-15T10:02:41Z</time>
      </trkpt>
      <trkpt lat="42.87399" lon="-0.19418">
        <ele>2422.4</ele>
        <time>2026-07-15T10:02:42Z</time>
      </trkpt>
      <trkpt lat="42.874" lon="-0.19418">
        <ele>2422.4</ele>
        <time>2026-07-15T10:02:43Z</time>
      </trkpt>
      <trkpt lat="42.87401" lon="-0.19417">
        <ele>2422.4</ele>
        <time>2026-07-15T10:02:44Z</time>
      </trkpt>
      <trkpt lat="42.87401" lon="-0.19417">
        <ele>2422.4</ele>
        <time>2026-07-15T10:02:45Z</time>
      </trkpt>
      <trkpt lat="42.87401" lon="-0.19418">
        <ele>2422.4</ele>
        <time>2026-07-15T10:02:46Z</time>
      </trkpt>
      <trkpt lat="42.87402" lon="-0.19417">
        <ele>2422.4</ele>
        <time>2026-07-15T10:02:47Z</time>
      </trkpt>
      <trkpt lat="42.87403" lon="-0.19417">
        <ele>2423.4</ele>
        <time>2026-07-15T10:02:48Z</time>
      </trkpt>
      <trkpt lat="42.87404" lon="-0.19416">
        <ele>2423.4</ele>
        <time>2026-07-15T10:02:49Z</time>
      </trkpt>
      <trkpt lat="42.87404" lon="-0.19416">
        <ele>2423.4</ele>
        <time>2026-07-15T10:02:50Z</time>
      </trkpt>
      <trkpt lat="42.87405" lon="-0.19415">
        <ele>2423.4</ele>
        <time>2026-07-15T10:02:51Z</time>
      </trkpt>
      <trkpt lat="42.87406" lon="-0.19415">
        <ele>2423.4</ele>
        <time>2026-07-15T10:02:52Z</time>
      </trkpt>
      <trkpt lat="42.87407" lon="-0.19414">
        <ele>2423.4</ele>
        <time>2026-07-15T10:02:53Z</time>
      </trkpt>
      <trkpt lat="42.87407" lon="-0.19414">
        <ele>2423.4</ele>
        <time>2026-07-15T10:02:54Z</time>
      </trkpt>
      <trkpt lat="42.87408" lon="-0.19413">
        <ele>2423.4</ele>
        <time>2026-07-15T10:02:55Z</time>
      </trkpt>
      <trkpt lat="42.87408" lon="-0.19413">
        <ele>2423.4</ele>
        <time>2026-07-15T10:02:56Z</time>
      </trkpt>
      <trkpt lat="42.87409" lon="-0.19412">
        <ele>2424.4</ele>
        <time>2026-07-15T10:02:57Z</time>
      </trkpt>
      <trkpt lat="42.8741" lon="-0.19412">
        <ele>2424.4</ele>
        <time>2026-07-15T10:02:58Z</time>
      </trkpt>
      <trkpt lat="42.87411" lon="-0.19412">
        <ele>2424.4</ele>
        <time>2026-07-15T10:02:59Z</time>
      </trkpt>
      <trkpt lat="42.87412" lon="-0.19411">
        <ele>2424.4</ele>
        <time>2026-07-15T10:03:00Z</time>
      </trkpt>
      <trkpt lat="42.87412" lon="-0.19411">
        <ele>2424.4</ele>
        <time>2026-07-15T10:03:00Z</time>
      </trkpt>
      <trkpt lat="42.87413" lon="-0.19411">
        <ele>2424.4</ele>
        <time>2026-07-15T10:03:01Z</time>
      </trkpt>
      <trkpt lat="42.87413" lon="-0.1941">
        <ele>2424.4</ele>
        <time>2026-07-15T10:03:01Z</time>
      </trkpt>
      <trkpt lat="42.87414" lon="-0.1941">
        <ele>2424.4</ele>
        <time>2026-07-15T10:03:02Z</time>
      </trkpt>
      <trkpt lat="42.87414" lon="-0.19409">
        <ele>2424.4</ele>
        <time>2026-07-15T10:03:03Z</time>
      </trkpt>
      <trkpt lat="42.87415" lon="-0.19409">
        <ele>2424.4</ele>
        <time>2026-07-15T10:03:03Z</time>
      </trkpt>
      <trkpt lat="42.87415" lon="-0.19408">
        <ele>2424.4</ele>
        <time>2026-07-15T10:03:04Z</time>
      </trkpt>
      <trkpt lat="42.87416" lon="-0.19408">
        <ele>2424.4</ele>
        <time>2026-07-15T10:03:04Z</time>
      </trkpt>
      <trkpt lat="42.87417" lon="-0.19407">
        <ele>2424.4</ele>
        <time>2026-07-15T10:03:05Z</time>
      </trkpt>
      <trkpt lat="42.87417" lon="-0.19407">
        <ele>2424.4</ele>
        <time>2026-07-15T10:03:06Z</time>
      </trkpt>
      <trkpt lat="42.87418" lon="-0.19406">
        <ele>2424.4</ele>
        <time>2026-07-15T10:03:07Z</time>
      </trkpt>
      <trkpt lat="42.87419" lon="-0.19406">
        <ele>2424.4</ele>
        <time>2026-07-15T10:03:08Z</time>
      </trkpt>
      <trkpt lat="42.87419" lon="-0.19406">
        <ele>2425.4</ele>
        <time>2026-07-15T10:03:08Z</time>
      </trkpt>
      <trkpt lat="42.8742" lon="-0.19405">
        <ele>2425.4</ele>
        <time>2026-07-15T10:03:09Z</time>
      </trkpt>
      <trkpt lat="42.8742" lon="-0.19405">
        <ele>2425.4</ele>
        <time>2026-07-15T10:03:10Z</time>
      </trkpt>
      <trkpt lat="42.87421" lon="-0.19405">
        <ele>2425.4</ele>
        <time>2026-07-15T10:03:11Z</time>
      </trkpt>
      <trkpt lat="42.87422" lon="-0.19405">
        <ele>2424.4</ele>
        <time>2026-07-15T10:03:12Z</time>
      </trkpt>
      <trkpt lat="42.87422" lon="-0.19405">
        <ele>2424.4</ele>
        <time>2026-07-15T10:03:12Z</time>
      </trkpt>
      <trkpt lat="42.87423" lon="-0.19406">
        <ele>2424.4</ele>
        <time>2026-07-15T10:03:13Z</time>
      </trkpt>
      <trkpt lat="42.87423" lon="-0.19405">
        <ele>2424.4</ele>
        <time>2026-07-15T10:03:14Z</time>
      </trkpt>
      <trkpt lat="42.87424" lon="-0.19406">
        <ele>2423.4</ele>
        <time>2026-07-15T10:03:15Z</time>
      </trkpt>
      <trkpt lat="42.87424" lon="-0.19406">
        <ele>2423.4</ele>
        <time>2026-07-15T10:03:16Z</time>
      </trkpt>
      <trkpt lat="42.87424" lon="-0.19406">
        <ele>2423.4</ele>
        <time>2026-07-15T10:03:16Z</time>
      </trkpt>
      <trkpt lat="42.87425" lon="-0.19406">
        <ele>2424.4</ele>
        <time>2026-07-15T10:03:17Z</time>
      </trkpt>
      <trkpt lat="42.87425" lon="-0.19406">
        <ele>2424.4</ele>
        <time>2026-07-15T10:03:18Z</time>
      </trkpt>
      <trkpt lat="42.87426" lon="-0.19406">
        <ele>2423.4</ele>
        <time>2026-07-15T10:03:18Z</time>
      </trkpt>
      <trkpt lat="42.87426" lon="-0.19406">
        <ele>2424.4</ele>
        <time>2026-07-15T10:03:19Z</time>
      </trkpt>
      <trkpt lat="42.87427" lon="-0.19406">
        <ele>2424.4</ele>
        <time>2026-07-15T10:03:20Z</time>
      </trkpt>
      <trkpt lat="42.87427" lon="-0.19406">
        <ele>2424.4</ele>
        <time>2026-07-15T10:03:21Z</time>
      </trkpt>
      <trkpt lat="42.87427" lon="-0.19406">
        <ele>2424.4</ele>
        <time>2026-07-15T10:03:22Z</time>
      </trkpt>
      <trkpt lat="42.87427" lon="-0.19406">
        <ele>2424.4</ele>
        <time>2026-07-15T10:03:22Z</time>
      </trkpt>
      <trkpt lat="42.87427" lon="-0.19406">
        <ele>2424.4</ele>
        <time>2026-07-15T10:03:23Z</time>
      </trkpt>
      <trkpt lat="42.87428" lon="-0.19406">
        <ele>2424.4</ele>
        <time>2026-07-15T10:03:24Z</time>
      </trkpt>
      <trkpt lat="42.87428" lon="-0.19406">
        <ele>2424.4</ele>
        <time>2026-07-15T10:03:25Z</time>
      </trkpt>
      <trkpt lat="42.87429" lon="-0.19405">
        <ele>2424.4</ele>
        <time>2026-07-15T10:03:26Z</time>
      </trkpt>
      <trkpt lat="42.87429" lon="-0.19405">
        <ele>2424.4</ele>
        <time>2026-07-15T10:03:27Z</time>
      </trkpt>
      <trkpt lat="42.8743" lon="-0.19405">
        <ele>2424.4</ele>
        <time>2026-07-15T10:03:27Z</time>
      </trkpt>
      <trkpt lat="42.8743" lon="-0.19405">
        <ele>2424.4</ele>
        <time>2026-07-15T10:03:28Z</time>
      </trkpt>
      <trkpt lat="42.87431" lon="-0.19406">
        <ele>2425.4</ele>
        <time>2026-07-15T10:03:29Z</time>
      </trkpt>
      <trkpt lat="42.87431" lon="-0.19406">
        <ele>2425.4</ele>
        <time>2026-07-15T10:03:30Z</time>
      </trkpt>
      <trkpt lat="42.87432" lon="-0.19407">
        <ele>2425.4</ele>
        <time>2026-07-15T10:03:31Z</time>
      </trkpt>
      <trkpt lat="42.87432" lon="-0.19407">
        <ele>2425.4</ele>
        <time>2026-07-15T10:03:32Z</time>
      </trkpt>
      <trkpt lat="42.87432" lon="-0.19407">
        <ele>2425.4</ele>
        <time>2026-07-15T10:03:33Z</time>
      </trkpt>
      <trkpt lat="42.87433" lon="-0.19407">
        <ele>2425.4</ele>
        <time>2026-07-15T10:03:34Z</time>
      </trkpt>
      <trkpt lat="42.87433" lon="-0.19407">
        <ele>2425.4</ele>
        <time>2026-07-15T10:03:35Z</time>
      </trkpt>
      <trkpt lat="42.87433" lon="-0.19407">
        <ele>2426.4</ele>
        <time>2026-07-15T10:03:36Z</time>
      </trkpt>
      <trkpt lat="42.87433" lon="-0.19407">
        <ele>2426.4</ele>
        <time>2026-07-15T10:03:37Z</time>
      </trkpt>
      <trkpt lat="42.87434" lon="-0.19407">
        <ele>2426.4</ele>
        <time>2026-07-15T10:03:38Z</time>
      </trkpt>
      <trkpt lat="42.87434" lon="-0.19407">
        <ele>2426.4</ele>
        <time>2026-07-15T10:03:39Z</time>
      </trkpt>
      <trkpt lat="42.87435" lon="-0.19406">
        <ele>2426.4</ele>
        <time>2026-07-15T10:03:40Z</time>
      </trkpt>
      <trkpt lat="42.87435" lon="-0.19406">
        <ele>2426.4</ele>
        <time>2026-07-15T10:03:41Z</time>
      </trkpt>
      <trkpt lat="42.87435" lon="-0.19406">
        <ele>2426.4</ele>
        <time>2026-07-15T10:03:41Z</time>
      </trkpt>
      <trkpt lat="42.87435" lon="-0.19407">
        <ele>2426.4</ele>
        <time>2026-07-15T10:03:42Z</time>
      </trkpt>
      <trkpt lat="42.87436" lon="-0.19407">
        <ele>2427.4</ele>
        <time>2026-07-15T10:03:43Z</time>
      </trkpt>
      <trkpt lat="42.87436" lon="-0.19407">
        <ele>2427.4</ele>
        <time>2026-07-15T10:03:44Z</time>
      </trkpt>
      <trkpt lat="42.87436" lon="-0.19408">
        <ele>2427.4</ele>
        <time>2026-07-15T10:03:45Z</time>
      </trkpt>
      <trkpt lat="42.87436" lon="-0.19409">
        <ele>2427.4</ele>
        <time>2026-07-15T10:03:46Z</time>
      </trkpt>
      <trkpt lat="42.87437" lon="-0.1941">
        <ele>2428.4</ele>
        <time>2026-07-15T10:03:47Z</time>
      </trkpt>
      <trkpt lat="42.87437" lon="-0.1941">
        <ele>2428.4</ele>
        <time>2026-07-15T10:03:47Z</time>
      </trkpt>
      <trkpt lat="42.87438" lon="-0.1941">
        <ele>2428.4</ele>
        <time>2026-07-15T10:03:48Z</time>
      </trkpt>
      <trkpt lat="42.87438" lon="-0.1941">
        <ele>2428.4</ele>
        <time>2026-07-15T10:03:49Z</time>
      </trkpt>
      <trkpt lat="42.87438" lon="-0.19411">
        <ele>2428.4</ele>
        <time>2026-07-15T10:03:50Z</time>
      </trkpt>
      <trkpt lat="42.87439" lon="-0.19411">
        <ele>2428.4</ele>
        <time>2026-07-15T10:03:51Z</time>
      </trkpt>
      <trkpt lat="42.8744" lon="-0.19411">
        <ele>2428.4</ele>
        <time>2026-07-15T10:03:52Z</time>
      </trkpt>
      <trkpt lat="42.8744" lon="-0.19411">
        <ele>2429.4</ele>
        <time>2026-07-15T10:03:53Z</time>
      </trkpt>
      <trkpt lat="42.87441" lon="-0.19411">
        <ele>2429.4</ele>
        <time>2026-07-15T10:03:54Z</time>
      </trkpt>
      <trkpt lat="42.87441" lon="-0.19411">
        <ele>2429.4</ele>
        <time>2026-07-15T10:03:55Z</time>
      </trkpt>
      <trkpt lat="42.87441" lon="-0.19411">
        <ele>2430.4</ele>
        <time>2026-07-15T10:03:56Z</time>
      </trkpt>
      <trkpt lat="42.87441" lon="-0.19411">
        <ele>2430.4</ele>
        <time>2026-07-15T10:03:57Z</time>
      </trkpt>
      <trkpt lat="42.87442" lon="-0.19411">
        <ele>2430.4</ele>
        <time>2026-07-15T10:03:58Z</time>
      </trkpt>
      <trkpt lat="42.87442" lon="-0.19412">
        <ele>2431.4</ele>
        <time>2026-07-15T10:03:59Z</time>
      </trkpt>
      <trkpt lat="42.87442" lon="-0.19412">
        <ele>2431.4</ele>
        <time>2026-07-15T10:04:00Z</time>
      </trkpt>
      <trkpt lat="42.87442" lon="-0.19413">
        <ele>2431.4</ele>
        <time>2026-07-15T10:04:01Z</time>
      </trkpt>
      <trkpt lat="42.87442" lon="-0.19413">
        <ele>2431.4</ele>
        <time>2026-07-15T10:04:02Z</time>
      </trkpt>
      <trkpt lat="42.87442" lon="-0.19413">
        <ele>2431.4</ele>
        <time>2026-07-15T10:04:03Z</time>
      </trkpt>
      <trkpt lat="42.87442" lon="-0.19413">
        <ele>2430.4</ele>
        <time>2026-07-15T10:04:04Z</time>
      </trkpt>
      <trkpt lat="42.87442" lon="-0.19413">
        <ele>2431.4</ele>
        <time>2026-07-15T10:04:05Z</time>
      </trkpt>
      <trkpt lat="42.87443" lon="-0.19413">
        <ele>2431.4</ele>
        <time>2026-07-15T10:04:06Z</time>
      </trkpt>
      <trkpt lat="42.87443" lon="-0.19413">
        <ele>2431.4</ele>
        <time>2026-07-15T10:04:07Z</time>
      </trkpt>
      <trkpt lat="42.87443" lon="-0.19413">
        <ele>2431.4</ele>
        <time>2026-07-15T10:04:08Z</time>
      </trkpt>
      <trkpt lat="42.87443" lon="-0.19413">
        <ele>2431.4</ele>
        <time>2026-07-15T10:04:09Z</time>
      </trkpt>
      <trkpt lat="42.87443" lon="-0.19414">
        <ele>2431.4</ele>
        <time>2026-07-15T10:04:10Z</time>
      </trkpt>
      <trkpt lat="42.87443" lon="-0.19414">
        <ele>2431.4</ele>
        <time>2026-07-15T10:04:11Z</time>
      </trkpt>
      <trkpt lat="42.87443" lon="-0.19415">
        <ele>2431.4</ele>
        <time>2026-07-15T10:04:11Z</time>
      </trkpt>
      <trkpt lat="42.87443" lon="-0.19415">
        <ele>2431.4</ele>
        <time>2026-07-15T10:04:12Z</time>
      </trkpt>
      <trkpt lat="42.87444" lon="-0.19416">
        <ele>2431.4</ele>
        <time>2026-07-15T10:04:13Z</time>
      </trkpt>
      <trkpt lat="42.87444" lon="-0.19416">
        <ele>2431.4</ele>
        <time>2026-07-15T10:04:13Z</time>
      </trkpt>
      <trkpt lat="42.87444" lon="-0.19416">
        <ele>2431.4</ele>
        <time>2026-07-15T10:04:14Z</time>
      </trkpt>
      <trkpt lat="42.87444" lon="-0.19417">
        <ele>2431.4</ele>
        <time>2026-07-15T10:04:15Z</time>
      </trkpt>
      <trkpt lat="42.87444" lon="-0.19417">
        <ele>2431.4</ele>
        <time>2026-07-15T10:04:15Z</time>
      </trkpt>
      <trkpt lat="42.87445" lon="-0.19417">
        <ele>2431.4</ele>
        <time>2026-07-15T10:04:16Z</time>
      </trkpt>
      <trkpt lat="42.87445" lon="-0.19417">
        <ele>2431.4</ele>
        <time>2026-07-15T10:04:17Z</time>
      </trkpt>
      <trkpt lat="42.87446" lon="-0.19418">
        <ele>2431.4</ele>
        <time>2026-07-15T10:04:17Z</time>
      </trkpt>
      <trkpt lat="42.87446" lon="-0.19418">
        <ele>2432.4</ele>
        <time>2026-07-15T10:04:18Z</time>
      </trkpt>
      <trkpt lat="42.87447" lon="-0.19419">
        <ele>2432.4</ele>
        <time>2026-07-15T10:04:19Z</time>
      </trkpt>
      <trkpt lat="42.87448" lon="-0.19419">
        <ele>2432.4</ele>
        <time>2026-07-15T10:04:20Z</time>
      </trkpt>
      <trkpt lat="42.87448" lon="-0.19419">
        <ele>2432.4</ele>
        <time>2026-07-15T10:04:21Z</time>
      </trkpt>
      <trkpt lat="42.87449" lon="-0.1942">
        <ele>2432.4</ele>
        <time>2026-07-15T10:04:22Z</time>
      </trkpt>
      <trkpt lat="42.87449" lon="-0.1942">
        <ele>2432.4</ele>
        <time>2026-07-15T10:04:23Z</time>
      </trkpt>
      <trkpt lat="42.87449" lon="-0.1942">
        <ele>2432.4</ele>
        <time>2026-07-15T10:04:24Z</time>
      </trkpt>
      <trkpt lat="42.8745" lon="-0.19421">
        <ele>2432.4</ele>
        <time>2026-07-15T10:04:25Z</time>
      </trkpt>
      <trkpt lat="42.87451" lon="-0.19421">
        <ele>2432.4</ele>
        <time>2026-07-15T10:04:26Z</time>
      </trkpt>
      <trkpt lat="42.87451" lon="-0.19422">
        <ele>2432.4</ele>
        <time>2026-07-15T10:04:27Z</time>
      </trkpt>
      <trkpt lat="42.87452" lon="-0.19422">
        <ele>2433.4</ele>
        <time>2026-07-15T10:04:28Z</time>
      </trkpt>
      <trkpt lat="42.87452" lon="-0.19422">
        <ele>2433.4</ele>
        <time>2026-07-15T10:04:29Z</time>
      </trkpt>
      <trkpt lat="42.87452" lon="-0.19423">
        <ele>2433.4</ele>
        <time>2026-07-15T10:04:30Z</time>
      </trkpt>
      <trkpt lat="42.87453" lon="-0.19423">
        <ele>2433.4</ele>
        <time>2026-07-15T10:04:30Z</time>
      </trkpt>
      <trkpt lat="42.87453" lon="-0.19424">
        <ele>2433.4</ele>
        <time>2026-07-15T10:04:31Z</time>
      </trkpt>
      <trkpt lat="42.87453" lon="-0.19425">
        <ele>2433.4</ele>
        <time>2026-07-15T10:04:32Z</time>
      </trkpt>
      <trkpt lat="42.87453" lon="-0.19426">
        <ele>2434.4</ele>
        <time>2026-07-15T10:04:33Z</time>
      </trkpt>
      <trkpt lat="42.87454" lon="-0.19426">
        <ele>2433.4</ele>
        <time>2026-07-15T10:04:34Z</time>
      </trkpt>
      <trkpt lat="42.87454" lon="-0.19427">
        <ele>2433.4</ele>
        <time>2026-07-15T10:04:35Z</time>
      </trkpt>
      <trkpt lat="42.87454" lon="-0.19427">
        <ele>2433.4</ele>
        <time>2026-07-15T10:04:36Z</time>
      </trkpt>
      <trkpt lat="42.87454" lon="-0.19428">
        <ele>2434.4</ele>
        <time>2026-07-15T10:04:36Z</time>
      </trkpt>
      <trkpt lat="42.87454" lon="-0.19428">
        <ele>2434.4</ele>
        <time>2026-07-15T10:04:37Z</time>
      </trkpt>
      <trkpt lat="42.87454" lon="-0.19428">
        <ele>2434.4</ele>
        <time>2026-07-15T10:04:38Z</time>
      </trkpt>
      <trkpt lat="42.87454" lon="-0.19428">
        <ele>2434.4</ele>
        <time>2026-07-15T10:04:39Z</time>
      </trkpt>
      <trkpt lat="42.87454" lon="-0.19428">
        <ele>2434.4</ele>
        <time>2026-07-15T10:04:40Z</time>
      </trkpt>
      <trkpt lat="42.87455" lon="-0.19428">
        <ele>2434.4</ele>
        <time>2026-07-15T10:04:41Z</time>
      </trkpt>
      <trkpt lat="42.87455" lon="-0.19428">
        <ele>2434.4</ele>
        <time>2026-07-15T10:04:41Z</time>
      </trkpt>
      <trkpt lat="42.87456" lon="-0.19429">
        <ele>2434.4</ele>
        <time>2026-07-15T10:04:42Z</time>
      </trkpt>
      <trkpt lat="42.87456" lon="-0.19429">
        <ele>2434.4</ele>
        <time>2026-07-15T10:04:43Z</time>
      </trkpt>
      <trkpt lat="42.87457" lon="-0.19429">
        <ele>2434.4</ele>
        <time>2026-07-15T10:04:44Z</time>
      </trkpt>
      <trkpt lat="42.87457" lon="-0.1943">
        <ele>2434.4</ele>
        <time>2026-07-15T10:04:45Z</time>
      </trkpt>
      <trkpt lat="42.87458" lon="-0.1943">
        <ele>2434.4</ele>
        <time>2026-07-15T10:04:46Z</time>
      </trkpt>
      <trkpt lat="42.87458" lon="-0.1943">
        <ele>2433.4</ele>
        <time>2026-07-15T10:04:46Z</time>
      </trkpt>
      <trkpt lat="42.87459" lon="-0.1943">
        <ele>2433.4</ele>
        <time>2026-07-15T10:04:47Z</time>
      </trkpt>
      <trkpt lat="42.8746" lon="-0.1943">
        <ele>2434.4</ele>
        <time>2026-07-15T10:04:48Z</time>
      </trkpt>
      <trkpt lat="42.8746" lon="-0.1943">
        <ele>2434.4</ele>
        <time>2026-07-15T10:04:49Z</time>
      </trkpt>
      <trkpt lat="42.87461" lon="-0.1943">
        <ele>2434.4</ele>
        <time>2026-07-15T10:04:50Z</time>
      </trkpt>
      <trkpt lat="42.87461" lon="-0.19431">
        <ele>2434.4</ele>
        <time>2026-07-15T10:04:50Z</time>
      </trkpt>
      <trkpt lat="42.87462" lon="-0.19431">
        <ele>2434.4</ele>
        <time>2026-07-15T10:04:51Z</time>
      </trkpt>
      <trkpt lat="42.87463" lon="-0.19431">
        <ele>2434.4</ele>
        <time>2026-07-15T10:04:52Z</time>
      </trkpt>
      <trkpt lat="42.87463" lon="-0.19431">
        <ele>2434.4</ele>
        <time>2026-07-15T10:04:53Z</time>
      </trkpt>
      <trkpt lat="42.87464" lon="-0.19432">
        <ele>2434.4</ele>
        <time>2026-07-15T10:04:54Z</time>
      </trkpt>
      <trkpt lat="42.87464" lon="-0.19432">
        <ele>2434.4</ele>
        <time>2026-07-15T10:04:55Z</time>
      </trkpt>
      <trkpt lat="42.87464" lon="-0.19432">
        <ele>2435.4</ele>
        <time>2026-07-15T10:04:56Z</time>
      </trkpt>
      <trkpt lat="42.87465" lon="-0.19432">
        <ele>2434.4</ele>
        <time>2026-07-15T10:04:56Z</time>
      </trkpt>
      <trkpt lat="42.87465" lon="-0.19433">
        <ele>2434.4</ele>
        <time>2026-07-15T10:04:57Z</time>
      </trkpt>
      <trkpt lat="42.87465" lon="-0.19433">
        <ele>2434.4</ele>
        <time>2026-07-15T10:04:57Z</time>
      </trkpt>
      <trkpt lat="42.87466" lon="-0.19433">
        <ele>2434.4</ele>
        <time>2026-07-15T10:04:58Z</time>
      </trkpt>
      <trkpt lat="42.87466" lon="-0.19433">
        <ele>2434.4</ele>
        <time>2026-07-15T10:04:59Z</time>
      </trkpt>
      <trkpt lat="42.87467" lon="-0.19433">
        <ele>2434.4</ele>
        <time>2026-07-15T10:04:59Z</time>
      </trkpt>
      <trkpt lat="42.87467" lon="-0.19433">
        <ele>2434.4</ele>
        <time>2026-07-15T10:05:00Z</time>
      </trkpt>
      <trkpt lat="42.87468" lon="-0.19433">
        <ele>2434.4</ele>
        <time>2026-07-15T10:05:01Z</time>
      </trkpt>
      <trkpt lat="42.87468" lon="-0.19433">
        <ele>2434.4</ele>
        <time>2026-07-15T10:05:02Z</time>
      </trkpt>
      <trkpt lat="42.87468" lon="-0.19434">
        <ele>2434.4</ele>
        <time>2026-07-15T10:05:03Z</time>
      </trkpt>
      <trkpt lat="42.87468" lon="-0.19434">
        <ele>2435.4</ele>
        <time>2026-07-15T10:05:04Z</time>
      </trkpt>
      <trkpt lat="42.87468" lon="-0.19435">
        <ele>2435.4</ele>
        <time>2026-07-15T10:05:05Z</time>
      </trkpt>
      <trkpt lat="42.87468" lon="-0.19434">
        <ele>2435.4</ele>
        <time>2026-07-15T10:05:06Z</time>
      </trkpt>
      <trkpt lat="42.87469" lon="-0.19434">
        <ele>2435.4</ele>
        <time>2026-07-15T10:05:07Z</time>
      </trkpt>
      <trkpt lat="42.87469" lon="-0.19434">
        <ele>2435.4</ele>
        <time>2026-07-15T10:05:07Z</time>
      </trkpt>
      <trkpt lat="42.87469" lon="-0.19434">
        <ele>2435.4</ele>
        <time>2026-07-15T10:05:08Z</time>
      </trkpt>
      <trkpt lat="42.87469" lon="-0.19434">
        <ele>2436.4</ele>
        <time>2026-07-15T10:05:09Z</time>
      </trkpt>
      <trkpt lat="42.87469" lon="-0.19434">
        <ele>2436.4</ele>
        <time>2026-07-15T10:05:10Z</time>
      </trkpt>
      <trkpt lat="42.87469" lon="-0.19434">
        <ele>2436.4</ele>
        <time>2026-07-15T10:05:11Z</time>
      </trkpt>
      <trkpt lat="42.87469" lon="-0.19434">
        <ele>2436.4</ele>
        <time>2026-07-15T10:05:12Z</time>
      </trkpt>
      <trkpt lat="42.87469" lon="-0.19434">
        <ele>2436.4</ele>
        <time>2026-07-15T10:05:13Z</time>
      </trkpt>
      <trkpt lat="42.87469" lon="-0.19434">
        <ele>2436.4</ele>
        <time>2026-07-15T10:05:13Z</time>
      </trkpt>
      <trkpt lat="42.87469" lon="-0.19434">
        <ele>2436.4</ele>
        <time>2026-07-15T10:05:14Z</time>
      </trkpt>
      <trkpt lat="42.87469" lon="-0.19434">
        <ele>2435.4</ele>
        <time>2026-07-15T10:05:15Z</time>
      </trkpt>
      <trkpt lat="42.87469" lon="-0.19434">
        <ele>2436.4</ele>
        <time>2026-07-15T10:05:16Z</time>
      </trkpt>
      <trkpt lat="42.8747" lon="-0.19434">
        <ele>2436.4</ele>
        <time>2026-07-15T10:05:17Z</time>
      </trkpt>
      <trkpt lat="42.8747" lon="-0.19435">
        <ele>2436.4</ele>
        <time>2026-07-15T10:05:18Z</time>
      </trkpt>
      <trkpt lat="42.8747" lon="-0.19435">
        <ele>2437.4</ele>
        <time>2026-07-15T10:05:19Z</time>
      </trkpt>
      <trkpt lat="42.8747" lon="-0.19435">
        <ele>2437.4</ele>
        <time>2026-07-15T10:05:20Z</time>
      </trkpt>
      <trkpt lat="42.8747" lon="-0.19435">
        <ele>2437.4</ele>
        <time>2026-07-15T10:05:21Z</time>
      </trkpt>
      <trkpt lat="42.8747" lon="-0.19435">
        <ele>2437.4</ele>
        <time>2026-07-15T10:05:22Z</time>
      </trkpt>
      <trkpt lat="42.8747" lon="-0.19435">
        <ele>2438.4</ele>
        <time>2026-07-15T10:05:23Z</time>
      </trkpt>
      <trkpt lat="42.8747" lon="-0.19435">
        <ele>2437.4</ele>
        <time>2026-07-15T10:05:24Z</time>
      </trkpt>
      <trkpt lat="42.8747" lon="-0.19435">
        <ele>2437.4</ele>
        <time>2026-07-15T10:05:25Z</time>
      </trkpt>
      <trkpt lat="42.8747" lon="-0.19435">
        <ele>2438.4</ele>
        <time>2026-07-15T10:05:26Z</time>
      </trkpt>
      <trkpt lat="42.8747" lon="-0.19435">
        <ele>2438.4</ele>
        <time>2026-07-15T10:05:27Z</time>
      </trkpt>
      <trkpt lat="42.8747" lon="-0.19435">
        <ele>2438.4</ele>
        <time>2026-07-15T10:05:28Z</time>
      </trkpt>
      <trkpt lat="42.8747" lon="-0.19435">
        <ele>2438.4</ele>
        <time>2026-07-15T10:05:29Z</time>
      </trkpt>
      <trkpt lat="42.8747" lon="-0.19435">
        <ele>2438.4</ele>
        <time>2026-07-15T10:05:30Z</time>
      </trkpt>
      <trkpt lat="42.8747" lon="-0.19435">
        <ele>2438.4</ele>
        <time>2026-07-15T10:05:31Z</time>
      </trkpt>
      <trkpt lat="42.87471" lon="-0.19435">
        <ele>2438.4</ele>
        <time>2026-07-15T10:05:32Z</time>
      </trkpt>
      <trkpt lat="42.87471" lon="-0.19435">
        <ele>2438.4</ele>
        <time>2026-07-15T10:05:33Z</time>
      </trkpt>
      <trkpt lat="42.87471" lon="-0.19435">
        <ele>2438.4</ele>
        <time>2026-07-15T10:05:34Z</time>
      </trkpt>
      <trkpt lat="42.87471" lon="-0.19435">
        <ele>2438.4</ele>
        <time>2026-07-15T10:05:35Z</time>
      </trkpt>
      <trkpt lat="42.87471" lon="-0.19435">
        <ele>2438.4</ele>
        <time>2026-07-15T10:05:36Z</time>
      </trkpt>
      <trkpt lat="42.87471" lon="-0.19435">
        <ele>2438.4</ele>
        <time>2026-07-15T10:05:37Z</time>
      </trkpt>
      <trkpt lat="42.87471" lon="-0.19435">
        <ele>2438.4</ele>
        <time>2026-07-15T10:05:38Z</time>
      </trkpt>
      <trkpt lat="42.87471" lon="-0.19435">
        <ele>2438.4</ele>
        <time>2026-07-15T10:05:39Z</time>
      </trkpt>
      <trkpt lat="42.87471" lon="-0.19435">
        <ele>2438.4</ele>
        <time>2026-07-15T10:05:40Z</time>
      </trkpt>
      <trkpt lat="42.87471" lon="-0.19435">
        <ele>2438.4</ele>
        <time>2026-07-15T10:05:41Z</time>
      </trkpt>
      <trkpt lat="42.87471" lon="-0.19435">
        <ele>2437.4</ele>
        <time>2026-07-15T10:05:41Z</time>
      </trkpt>
      <trkpt lat="42.87471" lon="-0.19435">
        <ele>2437.4</ele>
        <time>2026-07-15T10:05:42Z</time>
      </trkpt>
      <trkpt lat="42.87471" lon="-0.19435">
        <ele>2437.4</ele>
        <time>2026-07-15T10:05:43Z</time>
      </trkpt>
      <trkpt lat="42.87471" lon="-0.19436">
        <ele>2437.4</ele>
        <time>2026-07-15T10:05:44Z</time>
      </trkpt>
      <trkpt lat="42.87471" lon="-0.19436">
        <ele>2438.4</ele>
        <time>2026-07-15T10:05:44Z</time>
      </trkpt>
      <trkpt lat="42.87471" lon="-0.19437">
        <ele>2437.4</ele>
        <time>2026-07-15T10:05:45Z</time>
      </trkpt>
      <trkpt lat="42.87472" lon="-0.19438">
        <ele>2437.4</ele>
        <time>2026-07-15T10:05:46Z</time>
      </trkpt>
      <trkpt lat="42.87472" lon="-0.19439">
        <ele>2438.4</ele>
        <time>2026-07-15T10:05:47Z</time>
      </trkpt>
      <trkpt lat="42.87472" lon="-0.1944">
        <ele>2439.4</ele>
        <time>2026-07-15T10:05:47Z</time>
      </trkpt>
      <trkpt lat="42.87472" lon="-0.19441">
        <ele>2439.4</ele>
        <time>2026-07-15T10:05:48Z</time>
      </trkpt>
      <trkpt lat="42.87472" lon="-0.19442">
        <ele>2439.4</ele>
        <time>2026-07-15T10:05:49Z</time>
      </trkpt>
      <trkpt lat="42.87472" lon="-0.19442">
        <ele>2439.4</ele>
        <time>2026-07-15T10:05:50Z</time>
      </trkpt>
      <trkpt lat="42.87472" lon="-0.19443">
        <ele>2439.4</ele>
        <time>2026-07-15T10:05:51Z</time>
      </trkpt>
      <trkpt lat="42.87472" lon="-0.19443">
        <ele>2439.4</ele>
        <time>2026-07-15T10:05:52Z</time>
      </trkpt>
      <trkpt lat="42.87472" lon="-0.19443">
        <ele>2439.4</ele>
        <time>2026-07-15T10:05:52Z</time>
      </trkpt>
      <trkpt lat="42.87472" lon="-0.19444">
        <ele>2439.4</ele>
        <time>2026-07-15T10:05:53Z</time>
      </trkpt>
      <trkpt lat="42.87472" lon="-0.19444">
        <ele>2439.4</ele>
        <time>2026-07-15T10:05:54Z</time>
      </trkpt>
      <trkpt lat="42.87472" lon="-0.19443">
        <ele>2439.4</ele>
        <time>2026-07-15T10:05:54Z</time>
      </trkpt>
      <trkpt lat="42.87472" lon="-0.19443">
        <ele>2439.4</ele>
        <time>2026-07-15T10:05:55Z</time>
      </trkpt>
      <trkpt lat="42.87472" lon="-0.19443">
        <ele>2439.4</ele>
        <time>2026-07-15T10:05:56Z</time>
      </trkpt>
      <trkpt lat="42.87471" lon="-0.19443">
        <ele>2439.4</ele>
        <time>2026-07-15T10:05:57Z</time>
      </trkpt>
      <trkpt lat="42.87471" lon="-0.19443">
        <ele>2439.4</ele>
        <time>2026-07-15T10:05:58Z</time>
      </trkpt>
      <trkpt lat="42.87471" lon="-0.19443">
        <ele>2439.4</ele>
        <time>2026-07-15T10:05:59Z</time>
      </trkpt>
      <trkpt lat="42.87471" lon="-0.19443">
        <ele>2439.4</ele>
        <time>2026-07-15T10:06:00Z</time>
      </trkpt>
      <trkpt lat="42.87471" lon="-0.19443">
        <ele>2439.4</ele>
        <time>2026-07-15T10:06:01Z</time>
      </trkpt>
      <trkpt lat="42.87471" lon="-0.19443">
        <ele>2439.4</ele>
        <time>2026-07-15T10:06:02Z</time>
      </trkpt>
      <trkpt lat="42.87471" lon="-0.19443">
        <ele>2439.4</ele>
        <time>2026-07-15T10:06:03Z</time>
      </trkpt>
      <trkpt lat="42.87471" lon="-0.19443">
        <ele>2439.4</ele>
        <time>2026-07-15T10:06:04Z</time>
      </trkpt>
      <trkpt lat="42.87471" lon="-0.19443">
        <ele>2439.4</ele>
        <time>2026-07-15T10:06:05Z</time>
      </trkpt>
      <trkpt lat="42.87471" lon="-0.19443">
        <ele>2439.4</ele>
        <time>2026-07-15T10:06:06Z</time>
      </trkpt>
      <trkpt lat="42.87471" lon="-0.19443">
        <ele>2439.4</ele>
        <time>2026-07-15T10:06:07Z</time>
      </trkpt>
      <trkpt lat="42.87471" lon="-0.19443">
        <ele>2439.4</ele>
        <time>2026-07-15T10:06:08Z</time>
      </trkpt>
      <trkpt lat="42.87471" lon="-0.19443">
        <ele>2439.4</ele>
        <time>2026-07-15T10:06:09Z</time>
      </trkpt>
      <trkpt lat="42.87471" lon="-0.19443">
        <ele>2439.4</ele>
        <time>2026-07-15T10:06:10Z</time>
      </trkpt>
      <trkpt lat="42.87471" lon="-0.19443">
        <ele>2439.4</ele>
        <time>2026-07-15T10:06:11Z</time>
      </trkpt>
      <trkpt lat="42.87471" lon="-0.19443">
        <ele>2439.4</ele>
        <time>2026-07-15T10:06:12Z</time>
      </trkpt>
      <trkpt lat="42.87471" lon="-0.19443">
        <ele>2439.4</ele>
        <time>2026-07-15T10:06:13Z</time>
      </trkpt>
      <trkpt lat="42.87471" lon="-0.19443">
        <ele>2439.4</ele>
        <time>2026-07-15T10:06:14Z</time>
      </trkpt>
      <trkpt lat="42.87471" lon="-0.19443">
        <ele>2438.4</ele>
        <time>2026-07-15T10:06:15Z</time>
      </trkpt>
      <trkpt lat="42.87471" lon="-0.19444">
        <ele>2438.4</ele>
        <time>2026-07-15T10:06:16Z</time>
      </trkpt>
      <trkpt lat="42.8747" lon="-0.19445">
        <ele>2438.4</ele>
        <time>2026-07-15T10:06:17Z</time>
      </trkpt>
      <trkpt lat="42.87471" lon="-0.19443">
        <ele>2437.4</ele>
        <time>2026-07-15T10:06:18Z</time>
      </trkpt>
      <trkpt lat="42.87471" lon="-0.19442">
        <ele>2437.4</ele>
        <time>2026-07-15T10:06:19Z</time>
      </trkpt>
      <trkpt lat="42.87471" lon="-0.19442">
        <ele>2437.4</ele>
        <time>2026-07-15T10:06:20Z</time>
      </trkpt>
      <trkpt lat="42.87471" lon="-0.19441">
        <ele>2438.4</ele>
        <time>2026-07-15T10:06:21Z</time>
      </trkpt>
      <trkpt lat="42.87471" lon="-0.19441">
        <ele>2438.4</ele>
        <time>2026-07-15T10:06:22Z</time>
      </trkpt>
      <trkpt lat="42.87471" lon="-0.19442">
        <ele>2437.4</ele>
        <time>2026-07-15T10:06:23Z</time>
      </trkpt>
      <trkpt lat="42.87471" lon="-0.19442">
        <ele>2437.4</ele>
        <time>2026-07-15T10:06:24Z</time>
      </trkpt>
      <trkpt lat="42.87471" lon="-0.19442">
        <ele>2436.4</ele>
        <time>2026-07-15T10:06:25Z</time>
      </trkpt>
      <trkpt lat="42.87471" lon="-0.19442">
        <ele>2436.4</ele>
        <time>2026-07-15T10:06:25Z</time>
      </trkpt>
      <trkpt lat="42.87471" lon="-0.19442">
        <ele>2436.4</ele>
        <time>2026-07-15T10:06:26Z</time>
      </trkpt>
      <trkpt lat="42.87471" lon="-0.19442">
        <ele>2436.4</ele>
        <time>2026-07-15T10:06:26Z</time>
      </trkpt>
      <trkpt lat="42.87471" lon="-0.19442">
        <ele>2436.4</ele>
        <time>2026-07-15T10:06:27Z</time>
      </trkpt>
      <trkpt lat="42.87471" lon="-0.19443">
        <ele>2436.4</ele>
        <time>2026-07-15T10:06:28Z</time>
      </trkpt>
      <trkpt lat="42.87471" lon="-0.19443">
        <ele>2437.4</ele>
        <time>2026-07-15T10:06:29Z</time>
      </trkpt>
      <trkpt lat="42.87471" lon="-0.19443">
        <ele>2436.4</ele>
        <time>2026-07-15T10:06:30Z</time>
      </trkpt>
      <trkpt lat="42.87471" lon="-0.19443">
        <ele>2436.4</ele>
        <time>2026-07-15T10:06:31Z</time>
      </trkpt>
      <trkpt lat="42.8747" lon="-0.19444">
        <ele>2436.4</ele>
        <time>2026-07-15T10:06:32Z</time>
      </trkpt>
      <trkpt lat="42.8747" lon="-0.19444">
        <ele>2436.4</ele>
        <time>2026-07-15T10:06:33Z</time>
      </trkpt>
      <trkpt lat="42.8747" lon="-0.19445">
        <ele>2436.4</ele>
        <time>2026-07-15T10:06:34Z</time>
      </trkpt>
      <trkpt lat="42.8747" lon="-0.19445">
        <ele>2436.4</ele>
        <time>2026-07-15T10:06:34Z</time>
      </trkpt>
      <trkpt lat="42.8747" lon="-0.19445">
        <ele>2436.4</ele>
        <time>2026-07-15T10:06:35Z</time>
      </trkpt>
      <trkpt lat="42.8747" lon="-0.19445">
        <ele>2436.4</ele>
        <time>2026-07-15T10:06:36Z</time>
      </trkpt>
      <trkpt lat="42.8747" lon="-0.19446">
        <ele>2437.4</ele>
        <time>2026-07-15T10:06:36Z</time>
      </trkpt>
      <trkpt lat="42.8747" lon="-0.19446">
        <ele>2437.4</ele>
        <time>2026-07-15T10:06:37Z</time>
      </trkpt>
      <trkpt lat="42.8747" lon="-0.19446">
        <ele>2437.4</ele>
        <time>2026-07-15T10:06:38Z</time>
      </trkpt>
      <trkpt lat="42.8747" lon="-0.19447">
        <ele>2437.4</ele>
        <time>2026-07-15T10:06:39Z</time>
      </trkpt>
      <trkpt lat="42.87469" lon="-0.19447">
        <ele>2438.4</ele>
        <time>2026-07-15T10:06:40Z</time>
      </trkpt>
      <trkpt lat="42.87469" lon="-0.19448">
        <ele>2438.4</ele>
        <time>2026-07-15T10:06:41Z</time>
      </trkpt>
      <trkpt lat="42.87469" lon="-0.19448">
        <ele>2438.4</ele>
        <time>2026-07-15T10:06:42Z</time>
      </trkpt>
      <trkpt lat="42.87469" lon="-0.19448">
        <ele>2438.4</ele>
        <time>2026-07-15T10:06:43Z</time>
      </trkpt>
      <trkpt lat="42.87469" lon="-0.19449">
        <ele>2437.4</ele>
        <time>2026-07-15T10:06:44Z</time>
      </trkpt>
      <trkpt lat="42.87469" lon="-0.19449">
        <ele>2437.4</ele>
        <time>2026-07-15T10:06:45Z</time>
      </trkpt>
      <trkpt lat="42.87469" lon="-0.19449">
        <ele>2438.4</ele>
        <time>2026-07-15T10:06:46Z</time>
      </trkpt>
      <trkpt lat="42.87468" lon="-0.19449">
        <ele>2438.4</ele>
        <time>2026-07-15T10:06:47Z</time>
      </trkpt>
      <trkpt lat="42.87468" lon="-0.19449">
        <ele>2438.4</ele>
        <time>2026-07-15T10:06:48Z</time>
      </trkpt>
      <trkpt lat="42.87468" lon="-0.19449">
        <ele>2438.4</ele>
        <time>2026-07-15T10:06:48Z</time>
      </trkpt>
      <trkpt lat="42.87468" lon="-0.1945">
        <ele>2438.4</ele>
        <time>2026-07-15T10:06:49Z</time>
      </trkpt>
      <trkpt lat="42.87468" lon="-0.1945">
        <ele>2439.4</ele>
        <time>2026-07-15T10:06:50Z</time>
      </trkpt>
      <trkpt lat="42.87468" lon="-0.1945">
        <ele>2439.4</ele>
        <time>2026-07-15T10:06:51Z</time>
      </trkpt>
      <trkpt lat="42.87468" lon="-0.19451">
        <ele>2439.4</ele>
        <time>2026-07-15T10:06:52Z</time>
      </trkpt>
      <trkpt lat="42.87468" lon="-0.19451">
        <ele>2439.4</ele>
        <time>2026-07-15T10:06:53Z</time>
      </trkpt>
      <trkpt lat="42.87468" lon="-0.19451">
        <ele>2439.4</ele>
        <time>2026-07-15T10:06:54Z</time>
      </trkpt>
      <trkpt lat="42.87468" lon="-0.19451">
        <ele>2439.4</ele>
        <time>2026-07-15T10:06:55Z</time>
      </trkpt>
      <trkpt lat="42.87468" lon="-0.19451">
        <ele>2439.4</ele>
        <time>2026-07-15T10:06:56Z</time>
      </trkpt>
      <trkpt lat="42.87468" lon="-0.19451">
        <ele>2439.4</ele>
        <time>2026-07-15T10:06:57Z</time>
      </trkpt>
      <trkpt lat="42.87468" lon="-0.19451">
        <ele>2439.4</ele>
        <time>2026-07-15T10:06:58Z</time>
      </trkpt>
      <trkpt lat="42.87468" lon="-0.19452">
        <ele>2439.4</ele>
        <time>2026-07-15T10:06:59Z</time>
      </trkpt>
      <trkpt lat="42.87468" lon="-0.19452">
        <ele>2439.4</ele>
        <time>2026-07-15T10:07:00Z</time>
      </trkpt>
      <trkpt lat="42.87468" lon="-0.19452">
        <ele>2439.4</ele>
        <time>2026-07-15T10:07:01Z</time>
      </trkpt>
      <trkpt lat="42.87468" lon="-0.19452">
        <ele>2439.4</ele>
        <time>2026-07-15T10:07:02Z</time>
      </trkpt>
      <trkpt lat="42.87468" lon="-0.19452">
        <ele>2439.4</ele>
        <time>2026-07-15T10:07:03Z</time>
      </trkpt>
      <trkpt lat="42.87468" lon="-0.19452">
        <ele>2439.4</ele>
        <time>2026-07-15T10:07:04Z</time>
      </trkpt>
      <trkpt lat="42.87468" lon="-0.19452">
        <ele>2439.4</ele>
        <time>2026-07-15T10:07:05Z</time>
      </trkpt>
      <trkpt lat="42.87468" lon="-0.19452">
        <ele>2439.4</ele>
        <time>2026-07-15T10:07:06Z</time>
      </trkpt>
      <trkpt lat="42.87468" lon="-0.19452">
        <ele>2439.4</ele>
        <time>2026-07-15T10:07:07Z</time>
      </trkpt>
      <trkpt lat="42.87468" lon="-0.19452">
        <ele>2439.4</ele>
        <time>2026-07-15T10:07:08Z</time>
      </trkpt>
      <trkpt lat="42.87468" lon="-0.19452">
        <ele>2439.4</ele>
        <time>2026-07-15T10:07:09Z</time>
      </trkpt>
      <trkpt lat="42.87468" lon="-0.19452">
        <ele>2437.4</ele>
        <time>2026-07-15T10:07:10Z</time>
      </trkpt>
      <trkpt lat="42.87468" lon="-0.19452">
        <ele>2437.4</ele>
        <time>2026-07-15T10:07:11Z</time>
      </trkpt>
      <trkpt lat="42.87467" lon="-0.19452">
        <ele>2437.4</ele>
        <time>2026-07-15T10:07:12Z</time>
      </trkpt>
      <trkpt lat="42.87467" lon="-0.19452">
        <ele>2437.4</ele>
        <time>2026-07-15T10:07:12Z</time>
      </trkpt>
      <trkpt lat="42.87467" lon="-0.19452">
        <ele>2438.4</ele>
        <time>2026-07-15T10:07:13Z</time>
      </trkpt>
      <trkpt lat="42.87467" lon="-0.19452">
        <ele>2439.4</ele>
        <time>2026-07-15T10:07:14Z</time>
      </trkpt>
      <trkpt lat="42.87467" lon="-0.19452">
        <ele>2439.4</ele>
        <time>2026-07-15T10:07:15Z</time>
      </trkpt>
      <trkpt lat="42.87467" lon="-0.19452">
        <ele>2439.4</ele>
        <time>2026-07-15T10:07:16Z</time>
      </trkpt>
      <trkpt lat="42.87467" lon="-0.19452">
        <ele>2439.4</ele>
        <time>2026-07-15T10:07:17Z</time>
      </trkpt>
      <trkpt lat="42.87467" lon="-0.19452">
        <ele>2439.4</ele>
        <time>2026-07-15T10:07:18Z</time>
      </trkpt>
      <trkpt lat="42.87467" lon="-0.19452">
        <ele>2439.4</ele>
        <time>2026-07-15T10:07:19Z</time>
      </trkpt>
      <trkpt lat="42.87467" lon="-0.19452">
        <ele>2439.4</ele>
        <time>2026-07-15T10:07:20Z</time>
      </trkpt>
      <trkpt lat="42.87467" lon="-0.19452">
        <ele>2439.4</ele>
        <time>2026-07-15T10:07:21Z</time>
      </trkpt>
      <trkpt lat="42.87467" lon="-0.19452">
        <ele>2439.4</ele>
        <time>2026-07-15T10:07:22Z</time>
      </trkpt>
      <trkpt lat="42.87467" lon="-0.19452">
        <ele>2439.4</ele>
        <time>2026-07-15T10:07:23Z</time>
      </trkpt>
      <trkpt lat="42.87467" lon="-0.19452">
        <ele>2439.4</ele>
        <time>2026-07-15T10:07:24Z</time>
      </trkpt>
      <trkpt lat="42.87467" lon="-0.19453">
        <ele>2439.4</ele>
        <time>2026-07-15T10:07:25Z</time>
      </trkpt>
      <trkpt lat="42.87467" lon="-0.19453">
        <ele>2439.4</ele>
        <time>2026-07-15T10:07:26Z</time>
      </trkpt>
      <trkpt lat="42.87467" lon="-0.19453">
        <ele>2439.4</ele>
        <time>2026-07-15T10:07:27Z</time>
      </trkpt>
      <trkpt lat="42.87467" lon="-0.19453">
        <ele>2439.4</ele>
        <time>2026-07-15T10:07:28Z</time>
      </trkpt>
      <trkpt lat="42.87467" lon="-0.19453">
        <ele>2439.4</ele>
        <time>2026-07-15T10:07:29Z</time>
      </trkpt>
      <trkpt lat="42.87467" lon="-0.19453">
        <ele>2439.4</ele>
        <time>2026-07-15T10:07:30Z</time>
      </trkpt>
      <trkpt lat="42.87467" lon="-0.19453">
        <ele>2439.4</ele>
        <time>2026-07-15T10:07:31Z</time>
      </trkpt>
      <trkpt lat="42.87467" lon="-0.19453">
        <ele>2439.4</ele>
        <time>2026-07-15T10:07:32Z</time>
      </trkpt>
      <trkpt lat="42.87467" lon="-0.19453">
        <ele>2439.4</ele>
        <time>2026-07-15T10:07:33Z</time>
      </trkpt>
      <trkpt lat="42.87467" lon="-0.19453">
        <ele>2440.4</ele>
        <time>2026-07-15T10:07:34Z</time>
      </trkpt>
      <trkpt lat="42.87467" lon="-0.19453">
        <ele>2440.4</ele>
        <time>2026-07-15T10:07:35Z</time>
      </trkpt>
      <trkpt lat="42.87467" lon="-0.19453">
        <ele>2440.4</ele>
        <time>2026-07-15T10:07:36Z</time>
      </trkpt>
      <trkpt lat="42.87466" lon="-0.19452">
        <ele>2440.4</ele>
        <time>2026-07-15T10:07:37Z</time>
      </trkpt>
      <trkpt lat="42.87467" lon="-0.19452">
        <ele>2440.4</ele>
        <time>2026-07-15T10:07:38Z</time>
      </trkpt>
      <trkpt lat="42.87467" lon="-0.19453">
        <ele>2440.4</ele>
        <time>2026-07-15T10:07:39Z</time>
      </trkpt>
      <trkpt lat="42.87467" lon="-0.19453">
        <ele>2440.4</ele>
        <time>2026-07-15T10:07:40Z</time>
      </trkpt>
      <trkpt lat="42.87467" lon="-0.19452">
        <ele>2440.4</ele>
        <time>2026-07-15T10:07:41Z</time>
      </trkpt>
      <trkpt lat="42.87467" lon="-0.19452">
        <ele>2440.4</ele>
        <time>2026-07-15T10:07:42Z</time>
      </trkpt>
      <trkpt lat="42.87467" lon="-0.19452">
        <ele>2440.4</ele>
        <time>2026-07-15T10:07:43Z</time>
      </trkpt>
      <trkpt lat="42.87467" lon="-0.19452">
        <ele>2440.4</ele>
        <time>2026-07-15T10:07:44Z</time>
      </trkpt>
      <trkpt lat="42.87467" lon="-0.19452">
        <ele>2440.4</ele>
        <time>2026-07-15T10:07:45Z</time>
      </trkpt>
      <trkpt lat="42.87467" lon="-0.19452">
        <ele>2439.4</ele>
        <time>2026-07-15T10:07:46Z</time>
      </trkpt>
      <trkpt lat="42.87468" lon="-0.19452">
        <ele>2438.4</ele>
        <time>2026-07-15T10:07:46Z</time>
      </trkpt>
      <trkpt lat="42.87468" lon="-0.19451">
        <ele>2438.4</ele>
        <time>2026-07-15T10:07:47Z</time>
      </trkpt>
      <trkpt lat="42.87468" lon="-0.19451">
        <ele>2438.4</ele>
        <time>2026-07-15T10:07:48Z</time>
      </trkpt>
      <trkpt lat="42.87469" lon="-0.1945">
        <ele>2438.4</ele>
        <time>2026-07-15T10:07:49Z</time>
      </trkpt>
      <trkpt lat="42.87469" lon="-0.1945">
        <ele>2438.4</ele>
        <time>2026-07-15T10:07:49Z</time>
      </trkpt>
      <trkpt lat="42.8747" lon="-0.19448">
        <ele>2438.4</ele>
        <time>2026-07-15T10:07:50Z</time>
      </trkpt>
      <trkpt lat="42.87471" lon="-0.19447">
        <ele>2438.4</ele>
        <time>2026-07-15T10:07:51Z</time>
      </trkpt>
      <trkpt lat="42.87471" lon="-0.19446">
        <ele>2438.4</ele>
        <time>2026-07-15T10:07:52Z</time>
      </trkpt>
      <trkpt lat="42.87471" lon="-0.19445">
        <ele>2438.4</ele>
        <time>2026-07-15T10:07:52Z</time>
      </trkpt>
      <trkpt lat="42.87472" lon="-0.19445">
        <ele>2438.4</ele>
        <time>2026-07-15T10:07:53Z</time>
      </trkpt>
      <trkpt lat="42.87472" lon="-0.19444">
        <ele>2438.4</ele>
        <time>2026-07-15T10:07:54Z</time>
      </trkpt>
      <trkpt lat="42.87473" lon="-0.19442">
        <ele>2438.4</ele>
        <time>2026-07-15T10:07:55Z</time>
      </trkpt>
      <trkpt lat="42.87473" lon="-0.19441">
        <ele>2438.4</ele>
        <time>2026-07-15T10:07:55Z</time>
      </trkpt>
      <trkpt lat="42.87474" lon="-0.19441">
        <ele>2438.4</ele>
        <time>2026-07-15T10:07:56Z</time>
      </trkpt>
      <trkpt lat="42.87474" lon="-0.1944">
        <ele>2438.4</ele>
        <time>2026-07-15T10:07:57Z</time>
      </trkpt>
      <trkpt lat="42.87475" lon="-0.1944">
        <ele>2438.4</ele>
        <time>2026-07-15T10:07:57Z</time>
      </trkpt>
      <trkpt lat="42.87475" lon="-0.19439">
        <ele>2438.4</ele>
        <time>2026-07-15T10:07:58Z</time>
      </trkpt>
      <trkpt lat="42.87476" lon="-0.19439">
        <ele>2438.4</ele>
        <time>2026-07-15T10:07:59Z</time>
      </trkpt>
      <trkpt lat="42.87476" lon="-0.19438">
        <ele>2438.4</ele>
        <time>2026-07-15T10:07:59Z</time>
      </trkpt>
      <trkpt lat="42.87477" lon="-0.19438">
        <ele>2438.4</ele>
        <time>2026-07-15T10:08:00Z</time>
      </trkpt>
      <trkpt lat="42.87477" lon="-0.19437">
        <ele>2439.4</ele>
        <time>2026-07-15T10:08:00Z</time>
      </trkpt>
      <trkpt lat="42.87478" lon="-0.19437">
        <ele>2439.4</ele>
        <time>2026-07-15T10:08:01Z</time>
      </trkpt>
      <trkpt lat="42.87479" lon="-0.19436">
        <ele>2439.4</ele>
        <time>2026-07-15T10:08:02Z</time>
      </trkpt>
      <trkpt lat="42.87479" lon="-0.19436">
        <ele>2440.4</ele>
        <time>2026-07-15T10:08:02Z</time>
      </trkpt>
      <trkpt lat="42.8748" lon="-0.19436">
        <ele>2440.4</ele>
        <time>2026-07-15T10:08:03Z</time>
      </trkpt>
      <trkpt lat="42.87481" lon="-0.19435">
        <ele>2439.4</ele>
        <time>2026-07-15T10:08:04Z</time>
      </trkpt>
      <trkpt lat="42.87481" lon="-0.19435">
        <ele>2439.4</ele>
        <time>2026-07-15T10:08:04Z</time>
      </trkpt>
      <trkpt lat="42.87482" lon="-0.19434">
        <ele>2439.4</ele>
        <time>2026-07-15T10:08:05Z</time>
      </trkpt>
      <trkpt lat="42.87482" lon="-0.19434">
        <ele>2439.4</ele>
        <time>2026-07-15T10:08:06Z</time>
      </trkpt>
      <trkpt lat="42.87483" lon="-0.19433">
        <ele>2440.4</ele>
        <time>2026-07-15T10:08:06Z</time>
      </trkpt>
      <trkpt lat="42.87483" lon="-0.19433">
        <ele>2440.4</ele>
        <time>2026-07-15T10:08:07Z</time>
      </trkpt>
      <trkpt lat="42.87484" lon="-0.19432">
        <ele>2440.4</ele>
        <time>2026-07-15T10:08:08Z</time>
      </trkpt>
      <trkpt lat="42.87485" lon="-0.19432">
        <ele>2440.4</ele>
        <time>2026-07-15T10:08:08Z</time>
      </trkpt>
      <trkpt lat="42.87485" lon="-0.19431">
        <ele>2440.4</ele>
        <time>2026-07-15T10:08:09Z</time>
      </trkpt>
      <trkpt lat="42.87486" lon="-0.19431">
        <ele>2440.4</ele>
        <time>2026-07-15T10:08:09Z</time>
      </trkpt>
      <trkpt lat="42.87486" lon="-0.19431">
        <ele>2439.4</ele>
        <time>2026-07-15T10:08:10Z</time>
      </trkpt>
      <trkpt lat="42.87487" lon="-0.1943">
        <ele>2439.4</ele>
        <time>2026-07-15T10:08:11Z</time>
      </trkpt>
      <trkpt lat="42.87487" lon="-0.19429">
        <ele>2440.4</ele>
        <time>2026-07-15T10:08:12Z</time>
      </trkpt>
      <trkpt lat="42.87488" lon="-0.19429">
        <ele>2440.4</ele>
        <time>2026-07-15T10:08:12Z</time>
      </trkpt>
      <trkpt lat="42.87488" lon="-0.19428">
        <ele>2440.4</ele>
        <time>2026-07-15T10:08:13Z</time>
      </trkpt>
      <trkpt lat="42.87489" lon="-0.19428">
        <ele>2441.4</ele>
        <time>2026-07-15T10:08:13Z</time>
      </trkpt>
      <trkpt lat="42.87489" lon="-0.19427">
        <ele>2440.4</ele>
        <time>2026-07-15T10:08:14Z</time>
      </trkpt>
      <trkpt lat="42.8749" lon="-0.19426">
        <ele>2440.4</ele>
        <time>2026-07-15T10:08:15Z</time>
      </trkpt>
      <trkpt lat="42.8749" lon="-0.19426">
        <ele>2440.4</ele>
        <time>2026-07-15T10:08:15Z</time>
      </trkpt>
      <trkpt lat="42.87491" lon="-0.19426">
        <ele>2440.4</ele>
        <time>2026-07-15T10:08:16Z</time>
      </trkpt>
      <trkpt lat="42.87492" lon="-0.19425">
        <ele>2440.4</ele>
        <time>2026-07-15T10:08:17Z</time>
      </trkpt>
      <trkpt lat="42.87492" lon="-0.19425">
        <ele>2440.4</ele>
        <time>2026-07-15T10:08:17Z</time>
      </trkpt>
      <trkpt lat="42.87493" lon="-0.19425">
        <ele>2440.4</ele>
        <time>2026-07-15T10:08:18Z</time>
      </trkpt>
      <trkpt lat="42.87493" lon="-0.19424">
        <ele>2440.4</ele>
        <time>2026-07-15T10:08:18Z</time>
      </trkpt>
      <trkpt lat="42.87494" lon="-0.19424">
        <ele>2440.4</ele>
        <time>2026-07-15T10:08:19Z</time>
      </trkpt>
      <trkpt lat="42.87495" lon="-0.19424">
        <ele>2440.4</ele>
        <time>2026-07-15T10:08:20Z</time>
      </trkpt>
      <trkpt lat="42.87495" lon="-0.19423">
        <ele>2440.4</ele>
        <time>2026-07-15T10:08:21Z</time>
      </trkpt>
      <trkpt lat="42.87496" lon="-0.19423">
        <ele>2439.4</ele>
        <time>2026-07-15T10:08:22Z</time>
      </trkpt>
      <trkpt lat="42.87496" lon="-0.19423">
        <ele>2439.4</ele>
        <time>2026-07-15T10:08:22Z</time>
      </trkpt>
      <trkpt lat="42.87497" lon="-0.19423">
        <ele>2439.4</ele>
        <time>2026-07-15T10:08:23Z</time>
      </trkpt>
      <trkpt lat="42.87498" lon="-0.19423">
        <ele>2439.4</ele>
        <time>2026-07-15T10:08:24Z</time>
      </trkpt>
      <trkpt lat="42.87499" lon="-0.19423">
        <ele>2439.4</ele>
        <time>2026-07-15T10:08:25Z</time>
      </trkpt>
      <trkpt lat="42.875" lon="-0.19423">
        <ele>2439.4</ele>
        <time>2026-07-15T10:08:26Z</time>
      </trkpt>
      <trkpt lat="42.87501" lon="-0.19423">
        <ele>2439.4</ele>
        <time>2026-07-15T10:08:27Z</time>
      </trkpt>
      <trkpt lat="42.87501" lon="-0.19423">
        <ele>2439.4</ele>
        <time>2026-07-15T10:08:28Z</time>
      </trkpt>
      <trkpt lat="42.87502" lon="-0.19423">
        <ele>2440.4</ele>
        <time>2026-07-15T10:08:28Z</time>
      </trkpt>
      <trkpt lat="42.87503" lon="-0.19423">
        <ele>2440.4</ele>
        <time>2026-07-15T10:08:29Z</time>
      </trkpt>
      <trkpt lat="42.87503" lon="-0.19423">
        <ele>2439.4</ele>
        <time>2026-07-15T10:08:29Z</time>
      </trkpt>
      <trkpt lat="42.87503" lon="-0.19423">
        <ele>2439.4</ele>
        <time>2026-07-15T10:08:30Z</time>
      </trkpt>
      <trkpt lat="42.87504" lon="-0.19423">
        <ele>2439.4</ele>
        <time>2026-07-15T10:08:31Z</time>
      </trkpt>
      <trkpt lat="42.87504" lon="-0.19423">
        <ele>2439.4</ele>
        <time>2026-07-15T10:08:32Z</time>
      </trkpt>
      <trkpt lat="42.87505" lon="-0.19423">
        <ele>2439.4</ele>
        <time>2026-07-15T10:08:33Z</time>
      </trkpt>
      <trkpt lat="42.87505" lon="-0.19423">
        <ele>2439.4</ele>
        <time>2026-07-15T10:08:34Z</time>
      </trkpt>
      <trkpt lat="42.87505" lon="-0.19423">
        <ele>2439.4</ele>
        <time>2026-07-15T10:08:34Z</time>
      </trkpt>
      <trkpt lat="42.87505" lon="-0.19424">
        <ele>2439.4</ele>
        <time>2026-07-15T10:08:35Z</time>
      </trkpt>
      <trkpt lat="42.87506" lon="-0.19424">
        <ele>2439.4</ele>
        <time>2026-07-15T10:08:36Z</time>
      </trkpt>
      <trkpt lat="42.87506" lon="-0.19424">
        <ele>2439.4</ele>
        <time>2026-07-15T10:08:37Z</time>
      </trkpt>
      <trkpt lat="42.87506" lon="-0.19424">
        <ele>2438.4</ele>
        <time>2026-07-15T10:08:38Z</time>
      </trkpt>
      <trkpt lat="42.87506" lon="-0.19424">
        <ele>2438.4</ele>
        <time>2026-07-15T10:08:39Z</time>
      </trkpt>
      <trkpt lat="42.87506" lon="-0.19424">
        <ele>2438.4</ele>
        <time>2026-07-15T10:08:39Z</time>
      </trkpt>
      <trkpt lat="42.87506" lon="-0.19424">
        <ele>2438.4</ele>
        <time>2026-07-15T10:08:40Z</time>
      </trkpt>
      <trkpt lat="42.87507" lon="-0.19424">
        <ele>2438.4</ele>
        <time>2026-07-15T10:08:41Z</time>
      </trkpt>
      <trkpt lat="42.87507" lon="-0.19424">
        <ele>2438.4</ele>
        <time>2026-07-15T10:08:42Z</time>
      </trkpt>
      <trkpt lat="42.87507" lon="-0.19423">
        <ele>2438.4</ele>
        <time>2026-07-15T10:08:43Z</time>
      </trkpt>
      <trkpt lat="42.87507" lon="-0.19423">
        <ele>2437.4</ele>
        <time>2026-07-15T10:08:44Z</time>
      </trkpt>
      <trkpt lat="42.87507" lon="-0.19423">
        <ele>2437.4</ele>
        <time>2026-07-15T10:08:45Z</time>
      </trkpt>
      <trkpt lat="42.87507" lon="-0.19423">
        <ele>2437.4</ele>
        <time>2026-07-15T10:08:46Z</time>
      </trkpt>
      <trkpt lat="42.87507" lon="-0.19423">
        <ele>2438.4</ele>
        <time>2026-07-15T10:08:47Z</time>
      </trkpt>
      <trkpt lat="42.87507" lon="-0.19423">
        <ele>2438.4</ele>
        <time>2026-07-15T10:08:48Z</time>
      </trkpt>
      <trkpt lat="42.87507" lon="-0.19423">
        <ele>2438.4</ele>
        <time>2026-07-15T10:08:49Z</time>
      </trkpt>
      <trkpt lat="42.87507" lon="-0.19423">
        <ele>2437.4</ele>
        <time>2026-07-15T10:08:49Z</time>
      </trkpt>
      <trkpt lat="42.87507" lon="-0.19422">
        <ele>2437.4</ele>
        <time>2026-07-15T10:08:50Z</time>
      </trkpt>
      <trkpt lat="42.87508" lon="-0.19423">
        <ele>2437.4</ele>
        <time>2026-07-15T10:08:51Z</time>
      </trkpt>
      <trkpt lat="42.87508" lon="-0.19423">
        <ele>2438.4</ele>
        <time>2026-07-15T10:08:51Z</time>
      </trkpt>
      <trkpt lat="42.87508" lon="-0.19424">
        <ele>2438.4</ele>
        <time>2026-07-15T10:08:52Z</time>
      </trkpt>
      <trkpt lat="42.87508" lon="-0.19424">
        <ele>2438.4</ele>
        <time>2026-07-15T10:08:53Z</time>
      </trkpt>
      <trkpt lat="42.87508" lon="-0.19424">
        <ele>2438.4</ele>
        <time>2026-07-15T10:08:54Z</time>
      </trkpt>
      <trkpt lat="42.87508" lon="-0.19423">
        <ele>2437.4</ele>
        <time>2026-07-15T10:08:55Z</time>
      </trkpt>
      <trkpt lat="42.87508" lon="-0.19423">
        <ele>2437.4</ele>
        <time>2026-07-15T10:08:56Z</time>
      </trkpt>
      <trkpt lat="42.87508" lon="-0.19423">
        <ele>2437.4</ele>
        <time>2026-07-15T10:08:57Z</time>
      </trkpt>
      <trkpt lat="42.87508" lon="-0.19423">
        <ele>2437.4</ele>
        <time>2026-07-15T10:08:58Z</time>
      </trkpt>
      <trkpt lat="42.87508" lon="-0.19423">
        <ele>2437.4</ele>
        <time>2026-07-15T10:08:59Z</time>
      </trkpt>
      <trkpt lat="42.87508" lon="-0.19423">
        <ele>2437.4</ele>
        <time>2026-07-15T10:09:00Z</time>
      </trkpt>
      <trkpt lat="42.87507" lon="-0.19423">
        <ele>2437.4</ele>
        <time>2026-07-15T10:09:01Z</time>
      </trkpt>
      <trkpt lat="42.87507" lon="-0.19423">
        <ele>2437.4</ele>
        <time>2026-07-15T10:09:02Z</time>
      </trkpt>
      <trkpt lat="42.87507" lon="-0.19423">
        <ele>2437.4</ele>
        <time>2026-07-15T10:09:03Z</time>
      </trkpt>
      <trkpt lat="42.87507" lon="-0.19423">
        <ele>2437.4</ele>
        <time>2026-07-15T10:09:04Z</time>
      </trkpt>
      <trkpt lat="42.87507" lon="-0.19423">
        <ele>2437.4</ele>
        <time>2026-07-15T10:09:05Z</time>
      </trkpt>
      <trkpt lat="42.87507" lon="-0.19423">
        <ele>2437.4</ele>
        <time>2026-07-15T10:09:06Z</time>
      </trkpt>
      <trkpt lat="42.87507" lon="-0.19423">
        <ele>2437.4</ele>
        <time>2026-07-15T10:09:07Z</time>
      </trkpt>
      <trkpt lat="42.87507" lon="-0.19423">
        <ele>2437.4</ele>
        <time>2026-07-15T10:09:08Z</time>
      </trkpt>
      <trkpt lat="42.87507" lon="-0.19423">
        <ele>2437.4</ele>
        <time>2026-07-15T10:09:09Z</time>
      </trkpt>
      <trkpt lat="42.87507" lon="-0.19423">
        <ele>2437.4</ele>
        <time>2026-07-15T10:09:10Z</time>
      </trkpt>
      <trkpt lat="42.87507" lon="-0.19422">
        <ele>2436.4</ele>
        <time>2026-07-15T10:09:10Z</time>
      </trkpt>
      <trkpt lat="42.87507" lon="-0.19422">
        <ele>2436.4</ele>
        <time>2026-07-15T10:09:11Z</time>
      </trkpt>
      <trkpt lat="42.87508" lon="-0.19422">
        <ele>2436.4</ele>
        <time>2026-07-15T10:09:12Z</time>
      </trkpt>
      <trkpt lat="42.87508" lon="-0.19421">
        <ele>2436.4</ele>
        <time>2026-07-15T10:09:13Z</time>
      </trkpt>
      <trkpt lat="42.87508" lon="-0.19421">
        <ele>2437.4</ele>
        <time>2026-07-15T10:09:13Z</time>
      </trkpt>
      <trkpt lat="42.87508" lon="-0.19421">
        <ele>2437.4</ele>
        <time>2026-07-15T10:09:14Z</time>
      </trkpt>
      <trkpt lat="42.87508" lon="-0.19419">
        <ele>2437.4</ele>
        <time>2026-07-15T10:09:15Z</time>
      </trkpt>
      <trkpt lat="42.87508" lon="-0.19419">
        <ele>2437.4</ele>
        <time>2026-07-15T10:09:16Z</time>
      </trkpt>
      <trkpt lat="42.87508" lon="-0.19419">
        <ele>2437.4</ele>
        <time>2026-07-15T10:09:17Z</time>
      </trkpt>
      <trkpt lat="42.87508" lon="-0.19419">
        <ele>2437.4</ele>
        <time>2026-07-15T10:09:18Z</time>
      </trkpt>
      <trkpt lat="42.87508" lon="-0.19419">
        <ele>2437.4</ele>
        <time>2026-07-15T10:09:19Z</time>
      </trkpt>
      <trkpt lat="42.87508" lon="-0.19419">
        <ele>2437.4</ele>
        <time>2026-07-15T10:09:20Z</time>
      </trkpt>
      <trkpt lat="42.87508" lon="-0.19418">
        <ele>2436.4</ele>
        <time>2026-07-15T10:09:21Z</time>
      </trkpt>
      <trkpt lat="42.87509" lon="-0.19417">
        <ele>2436.4</ele>
        <time>2026-07-15T10:09:22Z</time>
      </trkpt>
      <trkpt lat="42.87509" lon="-0.19416">
        <ele>2436.4</ele>
        <time>2026-07-15T10:09:23Z</time>
      </trkpt>
      <trkpt lat="42.87509" lon="-0.19415">
        <ele>2435.4</ele>
        <time>2026-07-15T10:09:24Z</time>
      </trkpt>
      <trkpt lat="42.8751" lon="-0.19414">
        <ele>2435.4</ele>
        <time>2026-07-15T10:09:25Z</time>
      </trkpt>
      <trkpt lat="42.8751" lon="-0.19413">
        <ele>2435.4</ele>
        <time>2026-07-15T10:09:26Z</time>
      </trkpt>
      <trkpt lat="42.87511" lon="-0.19413">
        <ele>2435.4</ele>
        <time>2026-07-15T10:09:27Z</time>
      </trkpt>
      <trkpt lat="42.87511" lon="-0.19413">
        <ele>2435.4</ele>
        <time>2026-07-15T10:09:28Z</time>
      </trkpt>
      <trkpt lat="42.87511" lon="-0.19412">
        <ele>2435.4</ele>
        <time>2026-07-15T10:09:29Z</time>
      </trkpt>
      <trkpt lat="42.87511" lon="-0.19412">
        <ele>2435.4</ele>
        <time>2026-07-15T10:09:30Z</time>
      </trkpt>
      <trkpt lat="42.87511" lon="-0.19412">
        <ele>2435.4</ele>
        <time>2026-07-15T10:09:31Z</time>
      </trkpt>
      <trkpt lat="42.87511" lon="-0.19412">
        <ele>2435.4</ele>
        <time>2026-07-15T10:09:32Z</time>
      </trkpt>
      <trkpt lat="42.87511" lon="-0.19411">
        <ele>2435.4</ele>
        <time>2026-07-15T10:09:33Z</time>
      </trkpt>
      <trkpt lat="42.87511" lon="-0.19411">
        <ele>2435.4</ele>
        <time>2026-07-15T10:09:34Z</time>
      </trkpt>
      <trkpt lat="42.87511" lon="-0.19411">
        <ele>2435.4</ele>
        <time>2026-07-15T10:09:35Z</time>
      </trkpt>
      <trkpt lat="42.87511" lon="-0.19411">
        <ele>2435.4</ele>
        <time>2026-07-15T10:09:36Z</time>
      </trkpt>
      <trkpt lat="42.87511" lon="-0.19411">
        <ele>2435.4</ele>
        <time>2026-07-15T10:09:37Z</time>
      </trkpt>
      <trkpt lat="42.87511" lon="-0.19411">
        <ele>2435.4</ele>
        <time>2026-07-15T10:09:38Z</time>
      </trkpt>
      <trkpt lat="42.87511" lon="-0.19411">
        <ele>2435.4</ele>
        <time>2026-07-15T10:09:39Z</time>
      </trkpt>
      <trkpt lat="42.87511" lon="-0.1941">
        <ele>2435.4</ele>
        <time>2026-07-15T10:09:40Z</time>
      </trkpt>
      <trkpt lat="42.87511" lon="-0.1941">
        <ele>2435.4</ele>
        <time>2026-07-15T10:09:41Z</time>
      </trkpt>
      <trkpt lat="42.87511" lon="-0.1941">
        <ele>2436.4</ele>
        <time>2026-07-15T10:09:42Z</time>
      </trkpt>
      <trkpt lat="42.87511" lon="-0.1941">
        <ele>2436.4</ele>
        <time>2026-07-15T10:09:43Z</time>
      </trkpt>
      <trkpt lat="42.87511" lon="-0.1941">
        <ele>2436.4</ele>
        <time>2026-07-15T10:09:44Z</time>
      </trkpt>
      <trkpt lat="42.87511" lon="-0.1941">
        <ele>2436.4</ele>
        <time>2026-07-15T10:09:45Z</time>
      </trkpt>
      <trkpt lat="42.87511" lon="-0.1941">
        <ele>2436.4</ele>
        <time>2026-07-15T10:09:46Z</time>
      </trkpt>
      <trkpt lat="42.87511" lon="-0.1941">
        <ele>2436.4</ele>
        <time>2026-07-15T10:09:47Z</time>
      </trkpt>
      <trkpt lat="42.87511" lon="-0.1941">
        <ele>2436.4</ele>
        <time>2026-07-15T10:09:48Z</time>
      </trkpt>
      <trkpt lat="42.87511" lon="-0.1941">
        <ele>2436.4</ele>
        <time>2026-07-15T10:09:49Z</time>
      </trkpt>
      <trkpt lat="42.87511" lon="-0.1941">
        <ele>2436.4</ele>
        <time>2026-07-15T10:09:50Z</time>
      </trkpt>
      <trkpt lat="42.87511" lon="-0.1941">
        <ele>2436.4</ele>
        <time>2026-07-15T10:09:51Z</time>
      </trkpt>
      <trkpt lat="42.87511" lon="-0.1941">
        <ele>2436.4</ele>
        <time>2026-07-15T10:09:52Z</time>
      </trkpt>
      <trkpt lat="42.87511" lon="-0.1941">
        <ele>2436.4</ele>
        <time>2026-07-15T10:09:53Z</time>
      </trkpt>
      <trkpt lat="42.87511" lon="-0.1941">
        <ele>2436.4</ele>
        <time>2026-07-15T10:09:54Z</time>
      </trkpt>
      <trkpt lat="42.8751" lon="-0.19408">
        <ele>2436.4</ele>
        <time>2026-07-15T10:09:55Z</time>
      </trkpt>
      <trkpt lat="42.8751" lon="-0.19408">
        <ele>2436.4</ele>
        <time>2026-07-15T10:09:56Z</time>
      </trkpt>
      <trkpt lat="42.8751" lon="-0.19408">
        <ele>2436.4</ele>
        <time>2026-07-15T10:09:57Z</time>
      </trkpt>
      <trkpt lat="42.8751" lon="-0.19408">
        <ele>2436.4</ele>
        <time>2026-07-15T10:09:58Z</time>
      </trkpt>
      <trkpt lat="42.8751" lon="-0.19408">
        <ele>2436.4</ele>
        <time>2026-07-15T10:09:59Z</time>
      </trkpt>
      <trkpt lat="42.8751" lon="-0.19408">
        <ele>2436.4</ele>
        <time>2026-07-15T10:10:00Z</time>
      </trkpt>
      <trkpt lat="42.8751" lon="-0.19408">
        <ele>2436.4</ele>
        <time>2026-07-15T10:10:01Z</time>
      </trkpt>
      <trkpt lat="42.8751" lon="-0.19408">
        <ele>2436.4</ele>
        <time>2026-07-15T10:10:02Z</time>
      </trkpt>
      <trkpt lat="42.8751" lon="-0.19408">
        <ele>2436.4</ele>
        <time>2026-07-15T10:10:03Z</time>
      </trkpt>
      <trkpt lat="42.8751" lon="-0.19408">
        <ele>2436.4</ele>
        <time>2026-07-15T10:10:04Z</time>
      </trkpt>
      <trkpt lat="42.8751" lon="-0.19408">
        <ele>2436.4</ele>
        <time>2026-07-15T10:10:05Z</time>
      </trkpt>
      <trkpt lat="42.8751" lon="-0.19408">
        <ele>2436.4</ele>
        <time>2026-07-15T10:10:06Z</time>
      </trkpt>
      <trkpt lat="42.87509" lon="-0.19407">
        <ele>2435.4</ele>
        <time>2026-07-15T10:10:07Z</time>
      </trkpt>
      <trkpt lat="42.8751" lon="-0.19408">
        <ele>2436.4</ele>
        <time>2026-07-15T10:10:08Z</time>
      </trkpt>
      <trkpt lat="42.8751" lon="-0.19408">
        <ele>2436.4</ele>
        <time>2026-07-15T10:10:09Z</time>
      </trkpt>
      <trkpt lat="42.8751" lon="-0.19408">
        <ele>2437.4</ele>
        <time>2026-07-15T10:10:10Z</time>
      </trkpt>
      <trkpt lat="42.87511" lon="-0.19408">
        <ele>2437.4</ele>
        <time>2026-07-15T10:10:11Z</time>
      </trkpt>
      <trkpt lat="42.87511" lon="-0.19407">
        <ele>2436.4</ele>
        <time>2026-07-15T10:10:12Z</time>
      </trkpt>
      <trkpt lat="42.87511" lon="-0.19408">
        <ele>2437.4</ele>
        <time>2026-07-15T10:10:13Z</time>
      </trkpt>
      <trkpt lat="42.8751" lon="-0.19408">
        <ele>2438.4</ele>
        <time>2026-07-15T10:10:14Z</time>
      </trkpt>
      <trkpt lat="42.87509" lon="-0.19408">
        <ele>2437.4</ele>
        <time>2026-07-15T10:10:15Z</time>
      </trkpt>
      <trkpt lat="42.87508" lon="-0.19409">
        <ele>2437.4</ele>
        <time>2026-07-15T10:10:16Z</time>
      </trkpt>
      <trkpt lat="42.87507" lon="-0.19409">
        <ele>2438.4</ele>
        <time>2026-07-15T10:10:17Z</time>
      </trkpt>
      <trkpt lat="42.87507" lon="-0.19409">
        <ele>2438.4</ele>
        <time>2026-07-15T10:10:18Z</time>
      </trkpt>
      <trkpt lat="42.87507" lon="-0.19409">
        <ele>2438.4</ele>
        <time>2026-07-15T10:10:19Z</time>
      </trkpt>
      <trkpt lat="42.87506" lon="-0.19409">
        <ele>2438.4</ele>
        <time>2026-07-15T10:10:20Z</time>
      </trkpt>
      <trkpt lat="42.87505" lon="-0.19409">
        <ele>2437.4</ele>
        <time>2026-07-15T10:10:21Z</time>
      </trkpt>
      <trkpt lat="42.87504" lon="-0.19409">
        <ele>2437.4</ele>
        <time>2026-07-15T10:10:22Z</time>
      </trkpt>
      <trkpt lat="42.87503" lon="-0.1941">
        <ele>2437.4</ele>
        <time>2026-07-15T10:10:23Z</time>
      </trkpt>
      <trkpt lat="42.87503" lon="-0.1941">
        <ele>2437.4</ele>
        <time>2026-07-15T10:10:24Z</time>
      </trkpt>
      <trkpt lat="42.87502" lon="-0.19409">
        <ele>2436.4</ele>
        <time>2026-07-15T10:10:25Z</time>
      </trkpt>
      <trkpt lat="42.87501" lon="-0.19409">
        <ele>2436.4</ele>
        <time>2026-07-15T10:10:26Z</time>
      </trkpt>
      <trkpt lat="42.875" lon="-0.19409">
        <ele>2436.4</ele>
        <time>2026-07-15T10:10:27Z</time>
      </trkpt>
      <trkpt lat="42.87499" lon="-0.19409">
        <ele>2437.4</ele>
        <time>2026-07-15T10:10:28Z</time>
      </trkpt>
      <trkpt lat="42.87498" lon="-0.19408">
        <ele>2437.4</ele>
        <time>2026-07-15T10:10:29Z</time>
      </trkpt>
      <trkpt lat="42.87499" lon="-0.19408">
        <ele>2437.4</ele>
        <time>2026-07-15T10:10:30Z</time>
      </trkpt>
      <trkpt lat="42.87498" lon="-0.19408">
        <ele>2437.4</ele>
        <time>2026-07-15T10:10:31Z</time>
      </trkpt>
      <trkpt lat="42.87498" lon="-0.19408">
        <ele>2437.4</ele>
        <time>2026-07-15T10:10:32Z</time>
      </trkpt>
      <trkpt lat="42.87497" lon="-0.19407">
        <ele>2437.4</ele>
        <time>2026-07-15T10:10:33Z</time>
      </trkpt>
      <trkpt lat="42.87497" lon="-0.19407">
        <ele>2436.4</ele>
        <time>2026-07-15T10:10:34Z</time>
      </trkpt>
      <trkpt lat="42.87496" lon="-0.19407">
        <ele>2436.4</ele>
        <time>2026-07-15T10:10:34Z</time>
      </trkpt>
      <trkpt lat="42.87496" lon="-0.19406">
        <ele>2436.4</ele>
        <time>2026-07-15T10:10:35Z</time>
      </trkpt>
      <trkpt lat="42.87496" lon="-0.19406">
        <ele>2436.4</ele>
        <time>2026-07-15T10:10:36Z</time>
      </trkpt>
      <trkpt lat="42.87495" lon="-0.19406">
        <ele>2435.4</ele>
        <time>2026-07-15T10:10:36Z</time>
      </trkpt>
      <trkpt lat="42.87494" lon="-0.19407">
        <ele>2435.4</ele>
        <time>2026-07-15T10:10:37Z</time>
      </trkpt>
      <trkpt lat="42.87493" lon="-0.19407">
        <ele>2436.4</ele>
        <time>2026-07-15T10:10:38Z</time>
      </trkpt>
      <trkpt lat="42.87492" lon="-0.19408">
        <ele>2436.4</ele>
        <time>2026-07-15T10:10:39Z</time>
      </trkpt>
      <trkpt lat="42.87491" lon="-0.19408">
        <ele>2436.4</ele>
        <time>2026-07-15T10:10:39Z</time>
      </trkpt>
      <trkpt lat="42.8749" lon="-0.19408">
        <ele>2436.4</ele>
        <time>2026-07-15T10:10:40Z</time>
      </trkpt>
      <trkpt lat="42.87489" lon="-0.19409">
        <ele>2436.4</ele>
        <time>2026-07-15T10:10:41Z</time>
      </trkpt>
      <trkpt lat="42.87488" lon="-0.19409">
        <ele>2436.4</ele>
        <time>2026-07-15T10:10:42Z</time>
      </trkpt>
      <trkpt lat="42.87488" lon="-0.19409">
        <ele>2437.4</ele>
        <time>2026-07-15T10:10:42Z</time>
      </trkpt>
      <trkpt lat="42.87487" lon="-0.1941">
        <ele>2437.4</ele>
        <time>2026-07-15T10:10:43Z</time>
      </trkpt>
      <trkpt lat="42.87487" lon="-0.1941">
        <ele>2437.4</ele>
        <time>2026-07-15T10:10:43Z</time>
      </trkpt>
      <trkpt lat="42.87486" lon="-0.1941">
        <ele>2436.4</ele>
        <time>2026-07-15T10:10:44Z</time>
      </trkpt>
      <trkpt lat="42.87485" lon="-0.19411">
        <ele>2436.4</ele>
        <time>2026-07-15T10:10:45Z</time>
      </trkpt>
      <trkpt lat="42.87484" lon="-0.19411">
        <ele>2437.4</ele>
        <time>2026-07-15T10:10:46Z</time>
      </trkpt>
      <trkpt lat="42.87484" lon="-0.19411">
        <ele>2437.4</ele>
        <time>2026-07-15T10:10:46Z</time>
      </trkpt>
      <trkpt lat="42.87483" lon="-0.19412">
        <ele>2437.4</ele>
        <time>2026-07-15T10:10:47Z</time>
      </trkpt>
      <trkpt lat="42.87482" lon="-0.19412">
        <ele>2437.4</ele>
        <time>2026-07-15T10:10:48Z</time>
      </trkpt>
      <trkpt lat="42.87481" lon="-0.19413">
        <ele>2436.4</ele>
        <time>2026-07-15T10:10:49Z</time>
      </trkpt>
      <trkpt lat="42.8748" lon="-0.19413">
        <ele>2437.4</ele>
        <time>2026-07-15T10:10:50Z</time>
      </trkpt>
      <trkpt lat="42.87479" lon="-0.19413">
        <ele>2437.4</ele>
        <time>2026-07-15T10:10:51Z</time>
      </trkpt>
      <trkpt lat="42.87479" lon="-0.19414">
        <ele>2437.4</ele>
        <time>2026-07-15T10:10:51Z</time>
      </trkpt>
      <trkpt lat="42.87478" lon="-0.19414">
        <ele>2437.4</ele>
        <time>2026-07-15T10:10:52Z</time>
      </trkpt>
      <trkpt lat="42.87477" lon="-0.19414">
        <ele>2437.4</ele>
        <time>2026-07-15T10:10:53Z</time>
      </trkpt>
      <trkpt lat="42.87477" lon="-0.19414">
        <ele>2437.4</ele>
        <time>2026-07-15T10:10:53Z</time>
      </trkpt>
      <trkpt lat="42.87476" lon="-0.19414">
        <ele>2437.4</ele>
        <time>2026-07-15T10:10:54Z</time>
      </trkpt>
      <trkpt lat="42.87476" lon="-0.19414">
        <ele>2437.4</ele>
        <time>2026-07-15T10:10:55Z</time>
      </trkpt>
      <trkpt lat="42.87476" lon="-0.19414">
        <ele>2437.4</ele>
        <time>2026-07-15T10:10:56Z</time>
      </trkpt>
      <trkpt lat="42.87476" lon="-0.19414">
        <ele>2437.4</ele>
        <time>2026-07-15T10:10:57Z</time>
      </trkpt>
      <trkpt lat="42.87477" lon="-0.19414">
        <ele>2437.4</ele>
        <time>2026-07-15T10:10:58Z</time>
      </trkpt>
      <trkpt lat="42.87477" lon="-0.19415">
        <ele>2437.4</ele>
        <time>2026-07-15T10:10:59Z</time>
      </trkpt>
      <trkpt lat="42.87477" lon="-0.19415">
        <ele>2437.4</ele>
        <time>2026-07-15T10:11:00Z</time>
      </trkpt>
      <trkpt lat="42.87477" lon="-0.19415">
        <ele>2437.4</ele>
        <time>2026-07-15T10:11:01Z</time>
      </trkpt>
      <trkpt lat="42.87477" lon="-0.19415">
        <ele>2437.4</ele>
        <time>2026-07-15T10:11:02Z</time>
      </trkpt>
      <trkpt lat="42.87477" lon="-0.19415">
        <ele>2437.4</ele>
        <time>2026-07-15T10:11:03Z</time>
      </trkpt>
      <trkpt lat="42.87477" lon="-0.19415">
        <ele>2437.4</ele>
        <time>2026-07-15T10:11:03Z</time>
      </trkpt>
      <trkpt lat="42.87477" lon="-0.19415">
        <ele>2437.4</ele>
        <time>2026-07-15T10:11:04Z</time>
      </trkpt>
      <trkpt lat="42.87477" lon="-0.19415">
        <ele>2437.4</ele>
        <time>2026-07-15T10:11:05Z</time>
      </trkpt>
      <trkpt lat="42.87477" lon="-0.19415">
        <ele>2437.4</ele>
        <time>2026-07-15T10:11:05Z</time>
      </trkpt>
      <trkpt lat="42.87477" lon="-0.19415">
        <ele>2437.4</ele>
        <time>2026-07-15T10:11:06Z</time>
      </trkpt>
      <trkpt lat="42.87476" lon="-0.19415">
        <ele>2437.4</ele>
        <time>2026-07-15T10:11:06Z</time>
      </trkpt>
      <trkpt lat="42.87476" lon="-0.19415">
        <ele>2437.4</ele>
        <time>2026-07-15T10:11:07Z</time>
      </trkpt>
      <trkpt lat="42.87475" lon="-0.19416">
        <ele>2437.4</ele>
        <time>2026-07-15T10:11:08Z</time>
      </trkpt>
      <trkpt lat="42.87474" lon="-0.19416">
        <ele>2438.4</ele>
        <time>2026-07-15T10:11:09Z</time>
      </trkpt>
      <trkpt lat="42.87474" lon="-0.19416">
        <ele>2438.4</ele>
        <time>2026-07-15T10:11:10Z</time>
      </trkpt>
      <trkpt lat="42.87474" lon="-0.19416">
        <ele>2438.4</ele>
        <time>2026-07-15T10:11:11Z</time>
      </trkpt>
      <trkpt lat="42.87473" lon="-0.19417">
        <ele>2438.4</ele>
        <time>2026-07-15T10:11:11Z</time>
      </trkpt>
      <trkpt lat="42.87473" lon="-0.19417">
        <ele>2438.4</ele>
        <time>2026-07-15T10:11:12Z</time>
      </trkpt>
      <trkpt lat="42.87472" lon="-0.19417">
        <ele>2438.4</ele>
        <time>2026-07-15T10:11:13Z</time>
      </trkpt>
      <trkpt lat="42.87471" lon="-0.19417">
        <ele>2438.4</ele>
        <time>2026-07-15T10:11:14Z</time>
      </trkpt>
      <trkpt lat="42.87471" lon="-0.19418">
        <ele>2438.4</ele>
        <time>2026-07-15T10:11:14Z</time>
      </trkpt>
      <trkpt lat="42.87469" lon="-0.19418">
        <ele>2438.4</ele>
        <time>2026-07-15T10:11:15Z</time>
      </trkpt>
      <trkpt lat="42.87469" lon="-0.19419">
        <ele>2438.4</ele>
        <time>2026-07-15T10:11:16Z</time>
      </trkpt>
      <trkpt lat="42.87468" lon="-0.19419">
        <ele>2438.4</ele>
        <time>2026-07-15T10:11:17Z</time>
      </trkpt>
      <trkpt lat="42.87467" lon="-0.1942">
        <ele>2438.4</ele>
        <time>2026-07-15T10:11:17Z</time>
      </trkpt>
      <trkpt lat="42.87466" lon="-0.1942">
        <ele>2438.4</ele>
        <time>2026-07-15T10:11:18Z</time>
      </trkpt>
      <trkpt lat="42.87466" lon="-0.1942">
        <ele>2438.4</ele>
        <time>2026-07-15T10:11:19Z</time>
      </trkpt>
      <trkpt lat="42.87465" lon="-0.1942">
        <ele>2439.4</ele>
        <time>2026-07-15T10:11:20Z</time>
      </trkpt>
      <trkpt lat="42.87464" lon="-0.1942">
        <ele>2438.4</ele>
        <time>2026-07-15T10:11:20Z</time>
      </trkpt>
      <trkpt lat="42.87464" lon="-0.19421">
        <ele>2438.4</ele>
        <time>2026-07-15T10:11:21Z</time>
      </trkpt>
      <trkpt lat="42.87463" lon="-0.19421">
        <ele>2438.4</ele>
        <time>2026-07-15T10:11:22Z</time>
      </trkpt>
      <trkpt lat="42.87463" lon="-0.19421">
        <ele>2438.4</ele>
        <time>2026-07-15T10:11:23Z</time>
      </trkpt>
      <trkpt lat="42.87463" lon="-0.19421">
        <ele>2438.4</ele>
        <time>2026-07-15T10:11:24Z</time>
      </trkpt>
      <trkpt lat="42.87463" lon="-0.19421">
        <ele>2438.4</ele>
        <time>2026-07-15T10:11:25Z</time>
      </trkpt>
      <trkpt lat="42.87462" lon="-0.19422">
        <ele>2439.4</ele>
        <time>2026-07-15T10:11:25Z</time>
      </trkpt>
      <trkpt lat="42.87462" lon="-0.19422">
        <ele>2438.4</ele>
        <time>2026-07-15T10:11:26Z</time>
      </trkpt>
      <trkpt lat="42.87462" lon="-0.19422">
        <ele>2438.4</ele>
        <time>2026-07-15T10:11:27Z</time>
      </trkpt>
      <trkpt lat="42.87461" lon="-0.19423">
        <ele>2438.4</ele>
        <time>2026-07-15T10:11:27Z</time>
      </trkpt>
      <trkpt lat="42.87461" lon="-0.19423">
        <ele>2438.4</ele>
        <time>2026-07-15T10:11:28Z</time>
      </trkpt>
      <trkpt lat="42.8746" lon="-0.19423">
        <ele>2437.4</ele>
        <time>2026-07-15T10:11:29Z</time>
      </trkpt>
      <trkpt lat="42.8746" lon="-0.19423">
        <ele>2437.4</ele>
        <time>2026-07-15T10:11:30Z</time>
      </trkpt>
      <trkpt lat="42.87459" lon="-0.19424">
        <ele>2437.4</ele>
        <time>2026-07-15T10:11:30Z</time>
      </trkpt>
      <trkpt lat="42.87458" lon="-0.19424">
        <ele>2437.4</ele>
        <time>2026-07-15T10:11:31Z</time>
      </trkpt>
      <trkpt lat="42.87458" lon="-0.19424">
        <ele>2437.4</ele>
        <time>2026-07-15T10:11:32Z</time>
      </trkpt>
      <trkpt lat="42.87457" lon="-0.19424">
        <ele>2437.4</ele>
        <time>2026-07-15T10:11:33Z</time>
      </trkpt>
      <trkpt lat="42.87456" lon="-0.19424">
        <ele>2438.4</ele>
        <time>2026-07-15T10:11:33Z</time>
      </trkpt>
      <trkpt lat="42.87456" lon="-0.19424">
        <ele>2438.4</ele>
        <time>2026-07-15T10:11:34Z</time>
      </trkpt>
      <trkpt lat="42.87455" lon="-0.19425">
        <ele>2437.4</ele>
        <time>2026-07-15T10:11:35Z</time>
      </trkpt>
      <trkpt lat="42.87454" lon="-0.19425">
        <ele>2438.4</ele>
        <time>2026-07-15T10:11:35Z</time>
      </trkpt>
      <trkpt lat="42.87454" lon="-0.19425">
        <ele>2437.4</ele>
        <time>2026-07-15T10:11:36Z</time>
      </trkpt>
      <trkpt lat="42.87453" lon="-0.19425">
        <ele>2437.4</ele>
        <time>2026-07-15T10:11:37Z</time>
      </trkpt>
      <trkpt lat="42.87453" lon="-0.19425">
        <ele>2437.4</ele>
        <time>2026-07-15T10:11:38Z</time>
      </trkpt>
      <trkpt lat="42.87452" lon="-0.19425">
        <ele>2436.4</ele>
        <time>2026-07-15T10:11:38Z</time>
      </trkpt>
      <trkpt lat="42.87452" lon="-0.19425">
        <ele>2436.4</ele>
        <time>2026-07-15T10:11:39Z</time>
      </trkpt>
      <trkpt lat="42.87451" lon="-0.19425">
        <ele>2437.4</ele>
        <time>2026-07-15T10:11:40Z</time>
      </trkpt>
      <trkpt lat="42.8745" lon="-0.19426">
        <ele>2436.4</ele>
        <time>2026-07-15T10:11:41Z</time>
      </trkpt>
      <trkpt lat="42.8745" lon="-0.19426">
        <ele>2436.4</ele>
        <time>2026-07-15T10:11:41Z</time>
      </trkpt>
      <trkpt lat="42.87449" lon="-0.19426">
        <ele>2436.4</ele>
        <time>2026-07-15T10:11:42Z</time>
      </trkpt>
      <trkpt lat="42.87449" lon="-0.19426">
        <ele>2437.4</ele>
        <time>2026-07-15T10:11:43Z</time>
      </trkpt>
      <trkpt lat="42.87448" lon="-0.19426">
        <ele>2437.4</ele>
        <time>2026-07-15T10:11:44Z</time>
      </trkpt>
      <trkpt lat="42.87448" lon="-0.19425">
        <ele>2437.4</ele>
        <time>2026-07-15T10:11:45Z</time>
      </trkpt>
      <trkpt lat="42.87448" lon="-0.19425">
        <ele>2437.4</ele>
        <time>2026-07-15T10:11:46Z</time>
      </trkpt>
      <trkpt lat="42.87448" lon="-0.19425">
        <ele>2437.4</ele>
        <time>2026-07-15T10:11:47Z</time>
      </trkpt>
      <trkpt lat="42.87448" lon="-0.19425">
        <ele>2437.4</ele>
        <time>2026-07-15T10:11:48Z</time>
      </trkpt>
      <trkpt lat="42.87448" lon="-0.19425">
        <ele>2437.4</ele>
        <time>2026-07-15T10:11:49Z</time>
      </trkpt>
      <trkpt lat="42.87448" lon="-0.19425">
        <ele>2437.4</ele>
        <time>2026-07-15T10:11:50Z</time>
      </trkpt>
      <trkpt lat="42.87448" lon="-0.19425">
        <ele>2437.4</ele>
        <time>2026-07-15T10:11:51Z</time>
      </trkpt>
      <trkpt lat="42.87448" lon="-0.19425">
        <ele>2437.4</ele>
        <time>2026-07-15T10:11:52Z</time>
      </trkpt>
      <trkpt lat="42.87448" lon="-0.19425">
        <ele>2437.4</ele>
        <time>2026-07-15T10:11:53Z</time>
      </trkpt>
      <trkpt lat="42.87448" lon="-0.19425">
        <ele>2437.4</ele>
        <time>2026-07-15T10:11:54Z</time>
      </trkpt>
      <trkpt lat="42.87448" lon="-0.19425">
        <ele>2437.4</ele>
        <time>2026-07-15T10:11:55Z</time>
      </trkpt>
      <trkpt lat="42.87448" lon="-0.19425">
        <ele>2437.4</ele>
        <time>2026-07-15T10:11:56Z</time>
      </trkpt>
      <trkpt lat="42.87448" lon="-0.19424">
        <ele>2437.4</ele>
        <time>2026-07-15T10:11:57Z</time>
      </trkpt>
      <trkpt lat="42.87448" lon="-0.19424">
        <ele>2437.4</ele>
        <time>2026-07-15T10:11:58Z</time>
      </trkpt>
      <trkpt lat="42.87448" lon="-0.19424">
        <ele>2437.4</ele>
        <time>2026-07-15T10:11:59Z</time>
      </trkpt>
      <trkpt lat="42.87448" lon="-0.19424">
        <ele>2437.4</ele>
        <time>2026-07-15T10:12:00Z</time>
      </trkpt>
      <trkpt lat="42.87448" lon="-0.19424">
        <ele>2437.4</ele>
        <time>2026-07-15T10:12:01Z</time>
      </trkpt>
      <trkpt lat="42.87448" lon="-0.19424">
        <ele>2437.4</ele>
        <time>2026-07-15T10:12:02Z</time>
      </trkpt>
      <trkpt lat="42.87448" lon="-0.19424">
        <ele>2437.4</ele>
        <time>2026-07-15T10:12:03Z</time>
      </trkpt>
      <trkpt lat="42.87448" lon="-0.19424">
        <ele>2437.4</ele>
        <time>2026-07-15T10:12:04Z</time>
      </trkpt>
      <trkpt lat="42.87448" lon="-0.19425">
        <ele>2436.4</ele>
        <time>2026-07-15T10:12:05Z</time>
      </trkpt>
      <trkpt lat="42.87448" lon="-0.19424">
        <ele>2436.4</ele>
        <time>2026-07-15T10:12:06Z</time>
      </trkpt>
      <trkpt lat="42.87448" lon="-0.19424">
        <ele>2434.4</ele>
        <time>2026-07-15T10:12:07Z</time>
      </trkpt>
      <trkpt lat="42.87448" lon="-0.19424">
        <ele>2435.4</ele>
        <time>2026-07-15T10:12:08Z</time>
      </trkpt>
      <trkpt lat="42.87448" lon="-0.19424">
        <ele>2435.4</ele>
        <time>2026-07-15T10:12:09Z</time>
      </trkpt>
      <trkpt lat="42.87448" lon="-0.19424">
        <ele>2435.4</ele>
        <time>2026-07-15T10:12:10Z</time>
      </trkpt>
      <trkpt lat="42.87448" lon="-0.19424">
        <ele>2435.4</ele>
        <time>2026-07-15T10:12:11Z</time>
      </trkpt>
      <trkpt lat="42.87448" lon="-0.19424">
        <ele>2435.4</ele>
        <time>2026-07-15T10:12:12Z</time>
      </trkpt>
      <trkpt lat="42.87448" lon="-0.19424">
        <ele>2435.4</ele>
        <time>2026-07-15T10:12:13Z</time>
      </trkpt>
      <trkpt lat="42.87448" lon="-0.19424">
        <ele>2435.4</ele>
        <time>2026-07-15T10:12:14Z</time>
      </trkpt>
      <trkpt lat="42.87448" lon="-0.19424">
        <ele>2435.4</ele>
        <time>2026-07-15T10:12:15Z</time>
      </trkpt>
      <trkpt lat="42.87448" lon="-0.19424">
        <ele>2435.4</ele>
        <time>2026-07-15T10:12:16Z</time>
      </trkpt>
      <trkpt lat="42.87448" lon="-0.19424">
        <ele>2435.4</ele>
        <time>2026-07-15T10:12:17Z</time>
      </trkpt>
      <trkpt lat="42.87448" lon="-0.19424">
        <ele>2434.4</ele>
        <time>2026-07-15T10:12:18Z</time>
      </trkpt>
      <trkpt lat="42.87448" lon="-0.19424">
        <ele>2433.4</ele>
        <time>2026-07-15T10:12:18Z</time>
      </trkpt>
      <trkpt lat="42.87447" lon="-0.19424">
        <ele>2433.4</ele>
        <time>2026-07-15T10:12:19Z</time>
      </trkpt>
      <trkpt lat="42.87447" lon="-0.19424">
        <ele>2433.4</ele>
        <time>2026-07-15T10:12:20Z</time>
      </trkpt>
      <trkpt lat="42.87447" lon="-0.19424">
        <ele>2433.4</ele>
        <time>2026-07-15T10:12:21Z</time>
      </trkpt>
      <trkpt lat="42.87447" lon="-0.19424">
        <ele>2433.4</ele>
        <time>2026-07-15T10:12:22Z</time>
      </trkpt>
      <trkpt lat="42.87447" lon="-0.19424">
        <ele>2434.4</ele>
        <time>2026-07-15T10:12:23Z</time>
      </trkpt>
      <trkpt lat="42.87446" lon="-0.19424">
        <ele>2433.4</ele>
        <time>2026-07-15T10:12:24Z</time>
      </trkpt>
      <trkpt lat="42.87446" lon="-0.19424">
        <ele>2433.4</ele>
        <time>2026-07-15T10:12:25Z</time>
      </trkpt>
      <trkpt lat="42.87446" lon="-0.19424">
        <ele>2434.4</ele>
        <time>2026-07-15T10:12:25Z</time>
      </trkpt>
      <trkpt lat="42.87446" lon="-0.19423">
        <ele>2434.4</ele>
        <time>2026-07-15T10:12:26Z</time>
      </trkpt>
      <trkpt lat="42.87445" lon="-0.19423">
        <ele>2433.4</ele>
        <time>2026-07-15T10:12:27Z</time>
      </trkpt>
      <trkpt lat="42.87445" lon="-0.19423">
        <ele>2434.4</ele>
        <time>2026-07-15T10:12:27Z</time>
      </trkpt>
      <trkpt lat="42.87445" lon="-0.19423">
        <ele>2434.4</ele>
        <time>2026-07-15T10:12:28Z</time>
      </trkpt>
      <trkpt lat="42.87444" lon="-0.19423">
        <ele>2433.4</ele>
        <time>2026-07-15T10:12:29Z</time>
      </trkpt>
      <trkpt lat="42.87444" lon="-0.19423">
        <ele>2433.4</ele>
        <time>2026-07-15T10:12:29Z</time>
      </trkpt>
      <trkpt lat="42.87444" lon="-0.19423">
        <ele>2433.4</ele>
        <time>2026-07-15T10:12:30Z</time>
      </trkpt>
      <trkpt lat="42.87444" lon="-0.19423">
        <ele>2433.4</ele>
        <time>2026-07-15T10:12:31Z</time>
      </trkpt>
      <trkpt lat="42.87443" lon="-0.19423">
        <ele>2432.4</ele>
        <time>2026-07-15T10:12:31Z</time>
      </trkpt>
      <trkpt lat="42.87443" lon="-0.19423">
        <ele>2433.4</ele>
        <time>2026-07-15T10:12:32Z</time>
      </trkpt>
      <trkpt lat="42.87443" lon="-0.19423">
        <ele>2433.4</ele>
        <time>2026-07-15T10:12:33Z</time>
      </trkpt>
      <trkpt lat="42.87442" lon="-0.19423">
        <ele>2432.4</ele>
        <time>2026-07-15T10:12:34Z</time>
      </trkpt>
      <trkpt lat="42.87442" lon="-0.19422">
        <ele>2432.4</ele>
        <time>2026-07-15T10:12:35Z</time>
      </trkpt>
      <trkpt lat="42.87441" lon="-0.19422">
        <ele>2432.4</ele>
        <time>2026-07-15T10:12:36Z</time>
      </trkpt>
      <trkpt lat="42.87441" lon="-0.19422">
        <ele>2431.4</ele>
        <time>2026-07-15T10:12:37Z</time>
      </trkpt>
      <trkpt lat="42.8744" lon="-0.19422">
        <ele>2431.4</ele>
        <time>2026-07-15T10:12:37Z</time>
      </trkpt>
      <trkpt lat="42.8744" lon="-0.19422">
        <ele>2431.4</ele>
        <time>2026-07-15T10:12:38Z</time>
      </trkpt>
      <trkpt lat="42.8744" lon="-0.19421">
        <ele>2431.4</ele>
        <time>2026-07-15T10:12:39Z</time>
      </trkpt>
      <trkpt lat="42.87439" lon="-0.19421">
        <ele>2430.4</ele>
        <time>2026-07-15T10:12:40Z</time>
      </trkpt>
      <trkpt lat="42.87439" lon="-0.19421">
        <ele>2430.4</ele>
        <time>2026-07-15T10:12:41Z</time>
      </trkpt>
      <trkpt lat="42.87439" lon="-0.19421">
        <ele>2429.4</ele>
        <time>2026-07-15T10:12:42Z</time>
      </trkpt>
      <trkpt lat="42.87439" lon="-0.19421">
        <ele>2428.4</ele>
        <time>2026-07-15T10:12:43Z</time>
      </trkpt>
      <trkpt lat="42.87438" lon="-0.1942">
        <ele>2428.4</ele>
        <time>2026-07-15T10:12:44Z</time>
      </trkpt>
      <trkpt lat="42.87438" lon="-0.1942">
        <ele>2428.4</ele>
        <time>2026-07-15T10:12:45Z</time>
      </trkpt>
      <trkpt lat="42.87437" lon="-0.19419">
        <ele>2428.4</ele>
        <time>2026-07-15T10:12:45Z</time>
      </trkpt>
      <trkpt lat="42.87437" lon="-0.19419">
        <ele>2428.4</ele>
        <time>2026-07-15T10:12:46Z</time>
      </trkpt>
      <trkpt lat="42.87437" lon="-0.19418">
        <ele>2428.4</ele>
        <time>2026-07-15T10:12:47Z</time>
      </trkpt>
      <trkpt lat="42.87436" lon="-0.19417">
        <ele>2428.4</ele>
        <time>2026-07-15T10:12:47Z</time>
      </trkpt>
      <trkpt lat="42.87436" lon="-0.19417">
        <ele>2429.4</ele>
        <time>2026-07-15T10:12:48Z</time>
      </trkpt>
      <trkpt lat="42.87436" lon="-0.19417">
        <ele>2429.4</ele>
        <time>2026-07-15T10:12:49Z</time>
      </trkpt>
      <trkpt lat="42.87436" lon="-0.19416">
        <ele>2429.4</ele>
        <time>2026-07-15T10:12:50Z</time>
      </trkpt>
      <trkpt lat="42.87436" lon="-0.19416">
        <ele>2428.4</ele>
        <time>2026-07-15T10:12:50Z</time>
      </trkpt>
      <trkpt lat="42.87435" lon="-0.19416">
        <ele>2428.4</ele>
        <time>2026-07-15T10:12:51Z</time>
      </trkpt>
      <trkpt lat="42.87435" lon="-0.19416">
        <ele>2428.4</ele>
        <time>2026-07-15T10:12:52Z</time>
      </trkpt>
      <trkpt lat="42.87435" lon="-0.19416">
        <ele>2427.4</ele>
        <time>2026-07-15T10:12:52Z</time>
      </trkpt>
      <trkpt lat="42.87435" lon="-0.19415">
        <ele>2427.4</ele>
        <time>2026-07-15T10:12:53Z</time>
      </trkpt>
      <trkpt lat="42.87435" lon="-0.19415">
        <ele>2427.4</ele>
        <time>2026-07-15T10:12:54Z</time>
      </trkpt>
      <trkpt lat="42.87434" lon="-0.19414">
        <ele>2427.4</ele>
        <time>2026-07-15T10:12:55Z</time>
      </trkpt>
      <trkpt lat="42.87434" lon="-0.19413">
        <ele>2426.4</ele>
        <time>2026-07-15T10:12:55Z</time>
      </trkpt>
      <trkpt lat="42.87433" lon="-0.19412">
        <ele>2426.4</ele>
        <time>2026-07-15T10:12:56Z</time>
      </trkpt>
      <trkpt lat="42.87433" lon="-0.19411">
        <ele>2427.4</ele>
        <time>2026-07-15T10:12:57Z</time>
      </trkpt>
      <trkpt lat="42.87432" lon="-0.19411">
        <ele>2426.4</ele>
        <time>2026-07-15T10:12:57Z</time>
      </trkpt>
      <trkpt lat="42.87431" lon="-0.1941">
        <ele>2426.4</ele>
        <time>2026-07-15T10:12:58Z</time>
      </trkpt>
      <trkpt lat="42.8743" lon="-0.1941">
        <ele>2427.4</ele>
        <time>2026-07-15T10:12:59Z</time>
      </trkpt>
      <trkpt lat="42.87429" lon="-0.1941">
        <ele>2426.4</ele>
        <time>2026-07-15T10:13:00Z</time>
      </trkpt>
      <trkpt lat="42.87429" lon="-0.1941">
        <ele>2426.4</ele>
        <time>2026-07-15T10:13:00Z</time>
      </trkpt>
      <trkpt lat="42.87428" lon="-0.1941">
        <ele>2426.4</ele>
        <time>2026-07-15T10:13:01Z</time>
      </trkpt>
      <trkpt lat="42.87427" lon="-0.1941">
        <ele>2426.4</ele>
        <time>2026-07-15T10:13:02Z</time>
      </trkpt>
      <trkpt lat="42.87427" lon="-0.1941">
        <ele>2426.4</ele>
        <time>2026-07-15T10:13:02Z</time>
      </trkpt>
      <trkpt lat="42.87426" lon="-0.1941">
        <ele>2425.4</ele>
        <time>2026-07-15T10:13:03Z</time>
      </trkpt>
      <trkpt lat="42.87425" lon="-0.19409">
        <ele>2425.4</ele>
        <time>2026-07-15T10:13:03Z</time>
      </trkpt>
      <trkpt lat="42.87425" lon="-0.19409">
        <ele>2425.4</ele>
        <time>2026-07-15T10:13:04Z</time>
      </trkpt>
      <trkpt lat="42.87424" lon="-0.19409">
        <ele>2426.4</ele>
        <time>2026-07-15T10:13:05Z</time>
      </trkpt>
      <trkpt lat="42.87423" lon="-0.19409">
        <ele>2426.4</ele>
        <time>2026-07-15T10:13:05Z</time>
      </trkpt>
      <trkpt lat="42.87423" lon="-0.19409">
        <ele>2426.4</ele>
        <time>2026-07-15T10:13:06Z</time>
      </trkpt>
      <trkpt lat="42.87422" lon="-0.19409">
        <ele>2426.4</ele>
        <time>2026-07-15T10:13:06Z</time>
      </trkpt>
      <trkpt lat="42.87422" lon="-0.19409">
        <ele>2426.4</ele>
        <time>2026-07-15T10:13:07Z</time>
      </trkpt>
      <trkpt lat="42.87421" lon="-0.19409">
        <ele>2426.4</ele>
        <time>2026-07-15T10:13:08Z</time>
      </trkpt>
      <trkpt lat="42.87421" lon="-0.1941">
        <ele>2426.4</ele>
        <time>2026-07-15T10:13:08Z</time>
      </trkpt>
      <trkpt lat="42.8742" lon="-0.1941">
        <ele>2426.4</ele>
        <time>2026-07-15T10:13:09Z</time>
      </trkpt>
      <trkpt lat="42.8742" lon="-0.19411">
        <ele>2426.4</ele>
        <time>2026-07-15T10:13:09Z</time>
      </trkpt>
      <trkpt lat="42.8742" lon="-0.19411">
        <ele>2426.4</ele>
        <time>2026-07-15T10:13:10Z</time>
      </trkpt>
      <trkpt lat="42.87419" lon="-0.19411">
        <ele>2426.4</ele>
        <time>2026-07-15T10:13:11Z</time>
      </trkpt>
      <trkpt lat="42.87418" lon="-0.19411">
        <ele>2426.4</ele>
        <time>2026-07-15T10:13:12Z</time>
      </trkpt>
      <trkpt lat="42.87417" lon="-0.19411">
        <ele>2426.4</ele>
        <time>2026-07-15T10:13:12Z</time>
      </trkpt>
      <trkpt lat="42.87417" lon="-0.19411">
        <ele>2426.4</ele>
        <time>2026-07-15T10:13:13Z</time>
      </trkpt>
      <trkpt lat="42.87416" lon="-0.19411">
        <ele>2426.4</ele>
        <time>2026-07-15T10:13:14Z</time>
      </trkpt>
      <trkpt lat="42.87416" lon="-0.19412">
        <ele>2426.4</ele>
        <time>2026-07-15T10:13:15Z</time>
      </trkpt>
      <trkpt lat="42.87415" lon="-0.19412">
        <ele>2425.4</ele>
        <time>2026-07-15T10:13:15Z</time>
      </trkpt>
      <trkpt lat="42.87415" lon="-0.19412">
        <ele>2426.4</ele>
        <time>2026-07-15T10:13:16Z</time>
      </trkpt>
      <trkpt lat="42.87415" lon="-0.19412">
        <ele>2426.4</ele>
        <time>2026-07-15T10:13:17Z</time>
      </trkpt>
      <trkpt lat="42.87414" lon="-0.19413">
        <ele>2426.4</ele>
        <time>2026-07-15T10:13:17Z</time>
      </trkpt>
      <trkpt lat="42.87414" lon="-0.19413">
        <ele>2426.4</ele>
        <time>2026-07-15T10:13:18Z</time>
      </trkpt>
      <trkpt lat="42.87413" lon="-0.19413">
        <ele>2426.4</ele>
        <time>2026-07-15T10:13:19Z</time>
      </trkpt>
      <trkpt lat="42.87413" lon="-0.19414">
        <ele>2427.4</ele>
        <time>2026-07-15T10:13:19Z</time>
      </trkpt>
      <trkpt lat="42.87412" lon="-0.19414">
        <ele>2427.4</ele>
        <time>2026-07-15T10:13:20Z</time>
      </trkpt>
      <trkpt lat="42.87412" lon="-0.19415">
        <ele>2427.4</ele>
        <time>2026-07-15T10:13:21Z</time>
      </trkpt>
      <trkpt lat="42.87411" lon="-0.19415">
        <ele>2427.4</ele>
        <time>2026-07-15T10:13:21Z</time>
      </trkpt>
      <trkpt lat="42.8741" lon="-0.19416">
        <ele>2427.4</ele>
        <time>2026-07-15T10:13:22Z</time>
      </trkpt>
      <trkpt lat="42.8741" lon="-0.19416">
        <ele>2427.4</ele>
        <time>2026-07-15T10:13:23Z</time>
      </trkpt>
      <trkpt lat="42.87409" lon="-0.19416">
        <ele>2426.4</ele>
        <time>2026-07-15T10:13:23Z</time>
      </trkpt>
      <trkpt lat="42.87409" lon="-0.19416">
        <ele>2426.4</ele>
        <time>2026-07-15T10:13:24Z</time>
      </trkpt>
      <trkpt lat="42.87408" lon="-0.19416">
        <ele>2426.4</ele>
        <time>2026-07-15T10:13:25Z</time>
      </trkpt>
      <trkpt lat="42.87408" lon="-0.19416">
        <ele>2427.4</ele>
        <time>2026-07-15T10:13:26Z</time>
      </trkpt>
      <trkpt lat="42.87407" lon="-0.19416">
        <ele>2427.4</ele>
        <time>2026-07-15T10:13:27Z</time>
      </trkpt>
      <trkpt lat="42.87407" lon="-0.19416">
        <ele>2427.4</ele>
        <time>2026-07-15T10:13:28Z</time>
      </trkpt>
      <trkpt lat="42.87406" lon="-0.19416">
        <ele>2427.4</ele>
        <time>2026-07-15T10:13:28Z</time>
      </trkpt>
      <trkpt lat="42.87406" lon="-0.19417">
        <ele>2427.4</ele>
        <time>2026-07-15T10:13:29Z</time>
      </trkpt>
      <trkpt lat="42.87406" lon="-0.19417">
        <ele>2427.4</ele>
        <time>2026-07-15T10:13:30Z</time>
      </trkpt>
      <trkpt lat="42.87405" lon="-0.19418">
        <ele>2428.4</ele>
        <time>2026-07-15T10:13:31Z</time>
      </trkpt>
      <trkpt lat="42.87405" lon="-0.19418">
        <ele>2428.4</ele>
        <time>2026-07-15T10:13:31Z</time>
      </trkpt>
      <trkpt lat="42.87405" lon="-0.19419">
        <ele>2428.4</ele>
        <time>2026-07-15T10:13:32Z</time>
      </trkpt>
      <trkpt lat="42.87404" lon="-0.19419">
        <ele>2428.4</ele>
        <time>2026-07-15T10:13:33Z</time>
      </trkpt>
      <trkpt lat="42.87404" lon="-0.1942">
        <ele>2428.4</ele>
        <time>2026-07-15T10:13:33Z</time>
      </trkpt>
      <trkpt lat="42.87404" lon="-0.19421">
        <ele>2429.4</ele>
        <time>2026-07-15T10:13:34Z</time>
      </trkpt>
      <trkpt lat="42.87403" lon="-0.19421">
        <ele>2429.4</ele>
        <time>2026-07-15T10:13:35Z</time>
      </trkpt>
      <trkpt lat="42.87403" lon="-0.19422">
        <ele>2430.4</ele>
        <time>2026-07-15T10:13:35Z</time>
      </trkpt>
      <trkpt lat="42.87403" lon="-0.19423">
        <ele>2430.4</ele>
        <time>2026-07-15T10:13:36Z</time>
      </trkpt>
      <trkpt lat="42.87402" lon="-0.19424">
        <ele>2430.4</ele>
        <time>2026-07-15T10:13:37Z</time>
      </trkpt>
      <trkpt lat="42.87402" lon="-0.19424">
        <ele>2430.4</ele>
        <time>2026-07-15T10:13:38Z</time>
      </trkpt>
      <trkpt lat="42.87401" lon="-0.19424">
        <ele>2429.4</ele>
        <time>2026-07-15T10:13:39Z</time>
      </trkpt>
      <trkpt lat="42.87401" lon="-0.19425">
        <ele>2429.4</ele>
        <time>2026-07-15T10:13:39Z</time>
      </trkpt>
      <trkpt lat="42.874" lon="-0.19425">
        <ele>2429.4</ele>
        <time>2026-07-15T10:13:40Z</time>
      </trkpt>
      <trkpt lat="42.874" lon="-0.19425">
        <ele>2429.4</ele>
        <time>2026-07-15T10:13:41Z</time>
      </trkpt>
      <trkpt lat="42.87399" lon="-0.19425">
        <ele>2429.4</ele>
        <time>2026-07-15T10:13:42Z</time>
      </trkpt>
      <trkpt lat="42.87399" lon="-0.19425">
        <ele>2429.4</ele>
        <time>2026-07-15T10:13:43Z</time>
      </trkpt>
      <trkpt lat="42.87398" lon="-0.19425">
        <ele>2428.4</ele>
        <time>2026-07-15T10:13:44Z</time>
      </trkpt>
      <trkpt lat="42.87398" lon="-0.19425">
        <ele>2428.4</ele>
        <time>2026-07-15T10:13:44Z</time>
      </trkpt>
      <trkpt lat="42.87397" lon="-0.19425">
        <ele>2427.4</ele>
        <time>2026-07-15T10:13:45Z</time>
      </trkpt>
      <trkpt lat="42.87397" lon="-0.19425">
        <ele>2427.4</ele>
        <time>2026-07-15T10:13:46Z</time>
      </trkpt>
      <trkpt lat="42.87397" lon="-0.19425">
        <ele>2427.4</ele>
        <time>2026-07-15T10:13:46Z</time>
      </trkpt>
      <trkpt lat="42.87396" lon="-0.19425">
        <ele>2427.4</ele>
        <time>2026-07-15T10:13:47Z</time>
      </trkpt>
      <trkpt lat="42.87396" lon="-0.19425">
        <ele>2428.4</ele>
        <time>2026-07-15T10:13:48Z</time>
      </trkpt>
      <trkpt lat="42.87396" lon="-0.19425">
        <ele>2428.4</ele>
        <time>2026-07-15T10:13:49Z</time>
      </trkpt>
      <trkpt lat="42.87396" lon="-0.19425">
        <ele>2428.4</ele>
        <time>2026-07-15T10:13:50Z</time>
      </trkpt>
      <trkpt lat="42.87396" lon="-0.19424">
        <ele>2428.4</ele>
        <time>2026-07-15T10:13:51Z</time>
      </trkpt>
      <trkpt lat="42.87396" lon="-0.19424">
        <ele>2428.4</ele>
        <time>2026-07-15T10:13:52Z</time>
      </trkpt>
      <trkpt lat="42.87396" lon="-0.19424">
        <ele>2428.4</ele>
        <time>2026-07-15T10:13:52Z</time>
      </trkpt>
      <trkpt lat="42.87396" lon="-0.19424">
        <ele>2428.4</ele>
        <time>2026-07-15T10:13:53Z</time>
      </trkpt>
      <trkpt lat="42.87396" lon="-0.19424">
        <ele>2428.4</ele>
        <time>2026-07-15T10:13:54Z</time>
      </trkpt>
      <trkpt lat="42.87396" lon="-0.19424">
        <ele>2428.4</ele>
        <time>2026-07-15T10:13:55Z</time>
      </trkpt>
      <trkpt lat="42.87396" lon="-0.19424">
        <ele>2428.4</ele>
        <time>2026-07-15T10:13:56Z</time>
      </trkpt>
      <trkpt lat="42.87396" lon="-0.19423">
        <ele>2428.4</ele>
        <time>2026-07-15T10:13:57Z</time>
      </trkpt>
      <trkpt lat="42.87395" lon="-0.19423">
        <ele>2427.4</ele>
        <time>2026-07-15T10:13:58Z</time>
      </trkpt>
      <trkpt lat="42.87395" lon="-0.19423">
        <ele>2427.4</ele>
        <time>2026-07-15T10:13:58Z</time>
      </trkpt>
      <trkpt lat="42.87395" lon="-0.19423">
        <ele>2428.4</ele>
        <time>2026-07-15T10:13:59Z</time>
      </trkpt>
      <trkpt lat="42.87395" lon="-0.19423">
        <ele>2428.4</ele>
        <time>2026-07-15T10:14:00Z</time>
      </trkpt>
      <trkpt lat="42.87395" lon="-0.19423">
        <ele>2428.4</ele>
        <time>2026-07-15T10:14:01Z</time>
      </trkpt>
      <trkpt lat="42.87395" lon="-0.19423">
        <ele>2427.4</ele>
        <time>2026-07-15T10:14:02Z</time>
      </trkpt>
      <trkpt lat="42.87395" lon="-0.19423">
        <ele>2427.4</ele>
        <time>2026-07-15T10:14:03Z</time>
      </trkpt>
      <trkpt lat="42.87395" lon="-0.19423">
        <ele>2427.4</ele>
        <time>2026-07-15T10:14:04Z</time>
      </trkpt>
      <trkpt lat="42.87396" lon="-0.19423">
        <ele>2428.4</ele>
        <time>2026-07-15T10:14:04Z</time>
      </trkpt>
      <trkpt lat="42.87396" lon="-0.19423">
        <ele>2428.4</ele>
        <time>2026-07-15T10:14:05Z</time>
      </trkpt>
      <trkpt lat="42.87396" lon="-0.19423">
        <ele>2428.4</ele>
        <time>2026-07-15T10:14:06Z</time>
      </trkpt>
      <trkpt lat="42.87396" lon="-0.19423">
        <ele>2428.4</ele>
        <time>2026-07-15T10:14:07Z</time>
      </trkpt>
      <trkpt lat="42.87396" lon="-0.19423">
        <ele>2428.4</ele>
        <time>2026-07-15T10:14:08Z</time>
      </trkpt>
      <trkpt lat="42.87396" lon="-0.19423">
        <ele>2428.4</ele>
        <time>2026-07-15T10:14:09Z</time>
      </trkpt>
      <trkpt lat="42.87396" lon="-0.19423">
        <ele>2428.4</ele>
        <time>2026-07-15T10:14:09Z</time>
      </trkpt>
      <trkpt lat="42.87396" lon="-0.19423">
        <ele>2428.4</ele>
        <time>2026-07-15T10:14:10Z</time>
      </trkpt>
      <trkpt lat="42.87396" lon="-0.19423">
        <ele>2428.4</ele>
        <time>2026-07-15T10:14:11Z</time>
      </trkpt>
      <trkpt lat="42.87396" lon="-0.19423">
        <ele>2428.4</ele>
        <time>2026-07-15T10:14:12Z</time>
      </trkpt>
      <trkpt lat="42.87396" lon="-0.19423">
        <ele>2428.4</ele>
        <time>2026-07-15T10:14:13Z</time>
      </trkpt>
      <trkpt lat="42.87396" lon="-0.19423">
        <ele>2428.4</ele>
        <time>2026-07-15T10:14:14Z</time>
      </trkpt>
      <trkpt lat="42.87396" lon="-0.19423">
        <ele>2428.4</ele>
        <time>2026-07-15T10:14:15Z</time>
      </trkpt>
      <trkpt lat="42.87396" lon="-0.19423">
        <ele>2428.4</ele>
        <time>2026-07-15T10:14:16Z</time>
      </trkpt>
      <trkpt lat="42.87396" lon="-0.19423">
        <ele>2428.4</ele>
        <time>2026-07-15T10:14:17Z</time>
      </trkpt>
      <trkpt lat="42.87396" lon="-0.19423">
        <ele>2428.4</ele>
        <time>2026-07-15T10:14:18Z</time>
      </trkpt>
      <trkpt lat="42.87396" lon="-0.19423">
        <ele>2428.4</ele>
        <time>2026-07-15T10:14:19Z</time>
      </trkpt>
      <trkpt lat="42.87396" lon="-0.19423">
        <ele>2428.4</ele>
        <time>2026-07-15T10:14:20Z</time>
      </trkpt>
      <trkpt lat="42.87396" lon="-0.19423">
        <ele>2428.4</ele>
        <time>2026-07-15T10:14:21Z</time>
      </trkpt>
      <trkpt lat="42.87396" lon="-0.19423">
        <ele>2428.4</ele>
        <time>2026-07-15T10:14:22Z</time>
      </trkpt>
      <trkpt lat="42.87396" lon="-0.19424">
        <ele>2428.4</ele>
        <time>2026-07-15T10:14:23Z</time>
      </trkpt>
      <trkpt lat="42.87396" lon="-0.19424">
        <ele>2428.4</ele>
        <time>2026-07-15T10:14:24Z</time>
      </trkpt>
      <trkpt lat="42.87396" lon="-0.19424">
        <ele>2428.4</ele>
        <time>2026-07-15T10:14:25Z</time>
      </trkpt>
      <trkpt lat="42.87396" lon="-0.19424">
        <ele>2428.4</ele>
        <time>2026-07-15T10:14:26Z</time>
      </trkpt>
      <trkpt lat="42.87396" lon="-0.19424">
        <ele>2428.4</ele>
        <time>2026-07-15T10:14:27Z</time>
      </trkpt>
      <trkpt lat="42.87396" lon="-0.19424">
        <ele>2428.4</ele>
        <time>2026-07-15T10:14:28Z</time>
      </trkpt>
      <trkpt lat="42.87396" lon="-0.19424">
        <ele>2428.4</ele>
        <time>2026-07-15T10:14:29Z</time>
      </trkpt>
      <trkpt lat="42.87396" lon="-0.19424">
        <ele>2428.4</ele>
        <time>2026-07-15T10:14:30Z</time>
      </trkpt>
      <trkpt lat="42.87396" lon="-0.19424">
        <ele>2428.4</ele>
        <time>2026-07-15T10:14:31Z</time>
      </trkpt>
      <trkpt lat="42.87396" lon="-0.19424">
        <ele>2428.4</ele>
        <time>2026-07-15T10:14:32Z</time>
      </trkpt>
      <trkpt lat="42.87396" lon="-0.19424">
        <ele>2428.4</ele>
        <time>2026-07-15T10:14:33Z</time>
      </trkpt>
      <trkpt lat="42.87396" lon="-0.19424">
        <ele>2428.4</ele>
        <time>2026-07-15T10:14:34Z</time>
      </trkpt>
      <trkpt lat="42.87396" lon="-0.19424">
        <ele>2428.4</ele>
        <time>2026-07-15T10:14:35Z</time>
      </trkpt>
      <trkpt lat="42.87396" lon="-0.19424">
        <ele>2428.4</ele>
        <time>2026-07-15T10:14:35Z</time>
      </trkpt>
      <trkpt lat="42.87396" lon="-0.19424">
        <ele>2427.4</ele>
        <time>2026-07-15T10:14:36Z</time>
      </trkpt>
      <trkpt lat="42.87396" lon="-0.19424">
        <ele>2427.4</ele>
        <time>2026-07-15T10:14:37Z</time>
      </trkpt>
      <trkpt lat="42.87396" lon="-0.19425">
        <ele>2427.4</ele>
        <time>2026-07-15T10:14:38Z</time>
      </trkpt>
      <trkpt lat="42.87396" lon="-0.19425">
        <ele>2426.4</ele>
        <time>2026-07-15T10:14:39Z</time>
      </trkpt>
      <trkpt lat="42.87396" lon="-0.19424">
        <ele>2426.4</ele>
        <time>2026-07-15T10:14:40Z</time>
      </trkpt>
      <trkpt lat="42.87396" lon="-0.19424">
        <ele>2426.4</ele>
        <time>2026-07-15T10:14:41Z</time>
      </trkpt>
      <trkpt lat="42.87396" lon="-0.19424">
        <ele>2426.4</ele>
        <time>2026-07-15T10:14:42Z</time>
      </trkpt>
      <trkpt lat="42.87396" lon="-0.19424">
        <ele>2426.4</ele>
        <time>2026-07-15T10:14:43Z</time>
      </trkpt>
      <trkpt lat="42.87396" lon="-0.19424">
        <ele>2426.4</ele>
        <time>2026-07-15T10:14:43Z</time>
      </trkpt>
      <trkpt lat="42.87396" lon="-0.19424">
        <ele>2426.4</ele>
        <time>2026-07-15T10:14:44Z</time>
      </trkpt>
      <trkpt lat="42.87396" lon="-0.19424">
        <ele>2426.4</ele>
        <time>2026-07-15T10:14:45Z</time>
      </trkpt>
      <trkpt lat="42.87396" lon="-0.19424">
        <ele>2426.4</ele>
        <time>2026-07-15T10:14:46Z</time>
      </trkpt>
      <trkpt lat="42.87396" lon="-0.19424">
        <ele>2426.4</ele>
        <time>2026-07-15T10:14:46Z</time>
      </trkpt>
      <trkpt lat="42.87396" lon="-0.19424">
        <ele>2427.4</ele>
        <time>2026-07-15T10:14:47Z</time>
      </trkpt>
      <trkpt lat="42.87396" lon="-0.19424">
        <ele>2427.4</ele>
        <time>2026-07-15T10:14:48Z</time>
      </trkpt>
      <trkpt lat="42.87396" lon="-0.19424">
        <ele>2427.4</ele>
        <time>2026-07-15T10:14:48Z</time>
      </trkpt>
      <trkpt lat="42.87396" lon="-0.19424">
        <ele>2427.4</ele>
        <time>2026-07-15T10:14:49Z</time>
      </trkpt>
      <trkpt lat="42.87396" lon="-0.19424">
        <ele>2427.4</ele>
        <time>2026-07-15T10:14:50Z</time>
      </trkpt>
      <trkpt lat="42.87396" lon="-0.19424">
        <ele>2427.4</ele>
        <time>2026-07-15T10:14:51Z</time>
      </trkpt>
      <trkpt lat="42.87396" lon="-0.19424">
        <ele>2427.4</ele>
        <time>2026-07-15T10:14:51Z</time>
      </trkpt>
      <trkpt lat="42.87396" lon="-0.19424">
        <ele>2427.4</ele>
        <time>2026-07-15T10:14:52Z</time>
      </trkpt>
      <trkpt lat="42.87395" lon="-0.19424">
        <ele>2426.4</ele>
        <time>2026-07-15T10:14:53Z</time>
      </trkpt>
      <trkpt lat="42.87395" lon="-0.19424">
        <ele>2426.4</ele>
        <time>2026-07-15T10:14:53Z</time>
      </trkpt>
      <trkpt lat="42.87395" lon="-0.19425">
        <ele>2426.4</ele>
        <time>2026-07-15T10:14:54Z</time>
      </trkpt>
      <trkpt lat="42.87395" lon="-0.19425">
        <ele>2426.4</ele>
        <time>2026-07-15T10:14:55Z</time>
      </trkpt>
      <trkpt lat="42.87394" lon="-0.19425">
        <ele>2426.4</ele>
        <time>2026-07-15T10:14:56Z</time>
      </trkpt>
      <trkpt lat="42.87394" lon="-0.19426">
        <ele>2426.4</ele>
        <time>2026-07-15T10:14:57Z</time>
      </trkpt>
      <trkpt lat="42.87393" lon="-0.19427">
        <ele>2426.4</ele>
        <time>2026-07-15T10:14:57Z</time>
      </trkpt>
      <trkpt lat="42.87392" lon="-0.19427">
        <ele>2426.4</ele>
        <time>2026-07-15T10:14:58Z</time>
      </trkpt>
      <trkpt lat="42.87391" lon="-0.19429">
        <ele>2427.4</ele>
        <time>2026-07-15T10:14:58Z</time>
      </trkpt>
      <trkpt lat="42.8739" lon="-0.19429">
        <ele>2427.4</ele>
        <time>2026-07-15T10:14:59Z</time>
      </trkpt>
      <trkpt lat="42.87389" lon="-0.1943">
        <ele>2427.4</ele>
        <time>2026-07-15T10:15:00Z</time>
      </trkpt>
      <trkpt lat="42.87388" lon="-0.19431">
        <ele>2427.4</ele>
        <time>2026-07-15T10:15:01Z</time>
      </trkpt>
      <trkpt lat="42.87388" lon="-0.19432">
        <ele>2426.4</ele>
        <time>2026-07-15T10:15:01Z</time>
      </trkpt>
      <trkpt lat="42.87387" lon="-0.19432">
        <ele>2426.4</ele>
        <time>2026-07-15T10:15:02Z</time>
      </trkpt>
      <trkpt lat="42.87387" lon="-0.19433">
        <ele>2428.4</ele>
        <time>2026-07-15T10:15:02Z</time>
      </trkpt>
      <trkpt lat="42.87386" lon="-0.19433">
        <ele>2427.4</ele>
        <time>2026-07-15T10:15:03Z</time>
      </trkpt>
      <trkpt lat="42.87386" lon="-0.19434">
        <ele>2427.4</ele>
        <time>2026-07-15T10:15:04Z</time>
      </trkpt>
      <trkpt lat="42.87385" lon="-0.19434">
        <ele>2427.4</ele>
        <time>2026-07-15T10:15:05Z</time>
      </trkpt>
      <trkpt lat="42.87384" lon="-0.19434">
        <ele>2427.4</ele>
        <time>2026-07-15T10:15:05Z</time>
      </trkpt>
      <trkpt lat="42.87384" lon="-0.19435">
        <ele>2427.4</ele>
        <time>2026-07-15T10:15:06Z</time>
      </trkpt>
      <trkpt lat="42.87383" lon="-0.19435">
        <ele>2427.4</ele>
        <time>2026-07-15T10:15:07Z</time>
      </trkpt>
      <trkpt lat="42.87382" lon="-0.19435">
        <ele>2426.4</ele>
        <time>2026-07-15T10:15:07Z</time>
      </trkpt>
      <trkpt lat="42.87382" lon="-0.19435">
        <ele>2426.4</ele>
        <time>2026-07-15T10:15:08Z</time>
      </trkpt>
      <trkpt lat="42.87381" lon="-0.19435">
        <ele>2426.4</ele>
        <time>2026-07-15T10:15:09Z</time>
      </trkpt>
      <trkpt lat="42.8738" lon="-0.19435">
        <ele>2427.4</ele>
        <time>2026-07-15T10:15:10Z</time>
      </trkpt>
      <trkpt lat="42.8738" lon="-0.19435">
        <ele>2427.4</ele>
        <time>2026-07-15T10:15:11Z</time>
      </trkpt>
      <trkpt lat="42.87379" lon="-0.19435">
        <ele>2428.4</ele>
        <time>2026-07-15T10:15:12Z</time>
      </trkpt>
      <trkpt lat="42.87379" lon="-0.19435">
        <ele>2429.4</ele>
        <time>2026-07-15T10:15:12Z</time>
      </trkpt>
      <trkpt lat="42.87378" lon="-0.19436">
        <ele>2429.4</ele>
        <time>2026-07-15T10:15:13Z</time>
      </trkpt>
      <trkpt lat="42.87378" lon="-0.19436">
        <ele>2429.4</ele>
        <time>2026-07-15T10:15:14Z</time>
      </trkpt>
      <trkpt lat="42.87377" lon="-0.19436">
        <ele>2429.4</ele>
        <time>2026-07-15T10:15:15Z</time>
      </trkpt>
      <trkpt lat="42.87376" lon="-0.19436">
        <ele>2430.4</ele>
        <time>2026-07-15T10:15:16Z</time>
      </trkpt>
      <trkpt lat="42.87375" lon="-0.19436">
        <ele>2430.4</ele>
        <time>2026-07-15T10:15:17Z</time>
      </trkpt>
      <trkpt lat="42.87374" lon="-0.19436">
        <ele>2430.4</ele>
        <time>2026-07-15T10:15:18Z</time>
      </trkpt>
      <trkpt lat="42.87374" lon="-0.19436">
        <ele>2429.4</ele>
        <time>2026-07-15T10:15:18Z</time>
      </trkpt>
      <trkpt lat="42.87373" lon="-0.19436">
        <ele>2429.4</ele>
        <time>2026-07-15T10:15:19Z</time>
      </trkpt>
      <trkpt lat="42.87373" lon="-0.19436">
        <ele>2429.4</ele>
        <time>2026-07-15T10:15:20Z</time>
      </trkpt>
      <trkpt lat="42.87373" lon="-0.19436">
        <ele>2429.4</ele>
        <time>2026-07-15T10:15:21Z</time>
      </trkpt>
      <trkpt lat="42.87372" lon="-0.19436">
        <ele>2429.4</ele>
        <time>2026-07-15T10:15:22Z</time>
      </trkpt>
      <trkpt lat="42.87372" lon="-0.19436">
        <ele>2429.4</ele>
        <time>2026-07-15T10:15:23Z</time>
      </trkpt>
      <trkpt lat="42.87372" lon="-0.19436">
        <ele>2429.4</ele>
        <time>2026-07-15T10:15:24Z</time>
      </trkpt>
      <trkpt lat="42.87371" lon="-0.19436">
        <ele>2429.4</ele>
        <time>2026-07-15T10:15:24Z</time>
      </trkpt>
      <trkpt lat="42.87371" lon="-0.19436">
        <ele>2429.4</ele>
        <time>2026-07-15T10:15:25Z</time>
      </trkpt>
      <trkpt lat="42.87371" lon="-0.19437">
        <ele>2429.4</ele>
        <time>2026-07-15T10:15:26Z</time>
      </trkpt>
      <trkpt lat="42.8737" lon="-0.19437">
        <ele>2428.4</ele>
        <time>2026-07-15T10:15:26Z</time>
      </trkpt>
      <trkpt lat="42.8737" lon="-0.19437">
        <ele>2427.4</ele>
        <time>2026-07-15T10:15:27Z</time>
      </trkpt>
      <trkpt lat="42.87369" lon="-0.19437">
        <ele>2427.4</ele>
        <time>2026-07-15T10:15:28Z</time>
      </trkpt>
      <trkpt lat="42.87369" lon="-0.19437">
        <ele>2427.4</ele>
        <time>2026-07-15T10:15:29Z</time>
      </trkpt>
      <trkpt lat="42.87369" lon="-0.19437">
        <ele>2428.4</ele>
        <time>2026-07-15T10:15:30Z</time>
      </trkpt>
      <trkpt lat="42.87368" lon="-0.19437">
        <ele>2428.4</ele>
        <time>2026-07-15T10:15:30Z</time>
      </trkpt>
      <trkpt lat="42.87368" lon="-0.19437">
        <ele>2427.4</ele>
        <time>2026-07-15T10:15:31Z</time>
      </trkpt>
      <trkpt lat="42.87368" lon="-0.19437">
        <ele>2427.4</ele>
        <time>2026-07-15T10:15:32Z</time>
      </trkpt>
      <trkpt lat="42.87368" lon="-0.19437">
        <ele>2427.4</ele>
        <time>2026-07-15T10:15:33Z</time>
      </trkpt>
      <trkpt lat="42.87368" lon="-0.19437">
        <ele>2427.4</ele>
        <time>2026-07-15T10:15:34Z</time>
      </trkpt>
      <trkpt lat="42.87367" lon="-0.19437">
        <ele>2427.4</ele>
        <time>2026-07-15T10:15:35Z</time>
      </trkpt>
      <trkpt lat="42.87367" lon="-0.19437">
        <ele>2427.4</ele>
        <time>2026-07-15T10:15:36Z</time>
      </trkpt>
      <trkpt lat="42.87367" lon="-0.19437">
        <ele>2427.4</ele>
        <time>2026-07-15T10:15:37Z</time>
      </trkpt>
      <trkpt lat="42.87367" lon="-0.19437">
        <ele>2426.4</ele>
        <time>2026-07-15T10:15:38Z</time>
      </trkpt>
      <trkpt lat="42.87366" lon="-0.19437">
        <ele>2427.4</ele>
        <time>2026-07-15T10:15:39Z</time>
      </trkpt>
      <trkpt lat="42.87366" lon="-0.19437">
        <ele>2427.4</ele>
        <time>2026-07-15T10:15:40Z</time>
      </trkpt>
      <trkpt lat="42.87365" lon="-0.19437">
        <ele>2426.4</ele>
        <time>2026-07-15T10:15:41Z</time>
      </trkpt>
      <trkpt lat="42.87365" lon="-0.19437">
        <ele>2427.4</ele>
        <time>2026-07-15T10:15:41Z</time>
      </trkpt>
      <trkpt lat="42.87365" lon="-0.19437">
        <ele>2427.4</ele>
        <time>2026-07-15T10:15:42Z</time>
      </trkpt>
      <trkpt lat="42.87365" lon="-0.19437">
        <ele>2426.4</ele>
        <time>2026-07-15T10:15:42Z</time>
      </trkpt>
      <trkpt lat="42.87365" lon="-0.19437">
        <ele>2426.4</ele>
        <time>2026-07-15T10:15:43Z</time>
      </trkpt>
      <trkpt lat="42.87364" lon="-0.19437">
        <ele>2426.4</ele>
        <time>2026-07-15T10:15:44Z</time>
      </trkpt>
      <trkpt lat="42.87364" lon="-0.19437">
        <ele>2426.4</ele>
        <time>2026-07-15T10:15:44Z</time>
      </trkpt>
      <trkpt lat="42.87364" lon="-0.19437">
        <ele>2426.4</ele>
        <time>2026-07-15T10:15:45Z</time>
      </trkpt>
      <trkpt lat="42.87364" lon="-0.19436">
        <ele>2426.4</ele>
        <time>2026-07-15T10:15:46Z</time>
      </trkpt>
      <trkpt lat="42.87363" lon="-0.19436">
        <ele>2426.4</ele>
        <time>2026-07-15T10:15:47Z</time>
      </trkpt>
      <trkpt lat="42.87363" lon="-0.19436">
        <ele>2425.4</ele>
        <time>2026-07-15T10:15:47Z</time>
      </trkpt>
      <trkpt lat="42.87363" lon="-0.19436">
        <ele>2425.4</ele>
        <time>2026-07-15T10:15:48Z</time>
      </trkpt>
      <trkpt lat="42.87362" lon="-0.19436">
        <ele>2425.4</ele>
        <time>2026-07-15T10:15:49Z</time>
      </trkpt>
      <trkpt lat="42.87362" lon="-0.19435">
        <ele>2425.4</ele>
        <time>2026-07-15T10:15:49Z</time>
      </trkpt>
      <trkpt lat="42.87362" lon="-0.19435">
        <ele>2425.4</ele>
        <time>2026-07-15T10:15:50Z</time>
      </trkpt>
      <trkpt lat="42.87362" lon="-0.19435">
        <ele>2425.4</ele>
        <time>2026-07-15T10:15:51Z</time>
      </trkpt>
      <trkpt lat="42.87361" lon="-0.19434">
        <ele>2424.4</ele>
        <time>2026-07-15T10:15:52Z</time>
      </trkpt>
      <trkpt lat="42.87361" lon="-0.19434">
        <ele>2424.4</ele>
        <time>2026-07-15T10:15:53Z</time>
      </trkpt>
      <trkpt lat="42.87361" lon="-0.19434">
        <ele>2424.4</ele>
        <time>2026-07-15T10:15:53Z</time>
      </trkpt>
      <trkpt lat="42.87361" lon="-0.19433">
        <ele>2424.4</ele>
        <time>2026-07-15T10:15:54Z</time>
      </trkpt>
      <trkpt lat="42.8736" lon="-0.19433">
        <ele>2424.4</ele>
        <time>2026-07-15T10:15:55Z</time>
      </trkpt>
      <trkpt lat="42.8736" lon="-0.19433">
        <ele>2424.4</ele>
        <time>2026-07-15T10:15:56Z</time>
      </trkpt>
      <trkpt lat="42.8736" lon="-0.19432">
        <ele>2424.4</ele>
        <time>2026-07-15T10:15:57Z</time>
      </trkpt>
      <trkpt lat="42.8736" lon="-0.19432">
        <ele>2424.4</ele>
        <time>2026-07-15T10:15:57Z</time>
      </trkpt>
      <trkpt lat="42.8736" lon="-0.19432">
        <ele>2424.4</ele>
        <time>2026-07-15T10:15:58Z</time>
      </trkpt>
      <trkpt lat="42.87359" lon="-0.19431">
        <ele>2423.4</ele>
        <time>2026-07-15T10:15:58Z</time>
      </trkpt>
      <trkpt lat="42.87358" lon="-0.19431">
        <ele>2423.4</ele>
        <time>2026-07-15T10:15:59Z</time>
      </trkpt>
      <trkpt lat="42.87357" lon="-0.1943">
        <ele>2423.4</ele>
        <time>2026-07-15T10:16:00Z</time>
      </trkpt>
      <trkpt lat="42.87356" lon="-0.19429">
        <ele>2423.4</ele>
        <time>2026-07-15T10:16:00Z</time>
      </trkpt>
      <trkpt lat="42.87355" lon="-0.19429">
        <ele>2423.4</ele>
        <time>2026-07-15T10:16:01Z</time>
      </trkpt>
      <trkpt lat="42.87354" lon="-0.19429">
        <ele>2423.4</ele>
        <time>2026-07-15T10:16:02Z</time>
      </trkpt>
      <trkpt lat="42.87354" lon="-0.19428">
        <ele>2423.4</ele>
        <time>2026-07-15T10:16:03Z</time>
      </trkpt>
      <trkpt lat="42.87353" lon="-0.19428">
        <ele>2423.4</ele>
        <time>2026-07-15T10:16:03Z</time>
      </trkpt>
      <trkpt lat="42.87353" lon="-0.19428">
        <ele>2422.4</ele>
        <time>2026-07-15T10:16:04Z</time>
      </trkpt>
      <trkpt lat="42.87353" lon="-0.19428">
        <ele>2422.4</ele>
        <time>2026-07-15T10:16:05Z</time>
      </trkpt>
      <trkpt lat="42.87353" lon="-0.19428">
        <ele>2423.4</ele>
        <time>2026-07-15T10:16:06Z</time>
      </trkpt>
      <trkpt lat="42.87353" lon="-0.19428">
        <ele>2423.4</ele>
        <time>2026-07-15T10:16:07Z</time>
      </trkpt>
      <trkpt lat="42.87353" lon="-0.19428">
        <ele>2423.4</ele>
        <time>2026-07-15T10:16:08Z</time>
      </trkpt>
      <trkpt lat="42.87353" lon="-0.19428">
        <ele>2423.4</ele>
        <time>2026-07-15T10:16:09Z</time>
      </trkpt>
      <trkpt lat="42.87353" lon="-0.19428">
        <ele>2423.4</ele>
        <time>2026-07-15T10:16:10Z</time>
      </trkpt>
      <trkpt lat="42.87353" lon="-0.19428">
        <ele>2423.4</ele>
        <time>2026-07-15T10:16:11Z</time>
      </trkpt>
      <trkpt lat="42.87353" lon="-0.19427">
        <ele>2424.4</ele>
        <time>2026-07-15T10:16:12Z</time>
      </trkpt>
      <trkpt lat="42.87353" lon="-0.19427">
        <ele>2424.4</ele>
        <time>2026-07-15T10:16:13Z</time>
      </trkpt>
      <trkpt lat="42.87353" lon="-0.19427">
        <ele>2424.4</ele>
        <time>2026-07-15T10:16:14Z</time>
      </trkpt>
      <trkpt lat="42.87353" lon="-0.19427">
        <ele>2425.4</ele>
        <time>2026-07-15T10:16:15Z</time>
      </trkpt>
      <trkpt lat="42.87352" lon="-0.19427">
        <ele>2424.4</ele>
        <time>2026-07-15T10:16:16Z</time>
      </trkpt>
      <trkpt lat="42.87352" lon="-0.19427">
        <ele>2424.4</ele>
        <time>2026-07-15T10:16:16Z</time>
      </trkpt>
      <trkpt lat="42.87352" lon="-0.19427">
        <ele>2424.4</ele>
        <time>2026-07-15T10:16:17Z</time>
      </trkpt>
      <trkpt lat="42.87352" lon="-0.19426">
        <ele>2424.4</ele>
        <time>2026-07-15T10:16:18Z</time>
      </trkpt>
      <trkpt lat="42.87351" lon="-0.19426">
        <ele>2424.4</ele>
        <time>2026-07-15T10:16:19Z</time>
      </trkpt>
      <trkpt lat="42.87351" lon="-0.19426">
        <ele>2424.4</ele>
        <time>2026-07-15T10:16:19Z</time>
      </trkpt>
      <trkpt lat="42.87351" lon="-0.19426">
        <ele>2424.4</ele>
        <time>2026-07-15T10:16:20Z</time>
      </trkpt>
      <trkpt lat="42.87351" lon="-0.19426">
        <ele>2424.4</ele>
        <time>2026-07-15T10:16:21Z</time>
      </trkpt>
      <trkpt lat="42.8735" lon="-0.19426">
        <ele>2423.4</ele>
        <time>2026-07-15T10:16:22Z</time>
      </trkpt>
      <trkpt lat="42.8735" lon="-0.19426">
        <ele>2423.4</ele>
        <time>2026-07-15T10:16:22Z</time>
      </trkpt>
      <trkpt lat="42.8735" lon="-0.19426">
        <ele>2423.4</ele>
        <time>2026-07-15T10:16:23Z</time>
      </trkpt>
      <trkpt lat="42.8735" lon="-0.19426">
        <ele>2423.4</ele>
        <time>2026-07-15T10:16:24Z</time>
      </trkpt>
      <trkpt lat="42.87349" lon="-0.19426">
        <ele>2423.4</ele>
        <time>2026-07-15T10:16:25Z</time>
      </trkpt>
      <trkpt lat="42.87349" lon="-0.19425">
        <ele>2423.4</ele>
        <time>2026-07-15T10:16:26Z</time>
      </trkpt>
      <trkpt lat="42.87349" lon="-0.19424">
        <ele>2423.4</ele>
        <time>2026-07-15T10:16:26Z</time>
      </trkpt>
      <trkpt lat="42.87348" lon="-0.19423">
        <ele>2423.4</ele>
        <time>2026-07-15T10:16:27Z</time>
      </trkpt>
      <trkpt lat="42.87348" lon="-0.19423">
        <ele>2423.4</ele>
        <time>2026-07-15T10:16:28Z</time>
      </trkpt>
      <trkpt lat="42.87347" lon="-0.19422">
        <ele>2423.4</ele>
        <time>2026-07-15T10:16:29Z</time>
      </trkpt>
      <trkpt lat="42.87346" lon="-0.19421">
        <ele>2422.4</ele>
        <time>2026-07-15T10:16:30Z</time>
      </trkpt>
      <trkpt lat="42.87346" lon="-0.19421">
        <ele>2422.4</ele>
        <time>2026-07-15T10:16:31Z</time>
      </trkpt>
      <trkpt lat="42.87345" lon="-0.1942">
        <ele>2422.4</ele>
        <time>2026-07-15T10:16:32Z</time>
      </trkpt>
      <trkpt lat="42.87344" lon="-0.1942">
        <ele>2422.4</ele>
        <time>2026-07-15T10:16:32Z</time>
      </trkpt>
      <trkpt lat="42.87344" lon="-0.1942">
        <ele>2422.4</ele>
        <time>2026-07-15T10:16:33Z</time>
      </trkpt>
      <trkpt lat="42.87344" lon="-0.1942">
        <ele>2422.4</ele>
        <time>2026-07-15T10:16:34Z</time>
      </trkpt>
      <trkpt lat="42.87344" lon="-0.19419">
        <ele>2422.4</ele>
        <time>2026-07-15T10:16:34Z</time>
      </trkpt>
      <trkpt lat="42.87343" lon="-0.19419">
        <ele>2422.4</ele>
        <time>2026-07-15T10:16:35Z</time>
      </trkpt>
      <trkpt lat="42.87343" lon="-0.19419">
        <ele>2422.4</ele>
        <time>2026-07-15T10:16:36Z</time>
      </trkpt>
      <trkpt lat="42.87342" lon="-0.19419">
        <ele>2422.4</ele>
        <time>2026-07-15T10:16:36Z</time>
      </trkpt>
      <trkpt lat="42.87342" lon="-0.19418">
        <ele>2422.4</ele>
        <time>2026-07-15T10:16:37Z</time>
      </trkpt>
      <trkpt lat="42.87342" lon="-0.19418">
        <ele>2422.4</ele>
        <time>2026-07-15T10:16:38Z</time>
      </trkpt>
      <trkpt lat="42.87342" lon="-0.19418">
        <ele>2422.4</ele>
        <time>2026-07-15T10:16:39Z</time>
      </trkpt>
      <trkpt lat="42.87342" lon="-0.19418">
        <ele>2420.4</ele>
        <time>2026-07-15T10:16:39Z</time>
      </trkpt>
      <trkpt lat="42.87342" lon="-0.19417">
        <ele>2419.4</ele>
        <time>2026-07-15T10:16:40Z</time>
      </trkpt>
      <trkpt lat="42.87341" lon="-0.19417">
        <ele>2419.4</ele>
        <time>2026-07-15T10:16:41Z</time>
      </trkpt>
      <trkpt lat="42.87341" lon="-0.19417">
        <ele>2419.4</ele>
        <time>2026-07-15T10:16:42Z</time>
      </trkpt>
      <trkpt lat="42.8734" lon="-0.19417">
        <ele>2418.4</ele>
        <time>2026-07-15T10:16:42Z</time>
      </trkpt>
      <trkpt lat="42.8734" lon="-0.19417">
        <ele>2418.4</ele>
        <time>2026-07-15T10:16:43Z</time>
      </trkpt>
      <trkpt lat="42.8734" lon="-0.19416">
        <ele>2419.4</ele>
        <time>2026-07-15T10:16:44Z</time>
      </trkpt>
      <trkpt lat="42.8734" lon="-0.19416">
        <ele>2419.4</ele>
        <time>2026-07-15T10:16:45Z</time>
      </trkpt>
      <trkpt lat="42.8734" lon="-0.19416">
        <ele>2418.4</ele>
        <time>2026-07-15T10:16:46Z</time>
      </trkpt>
      <trkpt lat="42.8734" lon="-0.19416">
        <ele>2419.4</ele>
        <time>2026-07-15T10:16:47Z</time>
      </trkpt>
      <trkpt lat="42.8734" lon="-0.19416">
        <ele>2417.4</ele>
        <time>2026-07-15T10:16:48Z</time>
      </trkpt>
      <trkpt lat="42.87339" lon="-0.19415">
        <ele>2417.4</ele>
        <time>2026-07-15T10:16:49Z</time>
      </trkpt>
      <trkpt lat="42.87339" lon="-0.19415">
        <ele>2417.4</ele>
        <time>2026-07-15T10:16:50Z</time>
      </trkpt>
      <trkpt lat="42.87339" lon="-0.19414">
        <ele>2417.4</ele>
        <time>2026-07-15T10:16:50Z</time>
      </trkpt>
      <trkpt lat="42.87338" lon="-0.19413">
        <ele>2417.4</ele>
        <time>2026-07-15T10:16:51Z</time>
      </trkpt>
      <trkpt lat="42.87338" lon="-0.19412">
        <ele>2417.4</ele>
        <time>2026-07-15T10:16:52Z</time>
      </trkpt>
      <trkpt lat="42.87337" lon="-0.19411">
        <ele>2417.4</ele>
        <time>2026-07-15T10:16:53Z</time>
      </trkpt>
      <trkpt lat="42.87337" lon="-0.19411">
        <ele>2417.4</ele>
        <time>2026-07-15T10:16:54Z</time>
      </trkpt>
      <trkpt lat="42.87336" lon="-0.1941">
        <ele>2416.4</ele>
        <time>2026-07-15T10:16:55Z</time>
      </trkpt>
      <trkpt lat="42.87335" lon="-0.19409">
        <ele>2416.4</ele>
        <time>2026-07-15T10:16:56Z</time>
      </trkpt>
      <trkpt lat="42.87335" lon="-0.19408">
        <ele>2416.4</ele>
        <time>2026-07-15T10:16:57Z</time>
      </trkpt>
      <trkpt lat="42.87335" lon="-0.19407">
        <ele>2417.4</ele>
        <time>2026-07-15T10:16:57Z</time>
      </trkpt>
      <trkpt lat="42.87335" lon="-0.19406">
        <ele>2417.4</ele>
        <time>2026-07-15T10:16:58Z</time>
      </trkpt>
      <trkpt lat="42.87335" lon="-0.19406">
        <ele>2416.4</ele>
        <time>2026-07-15T10:16:59Z</time>
      </trkpt>
      <trkpt lat="42.87335" lon="-0.19405">
        <ele>2416.4</ele>
        <time>2026-07-15T10:17:00Z</time>
      </trkpt>
      <trkpt lat="42.87335" lon="-0.19405">
        <ele>2416.4</ele>
        <time>2026-07-15T10:17:00Z</time>
      </trkpt>
      <trkpt lat="42.87335" lon="-0.19405">
        <ele>2416.4</ele>
        <time>2026-07-15T10:17:01Z</time>
      </trkpt>
      <trkpt lat="42.87335" lon="-0.19405">
        <ele>2416.4</ele>
        <time>2026-07-15T10:17:02Z</time>
      </trkpt>
      <trkpt lat="42.87335" lon="-0.19404">
        <ele>2414.4</ele>
        <time>2026-07-15T10:17:03Z</time>
      </trkpt>
      <trkpt lat="42.87334" lon="-0.19404">
        <ele>2414.4</ele>
        <time>2026-07-15T10:17:03Z</time>
      </trkpt>
      <trkpt lat="42.87334" lon="-0.19403">
        <ele>2414.4</ele>
        <time>2026-07-15T10:17:04Z</time>
      </trkpt>
      <trkpt lat="42.87334" lon="-0.19402">
        <ele>2414.4</ele>
        <time>2026-07-15T10:17:05Z</time>
      </trkpt>
      <trkpt lat="42.87334" lon="-0.19401">
        <ele>2413.4</ele>
        <time>2026-07-15T10:17:05Z</time>
      </trkpt>
      <trkpt lat="42.87334" lon="-0.19401">
        <ele>2413.4</ele>
        <time>2026-07-15T10:17:06Z</time>
      </trkpt>
      <trkpt lat="42.87334" lon="-0.194">
        <ele>2413.4</ele>
        <time>2026-07-15T10:17:07Z</time>
      </trkpt>
      <trkpt lat="42.87334" lon="-0.194">
        <ele>2413.4</ele>
        <time>2026-07-15T10:17:08Z</time>
      </trkpt>
      <trkpt lat="42.87334" lon="-0.19399">
        <ele>2412.4</ele>
        <time>2026-07-15T10:17:08Z</time>
      </trkpt>
      <trkpt lat="42.87334" lon="-0.19399">
        <ele>2410.4</ele>
        <time>2026-07-15T10:17:09Z</time>
      </trkpt>
      <trkpt lat="42.87334" lon="-0.19399">
        <ele>2410.4</ele>
        <time>2026-07-15T10:17:10Z</time>
      </trkpt>
      <trkpt lat="42.87334" lon="-0.19398">
        <ele>2410.4</ele>
        <time>2026-07-15T10:17:11Z</time>
      </trkpt>
      <trkpt lat="42.87335" lon="-0.19398">
        <ele>2410.4</ele>
        <time>2026-07-15T10:17:12Z</time>
      </trkpt>
      <trkpt lat="42.87335" lon="-0.19398">
        <ele>2410.4</ele>
        <time>2026-07-15T10:17:12Z</time>
      </trkpt>
      <trkpt lat="42.87335" lon="-0.19398">
        <ele>2410.4</ele>
        <time>2026-07-15T10:17:13Z</time>
      </trkpt>
      <trkpt lat="42.87335" lon="-0.19398">
        <ele>2410.4</ele>
        <time>2026-07-15T10:17:14Z</time>
      </trkpt>
      <trkpt lat="42.87335" lon="-0.19399">
        <ele>2410.4</ele>
        <time>2026-07-15T10:17:15Z</time>
      </trkpt>
      <trkpt lat="42.87335" lon="-0.19398">
        <ele>2409.4</ele>
        <time>2026-07-15T10:17:15Z</time>
      </trkpt>
      <trkpt lat="42.87335" lon="-0.19398">
        <ele>2409.4</ele>
        <time>2026-07-15T10:17:16Z</time>
      </trkpt>
      <trkpt lat="42.87334" lon="-0.19398">
        <ele>2409.4</ele>
        <time>2026-07-15T10:17:17Z</time>
      </trkpt>
      <trkpt lat="42.87334" lon="-0.19398">
        <ele>2409.4</ele>
        <time>2026-07-15T10:17:18Z</time>
      </trkpt>
      <trkpt lat="42.87334" lon="-0.19397">
        <ele>2408.4</ele>
        <time>2026-07-15T10:17:19Z</time>
      </trkpt>
      <trkpt lat="42.87334" lon="-0.19397">
        <ele>2407.4</ele>
        <time>2026-07-15T10:17:20Z</time>
      </trkpt>
      <trkpt lat="42.87334" lon="-0.19396">
        <ele>2407.4</ele>
        <time>2026-07-15T10:17:21Z</time>
      </trkpt>
      <trkpt lat="42.87334" lon="-0.19396">
        <ele>2408.4</ele>
        <time>2026-07-15T10:17:22Z</time>
      </trkpt>
      <trkpt lat="42.87334" lon="-0.19395">
        <ele>2408.4</ele>
        <time>2026-07-15T10:17:22Z</time>
      </trkpt>
      <trkpt lat="42.87334" lon="-0.19395">
        <ele>2408.4</ele>
        <time>2026-07-15T10:17:23Z</time>
      </trkpt>
      <trkpt lat="42.87334" lon="-0.19394">
        <ele>2408.4</ele>
        <time>2026-07-15T10:17:23Z</time>
      </trkpt>
      <trkpt lat="42.87334" lon="-0.19393">
        <ele>2408.4</ele>
        <time>2026-07-15T10:17:24Z</time>
      </trkpt>
      <trkpt lat="42.87334" lon="-0.19393">
        <ele>2408.4</ele>
        <time>2026-07-15T10:17:25Z</time>
      </trkpt>
      <trkpt lat="42.87334" lon="-0.19392">
        <ele>2407.4</ele>
        <time>2026-07-15T10:17:25Z</time>
      </trkpt>
      <trkpt lat="42.87334" lon="-0.19391">
        <ele>2407.4</ele>
        <time>2026-07-15T10:17:26Z</time>
      </trkpt>
      <trkpt lat="42.87334" lon="-0.1939">
        <ele>2407.4</ele>
        <time>2026-07-15T10:17:27Z</time>
      </trkpt>
      <trkpt lat="42.87333" lon="-0.19389">
        <ele>2407.4</ele>
        <time>2026-07-15T10:17:28Z</time>
      </trkpt>
      <trkpt lat="42.87333" lon="-0.19389">
        <ele>2407.4</ele>
        <time>2026-07-15T10:17:29Z</time>
      </trkpt>
      <trkpt lat="42.87333" lon="-0.19388">
        <ele>2407.4</ele>
        <time>2026-07-15T10:17:30Z</time>
      </trkpt>
      <trkpt lat="42.87333" lon="-0.19388">
        <ele>2407.4</ele>
        <time>2026-07-15T10:17:30Z</time>
      </trkpt>
      <trkpt lat="42.87333" lon="-0.19388">
        <ele>2407.4</ele>
        <time>2026-07-15T10:17:31Z</time>
      </trkpt>
      <trkpt lat="42.87333" lon="-0.19388">
        <ele>2407.4</ele>
        <time>2026-07-15T10:17:32Z</time>
      </trkpt>
      <trkpt lat="42.87332" lon="-0.19388">
        <ele>2407.4</ele>
        <time>2026-07-15T10:17:33Z</time>
      </trkpt>
      <trkpt lat="42.87332" lon="-0.19388">
        <ele>2406.4</ele>
        <time>2026-07-15T10:17:34Z</time>
      </trkpt>
      <trkpt lat="42.87332" lon="-0.19388">
        <ele>2406.4</ele>
        <time>2026-07-15T10:17:34Z</time>
      </trkpt>
      <trkpt lat="42.87332" lon="-0.19387">
        <ele>2405.4</ele>
        <time>2026-07-15T10:17:35Z</time>
      </trkpt>
      <trkpt lat="42.87332" lon="-0.19387">
        <ele>2405.4</ele>
        <time>2026-07-15T10:17:36Z</time>
      </trkpt>
      <trkpt lat="42.87332" lon="-0.19387">
        <ele>2405.4</ele>
        <time>2026-07-15T10:17:37Z</time>
      </trkpt>
      <trkpt lat="42.87332" lon="-0.19386">
        <ele>2405.4</ele>
        <time>2026-07-15T10:17:38Z</time>
      </trkpt>
      <trkpt lat="42.87332" lon="-0.19385">
        <ele>2405.4</ele>
        <time>2026-07-15T10:17:38Z</time>
      </trkpt>
      <trkpt lat="42.87332" lon="-0.19385">
        <ele>2404.4</ele>
        <time>2026-07-15T10:17:39Z</time>
      </trkpt>
      <trkpt lat="42.87332" lon="-0.19384">
        <ele>2404.4</ele>
        <time>2026-07-15T10:17:40Z</time>
      </trkpt>
      <trkpt lat="42.87331" lon="-0.19384">
        <ele>2405.4</ele>
        <time>2026-07-15T10:17:41Z</time>
      </trkpt>
      <trkpt lat="42.87331" lon="-0.19384">
        <ele>2405.4</ele>
        <time>2026-07-15T10:17:42Z</time>
      </trkpt>
      <trkpt lat="42.87331" lon="-0.19384">
        <ele>2405.4</ele>
        <time>2026-07-15T10:17:43Z</time>
      </trkpt>
      <trkpt lat="42.87331" lon="-0.19385">
        <ele>2405.4</ele>
        <time>2026-07-15T10:17:44Z</time>
      </trkpt>
      <trkpt lat="42.87331" lon="-0.19385">
        <ele>2405.4</ele>
        <time>2026-07-15T10:17:45Z</time>
      </trkpt>
      <trkpt lat="42.87331" lon="-0.19385">
        <ele>2405.4</ele>
        <time>2026-07-15T10:17:46Z</time>
      </trkpt>
      <trkpt lat="42.87331" lon="-0.19385">
        <ele>2405.4</ele>
        <time>2026-07-15T10:17:47Z</time>
      </trkpt>
      <trkpt lat="42.87331" lon="-0.19385">
        <ele>2405.4</ele>
        <time>2026-07-15T10:17:48Z</time>
      </trkpt>
      <trkpt lat="42.8733" lon="-0.19385">
        <ele>2405.4</ele>
        <time>2026-07-15T10:17:49Z</time>
      </trkpt>
      <trkpt lat="42.8733" lon="-0.19385">
        <ele>2403.4</ele>
        <time>2026-07-15T10:17:50Z</time>
      </trkpt>
      <trkpt lat="42.8733" lon="-0.19385">
        <ele>2403.4</ele>
        <time>2026-07-15T10:17:51Z</time>
      </trkpt>
      <trkpt lat="42.8733" lon="-0.19385">
        <ele>2402.4</ele>
        <time>2026-07-15T10:17:52Z</time>
      </trkpt>
      <trkpt lat="42.8733" lon="-0.19385">
        <ele>2402.4</ele>
        <time>2026-07-15T10:17:53Z</time>
      </trkpt>
      <trkpt lat="42.8733" lon="-0.19385">
        <ele>2402.4</ele>
        <time>2026-07-15T10:17:54Z</time>
      </trkpt>
      <trkpt lat="42.8733" lon="-0.19385">
        <ele>2401.4</ele>
        <time>2026-07-15T10:17:55Z</time>
      </trkpt>
      <trkpt lat="42.8733" lon="-0.19384">
        <ele>2401.4</ele>
        <time>2026-07-15T10:17:56Z</time>
      </trkpt>
      <trkpt lat="42.8733" lon="-0.19384">
        <ele>2401.4</ele>
        <time>2026-07-15T10:17:57Z</time>
      </trkpt>
      <trkpt lat="42.87329" lon="-0.19384">
        <ele>2401.4</ele>
        <time>2026-07-15T10:17:58Z</time>
      </trkpt>
      <trkpt lat="42.87329" lon="-0.19383">
        <ele>2400.4</ele>
        <time>2026-07-15T10:17:58Z</time>
      </trkpt>
      <trkpt lat="42.87329" lon="-0.19382">
        <ele>2400.4</ele>
        <time>2026-07-15T10:17:59Z</time>
      </trkpt>
      <trkpt lat="42.87329" lon="-0.19381">
        <ele>2400.4</ele>
        <time>2026-07-15T10:18:00Z</time>
      </trkpt>
      <trkpt lat="42.87329" lon="-0.19381">
        <ele>2400.4</ele>
        <time>2026-07-15T10:18:01Z</time>
      </trkpt>
      <trkpt lat="42.87329" lon="-0.19381">
        <ele>2400.4</ele>
        <time>2026-07-15T10:18:02Z</time>
      </trkpt>
      <trkpt lat="42.87329" lon="-0.19381">
        <ele>2400.4</ele>
        <time>2026-07-15T10:18:03Z</time>
      </trkpt>
      <trkpt lat="42.87329" lon="-0.1938">
        <ele>2400.4</ele>
        <time>2026-07-15T10:18:03Z</time>
      </trkpt>
      <trkpt lat="42.87329" lon="-0.1938">
        <ele>2400.4</ele>
        <time>2026-07-15T10:18:04Z</time>
      </trkpt>
      <trkpt lat="42.87329" lon="-0.1938">
        <ele>2400.4</ele>
        <time>2026-07-15T10:18:05Z</time>
      </trkpt>
      <trkpt lat="42.87329" lon="-0.1938">
        <ele>2399.4</ele>
        <time>2026-07-15T10:18:05Z</time>
      </trkpt>
      <trkpt lat="42.87328" lon="-0.19379">
        <ele>2399.4</ele>
        <time>2026-07-15T10:18:06Z</time>
      </trkpt>
      <trkpt lat="42.87328" lon="-0.19379">
        <ele>2399.4</ele>
        <time>2026-07-15T10:18:07Z</time>
      </trkpt>
      <trkpt lat="42.87329" lon="-0.19378">
        <ele>2399.4</ele>
        <time>2026-07-15T10:18:08Z</time>
      </trkpt>
      <trkpt lat="42.87329" lon="-0.19377">
        <ele>2398.4</ele>
        <time>2026-07-15T10:18:08Z</time>
      </trkpt>
      <trkpt lat="42.87329" lon="-0.19377">
        <ele>2398.4</ele>
        <time>2026-07-15T10:18:09Z</time>
      </trkpt>
      <trkpt lat="42.87328" lon="-0.19376">
        <ele>2398.4</ele>
        <time>2026-07-15T10:18:10Z</time>
      </trkpt>
      <trkpt lat="42.87328" lon="-0.19374">
        <ele>2398.4</ele>
        <time>2026-07-15T10:18:10Z</time>
      </trkpt>
      <trkpt lat="42.87327" lon="-0.19373">
        <ele>2397.4</ele>
        <time>2026-07-15T10:18:11Z</time>
      </trkpt>
      <trkpt lat="42.87327" lon="-0.19372">
        <ele>2397.4</ele>
        <time>2026-07-15T10:18:12Z</time>
      </trkpt>
      <trkpt lat="42.87326" lon="-0.19372">
        <ele>2397.4</ele>
        <time>2026-07-15T10:18:12Z</time>
      </trkpt>
      <trkpt lat="42.87326" lon="-0.19371">
        <ele>2397.4</ele>
        <time>2026-07-15T10:18:13Z</time>
      </trkpt>
      <trkpt lat="42.87325" lon="-0.19371">
        <ele>2397.4</ele>
        <time>2026-07-15T10:18:13Z</time>
      </trkpt>
      <trkpt lat="42.87325" lon="-0.19371">
        <ele>2397.4</ele>
        <time>2026-07-15T10:18:14Z</time>
      </trkpt>
      <trkpt lat="42.87324" lon="-0.1937">
        <ele>2397.4</ele>
        <time>2026-07-15T10:18:15Z</time>
      </trkpt>
      <trkpt lat="42.87324" lon="-0.1937">
        <ele>2397.4</ele>
        <time>2026-07-15T10:18:16Z</time>
      </trkpt>
      <trkpt lat="42.87324" lon="-0.1937">
        <ele>2397.4</ele>
        <time>2026-07-15T10:18:16Z</time>
      </trkpt>
      <trkpt lat="42.87324" lon="-0.1937">
        <ele>2397.4</ele>
        <time>2026-07-15T10:18:17Z</time>
      </trkpt>
      <trkpt lat="42.87324" lon="-0.19369">
        <ele>2398.4</ele>
        <time>2026-07-15T10:18:18Z</time>
      </trkpt>
      <trkpt lat="42.87323" lon="-0.19368">
        <ele>2397.4</ele>
        <time>2026-07-15T10:18:19Z</time>
      </trkpt>
      <trkpt lat="42.87323" lon="-0.19368">
        <ele>2397.4</ele>
        <time>2026-07-15T10:18:19Z</time>
      </trkpt>
      <trkpt lat="42.87323" lon="-0.19368">
        <ele>2397.4</ele>
        <time>2026-07-15T10:18:20Z</time>
      </trkpt>
      <trkpt lat="42.87323" lon="-0.19367">
        <ele>2397.4</ele>
        <time>2026-07-15T10:18:21Z</time>
      </trkpt>
      <trkpt lat="42.87323" lon="-0.19368">
        <ele>2397.4</ele>
        <time>2026-07-15T10:18:21Z</time>
      </trkpt>
      <trkpt lat="42.87323" lon="-0.19368">
        <ele>2397.4</ele>
        <time>2026-07-15T10:18:22Z</time>
      </trkpt>
      <trkpt lat="42.87323" lon="-0.19368">
        <ele>2397.4</ele>
        <time>2026-07-15T10:18:23Z</time>
      </trkpt>
      <trkpt lat="42.87323" lon="-0.19368">
        <ele>2397.4</ele>
        <time>2026-07-15T10:18:24Z</time>
      </trkpt>
      <trkpt lat="42.87323" lon="-0.19368">
        <ele>2397.4</ele>
        <time>2026-07-15T10:18:25Z</time>
      </trkpt>
      <trkpt lat="42.87323" lon="-0.19368">
        <ele>2397.4</ele>
        <time>2026-07-15T10:18:26Z</time>
      </trkpt>
      <trkpt lat="42.87323" lon="-0.19368">
        <ele>2397.4</ele>
        <time>2026-07-15T10:18:27Z</time>
      </trkpt>
      <trkpt lat="42.87323" lon="-0.19368">
        <ele>2397.4</ele>
        <time>2026-07-15T10:18:28Z</time>
      </trkpt>
      <trkpt lat="42.87323" lon="-0.19368">
        <ele>2397.4</ele>
        <time>2026-07-15T10:18:29Z</time>
      </trkpt>
      <trkpt lat="42.87323" lon="-0.19368">
        <ele>2397.4</ele>
        <time>2026-07-15T10:18:30Z</time>
      </trkpt>
      <trkpt lat="42.87323" lon="-0.19367">
        <ele>2397.4</ele>
        <time>2026-07-15T10:18:31Z</time>
      </trkpt>
      <trkpt lat="42.87323" lon="-0.19367">
        <ele>2397.4</ele>
        <time>2026-07-15T10:18:32Z</time>
      </trkpt>
      <trkpt lat="42.87323" lon="-0.19367">
        <ele>2397.4</ele>
        <time>2026-07-15T10:18:33Z</time>
      </trkpt>
      <trkpt lat="42.87323" lon="-0.19367">
        <ele>2397.4</ele>
        <time>2026-07-15T10:18:34Z</time>
      </trkpt>
      <trkpt lat="42.87323" lon="-0.19367">
        <ele>2396.4</ele>
        <time>2026-07-15T10:18:35Z</time>
      </trkpt>
      <trkpt lat="42.87323" lon="-0.19366">
        <ele>2396.4</ele>
        <time>2026-07-15T10:18:35Z</time>
      </trkpt>
      <trkpt lat="42.87322" lon="-0.19366">
        <ele>2396.4</ele>
        <time>2026-07-15T10:18:36Z</time>
      </trkpt>
      <trkpt lat="42.87322" lon="-0.19366">
        <ele>2396.4</ele>
        <time>2026-07-15T10:18:37Z</time>
      </trkpt>
      <trkpt lat="42.87322" lon="-0.19365">
        <ele>2396.4</ele>
        <time>2026-07-15T10:18:38Z</time>
      </trkpt>
      <trkpt lat="42.87322" lon="-0.19365">
        <ele>2395.4</ele>
        <time>2026-07-15T10:18:39Z</time>
      </trkpt>
      <trkpt lat="42.87322" lon="-0.19364">
        <ele>2395.4</ele>
        <time>2026-07-15T10:18:40Z</time>
      </trkpt>
      <trkpt lat="42.87322" lon="-0.19363">
        <ele>2395.4</ele>
        <time>2026-07-15T10:18:40Z</time>
      </trkpt>
      <trkpt lat="42.87322" lon="-0.19363">
        <ele>2395.4</ele>
        <time>2026-07-15T10:18:41Z</time>
      </trkpt>
      <trkpt lat="42.87322" lon="-0.19362">
        <ele>2395.4</ele>
        <time>2026-07-15T10:18:41Z</time>
      </trkpt>
      <trkpt lat="42.87322" lon="-0.19362">
        <ele>2395.4</ele>
        <time>2026-07-15T10:18:42Z</time>
      </trkpt>
      <trkpt lat="42.87322" lon="-0.19361">
        <ele>2395.4</ele>
        <time>2026-07-15T10:18:43Z</time>
      </trkpt>
      <trkpt lat="42.87322" lon="-0.1936">
        <ele>2394.4</ele>
        <time>2026-07-15T10:18:44Z</time>
      </trkpt>
      <trkpt lat="42.87322" lon="-0.19359">
        <ele>2393.4</ele>
        <time>2026-07-15T10:18:45Z</time>
      </trkpt>
      <trkpt lat="42.87321" lon="-0.19358">
        <ele>2394.4</ele>
        <time>2026-07-15T10:18:46Z</time>
      </trkpt>
      <trkpt lat="42.87321" lon="-0.19357">
        <ele>2394.4</ele>
        <time>2026-07-15T10:18:47Z</time>
      </trkpt>
      <trkpt lat="42.87321" lon="-0.19356">
        <ele>2395.4</ele>
        <time>2026-07-15T10:18:48Z</time>
      </trkpt>
      <trkpt lat="42.87321" lon="-0.19355">
        <ele>2395.4</ele>
        <time>2026-07-15T10:18:49Z</time>
      </trkpt>
      <trkpt lat="42.87321" lon="-0.19354">
        <ele>2395.4</ele>
        <time>2026-07-15T10:18:50Z</time>
      </trkpt>
      <trkpt lat="42.87321" lon="-0.19353">
        <ele>2395.4</ele>
        <time>2026-07-15T10:18:50Z</time>
      </trkpt>
      <trkpt lat="42.87321" lon="-0.19353">
        <ele>2395.4</ele>
        <time>2026-07-15T10:18:51Z</time>
      </trkpt>
      <trkpt lat="42.8732" lon="-0.19352">
        <ele>2395.4</ele>
        <time>2026-07-15T10:18:52Z</time>
      </trkpt>
      <trkpt lat="42.8732" lon="-0.1935">
        <ele>2395.4</ele>
        <time>2026-07-15T10:18:53Z</time>
      </trkpt>
      <trkpt lat="42.8732" lon="-0.1935">
        <ele>2394.4</ele>
        <time>2026-07-15T10:18:53Z</time>
      </trkpt>
      <trkpt lat="42.87321" lon="-0.19349">
        <ele>2394.4</ele>
        <time>2026-07-15T10:18:54Z</time>
      </trkpt>
      <trkpt lat="42.87321" lon="-0.19348">
        <ele>2394.4</ele>
        <time>2026-07-15T10:18:55Z</time>
      </trkpt>
      <trkpt lat="42.87321" lon="-0.19348">
        <ele>2394.4</ele>
        <time>2026-07-15T10:18:56Z</time>
      </trkpt>
      <trkpt lat="42.87321" lon="-0.19348">
        <ele>2393.4</ele>
        <time>2026-07-15T10:18:57Z</time>
      </trkpt>
      <trkpt lat="42.87321" lon="-0.19347">
        <ele>2393.4</ele>
        <time>2026-07-15T10:18:58Z</time>
      </trkpt>
      <trkpt lat="42.87321" lon="-0.19348">
        <ele>2392.4</ele>
        <time>2026-07-15T10:18:59Z</time>
      </trkpt>
      <trkpt lat="42.87321" lon="-0.19348">
        <ele>2392.4</ele>
        <time>2026-07-15T10:18:59Z</time>
      </trkpt>
      <trkpt lat="42.87321" lon="-0.19348">
        <ele>2392.4</ele>
        <time>2026-07-15T10:19:00Z</time>
      </trkpt>
      <trkpt lat="42.87321" lon="-0.19348">
        <ele>2392.4</ele>
        <time>2026-07-15T10:19:01Z</time>
      </trkpt>
      <trkpt lat="42.87322" lon="-0.19348">
        <ele>2391.4</ele>
        <time>2026-07-15T10:19:02Z</time>
      </trkpt>
      <trkpt lat="42.87322" lon="-0.19348">
        <ele>2391.4</ele>
        <time>2026-07-15T10:19:03Z</time>
      </trkpt>
      <trkpt lat="42.87322" lon="-0.19348">
        <ele>2392.4</ele>
        <time>2026-07-15T10:19:03Z</time>
      </trkpt>
      <trkpt lat="42.87323" lon="-0.19348">
        <ele>2392.4</ele>
        <time>2026-07-15T10:19:04Z</time>
      </trkpt>
      <trkpt lat="42.87323" lon="-0.19348">
        <ele>2391.4</ele>
        <time>2026-07-15T10:19:05Z</time>
      </trkpt>
      <trkpt lat="42.87323" lon="-0.19347">
        <ele>2391.4</ele>
        <time>2026-07-15T10:19:05Z</time>
      </trkpt>
      <trkpt lat="42.87324" lon="-0.19347">
        <ele>2391.4</ele>
        <time>2026-07-15T10:19:06Z</time>
      </trkpt>
      <trkpt lat="42.87324" lon="-0.19347">
        <ele>2390.4</ele>
        <time>2026-07-15T10:19:07Z</time>
      </trkpt>
      <trkpt lat="42.87324" lon="-0.19347">
        <ele>2391.4</ele>
        <time>2026-07-15T10:19:08Z</time>
      </trkpt>
      <trkpt lat="42.87324" lon="-0.19347">
        <ele>2391.4</ele>
        <time>2026-07-15T10:19:09Z</time>
      </trkpt>
      <trkpt lat="42.87323" lon="-0.19347">
        <ele>2391.4</ele>
        <time>2026-07-15T10:19:09Z</time>
      </trkpt>
      <trkpt lat="42.87323" lon="-0.19347">
        <ele>2391.4</ele>
        <time>2026-07-15T10:19:10Z</time>
      </trkpt>
      <trkpt lat="42.87323" lon="-0.19346">
        <ele>2391.4</ele>
        <time>2026-07-15T10:19:10Z</time>
      </trkpt>
      <trkpt lat="42.87323" lon="-0.19346">
        <ele>2390.4</ele>
        <time>2026-07-15T10:19:11Z</time>
      </trkpt>
      <trkpt lat="42.87323" lon="-0.19346">
        <ele>2390.4</ele>
        <time>2026-07-15T10:19:12Z</time>
      </trkpt>
      <trkpt lat="42.87323" lon="-0.19345">
        <ele>2390.4</ele>
        <time>2026-07-15T10:19:13Z</time>
      </trkpt>
      <trkpt lat="42.87323" lon="-0.19345">
        <ele>2390.4</ele>
        <time>2026-07-15T10:19:14Z</time>
      </trkpt>
      <trkpt lat="42.87323" lon="-0.19344">
        <ele>2390.4</ele>
        <time>2026-07-15T10:19:14Z</time>
      </trkpt>
      <trkpt lat="42.87323" lon="-0.19344">
        <ele>2390.4</ele>
        <time>2026-07-15T10:19:15Z</time>
      </trkpt>
      <trkpt lat="42.87323" lon="-0.19344">
        <ele>2389.4</ele>
        <time>2026-07-15T10:19:16Z</time>
      </trkpt>
      <trkpt lat="42.87323" lon="-0.19343">
        <ele>2388.4</ele>
        <time>2026-07-15T10:19:17Z</time>
      </trkpt>
      <trkpt lat="42.87323" lon="-0.19343">
        <ele>2388.4</ele>
        <time>2026-07-15T10:19:18Z</time>
      </trkpt>
      <trkpt lat="42.87323" lon="-0.19343">
        <ele>2388.4</ele>
        <time>2026-07-15T10:19:19Z</time>
      </trkpt>
      <trkpt lat="42.87323" lon="-0.19343">
        <ele>2388.4</ele>
        <time>2026-07-15T10:19:20Z</time>
      </trkpt>
      <trkpt lat="42.87323" lon="-0.19342">
        <ele>2388.4</ele>
        <time>2026-07-15T10:19:20Z</time>
      </trkpt>
      <trkpt lat="42.87323" lon="-0.19342">
        <ele>2388.4</ele>
        <time>2026-07-15T10:19:21Z</time>
      </trkpt>
      <trkpt lat="42.87323" lon="-0.19341">
        <ele>2388.4</ele>
        <time>2026-07-15T10:19:22Z</time>
      </trkpt>
      <trkpt lat="42.87323" lon="-0.19341">
        <ele>2388.4</ele>
        <time>2026-07-15T10:19:23Z</time>
      </trkpt>
      <trkpt lat="42.87323" lon="-0.1934">
        <ele>2388.4</ele>
        <time>2026-07-15T10:19:24Z</time>
      </trkpt>
      <trkpt lat="42.87323" lon="-0.1934">
        <ele>2388.4</ele>
        <time>2026-07-15T10:19:25Z</time>
      </trkpt>
      <trkpt lat="42.87323" lon="-0.1934">
        <ele>2388.4</ele>
        <time>2026-07-15T10:19:25Z</time>
      </trkpt>
      <trkpt lat="42.87323" lon="-0.1934">
        <ele>2387.4</ele>
        <time>2026-07-15T10:19:26Z</time>
      </trkpt>
      <trkpt lat="42.87323" lon="-0.19339">
        <ele>2387.4</ele>
        <time>2026-07-15T10:19:27Z</time>
      </trkpt>
      <trkpt lat="42.87323" lon="-0.19339">
        <ele>2387.4</ele>
        <time>2026-07-15T10:19:28Z</time>
      </trkpt>
      <trkpt lat="42.87323" lon="-0.19339">
        <ele>2387.4</ele>
        <time>2026-07-15T10:19:28Z</time>
      </trkpt>
      <trkpt lat="42.87323" lon="-0.19339">
        <ele>2387.4</ele>
        <time>2026-07-15T10:19:29Z</time>
      </trkpt>
      <trkpt lat="42.87323" lon="-0.19338">
        <ele>2387.4</ele>
        <time>2026-07-15T10:19:30Z</time>
      </trkpt>
      <trkpt lat="42.87323" lon="-0.19338">
        <ele>2387.4</ele>
        <time>2026-07-15T10:19:31Z</time>
      </trkpt>
      <trkpt lat="42.87323" lon="-0.19339">
        <ele>2387.4</ele>
        <time>2026-07-15T10:19:32Z</time>
      </trkpt>
      <trkpt lat="42.87323" lon="-0.19339">
        <ele>2387.4</ele>
        <time>2026-07-15T10:19:33Z</time>
      </trkpt>
      <trkpt lat="42.87323" lon="-0.19339">
        <ele>2387.4</ele>
        <time>2026-07-15T10:19:34Z</time>
      </trkpt>
      <trkpt lat="42.87322" lon="-0.19339">
        <ele>2387.4</ele>
        <time>2026-07-15T10:19:35Z</time>
      </trkpt>
      <trkpt lat="42.87323" lon="-0.19339">
        <ele>2387.4</ele>
        <time>2026-07-15T10:19:36Z</time>
      </trkpt>
      <trkpt lat="42.87323" lon="-0.19338">
        <ele>2387.4</ele>
        <time>2026-07-15T10:19:37Z</time>
      </trkpt>
      <trkpt lat="42.87323" lon="-0.19338">
        <ele>2386.4</ele>
        <time>2026-07-15T10:19:37Z</time>
      </trkpt>
      <trkpt lat="42.87323" lon="-0.19338">
        <ele>2386.4</ele>
        <time>2026-07-15T10:19:38Z</time>
      </trkpt>
      <trkpt lat="42.87323" lon="-0.19338">
        <ele>2386.4</ele>
        <time>2026-07-15T10:19:39Z</time>
      </trkpt>
      <trkpt lat="42.87324" lon="-0.19338">
        <ele>2386.4</ele>
        <time>2026-07-15T10:19:39Z</time>
      </trkpt>
      <trkpt lat="42.87324" lon="-0.19337">
        <ele>2386.4</ele>
        <time>2026-07-15T10:19:40Z</time>
      </trkpt>
      <trkpt lat="42.87324" lon="-0.19337">
        <ele>2386.4</ele>
        <time>2026-07-15T10:19:41Z</time>
      </trkpt>
      <trkpt lat="42.87325" lon="-0.19336">
        <ele>2386.4</ele>
        <time>2026-07-15T10:19:42Z</time>
      </trkpt>
      <trkpt lat="42.87325" lon="-0.19336">
        <ele>2386.4</ele>
        <time>2026-07-15T10:19:43Z</time>
      </trkpt>
      <trkpt lat="42.87325" lon="-0.19336">
        <ele>2386.4</ele>
        <time>2026-07-15T10:19:44Z</time>
      </trkpt>
      <trkpt lat="42.87325" lon="-0.19336">
        <ele>2386.4</ele>
        <time>2026-07-15T10:19:44Z</time>
      </trkpt>
      <trkpt lat="42.87325" lon="-0.19336">
        <ele>2386.4</ele>
        <time>2026-07-15T10:19:45Z</time>
      </trkpt>
      <trkpt lat="42.87325" lon="-0.19336">
        <ele>2386.4</ele>
        <time>2026-07-15T10:19:45Z</time>
      </trkpt>
      <trkpt lat="42.87326" lon="-0.19335">
        <ele>2385.4</ele>
        <time>2026-07-15T10:19:46Z</time>
      </trkpt>
      <trkpt lat="42.87326" lon="-0.19335">
        <ele>2384.4</ele>
        <time>2026-07-15T10:19:47Z</time>
      </trkpt>
      <trkpt lat="42.87326" lon="-0.19335">
        <ele>2385.4</ele>
        <time>2026-07-15T10:19:48Z</time>
      </trkpt>
      <trkpt lat="42.87326" lon="-0.19335">
        <ele>2385.4</ele>
        <time>2026-07-15T10:19:49Z</time>
      </trkpt>
      <trkpt lat="42.87326" lon="-0.19335">
        <ele>2384.4</ele>
        <time>2026-07-15T10:19:50Z</time>
      </trkpt>
      <trkpt lat="42.87327" lon="-0.19335">
        <ele>2384.4</ele>
        <time>2026-07-15T10:19:51Z</time>
      </trkpt>
      <trkpt lat="42.87327" lon="-0.19335">
        <ele>2384.4</ele>
        <time>2026-07-15T10:19:52Z</time>
      </trkpt>
      <trkpt lat="42.87327" lon="-0.19335">
        <ele>2384.4</ele>
        <time>2026-07-15T10:19:53Z</time>
      </trkpt>
      <trkpt lat="42.87327" lon="-0.19335">
        <ele>2384.4</ele>
        <time>2026-07-15T10:19:54Z</time>
      </trkpt>
      <trkpt lat="42.87327" lon="-0.19335">
        <ele>2384.4</ele>
        <time>2026-07-15T10:19:55Z</time>
      </trkpt>
      <trkpt lat="42.87327" lon="-0.19335">
        <ele>2384.4</ele>
        <time>2026-07-15T10:19:56Z</time>
      </trkpt>
      <trkpt lat="42.87327" lon="-0.19335">
        <ele>2384.4</ele>
        <time>2026-07-15T10:19:57Z</time>
      </trkpt>
      <trkpt lat="42.87327" lon="-0.19335">
        <ele>2384.4</ele>
        <time>2026-07-15T10:19:58Z</time>
      </trkpt>
      <trkpt lat="42.87327" lon="-0.19335">
        <ele>2384.4</ele>
        <time>2026-07-15T10:19:59Z</time>
      </trkpt>
      <trkpt lat="42.87327" lon="-0.19335">
        <ele>2383.4</ele>
        <time>2026-07-15T10:20:00Z</time>
      </trkpt>
      <trkpt lat="42.87327" lon="-0.19334">
        <ele>2384.4</ele>
        <time>2026-07-15T10:20:01Z</time>
      </trkpt>
      <trkpt lat="42.87327" lon="-0.19334">
        <ele>2384.4</ele>
        <time>2026-07-15T10:20:02Z</time>
      </trkpt>
      <trkpt lat="42.87327" lon="-0.19334">
        <ele>2385.4</ele>
        <time>2026-07-15T10:20:02Z</time>
      </trkpt>
      <trkpt lat="42.87327" lon="-0.19334">
        <ele>2385.4</ele>
        <time>2026-07-15T10:20:03Z</time>
      </trkpt>
      <trkpt lat="42.87327" lon="-0.19334">
        <ele>2385.4</ele>
        <time>2026-07-15T10:20:04Z</time>
      </trkpt>
      <trkpt lat="42.87328" lon="-0.19333">
        <ele>2386.4</ele>
        <time>2026-07-15T10:20:05Z</time>
      </trkpt>
      <trkpt lat="42.87328" lon="-0.19333">
        <ele>2386.4</ele>
        <time>2026-07-15T10:20:06Z</time>
      </trkpt>
      <trkpt lat="42.87328" lon="-0.19332">
        <ele>2386.4</ele>
        <time>2026-07-15T10:20:07Z</time>
      </trkpt>
      <trkpt lat="42.87328" lon="-0.19332">
        <ele>2386.4</ele>
        <time>2026-07-15T10:20:08Z</time>
      </trkpt>
      <trkpt lat="42.87328" lon="-0.19332">
        <ele>2386.4</ele>
        <time>2026-07-15T10:20:09Z</time>
      </trkpt>
      <trkpt lat="42.87328" lon="-0.19332">
        <ele>2386.4</ele>
        <time>2026-07-15T10:20:10Z</time>
      </trkpt>
      <trkpt lat="42.87328" lon="-0.19332">
        <ele>2386.4</ele>
        <time>2026-07-15T10:20:11Z</time>
      </trkpt>
      <trkpt lat="42.87328" lon="-0.19332">
        <ele>2385.4</ele>
        <time>2026-07-15T10:20:12Z</time>
      </trkpt>
      <trkpt lat="42.87328" lon="-0.19331">
        <ele>2387.4</ele>
        <time>2026-07-15T10:20:13Z</time>
      </trkpt>
      <trkpt lat="42.87328" lon="-0.19331">
        <ele>2388.4</ele>
        <time>2026-07-15T10:20:14Z</time>
      </trkpt>
      <trkpt lat="42.87328" lon="-0.19331">
        <ele>2388.4</ele>
        <time>2026-07-15T10:20:15Z</time>
      </trkpt>
      <trkpt lat="42.87328" lon="-0.19331">
        <ele>2388.4</ele>
        <time>2026-07-15T10:20:16Z</time>
      </trkpt>
      <trkpt lat="42.87329" lon="-0.19331">
        <ele>2387.4</ele>
        <time>2026-07-15T10:20:17Z</time>
      </trkpt>
      <trkpt lat="42.87329" lon="-0.19331">
        <ele>2387.4</ele>
        <time>2026-07-15T10:20:18Z</time>
      </trkpt>
      <trkpt lat="42.87329" lon="-0.19331">
        <ele>2387.4</ele>
        <time>2026-07-15T10:20:19Z</time>
      </trkpt>
      <trkpt lat="42.87329" lon="-0.19331">
        <ele>2387.4</ele>
        <time>2026-07-15T10:20:20Z</time>
      </trkpt>
      <trkpt lat="42.87329" lon="-0.19331">
        <ele>2387.4</ele>
        <time>2026-07-15T10:20:21Z</time>
      </trkpt>
      <trkpt lat="42.87329" lon="-0.19331">
        <ele>2387.4</ele>
        <time>2026-07-15T10:20:21Z</time>
      </trkpt>
      <trkpt lat="42.87329" lon="-0.19331">
        <ele>2387.4</ele>
        <time>2026-07-15T10:20:22Z</time>
      </trkpt>
      <trkpt lat="42.87329" lon="-0.19331">
        <ele>2387.4</ele>
        <time>2026-07-15T10:20:23Z</time>
      </trkpt>
      <trkpt lat="42.87329" lon="-0.19331">
        <ele>2387.4</ele>
        <time>2026-07-15T10:20:24Z</time>
      </trkpt>
      <trkpt lat="42.87329" lon="-0.19331">
        <ele>2387.4</ele>
        <time>2026-07-15T10:20:25Z</time>
      </trkpt>
      <trkpt lat="42.87329" lon="-0.19331">
        <ele>2387.4</ele>
        <time>2026-07-15T10:20:26Z</time>
      </trkpt>
      <trkpt lat="42.87329" lon="-0.19331">
        <ele>2387.4</ele>
        <time>2026-07-15T10:20:26Z</time>
      </trkpt>
      <trkpt lat="42.87329" lon="-0.1933">
        <ele>2387.4</ele>
        <time>2026-07-15T10:20:27Z</time>
      </trkpt>
      <trkpt lat="42.87329" lon="-0.1933">
        <ele>2387.4</ele>
        <time>2026-07-15T10:20:28Z</time>
      </trkpt>
      <trkpt lat="42.87328" lon="-0.1933">
        <ele>2387.4</ele>
        <time>2026-07-15T10:20:29Z</time>
      </trkpt>
      <trkpt lat="42.87328" lon="-0.1933">
        <ele>2387.4</ele>
        <time>2026-07-15T10:20:30Z</time>
      </trkpt>
      <trkpt lat="42.87328" lon="-0.1933">
        <ele>2387.4</ele>
        <time>2026-07-15T10:20:31Z</time>
      </trkpt>
      <trkpt lat="42.87328" lon="-0.1933">
        <ele>2387.4</ele>
        <time>2026-07-15T10:20:32Z</time>
      </trkpt>
      <trkpt lat="42.87328" lon="-0.1933">
        <ele>2387.4</ele>
        <time>2026-07-15T10:20:33Z</time>
      </trkpt>
      <trkpt lat="42.87328" lon="-0.1933">
        <ele>2387.4</ele>
        <time>2026-07-15T10:20:34Z</time>
      </trkpt>
      <trkpt lat="42.87328" lon="-0.1933">
        <ele>2386.4</ele>
        <time>2026-07-15T10:20:35Z</time>
      </trkpt>
      <trkpt lat="42.87328" lon="-0.1933">
        <ele>2385.4</ele>
        <time>2026-07-15T10:20:36Z</time>
      </trkpt>
      <trkpt lat="42.87328" lon="-0.1933">
        <ele>2384.4</ele>
        <time>2026-07-15T10:20:37Z</time>
      </trkpt>
      <trkpt lat="42.87328" lon="-0.1933">
        <ele>2384.4</ele>
        <time>2026-07-15T10:20:38Z</time>
      </trkpt>
      <trkpt lat="42.87328" lon="-0.1933">
        <ele>2384.4</ele>
        <time>2026-07-15T10:20:39Z</time>
      </trkpt>
      <trkpt lat="42.87328" lon="-0.1933">
        <ele>2384.4</ele>
        <time>2026-07-15T10:20:40Z</time>
      </trkpt>
      <trkpt lat="42.87328" lon="-0.19329">
        <ele>2383.4</ele>
        <time>2026-07-15T10:20:41Z</time>
      </trkpt>
      <trkpt lat="42.87329" lon="-0.19329">
        <ele>2383.4</ele>
        <time>2026-07-15T10:20:42Z</time>
      </trkpt>
      <trkpt lat="42.87329" lon="-0.19329">
        <ele>2383.4</ele>
        <time>2026-07-15T10:20:43Z</time>
      </trkpt>
      <trkpt lat="42.87329" lon="-0.19329">
        <ele>2383.4</ele>
        <time>2026-07-15T10:20:44Z</time>
      </trkpt>
      <trkpt lat="42.87329" lon="-0.19329">
        <ele>2383.4</ele>
        <time>2026-07-15T10:20:45Z</time>
      </trkpt>
      <trkpt lat="42.87329" lon="-0.19329">
        <ele>2383.4</ele>
        <time>2026-07-15T10:20:46Z</time>
      </trkpt>
      <trkpt lat="42.87329" lon="-0.19329">
        <ele>2382.4</ele>
        <time>2026-07-15T10:20:47Z</time>
      </trkpt>
      <trkpt lat="42.87329" lon="-0.19328">
        <ele>2381.4</ele>
        <time>2026-07-15T10:20:48Z</time>
      </trkpt>
      <trkpt lat="42.87329" lon="-0.19328">
        <ele>2381.4</ele>
        <time>2026-07-15T10:20:49Z</time>
      </trkpt>
      <trkpt lat="42.87329" lon="-0.19329">
        <ele>2381.4</ele>
        <time>2026-07-15T10:20:50Z</time>
      </trkpt>
      <trkpt lat="42.87329" lon="-0.19329">
        <ele>2381.4</ele>
        <time>2026-07-15T10:20:51Z</time>
      </trkpt>
      <trkpt lat="42.87329" lon="-0.19328">
        <ele>2383.4</ele>
        <time>2026-07-15T10:20:52Z</time>
      </trkpt>
      <trkpt lat="42.8733" lon="-0.19328">
        <ele>2383.4</ele>
        <time>2026-07-15T10:20:53Z</time>
      </trkpt>
      <trkpt lat="42.8733" lon="-0.19327">
        <ele>2383.4</ele>
        <time>2026-07-15T10:20:54Z</time>
      </trkpt>
      <trkpt lat="42.87329" lon="-0.19327">
        <ele>2384.4</ele>
        <time>2026-07-15T10:20:55Z</time>
      </trkpt>
      <trkpt lat="42.87329" lon="-0.19328">
        <ele>2384.4</ele>
        <time>2026-07-15T10:20:56Z</time>
      </trkpt>
      <trkpt lat="42.87329" lon="-0.19328">
        <ele>2383.4</ele>
        <time>2026-07-15T10:20:57Z</time>
      </trkpt>
      <trkpt lat="42.87329" lon="-0.19327">
        <ele>2384.4</ele>
        <time>2026-07-15T10:20:58Z</time>
      </trkpt>
      <trkpt lat="42.87329" lon="-0.19327">
        <ele>2384.4</ele>
        <time>2026-07-15T10:20:59Z</time>
      </trkpt>
      <trkpt lat="42.87329" lon="-0.19327">
        <ele>2383.4</ele>
        <time>2026-07-15T10:21:00Z</time>
      </trkpt>
      <trkpt lat="42.87328" lon="-0.19327">
        <ele>2383.4</ele>
        <time>2026-07-15T10:21:01Z</time>
      </trkpt>
      <trkpt lat="42.87328" lon="-0.19326">
        <ele>2383.4</ele>
        <time>2026-07-15T10:21:02Z</time>
      </trkpt>
      <trkpt lat="42.87328" lon="-0.19326">
        <ele>2383.4</ele>
        <time>2026-07-15T10:21:03Z</time>
      </trkpt>
      <trkpt lat="42.87328" lon="-0.19326">
        <ele>2383.4</ele>
        <time>2026-07-15T10:21:04Z</time>
      </trkpt>
      <trkpt lat="42.87328" lon="-0.19326">
        <ele>2383.4</ele>
        <time>2026-07-15T10:21:05Z</time>
      </trkpt>
      <trkpt lat="42.87327" lon="-0.19326">
        <ele>2383.4</ele>
        <time>2026-07-15T10:21:06Z</time>
      </trkpt>
      <trkpt lat="42.87327" lon="-0.19327">
        <ele>2383.4</ele>
        <time>2026-07-15T10:21:07Z</time>
      </trkpt>
      <trkpt lat="42.87327" lon="-0.19327">
        <ele>2383.4</ele>
        <time>2026-07-15T10:21:08Z</time>
      </trkpt>
      <trkpt lat="42.87326" lon="-0.19327">
        <ele>2383.4</ele>
        <time>2026-07-15T10:21:09Z</time>
      </trkpt>
      <trkpt lat="42.87326" lon="-0.19327">
        <ele>2384.4</ele>
        <time>2026-07-15T10:21:10Z</time>
      </trkpt>
      <trkpt lat="42.87326" lon="-0.19327">
        <ele>2384.4</ele>
        <time>2026-07-15T10:21:11Z</time>
      </trkpt>
      <trkpt lat="42.87325" lon="-0.19327">
        <ele>2384.4</ele>
        <time>2026-07-15T10:21:12Z</time>
      </trkpt>
      <trkpt lat="42.87325" lon="-0.19327">
        <ele>2384.4</ele>
        <time>2026-07-15T10:21:13Z</time>
      </trkpt>
      <trkpt lat="42.87325" lon="-0.19327">
        <ele>2384.4</ele>
        <time>2026-07-15T10:21:14Z</time>
      </trkpt>
      <trkpt lat="42.87324" lon="-0.19327">
        <ele>2384.4</ele>
        <time>2026-07-15T10:21:15Z</time>
      </trkpt>
      <trkpt lat="42.87324" lon="-0.19327">
        <ele>2385.4</ele>
        <time>2026-07-15T10:21:16Z</time>
      </trkpt>
      <trkpt lat="42.87324" lon="-0.19327">
        <ele>2385.4</ele>
        <time>2026-07-15T10:21:17Z</time>
      </trkpt>
      <trkpt lat="42.87324" lon="-0.19327">
        <ele>2384.4</ele>
        <time>2026-07-15T10:21:17Z</time>
      </trkpt>
      <trkpt lat="42.87323" lon="-0.19328">
        <ele>2383.4</ele>
        <time>2026-07-15T10:21:18Z</time>
      </trkpt>
      <trkpt lat="42.87323" lon="-0.19328">
        <ele>2382.4</ele>
        <time>2026-07-15T10:21:19Z</time>
      </trkpt>
      <trkpt lat="42.87322" lon="-0.19328">
        <ele>2382.4</ele>
        <time>2026-07-15T10:21:20Z</time>
      </trkpt>
      <trkpt lat="42.87322" lon="-0.19329">
        <ele>2382.4</ele>
        <time>2026-07-15T10:21:21Z</time>
      </trkpt>
      <trkpt lat="42.87321" lon="-0.19329">
        <ele>2381.4</ele>
        <time>2026-07-15T10:21:22Z</time>
      </trkpt>
      <trkpt lat="42.8732" lon="-0.19329">
        <ele>2380.4</ele>
        <time>2026-07-15T10:21:23Z</time>
      </trkpt>
      <trkpt lat="42.87319" lon="-0.19329">
        <ele>2380.4</ele>
        <time>2026-07-15T10:21:24Z</time>
      </trkpt>
      <trkpt lat="42.87319" lon="-0.19329">
        <ele>2381.4</ele>
        <time>2026-07-15T10:21:25Z</time>
      </trkpt>
      <trkpt lat="42.87319" lon="-0.19329">
        <ele>2380.4</ele>
        <time>2026-07-15T10:21:26Z</time>
      </trkpt>
      <trkpt lat="42.87319" lon="-0.19329">
        <ele>2380.4</ele>
        <time>2026-07-15T10:21:27Z</time>
      </trkpt>
      <trkpt lat="42.87319" lon="-0.19329">
        <ele>2381.4</ele>
        <time>2026-07-15T10:21:28Z</time>
      </trkpt>
      <trkpt lat="42.87319" lon="-0.19329">
        <ele>2381.4</ele>
        <time>2026-07-15T10:21:29Z</time>
      </trkpt>
      <trkpt lat="42.87319" lon="-0.19329">
        <ele>2381.4</ele>
        <time>2026-07-15T10:21:30Z</time>
      </trkpt>
      <trkpt lat="42.87319" lon="-0.1933">
        <ele>2381.4</ele>
        <time>2026-07-15T10:21:31Z</time>
      </trkpt>
      <trkpt lat="42.8732" lon="-0.1933">
        <ele>2381.4</ele>
        <time>2026-07-15T10:21:32Z</time>
      </trkpt>
      <trkpt lat="42.8732" lon="-0.1933">
        <ele>2381.4</ele>
        <time>2026-07-15T10:21:33Z</time>
      </trkpt>
      <trkpt lat="42.8732" lon="-0.1933">
        <ele>2381.4</ele>
        <time>2026-07-15T10:21:34Z</time>
      </trkpt>
      <trkpt lat="42.8732" lon="-0.1933">
        <ele>2380.4</ele>
        <time>2026-07-15T10:21:35Z</time>
      </trkpt>
      <trkpt lat="42.8732" lon="-0.1933">
        <ele>2381.4</ele>
        <time>2026-07-15T10:21:36Z</time>
      </trkpt>
      <trkpt lat="42.87321" lon="-0.19331">
        <ele>2381.4</ele>
        <time>2026-07-15T10:21:37Z</time>
      </trkpt>
      <trkpt lat="42.87321" lon="-0.19331">
        <ele>2382.4</ele>
        <time>2026-07-15T10:21:38Z</time>
      </trkpt>
      <trkpt lat="42.87321" lon="-0.19331">
        <ele>2382.4</ele>
        <time>2026-07-15T10:21:39Z</time>
      </trkpt>
      <trkpt lat="42.87321" lon="-0.1933">
        <ele>2382.4</ele>
        <time>2026-07-15T10:21:40Z</time>
      </trkpt>
      <trkpt lat="42.87321" lon="-0.1933">
        <ele>2382.4</ele>
        <time>2026-07-15T10:21:41Z</time>
      </trkpt>
      <trkpt lat="42.87322" lon="-0.1933">
        <ele>2382.4</ele>
        <time>2026-07-15T10:21:42Z</time>
      </trkpt>
      <trkpt lat="42.87323" lon="-0.19329">
        <ele>2382.4</ele>
        <time>2026-07-15T10:21:43Z</time>
      </trkpt>
      <trkpt lat="42.87323" lon="-0.19329">
        <ele>2382.4</ele>
        <time>2026-07-15T10:21:44Z</time>
      </trkpt>
      <trkpt lat="42.87324" lon="-0.19328">
        <ele>2382.4</ele>
        <time>2026-07-15T10:21:45Z</time>
      </trkpt>
      <trkpt lat="42.87324" lon="-0.19328">
        <ele>2382.4</ele>
        <time>2026-07-15T10:21:46Z</time>
      </trkpt>
      <trkpt lat="42.87325" lon="-0.19328">
        <ele>2382.4</ele>
        <time>2026-07-15T10:21:47Z</time>
      </trkpt>
      <trkpt lat="42.87325" lon="-0.19327">
        <ele>2382.4</ele>
        <time>2026-07-15T10:21:48Z</time>
      </trkpt>
      <trkpt lat="42.87325" lon="-0.19327">
        <ele>2382.4</ele>
        <time>2026-07-15T10:21:49Z</time>
      </trkpt>
      <trkpt lat="42.87325" lon="-0.19327">
        <ele>2381.4</ele>
        <time>2026-07-15T10:21:50Z</time>
      </trkpt>
      <trkpt lat="42.87325" lon="-0.19327">
        <ele>2380.4</ele>
        <time>2026-07-15T10:21:51Z</time>
      </trkpt>
      <trkpt lat="42.87326" lon="-0.19327">
        <ele>2380.4</ele>
        <time>2026-07-15T10:21:52Z</time>
      </trkpt>
      <trkpt lat="42.87326" lon="-0.19328">
        <ele>2381.4</ele>
        <time>2026-07-15T10:21:53Z</time>
      </trkpt>
      <trkpt lat="42.87326" lon="-0.19328">
        <ele>2381.4</ele>
        <time>2026-07-15T10:21:54Z</time>
      </trkpt>
      <trkpt lat="42.87326" lon="-0.19328">
        <ele>2381.4</ele>
        <time>2026-07-15T10:21:55Z</time>
      </trkpt>
      <trkpt lat="42.87326" lon="-0.19328">
        <ele>2381.4</ele>
        <time>2026-07-15T10:21:56Z</time>
      </trkpt>
      <trkpt lat="42.87326" lon="-0.19328">
        <ele>2381.4</ele>
        <time>2026-07-15T10:21:57Z</time>
      </trkpt>
      <trkpt lat="42.87326" lon="-0.19328">
        <ele>2381.4</ele>
        <time>2026-07-15T10:21:58Z</time>
      </trkpt>
      <trkpt lat="42.87326" lon="-0.19328">
        <ele>2381.4</ele>
        <time>2026-07-15T10:21:59Z</time>
      </trkpt>
      <trkpt lat="42.87326" lon="-0.19328">
        <ele>2381.4</ele>
        <time>2026-07-15T10:22:00Z</time>
      </trkpt>
      <trkpt lat="42.87326" lon="-0.19328">
        <ele>2382.4</ele>
        <time>2026-07-15T10:22:01Z</time>
      </trkpt>
      <trkpt lat="42.87326" lon="-0.19328">
        <ele>2382.4</ele>
        <time>2026-07-15T10:22:02Z</time>
      </trkpt>
      <trkpt lat="42.87327" lon="-0.19328">
        <ele>2382.4</ele>
        <time>2026-07-15T10:22:03Z</time>
      </trkpt>
      <trkpt lat="42.87327" lon="-0.19328">
        <ele>2382.4</ele>
        <time>2026-07-15T10:22:04Z</time>
      </trkpt>
      <trkpt lat="42.87327" lon="-0.19328">
        <ele>2382.4</ele>
        <time>2026-07-15T10:22:05Z</time>
      </trkpt>
      <trkpt lat="42.87327" lon="-0.19328">
        <ele>2382.4</ele>
        <time>2026-07-15T10:22:06Z</time>
      </trkpt>
      <trkpt lat="42.87327" lon="-0.19328">
        <ele>2383.4</ele>
        <time>2026-07-15T10:22:07Z</time>
      </trkpt>
      <trkpt lat="42.87327" lon="-0.19328">
        <ele>2383.4</ele>
        <time>2026-07-15T10:22:08Z</time>
      </trkpt>
      <trkpt lat="42.87327" lon="-0.19328">
        <ele>2383.4</ele>
        <time>2026-07-15T10:22:09Z</time>
      </trkpt>
      <trkpt lat="42.87327" lon="-0.19328">
        <ele>2383.4</ele>
        <time>2026-07-15T10:22:10Z</time>
      </trkpt>
      <trkpt lat="42.87327" lon="-0.19329">
        <ele>2383.4</ele>
        <time>2026-07-15T10:22:11Z</time>
      </trkpt>
      <trkpt lat="42.87327" lon="-0.19329">
        <ele>2383.4</ele>
        <time>2026-07-15T10:22:12Z</time>
      </trkpt>
      <trkpt lat="42.87327" lon="-0.19329">
        <ele>2383.4</ele>
        <time>2026-07-15T10:22:13Z</time>
      </trkpt>
      <trkpt lat="42.87327" lon="-0.19329">
        <ele>2383.4</ele>
        <time>2026-07-15T10:22:14Z</time>
      </trkpt>
      <trkpt lat="42.87327" lon="-0.1933">
        <ele>2383.4</ele>
        <time>2026-07-15T10:22:15Z</time>
      </trkpt>
      <trkpt lat="42.87327" lon="-0.1933">
        <ele>2383.4</ele>
        <time>2026-07-15T10:22:16Z</time>
      </trkpt>
      <trkpt lat="42.87327" lon="-0.1933">
        <ele>2383.4</ele>
        <time>2026-07-15T10:22:17Z</time>
      </trkpt>
      <trkpt lat="42.87327" lon="-0.1933">
        <ele>2383.4</ele>
        <time>2026-07-15T10:22:18Z</time>
      </trkpt>
      <trkpt lat="42.87327" lon="-0.1933">
        <ele>2383.4</ele>
        <time>2026-07-15T10:22:19Z</time>
      </trkpt>
      <trkpt lat="42.87327" lon="-0.19331">
        <ele>2382.4</ele>
        <time>2026-07-15T10:22:20Z</time>
      </trkpt>
      <trkpt lat="42.87327" lon="-0.19331">
        <ele>2383.4</ele>
        <time>2026-07-15T10:22:21Z</time>
      </trkpt>
      <trkpt lat="42.87327" lon="-0.1933">
        <ele>2383.4</ele>
        <time>2026-07-15T10:22:22Z</time>
      </trkpt>
      <trkpt lat="42.87327" lon="-0.1933">
        <ele>2383.4</ele>
        <time>2026-07-15T10:22:23Z</time>
      </trkpt>
      <trkpt lat="42.87327" lon="-0.19329">
        <ele>2383.4</ele>
        <time>2026-07-15T10:22:24Z</time>
      </trkpt>
      <trkpt lat="42.87327" lon="-0.19329">
        <ele>2383.4</ele>
        <time>2026-07-15T10:22:25Z</time>
      </trkpt>
      <trkpt lat="42.87327" lon="-0.19329">
        <ele>2383.4</ele>
        <time>2026-07-15T10:22:26Z</time>
      </trkpt>
      <trkpt lat="42.87327" lon="-0.19329">
        <ele>2383.4</ele>
        <time>2026-07-15T10:22:27Z</time>
      </trkpt>
      <trkpt lat="42.87327" lon="-0.19329">
        <ele>2383.4</ele>
        <time>2026-07-15T10:22:28Z</time>
      </trkpt>
      <trkpt lat="42.87327" lon="-0.19329">
        <ele>2383.4</ele>
        <time>2026-07-15T10:22:29Z</time>
      </trkpt>
      <trkpt lat="42.87327" lon="-0.19329">
        <ele>2383.4</ele>
        <time>2026-07-15T10:22:30Z</time>
      </trkpt>
      <trkpt lat="42.87327" lon="-0.19329">
        <ele>2383.4</ele>
        <time>2026-07-15T10:22:31Z</time>
      </trkpt>
      <trkpt lat="42.87326" lon="-0.19328">
        <ele>2383.4</ele>
        <time>2026-07-15T10:22:32Z</time>
      </trkpt>
      <trkpt lat="42.87326" lon="-0.19328">
        <ele>2383.4</ele>
        <time>2026-07-15T10:22:33Z</time>
      </trkpt>
      <trkpt lat="42.87326" lon="-0.19328">
        <ele>2383.4</ele>
        <time>2026-07-15T10:22:34Z</time>
      </trkpt>
      <trkpt lat="42.87326" lon="-0.19328">
        <ele>2383.4</ele>
        <time>2026-07-15T10:22:35Z</time>
      </trkpt>
      <trkpt lat="42.87326" lon="-0.19328">
        <ele>2383.4</ele>
        <time>2026-07-15T10:22:36Z</time>
      </trkpt>
      <trkpt lat="42.87326" lon="-0.19328">
        <ele>2383.4</ele>
        <time>2026-07-15T10:22:37Z</time>
      </trkpt>
      <trkpt lat="42.87326" lon="-0.19328">
        <ele>2383.4</ele>
        <time>2026-07-15T10:22:38Z</time>
      </trkpt>
      <trkpt lat="42.87326" lon="-0.19328">
        <ele>2383.4</ele>
        <time>2026-07-15T10:22:39Z</time>
      </trkpt>
      <trkpt lat="42.87326" lon="-0.19328">
        <ele>2383.4</ele>
        <time>2026-07-15T10:22:40Z</time>
      </trkpt>
      <trkpt lat="42.87326" lon="-0.19328">
        <ele>2383.4</ele>
        <time>2026-07-15T10:22:41Z</time>
      </trkpt>
      <trkpt lat="42.87325" lon="-0.19328">
        <ele>2383.4</ele>
        <time>2026-07-15T10:22:42Z</time>
      </trkpt>
      <trkpt lat="42.87325" lon="-0.19328">
        <ele>2383.4</ele>
        <time>2026-07-15T10:22:43Z</time>
      </trkpt>
      <trkpt lat="42.87325" lon="-0.19328">
        <ele>2383.4</ele>
        <time>2026-07-15T10:22:44Z</time>
      </trkpt>
      <trkpt lat="42.87325" lon="-0.19328">
        <ele>2383.4</ele>
        <time>2026-07-15T10:22:45Z</time>
      </trkpt>
      <trkpt lat="42.87325" lon="-0.19328">
        <ele>2383.4</ele>
        <time>2026-07-15T10:22:46Z</time>
      </trkpt>
      <trkpt lat="42.87325" lon="-0.19328">
        <ele>2383.4</ele>
        <time>2026-07-15T10:22:47Z</time>
      </trkpt>
      <trkpt lat="42.87325" lon="-0.19328">
        <ele>2383.4</ele>
        <time>2026-07-15T10:22:48Z</time>
      </trkpt>
      <trkpt lat="42.87325" lon="-0.19328">
        <ele>2383.4</ele>
        <time>2026-07-15T10:22:49Z</time>
      </trkpt>
      <trkpt lat="42.87325" lon="-0.19328">
        <ele>2383.4</ele>
        <time>2026-07-15T10:22:50Z</time>
      </trkpt>
      <trkpt lat="42.87325" lon="-0.19328">
        <ele>2383.4</ele>
        <time>2026-07-15T10:22:51Z</time>
      </trkpt>
      <trkpt lat="42.87325" lon="-0.19328">
        <ele>2383.4</ele>
        <time>2026-07-15T10:22:52Z</time>
      </trkpt>
      <trkpt lat="42.87325" lon="-0.19328">
        <ele>2383.4</ele>
        <time>2026-07-15T10:22:53Z</time>
      </trkpt>
      <trkpt lat="42.87325" lon="-0.19328">
        <ele>2383.4</ele>
        <time>2026-07-15T10:22:54Z</time>
      </trkpt>
      <trkpt lat="42.87325" lon="-0.19328">
        <ele>2383.4</ele>
        <time>2026-07-15T10:22:55Z</time>
      </trkpt>
      <trkpt lat="42.87325" lon="-0.19328">
        <ele>2383.4</ele>
        <time>2026-07-15T10:22:56Z</time>
      </trkpt>
      <trkpt lat="42.87325" lon="-0.19329">
        <ele>2383.4</ele>
        <time>2026-07-15T10:22:57Z</time>
      </trkpt>
      <trkpt lat="42.87325" lon="-0.19329">
        <ele>2383.4</ele>
        <time>2026-07-15T10:22:58Z</time>
      </trkpt>
      <trkpt lat="42.87325" lon="-0.19329">
        <ele>2383.4</ele>
        <time>2026-07-15T10:22:59Z</time>
      </trkpt>
      <trkpt lat="42.87325" lon="-0.19329">
        <ele>2383.4</ele>
        <time>2026-07-15T10:23:00Z</time>
      </trkpt>
      <trkpt lat="42.87325" lon="-0.19329">
        <ele>2382.4</ele>
        <time>2026-07-15T10:23:01Z</time>
      </trkpt>
      <trkpt lat="42.87325" lon="-0.19329">
        <ele>2382.4</ele>
        <time>2026-07-15T10:23:02Z</time>
      </trkpt>
      <trkpt lat="42.87325" lon="-0.19329">
        <ele>2382.4</ele>
        <time>2026-07-15T10:23:03Z</time>
      </trkpt>
      <trkpt lat="42.87325" lon="-0.19329">
        <ele>2382.4</ele>
        <time>2026-07-15T10:23:04Z</time>
      </trkpt>
      <trkpt lat="42.87325" lon="-0.19329">
        <ele>2382.4</ele>
        <time>2026-07-15T10:23:05Z</time>
      </trkpt>
      <trkpt lat="42.87325" lon="-0.19329">
        <ele>2382.4</ele>
        <time>2026-07-15T10:23:06Z</time>
      </trkpt>
      <trkpt lat="42.87325" lon="-0.19329">
        <ele>2382.4</ele>
        <time>2026-07-15T10:23:07Z</time>
      </trkpt>
      <trkpt lat="42.87325" lon="-0.19329">
        <ele>2382.4</ele>
        <time>2026-07-15T10:23:08Z</time>
      </trkpt>
      <trkpt lat="42.87325" lon="-0.19329">
        <ele>2382.4</ele>
        <time>2026-07-15T10:23:09Z</time>
      </trkpt>
      <trkpt lat="42.87325" lon="-0.19329">
        <ele>2382.4</ele>
        <time>2026-07-15T10:23:10Z</time>
      </trkpt>
      <trkpt lat="42.87325" lon="-0.19329">
        <ele>2382.4</ele>
        <time>2026-07-15T10:23:11Z</time>
      </trkpt>
      <trkpt lat="42.87325" lon="-0.19329">
        <ele>2382.4</ele>
        <time>2026-07-15T10:23:12Z</time>
      </trkpt>
      <trkpt lat="42.87325" lon="-0.19329">
        <ele>2382.4</ele>
        <time>2026-07-15T10:23:13Z</time>
      </trkpt>
      <trkpt lat="42.87325" lon="-0.19329">
        <ele>2382.4</ele>
        <time>2026-07-15T10:23:14Z</time>
      </trkpt>
      <trkpt lat="42.87325" lon="-0.19329">
        <ele>2382.4</ele>
        <time>2026-07-15T10:23:15Z</time>
      </trkpt>
      <trkpt lat="42.87325" lon="-0.1933">
        <ele>2382.4</ele>
        <time>2026-07-15T10:23:16Z</time>
      </trkpt>
      <trkpt lat="42.87325" lon="-0.19329">
        <ele>2382.4</ele>
        <time>2026-07-15T10:23:17Z</time>
      </trkpt>
      <trkpt lat="42.87325" lon="-0.19329">
        <ele>2382.4</ele>
        <time>2026-07-15T10:23:18Z</time>
      </trkpt>
      <trkpt lat="42.87325" lon="-0.19329">
        <ele>2382.4</ele>
        <time>2026-07-15T10:23:19Z</time>
      </trkpt>
      <trkpt lat="42.87325" lon="-0.19329">
        <ele>2382.4</ele>
        <time>2026-07-15T10:23:20Z</time>
      </trkpt>
      <trkpt lat="42.87325" lon="-0.19329">
        <ele>2382.4</ele>
        <time>2026-07-15T10:23:21Z</time>
      </trkpt>
      <trkpt lat="42.87325" lon="-0.1933">
        <ele>2382.4</ele>
        <time>2026-07-15T10:23:22Z</time>
      </trkpt>
      <trkpt lat="42.87325" lon="-0.1933">
        <ele>2382.4</ele>
        <time>2026-07-15T10:23:23Z</time>
      </trkpt>
      <trkpt lat="42.87325" lon="-0.1933">
        <ele>2382.4</ele>
        <time>2026-07-15T10:23:24Z</time>
      </trkpt>
      <trkpt lat="42.87325" lon="-0.19329">
        <ele>2382.4</ele>
        <time>2026-07-15T10:23:25Z</time>
      </trkpt>
      <trkpt lat="42.87325" lon="-0.1933">
        <ele>2382.4</ele>
        <time>2026-07-15T10:23:26Z</time>
      </trkpt>
      <trkpt lat="42.87325" lon="-0.1933">
        <ele>2382.4</ele>
        <time>2026-07-15T10:23:27Z</time>
      </trkpt>
      <trkpt lat="42.87325" lon="-0.1933">
        <ele>2382.4</ele>
        <time>2026-07-15T10:23:28Z</time>
      </trkpt>
      <trkpt lat="42.87325" lon="-0.1933">
        <ele>2382.4</ele>
        <time>2026-07-15T10:23:29Z</time>
      </trkpt>
      <trkpt lat="42.87325" lon="-0.1933">
        <ele>2382.4</ele>
        <time>2026-07-15T10:23:30Z</time>
      </trkpt>
      <trkpt lat="42.87325" lon="-0.1933">
        <ele>2382.4</ele>
        <time>2026-07-15T10:23:31Z</time>
      </trkpt>
      <trkpt lat="42.87325" lon="-0.1933">
        <ele>2382.4</ele>
        <time>2026-07-15T10:23:32Z</time>
      </trkpt>
      <trkpt lat="42.87325" lon="-0.1933">
        <ele>2382.4</ele>
        <time>2026-07-15T10:23:33Z</time>
      </trkpt>
      <trkpt lat="42.87325" lon="-0.1933">
        <ele>2382.4</ele>
        <time>2026-07-15T10:23:34Z</time>
      </trkpt>
      <trkpt lat="42.87325" lon="-0.1933">
        <ele>2382.4</ele>
        <time>2026-07-15T10:23:35Z</time>
      </trkpt>
      <trkpt lat="42.87325" lon="-0.1933">
        <ele>2382.4</ele>
        <time>2026-07-15T10:23:36Z</time>
      </trkpt>
      <trkpt lat="42.87325" lon="-0.1933">
        <ele>2382.4</ele>
        <time>2026-07-15T10:23:37Z</time>
      </trkpt>
      <trkpt lat="42.87325" lon="-0.1933">
        <ele>2382.4</ele>
        <time>2026-07-15T10:23:38Z</time>
      </trkpt>
      <trkpt lat="42.87325" lon="-0.1933">
        <ele>2382.4</ele>
        <time>2026-07-15T10:23:39Z</time>
      </trkpt>
      <trkpt lat="42.87325" lon="-0.1933">
        <ele>2382.4</ele>
        <time>2026-07-15T10:23:40Z</time>
      </trkpt>
      <trkpt lat="42.87325" lon="-0.1933">
        <ele>2382.4</ele>
        <time>2026-07-15T10:23:41Z</time>
      </trkpt>
      <trkpt lat="42.87325" lon="-0.1933">
        <ele>2382.4</ele>
        <time>2026-07-15T10:23:42Z</time>
      </trkpt>
      <trkpt lat="42.87325" lon="-0.1933">
        <ele>2382.4</ele>
        <time>2026-07-15T10:23:43Z</time>
      </trkpt>
      <trkpt lat="42.87325" lon="-0.1933">
        <ele>2382.4</ele>
        <time>2026-07-15T10:23:44Z</time>
      </trkpt>
      <trkpt lat="42.87325" lon="-0.1933">
        <ele>2382.4</ele>
        <time>2026-07-15T10:23:45Z</time>
      </trkpt>
      <trkpt lat="42.87325" lon="-0.1933">
        <ele>2383.4</ele>
        <time>2026-07-15T10:23:46Z</time>
      </trkpt>
      <trkpt lat="42.87325" lon="-0.1933">
        <ele>2384.4</ele>
        <time>2026-07-15T10:23:47Z</time>
      </trkpt>
      <trkpt lat="42.87325" lon="-0.1933">
        <ele>2384.4</ele>
        <time>2026-07-15T10:23:48Z</time>
      </trkpt>
      <trkpt lat="42.87325" lon="-0.19329">
        <ele>2384.4</ele>
        <time>2026-07-15T10:23:49Z</time>
      </trkpt>
      <trkpt lat="42.87325" lon="-0.19329">
        <ele>2383.4</ele>
        <time>2026-07-15T10:23:50Z</time>
      </trkpt>
      <trkpt lat="42.87325" lon="-0.19329">
        <ele>2383.4</ele>
        <time>2026-07-15T10:23:51Z</time>
      </trkpt>
      <trkpt lat="42.87325" lon="-0.19329">
        <ele>2383.4</ele>
        <time>2026-07-15T10:23:52Z</time>
      </trkpt>
      <trkpt lat="42.87325" lon="-0.19329">
        <ele>2382.4</ele>
        <time>2026-07-15T10:23:53Z</time>
      </trkpt>
      <trkpt lat="42.87325" lon="-0.19329">
        <ele>2382.4</ele>
        <time>2026-07-15T10:23:54Z</time>
      </trkpt>
      <trkpt lat="42.87325" lon="-0.19329">
        <ele>2382.4</ele>
        <time>2026-07-15T10:23:55Z</time>
      </trkpt>
      <trkpt lat="42.87325" lon="-0.19329">
        <ele>2382.4</ele>
        <time>2026-07-15T10:23:56Z</time>
      </trkpt>
      <trkpt lat="42.87325" lon="-0.19329">
        <ele>2382.4</ele>
        <time>2026-07-15T10:23:57Z</time>
      </trkpt>
      <trkpt lat="42.87325" lon="-0.19329">
        <ele>2383.4</ele>
        <time>2026-07-15T10:23:58Z</time>
      </trkpt>
      <trkpt lat="42.87326" lon="-0.19329">
        <ele>2384.4</ele>
        <time>2026-07-15T10:23:59Z</time>
      </trkpt>
      <trkpt lat="42.87326" lon="-0.19328">
        <ele>2384.4</ele>
        <time>2026-07-15T10:24:00Z</time>
      </trkpt>
      <trkpt lat="42.87326" lon="-0.19328">
        <ele>2383.4</ele>
        <time>2026-07-15T10:24:01Z</time>
      </trkpt>
      <trkpt lat="42.87326" lon="-0.19328">
        <ele>2383.4</ele>
        <time>2026-07-15T10:24:02Z</time>
      </trkpt>
      <trkpt lat="42.87327" lon="-0.19328">
        <ele>2383.4</ele>
        <time>2026-07-15T10:24:03Z</time>
      </trkpt>
      <trkpt lat="42.87327" lon="-0.19328">
        <ele>2383.4</ele>
        <time>2026-07-15T10:24:04Z</time>
      </trkpt>
      <trkpt lat="42.87327" lon="-0.19328">
        <ele>2383.4</ele>
        <time>2026-07-15T10:24:05Z</time>
      </trkpt>
      <trkpt lat="42.87327" lon="-0.19328">
        <ele>2383.4</ele>
        <time>2026-07-15T10:24:06Z</time>
      </trkpt>
      <trkpt lat="42.87327" lon="-0.19328">
        <ele>2384.4</ele>
        <time>2026-07-15T10:24:07Z</time>
      </trkpt>
      <trkpt lat="42.87327" lon="-0.19328">
        <ele>2384.4</ele>
        <time>2026-07-15T10:24:08Z</time>
      </trkpt>
      <trkpt lat="42.87326" lon="-0.19328">
        <ele>2384.4</ele>
        <time>2026-07-15T10:24:09Z</time>
      </trkpt>
      <trkpt lat="42.87327" lon="-0.19328">
        <ele>2384.4</ele>
        <time>2026-07-15T10:24:10Z</time>
      </trkpt>
      <trkpt lat="42.87327" lon="-0.19328">
        <ele>2383.4</ele>
        <time>2026-07-15T10:24:11Z</time>
      </trkpt>
      <trkpt lat="42.87326" lon="-0.19328">
        <ele>2383.4</ele>
        <time>2026-07-15T10:24:12Z</time>
      </trkpt>
      <trkpt lat="42.87326" lon="-0.19328">
        <ele>2383.4</ele>
        <time>2026-07-15T10:24:13Z</time>
      </trkpt>
      <trkpt lat="42.87325" lon="-0.19328">
        <ele>2383.4</ele>
        <time>2026-07-15T10:24:14Z</time>
      </trkpt>
      <trkpt lat="42.87325" lon="-0.19328">
        <ele>2383.4</ele>
        <time>2026-07-15T10:24:15Z</time>
      </trkpt>
      <trkpt lat="42.87325" lon="-0.19328">
        <ele>2383.4</ele>
        <time>2026-07-15T10:24:16Z</time>
      </trkpt>
      <trkpt lat="42.87325" lon="-0.19328">
        <ele>2382.4</ele>
        <time>2026-07-15T10:24:17Z</time>
      </trkpt>
      <trkpt lat="42.87325" lon="-0.19328">
        <ele>2382.4</ele>
        <time>2026-07-15T10:24:18Z</time>
      </trkpt>
      <trkpt lat="42.87325" lon="-0.19329">
        <ele>2383.4</ele>
        <time>2026-07-15T10:24:19Z</time>
      </trkpt>
      <trkpt lat="42.87325" lon="-0.19329">
        <ele>2384.4</ele>
        <time>2026-07-15T10:24:20Z</time>
      </trkpt>
      <trkpt lat="42.87324" lon="-0.19329">
        <ele>2384.4</ele>
        <time>2026-07-15T10:24:21Z</time>
      </trkpt>
      <trkpt lat="42.87325" lon="-0.19329">
        <ele>2384.4</ele>
        <time>2026-07-15T10:24:22Z</time>
      </trkpt>
      <trkpt lat="42.87324" lon="-0.19329">
        <ele>2384.4</ele>
        <time>2026-07-15T10:24:23Z</time>
      </trkpt>
      <trkpt lat="42.87324" lon="-0.19329">
        <ele>2384.4</ele>
        <time>2026-07-15T10:24:24Z</time>
      </trkpt>
      <trkpt lat="42.87324" lon="-0.19329">
        <ele>2383.4</ele>
        <time>2026-07-15T10:24:25Z</time>
      </trkpt>
      <trkpt lat="42.87324" lon="-0.19329">
        <ele>2383.4</ele>
        <time>2026-07-15T10:24:26Z</time>
      </trkpt>
      <trkpt lat="42.87325" lon="-0.19329">
        <ele>2382.4</ele>
        <time>2026-07-15T10:24:27Z</time>
      </trkpt>
      <trkpt lat="42.87325" lon="-0.19329">
        <ele>2382.4</ele>
        <time>2026-07-15T10:24:28Z</time>
      </trkpt>
      <trkpt lat="42.87325" lon="-0.19329">
        <ele>2382.4</ele>
        <time>2026-07-15T10:24:29Z</time>
      </trkpt>
      <trkpt lat="42.87325" lon="-0.19329">
        <ele>2382.4</ele>
        <time>2026-07-15T10:24:30Z</time>
      </trkpt>
      <trkpt lat="42.87325" lon="-0.19329">
        <ele>2381.4</ele>
        <time>2026-07-15T10:24:31Z</time>
      </trkpt>
      <trkpt lat="42.87325" lon="-0.1933">
        <ele>2381.4</ele>
        <time>2026-07-15T10:24:32Z</time>
      </trkpt>
      <trkpt lat="42.87325" lon="-0.1933">
        <ele>2382.4</ele>
        <time>2026-07-15T10:24:33Z</time>
      </trkpt>
      <trkpt lat="42.87325" lon="-0.1933">
        <ele>2381.4</ele>
        <time>2026-07-15T10:24:34Z</time>
      </trkpt>
      <trkpt lat="42.87325" lon="-0.1933">
        <ele>2381.4</ele>
        <time>2026-07-15T10:24:35Z</time>
      </trkpt>
      <trkpt lat="42.87325" lon="-0.1933">
        <ele>2381.4</ele>
        <time>2026-07-15T10:24:36Z</time>
      </trkpt>
      <trkpt lat="42.87325" lon="-0.1933">
        <ele>2381.4</ele>
        <time>2026-07-15T10:24:37Z</time>
      </trkpt>
      <trkpt lat="42.87325" lon="-0.1933">
        <ele>2381.4</ele>
        <time>2026-07-15T10:24:38Z</time>
      </trkpt>
      <trkpt lat="42.87325" lon="-0.1933">
        <ele>2381.4</ele>
        <time>2026-07-15T10:24:39Z</time>
      </trkpt>
      <trkpt lat="42.87325" lon="-0.1933">
        <ele>2381.4</ele>
        <time>2026-07-15T10:24:40Z</time>
      </trkpt>
      <trkpt lat="42.87325" lon="-0.1933">
        <ele>2381.4</ele>
        <time>2026-07-15T10:24:41Z</time>
      </trkpt>
      <trkpt lat="42.87325" lon="-0.1933">
        <ele>2380.4</ele>
        <time>2026-07-15T10:24:42Z</time>
      </trkpt>
      <trkpt lat="42.87325" lon="-0.1933">
        <ele>2380.4</ele>
        <time>2026-07-15T10:24:43Z</time>
      </trkpt>
      <trkpt lat="42.87325" lon="-0.1933">
        <ele>2380.4</ele>
        <time>2026-07-15T10:24:44Z</time>
      </trkpt>
      <trkpt lat="42.87326" lon="-0.1933">
        <ele>2380.4</ele>
        <time>2026-07-15T10:24:45Z</time>
      </trkpt>
      <trkpt lat="42.87325" lon="-0.1933">
        <ele>2379.4</ele>
        <time>2026-07-15T10:24:46Z</time>
      </trkpt>
      <trkpt lat="42.87325" lon="-0.1933">
        <ele>2380.4</ele>
        <time>2026-07-15T10:24:47Z</time>
      </trkpt>
      <trkpt lat="42.87325" lon="-0.1933">
        <ele>2380.4</ele>
        <time>2026-07-15T10:24:48Z</time>
      </trkpt>
      <trkpt lat="42.87325" lon="-0.1933">
        <ele>2379.4</ele>
        <time>2026-07-15T10:24:49Z</time>
      </trkpt>
      <trkpt lat="42.87325" lon="-0.1933">
        <ele>2380.4</ele>
        <time>2026-07-15T10:24:50Z</time>
      </trkpt>
      <trkpt lat="42.87325" lon="-0.19329">
        <ele>2380.4</ele>
        <time>2026-07-15T10:24:51Z</time>
      </trkpt>
      <trkpt lat="42.87325" lon="-0.19329">
        <ele>2380.4</ele>
        <time>2026-07-15T10:24:52Z</time>
      </trkpt>
      <trkpt lat="42.87325" lon="-0.19329">
        <ele>2380.4</ele>
        <time>2026-07-15T10:24:53Z</time>
      </trkpt>
      <trkpt lat="42.87325" lon="-0.19329">
        <ele>2380.4</ele>
        <time>2026-07-15T10:24:54Z</time>
      </trkpt>
      <trkpt lat="42.87325" lon="-0.19329">
        <ele>2380.4</ele>
        <time>2026-07-15T10:24:55Z</time>
      </trkpt>
      <trkpt lat="42.87325" lon="-0.19329">
        <ele>2380.4</ele>
        <time>2026-07-15T10:24:56Z</time>
      </trkpt>
      <trkpt lat="42.87325" lon="-0.19329">
        <ele>2380.4</ele>
        <time>2026-07-15T10:24:57Z</time>
      </trkpt>
      <trkpt lat="42.87325" lon="-0.19329">
        <ele>2380.4</ele>
        <time>2026-07-15T10:24:58Z</time>
      </trkpt>
      <trkpt lat="42.87325" lon="-0.19329">
        <ele>2380.4</ele>
        <time>2026-07-15T10:24:59Z</time>
      </trkpt>
      <trkpt lat="42.87325" lon="-0.19329">
        <ele>2380.4</ele>
        <time>2026-07-15T10:25:00Z</time>
      </trkpt>
      <trkpt lat="42.87325" lon="-0.19329">
        <ele>2380.4</ele>
        <time>2026-07-15T10:25:01Z</time>
      </trkpt>
      <trkpt lat="42.87325" lon="-0.19329">
        <ele>2380.4</ele>
        <time>2026-07-15T10:25:02Z</time>
      </trkpt>
      <trkpt lat="42.87325" lon="-0.19329">
        <ele>2380.4</ele>
        <time>2026-07-15T10:25:03Z</time>
      </trkpt>
      <trkpt lat="42.87325" lon="-0.19329">
        <ele>2380.4</ele>
        <time>2026-07-15T10:25:04Z</time>
      </trkpt>
      <trkpt lat="42.87325" lon="-0.19329">
        <ele>2381.4</ele>
        <time>2026-07-15T10:25:05Z</time>
      </trkpt>
      <trkpt lat="42.87325" lon="-0.19329">
        <ele>2381.4</ele>
        <time>2026-07-15T10:25:06Z</time>
      </trkpt>
      <trkpt lat="42.87325" lon="-0.19329">
        <ele>2381.4</ele>
        <time>2026-07-15T10:25:07Z</time>
      </trkpt>
      <trkpt lat="42.87325" lon="-0.19329">
        <ele>2381.4</ele>
        <time>2026-07-15T10:25:08Z</time>
      </trkpt>
      <trkpt lat="42.87325" lon="-0.19329">
        <ele>2381.4</ele>
        <time>2026-07-15T10:25:09Z</time>
      </trkpt>
      <trkpt lat="42.87325" lon="-0.19329">
        <ele>2381.4</ele>
        <time>2026-07-15T10:25:10Z</time>
      </trkpt>
      <trkpt lat="42.87325" lon="-0.19329">
        <ele>2381.4</ele>
        <time>2026-07-15T10:25:11Z</time>
      </trkpt>
      <trkpt lat="42.87325" lon="-0.19329">
        <ele>2381.4</ele>
        <time>2026-07-15T10:25:12Z</time>
      </trkpt>
      <trkpt lat="42.87325" lon="-0.19329">
        <ele>2382.4</ele>
        <time>2026-07-15T10:25:13Z</time>
      </trkpt>
      <trkpt lat="42.87325" lon="-0.19329">
        <ele>2381.4</ele>
        <time>2026-07-15T10:25:14Z</time>
      </trkpt>
      <trkpt lat="42.87325" lon="-0.19329">
        <ele>2379.4</ele>
        <time>2026-07-15T10:25:15Z</time>
      </trkpt>
      <trkpt lat="42.87326" lon="-0.19329">
        <ele>2379.4</ele>
        <time>2026-07-15T10:25:16Z</time>
      </trkpt>
      <trkpt lat="42.87325" lon="-0.19329">
        <ele>2379.4</ele>
        <time>2026-07-15T10:25:17Z</time>
      </trkpt>
      <trkpt lat="42.87325" lon="-0.19329">
        <ele>2380.4</ele>
        <time>2026-07-15T10:25:18Z</time>
      </trkpt>
      <trkpt lat="42.87325" lon="-0.19329">
        <ele>2380.4</ele>
        <time>2026-07-15T10:25:19Z</time>
      </trkpt>
      <trkpt lat="42.87325" lon="-0.19329">
        <ele>2380.4</ele>
        <time>2026-07-15T10:25:20Z</time>
      </trkpt>
      <trkpt lat="42.87325" lon="-0.19329">
        <ele>2380.4</ele>
        <time>2026-07-15T10:25:21Z</time>
      </trkpt>
      <trkpt lat="42.87325" lon="-0.19329">
        <ele>2380.4</ele>
        <time>2026-07-15T10:25:22Z</time>
      </trkpt>
      <trkpt lat="42.87325" lon="-0.19329">
        <ele>2380.4</ele>
        <time>2026-07-15T10:25:23Z</time>
      </trkpt>
      <trkpt lat="42.87325" lon="-0.19329">
        <ele>2380.4</ele>
        <time>2026-07-15T10:25:24Z</time>
      </trkpt>
      <trkpt lat="42.87325" lon="-0.19329">
        <ele>2381.4</ele>
        <time>2026-07-15T10:25:25Z</time>
      </trkpt>
      <trkpt lat="42.87325" lon="-0.19329">
        <ele>2381.4</ele>
        <time>2026-07-15T10:25:26Z</time>
      </trkpt>
      <trkpt lat="42.87325" lon="-0.19329">
        <ele>2381.4</ele>
        <time>2026-07-15T10:25:27Z</time>
      </trkpt>
      <trkpt lat="42.87325" lon="-0.19329">
        <ele>2381.4</ele>
        <time>2026-07-15T10:25:28Z</time>
      </trkpt>
      <trkpt lat="42.87325" lon="-0.19329">
        <ele>2381.4</ele>
        <time>2026-07-15T10:25:29Z</time>
      </trkpt>
      <trkpt lat="42.87325" lon="-0.19328">
        <ele>2381.4</ele>
        <time>2026-07-15T10:25:30Z</time>
      </trkpt>
      <trkpt lat="42.87325" lon="-0.19328">
        <ele>2381.4</ele>
        <time>2026-07-15T10:25:31Z</time>
      </trkpt>
      <trkpt lat="42.87325" lon="-0.19328">
        <ele>2381.4</ele>
        <time>2026-07-15T10:25:32Z</time>
      </trkpt>
      <trkpt lat="42.87325" lon="-0.19328">
        <ele>2381.4</ele>
        <time>2026-07-15T10:25:33Z</time>
      </trkpt>
      <trkpt lat="42.87325" lon="-0.19328">
        <ele>2381.4</ele>
        <time>2026-07-15T10:25:34Z</time>
      </trkpt>
      <trkpt lat="42.87325" lon="-0.19328">
        <ele>2381.4</ele>
        <time>2026-07-15T10:25:35Z</time>
      </trkpt>
      <trkpt lat="42.87325" lon="-0.19328">
        <ele>2382.4</ele>
        <time>2026-07-15T10:25:36Z</time>
      </trkpt>
      <trkpt lat="42.87325" lon="-0.19328">
        <ele>2381.4</ele>
        <time>2026-07-15T10:25:37Z</time>
      </trkpt>
      <trkpt lat="42.87325" lon="-0.19328">
        <ele>2381.4</ele>
        <time>2026-07-15T10:25:38Z</time>
      </trkpt>
      <trkpt lat="42.87325" lon="-0.19328">
        <ele>2381.4</ele>
        <time>2026-07-15T10:25:39Z</time>
      </trkpt>
      <trkpt lat="42.87325" lon="-0.19328">
        <ele>2381.4</ele>
        <time>2026-07-15T10:25:40Z</time>
      </trkpt>
      <trkpt lat="42.87325" lon="-0.19328">
        <ele>2380.4</ele>
        <time>2026-07-15T10:25:41Z</time>
      </trkpt>
      <trkpt lat="42.87325" lon="-0.19328">
        <ele>2380.4</ele>
        <time>2026-07-15T10:25:42Z</time>
      </trkpt>
      <trkpt lat="42.87325" lon="-0.19328">
        <ele>2381.4</ele>
        <time>2026-07-15T10:25:43Z</time>
      </trkpt>
      <trkpt lat="42.87325" lon="-0.19328">
        <ele>2381.4</ele>
        <time>2026-07-15T10:25:44Z</time>
      </trkpt>
      <trkpt lat="42.87325" lon="-0.19328">
        <ele>2381.4</ele>
        <time>2026-07-15T10:25:45Z</time>
      </trkpt>
      <trkpt lat="42.87325" lon="-0.19328">
        <ele>2381.4</ele>
        <time>2026-07-15T10:25:46Z</time>
      </trkpt>
      <trkpt lat="42.87325" lon="-0.19328">
        <ele>2381.4</ele>
        <time>2026-07-15T10:25:47Z</time>
      </trkpt>
      <trkpt lat="42.87325" lon="-0.19329">
        <ele>2381.4</ele>
        <time>2026-07-15T10:25:48Z</time>
      </trkpt>
      <trkpt lat="42.87325" lon="-0.19329">
        <ele>2381.4</ele>
        <time>2026-07-15T10:25:49Z</time>
      </trkpt>
      <trkpt lat="42.87325" lon="-0.19329">
        <ele>2381.4</ele>
        <time>2026-07-15T10:25:50Z</time>
      </trkpt>
      <trkpt lat="42.87325" lon="-0.19329">
        <ele>2381.4</ele>
        <time>2026-07-15T10:25:51Z</time>
      </trkpt>
      <trkpt lat="42.87325" lon="-0.19329">
        <ele>2381.4</ele>
        <time>2026-07-15T10:25:52Z</time>
      </trkpt>
      <trkpt lat="42.87325" lon="-0.19329">
        <ele>2381.4</ele>
        <time>2026-07-15T10:25:53Z</time>
      </trkpt>
      <trkpt lat="42.87325" lon="-0.19329">
        <ele>2381.4</ele>
        <time>2026-07-15T10:25:54Z</time>
      </trkpt>
      <trkpt lat="42.87325" lon="-0.19329">
        <ele>2381.4</ele>
        <time>2026-07-15T10:25:55Z</time>
      </trkpt>
      <trkpt lat="42.87325" lon="-0.19329">
        <ele>2381.4</ele>
        <time>2026-07-15T10:25:56Z</time>
      </trkpt>
      <trkpt lat="42.87325" lon="-0.19329">
        <ele>2381.4</ele>
        <time>2026-07-15T10:25:57Z</time>
      </trkpt>
      <trkpt lat="42.87325" lon="-0.19329">
        <ele>2381.4</ele>
        <time>2026-07-15T10:25:58Z</time>
      </trkpt>
      <trkpt lat="42.87325" lon="-0.19329">
        <ele>2381.4</ele>
        <time>2026-07-15T10:25:59Z</time>
      </trkpt>
      <trkpt lat="42.87325" lon="-0.19329">
        <ele>2381.4</ele>
        <time>2026-07-15T10:26:00Z</time>
      </trkpt>
      <trkpt lat="42.87325" lon="-0.19329">
        <ele>2381.4</ele>
        <time>2026-07-15T10:26:01Z</time>
      </trkpt>
      <trkpt lat="42.87325" lon="-0.19329">
        <ele>2381.4</ele>
        <time>2026-07-15T10:26:02Z</time>
      </trkpt>
      <trkpt lat="42.87325" lon="-0.19329">
        <ele>2381.4</ele>
        <time>2026-07-15T10:26:03Z</time>
      </trkpt>
      <trkpt lat="42.87325" lon="-0.19329">
        <ele>2381.4</ele>
        <time>2026-07-15T10:26:04Z</time>
      </trkpt>
      <trkpt lat="42.87325" lon="-0.19329">
        <ele>2381.4</ele>
        <time>2026-07-15T10:26:05Z</time>
      </trkpt>
      <trkpt lat="42.87325" lon="-0.19329">
        <ele>2381.4</ele>
        <time>2026-07-15T10:26:06Z</time>
      </trkpt>
      <trkpt lat="42.87325" lon="-0.19329">
        <ele>2382.4</ele>
        <time>2026-07-15T10:26:07Z</time>
      </trkpt>
      <trkpt lat="42.87325" lon="-0.19329">
        <ele>2382.4</ele>
        <time>2026-07-15T10:26:08Z</time>
      </trkpt>
      <trkpt lat="42.87325" lon="-0.19329">
        <ele>2383.4</ele>
        <time>2026-07-15T10:26:09Z</time>
      </trkpt>
      <trkpt lat="42.87325" lon="-0.19329">
        <ele>2383.4</ele>
        <time>2026-07-15T10:26:10Z</time>
      </trkpt>
      <trkpt lat="42.87325" lon="-0.19329">
        <ele>2383.4</ele>
        <time>2026-07-15T10:26:11Z</time>
      </trkpt>
      <trkpt lat="42.87325" lon="-0.19329">
        <ele>2383.4</ele>
        <time>2026-07-15T10:26:12Z</time>
      </trkpt>
      <trkpt lat="42.87325" lon="-0.19329">
        <ele>2383.4</ele>
        <time>2026-07-15T10:26:13Z</time>
      </trkpt>
      <trkpt lat="42.87325" lon="-0.19329">
        <ele>2383.4</ele>
        <time>2026-07-15T10:26:14Z</time>
      </trkpt>
      <trkpt lat="42.87325" lon="-0.19329">
        <ele>2383.4</ele>
        <time>2026-07-15T10:26:15Z</time>
      </trkpt>
      <trkpt lat="42.87325" lon="-0.19329">
        <ele>2383.4</ele>
        <time>2026-07-15T10:26:16Z</time>
      </trkpt>
      <trkpt lat="42.87325" lon="-0.19329">
        <ele>2383.4</ele>
        <time>2026-07-15T10:26:17Z</time>
      </trkpt>
      <trkpt lat="42.87325" lon="-0.19329">
        <ele>2383.4</ele>
        <time>2026-07-15T10:26:18Z</time>
      </trkpt>
      <trkpt lat="42.87325" lon="-0.19329">
        <ele>2383.4</ele>
        <time>2026-07-15T10:26:19Z</time>
      </trkpt>
      <trkpt lat="42.87325" lon="-0.19329">
        <ele>2384.4</ele>
        <time>2026-07-15T10:26:20Z</time>
      </trkpt>
      <trkpt lat="42.87325" lon="-0.19329">
        <ele>2384.4</ele>
        <time>2026-07-15T10:26:21Z</time>
      </trkpt>
      <trkpt lat="42.87325" lon="-0.19329">
        <ele>2384.4</ele>
        <time>2026-07-15T10:26:22Z</time>
      </trkpt>
      <trkpt lat="42.87325" lon="-0.19329">
        <ele>2383.4</ele>
        <time>2026-07-15T10:26:23Z</time>
      </trkpt>
      <trkpt lat="42.87325" lon="-0.19329">
        <ele>2383.4</ele>
        <time>2026-07-15T10:26:24Z</time>
      </trkpt>
      <trkpt lat="42.87325" lon="-0.19329">
        <ele>2383.4</ele>
        <time>2026-07-15T10:26:25Z</time>
      </trkpt>
      <trkpt lat="42.87325" lon="-0.19329">
        <ele>2383.4</ele>
        <time>2026-07-15T10:26:26Z</time>
      </trkpt>
      <trkpt lat="42.87325" lon="-0.19329">
        <ele>2383.4</ele>
        <time>2026-07-15T10:26:27Z</time>
      </trkpt>
      <trkpt lat="42.87325" lon="-0.19329">
        <ele>2383.4</ele>
        <time>2026-07-15T10:26:28Z</time>
      </trkpt>
      <trkpt lat="42.87325" lon="-0.19329">
        <ele>2383.4</ele>
        <time>2026-07-15T10:26:29Z</time>
      </trkpt>
      <trkpt lat="42.87325" lon="-0.1933">
        <ele>2383.4</ele>
        <time>2026-07-15T10:26:30Z</time>
      </trkpt>
      <trkpt lat="42.87325" lon="-0.1933">
        <ele>2383.4</ele>
        <time>2026-07-15T10:26:31Z</time>
      </trkpt>
      <trkpt lat="42.87325" lon="-0.1933">
        <ele>2383.4</ele>
        <time>2026-07-15T10:26:32Z</time>
      </trkpt>
      <trkpt lat="42.87325" lon="-0.1933">
        <ele>2383.4</ele>
        <time>2026-07-15T10:26:33Z</time>
      </trkpt>
      <trkpt lat="42.87325" lon="-0.1933">
        <ele>2383.4</ele>
        <time>2026-07-15T10:26:34Z</time>
      </trkpt>
      <trkpt lat="42.87325" lon="-0.1933">
        <ele>2383.4</ele>
        <time>2026-07-15T10:26:35Z</time>
      </trkpt>
      <trkpt lat="42.87325" lon="-0.1933">
        <ele>2383.4</ele>
        <time>2026-07-15T10:26:36Z</time>
      </trkpt>
      <trkpt lat="42.87325" lon="-0.1933">
        <ele>2383.4</ele>
        <time>2026-07-15T10:26:37Z</time>
      </trkpt>
      <trkpt lat="42.87325" lon="-0.1933">
        <ele>2383.4</ele>
        <time>2026-07-15T10:26:38Z</time>
      </trkpt>
      <trkpt lat="42.87325" lon="-0.1933">
        <ele>2383.4</ele>
        <time>2026-07-15T10:26:39Z</time>
      </trkpt>
      <trkpt lat="42.87325" lon="-0.1933">
        <ele>2383.4</ele>
        <time>2026-07-15T10:26:40Z</time>
      </trkpt>
      <trkpt lat="42.87325" lon="-0.1933">
        <ele>2383.4</ele>
        <time>2026-07-15T10:26:41Z</time>
      </trkpt>
      <trkpt lat="42.87325" lon="-0.1933">
        <ele>2383.4</ele>
        <time>2026-07-15T10:26:42Z</time>
      </trkpt>
      <trkpt lat="42.87325" lon="-0.1933">
        <ele>2383.4</ele>
        <time>2026-07-15T10:26:43Z</time>
      </trkpt>
      <trkpt lat="42.87326" lon="-0.19329">
        <ele>2383.4</ele>
        <time>2026-07-15T10:26:44Z</time>
      </trkpt>
      <trkpt lat="42.87326" lon="-0.19329">
        <ele>2383.4</ele>
        <time>2026-07-15T10:26:45Z</time>
      </trkpt>
      <trkpt lat="42.87326" lon="-0.19329">
        <ele>2383.4</ele>
        <time>2026-07-15T10:26:46Z</time>
      </trkpt>
      <trkpt lat="42.87326" lon="-0.19329">
        <ele>2383.4</ele>
        <time>2026-07-15T10:26:47Z</time>
      </trkpt>
      <trkpt lat="42.87326" lon="-0.19329">
        <ele>2383.4</ele>
        <time>2026-07-15T10:26:48Z</time>
      </trkpt>
      <trkpt lat="42.87326" lon="-0.19329">
        <ele>2383.4</ele>
        <time>2026-07-15T10:26:49Z</time>
      </trkpt>
      <trkpt lat="42.87326" lon="-0.19329">
        <ele>2383.4</ele>
        <time>2026-07-15T10:26:50Z</time>
      </trkpt>
      <trkpt lat="42.87326" lon="-0.19329">
        <ele>2383.4</ele>
        <time>2026-07-15T10:26:51Z</time>
      </trkpt>
      <trkpt lat="42.87326" lon="-0.19329">
        <ele>2383.4</ele>
        <time>2026-07-15T10:26:52Z</time>
      </trkpt>
      <trkpt lat="42.87326" lon="-0.19329">
        <ele>2383.4</ele>
        <time>2026-07-15T10:26:53Z</time>
      </trkpt>
      <trkpt lat="42.87326" lon="-0.19329">
        <ele>2383.4</ele>
        <time>2026-07-15T10:26:54Z</time>
      </trkpt>
      <trkpt lat="42.87326" lon="-0.19329">
        <ele>2383.4</ele>
        <time>2026-07-15T10:26:55Z</time>
      </trkpt>
      <trkpt lat="42.87326" lon="-0.19329">
        <ele>2383.4</ele>
        <time>2026-07-15T10:26:56Z</time>
      </trkpt>
      <trkpt lat="42.87326" lon="-0.19329">
        <ele>2383.4</ele>
        <time>2026-07-15T10:26:57Z</time>
      </trkpt>
      <trkpt lat="42.87326" lon="-0.19329">
        <ele>2383.4</ele>
        <time>2026-07-15T10:26:58Z</time>
      </trkpt>
      <trkpt lat="42.87326" lon="-0.19329">
        <ele>2383.4</ele>
        <time>2026-07-15T10:26:59Z</time>
      </trkpt>
      <trkpt lat="42.87326" lon="-0.19329">
        <ele>2383.4</ele>
        <time>2026-07-15T10:27:00Z</time>
      </trkpt>
      <trkpt lat="42.87326" lon="-0.19329">
        <ele>2383.4</ele>
        <time>2026-07-15T10:27:01Z</time>
      </trkpt>
      <trkpt lat="42.87326" lon="-0.19329">
        <ele>2383.4</ele>
        <time>2026-07-15T10:27:02Z</time>
      </trkpt>
      <trkpt lat="42.87326" lon="-0.19329">
        <ele>2383.4</ele>
        <time>2026-07-15T10:27:03Z</time>
      </trkpt>
      <trkpt lat="42.87326" lon="-0.19329">
        <ele>2383.4</ele>
        <time>2026-07-15T10:27:04Z</time>
      </trkpt>
      <trkpt lat="42.87326" lon="-0.19329">
        <ele>2383.4</ele>
        <time>2026-07-15T10:27:05Z</time>
      </trkpt>
      <trkpt lat="42.87326" lon="-0.19329">
        <ele>2383.4</ele>
        <time>2026-07-15T10:27:06Z</time>
      </trkpt>
      <trkpt lat="42.87326" lon="-0.19329">
        <ele>2383.4</ele>
        <time>2026-07-15T10:27:07Z</time>
      </trkpt>
      <trkpt lat="42.87326" lon="-0.19329">
        <ele>2383.4</ele>
        <time>2026-07-15T10:27:08Z</time>
      </trkpt>
      <trkpt lat="42.87326" lon="-0.19329">
        <ele>2383.4</ele>
        <time>2026-07-15T10:27:09Z</time>
      </trkpt>
      <trkpt lat="42.87326" lon="-0.19329">
        <ele>2383.4</ele>
        <time>2026-07-15T10:27:10Z</time>
      </trkpt>
      <trkpt lat="42.87326" lon="-0.19329">
        <ele>2383.4</ele>
        <time>2026-07-15T10:27:11Z</time>
      </trkpt>
      <trkpt lat="42.87326" lon="-0.19329">
        <ele>2383.4</ele>
        <time>2026-07-15T10:27:12Z</time>
      </trkpt>
      <trkpt lat="42.87326" lon="-0.19329">
        <ele>2383.4</ele>
        <time>2026-07-15T10:27:13Z</time>
      </trkpt>
      <trkpt lat="42.87326" lon="-0.19329">
        <ele>2383.4</ele>
        <time>2026-07-15T10:27:14Z</time>
      </trkpt>
      <trkpt lat="42.87326" lon="-0.19329">
        <ele>2383.4</ele>
        <time>2026-07-15T10:27:15Z</time>
      </trkpt>
      <trkpt lat="42.87326" lon="-0.19329">
        <ele>2383.4</ele>
        <time>2026-07-15T10:27:16Z</time>
      </trkpt>
      <trkpt lat="42.87326" lon="-0.19329">
        <ele>2383.4</ele>
        <time>2026-07-15T10:27:17Z</time>
      </trkpt>
      <trkpt lat="42.87325" lon="-0.19329">
        <ele>2383.4</ele>
        <time>2026-07-15T10:27:18Z</time>
      </trkpt>
      <trkpt lat="42.87325" lon="-0.19329">
        <ele>2383.4</ele>
        <time>2026-07-15T10:27:19Z</time>
      </trkpt>
      <trkpt lat="42.87325" lon="-0.19329">
        <ele>2383.4</ele>
        <time>2026-07-15T10:27:20Z</time>
      </trkpt>
      <trkpt lat="42.87325" lon="-0.19329">
        <ele>2383.4</ele>
        <time>2026-07-15T10:27:21Z</time>
      </trkpt>
      <trkpt lat="42.87325" lon="-0.19329">
        <ele>2383.4</ele>
        <time>2026-07-15T10:27:22Z</time>
      </trkpt>
      <trkpt lat="42.87325" lon="-0.19329">
        <ele>2383.4</ele>
        <time>2026-07-15T10:27:23Z</time>
      </trkpt>
      <trkpt lat="42.87325" lon="-0.19329">
        <ele>2383.4</ele>
        <time>2026-07-15T10:27:24Z</time>
      </trkpt>
      <trkpt lat="42.87325" lon="-0.19329">
        <ele>2383.4</ele>
        <time>2026-07-15T10:27:25Z</time>
      </trkpt>
      <trkpt lat="42.87325" lon="-0.19329">
        <ele>2383.4</ele>
        <time>2026-07-15T10:27:26Z</time>
      </trkpt>
      <trkpt lat="42.87325" lon="-0.19329">
        <ele>2383.4</ele>
        <time>2026-07-15T10:27:27Z</time>
      </trkpt>
      <trkpt lat="42.87325" lon="-0.19329">
        <ele>2383.4</ele>
        <time>2026-07-15T10:27:28Z</time>
      </trkpt>
      <trkpt lat="42.87325" lon="-0.19329">
        <ele>2383.4</ele>
        <time>2026-07-15T10:27:29Z</time>
      </trkpt>
      <trkpt lat="42.87325" lon="-0.19329">
        <ele>2383.4</ele>
        <time>2026-07-15T10:27:30Z</time>
      </trkpt>
      <trkpt lat="42.87325" lon="-0.19329">
        <ele>2383.4</ele>
        <time>2026-07-15T10:27:31Z</time>
      </trkpt>
      <trkpt lat="42.87325" lon="-0.19329">
        <ele>2383.4</ele>
        <time>2026-07-15T10:27:32Z</time>
      </trkpt>
      <trkpt lat="42.87325" lon="-0.19329">
        <ele>2383.4</ele>
        <time>2026-07-15T10:27:33Z</time>
      </trkpt>
      <trkpt lat="42.87325" lon="-0.19329">
        <ele>2383.4</ele>
        <time>2026-07-15T10:27:34Z</time>
      </trkpt>
      <trkpt lat="42.87325" lon="-0.19329">
        <ele>2383.4</ele>
        <time>2026-07-15T10:27:35Z</time>
      </trkpt>
      <trkpt lat="42.87325" lon="-0.19329">
        <ele>2383.4</ele>
        <time>2026-07-15T10:27:36Z</time>
      </trkpt>
      <trkpt lat="42.87325" lon="-0.19329">
        <ele>2383.4</ele>
        <time>2026-07-15T10:27:37Z</time>
      </trkpt>
      <trkpt lat="42.87325" lon="-0.19329">
        <ele>2379.4</ele>
        <time>2026-07-15T10:27:38Z</time>
      </trkpt>
      <trkpt lat="42.87325" lon="-0.19329">
        <ele>2380.4</ele>
        <time>2026-07-15T10:27:39Z</time>
      </trkpt>
      <trkpt lat="42.87325" lon="-0.19329">
        <ele>2379.4</ele>
        <time>2026-07-15T10:27:40Z</time>
      </trkpt>
      <trkpt lat="42.87325" lon="-0.19329">
        <ele>2379.4</ele>
        <time>2026-07-15T10:27:41Z</time>
      </trkpt>
      <trkpt lat="42.87325" lon="-0.19329">
        <ele>2379.4</ele>
        <time>2026-07-15T10:27:42Z</time>
      </trkpt>
      <trkpt lat="42.87325" lon="-0.19329">
        <ele>2379.4</ele>
        <time>2026-07-15T10:27:43Z</time>
      </trkpt>
      <trkpt lat="42.87325" lon="-0.19329">
        <ele>2379.4</ele>
        <time>2026-07-15T10:27:44Z</time>
      </trkpt>
      <trkpt lat="42.87325" lon="-0.19329">
        <ele>2379.4</ele>
        <time>2026-07-15T10:27:45Z</time>
      </trkpt>
      <trkpt lat="42.87325" lon="-0.19329">
        <ele>2380.4</ele>
        <time>2026-07-15T10:27:46Z</time>
      </trkpt>
      <trkpt lat="42.87324" lon="-0.19329">
        <ele>2380.4</ele>
        <time>2026-07-15T10:27:47Z</time>
      </trkpt>
      <trkpt lat="42.87325" lon="-0.1933">
        <ele>2380.4</ele>
        <time>2026-07-15T10:27:48Z</time>
      </trkpt>
      <trkpt lat="42.87325" lon="-0.1933">
        <ele>2381.4</ele>
        <time>2026-07-15T10:27:49Z</time>
      </trkpt>
      <trkpt lat="42.87325" lon="-0.1933">
        <ele>2381.4</ele>
        <time>2026-07-15T10:27:50Z</time>
      </trkpt>
      <trkpt lat="42.87325" lon="-0.1933">
        <ele>2381.4</ele>
        <time>2026-07-15T10:27:51Z</time>
      </trkpt>
      <trkpt lat="42.87325" lon="-0.19329">
        <ele>2381.4</ele>
        <time>2026-07-15T10:27:52Z</time>
      </trkpt>
      <trkpt lat="42.87325" lon="-0.19329">
        <ele>2381.4</ele>
        <time>2026-07-15T10:27:53Z</time>
      </trkpt>
      <trkpt lat="42.87325" lon="-0.19329">
        <ele>2381.4</ele>
        <time>2026-07-15T10:27:54Z</time>
      </trkpt>
      <trkpt lat="42.87325" lon="-0.19329">
        <ele>2381.4</ele>
        <time>2026-07-15T10:27:55Z</time>
      </trkpt>
      <trkpt lat="42.87325" lon="-0.19329">
        <ele>2381.4</ele>
        <time>2026-07-15T10:27:56Z</time>
      </trkpt>
      <trkpt lat="42.87325" lon="-0.19329">
        <ele>2381.4</ele>
        <time>2026-07-15T10:27:57Z</time>
      </trkpt>
      <trkpt lat="42.87325" lon="-0.19329">
        <ele>2381.4</ele>
        <time>2026-07-15T10:27:58Z</time>
      </trkpt>
      <trkpt lat="42.87325" lon="-0.19329">
        <ele>2381.4</ele>
        <time>2026-07-15T10:27:59Z</time>
      </trkpt>
      <trkpt lat="42.87325" lon="-0.19329">
        <ele>2381.4</ele>
        <time>2026-07-15T10:28:00Z</time>
      </trkpt>
      <trkpt lat="42.87325" lon="-0.19329">
        <ele>2381.4</ele>
        <time>2026-07-15T10:28:01Z</time>
      </trkpt>
      <trkpt lat="42.87325" lon="-0.19329">
        <ele>2381.4</ele>
        <time>2026-07-15T10:28:02Z</time>
      </trkpt>
      <trkpt lat="42.87325" lon="-0.19329">
        <ele>2381.4</ele>
        <time>2026-07-15T10:28:03Z</time>
      </trkpt>
      <trkpt lat="42.87325" lon="-0.19329">
        <ele>2381.4</ele>
        <time>2026-07-15T10:28:04Z</time>
      </trkpt>
      <trkpt lat="42.87325" lon="-0.19329">
        <ele>2380.4</ele>
        <time>2026-07-15T10:28:05Z</time>
      </trkpt>
      <trkpt lat="42.87324" lon="-0.19329">
        <ele>2380.4</ele>
        <time>2026-07-15T10:28:06Z</time>
      </trkpt>
      <trkpt lat="42.87324" lon="-0.19329">
        <ele>2382.4</ele>
        <time>2026-07-15T10:28:07Z</time>
      </trkpt>
      <trkpt lat="42.87325" lon="-0.19329">
        <ele>2381.4</ele>
        <time>2026-07-15T10:28:08Z</time>
      </trkpt>
      <trkpt lat="42.87325" lon="-0.19329">
        <ele>2381.4</ele>
        <time>2026-07-15T10:28:09Z</time>
      </trkpt>
      <trkpt lat="42.87325" lon="-0.19329">
        <ele>2381.4</ele>
        <time>2026-07-15T10:28:10Z</time>
      </trkpt>
      <trkpt lat="42.87325" lon="-0.19329">
        <ele>2381.4</ele>
        <time>2026-07-15T10:28:11Z</time>
      </trkpt>
      <trkpt lat="42.87325" lon="-0.19329">
        <ele>2381.4</ele>
        <time>2026-07-15T10:28:12Z</time>
      </trkpt>
      <trkpt lat="42.87325" lon="-0.19329">
        <ele>2381.4</ele>
        <time>2026-07-15T10:28:13Z</time>
      </trkpt>
      <trkpt lat="42.87325" lon="-0.19329">
        <ele>2381.4</ele>
        <time>2026-07-15T10:28:14Z</time>
      </trkpt>
      <trkpt lat="42.87325" lon="-0.19329">
        <ele>2381.4</ele>
        <time>2026-07-15T10:28:15Z</time>
      </trkpt>
      <trkpt lat="42.87325" lon="-0.19329">
        <ele>2381.4</ele>
        <time>2026-07-15T10:28:16Z</time>
      </trkpt>
      <trkpt lat="42.87325" lon="-0.19329">
        <ele>2381.4</ele>
        <time>2026-07-15T10:28:17Z</time>
      </trkpt>
      <trkpt lat="42.87325" lon="-0.19329">
        <ele>2381.4</ele>
        <time>2026-07-15T10:28:18Z</time>
      </trkpt>
      <trkpt lat="42.87325" lon="-0.19329">
        <ele>2381.4</ele>
        <time>2026-07-15T10:28:19Z</time>
      </trkpt>
      <trkpt lat="42.87325" lon="-0.1933">
        <ele>2381.4</ele>
        <time>2026-07-15T10:28:20Z</time>
      </trkpt>
      <trkpt lat="42.87325" lon="-0.1933">
        <ele>2381.4</ele>
        <time>2026-07-15T10:28:21Z</time>
      </trkpt>
      <trkpt lat="42.87325" lon="-0.19329">
        <ele>2381.4</ele>
        <time>2026-07-15T10:28:22Z</time>
      </trkpt>
      <trkpt lat="42.87325" lon="-0.19329">
        <ele>2381.4</ele>
        <time>2026-07-15T10:28:23Z</time>
      </trkpt>
      <trkpt lat="42.87325" lon="-0.19329">
        <ele>2381.4</ele>
        <time>2026-07-15T10:28:24Z</time>
      </trkpt>
      <trkpt lat="42.87325" lon="-0.19329">
        <ele>2381.4</ele>
        <time>2026-07-15T10:28:25Z</time>
      </trkpt>
      <trkpt lat="42.87325" lon="-0.19329">
        <ele>2381.4</ele>
        <time>2026-07-15T10:28:26Z</time>
      </trkpt>
      <trkpt lat="42.87325" lon="-0.1933">
        <ele>2381.4</ele>
        <time>2026-07-15T10:28:27Z</time>
      </trkpt>
      <trkpt lat="42.87325" lon="-0.19329">
        <ele>2381.4</ele>
        <time>2026-07-15T10:28:28Z</time>
      </trkpt>
      <trkpt lat="42.87325" lon="-0.19329">
        <ele>2381.4</ele>
        <time>2026-07-15T10:28:29Z</time>
      </trkpt>
      <trkpt lat="42.87325" lon="-0.19329">
        <ele>2381.4</ele>
        <time>2026-07-15T10:28:30Z</time>
      </trkpt>
      <trkpt lat="42.87325" lon="-0.19329">
        <ele>2381.4</ele>
        <time>2026-07-15T10:28:31Z</time>
      </trkpt>
      <trkpt lat="42.87325" lon="-0.19329">
        <ele>2381.4</ele>
        <time>2026-07-15T10:28:32Z</time>
      </trkpt>
      <trkpt lat="42.87325" lon="-0.19329">
        <ele>2381.4</ele>
        <time>2026-07-15T10:28:33Z</time>
      </trkpt>
      <trkpt lat="42.87325" lon="-0.19329">
        <ele>2381.4</ele>
        <time>2026-07-15T10:28:34Z</time>
      </trkpt>
      <trkpt lat="42.87325" lon="-0.19329">
        <ele>2381.4</ele>
        <time>2026-07-15T10:28:35Z</time>
      </trkpt>
      <trkpt lat="42.87325" lon="-0.19329">
        <ele>2381.4</ele>
        <time>2026-07-15T10:28:36Z</time>
      </trkpt>
      <trkpt lat="42.87325" lon="-0.19329">
        <ele>2381.4</ele>
        <time>2026-07-15T10:28:37Z</time>
      </trkpt>
      <trkpt lat="42.87325" lon="-0.19329">
        <ele>2381.4</ele>
        <time>2026-07-15T10:28:38Z</time>
      </trkpt>
      <trkpt lat="42.87325" lon="-0.19329">
        <ele>2381.4</ele>
        <time>2026-07-15T10:28:39Z</time>
      </trkpt>
      <trkpt lat="42.87325" lon="-0.19329">
        <ele>2381.4</ele>
        <time>2026-07-15T10:28:40Z</time>
      </trkpt>
      <trkpt lat="42.87325" lon="-0.19329">
        <ele>2381.4</ele>
        <time>2026-07-15T10:28:41Z</time>
      </trkpt>
      <trkpt lat="42.87325" lon="-0.19329">
        <ele>2381.4</ele>
        <time>2026-07-15T10:28:42Z</time>
      </trkpt>
      <trkpt lat="42.87325" lon="-0.19329">
        <ele>2381.4</ele>
        <time>2026-07-15T10:28:43Z</time>
      </trkpt>
      <trkpt lat="42.87325" lon="-0.19329">
        <ele>2381.4</ele>
        <time>2026-07-15T10:28:44Z</time>
      </trkpt>
      <trkpt lat="42.87325" lon="-0.19329">
        <ele>2381.4</ele>
        <time>2026-07-15T10:28:45Z</time>
      </trkpt>
      <trkpt lat="42.87325" lon="-0.19329">
        <ele>2381.4</ele>
        <time>2026-07-15T10:28:46Z</time>
      </trkpt>
      <trkpt lat="42.87325" lon="-0.19329">
        <ele>2381.4</ele>
        <time>2026-07-15T10:28:47Z</time>
      </trkpt>
      <trkpt lat="42.87325" lon="-0.19329">
        <ele>2381.4</ele>
        <time>2026-07-15T10:28:48Z</time>
      </trkpt>
      <trkpt lat="42.87325" lon="-0.19329">
        <ele>2381.4</ele>
        <time>2026-07-15T10:28:49Z</time>
      </trkpt>
      <trkpt lat="42.87325" lon="-0.19329">
        <ele>2381.4</ele>
        <time>2026-07-15T10:28:50Z</time>
      </trkpt>
      <trkpt lat="42.87325" lon="-0.19329">
        <ele>2381.4</ele>
        <time>2026-07-15T10:28:51Z</time>
      </trkpt>
      <trkpt lat="42.87325" lon="-0.19329">
        <ele>2381.4</ele>
        <time>2026-07-15T10:28:52Z</time>
      </trkpt>
      <trkpt lat="42.87325" lon="-0.19329">
        <ele>2381.4</ele>
        <time>2026-07-15T10:28:53Z</time>
      </trkpt>
      <trkpt lat="42.87325" lon="-0.19329">
        <ele>2381.4</ele>
        <time>2026-07-15T10:28:54Z</time>
      </trkpt>
      <trkpt lat="42.87325" lon="-0.19329">
        <ele>2381.4</ele>
        <time>2026-07-15T10:28:55Z</time>
      </trkpt>
      <trkpt lat="42.87325" lon="-0.19329">
        <ele>2381.4</ele>
        <time>2026-07-15T10:28:56Z</time>
      </trkpt>
      <trkpt lat="42.87325" lon="-0.19329">
        <ele>2381.4</ele>
        <time>2026-07-15T10:28:57Z</time>
      </trkpt>
      <trkpt lat="42.87325" lon="-0.19329">
        <ele>2381.4</ele>
        <time>2026-07-15T10:28:58Z</time>
      </trkpt>
      <trkpt lat="42.87325" lon="-0.19329">
        <ele>2381.4</ele>
        <time>2026-07-15T10:28:59Z</time>
      </trkpt>
      <trkpt lat="42.87325" lon="-0.19329">
        <ele>2381.4</ele>
        <time>2026-07-15T10:29:00Z</time>
      </trkpt>
      <trkpt lat="42.87325" lon="-0.19329">
        <ele>2381.4</ele>
        <time>2026-07-15T10:29:01Z</time>
      </trkpt>
      <trkpt lat="42.87325" lon="-0.19329">
        <ele>2381.4</ele>
        <time>2026-07-15T10:29:02Z</time>
      </trkpt>
      <trkpt lat="42.87325" lon="-0.19329">
        <ele>2381.4</ele>
        <time>2026-07-15T10:29:03Z</time>
      </trkpt>
      <trkpt lat="42.87325" lon="-0.19329">
        <ele>2381.4</ele>
        <time>2026-07-15T10:29:04Z</time>
      </trkpt>
      <trkpt lat="42.87325" lon="-0.19329">
        <ele>2381.4</ele>
        <time>2026-07-15T10:29:05Z</time>
      </trkpt>
      <trkpt lat="42.87325" lon="-0.19329">
        <ele>2381.4</ele>
        <time>2026-07-15T10:29:06Z</time>
      </trkpt>
      <trkpt lat="42.87325" lon="-0.19329">
        <ele>2381.4</ele>
        <time>2026-07-15T10:29:07Z</time>
      </trkpt>
      <trkpt lat="42.87325" lon="-0.19329">
        <ele>2381.4</ele>
        <time>2026-07-15T10:29:08Z</time>
      </trkpt>
      <trkpt lat="42.87325" lon="-0.19329">
        <ele>2381.4</ele>
        <time>2026-07-15T10:29:09Z</time>
      </trkpt>
      <trkpt lat="42.87325" lon="-0.19329">
        <ele>2383.4</ele>
        <time>2026-07-15T10:29:10Z</time>
      </trkpt>
      <trkpt lat="42.87325" lon="-0.19329">
        <ele>2383.4</ele>
        <time>2026-07-15T10:29:11Z</time>
      </trkpt>
      <trkpt lat="42.87325" lon="-0.19329">
        <ele>2384.4</ele>
        <time>2026-07-15T10:29:12Z</time>
      </trkpt>
      <trkpt lat="42.87325" lon="-0.19329">
        <ele>2384.4</ele>
        <time>2026-07-15T10:29:13Z</time>
      </trkpt>
      <trkpt lat="42.87325" lon="-0.19329">
        <ele>2384.4</ele>
        <time>2026-07-15T10:29:14Z</time>
      </trkpt>
      <trkpt lat="42.87325" lon="-0.19329">
        <ele>2384.4</ele>
        <time>2026-07-15T10:29:15Z</time>
      </trkpt>
      <trkpt lat="42.87325" lon="-0.19329">
        <ele>2384.4</ele>
        <time>2026-07-15T10:29:16Z</time>
      </trkpt>
      <trkpt lat="42.87325" lon="-0.19329">
        <ele>2384.4</ele>
        <time>2026-07-15T10:29:17Z</time>
      </trkpt>
      <trkpt lat="42.87325" lon="-0.19329">
        <ele>2384.4</ele>
        <time>2026-07-15T10:29:18Z</time>
      </trkpt>
      <trkpt lat="42.87325" lon="-0.19329">
        <ele>2384.4</ele>
        <time>2026-07-15T10:29:19Z</time>
      </trkpt>
      <trkpt lat="42.87325" lon="-0.19329">
        <ele>2384.4</ele>
        <time>2026-07-15T10:29:20Z</time>
      </trkpt>
      <trkpt lat="42.87325" lon="-0.19329">
        <ele>2384.4</ele>
        <time>2026-07-15T10:29:21Z</time>
      </trkpt>
      <trkpt lat="42.87325" lon="-0.19329">
        <ele>2384.4</ele>
        <time>2026-07-15T10:29:22Z</time>
      </trkpt>
      <trkpt lat="42.87325" lon="-0.19329">
        <ele>2383.4</ele>
        <time>2026-07-15T10:29:23Z</time>
      </trkpt>
      <trkpt lat="42.87325" lon="-0.19329">
        <ele>2383.4</ele>
        <time>2026-07-15T10:29:24Z</time>
      </trkpt>
      <trkpt lat="42.87325" lon="-0.19329">
        <ele>2382.4</ele>
        <time>2026-07-15T10:29:25Z</time>
      </trkpt>
      <trkpt lat="42.87325" lon="-0.19329">
        <ele>2381.4</ele>
        <time>2026-07-15T10:29:26Z</time>
      </trkpt>
      <trkpt lat="42.87325" lon="-0.19329">
        <ele>2382.4</ele>
        <time>2026-07-15T10:29:27Z</time>
      </trkpt>
      <trkpt lat="42.87325" lon="-0.19329">
        <ele>2382.4</ele>
        <time>2026-07-15T10:29:28Z</time>
      </trkpt>
      <trkpt lat="42.87325" lon="-0.19329">
        <ele>2382.4</ele>
        <time>2026-07-15T10:29:29Z</time>
      </trkpt>
      <trkpt lat="42.87325" lon="-0.19329">
        <ele>2382.4</ele>
        <time>2026-07-15T10:29:30Z</time>
      </trkpt>
      <trkpt lat="42.87325" lon="-0.19329">
        <ele>2382.4</ele>
        <time>2026-07-15T10:29:31Z</time>
      </trkpt>
      <trkpt lat="42.87325" lon="-0.19329">
        <ele>2382.4</ele>
        <time>2026-07-15T10:29:32Z</time>
      </trkpt>
      <trkpt lat="42.87325" lon="-0.19329">
        <ele>2382.4</ele>
        <time>2026-07-15T10:29:33Z</time>
      </trkpt>
      <trkpt lat="42.87325" lon="-0.19329">
        <ele>2382.4</ele>
        <time>2026-07-15T10:29:34Z</time>
      </trkpt>
      <trkpt lat="42.87325" lon="-0.19329">
        <ele>2382.4</ele>
        <time>2026-07-15T10:29:35Z</time>
      </trkpt>
      <trkpt lat="42.87325" lon="-0.19329">
        <ele>2382.4</ele>
        <time>2026-07-15T10:29:36Z</time>
      </trkpt>
      <trkpt lat="42.87325" lon="-0.19329">
        <ele>2382.4</ele>
        <time>2026-07-15T10:29:37Z</time>
      </trkpt>
      <trkpt lat="42.87325" lon="-0.19329">
        <ele>2382.4</ele>
        <time>2026-07-15T10:29:38Z</time>
      </trkpt>
      <trkpt lat="42.87325" lon="-0.19329">
        <ele>2382.4</ele>
        <time>2026-07-15T10:29:39Z</time>
      </trkpt>
      <trkpt lat="42.87325" lon="-0.19329">
        <ele>2382.4</ele>
        <time>2026-07-15T10:29:40Z</time>
      </trkpt>
      <trkpt lat="42.87325" lon="-0.19329">
        <ele>2382.4</ele>
        <time>2026-07-15T10:29:41Z</time>
      </trkpt>
      <trkpt lat="42.87325" lon="-0.19329">
        <ele>2382.4</ele>
        <time>2026-07-15T10:29:42Z</time>
      </trkpt>
      <trkpt lat="42.87325" lon="-0.19329">
        <ele>2383.4</ele>
        <time>2026-07-15T10:29:43Z</time>
      </trkpt>
      <trkpt lat="42.87325" lon="-0.19329">
        <ele>2383.4</ele>
        <time>2026-07-15T10:29:44Z</time>
      </trkpt>
      <trkpt lat="42.87325" lon="-0.19329">
        <ele>2384.4</ele>
        <time>2026-07-15T10:29:45Z</time>
      </trkpt>
      <trkpt lat="42.87325" lon="-0.19329">
        <ele>2384.4</ele>
        <time>2026-07-15T10:29:46Z</time>
      </trkpt>
      <trkpt lat="42.87325" lon="-0.19329">
        <ele>2384.4</ele>
        <time>2026-07-15T10:29:47Z</time>
      </trkpt>
      <trkpt lat="42.87325" lon="-0.19329">
        <ele>2384.4</ele>
        <time>2026-07-15T10:29:48Z</time>
      </trkpt>
      <trkpt lat="42.87325" lon="-0.19329">
        <ele>2384.4</ele>
        <time>2026-07-15T10:29:49Z</time>
      </trkpt>
      <trkpt lat="42.87325" lon="-0.19329">
        <ele>2384.4</ele>
        <time>2026-07-15T10:29:50Z</time>
      </trkpt>
      <trkpt lat="42.87325" lon="-0.19329">
        <ele>2384.4</ele>
        <time>2026-07-15T10:29:51Z</time>
      </trkpt>
      <trkpt lat="42.87325" lon="-0.19329">
        <ele>2384.4</ele>
        <time>2026-07-15T10:29:52Z</time>
      </trkpt>
      <trkpt lat="42.87325" lon="-0.19329">
        <ele>2384.4</ele>
        <time>2026-07-15T10:29:53Z</time>
      </trkpt>
      <trkpt lat="42.87325" lon="-0.19329">
        <ele>2384.4</ele>
        <time>2026-07-15T10:29:54Z</time>
      </trkpt>
      <trkpt lat="42.87325" lon="-0.19329">
        <ele>2384.4</ele>
        <time>2026-07-15T10:29:55Z</time>
      </trkpt>
      <trkpt lat="42.87325" lon="-0.19329">
        <ele>2384.4</ele>
        <time>2026-07-15T10:29:56Z</time>
      </trkpt>
      <trkpt lat="42.87325" lon="-0.19329">
        <ele>2384.4</ele>
        <time>2026-07-15T10:29:57Z</time>
      </trkpt>
      <trkpt lat="42.87325" lon="-0.19329">
        <ele>2384.4</ele>
        <time>2026-07-15T10:29:58Z</time>
      </trkpt>
      <trkpt lat="42.87325" lon="-0.19329">
        <ele>2384.4</ele>
        <time>2026-07-15T10:29:59Z</time>
      </trkpt>
      <trkpt lat="42.87325" lon="-0.19329">
        <ele>2385.4</ele>
        <time>2026-07-15T10:30:00Z</time>
      </trkpt>
      <trkpt lat="42.87325" lon="-0.19329">
        <ele>2385.4</ele>
        <time>2026-07-15T10:30:01Z</time>
      </trkpt>
      <trkpt lat="42.87325" lon="-0.19329">
        <ele>2384.4</ele>
        <time>2026-07-15T10:30:02Z</time>
      </trkpt>
      <trkpt lat="42.87325" lon="-0.19329">
        <ele>2385.4</ele>
        <time>2026-07-15T10:30:03Z</time>
      </trkpt>
      <trkpt lat="42.87325" lon="-0.19329">
        <ele>2385.4</ele>
        <time>2026-07-15T10:30:04Z</time>
      </trkpt>
      <trkpt lat="42.87325" lon="-0.19329">
        <ele>2385.4</ele>
        <time>2026-07-15T10:30:05Z</time>
      </trkpt>
      <trkpt lat="42.87325" lon="-0.19329">
        <ele>2385.4</ele>
        <time>2026-07-15T10:30:06Z</time>
      </trkpt>
      <trkpt lat="42.87325" lon="-0.19329">
        <ele>2386.4</ele>
        <time>2026-07-15T10:30:07Z</time>
      </trkpt>
      <trkpt lat="42.87325" lon="-0.1933">
        <ele>2386.4</ele>
        <time>2026-07-15T10:30:08Z</time>
      </trkpt>
      <trkpt lat="42.87325" lon="-0.19329">
        <ele>2386.4</ele>
        <time>2026-07-15T10:30:09Z</time>
      </trkpt>
      <trkpt lat="42.87325" lon="-0.19329">
        <ele>2386.4</ele>
        <time>2026-07-15T10:30:10Z</time>
      </trkpt>
      <trkpt lat="42.87325" lon="-0.19329">
        <ele>2386.4</ele>
        <time>2026-07-15T10:30:11Z</time>
      </trkpt>
      <trkpt lat="42.87325" lon="-0.19329">
        <ele>2386.4</ele>
        <time>2026-07-15T10:30:12Z</time>
      </trkpt>
      <trkpt lat="42.87325" lon="-0.19329">
        <ele>2386.4</ele>
        <time>2026-07-15T10:30:13Z</time>
      </trkpt>
      <trkpt lat="42.87325" lon="-0.19329">
        <ele>2386.4</ele>
        <time>2026-07-15T10:30:14Z</time>
      </trkpt>
      <trkpt lat="42.87325" lon="-0.19329">
        <ele>2386.4</ele>
        <time>2026-07-15T10:30:15Z</time>
      </trkpt>
      <trkpt lat="42.87325" lon="-0.19329">
        <ele>2386.4</ele>
        <time>2026-07-15T10:30:16Z</time>
      </trkpt>
      <trkpt lat="42.87325" lon="-0.19329">
        <ele>2386.4</ele>
        <time>2026-07-15T10:30:17Z</time>
      </trkpt>
      <trkpt lat="42.87325" lon="-0.19329">
        <ele>2386.4</ele>
        <time>2026-07-15T10:30:18Z</time>
      </trkpt>
      <trkpt lat="42.87325" lon="-0.19329">
        <ele>2386.4</ele>
        <time>2026-07-15T10:30:19Z</time>
      </trkpt>
      <trkpt lat="42.87325" lon="-0.19329">
        <ele>2386.4</ele>
        <time>2026-07-15T10:30:20Z</time>
      </trkpt>
      <trkpt lat="42.87325" lon="-0.19329">
        <ele>2386.4</ele>
        <time>2026-07-15T10:30:21Z</time>
      </trkpt>
      <trkpt lat="42.87325" lon="-0.19329">
        <ele>2386.4</ele>
        <time>2026-07-15T10:30:22Z</time>
      </trkpt>
      <trkpt lat="42.87325" lon="-0.19329">
        <ele>2386.4</ele>
        <time>2026-07-15T10:30:23Z</time>
      </trkpt>
      <trkpt lat="42.87325" lon="-0.19329">
        <ele>2386.4</ele>
        <time>2026-07-15T10:30:24Z</time>
      </trkpt>
      <trkpt lat="42.87325" lon="-0.19329">
        <ele>2386.4</ele>
        <time>2026-07-15T10:30:25Z</time>
      </trkpt>
      <trkpt lat="42.87325" lon="-0.19329">
        <ele>2386.4</ele>
        <time>2026-07-15T10:30:26Z</time>
      </trkpt>
      <trkpt lat="42.87325" lon="-0.19329">
        <ele>2386.4</ele>
        <time>2026-07-15T10:30:27Z</time>
      </trkpt>
      <trkpt lat="42.87325" lon="-0.19329">
        <ele>2386.4</ele>
        <time>2026-07-15T10:30:28Z</time>
      </trkpt>
      <trkpt lat="42.87325" lon="-0.19329">
        <ele>2386.4</ele>
        <time>2026-07-15T10:30:29Z</time>
      </trkpt>
      <trkpt lat="42.87325" lon="-0.19329">
        <ele>2386.4</ele>
        <time>2026-07-15T10:30:30Z</time>
      </trkpt>
      <trkpt lat="42.87325" lon="-0.19329">
        <ele>2386.4</ele>
        <time>2026-07-15T10:30:31Z</time>
      </trkpt>
      <trkpt lat="42.87325" lon="-0.19329">
        <ele>2386.4</ele>
        <time>2026-07-15T10:30:32Z</time>
      </trkpt>
      <trkpt lat="42.87325" lon="-0.19329">
        <ele>2386.4</ele>
        <time>2026-07-15T10:30:33Z</time>
      </trkpt>
      <trkpt lat="42.87325" lon="-0.19329">
        <ele>2386.4</ele>
        <time>2026-07-15T10:30:34Z</time>
      </trkpt>
      <trkpt lat="42.87325" lon="-0.19329">
        <ele>2386.4</ele>
        <time>2026-07-15T10:30:35Z</time>
      </trkpt>
      <trkpt lat="42.87325" lon="-0.19329">
        <ele>2386.4</ele>
        <time>2026-07-15T10:30:36Z</time>
      </trkpt>
      <trkpt lat="42.87325" lon="-0.19329">
        <ele>2386.4</ele>
        <time>2026-07-15T10:30:37Z</time>
      </trkpt>
      <trkpt lat="42.87325" lon="-0.19329">
        <ele>2386.4</ele>
        <time>2026-07-15T10:30:38Z</time>
      </trkpt>
      <trkpt lat="42.87325" lon="-0.19329">
        <ele>2386.4</ele>
        <time>2026-07-15T10:30:39Z</time>
      </trkpt>
      <trkpt lat="42.87325" lon="-0.19329">
        <ele>2386.4</ele>
        <time>2026-07-15T10:30:40Z</time>
      </trkpt>
      <trkpt lat="42.87325" lon="-0.19329">
        <ele>2386.4</ele>
        <time>2026-07-15T10:30:41Z</time>
      </trkpt>
      <trkpt lat="42.87325" lon="-0.19329">
        <ele>2386.4</ele>
        <time>2026-07-15T10:30:42Z</time>
      </trkpt>
      <trkpt lat="42.87325" lon="-0.19329">
        <ele>2386.4</ele>
        <time>2026-07-15T10:30:43Z</time>
      </trkpt>
      <trkpt lat="42.87325" lon="-0.19329">
        <ele>2386.4</ele>
        <time>2026-07-15T10:30:44Z</time>
      </trkpt>
      <trkpt lat="42.87325" lon="-0.19329">
        <ele>2386.4</ele>
        <time>2026-07-15T10:30:45Z</time>
      </trkpt>
      <trkpt lat="42.87325" lon="-0.19329">
        <ele>2386.4</ele>
        <time>2026-07-15T10:30:46Z</time>
      </trkpt>
      <trkpt lat="42.87325" lon="-0.19329">
        <ele>2386.4</ele>
        <time>2026-07-15T10:30:47Z</time>
      </trkpt>
      <trkpt lat="42.87325" lon="-0.19329">
        <ele>2386.4</ele>
        <time>2026-07-15T10:30:48Z</time>
      </trkpt>
      <trkpt lat="42.87325" lon="-0.19329">
        <ele>2386.4</ele>
        <time>2026-07-15T10:30:49Z</time>
      </trkpt>
      <trkpt lat="42.87325" lon="-0.19329">
        <ele>2386.4</ele>
        <time>2026-07-15T10:30:50Z</time>
      </trkpt>
      <trkpt lat="42.87325" lon="-0.19329">
        <ele>2386.4</ele>
        <time>2026-07-15T10:30:51Z</time>
      </trkpt>
      <trkpt lat="42.87325" lon="-0.19329">
        <ele>2386.4</ele>
        <time>2026-07-15T10:30:52Z</time>
      </trkpt>
      <trkpt lat="42.87325" lon="-0.19329">
        <ele>2386.4</ele>
        <time>2026-07-15T10:30:53Z</time>
      </trkpt>
      <trkpt lat="42.87325" lon="-0.19329">
        <ele>2386.4</ele>
        <time>2026-07-15T10:30:54Z</time>
      </trkpt>
      <trkpt lat="42.87325" lon="-0.19329">
        <ele>2386.4</ele>
        <time>2026-07-15T10:30:55Z</time>
      </trkpt>
      <trkpt lat="42.87325" lon="-0.19329">
        <ele>2386.4</ele>
        <time>2026-07-15T10:30:56Z</time>
      </trkpt>
      <trkpt lat="42.87325" lon="-0.19329">
        <ele>2386.4</ele>
        <time>2026-07-15T10:30:57Z</time>
      </trkpt>
      <trkpt lat="42.87325" lon="-0.19329">
        <ele>2386.4</ele>
        <time>2026-07-15T10:30:58Z</time>
      </trkpt>
      <trkpt lat="42.87325" lon="-0.19329">
        <ele>2386.4</ele>
        <time>2026-07-15T10:30:59Z</time>
      </trkpt>
      <trkpt lat="42.87325" lon="-0.19329">
        <ele>2386.4</ele>
        <time>2026-07-15T10:31:00Z</time>
      </trkpt>
      <trkpt lat="42.87325" lon="-0.19329">
        <ele>2386.4</ele>
        <time>2026-07-15T10:31:01Z</time>
      </trkpt>
      <trkpt lat="42.87325" lon="-0.19329">
        <ele>2386.4</ele>
        <time>2026-07-15T10:31:02Z</time>
      </trkpt>
      <trkpt lat="42.87325" lon="-0.19329">
        <ele>2386.4</ele>
        <time>2026-07-15T10:31:03Z</time>
      </trkpt>
      <trkpt lat="42.87325" lon="-0.19329">
        <ele>2386.4</ele>
        <time>2026-07-15T10:31:04Z</time>
      </trkpt>
      <trkpt lat="42.87325" lon="-0.19329">
        <ele>2386.4</ele>
        <time>2026-07-15T10:31:05Z</time>
      </trkpt>
      <trkpt lat="42.87325" lon="-0.19329">
        <ele>2386.4</ele>
        <time>2026-07-15T10:31:06Z</time>
      </trkpt>
      <trkpt lat="42.87325" lon="-0.19329">
        <ele>2386.4</ele>
        <time>2026-07-15T10:31:07Z</time>
      </trkpt>
      <trkpt lat="42.87325" lon="-0.19329">
        <ele>2386.4</ele>
        <time>2026-07-15T10:31:08Z</time>
      </trkpt>
      <trkpt lat="42.87325" lon="-0.19329">
        <ele>2386.4</ele>
        <time>2026-07-15T10:31:09Z</time>
      </trkpt>
      <trkpt lat="42.87325" lon="-0.19329">
        <ele>2386.4</ele>
        <time>2026-07-15T10:31:10Z</time>
      </trkpt>
      <trkpt lat="42.87325" lon="-0.19329">
        <ele>2386.4</ele>
        <time>2026-07-15T10:31:11Z</time>
      </trkpt>
      <trkpt lat="42.87325" lon="-0.19329">
        <ele>2386.4</ele>
        <time>2026-07-15T10:31:12Z</time>
      </trkpt>
      <trkpt lat="42.87325" lon="-0.19329">
        <ele>2386.4</ele>
        <time>2026-07-15T10:31:13Z</time>
      </trkpt>
      <trkpt lat="42.87325" lon="-0.19329">
        <ele>2386.4</ele>
        <time>2026-07-15T10:31:14Z</time>
      </trkpt>
      <trkpt lat="42.87325" lon="-0.19329">
        <ele>2386.4</ele>
        <time>2026-07-15T10:31:15Z</time>
      </trkpt>
      <trkpt lat="42.87325" lon="-0.19329">
        <ele>2386.4</ele>
        <time>2026-07-15T10:31:16Z</time>
      </trkpt>
      <trkpt lat="42.87325" lon="-0.19329">
        <ele>2386.4</ele>
        <time>2026-07-15T10:31:17Z</time>
      </trkpt>
      <trkpt lat="42.87325" lon="-0.19329">
        <ele>2386.4</ele>
        <time>2026-07-15T10:31:18Z</time>
      </trkpt>
      <trkpt lat="42.87325" lon="-0.19329">
        <ele>2386.4</ele>
        <time>2026-07-15T10:31:19Z</time>
      </trkpt>
      <trkpt lat="42.87325" lon="-0.19329">
        <ele>2386.4</ele>
        <time>2026-07-15T10:31:20Z</time>
      </trkpt>
      <trkpt lat="42.87325" lon="-0.19329">
        <ele>2386.4</ele>
        <time>2026-07-15T10:31:21Z</time>
      </trkpt>
      <trkpt lat="42.87325" lon="-0.19329">
        <ele>2386.4</ele>
        <time>2026-07-15T10:31:22Z</time>
      </trkpt>
      <trkpt lat="42.87325" lon="-0.19329">
        <ele>2386.4</ele>
        <time>2026-07-15T10:31:23Z</time>
      </trkpt>
      <trkpt lat="42.87325" lon="-0.19329">
        <ele>2386.4</ele>
        <time>2026-07-15T10:31:24Z</time>
      </trkpt>
      <trkpt lat="42.87325" lon="-0.19329">
        <ele>2386.4</ele>
        <time>2026-07-15T10:31:25Z</time>
      </trkpt>
      <trkpt lat="42.87325" lon="-0.19329">
        <ele>2386.4</ele>
        <time>2026-07-15T10:31:26Z</time>
      </trkpt>
      <trkpt lat="42.87325" lon="-0.19329">
        <ele>2386.4</ele>
        <time>2026-07-15T10:31:27Z</time>
      </trkpt>
      <trkpt lat="42.87325" lon="-0.19329">
        <ele>2386.4</ele>
        <time>2026-07-15T10:31:28Z</time>
      </trkpt>
      <trkpt lat="42.87325" lon="-0.19329">
        <ele>2386.4</ele>
        <time>2026-07-15T10:31:29Z</time>
      </trkpt>
      <trkpt lat="42.87325" lon="-0.19329">
        <ele>2386.4</ele>
        <time>2026-07-15T10:31:30Z</time>
      </trkpt>
      <trkpt lat="42.87325" lon="-0.19329">
        <ele>2386.4</ele>
        <time>2026-07-15T10:31:31Z</time>
      </trkpt>
      <trkpt lat="42.87325" lon="-0.19329">
        <ele>2386.4</ele>
        <time>2026-07-15T10:31:32Z</time>
      </trkpt>
      <trkpt lat="42.87325" lon="-0.19329">
        <ele>2386.4</ele>
        <time>2026-07-15T10:31:33Z</time>
      </trkpt>
      <trkpt lat="42.87325" lon="-0.19329">
        <ele>2386.4</ele>
        <time>2026-07-15T10:31:34Z</time>
      </trkpt>
      <trkpt lat="42.87325" lon="-0.19329">
        <ele>2386.4</ele>
        <time>2026-07-15T10:31:35Z</time>
      </trkpt>
      <trkpt lat="42.87325" lon="-0.19329">
        <ele>2386.4</ele>
        <time>2026-07-15T10:31:36Z</time>
      </trkpt>
      <trkpt lat="42.87325" lon="-0.19329">
        <ele>2386.4</ele>
        <time>2026-07-15T10:31:37Z</time>
      </trkpt>
      <trkpt lat="42.87325" lon="-0.19329">
        <ele>2386.4</ele>
        <time>2026-07-15T10:31:38Z</time>
      </trkpt>
      <trkpt lat="42.87325" lon="-0.19329">
        <ele>2386.4</ele>
        <time>2026-07-15T10:31:39Z</time>
      </trkpt>
      <trkpt lat="42.87325" lon="-0.19329">
        <ele>2386.4</ele>
        <time>2026-07-15T10:31:40Z</time>
      </trkpt>
      <trkpt lat="42.87325" lon="-0.19329">
        <ele>2386.4</ele>
        <time>2026-07-15T10:31:41Z</time>
      </trkpt>
      <trkpt lat="42.87325" lon="-0.19329">
        <ele>2386.4</ele>
        <time>2026-07-15T10:31:42Z</time>
      </trkpt>
      <trkpt lat="42.87325" lon="-0.19329">
        <ele>2386.4</ele>
        <time>2026-07-15T10:31:43Z</time>
      </trkpt>
      <trkpt lat="42.87325" lon="-0.19329">
        <ele>2386.4</ele>
        <time>2026-07-15T10:31:44Z</time>
      </trkpt>
      <trkpt lat="42.87325" lon="-0.19329">
        <ele>2386.4</ele>
        <time>2026-07-15T10:31:45Z</time>
      </trkpt>
      <trkpt lat="42.87325" lon="-0.19329">
        <ele>2386.4</ele>
        <time>2026-07-15T10:31:46Z</time>
      </trkpt>
      <trkpt lat="42.87325" lon="-0.19329">
        <ele>2386.4</ele>
        <time>2026-07-15T10:31:47Z</time>
      </trkpt>
      <trkpt lat="42.87325" lon="-0.19329">
        <ele>2386.4</ele>
        <time>2026-07-15T10:31:48Z</time>
      </trkpt>
      <trkpt lat="42.87325" lon="-0.19329">
        <ele>2386.4</ele>
        <time>2026-07-15T10:31:49Z</time>
      </trkpt>
      <trkpt lat="42.87325" lon="-0.19329">
        <ele>2386.4</ele>
        <time>2026-07-15T10:31:50Z</time>
      </trkpt>
      <trkpt lat="42.87325" lon="-0.19329">
        <ele>2387.4</ele>
        <time>2026-07-15T10:31:51Z</time>
      </trkpt>
      <trkpt lat="42.87326" lon="-0.19329">
        <ele>2387.4</ele>
        <time>2026-07-15T10:31:52Z</time>
      </trkpt>
      <trkpt lat="42.87325" lon="-0.19329">
        <ele>2386.4</ele>
        <time>2026-07-15T10:31:53Z</time>
      </trkpt>
      <trkpt lat="42.87325" lon="-0.19329">
        <ele>2387.4</ele>
        <time>2026-07-15T10:31:54Z</time>
      </trkpt>
      <trkpt lat="42.87326" lon="-0.19329">
        <ele>2387.4</ele>
        <time>2026-07-15T10:31:55Z</time>
      </trkpt>
      <trkpt lat="42.87326" lon="-0.19329">
        <ele>2387.4</ele>
        <time>2026-07-15T10:31:56Z</time>
      </trkpt>
      <trkpt lat="42.87325" lon="-0.19329">
        <ele>2386.4</ele>
        <time>2026-07-15T10:31:57Z</time>
      </trkpt>
      <trkpt lat="42.87325" lon="-0.19329">
        <ele>2386.4</ele>
        <time>2026-07-15T10:31:58Z</time>
      </trkpt>
      <trkpt lat="42.87325" lon="-0.19329">
        <ele>2386.4</ele>
        <time>2026-07-15T10:31:59Z</time>
      </trkpt>
      <trkpt lat="42.87325" lon="-0.19329">
        <ele>2385.4</ele>
        <time>2026-07-15T10:32:00Z</time>
      </trkpt>
      <trkpt lat="42.87325" lon="-0.19329">
        <ele>2385.4</ele>
        <time>2026-07-15T10:32:01Z</time>
      </trkpt>
      <trkpt lat="42.87325" lon="-0.19329">
        <ele>2385.4</ele>
        <time>2026-07-15T10:32:02Z</time>
      </trkpt>
      <trkpt lat="42.87325" lon="-0.19329">
        <ele>2385.4</ele>
        <time>2026-07-15T10:32:03Z</time>
      </trkpt>
      <trkpt lat="42.87325" lon="-0.19329">
        <ele>2385.4</ele>
        <time>2026-07-15T10:32:04Z</time>
      </trkpt>
      <trkpt lat="42.87325" lon="-0.19329">
        <ele>2385.4</ele>
        <time>2026-07-15T10:32:05Z</time>
      </trkpt>
      <trkpt lat="42.87325" lon="-0.19329">
        <ele>2385.4</ele>
        <time>2026-07-15T10:32:06Z</time>
      </trkpt>
      <trkpt lat="42.87325" lon="-0.19329">
        <ele>2385.4</ele>
        <time>2026-07-15T10:32:07Z</time>
      </trkpt>
      <trkpt lat="42.87325" lon="-0.19329">
        <ele>2385.4</ele>
        <time>2026-07-15T10:32:08Z</time>
      </trkpt>
      <trkpt lat="42.87325" lon="-0.19329">
        <ele>2385.4</ele>
        <time>2026-07-15T10:32:09Z</time>
      </trkpt>
      <trkpt lat="42.87325" lon="-0.19329">
        <ele>2385.4</ele>
        <time>2026-07-15T10:32:10Z</time>
      </trkpt>
      <trkpt lat="42.87325" lon="-0.19329">
        <ele>2385.4</ele>
        <time>2026-07-15T10:32:11Z</time>
      </trkpt>
      <trkpt lat="42.87325" lon="-0.19329">
        <ele>2385.4</ele>
        <time>2026-07-15T10:32:12Z</time>
      </trkpt>
      <trkpt lat="42.87325" lon="-0.19329">
        <ele>2385.4</ele>
        <time>2026-07-15T10:32:13Z</time>
      </trkpt>
      <trkpt lat="42.87325" lon="-0.19329">
        <ele>2385.4</ele>
        <time>2026-07-15T10:32:14Z</time>
      </trkpt>
      <trkpt lat="42.87325" lon="-0.19329">
        <ele>2385.4</ele>
        <time>2026-07-15T10:32:15Z</time>
      </trkpt>
      <trkpt lat="42.87325" lon="-0.19329">
        <ele>2385.4</ele>
        <time>2026-07-15T10:32:16Z</time>
      </trkpt>
      <trkpt lat="42.87325" lon="-0.19329">
        <ele>2385.4</ele>
        <time>2026-07-15T10:32:17Z</time>
      </trkpt>
      <trkpt lat="42.87325" lon="-0.19329">
        <ele>2385.4</ele>
        <time>2026-07-15T10:32:18Z</time>
      </trkpt>
      <trkpt lat="42.87325" lon="-0.19329">
        <ele>2385.4</ele>
        <time>2026-07-15T10:32:19Z</time>
      </trkpt>
      <trkpt lat="42.87325" lon="-0.19329">
        <ele>2385.4</ele>
        <time>2026-07-15T10:32:20Z</time>
      </trkpt>
      <trkpt lat="42.87325" lon="-0.19329">
        <ele>2385.4</ele>
        <time>2026-07-15T10:32:21Z</time>
      </trkpt>
      <trkpt lat="42.87325" lon="-0.19329">
        <ele>2385.4</ele>
        <time>2026-07-15T10:32:22Z</time>
      </trkpt>
      <trkpt lat="42.87325" lon="-0.19329">
        <ele>2385.4</ele>
        <time>2026-07-15T10:32:23Z</time>
      </trkpt>
      <trkpt lat="42.87325" lon="-0.19329">
        <ele>2385.4</ele>
        <time>2026-07-15T10:32:24Z</time>
      </trkpt>
      <trkpt lat="42.87325" lon="-0.19329">
        <ele>2385.4</ele>
        <time>2026-07-15T10:32:25Z</time>
      </trkpt>
      <trkpt lat="42.87325" lon="-0.19329">
        <ele>2385.4</ele>
        <time>2026-07-15T10:32:26Z</time>
      </trkpt>
      <trkpt lat="42.87325" lon="-0.19329">
        <ele>2385.4</ele>
        <time>2026-07-15T10:32:27Z</time>
      </trkpt>
      <trkpt lat="42.87325" lon="-0.19329">
        <ele>2385.4</ele>
        <time>2026-07-15T10:32:28Z</time>
      </trkpt>
      <trkpt lat="42.87325" lon="-0.19329">
        <ele>2385.4</ele>
        <time>2026-07-15T10:32:29Z</time>
      </trkpt>
      <trkpt lat="42.87325" lon="-0.19329">
        <ele>2385.4</ele>
        <time>2026-07-15T10:32:30Z</time>
      </trkpt>
      <trkpt lat="42.87325" lon="-0.19329">
        <ele>2385.4</ele>
        <time>2026-07-15T10:32:31Z</time>
      </trkpt>
      <trkpt lat="42.87325" lon="-0.19329">
        <ele>2385.4</ele>
        <time>2026-07-15T10:32:32Z</time>
      </trkpt>
      <trkpt lat="42.87325" lon="-0.19329">
        <ele>2385.4</ele>
        <time>2026-07-15T10:32:33Z</time>
      </trkpt>
      <trkpt lat="42.87325" lon="-0.19329">
        <ele>2385.4</ele>
        <time>2026-07-15T10:32:34Z</time>
      </trkpt>
      <trkpt lat="42.87325" lon="-0.19329">
        <ele>2385.4</ele>
        <time>2026-07-15T10:32:35Z</time>
      </trkpt>
      <trkpt lat="42.87325" lon="-0.19329">
        <ele>2385.4</ele>
        <time>2026-07-15T10:32:36Z</time>
      </trkpt>
      <trkpt lat="42.87325" lon="-0.19329">
        <ele>2385.4</ele>
        <time>2026-07-15T10:32:37Z</time>
      </trkpt>
      <trkpt lat="42.87325" lon="-0.19329">
        <ele>2385.4</ele>
        <time>2026-07-15T10:32:38Z</time>
      </trkpt>
      <trkpt lat="42.87325" lon="-0.19329">
        <ele>2385.4</ele>
        <time>2026-07-15T10:32:39Z</time>
      </trkpt>
      <trkpt lat="42.87325" lon="-0.19329">
        <ele>2385.4</ele>
        <time>2026-07-15T10:32:40Z</time>
      </trkpt>
      <trkpt lat="42.87325" lon="-0.19329">
        <ele>2385.4</ele>
        <time>2026-07-15T10:32:41Z</time>
      </trkpt>
      <trkpt lat="42.87325" lon="-0.19329">
        <ele>2385.4</ele>
        <time>2026-07-15T10:32:42Z</time>
      </trkpt>
      <trkpt lat="42.87325" lon="-0.19329">
        <ele>2385.4</ele>
        <time>2026-07-15T10:32:43Z</time>
      </trkpt>
      <trkpt lat="42.87325" lon="-0.19329">
        <ele>2385.4</ele>
        <time>2026-07-15T10:32:44Z</time>
      </trkpt>
      <trkpt lat="42.87325" lon="-0.19329">
        <ele>2385.4</ele>
        <time>2026-07-15T10:32:45Z</time>
      </trkpt>
      <trkpt lat="42.87325" lon="-0.19329">
        <ele>2385.4</ele>
        <time>2026-07-15T10:32:46Z</time>
      </trkpt>
      <trkpt lat="42.87325" lon="-0.19329">
        <ele>2385.4</ele>
        <time>2026-07-15T10:32:47Z</time>
      </trkpt>
      <trkpt lat="42.87325" lon="-0.19329">
        <ele>2385.4</ele>
        <time>2026-07-15T10:32:48Z</time>
      </trkpt>
      <trkpt lat="42.87325" lon="-0.19329">
        <ele>2385.4</ele>
        <time>2026-07-15T10:32:49Z</time>
      </trkpt>
      <trkpt lat="42.87325" lon="-0.19329">
        <ele>2385.4</ele>
        <time>2026-07-15T10:32:50Z</time>
      </trkpt>
      <trkpt lat="42.87325" lon="-0.19329">
        <ele>2385.4</ele>
        <time>2026-07-15T10:32:51Z</time>
      </trkpt>
      <trkpt lat="42.87325" lon="-0.19329">
        <ele>2385.4</ele>
        <time>2026-07-15T10:32:52Z</time>
      </trkpt>
      <trkpt lat="42.87325" lon="-0.19329">
        <ele>2385.4</ele>
        <time>2026-07-15T10:32:53Z</time>
      </trkpt>
      <trkpt lat="42.87325" lon="-0.19329">
        <ele>2385.4</ele>
        <time>2026-07-15T10:32:54Z</time>
      </trkpt>
      <trkpt lat="42.87325" lon="-0.19329">
        <ele>2385.4</ele>
        <time>2026-07-15T10:32:55Z</time>
      </trkpt>
      <trkpt lat="42.87325" lon="-0.19329">
        <ele>2385.4</ele>
        <time>2026-07-15T10:32:56Z</time>
      </trkpt>
      <trkpt lat="42.87325" lon="-0.19329">
        <ele>2385.4</ele>
        <time>2026-07-15T10:32:57Z</time>
      </trkpt>
      <trkpt lat="42.87325" lon="-0.19329">
        <ele>2385.4</ele>
        <time>2026-07-15T10:32:58Z</time>
      </trkpt>
      <trkpt lat="42.87325" lon="-0.19329">
        <ele>2385.4</ele>
        <time>2026-07-15T10:32:59Z</time>
      </trkpt>
      <trkpt lat="42.87325" lon="-0.19329">
        <ele>2385.4</ele>
        <time>2026-07-15T10:33:00Z</time>
      </trkpt>
      <trkpt lat="42.87325" lon="-0.19329">
        <ele>2385.4</ele>
        <time>2026-07-15T10:33:01Z</time>
      </trkpt>
      <trkpt lat="42.87325" lon="-0.19329">
        <ele>2385.4</ele>
        <time>2026-07-15T10:33:02Z</time>
      </trkpt>
      <trkpt lat="42.87325" lon="-0.19329">
        <ele>2385.4</ele>
        <time>2026-07-15T10:33:03Z</time>
      </trkpt>
      <trkpt lat="42.87325" lon="-0.19329">
        <ele>2385.4</ele>
        <time>2026-07-15T10:33:04Z</time>
      </trkpt>
      <trkpt lat="42.87325" lon="-0.19329">
        <ele>2385.4</ele>
        <time>2026-07-15T10:33:05Z</time>
      </trkpt>
      <trkpt lat="42.87325" lon="-0.19329">
        <ele>2385.4</ele>
        <time>2026-07-15T10:33:06Z</time>
      </trkpt>
      <trkpt lat="42.87325" lon="-0.19329">
        <ele>2385.4</ele>
        <time>2026-07-15T10:33:07Z</time>
      </trkpt>
      <trkpt lat="42.87325" lon="-0.19329">
        <ele>2385.4</ele>
        <time>2026-07-15T10:33:08Z</time>
      </trkpt>
      <trkpt lat="42.87325" lon="-0.19329">
        <ele>2385.4</ele>
        <time>2026-07-15T10:33:09Z</time>
      </trkpt>
      <trkpt lat="42.87325" lon="-0.19329">
        <ele>2385.4</ele>
        <time>2026-07-15T10:33:10Z</time>
      </trkpt>
      <trkpt lat="42.87325" lon="-0.19329">
        <ele>2385.4</ele>
        <time>2026-07-15T10:33:11Z</time>
      </trkpt>
      <trkpt lat="42.87325" lon="-0.19329">
        <ele>2385.4</ele>
        <time>2026-07-15T10:33:12Z</time>
      </trkpt>
      <trkpt lat="42.87325" lon="-0.19329">
        <ele>2385.4</ele>
        <time>2026-07-15T10:33:13Z</time>
      </trkpt>
      <trkpt lat="42.87325" lon="-0.19329">
        <ele>2385.4</ele>
        <time>2026-07-15T10:33:14Z</time>
      </trkpt>
      <trkpt lat="42.87325" lon="-0.19329">
        <ele>2385.4</ele>
        <time>2026-07-15T10:33:15Z</time>
      </trkpt>
      <trkpt lat="42.87325" lon="-0.19329">
        <ele>2385.4</ele>
        <time>2026-07-15T10:33:16Z</time>
      </trkpt>
      <trkpt lat="42.87325" lon="-0.19329">
        <ele>2385.4</ele>
        <time>2026-07-15T10:33:17Z</time>
      </trkpt>
      <trkpt lat="42.87325" lon="-0.19329">
        <ele>2385.4</ele>
        <time>2026-07-15T10:33:18Z</time>
      </trkpt>
      <trkpt lat="42.87325" lon="-0.19329">
        <ele>2385.4</ele>
        <time>2026-07-15T10:33:19Z</time>
      </trkpt>
      <trkpt lat="42.87325" lon="-0.19329">
        <ele>2385.4</ele>
        <time>2026-07-15T10:33:20Z</time>
      </trkpt>
      <trkpt lat="42.87325" lon="-0.19329">
        <ele>2385.4</ele>
        <time>2026-07-15T10:33:21Z</time>
      </trkpt>
      <trkpt lat="42.87325" lon="-0.19329">
        <ele>2385.4</ele>
        <time>2026-07-15T10:33:22Z</time>
      </trkpt>
      <trkpt lat="42.87325" lon="-0.19329">
        <ele>2385.4</ele>
        <time>2026-07-15T10:33:23Z</time>
      </trkpt>
      <trkpt lat="42.87325" lon="-0.19329">
        <ele>2385.4</ele>
        <time>2026-07-15T10:33:24Z</time>
      </trkpt>
      <trkpt lat="42.87325" lon="-0.19329">
        <ele>2385.4</ele>
        <time>2026-07-15T10:33:25Z</time>
      </trkpt>
      <trkpt lat="42.87325" lon="-0.19329">
        <ele>2385.4</ele>
        <time>2026-07-15T10:33:26Z</time>
      </trkpt>
      <trkpt lat="42.87325" lon="-0.19329">
        <ele>2385.4</ele>
        <time>2026-07-15T10:33:27Z</time>
      </trkpt>
      <trkpt lat="42.87325" lon="-0.19329">
        <ele>2385.4</ele>
        <time>2026-07-15T10:33:28Z</time>
      </trkpt>
      <trkpt lat="42.87325" lon="-0.19329">
        <ele>2385.4</ele>
        <time>2026-07-15T10:33:29Z</time>
      </trkpt>
      <trkpt lat="42.87325" lon="-0.19329">
        <ele>2385.4</ele>
        <time>2026-07-15T10:33:30Z</time>
      </trkpt>
      <trkpt lat="42.87325" lon="-0.19329">
        <ele>2385.4</ele>
        <time>2026-07-15T10:33:31Z</time>
      </trkpt>
      <trkpt lat="42.87325" lon="-0.19329">
        <ele>2385.4</ele>
        <time>2026-07-15T10:33:32Z</time>
      </trkpt>
      <trkpt lat="42.87325" lon="-0.19329">
        <ele>2385.4</ele>
        <time>2026-07-15T10:33:33Z</time>
      </trkpt>
      <trkpt lat="42.87325" lon="-0.19329">
        <ele>2385.4</ele>
        <time>2026-07-15T10:33:34Z</time>
      </trkpt>
      <trkpt lat="42.87325" lon="-0.19329">
        <ele>2385.4</ele>
        <time>2026-07-15T10:33:35Z</time>
      </trkpt>
      <trkpt lat="42.87325" lon="-0.19329">
        <ele>2385.4</ele>
        <time>2026-07-15T10:33:36Z</time>
      </trkpt>
      <trkpt lat="42.87325" lon="-0.19329">
        <ele>2385.4</ele>
        <time>2026-07-15T10:33:37Z</time>
      </trkpt>
      <trkpt lat="42.87325" lon="-0.19329">
        <ele>2385.4</ele>
        <time>2026-07-15T10:33:38Z</time>
      </trkpt>
      <trkpt lat="42.87325" lon="-0.19329">
        <ele>2385.4</ele>
        <time>2026-07-15T10:33:39Z</time>
      </trkpt>
      <trkpt lat="42.87325" lon="-0.19329">
        <ele>2385.4</ele>
        <time>2026-07-15T10:33:40Z</time>
      </trkpt>
      <trkpt lat="42.87325" lon="-0.19329">
        <ele>2385.4</ele>
        <time>2026-07-15T10:33:41Z</time>
      </trkpt>
      <trkpt lat="42.87325" lon="-0.19329">
        <ele>2384.4</ele>
        <time>2026-07-15T10:33:42Z</time>
      </trkpt>
      <trkpt lat="42.87326" lon="-0.19328">
        <ele>2383.4</ele>
        <time>2026-07-15T10:33:43Z</time>
      </trkpt>
      <trkpt lat="42.87327" lon="-0.19329">
        <ele>2384.4</ele>
        <time>2026-07-15T10:33:44Z</time>
      </trkpt>
      <trkpt lat="42.87326" lon="-0.19329">
        <ele>2384.4</ele>
        <time>2026-07-15T10:33:45Z</time>
      </trkpt>
      <trkpt lat="42.87326" lon="-0.19329">
        <ele>2384.4</ele>
        <time>2026-07-15T10:33:46Z</time>
      </trkpt>
      <trkpt lat="42.87325" lon="-0.19329">
        <ele>2385.4</ele>
        <time>2026-07-15T10:33:47Z</time>
      </trkpt>
      <trkpt lat="42.87325" lon="-0.19329">
        <ele>2385.4</ele>
        <time>2026-07-15T10:33:48Z</time>
      </trkpt>
      <trkpt lat="42.87325" lon="-0.19329">
        <ele>2385.4</ele>
        <time>2026-07-15T10:33:49Z</time>
      </trkpt>
      <trkpt lat="42.87325" lon="-0.19329">
        <ele>2385.4</ele>
        <time>2026-07-15T10:33:50Z</time>
      </trkpt>
      <trkpt lat="42.87325" lon="-0.19329">
        <ele>2385.4</ele>
        <time>2026-07-15T10:33:51Z</time>
      </trkpt>
      <trkpt lat="42.87325" lon="-0.19329">
        <ele>2385.4</ele>
        <time>2026-07-15T10:33:52Z</time>
      </trkpt>
      <trkpt lat="42.87325" lon="-0.19329">
        <ele>2385.4</ele>
        <time>2026-07-15T10:33:53Z</time>
      </trkpt>
      <trkpt lat="42.87325" lon="-0.19329">
        <ele>2385.4</ele>
        <time>2026-07-15T10:33:54Z</time>
      </trkpt>
      <trkpt lat="42.87325" lon="-0.19329">
        <ele>2385.4</ele>
        <time>2026-07-15T10:33:55Z</time>
      </trkpt>
      <trkpt lat="42.87325" lon="-0.19329">
        <ele>2385.4</ele>
        <time>2026-07-15T10:33:56Z</time>
      </trkpt>
      <trkpt lat="42.87325" lon="-0.19329">
        <ele>2384.4</ele>
        <time>2026-07-15T10:33:57Z</time>
      </trkpt>
      <trkpt lat="42.87325" lon="-0.19329">
        <ele>2383.4</ele>
        <time>2026-07-15T10:33:58Z</time>
      </trkpt>
      <trkpt lat="42.87325" lon="-0.19329">
        <ele>2383.4</ele>
        <time>2026-07-15T10:33:59Z</time>
      </trkpt>
      <trkpt lat="42.87325" lon="-0.19329">
        <ele>2384.4</ele>
        <time>2026-07-15T10:34:00Z</time>
      </trkpt>
      <trkpt lat="42.87325" lon="-0.19329">
        <ele>2383.4</ele>
        <time>2026-07-15T10:34:01Z</time>
      </trkpt>
      <trkpt lat="42.87325" lon="-0.19329">
        <ele>2383.4</ele>
        <time>2026-07-15T10:34:02Z</time>
      </trkpt>
      <trkpt lat="42.87325" lon="-0.19329">
        <ele>2383.4</ele>
        <time>2026-07-15T10:34:03Z</time>
      </trkpt>
      <trkpt lat="42.87325" lon="-0.19329">
        <ele>2383.4</ele>
        <time>2026-07-15T10:34:04Z</time>
      </trkpt>
      <trkpt lat="42.87326" lon="-0.19329">
        <ele>2384.4</ele>
        <time>2026-07-15T10:34:05Z</time>
      </trkpt>
      <trkpt lat="42.87326" lon="-0.19329">
        <ele>2384.4</ele>
        <time>2026-07-15T10:34:06Z</time>
      </trkpt>
      <trkpt lat="42.87326" lon="-0.19329">
        <ele>2383.4</ele>
        <time>2026-07-15T10:34:07Z</time>
      </trkpt>
      <trkpt lat="42.87325" lon="-0.19329">
        <ele>2383.4</ele>
        <time>2026-07-15T10:34:08Z</time>
      </trkpt>
      <trkpt lat="42.87325" lon="-0.19329">
        <ele>2383.4</ele>
        <time>2026-07-15T10:34:09Z</time>
      </trkpt>
      <trkpt lat="42.87325" lon="-0.19329">
        <ele>2383.4</ele>
        <time>2026-07-15T10:34:10Z</time>
      </trkpt>
      <trkpt lat="42.87325" lon="-0.19329">
        <ele>2383.4</ele>
        <time>2026-07-15T10:34:11Z</time>
      </trkpt>
      <trkpt lat="42.87325" lon="-0.19329">
        <ele>2383.4</ele>
        <time>2026-07-15T10:34:12Z</time>
      </trkpt>
      <trkpt lat="42.87325" lon="-0.19329">
        <ele>2383.4</ele>
        <time>2026-07-15T10:34:13Z</time>
      </trkpt>
      <trkpt lat="42.87325" lon="-0.19329">
        <ele>2383.4</ele>
        <time>2026-07-15T10:34:14Z</time>
      </trkpt>
      <trkpt lat="42.87325" lon="-0.19329">
        <ele>2383.4</ele>
        <time>2026-07-15T10:34:15Z</time>
      </trkpt>
      <trkpt lat="42.87325" lon="-0.19329">
        <ele>2383.4</ele>
        <time>2026-07-15T10:34:16Z</time>
      </trkpt>
      <trkpt lat="42.87325" lon="-0.19329">
        <ele>2383.4</ele>
        <time>2026-07-15T10:34:17Z</time>
      </trkpt>
      <trkpt lat="42.87325" lon="-0.19329">
        <ele>2383.4</ele>
        <time>2026-07-15T10:34:18Z</time>
      </trkpt>
      <trkpt lat="42.87325" lon="-0.19329">
        <ele>2383.4</ele>
        <time>2026-07-15T10:34:19Z</time>
      </trkpt>
      <trkpt lat="42.87325" lon="-0.19329">
        <ele>2383.4</ele>
        <time>2026-07-15T10:34:20Z</time>
      </trkpt>
      <trkpt lat="42.87325" lon="-0.19329">
        <ele>2383.4</ele>
        <time>2026-07-15T10:34:21Z</time>
      </trkpt>
      <trkpt lat="42.87325" lon="-0.19329">
        <ele>2383.4</ele>
        <time>2026-07-15T10:34:22Z</time>
      </trkpt>
      <trkpt lat="42.87325" lon="-0.19329">
        <ele>2384.4</ele>
        <time>2026-07-15T10:34:23Z</time>
      </trkpt>
      <trkpt lat="42.87325" lon="-0.19329">
        <ele>2384.4</ele>
        <time>2026-07-15T10:34:24Z</time>
      </trkpt>
      <trkpt lat="42.87325" lon="-0.19329">
        <ele>2384.4</ele>
        <time>2026-07-15T10:34:25Z</time>
      </trkpt>
      <trkpt lat="42.87325" lon="-0.19329">
        <ele>2384.4</ele>
        <time>2026-07-15T10:34:26Z</time>
      </trkpt>
      <trkpt lat="42.87325" lon="-0.19329">
        <ele>2383.4</ele>
        <time>2026-07-15T10:34:27Z</time>
      </trkpt>
      <trkpt lat="42.87325" lon="-0.19329">
        <ele>2382.4</ele>
        <time>2026-07-15T10:34:28Z</time>
      </trkpt>
      <trkpt lat="42.87325" lon="-0.19329">
        <ele>2382.4</ele>
        <time>2026-07-15T10:34:29Z</time>
      </trkpt>
      <trkpt lat="42.87325" lon="-0.19329">
        <ele>2382.4</ele>
        <time>2026-07-15T10:34:30Z</time>
      </trkpt>
      <trkpt lat="42.87325" lon="-0.19329">
        <ele>2382.4</ele>
        <time>2026-07-15T10:34:31Z</time>
      </trkpt>
      <trkpt lat="42.87325" lon="-0.19329">
        <ele>2382.4</ele>
        <time>2026-07-15T10:34:32Z</time>
      </trkpt>
      <trkpt lat="42.87325" lon="-0.19329">
        <ele>2382.4</ele>
        <time>2026-07-15T10:34:33Z</time>
      </trkpt>
      <trkpt lat="42.87325" lon="-0.19329">
        <ele>2382.4</ele>
        <time>2026-07-15T10:34:34Z</time>
      </trkpt>
      <trkpt lat="42.87324" lon="-0.19329">
        <ele>2382.4</ele>
        <time>2026-07-15T10:34:35Z</time>
      </trkpt>
      <trkpt lat="42.87325" lon="-0.19329">
        <ele>2383.4</ele>
        <time>2026-07-15T10:34:36Z</time>
      </trkpt>
      <trkpt lat="42.87325" lon="-0.19329">
        <ele>2383.4</ele>
        <time>2026-07-15T10:34:37Z</time>
      </trkpt>
      <trkpt lat="42.87325" lon="-0.19329">
        <ele>2383.4</ele>
        <time>2026-07-15T10:34:38Z</time>
      </trkpt>
      <trkpt lat="42.87325" lon="-0.19329">
        <ele>2383.4</ele>
        <time>2026-07-15T10:34:39Z</time>
      </trkpt>
      <trkpt lat="42.87324" lon="-0.19329">
        <ele>2382.4</ele>
        <time>2026-07-15T10:34:40Z</time>
      </trkpt>
      <trkpt lat="42.87324" lon="-0.1933">
        <ele>2382.4</ele>
        <time>2026-07-15T10:34:41Z</time>
      </trkpt>
      <trkpt lat="42.87323" lon="-0.1933">
        <ele>2381.4</ele>
        <time>2026-07-15T10:34:42Z</time>
      </trkpt>
      <trkpt lat="42.87324" lon="-0.1933">
        <ele>2380.4</ele>
        <time>2026-07-15T10:34:43Z</time>
      </trkpt>
      <trkpt lat="42.87325" lon="-0.19329">
        <ele>2380.4</ele>
        <time>2026-07-15T10:34:44Z</time>
      </trkpt>
      <trkpt lat="42.87325" lon="-0.19329">
        <ele>2380.4</ele>
        <time>2026-07-15T10:34:45Z</time>
      </trkpt>
      <trkpt lat="42.87325" lon="-0.19329">
        <ele>2380.4</ele>
        <time>2026-07-15T10:34:46Z</time>
      </trkpt>
      <trkpt lat="42.87325" lon="-0.19329">
        <ele>2380.4</ele>
        <time>2026-07-15T10:34:47Z</time>
      </trkpt>
      <trkpt lat="42.87325" lon="-0.19329">
        <ele>2380.4</ele>
        <time>2026-07-15T10:34:48Z</time>
      </trkpt>
      <trkpt lat="42.87325" lon="-0.19329">
        <ele>2380.4</ele>
        <time>2026-07-15T10:34:49Z</time>
      </trkpt>
      <trkpt lat="42.87325" lon="-0.19329">
        <ele>2380.4</ele>
        <time>2026-07-15T10:34:50Z</time>
      </trkpt>
      <trkpt lat="42.87325" lon="-0.19329">
        <ele>2380.4</ele>
        <time>2026-07-15T10:34:51Z</time>
      </trkpt>
      <trkpt lat="42.87325" lon="-0.19329">
        <ele>2380.4</ele>
        <time>2026-07-15T10:34:52Z</time>
      </trkpt>
      <trkpt lat="42.87325" lon="-0.19329">
        <ele>2380.4</ele>
        <time>2026-07-15T10:34:53Z</time>
      </trkpt>
      <trkpt lat="42.87325" lon="-0.19329">
        <ele>2380.4</ele>
        <time>2026-07-15T10:34:54Z</time>
      </trkpt>
      <trkpt lat="42.87325" lon="-0.19329">
        <ele>2380.4</ele>
        <time>2026-07-15T10:34:55Z</time>
      </trkpt>
      <trkpt lat="42.87325" lon="-0.19329">
        <ele>2380.4</ele>
        <time>2026-07-15T10:34:56Z</time>
      </trkpt>
      <trkpt lat="42.87325" lon="-0.19329">
        <ele>2380.4</ele>
        <time>2026-07-15T10:34:57Z</time>
      </trkpt>
      <trkpt lat="42.87325" lon="-0.19329">
        <ele>2380.4</ele>
        <time>2026-07-15T10:34:58Z</time>
      </trkpt>
      <trkpt lat="42.87325" lon="-0.19329">
        <ele>2380.4</ele>
        <time>2026-07-15T10:34:59Z</time>
      </trkpt>
      <trkpt lat="42.87325" lon="-0.19329">
        <ele>2380.4</ele>
        <time>2026-07-15T10:35:00Z</time>
      </trkpt>
      <trkpt lat="42.87325" lon="-0.19329">
        <ele>2380.4</ele>
        <time>2026-07-15T10:35:01Z</time>
      </trkpt>
      <trkpt lat="42.87325" lon="-0.19329">
        <ele>2380.4</ele>
        <time>2026-07-15T10:35:02Z</time>
      </trkpt>
      <trkpt lat="42.87325" lon="-0.19329">
        <ele>2380.4</ele>
        <time>2026-07-15T10:35:03Z</time>
      </trkpt>
      <trkpt lat="42.87325" lon="-0.19329">
        <ele>2381.4</ele>
        <time>2026-07-15T10:35:04Z</time>
      </trkpt>
      <trkpt lat="42.87325" lon="-0.19329">
        <ele>2381.4</ele>
        <time>2026-07-15T10:35:05Z</time>
      </trkpt>
      <trkpt lat="42.87325" lon="-0.1933">
        <ele>2383.4</ele>
        <time>2026-07-15T10:35:06Z</time>
      </trkpt>
      <trkpt lat="42.87325" lon="-0.1933">
        <ele>2384.4</ele>
        <time>2026-07-15T10:35:07Z</time>
      </trkpt>
      <trkpt lat="42.87325" lon="-0.19329">
        <ele>2384.4</ele>
        <time>2026-07-15T10:35:08Z</time>
      </trkpt>
      <trkpt lat="42.87325" lon="-0.19329">
        <ele>2385.4</ele>
        <time>2026-07-15T10:35:09Z</time>
      </trkpt>
      <trkpt lat="42.87325" lon="-0.19329">
        <ele>2384.4</ele>
        <time>2026-07-15T10:35:10Z</time>
      </trkpt>
      <trkpt lat="42.87325" lon="-0.19329">
        <ele>2385.4</ele>
        <time>2026-07-15T10:35:11Z</time>
      </trkpt>
      <trkpt lat="42.87325" lon="-0.19329">
        <ele>2385.4</ele>
        <time>2026-07-15T10:35:12Z</time>
      </trkpt>
      <trkpt lat="42.87325" lon="-0.19329">
        <ele>2385.4</ele>
        <time>2026-07-15T10:35:13Z</time>
      </trkpt>
      <trkpt lat="42.87325" lon="-0.19329">
        <ele>2385.4</ele>
        <time>2026-07-15T10:35:14Z</time>
      </trkpt>
      <trkpt lat="42.87326" lon="-0.19329">
        <ele>2386.4</ele>
        <time>2026-07-15T10:35:15Z</time>
      </trkpt>
      <trkpt lat="42.87325" lon="-0.19329">
        <ele>2386.4</ele>
        <time>2026-07-15T10:35:16Z</time>
      </trkpt>
      <trkpt lat="42.87325" lon="-0.19329">
        <ele>2386.4</ele>
        <time>2026-07-15T10:35:17Z</time>
      </trkpt>
      <trkpt lat="42.87325" lon="-0.19329">
        <ele>2386.4</ele>
        <time>2026-07-15T10:35:18Z</time>
      </trkpt>
      <trkpt lat="42.87325" lon="-0.19329">
        <ele>2385.4</ele>
        <time>2026-07-15T10:35:19Z</time>
      </trkpt>
      <trkpt lat="42.87325" lon="-0.19329">
        <ele>2384.4</ele>
        <time>2026-07-15T10:35:20Z</time>
      </trkpt>
      <trkpt lat="42.87325" lon="-0.19329">
        <ele>2385.4</ele>
        <time>2026-07-15T10:35:21Z</time>
      </trkpt>
      <trkpt lat="42.87325" lon="-0.19329">
        <ele>2384.4</ele>
        <time>2026-07-15T10:35:22Z</time>
      </trkpt>
      <trkpt lat="42.87324" lon="-0.19328">
        <ele>2381.4</ele>
        <time>2026-07-15T10:35:23Z</time>
      </trkpt>
      <trkpt lat="42.87324" lon="-0.19328">
        <ele>2379.4</ele>
        <time>2026-07-15T10:35:24Z</time>
      </trkpt>
      <trkpt lat="42.87324" lon="-0.19328">
        <ele>2379.4</ele>
        <time>2026-07-15T10:35:25Z</time>
      </trkpt>
      <trkpt lat="42.87324" lon="-0.19328">
        <ele>2379.4</ele>
        <time>2026-07-15T10:35:26Z</time>
      </trkpt>
      <trkpt lat="42.87324" lon="-0.19328">
        <ele>2380.4</ele>
        <time>2026-07-15T10:35:27Z</time>
      </trkpt>
      <trkpt lat="42.87325" lon="-0.19329">
        <ele>2380.4</ele>
        <time>2026-07-15T10:35:28Z</time>
      </trkpt>
      <trkpt lat="42.87325" lon="-0.19329">
        <ele>2381.4</ele>
        <time>2026-07-15T10:35:29Z</time>
      </trkpt>
      <trkpt lat="42.87325" lon="-0.19329">
        <ele>2381.4</ele>
        <time>2026-07-15T10:35:30Z</time>
      </trkpt>
      <trkpt lat="42.87325" lon="-0.19329">
        <ele>2381.4</ele>
        <time>2026-07-15T10:35:31Z</time>
      </trkpt>
      <trkpt lat="42.87325" lon="-0.19329">
        <ele>2382.4</ele>
        <time>2026-07-15T10:35:32Z</time>
      </trkpt>
      <trkpt lat="42.87325" lon="-0.19329">
        <ele>2381.4</ele>
        <time>2026-07-15T10:35:33Z</time>
      </trkpt>
      <trkpt lat="42.87325" lon="-0.19329">
        <ele>2381.4</ele>
        <time>2026-07-15T10:35:34Z</time>
      </trkpt>
      <trkpt lat="42.87325" lon="-0.19329">
        <ele>2382.4</ele>
        <time>2026-07-15T10:35:35Z</time>
      </trkpt>
      <trkpt lat="42.87325" lon="-0.19329">
        <ele>2382.4</ele>
        <time>2026-07-15T10:35:36Z</time>
      </trkpt>
      <trkpt lat="42.87325" lon="-0.19329">
        <ele>2381.4</ele>
        <time>2026-07-15T10:35:37Z</time>
      </trkpt>
      <trkpt lat="42.87325" lon="-0.19329">
        <ele>2381.4</ele>
        <time>2026-07-15T10:35:38Z</time>
      </trkpt>
      <trkpt lat="42.87325" lon="-0.19329">
        <ele>2381.4</ele>
        <time>2026-07-15T10:35:39Z</time>
      </trkpt>
      <trkpt lat="42.87325" lon="-0.19329">
        <ele>2381.4</ele>
        <time>2026-07-15T10:35:40Z</time>
      </trkpt>
      <trkpt lat="42.87325" lon="-0.19329">
        <ele>2381.4</ele>
        <time>2026-07-15T10:35:41Z</time>
      </trkpt>
      <trkpt lat="42.87325" lon="-0.19329">
        <ele>2381.4</ele>
        <time>2026-07-15T10:35:42Z</time>
      </trkpt>
      <trkpt lat="42.87325" lon="-0.19329">
        <ele>2381.4</ele>
        <time>2026-07-15T10:35:43Z</time>
      </trkpt>
      <trkpt lat="42.87325" lon="-0.19329">
        <ele>2382.4</ele>
        <time>2026-07-15T10:35:44Z</time>
      </trkpt>
      <trkpt lat="42.87325" lon="-0.19329">
        <ele>2382.4</ele>
        <time>2026-07-15T10:35:45Z</time>
      </trkpt>
      <trkpt lat="42.87325" lon="-0.19329">
        <ele>2382.4</ele>
        <time>2026-07-15T10:35:46Z</time>
      </trkpt>
      <trkpt lat="42.87325" lon="-0.19329">
        <ele>2382.4</ele>
        <time>2026-07-15T10:35:47Z</time>
      </trkpt>
      <trkpt lat="42.87325" lon="-0.19329">
        <ele>2382.4</ele>
        <time>2026-07-15T10:35:48Z</time>
      </trkpt>
      <trkpt lat="42.87326" lon="-0.19329">
        <ele>2382.4</ele>
        <time>2026-07-15T10:35:49Z</time>
      </trkpt>
      <trkpt lat="42.87325" lon="-0.1933">
        <ele>2382.4</ele>
        <time>2026-07-15T10:35:50Z</time>
      </trkpt>
      <trkpt lat="42.87325" lon="-0.19329">
        <ele>2382.4</ele>
        <time>2026-07-15T10:35:51Z</time>
      </trkpt>
      <trkpt lat="42.87325" lon="-0.19329">
        <ele>2382.4</ele>
        <time>2026-07-15T10:35:52Z</time>
      </trkpt>
      <trkpt lat="42.87325" lon="-0.19329">
        <ele>2383.4</ele>
        <time>2026-07-15T10:35:53Z</time>
      </trkpt>
      <trkpt lat="42.87325" lon="-0.19329">
        <ele>2383.4</ele>
        <time>2026-07-15T10:35:54Z</time>
      </trkpt>
      <trkpt lat="42.87325" lon="-0.19329">
        <ele>2382.4</ele>
        <time>2026-07-15T10:35:55Z</time>
      </trkpt>
      <trkpt lat="42.87325" lon="-0.19329">
        <ele>2382.4</ele>
        <time>2026-07-15T10:35:56Z</time>
      </trkpt>
      <trkpt lat="42.87325" lon="-0.19329">
        <ele>2382.4</ele>
        <time>2026-07-15T10:35:57Z</time>
      </trkpt>
      <trkpt lat="42.87325" lon="-0.19329">
        <ele>2382.4</ele>
        <time>2026-07-15T10:35:58Z</time>
      </trkpt>
      <trkpt lat="42.87325" lon="-0.19329">
        <ele>2382.4</ele>
        <time>2026-07-15T10:35:59Z</time>
      </trkpt>
      <trkpt lat="42.87325" lon="-0.19329">
        <ele>2382.4</ele>
        <time>2026-07-15T10:36:00Z</time>
      </trkpt>
      <trkpt lat="42.87325" lon="-0.19329">
        <ele>2382.4</ele>
        <time>2026-07-15T10:36:01Z</time>
      </trkpt>
      <trkpt lat="42.87325" lon="-0.19329">
        <ele>2382.4</ele>
        <time>2026-07-15T10:36:02Z</time>
      </trkpt>
      <trkpt lat="42.87325" lon="-0.19329">
        <ele>2382.4</ele>
        <time>2026-07-15T10:36:03Z</time>
      </trkpt>
      <trkpt lat="42.87325" lon="-0.19329">
        <ele>2382.4</ele>
        <time>2026-07-15T10:36:04Z</time>
      </trkpt>
      <trkpt lat="42.87325" lon="-0.19329">
        <ele>2382.4</ele>
        <time>2026-07-15T10:36:05Z</time>
      </trkpt>
      <trkpt lat="42.87325" lon="-0.19329">
        <ele>2382.4</ele>
        <time>2026-07-15T10:36:06Z</time>
      </trkpt>
      <trkpt lat="42.87325" lon="-0.19329">
        <ele>2382.4</ele>
        <time>2026-07-15T10:36:07Z</time>
      </trkpt>
      <trkpt lat="42.87325" lon="-0.19329">
        <ele>2382.4</ele>
        <time>2026-07-15T10:36:08Z</time>
      </trkpt>
      <trkpt lat="42.87325" lon="-0.19329">
        <ele>2382.4</ele>
        <time>2026-07-15T10:36:09Z</time>
      </trkpt>
      <trkpt lat="42.87325" lon="-0.19329">
        <ele>2382.4</ele>
        <time>2026-07-15T10:36:10Z</time>
      </trkpt>
      <trkpt lat="42.87325" lon="-0.19329">
        <ele>2382.4</ele>
        <time>2026-07-15T10:36:11Z</time>
      </trkpt>
      <trkpt lat="42.87325" lon="-0.19329">
        <ele>2382.4</ele>
        <time>2026-07-15T10:36:12Z</time>
      </trkpt>
      <trkpt lat="42.87325" lon="-0.19329">
        <ele>2382.4</ele>
        <time>2026-07-15T10:36:13Z</time>
      </trkpt>
      <trkpt lat="42.87325" lon="-0.19329">
        <ele>2382.4</ele>
        <time>2026-07-15T10:36:14Z</time>
      </trkpt>
      <trkpt lat="42.87325" lon="-0.19329">
        <ele>2382.4</ele>
        <time>2026-07-15T10:36:15Z</time>
      </trkpt>
      <trkpt lat="42.87325" lon="-0.19329">
        <ele>2382.4</ele>
        <time>2026-07-15T10:36:16Z</time>
      </trkpt>
      <trkpt lat="42.87325" lon="-0.19329">
        <ele>2382.4</ele>
        <time>2026-07-15T10:36:17Z</time>
      </trkpt>
      <trkpt lat="42.87325" lon="-0.19329">
        <ele>2382.4</ele>
        <time>2026-07-15T10:36:18Z</time>
      </trkpt>
      <trkpt lat="42.87325" lon="-0.1933">
        <ele>2382.4</ele>
        <time>2026-07-15T10:36:19Z</time>
      </trkpt>
      <trkpt lat="42.87325" lon="-0.1933">
        <ele>2382.4</ele>
        <time>2026-07-15T10:36:20Z</time>
      </trkpt>
      <trkpt lat="42.87325" lon="-0.1933">
        <ele>2382.4</ele>
        <time>2026-07-15T10:36:21Z</time>
      </trkpt>
      <trkpt lat="42.87325" lon="-0.1933">
        <ele>2381.4</ele>
        <time>2026-07-15T10:36:22Z</time>
      </trkpt>
      <trkpt lat="42.87325" lon="-0.19329">
        <ele>2381.4</ele>
        <time>2026-07-15T10:36:23Z</time>
      </trkpt>
      <trkpt lat="42.87325" lon="-0.19329">
        <ele>2381.4</ele>
        <time>2026-07-15T10:36:24Z</time>
      </trkpt>
      <trkpt lat="42.87325" lon="-0.19329">
        <ele>2381.4</ele>
        <time>2026-07-15T10:36:25Z</time>
      </trkpt>
      <trkpt lat="42.87325" lon="-0.19329">
        <ele>2381.4</ele>
        <time>2026-07-15T10:36:26Z</time>
      </trkpt>
      <trkpt lat="42.87325" lon="-0.19329">
        <ele>2381.4</ele>
        <time>2026-07-15T10:36:27Z</time>
      </trkpt>
      <trkpt lat="42.87325" lon="-0.19329">
        <ele>2381.4</ele>
        <time>2026-07-15T10:36:28Z</time>
      </trkpt>
      <trkpt lat="42.87325" lon="-0.19329">
        <ele>2381.4</ele>
        <time>2026-07-15T10:36:29Z</time>
      </trkpt>
      <trkpt lat="42.87325" lon="-0.19329">
        <ele>2381.4</ele>
        <time>2026-07-15T10:36:30Z</time>
      </trkpt>
      <trkpt lat="42.87325" lon="-0.19329">
        <ele>2381.4</ele>
        <time>2026-07-15T10:36:31Z</time>
      </trkpt>
      <trkpt lat="42.87325" lon="-0.19329">
        <ele>2381.4</ele>
        <time>2026-07-15T10:36:32Z</time>
      </trkpt>
      <trkpt lat="42.87325" lon="-0.19329">
        <ele>2381.4</ele>
        <time>2026-07-15T10:36:33Z</time>
      </trkpt>
      <trkpt lat="42.87325" lon="-0.19329">
        <ele>2381.4</ele>
        <time>2026-07-15T10:36:34Z</time>
      </trkpt>
      <trkpt lat="42.87325" lon="-0.19329">
        <ele>2381.4</ele>
        <time>2026-07-15T10:36:35Z</time>
      </trkpt>
      <trkpt lat="42.87325" lon="-0.19329">
        <ele>2381.4</ele>
        <time>2026-07-15T10:36:36Z</time>
      </trkpt>
      <trkpt lat="42.87325" lon="-0.19329">
        <ele>2381.4</ele>
        <time>2026-07-15T10:36:37Z</time>
      </trkpt>
      <trkpt lat="42.87325" lon="-0.19329">
        <ele>2381.4</ele>
        <time>2026-07-15T10:36:38Z</time>
      </trkpt>
      <trkpt lat="42.87325" lon="-0.19329">
        <ele>2381.4</ele>
        <time>2026-07-15T10:36:39Z</time>
      </trkpt>
      <trkpt lat="42.87325" lon="-0.19329">
        <ele>2381.4</ele>
        <time>2026-07-15T10:36:40Z</time>
      </trkpt>
      <trkpt lat="42.87325" lon="-0.19329">
        <ele>2381.4</ele>
        <time>2026-07-15T10:36:41Z</time>
      </trkpt>
      <trkpt lat="42.87325" lon="-0.19329">
        <ele>2381.4</ele>
        <time>2026-07-15T10:36:42Z</time>
      </trkpt>
      <trkpt lat="42.87325" lon="-0.19329">
        <ele>2381.4</ele>
        <time>2026-07-15T10:36:43Z</time>
      </trkpt>
      <trkpt lat="42.87325" lon="-0.19329">
        <ele>2381.4</ele>
        <time>2026-07-15T10:36:44Z</time>
      </trkpt>
      <trkpt lat="42.87325" lon="-0.19329">
        <ele>2381.4</ele>
        <time>2026-07-15T10:36:45Z</time>
      </trkpt>
      <trkpt lat="42.87325" lon="-0.19329">
        <ele>2381.4</ele>
        <time>2026-07-15T10:36:46Z</time>
      </trkpt>
      <trkpt lat="42.87325" lon="-0.19329">
        <ele>2381.4</ele>
        <time>2026-07-15T10:36:47Z</time>
      </trkpt>
      <trkpt lat="42.87325" lon="-0.19329">
        <ele>2381.4</ele>
        <time>2026-07-15T10:36:48Z</time>
      </trkpt>
      <trkpt lat="42.87325" lon="-0.19329">
        <ele>2381.4</ele>
        <time>2026-07-15T10:36:49Z</time>
      </trkpt>
      <trkpt lat="42.87325" lon="-0.19329">
        <ele>2381.4</ele>
        <time>2026-07-15T10:36:50Z</time>
      </trkpt>
      <trkpt lat="42.87325" lon="-0.19329">
        <ele>2381.4</ele>
        <time>2026-07-15T10:36:51Z</time>
      </trkpt>
      <trkpt lat="42.87325" lon="-0.19329">
        <ele>2381.4</ele>
        <time>2026-07-15T10:36:52Z</time>
      </trkpt>
      <trkpt lat="42.87325" lon="-0.19329">
        <ele>2381.4</ele>
        <time>2026-07-15T10:36:53Z</time>
      </trkpt>
      <trkpt lat="42.87325" lon="-0.19329">
        <ele>2381.4</ele>
        <time>2026-07-15T10:36:54Z</time>
      </trkpt>
      <trkpt lat="42.87325" lon="-0.19329">
        <ele>2381.4</ele>
        <time>2026-07-15T10:36:55Z</time>
      </trkpt>
      <trkpt lat="42.87325" lon="-0.19329">
        <ele>2381.4</ele>
        <time>2026-07-15T10:36:56Z</time>
      </trkpt>
      <trkpt lat="42.87325" lon="-0.19329">
        <ele>2381.4</ele>
        <time>2026-07-15T10:36:57Z</time>
      </trkpt>
      <trkpt lat="42.87325" lon="-0.19329">
        <ele>2381.4</ele>
        <time>2026-07-15T10:36:58Z</time>
      </trkpt>
      <trkpt lat="42.87325" lon="-0.19329">
        <ele>2381.4</ele>
        <time>2026-07-15T10:36:59Z</time>
      </trkpt>
      <trkpt lat="42.87325" lon="-0.19329">
        <ele>2381.4</ele>
        <time>2026-07-15T10:37:00Z</time>
      </trkpt>
      <trkpt lat="42.87325" lon="-0.19329">
        <ele>2381.4</ele>
        <time>2026-07-15T10:37:01Z</time>
      </trkpt>
      <trkpt lat="42.87325" lon="-0.19329">
        <ele>2381.4</ele>
        <time>2026-07-15T10:37:02Z</time>
      </trkpt>
      <trkpt lat="42.87325" lon="-0.19329">
        <ele>2381.4</ele>
        <time>2026-07-15T10:37:03Z</time>
      </trkpt>
      <trkpt lat="42.87325" lon="-0.19329">
        <ele>2381.4</ele>
        <time>2026-07-15T10:37:04Z</time>
      </trkpt>
      <trkpt lat="42.87325" lon="-0.19329">
        <ele>2382.4</ele>
        <time>2026-07-15T10:37:05Z</time>
      </trkpt>
      <trkpt lat="42.87325" lon="-0.19329">
        <ele>2382.4</ele>
        <time>2026-07-15T10:37:06Z</time>
      </trkpt>
      <trkpt lat="42.87325" lon="-0.19329">
        <ele>2382.4</ele>
        <time>2026-07-15T10:37:07Z</time>
      </trkpt>
      <trkpt lat="42.87325" lon="-0.1933">
        <ele>2383.4</ele>
        <time>2026-07-15T10:37:08Z</time>
      </trkpt>
      <trkpt lat="42.87325" lon="-0.19329">
        <ele>2382.4</ele>
        <time>2026-07-15T10:37:09Z</time>
      </trkpt>
      <trkpt lat="42.87325" lon="-0.19329">
        <ele>2382.4</ele>
        <time>2026-07-15T10:37:10Z</time>
      </trkpt>
      <trkpt lat="42.87325" lon="-0.19329">
        <ele>2382.4</ele>
        <time>2026-07-15T10:37:11Z</time>
      </trkpt>
      <trkpt lat="42.87325" lon="-0.1933">
        <ele>2382.4</ele>
        <time>2026-07-15T10:37:12Z</time>
      </trkpt>
      <trkpt lat="42.87325" lon="-0.1933">
        <ele>2382.4</ele>
        <time>2026-07-15T10:37:13Z</time>
      </trkpt>
      <trkpt lat="42.87325" lon="-0.1933">
        <ele>2382.4</ele>
        <time>2026-07-15T10:37:14Z</time>
      </trkpt>
      <trkpt lat="42.87325" lon="-0.1933">
        <ele>2382.4</ele>
        <time>2026-07-15T10:37:15Z</time>
      </trkpt>
      <trkpt lat="42.87326" lon="-0.1933">
        <ele>2382.4</ele>
        <time>2026-07-15T10:37:16Z</time>
      </trkpt>
      <trkpt lat="42.87326" lon="-0.1933">
        <ele>2382.4</ele>
        <time>2026-07-15T10:37:17Z</time>
      </trkpt>
      <trkpt lat="42.87326" lon="-0.1933">
        <ele>2382.4</ele>
        <time>2026-07-15T10:37:18Z</time>
      </trkpt>
      <trkpt lat="42.87326" lon="-0.1933">
        <ele>2382.4</ele>
        <time>2026-07-15T10:37:19Z</time>
      </trkpt>
      <trkpt lat="42.87326" lon="-0.1933">
        <ele>2382.4</ele>
        <time>2026-07-15T10:37:20Z</time>
      </trkpt>
      <trkpt lat="42.87326" lon="-0.1933">
        <ele>2382.4</ele>
        <time>2026-07-15T10:37:21Z</time>
      </trkpt>
      <trkpt lat="42.87326" lon="-0.1933">
        <ele>2382.4</ele>
        <time>2026-07-15T10:37:22Z</time>
      </trkpt>
      <trkpt lat="42.87326" lon="-0.1933">
        <ele>2382.4</ele>
        <time>2026-07-15T10:37:23Z</time>
      </trkpt>
      <trkpt lat="42.87326" lon="-0.1933">
        <ele>2382.4</ele>
        <time>2026-07-15T10:37:24Z</time>
      </trkpt>
      <trkpt lat="42.87326" lon="-0.1933">
        <ele>2382.4</ele>
        <time>2026-07-15T10:37:25Z</time>
      </trkpt>
      <trkpt lat="42.87326" lon="-0.1933">
        <ele>2382.4</ele>
        <time>2026-07-15T10:37:26Z</time>
      </trkpt>
      <trkpt lat="42.87326" lon="-0.1933">
        <ele>2382.4</ele>
        <time>2026-07-15T10:37:27Z</time>
      </trkpt>
      <trkpt lat="42.87326" lon="-0.1933">
        <ele>2382.4</ele>
        <time>2026-07-15T10:37:28Z</time>
      </trkpt>
      <trkpt lat="42.87326" lon="-0.1933">
        <ele>2382.4</ele>
        <time>2026-07-15T10:37:29Z</time>
      </trkpt>
      <trkpt lat="42.87326" lon="-0.1933">
        <ele>2382.4</ele>
        <time>2026-07-15T10:37:30Z</time>
      </trkpt>
      <trkpt lat="42.87326" lon="-0.1933">
        <ele>2382.4</ele>
        <time>2026-07-15T10:37:31Z</time>
      </trkpt>
      <trkpt lat="42.87326" lon="-0.1933">
        <ele>2382.4</ele>
        <time>2026-07-15T10:37:32Z</time>
      </trkpt>
      <trkpt lat="42.87326" lon="-0.1933">
        <ele>2382.4</ele>
        <time>2026-07-15T10:37:33Z</time>
      </trkpt>
      <trkpt lat="42.87325" lon="-0.1933">
        <ele>2382.4</ele>
        <time>2026-07-15T10:37:34Z</time>
      </trkpt>
      <trkpt lat="42.87325" lon="-0.1933">
        <ele>2382.4</ele>
        <time>2026-07-15T10:37:35Z</time>
      </trkpt>
      <trkpt lat="42.87325" lon="-0.1933">
        <ele>2382.4</ele>
        <time>2026-07-15T10:37:36Z</time>
      </trkpt>
      <trkpt lat="42.87325" lon="-0.1933">
        <ele>2382.4</ele>
        <time>2026-07-15T10:37:37Z</time>
      </trkpt>
      <trkpt lat="42.87325" lon="-0.1933">
        <ele>2382.4</ele>
        <time>2026-07-15T10:37:38Z</time>
      </trkpt>
      <trkpt lat="42.87325" lon="-0.1933">
        <ele>2382.4</ele>
        <time>2026-07-15T10:37:39Z</time>
      </trkpt>
      <trkpt lat="42.87325" lon="-0.1933">
        <ele>2382.4</ele>
        <time>2026-07-15T10:37:40Z</time>
      </trkpt>
      <trkpt lat="42.87325" lon="-0.1933">
        <ele>2382.4</ele>
        <time>2026-07-15T10:37:41Z</time>
      </trkpt>
      <trkpt lat="42.87325" lon="-0.1933">
        <ele>2382.4</ele>
        <time>2026-07-15T10:37:42Z</time>
      </trkpt>
      <trkpt lat="42.87325" lon="-0.1933">
        <ele>2382.4</ele>
        <time>2026-07-15T10:37:43Z</time>
      </trkpt>
      <trkpt lat="42.87325" lon="-0.1933">
        <ele>2382.4</ele>
        <time>2026-07-15T10:37:44Z</time>
      </trkpt>
      <trkpt lat="42.87325" lon="-0.1933">
        <ele>2382.4</ele>
        <time>2026-07-15T10:37:45Z</time>
      </trkpt>
      <trkpt lat="42.87325" lon="-0.1933">
        <ele>2382.4</ele>
        <time>2026-07-15T10:37:46Z</time>
      </trkpt>
      <trkpt lat="42.87325" lon="-0.1933">
        <ele>2383.4</ele>
        <time>2026-07-15T10:37:47Z</time>
      </trkpt>
      <trkpt lat="42.87325" lon="-0.1933">
        <ele>2385.4</ele>
        <time>2026-07-15T10:37:48Z</time>
      </trkpt>
      <trkpt lat="42.87325" lon="-0.19329">
        <ele>2385.4</ele>
        <time>2026-07-15T10:37:49Z</time>
      </trkpt>
      <trkpt lat="42.87325" lon="-0.19329">
        <ele>2385.4</ele>
        <time>2026-07-15T10:37:50Z</time>
      </trkpt>
      <trkpt lat="42.87324" lon="-0.19329">
        <ele>2385.4</ele>
        <time>2026-07-15T10:37:51Z</time>
      </trkpt>
      <trkpt lat="42.87324" lon="-0.19328">
        <ele>2385.4</ele>
        <time>2026-07-15T10:37:52Z</time>
      </trkpt>
      <trkpt lat="42.87324" lon="-0.19326">
        <ele>2385.4</ele>
        <time>2026-07-15T10:37:53Z</time>
      </trkpt>
      <trkpt lat="42.87323" lon="-0.19325">
        <ele>2385.4</ele>
        <time>2026-07-15T10:37:54Z</time>
      </trkpt>
      <trkpt lat="42.87323" lon="-0.19324">
        <ele>2384.4</ele>
        <time>2026-07-15T10:37:55Z</time>
      </trkpt>
      <trkpt lat="42.87324" lon="-0.19325">
        <ele>2385.4</ele>
        <time>2026-07-15T10:37:56Z</time>
      </trkpt>
      <trkpt lat="42.87325" lon="-0.19325">
        <ele>2384.4</ele>
        <time>2026-07-15T10:37:57Z</time>
      </trkpt>
      <trkpt lat="42.87326" lon="-0.19325">
        <ele>2383.4</ele>
        <time>2026-07-15T10:37:58Z</time>
      </trkpt>
      <trkpt lat="42.87326" lon="-0.19325">
        <ele>2384.4</ele>
        <time>2026-07-15T10:37:59Z</time>
      </trkpt>
      <trkpt lat="42.87328" lon="-0.19325">
        <ele>2384.4</ele>
        <time>2026-07-15T10:38:00Z</time>
      </trkpt>
      <trkpt lat="42.87328" lon="-0.19325">
        <ele>2384.4</ele>
        <time>2026-07-15T10:38:01Z</time>
      </trkpt>
      <trkpt lat="42.87328" lon="-0.19325">
        <ele>2384.4</ele>
        <time>2026-07-15T10:38:02Z</time>
      </trkpt>
      <trkpt lat="42.87328" lon="-0.19325">
        <ele>2384.4</ele>
        <time>2026-07-15T10:38:03Z</time>
      </trkpt>
      <trkpt lat="42.87328" lon="-0.19325">
        <ele>2384.4</ele>
        <time>2026-07-15T10:38:04Z</time>
      </trkpt>
      <trkpt lat="42.87327" lon="-0.19325">
        <ele>2385.4</ele>
        <time>2026-07-15T10:38:05Z</time>
      </trkpt>
      <trkpt lat="42.87327" lon="-0.19325">
        <ele>2386.4</ele>
        <time>2026-07-15T10:38:06Z</time>
      </trkpt>
      <trkpt lat="42.87327" lon="-0.19325">
        <ele>2386.4</ele>
        <time>2026-07-15T10:38:07Z</time>
      </trkpt>
      <trkpt lat="42.87326" lon="-0.19325">
        <ele>2385.4</ele>
        <time>2026-07-15T10:38:08Z</time>
      </trkpt>
      <trkpt lat="42.87325" lon="-0.19325">
        <ele>2384.4</ele>
        <time>2026-07-15T10:38:09Z</time>
      </trkpt>
      <trkpt lat="42.87324" lon="-0.19326">
        <ele>2384.4</ele>
        <time>2026-07-15T10:38:10Z</time>
      </trkpt>
      <trkpt lat="42.87325" lon="-0.19327">
        <ele>2384.4</ele>
        <time>2026-07-15T10:38:11Z</time>
      </trkpt>
      <trkpt lat="42.87325" lon="-0.19327">
        <ele>2383.4</ele>
        <time>2026-07-15T10:38:12Z</time>
      </trkpt>
      <trkpt lat="42.87325" lon="-0.19328">
        <ele>2384.4</ele>
        <time>2026-07-15T10:38:13Z</time>
      </trkpt>
      <trkpt lat="42.87324" lon="-0.19329">
        <ele>2384.4</ele>
        <time>2026-07-15T10:38:14Z</time>
      </trkpt>
      <trkpt lat="42.87324" lon="-0.19329">
        <ele>2384.4</ele>
        <time>2026-07-15T10:38:15Z</time>
      </trkpt>
      <trkpt lat="42.87324" lon="-0.19331">
        <ele>2384.4</ele>
        <time>2026-07-15T10:38:16Z</time>
      </trkpt>
      <trkpt lat="42.87324" lon="-0.19333">
        <ele>2384.4</ele>
        <time>2026-07-15T10:38:17Z</time>
      </trkpt>
      <trkpt lat="42.87324" lon="-0.19333">
        <ele>2385.4</ele>
        <time>2026-07-15T10:38:18Z</time>
      </trkpt>
      <trkpt lat="42.87325" lon="-0.19332">
        <ele>2385.4</ele>
        <time>2026-07-15T10:38:19Z</time>
      </trkpt>
      <trkpt lat="42.87324" lon="-0.19331">
        <ele>2385.4</ele>
        <time>2026-07-15T10:38:20Z</time>
      </trkpt>
      <trkpt lat="42.87324" lon="-0.19331">
        <ele>2385.4</ele>
        <time>2026-07-15T10:38:21Z</time>
      </trkpt>
      <trkpt lat="42.87324" lon="-0.19331">
        <ele>2386.4</ele>
        <time>2026-07-15T10:38:22Z</time>
      </trkpt>
      <trkpt lat="42.87324" lon="-0.19331">
        <ele>2386.4</ele>
        <time>2026-07-15T10:38:23Z</time>
      </trkpt>
      <trkpt lat="42.87324" lon="-0.19331">
        <ele>2386.4</ele>
        <time>2026-07-15T10:38:24Z</time>
      </trkpt>
      <trkpt lat="42.87324" lon="-0.19331">
        <ele>2386.4</ele>
        <time>2026-07-15T10:38:25Z</time>
      </trkpt>
      <trkpt lat="42.87324" lon="-0.19331">
        <ele>2386.4</ele>
        <time>2026-07-15T10:38:26Z</time>
      </trkpt>
      <trkpt lat="42.87324" lon="-0.19331">
        <ele>2386.4</ele>
        <time>2026-07-15T10:38:27Z</time>
      </trkpt>
      <trkpt lat="42.87325" lon="-0.19331">
        <ele>2386.4</ele>
        <time>2026-07-15T10:38:28Z</time>
      </trkpt>
      <trkpt lat="42.87325" lon="-0.19331">
        <ele>2386.4</ele>
        <time>2026-07-15T10:38:29Z</time>
      </trkpt>
      <trkpt lat="42.87325" lon="-0.19331">
        <ele>2386.4</ele>
        <time>2026-07-15T10:38:30Z</time>
      </trkpt>
      <trkpt lat="42.87325" lon="-0.19331">
        <ele>2386.4</ele>
        <time>2026-07-15T10:38:31Z</time>
      </trkpt>
      <trkpt lat="42.87325" lon="-0.19331">
        <ele>2386.4</ele>
        <time>2026-07-15T10:38:32Z</time>
      </trkpt>
      <trkpt lat="42.87325" lon="-0.19331">
        <ele>2387.4</ele>
        <time>2026-07-15T10:38:33Z</time>
      </trkpt>
      <trkpt lat="42.87325" lon="-0.19331">
        <ele>2386.4</ele>
        <time>2026-07-15T10:38:34Z</time>
      </trkpt>
      <trkpt lat="42.87326" lon="-0.19331">
        <ele>2386.4</ele>
        <time>2026-07-15T10:38:35Z</time>
      </trkpt>
      <trkpt lat="42.87327" lon="-0.1933">
        <ele>2386.4</ele>
        <time>2026-07-15T10:38:36Z</time>
      </trkpt>
      <trkpt lat="42.87327" lon="-0.1933">
        <ele>2386.4</ele>
        <time>2026-07-15T10:38:37Z</time>
      </trkpt>
      <trkpt lat="42.87327" lon="-0.1933">
        <ele>2385.4</ele>
        <time>2026-07-15T10:38:38Z</time>
      </trkpt>
      <trkpt lat="42.87327" lon="-0.19329">
        <ele>2385.4</ele>
        <time>2026-07-15T10:38:39Z</time>
      </trkpt>
      <trkpt lat="42.87326" lon="-0.19329">
        <ele>2385.4</ele>
        <time>2026-07-15T10:38:40Z</time>
      </trkpt>
      <trkpt lat="42.87326" lon="-0.19329">
        <ele>2385.4</ele>
        <time>2026-07-15T10:38:41Z</time>
      </trkpt>
      <trkpt lat="42.87326" lon="-0.19329">
        <ele>2385.4</ele>
        <time>2026-07-15T10:38:42Z</time>
      </trkpt>
      <trkpt lat="42.87326" lon="-0.19329">
        <ele>2385.4</ele>
        <time>2026-07-15T10:38:43Z</time>
      </trkpt>
      <trkpt lat="42.87326" lon="-0.19329">
        <ele>2385.4</ele>
        <time>2026-07-15T10:38:44Z</time>
      </trkpt>
      <trkpt lat="42.87326" lon="-0.19329">
        <ele>2385.4</ele>
        <time>2026-07-15T10:38:45Z</time>
      </trkpt>
      <trkpt lat="42.87326" lon="-0.19329">
        <ele>2385.4</ele>
        <time>2026-07-15T10:38:46Z</time>
      </trkpt>
      <trkpt lat="42.87326" lon="-0.19329">
        <ele>2385.4</ele>
        <time>2026-07-15T10:38:47Z</time>
      </trkpt>
      <trkpt lat="42.87326" lon="-0.19329">
        <ele>2385.4</ele>
        <time>2026-07-15T10:38:48Z</time>
      </trkpt>
      <trkpt lat="42.87326" lon="-0.19329">
        <ele>2385.4</ele>
        <time>2026-07-15T10:38:49Z</time>
      </trkpt>
      <trkpt lat="42.87326" lon="-0.19329">
        <ele>2385.4</ele>
        <time>2026-07-15T10:38:50Z</time>
      </trkpt>
      <trkpt lat="42.87326" lon="-0.19329">
        <ele>2385.4</ele>
        <time>2026-07-15T10:38:51Z</time>
      </trkpt>
      <trkpt lat="42.87326" lon="-0.19329">
        <ele>2385.4</ele>
        <time>2026-07-15T10:38:52Z</time>
      </trkpt>
      <trkpt lat="42.87326" lon="-0.19329">
        <ele>2385.4</ele>
        <time>2026-07-15T10:38:53Z</time>
      </trkpt>
      <trkpt lat="42.87326" lon="-0.19329">
        <ele>2385.4</ele>
        <time>2026-07-15T10:38:54Z</time>
      </trkpt>
      <trkpt lat="42.87326" lon="-0.19329">
        <ele>2385.4</ele>
        <time>2026-07-15T10:38:55Z</time>
      </trkpt>
      <trkpt lat="42.87326" lon="-0.19329">
        <ele>2385.4</ele>
        <time>2026-07-15T10:38:56Z</time>
      </trkpt>
      <trkpt lat="42.87326" lon="-0.19329">
        <ele>2385.4</ele>
        <time>2026-07-15T10:38:57Z</time>
      </trkpt>
      <trkpt lat="42.87326" lon="-0.19329">
        <ele>2385.4</ele>
        <time>2026-07-15T10:38:58Z</time>
      </trkpt>
      <trkpt lat="42.87326" lon="-0.19329">
        <ele>2385.4</ele>
        <time>2026-07-15T10:38:59Z</time>
      </trkpt>
      <trkpt lat="42.87326" lon="-0.19329">
        <ele>2385.4</ele>
        <time>2026-07-15T10:39:00Z</time>
      </trkpt>
      <trkpt lat="42.87326" lon="-0.19329">
        <ele>2384.4</ele>
        <time>2026-07-15T10:39:01Z</time>
      </trkpt>
      <trkpt lat="42.87325" lon="-0.19329">
        <ele>2383.4</ele>
        <time>2026-07-15T10:39:02Z</time>
      </trkpt>
      <trkpt lat="42.87325" lon="-0.19329">
        <ele>2383.4</ele>
        <time>2026-07-15T10:39:03Z</time>
      </trkpt>
      <trkpt lat="42.87325" lon="-0.19329">
        <ele>2383.4</ele>
        <time>2026-07-15T10:39:04Z</time>
      </trkpt>
      <trkpt lat="42.87325" lon="-0.19329">
        <ele>2382.4</ele>
        <time>2026-07-15T10:39:05Z</time>
      </trkpt>
      <trkpt lat="42.87325" lon="-0.19328">
        <ele>2383.4</ele>
        <time>2026-07-15T10:39:06Z</time>
      </trkpt>
      <trkpt lat="42.87324" lon="-0.19329">
        <ele>2384.4</ele>
        <time>2026-07-15T10:39:07Z</time>
      </trkpt>
      <trkpt lat="42.87324" lon="-0.19329">
        <ele>2383.4</ele>
        <time>2026-07-15T10:39:08Z</time>
      </trkpt>
      <trkpt lat="42.87324" lon="-0.19329">
        <ele>2383.4</ele>
        <time>2026-07-15T10:39:09Z</time>
      </trkpt>
      <trkpt lat="42.87324" lon="-0.19329">
        <ele>2383.4</ele>
        <time>2026-07-15T10:39:10Z</time>
      </trkpt>
      <trkpt lat="42.87324" lon="-0.19329">
        <ele>2383.4</ele>
        <time>2026-07-15T10:39:11Z</time>
      </trkpt>
      <trkpt lat="42.87324" lon="-0.19329">
        <ele>2384.4</ele>
        <time>2026-07-15T10:39:12Z</time>
      </trkpt>
      <trkpt lat="42.87324" lon="-0.19329">
        <ele>2384.4</ele>
        <time>2026-07-15T10:39:13Z</time>
      </trkpt>
      <trkpt lat="42.87323" lon="-0.19329">
        <ele>2384.4</ele>
        <time>2026-07-15T10:39:14Z</time>
      </trkpt>
      <trkpt lat="42.87324" lon="-0.19329">
        <ele>2384.4</ele>
        <time>2026-07-15T10:39:15Z</time>
      </trkpt>
      <trkpt lat="42.87324" lon="-0.19329">
        <ele>2384.4</ele>
        <time>2026-07-15T10:39:16Z</time>
      </trkpt>
      <trkpt lat="42.87324" lon="-0.19329">
        <ele>2384.4</ele>
        <time>2026-07-15T10:39:17Z</time>
      </trkpt>
      <trkpt lat="42.87324" lon="-0.19329">
        <ele>2384.4</ele>
        <time>2026-07-15T10:39:18Z</time>
      </trkpt>
      <trkpt lat="42.87323" lon="-0.19329">
        <ele>2384.4</ele>
        <time>2026-07-15T10:39:19Z</time>
      </trkpt>
      <trkpt lat="42.87324" lon="-0.19329">
        <ele>2384.4</ele>
        <time>2026-07-15T10:39:20Z</time>
      </trkpt>
      <trkpt lat="42.87324" lon="-0.19329">
        <ele>2384.4</ele>
        <time>2026-07-15T10:39:21Z</time>
      </trkpt>
      <trkpt lat="42.87324" lon="-0.19329">
        <ele>2385.4</ele>
        <time>2026-07-15T10:39:22Z</time>
      </trkpt>
      <trkpt lat="42.87324" lon="-0.19329">
        <ele>2386.4</ele>
        <time>2026-07-15T10:39:23Z</time>
      </trkpt>
      <trkpt lat="42.87324" lon="-0.19329">
        <ele>2386.4</ele>
        <time>2026-07-15T10:39:24Z</time>
      </trkpt>
      <trkpt lat="42.87324" lon="-0.19328">
        <ele>2386.4</ele>
        <time>2026-07-15T10:39:25Z</time>
      </trkpt>
      <trkpt lat="42.87325" lon="-0.19328">
        <ele>2386.4</ele>
        <time>2026-07-15T10:39:26Z</time>
      </trkpt>
      <trkpt lat="42.87325" lon="-0.19329">
        <ele>2386.4</ele>
        <time>2026-07-15T10:39:27Z</time>
      </trkpt>
      <trkpt lat="42.87325" lon="-0.19329">
        <ele>2386.4</ele>
        <time>2026-07-15T10:39:28Z</time>
      </trkpt>
      <trkpt lat="42.87325" lon="-0.19329">
        <ele>2386.4</ele>
        <time>2026-07-15T10:39:29Z</time>
      </trkpt>
      <trkpt lat="42.87325" lon="-0.19329">
        <ele>2386.4</ele>
        <time>2026-07-15T10:39:30Z</time>
      </trkpt>
      <trkpt lat="42.87325" lon="-0.19329">
        <ele>2386.4</ele>
        <time>2026-07-15T10:39:31Z</time>
      </trkpt>
      <trkpt lat="42.87326" lon="-0.19329">
        <ele>2386.4</ele>
        <time>2026-07-15T10:39:32Z</time>
      </trkpt>
      <trkpt lat="42.87326" lon="-0.19329">
        <ele>2386.4</ele>
        <time>2026-07-15T10:39:33Z</time>
      </trkpt>
      <trkpt lat="42.87326" lon="-0.19329">
        <ele>2386.4</ele>
        <time>2026-07-15T10:39:34Z</time>
      </trkpt>
      <trkpt lat="42.87326" lon="-0.19329">
        <ele>2386.4</ele>
        <time>2026-07-15T10:39:35Z</time>
      </trkpt>
      <trkpt lat="42.87326" lon="-0.19329">
        <ele>2386.4</ele>
        <time>2026-07-15T10:39:36Z</time>
      </trkpt>
      <trkpt lat="42.87326" lon="-0.19329">
        <ele>2386.4</ele>
        <time>2026-07-15T10:39:37Z</time>
      </trkpt>
      <trkpt lat="42.87326" lon="-0.19329">
        <ele>2386.4</ele>
        <time>2026-07-15T10:39:38Z</time>
      </trkpt>
      <trkpt lat="42.87326" lon="-0.19329">
        <ele>2386.4</ele>
        <time>2026-07-15T10:39:39Z</time>
      </trkpt>
      <trkpt lat="42.87326" lon="-0.19329">
        <ele>2386.4</ele>
        <time>2026-07-15T10:39:40Z</time>
      </trkpt>
      <trkpt lat="42.87326" lon="-0.19329">
        <ele>2386.4</ele>
        <time>2026-07-15T10:39:41Z</time>
      </trkpt>
      <trkpt lat="42.87326" lon="-0.19329">
        <ele>2386.4</ele>
        <time>2026-07-15T10:39:42Z</time>
      </trkpt>
      <trkpt lat="42.87326" lon="-0.19329">
        <ele>2386.4</ele>
        <time>2026-07-15T10:39:43Z</time>
      </trkpt>
      <trkpt lat="42.87326" lon="-0.19329">
        <ele>2386.4</ele>
        <time>2026-07-15T10:39:44Z</time>
      </trkpt>
      <trkpt lat="42.87326" lon="-0.19329">
        <ele>2386.4</ele>
        <time>2026-07-15T10:39:45Z</time>
      </trkpt>
      <trkpt lat="42.87326" lon="-0.19329">
        <ele>2386.4</ele>
        <time>2026-07-15T10:39:46Z</time>
      </trkpt>
      <trkpt lat="42.87326" lon="-0.19329">
        <ele>2386.4</ele>
        <time>2026-07-15T10:39:47Z</time>
      </trkpt>
      <trkpt lat="42.87326" lon="-0.19329">
        <ele>2386.4</ele>
        <time>2026-07-15T10:39:48Z</time>
      </trkpt>
      <trkpt lat="42.87325" lon="-0.19329">
        <ele>2385.4</ele>
        <time>2026-07-15T10:39:49Z</time>
      </trkpt>
      <trkpt lat="42.87325" lon="-0.19329">
        <ele>2385.4</ele>
        <time>2026-07-15T10:39:50Z</time>
      </trkpt>
      <trkpt lat="42.87325" lon="-0.19329">
        <ele>2385.4</ele>
        <time>2026-07-15T10:39:51Z</time>
      </trkpt>
      <trkpt lat="42.87325" lon="-0.19329">
        <ele>2385.4</ele>
        <time>2026-07-15T10:39:52Z</time>
      </trkpt>
      <trkpt lat="42.87325" lon="-0.1933">
        <ele>2385.4</ele>
        <time>2026-07-15T10:39:53Z</time>
      </trkpt>
      <trkpt lat="42.87325" lon="-0.19329">
        <ele>2385.4</ele>
        <time>2026-07-15T10:39:54Z</time>
      </trkpt>
      <trkpt lat="42.87325" lon="-0.19329">
        <ele>2385.4</ele>
        <time>2026-07-15T10:39:55Z</time>
      </trkpt>
      <trkpt lat="42.87325" lon="-0.19329">
        <ele>2385.4</ele>
        <time>2026-07-15T10:39:56Z</time>
      </trkpt>
      <trkpt lat="42.87325" lon="-0.19329">
        <ele>2385.4</ele>
        <time>2026-07-15T10:39:57Z</time>
      </trkpt>
      <trkpt lat="42.87325" lon="-0.1933">
        <ele>2385.4</ele>
        <time>2026-07-15T10:39:58Z</time>
      </trkpt>
      <trkpt lat="42.87325" lon="-0.1933">
        <ele>2385.4</ele>
        <time>2026-07-15T10:39:59Z</time>
      </trkpt>
      <trkpt lat="42.87325" lon="-0.1933">
        <ele>2385.4</ele>
        <time>2026-07-15T10:40:00Z</time>
      </trkpt>
      <trkpt lat="42.87325" lon="-0.1933">
        <ele>2386.4</ele>
        <time>2026-07-15T10:40:01Z</time>
      </trkpt>
      <trkpt lat="42.87325" lon="-0.1933">
        <ele>2386.4</ele>
        <time>2026-07-15T10:40:02Z</time>
      </trkpt>
      <trkpt lat="42.87325" lon="-0.1933">
        <ele>2386.4</ele>
        <time>2026-07-15T10:40:03Z</time>
      </trkpt>
      <trkpt lat="42.87325" lon="-0.1933">
        <ele>2387.4</ele>
        <time>2026-07-15T10:40:04Z</time>
      </trkpt>
      <trkpt lat="42.87324" lon="-0.1933">
        <ele>2387.4</ele>
        <time>2026-07-15T10:40:05Z</time>
      </trkpt>
      <trkpt lat="42.87325" lon="-0.1933">
        <ele>2387.4</ele>
        <time>2026-07-15T10:40:06Z</time>
      </trkpt>
      <trkpt lat="42.87325" lon="-0.19331">
        <ele>2386.4</ele>
        <time>2026-07-15T10:40:07Z</time>
      </trkpt>
      <trkpt lat="42.87325" lon="-0.19331">
        <ele>2386.4</ele>
        <time>2026-07-15T10:40:08Z</time>
      </trkpt>
      <trkpt lat="42.87325" lon="-0.19331">
        <ele>2385.4</ele>
        <time>2026-07-15T10:40:09Z</time>
      </trkpt>
      <trkpt lat="42.87325" lon="-0.19331">
        <ele>2385.4</ele>
        <time>2026-07-15T10:40:10Z</time>
      </trkpt>
      <trkpt lat="42.87325" lon="-0.19331">
        <ele>2385.4</ele>
        <time>2026-07-15T10:40:11Z</time>
      </trkpt>
      <trkpt lat="42.87325" lon="-0.19331">
        <ele>2386.4</ele>
        <time>2026-07-15T10:40:12Z</time>
      </trkpt>
      <trkpt lat="42.87324" lon="-0.1933">
        <ele>2385.4</ele>
        <time>2026-07-15T10:40:13Z</time>
      </trkpt>
      <trkpt lat="42.87324" lon="-0.19329">
        <ele>2385.4</ele>
        <time>2026-07-15T10:40:14Z</time>
      </trkpt>
      <trkpt lat="42.87324" lon="-0.19329">
        <ele>2385.4</ele>
        <time>2026-07-15T10:40:15Z</time>
      </trkpt>
      <trkpt lat="42.87324" lon="-0.19328">
        <ele>2385.4</ele>
        <time>2026-07-15T10:40:16Z</time>
      </trkpt>
      <trkpt lat="42.87324" lon="-0.19328">
        <ele>2385.4</ele>
        <time>2026-07-15T10:40:17Z</time>
      </trkpt>
      <trkpt lat="42.87325" lon="-0.19327">
        <ele>2384.4</ele>
        <time>2026-07-15T10:40:18Z</time>
      </trkpt>
      <trkpt lat="42.87325" lon="-0.19328">
        <ele>2384.4</ele>
        <time>2026-07-15T10:40:19Z</time>
      </trkpt>
      <trkpt lat="42.87325" lon="-0.19328">
        <ele>2385.4</ele>
        <time>2026-07-15T10:40:20Z</time>
      </trkpt>
      <trkpt lat="42.87325" lon="-0.19328">
        <ele>2385.4</ele>
        <time>2026-07-15T10:40:21Z</time>
      </trkpt>
      <trkpt lat="42.87326" lon="-0.19328">
        <ele>2385.4</ele>
        <time>2026-07-15T10:40:22Z</time>
      </trkpt>
      <trkpt lat="42.87326" lon="-0.19328">
        <ele>2385.4</ele>
        <time>2026-07-15T10:40:23Z</time>
      </trkpt>
      <trkpt lat="42.87326" lon="-0.19328">
        <ele>2385.4</ele>
        <time>2026-07-15T10:40:24Z</time>
      </trkpt>
      <trkpt lat="42.87326" lon="-0.19328">
        <ele>2385.4</ele>
        <time>2026-07-15T10:40:25Z</time>
      </trkpt>
      <trkpt lat="42.87326" lon="-0.19328">
        <ele>2385.4</ele>
        <time>2026-07-15T10:40:26Z</time>
      </trkpt>
      <trkpt lat="42.87326" lon="-0.19328">
        <ele>2385.4</ele>
        <time>2026-07-15T10:40:27Z</time>
      </trkpt>
      <trkpt lat="42.87326" lon="-0.19328">
        <ele>2386.4</ele>
        <time>2026-07-15T10:40:28Z</time>
      </trkpt>
      <trkpt lat="42.87326" lon="-0.19328">
        <ele>2385.4</ele>
        <time>2026-07-15T10:40:29Z</time>
      </trkpt>
      <trkpt lat="42.87326" lon="-0.19328">
        <ele>2386.4</ele>
        <time>2026-07-15T10:40:30Z</time>
      </trkpt>
      <trkpt lat="42.87326" lon="-0.19328">
        <ele>2386.4</ele>
        <time>2026-07-15T10:40:31Z</time>
      </trkpt>
      <trkpt lat="42.87326" lon="-0.19328">
        <ele>2386.4</ele>
        <time>2026-07-15T10:40:32Z</time>
      </trkpt>
      <trkpt lat="42.87326" lon="-0.19328">
        <ele>2386.4</ele>
        <time>2026-07-15T10:40:33Z</time>
      </trkpt>
      <trkpt lat="42.87326" lon="-0.19328">
        <ele>2385.4</ele>
        <time>2026-07-15T10:40:34Z</time>
      </trkpt>
      <trkpt lat="42.87326" lon="-0.19329">
        <ele>2386.4</ele>
        <time>2026-07-15T10:40:35Z</time>
      </trkpt>
      <trkpt lat="42.87326" lon="-0.19329">
        <ele>2386.4</ele>
        <time>2026-07-15T10:40:36Z</time>
      </trkpt>
      <trkpt lat="42.87326" lon="-0.19329">
        <ele>2386.4</ele>
        <time>2026-07-15T10:40:37Z</time>
      </trkpt>
      <trkpt lat="42.87326" lon="-0.19329">
        <ele>2387.4</ele>
        <time>2026-07-15T10:40:38Z</time>
      </trkpt>
      <trkpt lat="42.87326" lon="-0.19329">
        <ele>2387.4</ele>
        <time>2026-07-15T10:40:39Z</time>
      </trkpt>
      <trkpt lat="42.87326" lon="-0.19329">
        <ele>2387.4</ele>
        <time>2026-07-15T10:40:40Z</time>
      </trkpt>
      <trkpt lat="42.87326" lon="-0.1933">
        <ele>2387.4</ele>
        <time>2026-07-15T10:40:41Z</time>
      </trkpt>
      <trkpt lat="42.87326" lon="-0.1933">
        <ele>2387.4</ele>
        <time>2026-07-15T10:40:42Z</time>
      </trkpt>
      <trkpt lat="42.87326" lon="-0.1933">
        <ele>2387.4</ele>
        <time>2026-07-15T10:40:43Z</time>
      </trkpt>
      <trkpt lat="42.87326" lon="-0.1933">
        <ele>2387.4</ele>
        <time>2026-07-15T10:40:44Z</time>
      </trkpt>
      <trkpt lat="42.87326" lon="-0.1933">
        <ele>2387.4</ele>
        <time>2026-07-15T10:40:45Z</time>
      </trkpt>
      <trkpt lat="42.87326" lon="-0.1933">
        <ele>2387.4</ele>
        <time>2026-07-15T10:40:46Z</time>
      </trkpt>
      <trkpt lat="42.87326" lon="-0.1933">
        <ele>2387.4</ele>
        <time>2026-07-15T10:40:47Z</time>
      </trkpt>
      <trkpt lat="42.87326" lon="-0.1933">
        <ele>2386.4</ele>
        <time>2026-07-15T10:40:48Z</time>
      </trkpt>
      <trkpt lat="42.87325" lon="-0.19331">
        <ele>2387.4</ele>
        <time>2026-07-15T10:40:49Z</time>
      </trkpt>
      <trkpt lat="42.87325" lon="-0.19331">
        <ele>2386.4</ele>
        <time>2026-07-15T10:40:50Z</time>
      </trkpt>
      <trkpt lat="42.87325" lon="-0.19331">
        <ele>2387.4</ele>
        <time>2026-07-15T10:40:51Z</time>
      </trkpt>
      <trkpt lat="42.87325" lon="-0.1933">
        <ele>2386.4</ele>
        <time>2026-07-15T10:40:52Z</time>
      </trkpt>
      <trkpt lat="42.87325" lon="-0.1933">
        <ele>2386.4</ele>
        <time>2026-07-15T10:40:53Z</time>
      </trkpt>
      <trkpt lat="42.87325" lon="-0.19329">
        <ele>2386.4</ele>
        <time>2026-07-15T10:40:54Z</time>
      </trkpt>
      <trkpt lat="42.87325" lon="-0.19329">
        <ele>2385.4</ele>
        <time>2026-07-15T10:40:55Z</time>
      </trkpt>
      <trkpt lat="42.87326" lon="-0.19328">
        <ele>2386.4</ele>
        <time>2026-07-15T10:40:56Z</time>
      </trkpt>
      <trkpt lat="42.87326" lon="-0.19329">
        <ele>2386.4</ele>
        <time>2026-07-15T10:40:57Z</time>
      </trkpt>
      <trkpt lat="42.87326" lon="-0.1933">
        <ele>2387.4</ele>
        <time>2026-07-15T10:40:58Z</time>
      </trkpt>
      <trkpt lat="42.87326" lon="-0.1933">
        <ele>2386.4</ele>
        <time>2026-07-15T10:40:59Z</time>
      </trkpt>
      <trkpt lat="42.87327" lon="-0.19331">
        <ele>2386.4</ele>
        <time>2026-07-15T10:41:00Z</time>
      </trkpt>
      <trkpt lat="42.87326" lon="-0.19329">
        <ele>2387.4</ele>
        <time>2026-07-15T10:41:01Z</time>
      </trkpt>
      <trkpt lat="42.87325" lon="-0.19328">
        <ele>2387.4</ele>
        <time>2026-07-15T10:41:02Z</time>
      </trkpt>
      <trkpt lat="42.87325" lon="-0.19327">
        <ele>2387.4</ele>
        <time>2026-07-15T10:41:03Z</time>
      </trkpt>
      <trkpt lat="42.87325" lon="-0.19326">
        <ele>2387.4</ele>
        <time>2026-07-15T10:41:04Z</time>
      </trkpt>
      <trkpt lat="42.87324" lon="-0.19325">
        <ele>2387.4</ele>
        <time>2026-07-15T10:41:05Z</time>
      </trkpt>
      <trkpt lat="42.87324" lon="-0.19325">
        <ele>2387.4</ele>
        <time>2026-07-15T10:41:06Z</time>
      </trkpt>
      <trkpt lat="42.87324" lon="-0.19326">
        <ele>2387.4</ele>
        <time>2026-07-15T10:41:07Z</time>
      </trkpt>
      <trkpt lat="42.87323" lon="-0.19327">
        <ele>2387.4</ele>
        <time>2026-07-15T10:41:08Z</time>
      </trkpt>
      <trkpt lat="42.87323" lon="-0.19327">
        <ele>2387.4</ele>
        <time>2026-07-15T10:41:09Z</time>
      </trkpt>
      <trkpt lat="42.87323" lon="-0.19327">
        <ele>2387.4</ele>
        <time>2026-07-15T10:41:10Z</time>
      </trkpt>
      <trkpt lat="42.87323" lon="-0.19327">
        <ele>2386.4</ele>
        <time>2026-07-15T10:41:11Z</time>
      </trkpt>
      <trkpt lat="42.87324" lon="-0.19327">
        <ele>2386.4</ele>
        <time>2026-07-15T10:41:12Z</time>
      </trkpt>
      <trkpt lat="42.87325" lon="-0.19327">
        <ele>2384.4</ele>
        <time>2026-07-15T10:41:13Z</time>
      </trkpt>
      <trkpt lat="42.87325" lon="-0.19328">
        <ele>2384.4</ele>
        <time>2026-07-15T10:41:14Z</time>
      </trkpt>
      <trkpt lat="42.87325" lon="-0.19328">
        <ele>2384.4</ele>
        <time>2026-07-15T10:41:14Z</time>
      </trkpt>
      <trkpt lat="42.87325" lon="-0.19329">
        <ele>2384.4</ele>
        <time>2026-07-15T10:41:15Z</time>
      </trkpt>
      <trkpt lat="42.87325" lon="-0.19329">
        <ele>2383.4</ele>
        <time>2026-07-15T10:41:15Z</time>
      </trkpt>
      <trkpt lat="42.87325" lon="-0.19329">
        <ele>2384.4</ele>
        <time>2026-07-15T10:41:16Z</time>
      </trkpt>
      <trkpt lat="42.87325" lon="-0.19329">
        <ele>2383.4</ele>
        <time>2026-07-15T10:41:17Z</time>
      </trkpt>
      <trkpt lat="42.87325" lon="-0.19329">
        <ele>2383.4</ele>
        <time>2026-07-15T10:41:18Z</time>
      </trkpt>
      <trkpt lat="42.87325" lon="-0.19329">
        <ele>2383.4</ele>
        <time>2026-07-15T10:41:19Z</time>
      </trkpt>
      <trkpt lat="42.87325" lon="-0.19329">
        <ele>2383.4</ele>
        <time>2026-07-15T10:41:20Z</time>
      </trkpt>
      <trkpt lat="42.87325" lon="-0.19329">
        <ele>2383.4</ele>
        <time>2026-07-15T10:41:21Z</time>
      </trkpt>
      <trkpt lat="42.87325" lon="-0.19329">
        <ele>2383.4</ele>
        <time>2026-07-15T10:41:22Z</time>
      </trkpt>
      <trkpt lat="42.87325" lon="-0.19329">
        <ele>2383.4</ele>
        <time>2026-07-15T10:41:23Z</time>
      </trkpt>
      <trkpt lat="42.87325" lon="-0.19329">
        <ele>2383.4</ele>
        <time>2026-07-15T10:41:24Z</time>
      </trkpt>
      <trkpt lat="42.87325" lon="-0.19329">
        <ele>2383.4</ele>
        <time>2026-07-15T10:41:25Z</time>
      </trkpt>
      <trkpt lat="42.87325" lon="-0.19329">
        <ele>2383.4</ele>
        <time>2026-07-15T10:41:26Z</time>
      </trkpt>
      <trkpt lat="42.87325" lon="-0.19329">
        <ele>2383.4</ele>
        <time>2026-07-15T10:41:26Z</time>
      </trkpt>
      <trkpt lat="42.87325" lon="-0.19329">
        <ele>2383.4</ele>
        <time>2026-07-15T10:41:27Z</time>
      </trkpt>
      <trkpt lat="42.87325" lon="-0.19329">
        <ele>2383.4</ele>
        <time>2026-07-15T10:41:28Z</time>
      </trkpt>
      <trkpt lat="42.87325" lon="-0.19329">
        <ele>2383.4</ele>
        <time>2026-07-15T10:41:28Z</time>
      </trkpt>
      <trkpt lat="42.87325" lon="-0.19329">
        <ele>2383.4</ele>
        <time>2026-07-15T10:41:29Z</time>
      </trkpt>
      <trkpt lat="42.87325" lon="-0.19329">
        <ele>2383.4</ele>
        <time>2026-07-15T10:41:30Z</time>
      </trkpt>
      <trkpt lat="42.87325" lon="-0.19329">
        <ele>2383.4</ele>
        <time>2026-07-15T10:41:31Z</time>
      </trkpt>
      <trkpt lat="42.87325" lon="-0.19329">
        <ele>2383.4</ele>
        <time>2026-07-15T10:41:32Z</time>
      </trkpt>
      <trkpt lat="42.87325" lon="-0.19329">
        <ele>2383.4</ele>
        <time>2026-07-15T10:41:33Z</time>
      </trkpt>
      <trkpt lat="42.87325" lon="-0.19329">
        <ele>2383.4</ele>
        <time>2026-07-15T10:41:33Z</time>
      </trkpt>
      <trkpt lat="42.87325" lon="-0.19329">
        <ele>2384.4</ele>
        <time>2026-07-15T10:41:34Z</time>
      </trkpt>
      <trkpt lat="42.87325" lon="-0.19329">
        <ele>2386.4</ele>
        <time>2026-07-15T10:41:35Z</time>
      </trkpt>
      <trkpt lat="42.87325" lon="-0.19329">
        <ele>2385.4</ele>
        <time>2026-07-15T10:41:36Z</time>
      </trkpt>
      <trkpt lat="42.87325" lon="-0.19329">
        <ele>2385.4</ele>
        <time>2026-07-15T10:41:37Z</time>
      </trkpt>
      <trkpt lat="42.87325" lon="-0.19329">
        <ele>2385.4</ele>
        <time>2026-07-15T10:41:38Z</time>
      </trkpt>
      <trkpt lat="42.87325" lon="-0.19329">
        <ele>2385.4</ele>
        <time>2026-07-15T10:41:39Z</time>
      </trkpt>
      <trkpt lat="42.87325" lon="-0.19329">
        <ele>2385.4</ele>
        <time>2026-07-15T10:41:40Z</time>
      </trkpt>
      <trkpt lat="42.87325" lon="-0.19329">
        <ele>2385.4</ele>
        <time>2026-07-15T10:41:41Z</time>
      </trkpt>
      <trkpt lat="42.87325" lon="-0.19329">
        <ele>2385.4</ele>
        <time>2026-07-15T10:41:42Z</time>
      </trkpt>
      <trkpt lat="42.87325" lon="-0.19329">
        <ele>2385.4</ele>
        <time>2026-07-15T10:41:43Z</time>
      </trkpt>
      <trkpt lat="42.87325" lon="-0.19329">
        <ele>2385.4</ele>
        <time>2026-07-15T10:41:44Z</time>
      </trkpt>
      <trkpt lat="42.87325" lon="-0.19329">
        <ele>2385.4</ele>
        <time>2026-07-15T10:41:45Z</time>
      </trkpt>
      <trkpt lat="42.87325" lon="-0.19329">
        <ele>2385.4</ele>
        <time>2026-07-15T10:41:45Z</time>
      </trkpt>
      <trkpt lat="42.87325" lon="-0.19329">
        <ele>2385.4</ele>
        <time>2026-07-15T10:41:46Z</time>
      </trkpt>
      <trkpt lat="42.87325" lon="-0.19329">
        <ele>2385.4</ele>
        <time>2026-07-15T10:41:47Z</time>
      </trkpt>
      <trkpt lat="42.87325" lon="-0.19329">
        <ele>2385.4</ele>
        <time>2026-07-15T10:41:48Z</time>
      </trkpt>
      <trkpt lat="42.87325" lon="-0.19329">
        <ele>2385.4</ele>
        <time>2026-07-15T10:41:49Z</time>
      </trkpt>
      <trkpt lat="42.87325" lon="-0.19329">
        <ele>2385.4</ele>
        <time>2026-07-15T10:41:50Z</time>
      </trkpt>
      <trkpt lat="42.87325" lon="-0.19329">
        <ele>2385.4</ele>
        <time>2026-07-15T10:41:51Z</time>
      </trkpt>
      <trkpt lat="42.87325" lon="-0.19329">
        <ele>2385.4</ele>
        <time>2026-07-15T10:41:52Z</time>
      </trkpt>
      <trkpt lat="42.87325" lon="-0.19329">
        <ele>2385.4</ele>
        <time>2026-07-15T10:41:52Z</time>
      </trkpt>
      <trkpt lat="42.87325" lon="-0.19329">
        <ele>2385.4</ele>
        <time>2026-07-15T10:41:53Z</time>
      </trkpt>
      <trkpt lat="42.87325" lon="-0.19329">
        <ele>2385.4</ele>
        <time>2026-07-15T10:41:54Z</time>
      </trkpt>
      <trkpt lat="42.87325" lon="-0.19329">
        <ele>2385.4</ele>
        <time>2026-07-15T10:41:55Z</time>
      </trkpt>
      <trkpt lat="42.87325" lon="-0.19329">
        <ele>2385.4</ele>
        <time>2026-07-15T10:41:56Z</time>
      </trkpt>
      <trkpt lat="42.87325" lon="-0.19329">
        <ele>2386.4</ele>
        <time>2026-07-15T10:41:57Z</time>
      </trkpt>
      <trkpt lat="42.87325" lon="-0.19329">
        <ele>2385.4</ele>
        <time>2026-07-15T10:41:58Z</time>
      </trkpt>
      <trkpt lat="42.87325" lon="-0.19329">
        <ele>2385.4</ele>
        <time>2026-07-15T10:41:59Z</time>
      </trkpt>
      <trkpt lat="42.87325" lon="-0.19329">
        <ele>2386.4</ele>
        <time>2026-07-15T10:42:00Z</time>
      </trkpt>
      <trkpt lat="42.87325" lon="-0.19329">
        <ele>2386.4</ele>
        <time>2026-07-15T10:42:01Z</time>
      </trkpt>
      <trkpt lat="42.87325" lon="-0.19329">
        <ele>2386.4</ele>
        <time>2026-07-15T10:42:02Z</time>
      </trkpt>
      <trkpt lat="42.87325" lon="-0.19329">
        <ele>2386.4</ele>
        <time>2026-07-15T10:42:03Z</time>
      </trkpt>
      <trkpt lat="42.87325" lon="-0.19329">
        <ele>2386.4</ele>
        <time>2026-07-15T10:42:04Z</time>
      </trkpt>
      <trkpt lat="42.87325" lon="-0.19329">
        <ele>2386.4</ele>
        <time>2026-07-15T10:42:05Z</time>
      </trkpt>
      <trkpt lat="42.87325" lon="-0.19329">
        <ele>2386.4</ele>
        <time>2026-07-15T10:42:06Z</time>
      </trkpt>
      <trkpt lat="42.87325" lon="-0.19329">
        <ele>2386.4</ele>
        <time>2026-07-15T10:42:07Z</time>
      </trkpt>
      <trkpt lat="42.87325" lon="-0.19329">
        <ele>2385.4</ele>
        <time>2026-07-15T10:42:08Z</time>
      </trkpt>
      <trkpt lat="42.87326" lon="-0.19329">
        <ele>2385.4</ele>
        <time>2026-07-15T10:42:09Z</time>
      </trkpt>
      <trkpt lat="42.87326" lon="-0.19329">
        <ele>2385.4</ele>
        <time>2026-07-15T10:42:10Z</time>
      </trkpt>
      <trkpt lat="42.87326" lon="-0.19329">
        <ele>2385.4</ele>
        <time>2026-07-15T10:42:11Z</time>
      </trkpt>
      <trkpt lat="42.87326" lon="-0.19329">
        <ele>2385.4</ele>
        <time>2026-07-15T10:42:12Z</time>
      </trkpt>
      <trkpt lat="42.87326" lon="-0.19329">
        <ele>2385.4</ele>
        <time>2026-07-15T10:42:13Z</time>
      </trkpt>
      <trkpt lat="42.87326" lon="-0.19328">
        <ele>2385.4</ele>
        <time>2026-07-15T10:42:14Z</time>
      </trkpt>
      <trkpt lat="42.87326" lon="-0.19329">
        <ele>2385.4</ele>
        <time>2026-07-15T10:42:15Z</time>
      </trkpt>
      <trkpt lat="42.87326" lon="-0.19328">
        <ele>2384.4</ele>
        <time>2026-07-15T10:42:16Z</time>
      </trkpt>
      <trkpt lat="42.87326" lon="-0.19329">
        <ele>2384.4</ele>
        <time>2026-07-15T10:42:17Z</time>
      </trkpt>
      <trkpt lat="42.87326" lon="-0.19329">
        <ele>2385.4</ele>
        <time>2026-07-15T10:42:18Z</time>
      </trkpt>
      <trkpt lat="42.87326" lon="-0.19329">
        <ele>2386.4</ele>
        <time>2026-07-15T10:42:19Z</time>
      </trkpt>
      <trkpt lat="42.87326" lon="-0.19329">
        <ele>2386.4</ele>
        <time>2026-07-15T10:42:20Z</time>
      </trkpt>
      <trkpt lat="42.87326" lon="-0.19329">
        <ele>2386.4</ele>
        <time>2026-07-15T10:42:21Z</time>
      </trkpt>
      <trkpt lat="42.87326" lon="-0.19329">
        <ele>2386.4</ele>
        <time>2026-07-15T10:42:22Z</time>
      </trkpt>
      <trkpt lat="42.87326" lon="-0.19329">
        <ele>2386.4</ele>
        <time>2026-07-15T10:42:23Z</time>
      </trkpt>
      <trkpt lat="42.87326" lon="-0.19329">
        <ele>2386.4</ele>
        <time>2026-07-15T10:42:24Z</time>
      </trkpt>
      <trkpt lat="42.87326" lon="-0.19329">
        <ele>2386.4</ele>
        <time>2026-07-15T10:42:25Z</time>
      </trkpt>
      <trkpt lat="42.87326" lon="-0.19329">
        <ele>2386.4</ele>
        <time>2026-07-15T10:42:26Z</time>
      </trkpt>
      <trkpt lat="42.87326" lon="-0.19329">
        <ele>2386.4</ele>
        <time>2026-07-15T10:42:27Z</time>
      </trkpt>
      <trkpt lat="42.87326" lon="-0.19329">
        <ele>2386.4</ele>
        <time>2026-07-15T10:42:28Z</time>
      </trkpt>
      <trkpt lat="42.87326" lon="-0.19329">
        <ele>2386.4</ele>
        <time>2026-07-15T10:42:29Z</time>
      </trkpt>
      <trkpt lat="42.87326" lon="-0.19329">
        <ele>2386.4</ele>
        <time>2026-07-15T10:42:30Z</time>
      </trkpt>
      <trkpt lat="42.87326" lon="-0.19329">
        <ele>2386.4</ele>
        <time>2026-07-15T10:42:31Z</time>
      </trkpt>
      <trkpt lat="42.87326" lon="-0.19329">
        <ele>2386.4</ele>
        <time>2026-07-15T10:42:32Z</time>
      </trkpt>
      <trkpt lat="42.87326" lon="-0.19329">
        <ele>2386.4</ele>
        <time>2026-07-15T10:42:33Z</time>
      </trkpt>
      <trkpt lat="42.87326" lon="-0.19329">
        <ele>2386.4</ele>
        <time>2026-07-15T10:42:34Z</time>
      </trkpt>
      <trkpt lat="42.87326" lon="-0.19329">
        <ele>2386.4</ele>
        <time>2026-07-15T10:42:35Z</time>
      </trkpt>
      <trkpt lat="42.87326" lon="-0.19329">
        <ele>2386.4</ele>
        <time>2026-07-15T10:42:36Z</time>
      </trkpt>
      <trkpt lat="42.87326" lon="-0.19329">
        <ele>2386.4</ele>
        <time>2026-07-15T10:42:37Z</time>
      </trkpt>
      <trkpt lat="42.87326" lon="-0.19329">
        <ele>2386.4</ele>
        <time>2026-07-15T10:42:38Z</time>
      </trkpt>
      <trkpt lat="42.87325" lon="-0.19329">
        <ele>2386.4</ele>
        <time>2026-07-15T10:42:39Z</time>
      </trkpt>
      <trkpt lat="42.87326" lon="-0.19329">
        <ele>2386.4</ele>
        <time>2026-07-15T10:42:40Z</time>
      </trkpt>
      <trkpt lat="42.87325" lon="-0.19329">
        <ele>2386.4</ele>
        <time>2026-07-15T10:42:41Z</time>
      </trkpt>
      <trkpt lat="42.87325" lon="-0.19329">
        <ele>2386.4</ele>
        <time>2026-07-15T10:42:42Z</time>
      </trkpt>
      <trkpt lat="42.87325" lon="-0.19329">
        <ele>2386.4</ele>
        <time>2026-07-15T10:42:43Z</time>
      </trkpt>
      <trkpt lat="42.87325" lon="-0.19329">
        <ele>2386.4</ele>
        <time>2026-07-15T10:42:44Z</time>
      </trkpt>
      <trkpt lat="42.87325" lon="-0.19329">
        <ele>2386.4</ele>
        <time>2026-07-15T10:42:45Z</time>
      </trkpt>
      <trkpt lat="42.87325" lon="-0.19329">
        <ele>2386.4</ele>
        <time>2026-07-15T10:42:46Z</time>
      </trkpt>
      <trkpt lat="42.87325" lon="-0.19329">
        <ele>2386.4</ele>
        <time>2026-07-15T10:42:47Z</time>
      </trkpt>
      <trkpt lat="42.87325" lon="-0.19329">
        <ele>2386.4</ele>
        <time>2026-07-15T10:42:48Z</time>
      </trkpt>
      <trkpt lat="42.87325" lon="-0.19329">
        <ele>2386.4</ele>
        <time>2026-07-15T10:42:49Z</time>
      </trkpt>
      <trkpt lat="42.87325" lon="-0.19329">
        <ele>2386.4</ele>
        <time>2026-07-15T10:42:50Z</time>
      </trkpt>
      <trkpt lat="42.87325" lon="-0.19329">
        <ele>2386.4</ele>
        <time>2026-07-15T10:42:51Z</time>
      </trkpt>
      <trkpt lat="42.87325" lon="-0.19329">
        <ele>2386.4</ele>
        <time>2026-07-15T10:42:52Z</time>
      </trkpt>
      <trkpt lat="42.87325" lon="-0.19329">
        <ele>2386.4</ele>
        <time>2026-07-15T10:42:53Z</time>
      </trkpt>
      <trkpt lat="42.87325" lon="-0.19329">
        <ele>2386.4</ele>
        <time>2026-07-15T10:42:54Z</time>
      </trkpt>
      <trkpt lat="42.87325" lon="-0.19329">
        <ele>2386.4</ele>
        <time>2026-07-15T10:42:55Z</time>
      </trkpt>
      <trkpt lat="42.87325" lon="-0.19329">
        <ele>2386.4</ele>
        <time>2026-07-15T10:42:56Z</time>
      </trkpt>
      <trkpt lat="42.87325" lon="-0.19329">
        <ele>2386.4</ele>
        <time>2026-07-15T10:42:57Z</time>
      </trkpt>
      <trkpt lat="42.87325" lon="-0.19329">
        <ele>2386.4</ele>
        <time>2026-07-15T10:42:58Z</time>
      </trkpt>
      <trkpt lat="42.87325" lon="-0.19329">
        <ele>2386.4</ele>
        <time>2026-07-15T10:42:59Z</time>
      </trkpt>
      <trkpt lat="42.87325" lon="-0.19329">
        <ele>2386.4</ele>
        <time>2026-07-15T10:43:00Z</time>
      </trkpt>
      <trkpt lat="42.87325" lon="-0.19329">
        <ele>2386.4</ele>
        <time>2026-07-15T10:43:01Z</time>
      </trkpt>
      <trkpt lat="42.87325" lon="-0.19329">
        <ele>2386.4</ele>
        <time>2026-07-15T10:43:02Z</time>
      </trkpt>
      <trkpt lat="42.87325" lon="-0.19329">
        <ele>2386.4</ele>
        <time>2026-07-15T10:43:03Z</time>
      </trkpt>
      <trkpt lat="42.87325" lon="-0.19329">
        <ele>2386.4</ele>
        <time>2026-07-15T10:43:04Z</time>
      </trkpt>
      <trkpt lat="42.87325" lon="-0.19329">
        <ele>2386.4</ele>
        <time>2026-07-15T10:43:05Z</time>
      </trkpt>
      <trkpt lat="42.87325" lon="-0.19329">
        <ele>2386.4</ele>
        <time>2026-07-15T10:43:06Z</time>
      </trkpt>
      <trkpt lat="42.87325" lon="-0.19329">
        <ele>2386.4</ele>
        <time>2026-07-15T10:43:07Z</time>
      </trkpt>
      <trkpt lat="42.87325" lon="-0.19329">
        <ele>2386.4</ele>
        <time>2026-07-15T10:43:08Z</time>
      </trkpt>
      <trkpt lat="42.87325" lon="-0.19329">
        <ele>2386.4</ele>
        <time>2026-07-15T10:43:09Z</time>
      </trkpt>
      <trkpt lat="42.87325" lon="-0.19329">
        <ele>2386.4</ele>
        <time>2026-07-15T10:43:10Z</time>
      </trkpt>
      <trkpt lat="42.87325" lon="-0.19329">
        <ele>2386.4</ele>
        <time>2026-07-15T10:43:11Z</time>
      </trkpt>
      <trkpt lat="42.87325" lon="-0.19329">
        <ele>2386.4</ele>
        <time>2026-07-15T10:43:12Z</time>
      </trkpt>
      <trkpt lat="42.87325" lon="-0.19329">
        <ele>2386.4</ele>
        <time>2026-07-15T10:43:13Z</time>
      </trkpt>
      <trkpt lat="42.87325" lon="-0.19329">
        <ele>2386.4</ele>
        <time>2026-07-15T10:43:14Z</time>
      </trkpt>
      <trkpt lat="42.87325" lon="-0.19329">
        <ele>2386.4</ele>
        <time>2026-07-15T10:43:15Z</time>
      </trkpt>
      <trkpt lat="42.87325" lon="-0.19329">
        <ele>2386.4</ele>
        <time>2026-07-15T10:43:16Z</time>
      </trkpt>
      <trkpt lat="42.87325" lon="-0.19329">
        <ele>2386.4</ele>
        <time>2026-07-15T10:43:17Z</time>
      </trkpt>
      <trkpt lat="42.87325" lon="-0.19329">
        <ele>2386.4</ele>
        <time>2026-07-15T10:43:18Z</time>
      </trkpt>
      <trkpt lat="42.87325" lon="-0.19329">
        <ele>2386.4</ele>
        <time>2026-07-15T10:43:19Z</time>
      </trkpt>
      <trkpt lat="42.87325" lon="-0.19329">
        <ele>2386.4</ele>
        <time>2026-07-15T10:43:20Z</time>
      </trkpt>
      <trkpt lat="42.87325" lon="-0.19329">
        <ele>2386.4</ele>
        <time>2026-07-15T10:43:21Z</time>
      </trkpt>
      <trkpt lat="42.87325" lon="-0.19329">
        <ele>2386.4</ele>
        <time>2026-07-15T10:43:22Z</time>
      </trkpt>
      <trkpt lat="42.87325" lon="-0.19329">
        <ele>2386.4</ele>
        <time>2026-07-15T10:43:23Z</time>
      </trkpt>
      <trkpt lat="42.87325" lon="-0.19329">
        <ele>2385.4</ele>
        <time>2026-07-15T10:43:24Z</time>
      </trkpt>
      <trkpt lat="42.87325" lon="-0.19329">
        <ele>2385.4</ele>
        <time>2026-07-15T10:43:25Z</time>
      </trkpt>
      <trkpt lat="42.87325" lon="-0.19329">
        <ele>2385.4</ele>
        <time>2026-07-15T10:43:26Z</time>
      </trkpt>
      <trkpt lat="42.87325" lon="-0.19329">
        <ele>2385.4</ele>
        <time>2026-07-15T10:43:27Z</time>
      </trkpt>
      <trkpt lat="42.87325" lon="-0.19329">
        <ele>2385.4</ele>
        <time>2026-07-15T10:43:28Z</time>
      </trkpt>
      <trkpt lat="42.87325" lon="-0.19329">
        <ele>2385.4</ele>
        <time>2026-07-15T10:43:29Z</time>
      </trkpt>
      <trkpt lat="42.87325" lon="-0.19329">
        <ele>2385.4</ele>
        <time>2026-07-15T10:43:30Z</time>
      </trkpt>
      <trkpt lat="42.87325" lon="-0.19329">
        <ele>2385.4</ele>
        <time>2026-07-15T10:43:31Z</time>
      </trkpt>
      <trkpt lat="42.87325" lon="-0.19329">
        <ele>2385.4</ele>
        <time>2026-07-15T10:43:32Z</time>
      </trkpt>
      <trkpt lat="42.87325" lon="-0.19329">
        <ele>2385.4</ele>
        <time>2026-07-15T10:43:33Z</time>
      </trkpt>
      <trkpt lat="42.87325" lon="-0.19329">
        <ele>2385.4</ele>
        <time>2026-07-15T10:43:34Z</time>
      </trkpt>
      <trkpt lat="42.87325" lon="-0.19329">
        <ele>2385.4</ele>
        <time>2026-07-15T10:43:35Z</time>
      </trkpt>
      <trkpt lat="42.87325" lon="-0.19329">
        <ele>2385.4</ele>
        <time>2026-07-15T10:43:36Z</time>
      </trkpt>
      <trkpt lat="42.87325" lon="-0.19329">
        <ele>2385.4</ele>
        <time>2026-07-15T10:43:37Z</time>
      </trkpt>
      <trkpt lat="42.87325" lon="-0.19329">
        <ele>2385.4</ele>
        <time>2026-07-15T10:43:38Z</time>
      </trkpt>
      <trkpt lat="42.87325" lon="-0.19329">
        <ele>2385.4</ele>
        <time>2026-07-15T10:43:39Z</time>
      </trkpt>
      <trkpt lat="42.87325" lon="-0.19329">
        <ele>2385.4</ele>
        <time>2026-07-15T10:43:40Z</time>
      </trkpt>
      <trkpt lat="42.87325" lon="-0.19329">
        <ele>2385.4</ele>
        <time>2026-07-15T10:43:41Z</time>
      </trkpt>
      <trkpt lat="42.87325" lon="-0.19329">
        <ele>2385.4</ele>
        <time>2026-07-15T10:43:42Z</time>
      </trkpt>
      <trkpt lat="42.87325" lon="-0.19329">
        <ele>2385.4</ele>
        <time>2026-07-15T10:43:43Z</time>
      </trkpt>
      <trkpt lat="42.87325" lon="-0.19329">
        <ele>2385.4</ele>
        <time>2026-07-15T10:43:44Z</time>
      </trkpt>
      <trkpt lat="42.87325" lon="-0.19329">
        <ele>2385.4</ele>
        <time>2026-07-15T10:43:45Z</time>
      </trkpt>
      <trkpt lat="42.87325" lon="-0.19329">
        <ele>2385.4</ele>
        <time>2026-07-15T10:43:46Z</time>
      </trkpt>
      <trkpt lat="42.87325" lon="-0.19329">
        <ele>2385.4</ele>
        <time>2026-07-15T10:43:47Z</time>
      </trkpt>
      <trkpt lat="42.87325" lon="-0.19329">
        <ele>2385.4</ele>
        <time>2026-07-15T10:43:48Z</time>
      </trkpt>
      <trkpt lat="42.87325" lon="-0.19329">
        <ele>2385.4</ele>
        <time>2026-07-15T10:43:49Z</time>
      </trkpt>
      <trkpt lat="42.87325" lon="-0.19329">
        <ele>2385.4</ele>
        <time>2026-07-15T10:43:50Z</time>
      </trkpt>
      <trkpt lat="42.87325" lon="-0.19329">
        <ele>2385.4</ele>
        <time>2026-07-15T10:43:51Z</time>
      </trkpt>
      <trkpt lat="42.87325" lon="-0.19329">
        <ele>2385.4</ele>
        <time>2026-07-15T10:43:52Z</time>
      </trkpt>
      <trkpt lat="42.87325" lon="-0.19329">
        <ele>2385.4</ele>
        <time>2026-07-15T10:43:53Z</time>
      </trkpt>
      <trkpt lat="42.87325" lon="-0.19329">
        <ele>2385.4</ele>
        <time>2026-07-15T10:43:54Z</time>
      </trkpt>
      <trkpt lat="42.87325" lon="-0.19329">
        <ele>2385.4</ele>
        <time>2026-07-15T10:43:55Z</time>
      </trkpt>
      <trkpt lat="42.87325" lon="-0.19329">
        <ele>2385.4</ele>
        <time>2026-07-15T10:43:56Z</time>
      </trkpt>
      <trkpt lat="42.87325" lon="-0.19329">
        <ele>2385.4</ele>
        <time>2026-07-15T10:43:57Z</time>
      </trkpt>
      <trkpt lat="42.87325" lon="-0.19329">
        <ele>2385.4</ele>
        <time>2026-07-15T10:43:57Z</time>
      </trkpt>
      <trkpt lat="42.87325" lon="-0.19329">
        <ele>2385.4</ele>
        <time>2026-07-15T10:43:58Z</time>
      </trkpt>
      <trkpt lat="42.87325" lon="-0.19329">
        <ele>2385.4</ele>
        <time>2026-07-15T10:43:59Z</time>
      </trkpt>
      <trkpt lat="42.87325" lon="-0.19329">
        <ele>2385.4</ele>
        <time>2026-07-15T10:44:00Z</time>
      </trkpt>
      <trkpt lat="42.87325" lon="-0.19329">
        <ele>2385.4</ele>
        <time>2026-07-15T10:44:01Z</time>
      </trkpt>
      <trkpt lat="42.87325" lon="-0.19329">
        <ele>2385.4</ele>
        <time>2026-07-15T10:44:02Z</time>
      </trkpt>
      <trkpt lat="42.87325" lon="-0.19329">
        <ele>2385.4</ele>
        <time>2026-07-15T10:44:03Z</time>
      </trkpt>
      <trkpt lat="42.87325" lon="-0.19329">
        <ele>2385.4</ele>
        <time>2026-07-15T10:44:04Z</time>
      </trkpt>
      <trkpt lat="42.87325" lon="-0.19329">
        <ele>2385.4</ele>
        <time>2026-07-15T10:44:05Z</time>
      </trkpt>
      <trkpt lat="42.87325" lon="-0.19329">
        <ele>2385.4</ele>
        <time>2026-07-15T10:44:06Z</time>
      </trkpt>
      <trkpt lat="42.87325" lon="-0.19329">
        <ele>2386.4</ele>
        <time>2026-07-15T10:44:07Z</time>
      </trkpt>
      <trkpt lat="42.87325" lon="-0.1933">
        <ele>2385.4</ele>
        <time>2026-07-15T10:44:08Z</time>
      </trkpt>
      <trkpt lat="42.87325" lon="-0.1933">
        <ele>2385.4</ele>
        <time>2026-07-15T10:44:09Z</time>
      </trkpt>
      <trkpt lat="42.87325" lon="-0.1933">
        <ele>2385.4</ele>
        <time>2026-07-15T10:44:10Z</time>
      </trkpt>
      <trkpt lat="42.87325" lon="-0.1933">
        <ele>2384.4</ele>
        <time>2026-07-15T10:44:10Z</time>
      </trkpt>
      <trkpt lat="42.87325" lon="-0.1933">
        <ele>2384.4</ele>
        <time>2026-07-15T10:44:11Z</time>
      </trkpt>
      <trkpt lat="42.87325" lon="-0.1933">
        <ele>2384.4</ele>
        <time>2026-07-15T10:44:12Z</time>
      </trkpt>
      <trkpt lat="42.87325" lon="-0.19329">
        <ele>2384.4</ele>
        <time>2026-07-15T10:44:13Z</time>
      </trkpt>
      <trkpt lat="42.87325" lon="-0.19329">
        <ele>2384.4</ele>
        <time>2026-07-15T10:44:14Z</time>
      </trkpt>
      <trkpt lat="42.87325" lon="-0.19329">
        <ele>2384.4</ele>
        <time>2026-07-15T10:44:15Z</time>
      </trkpt>
      <trkpt lat="42.87325" lon="-0.19329">
        <ele>2384.4</ele>
        <time>2026-07-15T10:44:16Z</time>
      </trkpt>
      <trkpt lat="42.87325" lon="-0.19329">
        <ele>2384.4</ele>
        <time>2026-07-15T10:44:17Z</time>
      </trkpt>
      <trkpt lat="42.87325" lon="-0.19329">
        <ele>2384.4</ele>
        <time>2026-07-15T10:44:18Z</time>
      </trkpt>
      <trkpt lat="42.87325" lon="-0.19329">
        <ele>2384.4</ele>
        <time>2026-07-15T10:44:19Z</time>
      </trkpt>
      <trkpt lat="42.87325" lon="-0.19329">
        <ele>2384.4</ele>
        <time>2026-07-15T10:44:20Z</time>
      </trkpt>
      <trkpt lat="42.87325" lon="-0.19329">
        <ele>2384.4</ele>
        <time>2026-07-15T10:44:21Z</time>
      </trkpt>
      <trkpt lat="42.87325" lon="-0.19329">
        <ele>2384.4</ele>
        <time>2026-07-15T10:44:22Z</time>
      </trkpt>
      <trkpt lat="42.87325" lon="-0.19329">
        <ele>2384.4</ele>
        <time>2026-07-15T10:44:23Z</time>
      </trkpt>
      <trkpt lat="42.87325" lon="-0.19329">
        <ele>2384.4</ele>
        <time>2026-07-15T10:44:24Z</time>
      </trkpt>
      <trkpt lat="42.87325" lon="-0.19329">
        <ele>2384.4</ele>
        <time>2026-07-15T10:44:25Z</time>
      </trkpt>
      <trkpt lat="42.87325" lon="-0.19329">
        <ele>2384.4</ele>
        <time>2026-07-15T10:44:26Z</time>
      </trkpt>
      <trkpt lat="42.87325" lon="-0.19329">
        <ele>2384.4</ele>
        <time>2026-07-15T10:44:27Z</time>
      </trkpt>
      <trkpt lat="42.87325" lon="-0.19329">
        <ele>2384.4</ele>
        <time>2026-07-15T10:44:28Z</time>
      </trkpt>
      <trkpt lat="42.87325" lon="-0.19329">
        <ele>2384.4</ele>
        <time>2026-07-15T10:44:29Z</time>
      </trkpt>
      <trkpt lat="42.87325" lon="-0.19329">
        <ele>2386.4</ele>
        <time>2026-07-15T10:44:30Z</time>
      </trkpt>
      <trkpt lat="42.87325" lon="-0.19329">
        <ele>2386.4</ele>
        <time>2026-07-15T10:44:31Z</time>
      </trkpt>
      <trkpt lat="42.87325" lon="-0.19329">
        <ele>2385.4</ele>
        <time>2026-07-15T10:44:32Z</time>
      </trkpt>
      <trkpt lat="42.87325" lon="-0.19329">
        <ele>2386.4</ele>
        <time>2026-07-15T10:44:33Z</time>
      </trkpt>
      <trkpt lat="42.87325" lon="-0.19329">
        <ele>2386.4</ele>
        <time>2026-07-15T10:44:34Z</time>
      </trkpt>
      <trkpt lat="42.87325" lon="-0.1933">
        <ele>2385.4</ele>
        <time>2026-07-15T10:44:35Z</time>
      </trkpt>
      <trkpt lat="42.87325" lon="-0.1933">
        <ele>2384.4</ele>
        <time>2026-07-15T10:44:36Z</time>
      </trkpt>
      <trkpt lat="42.87325" lon="-0.1933">
        <ele>2384.4</ele>
        <time>2026-07-15T10:44:37Z</time>
      </trkpt>
      <trkpt lat="42.87325" lon="-0.19329">
        <ele>2385.4</ele>
        <time>2026-07-15T10:44:37Z</time>
      </trkpt>
      <trkpt lat="42.87325" lon="-0.19329">
        <ele>2385.4</ele>
        <time>2026-07-15T10:44:38Z</time>
      </trkpt>
      <trkpt lat="42.87325" lon="-0.19329">
        <ele>2386.4</ele>
        <time>2026-07-15T10:44:39Z</time>
      </trkpt>
      <trkpt lat="42.87325" lon="-0.19329">
        <ele>2386.4</ele>
        <time>2026-07-15T10:44:40Z</time>
      </trkpt>
      <trkpt lat="42.87325" lon="-0.19329">
        <ele>2386.4</ele>
        <time>2026-07-15T10:44:41Z</time>
      </trkpt>
      <trkpt lat="42.87325" lon="-0.19329">
        <ele>2385.4</ele>
        <time>2026-07-15T10:44:42Z</time>
      </trkpt>
      <trkpt lat="42.87325" lon="-0.19329">
        <ele>2385.4</ele>
        <time>2026-07-15T10:44:43Z</time>
      </trkpt>
      <trkpt lat="42.87325" lon="-0.19329">
        <ele>2385.4</ele>
        <time>2026-07-15T10:44:44Z</time>
      </trkpt>
      <trkpt lat="42.87325" lon="-0.19329">
        <ele>2385.4</ele>
        <time>2026-07-15T10:44:45Z</time>
      </trkpt>
      <trkpt lat="42.87325" lon="-0.19329">
        <ele>2385.4</ele>
        <time>2026-07-15T10:44:46Z</time>
      </trkpt>
      <trkpt lat="42.87325" lon="-0.19329">
        <ele>2385.4</ele>
        <time>2026-07-15T10:44:47Z</time>
      </trkpt>
      <trkpt lat="42.87325" lon="-0.19329">
        <ele>2385.4</ele>
        <time>2026-07-15T10:44:48Z</time>
      </trkpt>
      <trkpt lat="42.87325" lon="-0.19329">
        <ele>2385.4</ele>
        <time>2026-07-15T10:44:48Z</time>
      </trkpt>
      <trkpt lat="42.87325" lon="-0.19329">
        <ele>2385.4</ele>
        <time>2026-07-15T10:44:49Z</time>
      </trkpt>
      <trkpt lat="42.87325" lon="-0.19329">
        <ele>2385.4</ele>
        <time>2026-07-15T10:44:50Z</time>
      </trkpt>
      <trkpt lat="42.87325" lon="-0.19329">
        <ele>2385.4</ele>
        <time>2026-07-15T10:44:51Z</time>
      </trkpt>
      <trkpt lat="42.87325" lon="-0.19329">
        <ele>2385.4</ele>
        <time>2026-07-15T10:44:52Z</time>
      </trkpt>
      <trkpt lat="42.87325" lon="-0.19329">
        <ele>2385.4</ele>
        <time>2026-07-15T10:44:52Z</time>
      </trkpt>
      <trkpt lat="42.87325" lon="-0.19329">
        <ele>2385.4</ele>
        <time>2026-07-15T10:44:53Z</time>
      </trkpt>
      <trkpt lat="42.87325" lon="-0.19329">
        <ele>2386.4</ele>
        <time>2026-07-15T10:44:54Z</time>
      </trkpt>
      <trkpt lat="42.87325" lon="-0.19329">
        <ele>2386.4</ele>
        <time>2026-07-15T10:44:55Z</time>
      </trkpt>
      <trkpt lat="42.87325" lon="-0.19329">
        <ele>2386.4</ele>
        <time>2026-07-15T10:44:56Z</time>
      </trkpt>
      <trkpt lat="42.87326" lon="-0.19329">
        <ele>2386.4</ele>
        <time>2026-07-15T10:44:57Z</time>
      </trkpt>
      <trkpt lat="42.87326" lon="-0.1933">
        <ele>2387.4</ele>
        <time>2026-07-15T10:44:58Z</time>
      </trkpt>
      <trkpt lat="42.87325" lon="-0.1933">
        <ele>2387.4</ele>
        <time>2026-07-15T10:44:59Z</time>
      </trkpt>
      <trkpt lat="42.87325" lon="-0.19329">
        <ele>2388.4</ele>
        <time>2026-07-15T10:44:59Z</time>
      </trkpt>
      <trkpt lat="42.87325" lon="-0.19329">
        <ele>2388.4</ele>
        <time>2026-07-15T10:45:00Z</time>
      </trkpt>
      <trkpt lat="42.87325" lon="-0.19329">
        <ele>2388.4</ele>
        <time>2026-07-15T10:45:01Z</time>
      </trkpt>
      <trkpt lat="42.87325" lon="-0.19329">
        <ele>2388.4</ele>
        <time>2026-07-15T10:45:02Z</time>
      </trkpt>
      <trkpt lat="42.87325" lon="-0.19329">
        <ele>2388.4</ele>
        <time>2026-07-15T10:45:03Z</time>
      </trkpt>
      <trkpt lat="42.87325" lon="-0.1933">
        <ele>2390.4</ele>
        <time>2026-07-15T10:45:04Z</time>
      </trkpt>
      <trkpt lat="42.87325" lon="-0.1933">
        <ele>2390.4</ele>
        <time>2026-07-15T10:45:04Z</time>
      </trkpt>
      <trkpt lat="42.87325" lon="-0.1933">
        <ele>2390.4</ele>
        <time>2026-07-15T10:45:05Z</time>
      </trkpt>
      <trkpt lat="42.87325" lon="-0.1933">
        <ele>2391.4</ele>
        <time>2026-07-15T10:45:06Z</time>
      </trkpt>
      <trkpt lat="42.87325" lon="-0.1933">
        <ele>2391.4</ele>
        <time>2026-07-15T10:45:07Z</time>
      </trkpt>
      <trkpt lat="42.87325" lon="-0.1933">
        <ele>2391.4</ele>
        <time>2026-07-15T10:45:08Z</time>
      </trkpt>
      <trkpt lat="42.87325" lon="-0.1933">
        <ele>2391.4</ele>
        <time>2026-07-15T10:45:09Z</time>
      </trkpt>
      <trkpt lat="42.87325" lon="-0.1933">
        <ele>2391.4</ele>
        <time>2026-07-15T10:45:09Z</time>
      </trkpt>
      <trkpt lat="42.87325" lon="-0.1933">
        <ele>2392.4</ele>
        <time>2026-07-15T10:45:10Z</time>
      </trkpt>
      <trkpt lat="42.87325" lon="-0.1933">
        <ele>2392.4</ele>
        <time>2026-07-15T10:45:11Z</time>
      </trkpt>
      <trkpt lat="42.87325" lon="-0.1933">
        <ele>2391.4</ele>
        <time>2026-07-15T10:45:11Z</time>
      </trkpt>
      <trkpt lat="42.87325" lon="-0.1933">
        <ele>2391.4</ele>
        <time>2026-07-15T10:45:12Z</time>
      </trkpt>
      <trkpt lat="42.87325" lon="-0.1933">
        <ele>2392.4</ele>
        <time>2026-07-15T10:45:13Z</time>
      </trkpt>
      <trkpt lat="42.87325" lon="-0.1933">
        <ele>2392.4</ele>
        <time>2026-07-15T10:45:14Z</time>
      </trkpt>
      <trkpt lat="42.87324" lon="-0.1933">
        <ele>2392.4</ele>
        <time>2026-07-15T10:45:14Z</time>
      </trkpt>
      <trkpt lat="42.87324" lon="-0.1933">
        <ele>2392.4</ele>
        <time>2026-07-15T10:45:15Z</time>
      </trkpt>
      <trkpt lat="42.87324" lon="-0.19329">
        <ele>2392.4</ele>
        <time>2026-07-15T10:45:16Z</time>
      </trkpt>
      <trkpt lat="42.87324" lon="-0.19329">
        <ele>2392.4</ele>
        <time>2026-07-15T10:45:16Z</time>
      </trkpt>
      <trkpt lat="42.87325" lon="-0.19329">
        <ele>2392.4</ele>
        <time>2026-07-15T10:45:17Z</time>
      </trkpt>
      <trkpt lat="42.87325" lon="-0.19329">
        <ele>2392.4</ele>
        <time>2026-07-15T10:45:18Z</time>
      </trkpt>
      <trkpt lat="42.87325" lon="-0.19329">
        <ele>2392.4</ele>
        <time>2026-07-15T10:45:19Z</time>
      </trkpt>
      <trkpt lat="42.87325" lon="-0.19329">
        <ele>2392.4</ele>
        <time>2026-07-15T10:45:20Z</time>
      </trkpt>
      <trkpt lat="42.87325" lon="-0.19329">
        <ele>2392.4</ele>
        <time>2026-07-15T10:45:21Z</time>
      </trkpt>
      <trkpt lat="42.87325" lon="-0.19329">
        <ele>2392.4</ele>
        <time>2026-07-15T10:45:21Z</time>
      </trkpt>
      <trkpt lat="42.87325" lon="-0.19329">
        <ele>2392.4</ele>
        <time>2026-07-15T10:45:22Z</time>
      </trkpt>
      <trkpt lat="42.87325" lon="-0.19328">
        <ele>2392.4</ele>
        <time>2026-07-15T10:45:23Z</time>
      </trkpt>
      <trkpt lat="42.87325" lon="-0.19328">
        <ele>2392.4</ele>
        <time>2026-07-15T10:45:24Z</time>
      </trkpt>
      <trkpt lat="42.87325" lon="-0.19328">
        <ele>2392.4</ele>
        <time>2026-07-15T10:45:25Z</time>
      </trkpt>
      <trkpt lat="42.87325" lon="-0.19328">
        <ele>2392.4</ele>
        <time>2026-07-15T10:45:26Z</time>
      </trkpt>
      <trkpt lat="42.87325" lon="-0.19328">
        <ele>2392.4</ele>
        <time>2026-07-15T10:45:27Z</time>
      </trkpt>
      <trkpt lat="42.87325" lon="-0.19328">
        <ele>2391.4</ele>
        <time>2026-07-15T10:45:28Z</time>
      </trkpt>
      <trkpt lat="42.87325" lon="-0.19327">
        <ele>2390.4</ele>
        <time>2026-07-15T10:45:29Z</time>
      </trkpt>
      <trkpt lat="42.87325" lon="-0.19327">
        <ele>2391.4</ele>
        <time>2026-07-15T10:45:30Z</time>
      </trkpt>
      <trkpt lat="42.87325" lon="-0.19327">
        <ele>2391.4</ele>
        <time>2026-07-15T10:45:31Z</time>
      </trkpt>
      <trkpt lat="42.87325" lon="-0.19327">
        <ele>2391.4</ele>
        <time>2026-07-15T10:45:32Z</time>
      </trkpt>
      <trkpt lat="42.87325" lon="-0.19327">
        <ele>2391.4</ele>
        <time>2026-07-15T10:45:33Z</time>
      </trkpt>
      <trkpt lat="42.87325" lon="-0.19326">
        <ele>2391.4</ele>
        <time>2026-07-15T10:45:34Z</time>
      </trkpt>
      <trkpt lat="42.87325" lon="-0.19326">
        <ele>2391.4</ele>
        <time>2026-07-15T10:45:35Z</time>
      </trkpt>
      <trkpt lat="42.87325" lon="-0.19326">
        <ele>2391.4</ele>
        <time>2026-07-15T10:45:36Z</time>
      </trkpt>
      <trkpt lat="42.87324" lon="-0.19325">
        <ele>2391.4</ele>
        <time>2026-07-15T10:45:37Z</time>
      </trkpt>
      <trkpt lat="42.87324" lon="-0.19325">
        <ele>2391.4</ele>
        <time>2026-07-15T10:45:38Z</time>
      </trkpt>
      <trkpt lat="42.87324" lon="-0.19325">
        <ele>2391.4</ele>
        <time>2026-07-15T10:45:39Z</time>
      </trkpt>
      <trkpt lat="42.87324" lon="-0.19325">
        <ele>2391.4</ele>
        <time>2026-07-15T10:45:40Z</time>
      </trkpt>
      <trkpt lat="42.87324" lon="-0.19325">
        <ele>2391.4</ele>
        <time>2026-07-15T10:45:41Z</time>
      </trkpt>
      <trkpt lat="42.87324" lon="-0.19325">
        <ele>2391.4</ele>
        <time>2026-07-15T10:45:42Z</time>
      </trkpt>
      <trkpt lat="42.87324" lon="-0.19325">
        <ele>2391.4</ele>
        <time>2026-07-15T10:45:43Z</time>
      </trkpt>
      <trkpt lat="42.87324" lon="-0.19325">
        <ele>2391.4</ele>
        <time>2026-07-15T10:45:44Z</time>
      </trkpt>
      <trkpt lat="42.87324" lon="-0.19325">
        <ele>2391.4</ele>
        <time>2026-07-15T10:45:45Z</time>
      </trkpt>
      <trkpt lat="42.87324" lon="-0.19325">
        <ele>2391.4</ele>
        <time>2026-07-15T10:45:46Z</time>
      </trkpt>
      <trkpt lat="42.87324" lon="-0.19325">
        <ele>2391.4</ele>
        <time>2026-07-15T10:45:47Z</time>
      </trkpt>
      <trkpt lat="42.87324" lon="-0.19324">
        <ele>2390.4</ele>
        <time>2026-07-15T10:45:48Z</time>
      </trkpt>
      <trkpt lat="42.87324" lon="-0.19324">
        <ele>2390.4</ele>
        <time>2026-07-15T10:45:49Z</time>
      </trkpt>
      <trkpt lat="42.87323" lon="-0.19324">
        <ele>2390.4</ele>
        <time>2026-07-15T10:45:50Z</time>
      </trkpt>
      <trkpt lat="42.87323" lon="-0.19324">
        <ele>2390.4</ele>
        <time>2026-07-15T10:45:51Z</time>
      </trkpt>
      <trkpt lat="42.87323" lon="-0.19325">
        <ele>2390.4</ele>
        <time>2026-07-15T10:45:52Z</time>
      </trkpt>
      <trkpt lat="42.87323" lon="-0.19324">
        <ele>2390.4</ele>
        <time>2026-07-15T10:45:53Z</time>
      </trkpt>
      <trkpt lat="42.87323" lon="-0.19325">
        <ele>2390.4</ele>
        <time>2026-07-15T10:45:54Z</time>
      </trkpt>
      <trkpt lat="42.87323" lon="-0.19324">
        <ele>2390.4</ele>
        <time>2026-07-15T10:45:55Z</time>
      </trkpt>
      <trkpt lat="42.87323" lon="-0.19324">
        <ele>2388.4</ele>
        <time>2026-07-15T10:45:56Z</time>
      </trkpt>
      <trkpt lat="42.87323" lon="-0.19324">
        <ele>2388.4</ele>
        <time>2026-07-15T10:45:57Z</time>
      </trkpt>
      <trkpt lat="42.87323" lon="-0.19324">
        <ele>2387.4</ele>
        <time>2026-07-15T10:45:58Z</time>
      </trkpt>
      <trkpt lat="42.87323" lon="-0.19324">
        <ele>2387.4</ele>
        <time>2026-07-15T10:45:59Z</time>
      </trkpt>
      <trkpt lat="42.87323" lon="-0.19324">
        <ele>2386.4</ele>
        <time>2026-07-15T10:46:00Z</time>
      </trkpt>
      <trkpt lat="42.87323" lon="-0.19324">
        <ele>2386.4</ele>
        <time>2026-07-15T10:46:01Z</time>
      </trkpt>
      <trkpt lat="42.87323" lon="-0.19324">
        <ele>2386.4</ele>
        <time>2026-07-15T10:46:02Z</time>
      </trkpt>
      <trkpt lat="42.87323" lon="-0.19324">
        <ele>2386.4</ele>
        <time>2026-07-15T10:46:02Z</time>
      </trkpt>
      <trkpt lat="42.87323" lon="-0.19323">
        <ele>2386.4</ele>
        <time>2026-07-15T10:46:03Z</time>
      </trkpt>
      <trkpt lat="42.87323" lon="-0.19322">
        <ele>2386.4</ele>
        <time>2026-07-15T10:46:04Z</time>
      </trkpt>
      <trkpt lat="42.87322" lon="-0.19321">
        <ele>2385.4</ele>
        <time>2026-07-15T10:46:05Z</time>
      </trkpt>
      <trkpt lat="42.87322" lon="-0.19321">
        <ele>2385.4</ele>
        <time>2026-07-15T10:46:06Z</time>
      </trkpt>
      <trkpt lat="42.87322" lon="-0.1932">
        <ele>2384.4</ele>
        <time>2026-07-15T10:46:06Z</time>
      </trkpt>
      <trkpt lat="42.87322" lon="-0.1932">
        <ele>2385.4</ele>
        <time>2026-07-15T10:46:07Z</time>
      </trkpt>
      <trkpt lat="42.87322" lon="-0.1932">
        <ele>2384.4</ele>
        <time>2026-07-15T10:46:08Z</time>
      </trkpt>
      <trkpt lat="42.87322" lon="-0.1932">
        <ele>2384.4</ele>
        <time>2026-07-15T10:46:09Z</time>
      </trkpt>
      <trkpt lat="42.87322" lon="-0.19321">
        <ele>2384.4</ele>
        <time>2026-07-15T10:46:10Z</time>
      </trkpt>
      <trkpt lat="42.87322" lon="-0.19321">
        <ele>2384.4</ele>
        <time>2026-07-15T10:46:11Z</time>
      </trkpt>
      <trkpt lat="42.87322" lon="-0.19321">
        <ele>2384.4</ele>
        <time>2026-07-15T10:46:12Z</time>
      </trkpt>
      <trkpt lat="42.87322" lon="-0.1932">
        <ele>2384.4</ele>
        <time>2026-07-15T10:46:12Z</time>
      </trkpt>
      <trkpt lat="42.87322" lon="-0.1932">
        <ele>2384.4</ele>
        <time>2026-07-15T10:46:13Z</time>
      </trkpt>
      <trkpt lat="42.87322" lon="-0.1932">
        <ele>2383.4</ele>
        <time>2026-07-15T10:46:14Z</time>
      </trkpt>
      <trkpt lat="42.87321" lon="-0.19319">
        <ele>2383.4</ele>
        <time>2026-07-15T10:46:15Z</time>
      </trkpt>
      <trkpt lat="42.87321" lon="-0.19319">
        <ele>2383.4</ele>
        <time>2026-07-15T10:46:16Z</time>
      </trkpt>
      <trkpt lat="42.87322" lon="-0.19319">
        <ele>2383.4</ele>
        <time>2026-07-15T10:46:17Z</time>
      </trkpt>
      <trkpt lat="42.87321" lon="-0.19318">
        <ele>2383.4</ele>
        <time>2026-07-15T10:46:18Z</time>
      </trkpt>
      <trkpt lat="42.87321" lon="-0.19318">
        <ele>2383.4</ele>
        <time>2026-07-15T10:46:19Z</time>
      </trkpt>
      <trkpt lat="42.87321" lon="-0.19318">
        <ele>2383.4</ele>
        <time>2026-07-15T10:46:20Z</time>
      </trkpt>
      <trkpt lat="42.87321" lon="-0.19318">
        <ele>2383.4</ele>
        <time>2026-07-15T10:46:21Z</time>
      </trkpt>
      <trkpt lat="42.87321" lon="-0.19318">
        <ele>2385.4</ele>
        <time>2026-07-15T10:46:22Z</time>
      </trkpt>
      <trkpt lat="42.87321" lon="-0.19318">
        <ele>2386.4</ele>
        <time>2026-07-15T10:46:23Z</time>
      </trkpt>
      <trkpt lat="42.87321" lon="-0.19317">
        <ele>2385.4</ele>
        <time>2026-07-15T10:46:24Z</time>
      </trkpt>
      <trkpt lat="42.87322" lon="-0.19317">
        <ele>2386.4</ele>
        <time>2026-07-15T10:46:25Z</time>
      </trkpt>
      <trkpt lat="42.87322" lon="-0.19317">
        <ele>2386.4</ele>
        <time>2026-07-15T10:46:26Z</time>
      </trkpt>
      <trkpt lat="42.87322" lon="-0.19317">
        <ele>2386.4</ele>
        <time>2026-07-15T10:46:27Z</time>
      </trkpt>
      <trkpt lat="42.87322" lon="-0.19316">
        <ele>2386.4</ele>
        <time>2026-07-15T10:46:27Z</time>
      </trkpt>
      <trkpt lat="42.87322" lon="-0.19316">
        <ele>2386.4</ele>
        <time>2026-07-15T10:46:28Z</time>
      </trkpt>
      <trkpt lat="42.87322" lon="-0.19316">
        <ele>2386.4</ele>
        <time>2026-07-15T10:46:28Z</time>
      </trkpt>
      <trkpt lat="42.87322" lon="-0.19316">
        <ele>2386.4</ele>
        <time>2026-07-15T10:46:29Z</time>
      </trkpt>
      <trkpt lat="42.87322" lon="-0.19315">
        <ele>2386.4</ele>
        <time>2026-07-15T10:46:30Z</time>
      </trkpt>
      <trkpt lat="42.87322" lon="-0.19315">
        <ele>2386.4</ele>
        <time>2026-07-15T10:46:31Z</time>
      </trkpt>
      <trkpt lat="42.87322" lon="-0.19315">
        <ele>2386.4</ele>
        <time>2026-07-15T10:46:32Z</time>
      </trkpt>
      <trkpt lat="42.87322" lon="-0.19315">
        <ele>2386.4</ele>
        <time>2026-07-15T10:46:33Z</time>
      </trkpt>
      <trkpt lat="42.87322" lon="-0.19314">
        <ele>2386.4</ele>
        <time>2026-07-15T10:46:34Z</time>
      </trkpt>
      <trkpt lat="42.87322" lon="-0.19314">
        <ele>2386.4</ele>
        <time>2026-07-15T10:46:35Z</time>
      </trkpt>
      <trkpt lat="42.87322" lon="-0.19314">
        <ele>2386.4</ele>
        <time>2026-07-15T10:46:36Z</time>
      </trkpt>
      <trkpt lat="42.87322" lon="-0.19314">
        <ele>2386.4</ele>
        <time>2026-07-15T10:46:37Z</time>
      </trkpt>
      <trkpt lat="42.87322" lon="-0.19314">
        <ele>2386.4</ele>
        <time>2026-07-15T10:46:38Z</time>
      </trkpt>
      <trkpt lat="42.87322" lon="-0.19313">
        <ele>2386.4</ele>
        <time>2026-07-15T10:46:39Z</time>
      </trkpt>
      <trkpt lat="42.87322" lon="-0.19313">
        <ele>2386.4</ele>
        <time>2026-07-15T10:46:40Z</time>
      </trkpt>
      <trkpt lat="42.87322" lon="-0.19313">
        <ele>2386.4</ele>
        <time>2026-07-15T10:46:41Z</time>
      </trkpt>
      <trkpt lat="42.87322" lon="-0.19313">
        <ele>2386.4</ele>
        <time>2026-07-15T10:46:42Z</time>
      </trkpt>
      <trkpt lat="42.87322" lon="-0.19313">
        <ele>2386.4</ele>
        <time>2026-07-15T10:46:43Z</time>
      </trkpt>
      <trkpt lat="42.87322" lon="-0.19313">
        <ele>2386.4</ele>
        <time>2026-07-15T10:46:44Z</time>
      </trkpt>
      <trkpt lat="42.87322" lon="-0.19313">
        <ele>2386.4</ele>
        <time>2026-07-15T10:46:45Z</time>
      </trkpt>
      <trkpt lat="42.87321" lon="-0.19313">
        <ele>2386.4</ele>
        <time>2026-07-15T10:46:45Z</time>
      </trkpt>
      <trkpt lat="42.87321" lon="-0.19313">
        <ele>2386.4</ele>
        <time>2026-07-15T10:46:46Z</time>
      </trkpt>
      <trkpt lat="42.87321" lon="-0.19313">
        <ele>2386.4</ele>
        <time>2026-07-15T10:46:47Z</time>
      </trkpt>
      <trkpt lat="42.87321" lon="-0.19314">
        <ele>2387.4</ele>
        <time>2026-07-15T10:46:48Z</time>
      </trkpt>
      <trkpt lat="42.87321" lon="-0.19314">
        <ele>2387.4</ele>
        <time>2026-07-15T10:46:49Z</time>
      </trkpt>
      <trkpt lat="42.87321" lon="-0.19314">
        <ele>2388.4</ele>
        <time>2026-07-15T10:46:50Z</time>
      </trkpt>
      <trkpt lat="42.87321" lon="-0.19314">
        <ele>2388.4</ele>
        <time>2026-07-15T10:46:51Z</time>
      </trkpt>
      <trkpt lat="42.87321" lon="-0.19314">
        <ele>2388.4</ele>
        <time>2026-07-15T10:46:52Z</time>
      </trkpt>
      <trkpt lat="42.87321" lon="-0.19314">
        <ele>2388.4</ele>
        <time>2026-07-15T10:46:52Z</time>
      </trkpt>
      <trkpt lat="42.87321" lon="-0.19314">
        <ele>2388.4</ele>
        <time>2026-07-15T10:46:53Z</time>
      </trkpt>
      <trkpt lat="42.87321" lon="-0.19314">
        <ele>2388.4</ele>
        <time>2026-07-15T10:46:54Z</time>
      </trkpt>
      <trkpt lat="42.87322" lon="-0.19314">
        <ele>2388.4</ele>
        <time>2026-07-15T10:46:55Z</time>
      </trkpt>
      <trkpt lat="42.87322" lon="-0.19314">
        <ele>2388.4</ele>
        <time>2026-07-15T10:46:56Z</time>
      </trkpt>
      <trkpt lat="42.87322" lon="-0.19314">
        <ele>2388.4</ele>
        <time>2026-07-15T10:46:57Z</time>
      </trkpt>
      <trkpt lat="42.87322" lon="-0.19314">
        <ele>2388.4</ele>
        <time>2026-07-15T10:46:57Z</time>
      </trkpt>
      <trkpt lat="42.87322" lon="-0.19314">
        <ele>2388.4</ele>
        <time>2026-07-15T10:46:58Z</time>
      </trkpt>
      <trkpt lat="42.87322" lon="-0.19314">
        <ele>2387.4</ele>
        <time>2026-07-15T10:46:59Z</time>
      </trkpt>
      <trkpt lat="42.87322" lon="-0.19314">
        <ele>2387.4</ele>
        <time>2026-07-15T10:47:00Z</time>
      </trkpt>
      <trkpt lat="42.87322" lon="-0.19314">
        <ele>2387.4</ele>
        <time>2026-07-15T10:47:00Z</time>
      </trkpt>
      <trkpt lat="42.87322" lon="-0.19314">
        <ele>2388.4</ele>
        <time>2026-07-15T10:47:01Z</time>
      </trkpt>
      <trkpt lat="42.87322" lon="-0.19314">
        <ele>2388.4</ele>
        <time>2026-07-15T10:47:01Z</time>
      </trkpt>
      <trkpt lat="42.87322" lon="-0.19314">
        <ele>2388.4</ele>
        <time>2026-07-15T10:47:02Z</time>
      </trkpt>
      <trkpt lat="42.87322" lon="-0.19314">
        <ele>2388.4</ele>
        <time>2026-07-15T10:47:03Z</time>
      </trkpt>
      <trkpt lat="42.87322" lon="-0.19315">
        <ele>2387.4</ele>
        <time>2026-07-15T10:47:04Z</time>
      </trkpt>
      <trkpt lat="42.87322" lon="-0.19315">
        <ele>2387.4</ele>
        <time>2026-07-15T10:47:05Z</time>
      </trkpt>
      <trkpt lat="42.87322" lon="-0.19315">
        <ele>2387.4</ele>
        <time>2026-07-15T10:47:06Z</time>
      </trkpt>
      <trkpt lat="42.87322" lon="-0.19315">
        <ele>2387.4</ele>
        <time>2026-07-15T10:47:07Z</time>
      </trkpt>
      <trkpt lat="42.87322" lon="-0.19315">
        <ele>2387.4</ele>
        <time>2026-07-15T10:47:08Z</time>
      </trkpt>
      <trkpt lat="42.87322" lon="-0.19315">
        <ele>2387.4</ele>
        <time>2026-07-15T10:47:09Z</time>
      </trkpt>
      <trkpt lat="42.87322" lon="-0.19315">
        <ele>2387.4</ele>
        <time>2026-07-15T10:47:10Z</time>
      </trkpt>
      <trkpt lat="42.87322" lon="-0.19315">
        <ele>2387.4</ele>
        <time>2026-07-15T10:47:11Z</time>
      </trkpt>
      <trkpt lat="42.87322" lon="-0.19315">
        <ele>2386.4</ele>
        <time>2026-07-15T10:47:12Z</time>
      </trkpt>
      <trkpt lat="42.87322" lon="-0.19314">
        <ele>2385.4</ele>
        <time>2026-07-15T10:47:13Z</time>
      </trkpt>
      <trkpt lat="42.87322" lon="-0.19314">
        <ele>2385.4</ele>
        <time>2026-07-15T10:47:14Z</time>
      </trkpt>
      <trkpt lat="42.87322" lon="-0.19314">
        <ele>2385.4</ele>
        <time>2026-07-15T10:47:15Z</time>
      </trkpt>
      <trkpt lat="42.87322" lon="-0.19313">
        <ele>2385.4</ele>
        <time>2026-07-15T10:47:16Z</time>
      </trkpt>
      <trkpt lat="42.87322" lon="-0.19313">
        <ele>2385.4</ele>
        <time>2026-07-15T10:47:16Z</time>
      </trkpt>
      <trkpt lat="42.87322" lon="-0.19313">
        <ele>2385.4</ele>
        <time>2026-07-15T10:47:17Z</time>
      </trkpt>
      <trkpt lat="42.87322" lon="-0.19313">
        <ele>2385.4</ele>
        <time>2026-07-15T10:47:18Z</time>
      </trkpt>
      <trkpt lat="42.87322" lon="-0.19313">
        <ele>2385.4</ele>
        <time>2026-07-15T10:47:18Z</time>
      </trkpt>
      <trkpt lat="42.87323" lon="-0.19313">
        <ele>2385.4</ele>
        <time>2026-07-15T10:47:19Z</time>
      </trkpt>
      <trkpt lat="42.87323" lon="-0.19313">
        <ele>2385.4</ele>
        <time>2026-07-15T10:47:20Z</time>
      </trkpt>
      <trkpt lat="42.87323" lon="-0.19313">
        <ele>2385.4</ele>
        <time>2026-07-15T10:47:21Z</time>
      </trkpt>
      <trkpt lat="42.87323" lon="-0.19313">
        <ele>2385.4</ele>
        <time>2026-07-15T10:47:22Z</time>
      </trkpt>
      <trkpt lat="42.87323" lon="-0.19313">
        <ele>2385.4</ele>
        <time>2026-07-15T10:47:23Z</time>
      </trkpt>
      <trkpt lat="42.87323" lon="-0.19313">
        <ele>2385.4</ele>
        <time>2026-07-15T10:47:24Z</time>
      </trkpt>
      <trkpt lat="42.87324" lon="-0.19313">
        <ele>2385.4</ele>
        <time>2026-07-15T10:47:25Z</time>
      </trkpt>
      <trkpt lat="42.87324" lon="-0.19313">
        <ele>2385.4</ele>
        <time>2026-07-15T10:47:26Z</time>
      </trkpt>
      <trkpt lat="42.87324" lon="-0.19313">
        <ele>2385.4</ele>
        <time>2026-07-15T10:47:27Z</time>
      </trkpt>
      <trkpt lat="42.87324" lon="-0.19313">
        <ele>2385.4</ele>
        <time>2026-07-15T10:47:28Z</time>
      </trkpt>
      <trkpt lat="42.87324" lon="-0.19313">
        <ele>2385.4</ele>
        <time>2026-07-15T10:47:29Z</time>
      </trkpt>
      <trkpt lat="42.87324" lon="-0.19313">
        <ele>2385.4</ele>
        <time>2026-07-15T10:47:30Z</time>
      </trkpt>
      <trkpt lat="42.87324" lon="-0.19313">
        <ele>2385.4</ele>
        <time>2026-07-15T10:47:31Z</time>
      </trkpt>
      <trkpt lat="42.87324" lon="-0.19313">
        <ele>2385.4</ele>
        <time>2026-07-15T10:47:32Z</time>
      </trkpt>
      <trkpt lat="42.87324" lon="-0.19312">
        <ele>2385.4</ele>
        <time>2026-07-15T10:47:33Z</time>
      </trkpt>
      <trkpt lat="42.87324" lon="-0.19312">
        <ele>2385.4</ele>
        <time>2026-07-15T10:47:33Z</time>
      </trkpt>
      <trkpt lat="42.87324" lon="-0.19312">
        <ele>2385.4</ele>
        <time>2026-07-15T10:47:34Z</time>
      </trkpt>
      <trkpt lat="42.87324" lon="-0.19312">
        <ele>2385.4</ele>
        <time>2026-07-15T10:47:35Z</time>
      </trkpt>
      <trkpt lat="42.87324" lon="-0.19313">
        <ele>2384.4</ele>
        <time>2026-07-15T10:47:36Z</time>
      </trkpt>
      <trkpt lat="42.87324" lon="-0.19313">
        <ele>2384.4</ele>
        <time>2026-07-15T10:47:37Z</time>
      </trkpt>
      <trkpt lat="42.87324" lon="-0.19312">
        <ele>2384.4</ele>
        <time>2026-07-15T10:47:38Z</time>
      </trkpt>
      <trkpt lat="42.87324" lon="-0.19313">
        <ele>2383.4</ele>
        <time>2026-07-15T10:47:39Z</time>
      </trkpt>
      <trkpt lat="42.87324" lon="-0.19313">
        <ele>2383.4</ele>
        <time>2026-07-15T10:47:40Z</time>
      </trkpt>
      <trkpt lat="42.87324" lon="-0.19313">
        <ele>2383.4</ele>
        <time>2026-07-15T10:47:41Z</time>
      </trkpt>
      <trkpt lat="42.87324" lon="-0.19313">
        <ele>2383.4</ele>
        <time>2026-07-15T10:47:42Z</time>
      </trkpt>
      <trkpt lat="42.87324" lon="-0.19313">
        <ele>2383.4</ele>
        <time>2026-07-15T10:47:43Z</time>
      </trkpt>
      <trkpt lat="42.87324" lon="-0.19312">
        <ele>2383.4</ele>
        <time>2026-07-15T10:47:44Z</time>
      </trkpt>
      <trkpt lat="42.87324" lon="-0.19312">
        <ele>2383.4</ele>
        <time>2026-07-15T10:47:45Z</time>
      </trkpt>
      <trkpt lat="42.87324" lon="-0.19312">
        <ele>2383.4</ele>
        <time>2026-07-15T10:47:46Z</time>
      </trkpt>
      <trkpt lat="42.87324" lon="-0.19312">
        <ele>2383.4</ele>
        <time>2026-07-15T10:47:47Z</time>
      </trkpt>
      <trkpt lat="42.87324" lon="-0.19312">
        <ele>2383.4</ele>
        <time>2026-07-15T10:47:48Z</time>
      </trkpt>
      <trkpt lat="42.87324" lon="-0.19312">
        <ele>2383.4</ele>
        <time>2026-07-15T10:47:49Z</time>
      </trkpt>
      <trkpt lat="42.87324" lon="-0.19312">
        <ele>2383.4</ele>
        <time>2026-07-15T10:47:50Z</time>
      </trkpt>
      <trkpt lat="42.87324" lon="-0.19312">
        <ele>2383.4</ele>
        <time>2026-07-15T10:47:51Z</time>
      </trkpt>
      <trkpt lat="42.87324" lon="-0.19312">
        <ele>2383.4</ele>
        <time>2026-07-15T10:47:52Z</time>
      </trkpt>
      <trkpt lat="42.87324" lon="-0.19312">
        <ele>2383.4</ele>
        <time>2026-07-15T10:47:53Z</time>
      </trkpt>
      <trkpt lat="42.87324" lon="-0.19312">
        <ele>2383.4</ele>
        <time>2026-07-15T10:47:54Z</time>
      </trkpt>
      <trkpt lat="42.87324" lon="-0.19312">
        <ele>2383.4</ele>
        <time>2026-07-15T10:47:55Z</time>
      </trkpt>
      <trkpt lat="42.87324" lon="-0.19312">
        <ele>2383.4</ele>
        <time>2026-07-15T10:47:56Z</time>
      </trkpt>
      <trkpt lat="42.87324" lon="-0.19312">
        <ele>2383.4</ele>
        <time>2026-07-15T10:47:57Z</time>
      </trkpt>
      <trkpt lat="42.87324" lon="-0.19312">
        <ele>2383.4</ele>
        <time>2026-07-15T10:47:58Z</time>
      </trkpt>
      <trkpt lat="42.87324" lon="-0.19312">
        <ele>2383.4</ele>
        <time>2026-07-15T10:47:59Z</time>
      </trkpt>
      <trkpt lat="42.87324" lon="-0.19312">
        <ele>2383.4</ele>
        <time>2026-07-15T10:48:00Z</time>
      </trkpt>
      <trkpt lat="42.87324" lon="-0.19312">
        <ele>2383.4</ele>
        <time>2026-07-15T10:48:01Z</time>
      </trkpt>
      <trkpt lat="42.87324" lon="-0.19312">
        <ele>2383.4</ele>
        <time>2026-07-15T10:48:02Z</time>
      </trkpt>
      <trkpt lat="42.87324" lon="-0.19312">
        <ele>2383.4</ele>
        <time>2026-07-15T10:48:03Z</time>
      </trkpt>
      <trkpt lat="42.87324" lon="-0.19312">
        <ele>2383.4</ele>
        <time>2026-07-15T10:48:04Z</time>
      </trkpt>
      <trkpt lat="42.87324" lon="-0.19312">
        <ele>2383.4</ele>
        <time>2026-07-15T10:48:05Z</time>
      </trkpt>
      <trkpt lat="42.87324" lon="-0.19312">
        <ele>2383.4</ele>
        <time>2026-07-15T10:48:06Z</time>
      </trkpt>
      <trkpt lat="42.87324" lon="-0.19312">
        <ele>2383.4</ele>
        <time>2026-07-15T10:48:07Z</time>
      </trkpt>
      <trkpt lat="42.87324" lon="-0.19312">
        <ele>2383.4</ele>
        <time>2026-07-15T10:48:08Z</time>
      </trkpt>
      <trkpt lat="42.87324" lon="-0.19312">
        <ele>2383.4</ele>
        <time>2026-07-15T10:48:09Z</time>
      </trkpt>
      <trkpt lat="42.87324" lon="-0.19312">
        <ele>2384.4</ele>
        <time>2026-07-15T10:48:10Z</time>
      </trkpt>
      <trkpt lat="42.87323" lon="-0.19312">
        <ele>2383.4</ele>
        <time>2026-07-15T10:48:11Z</time>
      </trkpt>
      <trkpt lat="42.87323" lon="-0.19312">
        <ele>2383.4</ele>
        <time>2026-07-15T10:48:12Z</time>
      </trkpt>
      <trkpt lat="42.87323" lon="-0.19312">
        <ele>2383.4</ele>
        <time>2026-07-15T10:48:13Z</time>
      </trkpt>
      <trkpt lat="42.87323" lon="-0.19312">
        <ele>2383.4</ele>
        <time>2026-07-15T10:48:14Z</time>
      </trkpt>
      <trkpt lat="42.87323" lon="-0.19312">
        <ele>2384.4</ele>
        <time>2026-07-15T10:48:14Z</time>
      </trkpt>
      <trkpt lat="42.87323" lon="-0.19312">
        <ele>2384.4</ele>
        <time>2026-07-15T10:48:15Z</time>
      </trkpt>
      <trkpt lat="42.87323" lon="-0.19313">
        <ele>2384.4</ele>
        <time>2026-07-15T10:48:16Z</time>
      </trkpt>
      <trkpt lat="42.87323" lon="-0.19313">
        <ele>2383.4</ele>
        <time>2026-07-15T10:48:16Z</time>
      </trkpt>
      <trkpt lat="42.87323" lon="-0.19313">
        <ele>2383.4</ele>
        <time>2026-07-15T10:48:17Z</time>
      </trkpt>
      <trkpt lat="42.87324" lon="-0.19313">
        <ele>2383.4</ele>
        <time>2026-07-15T10:48:18Z</time>
      </trkpt>
      <trkpt lat="42.87324" lon="-0.19313">
        <ele>2383.4</ele>
        <time>2026-07-15T10:48:19Z</time>
      </trkpt>
      <trkpt lat="42.87324" lon="-0.19313">
        <ele>2383.4</ele>
        <time>2026-07-15T10:48:20Z</time>
      </trkpt>
      <trkpt lat="42.87324" lon="-0.19312">
        <ele>2383.4</ele>
        <time>2026-07-15T10:48:21Z</time>
      </trkpt>
      <trkpt lat="42.87324" lon="-0.19312">
        <ele>2383.4</ele>
        <time>2026-07-15T10:48:22Z</time>
      </trkpt>
      <trkpt lat="42.87324" lon="-0.19312">
        <ele>2383.4</ele>
        <time>2026-07-15T10:48:23Z</time>
      </trkpt>
      <trkpt lat="42.87324" lon="-0.19312">
        <ele>2383.4</ele>
        <time>2026-07-15T10:48:24Z</time>
      </trkpt>
      <trkpt lat="42.87324" lon="-0.19311">
        <ele>2383.4</ele>
        <time>2026-07-15T10:48:24Z</time>
      </trkpt>
      <trkpt lat="42.87324" lon="-0.19311">
        <ele>2382.4</ele>
        <time>2026-07-15T10:48:25Z</time>
      </trkpt>
      <trkpt lat="42.87324" lon="-0.19311">
        <ele>2382.4</ele>
        <time>2026-07-15T10:48:26Z</time>
      </trkpt>
      <trkpt lat="42.87324" lon="-0.19311">
        <ele>2382.4</ele>
        <time>2026-07-15T10:48:27Z</time>
      </trkpt>
      <trkpt lat="42.87324" lon="-0.19311">
        <ele>2382.4</ele>
        <time>2026-07-15T10:48:28Z</time>
      </trkpt>
      <trkpt lat="42.87324" lon="-0.19311">
        <ele>2382.4</ele>
        <time>2026-07-15T10:48:29Z</time>
      </trkpt>
      <trkpt lat="42.87324" lon="-0.1931">
        <ele>2383.4</ele>
        <time>2026-07-15T10:48:30Z</time>
      </trkpt>
      <trkpt lat="42.87324" lon="-0.1931">
        <ele>2383.4</ele>
        <time>2026-07-15T10:48:31Z</time>
      </trkpt>
      <trkpt lat="42.87324" lon="-0.1931">
        <ele>2383.4</ele>
        <time>2026-07-15T10:48:32Z</time>
      </trkpt>
      <trkpt lat="42.87324" lon="-0.1931">
        <ele>2383.4</ele>
        <time>2026-07-15T10:48:33Z</time>
      </trkpt>
      <trkpt lat="42.87324" lon="-0.19309">
        <ele>2382.4</ele>
        <time>2026-07-15T10:48:34Z</time>
      </trkpt>
      <trkpt lat="42.87324" lon="-0.19309">
        <ele>2383.4</ele>
        <time>2026-07-15T10:48:35Z</time>
      </trkpt>
      <trkpt lat="42.87324" lon="-0.19309">
        <ele>2383.4</ele>
        <time>2026-07-15T10:48:36Z</time>
      </trkpt>
      <trkpt lat="42.87324" lon="-0.19309">
        <ele>2383.4</ele>
        <time>2026-07-15T10:48:37Z</time>
      </trkpt>
      <trkpt lat="42.87325" lon="-0.19309">
        <ele>2383.4</ele>
        <time>2026-07-15T10:48:38Z</time>
      </trkpt>
      <trkpt lat="42.87325" lon="-0.19309">
        <ele>2382.4</ele>
        <time>2026-07-15T10:48:38Z</time>
      </trkpt>
      <trkpt lat="42.87325" lon="-0.19309">
        <ele>2382.4</ele>
        <time>2026-07-15T10:48:39Z</time>
      </trkpt>
      <trkpt lat="42.87325" lon="-0.19308">
        <ele>2382.4</ele>
        <time>2026-07-15T10:48:40Z</time>
      </trkpt>
      <trkpt lat="42.87325" lon="-0.19308">
        <ele>2382.4</ele>
        <time>2026-07-15T10:48:40Z</time>
      </trkpt>
      <trkpt lat="42.87325" lon="-0.19308">
        <ele>2382.4</ele>
        <time>2026-07-15T10:48:41Z</time>
      </trkpt>
      <trkpt lat="42.87325" lon="-0.19308">
        <ele>2382.4</ele>
        <time>2026-07-15T10:48:42Z</time>
      </trkpt>
      <trkpt lat="42.87326" lon="-0.19308">
        <ele>2381.4</ele>
        <time>2026-07-15T10:48:42Z</time>
      </trkpt>
      <trkpt lat="42.87326" lon="-0.19308">
        <ele>2381.4</ele>
        <time>2026-07-15T10:48:43Z</time>
      </trkpt>
      <trkpt lat="42.87326" lon="-0.19308">
        <ele>2381.4</ele>
        <time>2026-07-15T10:48:44Z</time>
      </trkpt>
      <trkpt lat="42.87327" lon="-0.19308">
        <ele>2381.4</ele>
        <time>2026-07-15T10:48:45Z</time>
      </trkpt>
      <trkpt lat="42.87327" lon="-0.19308">
        <ele>2381.4</ele>
        <time>2026-07-15T10:48:46Z</time>
      </trkpt>
      <trkpt lat="42.87327" lon="-0.19307">
        <ele>2381.4</ele>
        <time>2026-07-15T10:48:46Z</time>
      </trkpt>
      <trkpt lat="42.87327" lon="-0.19308">
        <ele>2381.4</ele>
        <time>2026-07-15T10:48:47Z</time>
      </trkpt>
      <trkpt lat="42.87327" lon="-0.19308">
        <ele>2382.4</ele>
        <time>2026-07-15T10:48:48Z</time>
      </trkpt>
      <trkpt lat="42.87328" lon="-0.19308">
        <ele>2382.4</ele>
        <time>2026-07-15T10:48:49Z</time>
      </trkpt>
      <trkpt lat="42.87328" lon="-0.19308">
        <ele>2382.4</ele>
        <time>2026-07-15T10:48:50Z</time>
      </trkpt>
      <trkpt lat="42.87329" lon="-0.19308">
        <ele>2383.4</ele>
        <time>2026-07-15T10:48:51Z</time>
      </trkpt>
      <trkpt lat="42.87329" lon="-0.19308">
        <ele>2383.4</ele>
        <time>2026-07-15T10:48:52Z</time>
      </trkpt>
      <trkpt lat="42.87329" lon="-0.19308">
        <ele>2383.4</ele>
        <time>2026-07-15T10:48:53Z</time>
      </trkpt>
      <trkpt lat="42.87329" lon="-0.19308">
        <ele>2383.4</ele>
        <time>2026-07-15T10:48:54Z</time>
      </trkpt>
      <trkpt lat="42.87329" lon="-0.19309">
        <ele>2383.4</ele>
        <time>2026-07-15T10:48:55Z</time>
      </trkpt>
      <trkpt lat="42.87329" lon="-0.19309">
        <ele>2383.4</ele>
        <time>2026-07-15T10:48:56Z</time>
      </trkpt>
      <trkpt lat="42.87329" lon="-0.19309">
        <ele>2383.4</ele>
        <time>2026-07-15T10:48:57Z</time>
      </trkpt>
      <trkpt lat="42.8733" lon="-0.19309">
        <ele>2383.4</ele>
        <time>2026-07-15T10:48:58Z</time>
      </trkpt>
      <trkpt lat="42.8733" lon="-0.19309">
        <ele>2383.4</ele>
        <time>2026-07-15T10:48:59Z</time>
      </trkpt>
      <trkpt lat="42.8733" lon="-0.19309">
        <ele>2383.4</ele>
        <time>2026-07-15T10:49:00Z</time>
      </trkpt>
      <trkpt lat="42.8733" lon="-0.19309">
        <ele>2383.4</ele>
        <time>2026-07-15T10:49:01Z</time>
      </trkpt>
      <trkpt lat="42.8733" lon="-0.19309">
        <ele>2383.4</ele>
        <time>2026-07-15T10:49:02Z</time>
      </trkpt>
      <trkpt lat="42.8733" lon="-0.19309">
        <ele>2383.4</ele>
        <time>2026-07-15T10:49:03Z</time>
      </trkpt>
      <trkpt lat="42.8733" lon="-0.19309">
        <ele>2383.4</ele>
        <time>2026-07-15T10:49:04Z</time>
      </trkpt>
      <trkpt lat="42.8733" lon="-0.19309">
        <ele>2383.4</ele>
        <time>2026-07-15T10:49:05Z</time>
      </trkpt>
      <trkpt lat="42.8733" lon="-0.19309">
        <ele>2383.4</ele>
        <time>2026-07-15T10:49:06Z</time>
      </trkpt>
      <trkpt lat="42.8733" lon="-0.19309">
        <ele>2383.4</ele>
        <time>2026-07-15T10:49:07Z</time>
      </trkpt>
      <trkpt lat="42.8733" lon="-0.19309">
        <ele>2383.4</ele>
        <time>2026-07-15T10:49:08Z</time>
      </trkpt>
      <trkpt lat="42.8733" lon="-0.19309">
        <ele>2383.4</ele>
        <time>2026-07-15T10:49:09Z</time>
      </trkpt>
      <trkpt lat="42.87331" lon="-0.1931">
        <ele>2383.4</ele>
        <time>2026-07-15T10:49:10Z</time>
      </trkpt>
      <trkpt lat="42.87331" lon="-0.1931">
        <ele>2383.4</ele>
        <time>2026-07-15T10:49:11Z</time>
      </trkpt>
      <trkpt lat="42.87331" lon="-0.1931">
        <ele>2383.4</ele>
        <time>2026-07-15T10:49:12Z</time>
      </trkpt>
      <trkpt lat="42.87331" lon="-0.1931">
        <ele>2383.4</ele>
        <time>2026-07-15T10:49:13Z</time>
      </trkpt>
      <trkpt lat="42.87331" lon="-0.1931">
        <ele>2383.4</ele>
        <time>2026-07-15T10:49:14Z</time>
      </trkpt>
      <trkpt lat="42.87331" lon="-0.1931">
        <ele>2383.4</ele>
        <time>2026-07-15T10:49:15Z</time>
      </trkpt>
      <trkpt lat="42.87331" lon="-0.1931">
        <ele>2383.4</ele>
        <time>2026-07-15T10:49:16Z</time>
      </trkpt>
      <trkpt lat="42.87331" lon="-0.1931">
        <ele>2383.4</ele>
        <time>2026-07-15T10:49:17Z</time>
      </trkpt>
      <trkpt lat="42.87331" lon="-0.1931">
        <ele>2383.4</ele>
        <time>2026-07-15T10:49:18Z</time>
      </trkpt>
      <trkpt lat="42.87331" lon="-0.1931">
        <ele>2383.4</ele>
        <time>2026-07-15T10:49:19Z</time>
      </trkpt>
      <trkpt lat="42.87331" lon="-0.1931">
        <ele>2382.4</ele>
        <time>2026-07-15T10:49:20Z</time>
      </trkpt>
      <trkpt lat="42.87331" lon="-0.1931">
        <ele>2382.4</ele>
        <time>2026-07-15T10:49:21Z</time>
      </trkpt>
      <trkpt lat="42.87331" lon="-0.1931">
        <ele>2382.4</ele>
        <time>2026-07-15T10:49:21Z</time>
      </trkpt>
      <trkpt lat="42.87331" lon="-0.1931">
        <ele>2382.4</ele>
        <time>2026-07-15T10:49:22Z</time>
      </trkpt>
      <trkpt lat="42.87331" lon="-0.1931">
        <ele>2382.4</ele>
        <time>2026-07-15T10:49:23Z</time>
      </trkpt>
      <trkpt lat="42.87331" lon="-0.1931">
        <ele>2382.4</ele>
        <time>2026-07-15T10:49:24Z</time>
      </trkpt>
      <trkpt lat="42.87331" lon="-0.1931">
        <ele>2382.4</ele>
        <time>2026-07-15T10:49:25Z</time>
      </trkpt>
      <trkpt lat="42.87331" lon="-0.1931">
        <ele>2382.4</ele>
        <time>2026-07-15T10:49:26Z</time>
      </trkpt>
      <trkpt lat="42.87331" lon="-0.1931">
        <ele>2381.4</ele>
        <time>2026-07-15T10:49:27Z</time>
      </trkpt>
      <trkpt lat="42.87331" lon="-0.1931">
        <ele>2381.4</ele>
        <time>2026-07-15T10:49:28Z</time>
      </trkpt>
      <trkpt lat="42.87331" lon="-0.1931">
        <ele>2380.4</ele>
        <time>2026-07-15T10:49:29Z</time>
      </trkpt>
      <trkpt lat="42.87331" lon="-0.1931">
        <ele>2380.4</ele>
        <time>2026-07-15T10:49:30Z</time>
      </trkpt>
      <trkpt lat="42.87331" lon="-0.1931">
        <ele>2381.4</ele>
        <time>2026-07-15T10:49:31Z</time>
      </trkpt>
      <trkpt lat="42.87331" lon="-0.1931">
        <ele>2380.4</ele>
        <time>2026-07-15T10:49:32Z</time>
      </trkpt>
      <trkpt lat="42.87331" lon="-0.1931">
        <ele>2380.4</ele>
        <time>2026-07-15T10:49:33Z</time>
      </trkpt>
      <trkpt lat="42.87331" lon="-0.1931">
        <ele>2380.4</ele>
        <time>2026-07-15T10:49:34Z</time>
      </trkpt>
      <trkpt lat="42.87331" lon="-0.1931">
        <ele>2380.4</ele>
        <time>2026-07-15T10:49:35Z</time>
      </trkpt>
      <trkpt lat="42.87331" lon="-0.1931">
        <ele>2378.4</ele>
        <time>2026-07-15T10:49:36Z</time>
      </trkpt>
      <trkpt lat="42.87332" lon="-0.19309">
        <ele>2378.4</ele>
        <time>2026-07-15T10:49:37Z</time>
      </trkpt>
      <trkpt lat="42.87332" lon="-0.19309">
        <ele>2378.4</ele>
        <time>2026-07-15T10:49:38Z</time>
      </trkpt>
      <trkpt lat="42.87332" lon="-0.19309">
        <ele>2380.4</ele>
        <time>2026-07-15T10:49:39Z</time>
      </trkpt>
      <trkpt lat="42.87332" lon="-0.19309">
        <ele>2381.4</ele>
        <time>2026-07-15T10:49:40Z</time>
      </trkpt>
      <trkpt lat="42.87332" lon="-0.19309">
        <ele>2381.4</ele>
        <time>2026-07-15T10:49:41Z</time>
      </trkpt>
      <trkpt lat="42.87332" lon="-0.19309">
        <ele>2381.4</ele>
        <time>2026-07-15T10:49:42Z</time>
      </trkpt>
      <trkpt lat="42.87332" lon="-0.19309">
        <ele>2381.4</ele>
        <time>2026-07-15T10:49:42Z</time>
      </trkpt>
      <trkpt lat="42.87332" lon="-0.19309">
        <ele>2381.4</ele>
        <time>2026-07-15T10:49:43Z</time>
      </trkpt>
      <trkpt lat="42.87333" lon="-0.19309">
        <ele>2381.4</ele>
        <time>2026-07-15T10:49:44Z</time>
      </trkpt>
      <trkpt lat="42.87333" lon="-0.19309">
        <ele>2380.4</ele>
        <time>2026-07-15T10:49:45Z</time>
      </trkpt>
      <trkpt lat="42.87333" lon="-0.19309">
        <ele>2380.4</ele>
        <time>2026-07-15T10:49:46Z</time>
      </trkpt>
      <trkpt lat="42.87334" lon="-0.19309">
        <ele>2380.4</ele>
        <time>2026-07-15T10:49:47Z</time>
      </trkpt>
      <trkpt lat="42.87334" lon="-0.19309">
        <ele>2379.4</ele>
        <time>2026-07-15T10:49:48Z</time>
      </trkpt>
      <trkpt lat="42.87334" lon="-0.19309">
        <ele>2379.4</ele>
        <time>2026-07-15T10:49:49Z</time>
      </trkpt>
      <trkpt lat="42.87334" lon="-0.19309">
        <ele>2379.4</ele>
        <time>2026-07-15T10:49:50Z</time>
      </trkpt>
      <trkpt lat="42.87334" lon="-0.19309">
        <ele>2379.4</ele>
        <time>2026-07-15T10:49:51Z</time>
      </trkpt>
      <trkpt lat="42.87334" lon="-0.19309">
        <ele>2379.4</ele>
        <time>2026-07-15T10:49:52Z</time>
      </trkpt>
      <trkpt lat="42.87334" lon="-0.19309">
        <ele>2379.4</ele>
        <time>2026-07-15T10:49:53Z</time>
      </trkpt>
      <trkpt lat="42.87334" lon="-0.19309">
        <ele>2379.4</ele>
        <time>2026-07-15T10:49:54Z</time>
      </trkpt>
      <trkpt lat="42.87334" lon="-0.1931">
        <ele>2380.4</ele>
        <time>2026-07-15T10:49:55Z</time>
      </trkpt>
      <trkpt lat="42.87334" lon="-0.1931">
        <ele>2380.4</ele>
        <time>2026-07-15T10:49:56Z</time>
      </trkpt>
      <trkpt lat="42.87335" lon="-0.1931">
        <ele>2380.4</ele>
        <time>2026-07-15T10:49:57Z</time>
      </trkpt>
      <trkpt lat="42.87335" lon="-0.1931">
        <ele>2380.4</ele>
        <time>2026-07-15T10:49:58Z</time>
      </trkpt>
      <trkpt lat="42.87335" lon="-0.1931">
        <ele>2380.4</ele>
        <time>2026-07-15T10:49:59Z</time>
      </trkpt>
      <trkpt lat="42.87335" lon="-0.1931">
        <ele>2380.4</ele>
        <time>2026-07-15T10:50:00Z</time>
      </trkpt>
      <trkpt lat="42.87335" lon="-0.1931">
        <ele>2379.4</ele>
        <time>2026-07-15T10:50:01Z</time>
      </trkpt>
      <trkpt lat="42.87335" lon="-0.1931">
        <ele>2379.4</ele>
        <time>2026-07-15T10:50:02Z</time>
      </trkpt>
      <trkpt lat="42.87335" lon="-0.1931">
        <ele>2379.4</ele>
        <time>2026-07-15T10:50:03Z</time>
      </trkpt>
      <trkpt lat="42.87335" lon="-0.19311">
        <ele>2378.4</ele>
        <time>2026-07-15T10:50:03Z</time>
      </trkpt>
      <trkpt lat="42.87335" lon="-0.19311">
        <ele>2378.4</ele>
        <time>2026-07-15T10:50:04Z</time>
      </trkpt>
      <trkpt lat="42.87335" lon="-0.19311">
        <ele>2378.4</ele>
        <time>2026-07-15T10:50:05Z</time>
      </trkpt>
      <trkpt lat="42.87335" lon="-0.19311">
        <ele>2378.4</ele>
        <time>2026-07-15T10:50:06Z</time>
      </trkpt>
      <trkpt lat="42.87335" lon="-0.19311">
        <ele>2378.4</ele>
        <time>2026-07-15T10:50:07Z</time>
      </trkpt>
      <trkpt lat="42.87335" lon="-0.19311">
        <ele>2378.4</ele>
        <time>2026-07-15T10:50:08Z</time>
      </trkpt>
      <trkpt lat="42.87334" lon="-0.19311">
        <ele>2378.4</ele>
        <time>2026-07-15T10:50:09Z</time>
      </trkpt>
      <trkpt lat="42.87334" lon="-0.19311">
        <ele>2378.4</ele>
        <time>2026-07-15T10:50:10Z</time>
      </trkpt>
      <trkpt lat="42.87334" lon="-0.19311">
        <ele>2378.4</ele>
        <time>2026-07-15T10:50:11Z</time>
      </trkpt>
      <trkpt lat="42.87334" lon="-0.19311">
        <ele>2378.4</ele>
        <time>2026-07-15T10:50:12Z</time>
      </trkpt>
      <trkpt lat="42.87334" lon="-0.19311">
        <ele>2378.4</ele>
        <time>2026-07-15T10:50:13Z</time>
      </trkpt>
      <trkpt lat="42.87334" lon="-0.19311">
        <ele>2378.4</ele>
        <time>2026-07-15T10:50:14Z</time>
      </trkpt>
      <trkpt lat="42.87334" lon="-0.19311">
        <ele>2378.4</ele>
        <time>2026-07-15T10:50:15Z</time>
      </trkpt>
      <trkpt lat="42.87334" lon="-0.19311">
        <ele>2378.4</ele>
        <time>2026-07-15T10:50:15Z</time>
      </trkpt>
      <trkpt lat="42.87334" lon="-0.19311">
        <ele>2378.4</ele>
        <time>2026-07-15T10:50:16Z</time>
      </trkpt>
      <trkpt lat="42.87334" lon="-0.19311">
        <ele>2378.4</ele>
        <time>2026-07-15T10:50:17Z</time>
      </trkpt>
      <trkpt lat="42.87334" lon="-0.19311">
        <ele>2378.4</ele>
        <time>2026-07-15T10:50:18Z</time>
      </trkpt>
      <trkpt lat="42.87333" lon="-0.19311">
        <ele>2378.4</ele>
        <time>2026-07-15T10:50:19Z</time>
      </trkpt>
      <trkpt lat="42.87334" lon="-0.19311">
        <ele>2375.4</ele>
        <time>2026-07-15T10:50:20Z</time>
      </trkpt>
      <trkpt lat="42.87334" lon="-0.19311">
        <ele>2374.4</ele>
        <time>2026-07-15T10:50:21Z</time>
      </trkpt>
      <trkpt lat="42.87334" lon="-0.19311">
        <ele>2374.4</ele>
        <time>2026-07-15T10:50:22Z</time>
      </trkpt>
      <trkpt lat="42.87334" lon="-0.1931">
        <ele>2374.4</ele>
        <time>2026-07-15T10:50:23Z</time>
      </trkpt>
      <trkpt lat="42.87334" lon="-0.1931">
        <ele>2374.4</ele>
        <time>2026-07-15T10:50:24Z</time>
      </trkpt>
      <trkpt lat="42.87334" lon="-0.1931">
        <ele>2374.4</ele>
        <time>2026-07-15T10:50:25Z</time>
      </trkpt>
      <trkpt lat="42.87334" lon="-0.19309">
        <ele>2373.4</ele>
        <time>2026-07-15T10:50:25Z</time>
      </trkpt>
      <trkpt lat="42.87334" lon="-0.19309">
        <ele>2373.4</ele>
        <time>2026-07-15T10:50:26Z</time>
      </trkpt>
      <trkpt lat="42.87333" lon="-0.19308">
        <ele>2373.4</ele>
        <time>2026-07-15T10:50:27Z</time>
      </trkpt>
      <trkpt lat="42.87333" lon="-0.19308">
        <ele>2373.4</ele>
        <time>2026-07-15T10:50:28Z</time>
      </trkpt>
      <trkpt lat="42.87333" lon="-0.19307">
        <ele>2372.4</ele>
        <time>2026-07-15T10:50:29Z</time>
      </trkpt>
      <trkpt lat="42.87333" lon="-0.19307">
        <ele>2372.4</ele>
        <time>2026-07-15T10:50:29Z</time>
      </trkpt>
      <trkpt lat="42.87333" lon="-0.19306">
        <ele>2372.4</ele>
        <time>2026-07-15T10:50:30Z</time>
      </trkpt>
      <trkpt lat="42.87333" lon="-0.19305">
        <ele>2371.4</ele>
        <time>2026-07-15T10:50:31Z</time>
      </trkpt>
      <trkpt lat="42.87333" lon="-0.19305">
        <ele>2371.4</ele>
        <time>2026-07-15T10:50:32Z</time>
      </trkpt>
      <trkpt lat="42.87333" lon="-0.19305">
        <ele>2371.4</ele>
        <time>2026-07-15T10:50:32Z</time>
      </trkpt>
      <trkpt lat="42.87333" lon="-0.19305">
        <ele>2371.4</ele>
        <time>2026-07-15T10:50:33Z</time>
      </trkpt>
      <trkpt lat="42.87332" lon="-0.19305">
        <ele>2371.4</ele>
        <time>2026-07-15T10:50:34Z</time>
      </trkpt>
      <trkpt lat="42.87332" lon="-0.19305">
        <ele>2371.4</ele>
        <time>2026-07-15T10:50:35Z</time>
      </trkpt>
      <trkpt lat="42.87332" lon="-0.19305">
        <ele>2371.4</ele>
        <time>2026-07-15T10:50:36Z</time>
      </trkpt>
      <trkpt lat="42.87332" lon="-0.19304">
        <ele>2371.4</ele>
        <time>2026-07-15T10:50:37Z</time>
      </trkpt>
      <trkpt lat="42.87332" lon="-0.19304">
        <ele>2371.4</ele>
        <time>2026-07-15T10:50:38Z</time>
      </trkpt>
      <trkpt lat="42.87332" lon="-0.19304">
        <ele>2371.4</ele>
        <time>2026-07-15T10:50:39Z</time>
      </trkpt>
      <trkpt lat="42.87331" lon="-0.19304">
        <ele>2372.4</ele>
        <time>2026-07-15T10:50:39Z</time>
      </trkpt>
      <trkpt lat="42.87331" lon="-0.19303">
        <ele>2372.4</ele>
        <time>2026-07-15T10:50:40Z</time>
      </trkpt>
      <trkpt lat="42.87331" lon="-0.19303">
        <ele>2372.4</ele>
        <time>2026-07-15T10:50:41Z</time>
      </trkpt>
      <trkpt lat="42.87331" lon="-0.19303">
        <ele>2372.4</ele>
        <time>2026-07-15T10:50:42Z</time>
      </trkpt>
      <trkpt lat="42.87331" lon="-0.19302">
        <ele>2371.4</ele>
        <time>2026-07-15T10:50:43Z</time>
      </trkpt>
      <trkpt lat="42.87331" lon="-0.19301">
        <ele>2371.4</ele>
        <time>2026-07-15T10:50:43Z</time>
      </trkpt>
      <trkpt lat="42.87331" lon="-0.19301">
        <ele>2371.4</ele>
        <time>2026-07-15T10:50:44Z</time>
      </trkpt>
      <trkpt lat="42.87331" lon="-0.193">
        <ele>2371.4</ele>
        <time>2026-07-15T10:50:45Z</time>
      </trkpt>
      <trkpt lat="42.87331" lon="-0.193">
        <ele>2371.4</ele>
        <time>2026-07-15T10:50:46Z</time>
      </trkpt>
      <trkpt lat="42.87331" lon="-0.19299">
        <ele>2370.4</ele>
        <time>2026-07-15T10:50:47Z</time>
      </trkpt>
      <trkpt lat="42.8733" lon="-0.19299">
        <ele>2370.4</ele>
        <time>2026-07-15T10:50:47Z</time>
      </trkpt>
      <trkpt lat="42.8733" lon="-0.19299">
        <ele>2370.4</ele>
        <time>2026-07-15T10:50:48Z</time>
      </trkpt>
      <trkpt lat="42.8733" lon="-0.19299">
        <ele>2371.4</ele>
        <time>2026-07-15T10:50:48Z</time>
      </trkpt>
      <trkpt lat="42.8733" lon="-0.19299">
        <ele>2371.4</ele>
        <time>2026-07-15T10:50:49Z</time>
      </trkpt>
      <trkpt lat="42.8733" lon="-0.19298">
        <ele>2371.4</ele>
        <time>2026-07-15T10:50:50Z</time>
      </trkpt>
      <trkpt lat="42.8733" lon="-0.19298">
        <ele>2371.4</ele>
        <time>2026-07-15T10:50:51Z</time>
      </trkpt>
      <trkpt lat="42.8733" lon="-0.19298">
        <ele>2371.4</ele>
        <time>2026-07-15T10:50:52Z</time>
      </trkpt>
      <trkpt lat="42.8733" lon="-0.19298">
        <ele>2371.4</ele>
        <time>2026-07-15T10:50:53Z</time>
      </trkpt>
      <trkpt lat="42.8733" lon="-0.19298">
        <ele>2371.4</ele>
        <time>2026-07-15T10:50:54Z</time>
      </trkpt>
      <trkpt lat="42.8733" lon="-0.19298">
        <ele>2371.4</ele>
        <time>2026-07-15T10:50:55Z</time>
      </trkpt>
      <trkpt lat="42.8733" lon="-0.19298">
        <ele>2370.4</ele>
        <time>2026-07-15T10:50:56Z</time>
      </trkpt>
      <trkpt lat="42.8733" lon="-0.19298">
        <ele>2370.4</ele>
        <time>2026-07-15T10:50:57Z</time>
      </trkpt>
      <trkpt lat="42.8733" lon="-0.19297">
        <ele>2370.4</ele>
        <time>2026-07-15T10:50:58Z</time>
      </trkpt>
      <trkpt lat="42.8733" lon="-0.19297">
        <ele>2370.4</ele>
        <time>2026-07-15T10:50:59Z</time>
      </trkpt>
      <trkpt lat="42.8733" lon="-0.19297">
        <ele>2370.4</ele>
        <time>2026-07-15T10:51:00Z</time>
      </trkpt>
      <trkpt lat="42.8733" lon="-0.19296">
        <ele>2370.4</ele>
        <time>2026-07-15T10:51:01Z</time>
      </trkpt>
      <trkpt lat="42.8733" lon="-0.19296">
        <ele>2370.4</ele>
        <time>2026-07-15T10:51:02Z</time>
      </trkpt>
      <trkpt lat="42.8733" lon="-0.19295">
        <ele>2370.4</ele>
        <time>2026-07-15T10:51:03Z</time>
      </trkpt>
      <trkpt lat="42.8733" lon="-0.19295">
        <ele>2369.4</ele>
        <time>2026-07-15T10:51:03Z</time>
      </trkpt>
      <trkpt lat="42.8733" lon="-0.19294">
        <ele>2369.4</ele>
        <time>2026-07-15T10:51:04Z</time>
      </trkpt>
      <trkpt lat="42.8733" lon="-0.19293">
        <ele>2369.4</ele>
        <time>2026-07-15T10:51:04Z</time>
      </trkpt>
      <trkpt lat="42.8733" lon="-0.19291">
        <ele>2369.4</ele>
        <time>2026-07-15T10:51:05Z</time>
      </trkpt>
      <trkpt lat="42.8733" lon="-0.19289">
        <ele>2369.4</ele>
        <time>2026-07-15T10:51:06Z</time>
      </trkpt>
      <trkpt lat="42.8733" lon="-0.19288">
        <ele>2368.4</ele>
        <time>2026-07-15T10:51:06Z</time>
      </trkpt>
      <trkpt lat="42.87329" lon="-0.19288">
        <ele>2368.4</ele>
        <time>2026-07-15T10:51:07Z</time>
      </trkpt>
      <trkpt lat="42.87328" lon="-0.19288">
        <ele>2368.4</ele>
        <time>2026-07-15T10:51:08Z</time>
      </trkpt>
      <trkpt lat="42.87328" lon="-0.19288">
        <ele>2368.4</ele>
        <time>2026-07-15T10:51:09Z</time>
      </trkpt>
      <trkpt lat="42.87328" lon="-0.19288">
        <ele>2368.4</ele>
        <time>2026-07-15T10:51:09Z</time>
      </trkpt>
      <trkpt lat="42.87328" lon="-0.19288">
        <ele>2368.4</ele>
        <time>2026-07-15T10:51:10Z</time>
      </trkpt>
      <trkpt lat="42.87328" lon="-0.19289">
        <ele>2368.4</ele>
        <time>2026-07-15T10:51:11Z</time>
      </trkpt>
      <trkpt lat="42.87328" lon="-0.19289">
        <ele>2368.4</ele>
        <time>2026-07-15T10:51:11Z</time>
      </trkpt>
      <trkpt lat="42.87328" lon="-0.19288">
        <ele>2368.4</ele>
        <time>2026-07-15T10:51:12Z</time>
      </trkpt>
      <trkpt lat="42.87327" lon="-0.19287">
        <ele>2369.4</ele>
        <time>2026-07-15T10:51:13Z</time>
      </trkpt>
      <trkpt lat="42.87327" lon="-0.19286">
        <ele>2369.4</ele>
        <time>2026-07-15T10:51:14Z</time>
      </trkpt>
      <trkpt lat="42.87327" lon="-0.19285">
        <ele>2369.4</ele>
        <time>2026-07-15T10:51:15Z</time>
      </trkpt>
      <trkpt lat="42.87327" lon="-0.19284">
        <ele>2369.4</ele>
        <time>2026-07-15T10:51:16Z</time>
      </trkpt>
      <trkpt lat="42.87327" lon="-0.19283">
        <ele>2368.4</ele>
        <time>2026-07-15T10:51:17Z</time>
      </trkpt>
      <trkpt lat="42.87326" lon="-0.19283">
        <ele>2368.4</ele>
        <time>2026-07-15T10:51:18Z</time>
      </trkpt>
      <trkpt lat="42.87326" lon="-0.19283">
        <ele>2368.4</ele>
        <time>2026-07-15T10:51:19Z</time>
      </trkpt>
      <trkpt lat="42.87326" lon="-0.19283">
        <ele>2369.4</ele>
        <time>2026-07-15T10:51:20Z</time>
      </trkpt>
      <trkpt lat="42.87326" lon="-0.19282">
        <ele>2369.4</ele>
        <time>2026-07-15T10:51:20Z</time>
      </trkpt>
      <trkpt lat="42.87325" lon="-0.19282">
        <ele>2368.4</ele>
        <time>2026-07-15T10:51:21Z</time>
      </trkpt>
      <trkpt lat="42.87325" lon="-0.19281">
        <ele>2368.4</ele>
        <time>2026-07-15T10:51:22Z</time>
      </trkpt>
      <trkpt lat="42.87325" lon="-0.1928">
        <ele>2368.4</ele>
        <time>2026-07-15T10:51:23Z</time>
      </trkpt>
      <trkpt lat="42.87324" lon="-0.19279">
        <ele>2368.4</ele>
        <time>2026-07-15T10:51:24Z</time>
      </trkpt>
      <trkpt lat="42.87324" lon="-0.19278">
        <ele>2367.4</ele>
        <time>2026-07-15T10:51:25Z</time>
      </trkpt>
      <trkpt lat="42.87324" lon="-0.19278">
        <ele>2367.4</ele>
        <time>2026-07-15T10:51:25Z</time>
      </trkpt>
      <trkpt lat="42.87324" lon="-0.19277">
        <ele>2368.4</ele>
        <time>2026-07-15T10:51:26Z</time>
      </trkpt>
      <trkpt lat="42.87323" lon="-0.19276">
        <ele>2368.4</ele>
        <time>2026-07-15T10:51:27Z</time>
      </trkpt>
      <trkpt lat="42.87323" lon="-0.19275">
        <ele>2367.4</ele>
        <time>2026-07-15T10:51:28Z</time>
      </trkpt>
      <trkpt lat="42.87323" lon="-0.19275">
        <ele>2367.4</ele>
        <time>2026-07-15T10:51:29Z</time>
      </trkpt>
      <trkpt lat="42.87323" lon="-0.19274">
        <ele>2367.4</ele>
        <time>2026-07-15T10:51:30Z</time>
      </trkpt>
      <trkpt lat="42.87323" lon="-0.19274">
        <ele>2367.4</ele>
        <time>2026-07-15T10:51:30Z</time>
      </trkpt>
      <trkpt lat="42.87323" lon="-0.19274">
        <ele>2367.4</ele>
        <time>2026-07-15T10:51:31Z</time>
      </trkpt>
      <trkpt lat="42.87323" lon="-0.19273">
        <ele>2367.4</ele>
        <time>2026-07-15T10:51:32Z</time>
      </trkpt>
      <trkpt lat="42.87322" lon="-0.19272">
        <ele>2367.4</ele>
        <time>2026-07-15T10:51:32Z</time>
      </trkpt>
      <trkpt lat="42.87322" lon="-0.19272">
        <ele>2367.4</ele>
        <time>2026-07-15T10:51:33Z</time>
      </trkpt>
      <trkpt lat="42.87322" lon="-0.19271">
        <ele>2367.4</ele>
        <time>2026-07-15T10:51:34Z</time>
      </trkpt>
      <trkpt lat="42.87322" lon="-0.19271">
        <ele>2366.4</ele>
        <time>2026-07-15T10:51:35Z</time>
      </trkpt>
      <trkpt lat="42.87322" lon="-0.19272">
        <ele>2366.4</ele>
        <time>2026-07-15T10:51:36Z</time>
      </trkpt>
      <trkpt lat="42.87322" lon="-0.19272">
        <ele>2365.4</ele>
        <time>2026-07-15T10:51:37Z</time>
      </trkpt>
      <trkpt lat="42.87322" lon="-0.19272">
        <ele>2365.4</ele>
        <time>2026-07-15T10:51:38Z</time>
      </trkpt>
      <trkpt lat="42.87322" lon="-0.19272">
        <ele>2365.4</ele>
        <time>2026-07-15T10:51:39Z</time>
      </trkpt>
      <trkpt lat="42.87322" lon="-0.19272">
        <ele>2365.4</ele>
        <time>2026-07-15T10:51:40Z</time>
      </trkpt>
      <trkpt lat="42.87322" lon="-0.19271">
        <ele>2365.4</ele>
        <time>2026-07-15T10:51:41Z</time>
      </trkpt>
      <trkpt lat="42.87322" lon="-0.19271">
        <ele>2365.4</ele>
        <time>2026-07-15T10:51:41Z</time>
      </trkpt>
      <trkpt lat="42.87322" lon="-0.19271">
        <ele>2366.4</ele>
        <time>2026-07-15T10:51:42Z</time>
      </trkpt>
      <trkpt lat="42.87322" lon="-0.1927">
        <ele>2366.4</ele>
        <time>2026-07-15T10:51:43Z</time>
      </trkpt>
      <trkpt lat="42.87322" lon="-0.1927">
        <ele>2366.4</ele>
        <time>2026-07-15T10:51:44Z</time>
      </trkpt>
      <trkpt lat="42.87321" lon="-0.19269">
        <ele>2367.4</ele>
        <time>2026-07-15T10:51:44Z</time>
      </trkpt>
      <trkpt lat="42.87321" lon="-0.19268">
        <ele>2367.4</ele>
        <time>2026-07-15T10:51:45Z</time>
      </trkpt>
      <trkpt lat="42.87321" lon="-0.19268">
        <ele>2366.4</ele>
        <time>2026-07-15T10:51:46Z</time>
      </trkpt>
      <trkpt lat="42.87321" lon="-0.19268">
        <ele>2366.4</ele>
        <time>2026-07-15T10:51:47Z</time>
      </trkpt>
      <trkpt lat="42.87321" lon="-0.19267">
        <ele>2367.4</ele>
        <time>2026-07-15T10:51:48Z</time>
      </trkpt>
      <trkpt lat="42.87321" lon="-0.19266">
        <ele>2366.4</ele>
        <time>2026-07-15T10:51:49Z</time>
      </trkpt>
      <trkpt lat="42.87321" lon="-0.19266">
        <ele>2366.4</ele>
        <time>2026-07-15T10:51:50Z</time>
      </trkpt>
      <trkpt lat="42.87321" lon="-0.19266">
        <ele>2366.4</ele>
        <time>2026-07-15T10:51:51Z</time>
      </trkpt>
      <trkpt lat="42.87321" lon="-0.19266">
        <ele>2366.4</ele>
        <time>2026-07-15T10:51:52Z</time>
      </trkpt>
      <trkpt lat="42.87321" lon="-0.19265">
        <ele>2366.4</ele>
        <time>2026-07-15T10:51:53Z</time>
      </trkpt>
      <trkpt lat="42.8732" lon="-0.19265">
        <ele>2366.4</ele>
        <time>2026-07-15T10:51:54Z</time>
      </trkpt>
      <trkpt lat="42.8732" lon="-0.19265">
        <ele>2366.4</ele>
        <time>2026-07-15T10:51:55Z</time>
      </trkpt>
      <trkpt lat="42.8732" lon="-0.19265">
        <ele>2366.4</ele>
        <time>2026-07-15T10:51:56Z</time>
      </trkpt>
      <trkpt lat="42.8732" lon="-0.19265">
        <ele>2366.4</ele>
        <time>2026-07-15T10:51:57Z</time>
      </trkpt>
      <trkpt lat="42.8732" lon="-0.19265">
        <ele>2366.4</ele>
        <time>2026-07-15T10:51:58Z</time>
      </trkpt>
      <trkpt lat="42.8732" lon="-0.19265">
        <ele>2366.4</ele>
        <time>2026-07-15T10:51:59Z</time>
      </trkpt>
      <trkpt lat="42.8732" lon="-0.19265">
        <ele>2366.4</ele>
        <time>2026-07-15T10:52:00Z</time>
      </trkpt>
      <trkpt lat="42.8732" lon="-0.19265">
        <ele>2366.4</ele>
        <time>2026-07-15T10:52:01Z</time>
      </trkpt>
      <trkpt lat="42.8732" lon="-0.19265">
        <ele>2366.4</ele>
        <time>2026-07-15T10:52:02Z</time>
      </trkpt>
      <trkpt lat="42.8732" lon="-0.19265">
        <ele>2366.4</ele>
        <time>2026-07-15T10:52:03Z</time>
      </trkpt>
      <trkpt lat="42.8732" lon="-0.19265">
        <ele>2366.4</ele>
        <time>2026-07-15T10:52:04Z</time>
      </trkpt>
      <trkpt lat="42.8732" lon="-0.19265">
        <ele>2366.4</ele>
        <time>2026-07-15T10:52:05Z</time>
      </trkpt>
      <trkpt lat="42.8732" lon="-0.19265">
        <ele>2366.4</ele>
        <time>2026-07-15T10:52:06Z</time>
      </trkpt>
      <trkpt lat="42.8732" lon="-0.19265">
        <ele>2366.4</ele>
        <time>2026-07-15T10:52:07Z</time>
      </trkpt>
      <trkpt lat="42.8732" lon="-0.19265">
        <ele>2367.4</ele>
        <time>2026-07-15T10:52:08Z</time>
      </trkpt>
      <trkpt lat="42.8732" lon="-0.19264">
        <ele>2367.4</ele>
        <time>2026-07-15T10:52:09Z</time>
      </trkpt>
      <trkpt lat="42.87319" lon="-0.19264">
        <ele>2367.4</ele>
        <time>2026-07-15T10:52:10Z</time>
      </trkpt>
      <trkpt lat="42.87319" lon="-0.19264">
        <ele>2366.4</ele>
        <time>2026-07-15T10:52:11Z</time>
      </trkpt>
      <trkpt lat="42.87318" lon="-0.19264">
        <ele>2366.4</ele>
        <time>2026-07-15T10:52:11Z</time>
      </trkpt>
      <trkpt lat="42.87318" lon="-0.19264">
        <ele>2366.4</ele>
        <time>2026-07-15T10:52:12Z</time>
      </trkpt>
      <trkpt lat="42.87318" lon="-0.19264">
        <ele>2366.4</ele>
        <time>2026-07-15T10:52:13Z</time>
      </trkpt>
      <trkpt lat="42.87318" lon="-0.19264">
        <ele>2366.4</ele>
        <time>2026-07-15T10:52:13Z</time>
      </trkpt>
      <trkpt lat="42.87318" lon="-0.19264">
        <ele>2366.4</ele>
        <time>2026-07-15T10:52:14Z</time>
      </trkpt>
      <trkpt lat="42.87318" lon="-0.19264">
        <ele>2366.4</ele>
        <time>2026-07-15T10:52:15Z</time>
      </trkpt>
      <trkpt lat="42.87318" lon="-0.19264">
        <ele>2366.4</ele>
        <time>2026-07-15T10:52:16Z</time>
      </trkpt>
      <trkpt lat="42.87318" lon="-0.19264">
        <ele>2366.4</ele>
        <time>2026-07-15T10:52:17Z</time>
      </trkpt>
      <trkpt lat="42.87318" lon="-0.19264">
        <ele>2366.4</ele>
        <time>2026-07-15T10:52:18Z</time>
      </trkpt>
      <trkpt lat="42.87318" lon="-0.19264">
        <ele>2366.4</ele>
        <time>2026-07-15T10:52:19Z</time>
      </trkpt>
      <trkpt lat="42.87318" lon="-0.19264">
        <ele>2366.4</ele>
        <time>2026-07-15T10:52:20Z</time>
      </trkpt>
      <trkpt lat="42.87318" lon="-0.19264">
        <ele>2366.4</ele>
        <time>2026-07-15T10:52:21Z</time>
      </trkpt>
      <trkpt lat="42.87317" lon="-0.19264">
        <ele>2366.4</ele>
        <time>2026-07-15T10:52:22Z</time>
      </trkpt>
      <trkpt lat="42.87317" lon="-0.19264">
        <ele>2366.4</ele>
        <time>2026-07-15T10:52:23Z</time>
      </trkpt>
      <trkpt lat="42.87317" lon="-0.19264">
        <ele>2366.4</ele>
        <time>2026-07-15T10:52:24Z</time>
      </trkpt>
      <trkpt lat="42.87317" lon="-0.19264">
        <ele>2366.4</ele>
        <time>2026-07-15T10:52:25Z</time>
      </trkpt>
      <trkpt lat="42.87317" lon="-0.19264">
        <ele>2366.4</ele>
        <time>2026-07-15T10:52:26Z</time>
      </trkpt>
      <trkpt lat="42.87317" lon="-0.19264">
        <ele>2366.4</ele>
        <time>2026-07-15T10:52:27Z</time>
      </trkpt>
      <trkpt lat="42.87317" lon="-0.19264">
        <ele>2366.4</ele>
        <time>2026-07-15T10:52:28Z</time>
      </trkpt>
      <trkpt lat="42.87317" lon="-0.19264">
        <ele>2366.4</ele>
        <time>2026-07-15T10:52:29Z</time>
      </trkpt>
      <trkpt lat="42.87317" lon="-0.19264">
        <ele>2366.4</ele>
        <time>2026-07-15T10:52:30Z</time>
      </trkpt>
      <trkpt lat="42.87317" lon="-0.19264">
        <ele>2366.4</ele>
        <time>2026-07-15T10:52:31Z</time>
      </trkpt>
      <trkpt lat="42.87317" lon="-0.19264">
        <ele>2366.4</ele>
        <time>2026-07-15T10:52:32Z</time>
      </trkpt>
      <trkpt lat="42.87317" lon="-0.19264">
        <ele>2366.4</ele>
        <time>2026-07-15T10:52:32Z</time>
      </trkpt>
      <trkpt lat="42.87316" lon="-0.19264">
        <ele>2366.4</ele>
        <time>2026-07-15T10:52:33Z</time>
      </trkpt>
      <trkpt lat="42.87316" lon="-0.19264">
        <ele>2366.4</ele>
        <time>2026-07-15T10:52:34Z</time>
      </trkpt>
      <trkpt lat="42.87316" lon="-0.19264">
        <ele>2365.4</ele>
        <time>2026-07-15T10:52:35Z</time>
      </trkpt>
      <trkpt lat="42.87316" lon="-0.19264">
        <ele>2364.4</ele>
        <time>2026-07-15T10:52:36Z</time>
      </trkpt>
      <trkpt lat="42.87314" lon="-0.19263">
        <ele>2365.4</ele>
        <time>2026-07-15T10:52:37Z</time>
      </trkpt>
      <trkpt lat="42.87314" lon="-0.19263">
        <ele>2365.4</ele>
        <time>2026-07-15T10:52:38Z</time>
      </trkpt>
      <trkpt lat="42.87313" lon="-0.19263">
        <ele>2364.4</ele>
        <time>2026-07-15T10:52:38Z</time>
      </trkpt>
      <trkpt lat="42.87312" lon="-0.19263">
        <ele>2364.4</ele>
        <time>2026-07-15T10:52:39Z</time>
      </trkpt>
      <trkpt lat="42.87311" lon="-0.19263">
        <ele>2364.4</ele>
        <time>2026-07-15T10:52:40Z</time>
      </trkpt>
      <trkpt lat="42.8731" lon="-0.19263">
        <ele>2364.4</ele>
        <time>2026-07-15T10:52:41Z</time>
      </trkpt>
      <trkpt lat="42.87309" lon="-0.19262">
        <ele>2365.4</ele>
        <time>2026-07-15T10:52:41Z</time>
      </trkpt>
      <trkpt lat="42.87308" lon="-0.19262">
        <ele>2365.4</ele>
        <time>2026-07-15T10:52:42Z</time>
      </trkpt>
      <trkpt lat="42.87308" lon="-0.19262">
        <ele>2363.4</ele>
        <time>2026-07-15T10:52:42Z</time>
      </trkpt>
      <trkpt lat="42.87307" lon="-0.19262">
        <ele>2363.4</ele>
        <time>2026-07-15T10:52:43Z</time>
      </trkpt>
      <trkpt lat="42.87306" lon="-0.19262">
        <ele>2363.4</ele>
        <time>2026-07-15T10:52:44Z</time>
      </trkpt>
      <trkpt lat="42.87306" lon="-0.19262">
        <ele>2363.4</ele>
        <time>2026-07-15T10:52:45Z</time>
      </trkpt>
      <trkpt lat="42.87306" lon="-0.19262">
        <ele>2363.4</ele>
        <time>2026-07-15T10:52:46Z</time>
      </trkpt>
      <trkpt lat="42.87306" lon="-0.19262">
        <ele>2363.4</ele>
        <time>2026-07-15T10:52:46Z</time>
      </trkpt>
      <trkpt lat="42.87306" lon="-0.19262">
        <ele>2363.4</ele>
        <time>2026-07-15T10:52:47Z</time>
      </trkpt>
      <trkpt lat="42.87305" lon="-0.19262">
        <ele>2363.4</ele>
        <time>2026-07-15T10:52:48Z</time>
      </trkpt>
      <trkpt lat="42.87305" lon="-0.19262">
        <ele>2363.4</ele>
        <time>2026-07-15T10:52:49Z</time>
      </trkpt>
      <trkpt lat="42.87305" lon="-0.19263">
        <ele>2362.4</ele>
        <time>2026-07-15T10:52:49Z</time>
      </trkpt>
      <trkpt lat="42.87304" lon="-0.19263">
        <ele>2363.4</ele>
        <time>2026-07-15T10:52:50Z</time>
      </trkpt>
      <trkpt lat="42.87303" lon="-0.19263">
        <ele>2363.4</ele>
        <time>2026-07-15T10:52:51Z</time>
      </trkpt>
      <trkpt lat="42.87302" lon="-0.19263">
        <ele>2363.4</ele>
        <time>2026-07-15T10:52:52Z</time>
      </trkpt>
      <trkpt lat="42.87302" lon="-0.19263">
        <ele>2363.4</ele>
        <time>2026-07-15T10:52:52Z</time>
      </trkpt>
      <trkpt lat="42.87302" lon="-0.19262">
        <ele>2362.4</ele>
        <time>2026-07-15T10:52:53Z</time>
      </trkpt>
      <trkpt lat="42.87302" lon="-0.19262">
        <ele>2362.4</ele>
        <time>2026-07-15T10:52:54Z</time>
      </trkpt>
      <trkpt lat="42.87302" lon="-0.19261">
        <ele>2362.4</ele>
        <time>2026-07-15T10:52:55Z</time>
      </trkpt>
      <trkpt lat="42.87302" lon="-0.19261">
        <ele>2362.4</ele>
        <time>2026-07-15T10:52:56Z</time>
      </trkpt>
      <trkpt lat="42.87301" lon="-0.19261">
        <ele>2361.4</ele>
        <time>2026-07-15T10:52:57Z</time>
      </trkpt>
      <trkpt lat="42.87301" lon="-0.19261">
        <ele>2361.4</ele>
        <time>2026-07-15T10:52:57Z</time>
      </trkpt>
      <trkpt lat="42.87301" lon="-0.1926">
        <ele>2361.4</ele>
        <time>2026-07-15T10:52:58Z</time>
      </trkpt>
      <trkpt lat="42.87301" lon="-0.1926">
        <ele>2361.4</ele>
        <time>2026-07-15T10:52:59Z</time>
      </trkpt>
      <trkpt lat="42.87301" lon="-0.1926">
        <ele>2361.4</ele>
        <time>2026-07-15T10:52:59Z</time>
      </trkpt>
      <trkpt lat="42.873" lon="-0.1926">
        <ele>2361.4</ele>
        <time>2026-07-15T10:53:00Z</time>
      </trkpt>
      <trkpt lat="42.873" lon="-0.1926">
        <ele>2361.4</ele>
        <time>2026-07-15T10:53:00Z</time>
      </trkpt>
      <trkpt lat="42.873" lon="-0.1926">
        <ele>2360.4</ele>
        <time>2026-07-15T10:53:01Z</time>
      </trkpt>
      <trkpt lat="42.87299" lon="-0.19259">
        <ele>2361.4</ele>
        <time>2026-07-15T10:53:02Z</time>
      </trkpt>
      <trkpt lat="42.87298" lon="-0.19258">
        <ele>2361.4</ele>
        <time>2026-07-15T10:53:03Z</time>
      </trkpt>
      <trkpt lat="42.87298" lon="-0.19257">
        <ele>2360.4</ele>
        <time>2026-07-15T10:53:04Z</time>
      </trkpt>
      <trkpt lat="42.87297" lon="-0.19257">
        <ele>2360.4</ele>
        <time>2026-07-15T10:53:04Z</time>
      </trkpt>
      <trkpt lat="42.87297" lon="-0.19256">
        <ele>2361.4</ele>
        <time>2026-07-15T10:53:05Z</time>
      </trkpt>
      <trkpt lat="42.87297" lon="-0.19256">
        <ele>2361.4</ele>
        <time>2026-07-15T10:53:06Z</time>
      </trkpt>
      <trkpt lat="42.87297" lon="-0.19256">
        <ele>2361.4</ele>
        <time>2026-07-15T10:53:07Z</time>
      </trkpt>
      <trkpt lat="42.87297" lon="-0.19255">
        <ele>2361.4</ele>
        <time>2026-07-15T10:53:07Z</time>
      </trkpt>
      <trkpt lat="42.87297" lon="-0.19256">
        <ele>2361.4</ele>
        <time>2026-07-15T10:53:08Z</time>
      </trkpt>
      <trkpt lat="42.87297" lon="-0.19256">
        <ele>2361.4</ele>
        <time>2026-07-15T10:53:09Z</time>
      </trkpt>
      <trkpt lat="42.87297" lon="-0.19255">
        <ele>2361.4</ele>
        <time>2026-07-15T10:53:10Z</time>
      </trkpt>
      <trkpt lat="42.87296" lon="-0.19254">
        <ele>2362.4</ele>
        <time>2026-07-15T10:53:11Z</time>
      </trkpt>
      <trkpt lat="42.87296" lon="-0.19253">
        <ele>2361.4</ele>
        <time>2026-07-15T10:53:11Z</time>
      </trkpt>
      <trkpt lat="42.87296" lon="-0.19253">
        <ele>2361.4</ele>
        <time>2026-07-15T10:53:12Z</time>
      </trkpt>
      <trkpt lat="42.87296" lon="-0.19252">
        <ele>2361.4</ele>
        <time>2026-07-15T10:53:13Z</time>
      </trkpt>
      <trkpt lat="42.87295" lon="-0.19251">
        <ele>2361.4</ele>
        <time>2026-07-15T10:53:13Z</time>
      </trkpt>
      <trkpt lat="42.87295" lon="-0.19251">
        <ele>2361.4</ele>
        <time>2026-07-15T10:53:14Z</time>
      </trkpt>
      <trkpt lat="42.87295" lon="-0.19251">
        <ele>2361.4</ele>
        <time>2026-07-15T10:53:15Z</time>
      </trkpt>
      <trkpt lat="42.87295" lon="-0.1925">
        <ele>2361.4</ele>
        <time>2026-07-15T10:53:16Z</time>
      </trkpt>
      <trkpt lat="42.87295" lon="-0.1925">
        <ele>2361.4</ele>
        <time>2026-07-15T10:53:17Z</time>
      </trkpt>
      <trkpt lat="42.87295" lon="-0.1925">
        <ele>2360.4</ele>
        <time>2026-07-15T10:53:18Z</time>
      </trkpt>
      <trkpt lat="42.87295" lon="-0.1925">
        <ele>2360.4</ele>
        <time>2026-07-15T10:53:19Z</time>
      </trkpt>
      <trkpt lat="42.87295" lon="-0.19249">
        <ele>2359.4</ele>
        <time>2026-07-15T10:53:19Z</time>
      </trkpt>
      <trkpt lat="42.87295" lon="-0.19249">
        <ele>2359.4</ele>
        <time>2026-07-15T10:53:20Z</time>
      </trkpt>
      <trkpt lat="42.87295" lon="-0.19249">
        <ele>2359.4</ele>
        <time>2026-07-15T10:53:21Z</time>
      </trkpt>
      <trkpt lat="42.87295" lon="-0.19249">
        <ele>2359.4</ele>
        <time>2026-07-15T10:53:22Z</time>
      </trkpt>
      <trkpt lat="42.87295" lon="-0.19248">
        <ele>2359.4</ele>
        <time>2026-07-15T10:53:23Z</time>
      </trkpt>
      <trkpt lat="42.87295" lon="-0.19248">
        <ele>2358.4</ele>
        <time>2026-07-15T10:53:24Z</time>
      </trkpt>
      <trkpt lat="42.87295" lon="-0.19248">
        <ele>2359.4</ele>
        <time>2026-07-15T10:53:24Z</time>
      </trkpt>
      <trkpt lat="42.87294" lon="-0.19248">
        <ele>2359.4</ele>
        <time>2026-07-15T10:53:25Z</time>
      </trkpt>
      <trkpt lat="42.87294" lon="-0.19248">
        <ele>2359.4</ele>
        <time>2026-07-15T10:53:26Z</time>
      </trkpt>
      <trkpt lat="42.87294" lon="-0.19247">
        <ele>2358.4</ele>
        <time>2026-07-15T10:53:27Z</time>
      </trkpt>
      <trkpt lat="42.87293" lon="-0.19246">
        <ele>2358.4</ele>
        <time>2026-07-15T10:53:28Z</time>
      </trkpt>
      <trkpt lat="42.87293" lon="-0.19246">
        <ele>2358.4</ele>
        <time>2026-07-15T10:53:29Z</time>
      </trkpt>
      <trkpt lat="42.87293" lon="-0.19246">
        <ele>2358.4</ele>
        <time>2026-07-15T10:53:30Z</time>
      </trkpt>
      <trkpt lat="42.87293" lon="-0.19246">
        <ele>2358.4</ele>
        <time>2026-07-15T10:53:30Z</time>
      </trkpt>
      <trkpt lat="42.87293" lon="-0.19245">
        <ele>2358.4</ele>
        <time>2026-07-15T10:53:31Z</time>
      </trkpt>
      <trkpt lat="42.87293" lon="-0.19245">
        <ele>2358.4</ele>
        <time>2026-07-15T10:53:32Z</time>
      </trkpt>
      <trkpt lat="42.87293" lon="-0.19244">
        <ele>2358.4</ele>
        <time>2026-07-15T10:53:33Z</time>
      </trkpt>
      <trkpt lat="42.87293" lon="-0.19244">
        <ele>2356.4</ele>
        <time>2026-07-15T10:53:34Z</time>
      </trkpt>
      <trkpt lat="42.87293" lon="-0.19243">
        <ele>2356.4</ele>
        <time>2026-07-15T10:53:34Z</time>
      </trkpt>
      <trkpt lat="42.87294" lon="-0.19242">
        <ele>2356.4</ele>
        <time>2026-07-15T10:53:35Z</time>
      </trkpt>
      <trkpt lat="42.87294" lon="-0.19242">
        <ele>2356.4</ele>
        <time>2026-07-15T10:53:36Z</time>
      </trkpt>
      <trkpt lat="42.87294" lon="-0.1924">
        <ele>2356.4</ele>
        <time>2026-07-15T10:53:37Z</time>
      </trkpt>
      <trkpt lat="42.87294" lon="-0.1924">
        <ele>2356.4</ele>
        <time>2026-07-15T10:53:37Z</time>
      </trkpt>
      <trkpt lat="42.87294" lon="-0.19239">
        <ele>2356.4</ele>
        <time>2026-07-15T10:53:38Z</time>
      </trkpt>
      <trkpt lat="42.87295" lon="-0.19238">
        <ele>2356.4</ele>
        <time>2026-07-15T10:53:39Z</time>
      </trkpt>
      <trkpt lat="42.87295" lon="-0.19237">
        <ele>2356.4</ele>
        <time>2026-07-15T10:53:40Z</time>
      </trkpt>
      <trkpt lat="42.87295" lon="-0.19237">
        <ele>2356.4</ele>
        <time>2026-07-15T10:53:40Z</time>
      </trkpt>
      <trkpt lat="42.87295" lon="-0.19236">
        <ele>2356.4</ele>
        <time>2026-07-15T10:53:41Z</time>
      </trkpt>
      <trkpt lat="42.87295" lon="-0.19235">
        <ele>2356.4</ele>
        <time>2026-07-15T10:53:42Z</time>
      </trkpt>
      <trkpt lat="42.87295" lon="-0.19234">
        <ele>2356.4</ele>
        <time>2026-07-15T10:53:43Z</time>
      </trkpt>
      <trkpt lat="42.87295" lon="-0.19234">
        <ele>2356.4</ele>
        <time>2026-07-15T10:53:44Z</time>
      </trkpt>
      <trkpt lat="42.87296" lon="-0.19233">
        <ele>2356.4</ele>
        <time>2026-07-15T10:53:45Z</time>
      </trkpt>
      <trkpt lat="42.87295" lon="-0.19234">
        <ele>2356.4</ele>
        <time>2026-07-15T10:53:46Z</time>
      </trkpt>
      <trkpt lat="42.87295" lon="-0.19234">
        <ele>2356.4</ele>
        <time>2026-07-15T10:53:47Z</time>
      </trkpt>
      <trkpt lat="42.87295" lon="-0.19234">
        <ele>2356.4</ele>
        <time>2026-07-15T10:53:48Z</time>
      </trkpt>
      <trkpt lat="42.87295" lon="-0.19234">
        <ele>2356.4</ele>
        <time>2026-07-15T10:53:49Z</time>
      </trkpt>
      <trkpt lat="42.87295" lon="-0.19234">
        <ele>2357.4</ele>
        <time>2026-07-15T10:53:50Z</time>
      </trkpt>
      <trkpt lat="42.87295" lon="-0.19234">
        <ele>2357.4</ele>
        <time>2026-07-15T10:53:51Z</time>
      </trkpt>
      <trkpt lat="42.87295" lon="-0.19234">
        <ele>2358.4</ele>
        <time>2026-07-15T10:53:52Z</time>
      </trkpt>
      <trkpt lat="42.87295" lon="-0.19234">
        <ele>2359.4</ele>
        <time>2026-07-15T10:53:53Z</time>
      </trkpt>
      <trkpt lat="42.87295" lon="-0.19234">
        <ele>2359.4</ele>
        <time>2026-07-15T10:53:53Z</time>
      </trkpt>
      <trkpt lat="42.87295" lon="-0.19234">
        <ele>2359.4</ele>
        <time>2026-07-15T10:53:54Z</time>
      </trkpt>
      <trkpt lat="42.87296" lon="-0.19234">
        <ele>2359.4</ele>
        <time>2026-07-15T10:53:55Z</time>
      </trkpt>
      <trkpt lat="42.87296" lon="-0.19234">
        <ele>2359.4</ele>
        <time>2026-07-15T10:53:55Z</time>
      </trkpt>
      <trkpt lat="42.87296" lon="-0.19234">
        <ele>2359.4</ele>
        <time>2026-07-15T10:53:56Z</time>
      </trkpt>
      <trkpt lat="42.87296" lon="-0.19234">
        <ele>2359.4</ele>
        <time>2026-07-15T10:53:57Z</time>
      </trkpt>
      <trkpt lat="42.87296" lon="-0.19234">
        <ele>2360.4</ele>
        <time>2026-07-15T10:53:58Z</time>
      </trkpt>
      <trkpt lat="42.87296" lon="-0.19234">
        <ele>2360.4</ele>
        <time>2026-07-15T10:53:59Z</time>
      </trkpt>
      <trkpt lat="42.87296" lon="-0.19234">
        <ele>2360.4</ele>
        <time>2026-07-15T10:53:59Z</time>
      </trkpt>
      <trkpt lat="42.87296" lon="-0.19234">
        <ele>2360.4</ele>
        <time>2026-07-15T10:54:00Z</time>
      </trkpt>
      <trkpt lat="42.87297" lon="-0.19234">
        <ele>2360.4</ele>
        <time>2026-07-15T10:54:01Z</time>
      </trkpt>
      <trkpt lat="42.87297" lon="-0.19234">
        <ele>2360.4</ele>
        <time>2026-07-15T10:54:01Z</time>
      </trkpt>
      <trkpt lat="42.87297" lon="-0.19234">
        <ele>2360.4</ele>
        <time>2026-07-15T10:54:02Z</time>
      </trkpt>
      <trkpt lat="42.87297" lon="-0.19234">
        <ele>2360.4</ele>
        <time>2026-07-15T10:54:03Z</time>
      </trkpt>
      <trkpt lat="42.87298" lon="-0.19234">
        <ele>2360.4</ele>
        <time>2026-07-15T10:54:04Z</time>
      </trkpt>
      <trkpt lat="42.87298" lon="-0.19234">
        <ele>2359.4</ele>
        <time>2026-07-15T10:54:05Z</time>
      </trkpt>
      <trkpt lat="42.87299" lon="-0.19234">
        <ele>2359.4</ele>
        <time>2026-07-15T10:54:06Z</time>
      </trkpt>
      <trkpt lat="42.87299" lon="-0.19234">
        <ele>2358.4</ele>
        <time>2026-07-15T10:54:07Z</time>
      </trkpt>
      <trkpt lat="42.873" lon="-0.19233">
        <ele>2358.4</ele>
        <time>2026-07-15T10:54:08Z</time>
      </trkpt>
      <trkpt lat="42.873" lon="-0.19233">
        <ele>2358.4</ele>
        <time>2026-07-15T10:54:08Z</time>
      </trkpt>
      <trkpt lat="42.87301" lon="-0.19233">
        <ele>2358.4</ele>
        <time>2026-07-15T10:54:09Z</time>
      </trkpt>
      <trkpt lat="42.87301" lon="-0.19232">
        <ele>2358.4</ele>
        <time>2026-07-15T10:54:10Z</time>
      </trkpt>
      <trkpt lat="42.87301" lon="-0.19232">
        <ele>2358.4</ele>
        <time>2026-07-15T10:54:10Z</time>
      </trkpt>
      <trkpt lat="42.87302" lon="-0.19232">
        <ele>2358.4</ele>
        <time>2026-07-15T10:54:11Z</time>
      </trkpt>
      <trkpt lat="42.87302" lon="-0.19231">
        <ele>2357.4</ele>
        <time>2026-07-15T10:54:12Z</time>
      </trkpt>
      <trkpt lat="42.87303" lon="-0.19231">
        <ele>2357.4</ele>
        <time>2026-07-15T10:54:13Z</time>
      </trkpt>
      <trkpt lat="42.87303" lon="-0.1923">
        <ele>2356.4</ele>
        <time>2026-07-15T10:54:14Z</time>
      </trkpt>
      <trkpt lat="42.87303" lon="-0.19229">
        <ele>2356.4</ele>
        <time>2026-07-15T10:54:15Z</time>
      </trkpt>
      <trkpt lat="42.87303" lon="-0.19228">
        <ele>2356.4</ele>
        <time>2026-07-15T10:54:15Z</time>
      </trkpt>
      <trkpt lat="42.87303" lon="-0.19228">
        <ele>2356.4</ele>
        <time>2026-07-15T10:54:16Z</time>
      </trkpt>
      <trkpt lat="42.87303" lon="-0.19227">
        <ele>2356.4</ele>
        <time>2026-07-15T10:54:17Z</time>
      </trkpt>
      <trkpt lat="42.87304" lon="-0.19227">
        <ele>2356.4</ele>
        <time>2026-07-15T10:54:18Z</time>
      </trkpt>
      <trkpt lat="42.87304" lon="-0.19227">
        <ele>2356.4</ele>
        <time>2026-07-15T10:54:18Z</time>
      </trkpt>
      <trkpt lat="42.87304" lon="-0.19226">
        <ele>2356.4</ele>
        <time>2026-07-15T10:54:19Z</time>
      </trkpt>
      <trkpt lat="42.87305" lon="-0.19226">
        <ele>2356.4</ele>
        <time>2026-07-15T10:54:20Z</time>
      </trkpt>
      <trkpt lat="42.87305" lon="-0.19225">
        <ele>2356.4</ele>
        <time>2026-07-15T10:54:20Z</time>
      </trkpt>
      <trkpt lat="42.87305" lon="-0.19225">
        <ele>2356.4</ele>
        <time>2026-07-15T10:54:21Z</time>
      </trkpt>
      <trkpt lat="42.87306" lon="-0.19224">
        <ele>2356.4</ele>
        <time>2026-07-15T10:54:22Z</time>
      </trkpt>
      <trkpt lat="42.87306" lon="-0.19223">
        <ele>2356.4</ele>
        <time>2026-07-15T10:54:23Z</time>
      </trkpt>
      <trkpt lat="42.87306" lon="-0.19223">
        <ele>2356.4</ele>
        <time>2026-07-15T10:54:24Z</time>
      </trkpt>
      <trkpt lat="42.87307" lon="-0.19222">
        <ele>2356.4</ele>
        <time>2026-07-15T10:54:24Z</time>
      </trkpt>
      <trkpt lat="42.87307" lon="-0.19222">
        <ele>2356.4</ele>
        <time>2026-07-15T10:54:25Z</time>
      </trkpt>
      <trkpt lat="42.87307" lon="-0.19221">
        <ele>2356.4</ele>
        <time>2026-07-15T10:54:26Z</time>
      </trkpt>
      <trkpt lat="42.87307" lon="-0.1922">
        <ele>2356.4</ele>
        <time>2026-07-15T10:54:27Z</time>
      </trkpt>
      <trkpt lat="42.87307" lon="-0.19221">
        <ele>2356.4</ele>
        <time>2026-07-15T10:54:28Z</time>
      </trkpt>
      <trkpt lat="42.87307" lon="-0.19221">
        <ele>2356.4</ele>
        <time>2026-07-15T10:54:29Z</time>
      </trkpt>
      <trkpt lat="42.87307" lon="-0.19221">
        <ele>2356.4</ele>
        <time>2026-07-15T10:54:30Z</time>
      </trkpt>
      <trkpt lat="42.87306" lon="-0.19221">
        <ele>2356.4</ele>
        <time>2026-07-15T10:54:31Z</time>
      </trkpt>
      <trkpt lat="42.87306" lon="-0.19221">
        <ele>2356.4</ele>
        <time>2026-07-15T10:54:32Z</time>
      </trkpt>
      <trkpt lat="42.87306" lon="-0.19221">
        <ele>2356.4</ele>
        <time>2026-07-15T10:54:33Z</time>
      </trkpt>
      <trkpt lat="42.87306" lon="-0.19221">
        <ele>2356.4</ele>
        <time>2026-07-15T10:54:34Z</time>
      </trkpt>
      <trkpt lat="42.87306" lon="-0.19221">
        <ele>2356.4</ele>
        <time>2026-07-15T10:54:35Z</time>
      </trkpt>
      <trkpt lat="42.87306" lon="-0.19221">
        <ele>2356.4</ele>
        <time>2026-07-15T10:54:36Z</time>
      </trkpt>
      <trkpt lat="42.87306" lon="-0.19221">
        <ele>2356.4</ele>
        <time>2026-07-15T10:54:37Z</time>
      </trkpt>
      <trkpt lat="42.87306" lon="-0.19221">
        <ele>2356.4</ele>
        <time>2026-07-15T10:54:38Z</time>
      </trkpt>
      <trkpt lat="42.87306" lon="-0.19221">
        <ele>2356.4</ele>
        <time>2026-07-15T10:54:39Z</time>
      </trkpt>
      <trkpt lat="42.87306" lon="-0.19221">
        <ele>2356.4</ele>
        <time>2026-07-15T10:54:40Z</time>
      </trkpt>
      <trkpt lat="42.87306" lon="-0.19221">
        <ele>2356.4</ele>
        <time>2026-07-15T10:54:41Z</time>
      </trkpt>
      <trkpt lat="42.87306" lon="-0.19221">
        <ele>2356.4</ele>
        <time>2026-07-15T10:54:42Z</time>
      </trkpt>
      <trkpt lat="42.87306" lon="-0.19221">
        <ele>2356.4</ele>
        <time>2026-07-15T10:54:43Z</time>
      </trkpt>
      <trkpt lat="42.87306" lon="-0.19221">
        <ele>2356.4</ele>
        <time>2026-07-15T10:54:44Z</time>
      </trkpt>
      <trkpt lat="42.87306" lon="-0.19221">
        <ele>2356.4</ele>
        <time>2026-07-15T10:54:45Z</time>
      </trkpt>
      <trkpt lat="42.87306" lon="-0.19221">
        <ele>2356.4</ele>
        <time>2026-07-15T10:54:46Z</time>
      </trkpt>
      <trkpt lat="42.87306" lon="-0.19221">
        <ele>2356.4</ele>
        <time>2026-07-15T10:54:47Z</time>
      </trkpt>
      <trkpt lat="42.87306" lon="-0.19221">
        <ele>2356.4</ele>
        <time>2026-07-15T10:54:48Z</time>
      </trkpt>
      <trkpt lat="42.87306" lon="-0.19221">
        <ele>2356.4</ele>
        <time>2026-07-15T10:54:49Z</time>
      </trkpt>
      <trkpt lat="42.87306" lon="-0.19221">
        <ele>2355.4</ele>
        <time>2026-07-15T10:54:50Z</time>
      </trkpt>
      <trkpt lat="42.87306" lon="-0.19221">
        <ele>2355.4</ele>
        <time>2026-07-15T10:54:51Z</time>
      </trkpt>
      <trkpt lat="42.87307" lon="-0.19221">
        <ele>2356.4</ele>
        <time>2026-07-15T10:54:51Z</time>
      </trkpt>
      <trkpt lat="42.87307" lon="-0.1922">
        <ele>2355.4</ele>
        <time>2026-07-15T10:54:52Z</time>
      </trkpt>
      <trkpt lat="42.87308" lon="-0.19219">
        <ele>2355.4</ele>
        <time>2026-07-15T10:54:53Z</time>
      </trkpt>
      <trkpt lat="42.87308" lon="-0.19219">
        <ele>2355.4</ele>
        <time>2026-07-15T10:54:54Z</time>
      </trkpt>
      <trkpt lat="42.8731" lon="-0.19219">
        <ele>2354.4</ele>
        <time>2026-07-15T10:54:55Z</time>
      </trkpt>
      <trkpt lat="42.8731" lon="-0.19219">
        <ele>2353.4</ele>
        <time>2026-07-15T10:54:56Z</time>
      </trkpt>
      <trkpt lat="42.8731" lon="-0.19219">
        <ele>2353.4</ele>
        <time>2026-07-15T10:54:57Z</time>
      </trkpt>
      <trkpt lat="42.8731" lon="-0.19219">
        <ele>2353.4</ele>
        <time>2026-07-15T10:54:57Z</time>
      </trkpt>
      <trkpt lat="42.8731" lon="-0.19218">
        <ele>2353.4</ele>
        <time>2026-07-15T10:54:58Z</time>
      </trkpt>
      <trkpt lat="42.87311" lon="-0.19218">
        <ele>2353.4</ele>
        <time>2026-07-15T10:54:59Z</time>
      </trkpt>
      <trkpt lat="42.87311" lon="-0.19217">
        <ele>2353.4</ele>
        <time>2026-07-15T10:55:00Z</time>
      </trkpt>
      <trkpt lat="42.87312" lon="-0.19217">
        <ele>2353.4</ele>
        <time>2026-07-15T10:55:00Z</time>
      </trkpt>
      <trkpt lat="42.87312" lon="-0.19217">
        <ele>2353.4</ele>
        <time>2026-07-15T10:55:01Z</time>
      </trkpt>
      <trkpt lat="42.87313" lon="-0.19216">
        <ele>2353.4</ele>
        <time>2026-07-15T10:55:02Z</time>
      </trkpt>
      <trkpt lat="42.87314" lon="-0.19216">
        <ele>2352.4</ele>
        <time>2026-07-15T10:55:03Z</time>
      </trkpt>
      <trkpt lat="42.87314" lon="-0.19216">
        <ele>2352.4</ele>
        <time>2026-07-15T10:55:04Z</time>
      </trkpt>
      <trkpt lat="42.87314" lon="-0.19216">
        <ele>2352.4</ele>
        <time>2026-07-15T10:55:05Z</time>
      </trkpt>
      <trkpt lat="42.87314" lon="-0.19215">
        <ele>2352.4</ele>
        <time>2026-07-15T10:55:05Z</time>
      </trkpt>
      <trkpt lat="42.87313" lon="-0.19215">
        <ele>2352.4</ele>
        <time>2026-07-15T10:55:06Z</time>
      </trkpt>
      <trkpt lat="42.87313" lon="-0.19215">
        <ele>2352.4</ele>
        <time>2026-07-15T10:55:06Z</time>
      </trkpt>
      <trkpt lat="42.87313" lon="-0.19214">
        <ele>2352.4</ele>
        <time>2026-07-15T10:55:07Z</time>
      </trkpt>
      <trkpt lat="42.87313" lon="-0.19214">
        <ele>2352.4</ele>
        <time>2026-07-15T10:55:08Z</time>
      </trkpt>
      <trkpt lat="42.87313" lon="-0.19214">
        <ele>2352.4</ele>
        <time>2026-07-15T10:55:09Z</time>
      </trkpt>
      <trkpt lat="42.87313" lon="-0.19214">
        <ele>2352.4</ele>
        <time>2026-07-15T10:55:09Z</time>
      </trkpt>
      <trkpt lat="42.87313" lon="-0.19214">
        <ele>2352.4</ele>
        <time>2026-07-15T10:55:10Z</time>
      </trkpt>
      <trkpt lat="42.87313" lon="-0.19214">
        <ele>2353.4</ele>
        <time>2026-07-15T10:55:11Z</time>
      </trkpt>
      <trkpt lat="42.87313" lon="-0.19214">
        <ele>2352.4</ele>
        <time>2026-07-15T10:55:12Z</time>
      </trkpt>
      <trkpt lat="42.87314" lon="-0.19214">
        <ele>2352.4</ele>
        <time>2026-07-15T10:55:12Z</time>
      </trkpt>
      <trkpt lat="42.87314" lon="-0.19214">
        <ele>2351.4</ele>
        <time>2026-07-15T10:55:13Z</time>
      </trkpt>
      <trkpt lat="42.87314" lon="-0.19214">
        <ele>2351.4</ele>
        <time>2026-07-15T10:55:14Z</time>
      </trkpt>
      <trkpt lat="42.87314" lon="-0.19213">
        <ele>2351.4</ele>
        <time>2026-07-15T10:55:15Z</time>
      </trkpt>
      <trkpt lat="42.87314" lon="-0.19213">
        <ele>2352.4</ele>
        <time>2026-07-15T10:55:16Z</time>
      </trkpt>
      <trkpt lat="42.87315" lon="-0.19213">
        <ele>2351.4</ele>
        <time>2026-07-15T10:55:16Z</time>
      </trkpt>
      <trkpt lat="42.87315" lon="-0.19213">
        <ele>2351.4</ele>
        <time>2026-07-15T10:55:17Z</time>
      </trkpt>
      <trkpt lat="42.87315" lon="-0.19213">
        <ele>2352.4</ele>
        <time>2026-07-15T10:55:17Z</time>
      </trkpt>
      <trkpt lat="42.87315" lon="-0.19213">
        <ele>2352.4</ele>
        <time>2026-07-15T10:55:18Z</time>
      </trkpt>
      <trkpt lat="42.87314" lon="-0.19213">
        <ele>2351.4</ele>
        <time>2026-07-15T10:55:19Z</time>
      </trkpt>
      <trkpt lat="42.87314" lon="-0.19212">
        <ele>2351.4</ele>
        <time>2026-07-15T10:55:20Z</time>
      </trkpt>
      <trkpt lat="42.87314" lon="-0.19212">
        <ele>2351.4</ele>
        <time>2026-07-15T10:55:21Z</time>
      </trkpt>
      <trkpt lat="42.87314" lon="-0.19212">
        <ele>2350.4</ele>
        <time>2026-07-15T10:55:22Z</time>
      </trkpt>
      <trkpt lat="42.87314" lon="-0.19212">
        <ele>2350.4</ele>
        <time>2026-07-15T10:55:22Z</time>
      </trkpt>
      <trkpt lat="42.87313" lon="-0.19212">
        <ele>2350.4</ele>
        <time>2026-07-15T10:55:23Z</time>
      </trkpt>
      <trkpt lat="42.87313" lon="-0.19212">
        <ele>2350.4</ele>
        <time>2026-07-15T10:55:24Z</time>
      </trkpt>
      <trkpt lat="42.87313" lon="-0.19212">
        <ele>2350.4</ele>
        <time>2026-07-15T10:55:25Z</time>
      </trkpt>
      <trkpt lat="42.87313" lon="-0.19212">
        <ele>2350.4</ele>
        <time>2026-07-15T10:55:26Z</time>
      </trkpt>
      <trkpt lat="42.87313" lon="-0.19212">
        <ele>2349.4</ele>
        <time>2026-07-15T10:55:27Z</time>
      </trkpt>
      <trkpt lat="42.87313" lon="-0.19212">
        <ele>2350.4</ele>
        <time>2026-07-15T10:55:28Z</time>
      </trkpt>
      <trkpt lat="42.87313" lon="-0.19212">
        <ele>2350.4</ele>
        <time>2026-07-15T10:55:29Z</time>
      </trkpt>
      <trkpt lat="42.87313" lon="-0.19211">
        <ele>2350.4</ele>
        <time>2026-07-15T10:55:30Z</time>
      </trkpt>
      <trkpt lat="42.87313" lon="-0.19211">
        <ele>2350.4</ele>
        <time>2026-07-15T10:55:31Z</time>
      </trkpt>
      <trkpt lat="42.87313" lon="-0.19211">
        <ele>2350.4</ele>
        <time>2026-07-15T10:55:31Z</time>
      </trkpt>
      <trkpt lat="42.87312" lon="-0.19211">
        <ele>2350.4</ele>
        <time>2026-07-15T10:55:32Z</time>
      </trkpt>
      <trkpt lat="42.87312" lon="-0.19211">
        <ele>2350.4</ele>
        <time>2026-07-15T10:55:33Z</time>
      </trkpt>
      <trkpt lat="42.87312" lon="-0.19211">
        <ele>2349.4</ele>
        <time>2026-07-15T10:55:34Z</time>
      </trkpt>
      <trkpt lat="42.87312" lon="-0.1921">
        <ele>2349.4</ele>
        <time>2026-07-15T10:55:34Z</time>
      </trkpt>
      <trkpt lat="42.87313" lon="-0.1921">
        <ele>2348.4</ele>
        <time>2026-07-15T10:55:35Z</time>
      </trkpt>
      <trkpt lat="42.87313" lon="-0.19209">
        <ele>2349.4</ele>
        <time>2026-07-15T10:55:36Z</time>
      </trkpt>
      <trkpt lat="42.87313" lon="-0.19209">
        <ele>2349.4</ele>
        <time>2026-07-15T10:55:37Z</time>
      </trkpt>
      <trkpt lat="42.87314" lon="-0.19208">
        <ele>2348.4</ele>
        <time>2026-07-15T10:55:37Z</time>
      </trkpt>
      <trkpt lat="42.87314" lon="-0.19208">
        <ele>2348.4</ele>
        <time>2026-07-15T10:55:38Z</time>
      </trkpt>
      <trkpt lat="42.87315" lon="-0.19207">
        <ele>2348.4</ele>
        <time>2026-07-15T10:55:39Z</time>
      </trkpt>
      <trkpt lat="42.87315" lon="-0.19206">
        <ele>2348.4</ele>
        <time>2026-07-15T10:55:40Z</time>
      </trkpt>
      <trkpt lat="42.87316" lon="-0.19206">
        <ele>2348.4</ele>
        <time>2026-07-15T10:55:40Z</time>
      </trkpt>
      <trkpt lat="42.87316" lon="-0.19205">
        <ele>2348.4</ele>
        <time>2026-07-15T10:55:41Z</time>
      </trkpt>
      <trkpt lat="42.87316" lon="-0.19205">
        <ele>2348.4</ele>
        <time>2026-07-15T10:55:42Z</time>
      </trkpt>
      <trkpt lat="42.87316" lon="-0.19204">
        <ele>2349.4</ele>
        <time>2026-07-15T10:55:42Z</time>
      </trkpt>
      <trkpt lat="42.87317" lon="-0.19204">
        <ele>2349.4</ele>
        <time>2026-07-15T10:55:43Z</time>
      </trkpt>
      <trkpt lat="42.87317" lon="-0.19203">
        <ele>2349.4</ele>
        <time>2026-07-15T10:55:44Z</time>
      </trkpt>
      <trkpt lat="42.87318" lon="-0.19203">
        <ele>2349.4</ele>
        <time>2026-07-15T10:55:44Z</time>
      </trkpt>
      <trkpt lat="42.87319" lon="-0.19202">
        <ele>2349.4</ele>
        <time>2026-07-15T10:55:45Z</time>
      </trkpt>
      <trkpt lat="42.87319" lon="-0.19201">
        <ele>2348.4</ele>
        <time>2026-07-15T10:55:46Z</time>
      </trkpt>
      <trkpt lat="42.8732" lon="-0.19201">
        <ele>2349.4</ele>
        <time>2026-07-15T10:55:47Z</time>
      </trkpt>
      <trkpt lat="42.8732" lon="-0.19201">
        <ele>2348.4</ele>
        <time>2026-07-15T10:55:48Z</time>
      </trkpt>
      <trkpt lat="42.8732" lon="-0.19201">
        <ele>2348.4</ele>
        <time>2026-07-15T10:55:49Z</time>
      </trkpt>
      <trkpt lat="42.8732" lon="-0.19201">
        <ele>2349.4</ele>
        <time>2026-07-15T10:55:50Z</time>
      </trkpt>
      <trkpt lat="42.8732" lon="-0.19201">
        <ele>2348.4</ele>
        <time>2026-07-15T10:55:51Z</time>
      </trkpt>
      <trkpt lat="42.8732" lon="-0.19201">
        <ele>2349.4</ele>
        <time>2026-07-15T10:55:52Z</time>
      </trkpt>
      <trkpt lat="42.8732" lon="-0.19201">
        <ele>2349.4</ele>
        <time>2026-07-15T10:55:53Z</time>
      </trkpt>
      <trkpt lat="42.87321" lon="-0.19201">
        <ele>2351.4</ele>
        <time>2026-07-15T10:55:54Z</time>
      </trkpt>
      <trkpt lat="42.87321" lon="-0.19201">
        <ele>2351.4</ele>
        <time>2026-07-15T10:55:55Z</time>
      </trkpt>
      <trkpt lat="42.87321" lon="-0.19201">
        <ele>2351.4</ele>
        <time>2026-07-15T10:55:56Z</time>
      </trkpt>
      <trkpt lat="42.87321" lon="-0.19201">
        <ele>2351.4</ele>
        <time>2026-07-15T10:55:57Z</time>
      </trkpt>
      <trkpt lat="42.87321" lon="-0.19201">
        <ele>2351.4</ele>
        <time>2026-07-15T10:55:58Z</time>
      </trkpt>
      <trkpt lat="42.87321" lon="-0.19201">
        <ele>2351.4</ele>
        <time>2026-07-15T10:55:59Z</time>
      </trkpt>
      <trkpt lat="42.87321" lon="-0.19201">
        <ele>2351.4</ele>
        <time>2026-07-15T10:56:00Z</time>
      </trkpt>
      <trkpt lat="42.87321" lon="-0.19201">
        <ele>2350.4</ele>
        <time>2026-07-15T10:56:00Z</time>
      </trkpt>
      <trkpt lat="42.87321" lon="-0.19201">
        <ele>2350.4</ele>
        <time>2026-07-15T10:56:01Z</time>
      </trkpt>
      <trkpt lat="42.87321" lon="-0.19201">
        <ele>2350.4</ele>
        <time>2026-07-15T10:56:02Z</time>
      </trkpt>
      <trkpt lat="42.87321" lon="-0.19201">
        <ele>2350.4</ele>
        <time>2026-07-15T10:56:03Z</time>
      </trkpt>
      <trkpt lat="42.87321" lon="-0.19201">
        <ele>2351.4</ele>
        <time>2026-07-15T10:56:04Z</time>
      </trkpt>
      <trkpt lat="42.87321" lon="-0.19201">
        <ele>2352.4</ele>
        <time>2026-07-15T10:56:05Z</time>
      </trkpt>
      <trkpt lat="42.87321" lon="-0.19201">
        <ele>2352.4</ele>
        <time>2026-07-15T10:56:06Z</time>
      </trkpt>
      <trkpt lat="42.87321" lon="-0.19201">
        <ele>2352.4</ele>
        <time>2026-07-15T10:56:07Z</time>
      </trkpt>
      <trkpt lat="42.87322" lon="-0.19201">
        <ele>2352.4</ele>
        <time>2026-07-15T10:56:08Z</time>
      </trkpt>
      <trkpt lat="42.87322" lon="-0.19201">
        <ele>2352.4</ele>
        <time>2026-07-15T10:56:09Z</time>
      </trkpt>
      <trkpt lat="42.87322" lon="-0.19201">
        <ele>2350.4</ele>
        <time>2026-07-15T10:56:10Z</time>
      </trkpt>
      <trkpt lat="42.87322" lon="-0.19201">
        <ele>2350.4</ele>
        <time>2026-07-15T10:56:11Z</time>
      </trkpt>
      <trkpt lat="42.87322" lon="-0.19201">
        <ele>2350.4</ele>
        <time>2026-07-15T10:56:12Z</time>
      </trkpt>
      <trkpt lat="42.87321" lon="-0.19201">
        <ele>2349.4</ele>
        <time>2026-07-15T10:56:13Z</time>
      </trkpt>
      <trkpt lat="42.87321" lon="-0.19201">
        <ele>2349.4</ele>
        <time>2026-07-15T10:56:14Z</time>
      </trkpt>
      <trkpt lat="42.87321" lon="-0.19201">
        <ele>2349.4</ele>
        <time>2026-07-15T10:56:15Z</time>
      </trkpt>
      <trkpt lat="42.87322" lon="-0.19201">
        <ele>2349.4</ele>
        <time>2026-07-15T10:56:15Z</time>
      </trkpt>
      <trkpt lat="42.87322" lon="-0.19201">
        <ele>2349.4</ele>
        <time>2026-07-15T10:56:16Z</time>
      </trkpt>
      <trkpt lat="42.87322" lon="-0.19201">
        <ele>2349.4</ele>
        <time>2026-07-15T10:56:17Z</time>
      </trkpt>
      <trkpt lat="42.87322" lon="-0.192">
        <ele>2349.4</ele>
        <time>2026-07-15T10:56:17Z</time>
      </trkpt>
      <trkpt lat="42.87322" lon="-0.192">
        <ele>2349.4</ele>
        <time>2026-07-15T10:56:18Z</time>
      </trkpt>
      <trkpt lat="42.87322" lon="-0.192">
        <ele>2349.4</ele>
        <time>2026-07-15T10:56:19Z</time>
      </trkpt>
      <trkpt lat="42.87322" lon="-0.19199">
        <ele>2348.4</ele>
        <time>2026-07-15T10:56:19Z</time>
      </trkpt>
      <trkpt lat="42.87322" lon="-0.19199">
        <ele>2348.4</ele>
        <time>2026-07-15T10:56:20Z</time>
      </trkpt>
      <trkpt lat="42.87322" lon="-0.19199">
        <ele>2348.4</ele>
        <time>2026-07-15T10:56:21Z</time>
      </trkpt>
      <trkpt lat="42.87323" lon="-0.19199">
        <ele>2348.4</ele>
        <time>2026-07-15T10:56:22Z</time>
      </trkpt>
      <trkpt lat="42.87323" lon="-0.19198">
        <ele>2348.4</ele>
        <time>2026-07-15T10:56:22Z</time>
      </trkpt>
      <trkpt lat="42.87323" lon="-0.19198">
        <ele>2348.4</ele>
        <time>2026-07-15T10:56:23Z</time>
      </trkpt>
      <trkpt lat="42.87324" lon="-0.19198">
        <ele>2349.4</ele>
        <time>2026-07-15T10:56:24Z</time>
      </trkpt>
      <trkpt lat="42.87324" lon="-0.19198">
        <ele>2349.4</ele>
        <time>2026-07-15T10:56:25Z</time>
      </trkpt>
      <trkpt lat="42.87325" lon="-0.19198">
        <ele>2349.4</ele>
        <time>2026-07-15T10:56:26Z</time>
      </trkpt>
      <trkpt lat="42.87325" lon="-0.19197">
        <ele>2349.4</ele>
        <time>2026-07-15T10:56:27Z</time>
      </trkpt>
      <trkpt lat="42.87325" lon="-0.19197">
        <ele>2349.4</ele>
        <time>2026-07-15T10:56:28Z</time>
      </trkpt>
      <trkpt lat="42.87325" lon="-0.19197">
        <ele>2349.4</ele>
        <time>2026-07-15T10:56:28Z</time>
      </trkpt>
      <trkpt lat="42.87325" lon="-0.19197">
        <ele>2349.4</ele>
        <time>2026-07-15T10:56:29Z</time>
      </trkpt>
      <trkpt lat="42.87325" lon="-0.19197">
        <ele>2349.4</ele>
        <time>2026-07-15T10:56:30Z</time>
      </trkpt>
      <trkpt lat="42.87325" lon="-0.19197">
        <ele>2349.4</ele>
        <time>2026-07-15T10:56:31Z</time>
      </trkpt>
      <trkpt lat="42.87326" lon="-0.19197">
        <ele>2349.4</ele>
        <time>2026-07-15T10:56:32Z</time>
      </trkpt>
      <trkpt lat="42.87326" lon="-0.19197">
        <ele>2349.4</ele>
        <time>2026-07-15T10:56:33Z</time>
      </trkpt>
      <trkpt lat="42.87326" lon="-0.19197">
        <ele>2349.4</ele>
        <time>2026-07-15T10:56:34Z</time>
      </trkpt>
      <trkpt lat="42.87326" lon="-0.19197">
        <ele>2349.4</ele>
        <time>2026-07-15T10:56:35Z</time>
      </trkpt>
      <trkpt lat="42.87326" lon="-0.19197">
        <ele>2349.4</ele>
        <time>2026-07-15T10:56:36Z</time>
      </trkpt>
      <trkpt lat="42.87326" lon="-0.19197">
        <ele>2349.4</ele>
        <time>2026-07-15T10:56:37Z</time>
      </trkpt>
      <trkpt lat="42.87326" lon="-0.19197">
        <ele>2349.4</ele>
        <time>2026-07-15T10:56:38Z</time>
      </trkpt>
      <trkpt lat="42.87326" lon="-0.19197">
        <ele>2348.4</ele>
        <time>2026-07-15T10:56:38Z</time>
      </trkpt>
      <trkpt lat="42.87326" lon="-0.19196">
        <ele>2348.4</ele>
        <time>2026-07-15T10:56:39Z</time>
      </trkpt>
      <trkpt lat="42.87326" lon="-0.19196">
        <ele>2348.4</ele>
        <time>2026-07-15T10:56:40Z</time>
      </trkpt>
      <trkpt lat="42.87325" lon="-0.19196">
        <ele>2348.4</ele>
        <time>2026-07-15T10:56:41Z</time>
      </trkpt>
      <trkpt lat="42.87325" lon="-0.19196">
        <ele>2348.4</ele>
        <time>2026-07-15T10:56:42Z</time>
      </trkpt>
      <trkpt lat="42.87325" lon="-0.19195">
        <ele>2347.4</ele>
        <time>2026-07-15T10:56:43Z</time>
      </trkpt>
      <trkpt lat="42.87325" lon="-0.19195">
        <ele>2347.4</ele>
        <time>2026-07-15T10:56:44Z</time>
      </trkpt>
      <trkpt lat="42.87325" lon="-0.19195">
        <ele>2347.4</ele>
        <time>2026-07-15T10:56:44Z</time>
      </trkpt>
      <trkpt lat="42.87325" lon="-0.19194">
        <ele>2347.4</ele>
        <time>2026-07-15T10:56:45Z</time>
      </trkpt>
      <trkpt lat="42.87325" lon="-0.19194">
        <ele>2347.4</ele>
        <time>2026-07-15T10:56:46Z</time>
      </trkpt>
      <trkpt lat="42.87325" lon="-0.19194">
        <ele>2347.4</ele>
        <time>2026-07-15T10:56:46Z</time>
      </trkpt>
      <trkpt lat="42.87326" lon="-0.19193">
        <ele>2347.4</ele>
        <time>2026-07-15T10:56:47Z</time>
      </trkpt>
      <trkpt lat="42.87326" lon="-0.19193">
        <ele>2346.4</ele>
        <time>2026-07-15T10:56:48Z</time>
      </trkpt>
      <trkpt lat="42.87326" lon="-0.19193">
        <ele>2346.4</ele>
        <time>2026-07-15T10:56:48Z</time>
      </trkpt>
      <trkpt lat="42.87326" lon="-0.19192">
        <ele>2346.4</ele>
        <time>2026-07-15T10:56:49Z</time>
      </trkpt>
      <trkpt lat="42.87326" lon="-0.19193">
        <ele>2346.4</ele>
        <time>2026-07-15T10:56:50Z</time>
      </trkpt>
      <trkpt lat="42.87326" lon="-0.19193">
        <ele>2346.4</ele>
        <time>2026-07-15T10:56:51Z</time>
      </trkpt>
      <trkpt lat="42.87325" lon="-0.19192">
        <ele>2346.4</ele>
        <time>2026-07-15T10:56:52Z</time>
      </trkpt>
      <trkpt lat="42.87325" lon="-0.19192">
        <ele>2346.4</ele>
        <time>2026-07-15T10:56:53Z</time>
      </trkpt>
      <trkpt lat="42.87325" lon="-0.19192">
        <ele>2346.4</ele>
        <time>2026-07-15T10:56:54Z</time>
      </trkpt>
      <trkpt lat="42.87325" lon="-0.19192">
        <ele>2346.4</ele>
        <time>2026-07-15T10:56:55Z</time>
      </trkpt>
      <trkpt lat="42.87325" lon="-0.19192">
        <ele>2346.4</ele>
        <time>2026-07-15T10:56:56Z</time>
      </trkpt>
      <trkpt lat="42.87325" lon="-0.19192">
        <ele>2346.4</ele>
        <time>2026-07-15T10:56:57Z</time>
      </trkpt>
      <trkpt lat="42.87325" lon="-0.19192">
        <ele>2346.4</ele>
        <time>2026-07-15T10:56:58Z</time>
      </trkpt>
      <trkpt lat="42.87325" lon="-0.19192">
        <ele>2346.4</ele>
        <time>2026-07-15T10:56:59Z</time>
      </trkpt>
      <trkpt lat="42.87325" lon="-0.19192">
        <ele>2346.4</ele>
        <time>2026-07-15T10:57:00Z</time>
      </trkpt>
      <trkpt lat="42.87325" lon="-0.19192">
        <ele>2346.4</ele>
        <time>2026-07-15T10:57:01Z</time>
      </trkpt>
      <trkpt lat="42.87326" lon="-0.19192">
        <ele>2346.4</ele>
        <time>2026-07-15T10:57:02Z</time>
      </trkpt>
      <trkpt lat="42.87326" lon="-0.19191">
        <ele>2346.4</ele>
        <time>2026-07-15T10:57:03Z</time>
      </trkpt>
      <trkpt lat="42.87326" lon="-0.19191">
        <ele>2346.4</ele>
        <time>2026-07-15T10:57:04Z</time>
      </trkpt>
      <trkpt lat="42.87326" lon="-0.19191">
        <ele>2346.4</ele>
        <time>2026-07-15T10:57:04Z</time>
      </trkpt>
      <trkpt lat="42.87326" lon="-0.19191">
        <ele>2346.4</ele>
        <time>2026-07-15T10:57:05Z</time>
      </trkpt>
      <trkpt lat="42.87326" lon="-0.1919">
        <ele>2346.4</ele>
        <time>2026-07-15T10:57:06Z</time>
      </trkpt>
      <trkpt lat="42.87326" lon="-0.1919">
        <ele>2345.4</ele>
        <time>2026-07-15T10:57:07Z</time>
      </trkpt>
      <trkpt lat="42.87326" lon="-0.1919">
        <ele>2345.4</ele>
        <time>2026-07-15T10:57:08Z</time>
      </trkpt>
      <trkpt lat="42.87326" lon="-0.1919">
        <ele>2345.4</ele>
        <time>2026-07-15T10:57:09Z</time>
      </trkpt>
      <trkpt lat="42.87326" lon="-0.1919">
        <ele>2345.4</ele>
        <time>2026-07-15T10:57:10Z</time>
      </trkpt>
      <trkpt lat="42.87326" lon="-0.1919">
        <ele>2344.4</ele>
        <time>2026-07-15T10:57:11Z</time>
      </trkpt>
      <trkpt lat="42.87326" lon="-0.19189">
        <ele>2345.4</ele>
        <time>2026-07-15T10:57:12Z</time>
      </trkpt>
      <trkpt lat="42.87326" lon="-0.19188">
        <ele>2344.4</ele>
        <time>2026-07-15T10:57:13Z</time>
      </trkpt>
      <trkpt lat="42.87326" lon="-0.19188">
        <ele>2345.4</ele>
        <time>2026-07-15T10:57:14Z</time>
      </trkpt>
      <trkpt lat="42.87326" lon="-0.19187">
        <ele>2345.4</ele>
        <time>2026-07-15T10:57:14Z</time>
      </trkpt>
      <trkpt lat="42.87326" lon="-0.19187">
        <ele>2345.4</ele>
        <time>2026-07-15T10:57:15Z</time>
      </trkpt>
      <trkpt lat="42.87327" lon="-0.19186">
        <ele>2345.4</ele>
        <time>2026-07-15T10:57:16Z</time>
      </trkpt>
      <trkpt lat="42.87327" lon="-0.19185">
        <ele>2345.4</ele>
        <time>2026-07-15T10:57:16Z</time>
      </trkpt>
      <trkpt lat="42.87327" lon="-0.19185">
        <ele>2344.4</ele>
        <time>2026-07-15T10:57:17Z</time>
      </trkpt>
      <trkpt lat="42.87328" lon="-0.19184">
        <ele>2344.4</ele>
        <time>2026-07-15T10:57:18Z</time>
      </trkpt>
      <trkpt lat="42.87328" lon="-0.19183">
        <ele>2344.4</ele>
        <time>2026-07-15T10:57:19Z</time>
      </trkpt>
      <trkpt lat="42.87329" lon="-0.19183">
        <ele>2344.4</ele>
        <time>2026-07-15T10:57:20Z</time>
      </trkpt>
      <trkpt lat="42.87329" lon="-0.19182">
        <ele>2343.4</ele>
        <time>2026-07-15T10:57:20Z</time>
      </trkpt>
      <trkpt lat="42.8733" lon="-0.19182">
        <ele>2343.4</ele>
        <time>2026-07-15T10:57:21Z</time>
      </trkpt>
      <trkpt lat="42.8733" lon="-0.19181">
        <ele>2344.4</ele>
        <time>2026-07-15T10:57:21Z</time>
      </trkpt>
      <trkpt lat="42.87331" lon="-0.19181">
        <ele>2344.4</ele>
        <time>2026-07-15T10:57:22Z</time>
      </trkpt>
      <trkpt lat="42.87332" lon="-0.1918">
        <ele>2344.4</ele>
        <time>2026-07-15T10:57:23Z</time>
      </trkpt>
      <trkpt lat="42.87332" lon="-0.19179">
        <ele>2344.4</ele>
        <time>2026-07-15T10:57:24Z</time>
      </trkpt>
      <trkpt lat="42.87333" lon="-0.19179">
        <ele>2343.4</ele>
        <time>2026-07-15T10:57:24Z</time>
      </trkpt>
      <trkpt lat="42.87333" lon="-0.19178">
        <ele>2344.4</ele>
        <time>2026-07-15T10:57:25Z</time>
      </trkpt>
      <trkpt lat="42.87333" lon="-0.19178">
        <ele>2344.4</ele>
        <time>2026-07-15T10:57:26Z</time>
      </trkpt>
      <trkpt lat="42.87333" lon="-0.19178">
        <ele>2344.4</ele>
        <time>2026-07-15T10:57:27Z</time>
      </trkpt>
      <trkpt lat="42.87334" lon="-0.19178">
        <ele>2343.4</ele>
        <time>2026-07-15T10:57:28Z</time>
      </trkpt>
      <trkpt lat="42.87334" lon="-0.19178">
        <ele>2343.4</ele>
        <time>2026-07-15T10:57:28Z</time>
      </trkpt>
      <trkpt lat="42.87334" lon="-0.19177">
        <ele>2343.4</ele>
        <time>2026-07-15T10:57:29Z</time>
      </trkpt>
      <trkpt lat="42.87334" lon="-0.19177">
        <ele>2343.4</ele>
        <time>2026-07-15T10:57:30Z</time>
      </trkpt>
      <trkpt lat="42.87334" lon="-0.19177">
        <ele>2343.4</ele>
        <time>2026-07-15T10:57:31Z</time>
      </trkpt>
      <trkpt lat="42.87334" lon="-0.19177">
        <ele>2342.4</ele>
        <time>2026-07-15T10:57:32Z</time>
      </trkpt>
      <trkpt lat="42.87335" lon="-0.19177">
        <ele>2342.4</ele>
        <time>2026-07-15T10:57:33Z</time>
      </trkpt>
      <trkpt lat="42.87335" lon="-0.19177">
        <ele>2343.4</ele>
        <time>2026-07-15T10:57:34Z</time>
      </trkpt>
      <trkpt lat="42.87335" lon="-0.19177">
        <ele>2343.4</ele>
        <time>2026-07-15T10:57:35Z</time>
      </trkpt>
      <trkpt lat="42.87335" lon="-0.19177">
        <ele>2343.4</ele>
        <time>2026-07-15T10:57:35Z</time>
      </trkpt>
      <trkpt lat="42.87335" lon="-0.19177">
        <ele>2343.4</ele>
        <time>2026-07-15T10:57:36Z</time>
      </trkpt>
      <trkpt lat="42.87335" lon="-0.19177">
        <ele>2343.4</ele>
        <time>2026-07-15T10:57:37Z</time>
      </trkpt>
      <trkpt lat="42.87336" lon="-0.19177">
        <ele>2342.4</ele>
        <time>2026-07-15T10:57:38Z</time>
      </trkpt>
      <trkpt lat="42.87336" lon="-0.19177">
        <ele>2343.4</ele>
        <time>2026-07-15T10:57:39Z</time>
      </trkpt>
      <trkpt lat="42.87336" lon="-0.19177">
        <ele>2343.4</ele>
        <time>2026-07-15T10:57:40Z</time>
      </trkpt>
      <trkpt lat="42.87336" lon="-0.19176">
        <ele>2343.4</ele>
        <time>2026-07-15T10:57:41Z</time>
      </trkpt>
      <trkpt lat="42.87336" lon="-0.19176">
        <ele>2343.4</ele>
        <time>2026-07-15T10:57:42Z</time>
      </trkpt>
      <trkpt lat="42.87337" lon="-0.19175">
        <ele>2343.4</ele>
        <time>2026-07-15T10:57:43Z</time>
      </trkpt>
      <trkpt lat="42.87337" lon="-0.19174">
        <ele>2343.4</ele>
        <time>2026-07-15T10:57:44Z</time>
      </trkpt>
      <trkpt lat="42.87338" lon="-0.19174">
        <ele>2343.4</ele>
        <time>2026-07-15T10:57:44Z</time>
      </trkpt>
      <trkpt lat="42.87338" lon="-0.19173">
        <ele>2342.4</ele>
        <time>2026-07-15T10:57:45Z</time>
      </trkpt>
      <trkpt lat="42.87339" lon="-0.19173">
        <ele>2342.4</ele>
        <time>2026-07-15T10:57:46Z</time>
      </trkpt>
      <trkpt lat="42.87339" lon="-0.19172">
        <ele>2342.4</ele>
        <time>2026-07-15T10:57:47Z</time>
      </trkpt>
      <trkpt lat="42.87339" lon="-0.19172">
        <ele>2341.4</ele>
        <time>2026-07-15T10:57:48Z</time>
      </trkpt>
      <trkpt lat="42.87339" lon="-0.19172">
        <ele>2342.4</ele>
        <time>2026-07-15T10:57:49Z</time>
      </trkpt>
      <trkpt lat="42.87339" lon="-0.19172">
        <ele>2342.4</ele>
        <time>2026-07-15T10:57:50Z</time>
      </trkpt>
      <trkpt lat="42.87339" lon="-0.19171">
        <ele>2341.4</ele>
        <time>2026-07-15T10:57:51Z</time>
      </trkpt>
      <trkpt lat="42.87339" lon="-0.19171">
        <ele>2341.4</ele>
        <time>2026-07-15T10:57:52Z</time>
      </trkpt>
      <trkpt lat="42.87339" lon="-0.19171">
        <ele>2341.4</ele>
        <time>2026-07-15T10:57:53Z</time>
      </trkpt>
      <trkpt lat="42.8734" lon="-0.1917">
        <ele>2340.4</ele>
        <time>2026-07-15T10:57:54Z</time>
      </trkpt>
      <trkpt lat="42.8734" lon="-0.1917">
        <ele>2340.4</ele>
        <time>2026-07-15T10:57:54Z</time>
      </trkpt>
      <trkpt lat="42.8734" lon="-0.1917">
        <ele>2340.4</ele>
        <time>2026-07-15T10:57:55Z</time>
      </trkpt>
      <trkpt lat="42.87341" lon="-0.19169">
        <ele>2340.4</ele>
        <time>2026-07-15T10:57:56Z</time>
      </trkpt>
      <trkpt lat="42.87341" lon="-0.19169">
        <ele>2340.4</ele>
        <time>2026-07-15T10:57:57Z</time>
      </trkpt>
      <trkpt lat="42.87342" lon="-0.19169">
        <ele>2340.4</ele>
        <time>2026-07-15T10:57:57Z</time>
      </trkpt>
      <trkpt lat="42.87342" lon="-0.19169">
        <ele>2340.4</ele>
        <time>2026-07-15T10:57:58Z</time>
      </trkpt>
      <trkpt lat="42.87343" lon="-0.19169">
        <ele>2340.4</ele>
        <time>2026-07-15T10:57:59Z</time>
      </trkpt>
      <trkpt lat="42.87344" lon="-0.19169">
        <ele>2340.4</ele>
        <time>2026-07-15T10:58:00Z</time>
      </trkpt>
      <trkpt lat="42.87345" lon="-0.19169">
        <ele>2340.4</ele>
        <time>2026-07-15T10:58:01Z</time>
      </trkpt>
      <trkpt lat="42.87346" lon="-0.1917">
        <ele>2340.4</ele>
        <time>2026-07-15T10:58:02Z</time>
      </trkpt>
      <trkpt lat="42.87346" lon="-0.1917">
        <ele>2340.4</ele>
        <time>2026-07-15T10:58:02Z</time>
      </trkpt>
      <trkpt lat="42.87346" lon="-0.1917">
        <ele>2340.4</ele>
        <time>2026-07-15T10:58:03Z</time>
      </trkpt>
      <trkpt lat="42.87346" lon="-0.19169">
        <ele>2340.4</ele>
        <time>2026-07-15T10:58:03Z</time>
      </trkpt>
      <trkpt lat="42.87346" lon="-0.19169">
        <ele>2340.4</ele>
        <time>2026-07-15T10:58:04Z</time>
      </trkpt>
      <trkpt lat="42.87346" lon="-0.19168">
        <ele>2341.4</ele>
        <time>2026-07-15T10:58:05Z</time>
      </trkpt>
      <trkpt lat="42.87346" lon="-0.19168">
        <ele>2340.4</ele>
        <time>2026-07-15T10:58:06Z</time>
      </trkpt>
      <trkpt lat="42.87346" lon="-0.19168">
        <ele>2340.4</ele>
        <time>2026-07-15T10:58:07Z</time>
      </trkpt>
      <trkpt lat="42.87346" lon="-0.19168">
        <ele>2340.4</ele>
        <time>2026-07-15T10:58:07Z</time>
      </trkpt>
      <trkpt lat="42.87346" lon="-0.19168">
        <ele>2340.4</ele>
        <time>2026-07-15T10:58:08Z</time>
      </trkpt>
      <trkpt lat="42.87346" lon="-0.19168">
        <ele>2340.4</ele>
        <time>2026-07-15T10:58:09Z</time>
      </trkpt>
      <trkpt lat="42.87346" lon="-0.19168">
        <ele>2340.4</ele>
        <time>2026-07-15T10:58:10Z</time>
      </trkpt>
      <trkpt lat="42.87346" lon="-0.19168">
        <ele>2340.4</ele>
        <time>2026-07-15T10:58:10Z</time>
      </trkpt>
      <trkpt lat="42.87346" lon="-0.19168">
        <ele>2339.4</ele>
        <time>2026-07-15T10:58:11Z</time>
      </trkpt>
      <trkpt lat="42.87346" lon="-0.19167">
        <ele>2339.4</ele>
        <time>2026-07-15T10:58:12Z</time>
      </trkpt>
      <trkpt lat="42.87346" lon="-0.19167">
        <ele>2339.4</ele>
        <time>2026-07-15T10:58:13Z</time>
      </trkpt>
      <trkpt lat="42.87346" lon="-0.19166">
        <ele>2340.4</ele>
        <time>2026-07-15T10:58:14Z</time>
      </trkpt>
      <trkpt lat="42.87347" lon="-0.19165">
        <ele>2340.4</ele>
        <time>2026-07-15T10:58:15Z</time>
      </trkpt>
      <trkpt lat="42.87348" lon="-0.19165">
        <ele>2340.4</ele>
        <time>2026-07-15T10:58:16Z</time>
      </trkpt>
      <trkpt lat="42.87349" lon="-0.19165">
        <ele>2340.4</ele>
        <time>2026-07-15T10:58:16Z</time>
      </trkpt>
      <trkpt lat="42.87349" lon="-0.19165">
        <ele>2340.4</ele>
        <time>2026-07-15T10:58:17Z</time>
      </trkpt>
      <trkpt lat="42.87349" lon="-0.19164">
        <ele>2340.4</ele>
        <time>2026-07-15T10:58:18Z</time>
      </trkpt>
      <trkpt lat="42.8735" lon="-0.19164">
        <ele>2340.4</ele>
        <time>2026-07-15T10:58:19Z</time>
      </trkpt>
      <trkpt lat="42.8735" lon="-0.19163">
        <ele>2339.4</ele>
        <time>2026-07-15T10:58:20Z</time>
      </trkpt>
      <trkpt lat="42.8735" lon="-0.19163">
        <ele>2339.4</ele>
        <time>2026-07-15T10:58:20Z</time>
      </trkpt>
      <trkpt lat="42.8735" lon="-0.19162">
        <ele>2339.4</ele>
        <time>2026-07-15T10:58:21Z</time>
      </trkpt>
      <trkpt lat="42.8735" lon="-0.19162">
        <ele>2339.4</ele>
        <time>2026-07-15T10:58:22Z</time>
      </trkpt>
      <trkpt lat="42.8735" lon="-0.19161">
        <ele>2338.4</ele>
        <time>2026-07-15T10:58:23Z</time>
      </trkpt>
      <trkpt lat="42.8735" lon="-0.19161">
        <ele>2337.4</ele>
        <time>2026-07-15T10:58:24Z</time>
      </trkpt>
      <trkpt lat="42.8735" lon="-0.19161">
        <ele>2336.4</ele>
        <time>2026-07-15T10:58:25Z</time>
      </trkpt>
      <trkpt lat="42.8735" lon="-0.19161">
        <ele>2336.4</ele>
        <time>2026-07-15T10:58:26Z</time>
      </trkpt>
      <trkpt lat="42.8735" lon="-0.19161">
        <ele>2337.4</ele>
        <time>2026-07-15T10:58:27Z</time>
      </trkpt>
      <trkpt lat="42.8735" lon="-0.19161">
        <ele>2337.4</ele>
        <time>2026-07-15T10:58:28Z</time>
      </trkpt>
      <trkpt lat="42.8735" lon="-0.19161">
        <ele>2337.4</ele>
        <time>2026-07-15T10:58:28Z</time>
      </trkpt>
      <trkpt lat="42.87351" lon="-0.19161">
        <ele>2337.4</ele>
        <time>2026-07-15T10:58:29Z</time>
      </trkpt>
      <trkpt lat="42.87351" lon="-0.19161">
        <ele>2337.4</ele>
        <time>2026-07-15T10:58:30Z</time>
      </trkpt>
      <trkpt lat="42.87351" lon="-0.1916">
        <ele>2337.4</ele>
        <time>2026-07-15T10:58:30Z</time>
      </trkpt>
      <trkpt lat="42.87352" lon="-0.1916">
        <ele>2336.4</ele>
        <time>2026-07-15T10:58:31Z</time>
      </trkpt>
      <trkpt lat="42.87352" lon="-0.1916">
        <ele>2336.4</ele>
        <time>2026-07-15T10:58:32Z</time>
      </trkpt>
      <trkpt lat="42.87352" lon="-0.19159">
        <ele>2336.4</ele>
        <time>2026-07-15T10:58:32Z</time>
      </trkpt>
      <trkpt lat="42.87352" lon="-0.19159">
        <ele>2336.4</ele>
        <time>2026-07-15T10:58:33Z</time>
      </trkpt>
      <trkpt lat="42.87352" lon="-0.19159">
        <ele>2336.4</ele>
        <time>2026-07-15T10:58:34Z</time>
      </trkpt>
      <trkpt lat="42.87352" lon="-0.19159">
        <ele>2336.4</ele>
        <time>2026-07-15T10:58:35Z</time>
      </trkpt>
      <trkpt lat="42.87352" lon="-0.19159">
        <ele>2336.4</ele>
        <time>2026-07-15T10:58:36Z</time>
      </trkpt>
      <trkpt lat="42.87352" lon="-0.19159">
        <ele>2336.4</ele>
        <time>2026-07-15T10:58:37Z</time>
      </trkpt>
      <trkpt lat="42.87352" lon="-0.19158">
        <ele>2336.4</ele>
        <time>2026-07-15T10:58:38Z</time>
      </trkpt>
      <trkpt lat="42.87352" lon="-0.19158">
        <ele>2336.4</ele>
        <time>2026-07-15T10:58:38Z</time>
      </trkpt>
      <trkpt lat="42.87352" lon="-0.19158">
        <ele>2336.4</ele>
        <time>2026-07-15T10:58:39Z</time>
      </trkpt>
      <trkpt lat="42.87352" lon="-0.19158">
        <ele>2336.4</ele>
        <time>2026-07-15T10:58:40Z</time>
      </trkpt>
      <trkpt lat="42.87352" lon="-0.19158">
        <ele>2337.4</ele>
        <time>2026-07-15T10:58:41Z</time>
      </trkpt>
      <trkpt lat="42.87353" lon="-0.19157">
        <ele>2337.4</ele>
        <time>2026-07-15T10:58:42Z</time>
      </trkpt>
      <trkpt lat="42.87353" lon="-0.19157">
        <ele>2337.4</ele>
        <time>2026-07-15T10:58:43Z</time>
      </trkpt>
      <trkpt lat="42.87353" lon="-0.19156">
        <ele>2337.4</ele>
        <time>2026-07-15T10:58:43Z</time>
      </trkpt>
      <trkpt lat="42.87353" lon="-0.19156">
        <ele>2337.4</ele>
        <time>2026-07-15T10:58:44Z</time>
      </trkpt>
      <trkpt lat="42.87353" lon="-0.19156">
        <ele>2337.4</ele>
        <time>2026-07-15T10:58:44Z</time>
      </trkpt>
      <trkpt lat="42.87353" lon="-0.19156">
        <ele>2337.4</ele>
        <time>2026-07-15T10:58:45Z</time>
      </trkpt>
      <trkpt lat="42.87353" lon="-0.19156">
        <ele>2337.4</ele>
        <time>2026-07-15T10:58:45Z</time>
      </trkpt>
      <trkpt lat="42.87354" lon="-0.19156">
        <ele>2337.4</ele>
        <time>2026-07-15T10:58:46Z</time>
      </trkpt>
      <trkpt lat="42.87354" lon="-0.19156">
        <ele>2336.4</ele>
        <time>2026-07-15T10:58:47Z</time>
      </trkpt>
      <trkpt lat="42.87355" lon="-0.19155">
        <ele>2337.4</ele>
        <time>2026-07-15T10:58:47Z</time>
      </trkpt>
      <trkpt lat="42.87355" lon="-0.19155">
        <ele>2336.4</ele>
        <time>2026-07-15T10:58:48Z</time>
      </trkpt>
      <trkpt lat="42.87356" lon="-0.19155">
        <ele>2336.4</ele>
        <time>2026-07-15T10:58:49Z</time>
      </trkpt>
      <trkpt lat="42.87356" lon="-0.19155">
        <ele>2336.4</ele>
        <time>2026-07-15T10:58:50Z</time>
      </trkpt>
      <trkpt lat="42.87357" lon="-0.19155">
        <ele>2336.4</ele>
        <time>2026-07-15T10:58:51Z</time>
      </trkpt>
      <trkpt lat="42.87357" lon="-0.19155">
        <ele>2335.4</ele>
        <time>2026-07-15T10:58:51Z</time>
      </trkpt>
      <trkpt lat="42.87357" lon="-0.19155">
        <ele>2335.4</ele>
        <time>2026-07-15T10:58:52Z</time>
      </trkpt>
      <trkpt lat="42.87357" lon="-0.19155">
        <ele>2335.4</ele>
        <time>2026-07-15T10:58:53Z</time>
      </trkpt>
      <trkpt lat="42.87357" lon="-0.19154">
        <ele>2335.4</ele>
        <time>2026-07-15T10:58:54Z</time>
      </trkpt>
      <trkpt lat="42.87357" lon="-0.19154">
        <ele>2335.4</ele>
        <time>2026-07-15T10:58:55Z</time>
      </trkpt>
      <trkpt lat="42.87357" lon="-0.19154">
        <ele>2335.4</ele>
        <time>2026-07-15T10:58:56Z</time>
      </trkpt>
      <trkpt lat="42.87357" lon="-0.19154">
        <ele>2335.4</ele>
        <time>2026-07-15T10:58:57Z</time>
      </trkpt>
      <trkpt lat="42.87357" lon="-0.19154">
        <ele>2335.4</ele>
        <time>2026-07-15T10:58:58Z</time>
      </trkpt>
      <trkpt lat="42.87357" lon="-0.19154">
        <ele>2335.4</ele>
        <time>2026-07-15T10:58:59Z</time>
      </trkpt>
      <trkpt lat="42.87357" lon="-0.19154">
        <ele>2335.4</ele>
        <time>2026-07-15T10:59:00Z</time>
      </trkpt>
      <trkpt lat="42.87357" lon="-0.19154">
        <ele>2335.4</ele>
        <time>2026-07-15T10:59:01Z</time>
      </trkpt>
      <trkpt lat="42.87357" lon="-0.19154">
        <ele>2335.4</ele>
        <time>2026-07-15T10:59:02Z</time>
      </trkpt>
      <trkpt lat="42.87357" lon="-0.19154">
        <ele>2335.4</ele>
        <time>2026-07-15T10:59:03Z</time>
      </trkpt>
      <trkpt lat="42.87357" lon="-0.19154">
        <ele>2335.4</ele>
        <time>2026-07-15T10:59:03Z</time>
      </trkpt>
      <trkpt lat="42.87357" lon="-0.19154">
        <ele>2335.4</ele>
        <time>2026-07-15T10:59:04Z</time>
      </trkpt>
      <trkpt lat="42.87357" lon="-0.19154">
        <ele>2335.4</ele>
        <time>2026-07-15T10:59:05Z</time>
      </trkpt>
      <trkpt lat="42.87357" lon="-0.19153">
        <ele>2335.4</ele>
        <time>2026-07-15T10:59:06Z</time>
      </trkpt>
      <trkpt lat="42.87358" lon="-0.19152">
        <ele>2335.4</ele>
        <time>2026-07-15T10:59:06Z</time>
      </trkpt>
      <trkpt lat="42.87358" lon="-0.19151">
        <ele>2335.4</ele>
        <time>2026-07-15T10:59:07Z</time>
      </trkpt>
      <trkpt lat="42.87358" lon="-0.19151">
        <ele>2335.4</ele>
        <time>2026-07-15T10:59:08Z</time>
      </trkpt>
      <trkpt lat="42.87358" lon="-0.1915">
        <ele>2335.4</ele>
        <time>2026-07-15T10:59:09Z</time>
      </trkpt>
      <trkpt lat="42.87358" lon="-0.1915">
        <ele>2335.4</ele>
        <time>2026-07-15T10:59:10Z</time>
      </trkpt>
      <trkpt lat="42.87358" lon="-0.19149">
        <ele>2335.4</ele>
        <time>2026-07-15T10:59:10Z</time>
      </trkpt>
      <trkpt lat="42.87358" lon="-0.19149">
        <ele>2335.4</ele>
        <time>2026-07-15T10:59:11Z</time>
      </trkpt>
      <trkpt lat="42.87358" lon="-0.19149">
        <ele>2335.4</ele>
        <time>2026-07-15T10:59:12Z</time>
      </trkpt>
      <trkpt lat="42.87358" lon="-0.19148">
        <ele>2335.4</ele>
        <time>2026-07-15T10:59:13Z</time>
      </trkpt>
      <trkpt lat="42.87359" lon="-0.19148">
        <ele>2336.4</ele>
        <time>2026-07-15T10:59:14Z</time>
      </trkpt>
      <trkpt lat="42.87359" lon="-0.19147">
        <ele>2335.4</ele>
        <time>2026-07-15T10:59:15Z</time>
      </trkpt>
      <trkpt lat="42.87359" lon="-0.19147">
        <ele>2335.4</ele>
        <time>2026-07-15T10:59:16Z</time>
      </trkpt>
      <trkpt lat="42.87359" lon="-0.19147">
        <ele>2335.4</ele>
        <time>2026-07-15T10:59:17Z</time>
      </trkpt>
      <trkpt lat="42.87359" lon="-0.19147">
        <ele>2335.4</ele>
        <time>2026-07-15T10:59:18Z</time>
      </trkpt>
      <trkpt lat="42.87359" lon="-0.19147">
        <ele>2335.4</ele>
        <time>2026-07-15T10:59:18Z</time>
      </trkpt>
      <trkpt lat="42.87359" lon="-0.19147">
        <ele>2335.4</ele>
        <time>2026-07-15T10:59:19Z</time>
      </trkpt>
      <trkpt lat="42.87359" lon="-0.19146">
        <ele>2335.4</ele>
        <time>2026-07-15T10:59:20Z</time>
      </trkpt>
      <trkpt lat="42.87359" lon="-0.19146">
        <ele>2335.4</ele>
        <time>2026-07-15T10:59:21Z</time>
      </trkpt>
      <trkpt lat="42.87359" lon="-0.19146">
        <ele>2335.4</ele>
        <time>2026-07-15T10:59:22Z</time>
      </trkpt>
      <trkpt lat="42.87359" lon="-0.19145">
        <ele>2335.4</ele>
        <time>2026-07-15T10:59:23Z</time>
      </trkpt>
      <trkpt lat="42.87359" lon="-0.19145">
        <ele>2336.4</ele>
        <time>2026-07-15T10:59:24Z</time>
      </trkpt>
      <trkpt lat="42.8736" lon="-0.19144">
        <ele>2335.4</ele>
        <time>2026-07-15T10:59:25Z</time>
      </trkpt>
      <trkpt lat="42.8736" lon="-0.19143">
        <ele>2335.4</ele>
        <time>2026-07-15T10:59:26Z</time>
      </trkpt>
      <trkpt lat="42.8736" lon="-0.19143">
        <ele>2335.4</ele>
        <time>2026-07-15T10:59:27Z</time>
      </trkpt>
      <trkpt lat="42.87361" lon="-0.19143">
        <ele>2335.4</ele>
        <time>2026-07-15T10:59:28Z</time>
      </trkpt>
      <trkpt lat="42.87361" lon="-0.19143">
        <ele>2335.4</ele>
        <time>2026-07-15T10:59:28Z</time>
      </trkpt>
      <trkpt lat="42.87362" lon="-0.19143">
        <ele>2335.4</ele>
        <time>2026-07-15T10:59:29Z</time>
      </trkpt>
      <trkpt lat="42.87362" lon="-0.19143">
        <ele>2335.4</ele>
        <time>2026-07-15T10:59:30Z</time>
      </trkpt>
      <trkpt lat="42.87362" lon="-0.19143">
        <ele>2335.4</ele>
        <time>2026-07-15T10:59:31Z</time>
      </trkpt>
      <trkpt lat="42.87363" lon="-0.19142">
        <ele>2335.4</ele>
        <time>2026-07-15T10:59:32Z</time>
      </trkpt>
      <trkpt lat="42.87363" lon="-0.19141">
        <ele>2335.4</ele>
        <time>2026-07-15T10:59:33Z</time>
      </trkpt>
      <trkpt lat="42.87363" lon="-0.19141">
        <ele>2335.4</ele>
        <time>2026-07-15T10:59:34Z</time>
      </trkpt>
      <trkpt lat="42.87364" lon="-0.19141">
        <ele>2334.4</ele>
        <time>2026-07-15T10:59:35Z</time>
      </trkpt>
      <trkpt lat="42.87363" lon="-0.19141">
        <ele>2334.4</ele>
        <time>2026-07-15T10:59:36Z</time>
      </trkpt>
      <trkpt lat="42.87363" lon="-0.1914">
        <ele>2334.4</ele>
        <time>2026-07-15T10:59:37Z</time>
      </trkpt>
      <trkpt lat="42.87363" lon="-0.1914">
        <ele>2334.4</ele>
        <time>2026-07-15T10:59:38Z</time>
      </trkpt>
      <trkpt lat="42.87364" lon="-0.1914">
        <ele>2335.4</ele>
        <time>2026-07-15T10:59:39Z</time>
      </trkpt>
      <trkpt lat="42.87364" lon="-0.19139">
        <ele>2336.4</ele>
        <time>2026-07-15T10:59:40Z</time>
      </trkpt>
      <trkpt lat="42.87365" lon="-0.19138">
        <ele>2336.4</ele>
        <time>2026-07-15T10:59:41Z</time>
      </trkpt>
      <trkpt lat="42.87365" lon="-0.19138">
        <ele>2336.4</ele>
        <time>2026-07-15T10:59:42Z</time>
      </trkpt>
      <trkpt lat="42.87365" lon="-0.19138">
        <ele>2336.4</ele>
        <time>2026-07-15T10:59:43Z</time>
      </trkpt>
      <trkpt lat="42.87365" lon="-0.19138">
        <ele>2336.4</ele>
        <time>2026-07-15T10:59:44Z</time>
      </trkpt>
      <trkpt lat="42.87365" lon="-0.19138">
        <ele>2336.4</ele>
        <time>2026-07-15T10:59:45Z</time>
      </trkpt>
      <trkpt lat="42.87366" lon="-0.19137">
        <ele>2336.4</ele>
        <time>2026-07-15T10:59:45Z</time>
      </trkpt>
      <trkpt lat="42.87366" lon="-0.19137">
        <ele>2335.4</ele>
        <time>2026-07-15T10:59:46Z</time>
      </trkpt>
      <trkpt lat="42.87366" lon="-0.19137">
        <ele>2335.4</ele>
        <time>2026-07-15T10:59:47Z</time>
      </trkpt>
      <trkpt lat="42.87366" lon="-0.19137">
        <ele>2335.4</ele>
        <time>2026-07-15T10:59:48Z</time>
      </trkpt>
      <trkpt lat="42.87366" lon="-0.19136">
        <ele>2335.4</ele>
        <time>2026-07-15T10:59:49Z</time>
      </trkpt>
      <trkpt lat="42.87366" lon="-0.19136">
        <ele>2335.4</ele>
        <time>2026-07-15T10:59:49Z</time>
      </trkpt>
      <trkpt lat="42.87366" lon="-0.19135">
        <ele>2335.4</ele>
        <time>2026-07-15T10:59:50Z</time>
      </trkpt>
      <trkpt lat="42.87366" lon="-0.19135">
        <ele>2335.4</ele>
        <time>2026-07-15T10:59:51Z</time>
      </trkpt>
      <trkpt lat="42.87367" lon="-0.19134">
        <ele>2335.4</ele>
        <time>2026-07-15T10:59:52Z</time>
      </trkpt>
      <trkpt lat="42.87367" lon="-0.19134">
        <ele>2335.4</ele>
        <time>2026-07-15T10:59:53Z</time>
      </trkpt>
      <trkpt lat="42.87367" lon="-0.19133">
        <ele>2335.4</ele>
        <time>2026-07-15T10:59:53Z</time>
      </trkpt>
      <trkpt lat="42.87368" lon="-0.19132">
        <ele>2335.4</ele>
        <time>2026-07-15T10:59:54Z</time>
      </trkpt>
      <trkpt lat="42.87368" lon="-0.1913">
        <ele>2335.4</ele>
        <time>2026-07-15T10:59:55Z</time>
      </trkpt>
      <trkpt lat="42.87368" lon="-0.1913">
        <ele>2335.4</ele>
        <time>2026-07-15T10:59:56Z</time>
      </trkpt>
      <trkpt lat="42.87369" lon="-0.19129">
        <ele>2335.4</ele>
        <time>2026-07-15T10:59:57Z</time>
      </trkpt>
      <trkpt lat="42.87369" lon="-0.19128">
        <ele>2335.4</ele>
        <time>2026-07-15T10:59:58Z</time>
      </trkpt>
      <trkpt lat="42.87369" lon="-0.19128">
        <ele>2335.4</ele>
        <time>2026-07-15T10:59:59Z</time>
      </trkpt>
      <trkpt lat="42.87369" lon="-0.19128">
        <ele>2335.4</ele>
        <time>2026-07-15T11:00:00Z</time>
      </trkpt>
      <trkpt lat="42.87369" lon="-0.19128">
        <ele>2335.4</ele>
        <time>2026-07-15T11:00:01Z</time>
      </trkpt>
      <trkpt lat="42.87369" lon="-0.19128">
        <ele>2335.4</ele>
        <time>2026-07-15T11:00:02Z</time>
      </trkpt>
      <trkpt lat="42.87369" lon="-0.19128">
        <ele>2335.4</ele>
        <time>2026-07-15T11:00:03Z</time>
      </trkpt>
      <trkpt lat="42.87369" lon="-0.19128">
        <ele>2335.4</ele>
        <time>2026-07-15T11:00:04Z</time>
      </trkpt>
      <trkpt lat="42.87369" lon="-0.19128">
        <ele>2335.4</ele>
        <time>2026-07-15T11:00:05Z</time>
      </trkpt>
      <trkpt lat="42.87369" lon="-0.19128">
        <ele>2335.4</ele>
        <time>2026-07-15T11:00:06Z</time>
      </trkpt>
      <trkpt lat="42.87369" lon="-0.19128">
        <ele>2335.4</ele>
        <time>2026-07-15T11:00:07Z</time>
      </trkpt>
      <trkpt lat="42.87369" lon="-0.19128">
        <ele>2335.4</ele>
        <time>2026-07-15T11:00:08Z</time>
      </trkpt>
      <trkpt lat="42.87369" lon="-0.19128">
        <ele>2335.4</ele>
        <time>2026-07-15T11:00:08Z</time>
      </trkpt>
      <trkpt lat="42.87369" lon="-0.19127">
        <ele>2334.4</ele>
        <time>2026-07-15T11:00:09Z</time>
      </trkpt>
      <trkpt lat="42.87369" lon="-0.19127">
        <ele>2335.4</ele>
        <time>2026-07-15T11:00:09Z</time>
      </trkpt>
      <trkpt lat="42.87369" lon="-0.19127">
        <ele>2334.4</ele>
        <time>2026-07-15T11:00:10Z</time>
      </trkpt>
      <trkpt lat="42.87369" lon="-0.19127">
        <ele>2334.4</ele>
        <time>2026-07-15T11:00:11Z</time>
      </trkpt>
      <trkpt lat="42.87369" lon="-0.19127">
        <ele>2334.4</ele>
        <time>2026-07-15T11:00:12Z</time>
      </trkpt>
      <trkpt lat="42.87368" lon="-0.19127">
        <ele>2334.4</ele>
        <time>2026-07-15T11:00:13Z</time>
      </trkpt>
      <trkpt lat="42.87368" lon="-0.19127">
        <ele>2334.4</ele>
        <time>2026-07-15T11:00:14Z</time>
      </trkpt>
      <trkpt lat="42.87368" lon="-0.19126">
        <ele>2334.4</ele>
        <time>2026-07-15T11:00:15Z</time>
      </trkpt>
      <trkpt lat="42.87368" lon="-0.19126">
        <ele>2334.4</ele>
        <time>2026-07-15T11:00:16Z</time>
      </trkpt>
      <trkpt lat="42.87368" lon="-0.19126">
        <ele>2334.4</ele>
        <time>2026-07-15T11:00:17Z</time>
      </trkpt>
      <trkpt lat="42.87368" lon="-0.19126">
        <ele>2334.4</ele>
        <time>2026-07-15T11:00:18Z</time>
      </trkpt>
      <trkpt lat="42.87368" lon="-0.19127">
        <ele>2334.4</ele>
        <time>2026-07-15T11:00:19Z</time>
      </trkpt>
      <trkpt lat="42.87368" lon="-0.19127">
        <ele>2334.4</ele>
        <time>2026-07-15T11:00:20Z</time>
      </trkpt>
      <trkpt lat="42.87368" lon="-0.19127">
        <ele>2334.4</ele>
        <time>2026-07-15T11:00:20Z</time>
      </trkpt>
      <trkpt lat="42.87368" lon="-0.19126">
        <ele>2334.4</ele>
        <time>2026-07-15T11:00:21Z</time>
      </trkpt>
      <trkpt lat="42.87368" lon="-0.19126">
        <ele>2334.4</ele>
        <time>2026-07-15T11:00:22Z</time>
      </trkpt>
      <trkpt lat="42.87368" lon="-0.19126">
        <ele>2334.4</ele>
        <time>2026-07-15T11:00:22Z</time>
      </trkpt>
      <trkpt lat="42.87368" lon="-0.19126">
        <ele>2334.4</ele>
        <time>2026-07-15T11:00:23Z</time>
      </trkpt>
      <trkpt lat="42.87368" lon="-0.19125">
        <ele>2335.4</ele>
        <time>2026-07-15T11:00:24Z</time>
      </trkpt>
      <trkpt lat="42.87368" lon="-0.19124">
        <ele>2335.4</ele>
        <time>2026-07-15T11:00:25Z</time>
      </trkpt>
      <trkpt lat="42.87368" lon="-0.19123">
        <ele>2335.4</ele>
        <time>2026-07-15T11:00:26Z</time>
      </trkpt>
      <trkpt lat="42.87368" lon="-0.19123">
        <ele>2335.4</ele>
        <time>2026-07-15T11:00:27Z</time>
      </trkpt>
      <trkpt lat="42.87369" lon="-0.19122">
        <ele>2335.4</ele>
        <time>2026-07-15T11:00:28Z</time>
      </trkpt>
      <trkpt lat="42.87369" lon="-0.19121">
        <ele>2335.4</ele>
        <time>2026-07-15T11:00:29Z</time>
      </trkpt>
      <trkpt lat="42.87369" lon="-0.1912">
        <ele>2335.4</ele>
        <time>2026-07-15T11:00:30Z</time>
      </trkpt>
      <trkpt lat="42.8737" lon="-0.19118">
        <ele>2335.4</ele>
        <time>2026-07-15T11:00:31Z</time>
      </trkpt>
      <trkpt lat="42.8737" lon="-0.19118">
        <ele>2334.4</ele>
        <time>2026-07-15T11:00:31Z</time>
      </trkpt>
      <trkpt lat="42.8737" lon="-0.19117">
        <ele>2333.4</ele>
        <time>2026-07-15T11:00:32Z</time>
      </trkpt>
      <trkpt lat="42.8737" lon="-0.19116">
        <ele>2333.4</ele>
        <time>2026-07-15T11:00:33Z</time>
      </trkpt>
      <trkpt lat="42.87369" lon="-0.19115">
        <ele>2332.4</ele>
        <time>2026-07-15T11:00:34Z</time>
      </trkpt>
      <trkpt lat="42.87369" lon="-0.19115">
        <ele>2332.4</ele>
        <time>2026-07-15T11:00:34Z</time>
      </trkpt>
      <trkpt lat="42.87369" lon="-0.19115">
        <ele>2332.4</ele>
        <time>2026-07-15T11:00:35Z</time>
      </trkpt>
      <trkpt lat="42.87369" lon="-0.19114">
        <ele>2333.4</ele>
        <time>2026-07-15T11:00:36Z</time>
      </trkpt>
      <trkpt lat="42.87369" lon="-0.19115">
        <ele>2333.4</ele>
        <time>2026-07-15T11:00:37Z</time>
      </trkpt>
      <trkpt lat="42.87369" lon="-0.19115">
        <ele>2333.4</ele>
        <time>2026-07-15T11:00:38Z</time>
      </trkpt>
      <trkpt lat="42.87369" lon="-0.19115">
        <ele>2333.4</ele>
        <time>2026-07-15T11:00:38Z</time>
      </trkpt>
      <trkpt lat="42.87369" lon="-0.19115">
        <ele>2333.4</ele>
        <time>2026-07-15T11:00:39Z</time>
      </trkpt>
      <trkpt lat="42.87369" lon="-0.19116">
        <ele>2333.4</ele>
        <time>2026-07-15T11:00:40Z</time>
      </trkpt>
      <trkpt lat="42.87369" lon="-0.19116">
        <ele>2333.4</ele>
        <time>2026-07-15T11:00:41Z</time>
      </trkpt>
      <trkpt lat="42.87369" lon="-0.19116">
        <ele>2333.4</ele>
        <time>2026-07-15T11:00:42Z</time>
      </trkpt>
      <trkpt lat="42.87369" lon="-0.19117">
        <ele>2333.4</ele>
        <time>2026-07-15T11:00:43Z</time>
      </trkpt>
      <trkpt lat="42.87369" lon="-0.19117">
        <ele>2333.4</ele>
        <time>2026-07-15T11:00:44Z</time>
      </trkpt>
      <trkpt lat="42.87369" lon="-0.19117">
        <ele>2333.4</ele>
        <time>2026-07-15T11:00:45Z</time>
      </trkpt>
      <trkpt lat="42.87369" lon="-0.19117">
        <ele>2333.4</ele>
        <time>2026-07-15T11:00:46Z</time>
      </trkpt>
      <trkpt lat="42.87369" lon="-0.19117">
        <ele>2333.4</ele>
        <time>2026-07-15T11:00:47Z</time>
      </trkpt>
      <trkpt lat="42.87369" lon="-0.19117">
        <ele>2333.4</ele>
        <time>2026-07-15T11:00:48Z</time>
      </trkpt>
      <trkpt lat="42.87369" lon="-0.19117">
        <ele>2333.4</ele>
        <time>2026-07-15T11:00:49Z</time>
      </trkpt>
      <trkpt lat="42.87368" lon="-0.19117">
        <ele>2333.4</ele>
        <time>2026-07-15T11:00:50Z</time>
      </trkpt>
      <trkpt lat="42.87368" lon="-0.19117">
        <ele>2333.4</ele>
        <time>2026-07-15T11:00:51Z</time>
      </trkpt>
      <trkpt lat="42.87368" lon="-0.19117">
        <ele>2333.4</ele>
        <time>2026-07-15T11:00:52Z</time>
      </trkpt>
      <trkpt lat="42.87368" lon="-0.19117">
        <ele>2333.4</ele>
        <time>2026-07-15T11:00:53Z</time>
      </trkpt>
      <trkpt lat="42.87368" lon="-0.19117">
        <ele>2333.4</ele>
        <time>2026-07-15T11:00:54Z</time>
      </trkpt>
      <trkpt lat="42.87368" lon="-0.19117">
        <ele>2333.4</ele>
        <time>2026-07-15T11:00:55Z</time>
      </trkpt>
      <trkpt lat="42.87368" lon="-0.19117">
        <ele>2333.4</ele>
        <time>2026-07-15T11:00:56Z</time>
      </trkpt>
      <trkpt lat="42.87368" lon="-0.19117">
        <ele>2333.4</ele>
        <time>2026-07-15T11:00:57Z</time>
      </trkpt>
      <trkpt lat="42.87368" lon="-0.19116">
        <ele>2333.4</ele>
        <time>2026-07-15T11:00:58Z</time>
      </trkpt>
      <trkpt lat="42.87368" lon="-0.19116">
        <ele>2333.4</ele>
        <time>2026-07-15T11:00:58Z</time>
      </trkpt>
      <trkpt lat="42.87368" lon="-0.19116">
        <ele>2333.4</ele>
        <time>2026-07-15T11:00:59Z</time>
      </trkpt>
      <trkpt lat="42.87368" lon="-0.19116">
        <ele>2334.4</ele>
        <time>2026-07-15T11:01:00Z</time>
      </trkpt>
      <trkpt lat="42.87368" lon="-0.19116">
        <ele>2334.4</ele>
        <time>2026-07-15T11:01:01Z</time>
      </trkpt>
      <trkpt lat="42.87368" lon="-0.19116">
        <ele>2334.4</ele>
        <time>2026-07-15T11:01:02Z</time>
      </trkpt>
      <trkpt lat="42.87368" lon="-0.19116">
        <ele>2334.4</ele>
        <time>2026-07-15T11:01:03Z</time>
      </trkpt>
      <trkpt lat="42.87368" lon="-0.19117">
        <ele>2334.4</ele>
        <time>2026-07-15T11:01:04Z</time>
      </trkpt>
      <trkpt lat="42.87369" lon="-0.19117">
        <ele>2334.4</ele>
        <time>2026-07-15T11:01:05Z</time>
      </trkpt>
      <trkpt lat="42.87369" lon="-0.19117">
        <ele>2334.4</ele>
        <time>2026-07-15T11:01:06Z</time>
      </trkpt>
      <trkpt lat="42.87369" lon="-0.19117">
        <ele>2334.4</ele>
        <time>2026-07-15T11:01:07Z</time>
      </trkpt>
      <trkpt lat="42.87369" lon="-0.19117">
        <ele>2334.4</ele>
        <time>2026-07-15T11:01:08Z</time>
      </trkpt>
      <trkpt lat="42.87368" lon="-0.19117">
        <ele>2333.4</ele>
        <time>2026-07-15T11:01:09Z</time>
      </trkpt>
      <trkpt lat="42.87368" lon="-0.19117">
        <ele>2333.4</ele>
        <time>2026-07-15T11:01:10Z</time>
      </trkpt>
      <trkpt lat="42.87368" lon="-0.19116">
        <ele>2332.4</ele>
        <time>2026-07-15T11:01:10Z</time>
      </trkpt>
      <trkpt lat="42.87368" lon="-0.19116">
        <ele>2332.4</ele>
        <time>2026-07-15T11:01:11Z</time>
      </trkpt>
      <trkpt lat="42.87368" lon="-0.19116">
        <ele>2331.4</ele>
        <time>2026-07-15T11:01:12Z</time>
      </trkpt>
      <trkpt lat="42.87368" lon="-0.19116">
        <ele>2331.4</ele>
        <time>2026-07-15T11:01:12Z</time>
      </trkpt>
      <trkpt lat="42.87367" lon="-0.19116">
        <ele>2331.4</ele>
        <time>2026-07-15T11:01:13Z</time>
      </trkpt>
      <trkpt lat="42.87367" lon="-0.19115">
        <ele>2331.4</ele>
        <time>2026-07-15T11:01:14Z</time>
      </trkpt>
      <trkpt lat="42.87366" lon="-0.19115">
        <ele>2330.4</ele>
        <time>2026-07-15T11:01:14Z</time>
      </trkpt>
      <trkpt lat="42.87366" lon="-0.19114">
        <ele>2330.4</ele>
        <time>2026-07-15T11:01:15Z</time>
      </trkpt>
      <trkpt lat="42.87364" lon="-0.19114">
        <ele>2330.4</ele>
        <time>2026-07-15T11:01:15Z</time>
      </trkpt>
      <trkpt lat="42.87363" lon="-0.19113">
        <ele>2330.4</ele>
        <time>2026-07-15T11:01:16Z</time>
      </trkpt>
      <trkpt lat="42.87362" lon="-0.19112">
        <ele>2330.4</ele>
        <time>2026-07-15T11:01:17Z</time>
      </trkpt>
      <trkpt lat="42.87361" lon="-0.19111">
        <ele>2330.4</ele>
        <time>2026-07-15T11:01:18Z</time>
      </trkpt>
      <trkpt lat="42.8736" lon="-0.1911">
        <ele>2330.4</ele>
        <time>2026-07-15T11:01:18Z</time>
      </trkpt>
      <trkpt lat="42.87359" lon="-0.19109">
        <ele>2330.4</ele>
        <time>2026-07-15T11:01:19Z</time>
      </trkpt>
      <trkpt lat="42.87359" lon="-0.19108">
        <ele>2330.4</ele>
        <time>2026-07-15T11:01:20Z</time>
      </trkpt>
      <trkpt lat="42.87358" lon="-0.19107">
        <ele>2331.4</ele>
        <time>2026-07-15T11:01:20Z</time>
      </trkpt>
      <trkpt lat="42.87358" lon="-0.19107">
        <ele>2331.4</ele>
        <time>2026-07-15T11:01:21Z</time>
      </trkpt>
      <trkpt lat="42.87357" lon="-0.19106">
        <ele>2331.4</ele>
        <time>2026-07-15T11:01:22Z</time>
      </trkpt>
      <trkpt lat="42.87357" lon="-0.19106">
        <ele>2331.4</ele>
        <time>2026-07-15T11:01:22Z</time>
      </trkpt>
      <trkpt lat="42.87356" lon="-0.19105">
        <ele>2330.4</ele>
        <time>2026-07-15T11:01:23Z</time>
      </trkpt>
      <trkpt lat="42.87356" lon="-0.19105">
        <ele>2330.4</ele>
        <time>2026-07-15T11:01:24Z</time>
      </trkpt>
      <trkpt lat="42.87356" lon="-0.19105">
        <ele>2330.4</ele>
        <time>2026-07-15T11:01:25Z</time>
      </trkpt>
      <trkpt lat="42.87356" lon="-0.19105">
        <ele>2330.4</ele>
        <time>2026-07-15T11:01:26Z</time>
      </trkpt>
      <trkpt lat="42.87356" lon="-0.19105">
        <ele>2329.4</ele>
        <time>2026-07-15T11:01:26Z</time>
      </trkpt>
      <trkpt lat="42.87356" lon="-0.19105">
        <ele>2330.4</ele>
        <time>2026-07-15T11:01:27Z</time>
      </trkpt>
      <trkpt lat="42.87356" lon="-0.19105">
        <ele>2330.4</ele>
        <time>2026-07-15T11:01:28Z</time>
      </trkpt>
      <trkpt lat="42.87356" lon="-0.19105">
        <ele>2330.4</ele>
        <time>2026-07-15T11:01:29Z</time>
      </trkpt>
      <trkpt lat="42.87356" lon="-0.19104">
        <ele>2330.4</ele>
        <time>2026-07-15T11:01:30Z</time>
      </trkpt>
      <trkpt lat="42.87356" lon="-0.19105">
        <ele>2330.4</ele>
        <time>2026-07-15T11:01:30Z</time>
      </trkpt>
      <trkpt lat="42.87356" lon="-0.19104">
        <ele>2328.4</ele>
        <time>2026-07-15T11:01:31Z</time>
      </trkpt>
      <trkpt lat="42.87356" lon="-0.19104">
        <ele>2328.4</ele>
        <time>2026-07-15T11:01:32Z</time>
      </trkpt>
      <trkpt lat="42.87356" lon="-0.19104">
        <ele>2329.4</ele>
        <time>2026-07-15T11:01:32Z</time>
      </trkpt>
      <trkpt lat="42.87356" lon="-0.19104">
        <ele>2329.4</ele>
        <time>2026-07-15T11:01:33Z</time>
      </trkpt>
      <trkpt lat="42.87356" lon="-0.19101">
        <ele>2330.4</ele>
        <time>2026-07-15T11:01:34Z</time>
      </trkpt>
      <trkpt lat="42.87357" lon="-0.191">
        <ele>2330.4</ele>
        <time>2026-07-15T11:01:35Z</time>
      </trkpt>
      <trkpt lat="42.87357" lon="-0.19099">
        <ele>2330.4</ele>
        <time>2026-07-15T11:01:35Z</time>
      </trkpt>
      <trkpt lat="42.87357" lon="-0.19098">
        <ele>2330.4</ele>
        <time>2026-07-15T11:01:36Z</time>
      </trkpt>
      <trkpt lat="42.87357" lon="-0.19098">
        <ele>2330.4</ele>
        <time>2026-07-15T11:01:37Z</time>
      </trkpt>
      <trkpt lat="42.87357" lon="-0.19097">
        <ele>2329.4</ele>
        <time>2026-07-15T11:01:37Z</time>
      </trkpt>
      <trkpt lat="42.87357" lon="-0.19096">
        <ele>2330.4</ele>
        <time>2026-07-15T11:01:38Z</time>
      </trkpt>
      <trkpt lat="42.87357" lon="-0.19095">
        <ele>2330.4</ele>
        <time>2026-07-15T11:01:39Z</time>
      </trkpt>
      <trkpt lat="42.87356" lon="-0.19094">
        <ele>2330.4</ele>
        <time>2026-07-15T11:01:39Z</time>
      </trkpt>
      <trkpt lat="42.87356" lon="-0.19094">
        <ele>2330.4</ele>
        <time>2026-07-15T11:01:40Z</time>
      </trkpt>
      <trkpt lat="42.87356" lon="-0.19094">
        <ele>2329.4</ele>
        <time>2026-07-15T11:01:40Z</time>
      </trkpt>
      <trkpt lat="42.87355" lon="-0.19094">
        <ele>2329.4</ele>
        <time>2026-07-15T11:01:41Z</time>
      </trkpt>
      <trkpt lat="42.87355" lon="-0.19094">
        <ele>2329.4</ele>
        <time>2026-07-15T11:01:42Z</time>
      </trkpt>
      <trkpt lat="42.87355" lon="-0.19095">
        <ele>2329.4</ele>
        <time>2026-07-15T11:01:43Z</time>
      </trkpt>
      <trkpt lat="42.87355" lon="-0.19094">
        <ele>2329.4</ele>
        <time>2026-07-15T11:01:44Z</time>
      </trkpt>
      <trkpt lat="42.87355" lon="-0.19094">
        <ele>2329.4</ele>
        <time>2026-07-15T11:01:45Z</time>
      </trkpt>
      <trkpt lat="42.87355" lon="-0.19094">
        <ele>2329.4</ele>
        <time>2026-07-15T11:01:46Z</time>
      </trkpt>
      <trkpt lat="42.87355" lon="-0.19093">
        <ele>2329.4</ele>
        <time>2026-07-15T11:01:47Z</time>
      </trkpt>
      <trkpt lat="42.87355" lon="-0.19093">
        <ele>2329.4</ele>
        <time>2026-07-15T11:01:47Z</time>
      </trkpt>
      <trkpt lat="42.87354" lon="-0.19092">
        <ele>2329.4</ele>
        <time>2026-07-15T11:01:48Z</time>
      </trkpt>
      <trkpt lat="42.87354" lon="-0.19092">
        <ele>2330.4</ele>
        <time>2026-07-15T11:01:49Z</time>
      </trkpt>
      <trkpt lat="42.87354" lon="-0.19091">
        <ele>2330.4</ele>
        <time>2026-07-15T11:01:50Z</time>
      </trkpt>
      <trkpt lat="42.87354" lon="-0.19091">
        <ele>2330.4</ele>
        <time>2026-07-15T11:01:51Z</time>
      </trkpt>
      <trkpt lat="42.87354" lon="-0.1909">
        <ele>2330.4</ele>
        <time>2026-07-15T11:01:52Z</time>
      </trkpt>
      <trkpt lat="42.87354" lon="-0.1909">
        <ele>2330.4</ele>
        <time>2026-07-15T11:01:53Z</time>
      </trkpt>
      <trkpt lat="42.87354" lon="-0.19089">
        <ele>2330.4</ele>
        <time>2026-07-15T11:01:54Z</time>
      </trkpt>
      <trkpt lat="42.87354" lon="-0.19089">
        <ele>2330.4</ele>
        <time>2026-07-15T11:01:55Z</time>
      </trkpt>
      <trkpt lat="42.87354" lon="-0.19089">
        <ele>2329.4</ele>
        <time>2026-07-15T11:01:55Z</time>
      </trkpt>
      <trkpt lat="42.87354" lon="-0.19089">
        <ele>2329.4</ele>
        <time>2026-07-15T11:01:56Z</time>
      </trkpt>
      <trkpt lat="42.87354" lon="-0.19089">
        <ele>2329.4</ele>
        <time>2026-07-15T11:01:56Z</time>
      </trkpt>
      <trkpt lat="42.87353" lon="-0.19089">
        <ele>2329.4</ele>
        <time>2026-07-15T11:01:57Z</time>
      </trkpt>
      <trkpt lat="42.87353" lon="-0.19089">
        <ele>2330.4</ele>
        <time>2026-07-15T11:01:57Z</time>
      </trkpt>
      <trkpt lat="42.87353" lon="-0.19088">
        <ele>2329.4</ele>
        <time>2026-07-15T11:01:58Z</time>
      </trkpt>
      <trkpt lat="42.87353" lon="-0.19088">
        <ele>2329.4</ele>
        <time>2026-07-15T11:01:59Z</time>
      </trkpt>
      <trkpt lat="42.87353" lon="-0.19088">
        <ele>2329.4</ele>
        <time>2026-07-15T11:02:00Z</time>
      </trkpt>
      <trkpt lat="42.87353" lon="-0.19088">
        <ele>2329.4</ele>
        <time>2026-07-15T11:02:01Z</time>
      </trkpt>
      <trkpt lat="42.87353" lon="-0.19087">
        <ele>2328.4</ele>
        <time>2026-07-15T11:02:02Z</time>
      </trkpt>
      <trkpt lat="42.87352" lon="-0.19087">
        <ele>2328.4</ele>
        <time>2026-07-15T11:02:03Z</time>
      </trkpt>
      <trkpt lat="42.87352" lon="-0.19087">
        <ele>2329.4</ele>
        <time>2026-07-15T11:02:03Z</time>
      </trkpt>
      <trkpt lat="42.87352" lon="-0.19087">
        <ele>2329.4</ele>
        <time>2026-07-15T11:02:04Z</time>
      </trkpt>
      <trkpt lat="42.87352" lon="-0.19087">
        <ele>2330.4</ele>
        <time>2026-07-15T11:02:05Z</time>
      </trkpt>
      <trkpt lat="42.87352" lon="-0.19087">
        <ele>2330.4</ele>
        <time>2026-07-15T11:02:06Z</time>
      </trkpt>
      <trkpt lat="42.87352" lon="-0.19087">
        <ele>2330.4</ele>
        <time>2026-07-15T11:02:06Z</time>
      </trkpt>
      <trkpt lat="42.87352" lon="-0.19087">
        <ele>2330.4</ele>
        <time>2026-07-15T11:02:07Z</time>
      </trkpt>
      <trkpt lat="42.87351" lon="-0.19086">
        <ele>2330.4</ele>
        <time>2026-07-15T11:02:08Z</time>
      </trkpt>
      <trkpt lat="42.87351" lon="-0.19086">
        <ele>2330.4</ele>
        <time>2026-07-15T11:02:09Z</time>
      </trkpt>
      <trkpt lat="42.87351" lon="-0.19086">
        <ele>2330.4</ele>
        <time>2026-07-15T11:02:09Z</time>
      </trkpt>
      <trkpt lat="42.87351" lon="-0.19086">
        <ele>2330.4</ele>
        <time>2026-07-15T11:02:10Z</time>
      </trkpt>
      <trkpt lat="42.87351" lon="-0.19085">
        <ele>2330.4</ele>
        <time>2026-07-15T11:02:10Z</time>
      </trkpt>
      <trkpt lat="42.87351" lon="-0.19085">
        <ele>2330.4</ele>
        <time>2026-07-15T11:02:11Z</time>
      </trkpt>
      <trkpt lat="42.87351" lon="-0.19084">
        <ele>2330.4</ele>
        <time>2026-07-15T11:02:12Z</time>
      </trkpt>
      <trkpt lat="42.87351" lon="-0.19083">
        <ele>2330.4</ele>
        <time>2026-07-15T11:02:13Z</time>
      </trkpt>
      <trkpt lat="42.87351" lon="-0.19083">
        <ele>2330.4</ele>
        <time>2026-07-15T11:02:14Z</time>
      </trkpt>
      <trkpt lat="42.87351" lon="-0.19082">
        <ele>2330.4</ele>
        <time>2026-07-15T11:02:15Z</time>
      </trkpt>
      <trkpt lat="42.87351" lon="-0.19082">
        <ele>2330.4</ele>
        <time>2026-07-15T11:02:16Z</time>
      </trkpt>
      <trkpt lat="42.87351" lon="-0.19081">
        <ele>2332.4</ele>
        <time>2026-07-15T11:02:16Z</time>
      </trkpt>
      <trkpt lat="42.87351" lon="-0.19081">
        <ele>2332.4</ele>
        <time>2026-07-15T11:02:17Z</time>
      </trkpt>
      <trkpt lat="42.87351" lon="-0.19081">
        <ele>2332.4</ele>
        <time>2026-07-15T11:02:18Z</time>
      </trkpt>
      <trkpt lat="42.87351" lon="-0.1908">
        <ele>2332.4</ele>
        <time>2026-07-15T11:02:19Z</time>
      </trkpt>
      <trkpt lat="42.87351" lon="-0.1908">
        <ele>2332.4</ele>
        <time>2026-07-15T11:02:19Z</time>
      </trkpt>
      <trkpt lat="42.87351" lon="-0.1908">
        <ele>2332.4</ele>
        <time>2026-07-15T11:02:20Z</time>
      </trkpt>
      <trkpt lat="42.8735" lon="-0.1908">
        <ele>2332.4</ele>
        <time>2026-07-15T11:02:21Z</time>
      </trkpt>
      <trkpt lat="42.8735" lon="-0.19079">
        <ele>2332.4</ele>
        <time>2026-07-15T11:02:21Z</time>
      </trkpt>
      <trkpt lat="42.8735" lon="-0.19079">
        <ele>2333.4</ele>
        <time>2026-07-15T11:02:22Z</time>
      </trkpt>
      <trkpt lat="42.8735" lon="-0.19079">
        <ele>2333.4</ele>
        <time>2026-07-15T11:02:23Z</time>
      </trkpt>
      <trkpt lat="42.8735" lon="-0.19078">
        <ele>2333.4</ele>
        <time>2026-07-15T11:02:24Z</time>
      </trkpt>
      <trkpt lat="42.8735" lon="-0.19078">
        <ele>2333.4</ele>
        <time>2026-07-15T11:02:25Z</time>
      </trkpt>
      <trkpt lat="42.8735" lon="-0.19077">
        <ele>2333.4</ele>
        <time>2026-07-15T11:02:26Z</time>
      </trkpt>
      <trkpt lat="42.8735" lon="-0.19076">
        <ele>2333.4</ele>
        <time>2026-07-15T11:02:26Z</time>
      </trkpt>
      <trkpt lat="42.8735" lon="-0.19076">
        <ele>2333.4</ele>
        <time>2026-07-15T11:02:27Z</time>
      </trkpt>
      <trkpt lat="42.8735" lon="-0.19075">
        <ele>2334.4</ele>
        <time>2026-07-15T11:02:28Z</time>
      </trkpt>
      <trkpt lat="42.8735" lon="-0.19074">
        <ele>2334.4</ele>
        <time>2026-07-15T11:02:29Z</time>
      </trkpt>
      <trkpt lat="42.8735" lon="-0.19074">
        <ele>2334.4</ele>
        <time>2026-07-15T11:02:30Z</time>
      </trkpt>
      <trkpt lat="42.87351" lon="-0.19073">
        <ele>2335.4</ele>
        <time>2026-07-15T11:02:31Z</time>
      </trkpt>
      <trkpt lat="42.87351" lon="-0.19073">
        <ele>2335.4</ele>
        <time>2026-07-15T11:02:32Z</time>
      </trkpt>
      <trkpt lat="42.87351" lon="-0.19072">
        <ele>2336.4</ele>
        <time>2026-07-15T11:02:33Z</time>
      </trkpt>
      <trkpt lat="42.87351" lon="-0.19071">
        <ele>2335.4</ele>
        <time>2026-07-15T11:02:34Z</time>
      </trkpt>
      <trkpt lat="42.87351" lon="-0.1907">
        <ele>2336.4</ele>
        <time>2026-07-15T11:02:35Z</time>
      </trkpt>
      <trkpt lat="42.87351" lon="-0.19069">
        <ele>2336.4</ele>
        <time>2026-07-15T11:02:36Z</time>
      </trkpt>
      <trkpt lat="42.87351" lon="-0.19068">
        <ele>2336.4</ele>
        <time>2026-07-15T11:02:37Z</time>
      </trkpt>
      <trkpt lat="42.8735" lon="-0.19067">
        <ele>2335.4</ele>
        <time>2026-07-15T11:02:38Z</time>
      </trkpt>
      <trkpt lat="42.87349" lon="-0.19067">
        <ele>2335.4</ele>
        <time>2026-07-15T11:02:39Z</time>
      </trkpt>
      <trkpt lat="42.87349" lon="-0.19066">
        <ele>2335.4</ele>
        <time>2026-07-15T11:02:40Z</time>
      </trkpt>
      <trkpt lat="42.87349" lon="-0.19066">
        <ele>2335.4</ele>
        <time>2026-07-15T11:02:41Z</time>
      </trkpt>
      <trkpt lat="42.87349" lon="-0.19066">
        <ele>2335.4</ele>
        <time>2026-07-15T11:02:42Z</time>
      </trkpt>
      <trkpt lat="42.87349" lon="-0.19066">
        <ele>2335.4</ele>
        <time>2026-07-15T11:02:43Z</time>
      </trkpt>
      <trkpt lat="42.87349" lon="-0.19066">
        <ele>2335.4</ele>
        <time>2026-07-15T11:02:44Z</time>
      </trkpt>
      <trkpt lat="42.87349" lon="-0.19065">
        <ele>2335.4</ele>
        <time>2026-07-15T11:02:45Z</time>
      </trkpt>
      <trkpt lat="42.87349" lon="-0.19064">
        <ele>2335.4</ele>
        <time>2026-07-15T11:02:46Z</time>
      </trkpt>
      <trkpt lat="42.87349" lon="-0.19064">
        <ele>2336.4</ele>
        <time>2026-07-15T11:02:47Z</time>
      </trkpt>
      <trkpt lat="42.87349" lon="-0.19064">
        <ele>2336.4</ele>
        <time>2026-07-15T11:02:48Z</time>
      </trkpt>
      <trkpt lat="42.87349" lon="-0.19064">
        <ele>2336.4</ele>
        <time>2026-07-15T11:02:49Z</time>
      </trkpt>
      <trkpt lat="42.87349" lon="-0.19064">
        <ele>2336.4</ele>
        <time>2026-07-15T11:02:50Z</time>
      </trkpt>
      <trkpt lat="42.87349" lon="-0.19064">
        <ele>2336.4</ele>
        <time>2026-07-15T11:02:51Z</time>
      </trkpt>
      <trkpt lat="42.87349" lon="-0.19064">
        <ele>2336.4</ele>
        <time>2026-07-15T11:02:52Z</time>
      </trkpt>
      <trkpt lat="42.87349" lon="-0.19064">
        <ele>2336.4</ele>
        <time>2026-07-15T11:02:53Z</time>
      </trkpt>
      <trkpt lat="42.87349" lon="-0.19064">
        <ele>2336.4</ele>
        <time>2026-07-15T11:02:54Z</time>
      </trkpt>
      <trkpt lat="42.87349" lon="-0.19062">
        <ele>2337.4</ele>
        <time>2026-07-15T11:02:55Z</time>
      </trkpt>
      <trkpt lat="42.87349" lon="-0.19061">
        <ele>2337.4</ele>
        <time>2026-07-15T11:02:56Z</time>
      </trkpt>
      <trkpt lat="42.87349" lon="-0.1906">
        <ele>2337.4</ele>
        <time>2026-07-15T11:02:57Z</time>
      </trkpt>
      <trkpt lat="42.87349" lon="-0.1906">
        <ele>2337.4</ele>
        <time>2026-07-15T11:02:58Z</time>
      </trkpt>
      <trkpt lat="42.87348" lon="-0.1906">
        <ele>2337.4</ele>
        <time>2026-07-15T11:02:59Z</time>
      </trkpt>
      <trkpt lat="42.87347" lon="-0.1906">
        <ele>2337.4</ele>
        <time>2026-07-15T11:03:00Z</time>
      </trkpt>
      <trkpt lat="42.87346" lon="-0.19061">
        <ele>2336.4</ele>
        <time>2026-07-15T11:03:01Z</time>
      </trkpt>
      <trkpt lat="42.87346" lon="-0.19061">
        <ele>2336.4</ele>
        <time>2026-07-15T11:03:02Z</time>
      </trkpt>
      <trkpt lat="42.87346" lon="-0.1906">
        <ele>2335.4</ele>
        <time>2026-07-15T11:03:03Z</time>
      </trkpt>
      <trkpt lat="42.87346" lon="-0.19059">
        <ele>2336.4</ele>
        <time>2026-07-15T11:03:04Z</time>
      </trkpt>
      <trkpt lat="42.87346" lon="-0.19058">
        <ele>2337.4</ele>
        <time>2026-07-15T11:03:05Z</time>
      </trkpt>
      <trkpt lat="42.87345" lon="-0.19058">
        <ele>2337.4</ele>
        <time>2026-07-15T11:03:06Z</time>
      </trkpt>
      <trkpt lat="42.87345" lon="-0.19057">
        <ele>2336.4</ele>
        <time>2026-07-15T11:03:07Z</time>
      </trkpt>
      <trkpt lat="42.87345" lon="-0.19057">
        <ele>2337.4</ele>
        <time>2026-07-15T11:03:08Z</time>
      </trkpt>
      <trkpt lat="42.87345" lon="-0.19056">
        <ele>2337.4</ele>
        <time>2026-07-15T11:03:09Z</time>
      </trkpt>
      <trkpt lat="42.87344" lon="-0.19055">
        <ele>2337.4</ele>
        <time>2026-07-15T11:03:10Z</time>
      </trkpt>
      <trkpt lat="42.87344" lon="-0.19055">
        <ele>2336.4</ele>
        <time>2026-07-15T11:03:11Z</time>
      </trkpt>
      <trkpt lat="42.87343" lon="-0.19054">
        <ele>2336.4</ele>
        <time>2026-07-15T11:03:12Z</time>
      </trkpt>
      <trkpt lat="42.87343" lon="-0.19054">
        <ele>2336.4</ele>
        <time>2026-07-15T11:03:13Z</time>
      </trkpt>
      <trkpt lat="42.87343" lon="-0.19052">
        <ele>2337.4</ele>
        <time>2026-07-15T11:03:14Z</time>
      </trkpt>
      <trkpt lat="42.87343" lon="-0.19052">
        <ele>2338.4</ele>
        <time>2026-07-15T11:03:15Z</time>
      </trkpt>
      <trkpt lat="42.87344" lon="-0.19051">
        <ele>2338.4</ele>
        <time>2026-07-15T11:03:16Z</time>
      </trkpt>
      <trkpt lat="42.87343" lon="-0.1905">
        <ele>2338.4</ele>
        <time>2026-07-15T11:03:17Z</time>
      </trkpt>
      <trkpt lat="42.87344" lon="-0.19049">
        <ele>2338.4</ele>
        <time>2026-07-15T11:03:18Z</time>
      </trkpt>
      <trkpt lat="42.87344" lon="-0.19049">
        <ele>2338.4</ele>
        <time>2026-07-15T11:03:19Z</time>
      </trkpt>
      <trkpt lat="42.87345" lon="-0.19048">
        <ele>2337.4</ele>
        <time>2026-07-15T11:03:20Z</time>
      </trkpt>
      <trkpt lat="42.87346" lon="-0.19048">
        <ele>2338.4</ele>
        <time>2026-07-15T11:03:21Z</time>
      </trkpt>
      <trkpt lat="42.87346" lon="-0.19047">
        <ele>2337.4</ele>
        <time>2026-07-15T11:03:22Z</time>
      </trkpt>
      <trkpt lat="42.87346" lon="-0.19048">
        <ele>2338.4</ele>
        <time>2026-07-15T11:03:23Z</time>
      </trkpt>
      <trkpt lat="42.87346" lon="-0.19047">
        <ele>2338.4</ele>
        <time>2026-07-15T11:03:24Z</time>
      </trkpt>
      <trkpt lat="42.87346" lon="-0.19044">
        <ele>2338.4</ele>
        <time>2026-07-15T11:03:25Z</time>
      </trkpt>
      <trkpt lat="42.87347" lon="-0.19043">
        <ele>2338.4</ele>
        <time>2026-07-15T11:03:26Z</time>
      </trkpt>
      <trkpt lat="42.87347" lon="-0.19044">
        <ele>2338.4</ele>
        <time>2026-07-15T11:03:27Z</time>
      </trkpt>
      <trkpt lat="42.87347" lon="-0.19044">
        <ele>2339.4</ele>
        <time>2026-07-15T11:03:28Z</time>
      </trkpt>
      <trkpt lat="42.87347" lon="-0.19045">
        <ele>2338.4</ele>
        <time>2026-07-15T11:03:29Z</time>
      </trkpt>
      <trkpt lat="42.87347" lon="-0.19045">
        <ele>2338.4</ele>
        <time>2026-07-15T11:03:30Z</time>
      </trkpt>
      <trkpt lat="42.87347" lon="-0.19045">
        <ele>2338.4</ele>
        <time>2026-07-15T11:03:31Z</time>
      </trkpt>
      <trkpt lat="42.87347" lon="-0.19045">
        <ele>2338.4</ele>
        <time>2026-07-15T11:03:32Z</time>
      </trkpt>
      <trkpt lat="42.87347" lon="-0.19045">
        <ele>2338.4</ele>
        <time>2026-07-15T11:03:33Z</time>
      </trkpt>
      <trkpt lat="42.87347" lon="-0.19045">
        <ele>2338.4</ele>
        <time>2026-07-15T11:03:34Z</time>
      </trkpt>
      <trkpt lat="42.87347" lon="-0.19045">
        <ele>2338.4</ele>
        <time>2026-07-15T11:03:35Z</time>
      </trkpt>
      <trkpt lat="42.87347" lon="-0.19045">
        <ele>2338.4</ele>
        <time>2026-07-15T11:03:36Z</time>
      </trkpt>
      <trkpt lat="42.87347" lon="-0.19042">
        <ele>2338.4</ele>
        <time>2026-07-15T11:03:37Z</time>
      </trkpt>
      <trkpt lat="42.87348" lon="-0.19041">
        <ele>2337.4</ele>
        <time>2026-07-15T11:03:38Z</time>
      </trkpt>
      <trkpt lat="42.87349" lon="-0.19041">
        <ele>2338.4</ele>
        <time>2026-07-15T11:03:39Z</time>
      </trkpt>
      <trkpt lat="42.87349" lon="-0.1904">
        <ele>2339.4</ele>
        <time>2026-07-15T11:03:40Z</time>
      </trkpt>
      <trkpt lat="42.8735" lon="-0.1904">
        <ele>2339.4</ele>
        <time>2026-07-15T11:03:41Z</time>
      </trkpt>
      <trkpt lat="42.8735" lon="-0.19039">
        <ele>2338.4</ele>
        <time>2026-07-15T11:03:42Z</time>
      </trkpt>
      <trkpt lat="42.8735" lon="-0.19038">
        <ele>2338.4</ele>
        <time>2026-07-15T11:03:43Z</time>
      </trkpt>
      <trkpt lat="42.8735" lon="-0.19037">
        <ele>2339.4</ele>
        <time>2026-07-15T11:03:44Z</time>
      </trkpt>
      <trkpt lat="42.8735" lon="-0.19037">
        <ele>2339.4</ele>
        <time>2026-07-15T11:03:45Z</time>
      </trkpt>
      <trkpt lat="42.87351" lon="-0.19037">
        <ele>2339.4</ele>
        <time>2026-07-15T11:03:46Z</time>
      </trkpt>
      <trkpt lat="42.87351" lon="-0.19037">
        <ele>2339.4</ele>
        <time>2026-07-15T11:03:47Z</time>
      </trkpt>
      <trkpt lat="42.87351" lon="-0.19036">
        <ele>2339.4</ele>
        <time>2026-07-15T11:03:48Z</time>
      </trkpt>
      <trkpt lat="42.87352" lon="-0.19036">
        <ele>2339.4</ele>
        <time>2026-07-15T11:03:49Z</time>
      </trkpt>
      <trkpt lat="42.87352" lon="-0.19035">
        <ele>2339.4</ele>
        <time>2026-07-15T11:03:50Z</time>
      </trkpt>
      <trkpt lat="42.87353" lon="-0.19034">
        <ele>2340.4</ele>
        <time>2026-07-15T11:03:51Z</time>
      </trkpt>
      <trkpt lat="42.87352" lon="-0.19032">
        <ele>2339.4</ele>
        <time>2026-07-15T11:03:52Z</time>
      </trkpt>
      <trkpt lat="42.87352" lon="-0.19033">
        <ele>2340.4</ele>
        <time>2026-07-15T11:03:53Z</time>
      </trkpt>
      <trkpt lat="42.87352" lon="-0.19033">
        <ele>2339.4</ele>
        <time>2026-07-15T11:03:54Z</time>
      </trkpt>
      <trkpt lat="42.87353" lon="-0.19032">
        <ele>2340.4</ele>
        <time>2026-07-15T11:03:55Z</time>
      </trkpt>
      <trkpt lat="42.87353" lon="-0.19031">
        <ele>2339.4</ele>
        <time>2026-07-15T11:03:56Z</time>
      </trkpt>
      <trkpt lat="42.87353" lon="-0.1903">
        <ele>2340.4</ele>
        <time>2026-07-15T11:03:57Z</time>
      </trkpt>
      <trkpt lat="42.87353" lon="-0.19029">
        <ele>2341.4</ele>
        <time>2026-07-15T11:03:58Z</time>
      </trkpt>
      <trkpt lat="42.87354" lon="-0.19029">
        <ele>2340.4</ele>
        <time>2026-07-15T11:03:59Z</time>
      </trkpt>
      <trkpt lat="42.87355" lon="-0.19029">
        <ele>2340.4</ele>
        <time>2026-07-15T11:04:00Z</time>
      </trkpt>
      <trkpt lat="42.87355" lon="-0.19029">
        <ele>2340.4</ele>
        <time>2026-07-15T11:04:01Z</time>
      </trkpt>
      <trkpt lat="42.87356" lon="-0.19028">
        <ele>2341.4</ele>
        <time>2026-07-15T11:04:02Z</time>
      </trkpt>
      <trkpt lat="42.87357" lon="-0.19028">
        <ele>2340.4</ele>
        <time>2026-07-15T11:04:03Z</time>
      </trkpt>
      <trkpt lat="42.87357" lon="-0.19026">
        <ele>2340.4</ele>
        <time>2026-07-15T11:04:04Z</time>
      </trkpt>
      <trkpt lat="42.87357" lon="-0.19025">
        <ele>2339.4</ele>
        <time>2026-07-15T11:04:05Z</time>
      </trkpt>
      <trkpt lat="42.87357" lon="-0.19023">
        <ele>2339.4</ele>
        <time>2026-07-15T11:04:06Z</time>
      </trkpt>
      <trkpt lat="42.87356" lon="-0.19023">
        <ele>2339.4</ele>
        <time>2026-07-15T11:04:07Z</time>
      </trkpt>
      <trkpt lat="42.87355" lon="-0.19023">
        <ele>2339.4</ele>
        <time>2026-07-15T11:04:08Z</time>
      </trkpt>
      <trkpt lat="42.87356" lon="-0.19022">
        <ele>2338.4</ele>
        <time>2026-07-15T11:04:09Z</time>
      </trkpt>
      <trkpt lat="42.87356" lon="-0.19022">
        <ele>2338.4</ele>
        <time>2026-07-15T11:04:10Z</time>
      </trkpt>
      <trkpt lat="42.87357" lon="-0.19021">
        <ele>2337.4</ele>
        <time>2026-07-15T11:04:11Z</time>
      </trkpt>
      <trkpt lat="42.87357" lon="-0.19021">
        <ele>2337.4</ele>
        <time>2026-07-15T11:04:12Z</time>
      </trkpt>
      <trkpt lat="42.87357" lon="-0.19021">
        <ele>2338.4</ele>
        <time>2026-07-15T11:04:13Z</time>
      </trkpt>
      <trkpt lat="42.87357" lon="-0.19021">
        <ele>2338.4</ele>
        <time>2026-07-15T11:04:14Z</time>
      </trkpt>
      <trkpt lat="42.87357" lon="-0.19021">
        <ele>2338.4</ele>
        <time>2026-07-15T11:04:15Z</time>
      </trkpt>
      <trkpt lat="42.87357" lon="-0.19021">
        <ele>2338.4</ele>
        <time>2026-07-15T11:04:16Z</time>
      </trkpt>
      <trkpt lat="42.87357" lon="-0.19021">
        <ele>2338.4</ele>
        <time>2026-07-15T11:04:17Z</time>
      </trkpt>
      <trkpt lat="42.87357" lon="-0.19021">
        <ele>2338.4</ele>
        <time>2026-07-15T11:04:18Z</time>
      </trkpt>
      <trkpt lat="42.87357" lon="-0.19021">
        <ele>2338.4</ele>
        <time>2026-07-15T11:04:19Z</time>
      </trkpt>
      <trkpt lat="42.87357" lon="-0.19021">
        <ele>2338.4</ele>
        <time>2026-07-15T11:04:20Z</time>
      </trkpt>
      <trkpt lat="42.87358" lon="-0.1902">
        <ele>2339.4</ele>
        <time>2026-07-15T11:04:21Z</time>
      </trkpt>
      <trkpt lat="42.87359" lon="-0.19019">
        <ele>2339.4</ele>
        <time>2026-07-15T11:04:22Z</time>
      </trkpt>
      <trkpt lat="42.87359" lon="-0.19019">
        <ele>2339.4</ele>
        <time>2026-07-15T11:04:23Z</time>
      </trkpt>
      <trkpt lat="42.8736" lon="-0.19019">
        <ele>2339.4</ele>
        <time>2026-07-15T11:04:24Z</time>
      </trkpt>
      <trkpt lat="42.87359" lon="-0.19019">
        <ele>2339.4</ele>
        <time>2026-07-15T11:04:25Z</time>
      </trkpt>
      <trkpt lat="42.8736" lon="-0.19018">
        <ele>2339.4</ele>
        <time>2026-07-15T11:04:26Z</time>
      </trkpt>
      <trkpt lat="42.8736" lon="-0.19017">
        <ele>2339.4</ele>
        <time>2026-07-15T11:04:27Z</time>
      </trkpt>
      <trkpt lat="42.8736" lon="-0.19015">
        <ele>2339.4</ele>
        <time>2026-07-15T11:04:28Z</time>
      </trkpt>
      <trkpt lat="42.87361" lon="-0.19014">
        <ele>2339.4</ele>
        <time>2026-07-15T11:04:29Z</time>
      </trkpt>
      <trkpt lat="42.87362" lon="-0.19014">
        <ele>2338.4</ele>
        <time>2026-07-15T11:04:30Z</time>
      </trkpt>
      <trkpt lat="42.87362" lon="-0.19014">
        <ele>2339.4</ele>
        <time>2026-07-15T11:04:31Z</time>
      </trkpt>
      <trkpt lat="42.87363" lon="-0.19012">
        <ele>2339.4</ele>
        <time>2026-07-15T11:04:32Z</time>
      </trkpt>
      <trkpt lat="42.87363" lon="-0.19012">
        <ele>2339.4</ele>
        <time>2026-07-15T11:04:33Z</time>
      </trkpt>
      <trkpt lat="42.87363" lon="-0.19011">
        <ele>2339.4</ele>
        <time>2026-07-15T11:04:34Z</time>
      </trkpt>
      <trkpt lat="42.87363" lon="-0.1901">
        <ele>2337.4</ele>
        <time>2026-07-15T11:04:35Z</time>
      </trkpt>
      <trkpt lat="42.87363" lon="-0.1901">
        <ele>2337.4</ele>
        <time>2026-07-15T11:04:36Z</time>
      </trkpt>
      <trkpt lat="42.87363" lon="-0.19009">
        <ele>2337.4</ele>
        <time>2026-07-15T11:04:37Z</time>
      </trkpt>
      <trkpt lat="42.87364" lon="-0.19008">
        <ele>2337.4</ele>
        <time>2026-07-15T11:04:38Z</time>
      </trkpt>
      <trkpt lat="42.87365" lon="-0.19007">
        <ele>2337.4</ele>
        <time>2026-07-15T11:04:39Z</time>
      </trkpt>
      <trkpt lat="42.87365" lon="-0.19006">
        <ele>2338.4</ele>
        <time>2026-07-15T11:04:40Z</time>
      </trkpt>
      <trkpt lat="42.87365" lon="-0.19005">
        <ele>2338.4</ele>
        <time>2026-07-15T11:04:41Z</time>
      </trkpt>
      <trkpt lat="42.87366" lon="-0.19005">
        <ele>2338.4</ele>
        <time>2026-07-15T11:04:42Z</time>
      </trkpt>
      <trkpt lat="42.87366" lon="-0.19004">
        <ele>2337.4</ele>
        <time>2026-07-15T11:04:43Z</time>
      </trkpt>
      <trkpt lat="42.87367" lon="-0.19003">
        <ele>2336.4</ele>
        <time>2026-07-15T11:04:44Z</time>
      </trkpt>
      <trkpt lat="42.87366" lon="-0.19001">
        <ele>2336.4</ele>
        <time>2026-07-15T11:04:45Z</time>
      </trkpt>
      <trkpt lat="42.87366" lon="-0.19">
        <ele>2336.4</ele>
        <time>2026-07-15T11:04:46Z</time>
      </trkpt>
      <trkpt lat="42.87366" lon="-0.19">
        <ele>2336.4</ele>
        <time>2026-07-15T11:04:47Z</time>
      </trkpt>
      <trkpt lat="42.87365" lon="-0.19">
        <ele>2335.4</ele>
        <time>2026-07-15T11:04:48Z</time>
      </trkpt>
      <trkpt lat="42.87365" lon="-0.18999">
        <ele>2335.4</ele>
        <time>2026-07-15T11:04:49Z</time>
      </trkpt>
      <trkpt lat="42.87366" lon="-0.18998">
        <ele>2335.4</ele>
        <time>2026-07-15T11:04:50Z</time>
      </trkpt>
      <trkpt lat="42.87365" lon="-0.18997">
        <ele>2335.4</ele>
        <time>2026-07-15T11:04:51Z</time>
      </trkpt>
      <trkpt lat="42.87365" lon="-0.18996">
        <ele>2336.4</ele>
        <time>2026-07-15T11:04:52Z</time>
      </trkpt>
      <trkpt lat="42.87365" lon="-0.18996">
        <ele>2336.4</ele>
        <time>2026-07-15T11:04:53Z</time>
      </trkpt>
      <trkpt lat="42.87365" lon="-0.18996">
        <ele>2336.4</ele>
        <time>2026-07-15T11:04:54Z</time>
      </trkpt>
      <trkpt lat="42.87364" lon="-0.18994">
        <ele>2335.4</ele>
        <time>2026-07-15T11:04:55Z</time>
      </trkpt>
      <trkpt lat="42.87365" lon="-0.18993">
        <ele>2335.4</ele>
        <time>2026-07-15T11:04:56Z</time>
      </trkpt>
      <trkpt lat="42.87365" lon="-0.18993">
        <ele>2334.4</ele>
        <time>2026-07-15T11:04:57Z</time>
      </trkpt>
      <trkpt lat="42.87365" lon="-0.18992">
        <ele>2334.4</ele>
        <time>2026-07-15T11:04:58Z</time>
      </trkpt>
      <trkpt lat="42.87366" lon="-0.1899">
        <ele>2333.4</ele>
        <time>2026-07-15T11:04:59Z</time>
      </trkpt>
      <trkpt lat="42.87366" lon="-0.18989">
        <ele>2333.4</ele>
        <time>2026-07-15T11:05:00Z</time>
      </trkpt>
      <trkpt lat="42.87366" lon="-0.18988">
        <ele>2333.4</ele>
        <time>2026-07-15T11:05:01Z</time>
      </trkpt>
      <trkpt lat="42.87366" lon="-0.18988">
        <ele>2334.4</ele>
        <time>2026-07-15T11:05:01Z</time>
      </trkpt>
      <trkpt lat="42.87366" lon="-0.18987">
        <ele>2334.4</ele>
        <time>2026-07-15T11:05:02Z</time>
      </trkpt>
      <trkpt lat="42.87366" lon="-0.18986">
        <ele>2334.4</ele>
        <time>2026-07-15T11:05:03Z</time>
      </trkpt>
      <trkpt lat="42.87366" lon="-0.18986">
        <ele>2334.4</ele>
        <time>2026-07-15T11:05:03Z</time>
      </trkpt>
      <trkpt lat="42.87366" lon="-0.18985">
        <ele>2334.4</ele>
        <time>2026-07-15T11:05:04Z</time>
      </trkpt>
      <trkpt lat="42.87365" lon="-0.18984">
        <ele>2333.4</ele>
        <time>2026-07-15T11:05:05Z</time>
      </trkpt>
      <trkpt lat="42.87365" lon="-0.18984">
        <ele>2333.4</ele>
        <time>2026-07-15T11:05:06Z</time>
      </trkpt>
      <trkpt lat="42.87364" lon="-0.18984">
        <ele>2333.4</ele>
        <time>2026-07-15T11:05:07Z</time>
      </trkpt>
      <trkpt lat="42.87364" lon="-0.18984">
        <ele>2333.4</ele>
        <time>2026-07-15T11:05:07Z</time>
      </trkpt>
      <trkpt lat="42.87363" lon="-0.18983">
        <ele>2332.4</ele>
        <time>2026-07-15T11:05:08Z</time>
      </trkpt>
      <trkpt lat="42.87363" lon="-0.18983">
        <ele>2332.4</ele>
        <time>2026-07-15T11:05:09Z</time>
      </trkpt>
      <trkpt lat="42.87363" lon="-0.18983">
        <ele>2332.4</ele>
        <time>2026-07-15T11:05:09Z</time>
      </trkpt>
      <trkpt lat="42.87363" lon="-0.18982">
        <ele>2331.4</ele>
        <time>2026-07-15T11:05:10Z</time>
      </trkpt>
      <trkpt lat="42.87363" lon="-0.18982">
        <ele>2330.4</ele>
        <time>2026-07-15T11:05:11Z</time>
      </trkpt>
      <trkpt lat="42.87363" lon="-0.18981">
        <ele>2330.4</ele>
        <time>2026-07-15T11:05:12Z</time>
      </trkpt>
      <trkpt lat="42.87363" lon="-0.18981">
        <ele>2330.4</ele>
        <time>2026-07-15T11:05:13Z</time>
      </trkpt>
      <trkpt lat="42.87363" lon="-0.1898">
        <ele>2331.4</ele>
        <time>2026-07-15T11:05:13Z</time>
      </trkpt>
      <trkpt lat="42.87363" lon="-0.1898">
        <ele>2330.4</ele>
        <time>2026-07-15T11:05:14Z</time>
      </trkpt>
      <trkpt lat="42.87363" lon="-0.1898">
        <ele>2330.4</ele>
        <time>2026-07-15T11:05:15Z</time>
      </trkpt>
      <trkpt lat="42.87363" lon="-0.18979">
        <ele>2331.4</ele>
        <time>2026-07-15T11:05:15Z</time>
      </trkpt>
      <trkpt lat="42.87363" lon="-0.18979">
        <ele>2331.4</ele>
        <time>2026-07-15T11:05:15Z</time>
      </trkpt>
      <trkpt lat="42.87363" lon="-0.18979">
        <ele>2331.4</ele>
        <time>2026-07-15T11:05:16Z</time>
      </trkpt>
      <trkpt lat="42.87363" lon="-0.18978">
        <ele>2332.4</ele>
        <time>2026-07-15T11:05:17Z</time>
      </trkpt>
      <trkpt lat="42.87364" lon="-0.18978">
        <ele>2332.4</ele>
        <time>2026-07-15T11:05:17Z</time>
      </trkpt>
      <trkpt lat="42.87364" lon="-0.18977">
        <ele>2332.4</ele>
        <time>2026-07-15T11:05:18Z</time>
      </trkpt>
      <trkpt lat="42.87365" lon="-0.18977">
        <ele>2332.4</ele>
        <time>2026-07-15T11:05:19Z</time>
      </trkpt>
      <trkpt lat="42.87365" lon="-0.18976">
        <ele>2332.4</ele>
        <time>2026-07-15T11:05:19Z</time>
      </trkpt>
      <trkpt lat="42.87366" lon="-0.18976">
        <ele>2332.4</ele>
        <time>2026-07-15T11:05:20Z</time>
      </trkpt>
      <trkpt lat="42.87366" lon="-0.18975">
        <ele>2332.4</ele>
        <time>2026-07-15T11:05:21Z</time>
      </trkpt>
      <trkpt lat="42.87367" lon="-0.18975">
        <ele>2332.4</ele>
        <time>2026-07-15T11:05:21Z</time>
      </trkpt>
      <trkpt lat="42.87367" lon="-0.18974">
        <ele>2332.4</ele>
        <time>2026-07-15T11:05:22Z</time>
      </trkpt>
      <trkpt lat="42.87368" lon="-0.18974">
        <ele>2333.4</ele>
        <time>2026-07-15T11:05:23Z</time>
      </trkpt>
      <trkpt lat="42.87368" lon="-0.18973">
        <ele>2332.4</ele>
        <time>2026-07-15T11:05:24Z</time>
      </trkpt>
      <trkpt lat="42.87368" lon="-0.18973">
        <ele>2332.4</ele>
        <time>2026-07-15T11:05:24Z</time>
      </trkpt>
      <trkpt lat="42.87368" lon="-0.18973">
        <ele>2333.4</ele>
        <time>2026-07-15T11:05:25Z</time>
      </trkpt>
      <trkpt lat="42.87368" lon="-0.18972">
        <ele>2333.4</ele>
        <time>2026-07-15T11:05:26Z</time>
      </trkpt>
      <trkpt lat="42.87369" lon="-0.18971">
        <ele>2333.4</ele>
        <time>2026-07-15T11:05:27Z</time>
      </trkpt>
      <trkpt lat="42.87369" lon="-0.1897">
        <ele>2333.4</ele>
        <time>2026-07-15T11:05:28Z</time>
      </trkpt>
      <trkpt lat="42.87369" lon="-0.1897">
        <ele>2333.4</ele>
        <time>2026-07-15T11:05:28Z</time>
      </trkpt>
      <trkpt lat="42.87369" lon="-0.1897">
        <ele>2333.4</ele>
        <time>2026-07-15T11:05:29Z</time>
      </trkpt>
      <trkpt lat="42.87369" lon="-0.18969">
        <ele>2333.4</ele>
        <time>2026-07-15T11:05:30Z</time>
      </trkpt>
      <trkpt lat="42.87369" lon="-0.18969">
        <ele>2333.4</ele>
        <time>2026-07-15T11:05:31Z</time>
      </trkpt>
      <trkpt lat="42.87369" lon="-0.18969">
        <ele>2333.4</ele>
        <time>2026-07-15T11:05:31Z</time>
      </trkpt>
      <trkpt lat="42.8737" lon="-0.18969">
        <ele>2333.4</ele>
        <time>2026-07-15T11:05:32Z</time>
      </trkpt>
      <trkpt lat="42.8737" lon="-0.18969">
        <ele>2333.4</ele>
        <time>2026-07-15T11:05:33Z</time>
      </trkpt>
      <trkpt lat="42.8737" lon="-0.1897">
        <ele>2334.4</ele>
        <time>2026-07-15T11:05:34Z</time>
      </trkpt>
      <trkpt lat="42.87371" lon="-0.1897">
        <ele>2333.4</ele>
        <time>2026-07-15T11:05:35Z</time>
      </trkpt>
      <trkpt lat="42.87371" lon="-0.1897">
        <ele>2334.4</ele>
        <time>2026-07-15T11:05:35Z</time>
      </trkpt>
      <trkpt lat="42.87372" lon="-0.1897">
        <ele>2334.4</ele>
        <time>2026-07-15T11:05:36Z</time>
      </trkpt>
      <trkpt lat="42.87372" lon="-0.1897">
        <ele>2334.4</ele>
        <time>2026-07-15T11:05:37Z</time>
      </trkpt>
      <trkpt lat="42.87372" lon="-0.1897">
        <ele>2333.4</ele>
        <time>2026-07-15T11:05:38Z</time>
      </trkpt>
      <trkpt lat="42.87373" lon="-0.18969">
        <ele>2334.4</ele>
        <time>2026-07-15T11:05:38Z</time>
      </trkpt>
      <trkpt lat="42.87373" lon="-0.18969">
        <ele>2334.4</ele>
        <time>2026-07-15T11:05:39Z</time>
      </trkpt>
      <trkpt lat="42.87373" lon="-0.18968">
        <ele>2334.4</ele>
        <time>2026-07-15T11:05:40Z</time>
      </trkpt>
      <trkpt lat="42.87373" lon="-0.18968">
        <ele>2334.4</ele>
        <time>2026-07-15T11:05:41Z</time>
      </trkpt>
      <trkpt lat="42.87373" lon="-0.18967">
        <ele>2334.4</ele>
        <time>2026-07-15T11:05:42Z</time>
      </trkpt>
      <trkpt lat="42.87374" lon="-0.18966">
        <ele>2334.4</ele>
        <time>2026-07-15T11:05:43Z</time>
      </trkpt>
      <trkpt lat="42.87374" lon="-0.18966">
        <ele>2334.4</ele>
        <time>2026-07-15T11:05:43Z</time>
      </trkpt>
      <trkpt lat="42.87374" lon="-0.18965">
        <ele>2334.4</ele>
        <time>2026-07-15T11:05:44Z</time>
      </trkpt>
      <trkpt lat="42.87375" lon="-0.18964">
        <ele>2334.4</ele>
        <time>2026-07-15T11:05:45Z</time>
      </trkpt>
      <trkpt lat="42.87375" lon="-0.18963">
        <ele>2334.4</ele>
        <time>2026-07-15T11:05:46Z</time>
      </trkpt>
      <trkpt lat="42.87375" lon="-0.18962">
        <ele>2335.4</ele>
        <time>2026-07-15T11:05:46Z</time>
      </trkpt>
      <trkpt lat="42.87375" lon="-0.18961">
        <ele>2335.4</ele>
        <time>2026-07-15T11:05:47Z</time>
      </trkpt>
      <trkpt lat="42.87375" lon="-0.18961">
        <ele>2335.4</ele>
        <time>2026-07-15T11:05:48Z</time>
      </trkpt>
      <trkpt lat="42.87375" lon="-0.1896">
        <ele>2335.4</ele>
        <time>2026-07-15T11:05:49Z</time>
      </trkpt>
      <trkpt lat="42.87375" lon="-0.1896">
        <ele>2335.4</ele>
        <time>2026-07-15T11:05:50Z</time>
      </trkpt>
      <trkpt lat="42.87375" lon="-0.18961">
        <ele>2335.4</ele>
        <time>2026-07-15T11:05:51Z</time>
      </trkpt>
      <trkpt lat="42.87375" lon="-0.18961">
        <ele>2334.4</ele>
        <time>2026-07-15T11:05:52Z</time>
      </trkpt>
      <trkpt lat="42.87375" lon="-0.18961">
        <ele>2335.4</ele>
        <time>2026-07-15T11:05:53Z</time>
      </trkpt>
      <trkpt lat="42.87375" lon="-0.1896">
        <ele>2335.4</ele>
        <time>2026-07-15T11:05:54Z</time>
      </trkpt>
      <trkpt lat="42.87375" lon="-0.1896">
        <ele>2334.4</ele>
        <time>2026-07-15T11:05:55Z</time>
      </trkpt>
      <trkpt lat="42.87375" lon="-0.18959">
        <ele>2335.4</ele>
        <time>2026-07-15T11:05:56Z</time>
      </trkpt>
      <trkpt lat="42.87375" lon="-0.18959">
        <ele>2334.4</ele>
        <time>2026-07-15T11:05:56Z</time>
      </trkpt>
      <trkpt lat="42.87376" lon="-0.18958">
        <ele>2334.4</ele>
        <time>2026-07-15T11:05:57Z</time>
      </trkpt>
      <trkpt lat="42.87376" lon="-0.18958">
        <ele>2334.4</ele>
        <time>2026-07-15T11:05:58Z</time>
      </trkpt>
      <trkpt lat="42.87376" lon="-0.18956">
        <ele>2335.4</ele>
        <time>2026-07-15T11:05:59Z</time>
      </trkpt>
      <trkpt lat="42.87377" lon="-0.18956">
        <ele>2335.4</ele>
        <time>2026-07-15T11:06:00Z</time>
      </trkpt>
      <trkpt lat="42.87377" lon="-0.18955">
        <ele>2335.4</ele>
        <time>2026-07-15T11:06:01Z</time>
      </trkpt>
      <trkpt lat="42.87377" lon="-0.18954">
        <ele>2336.4</ele>
        <time>2026-07-15T11:06:02Z</time>
      </trkpt>
      <trkpt lat="42.87378" lon="-0.18954">
        <ele>2336.4</ele>
        <time>2026-07-15T11:06:02Z</time>
      </trkpt>
      <trkpt lat="42.87378" lon="-0.18954">
        <ele>2336.4</ele>
        <time>2026-07-15T11:06:03Z</time>
      </trkpt>
      <trkpt lat="42.87378" lon="-0.18953">
        <ele>2336.4</ele>
        <time>2026-07-15T11:06:04Z</time>
      </trkpt>
      <trkpt lat="42.87378" lon="-0.18952">
        <ele>2336.4</ele>
        <time>2026-07-15T11:06:05Z</time>
      </trkpt>
      <trkpt lat="42.87378" lon="-0.18952">
        <ele>2336.4</ele>
        <time>2026-07-15T11:06:06Z</time>
      </trkpt>
      <trkpt lat="42.87378" lon="-0.18951">
        <ele>2336.4</ele>
        <time>2026-07-15T11:06:07Z</time>
      </trkpt>
      <trkpt lat="42.87378" lon="-0.18951">
        <ele>2337.4</ele>
        <time>2026-07-15T11:06:07Z</time>
      </trkpt>
      <trkpt lat="42.87378" lon="-0.1895">
        <ele>2337.4</ele>
        <time>2026-07-15T11:06:08Z</time>
      </trkpt>
      <trkpt lat="42.87379" lon="-0.1895">
        <ele>2336.4</ele>
        <time>2026-07-15T11:06:09Z</time>
      </trkpt>
      <trkpt lat="42.87379" lon="-0.18949">
        <ele>2336.4</ele>
        <time>2026-07-15T11:06:10Z</time>
      </trkpt>
      <trkpt lat="42.87379" lon="-0.18949">
        <ele>2336.4</ele>
        <time>2026-07-15T11:06:10Z</time>
      </trkpt>
      <trkpt lat="42.8738" lon="-0.18948">
        <ele>2336.4</ele>
        <time>2026-07-15T11:06:11Z</time>
      </trkpt>
      <trkpt lat="42.8738" lon="-0.18947">
        <ele>2336.4</ele>
        <time>2026-07-15T11:06:12Z</time>
      </trkpt>
      <trkpt lat="42.87381" lon="-0.18946">
        <ele>2336.4</ele>
        <time>2026-07-15T11:06:13Z</time>
      </trkpt>
      <trkpt lat="42.87381" lon="-0.18946">
        <ele>2336.4</ele>
        <time>2026-07-15T11:06:13Z</time>
      </trkpt>
      <trkpt lat="42.87381" lon="-0.18945">
        <ele>2336.4</ele>
        <time>2026-07-15T11:06:14Z</time>
      </trkpt>
      <trkpt lat="42.87382" lon="-0.18944">
        <ele>2336.4</ele>
        <time>2026-07-15T11:06:15Z</time>
      </trkpt>
      <trkpt lat="42.87382" lon="-0.18944">
        <ele>2336.4</ele>
        <time>2026-07-15T11:06:16Z</time>
      </trkpt>
      <trkpt lat="42.87383" lon="-0.18944">
        <ele>2337.4</ele>
        <time>2026-07-15T11:06:16Z</time>
      </trkpt>
      <trkpt lat="42.87383" lon="-0.18944">
        <ele>2337.4</ele>
        <time>2026-07-15T11:06:17Z</time>
      </trkpt>
      <trkpt lat="42.87384" lon="-0.18943">
        <ele>2336.4</ele>
        <time>2026-07-15T11:06:18Z</time>
      </trkpt>
      <trkpt lat="42.87384" lon="-0.18942">
        <ele>2337.4</ele>
        <time>2026-07-15T11:06:19Z</time>
      </trkpt>
      <trkpt lat="42.87385" lon="-0.18942">
        <ele>2337.4</ele>
        <time>2026-07-15T11:06:20Z</time>
      </trkpt>
      <trkpt lat="42.87385" lon="-0.18941">
        <ele>2337.4</ele>
        <time>2026-07-15T11:06:21Z</time>
      </trkpt>
      <trkpt lat="42.87385" lon="-0.18941">
        <ele>2337.4</ele>
        <time>2026-07-15T11:06:22Z</time>
      </trkpt>
      <trkpt lat="42.87386" lon="-0.1894">
        <ele>2338.4</ele>
        <time>2026-07-15T11:06:23Z</time>
      </trkpt>
      <trkpt lat="42.87387" lon="-0.1894">
        <ele>2338.4</ele>
        <time>2026-07-15T11:06:23Z</time>
      </trkpt>
      <trkpt lat="42.87387" lon="-0.18939">
        <ele>2337.4</ele>
        <time>2026-07-15T11:06:24Z</time>
      </trkpt>
      <trkpt lat="42.87388" lon="-0.18939">
        <ele>2337.4</ele>
        <time>2026-07-15T11:06:25Z</time>
      </trkpt>
      <trkpt lat="42.87388" lon="-0.18938">
        <ele>2337.4</ele>
        <time>2026-07-15T11:06:25Z</time>
      </trkpt>
      <trkpt lat="42.87389" lon="-0.18938">
        <ele>2337.4</ele>
        <time>2026-07-15T11:06:26Z</time>
      </trkpt>
      <trkpt lat="42.87389" lon="-0.18937">
        <ele>2337.4</ele>
        <time>2026-07-15T11:06:27Z</time>
      </trkpt>
      <trkpt lat="42.87389" lon="-0.18937">
        <ele>2337.4</ele>
        <time>2026-07-15T11:06:28Z</time>
      </trkpt>
      <trkpt lat="42.87389" lon="-0.18936">
        <ele>2337.4</ele>
        <time>2026-07-15T11:06:29Z</time>
      </trkpt>
      <trkpt lat="42.8739" lon="-0.18936">
        <ele>2337.4</ele>
        <time>2026-07-15T11:06:30Z</time>
      </trkpt>
      <trkpt lat="42.8739" lon="-0.18935">
        <ele>2337.4</ele>
        <time>2026-07-15T11:06:31Z</time>
      </trkpt>
      <trkpt lat="42.8739" lon="-0.18935">
        <ele>2337.4</ele>
        <time>2026-07-15T11:06:31Z</time>
      </trkpt>
      <trkpt lat="42.8739" lon="-0.18935">
        <ele>2337.4</ele>
        <time>2026-07-15T11:06:32Z</time>
      </trkpt>
      <trkpt lat="42.8739" lon="-0.18934">
        <ele>2337.4</ele>
        <time>2026-07-15T11:06:33Z</time>
      </trkpt>
      <trkpt lat="42.8739" lon="-0.18934">
        <ele>2337.4</ele>
        <time>2026-07-15T11:06:34Z</time>
      </trkpt>
      <trkpt lat="42.8739" lon="-0.18933">
        <ele>2337.4</ele>
        <time>2026-07-15T11:06:34Z</time>
      </trkpt>
      <trkpt lat="42.8739" lon="-0.18933">
        <ele>2337.4</ele>
        <time>2026-07-15T11:06:35Z</time>
      </trkpt>
      <trkpt lat="42.8739" lon="-0.18933">
        <ele>2337.4</ele>
        <time>2026-07-15T11:06:36Z</time>
      </trkpt>
      <trkpt lat="42.8739" lon="-0.18933">
        <ele>2337.4</ele>
        <time>2026-07-15T11:06:36Z</time>
      </trkpt>
      <trkpt lat="42.8739" lon="-0.18932">
        <ele>2337.4</ele>
        <time>2026-07-15T11:06:37Z</time>
      </trkpt>
      <trkpt lat="42.8739" lon="-0.18932">
        <ele>2338.4</ele>
        <time>2026-07-15T11:06:38Z</time>
      </trkpt>
      <trkpt lat="42.8739" lon="-0.18931">
        <ele>2338.4</ele>
        <time>2026-07-15T11:06:39Z</time>
      </trkpt>
      <trkpt lat="42.87391" lon="-0.1893">
        <ele>2337.4</ele>
        <time>2026-07-15T11:06:40Z</time>
      </trkpt>
      <trkpt lat="42.87391" lon="-0.18929">
        <ele>2336.4</ele>
        <time>2026-07-15T11:06:41Z</time>
      </trkpt>
      <trkpt lat="42.87391" lon="-0.18929">
        <ele>2336.4</ele>
        <time>2026-07-15T11:06:42Z</time>
      </trkpt>
      <trkpt lat="42.87391" lon="-0.18927">
        <ele>2337.4</ele>
        <time>2026-07-15T11:06:43Z</time>
      </trkpt>
      <trkpt lat="42.87392" lon="-0.18926">
        <ele>2337.4</ele>
        <time>2026-07-15T11:06:44Z</time>
      </trkpt>
      <trkpt lat="42.87392" lon="-0.18925">
        <ele>2338.4</ele>
        <time>2026-07-15T11:06:45Z</time>
      </trkpt>
      <trkpt lat="42.87392" lon="-0.18925">
        <ele>2338.4</ele>
        <time>2026-07-15T11:06:45Z</time>
      </trkpt>
      <trkpt lat="42.87393" lon="-0.18924">
        <ele>2337.4</ele>
        <time>2026-07-15T11:06:46Z</time>
      </trkpt>
      <trkpt lat="42.87393" lon="-0.18923">
        <ele>2337.4</ele>
        <time>2026-07-15T11:06:47Z</time>
      </trkpt>
      <trkpt lat="42.87393" lon="-0.18922">
        <ele>2337.4</ele>
        <time>2026-07-15T11:06:48Z</time>
      </trkpt>
      <trkpt lat="42.87393" lon="-0.18921">
        <ele>2337.4</ele>
        <time>2026-07-15T11:06:49Z</time>
      </trkpt>
      <trkpt lat="42.87393" lon="-0.1892">
        <ele>2337.4</ele>
        <time>2026-07-15T11:06:50Z</time>
      </trkpt>
      <trkpt lat="42.87393" lon="-0.1892">
        <ele>2337.4</ele>
        <time>2026-07-15T11:06:51Z</time>
      </trkpt>
      <trkpt lat="42.87392" lon="-0.1892">
        <ele>2336.4</ele>
        <time>2026-07-15T11:06:52Z</time>
      </trkpt>
      <trkpt lat="42.87392" lon="-0.1892">
        <ele>2336.4</ele>
        <time>2026-07-15T11:06:53Z</time>
      </trkpt>
      <trkpt lat="42.87392" lon="-0.1892">
        <ele>2337.4</ele>
        <time>2026-07-15T11:06:54Z</time>
      </trkpt>
      <trkpt lat="42.87392" lon="-0.1892">
        <ele>2336.4</ele>
        <time>2026-07-15T11:06:55Z</time>
      </trkpt>
      <trkpt lat="42.87392" lon="-0.1892">
        <ele>2335.4</ele>
        <time>2026-07-15T11:06:56Z</time>
      </trkpt>
      <trkpt lat="42.87392" lon="-0.18919">
        <ele>2334.4</ele>
        <time>2026-07-15T11:06:56Z</time>
      </trkpt>
      <trkpt lat="42.87392" lon="-0.18919">
        <ele>2334.4</ele>
        <time>2026-07-15T11:06:57Z</time>
      </trkpt>
      <trkpt lat="42.87392" lon="-0.18918">
        <ele>2333.4</ele>
        <time>2026-07-15T11:06:58Z</time>
      </trkpt>
      <trkpt lat="42.87392" lon="-0.18917">
        <ele>2333.4</ele>
        <time>2026-07-15T11:06:59Z</time>
      </trkpt>
      <trkpt lat="42.87392" lon="-0.18916">
        <ele>2333.4</ele>
        <time>2026-07-15T11:07:00Z</time>
      </trkpt>
      <trkpt lat="42.87392" lon="-0.18915">
        <ele>2333.4</ele>
        <time>2026-07-15T11:07:01Z</time>
      </trkpt>
      <trkpt lat="42.87392" lon="-0.18914">
        <ele>2333.4</ele>
        <time>2026-07-15T11:07:01Z</time>
      </trkpt>
      <trkpt lat="42.87392" lon="-0.18913">
        <ele>2333.4</ele>
        <time>2026-07-15T11:07:02Z</time>
      </trkpt>
      <trkpt lat="42.87392" lon="-0.18913">
        <ele>2333.4</ele>
        <time>2026-07-15T11:07:02Z</time>
      </trkpt>
      <trkpt lat="42.87392" lon="-0.18913">
        <ele>2333.4</ele>
        <time>2026-07-15T11:07:03Z</time>
      </trkpt>
      <trkpt lat="42.87393" lon="-0.18912">
        <ele>2333.4</ele>
        <time>2026-07-15T11:07:04Z</time>
      </trkpt>
      <trkpt lat="42.87393" lon="-0.18912">
        <ele>2333.4</ele>
        <time>2026-07-15T11:07:05Z</time>
      </trkpt>
      <trkpt lat="42.87394" lon="-0.18912">
        <ele>2335.4</ele>
        <time>2026-07-15T11:07:05Z</time>
      </trkpt>
      <trkpt lat="42.87394" lon="-0.18911">
        <ele>2335.4</ele>
        <time>2026-07-15T11:07:06Z</time>
      </trkpt>
      <trkpt lat="42.87395" lon="-0.18911">
        <ele>2335.4</ele>
        <time>2026-07-15T11:07:07Z</time>
      </trkpt>
      <trkpt lat="42.87395" lon="-0.1891">
        <ele>2335.4</ele>
        <time>2026-07-15T11:07:07Z</time>
      </trkpt>
      <trkpt lat="42.87396" lon="-0.1891">
        <ele>2335.4</ele>
        <time>2026-07-15T11:07:08Z</time>
      </trkpt>
      <trkpt lat="42.87397" lon="-0.18909">
        <ele>2335.4</ele>
        <time>2026-07-15T11:07:09Z</time>
      </trkpt>
      <trkpt lat="42.87398" lon="-0.1891">
        <ele>2335.4</ele>
        <time>2026-07-15T11:07:09Z</time>
      </trkpt>
      <trkpt lat="42.87399" lon="-0.18909">
        <ele>2335.4</ele>
        <time>2026-07-15T11:07:10Z</time>
      </trkpt>
      <trkpt lat="42.87399" lon="-0.1891">
        <ele>2334.4</ele>
        <time>2026-07-15T11:07:10Z</time>
      </trkpt>
      <trkpt lat="42.874" lon="-0.18909">
        <ele>2334.4</ele>
        <time>2026-07-15T11:07:11Z</time>
      </trkpt>
      <trkpt lat="42.87401" lon="-0.18909">
        <ele>2334.4</ele>
        <time>2026-07-15T11:07:12Z</time>
      </trkpt>
      <trkpt lat="42.87401" lon="-0.18909">
        <ele>2333.4</ele>
        <time>2026-07-15T11:07:12Z</time>
      </trkpt>
      <trkpt lat="42.87401" lon="-0.18909">
        <ele>2333.4</ele>
        <time>2026-07-15T11:07:13Z</time>
      </trkpt>
      <trkpt lat="42.87402" lon="-0.18908">
        <ele>2333.4</ele>
        <time>2026-07-15T11:07:14Z</time>
      </trkpt>
      <trkpt lat="42.87402" lon="-0.18909">
        <ele>2334.4</ele>
        <time>2026-07-15T11:07:14Z</time>
      </trkpt>
      <trkpt lat="42.87402" lon="-0.18909">
        <ele>2334.4</ele>
        <time>2026-07-15T11:07:15Z</time>
      </trkpt>
      <trkpt lat="42.87402" lon="-0.18908">
        <ele>2333.4</ele>
        <time>2026-07-15T11:07:16Z</time>
      </trkpt>
      <trkpt lat="42.87402" lon="-0.18908">
        <ele>2333.4</ele>
        <time>2026-07-15T11:07:17Z</time>
      </trkpt>
      <trkpt lat="42.87403" lon="-0.18908">
        <ele>2333.4</ele>
        <time>2026-07-15T11:07:18Z</time>
      </trkpt>
      <trkpt lat="42.87403" lon="-0.18908">
        <ele>2333.4</ele>
        <time>2026-07-15T11:07:19Z</time>
      </trkpt>
      <trkpt lat="42.87403" lon="-0.18908">
        <ele>2333.4</ele>
        <time>2026-07-15T11:07:20Z</time>
      </trkpt>
      <trkpt lat="42.87403" lon="-0.18907">
        <ele>2332.4</ele>
        <time>2026-07-15T11:07:20Z</time>
      </trkpt>
      <trkpt lat="42.87404" lon="-0.18907">
        <ele>2332.4</ele>
        <time>2026-07-15T11:07:21Z</time>
      </trkpt>
      <trkpt lat="42.87403" lon="-0.18906">
        <ele>2331.4</ele>
        <time>2026-07-15T11:07:22Z</time>
      </trkpt>
      <trkpt lat="42.87403" lon="-0.18906">
        <ele>2331.4</ele>
        <time>2026-07-15T11:07:23Z</time>
      </trkpt>
      <trkpt lat="42.87403" lon="-0.18906">
        <ele>2331.4</ele>
        <time>2026-07-15T11:07:24Z</time>
      </trkpt>
      <trkpt lat="42.87403" lon="-0.18907">
        <ele>2331.4</ele>
        <time>2026-07-15T11:07:25Z</time>
      </trkpt>
      <trkpt lat="42.87403" lon="-0.18907">
        <ele>2331.4</ele>
        <time>2026-07-15T11:07:26Z</time>
      </trkpt>
      <trkpt lat="42.87403" lon="-0.18907">
        <ele>2331.4</ele>
        <time>2026-07-15T11:07:27Z</time>
      </trkpt>
      <trkpt lat="42.87403" lon="-0.18907">
        <ele>2331.4</ele>
        <time>2026-07-15T11:07:28Z</time>
      </trkpt>
      <trkpt lat="42.87403" lon="-0.18907">
        <ele>2331.4</ele>
        <time>2026-07-15T11:07:29Z</time>
      </trkpt>
      <trkpt lat="42.87402" lon="-0.18907">
        <ele>2331.4</ele>
        <time>2026-07-15T11:07:30Z</time>
      </trkpt>
      <trkpt lat="42.87402" lon="-0.18907">
        <ele>2331.4</ele>
        <time>2026-07-15T11:07:30Z</time>
      </trkpt>
      <trkpt lat="42.87402" lon="-0.18907">
        <ele>2331.4</ele>
        <time>2026-07-15T11:07:31Z</time>
      </trkpt>
      <trkpt lat="42.87402" lon="-0.18906">
        <ele>2331.4</ele>
        <time>2026-07-15T11:07:32Z</time>
      </trkpt>
      <trkpt lat="42.87402" lon="-0.18907">
        <ele>2331.4</ele>
        <time>2026-07-15T11:07:33Z</time>
      </trkpt>
      <trkpt lat="42.87402" lon="-0.18907">
        <ele>2331.4</ele>
        <time>2026-07-15T11:07:34Z</time>
      </trkpt>
      <trkpt lat="42.87402" lon="-0.18906">
        <ele>2331.4</ele>
        <time>2026-07-15T11:07:34Z</time>
      </trkpt>
      <trkpt lat="42.87402" lon="-0.18906">
        <ele>2330.4</ele>
        <time>2026-07-15T11:07:35Z</time>
      </trkpt>
      <trkpt lat="42.87402" lon="-0.18906">
        <ele>2330.4</ele>
        <time>2026-07-15T11:07:36Z</time>
      </trkpt>
      <trkpt lat="42.87402" lon="-0.18906">
        <ele>2330.4</ele>
        <time>2026-07-15T11:07:37Z</time>
      </trkpt>
      <trkpt lat="42.87402" lon="-0.18905">
        <ele>2330.4</ele>
        <time>2026-07-15T11:07:38Z</time>
      </trkpt>
      <trkpt lat="42.87402" lon="-0.18903">
        <ele>2330.4</ele>
        <time>2026-07-15T11:07:39Z</time>
      </trkpt>
      <trkpt lat="42.87402" lon="-0.18902">
        <ele>2330.4</ele>
        <time>2026-07-15T11:07:40Z</time>
      </trkpt>
      <trkpt lat="42.87402" lon="-0.18901">
        <ele>2330.4</ele>
        <time>2026-07-15T11:07:40Z</time>
      </trkpt>
      <trkpt lat="42.87402" lon="-0.189">
        <ele>2330.4</ele>
        <time>2026-07-15T11:07:41Z</time>
      </trkpt>
      <trkpt lat="42.87402" lon="-0.18899">
        <ele>2330.4</ele>
        <time>2026-07-15T11:07:42Z</time>
      </trkpt>
      <trkpt lat="42.87402" lon="-0.18897">
        <ele>2330.4</ele>
        <time>2026-07-15T11:07:43Z</time>
      </trkpt>
      <trkpt lat="42.87401" lon="-0.18895">
        <ele>2329.4</ele>
        <time>2026-07-15T11:07:44Z</time>
      </trkpt>
      <trkpt lat="42.87401" lon="-0.18894">
        <ele>2329.4</ele>
        <time>2026-07-15T11:07:45Z</time>
      </trkpt>
      <trkpt lat="42.87402" lon="-0.18893">
        <ele>2330.4</ele>
        <time>2026-07-15T11:07:45Z</time>
      </trkpt>
      <trkpt lat="42.87403" lon="-0.18892">
        <ele>2330.4</ele>
        <time>2026-07-15T11:07:46Z</time>
      </trkpt>
      <trkpt lat="42.87403" lon="-0.18892">
        <ele>2330.4</ele>
        <time>2026-07-15T11:07:47Z</time>
      </trkpt>
      <trkpt lat="42.87404" lon="-0.18891">
        <ele>2331.4</ele>
        <time>2026-07-15T11:07:47Z</time>
      </trkpt>
      <trkpt lat="42.87404" lon="-0.18891">
        <ele>2331.4</ele>
        <time>2026-07-15T11:07:48Z</time>
      </trkpt>
      <trkpt lat="42.87405" lon="-0.1889">
        <ele>2332.4</ele>
        <time>2026-07-15T11:07:48Z</time>
      </trkpt>
      <trkpt lat="42.87405" lon="-0.18889">
        <ele>2332.4</ele>
        <time>2026-07-15T11:07:49Z</time>
      </trkpt>
      <trkpt lat="42.87406" lon="-0.18889">
        <ele>2331.4</ele>
        <time>2026-07-15T11:07:50Z</time>
      </trkpt>
      <trkpt lat="42.87406" lon="-0.18888">
        <ele>2331.4</ele>
        <time>2026-07-15T11:07:50Z</time>
      </trkpt>
      <trkpt lat="42.87407" lon="-0.18888">
        <ele>2332.4</ele>
        <time>2026-07-15T11:07:51Z</time>
      </trkpt>
      <trkpt lat="42.87407" lon="-0.18887">
        <ele>2332.4</ele>
        <time>2026-07-15T11:07:52Z</time>
      </trkpt>
      <trkpt lat="42.87407" lon="-0.18886">
        <ele>2332.4</ele>
        <time>2026-07-15T11:07:53Z</time>
      </trkpt>
      <trkpt lat="42.87407" lon="-0.18886">
        <ele>2331.4</ele>
        <time>2026-07-15T11:07:54Z</time>
      </trkpt>
      <trkpt lat="42.87407" lon="-0.18885">
        <ele>2331.4</ele>
        <time>2026-07-15T11:07:55Z</time>
      </trkpt>
      <trkpt lat="42.87407" lon="-0.18885">
        <ele>2331.4</ele>
        <time>2026-07-15T11:07:56Z</time>
      </trkpt>
      <trkpt lat="42.87407" lon="-0.18884">
        <ele>2330.4</ele>
        <time>2026-07-15T11:07:56Z</time>
      </trkpt>
      <trkpt lat="42.87408" lon="-0.18884">
        <ele>2330.4</ele>
        <time>2026-07-15T11:07:57Z</time>
      </trkpt>
      <trkpt lat="42.87408" lon="-0.18884">
        <ele>2332.4</ele>
        <time>2026-07-15T11:07:58Z</time>
      </trkpt>
      <trkpt lat="42.87408" lon="-0.18884">
        <ele>2332.4</ele>
        <time>2026-07-15T11:07:59Z</time>
      </trkpt>
      <trkpt lat="42.87408" lon="-0.18884">
        <ele>2332.4</ele>
        <time>2026-07-15T11:08:00Z</time>
      </trkpt>
      <trkpt lat="42.87408" lon="-0.18885">
        <ele>2332.4</ele>
        <time>2026-07-15T11:08:01Z</time>
      </trkpt>
      <trkpt lat="42.87408" lon="-0.18885">
        <ele>2332.4</ele>
        <time>2026-07-15T11:08:02Z</time>
      </trkpt>
      <trkpt lat="42.87409" lon="-0.18884">
        <ele>2332.4</ele>
        <time>2026-07-15T11:08:03Z</time>
      </trkpt>
      <trkpt lat="42.87409" lon="-0.18884">
        <ele>2332.4</ele>
        <time>2026-07-15T11:08:04Z</time>
      </trkpt>
      <trkpt lat="42.87409" lon="-0.18883">
        <ele>2333.4</ele>
        <time>2026-07-15T11:08:04Z</time>
      </trkpt>
      <trkpt lat="42.87409" lon="-0.18883">
        <ele>2333.4</ele>
        <time>2026-07-15T11:08:05Z</time>
      </trkpt>
      <trkpt lat="42.87409" lon="-0.18883">
        <ele>2333.4</ele>
        <time>2026-07-15T11:08:06Z</time>
      </trkpt>
      <trkpt lat="42.87409" lon="-0.18882">
        <ele>2333.4</ele>
        <time>2026-07-15T11:08:07Z</time>
      </trkpt>
      <trkpt lat="42.87409" lon="-0.18882">
        <ele>2333.4</ele>
        <time>2026-07-15T11:08:07Z</time>
      </trkpt>
      <trkpt lat="42.87409" lon="-0.18881">
        <ele>2332.4</ele>
        <time>2026-07-15T11:08:08Z</time>
      </trkpt>
      <trkpt lat="42.87409" lon="-0.1888">
        <ele>2332.4</ele>
        <time>2026-07-15T11:08:09Z</time>
      </trkpt>
      <trkpt lat="42.87409" lon="-0.18879">
        <ele>2331.4</ele>
        <time>2026-07-15T11:08:09Z</time>
      </trkpt>
      <trkpt lat="42.87409" lon="-0.18878">
        <ele>2331.4</ele>
        <time>2026-07-15T11:08:10Z</time>
      </trkpt>
      <trkpt lat="42.87409" lon="-0.18878">
        <ele>2331.4</ele>
        <time>2026-07-15T11:08:11Z</time>
      </trkpt>
      <trkpt lat="42.87409" lon="-0.18877">
        <ele>2331.4</ele>
        <time>2026-07-15T11:08:12Z</time>
      </trkpt>
      <trkpt lat="42.87409" lon="-0.18876">
        <ele>2332.4</ele>
        <time>2026-07-15T11:08:12Z</time>
      </trkpt>
      <trkpt lat="42.87409" lon="-0.18875">
        <ele>2331.4</ele>
        <time>2026-07-15T11:08:13Z</time>
      </trkpt>
      <trkpt lat="42.87408" lon="-0.18873">
        <ele>2331.4</ele>
        <time>2026-07-15T11:08:14Z</time>
      </trkpt>
      <trkpt lat="42.87408" lon="-0.18873">
        <ele>2331.4</ele>
        <time>2026-07-15T11:08:15Z</time>
      </trkpt>
      <trkpt lat="42.87408" lon="-0.18872">
        <ele>2330.4</ele>
        <time>2026-07-15T11:08:15Z</time>
      </trkpt>
      <trkpt lat="42.87408" lon="-0.18871">
        <ele>2330.4</ele>
        <time>2026-07-15T11:08:16Z</time>
      </trkpt>
      <trkpt lat="42.87408" lon="-0.1887">
        <ele>2330.4</ele>
        <time>2026-07-15T11:08:17Z</time>
      </trkpt>
      <trkpt lat="42.87408" lon="-0.1887">
        <ele>2330.4</ele>
        <time>2026-07-15T11:08:17Z</time>
      </trkpt>
      <trkpt lat="42.87407" lon="-0.18869">
        <ele>2329.4</ele>
        <time>2026-07-15T11:08:18Z</time>
      </trkpt>
      <trkpt lat="42.87407" lon="-0.18868">
        <ele>2329.4</ele>
        <time>2026-07-15T11:08:19Z</time>
      </trkpt>
      <trkpt lat="42.87408" lon="-0.18867">
        <ele>2329.4</ele>
        <time>2026-07-15T11:08:20Z</time>
      </trkpt>
      <trkpt lat="42.87408" lon="-0.18867">
        <ele>2330.4</ele>
        <time>2026-07-15T11:08:20Z</time>
      </trkpt>
      <trkpt lat="42.87409" lon="-0.18866">
        <ele>2329.4</ele>
        <time>2026-07-15T11:08:21Z</time>
      </trkpt>
      <trkpt lat="42.87409" lon="-0.18865">
        <ele>2329.4</ele>
        <time>2026-07-15T11:08:22Z</time>
      </trkpt>
      <trkpt lat="42.8741" lon="-0.18864">
        <ele>2329.4</ele>
        <time>2026-07-15T11:08:23Z</time>
      </trkpt>
      <trkpt lat="42.8741" lon="-0.18863">
        <ele>2329.4</ele>
        <time>2026-07-15T11:08:23Z</time>
      </trkpt>
      <trkpt lat="42.8741" lon="-0.18862">
        <ele>2329.4</ele>
        <time>2026-07-15T11:08:24Z</time>
      </trkpt>
      <trkpt lat="42.8741" lon="-0.18862">
        <ele>2329.4</ele>
        <time>2026-07-15T11:08:25Z</time>
      </trkpt>
      <trkpt lat="42.8741" lon="-0.18861">
        <ele>2330.4</ele>
        <time>2026-07-15T11:08:26Z</time>
      </trkpt>
      <trkpt lat="42.8741" lon="-0.1886">
        <ele>2330.4</ele>
        <time>2026-07-15T11:08:27Z</time>
      </trkpt>
      <trkpt lat="42.8741" lon="-0.18859">
        <ele>2330.4</ele>
        <time>2026-07-15T11:08:27Z</time>
      </trkpt>
      <trkpt lat="42.87411" lon="-0.18859">
        <ele>2330.4</ele>
        <time>2026-07-15T11:08:28Z</time>
      </trkpt>
      <trkpt lat="42.87411" lon="-0.18858">
        <ele>2330.4</ele>
        <time>2026-07-15T11:08:29Z</time>
      </trkpt>
      <trkpt lat="42.87411" lon="-0.18858">
        <ele>2331.4</ele>
        <time>2026-07-15T11:08:29Z</time>
      </trkpt>
      <trkpt lat="42.87412" lon="-0.18858">
        <ele>2331.4</ele>
        <time>2026-07-15T11:08:30Z</time>
      </trkpt>
      <trkpt lat="42.87412" lon="-0.18858">
        <ele>2331.4</ele>
        <time>2026-07-15T11:08:31Z</time>
      </trkpt>
      <trkpt lat="42.87412" lon="-0.18858">
        <ele>2331.4</ele>
        <time>2026-07-15T11:08:32Z</time>
      </trkpt>
      <trkpt lat="42.87413" lon="-0.18857">
        <ele>2332.4</ele>
        <time>2026-07-15T11:08:32Z</time>
      </trkpt>
      <trkpt lat="42.87413" lon="-0.18857">
        <ele>2332.4</ele>
        <time>2026-07-15T11:08:33Z</time>
      </trkpt>
      <trkpt lat="42.87413" lon="-0.18856">
        <ele>2332.4</ele>
        <time>2026-07-15T11:08:34Z</time>
      </trkpt>
      <trkpt lat="42.87413" lon="-0.18855">
        <ele>2333.4</ele>
        <time>2026-07-15T11:08:35Z</time>
      </trkpt>
      <trkpt lat="42.87413" lon="-0.18854">
        <ele>2332.4</ele>
        <time>2026-07-15T11:08:36Z</time>
      </trkpt>
      <trkpt lat="42.87413" lon="-0.18854">
        <ele>2332.4</ele>
        <time>2026-07-15T11:08:37Z</time>
      </trkpt>
      <trkpt lat="42.87413" lon="-0.18854">
        <ele>2332.4</ele>
        <time>2026-07-15T11:08:38Z</time>
      </trkpt>
      <trkpt lat="42.87413" lon="-0.18854">
        <ele>2332.4</ele>
        <time>2026-07-15T11:08:39Z</time>
      </trkpt>
      <trkpt lat="42.87413" lon="-0.18854">
        <ele>2332.4</ele>
        <time>2026-07-15T11:08:40Z</time>
      </trkpt>
      <trkpt lat="42.87413" lon="-0.18854">
        <ele>2332.4</ele>
        <time>2026-07-15T11:08:41Z</time>
      </trkpt>
      <trkpt lat="42.87413" lon="-0.18854">
        <ele>2332.4</ele>
        <time>2026-07-15T11:08:42Z</time>
      </trkpt>
      <trkpt lat="42.87413" lon="-0.18854">
        <ele>2332.4</ele>
        <time>2026-07-15T11:08:43Z</time>
      </trkpt>
      <trkpt lat="42.87413" lon="-0.18854">
        <ele>2332.4</ele>
        <time>2026-07-15T11:08:44Z</time>
      </trkpt>
      <trkpt lat="42.87413" lon="-0.18854">
        <ele>2332.4</ele>
        <time>2026-07-15T11:08:45Z</time>
      </trkpt>
      <trkpt lat="42.87413" lon="-0.18854">
        <ele>2331.4</ele>
        <time>2026-07-15T11:08:46Z</time>
      </trkpt>
      <trkpt lat="42.87413" lon="-0.18853">
        <ele>2331.4</ele>
        <time>2026-07-15T11:08:47Z</time>
      </trkpt>
      <trkpt lat="42.87413" lon="-0.18853">
        <ele>2331.4</ele>
        <time>2026-07-15T11:08:48Z</time>
      </trkpt>
      <trkpt lat="42.87413" lon="-0.18853">
        <ele>2331.4</ele>
        <time>2026-07-15T11:08:49Z</time>
      </trkpt>
      <trkpt lat="42.87413" lon="-0.18852">
        <ele>2330.4</ele>
        <time>2026-07-15T11:08:50Z</time>
      </trkpt>
      <trkpt lat="42.87413" lon="-0.18851">
        <ele>2330.4</ele>
        <time>2026-07-15T11:08:51Z</time>
      </trkpt>
      <trkpt lat="42.87413" lon="-0.1885">
        <ele>2330.4</ele>
        <time>2026-07-15T11:08:52Z</time>
      </trkpt>
      <trkpt lat="42.87412" lon="-0.18849">
        <ele>2330.4</ele>
        <time>2026-07-15T11:08:53Z</time>
      </trkpt>
      <trkpt lat="42.87412" lon="-0.18848">
        <ele>2329.4</ele>
        <time>2026-07-15T11:08:53Z</time>
      </trkpt>
      <trkpt lat="42.87412" lon="-0.18847">
        <ele>2329.4</ele>
        <time>2026-07-15T11:08:54Z</time>
      </trkpt>
      <trkpt lat="42.87412" lon="-0.18846">
        <ele>2329.4</ele>
        <time>2026-07-15T11:08:55Z</time>
      </trkpt>
      <trkpt lat="42.87412" lon="-0.18845">
        <ele>2329.4</ele>
        <time>2026-07-15T11:08:55Z</time>
      </trkpt>
      <trkpt lat="42.87412" lon="-0.18844">
        <ele>2329.4</ele>
        <time>2026-07-15T11:08:56Z</time>
      </trkpt>
      <trkpt lat="42.87413" lon="-0.18843">
        <ele>2329.4</ele>
        <time>2026-07-15T11:08:57Z</time>
      </trkpt>
      <trkpt lat="42.87413" lon="-0.18842">
        <ele>2330.4</ele>
        <time>2026-07-15T11:08:57Z</time>
      </trkpt>
      <trkpt lat="42.87413" lon="-0.18841">
        <ele>2331.4</ele>
        <time>2026-07-15T11:08:58Z</time>
      </trkpt>
      <trkpt lat="42.87414" lon="-0.1884">
        <ele>2331.4</ele>
        <time>2026-07-15T11:08:59Z</time>
      </trkpt>
      <trkpt lat="42.87414" lon="-0.18839">
        <ele>2331.4</ele>
        <time>2026-07-15T11:09:00Z</time>
      </trkpt>
      <trkpt lat="42.87414" lon="-0.18838">
        <ele>2331.4</ele>
        <time>2026-07-15T11:09:01Z</time>
      </trkpt>
      <trkpt lat="42.87414" lon="-0.18838">
        <ele>2331.4</ele>
        <time>2026-07-15T11:09:02Z</time>
      </trkpt>
      <trkpt lat="42.87414" lon="-0.18837">
        <ele>2331.4</ele>
        <time>2026-07-15T11:09:03Z</time>
      </trkpt>
      <trkpt lat="42.87414" lon="-0.18837">
        <ele>2331.4</ele>
        <time>2026-07-15T11:09:03Z</time>
      </trkpt>
      <trkpt lat="42.87415" lon="-0.18836">
        <ele>2332.4</ele>
        <time>2026-07-15T11:09:04Z</time>
      </trkpt>
      <trkpt lat="42.87415" lon="-0.18836">
        <ele>2332.4</ele>
        <time>2026-07-15T11:09:05Z</time>
      </trkpt>
      <trkpt lat="42.87415" lon="-0.18836">
        <ele>2332.4</ele>
        <time>2026-07-15T11:09:06Z</time>
      </trkpt>
      <trkpt lat="42.87415" lon="-0.18836">
        <ele>2332.4</ele>
        <time>2026-07-15T11:09:07Z</time>
      </trkpt>
      <trkpt lat="42.87415" lon="-0.18836">
        <ele>2332.4</ele>
        <time>2026-07-15T11:09:08Z</time>
      </trkpt>
      <trkpt lat="42.87415" lon="-0.18836">
        <ele>2332.4</ele>
        <time>2026-07-15T11:09:09Z</time>
      </trkpt>
      <trkpt lat="42.87415" lon="-0.18836">
        <ele>2332.4</ele>
        <time>2026-07-15T11:09:10Z</time>
      </trkpt>
      <trkpt lat="42.87416" lon="-0.18836">
        <ele>2332.4</ele>
        <time>2026-07-15T11:09:10Z</time>
      </trkpt>
      <trkpt lat="42.87416" lon="-0.18836">
        <ele>2332.4</ele>
        <time>2026-07-15T11:09:11Z</time>
      </trkpt>
      <trkpt lat="42.87416" lon="-0.18836">
        <ele>2332.4</ele>
        <time>2026-07-15T11:09:12Z</time>
      </trkpt>
      <trkpt lat="42.87417" lon="-0.18835">
        <ele>2332.4</ele>
        <time>2026-07-15T11:09:12Z</time>
      </trkpt>
      <trkpt lat="42.87418" lon="-0.18835">
        <ele>2332.4</ele>
        <time>2026-07-15T11:09:13Z</time>
      </trkpt>
      <trkpt lat="42.87419" lon="-0.18834">
        <ele>2333.4</ele>
        <time>2026-07-15T11:09:14Z</time>
      </trkpt>
      <trkpt lat="42.8742" lon="-0.18834">
        <ele>2333.4</ele>
        <time>2026-07-15T11:09:14Z</time>
      </trkpt>
      <trkpt lat="42.8742" lon="-0.18833">
        <ele>2333.4</ele>
        <time>2026-07-15T11:09:15Z</time>
      </trkpt>
      <trkpt lat="42.87421" lon="-0.18832">
        <ele>2333.4</ele>
        <time>2026-07-15T11:09:16Z</time>
      </trkpt>
      <trkpt lat="42.87421" lon="-0.18831">
        <ele>2333.4</ele>
        <time>2026-07-15T11:09:16Z</time>
      </trkpt>
      <trkpt lat="42.87421" lon="-0.1883">
        <ele>2332.4</ele>
        <time>2026-07-15T11:09:17Z</time>
      </trkpt>
      <trkpt lat="42.87422" lon="-0.18829">
        <ele>2332.4</ele>
        <time>2026-07-15T11:09:18Z</time>
      </trkpt>
      <trkpt lat="42.87422" lon="-0.18829">
        <ele>2332.4</ele>
        <time>2026-07-15T11:09:18Z</time>
      </trkpt>
      <trkpt lat="42.87422" lon="-0.18828">
        <ele>2332.4</ele>
        <time>2026-07-15T11:09:19Z</time>
      </trkpt>
      <trkpt lat="42.87423" lon="-0.18828">
        <ele>2331.4</ele>
        <time>2026-07-15T11:09:20Z</time>
      </trkpt>
      <trkpt lat="42.87423" lon="-0.18828">
        <ele>2332.4</ele>
        <time>2026-07-15T11:09:20Z</time>
      </trkpt>
      <trkpt lat="42.87423" lon="-0.18828">
        <ele>2332.4</ele>
        <time>2026-07-15T11:09:21Z</time>
      </trkpt>
      <trkpt lat="42.87423" lon="-0.18828">
        <ele>2332.4</ele>
        <time>2026-07-15T11:09:22Z</time>
      </trkpt>
      <trkpt lat="42.87423" lon="-0.18828">
        <ele>2331.4</ele>
        <time>2026-07-15T11:09:22Z</time>
      </trkpt>
      <trkpt lat="42.87424" lon="-0.18828">
        <ele>2331.4</ele>
        <time>2026-07-15T11:09:23Z</time>
      </trkpt>
      <trkpt lat="42.87424" lon="-0.18828">
        <ele>2331.4</ele>
        <time>2026-07-15T11:09:23Z</time>
      </trkpt>
      <trkpt lat="42.87424" lon="-0.18827">
        <ele>2331.4</ele>
        <time>2026-07-15T11:09:24Z</time>
      </trkpt>
      <trkpt lat="42.87425" lon="-0.18827">
        <ele>2331.4</ele>
        <time>2026-07-15T11:09:24Z</time>
      </trkpt>
      <trkpt lat="42.87425" lon="-0.18827">
        <ele>2330.4</ele>
        <time>2026-07-15T11:09:25Z</time>
      </trkpt>
      <trkpt lat="42.87426" lon="-0.18827">
        <ele>2330.4</ele>
        <time>2026-07-15T11:09:26Z</time>
      </trkpt>
      <trkpt lat="42.87426" lon="-0.18826">
        <ele>2331.4</ele>
        <time>2026-07-15T11:09:26Z</time>
      </trkpt>
      <trkpt lat="42.87427" lon="-0.18826">
        <ele>2331.4</ele>
        <time>2026-07-15T11:09:27Z</time>
      </trkpt>
      <trkpt lat="42.87428" lon="-0.18826">
        <ele>2331.4</ele>
        <time>2026-07-15T11:09:27Z</time>
      </trkpt>
      <trkpt lat="42.87428" lon="-0.18826">
        <ele>2331.4</ele>
        <time>2026-07-15T11:09:28Z</time>
      </trkpt>
      <trkpt lat="42.87429" lon="-0.18826">
        <ele>2331.4</ele>
        <time>2026-07-15T11:09:29Z</time>
      </trkpt>
      <trkpt lat="42.87429" lon="-0.18826">
        <ele>2331.4</ele>
        <time>2026-07-15T11:09:29Z</time>
      </trkpt>
      <trkpt lat="42.8743" lon="-0.18827">
        <ele>2331.4</ele>
        <time>2026-07-15T11:09:30Z</time>
      </trkpt>
      <trkpt lat="42.8743" lon="-0.18827">
        <ele>2330.4</ele>
        <time>2026-07-15T11:09:30Z</time>
      </trkpt>
      <trkpt lat="42.87431" lon="-0.18827">
        <ele>2330.4</ele>
        <time>2026-07-15T11:09:31Z</time>
      </trkpt>
      <trkpt lat="42.87431" lon="-0.18827">
        <ele>2330.4</ele>
        <time>2026-07-15T11:09:32Z</time>
      </trkpt>
      <trkpt lat="42.87431" lon="-0.18827">
        <ele>2330.4</ele>
        <time>2026-07-15T11:09:32Z</time>
      </trkpt>
      <trkpt lat="42.87432" lon="-0.18827">
        <ele>2330.4</ele>
        <time>2026-07-15T11:09:33Z</time>
      </trkpt>
      <trkpt lat="42.87433" lon="-0.18827">
        <ele>2330.4</ele>
        <time>2026-07-15T11:09:34Z</time>
      </trkpt>
      <trkpt lat="42.87433" lon="-0.18827">
        <ele>2330.4</ele>
        <time>2026-07-15T11:09:34Z</time>
      </trkpt>
      <trkpt lat="42.87434" lon="-0.18827">
        <ele>2330.4</ele>
        <time>2026-07-15T11:09:35Z</time>
      </trkpt>
      <trkpt lat="42.87434" lon="-0.18826">
        <ele>2329.4</ele>
        <time>2026-07-15T11:09:36Z</time>
      </trkpt>
      <trkpt lat="42.87435" lon="-0.18826">
        <ele>2329.4</ele>
        <time>2026-07-15T11:09:37Z</time>
      </trkpt>
      <trkpt lat="42.87435" lon="-0.18826">
        <ele>2329.4</ele>
        <time>2026-07-15T11:09:37Z</time>
      </trkpt>
      <trkpt lat="42.87435" lon="-0.18825">
        <ele>2329.4</ele>
        <time>2026-07-15T11:09:38Z</time>
      </trkpt>
      <trkpt lat="42.87436" lon="-0.18825">
        <ele>2329.4</ele>
        <time>2026-07-15T11:09:39Z</time>
      </trkpt>
      <trkpt lat="42.87436" lon="-0.18825">
        <ele>2328.4</ele>
        <time>2026-07-15T11:09:40Z</time>
      </trkpt>
      <trkpt lat="42.87435" lon="-0.18825">
        <ele>2328.4</ele>
        <time>2026-07-15T11:09:40Z</time>
      </trkpt>
      <trkpt lat="42.87436" lon="-0.18824">
        <ele>2328.4</ele>
        <time>2026-07-15T11:09:41Z</time>
      </trkpt>
      <trkpt lat="42.87435" lon="-0.18824">
        <ele>2328.4</ele>
        <time>2026-07-15T11:09:42Z</time>
      </trkpt>
      <trkpt lat="42.87435" lon="-0.18824">
        <ele>2328.4</ele>
        <time>2026-07-15T11:09:42Z</time>
      </trkpt>
      <trkpt lat="42.87436" lon="-0.18824">
        <ele>2327.4</ele>
        <time>2026-07-15T11:09:43Z</time>
      </trkpt>
      <trkpt lat="42.87436" lon="-0.18823">
        <ele>2327.4</ele>
        <time>2026-07-15T11:09:44Z</time>
      </trkpt>
      <trkpt lat="42.87437" lon="-0.18823">
        <ele>2326.4</ele>
        <time>2026-07-15T11:09:45Z</time>
      </trkpt>
      <trkpt lat="42.87437" lon="-0.18823">
        <ele>2327.4</ele>
        <time>2026-07-15T11:09:46Z</time>
      </trkpt>
      <trkpt lat="42.87437" lon="-0.18822">
        <ele>2327.4</ele>
        <time>2026-07-15T11:09:47Z</time>
      </trkpt>
      <trkpt lat="42.87437" lon="-0.18822">
        <ele>2327.4</ele>
        <time>2026-07-15T11:09:48Z</time>
      </trkpt>
      <trkpt lat="42.87438" lon="-0.18822">
        <ele>2328.4</ele>
        <time>2026-07-15T11:09:49Z</time>
      </trkpt>
      <trkpt lat="42.87438" lon="-0.18822">
        <ele>2328.4</ele>
        <time>2026-07-15T11:09:49Z</time>
      </trkpt>
      <trkpt lat="42.87438" lon="-0.18821">
        <ele>2328.4</ele>
        <time>2026-07-15T11:09:50Z</time>
      </trkpt>
      <trkpt lat="42.87438" lon="-0.1882">
        <ele>2328.4</ele>
        <time>2026-07-15T11:09:51Z</time>
      </trkpt>
      <trkpt lat="42.87438" lon="-0.1882">
        <ele>2328.4</ele>
        <time>2026-07-15T11:09:51Z</time>
      </trkpt>
      <trkpt lat="42.87438" lon="-0.18819">
        <ele>2328.4</ele>
        <time>2026-07-15T11:09:52Z</time>
      </trkpt>
      <trkpt lat="42.87439" lon="-0.18819">
        <ele>2328.4</ele>
        <time>2026-07-15T11:09:53Z</time>
      </trkpt>
      <trkpt lat="42.87439" lon="-0.18818">
        <ele>2327.4</ele>
        <time>2026-07-15T11:09:54Z</time>
      </trkpt>
      <trkpt lat="42.87439" lon="-0.18818">
        <ele>2326.4</ele>
        <time>2026-07-15T11:09:55Z</time>
      </trkpt>
      <trkpt lat="42.87439" lon="-0.18818">
        <ele>2326.4</ele>
        <time>2026-07-15T11:09:56Z</time>
      </trkpt>
      <trkpt lat="42.87439" lon="-0.18817">
        <ele>2326.4</ele>
        <time>2026-07-15T11:09:57Z</time>
      </trkpt>
      <trkpt lat="42.8744" lon="-0.18817">
        <ele>2326.4</ele>
        <time>2026-07-15T11:09:57Z</time>
      </trkpt>
      <trkpt lat="42.8744" lon="-0.18817">
        <ele>2326.4</ele>
        <time>2026-07-15T11:09:58Z</time>
      </trkpt>
      <trkpt lat="42.8744" lon="-0.18817">
        <ele>2326.4</ele>
        <time>2026-07-15T11:09:59Z</time>
      </trkpt>
      <trkpt lat="42.87441" lon="-0.18817">
        <ele>2326.4</ele>
        <time>2026-07-15T11:10:00Z</time>
      </trkpt>
      <trkpt lat="42.87441" lon="-0.18817">
        <ele>2326.4</ele>
        <time>2026-07-15T11:10:00Z</time>
      </trkpt>
      <trkpt lat="42.87441" lon="-0.18817">
        <ele>2326.4</ele>
        <time>2026-07-15T11:10:01Z</time>
      </trkpt>
      <trkpt lat="42.87442" lon="-0.18817">
        <ele>2326.4</ele>
        <time>2026-07-15T11:10:02Z</time>
      </trkpt>
      <trkpt lat="42.87442" lon="-0.18817">
        <ele>2326.4</ele>
        <time>2026-07-15T11:10:02Z</time>
      </trkpt>
      <trkpt lat="42.87442" lon="-0.18816">
        <ele>2325.4</ele>
        <time>2026-07-15T11:10:03Z</time>
      </trkpt>
      <trkpt lat="42.87443" lon="-0.18816">
        <ele>2325.4</ele>
        <time>2026-07-15T11:10:04Z</time>
      </trkpt>
      <trkpt lat="42.87443" lon="-0.18815">
        <ele>2325.4</ele>
        <time>2026-07-15T11:10:05Z</time>
      </trkpt>
      <trkpt lat="42.87443" lon="-0.18815">
        <ele>2325.4</ele>
        <time>2026-07-15T11:10:06Z</time>
      </trkpt>
      <trkpt lat="42.87444" lon="-0.18815">
        <ele>2325.4</ele>
        <time>2026-07-15T11:10:07Z</time>
      </trkpt>
      <trkpt lat="42.87444" lon="-0.18815">
        <ele>2325.4</ele>
        <time>2026-07-15T11:10:07Z</time>
      </trkpt>
      <trkpt lat="42.87444" lon="-0.18815">
        <ele>2326.4</ele>
        <time>2026-07-15T11:10:08Z</time>
      </trkpt>
      <trkpt lat="42.87444" lon="-0.18815">
        <ele>2326.4</ele>
        <time>2026-07-15T11:10:09Z</time>
      </trkpt>
      <trkpt lat="42.87444" lon="-0.18815">
        <ele>2326.4</ele>
        <time>2026-07-15T11:10:10Z</time>
      </trkpt>
      <trkpt lat="42.87444" lon="-0.18815">
        <ele>2326.4</ele>
        <time>2026-07-15T11:10:10Z</time>
      </trkpt>
      <trkpt lat="42.87444" lon="-0.18814">
        <ele>2325.4</ele>
        <time>2026-07-15T11:10:11Z</time>
      </trkpt>
      <trkpt lat="42.87445" lon="-0.18814">
        <ele>2325.4</ele>
        <time>2026-07-15T11:10:12Z</time>
      </trkpt>
      <trkpt lat="42.87446" lon="-0.18814">
        <ele>2325.4</ele>
        <time>2026-07-15T11:10:13Z</time>
      </trkpt>
      <trkpt lat="42.87446" lon="-0.18813">
        <ele>2325.4</ele>
        <time>2026-07-15T11:10:14Z</time>
      </trkpt>
      <trkpt lat="42.87447" lon="-0.18813">
        <ele>2325.4</ele>
        <time>2026-07-15T11:10:14Z</time>
      </trkpt>
      <trkpt lat="42.87447" lon="-0.18814">
        <ele>2325.4</ele>
        <time>2026-07-15T11:10:15Z</time>
      </trkpt>
      <trkpt lat="42.87447" lon="-0.18815">
        <ele>2325.4</ele>
        <time>2026-07-15T11:10:16Z</time>
      </trkpt>
      <trkpt lat="42.87448" lon="-0.18815">
        <ele>2325.4</ele>
        <time>2026-07-15T11:10:16Z</time>
      </trkpt>
      <trkpt lat="42.87448" lon="-0.18815">
        <ele>2324.4</ele>
        <time>2026-07-15T11:10:17Z</time>
      </trkpt>
      <trkpt lat="42.87448" lon="-0.18815">
        <ele>2324.4</ele>
        <time>2026-07-15T11:10:18Z</time>
      </trkpt>
      <trkpt lat="42.87449" lon="-0.18815">
        <ele>2324.4</ele>
        <time>2026-07-15T11:10:19Z</time>
      </trkpt>
      <trkpt lat="42.87449" lon="-0.18814">
        <ele>2324.4</ele>
        <time>2026-07-15T11:10:20Z</time>
      </trkpt>
      <trkpt lat="42.87449" lon="-0.18813">
        <ele>2324.4</ele>
        <time>2026-07-15T11:10:21Z</time>
      </trkpt>
      <trkpt lat="42.87449" lon="-0.18813">
        <ele>2323.4</ele>
        <time>2026-07-15T11:10:21Z</time>
      </trkpt>
      <trkpt lat="42.87449" lon="-0.18812">
        <ele>2322.4</ele>
        <time>2026-07-15T11:10:22Z</time>
      </trkpt>
      <trkpt lat="42.87449" lon="-0.18811">
        <ele>2322.4</ele>
        <time>2026-07-15T11:10:23Z</time>
      </trkpt>
      <trkpt lat="42.87449" lon="-0.18811">
        <ele>2322.4</ele>
        <time>2026-07-15T11:10:24Z</time>
      </trkpt>
      <trkpt lat="42.87449" lon="-0.1881">
        <ele>2322.4</ele>
        <time>2026-07-15T11:10:24Z</time>
      </trkpt>
      <trkpt lat="42.87449" lon="-0.1881">
        <ele>2322.4</ele>
        <time>2026-07-15T11:10:25Z</time>
      </trkpt>
      <trkpt lat="42.87449" lon="-0.18809">
        <ele>2321.4</ele>
        <time>2026-07-15T11:10:26Z</time>
      </trkpt>
      <trkpt lat="42.87449" lon="-0.18808">
        <ele>2321.4</ele>
        <time>2026-07-15T11:10:26Z</time>
      </trkpt>
      <trkpt lat="42.87449" lon="-0.18808">
        <ele>2321.4</ele>
        <time>2026-07-15T11:10:27Z</time>
      </trkpt>
      <trkpt lat="42.87448" lon="-0.18807">
        <ele>2321.4</ele>
        <time>2026-07-15T11:10:27Z</time>
      </trkpt>
      <trkpt lat="42.87448" lon="-0.18807">
        <ele>2321.4</ele>
        <time>2026-07-15T11:10:28Z</time>
      </trkpt>
      <trkpt lat="42.87447" lon="-0.18806">
        <ele>2321.4</ele>
        <time>2026-07-15T11:10:29Z</time>
      </trkpt>
      <trkpt lat="42.87447" lon="-0.18805">
        <ele>2321.4</ele>
        <time>2026-07-15T11:10:30Z</time>
      </trkpt>
      <trkpt lat="42.87446" lon="-0.18804">
        <ele>2321.4</ele>
        <time>2026-07-15T11:10:31Z</time>
      </trkpt>
      <trkpt lat="42.87446" lon="-0.18804">
        <ele>2321.4</ele>
        <time>2026-07-15T11:10:32Z</time>
      </trkpt>
      <trkpt lat="42.87445" lon="-0.18804">
        <ele>2321.4</ele>
        <time>2026-07-15T11:10:32Z</time>
      </trkpt>
      <trkpt lat="42.87445" lon="-0.18804">
        <ele>2320.4</ele>
        <time>2026-07-15T11:10:33Z</time>
      </trkpt>
      <trkpt lat="42.87445" lon="-0.18803">
        <ele>2320.4</ele>
        <time>2026-07-15T11:10:34Z</time>
      </trkpt>
      <trkpt lat="42.87445" lon="-0.18803">
        <ele>2320.4</ele>
        <time>2026-07-15T11:10:35Z</time>
      </trkpt>
      <trkpt lat="42.87445" lon="-0.18802">
        <ele>2320.4</ele>
        <time>2026-07-15T11:10:36Z</time>
      </trkpt>
      <trkpt lat="42.87445" lon="-0.18801">
        <ele>2319.4</ele>
        <time>2026-07-15T11:10:37Z</time>
      </trkpt>
      <trkpt lat="42.87445" lon="-0.18801">
        <ele>2319.4</ele>
        <time>2026-07-15T11:10:38Z</time>
      </trkpt>
      <trkpt lat="42.87445" lon="-0.18801">
        <ele>2319.4</ele>
        <time>2026-07-15T11:10:39Z</time>
      </trkpt>
      <trkpt lat="42.87445" lon="-0.18801">
        <ele>2319.4</ele>
        <time>2026-07-15T11:10:40Z</time>
      </trkpt>
      <trkpt lat="42.87445" lon="-0.18801">
        <ele>2319.4</ele>
        <time>2026-07-15T11:10:41Z</time>
      </trkpt>
      <trkpt lat="42.87445" lon="-0.18801">
        <ele>2319.4</ele>
        <time>2026-07-15T11:10:42Z</time>
      </trkpt>
      <trkpt lat="42.87445" lon="-0.18801">
        <ele>2318.4</ele>
        <time>2026-07-15T11:10:43Z</time>
      </trkpt>
      <trkpt lat="42.87445" lon="-0.188">
        <ele>2319.4</ele>
        <time>2026-07-15T11:10:43Z</time>
      </trkpt>
      <trkpt lat="42.87445" lon="-0.188">
        <ele>2320.4</ele>
        <time>2026-07-15T11:10:44Z</time>
      </trkpt>
      <trkpt lat="42.87445" lon="-0.188">
        <ele>2320.4</ele>
        <time>2026-07-15T11:10:45Z</time>
      </trkpt>
      <trkpt lat="42.87445" lon="-0.18799">
        <ele>2321.4</ele>
        <time>2026-07-15T11:10:45Z</time>
      </trkpt>
      <trkpt lat="42.87445" lon="-0.18799">
        <ele>2321.4</ele>
        <time>2026-07-15T11:10:46Z</time>
      </trkpt>
      <trkpt lat="42.87445" lon="-0.18799">
        <ele>2321.4</ele>
        <time>2026-07-15T11:10:47Z</time>
      </trkpt>
      <trkpt lat="42.87446" lon="-0.18798">
        <ele>2321.4</ele>
        <time>2026-07-15T11:10:47Z</time>
      </trkpt>
      <trkpt lat="42.87447" lon="-0.18798">
        <ele>2322.4</ele>
        <time>2026-07-15T11:10:48Z</time>
      </trkpt>
      <trkpt lat="42.87447" lon="-0.18797">
        <ele>2322.4</ele>
        <time>2026-07-15T11:10:49Z</time>
      </trkpt>
      <trkpt lat="42.87447" lon="-0.18797">
        <ele>2322.4</ele>
        <time>2026-07-15T11:10:50Z</time>
      </trkpt>
      <trkpt lat="42.87448" lon="-0.18796">
        <ele>2320.4</ele>
        <time>2026-07-15T11:10:51Z</time>
      </trkpt>
      <trkpt lat="42.87448" lon="-0.18795">
        <ele>2320.4</ele>
        <time>2026-07-15T11:10:51Z</time>
      </trkpt>
      <trkpt lat="42.87448" lon="-0.18794">
        <ele>2321.4</ele>
        <time>2026-07-15T11:10:52Z</time>
      </trkpt>
      <trkpt lat="42.87448" lon="-0.18793">
        <ele>2320.4</ele>
        <time>2026-07-15T11:10:53Z</time>
      </trkpt>
      <trkpt lat="42.87448" lon="-0.18793">
        <ele>2320.4</ele>
        <time>2026-07-15T11:10:54Z</time>
      </trkpt>
      <trkpt lat="42.87449" lon="-0.18792">
        <ele>2320.4</ele>
        <time>2026-07-15T11:10:55Z</time>
      </trkpt>
      <trkpt lat="42.87449" lon="-0.18791">
        <ele>2321.4</ele>
        <time>2026-07-15T11:10:55Z</time>
      </trkpt>
      <trkpt lat="42.8745" lon="-0.1879">
        <ele>2321.4</ele>
        <time>2026-07-15T11:10:56Z</time>
      </trkpt>
      <trkpt lat="42.8745" lon="-0.1879">
        <ele>2321.4</ele>
        <time>2026-07-15T11:10:57Z</time>
      </trkpt>
      <trkpt lat="42.8745" lon="-0.1879">
        <ele>2321.4</ele>
        <time>2026-07-15T11:10:58Z</time>
      </trkpt>
      <trkpt lat="42.87451" lon="-0.18789">
        <ele>2321.4</ele>
        <time>2026-07-15T11:10:59Z</time>
      </trkpt>
      <trkpt lat="42.87452" lon="-0.18789">
        <ele>2321.4</ele>
        <time>2026-07-15T11:11:00Z</time>
      </trkpt>
      <trkpt lat="42.87452" lon="-0.18789">
        <ele>2321.4</ele>
        <time>2026-07-15T11:11:00Z</time>
      </trkpt>
      <trkpt lat="42.87453" lon="-0.18789">
        <ele>2320.4</ele>
        <time>2026-07-15T11:11:01Z</time>
      </trkpt>
      <trkpt lat="42.87453" lon="-0.18788">
        <ele>2320.4</ele>
        <time>2026-07-15T11:11:02Z</time>
      </trkpt>
      <trkpt lat="42.87454" lon="-0.18788">
        <ele>2321.4</ele>
        <time>2026-07-15T11:11:02Z</time>
      </trkpt>
      <trkpt lat="42.87454" lon="-0.18788">
        <ele>2321.4</ele>
        <time>2026-07-15T11:11:03Z</time>
      </trkpt>
      <trkpt lat="42.87455" lon="-0.18787">
        <ele>2321.4</ele>
        <time>2026-07-15T11:11:04Z</time>
      </trkpt>
      <trkpt lat="42.87455" lon="-0.18786">
        <ele>2320.4</ele>
        <time>2026-07-15T11:11:05Z</time>
      </trkpt>
      <trkpt lat="42.87456" lon="-0.18785">
        <ele>2320.4</ele>
        <time>2026-07-15T11:11:06Z</time>
      </trkpt>
      <trkpt lat="42.87456" lon="-0.18784">
        <ele>2320.4</ele>
        <time>2026-07-15T11:11:06Z</time>
      </trkpt>
      <trkpt lat="42.87456" lon="-0.18783">
        <ele>2320.4</ele>
        <time>2026-07-15T11:11:07Z</time>
      </trkpt>
      <trkpt lat="42.87457" lon="-0.18783">
        <ele>2320.4</ele>
        <time>2026-07-15T11:11:08Z</time>
      </trkpt>
      <trkpt lat="42.87457" lon="-0.18783">
        <ele>2320.4</ele>
        <time>2026-07-15T11:11:08Z</time>
      </trkpt>
      <trkpt lat="42.87457" lon="-0.18782">
        <ele>2320.4</ele>
        <time>2026-07-15T11:11:09Z</time>
      </trkpt>
      <trkpt lat="42.87457" lon="-0.18782">
        <ele>2320.4</ele>
        <time>2026-07-15T11:11:10Z</time>
      </trkpt>
      <trkpt lat="42.87457" lon="-0.18781">
        <ele>2320.4</ele>
        <time>2026-07-15T11:11:11Z</time>
      </trkpt>
      <trkpt lat="42.87457" lon="-0.18782">
        <ele>2320.4</ele>
        <time>2026-07-15T11:11:12Z</time>
      </trkpt>
      <trkpt lat="42.87457" lon="-0.18782">
        <ele>2320.4</ele>
        <time>2026-07-15T11:11:12Z</time>
      </trkpt>
      <trkpt lat="42.87457" lon="-0.18782">
        <ele>2320.4</ele>
        <time>2026-07-15T11:11:13Z</time>
      </trkpt>
      <trkpt lat="42.87457" lon="-0.18781">
        <ele>2320.4</ele>
        <time>2026-07-15T11:11:14Z</time>
      </trkpt>
      <trkpt lat="42.87457" lon="-0.18781">
        <ele>2320.4</ele>
        <time>2026-07-15T11:11:14Z</time>
      </trkpt>
      <trkpt lat="42.87458" lon="-0.18781">
        <ele>2320.4</ele>
        <time>2026-07-15T11:11:15Z</time>
      </trkpt>
      <trkpt lat="42.87458" lon="-0.18781">
        <ele>2320.4</ele>
        <time>2026-07-15T11:11:16Z</time>
      </trkpt>
      <trkpt lat="42.87458" lon="-0.18781">
        <ele>2320.4</ele>
        <time>2026-07-15T11:11:17Z</time>
      </trkpt>
      <trkpt lat="42.87458" lon="-0.18781">
        <ele>2320.4</ele>
        <time>2026-07-15T11:11:18Z</time>
      </trkpt>
      <trkpt lat="42.87458" lon="-0.18782">
        <ele>2320.4</ele>
        <time>2026-07-15T11:11:19Z</time>
      </trkpt>
      <trkpt lat="42.87458" lon="-0.18782">
        <ele>2320.4</ele>
        <time>2026-07-15T11:11:20Z</time>
      </trkpt>
      <trkpt lat="42.87458" lon="-0.18782">
        <ele>2320.4</ele>
        <time>2026-07-15T11:11:21Z</time>
      </trkpt>
      <trkpt lat="42.87458" lon="-0.18782">
        <ele>2320.4</ele>
        <time>2026-07-15T11:11:22Z</time>
      </trkpt>
      <trkpt lat="42.87458" lon="-0.18782">
        <ele>2320.4</ele>
        <time>2026-07-15T11:11:23Z</time>
      </trkpt>
      <trkpt lat="42.87458" lon="-0.18782">
        <ele>2320.4</ele>
        <time>2026-07-15T11:11:24Z</time>
      </trkpt>
      <trkpt lat="42.87458" lon="-0.18782">
        <ele>2319.4</ele>
        <time>2026-07-15T11:11:25Z</time>
      </trkpt>
      <trkpt lat="42.87458" lon="-0.18782">
        <ele>2319.4</ele>
        <time>2026-07-15T11:11:25Z</time>
      </trkpt>
      <trkpt lat="42.87458" lon="-0.18782">
        <ele>2319.4</ele>
        <time>2026-07-15T11:11:26Z</time>
      </trkpt>
      <trkpt lat="42.87458" lon="-0.18782">
        <ele>2319.4</ele>
        <time>2026-07-15T11:11:27Z</time>
      </trkpt>
      <trkpt lat="42.87458" lon="-0.18782">
        <ele>2319.4</ele>
        <time>2026-07-15T11:11:28Z</time>
      </trkpt>
      <trkpt lat="42.87458" lon="-0.18783">
        <ele>2319.4</ele>
        <time>2026-07-15T11:11:29Z</time>
      </trkpt>
      <trkpt lat="42.87458" lon="-0.18783">
        <ele>2319.4</ele>
        <time>2026-07-15T11:11:30Z</time>
      </trkpt>
      <trkpt lat="42.87458" lon="-0.18783">
        <ele>2319.4</ele>
        <time>2026-07-15T11:11:31Z</time>
      </trkpt>
      <trkpt lat="42.87458" lon="-0.18783">
        <ele>2319.4</ele>
        <time>2026-07-15T11:11:31Z</time>
      </trkpt>
      <trkpt lat="42.87458" lon="-0.18782">
        <ele>2319.4</ele>
        <time>2026-07-15T11:11:32Z</time>
      </trkpt>
      <trkpt lat="42.87458" lon="-0.18782">
        <ele>2319.4</ele>
        <time>2026-07-15T11:11:33Z</time>
      </trkpt>
      <trkpt lat="42.87458" lon="-0.18782">
        <ele>2319.4</ele>
        <time>2026-07-15T11:11:33Z</time>
      </trkpt>
      <trkpt lat="42.87458" lon="-0.18782">
        <ele>2319.4</ele>
        <time>2026-07-15T11:11:34Z</time>
      </trkpt>
      <trkpt lat="42.87458" lon="-0.18782">
        <ele>2319.4</ele>
        <time>2026-07-15T11:11:35Z</time>
      </trkpt>
      <trkpt lat="42.87458" lon="-0.18782">
        <ele>2319.4</ele>
        <time>2026-07-15T11:11:36Z</time>
      </trkpt>
      <trkpt lat="42.87458" lon="-0.18782">
        <ele>2319.4</ele>
        <time>2026-07-15T11:11:36Z</time>
      </trkpt>
      <trkpt lat="42.87458" lon="-0.18782">
        <ele>2319.4</ele>
        <time>2026-07-15T11:11:37Z</time>
      </trkpt>
      <trkpt lat="42.87458" lon="-0.18782">
        <ele>2319.4</ele>
        <time>2026-07-15T11:11:38Z</time>
      </trkpt>
      <trkpt lat="42.87458" lon="-0.18782">
        <ele>2319.4</ele>
        <time>2026-07-15T11:11:39Z</time>
      </trkpt>
      <trkpt lat="42.87458" lon="-0.18782">
        <ele>2320.4</ele>
        <time>2026-07-15T11:11:40Z</time>
      </trkpt>
      <trkpt lat="42.87459" lon="-0.18782">
        <ele>2320.4</ele>
        <time>2026-07-15T11:11:41Z</time>
      </trkpt>
      <trkpt lat="42.87459" lon="-0.18782">
        <ele>2320.4</ele>
        <time>2026-07-15T11:11:42Z</time>
      </trkpt>
      <trkpt lat="42.87459" lon="-0.18782">
        <ele>2320.4</ele>
        <time>2026-07-15T11:11:42Z</time>
      </trkpt>
      <trkpt lat="42.87459" lon="-0.18782">
        <ele>2319.4</ele>
        <time>2026-07-15T11:11:43Z</time>
      </trkpt>
      <trkpt lat="42.87459" lon="-0.18782">
        <ele>2319.4</ele>
        <time>2026-07-15T11:11:44Z</time>
      </trkpt>
      <trkpt lat="42.87459" lon="-0.18783">
        <ele>2319.4</ele>
        <time>2026-07-15T11:11:45Z</time>
      </trkpt>
      <trkpt lat="42.8746" lon="-0.18783">
        <ele>2319.4</ele>
        <time>2026-07-15T11:11:46Z</time>
      </trkpt>
      <trkpt lat="42.8746" lon="-0.18783">
        <ele>2319.4</ele>
        <time>2026-07-15T11:11:47Z</time>
      </trkpt>
      <trkpt lat="42.8746" lon="-0.18783">
        <ele>2318.4</ele>
        <time>2026-07-15T11:11:48Z</time>
      </trkpt>
      <trkpt lat="42.8746" lon="-0.18783">
        <ele>2318.4</ele>
        <time>2026-07-15T11:11:49Z</time>
      </trkpt>
      <trkpt lat="42.8746" lon="-0.18783">
        <ele>2318.4</ele>
        <time>2026-07-15T11:11:50Z</time>
      </trkpt>
      <trkpt lat="42.8746" lon="-0.18783">
        <ele>2317.4</ele>
        <time>2026-07-15T11:11:51Z</time>
      </trkpt>
      <trkpt lat="42.8746" lon="-0.18783">
        <ele>2316.4</ele>
        <time>2026-07-15T11:11:52Z</time>
      </trkpt>
      <trkpt lat="42.8746" lon="-0.18782">
        <ele>2316.4</ele>
        <time>2026-07-15T11:11:53Z</time>
      </trkpt>
      <trkpt lat="42.8746" lon="-0.18782">
        <ele>2316.4</ele>
        <time>2026-07-15T11:11:54Z</time>
      </trkpt>
      <trkpt lat="42.8746" lon="-0.18782">
        <ele>2316.4</ele>
        <time>2026-07-15T11:11:55Z</time>
      </trkpt>
      <trkpt lat="42.8746" lon="-0.18782">
        <ele>2316.4</ele>
        <time>2026-07-15T11:11:56Z</time>
      </trkpt>
      <trkpt lat="42.8746" lon="-0.18782">
        <ele>2316.4</ele>
        <time>2026-07-15T11:11:57Z</time>
      </trkpt>
      <trkpt lat="42.8746" lon="-0.18782">
        <ele>2316.4</ele>
        <time>2026-07-15T11:11:58Z</time>
      </trkpt>
      <trkpt lat="42.8746" lon="-0.18782">
        <ele>2316.4</ele>
        <time>2026-07-15T11:11:59Z</time>
      </trkpt>
      <trkpt lat="42.8746" lon="-0.18782">
        <ele>2316.4</ele>
        <time>2026-07-15T11:12:00Z</time>
      </trkpt>
      <trkpt lat="42.8746" lon="-0.18782">
        <ele>2316.4</ele>
        <time>2026-07-15T11:12:01Z</time>
      </trkpt>
      <trkpt lat="42.8746" lon="-0.18782">
        <ele>2316.4</ele>
        <time>2026-07-15T11:12:02Z</time>
      </trkpt>
      <trkpt lat="42.87461" lon="-0.18783">
        <ele>2316.4</ele>
        <time>2026-07-15T11:12:03Z</time>
      </trkpt>
      <trkpt lat="42.87461" lon="-0.18783">
        <ele>2316.4</ele>
        <time>2026-07-15T11:12:04Z</time>
      </trkpt>
      <trkpt lat="42.87461" lon="-0.18783">
        <ele>2316.4</ele>
        <time>2026-07-15T11:12:05Z</time>
      </trkpt>
      <trkpt lat="42.87462" lon="-0.18783">
        <ele>2316.4</ele>
        <time>2026-07-15T11:12:06Z</time>
      </trkpt>
      <trkpt lat="42.87462" lon="-0.18783">
        <ele>2315.4</ele>
        <time>2026-07-15T11:12:07Z</time>
      </trkpt>
      <trkpt lat="42.87462" lon="-0.18783">
        <ele>2315.4</ele>
        <time>2026-07-15T11:12:08Z</time>
      </trkpt>
      <trkpt lat="42.87462" lon="-0.18783">
        <ele>2315.4</ele>
        <time>2026-07-15T11:12:09Z</time>
      </trkpt>
      <trkpt lat="42.87462" lon="-0.18782">
        <ele>2315.4</ele>
        <time>2026-07-15T11:12:09Z</time>
      </trkpt>
      <trkpt lat="42.87463" lon="-0.18782">
        <ele>2314.4</ele>
        <time>2026-07-15T11:12:10Z</time>
      </trkpt>
      <trkpt lat="42.87463" lon="-0.18782">
        <ele>2315.4</ele>
        <time>2026-07-15T11:12:11Z</time>
      </trkpt>
      <trkpt lat="42.87463" lon="-0.18782">
        <ele>2315.4</ele>
        <time>2026-07-15T11:12:12Z</time>
      </trkpt>
      <trkpt lat="42.87463" lon="-0.18782">
        <ele>2315.4</ele>
        <time>2026-07-15T11:12:13Z</time>
      </trkpt>
      <trkpt lat="42.87464" lon="-0.18782">
        <ele>2315.4</ele>
        <time>2026-07-15T11:12:13Z</time>
      </trkpt>
      <trkpt lat="42.87464" lon="-0.18783">
        <ele>2314.4</ele>
        <time>2026-07-15T11:12:14Z</time>
      </trkpt>
      <trkpt lat="42.87465" lon="-0.18783">
        <ele>2314.4</ele>
        <time>2026-07-15T11:12:15Z</time>
      </trkpt>
      <trkpt lat="42.87465" lon="-0.18784">
        <ele>2314.4</ele>
        <time>2026-07-15T11:12:16Z</time>
      </trkpt>
      <trkpt lat="42.87466" lon="-0.18784">
        <ele>2314.4</ele>
        <time>2026-07-15T11:12:17Z</time>
      </trkpt>
      <trkpt lat="42.87467" lon="-0.18784">
        <ele>2313.4</ele>
        <time>2026-07-15T11:12:18Z</time>
      </trkpt>
      <trkpt lat="42.87468" lon="-0.18784">
        <ele>2313.4</ele>
        <time>2026-07-15T11:12:19Z</time>
      </trkpt>
      <trkpt lat="42.87468" lon="-0.18783">
        <ele>2313.4</ele>
        <time>2026-07-15T11:12:19Z</time>
      </trkpt>
      <trkpt lat="42.87468" lon="-0.18783">
        <ele>2313.4</ele>
        <time>2026-07-15T11:12:20Z</time>
      </trkpt>
      <trkpt lat="42.87468" lon="-0.18783">
        <ele>2313.4</ele>
        <time>2026-07-15T11:12:21Z</time>
      </trkpt>
      <trkpt lat="42.87468" lon="-0.18783">
        <ele>2313.4</ele>
        <time>2026-07-15T11:12:22Z</time>
      </trkpt>
      <trkpt lat="42.87468" lon="-0.18783">
        <ele>2313.4</ele>
        <time>2026-07-15T11:12:23Z</time>
      </trkpt>
      <trkpt lat="42.87468" lon="-0.18784">
        <ele>2313.4</ele>
        <time>2026-07-15T11:12:24Z</time>
      </trkpt>
      <trkpt lat="42.87468" lon="-0.18784">
        <ele>2312.4</ele>
        <time>2026-07-15T11:12:25Z</time>
      </trkpt>
      <trkpt lat="42.87468" lon="-0.18784">
        <ele>2312.4</ele>
        <time>2026-07-15T11:12:26Z</time>
      </trkpt>
      <trkpt lat="42.87468" lon="-0.18784">
        <ele>2312.4</ele>
        <time>2026-07-15T11:12:26Z</time>
      </trkpt>
      <trkpt lat="42.87468" lon="-0.18784">
        <ele>2312.4</ele>
        <time>2026-07-15T11:12:27Z</time>
      </trkpt>
      <trkpt lat="42.87468" lon="-0.18783">
        <ele>2312.4</ele>
        <time>2026-07-15T11:12:28Z</time>
      </trkpt>
      <trkpt lat="42.87468" lon="-0.18783">
        <ele>2312.4</ele>
        <time>2026-07-15T11:12:28Z</time>
      </trkpt>
      <trkpt lat="42.87469" lon="-0.18783">
        <ele>2312.4</ele>
        <time>2026-07-15T11:12:29Z</time>
      </trkpt>
      <trkpt lat="42.87469" lon="-0.18783">
        <ele>2312.4</ele>
        <time>2026-07-15T11:12:30Z</time>
      </trkpt>
      <trkpt lat="42.87469" lon="-0.18783">
        <ele>2312.4</ele>
        <time>2026-07-15T11:12:31Z</time>
      </trkpt>
      <trkpt lat="42.87469" lon="-0.18783">
        <ele>2312.4</ele>
        <time>2026-07-15T11:12:32Z</time>
      </trkpt>
      <trkpt lat="42.87469" lon="-0.18783">
        <ele>2312.4</ele>
        <time>2026-07-15T11:12:33Z</time>
      </trkpt>
      <trkpt lat="42.87469" lon="-0.18783">
        <ele>2312.4</ele>
        <time>2026-07-15T11:12:34Z</time>
      </trkpt>
      <trkpt lat="42.87469" lon="-0.18783">
        <ele>2312.4</ele>
        <time>2026-07-15T11:12:35Z</time>
      </trkpt>
      <trkpt lat="42.87469" lon="-0.18783">
        <ele>2312.4</ele>
        <time>2026-07-15T11:12:36Z</time>
      </trkpt>
      <trkpt lat="42.87469" lon="-0.18783">
        <ele>2312.4</ele>
        <time>2026-07-15T11:12:37Z</time>
      </trkpt>
      <trkpt lat="42.87469" lon="-0.18783">
        <ele>2312.4</ele>
        <time>2026-07-15T11:12:38Z</time>
      </trkpt>
      <trkpt lat="42.87469" lon="-0.18783">
        <ele>2313.4</ele>
        <time>2026-07-15T11:12:39Z</time>
      </trkpt>
      <trkpt lat="42.87469" lon="-0.18783">
        <ele>2313.4</ele>
        <time>2026-07-15T11:12:40Z</time>
      </trkpt>
      <trkpt lat="42.87469" lon="-0.18782">
        <ele>2313.4</ele>
        <time>2026-07-15T11:12:41Z</time>
      </trkpt>
      <trkpt lat="42.87469" lon="-0.18782">
        <ele>2313.4</ele>
        <time>2026-07-15T11:12:42Z</time>
      </trkpt>
      <trkpt lat="42.87469" lon="-0.18782">
        <ele>2314.4</ele>
        <time>2026-07-15T11:12:43Z</time>
      </trkpt>
      <trkpt lat="42.87468" lon="-0.18781">
        <ele>2314.4</ele>
        <time>2026-07-15T11:12:44Z</time>
      </trkpt>
      <trkpt lat="42.87468" lon="-0.18781">
        <ele>2314.4</ele>
        <time>2026-07-15T11:12:44Z</time>
      </trkpt>
      <trkpt lat="42.87468" lon="-0.18781">
        <ele>2314.4</ele>
        <time>2026-07-15T11:12:45Z</time>
      </trkpt>
      <trkpt lat="42.87468" lon="-0.1878">
        <ele>2314.4</ele>
        <time>2026-07-15T11:12:46Z</time>
      </trkpt>
      <trkpt lat="42.87467" lon="-0.1878">
        <ele>2314.4</ele>
        <time>2026-07-15T11:12:47Z</time>
      </trkpt>
      <trkpt lat="42.87467" lon="-0.18779">
        <ele>2314.4</ele>
        <time>2026-07-15T11:12:48Z</time>
      </trkpt>
      <trkpt lat="42.87467" lon="-0.18779">
        <ele>2314.4</ele>
        <time>2026-07-15T11:12:48Z</time>
      </trkpt>
      <trkpt lat="42.87467" lon="-0.18779">
        <ele>2314.4</ele>
        <time>2026-07-15T11:12:49Z</time>
      </trkpt>
      <trkpt lat="42.87467" lon="-0.18779">
        <ele>2314.4</ele>
        <time>2026-07-15T11:12:50Z</time>
      </trkpt>
      <trkpt lat="42.87467" lon="-0.18779">
        <ele>2314.4</ele>
        <time>2026-07-15T11:12:50Z</time>
      </trkpt>
      <trkpt lat="42.87467" lon="-0.18779">
        <ele>2314.4</ele>
        <time>2026-07-15T11:12:51Z</time>
      </trkpt>
      <trkpt lat="42.87467" lon="-0.18778">
        <ele>2312.4</ele>
        <time>2026-07-15T11:12:52Z</time>
      </trkpt>
      <trkpt lat="42.87467" lon="-0.18778">
        <ele>2312.4</ele>
        <time>2026-07-15T11:12:53Z</time>
      </trkpt>
      <trkpt lat="42.87467" lon="-0.18777">
        <ele>2312.4</ele>
        <time>2026-07-15T11:12:54Z</time>
      </trkpt>
      <trkpt lat="42.87466" lon="-0.18776">
        <ele>2311.4</ele>
        <time>2026-07-15T11:12:55Z</time>
      </trkpt>
      <trkpt lat="42.87466" lon="-0.18776">
        <ele>2311.4</ele>
        <time>2026-07-15T11:12:56Z</time>
      </trkpt>
      <trkpt lat="42.87465" lon="-0.18775">
        <ele>2311.4</ele>
        <time>2026-07-15T11:12:57Z</time>
      </trkpt>
      <trkpt lat="42.87465" lon="-0.18774">
        <ele>2311.4</ele>
        <time>2026-07-15T11:12:58Z</time>
      </trkpt>
      <trkpt lat="42.87464" lon="-0.18773">
        <ele>2311.4</ele>
        <time>2026-07-15T11:12:59Z</time>
      </trkpt>
      <trkpt lat="42.87464" lon="-0.18772">
        <ele>2311.4</ele>
        <time>2026-07-15T11:12:59Z</time>
      </trkpt>
      <trkpt lat="42.87464" lon="-0.18772">
        <ele>2310.4</ele>
        <time>2026-07-15T11:13:00Z</time>
      </trkpt>
      <trkpt lat="42.87464" lon="-0.18771">
        <ele>2311.4</ele>
        <time>2026-07-15T11:13:01Z</time>
      </trkpt>
      <trkpt lat="42.87464" lon="-0.1877">
        <ele>2311.4</ele>
        <time>2026-07-15T11:13:02Z</time>
      </trkpt>
      <trkpt lat="42.87465" lon="-0.18769">
        <ele>2310.4</ele>
        <time>2026-07-15T11:13:02Z</time>
      </trkpt>
      <trkpt lat="42.87465" lon="-0.18768">
        <ele>2310.4</ele>
        <time>2026-07-15T11:13:03Z</time>
      </trkpt>
      <trkpt lat="42.87465" lon="-0.18768">
        <ele>2310.4</ele>
        <time>2026-07-15T11:13:04Z</time>
      </trkpt>
      <trkpt lat="42.87465" lon="-0.18767">
        <ele>2311.4</ele>
        <time>2026-07-15T11:13:04Z</time>
      </trkpt>
      <trkpt lat="42.87465" lon="-0.18766">
        <ele>2311.4</ele>
        <time>2026-07-15T11:13:05Z</time>
      </trkpt>
      <trkpt lat="42.87466" lon="-0.18765">
        <ele>2310.4</ele>
        <time>2026-07-15T11:13:06Z</time>
      </trkpt>
      <trkpt lat="42.87466" lon="-0.18765">
        <ele>2311.4</ele>
        <time>2026-07-15T11:13:07Z</time>
      </trkpt>
      <trkpt lat="42.87466" lon="-0.18764">
        <ele>2311.4</ele>
        <time>2026-07-15T11:13:07Z</time>
      </trkpt>
      <trkpt lat="42.87466" lon="-0.18764">
        <ele>2311.4</ele>
        <time>2026-07-15T11:13:08Z</time>
      </trkpt>
      <trkpt lat="42.87466" lon="-0.18763">
        <ele>2311.4</ele>
        <time>2026-07-15T11:13:09Z</time>
      </trkpt>
      <trkpt lat="42.87467" lon="-0.18763">
        <ele>2312.4</ele>
        <time>2026-07-15T11:13:10Z</time>
      </trkpt>
      <trkpt lat="42.87468" lon="-0.18762">
        <ele>2313.4</ele>
        <time>2026-07-15T11:13:11Z</time>
      </trkpt>
      <trkpt lat="42.87468" lon="-0.18761">
        <ele>2314.4</ele>
        <time>2026-07-15T11:13:12Z</time>
      </trkpt>
      <trkpt lat="42.87469" lon="-0.1876">
        <ele>2315.4</ele>
        <time>2026-07-15T11:13:13Z</time>
      </trkpt>
      <trkpt lat="42.8747" lon="-0.1876">
        <ele>2315.4</ele>
        <time>2026-07-15T11:13:13Z</time>
      </trkpt>
      <trkpt lat="42.8747" lon="-0.18759">
        <ele>2315.4</ele>
        <time>2026-07-15T11:13:14Z</time>
      </trkpt>
      <trkpt lat="42.87471" lon="-0.18758">
        <ele>2315.4</ele>
        <time>2026-07-15T11:13:15Z</time>
      </trkpt>
      <trkpt lat="42.87471" lon="-0.18758">
        <ele>2314.4</ele>
        <time>2026-07-15T11:13:15Z</time>
      </trkpt>
      <trkpt lat="42.87472" lon="-0.18757">
        <ele>2314.4</ele>
        <time>2026-07-15T11:13:16Z</time>
      </trkpt>
      <trkpt lat="42.87472" lon="-0.18757">
        <ele>2314.4</ele>
        <time>2026-07-15T11:13:17Z</time>
      </trkpt>
      <trkpt lat="42.87472" lon="-0.18756">
        <ele>2314.4</ele>
        <time>2026-07-15T11:13:18Z</time>
      </trkpt>
      <trkpt lat="42.87472" lon="-0.18755">
        <ele>2314.4</ele>
        <time>2026-07-15T11:13:18Z</time>
      </trkpt>
      <trkpt lat="42.87471" lon="-0.18755">
        <ele>2314.4</ele>
        <time>2026-07-15T11:13:19Z</time>
      </trkpt>
      <trkpt lat="42.87471" lon="-0.18754">
        <ele>2314.4</ele>
        <time>2026-07-15T11:13:20Z</time>
      </trkpt>
      <trkpt lat="42.87471" lon="-0.18754">
        <ele>2314.4</ele>
        <time>2026-07-15T11:13:21Z</time>
      </trkpt>
      <trkpt lat="42.87472" lon="-0.18753">
        <ele>2315.4</ele>
        <time>2026-07-15T11:13:21Z</time>
      </trkpt>
      <trkpt lat="42.87472" lon="-0.18753">
        <ele>2316.4</ele>
        <time>2026-07-15T11:13:22Z</time>
      </trkpt>
      <trkpt lat="42.87472" lon="-0.18753">
        <ele>2316.4</ele>
        <time>2026-07-15T11:13:23Z</time>
      </trkpt>
      <trkpt lat="42.87472" lon="-0.18752">
        <ele>2315.4</ele>
        <time>2026-07-15T11:13:24Z</time>
      </trkpt>
      <trkpt lat="42.87472" lon="-0.18752">
        <ele>2315.4</ele>
        <time>2026-07-15T11:13:25Z</time>
      </trkpt>
      <trkpt lat="42.87472" lon="-0.18752">
        <ele>2315.4</ele>
        <time>2026-07-15T11:13:26Z</time>
      </trkpt>
      <trkpt lat="42.87472" lon="-0.18753">
        <ele>2315.4</ele>
        <time>2026-07-15T11:13:27Z</time>
      </trkpt>
      <trkpt lat="42.87472" lon="-0.18753">
        <ele>2315.4</ele>
        <time>2026-07-15T11:13:28Z</time>
      </trkpt>
      <trkpt lat="42.87472" lon="-0.18753">
        <ele>2316.4</ele>
        <time>2026-07-15T11:13:29Z</time>
      </trkpt>
      <trkpt lat="42.87472" lon="-0.18752">
        <ele>2316.4</ele>
        <time>2026-07-15T11:13:30Z</time>
      </trkpt>
      <trkpt lat="42.87472" lon="-0.18753">
        <ele>2316.4</ele>
        <time>2026-07-15T11:13:31Z</time>
      </trkpt>
      <trkpt lat="42.87473" lon="-0.18752">
        <ele>2316.4</ele>
        <time>2026-07-15T11:13:32Z</time>
      </trkpt>
      <trkpt lat="42.87473" lon="-0.18752">
        <ele>2316.4</ele>
        <time>2026-07-15T11:13:32Z</time>
      </trkpt>
      <trkpt lat="42.87473" lon="-0.18752">
        <ele>2316.4</ele>
        <time>2026-07-15T11:13:33Z</time>
      </trkpt>
      <trkpt lat="42.87474" lon="-0.18751">
        <ele>2315.4</ele>
        <time>2026-07-15T11:13:34Z</time>
      </trkpt>
      <trkpt lat="42.87475" lon="-0.1875">
        <ele>2315.4</ele>
        <time>2026-07-15T11:13:34Z</time>
      </trkpt>
      <trkpt lat="42.87475" lon="-0.1875">
        <ele>2314.4</ele>
        <time>2026-07-15T11:13:35Z</time>
      </trkpt>
      <trkpt lat="42.87476" lon="-0.18749">
        <ele>2314.4</ele>
        <time>2026-07-15T11:13:36Z</time>
      </trkpt>
      <trkpt lat="42.87476" lon="-0.18748">
        <ele>2314.4</ele>
        <time>2026-07-15T11:13:37Z</time>
      </trkpt>
      <trkpt lat="42.87476" lon="-0.18748">
        <ele>2314.4</ele>
        <time>2026-07-15T11:13:37Z</time>
      </trkpt>
      <trkpt lat="42.87476" lon="-0.18747">
        <ele>2314.4</ele>
        <time>2026-07-15T11:13:38Z</time>
      </trkpt>
      <trkpt lat="42.87476" lon="-0.18747">
        <ele>2314.4</ele>
        <time>2026-07-15T11:13:38Z</time>
      </trkpt>
      <trkpt lat="42.87477" lon="-0.18747">
        <ele>2314.4</ele>
        <time>2026-07-15T11:13:39Z</time>
      </trkpt>
      <trkpt lat="42.87478" lon="-0.18746">
        <ele>2314.4</ele>
        <time>2026-07-15T11:13:40Z</time>
      </trkpt>
      <trkpt lat="42.87478" lon="-0.18745">
        <ele>2314.4</ele>
        <time>2026-07-15T11:13:41Z</time>
      </trkpt>
      <trkpt lat="42.87479" lon="-0.18744">
        <ele>2314.4</ele>
        <time>2026-07-15T11:13:42Z</time>
      </trkpt>
      <trkpt lat="42.87479" lon="-0.18744">
        <ele>2314.4</ele>
        <time>2026-07-15T11:13:43Z</time>
      </trkpt>
      <trkpt lat="42.87479" lon="-0.18743">
        <ele>2313.4</ele>
        <time>2026-07-15T11:13:43Z</time>
      </trkpt>
      <trkpt lat="42.8748" lon="-0.18743">
        <ele>2313.4</ele>
        <time>2026-07-15T11:13:44Z</time>
      </trkpt>
      <trkpt lat="42.8748" lon="-0.18743">
        <ele>2313.4</ele>
        <time>2026-07-15T11:13:44Z</time>
      </trkpt>
      <trkpt lat="42.8748" lon="-0.18742">
        <ele>2313.4</ele>
        <time>2026-07-15T11:13:45Z</time>
      </trkpt>
      <trkpt lat="42.87481" lon="-0.18742">
        <ele>2313.4</ele>
        <time>2026-07-15T11:13:46Z</time>
      </trkpt>
      <trkpt lat="42.87481" lon="-0.18741">
        <ele>2313.4</ele>
        <time>2026-07-15T11:13:47Z</time>
      </trkpt>
      <trkpt lat="42.87481" lon="-0.1874">
        <ele>2313.4</ele>
        <time>2026-07-15T11:13:48Z</time>
      </trkpt>
      <trkpt lat="42.87481" lon="-0.18739">
        <ele>2313.4</ele>
        <time>2026-07-15T11:13:49Z</time>
      </trkpt>
      <trkpt lat="42.87481" lon="-0.18739">
        <ele>2313.4</ele>
        <time>2026-07-15T11:13:50Z</time>
      </trkpt>
      <trkpt lat="42.87481" lon="-0.18739">
        <ele>2312.4</ele>
        <time>2026-07-15T11:13:50Z</time>
      </trkpt>
      <trkpt lat="42.87482" lon="-0.18739">
        <ele>2312.4</ele>
        <time>2026-07-15T11:13:51Z</time>
      </trkpt>
      <trkpt lat="42.87482" lon="-0.18738">
        <ele>2312.4</ele>
        <time>2026-07-15T11:13:52Z</time>
      </trkpt>
      <trkpt lat="42.87482" lon="-0.18738">
        <ele>2312.4</ele>
        <time>2026-07-15T11:13:52Z</time>
      </trkpt>
      <trkpt lat="42.87483" lon="-0.18737">
        <ele>2312.4</ele>
        <time>2026-07-15T11:13:53Z</time>
      </trkpt>
      <trkpt lat="42.87483" lon="-0.18736">
        <ele>2313.4</ele>
        <time>2026-07-15T11:13:54Z</time>
      </trkpt>
      <trkpt lat="42.87484" lon="-0.18736">
        <ele>2313.4</ele>
        <time>2026-07-15T11:13:54Z</time>
      </trkpt>
      <trkpt lat="42.87484" lon="-0.18736">
        <ele>2313.4</ele>
        <time>2026-07-15T11:13:55Z</time>
      </trkpt>
      <trkpt lat="42.87484" lon="-0.18736">
        <ele>2313.4</ele>
        <time>2026-07-15T11:13:56Z</time>
      </trkpt>
      <trkpt lat="42.87484" lon="-0.18736">
        <ele>2313.4</ele>
        <time>2026-07-15T11:13:57Z</time>
      </trkpt>
      <trkpt lat="42.87485" lon="-0.18735">
        <ele>2314.4</ele>
        <time>2026-07-15T11:13:57Z</time>
      </trkpt>
      <trkpt lat="42.87485" lon="-0.18734">
        <ele>2314.4</ele>
        <time>2026-07-15T11:13:58Z</time>
      </trkpt>
      <trkpt lat="42.87486" lon="-0.18733">
        <ele>2314.4</ele>
        <time>2026-07-15T11:13:59Z</time>
      </trkpt>
      <trkpt lat="42.87486" lon="-0.18733">
        <ele>2314.4</ele>
        <time>2026-07-15T11:14:00Z</time>
      </trkpt>
      <trkpt lat="42.87486" lon="-0.18732">
        <ele>2314.4</ele>
        <time>2026-07-15T11:14:01Z</time>
      </trkpt>
      <trkpt lat="42.87487" lon="-0.18731">
        <ele>2314.4</ele>
        <time>2026-07-15T11:14:01Z</time>
      </trkpt>
      <trkpt lat="42.87487" lon="-0.1873">
        <ele>2314.4</ele>
        <time>2026-07-15T11:14:02Z</time>
      </trkpt>
      <trkpt lat="42.87487" lon="-0.18729">
        <ele>2314.4</ele>
        <time>2026-07-15T11:14:03Z</time>
      </trkpt>
      <trkpt lat="42.87487" lon="-0.18728">
        <ele>2313.4</ele>
        <time>2026-07-15T11:14:04Z</time>
      </trkpt>
      <trkpt lat="42.87488" lon="-0.18727">
        <ele>2314.4</ele>
        <time>2026-07-15T11:14:05Z</time>
      </trkpt>
      <trkpt lat="42.87488" lon="-0.18728">
        <ele>2314.4</ele>
        <time>2026-07-15T11:14:05Z</time>
      </trkpt>
      <trkpt lat="42.87488" lon="-0.18728">
        <ele>2314.4</ele>
        <time>2026-07-15T11:14:06Z</time>
      </trkpt>
      <trkpt lat="42.87488" lon="-0.18728">
        <ele>2313.4</ele>
        <time>2026-07-15T11:14:07Z</time>
      </trkpt>
      <trkpt lat="42.87488" lon="-0.18728">
        <ele>2313.4</ele>
        <time>2026-07-15T11:14:08Z</time>
      </trkpt>
      <trkpt lat="42.87488" lon="-0.18728">
        <ele>2313.4</ele>
        <time>2026-07-15T11:14:09Z</time>
      </trkpt>
      <trkpt lat="42.87488" lon="-0.18728">
        <ele>2313.4</ele>
        <time>2026-07-15T11:14:10Z</time>
      </trkpt>
      <trkpt lat="42.87488" lon="-0.18728">
        <ele>2313.4</ele>
        <time>2026-07-15T11:14:11Z</time>
      </trkpt>
      <trkpt lat="42.87488" lon="-0.18728">
        <ele>2313.4</ele>
        <time>2026-07-15T11:14:12Z</time>
      </trkpt>
      <trkpt lat="42.87488" lon="-0.18727">
        <ele>2313.4</ele>
        <time>2026-07-15T11:14:12Z</time>
      </trkpt>
      <trkpt lat="42.87488" lon="-0.18727">
        <ele>2314.4</ele>
        <time>2026-07-15T11:14:13Z</time>
      </trkpt>
      <trkpt lat="42.87488" lon="-0.18726">
        <ele>2314.4</ele>
        <time>2026-07-15T11:14:14Z</time>
      </trkpt>
      <trkpt lat="42.87488" lon="-0.18725">
        <ele>2314.4</ele>
        <time>2026-07-15T11:14:14Z</time>
      </trkpt>
      <trkpt lat="42.87489" lon="-0.18724">
        <ele>2314.4</ele>
        <time>2026-07-15T11:14:15Z</time>
      </trkpt>
      <trkpt lat="42.87489" lon="-0.18723">
        <ele>2314.4</ele>
        <time>2026-07-15T11:14:16Z</time>
      </trkpt>
      <trkpt lat="42.87489" lon="-0.18722">
        <ele>2314.4</ele>
        <time>2026-07-15T11:14:17Z</time>
      </trkpt>
      <trkpt lat="42.87489" lon="-0.18721">
        <ele>2314.4</ele>
        <time>2026-07-15T11:14:18Z</time>
      </trkpt>
      <trkpt lat="42.87489" lon="-0.18721">
        <ele>2314.4</ele>
        <time>2026-07-15T11:14:19Z</time>
      </trkpt>
      <trkpt lat="42.8749" lon="-0.1872">
        <ele>2313.4</ele>
        <time>2026-07-15T11:14:19Z</time>
      </trkpt>
      <trkpt lat="42.8749" lon="-0.1872">
        <ele>2313.4</ele>
        <time>2026-07-15T11:14:20Z</time>
      </trkpt>
      <trkpt lat="42.87491" lon="-0.18719">
        <ele>2313.4</ele>
        <time>2026-07-15T11:14:21Z</time>
      </trkpt>
      <trkpt lat="42.87492" lon="-0.18719">
        <ele>2313.4</ele>
        <time>2026-07-15T11:14:21Z</time>
      </trkpt>
      <trkpt lat="42.87493" lon="-0.18718">
        <ele>2313.4</ele>
        <time>2026-07-15T11:14:22Z</time>
      </trkpt>
      <trkpt lat="42.87494" lon="-0.18718">
        <ele>2312.4</ele>
        <time>2026-07-15T11:14:23Z</time>
      </trkpt>
      <trkpt lat="42.87494" lon="-0.18718">
        <ele>2313.4</ele>
        <time>2026-07-15T11:14:23Z</time>
      </trkpt>
      <trkpt lat="42.87495" lon="-0.18718">
        <ele>2313.4</ele>
        <time>2026-07-15T11:14:24Z</time>
      </trkpt>
      <trkpt lat="42.87496" lon="-0.18718">
        <ele>2313.4</ele>
        <time>2026-07-15T11:14:25Z</time>
      </trkpt>
      <trkpt lat="42.87496" lon="-0.18718">
        <ele>2313.4</ele>
        <time>2026-07-15T11:14:26Z</time>
      </trkpt>
      <trkpt lat="42.87497" lon="-0.18719">
        <ele>2313.4</ele>
        <time>2026-07-15T11:14:27Z</time>
      </trkpt>
      <trkpt lat="42.87496" lon="-0.1872">
        <ele>2313.4</ele>
        <time>2026-07-15T11:14:28Z</time>
      </trkpt>
      <trkpt lat="42.87496" lon="-0.1872">
        <ele>2313.4</ele>
        <time>2026-07-15T11:14:29Z</time>
      </trkpt>
      <trkpt lat="42.87495" lon="-0.18719">
        <ele>2313.4</ele>
        <time>2026-07-15T11:14:30Z</time>
      </trkpt>
      <trkpt lat="42.87495" lon="-0.1872">
        <ele>2313.4</ele>
        <time>2026-07-15T11:14:31Z</time>
      </trkpt>
      <trkpt lat="42.87495" lon="-0.1872">
        <ele>2313.4</ele>
        <time>2026-07-15T11:14:32Z</time>
      </trkpt>
      <trkpt lat="42.87495" lon="-0.18719">
        <ele>2314.4</ele>
        <time>2026-07-15T11:14:33Z</time>
      </trkpt>
      <trkpt lat="42.87495" lon="-0.18719">
        <ele>2314.4</ele>
        <time>2026-07-15T11:14:34Z</time>
      </trkpt>
      <trkpt lat="42.87495" lon="-0.18719">
        <ele>2314.4</ele>
        <time>2026-07-15T11:14:34Z</time>
      </trkpt>
      <trkpt lat="42.87495" lon="-0.18719">
        <ele>2314.4</ele>
        <time>2026-07-15T11:14:35Z</time>
      </trkpt>
      <trkpt lat="42.87495" lon="-0.18719">
        <ele>2313.4</ele>
        <time>2026-07-15T11:14:36Z</time>
      </trkpt>
      <trkpt lat="42.87496" lon="-0.18717">
        <ele>2313.4</ele>
        <time>2026-07-15T11:14:36Z</time>
      </trkpt>
      <trkpt lat="42.87496" lon="-0.18717">
        <ele>2312.4</ele>
        <time>2026-07-15T11:14:37Z</time>
      </trkpt>
      <trkpt lat="42.87497" lon="-0.18715">
        <ele>2312.4</ele>
        <time>2026-07-15T11:14:38Z</time>
      </trkpt>
      <trkpt lat="42.87497" lon="-0.18714">
        <ele>2312.4</ele>
        <time>2026-07-15T11:14:39Z</time>
      </trkpt>
      <trkpt lat="42.87498" lon="-0.18712">
        <ele>2312.4</ele>
        <time>2026-07-15T11:14:40Z</time>
      </trkpt>
      <trkpt lat="42.87499" lon="-0.18711">
        <ele>2312.4</ele>
        <time>2026-07-15T11:14:41Z</time>
      </trkpt>
      <trkpt lat="42.87499" lon="-0.18711">
        <ele>2312.4</ele>
        <time>2026-07-15T11:14:41Z</time>
      </trkpt>
      <trkpt lat="42.87499" lon="-0.1871">
        <ele>2312.4</ele>
        <time>2026-07-15T11:14:42Z</time>
      </trkpt>
      <trkpt lat="42.875" lon="-0.18709">
        <ele>2312.4</ele>
        <time>2026-07-15T11:14:43Z</time>
      </trkpt>
      <trkpt lat="42.875" lon="-0.18708">
        <ele>2312.4</ele>
        <time>2026-07-15T11:14:43Z</time>
      </trkpt>
      <trkpt lat="42.875" lon="-0.18707">
        <ele>2313.4</ele>
        <time>2026-07-15T11:14:44Z</time>
      </trkpt>
      <trkpt lat="42.875" lon="-0.18706">
        <ele>2313.4</ele>
        <time>2026-07-15T11:14:45Z</time>
      </trkpt>
      <trkpt lat="42.87501" lon="-0.18706">
        <ele>2314.4</ele>
        <time>2026-07-15T11:14:45Z</time>
      </trkpt>
      <trkpt lat="42.87501" lon="-0.18705">
        <ele>2314.4</ele>
        <time>2026-07-15T11:14:46Z</time>
      </trkpt>
      <trkpt lat="42.87501" lon="-0.18704">
        <ele>2314.4</ele>
        <time>2026-07-15T11:14:47Z</time>
      </trkpt>
      <trkpt lat="42.87502" lon="-0.18703">
        <ele>2314.4</ele>
        <time>2026-07-15T11:14:48Z</time>
      </trkpt>
      <trkpt lat="42.87502" lon="-0.18703">
        <ele>2315.4</ele>
        <time>2026-07-15T11:14:49Z</time>
      </trkpt>
      <trkpt lat="42.87503" lon="-0.18703">
        <ele>2315.4</ele>
        <time>2026-07-15T11:14:49Z</time>
      </trkpt>
      <trkpt lat="42.87503" lon="-0.18702">
        <ele>2315.4</ele>
        <time>2026-07-15T11:14:50Z</time>
      </trkpt>
      <trkpt lat="42.87504" lon="-0.18701">
        <ele>2315.4</ele>
        <time>2026-07-15T11:14:51Z</time>
      </trkpt>
      <trkpt lat="42.87504" lon="-0.187">
        <ele>2315.4</ele>
        <time>2026-07-15T11:14:52Z</time>
      </trkpt>
      <trkpt lat="42.87504" lon="-0.18699">
        <ele>2315.4</ele>
        <time>2026-07-15T11:14:52Z</time>
      </trkpt>
      <trkpt lat="42.87504" lon="-0.18699">
        <ele>2315.4</ele>
        <time>2026-07-15T11:14:53Z</time>
      </trkpt>
      <trkpt lat="42.87504" lon="-0.18698">
        <ele>2315.4</ele>
        <time>2026-07-15T11:14:54Z</time>
      </trkpt>
      <trkpt lat="42.87505" lon="-0.18697">
        <ele>2315.4</ele>
        <time>2026-07-15T11:14:54Z</time>
      </trkpt>
      <trkpt lat="42.87505" lon="-0.18696">
        <ele>2315.4</ele>
        <time>2026-07-15T11:14:55Z</time>
      </trkpt>
      <trkpt lat="42.87505" lon="-0.18695">
        <ele>2315.4</ele>
        <time>2026-07-15T11:14:56Z</time>
      </trkpt>
      <trkpt lat="42.87505" lon="-0.18695">
        <ele>2316.4</ele>
        <time>2026-07-15T11:14:56Z</time>
      </trkpt>
      <trkpt lat="42.87505" lon="-0.18694">
        <ele>2316.4</ele>
        <time>2026-07-15T11:14:57Z</time>
      </trkpt>
      <trkpt lat="42.87505" lon="-0.18693">
        <ele>2315.4</ele>
        <time>2026-07-15T11:14:58Z</time>
      </trkpt>
      <trkpt lat="42.87506" lon="-0.18692">
        <ele>2316.4</ele>
        <time>2026-07-15T11:14:58Z</time>
      </trkpt>
      <trkpt lat="42.87506" lon="-0.18692">
        <ele>2316.4</ele>
        <time>2026-07-15T11:14:59Z</time>
      </trkpt>
      <trkpt lat="42.87506" lon="-0.18691">
        <ele>2316.4</ele>
        <time>2026-07-15T11:15:00Z</time>
      </trkpt>
      <trkpt lat="42.87506" lon="-0.1869">
        <ele>2316.4</ele>
        <time>2026-07-15T11:15:00Z</time>
      </trkpt>
      <trkpt lat="42.87507" lon="-0.18689">
        <ele>2316.4</ele>
        <time>2026-07-15T11:15:01Z</time>
      </trkpt>
      <trkpt lat="42.87507" lon="-0.18689">
        <ele>2316.4</ele>
        <time>2026-07-15T11:15:02Z</time>
      </trkpt>
      <trkpt lat="42.87507" lon="-0.18688">
        <ele>2316.4</ele>
        <time>2026-07-15T11:15:02Z</time>
      </trkpt>
      <trkpt lat="42.87507" lon="-0.18688">
        <ele>2316.4</ele>
        <time>2026-07-15T11:15:03Z</time>
      </trkpt>
      <trkpt lat="42.87508" lon="-0.18687">
        <ele>2315.4</ele>
        <time>2026-07-15T11:15:03Z</time>
      </trkpt>
      <trkpt lat="42.87508" lon="-0.18687">
        <ele>2315.4</ele>
        <time>2026-07-15T11:15:04Z</time>
      </trkpt>
      <trkpt lat="42.87508" lon="-0.18686">
        <ele>2315.4</ele>
        <time>2026-07-15T11:15:04Z</time>
      </trkpt>
      <trkpt lat="42.87509" lon="-0.18685">
        <ele>2315.4</ele>
        <time>2026-07-15T11:15:05Z</time>
      </trkpt>
      <trkpt lat="42.87509" lon="-0.18684">
        <ele>2315.4</ele>
        <time>2026-07-15T11:15:06Z</time>
      </trkpt>
      <trkpt lat="42.87509" lon="-0.18684">
        <ele>2314.4</ele>
        <time>2026-07-15T11:15:06Z</time>
      </trkpt>
      <trkpt lat="42.87509" lon="-0.18683">
        <ele>2314.4</ele>
        <time>2026-07-15T11:15:07Z</time>
      </trkpt>
      <trkpt lat="42.87509" lon="-0.18682">
        <ele>2313.4</ele>
        <time>2026-07-15T11:15:08Z</time>
      </trkpt>
      <trkpt lat="42.8751" lon="-0.18682">
        <ele>2313.4</ele>
        <time>2026-07-15T11:15:09Z</time>
      </trkpt>
      <trkpt lat="42.8751" lon="-0.18682">
        <ele>2312.4</ele>
        <time>2026-07-15T11:15:10Z</time>
      </trkpt>
      <trkpt lat="42.87511" lon="-0.18682">
        <ele>2312.4</ele>
        <time>2026-07-15T11:15:10Z</time>
      </trkpt>
      <trkpt lat="42.87511" lon="-0.18681">
        <ele>2312.4</ele>
        <time>2026-07-15T11:15:11Z</time>
      </trkpt>
      <trkpt lat="42.87512" lon="-0.18681">
        <ele>2312.4</ele>
        <time>2026-07-15T11:15:12Z</time>
      </trkpt>
      <trkpt lat="42.87513" lon="-0.18681">
        <ele>2311.4</ele>
        <time>2026-07-15T11:15:13Z</time>
      </trkpt>
      <trkpt lat="42.87513" lon="-0.18681">
        <ele>2310.4</ele>
        <time>2026-07-15T11:15:14Z</time>
      </trkpt>
      <trkpt lat="42.87513" lon="-0.18681">
        <ele>2310.4</ele>
        <time>2026-07-15T11:15:14Z</time>
      </trkpt>
      <trkpt lat="42.87513" lon="-0.18681">
        <ele>2310.4</ele>
        <time>2026-07-15T11:15:15Z</time>
      </trkpt>
      <trkpt lat="42.87513" lon="-0.18681">
        <ele>2310.4</ele>
        <time>2026-07-15T11:15:15Z</time>
      </trkpt>
      <trkpt lat="42.87513" lon="-0.18681">
        <ele>2310.4</ele>
        <time>2026-07-15T11:15:16Z</time>
      </trkpt>
      <trkpt lat="42.87513" lon="-0.1868">
        <ele>2310.4</ele>
        <time>2026-07-15T11:15:17Z</time>
      </trkpt>
      <trkpt lat="42.87513" lon="-0.1868">
        <ele>2310.4</ele>
        <time>2026-07-15T11:15:18Z</time>
      </trkpt>
      <trkpt lat="42.87513" lon="-0.18679">
        <ele>2310.4</ele>
        <time>2026-07-15T11:15:18Z</time>
      </trkpt>
      <trkpt lat="42.87512" lon="-0.18679">
        <ele>2310.4</ele>
        <time>2026-07-15T11:15:18Z</time>
      </trkpt>
      <trkpt lat="42.87512" lon="-0.18679">
        <ele>2310.4</ele>
        <time>2026-07-15T11:15:19Z</time>
      </trkpt>
      <trkpt lat="42.87512" lon="-0.18679">
        <ele>2310.4</ele>
        <time>2026-07-15T11:15:20Z</time>
      </trkpt>
      <trkpt lat="42.87512" lon="-0.18679">
        <ele>2310.4</ele>
        <time>2026-07-15T11:15:20Z</time>
      </trkpt>
      <trkpt lat="42.87512" lon="-0.18678">
        <ele>2310.4</ele>
        <time>2026-07-15T11:15:21Z</time>
      </trkpt>
      <trkpt lat="42.87512" lon="-0.18679">
        <ele>2309.4</ele>
        <time>2026-07-15T11:15:22Z</time>
      </trkpt>
      <trkpt lat="42.87512" lon="-0.18679">
        <ele>2309.4</ele>
        <time>2026-07-15T11:15:23Z</time>
      </trkpt>
      <trkpt lat="42.87512" lon="-0.18679">
        <ele>2309.4</ele>
        <time>2026-07-15T11:15:24Z</time>
      </trkpt>
      <trkpt lat="42.87512" lon="-0.18679">
        <ele>2309.4</ele>
        <time>2026-07-15T11:15:24Z</time>
      </trkpt>
      <trkpt lat="42.87512" lon="-0.18678">
        <ele>2309.4</ele>
        <time>2026-07-15T11:15:25Z</time>
      </trkpt>
      <trkpt lat="42.87512" lon="-0.18678">
        <ele>2309.4</ele>
        <time>2026-07-15T11:15:26Z</time>
      </trkpt>
      <trkpt lat="42.87512" lon="-0.18677">
        <ele>2309.4</ele>
        <time>2026-07-15T11:15:27Z</time>
      </trkpt>
      <trkpt lat="42.87513" lon="-0.18676">
        <ele>2308.4</ele>
        <time>2026-07-15T11:15:27Z</time>
      </trkpt>
      <trkpt lat="42.87513" lon="-0.18676">
        <ele>2309.4</ele>
        <time>2026-07-15T11:15:28Z</time>
      </trkpt>
      <trkpt lat="42.87514" lon="-0.18675">
        <ele>2309.4</ele>
        <time>2026-07-15T11:15:29Z</time>
      </trkpt>
      <trkpt lat="42.87514" lon="-0.18675">
        <ele>2309.4</ele>
        <time>2026-07-15T11:15:29Z</time>
      </trkpt>
      <trkpt lat="42.87514" lon="-0.18674">
        <ele>2308.4</ele>
        <time>2026-07-15T11:15:30Z</time>
      </trkpt>
      <trkpt lat="42.87515" lon="-0.18673">
        <ele>2308.4</ele>
        <time>2026-07-15T11:15:31Z</time>
      </trkpt>
      <trkpt lat="42.87515" lon="-0.18673">
        <ele>2308.4</ele>
        <time>2026-07-15T11:15:32Z</time>
      </trkpt>
      <trkpt lat="42.87515" lon="-0.18672">
        <ele>2308.4</ele>
        <time>2026-07-15T11:15:32Z</time>
      </trkpt>
      <trkpt lat="42.87516" lon="-0.18671">
        <ele>2309.4</ele>
        <time>2026-07-15T11:15:33Z</time>
      </trkpt>
      <trkpt lat="42.87516" lon="-0.18671">
        <ele>2309.4</ele>
        <time>2026-07-15T11:15:34Z</time>
      </trkpt>
      <trkpt lat="42.87516" lon="-0.18671">
        <ele>2309.4</ele>
        <time>2026-07-15T11:15:34Z</time>
      </trkpt>
      <trkpt lat="42.87517" lon="-0.1867">
        <ele>2309.4</ele>
        <time>2026-07-15T11:15:35Z</time>
      </trkpt>
      <trkpt lat="42.87517" lon="-0.1867">
        <ele>2309.4</ele>
        <time>2026-07-15T11:15:36Z</time>
      </trkpt>
      <trkpt lat="42.87517" lon="-0.18669">
        <ele>2309.4</ele>
        <time>2026-07-15T11:15:37Z</time>
      </trkpt>
      <trkpt lat="42.87518" lon="-0.18669">
        <ele>2309.4</ele>
        <time>2026-07-15T11:15:38Z</time>
      </trkpt>
      <trkpt lat="42.87518" lon="-0.18668">
        <ele>2310.4</ele>
        <time>2026-07-15T11:15:38Z</time>
      </trkpt>
      <trkpt lat="42.87519" lon="-0.18668">
        <ele>2310.4</ele>
        <time>2026-07-15T11:15:39Z</time>
      </trkpt>
      <trkpt lat="42.8752" lon="-0.18668">
        <ele>2310.4</ele>
        <time>2026-07-15T11:15:40Z</time>
      </trkpt>
      <trkpt lat="42.8752" lon="-0.18668">
        <ele>2309.4</ele>
        <time>2026-07-15T11:15:41Z</time>
      </trkpt>
      <trkpt lat="42.8752" lon="-0.18668">
        <ele>2309.4</ele>
        <time>2026-07-15T11:15:41Z</time>
      </trkpt>
      <trkpt lat="42.87521" lon="-0.18667">
        <ele>2309.4</ele>
        <time>2026-07-15T11:15:42Z</time>
      </trkpt>
      <trkpt lat="42.87521" lon="-0.18667">
        <ele>2310.4</ele>
        <time>2026-07-15T11:15:43Z</time>
      </trkpt>
      <trkpt lat="42.87521" lon="-0.18666">
        <ele>2310.4</ele>
        <time>2026-07-15T11:15:43Z</time>
      </trkpt>
      <trkpt lat="42.87522" lon="-0.18665">
        <ele>2310.4</ele>
        <time>2026-07-15T11:15:44Z</time>
      </trkpt>
      <trkpt lat="42.87522" lon="-0.18664">
        <ele>2310.4</ele>
        <time>2026-07-15T11:15:45Z</time>
      </trkpt>
      <trkpt lat="42.87523" lon="-0.18663">
        <ele>2310.4</ele>
        <time>2026-07-15T11:15:46Z</time>
      </trkpt>
      <trkpt lat="42.87523" lon="-0.18663">
        <ele>2310.4</ele>
        <time>2026-07-15T11:15:47Z</time>
      </trkpt>
      <trkpt lat="42.87524" lon="-0.18663">
        <ele>2310.4</ele>
        <time>2026-07-15T11:15:47Z</time>
      </trkpt>
      <trkpt lat="42.87524" lon="-0.18662">
        <ele>2310.4</ele>
        <time>2026-07-15T11:15:48Z</time>
      </trkpt>
      <trkpt lat="42.87525" lon="-0.18662">
        <ele>2310.4</ele>
        <time>2026-07-15T11:15:49Z</time>
      </trkpt>
      <trkpt lat="42.87525" lon="-0.18661">
        <ele>2309.4</ele>
        <time>2026-07-15T11:15:49Z</time>
      </trkpt>
      <trkpt lat="42.87526" lon="-0.1866">
        <ele>2309.4</ele>
        <time>2026-07-15T11:15:50Z</time>
      </trkpt>
      <trkpt lat="42.87526" lon="-0.18659">
        <ele>2310.4</ele>
        <time>2026-07-15T11:15:50Z</time>
      </trkpt>
      <trkpt lat="42.87526" lon="-0.18659">
        <ele>2310.4</ele>
        <time>2026-07-15T11:15:51Z</time>
      </trkpt>
      <trkpt lat="42.87526" lon="-0.18658">
        <ele>2310.4</ele>
        <time>2026-07-15T11:15:52Z</time>
      </trkpt>
      <trkpt lat="42.87527" lon="-0.18657">
        <ele>2310.4</ele>
        <time>2026-07-15T11:15:53Z</time>
      </trkpt>
      <trkpt lat="42.87528" lon="-0.18656">
        <ele>2310.4</ele>
        <time>2026-07-15T11:15:54Z</time>
      </trkpt>
      <trkpt lat="42.87529" lon="-0.18656">
        <ele>2309.4</ele>
        <time>2026-07-15T11:15:55Z</time>
      </trkpt>
      <trkpt lat="42.87529" lon="-0.18655">
        <ele>2309.4</ele>
        <time>2026-07-15T11:15:56Z</time>
      </trkpt>
      <trkpt lat="42.87529" lon="-0.18655">
        <ele>2309.4</ele>
        <time>2026-07-15T11:15:56Z</time>
      </trkpt>
      <trkpt lat="42.8753" lon="-0.18654">
        <ele>2309.4</ele>
        <time>2026-07-15T11:15:57Z</time>
      </trkpt>
      <trkpt lat="42.8753" lon="-0.18653">
        <ele>2309.4</ele>
        <time>2026-07-15T11:15:58Z</time>
      </trkpt>
      <trkpt lat="42.8753" lon="-0.18652">
        <ele>2309.4</ele>
        <time>2026-07-15T11:15:59Z</time>
      </trkpt>
      <trkpt lat="42.87531" lon="-0.18652">
        <ele>2309.4</ele>
        <time>2026-07-15T11:16:00Z</time>
      </trkpt>
      <trkpt lat="42.87531" lon="-0.18651">
        <ele>2309.4</ele>
        <time>2026-07-15T11:16:01Z</time>
      </trkpt>
      <trkpt lat="42.87531" lon="-0.18652">
        <ele>2308.4</ele>
        <time>2026-07-15T11:16:01Z</time>
      </trkpt>
      <trkpt lat="42.87532" lon="-0.18652">
        <ele>2308.4</ele>
        <time>2026-07-15T11:16:02Z</time>
      </trkpt>
      <trkpt lat="42.87532" lon="-0.18652">
        <ele>2308.4</ele>
        <time>2026-07-15T11:16:03Z</time>
      </trkpt>
      <trkpt lat="42.87532" lon="-0.18652">
        <ele>2308.4</ele>
        <time>2026-07-15T11:16:03Z</time>
      </trkpt>
      <trkpt lat="42.87533" lon="-0.18651">
        <ele>2308.4</ele>
        <time>2026-07-15T11:16:04Z</time>
      </trkpt>
      <trkpt lat="42.87533" lon="-0.18652">
        <ele>2309.4</ele>
        <time>2026-07-15T11:16:05Z</time>
      </trkpt>
      <trkpt lat="42.87533" lon="-0.18653">
        <ele>2309.4</ele>
        <time>2026-07-15T11:16:06Z</time>
      </trkpt>
      <trkpt lat="42.87532" lon="-0.18653">
        <ele>2309.4</ele>
        <time>2026-07-15T11:16:07Z</time>
      </trkpt>
      <trkpt lat="42.87532" lon="-0.18653">
        <ele>2309.4</ele>
        <time>2026-07-15T11:16:08Z</time>
      </trkpt>
      <trkpt lat="42.87532" lon="-0.18653">
        <ele>2309.4</ele>
        <time>2026-07-15T11:16:09Z</time>
      </trkpt>
      <trkpt lat="42.87532" lon="-0.18653">
        <ele>2308.4</ele>
        <time>2026-07-15T11:16:10Z</time>
      </trkpt>
      <trkpt lat="42.87532" lon="-0.18653">
        <ele>2307.4</ele>
        <time>2026-07-15T11:16:10Z</time>
      </trkpt>
      <trkpt lat="42.87533" lon="-0.18653">
        <ele>2306.4</ele>
        <time>2026-07-15T11:16:11Z</time>
      </trkpt>
      <trkpt lat="42.87533" lon="-0.18653">
        <ele>2306.4</ele>
        <time>2026-07-15T11:16:12Z</time>
      </trkpt>
      <trkpt lat="42.87533" lon="-0.18652">
        <ele>2306.4</ele>
        <time>2026-07-15T11:16:12Z</time>
      </trkpt>
      <trkpt lat="42.87533" lon="-0.18652">
        <ele>2306.4</ele>
        <time>2026-07-15T11:16:13Z</time>
      </trkpt>
      <trkpt lat="42.87534" lon="-0.18651">
        <ele>2306.4</ele>
        <time>2026-07-15T11:16:14Z</time>
      </trkpt>
      <trkpt lat="42.87535" lon="-0.1865">
        <ele>2307.4</ele>
        <time>2026-07-15T11:16:15Z</time>
      </trkpt>
      <trkpt lat="42.87535" lon="-0.1865">
        <ele>2307.4</ele>
        <time>2026-07-15T11:16:16Z</time>
      </trkpt>
      <trkpt lat="42.87535" lon="-0.1865">
        <ele>2307.4</ele>
        <time>2026-07-15T11:16:17Z</time>
      </trkpt>
      <trkpt lat="42.87535" lon="-0.1865">
        <ele>2307.4</ele>
        <time>2026-07-15T11:16:18Z</time>
      </trkpt>
      <trkpt lat="42.87535" lon="-0.1865">
        <ele>2307.4</ele>
        <time>2026-07-15T11:16:19Z</time>
      </trkpt>
      <trkpt lat="42.87534" lon="-0.1865">
        <ele>2308.4</ele>
        <time>2026-07-15T11:16:20Z</time>
      </trkpt>
      <trkpt lat="42.87534" lon="-0.1865">
        <ele>2308.4</ele>
        <time>2026-07-15T11:16:21Z</time>
      </trkpt>
      <trkpt lat="42.87534" lon="-0.1865">
        <ele>2308.4</ele>
        <time>2026-07-15T11:16:22Z</time>
      </trkpt>
      <trkpt lat="42.87534" lon="-0.1865">
        <ele>2308.4</ele>
        <time>2026-07-15T11:16:22Z</time>
      </trkpt>
      <trkpt lat="42.87534" lon="-0.1865">
        <ele>2308.4</ele>
        <time>2026-07-15T11:16:23Z</time>
      </trkpt>
      <trkpt lat="42.87534" lon="-0.1865">
        <ele>2308.4</ele>
        <time>2026-07-15T11:16:23Z</time>
      </trkpt>
      <trkpt lat="42.87534" lon="-0.1865">
        <ele>2308.4</ele>
        <time>2026-07-15T11:16:24Z</time>
      </trkpt>
      <trkpt lat="42.87534" lon="-0.1865">
        <ele>2308.4</ele>
        <time>2026-07-15T11:16:25Z</time>
      </trkpt>
      <trkpt lat="42.87534" lon="-0.18649">
        <ele>2308.4</ele>
        <time>2026-07-15T11:16:26Z</time>
      </trkpt>
      <trkpt lat="42.87534" lon="-0.18649">
        <ele>2308.4</ele>
        <time>2026-07-15T11:16:27Z</time>
      </trkpt>
      <trkpt lat="42.87534" lon="-0.18649">
        <ele>2308.4</ele>
        <time>2026-07-15T11:16:28Z</time>
      </trkpt>
      <trkpt lat="42.87534" lon="-0.18649">
        <ele>2308.4</ele>
        <time>2026-07-15T11:16:29Z</time>
      </trkpt>
      <trkpt lat="42.87534" lon="-0.18649">
        <ele>2308.4</ele>
        <time>2026-07-15T11:16:30Z</time>
      </trkpt>
      <trkpt lat="42.87533" lon="-0.18649">
        <ele>2308.4</ele>
        <time>2026-07-15T11:16:31Z</time>
      </trkpt>
      <trkpt lat="42.87534" lon="-0.18649">
        <ele>2308.4</ele>
        <time>2026-07-15T11:16:32Z</time>
      </trkpt>
      <trkpt lat="42.87534" lon="-0.18649">
        <ele>2308.4</ele>
        <time>2026-07-15T11:16:33Z</time>
      </trkpt>
      <trkpt lat="42.87534" lon="-0.18649">
        <ele>2308.4</ele>
        <time>2026-07-15T11:16:34Z</time>
      </trkpt>
      <trkpt lat="42.87534" lon="-0.18649">
        <ele>2308.4</ele>
        <time>2026-07-15T11:16:34Z</time>
      </trkpt>
      <trkpt lat="42.87534" lon="-0.18648">
        <ele>2308.4</ele>
        <time>2026-07-15T11:16:35Z</time>
      </trkpt>
      <trkpt lat="42.87534" lon="-0.18648">
        <ele>2307.4</ele>
        <time>2026-07-15T11:16:36Z</time>
      </trkpt>
      <trkpt lat="42.87534" lon="-0.18648">
        <ele>2307.4</ele>
        <time>2026-07-15T11:16:36Z</time>
      </trkpt>
      <trkpt lat="42.87534" lon="-0.18648">
        <ele>2307.4</ele>
        <time>2026-07-15T11:16:37Z</time>
      </trkpt>
      <trkpt lat="42.87534" lon="-0.18647">
        <ele>2308.4</ele>
        <time>2026-07-15T11:16:37Z</time>
      </trkpt>
      <trkpt lat="42.87534" lon="-0.18647">
        <ele>2308.4</ele>
        <time>2026-07-15T11:16:38Z</time>
      </trkpt>
      <trkpt lat="42.87535" lon="-0.18647">
        <ele>2307.4</ele>
        <time>2026-07-15T11:16:38Z</time>
      </trkpt>
      <trkpt lat="42.87536" lon="-0.18646">
        <ele>2307.4</ele>
        <time>2026-07-15T11:16:39Z</time>
      </trkpt>
      <trkpt lat="42.87537" lon="-0.18646">
        <ele>2306.4</ele>
        <time>2026-07-15T11:16:40Z</time>
      </trkpt>
      <trkpt lat="42.87537" lon="-0.18646">
        <ele>2306.4</ele>
        <time>2026-07-15T11:16:41Z</time>
      </trkpt>
      <trkpt lat="42.87538" lon="-0.18646">
        <ele>2306.4</ele>
        <time>2026-07-15T11:16:42Z</time>
      </trkpt>
      <trkpt lat="42.87539" lon="-0.18646">
        <ele>2305.4</ele>
        <time>2026-07-15T11:16:43Z</time>
      </trkpt>
      <trkpt lat="42.87539" lon="-0.18646">
        <ele>2305.4</ele>
        <time>2026-07-15T11:16:44Z</time>
      </trkpt>
      <trkpt lat="42.8754" lon="-0.18646">
        <ele>2305.4</ele>
        <time>2026-07-15T11:16:44Z</time>
      </trkpt>
      <trkpt lat="42.8754" lon="-0.18646">
        <ele>2305.4</ele>
        <time>2026-07-15T11:16:45Z</time>
      </trkpt>
      <trkpt lat="42.8754" lon="-0.18645">
        <ele>2305.4</ele>
        <time>2026-07-15T11:16:46Z</time>
      </trkpt>
      <trkpt lat="42.8754" lon="-0.18645">
        <ele>2305.4</ele>
        <time>2026-07-15T11:16:47Z</time>
      </trkpt>
      <trkpt lat="42.8754" lon="-0.18645">
        <ele>2304.4</ele>
        <time>2026-07-15T11:16:47Z</time>
      </trkpt>
      <trkpt lat="42.8754" lon="-0.18644">
        <ele>2304.4</ele>
        <time>2026-07-15T11:16:48Z</time>
      </trkpt>
      <trkpt lat="42.87541" lon="-0.18643">
        <ele>2304.4</ele>
        <time>2026-07-15T11:16:49Z</time>
      </trkpt>
      <trkpt lat="42.87541" lon="-0.18643">
        <ele>2304.4</ele>
        <time>2026-07-15T11:16:50Z</time>
      </trkpt>
      <trkpt lat="42.87542" lon="-0.18642">
        <ele>2304.4</ele>
        <time>2026-07-15T11:16:51Z</time>
      </trkpt>
      <trkpt lat="42.87542" lon="-0.18642">
        <ele>2303.4</ele>
        <time>2026-07-15T11:16:52Z</time>
      </trkpt>
      <trkpt lat="42.87542" lon="-0.18642">
        <ele>2303.4</ele>
        <time>2026-07-15T11:16:52Z</time>
      </trkpt>
      <trkpt lat="42.87542" lon="-0.18642">
        <ele>2304.4</ele>
        <time>2026-07-15T11:16:53Z</time>
      </trkpt>
      <trkpt lat="42.87542" lon="-0.18642">
        <ele>2304.4</ele>
        <time>2026-07-15T11:16:54Z</time>
      </trkpt>
      <trkpt lat="42.87542" lon="-0.18641">
        <ele>2305.4</ele>
        <time>2026-07-15T11:16:55Z</time>
      </trkpt>
      <trkpt lat="42.87543" lon="-0.18641">
        <ele>2304.4</ele>
        <time>2026-07-15T11:16:55Z</time>
      </trkpt>
      <trkpt lat="42.87543" lon="-0.18641">
        <ele>2303.4</ele>
        <time>2026-07-15T11:16:56Z</time>
      </trkpt>
      <trkpt lat="42.87543" lon="-0.1864">
        <ele>2303.4</ele>
        <time>2026-07-15T11:16:57Z</time>
      </trkpt>
      <trkpt lat="42.87544" lon="-0.1864">
        <ele>2303.4</ele>
        <time>2026-07-15T11:16:57Z</time>
      </trkpt>
      <trkpt lat="42.87545" lon="-0.1864">
        <ele>2303.4</ele>
        <time>2026-07-15T11:16:58Z</time>
      </trkpt>
      <trkpt lat="42.87545" lon="-0.1864">
        <ele>2303.4</ele>
        <time>2026-07-15T11:16:59Z</time>
      </trkpt>
      <trkpt lat="42.87545" lon="-0.18639">
        <ele>2303.4</ele>
        <time>2026-07-15T11:16:59Z</time>
      </trkpt>
      <trkpt lat="42.87545" lon="-0.18639">
        <ele>2303.4</ele>
        <time>2026-07-15T11:17:00Z</time>
      </trkpt>
      <trkpt lat="42.87545" lon="-0.18638">
        <ele>2303.4</ele>
        <time>2026-07-15T11:17:00Z</time>
      </trkpt>
      <trkpt lat="42.87546" lon="-0.18638">
        <ele>2303.4</ele>
        <time>2026-07-15T11:17:01Z</time>
      </trkpt>
      <trkpt lat="42.87546" lon="-0.18637">
        <ele>2303.4</ele>
        <time>2026-07-15T11:17:02Z</time>
      </trkpt>
      <trkpt lat="42.87547" lon="-0.18637">
        <ele>2303.4</ele>
        <time>2026-07-15T11:17:03Z</time>
      </trkpt>
      <trkpt lat="42.87547" lon="-0.18637">
        <ele>2303.4</ele>
        <time>2026-07-15T11:17:03Z</time>
      </trkpt>
      <trkpt lat="42.87547" lon="-0.18637">
        <ele>2303.4</ele>
        <time>2026-07-15T11:17:04Z</time>
      </trkpt>
      <trkpt lat="42.87547" lon="-0.18637">
        <ele>2303.4</ele>
        <time>2026-07-15T11:17:05Z</time>
      </trkpt>
      <trkpt lat="42.87548" lon="-0.18638">
        <ele>2303.4</ele>
        <time>2026-07-15T11:17:06Z</time>
      </trkpt>
      <trkpt lat="42.87548" lon="-0.18638">
        <ele>2303.4</ele>
        <time>2026-07-15T11:17:07Z</time>
      </trkpt>
      <trkpt lat="42.87548" lon="-0.18638">
        <ele>2303.4</ele>
        <time>2026-07-15T11:17:07Z</time>
      </trkpt>
      <trkpt lat="42.87548" lon="-0.18638">
        <ele>2304.4</ele>
        <time>2026-07-15T11:17:08Z</time>
      </trkpt>
      <trkpt lat="42.87548" lon="-0.18638">
        <ele>2303.4</ele>
        <time>2026-07-15T11:17:09Z</time>
      </trkpt>
      <trkpt lat="42.87548" lon="-0.18638">
        <ele>2303.4</ele>
        <time>2026-07-15T11:17:10Z</time>
      </trkpt>
      <trkpt lat="42.87547" lon="-0.18637">
        <ele>2303.4</ele>
        <time>2026-07-15T11:17:11Z</time>
      </trkpt>
      <trkpt lat="42.87547" lon="-0.18637">
        <ele>2303.4</ele>
        <time>2026-07-15T11:17:12Z</time>
      </trkpt>
      <trkpt lat="42.87547" lon="-0.18637">
        <ele>2303.4</ele>
        <time>2026-07-15T11:17:13Z</time>
      </trkpt>
      <trkpt lat="42.87547" lon="-0.18636">
        <ele>2303.4</ele>
        <time>2026-07-15T11:17:13Z</time>
      </trkpt>
      <trkpt lat="42.87547" lon="-0.18636">
        <ele>2303.4</ele>
        <time>2026-07-15T11:17:14Z</time>
      </trkpt>
      <trkpt lat="42.87547" lon="-0.18636">
        <ele>2303.4</ele>
        <time>2026-07-15T11:17:15Z</time>
      </trkpt>
      <trkpt lat="42.87546" lon="-0.18636">
        <ele>2303.4</ele>
        <time>2026-07-15T11:17:16Z</time>
      </trkpt>
      <trkpt lat="42.87546" lon="-0.18636">
        <ele>2303.4</ele>
        <time>2026-07-15T11:17:17Z</time>
      </trkpt>
      <trkpt lat="42.87546" lon="-0.18635">
        <ele>2302.4</ele>
        <time>2026-07-15T11:17:17Z</time>
      </trkpt>
      <trkpt lat="42.87546" lon="-0.18635">
        <ele>2301.4</ele>
        <time>2026-07-15T11:17:18Z</time>
      </trkpt>
      <trkpt lat="42.87547" lon="-0.18635">
        <ele>2301.4</ele>
        <time>2026-07-15T11:17:19Z</time>
      </trkpt>
      <trkpt lat="42.87547" lon="-0.18634">
        <ele>2301.4</ele>
        <time>2026-07-15T11:17:19Z</time>
      </trkpt>
      <trkpt lat="42.87547" lon="-0.18634">
        <ele>2301.4</ele>
        <time>2026-07-15T11:17:20Z</time>
      </trkpt>
      <trkpt lat="42.87547" lon="-0.18634">
        <ele>2301.4</ele>
        <time>2026-07-15T11:17:20Z</time>
      </trkpt>
      <trkpt lat="42.87547" lon="-0.18634">
        <ele>2300.4</ele>
        <time>2026-07-15T11:17:21Z</time>
      </trkpt>
      <trkpt lat="42.87548" lon="-0.18633">
        <ele>2300.4</ele>
        <time>2026-07-15T11:17:22Z</time>
      </trkpt>
      <trkpt lat="42.87549" lon="-0.18631">
        <ele>2300.4</ele>
        <time>2026-07-15T11:17:23Z</time>
      </trkpt>
      <trkpt lat="42.8755" lon="-0.1863">
        <ele>2299.4</ele>
        <time>2026-07-15T11:17:23Z</time>
      </trkpt>
      <trkpt lat="42.87551" lon="-0.18629">
        <ele>2299.4</ele>
        <time>2026-07-15T11:17:24Z</time>
      </trkpt>
      <trkpt lat="42.87552" lon="-0.18628">
        <ele>2300.4</ele>
        <time>2026-07-15T11:17:25Z</time>
      </trkpt>
      <trkpt lat="42.87553" lon="-0.18627">
        <ele>2300.4</ele>
        <time>2026-07-15T11:17:26Z</time>
      </trkpt>
      <trkpt lat="42.87553" lon="-0.18626">
        <ele>2299.4</ele>
        <time>2026-07-15T11:17:26Z</time>
      </trkpt>
      <trkpt lat="42.87554" lon="-0.18625">
        <ele>2299.4</ele>
        <time>2026-07-15T11:17:27Z</time>
      </trkpt>
      <trkpt lat="42.87554" lon="-0.18624">
        <ele>2300.4</ele>
        <time>2026-07-15T11:17:28Z</time>
      </trkpt>
      <trkpt lat="42.87555" lon="-0.18624">
        <ele>2299.4</ele>
        <time>2026-07-15T11:17:29Z</time>
      </trkpt>
      <trkpt lat="42.87555" lon="-0.18624">
        <ele>2299.4</ele>
        <time>2026-07-15T11:17:29Z</time>
      </trkpt>
      <trkpt lat="42.87556" lon="-0.18623">
        <ele>2300.4</ele>
        <time>2026-07-15T11:17:30Z</time>
      </trkpt>
      <trkpt lat="42.87556" lon="-0.18622">
        <ele>2300.4</ele>
        <time>2026-07-15T11:17:31Z</time>
      </trkpt>
      <trkpt lat="42.87556" lon="-0.18622">
        <ele>2300.4</ele>
        <time>2026-07-15T11:17:32Z</time>
      </trkpt>
      <trkpt lat="42.87557" lon="-0.18622">
        <ele>2300.4</ele>
        <time>2026-07-15T11:17:32Z</time>
      </trkpt>
      <trkpt lat="42.87557" lon="-0.18621">
        <ele>2300.4</ele>
        <time>2026-07-15T11:17:33Z</time>
      </trkpt>
      <trkpt lat="42.87557" lon="-0.18621">
        <ele>2300.4</ele>
        <time>2026-07-15T11:17:34Z</time>
      </trkpt>
      <trkpt lat="42.87557" lon="-0.1862">
        <ele>2300.4</ele>
        <time>2026-07-15T11:17:35Z</time>
      </trkpt>
      <trkpt lat="42.87558" lon="-0.1862">
        <ele>2301.4</ele>
        <time>2026-07-15T11:17:36Z</time>
      </trkpt>
      <trkpt lat="42.87558" lon="-0.1862">
        <ele>2302.4</ele>
        <time>2026-07-15T11:17:36Z</time>
      </trkpt>
      <trkpt lat="42.87558" lon="-0.18619">
        <ele>2302.4</ele>
        <time>2026-07-15T11:17:37Z</time>
      </trkpt>
      <trkpt lat="42.87559" lon="-0.18618">
        <ele>2302.4</ele>
        <time>2026-07-15T11:17:38Z</time>
      </trkpt>
      <trkpt lat="42.87559" lon="-0.18618">
        <ele>2302.4</ele>
        <time>2026-07-15T11:17:38Z</time>
      </trkpt>
      <trkpt lat="42.87559" lon="-0.18618">
        <ele>2302.4</ele>
        <time>2026-07-15T11:17:39Z</time>
      </trkpt>
      <trkpt lat="42.8756" lon="-0.18617">
        <ele>2302.4</ele>
        <time>2026-07-15T11:17:40Z</time>
      </trkpt>
      <trkpt lat="42.8756" lon="-0.18617">
        <ele>2302.4</ele>
        <time>2026-07-15T11:17:40Z</time>
      </trkpt>
      <trkpt lat="42.8756" lon="-0.18617">
        <ele>2302.4</ele>
        <time>2026-07-15T11:17:41Z</time>
      </trkpt>
      <trkpt lat="42.8756" lon="-0.18616">
        <ele>2302.4</ele>
        <time>2026-07-15T11:17:42Z</time>
      </trkpt>
      <trkpt lat="42.87561" lon="-0.18616">
        <ele>2302.4</ele>
        <time>2026-07-15T11:17:43Z</time>
      </trkpt>
      <trkpt lat="42.87561" lon="-0.18616">
        <ele>2303.4</ele>
        <time>2026-07-15T11:17:44Z</time>
      </trkpt>
      <trkpt lat="42.87561" lon="-0.18616">
        <ele>2302.4</ele>
        <time>2026-07-15T11:17:45Z</time>
      </trkpt>
      <trkpt lat="42.87562" lon="-0.18616">
        <ele>2302.4</ele>
        <time>2026-07-15T11:17:46Z</time>
      </trkpt>
      <trkpt lat="42.87562" lon="-0.18616">
        <ele>2302.4</ele>
        <time>2026-07-15T11:17:46Z</time>
      </trkpt>
      <trkpt lat="42.87562" lon="-0.18617">
        <ele>2301.4</ele>
        <time>2026-07-15T11:17:47Z</time>
      </trkpt>
      <trkpt lat="42.87562" lon="-0.18617">
        <ele>2301.4</ele>
        <time>2026-07-15T11:17:48Z</time>
      </trkpt>
      <trkpt lat="42.87562" lon="-0.18617">
        <ele>2301.4</ele>
        <time>2026-07-15T11:17:49Z</time>
      </trkpt>
      <trkpt lat="42.87562" lon="-0.18617">
        <ele>2301.4</ele>
        <time>2026-07-15T11:17:49Z</time>
      </trkpt>
      <trkpt lat="42.87562" lon="-0.18617">
        <ele>2301.4</ele>
        <time>2026-07-15T11:17:50Z</time>
      </trkpt>
      <trkpt lat="42.87562" lon="-0.18618">
        <ele>2301.4</ele>
        <time>2026-07-15T11:17:51Z</time>
      </trkpt>
      <trkpt lat="42.87562" lon="-0.18618">
        <ele>2301.4</ele>
        <time>2026-07-15T11:17:52Z</time>
      </trkpt>
      <trkpt lat="42.87562" lon="-0.18618">
        <ele>2301.4</ele>
        <time>2026-07-15T11:17:53Z</time>
      </trkpt>
      <trkpt lat="42.87562" lon="-0.18618">
        <ele>2301.4</ele>
        <time>2026-07-15T11:17:54Z</time>
      </trkpt>
      <trkpt lat="42.87562" lon="-0.18618">
        <ele>2303.4</ele>
        <time>2026-07-15T11:17:55Z</time>
      </trkpt>
      <trkpt lat="42.87562" lon="-0.18618">
        <ele>2303.4</ele>
        <time>2026-07-15T11:17:55Z</time>
      </trkpt>
      <trkpt lat="42.87562" lon="-0.18619">
        <ele>2304.4</ele>
        <time>2026-07-15T11:17:56Z</time>
      </trkpt>
      <trkpt lat="42.87563" lon="-0.18618">
        <ele>2304.4</ele>
        <time>2026-07-15T11:17:57Z</time>
      </trkpt>
      <trkpt lat="42.87563" lon="-0.18618">
        <ele>2305.4</ele>
        <time>2026-07-15T11:17:58Z</time>
      </trkpt>
      <trkpt lat="42.87563" lon="-0.18618">
        <ele>2305.4</ele>
        <time>2026-07-15T11:17:59Z</time>
      </trkpt>
      <trkpt lat="42.87563" lon="-0.18618">
        <ele>2305.4</ele>
        <time>2026-07-15T11:18:00Z</time>
      </trkpt>
      <trkpt lat="42.87563" lon="-0.18618">
        <ele>2305.4</ele>
        <time>2026-07-15T11:18:01Z</time>
      </trkpt>
      <trkpt lat="42.87563" lon="-0.18619">
        <ele>2303.4</ele>
        <time>2026-07-15T11:18:02Z</time>
      </trkpt>
      <trkpt lat="42.87564" lon="-0.18619">
        <ele>2303.4</ele>
        <time>2026-07-15T11:18:03Z</time>
      </trkpt>
      <trkpt lat="42.87564" lon="-0.18619">
        <ele>2303.4</ele>
        <time>2026-07-15T11:18:04Z</time>
      </trkpt>
      <trkpt lat="42.87564" lon="-0.18619">
        <ele>2303.4</ele>
        <time>2026-07-15T11:18:05Z</time>
      </trkpt>
      <trkpt lat="42.87564" lon="-0.18619">
        <ele>2303.4</ele>
        <time>2026-07-15T11:18:06Z</time>
      </trkpt>
      <trkpt lat="42.87564" lon="-0.1862">
        <ele>2303.4</ele>
        <time>2026-07-15T11:18:07Z</time>
      </trkpt>
      <trkpt lat="42.87564" lon="-0.1862">
        <ele>2303.4</ele>
        <time>2026-07-15T11:18:08Z</time>
      </trkpt>
      <trkpt lat="42.87564" lon="-0.1862">
        <ele>2303.4</ele>
        <time>2026-07-15T11:18:09Z</time>
      </trkpt>
      <trkpt lat="42.87565" lon="-0.1862">
        <ele>2303.4</ele>
        <time>2026-07-15T11:18:10Z</time>
      </trkpt>
      <trkpt lat="42.87565" lon="-0.1862">
        <ele>2303.4</ele>
        <time>2026-07-15T11:18:11Z</time>
      </trkpt>
      <trkpt lat="42.87565" lon="-0.1862">
        <ele>2303.4</ele>
        <time>2026-07-15T11:18:12Z</time>
      </trkpt>
      <trkpt lat="42.87565" lon="-0.1862">
        <ele>2303.4</ele>
        <time>2026-07-15T11:18:13Z</time>
      </trkpt>
      <trkpt lat="42.87565" lon="-0.1862">
        <ele>2303.4</ele>
        <time>2026-07-15T11:18:14Z</time>
      </trkpt>
      <trkpt lat="42.87565" lon="-0.18621">
        <ele>2303.4</ele>
        <time>2026-07-15T11:18:15Z</time>
      </trkpt>
      <trkpt lat="42.87565" lon="-0.18621">
        <ele>2303.4</ele>
        <time>2026-07-15T11:18:16Z</time>
      </trkpt>
      <trkpt lat="42.87565" lon="-0.18621">
        <ele>2303.4</ele>
        <time>2026-07-15T11:18:17Z</time>
      </trkpt>
      <trkpt lat="42.87565" lon="-0.18621">
        <ele>2303.4</ele>
        <time>2026-07-15T11:18:18Z</time>
      </trkpt>
      <trkpt lat="42.87565" lon="-0.18621">
        <ele>2303.4</ele>
        <time>2026-07-15T11:18:19Z</time>
      </trkpt>
      <trkpt lat="42.87565" lon="-0.18621">
        <ele>2303.4</ele>
        <time>2026-07-15T11:18:20Z</time>
      </trkpt>
      <trkpt lat="42.87565" lon="-0.18621">
        <ele>2303.4</ele>
        <time>2026-07-15T11:18:21Z</time>
      </trkpt>
      <trkpt lat="42.87565" lon="-0.18621">
        <ele>2303.4</ele>
        <time>2026-07-15T11:18:22Z</time>
      </trkpt>
      <trkpt lat="42.87565" lon="-0.18621">
        <ele>2303.4</ele>
        <time>2026-07-15T11:18:23Z</time>
      </trkpt>
      <trkpt lat="42.87565" lon="-0.18621">
        <ele>2303.4</ele>
        <time>2026-07-15T11:18:24Z</time>
      </trkpt>
      <trkpt lat="42.87565" lon="-0.18621">
        <ele>2303.4</ele>
        <time>2026-07-15T11:18:25Z</time>
      </trkpt>
      <trkpt lat="42.87565" lon="-0.18621">
        <ele>2303.4</ele>
        <time>2026-07-15T11:18:26Z</time>
      </trkpt>
      <trkpt lat="42.87565" lon="-0.18621">
        <ele>2303.4</ele>
        <time>2026-07-15T11:18:27Z</time>
      </trkpt>
      <trkpt lat="42.87565" lon="-0.18621">
        <ele>2303.4</ele>
        <time>2026-07-15T11:18:28Z</time>
      </trkpt>
      <trkpt lat="42.87565" lon="-0.18621">
        <ele>2303.4</ele>
        <time>2026-07-15T11:18:29Z</time>
      </trkpt>
      <trkpt lat="42.87565" lon="-0.18621">
        <ele>2303.4</ele>
        <time>2026-07-15T11:18:30Z</time>
      </trkpt>
      <trkpt lat="42.87565" lon="-0.18621">
        <ele>2303.4</ele>
        <time>2026-07-15T11:18:31Z</time>
      </trkpt>
      <trkpt lat="42.87565" lon="-0.18621">
        <ele>2303.4</ele>
        <time>2026-07-15T11:18:32Z</time>
      </trkpt>
      <trkpt lat="42.87565" lon="-0.18621">
        <ele>2303.4</ele>
        <time>2026-07-15T11:18:33Z</time>
      </trkpt>
      <trkpt lat="42.87565" lon="-0.18621">
        <ele>2303.4</ele>
        <time>2026-07-15T11:18:34Z</time>
      </trkpt>
      <trkpt lat="42.87565" lon="-0.18621">
        <ele>2303.4</ele>
        <time>2026-07-15T11:18:35Z</time>
      </trkpt>
      <trkpt lat="42.87565" lon="-0.18621">
        <ele>2303.4</ele>
        <time>2026-07-15T11:18:36Z</time>
      </trkpt>
      <trkpt lat="42.87565" lon="-0.18621">
        <ele>2303.4</ele>
        <time>2026-07-15T11:18:36Z</time>
      </trkpt>
      <trkpt lat="42.87565" lon="-0.18621">
        <ele>2303.4</ele>
        <time>2026-07-15T11:18:37Z</time>
      </trkpt>
      <trkpt lat="42.87565" lon="-0.18621">
        <ele>2303.4</ele>
        <time>2026-07-15T11:18:38Z</time>
      </trkpt>
      <trkpt lat="42.87565" lon="-0.18621">
        <ele>2303.4</ele>
        <time>2026-07-15T11:18:39Z</time>
      </trkpt>
      <trkpt lat="42.87565" lon="-0.18621">
        <ele>2303.4</ele>
        <time>2026-07-15T11:18:40Z</time>
      </trkpt>
      <trkpt lat="42.87565" lon="-0.18621">
        <ele>2303.4</ele>
        <time>2026-07-15T11:18:41Z</time>
      </trkpt>
      <trkpt lat="42.87565" lon="-0.18621">
        <ele>2303.4</ele>
        <time>2026-07-15T11:18:42Z</time>
      </trkpt>
      <trkpt lat="42.87565" lon="-0.18621">
        <ele>2303.4</ele>
        <time>2026-07-15T11:18:43Z</time>
      </trkpt>
      <trkpt lat="42.87566" lon="-0.18621">
        <ele>2303.4</ele>
        <time>2026-07-15T11:18:44Z</time>
      </trkpt>
      <trkpt lat="42.87566" lon="-0.18621">
        <ele>2303.4</ele>
        <time>2026-07-15T11:18:45Z</time>
      </trkpt>
      <trkpt lat="42.87565" lon="-0.18621">
        <ele>2302.4</ele>
        <time>2026-07-15T11:18:46Z</time>
      </trkpt>
      <trkpt lat="42.87565" lon="-0.18621">
        <ele>2303.4</ele>
        <time>2026-07-15T11:18:46Z</time>
      </trkpt>
      <trkpt lat="42.87566" lon="-0.1862">
        <ele>2302.4</ele>
        <time>2026-07-15T11:18:47Z</time>
      </trkpt>
      <trkpt lat="42.87566" lon="-0.1862">
        <ele>2302.4</ele>
        <time>2026-07-15T11:18:48Z</time>
      </trkpt>
      <trkpt lat="42.87566" lon="-0.1862">
        <ele>2302.4</ele>
        <time>2026-07-15T11:18:48Z</time>
      </trkpt>
      <trkpt lat="42.87566" lon="-0.1862">
        <ele>2303.4</ele>
        <time>2026-07-15T11:18:49Z</time>
      </trkpt>
      <trkpt lat="42.87566" lon="-0.1862">
        <ele>2303.4</ele>
        <time>2026-07-15T11:18:50Z</time>
      </trkpt>
      <trkpt lat="42.87566" lon="-0.18619">
        <ele>2304.4</ele>
        <time>2026-07-15T11:18:51Z</time>
      </trkpt>
      <trkpt lat="42.87566" lon="-0.18618">
        <ele>2303.4</ele>
        <time>2026-07-15T11:18:52Z</time>
      </trkpt>
      <trkpt lat="42.87566" lon="-0.18617">
        <ele>2303.4</ele>
        <time>2026-07-15T11:18:52Z</time>
      </trkpt>
      <trkpt lat="42.87567" lon="-0.18617">
        <ele>2303.4</ele>
        <time>2026-07-15T11:18:53Z</time>
      </trkpt>
      <trkpt lat="42.87567" lon="-0.18615">
        <ele>2304.4</ele>
        <time>2026-07-15T11:18:54Z</time>
      </trkpt>
      <trkpt lat="42.87568" lon="-0.18614">
        <ele>2304.4</ele>
        <time>2026-07-15T11:18:55Z</time>
      </trkpt>
      <trkpt lat="42.87568" lon="-0.18612">
        <ele>2303.4</ele>
        <time>2026-07-15T11:18:55Z</time>
      </trkpt>
      <trkpt lat="42.87568" lon="-0.18611">
        <ele>2303.4</ele>
        <time>2026-07-15T11:18:56Z</time>
      </trkpt>
      <trkpt lat="42.87569" lon="-0.18611">
        <ele>2303.4</ele>
        <time>2026-07-15T11:18:57Z</time>
      </trkpt>
      <trkpt lat="42.87571" lon="-0.1861">
        <ele>2303.4</ele>
        <time>2026-07-15T11:18:58Z</time>
      </trkpt>
      <trkpt lat="42.87572" lon="-0.18609">
        <ele>2303.4</ele>
        <time>2026-07-15T11:18:58Z</time>
      </trkpt>
      <trkpt lat="42.87573" lon="-0.18608">
        <ele>2303.4</ele>
        <time>2026-07-15T11:18:59Z</time>
      </trkpt>
      <trkpt lat="42.87573" lon="-0.18608">
        <ele>2304.4</ele>
        <time>2026-07-15T11:18:59Z</time>
      </trkpt>
      <trkpt lat="42.87574" lon="-0.18607">
        <ele>2304.4</ele>
        <time>2026-07-15T11:19:00Z</time>
      </trkpt>
      <trkpt lat="42.87575" lon="-0.18606">
        <ele>2304.4</ele>
        <time>2026-07-15T11:19:01Z</time>
      </trkpt>
      <trkpt lat="42.87575" lon="-0.18605">
        <ele>2305.4</ele>
        <time>2026-07-15T11:19:02Z</time>
      </trkpt>
      <trkpt lat="42.87576" lon="-0.18605">
        <ele>2305.4</ele>
        <time>2026-07-15T11:19:03Z</time>
      </trkpt>
      <trkpt lat="42.87576" lon="-0.18605">
        <ele>2304.4</ele>
        <time>2026-07-15T11:19:03Z</time>
      </trkpt>
      <trkpt lat="42.87576" lon="-0.18606">
        <ele>2304.4</ele>
        <time>2026-07-15T11:19:04Z</time>
      </trkpt>
      <trkpt lat="42.87576" lon="-0.18606">
        <ele>2304.4</ele>
        <time>2026-07-15T11:19:05Z</time>
      </trkpt>
      <trkpt lat="42.87576" lon="-0.18606">
        <ele>2304.4</ele>
        <time>2026-07-15T11:19:06Z</time>
      </trkpt>
      <trkpt lat="42.87575" lon="-0.18606">
        <ele>2304.4</ele>
        <time>2026-07-15T11:19:07Z</time>
      </trkpt>
      <trkpt lat="42.87575" lon="-0.18606">
        <ele>2304.4</ele>
        <time>2026-07-15T11:19:08Z</time>
      </trkpt>
      <trkpt lat="42.87575" lon="-0.18606">
        <ele>2304.4</ele>
        <time>2026-07-15T11:19:08Z</time>
      </trkpt>
      <trkpt lat="42.87575" lon="-0.18605">
        <ele>2304.4</ele>
        <time>2026-07-15T11:19:09Z</time>
      </trkpt>
      <trkpt lat="42.87575" lon="-0.18605">
        <ele>2305.4</ele>
        <time>2026-07-15T11:19:10Z</time>
      </trkpt>
      <trkpt lat="42.87575" lon="-0.18605">
        <ele>2305.4</ele>
        <time>2026-07-15T11:19:11Z</time>
      </trkpt>
      <trkpt lat="42.87576" lon="-0.18605">
        <ele>2305.4</ele>
        <time>2026-07-15T11:19:12Z</time>
      </trkpt>
      <trkpt lat="42.87576" lon="-0.18604">
        <ele>2305.4</ele>
        <time>2026-07-15T11:19:12Z</time>
      </trkpt>
      <trkpt lat="42.87576" lon="-0.18604">
        <ele>2305.4</ele>
        <time>2026-07-15T11:19:13Z</time>
      </trkpt>
      <trkpt lat="42.87576" lon="-0.18604">
        <ele>2306.4</ele>
        <time>2026-07-15T11:19:14Z</time>
      </trkpt>
      <trkpt lat="42.87576" lon="-0.18604">
        <ele>2306.4</ele>
        <time>2026-07-15T11:19:15Z</time>
      </trkpt>
      <trkpt lat="42.87576" lon="-0.18604">
        <ele>2306.4</ele>
        <time>2026-07-15T11:19:16Z</time>
      </trkpt>
      <trkpt lat="42.87576" lon="-0.18604">
        <ele>2305.4</ele>
        <time>2026-07-15T11:19:17Z</time>
      </trkpt>
      <trkpt lat="42.87576" lon="-0.18604">
        <ele>2305.4</ele>
        <time>2026-07-15T11:19:18Z</time>
      </trkpt>
      <trkpt lat="42.87577" lon="-0.18604">
        <ele>2305.4</ele>
        <time>2026-07-15T11:19:19Z</time>
      </trkpt>
      <trkpt lat="42.87577" lon="-0.18604">
        <ele>2305.4</ele>
        <time>2026-07-15T11:19:20Z</time>
      </trkpt>
      <trkpt lat="42.87577" lon="-0.18604">
        <ele>2306.4</ele>
        <time>2026-07-15T11:19:21Z</time>
      </trkpt>
      <trkpt lat="42.87578" lon="-0.18604">
        <ele>2306.4</ele>
        <time>2026-07-15T11:19:21Z</time>
      </trkpt>
      <trkpt lat="42.87579" lon="-0.18604">
        <ele>2306.4</ele>
        <time>2026-07-15T11:19:22Z</time>
      </trkpt>
      <trkpt lat="42.8758" lon="-0.18603">
        <ele>2306.4</ele>
        <time>2026-07-15T11:19:23Z</time>
      </trkpt>
      <trkpt lat="42.8758" lon="-0.18603">
        <ele>2306.4</ele>
        <time>2026-07-15T11:19:23Z</time>
      </trkpt>
      <trkpt lat="42.87581" lon="-0.18602">
        <ele>2306.4</ele>
        <time>2026-07-15T11:19:24Z</time>
      </trkpt>
      <trkpt lat="42.87582" lon="-0.18602">
        <ele>2306.4</ele>
        <time>2026-07-15T11:19:24Z</time>
      </trkpt>
      <trkpt lat="42.87583" lon="-0.18602">
        <ele>2306.4</ele>
        <time>2026-07-15T11:19:25Z</time>
      </trkpt>
      <trkpt lat="42.87583" lon="-0.18601">
        <ele>2306.4</ele>
        <time>2026-07-15T11:19:26Z</time>
      </trkpt>
      <trkpt lat="42.87584" lon="-0.18601">
        <ele>2306.4</ele>
        <time>2026-07-15T11:19:26Z</time>
      </trkpt>
      <trkpt lat="42.87585" lon="-0.18601">
        <ele>2306.4</ele>
        <time>2026-07-15T11:19:27Z</time>
      </trkpt>
      <trkpt lat="42.87585" lon="-0.18601">
        <ele>2307.4</ele>
        <time>2026-07-15T11:19:27Z</time>
      </trkpt>
      <trkpt lat="42.87586" lon="-0.18601">
        <ele>2307.4</ele>
        <time>2026-07-15T11:19:28Z</time>
      </trkpt>
      <trkpt lat="42.87585" lon="-0.18601">
        <ele>2307.4</ele>
        <time>2026-07-15T11:19:29Z</time>
      </trkpt>
      <trkpt lat="42.87585" lon="-0.18601">
        <ele>2307.4</ele>
        <time>2026-07-15T11:19:29Z</time>
      </trkpt>
      <trkpt lat="42.87585" lon="-0.18601">
        <ele>2307.4</ele>
        <time>2026-07-15T11:19:30Z</time>
      </trkpt>
      <trkpt lat="42.87584" lon="-0.18601">
        <ele>2307.4</ele>
        <time>2026-07-15T11:19:30Z</time>
      </trkpt>
      <trkpt lat="42.87585" lon="-0.18601">
        <ele>2306.4</ele>
        <time>2026-07-15T11:19:31Z</time>
      </trkpt>
      <trkpt lat="42.87585" lon="-0.18601">
        <ele>2306.4</ele>
        <time>2026-07-15T11:19:32Z</time>
      </trkpt>
      <trkpt lat="42.87586" lon="-0.186">
        <ele>2306.4</ele>
        <time>2026-07-15T11:19:32Z</time>
      </trkpt>
      <trkpt lat="42.87586" lon="-0.186">
        <ele>2306.4</ele>
        <time>2026-07-15T11:19:33Z</time>
      </trkpt>
      <trkpt lat="42.87587" lon="-0.18599">
        <ele>2306.4</ele>
        <time>2026-07-15T11:19:33Z</time>
      </trkpt>
      <trkpt lat="42.87588" lon="-0.18598">
        <ele>2306.4</ele>
        <time>2026-07-15T11:19:34Z</time>
      </trkpt>
      <trkpt lat="42.87589" lon="-0.18597">
        <ele>2306.4</ele>
        <time>2026-07-15T11:19:35Z</time>
      </trkpt>
      <trkpt lat="42.87589" lon="-0.18596">
        <ele>2306.4</ele>
        <time>2026-07-15T11:19:35Z</time>
      </trkpt>
      <trkpt lat="42.8759" lon="-0.18595">
        <ele>2307.4</ele>
        <time>2026-07-15T11:19:36Z</time>
      </trkpt>
      <trkpt lat="42.8759" lon="-0.18594">
        <ele>2307.4</ele>
        <time>2026-07-15T11:19:37Z</time>
      </trkpt>
      <trkpt lat="42.8759" lon="-0.18593">
        <ele>2306.4</ele>
        <time>2026-07-15T11:19:37Z</time>
      </trkpt>
      <trkpt lat="42.8759" lon="-0.18592">
        <ele>2306.4</ele>
        <time>2026-07-15T11:19:38Z</time>
      </trkpt>
      <trkpt lat="42.8759" lon="-0.18591">
        <ele>2306.4</ele>
        <time>2026-07-15T11:19:39Z</time>
      </trkpt>
      <trkpt lat="42.87591" lon="-0.1859">
        <ele>2307.4</ele>
        <time>2026-07-15T11:19:39Z</time>
      </trkpt>
      <trkpt lat="42.87591" lon="-0.18589">
        <ele>2307.4</ele>
        <time>2026-07-15T11:19:40Z</time>
      </trkpt>
      <trkpt lat="42.87592" lon="-0.18588">
        <ele>2306.4</ele>
        <time>2026-07-15T11:19:41Z</time>
      </trkpt>
      <trkpt lat="42.87592" lon="-0.18587">
        <ele>2306.4</ele>
        <time>2026-07-15T11:19:42Z</time>
      </trkpt>
      <trkpt lat="42.87592" lon="-0.18587">
        <ele>2306.4</ele>
        <time>2026-07-15T11:19:42Z</time>
      </trkpt>
      <trkpt lat="42.87593" lon="-0.18586">
        <ele>2306.4</ele>
        <time>2026-07-15T11:19:43Z</time>
      </trkpt>
      <trkpt lat="42.87593" lon="-0.18586">
        <ele>2307.4</ele>
        <time>2026-07-15T11:19:44Z</time>
      </trkpt>
      <trkpt lat="42.87593" lon="-0.18585">
        <ele>2306.4</ele>
        <time>2026-07-15T11:19:44Z</time>
      </trkpt>
      <trkpt lat="42.87594" lon="-0.18585">
        <ele>2306.4</ele>
        <time>2026-07-15T11:19:45Z</time>
      </trkpt>
      <trkpt lat="42.87594" lon="-0.18584">
        <ele>2306.4</ele>
        <time>2026-07-15T11:19:45Z</time>
      </trkpt>
      <trkpt lat="42.87595" lon="-0.18584">
        <ele>2306.4</ele>
        <time>2026-07-15T11:19:46Z</time>
      </trkpt>
      <trkpt lat="42.87595" lon="-0.18583">
        <ele>2306.4</ele>
        <time>2026-07-15T11:19:46Z</time>
      </trkpt>
      <trkpt lat="42.87596" lon="-0.18583">
        <ele>2305.4</ele>
        <time>2026-07-15T11:19:47Z</time>
      </trkpt>
      <trkpt lat="42.87596" lon="-0.18582">
        <ele>2305.4</ele>
        <time>2026-07-15T11:19:48Z</time>
      </trkpt>
      <trkpt lat="42.87597" lon="-0.18582">
        <ele>2305.4</ele>
        <time>2026-07-15T11:19:48Z</time>
      </trkpt>
      <trkpt lat="42.87597" lon="-0.18582">
        <ele>2305.4</ele>
        <time>2026-07-15T11:19:49Z</time>
      </trkpt>
      <trkpt lat="42.87598" lon="-0.18582">
        <ele>2305.4</ele>
        <time>2026-07-15T11:19:50Z</time>
      </trkpt>
      <trkpt lat="42.87598" lon="-0.18582">
        <ele>2305.4</ele>
        <time>2026-07-15T11:19:51Z</time>
      </trkpt>
      <trkpt lat="42.87599" lon="-0.18582">
        <ele>2304.4</ele>
        <time>2026-07-15T11:19:51Z</time>
      </trkpt>
      <trkpt lat="42.87599" lon="-0.18581">
        <ele>2304.4</ele>
        <time>2026-07-15T11:19:52Z</time>
      </trkpt>
      <trkpt lat="42.876" lon="-0.18581">
        <ele>2305.4</ele>
        <time>2026-07-15T11:19:53Z</time>
      </trkpt>
      <trkpt lat="42.876" lon="-0.18581">
        <ele>2305.4</ele>
        <time>2026-07-15T11:19:53Z</time>
      </trkpt>
      <trkpt lat="42.87601" lon="-0.18581">
        <ele>2305.4</ele>
        <time>2026-07-15T11:19:54Z</time>
      </trkpt>
      <trkpt lat="42.87602" lon="-0.18581">
        <ele>2305.4</ele>
        <time>2026-07-15T11:19:54Z</time>
      </trkpt>
      <trkpt lat="42.87602" lon="-0.1858">
        <ele>2305.4</ele>
        <time>2026-07-15T11:19:55Z</time>
      </trkpt>
      <trkpt lat="42.87603" lon="-0.1858">
        <ele>2305.4</ele>
        <time>2026-07-15T11:19:56Z</time>
      </trkpt>
      <trkpt lat="42.87603" lon="-0.1858">
        <ele>2305.4</ele>
        <time>2026-07-15T11:19:56Z</time>
      </trkpt>
      <trkpt lat="42.87604" lon="-0.1858">
        <ele>2305.4</ele>
        <time>2026-07-15T11:19:57Z</time>
      </trkpt>
      <trkpt lat="42.87605" lon="-0.18581">
        <ele>2305.4</ele>
        <time>2026-07-15T11:19:57Z</time>
      </trkpt>
      <trkpt lat="42.87605" lon="-0.18581">
        <ele>2305.4</ele>
        <time>2026-07-15T11:19:58Z</time>
      </trkpt>
      <trkpt lat="42.87606" lon="-0.18581">
        <ele>2305.4</ele>
        <time>2026-07-15T11:19:58Z</time>
      </trkpt>
      <trkpt lat="42.87606" lon="-0.18581">
        <ele>2306.4</ele>
        <time>2026-07-15T11:19:59Z</time>
      </trkpt>
      <trkpt lat="42.87607" lon="-0.18581">
        <ele>2306.4</ele>
        <time>2026-07-15T11:20:00Z</time>
      </trkpt>
      <trkpt lat="42.87608" lon="-0.18582">
        <ele>2306.4</ele>
        <time>2026-07-15T11:20:00Z</time>
      </trkpt>
      <trkpt lat="42.87608" lon="-0.18582">
        <ele>2306.4</ele>
        <time>2026-07-15T11:20:01Z</time>
      </trkpt>
      <trkpt lat="42.87609" lon="-0.18582">
        <ele>2306.4</ele>
        <time>2026-07-15T11:20:02Z</time>
      </trkpt>
      <trkpt lat="42.87609" lon="-0.18582">
        <ele>2306.4</ele>
        <time>2026-07-15T11:20:02Z</time>
      </trkpt>
      <trkpt lat="42.8761" lon="-0.18582">
        <ele>2305.4</ele>
        <time>2026-07-15T11:20:03Z</time>
      </trkpt>
      <trkpt lat="42.8761" lon="-0.18582">
        <ele>2305.4</ele>
        <time>2026-07-15T11:20:04Z</time>
      </trkpt>
      <trkpt lat="42.87611" lon="-0.18582">
        <ele>2305.4</ele>
        <time>2026-07-15T11:20:05Z</time>
      </trkpt>
      <trkpt lat="42.8761" lon="-0.18583">
        <ele>2305.4</ele>
        <time>2026-07-15T11:20:05Z</time>
      </trkpt>
      <trkpt lat="42.8761" lon="-0.18583">
        <ele>2304.4</ele>
        <time>2026-07-15T11:20:06Z</time>
      </trkpt>
      <trkpt lat="42.8761" lon="-0.18584">
        <ele>2303.4</ele>
        <time>2026-07-15T11:20:07Z</time>
      </trkpt>
      <trkpt lat="42.87609" lon="-0.18584">
        <ele>2303.4</ele>
        <time>2026-07-15T11:20:08Z</time>
      </trkpt>
      <trkpt lat="42.87609" lon="-0.18583">
        <ele>2303.4</ele>
        <time>2026-07-15T11:20:09Z</time>
      </trkpt>
      <trkpt lat="42.87609" lon="-0.18583">
        <ele>2303.4</ele>
        <time>2026-07-15T11:20:10Z</time>
      </trkpt>
      <trkpt lat="42.87609" lon="-0.18583">
        <ele>2303.4</ele>
        <time>2026-07-15T11:20:10Z</time>
      </trkpt>
      <trkpt lat="42.87609" lon="-0.18583">
        <ele>2304.4</ele>
        <time>2026-07-15T11:20:11Z</time>
      </trkpt>
      <trkpt lat="42.87609" lon="-0.18583">
        <ele>2303.4</ele>
        <time>2026-07-15T11:20:12Z</time>
      </trkpt>
      <trkpt lat="42.87609" lon="-0.18583">
        <ele>2303.4</ele>
        <time>2026-07-15T11:20:13Z</time>
      </trkpt>
      <trkpt lat="42.87609" lon="-0.18583">
        <ele>2304.4</ele>
        <time>2026-07-15T11:20:14Z</time>
      </trkpt>
      <trkpt lat="42.87608" lon="-0.18582">
        <ele>2304.4</ele>
        <time>2026-07-15T11:20:15Z</time>
      </trkpt>
      <trkpt lat="42.87608" lon="-0.18582">
        <ele>2304.4</ele>
        <time>2026-07-15T11:20:16Z</time>
      </trkpt>
      <trkpt lat="42.87608" lon="-0.18582">
        <ele>2304.4</ele>
        <time>2026-07-15T11:20:17Z</time>
      </trkpt>
      <trkpt lat="42.87608" lon="-0.18582">
        <ele>2304.4</ele>
        <time>2026-07-15T11:20:18Z</time>
      </trkpt>
      <trkpt lat="42.87608" lon="-0.18581">
        <ele>2304.4</ele>
        <time>2026-07-15T11:20:19Z</time>
      </trkpt>
      <trkpt lat="42.87608" lon="-0.18581">
        <ele>2304.4</ele>
        <time>2026-07-15T11:20:20Z</time>
      </trkpt>
      <trkpt lat="42.87607" lon="-0.18581">
        <ele>2304.4</ele>
        <time>2026-07-15T11:20:21Z</time>
      </trkpt>
      <trkpt lat="42.87607" lon="-0.18581">
        <ele>2304.4</ele>
        <time>2026-07-15T11:20:22Z</time>
      </trkpt>
      <trkpt lat="42.87607" lon="-0.18581">
        <ele>2304.4</ele>
        <time>2026-07-15T11:20:23Z</time>
      </trkpt>
      <trkpt lat="42.87607" lon="-0.18581">
        <ele>2304.4</ele>
        <time>2026-07-15T11:20:24Z</time>
      </trkpt>
      <trkpt lat="42.87607" lon="-0.18581">
        <ele>2304.4</ele>
        <time>2026-07-15T11:20:25Z</time>
      </trkpt>
      <trkpt lat="42.87607" lon="-0.18581">
        <ele>2304.4</ele>
        <time>2026-07-15T11:20:26Z</time>
      </trkpt>
      <trkpt lat="42.87607" lon="-0.18581">
        <ele>2304.4</ele>
        <time>2026-07-15T11:20:27Z</time>
      </trkpt>
      <trkpt lat="42.87607" lon="-0.18581">
        <ele>2304.4</ele>
        <time>2026-07-15T11:20:28Z</time>
      </trkpt>
      <trkpt lat="42.87607" lon="-0.18581">
        <ele>2304.4</ele>
        <time>2026-07-15T11:20:29Z</time>
      </trkpt>
      <trkpt lat="42.87607" lon="-0.18581">
        <ele>2304.4</ele>
        <time>2026-07-15T11:20:30Z</time>
      </trkpt>
      <trkpt lat="42.87608" lon="-0.18581">
        <ele>2304.4</ele>
        <time>2026-07-15T11:20:31Z</time>
      </trkpt>
      <trkpt lat="42.87608" lon="-0.18581">
        <ele>2304.4</ele>
        <time>2026-07-15T11:20:32Z</time>
      </trkpt>
      <trkpt lat="42.87608" lon="-0.18581">
        <ele>2304.4</ele>
        <time>2026-07-15T11:20:33Z</time>
      </trkpt>
      <trkpt lat="42.87608" lon="-0.18581">
        <ele>2304.4</ele>
        <time>2026-07-15T11:20:33Z</time>
      </trkpt>
      <trkpt lat="42.87608" lon="-0.18581">
        <ele>2304.4</ele>
        <time>2026-07-15T11:20:34Z</time>
      </trkpt>
      <trkpt lat="42.87608" lon="-0.18581">
        <ele>2304.4</ele>
        <time>2026-07-15T11:20:35Z</time>
      </trkpt>
      <trkpt lat="42.87608" lon="-0.18581">
        <ele>2304.4</ele>
        <time>2026-07-15T11:20:36Z</time>
      </trkpt>
      <trkpt lat="42.87608" lon="-0.18581">
        <ele>2304.4</ele>
        <time>2026-07-15T11:20:37Z</time>
      </trkpt>
      <trkpt lat="42.87608" lon="-0.18581">
        <ele>2305.4</ele>
        <time>2026-07-15T11:20:38Z</time>
      </trkpt>
      <trkpt lat="42.87608" lon="-0.18581">
        <ele>2305.4</ele>
        <time>2026-07-15T11:20:39Z</time>
      </trkpt>
      <trkpt lat="42.87609" lon="-0.18581">
        <ele>2305.4</ele>
        <time>2026-07-15T11:20:40Z</time>
      </trkpt>
      <trkpt lat="42.87609" lon="-0.1858">
        <ele>2305.4</ele>
        <time>2026-07-15T11:20:41Z</time>
      </trkpt>
      <trkpt lat="42.87609" lon="-0.1858">
        <ele>2305.4</ele>
        <time>2026-07-15T11:20:41Z</time>
      </trkpt>
      <trkpt lat="42.87609" lon="-0.1858">
        <ele>2304.4</ele>
        <time>2026-07-15T11:20:42Z</time>
      </trkpt>
      <trkpt lat="42.8761" lon="-0.18579">
        <ele>2304.4</ele>
        <time>2026-07-15T11:20:43Z</time>
      </trkpt>
      <trkpt lat="42.8761" lon="-0.18579">
        <ele>2304.4</ele>
        <time>2026-07-15T11:20:44Z</time>
      </trkpt>
      <trkpt lat="42.87611" lon="-0.18578">
        <ele>2305.4</ele>
        <time>2026-07-15T11:20:44Z</time>
      </trkpt>
      <trkpt lat="42.87611" lon="-0.18578">
        <ele>2304.4</ele>
        <time>2026-07-15T11:20:45Z</time>
      </trkpt>
      <trkpt lat="42.87611" lon="-0.18577">
        <ele>2304.4</ele>
        <time>2026-07-15T11:20:46Z</time>
      </trkpt>
      <trkpt lat="42.87612" lon="-0.18577">
        <ele>2304.4</ele>
        <time>2026-07-15T11:20:47Z</time>
      </trkpt>
      <trkpt lat="42.87612" lon="-0.18577">
        <ele>2304.4</ele>
        <time>2026-07-15T11:20:47Z</time>
      </trkpt>
      <trkpt lat="42.87613" lon="-0.18576">
        <ele>2304.4</ele>
        <time>2026-07-15T11:20:48Z</time>
      </trkpt>
      <trkpt lat="42.87613" lon="-0.18576">
        <ele>2304.4</ele>
        <time>2026-07-15T11:20:49Z</time>
      </trkpt>
      <trkpt lat="42.87613" lon="-0.18576">
        <ele>2304.4</ele>
        <time>2026-07-15T11:20:49Z</time>
      </trkpt>
      <trkpt lat="42.87614" lon="-0.18576">
        <ele>2304.4</ele>
        <time>2026-07-15T11:20:50Z</time>
      </trkpt>
      <trkpt lat="42.87615" lon="-0.18576">
        <ele>2304.4</ele>
        <time>2026-07-15T11:20:51Z</time>
      </trkpt>
      <trkpt lat="42.87615" lon="-0.18576">
        <ele>2303.4</ele>
        <time>2026-07-15T11:20:51Z</time>
      </trkpt>
      <trkpt lat="42.87615" lon="-0.18576">
        <ele>2303.4</ele>
        <time>2026-07-15T11:20:52Z</time>
      </trkpt>
      <trkpt lat="42.87616" lon="-0.18576">
        <ele>2303.4</ele>
        <time>2026-07-15T11:20:53Z</time>
      </trkpt>
      <trkpt lat="42.87616" lon="-0.18577">
        <ele>2303.4</ele>
        <time>2026-07-15T11:20:54Z</time>
      </trkpt>
      <trkpt lat="42.87617" lon="-0.18577">
        <ele>2303.4</ele>
        <time>2026-07-15T11:20:54Z</time>
      </trkpt>
      <trkpt lat="42.87617" lon="-0.18577">
        <ele>2303.4</ele>
        <time>2026-07-15T11:20:55Z</time>
      </trkpt>
      <trkpt lat="42.87618" lon="-0.18577">
        <ele>2303.4</ele>
        <time>2026-07-15T11:20:56Z</time>
      </trkpt>
      <trkpt lat="42.87618" lon="-0.18577">
        <ele>2304.4</ele>
        <time>2026-07-15T11:20:56Z</time>
      </trkpt>
      <trkpt lat="42.87619" lon="-0.18577">
        <ele>2304.4</ele>
        <time>2026-07-15T11:20:57Z</time>
      </trkpt>
      <trkpt lat="42.87619" lon="-0.18576">
        <ele>2304.4</ele>
        <time>2026-07-15T11:20:58Z</time>
      </trkpt>
      <trkpt lat="42.8762" lon="-0.18576">
        <ele>2303.4</ele>
        <time>2026-07-15T11:20:58Z</time>
      </trkpt>
      <trkpt lat="42.8762" lon="-0.18576">
        <ele>2303.4</ele>
        <time>2026-07-15T11:20:59Z</time>
      </trkpt>
      <trkpt lat="42.87621" lon="-0.18576">
        <ele>2304.4</ele>
        <time>2026-07-15T11:20:59Z</time>
      </trkpt>
      <trkpt lat="42.87621" lon="-0.18577">
        <ele>2304.4</ele>
        <time>2026-07-15T11:21:00Z</time>
      </trkpt>
      <trkpt lat="42.87621" lon="-0.18577">
        <ele>2304.4</ele>
        <time>2026-07-15T11:21:01Z</time>
      </trkpt>
      <trkpt lat="42.87622" lon="-0.18577">
        <ele>2303.4</ele>
        <time>2026-07-15T11:21:02Z</time>
      </trkpt>
      <trkpt lat="42.87621" lon="-0.18577">
        <ele>2303.4</ele>
        <time>2026-07-15T11:21:02Z</time>
      </trkpt>
      <trkpt lat="42.87621" lon="-0.18577">
        <ele>2303.4</ele>
        <time>2026-07-15T11:21:03Z</time>
      </trkpt>
      <trkpt lat="42.87621" lon="-0.18577">
        <ele>2303.4</ele>
        <time>2026-07-15T11:21:04Z</time>
      </trkpt>
      <trkpt lat="42.87621" lon="-0.18577">
        <ele>2303.4</ele>
        <time>2026-07-15T11:21:05Z</time>
      </trkpt>
      <trkpt lat="42.87621" lon="-0.18576">
        <ele>2303.4</ele>
        <time>2026-07-15T11:21:06Z</time>
      </trkpt>
      <trkpt lat="42.87621" lon="-0.18576">
        <ele>2303.4</ele>
        <time>2026-07-15T11:21:07Z</time>
      </trkpt>
      <trkpt lat="42.87621" lon="-0.18576">
        <ele>2303.4</ele>
        <time>2026-07-15T11:21:08Z</time>
      </trkpt>
      <trkpt lat="42.87621" lon="-0.18576">
        <ele>2303.4</ele>
        <time>2026-07-15T11:21:09Z</time>
      </trkpt>
      <trkpt lat="42.87621" lon="-0.18576">
        <ele>2303.4</ele>
        <time>2026-07-15T11:21:10Z</time>
      </trkpt>
      <trkpt lat="42.87621" lon="-0.18576">
        <ele>2303.4</ele>
        <time>2026-07-15T11:21:11Z</time>
      </trkpt>
      <trkpt lat="42.8762" lon="-0.18576">
        <ele>2303.4</ele>
        <time>2026-07-15T11:21:12Z</time>
      </trkpt>
      <trkpt lat="42.8762" lon="-0.18576">
        <ele>2302.4</ele>
        <time>2026-07-15T11:21:13Z</time>
      </trkpt>
      <trkpt lat="42.8762" lon="-0.18576">
        <ele>2302.4</ele>
        <time>2026-07-15T11:21:14Z</time>
      </trkpt>
      <trkpt lat="42.87621" lon="-0.18576">
        <ele>2302.4</ele>
        <time>2026-07-15T11:21:14Z</time>
      </trkpt>
      <trkpt lat="42.87621" lon="-0.18576">
        <ele>2302.4</ele>
        <time>2026-07-15T11:21:15Z</time>
      </trkpt>
      <trkpt lat="42.87621" lon="-0.18576">
        <ele>2302.4</ele>
        <time>2026-07-15T11:21:16Z</time>
      </trkpt>
      <trkpt lat="42.87621" lon="-0.18576">
        <ele>2302.4</ele>
        <time>2026-07-15T11:21:16Z</time>
      </trkpt>
      <trkpt lat="42.87621" lon="-0.18576">
        <ele>2302.4</ele>
        <time>2026-07-15T11:21:17Z</time>
      </trkpt>
      <trkpt lat="42.87621" lon="-0.18576">
        <ele>2301.4</ele>
        <time>2026-07-15T11:21:18Z</time>
      </trkpt>
      <trkpt lat="42.87621" lon="-0.18575">
        <ele>2301.4</ele>
        <time>2026-07-15T11:21:19Z</time>
      </trkpt>
      <trkpt lat="42.87621" lon="-0.18575">
        <ele>2301.4</ele>
        <time>2026-07-15T11:21:20Z</time>
      </trkpt>
      <trkpt lat="42.87621" lon="-0.18575">
        <ele>2301.4</ele>
        <time>2026-07-15T11:21:20Z</time>
      </trkpt>
      <trkpt lat="42.87621" lon="-0.18575">
        <ele>2301.4</ele>
        <time>2026-07-15T11:21:21Z</time>
      </trkpt>
      <trkpt lat="42.87622" lon="-0.18574">
        <ele>2300.4</ele>
        <time>2026-07-15T11:21:22Z</time>
      </trkpt>
      <trkpt lat="42.87622" lon="-0.18573">
        <ele>2300.4</ele>
        <time>2026-07-15T11:21:23Z</time>
      </trkpt>
      <trkpt lat="42.87622" lon="-0.18571">
        <ele>2301.4</ele>
        <time>2026-07-15T11:21:23Z</time>
      </trkpt>
      <trkpt lat="42.87622" lon="-0.18571">
        <ele>2302.4</ele>
        <time>2026-07-15T11:21:24Z</time>
      </trkpt>
      <trkpt lat="42.87623" lon="-0.1857">
        <ele>2302.4</ele>
        <time>2026-07-15T11:21:25Z</time>
      </trkpt>
      <trkpt lat="42.87623" lon="-0.18569">
        <ele>2302.4</ele>
        <time>2026-07-15T11:21:26Z</time>
      </trkpt>
      <trkpt lat="42.87623" lon="-0.18568">
        <ele>2302.4</ele>
        <time>2026-07-15T11:21:27Z</time>
      </trkpt>
      <trkpt lat="42.87624" lon="-0.18567">
        <ele>2302.4</ele>
        <time>2026-07-15T11:21:27Z</time>
      </trkpt>
      <trkpt lat="42.87624" lon="-0.18566">
        <ele>2301.4</ele>
        <time>2026-07-15T11:21:28Z</time>
      </trkpt>
      <trkpt lat="42.87624" lon="-0.18565">
        <ele>2301.4</ele>
        <time>2026-07-15T11:21:29Z</time>
      </trkpt>
      <trkpt lat="42.87624" lon="-0.18564">
        <ele>2301.4</ele>
        <time>2026-07-15T11:21:30Z</time>
      </trkpt>
      <trkpt lat="42.87624" lon="-0.18564">
        <ele>2301.4</ele>
        <time>2026-07-15T11:21:30Z</time>
      </trkpt>
      <trkpt lat="42.87624" lon="-0.18563">
        <ele>2301.4</ele>
        <time>2026-07-15T11:21:31Z</time>
      </trkpt>
      <trkpt lat="42.87624" lon="-0.18562">
        <ele>2301.4</ele>
        <time>2026-07-15T11:21:31Z</time>
      </trkpt>
      <trkpt lat="42.87624" lon="-0.18562">
        <ele>2300.4</ele>
        <time>2026-07-15T11:21:32Z</time>
      </trkpt>
      <trkpt lat="42.87624" lon="-0.18561">
        <ele>2300.4</ele>
        <time>2026-07-15T11:21:33Z</time>
      </trkpt>
      <trkpt lat="42.87624" lon="-0.1856">
        <ele>2299.4</ele>
        <time>2026-07-15T11:21:34Z</time>
      </trkpt>
      <trkpt lat="42.87624" lon="-0.1856">
        <ele>2298.4</ele>
        <time>2026-07-15T11:21:34Z</time>
      </trkpt>
      <trkpt lat="42.87624" lon="-0.1856">
        <ele>2298.4</ele>
        <time>2026-07-15T11:21:35Z</time>
      </trkpt>
      <trkpt lat="42.87624" lon="-0.18558">
        <ele>2298.4</ele>
        <time>2026-07-15T11:21:36Z</time>
      </trkpt>
      <trkpt lat="42.87624" lon="-0.18558">
        <ele>2298.4</ele>
        <time>2026-07-15T11:21:36Z</time>
      </trkpt>
      <trkpt lat="42.87624" lon="-0.18558">
        <ele>2298.4</ele>
        <time>2026-07-15T11:21:37Z</time>
      </trkpt>
      <trkpt lat="42.87624" lon="-0.18557">
        <ele>2298.4</ele>
        <time>2026-07-15T11:21:38Z</time>
      </trkpt>
      <trkpt lat="42.87625" lon="-0.18557">
        <ele>2297.4</ele>
        <time>2026-07-15T11:21:38Z</time>
      </trkpt>
      <trkpt lat="42.87625" lon="-0.18556">
        <ele>2297.4</ele>
        <time>2026-07-15T11:21:39Z</time>
      </trkpt>
      <trkpt lat="42.87625" lon="-0.18555">
        <ele>2298.4</ele>
        <time>2026-07-15T11:21:40Z</time>
      </trkpt>
      <trkpt lat="42.87625" lon="-0.18556">
        <ele>2298.4</ele>
        <time>2026-07-15T11:21:40Z</time>
      </trkpt>
      <trkpt lat="42.87625" lon="-0.18555">
        <ele>2298.4</ele>
        <time>2026-07-15T11:21:41Z</time>
      </trkpt>
      <trkpt lat="42.87625" lon="-0.18555">
        <ele>2298.4</ele>
        <time>2026-07-15T11:21:42Z</time>
      </trkpt>
      <trkpt lat="42.87626" lon="-0.18554">
        <ele>2298.4</ele>
        <time>2026-07-15T11:21:42Z</time>
      </trkpt>
      <trkpt lat="42.87626" lon="-0.18553">
        <ele>2298.4</ele>
        <time>2026-07-15T11:21:43Z</time>
      </trkpt>
      <trkpt lat="42.87626" lon="-0.18552">
        <ele>2298.4</ele>
        <time>2026-07-15T11:21:43Z</time>
      </trkpt>
      <trkpt lat="42.87626" lon="-0.18551">
        <ele>2298.4</ele>
        <time>2026-07-15T11:21:44Z</time>
      </trkpt>
      <trkpt lat="42.87626" lon="-0.1855">
        <ele>2297.4</ele>
        <time>2026-07-15T11:21:45Z</time>
      </trkpt>
      <trkpt lat="42.87626" lon="-0.18549">
        <ele>2297.4</ele>
        <time>2026-07-15T11:21:45Z</time>
      </trkpt>
      <trkpt lat="42.87625" lon="-0.18548">
        <ele>2297.4</ele>
        <time>2026-07-15T11:21:46Z</time>
      </trkpt>
      <trkpt lat="42.87626" lon="-0.18548">
        <ele>2297.4</ele>
        <time>2026-07-15T11:21:47Z</time>
      </trkpt>
      <trkpt lat="42.87626" lon="-0.18547">
        <ele>2296.4</ele>
        <time>2026-07-15T11:21:47Z</time>
      </trkpt>
      <trkpt lat="42.87626" lon="-0.18547">
        <ele>2296.4</ele>
        <time>2026-07-15T11:21:48Z</time>
      </trkpt>
      <trkpt lat="42.87626" lon="-0.18546">
        <ele>2297.4</ele>
        <time>2026-07-15T11:21:48Z</time>
      </trkpt>
      <trkpt lat="42.87626" lon="-0.18545">
        <ele>2297.4</ele>
        <time>2026-07-15T11:21:49Z</time>
      </trkpt>
      <trkpt lat="42.87626" lon="-0.18544">
        <ele>2297.4</ele>
        <time>2026-07-15T11:21:50Z</time>
      </trkpt>
      <trkpt lat="42.87626" lon="-0.18544">
        <ele>2297.4</ele>
        <time>2026-07-15T11:21:50Z</time>
      </trkpt>
      <trkpt lat="42.87627" lon="-0.18543">
        <ele>2297.4</ele>
        <time>2026-07-15T11:21:51Z</time>
      </trkpt>
      <trkpt lat="42.87627" lon="-0.18542">
        <ele>2297.4</ele>
        <time>2026-07-15T11:21:52Z</time>
      </trkpt>
      <trkpt lat="42.87627" lon="-0.18542">
        <ele>2297.4</ele>
        <time>2026-07-15T11:21:52Z</time>
      </trkpt>
      <trkpt lat="42.87627" lon="-0.18541">
        <ele>2297.4</ele>
        <time>2026-07-15T11:21:53Z</time>
      </trkpt>
      <trkpt lat="42.87627" lon="-0.1854">
        <ele>2297.4</ele>
        <time>2026-07-15T11:21:53Z</time>
      </trkpt>
      <trkpt lat="42.87627" lon="-0.1854">
        <ele>2297.4</ele>
        <time>2026-07-15T11:21:54Z</time>
      </trkpt>
      <trkpt lat="42.87627" lon="-0.18539">
        <ele>2296.4</ele>
        <time>2026-07-15T11:21:55Z</time>
      </trkpt>
      <trkpt lat="42.87627" lon="-0.18538">
        <ele>2296.4</ele>
        <time>2026-07-15T11:21:56Z</time>
      </trkpt>
      <trkpt lat="42.87627" lon="-0.18537">
        <ele>2296.4</ele>
        <time>2026-07-15T11:21:56Z</time>
      </trkpt>
      <trkpt lat="42.87628" lon="-0.18536">
        <ele>2296.4</ele>
        <time>2026-07-15T11:21:57Z</time>
      </trkpt>
      <trkpt lat="42.87627" lon="-0.18536">
        <ele>2296.4</ele>
        <time>2026-07-15T11:21:57Z</time>
      </trkpt>
      <trkpt lat="42.87627" lon="-0.18535">
        <ele>2296.4</ele>
        <time>2026-07-15T11:21:58Z</time>
      </trkpt>
      <trkpt lat="42.87627" lon="-0.18535">
        <ele>2296.4</ele>
        <time>2026-07-15T11:21:58Z</time>
      </trkpt>
      <trkpt lat="42.87628" lon="-0.18534">
        <ele>2296.4</ele>
        <time>2026-07-15T11:21:59Z</time>
      </trkpt>
      <trkpt lat="42.87628" lon="-0.18534">
        <ele>2296.4</ele>
        <time>2026-07-15T11:22:00Z</time>
      </trkpt>
      <trkpt lat="42.87628" lon="-0.18533">
        <ele>2296.4</ele>
        <time>2026-07-15T11:22:00Z</time>
      </trkpt>
      <trkpt lat="42.87628" lon="-0.18532">
        <ele>2296.4</ele>
        <time>2026-07-15T11:22:01Z</time>
      </trkpt>
      <trkpt lat="42.87628" lon="-0.18533">
        <ele>2297.4</ele>
        <time>2026-07-15T11:22:02Z</time>
      </trkpt>
      <trkpt lat="42.87628" lon="-0.18533">
        <ele>2297.4</ele>
        <time>2026-07-15T11:22:03Z</time>
      </trkpt>
      <trkpt lat="42.87628" lon="-0.18532">
        <ele>2297.4</ele>
        <time>2026-07-15T11:22:03Z</time>
      </trkpt>
      <trkpt lat="42.87628" lon="-0.18532">
        <ele>2297.4</ele>
        <time>2026-07-15T11:22:04Z</time>
      </trkpt>
      <trkpt lat="42.87628" lon="-0.18531">
        <ele>2297.4</ele>
        <time>2026-07-15T11:22:05Z</time>
      </trkpt>
      <trkpt lat="42.87628" lon="-0.18531">
        <ele>2297.4</ele>
        <time>2026-07-15T11:22:05Z</time>
      </trkpt>
      <trkpt lat="42.87629" lon="-0.1853">
        <ele>2297.4</ele>
        <time>2026-07-15T11:22:06Z</time>
      </trkpt>
      <trkpt lat="42.87629" lon="-0.18529">
        <ele>2297.4</ele>
        <time>2026-07-15T11:22:06Z</time>
      </trkpt>
      <trkpt lat="42.87629" lon="-0.18528">
        <ele>2297.4</ele>
        <time>2026-07-15T11:22:07Z</time>
      </trkpt>
      <trkpt lat="42.87629" lon="-0.18528">
        <ele>2297.4</ele>
        <time>2026-07-15T11:22:08Z</time>
      </trkpt>
      <trkpt lat="42.87629" lon="-0.18527">
        <ele>2296.4</ele>
        <time>2026-07-15T11:22:08Z</time>
      </trkpt>
      <trkpt lat="42.87629" lon="-0.18526">
        <ele>2296.4</ele>
        <time>2026-07-15T11:22:09Z</time>
      </trkpt>
      <trkpt lat="42.87629" lon="-0.18526">
        <ele>2296.4</ele>
        <time>2026-07-15T11:22:09Z</time>
      </trkpt>
      <trkpt lat="42.8763" lon="-0.18525">
        <ele>2296.4</ele>
        <time>2026-07-15T11:22:10Z</time>
      </trkpt>
      <trkpt lat="42.8763" lon="-0.18525">
        <ele>2295.4</ele>
        <time>2026-07-15T11:22:11Z</time>
      </trkpt>
      <trkpt lat="42.8763" lon="-0.18525">
        <ele>2296.4</ele>
        <time>2026-07-15T11:22:11Z</time>
      </trkpt>
      <trkpt lat="42.87631" lon="-0.18524">
        <ele>2296.4</ele>
        <time>2026-07-15T11:22:12Z</time>
      </trkpt>
      <trkpt lat="42.87631" lon="-0.18524">
        <ele>2295.4</ele>
        <time>2026-07-15T11:22:13Z</time>
      </trkpt>
      <trkpt lat="42.87631" lon="-0.18523">
        <ele>2295.4</ele>
        <time>2026-07-15T11:22:13Z</time>
      </trkpt>
      <trkpt lat="42.87631" lon="-0.18523">
        <ele>2295.4</ele>
        <time>2026-07-15T11:22:14Z</time>
      </trkpt>
      <trkpt lat="42.87631" lon="-0.18522">
        <ele>2295.4</ele>
        <time>2026-07-15T11:22:15Z</time>
      </trkpt>
      <trkpt lat="42.87631" lon="-0.18522">
        <ele>2295.4</ele>
        <time>2026-07-15T11:22:15Z</time>
      </trkpt>
      <trkpt lat="42.87632" lon="-0.18521">
        <ele>2295.4</ele>
        <time>2026-07-15T11:22:16Z</time>
      </trkpt>
      <trkpt lat="42.87632" lon="-0.18521">
        <ele>2295.4</ele>
        <time>2026-07-15T11:22:16Z</time>
      </trkpt>
      <trkpt lat="42.87632" lon="-0.1852">
        <ele>2295.4</ele>
        <time>2026-07-15T11:22:17Z</time>
      </trkpt>
      <trkpt lat="42.87632" lon="-0.18519">
        <ele>2294.4</ele>
        <time>2026-07-15T11:22:18Z</time>
      </trkpt>
      <trkpt lat="42.87632" lon="-0.18519">
        <ele>2294.4</ele>
        <time>2026-07-15T11:22:18Z</time>
      </trkpt>
      <trkpt lat="42.87632" lon="-0.18518">
        <ele>2294.4</ele>
        <time>2026-07-15T11:22:19Z</time>
      </trkpt>
      <trkpt lat="42.87632" lon="-0.18517">
        <ele>2295.4</ele>
        <time>2026-07-15T11:22:20Z</time>
      </trkpt>
      <trkpt lat="42.87632" lon="-0.18516">
        <ele>2294.4</ele>
        <time>2026-07-15T11:22:21Z</time>
      </trkpt>
      <trkpt lat="42.87633" lon="-0.18516">
        <ele>2294.4</ele>
        <time>2026-07-15T11:22:22Z</time>
      </trkpt>
      <trkpt lat="42.87633" lon="-0.18515">
        <ele>2294.4</ele>
        <time>2026-07-15T11:22:22Z</time>
      </trkpt>
      <trkpt lat="42.87633" lon="-0.18515">
        <ele>2293.4</ele>
        <time>2026-07-15T11:22:23Z</time>
      </trkpt>
      <trkpt lat="42.87633" lon="-0.18514">
        <ele>2293.4</ele>
        <time>2026-07-15T11:22:24Z</time>
      </trkpt>
      <trkpt lat="42.87633" lon="-0.18515">
        <ele>2291.4</ele>
        <time>2026-07-15T11:22:25Z</time>
      </trkpt>
      <trkpt lat="42.87633" lon="-0.18515">
        <ele>2290.4</ele>
        <time>2026-07-15T11:22:26Z</time>
      </trkpt>
      <trkpt lat="42.87632" lon="-0.18515">
        <ele>2290.4</ele>
        <time>2026-07-15T11:22:27Z</time>
      </trkpt>
      <trkpt lat="42.87632" lon="-0.18515">
        <ele>2290.4</ele>
        <time>2026-07-15T11:22:28Z</time>
      </trkpt>
      <trkpt lat="42.87632" lon="-0.18516">
        <ele>2290.4</ele>
        <time>2026-07-15T11:22:29Z</time>
      </trkpt>
      <trkpt lat="42.87632" lon="-0.18516">
        <ele>2290.4</ele>
        <time>2026-07-15T11:22:29Z</time>
      </trkpt>
      <trkpt lat="42.87632" lon="-0.18516">
        <ele>2290.4</ele>
        <time>2026-07-15T11:22:30Z</time>
      </trkpt>
      <trkpt lat="42.87632" lon="-0.18516">
        <ele>2290.4</ele>
        <time>2026-07-15T11:22:31Z</time>
      </trkpt>
      <trkpt lat="42.87632" lon="-0.18516">
        <ele>2289.4</ele>
        <time>2026-07-15T11:22:32Z</time>
      </trkpt>
      <trkpt lat="42.87632" lon="-0.18516">
        <ele>2289.4</ele>
        <time>2026-07-15T11:22:32Z</time>
      </trkpt>
      <trkpt lat="42.87632" lon="-0.18516">
        <ele>2289.4</ele>
        <time>2026-07-15T11:22:33Z</time>
      </trkpt>
      <trkpt lat="42.87632" lon="-0.18516">
        <ele>2289.4</ele>
        <time>2026-07-15T11:22:34Z</time>
      </trkpt>
      <trkpt lat="42.87632" lon="-0.18516">
        <ele>2289.4</ele>
        <time>2026-07-15T11:22:34Z</time>
      </trkpt>
      <trkpt lat="42.87632" lon="-0.18516">
        <ele>2289.4</ele>
        <time>2026-07-15T11:22:35Z</time>
      </trkpt>
      <trkpt lat="42.87632" lon="-0.18515">
        <ele>2289.4</ele>
        <time>2026-07-15T11:22:36Z</time>
      </trkpt>
      <trkpt lat="42.87633" lon="-0.18514">
        <ele>2290.4</ele>
        <time>2026-07-15T11:22:37Z</time>
      </trkpt>
      <trkpt lat="42.87633" lon="-0.18514">
        <ele>2290.4</ele>
        <time>2026-07-15T11:22:37Z</time>
      </trkpt>
      <trkpt lat="42.87633" lon="-0.18513">
        <ele>2290.4</ele>
        <time>2026-07-15T11:22:38Z</time>
      </trkpt>
      <trkpt lat="42.87634" lon="-0.18513">
        <ele>2290.4</ele>
        <time>2026-07-15T11:22:39Z</time>
      </trkpt>
      <trkpt lat="42.87634" lon="-0.18513">
        <ele>2290.4</ele>
        <time>2026-07-15T11:22:39Z</time>
      </trkpt>
      <trkpt lat="42.87635" lon="-0.18513">
        <ele>2290.4</ele>
        <time>2026-07-15T11:22:40Z</time>
      </trkpt>
      <trkpt lat="42.87635" lon="-0.18513">
        <ele>2290.4</ele>
        <time>2026-07-15T11:22:41Z</time>
      </trkpt>
      <trkpt lat="42.87636" lon="-0.18513">
        <ele>2290.4</ele>
        <time>2026-07-15T11:22:41Z</time>
      </trkpt>
      <trkpt lat="42.87636" lon="-0.18513">
        <ele>2291.4</ele>
        <time>2026-07-15T11:22:42Z</time>
      </trkpt>
      <trkpt lat="42.87636" lon="-0.18512">
        <ele>2291.4</ele>
        <time>2026-07-15T11:22:43Z</time>
      </trkpt>
      <trkpt lat="42.87637" lon="-0.18512">
        <ele>2290.4</ele>
        <time>2026-07-15T11:22:43Z</time>
      </trkpt>
      <trkpt lat="42.87637" lon="-0.18512">
        <ele>2290.4</ele>
        <time>2026-07-15T11:22:44Z</time>
      </trkpt>
      <trkpt lat="42.87638" lon="-0.18512">
        <ele>2290.4</ele>
        <time>2026-07-15T11:22:45Z</time>
      </trkpt>
      <trkpt lat="42.87638" lon="-0.18511">
        <ele>2290.4</ele>
        <time>2026-07-15T11:22:46Z</time>
      </trkpt>
      <trkpt lat="42.87638" lon="-0.18511">
        <ele>2290.4</ele>
        <time>2026-07-15T11:22:47Z</time>
      </trkpt>
      <trkpt lat="42.87638" lon="-0.18511">
        <ele>2290.4</ele>
        <time>2026-07-15T11:22:47Z</time>
      </trkpt>
      <trkpt lat="42.87639" lon="-0.18511">
        <ele>2290.4</ele>
        <time>2026-07-15T11:22:48Z</time>
      </trkpt>
      <trkpt lat="42.87639" lon="-0.1851">
        <ele>2291.4</ele>
        <time>2026-07-15T11:22:49Z</time>
      </trkpt>
      <trkpt lat="42.87639" lon="-0.1851">
        <ele>2290.4</ele>
        <time>2026-07-15T11:22:50Z</time>
      </trkpt>
      <trkpt lat="42.87639" lon="-0.1851">
        <ele>2291.4</ele>
        <time>2026-07-15T11:22:50Z</time>
      </trkpt>
      <trkpt lat="42.8764" lon="-0.18509">
        <ele>2290.4</ele>
        <time>2026-07-15T11:22:51Z</time>
      </trkpt>
      <trkpt lat="42.8764" lon="-0.18508">
        <ele>2290.4</ele>
        <time>2026-07-15T11:22:52Z</time>
      </trkpt>
      <trkpt lat="42.8764" lon="-0.18507">
        <ele>2289.4</ele>
        <time>2026-07-15T11:22:53Z</time>
      </trkpt>
      <trkpt lat="42.87641" lon="-0.18507">
        <ele>2289.4</ele>
        <time>2026-07-15T11:22:54Z</time>
      </trkpt>
      <trkpt lat="42.87641" lon="-0.18507">
        <ele>2289.4</ele>
        <time>2026-07-15T11:22:54Z</time>
      </trkpt>
      <trkpt lat="42.87641" lon="-0.18506">
        <ele>2289.4</ele>
        <time>2026-07-15T11:22:55Z</time>
      </trkpt>
      <trkpt lat="42.87641" lon="-0.18505">
        <ele>2289.4</ele>
        <time>2026-07-15T11:22:55Z</time>
      </trkpt>
      <trkpt lat="42.87642" lon="-0.18505">
        <ele>2289.4</ele>
        <time>2026-07-15T11:22:56Z</time>
      </trkpt>
      <trkpt lat="42.87642" lon="-0.18505">
        <ele>2289.4</ele>
        <time>2026-07-15T11:22:57Z</time>
      </trkpt>
      <trkpt lat="42.87643" lon="-0.18505">
        <ele>2288.4</ele>
        <time>2026-07-15T11:22:58Z</time>
      </trkpt>
      <trkpt lat="42.87643" lon="-0.18505">
        <ele>2288.4</ele>
        <time>2026-07-15T11:22:59Z</time>
      </trkpt>
      <trkpt lat="42.87644" lon="-0.18505">
        <ele>2287.4</ele>
        <time>2026-07-15T11:22:59Z</time>
      </trkpt>
      <trkpt lat="42.87644" lon="-0.18505">
        <ele>2287.4</ele>
        <time>2026-07-15T11:23:00Z</time>
      </trkpt>
      <trkpt lat="42.87644" lon="-0.18505">
        <ele>2287.4</ele>
        <time>2026-07-15T11:23:01Z</time>
      </trkpt>
      <trkpt lat="42.87644" lon="-0.18505">
        <ele>2287.4</ele>
        <time>2026-07-15T11:23:01Z</time>
      </trkpt>
      <trkpt lat="42.87644" lon="-0.18504">
        <ele>2287.4</ele>
        <time>2026-07-15T11:23:02Z</time>
      </trkpt>
      <trkpt lat="42.87644" lon="-0.18504">
        <ele>2286.4</ele>
        <time>2026-07-15T11:23:02Z</time>
      </trkpt>
      <trkpt lat="42.87644" lon="-0.18503">
        <ele>2287.4</ele>
        <time>2026-07-15T11:23:03Z</time>
      </trkpt>
      <trkpt lat="42.87644" lon="-0.18503">
        <ele>2287.4</ele>
        <time>2026-07-15T11:23:04Z</time>
      </trkpt>
      <trkpt lat="42.87644" lon="-0.18502">
        <ele>2287.4</ele>
        <time>2026-07-15T11:23:05Z</time>
      </trkpt>
      <trkpt lat="42.87645" lon="-0.18502">
        <ele>2287.4</ele>
        <time>2026-07-15T11:23:05Z</time>
      </trkpt>
      <trkpt lat="42.87645" lon="-0.18502">
        <ele>2287.4</ele>
        <time>2026-07-15T11:23:06Z</time>
      </trkpt>
      <trkpt lat="42.87645" lon="-0.18502">
        <ele>2287.4</ele>
        <time>2026-07-15T11:23:06Z</time>
      </trkpt>
      <trkpt lat="42.87646" lon="-0.18502">
        <ele>2287.4</ele>
        <time>2026-07-15T11:23:07Z</time>
      </trkpt>
      <trkpt lat="42.87646" lon="-0.18502">
        <ele>2287.4</ele>
        <time>2026-07-15T11:23:07Z</time>
      </trkpt>
      <trkpt lat="42.87647" lon="-0.18502">
        <ele>2287.4</ele>
        <time>2026-07-15T11:23:08Z</time>
      </trkpt>
      <trkpt lat="42.87647" lon="-0.18502">
        <ele>2287.4</ele>
        <time>2026-07-15T11:23:09Z</time>
      </trkpt>
      <trkpt lat="42.87647" lon="-0.18502">
        <ele>2287.4</ele>
        <time>2026-07-15T11:23:09Z</time>
      </trkpt>
      <trkpt lat="42.87647" lon="-0.18502">
        <ele>2287.4</ele>
        <time>2026-07-15T11:23:10Z</time>
      </trkpt>
      <trkpt lat="42.87648" lon="-0.18501">
        <ele>2287.4</ele>
        <time>2026-07-15T11:23:11Z</time>
      </trkpt>
      <trkpt lat="42.87648" lon="-0.185">
        <ele>2287.4</ele>
        <time>2026-07-15T11:23:12Z</time>
      </trkpt>
      <trkpt lat="42.87648" lon="-0.18499">
        <ele>2286.4</ele>
        <time>2026-07-15T11:23:13Z</time>
      </trkpt>
      <trkpt lat="42.87648" lon="-0.18499">
        <ele>2287.4</ele>
        <time>2026-07-15T11:23:13Z</time>
      </trkpt>
      <trkpt lat="42.87648" lon="-0.18498">
        <ele>2287.4</ele>
        <time>2026-07-15T11:23:14Z</time>
      </trkpt>
      <trkpt lat="42.87648" lon="-0.18498">
        <ele>2286.4</ele>
        <time>2026-07-15T11:23:15Z</time>
      </trkpt>
      <trkpt lat="42.87648" lon="-0.18498">
        <ele>2285.4</ele>
        <time>2026-07-15T11:23:15Z</time>
      </trkpt>
      <trkpt lat="42.87648" lon="-0.18497">
        <ele>2285.4</ele>
        <time>2026-07-15T11:23:16Z</time>
      </trkpt>
      <trkpt lat="42.87648" lon="-0.18496">
        <ele>2285.4</ele>
        <time>2026-07-15T11:23:17Z</time>
      </trkpt>
      <trkpt lat="42.87649" lon="-0.18496">
        <ele>2285.4</ele>
        <time>2026-07-15T11:23:18Z</time>
      </trkpt>
      <trkpt lat="42.87649" lon="-0.18496">
        <ele>2284.4</ele>
        <time>2026-07-15T11:23:18Z</time>
      </trkpt>
      <trkpt lat="42.87649" lon="-0.18495">
        <ele>2284.4</ele>
        <time>2026-07-15T11:23:19Z</time>
      </trkpt>
      <trkpt lat="42.8765" lon="-0.18495">
        <ele>2284.4</ele>
        <time>2026-07-15T11:23:20Z</time>
      </trkpt>
      <trkpt lat="42.87651" lon="-0.18495">
        <ele>2284.4</ele>
        <time>2026-07-15T11:23:20Z</time>
      </trkpt>
      <trkpt lat="42.87651" lon="-0.18496">
        <ele>2284.4</ele>
        <time>2026-07-15T11:23:21Z</time>
      </trkpt>
      <trkpt lat="42.87651" lon="-0.18497">
        <ele>2283.4</ele>
        <time>2026-07-15T11:23:21Z</time>
      </trkpt>
      <trkpt lat="42.87651" lon="-0.18498">
        <ele>2283.4</ele>
        <time>2026-07-15T11:23:22Z</time>
      </trkpt>
      <trkpt lat="42.87652" lon="-0.18499">
        <ele>2283.4</ele>
        <time>2026-07-15T11:23:23Z</time>
      </trkpt>
      <trkpt lat="42.87652" lon="-0.18499">
        <ele>2283.4</ele>
        <time>2026-07-15T11:23:23Z</time>
      </trkpt>
      <trkpt lat="42.87652" lon="-0.185">
        <ele>2283.4</ele>
        <time>2026-07-15T11:23:24Z</time>
      </trkpt>
      <trkpt lat="42.87653" lon="-0.18501">
        <ele>2282.4</ele>
        <time>2026-07-15T11:23:25Z</time>
      </trkpt>
      <trkpt lat="42.87653" lon="-0.18501">
        <ele>2282.4</ele>
        <time>2026-07-15T11:23:25Z</time>
      </trkpt>
      <trkpt lat="42.87653" lon="-0.18502">
        <ele>2282.4</ele>
        <time>2026-07-15T11:23:26Z</time>
      </trkpt>
      <trkpt lat="42.87653" lon="-0.18502">
        <ele>2282.4</ele>
        <time>2026-07-15T11:23:27Z</time>
      </trkpt>
      <trkpt lat="42.87653" lon="-0.18503">
        <ele>2282.4</ele>
        <time>2026-07-15T11:23:27Z</time>
      </trkpt>
      <trkpt lat="42.87654" lon="-0.18503">
        <ele>2282.4</ele>
        <time>2026-07-15T11:23:28Z</time>
      </trkpt>
      <trkpt lat="42.87654" lon="-0.18504">
        <ele>2281.4</ele>
        <time>2026-07-15T11:23:29Z</time>
      </trkpt>
      <trkpt lat="42.87654" lon="-0.18504">
        <ele>2280.4</ele>
        <time>2026-07-15T11:23:30Z</time>
      </trkpt>
      <trkpt lat="42.87655" lon="-0.18504">
        <ele>2281.4</ele>
        <time>2026-07-15T11:23:30Z</time>
      </trkpt>
      <trkpt lat="42.87655" lon="-0.18505">
        <ele>2281.4</ele>
        <time>2026-07-15T11:23:31Z</time>
      </trkpt>
      <trkpt lat="42.87655" lon="-0.18505">
        <ele>2281.4</ele>
        <time>2026-07-15T11:23:31Z</time>
      </trkpt>
      <trkpt lat="42.87656" lon="-0.18505">
        <ele>2281.4</ele>
        <time>2026-07-15T11:23:32Z</time>
      </trkpt>
      <trkpt lat="42.87656" lon="-0.18506">
        <ele>2281.4</ele>
        <time>2026-07-15T11:23:33Z</time>
      </trkpt>
      <trkpt lat="42.87656" lon="-0.18505">
        <ele>2281.4</ele>
        <time>2026-07-15T11:23:33Z</time>
      </trkpt>
      <trkpt lat="42.87656" lon="-0.18506">
        <ele>2281.4</ele>
        <time>2026-07-15T11:23:34Z</time>
      </trkpt>
      <trkpt lat="42.87656" lon="-0.18506">
        <ele>2280.4</ele>
        <time>2026-07-15T11:23:35Z</time>
      </trkpt>
      <trkpt lat="42.87657" lon="-0.18506">
        <ele>2280.4</ele>
        <time>2026-07-15T11:23:36Z</time>
      </trkpt>
      <trkpt lat="42.87657" lon="-0.18506">
        <ele>2279.4</ele>
        <time>2026-07-15T11:23:37Z</time>
      </trkpt>
      <trkpt lat="42.87658" lon="-0.18506">
        <ele>2279.4</ele>
        <time>2026-07-15T11:23:37Z</time>
      </trkpt>
      <trkpt lat="42.87658" lon="-0.18506">
        <ele>2278.4</ele>
        <time>2026-07-15T11:23:38Z</time>
      </trkpt>
      <trkpt lat="42.87658" lon="-0.18506">
        <ele>2278.4</ele>
        <time>2026-07-15T11:23:38Z</time>
      </trkpt>
      <trkpt lat="42.87659" lon="-0.18506">
        <ele>2278.4</ele>
        <time>2026-07-15T11:23:39Z</time>
      </trkpt>
      <trkpt lat="42.8766" lon="-0.18506">
        <ele>2277.4</ele>
        <time>2026-07-15T11:23:40Z</time>
      </trkpt>
      <trkpt lat="42.8766" lon="-0.18506">
        <ele>2277.4</ele>
        <time>2026-07-15T11:23:41Z</time>
      </trkpt>
      <trkpt lat="42.8766" lon="-0.18506">
        <ele>2277.4</ele>
        <time>2026-07-15T11:23:41Z</time>
      </trkpt>
      <trkpt lat="42.87661" lon="-0.18507">
        <ele>2277.4</ele>
        <time>2026-07-15T11:23:42Z</time>
      </trkpt>
      <trkpt lat="42.87661" lon="-0.18507">
        <ele>2277.4</ele>
        <time>2026-07-15T11:23:43Z</time>
      </trkpt>
      <trkpt lat="42.87662" lon="-0.18508">
        <ele>2276.4</ele>
        <time>2026-07-15T11:23:43Z</time>
      </trkpt>
      <trkpt lat="42.87662" lon="-0.18508">
        <ele>2276.4</ele>
        <time>2026-07-15T11:23:44Z</time>
      </trkpt>
      <trkpt lat="42.87662" lon="-0.18508">
        <ele>2276.4</ele>
        <time>2026-07-15T11:23:44Z</time>
      </trkpt>
      <trkpt lat="42.87663" lon="-0.18508">
        <ele>2276.4</ele>
        <time>2026-07-15T11:23:45Z</time>
      </trkpt>
      <trkpt lat="42.87663" lon="-0.18508">
        <ele>2276.4</ele>
        <time>2026-07-15T11:23:46Z</time>
      </trkpt>
      <trkpt lat="42.87663" lon="-0.18508">
        <ele>2276.4</ele>
        <time>2026-07-15T11:23:46Z</time>
      </trkpt>
      <trkpt lat="42.87664" lon="-0.18508">
        <ele>2276.4</ele>
        <time>2026-07-15T11:23:47Z</time>
      </trkpt>
      <trkpt lat="42.87665" lon="-0.18508">
        <ele>2276.4</ele>
        <time>2026-07-15T11:23:48Z</time>
      </trkpt>
      <trkpt lat="42.87665" lon="-0.18508">
        <ele>2275.4</ele>
        <time>2026-07-15T11:23:48Z</time>
      </trkpt>
      <trkpt lat="42.87665" lon="-0.18508">
        <ele>2275.4</ele>
        <time>2026-07-15T11:23:49Z</time>
      </trkpt>
      <trkpt lat="42.87666" lon="-0.18508">
        <ele>2274.4</ele>
        <time>2026-07-15T11:23:49Z</time>
      </trkpt>
      <trkpt lat="42.87666" lon="-0.18508">
        <ele>2274.4</ele>
        <time>2026-07-15T11:23:50Z</time>
      </trkpt>
      <trkpt lat="42.87667" lon="-0.18508">
        <ele>2274.4</ele>
        <time>2026-07-15T11:23:50Z</time>
      </trkpt>
      <trkpt lat="42.87667" lon="-0.18509">
        <ele>2272.4</ele>
        <time>2026-07-15T11:23:51Z</time>
      </trkpt>
      <trkpt lat="42.87668" lon="-0.18509">
        <ele>2272.4</ele>
        <time>2026-07-15T11:23:52Z</time>
      </trkpt>
      <trkpt lat="42.87668" lon="-0.1851">
        <ele>2272.4</ele>
        <time>2026-07-15T11:23:52Z</time>
      </trkpt>
      <trkpt lat="42.87669" lon="-0.1851">
        <ele>2272.4</ele>
        <time>2026-07-15T11:23:53Z</time>
      </trkpt>
      <trkpt lat="42.87669" lon="-0.1851">
        <ele>2272.4</ele>
        <time>2026-07-15T11:23:54Z</time>
      </trkpt>
      <trkpt lat="42.8767" lon="-0.1851">
        <ele>2272.4</ele>
        <time>2026-07-15T11:23:55Z</time>
      </trkpt>
      <trkpt lat="42.8767" lon="-0.18509">
        <ele>2272.4</ele>
        <time>2026-07-15T11:23:55Z</time>
      </trkpt>
      <trkpt lat="42.87671" lon="-0.18509">
        <ele>2272.4</ele>
        <time>2026-07-15T11:23:56Z</time>
      </trkpt>
      <trkpt lat="42.87671" lon="-0.18508">
        <ele>2272.4</ele>
        <time>2026-07-15T11:23:57Z</time>
      </trkpt>
      <trkpt lat="42.87672" lon="-0.18508">
        <ele>2271.4</ele>
        <time>2026-07-15T11:23:58Z</time>
      </trkpt>
      <trkpt lat="42.87672" lon="-0.18507">
        <ele>2271.4</ele>
        <time>2026-07-15T11:23:58Z</time>
      </trkpt>
      <trkpt lat="42.87673" lon="-0.18507">
        <ele>2271.4</ele>
        <time>2026-07-15T11:23:59Z</time>
      </trkpt>
      <trkpt lat="42.87673" lon="-0.18507">
        <ele>2270.4</ele>
        <time>2026-07-15T11:23:59Z</time>
      </trkpt>
      <trkpt lat="42.87673" lon="-0.18507">
        <ele>2270.4</ele>
        <time>2026-07-15T11:24:00Z</time>
      </trkpt>
      <trkpt lat="42.87674" lon="-0.18508">
        <ele>2270.4</ele>
        <time>2026-07-15T11:24:01Z</time>
      </trkpt>
      <trkpt lat="42.87674" lon="-0.18508">
        <ele>2269.4</ele>
        <time>2026-07-15T11:24:01Z</time>
      </trkpt>
      <trkpt lat="42.87675" lon="-0.18509">
        <ele>2269.4</ele>
        <time>2026-07-15T11:24:02Z</time>
      </trkpt>
      <trkpt lat="42.87675" lon="-0.1851">
        <ele>2269.4</ele>
        <time>2026-07-15T11:24:03Z</time>
      </trkpt>
      <trkpt lat="42.87676" lon="-0.1851">
        <ele>2268.4</ele>
        <time>2026-07-15T11:24:03Z</time>
      </trkpt>
      <trkpt lat="42.87676" lon="-0.18511">
        <ele>2268.4</ele>
        <time>2026-07-15T11:24:04Z</time>
      </trkpt>
      <trkpt lat="42.87676" lon="-0.18511">
        <ele>2269.4</ele>
        <time>2026-07-15T11:24:05Z</time>
      </trkpt>
      <trkpt lat="42.87675" lon="-0.1851">
        <ele>2268.4</ele>
        <time>2026-07-15T11:24:06Z</time>
      </trkpt>
      <trkpt lat="42.87675" lon="-0.18511">
        <ele>2268.4</ele>
        <time>2026-07-15T11:24:07Z</time>
      </trkpt>
      <trkpt lat="42.87674" lon="-0.18511">
        <ele>2268.4</ele>
        <time>2026-07-15T11:24:08Z</time>
      </trkpt>
      <trkpt lat="42.87674" lon="-0.18511">
        <ele>2268.4</ele>
        <time>2026-07-15T11:24:09Z</time>
      </trkpt>
      <trkpt lat="42.87674" lon="-0.18511">
        <ele>2268.4</ele>
        <time>2026-07-15T11:24:10Z</time>
      </trkpt>
      <trkpt lat="42.87674" lon="-0.18511">
        <ele>2268.4</ele>
        <time>2026-07-15T11:24:11Z</time>
      </trkpt>
      <trkpt lat="42.87674" lon="-0.18511">
        <ele>2268.4</ele>
        <time>2026-07-15T11:24:12Z</time>
      </trkpt>
      <trkpt lat="42.87673" lon="-0.18511">
        <ele>2268.4</ele>
        <time>2026-07-15T11:24:13Z</time>
      </trkpt>
      <trkpt lat="42.87673" lon="-0.18511">
        <ele>2268.4</ele>
        <time>2026-07-15T11:24:14Z</time>
      </trkpt>
      <trkpt lat="42.87673" lon="-0.18511">
        <ele>2268.4</ele>
        <time>2026-07-15T11:24:15Z</time>
      </trkpt>
      <trkpt lat="42.87673" lon="-0.18511">
        <ele>2268.4</ele>
        <time>2026-07-15T11:24:16Z</time>
      </trkpt>
      <trkpt lat="42.87673" lon="-0.18511">
        <ele>2268.4</ele>
        <time>2026-07-15T11:24:17Z</time>
      </trkpt>
      <trkpt lat="42.87673" lon="-0.18511">
        <ele>2268.4</ele>
        <time>2026-07-15T11:24:18Z</time>
      </trkpt>
      <trkpt lat="42.87673" lon="-0.18511">
        <ele>2268.4</ele>
        <time>2026-07-15T11:24:19Z</time>
      </trkpt>
      <trkpt lat="42.87673" lon="-0.18511">
        <ele>2268.4</ele>
        <time>2026-07-15T11:24:20Z</time>
      </trkpt>
      <trkpt lat="42.87673" lon="-0.18511">
        <ele>2268.4</ele>
        <time>2026-07-15T11:24:20Z</time>
      </trkpt>
      <trkpt lat="42.87673" lon="-0.18511">
        <ele>2268.4</ele>
        <time>2026-07-15T11:24:21Z</time>
      </trkpt>
      <trkpt lat="42.87673" lon="-0.18511">
        <ele>2268.4</ele>
        <time>2026-07-15T11:24:22Z</time>
      </trkpt>
      <trkpt lat="42.87674" lon="-0.18511">
        <ele>2269.4</ele>
        <time>2026-07-15T11:24:22Z</time>
      </trkpt>
      <trkpt lat="42.87674" lon="-0.18511">
        <ele>2269.4</ele>
        <time>2026-07-15T11:24:23Z</time>
      </trkpt>
      <trkpt lat="42.87674" lon="-0.18512">
        <ele>2269.4</ele>
        <time>2026-07-15T11:24:24Z</time>
      </trkpt>
      <trkpt lat="42.87675" lon="-0.18512">
        <ele>2268.4</ele>
        <time>2026-07-15T11:24:25Z</time>
      </trkpt>
      <trkpt lat="42.87675" lon="-0.18512">
        <ele>2268.4</ele>
        <time>2026-07-15T11:24:25Z</time>
      </trkpt>
      <trkpt lat="42.87675" lon="-0.18512">
        <ele>2268.4</ele>
        <time>2026-07-15T11:24:26Z</time>
      </trkpt>
      <trkpt lat="42.87675" lon="-0.18512">
        <ele>2268.4</ele>
        <time>2026-07-15T11:24:26Z</time>
      </trkpt>
      <trkpt lat="42.87676" lon="-0.18512">
        <ele>2268.4</ele>
        <time>2026-07-15T11:24:27Z</time>
      </trkpt>
      <trkpt lat="42.87676" lon="-0.18512">
        <ele>2267.4</ele>
        <time>2026-07-15T11:24:28Z</time>
      </trkpt>
      <trkpt lat="42.87677" lon="-0.18512">
        <ele>2267.4</ele>
        <time>2026-07-15T11:24:28Z</time>
      </trkpt>
      <trkpt lat="42.87678" lon="-0.18512">
        <ele>2267.4</ele>
        <time>2026-07-15T11:24:29Z</time>
      </trkpt>
      <trkpt lat="42.87678" lon="-0.18511">
        <ele>2267.4</ele>
        <time>2026-07-15T11:24:30Z</time>
      </trkpt>
      <trkpt lat="42.87679" lon="-0.18511">
        <ele>2268.4</ele>
        <time>2026-07-15T11:24:30Z</time>
      </trkpt>
      <trkpt lat="42.8768" lon="-0.1851">
        <ele>2268.4</ele>
        <time>2026-07-15T11:24:31Z</time>
      </trkpt>
      <trkpt lat="42.8768" lon="-0.1851">
        <ele>2267.4</ele>
        <time>2026-07-15T11:24:32Z</time>
      </trkpt>
      <trkpt lat="42.87681" lon="-0.1851">
        <ele>2267.4</ele>
        <time>2026-07-15T11:24:32Z</time>
      </trkpt>
      <trkpt lat="42.87681" lon="-0.1851">
        <ele>2267.4</ele>
        <time>2026-07-15T11:24:33Z</time>
      </trkpt>
      <trkpt lat="42.87682" lon="-0.1851">
        <ele>2267.4</ele>
        <time>2026-07-15T11:24:33Z</time>
      </trkpt>
      <trkpt lat="42.87682" lon="-0.18511">
        <ele>2266.4</ele>
        <time>2026-07-15T11:24:34Z</time>
      </trkpt>
      <trkpt lat="42.87682" lon="-0.18511">
        <ele>2266.4</ele>
        <time>2026-07-15T11:24:35Z</time>
      </trkpt>
      <trkpt lat="42.87683" lon="-0.18511">
        <ele>2266.4</ele>
        <time>2026-07-15T11:24:35Z</time>
      </trkpt>
      <trkpt lat="42.87684" lon="-0.18512">
        <ele>2266.4</ele>
        <time>2026-07-15T11:24:36Z</time>
      </trkpt>
      <trkpt lat="42.87685" lon="-0.18513">
        <ele>2267.4</ele>
        <time>2026-07-15T11:24:37Z</time>
      </trkpt>
      <trkpt lat="42.87685" lon="-0.18513">
        <ele>2267.4</ele>
        <time>2026-07-15T11:24:38Z</time>
      </trkpt>
      <trkpt lat="42.87685" lon="-0.18514">
        <ele>2267.4</ele>
        <time>2026-07-15T11:24:38Z</time>
      </trkpt>
      <trkpt lat="42.87686" lon="-0.18514">
        <ele>2267.4</ele>
        <time>2026-07-15T11:24:39Z</time>
      </trkpt>
      <trkpt lat="42.87686" lon="-0.18515">
        <ele>2266.4</ele>
        <time>2026-07-15T11:24:39Z</time>
      </trkpt>
      <trkpt lat="42.87686" lon="-0.18515">
        <ele>2266.4</ele>
        <time>2026-07-15T11:24:40Z</time>
      </trkpt>
      <trkpt lat="42.87686" lon="-0.18516">
        <ele>2267.4</ele>
        <time>2026-07-15T11:24:41Z</time>
      </trkpt>
      <trkpt lat="42.87687" lon="-0.18517">
        <ele>2267.4</ele>
        <time>2026-07-15T11:24:42Z</time>
      </trkpt>
      <trkpt lat="42.87687" lon="-0.18517">
        <ele>2267.4</ele>
        <time>2026-07-15T11:24:42Z</time>
      </trkpt>
      <trkpt lat="42.87687" lon="-0.18518">
        <ele>2267.4</ele>
        <time>2026-07-15T11:24:43Z</time>
      </trkpt>
      <trkpt lat="42.87688" lon="-0.18518">
        <ele>2267.4</ele>
        <time>2026-07-15T11:24:43Z</time>
      </trkpt>
      <trkpt lat="42.87688" lon="-0.18519">
        <ele>2267.4</ele>
        <time>2026-07-15T11:24:44Z</time>
      </trkpt>
      <trkpt lat="42.87688" lon="-0.1852">
        <ele>2267.4</ele>
        <time>2026-07-15T11:24:45Z</time>
      </trkpt>
      <trkpt lat="42.87689" lon="-0.18521">
        <ele>2266.4</ele>
        <time>2026-07-15T11:24:46Z</time>
      </trkpt>
      <trkpt lat="42.87689" lon="-0.18521">
        <ele>2265.4</ele>
        <time>2026-07-15T11:24:46Z</time>
      </trkpt>
      <trkpt lat="42.8769" lon="-0.18522">
        <ele>2265.4</ele>
        <time>2026-07-15T11:24:47Z</time>
      </trkpt>
      <trkpt lat="42.8769" lon="-0.18522">
        <ele>2265.4</ele>
        <time>2026-07-15T11:24:48Z</time>
      </trkpt>
      <trkpt lat="42.87691" lon="-0.18523">
        <ele>2265.4</ele>
        <time>2026-07-15T11:24:48Z</time>
      </trkpt>
      <trkpt lat="42.87691" lon="-0.18524">
        <ele>2265.4</ele>
        <time>2026-07-15T11:24:49Z</time>
      </trkpt>
      <trkpt lat="42.87692" lon="-0.18525">
        <ele>2265.4</ele>
        <time>2026-07-15T11:24:50Z</time>
      </trkpt>
      <trkpt lat="42.87692" lon="-0.18526">
        <ele>2265.4</ele>
        <time>2026-07-15T11:24:51Z</time>
      </trkpt>
      <trkpt lat="42.87693" lon="-0.18526">
        <ele>2265.4</ele>
        <time>2026-07-15T11:24:51Z</time>
      </trkpt>
      <trkpt lat="42.87693" lon="-0.18527">
        <ele>2265.4</ele>
        <time>2026-07-15T11:24:52Z</time>
      </trkpt>
      <trkpt lat="42.87694" lon="-0.18528">
        <ele>2265.4</ele>
        <time>2026-07-15T11:24:53Z</time>
      </trkpt>
      <trkpt lat="42.87694" lon="-0.18528">
        <ele>2265.4</ele>
        <time>2026-07-15T11:24:54Z</time>
      </trkpt>
      <trkpt lat="42.87695" lon="-0.18529">
        <ele>2265.4</ele>
        <time>2026-07-15T11:24:55Z</time>
      </trkpt>
      <trkpt lat="42.87695" lon="-0.18529">
        <ele>2264.4</ele>
        <time>2026-07-15T11:24:55Z</time>
      </trkpt>
      <trkpt lat="42.87696" lon="-0.1853">
        <ele>2264.4</ele>
        <time>2026-07-15T11:24:56Z</time>
      </trkpt>
      <trkpt lat="42.87696" lon="-0.1853">
        <ele>2264.4</ele>
        <time>2026-07-15T11:24:56Z</time>
      </trkpt>
      <trkpt lat="42.87697" lon="-0.18531">
        <ele>2264.4</ele>
        <time>2026-07-15T11:24:57Z</time>
      </trkpt>
      <trkpt lat="42.87697" lon="-0.18532">
        <ele>2264.4</ele>
        <time>2026-07-15T11:24:58Z</time>
      </trkpt>
      <trkpt lat="42.87698" lon="-0.18533">
        <ele>2264.4</ele>
        <time>2026-07-15T11:24:59Z</time>
      </trkpt>
      <trkpt lat="42.87698" lon="-0.18533">
        <ele>2264.4</ele>
        <time>2026-07-15T11:24:59Z</time>
      </trkpt>
      <trkpt lat="42.87698" lon="-0.18533">
        <ele>2264.4</ele>
        <time>2026-07-15T11:25:00Z</time>
      </trkpt>
      <trkpt lat="42.87699" lon="-0.18533">
        <ele>2265.4</ele>
        <time>2026-07-15T11:25:01Z</time>
      </trkpt>
      <trkpt lat="42.87699" lon="-0.18533">
        <ele>2265.4</ele>
        <time>2026-07-15T11:25:02Z</time>
      </trkpt>
      <trkpt lat="42.87699" lon="-0.18532">
        <ele>2265.4</ele>
        <time>2026-07-15T11:25:02Z</time>
      </trkpt>
      <trkpt lat="42.87699" lon="-0.18532">
        <ele>2265.4</ele>
        <time>2026-07-15T11:25:03Z</time>
      </trkpt>
      <trkpt lat="42.877" lon="-0.18533">
        <ele>2265.4</ele>
        <time>2026-07-15T11:25:04Z</time>
      </trkpt>
      <trkpt lat="42.877" lon="-0.18533">
        <ele>2264.4</ele>
        <time>2026-07-15T11:25:04Z</time>
      </trkpt>
      <trkpt lat="42.877" lon="-0.18533">
        <ele>2265.4</ele>
        <time>2026-07-15T11:25:05Z</time>
      </trkpt>
      <trkpt lat="42.877" lon="-0.18533">
        <ele>2264.4</ele>
        <time>2026-07-15T11:25:06Z</time>
      </trkpt>
      <trkpt lat="42.877" lon="-0.18532">
        <ele>2264.4</ele>
        <time>2026-07-15T11:25:07Z</time>
      </trkpt>
      <trkpt lat="42.87699" lon="-0.18532">
        <ele>2264.4</ele>
        <time>2026-07-15T11:25:08Z</time>
      </trkpt>
      <trkpt lat="42.87699" lon="-0.18532">
        <ele>2264.4</ele>
        <time>2026-07-15T11:25:09Z</time>
      </trkpt>
      <trkpt lat="42.87699" lon="-0.18532">
        <ele>2264.4</ele>
        <time>2026-07-15T11:25:10Z</time>
      </trkpt>
      <trkpt lat="42.87699" lon="-0.18532">
        <ele>2264.4</ele>
        <time>2026-07-15T11:25:11Z</time>
      </trkpt>
      <trkpt lat="42.87699" lon="-0.18532">
        <ele>2264.4</ele>
        <time>2026-07-15T11:25:12Z</time>
      </trkpt>
      <trkpt lat="42.87699" lon="-0.18532">
        <ele>2264.4</ele>
        <time>2026-07-15T11:25:13Z</time>
      </trkpt>
      <trkpt lat="42.87699" lon="-0.18532">
        <ele>2264.4</ele>
        <time>2026-07-15T11:25:14Z</time>
      </trkpt>
      <trkpt lat="42.87699" lon="-0.18532">
        <ele>2264.4</ele>
        <time>2026-07-15T11:25:15Z</time>
      </trkpt>
      <trkpt lat="42.87699" lon="-0.18532">
        <ele>2264.4</ele>
        <time>2026-07-15T11:25:16Z</time>
      </trkpt>
      <trkpt lat="42.87699" lon="-0.18532">
        <ele>2264.4</ele>
        <time>2026-07-15T11:25:17Z</time>
      </trkpt>
      <trkpt lat="42.87699" lon="-0.18532">
        <ele>2264.4</ele>
        <time>2026-07-15T11:25:18Z</time>
      </trkpt>
      <trkpt lat="42.87699" lon="-0.18532">
        <ele>2264.4</ele>
        <time>2026-07-15T11:25:19Z</time>
      </trkpt>
      <trkpt lat="42.87699" lon="-0.18532">
        <ele>2264.4</ele>
        <time>2026-07-15T11:25:20Z</time>
      </trkpt>
      <trkpt lat="42.87699" lon="-0.18532">
        <ele>2264.4</ele>
        <time>2026-07-15T11:25:21Z</time>
      </trkpt>
      <trkpt lat="42.87699" lon="-0.18532">
        <ele>2264.4</ele>
        <time>2026-07-15T11:25:22Z</time>
      </trkpt>
      <trkpt lat="42.87699" lon="-0.18532">
        <ele>2264.4</ele>
        <time>2026-07-15T11:25:23Z</time>
      </trkpt>
      <trkpt lat="42.87699" lon="-0.18532">
        <ele>2264.4</ele>
        <time>2026-07-15T11:25:24Z</time>
      </trkpt>
      <trkpt lat="42.87699" lon="-0.18532">
        <ele>2264.4</ele>
        <time>2026-07-15T11:25:25Z</time>
      </trkpt>
      <trkpt lat="42.87699" lon="-0.18532">
        <ele>2264.4</ele>
        <time>2026-07-15T11:25:26Z</time>
      </trkpt>
      <trkpt lat="42.87699" lon="-0.18532">
        <ele>2264.4</ele>
        <time>2026-07-15T11:25:27Z</time>
      </trkpt>
      <trkpt lat="42.87699" lon="-0.18532">
        <ele>2264.4</ele>
        <time>2026-07-15T11:25:28Z</time>
      </trkpt>
      <trkpt lat="42.87699" lon="-0.18532">
        <ele>2264.4</ele>
        <time>2026-07-15T11:25:29Z</time>
      </trkpt>
      <trkpt lat="42.87699" lon="-0.18532">
        <ele>2264.4</ele>
        <time>2026-07-15T11:25:30Z</time>
      </trkpt>
      <trkpt lat="42.87699" lon="-0.18532">
        <ele>2264.4</ele>
        <time>2026-07-15T11:25:31Z</time>
      </trkpt>
      <trkpt lat="42.87699" lon="-0.18532">
        <ele>2264.4</ele>
        <time>2026-07-15T11:25:32Z</time>
      </trkpt>
      <trkpt lat="42.87699" lon="-0.18532">
        <ele>2264.4</ele>
        <time>2026-07-15T11:25:33Z</time>
      </trkpt>
      <trkpt lat="42.87699" lon="-0.18532">
        <ele>2265.4</ele>
        <time>2026-07-15T11:25:34Z</time>
      </trkpt>
      <trkpt lat="42.87699" lon="-0.18531">
        <ele>2266.4</ele>
        <time>2026-07-15T11:25:35Z</time>
      </trkpt>
      <trkpt lat="42.87699" lon="-0.18531">
        <ele>2266.4</ele>
        <time>2026-07-15T11:25:36Z</time>
      </trkpt>
      <trkpt lat="42.87699" lon="-0.18531">
        <ele>2266.4</ele>
        <time>2026-07-15T11:25:37Z</time>
      </trkpt>
      <trkpt lat="42.87699" lon="-0.18531">
        <ele>2266.4</ele>
        <time>2026-07-15T11:25:38Z</time>
      </trkpt>
      <trkpt lat="42.87699" lon="-0.18531">
        <ele>2266.4</ele>
        <time>2026-07-15T11:25:39Z</time>
      </trkpt>
      <trkpt lat="42.87699" lon="-0.18532">
        <ele>2266.4</ele>
        <time>2026-07-15T11:25:40Z</time>
      </trkpt>
      <trkpt lat="42.87699" lon="-0.18532">
        <ele>2266.4</ele>
        <time>2026-07-15T11:25:40Z</time>
      </trkpt>
      <trkpt lat="42.87699" lon="-0.18532">
        <ele>2266.4</ele>
        <time>2026-07-15T11:25:41Z</time>
      </trkpt>
      <trkpt lat="42.87699" lon="-0.18532">
        <ele>2266.4</ele>
        <time>2026-07-15T11:25:42Z</time>
      </trkpt>
      <trkpt lat="42.877" lon="-0.18533">
        <ele>2266.4</ele>
        <time>2026-07-15T11:25:43Z</time>
      </trkpt>
      <trkpt lat="42.877" lon="-0.18533">
        <ele>2265.4</ele>
        <time>2026-07-15T11:25:43Z</time>
      </trkpt>
      <trkpt lat="42.877" lon="-0.18533">
        <ele>2265.4</ele>
        <time>2026-07-15T11:25:44Z</time>
      </trkpt>
      <trkpt lat="42.87701" lon="-0.18534">
        <ele>2265.4</ele>
        <time>2026-07-15T11:25:44Z</time>
      </trkpt>
      <trkpt lat="42.87701" lon="-0.18534">
        <ele>2265.4</ele>
        <time>2026-07-15T11:25:45Z</time>
      </trkpt>
      <trkpt lat="42.87701" lon="-0.18534">
        <ele>2265.4</ele>
        <time>2026-07-15T11:25:46Z</time>
      </trkpt>
      <trkpt lat="42.87702" lon="-0.18534">
        <ele>2265.4</ele>
        <time>2026-07-15T11:25:47Z</time>
      </trkpt>
      <trkpt lat="42.87702" lon="-0.18534">
        <ele>2265.4</ele>
        <time>2026-07-15T11:25:47Z</time>
      </trkpt>
      <trkpt lat="42.87703" lon="-0.18535">
        <ele>2265.4</ele>
        <time>2026-07-15T11:25:48Z</time>
      </trkpt>
      <trkpt lat="42.87704" lon="-0.18536">
        <ele>2265.4</ele>
        <time>2026-07-15T11:25:48Z</time>
      </trkpt>
      <trkpt lat="42.87704" lon="-0.18536">
        <ele>2264.4</ele>
        <time>2026-07-15T11:25:49Z</time>
      </trkpt>
      <trkpt lat="42.87705" lon="-0.18536">
        <ele>2264.4</ele>
        <time>2026-07-15T11:25:50Z</time>
      </trkpt>
      <trkpt lat="42.87706" lon="-0.18536">
        <ele>2264.4</ele>
        <time>2026-07-15T11:25:51Z</time>
      </trkpt>
      <trkpt lat="42.87706" lon="-0.18536">
        <ele>2264.4</ele>
        <time>2026-07-15T11:25:51Z</time>
      </trkpt>
      <trkpt lat="42.87707" lon="-0.18535">
        <ele>2264.4</ele>
        <time>2026-07-15T11:25:52Z</time>
      </trkpt>
      <trkpt lat="42.87707" lon="-0.18534">
        <ele>2264.4</ele>
        <time>2026-07-15T11:25:53Z</time>
      </trkpt>
      <trkpt lat="42.87708" lon="-0.18534">
        <ele>2264.4</ele>
        <time>2026-07-15T11:25:54Z</time>
      </trkpt>
      <trkpt lat="42.87708" lon="-0.18534">
        <ele>2264.4</ele>
        <time>2026-07-15T11:25:54Z</time>
      </trkpt>
      <trkpt lat="42.87708" lon="-0.18534">
        <ele>2264.4</ele>
        <time>2026-07-15T11:25:55Z</time>
      </trkpt>
      <trkpt lat="42.87709" lon="-0.18534">
        <ele>2263.4</ele>
        <time>2026-07-15T11:25:56Z</time>
      </trkpt>
      <trkpt lat="42.87709" lon="-0.18535">
        <ele>2264.4</ele>
        <time>2026-07-15T11:25:56Z</time>
      </trkpt>
      <trkpt lat="42.8771" lon="-0.18535">
        <ele>2264.4</ele>
        <time>2026-07-15T11:25:57Z</time>
      </trkpt>
      <trkpt lat="42.8771" lon="-0.18535">
        <ele>2263.4</ele>
        <time>2026-07-15T11:25:57Z</time>
      </trkpt>
      <trkpt lat="42.8771" lon="-0.18536">
        <ele>2263.4</ele>
        <time>2026-07-15T11:25:58Z</time>
      </trkpt>
      <trkpt lat="42.87711" lon="-0.18536">
        <ele>2263.4</ele>
        <time>2026-07-15T11:25:59Z</time>
      </trkpt>
      <trkpt lat="42.87711" lon="-0.18536">
        <ele>2263.4</ele>
        <time>2026-07-15T11:26:00Z</time>
      </trkpt>
      <trkpt lat="42.87711" lon="-0.18536">
        <ele>2262.4</ele>
        <time>2026-07-15T11:26:00Z</time>
      </trkpt>
      <trkpt lat="42.87712" lon="-0.18536">
        <ele>2262.4</ele>
        <time>2026-07-15T11:26:01Z</time>
      </trkpt>
      <trkpt lat="42.87712" lon="-0.18535">
        <ele>2261.4</ele>
        <time>2026-07-15T11:26:02Z</time>
      </trkpt>
      <trkpt lat="42.87712" lon="-0.18535">
        <ele>2261.4</ele>
        <time>2026-07-15T11:26:02Z</time>
      </trkpt>
      <trkpt lat="42.87712" lon="-0.18535">
        <ele>2261.4</ele>
        <time>2026-07-15T11:26:03Z</time>
      </trkpt>
      <trkpt lat="42.87712" lon="-0.18534">
        <ele>2261.4</ele>
        <time>2026-07-15T11:26:04Z</time>
      </trkpt>
      <trkpt lat="42.87713" lon="-0.18534">
        <ele>2259.4</ele>
        <time>2026-07-15T11:26:05Z</time>
      </trkpt>
      <trkpt lat="42.87714" lon="-0.18534">
        <ele>2259.4</ele>
        <time>2026-07-15T11:26:05Z</time>
      </trkpt>
      <trkpt lat="42.87714" lon="-0.18534">
        <ele>2259.4</ele>
        <time>2026-07-15T11:26:06Z</time>
      </trkpt>
      <trkpt lat="42.87715" lon="-0.18535">
        <ele>2259.4</ele>
        <time>2026-07-15T11:26:07Z</time>
      </trkpt>
      <trkpt lat="42.87715" lon="-0.18535">
        <ele>2259.4</ele>
        <time>2026-07-15T11:26:07Z</time>
      </trkpt>
      <trkpt lat="42.87716" lon="-0.18535">
        <ele>2259.4</ele>
        <time>2026-07-15T11:26:08Z</time>
      </trkpt>
      <trkpt lat="42.87716" lon="-0.18535">
        <ele>2259.4</ele>
        <time>2026-07-15T11:26:08Z</time>
      </trkpt>
      <trkpt lat="42.87716" lon="-0.18535">
        <ele>2259.4</ele>
        <time>2026-07-15T11:26:09Z</time>
      </trkpt>
      <trkpt lat="42.87716" lon="-0.18536">
        <ele>2259.4</ele>
        <time>2026-07-15T11:26:09Z</time>
      </trkpt>
      <trkpt lat="42.87717" lon="-0.18537">
        <ele>2259.4</ele>
        <time>2026-07-15T11:26:10Z</time>
      </trkpt>
      <trkpt lat="42.87717" lon="-0.18537">
        <ele>2259.4</ele>
        <time>2026-07-15T11:26:11Z</time>
      </trkpt>
      <trkpt lat="42.87717" lon="-0.18537">
        <ele>2260.4</ele>
        <time>2026-07-15T11:26:11Z</time>
      </trkpt>
      <trkpt lat="42.87718" lon="-0.18538">
        <ele>2260.4</ele>
        <time>2026-07-15T11:26:12Z</time>
      </trkpt>
      <trkpt lat="42.87718" lon="-0.18538">
        <ele>2259.4</ele>
        <time>2026-07-15T11:26:12Z</time>
      </trkpt>
      <trkpt lat="42.87718" lon="-0.18539">
        <ele>2259.4</ele>
        <time>2026-07-15T11:26:13Z</time>
      </trkpt>
      <trkpt lat="42.87719" lon="-0.18539">
        <ele>2260.4</ele>
        <time>2026-07-15T11:26:14Z</time>
      </trkpt>
      <trkpt lat="42.87719" lon="-0.1854">
        <ele>2260.4</ele>
        <time>2026-07-15T11:26:14Z</time>
      </trkpt>
      <trkpt lat="42.87719" lon="-0.18541">
        <ele>2260.4</ele>
        <time>2026-07-15T11:26:15Z</time>
      </trkpt>
      <trkpt lat="42.87719" lon="-0.18541">
        <ele>2259.4</ele>
        <time>2026-07-15T11:26:16Z</time>
      </trkpt>
      <trkpt lat="42.8772" lon="-0.18542">
        <ele>2259.4</ele>
        <time>2026-07-15T11:26:16Z</time>
      </trkpt>
      <trkpt lat="42.8772" lon="-0.18543">
        <ele>2259.4</ele>
        <time>2026-07-15T11:26:17Z</time>
      </trkpt>
      <trkpt lat="42.8772" lon="-0.18543">
        <ele>2259.4</ele>
        <time>2026-07-15T11:26:17Z</time>
      </trkpt>
      <trkpt lat="42.8772" lon="-0.18544">
        <ele>2259.4</ele>
        <time>2026-07-15T11:26:18Z</time>
      </trkpt>
      <trkpt lat="42.8772" lon="-0.18545">
        <ele>2258.4</ele>
        <time>2026-07-15T11:26:19Z</time>
      </trkpt>
      <trkpt lat="42.8772" lon="-0.18545">
        <ele>2258.4</ele>
        <time>2026-07-15T11:26:19Z</time>
      </trkpt>
      <trkpt lat="42.87721" lon="-0.18545">
        <ele>2258.4</ele>
        <time>2026-07-15T11:26:20Z</time>
      </trkpt>
      <trkpt lat="42.87721" lon="-0.18546">
        <ele>2258.4</ele>
        <time>2026-07-15T11:26:21Z</time>
      </trkpt>
      <trkpt lat="42.87721" lon="-0.18545">
        <ele>2258.4</ele>
        <time>2026-07-15T11:26:22Z</time>
      </trkpt>
      <trkpt lat="42.87722" lon="-0.18545">
        <ele>2258.4</ele>
        <time>2026-07-15T11:26:23Z</time>
      </trkpt>
      <trkpt lat="42.87722" lon="-0.18545">
        <ele>2258.4</ele>
        <time>2026-07-15T11:26:24Z</time>
      </trkpt>
      <trkpt lat="42.87723" lon="-0.18544">
        <ele>2257.4</ele>
        <time>2026-07-15T11:26:24Z</time>
      </trkpt>
      <trkpt lat="42.87723" lon="-0.18544">
        <ele>2257.4</ele>
        <time>2026-07-15T11:26:25Z</time>
      </trkpt>
      <trkpt lat="42.87724" lon="-0.18544">
        <ele>2256.4</ele>
        <time>2026-07-15T11:26:25Z</time>
      </trkpt>
      <trkpt lat="42.87725" lon="-0.18544">
        <ele>2256.4</ele>
        <time>2026-07-15T11:26:26Z</time>
      </trkpt>
      <trkpt lat="42.87725" lon="-0.18545">
        <ele>2256.4</ele>
        <time>2026-07-15T11:26:27Z</time>
      </trkpt>
      <trkpt lat="42.87727" lon="-0.18545">
        <ele>2255.4</ele>
        <time>2026-07-15T11:26:28Z</time>
      </trkpt>
      <trkpt lat="42.87727" lon="-0.18546">
        <ele>2255.4</ele>
        <time>2026-07-15T11:26:28Z</time>
      </trkpt>
      <trkpt lat="42.87728" lon="-0.18546">
        <ele>2255.4</ele>
        <time>2026-07-15T11:26:29Z</time>
      </trkpt>
      <trkpt lat="42.87729" lon="-0.18546">
        <ele>2256.4</ele>
        <time>2026-07-15T11:26:29Z</time>
      </trkpt>
      <trkpt lat="42.87729" lon="-0.18547">
        <ele>2255.4</ele>
        <time>2026-07-15T11:26:30Z</time>
      </trkpt>
      <trkpt lat="42.8773" lon="-0.18547">
        <ele>2255.4</ele>
        <time>2026-07-15T11:26:31Z</time>
      </trkpt>
      <trkpt lat="42.87731" lon="-0.18547">
        <ele>2255.4</ele>
        <time>2026-07-15T11:26:31Z</time>
      </trkpt>
      <trkpt lat="42.87731" lon="-0.18548">
        <ele>2255.4</ele>
        <time>2026-07-15T11:26:32Z</time>
      </trkpt>
      <trkpt lat="42.87732" lon="-0.18548">
        <ele>2255.4</ele>
        <time>2026-07-15T11:26:33Z</time>
      </trkpt>
      <trkpt lat="42.87733" lon="-0.18548">
        <ele>2255.4</ele>
        <time>2026-07-15T11:26:33Z</time>
      </trkpt>
      <trkpt lat="42.87733" lon="-0.18547">
        <ele>2255.4</ele>
        <time>2026-07-15T11:26:34Z</time>
      </trkpt>
      <trkpt lat="42.87734" lon="-0.18547">
        <ele>2255.4</ele>
        <time>2026-07-15T11:26:35Z</time>
      </trkpt>
      <trkpt lat="42.87734" lon="-0.18547">
        <ele>2255.4</ele>
        <time>2026-07-15T11:26:36Z</time>
      </trkpt>
      <trkpt lat="42.87734" lon="-0.18547">
        <ele>2255.4</ele>
        <time>2026-07-15T11:26:36Z</time>
      </trkpt>
      <trkpt lat="42.87735" lon="-0.18546">
        <ele>2255.4</ele>
        <time>2026-07-15T11:26:37Z</time>
      </trkpt>
      <trkpt lat="42.87735" lon="-0.18547">
        <ele>2255.4</ele>
        <time>2026-07-15T11:26:37Z</time>
      </trkpt>
      <trkpt lat="42.87736" lon="-0.18547">
        <ele>2255.4</ele>
        <time>2026-07-15T11:26:38Z</time>
      </trkpt>
      <trkpt lat="42.87737" lon="-0.18547">
        <ele>2256.4</ele>
        <time>2026-07-15T11:26:38Z</time>
      </trkpt>
      <trkpt lat="42.87737" lon="-0.18548">
        <ele>2256.4</ele>
        <time>2026-07-15T11:26:39Z</time>
      </trkpt>
      <trkpt lat="42.87738" lon="-0.18548">
        <ele>2256.4</ele>
        <time>2026-07-15T11:26:40Z</time>
      </trkpt>
      <trkpt lat="42.87738" lon="-0.18549">
        <ele>2256.4</ele>
        <time>2026-07-15T11:26:40Z</time>
      </trkpt>
      <trkpt lat="42.87739" lon="-0.18549">
        <ele>2256.4</ele>
        <time>2026-07-15T11:26:41Z</time>
      </trkpt>
      <trkpt lat="42.8774" lon="-0.18549">
        <ele>2256.4</ele>
        <time>2026-07-15T11:26:41Z</time>
      </trkpt>
      <trkpt lat="42.8774" lon="-0.1855">
        <ele>2257.4</ele>
        <time>2026-07-15T11:26:42Z</time>
      </trkpt>
      <trkpt lat="42.87741" lon="-0.1855">
        <ele>2257.4</ele>
        <time>2026-07-15T11:26:43Z</time>
      </trkpt>
      <trkpt lat="42.87741" lon="-0.1855">
        <ele>2257.4</ele>
        <time>2026-07-15T11:26:43Z</time>
      </trkpt>
      <trkpt lat="42.87742" lon="-0.1855">
        <ele>2257.4</ele>
        <time>2026-07-15T11:26:44Z</time>
      </trkpt>
      <trkpt lat="42.87742" lon="-0.1855">
        <ele>2257.4</ele>
        <time>2026-07-15T11:26:44Z</time>
      </trkpt>
      <trkpt lat="42.87743" lon="-0.18551">
        <ele>2257.4</ele>
        <time>2026-07-15T11:26:45Z</time>
      </trkpt>
      <trkpt lat="42.87743" lon="-0.18551">
        <ele>2257.4</ele>
        <time>2026-07-15T11:26:46Z</time>
      </trkpt>
      <trkpt lat="42.87744" lon="-0.18551">
        <ele>2258.4</ele>
        <time>2026-07-15T11:26:46Z</time>
      </trkpt>
      <trkpt lat="42.87745" lon="-0.18552">
        <ele>2258.4</ele>
        <time>2026-07-15T11:26:47Z</time>
      </trkpt>
      <trkpt lat="42.87745" lon="-0.18552">
        <ele>2258.4</ele>
        <time>2026-07-15T11:26:48Z</time>
      </trkpt>
      <trkpt lat="42.87745" lon="-0.18552">
        <ele>2258.4</ele>
        <time>2026-07-15T11:26:48Z</time>
      </trkpt>
      <trkpt lat="42.87746" lon="-0.18552">
        <ele>2258.4</ele>
        <time>2026-07-15T11:26:49Z</time>
      </trkpt>
      <trkpt lat="42.87747" lon="-0.18552">
        <ele>2258.4</ele>
        <time>2026-07-15T11:26:49Z</time>
      </trkpt>
      <trkpt lat="42.87747" lon="-0.18551">
        <ele>2258.4</ele>
        <time>2026-07-15T11:26:50Z</time>
      </trkpt>
      <trkpt lat="42.87748" lon="-0.18551">
        <ele>2258.4</ele>
        <time>2026-07-15T11:26:51Z</time>
      </trkpt>
      <trkpt lat="42.87748" lon="-0.18551">
        <ele>2258.4</ele>
        <time>2026-07-15T11:26:51Z</time>
      </trkpt>
      <trkpt lat="42.87749" lon="-0.1855">
        <ele>2258.4</ele>
        <time>2026-07-15T11:26:52Z</time>
      </trkpt>
      <trkpt lat="42.87749" lon="-0.1855">
        <ele>2258.4</ele>
        <time>2026-07-15T11:26:52Z</time>
      </trkpt>
      <trkpt lat="42.8775" lon="-0.1855">
        <ele>2257.4</ele>
        <time>2026-07-15T11:26:53Z</time>
      </trkpt>
      <trkpt lat="42.8775" lon="-0.1855">
        <ele>2257.4</ele>
        <time>2026-07-15T11:26:54Z</time>
      </trkpt>
      <trkpt lat="42.87751" lon="-0.1855">
        <ele>2257.4</ele>
        <time>2026-07-15T11:26:54Z</time>
      </trkpt>
      <trkpt lat="42.87751" lon="-0.1855">
        <ele>2257.4</ele>
        <time>2026-07-15T11:26:55Z</time>
      </trkpt>
      <trkpt lat="42.87752" lon="-0.1855">
        <ele>2257.4</ele>
        <time>2026-07-15T11:26:56Z</time>
      </trkpt>
      <trkpt lat="42.87752" lon="-0.1855">
        <ele>2258.4</ele>
        <time>2026-07-15T11:26:56Z</time>
      </trkpt>
      <trkpt lat="42.87753" lon="-0.1855">
        <ele>2258.4</ele>
        <time>2026-07-15T11:26:57Z</time>
      </trkpt>
      <trkpt lat="42.87754" lon="-0.1855">
        <ele>2258.4</ele>
        <time>2026-07-15T11:26:57Z</time>
      </trkpt>
      <trkpt lat="42.87754" lon="-0.1855">
        <ele>2258.4</ele>
        <time>2026-07-15T11:26:58Z</time>
      </trkpt>
      <trkpt lat="42.87755" lon="-0.1855">
        <ele>2258.4</ele>
        <time>2026-07-15T11:26:59Z</time>
      </trkpt>
      <trkpt lat="42.87756" lon="-0.1855">
        <ele>2259.4</ele>
        <time>2026-07-15T11:26:59Z</time>
      </trkpt>
      <trkpt lat="42.87756" lon="-0.18551">
        <ele>2258.4</ele>
        <time>2026-07-15T11:27:00Z</time>
      </trkpt>
      <trkpt lat="42.87757" lon="-0.18551">
        <ele>2258.4</ele>
        <time>2026-07-15T11:27:01Z</time>
      </trkpt>
      <trkpt lat="42.87757" lon="-0.18551">
        <ele>2257.4</ele>
        <time>2026-07-15T11:27:01Z</time>
      </trkpt>
      <trkpt lat="42.87758" lon="-0.18551">
        <ele>2257.4</ele>
        <time>2026-07-15T11:27:02Z</time>
      </trkpt>
      <trkpt lat="42.87759" lon="-0.18552">
        <ele>2257.4</ele>
        <time>2026-07-15T11:27:03Z</time>
      </trkpt>
      <trkpt lat="42.87759" lon="-0.18552">
        <ele>2257.4</ele>
        <time>2026-07-15T11:27:04Z</time>
      </trkpt>
      <trkpt lat="42.8776" lon="-0.18552">
        <ele>2256.4</ele>
        <time>2026-07-15T11:27:04Z</time>
      </trkpt>
      <trkpt lat="42.8776" lon="-0.18551">
        <ele>2256.4</ele>
        <time>2026-07-15T11:27:05Z</time>
      </trkpt>
      <trkpt lat="42.87761" lon="-0.18551">
        <ele>2257.4</ele>
        <time>2026-07-15T11:27:06Z</time>
      </trkpt>
      <trkpt lat="42.87761" lon="-0.18551">
        <ele>2257.4</ele>
        <time>2026-07-15T11:27:06Z</time>
      </trkpt>
      <trkpt lat="42.87762" lon="-0.18552">
        <ele>2257.4</ele>
        <time>2026-07-15T11:27:07Z</time>
      </trkpt>
      <trkpt lat="42.87762" lon="-0.18552">
        <ele>2257.4</ele>
        <time>2026-07-15T11:27:08Z</time>
      </trkpt>
      <trkpt lat="42.87763" lon="-0.18551">
        <ele>2257.4</ele>
        <time>2026-07-15T11:27:08Z</time>
      </trkpt>
      <trkpt lat="42.87763" lon="-0.18551">
        <ele>2257.4</ele>
        <time>2026-07-15T11:27:09Z</time>
      </trkpt>
      <trkpt lat="42.87764" lon="-0.18551">
        <ele>2257.4</ele>
        <time>2026-07-15T11:27:10Z</time>
      </trkpt>
      <trkpt lat="42.87764" lon="-0.18551">
        <ele>2258.4</ele>
        <time>2026-07-15T11:27:11Z</time>
      </trkpt>
      <trkpt lat="42.87764" lon="-0.18551">
        <ele>2257.4</ele>
        <time>2026-07-15T11:27:11Z</time>
      </trkpt>
      <trkpt lat="42.87765" lon="-0.18551">
        <ele>2257.4</ele>
        <time>2026-07-15T11:27:12Z</time>
      </trkpt>
      <trkpt lat="42.87766" lon="-0.18551">
        <ele>2257.4</ele>
        <time>2026-07-15T11:27:13Z</time>
      </trkpt>
      <trkpt lat="42.87766" lon="-0.18551">
        <ele>2257.4</ele>
        <time>2026-07-15T11:27:13Z</time>
      </trkpt>
      <trkpt lat="42.87767" lon="-0.18552">
        <ele>2257.4</ele>
        <time>2026-07-15T11:27:14Z</time>
      </trkpt>
      <trkpt lat="42.87767" lon="-0.18552">
        <ele>2256.4</ele>
        <time>2026-07-15T11:27:15Z</time>
      </trkpt>
      <trkpt lat="42.87768" lon="-0.18552">
        <ele>2256.4</ele>
        <time>2026-07-15T11:27:16Z</time>
      </trkpt>
      <trkpt lat="42.87768" lon="-0.18552">
        <ele>2256.4</ele>
        <time>2026-07-15T11:27:16Z</time>
      </trkpt>
      <trkpt lat="42.87768" lon="-0.18553">
        <ele>2256.4</ele>
        <time>2026-07-15T11:27:17Z</time>
      </trkpt>
      <trkpt lat="42.87769" lon="-0.18553">
        <ele>2256.4</ele>
        <time>2026-07-15T11:27:17Z</time>
      </trkpt>
      <trkpt lat="42.87769" lon="-0.18553">
        <ele>2256.4</ele>
        <time>2026-07-15T11:27:18Z</time>
      </trkpt>
      <trkpt lat="42.8777" lon="-0.18553">
        <ele>2256.4</ele>
        <time>2026-07-15T11:27:19Z</time>
      </trkpt>
      <trkpt lat="42.8777" lon="-0.18553">
        <ele>2256.4</ele>
        <time>2026-07-15T11:27:19Z</time>
      </trkpt>
      <trkpt lat="42.8777" lon="-0.18553">
        <ele>2256.4</ele>
        <time>2026-07-15T11:27:20Z</time>
      </trkpt>
      <trkpt lat="42.87771" lon="-0.18552">
        <ele>2256.4</ele>
        <time>2026-07-15T11:27:21Z</time>
      </trkpt>
      <trkpt lat="42.87771" lon="-0.18552">
        <ele>2256.4</ele>
        <time>2026-07-15T11:27:21Z</time>
      </trkpt>
      <trkpt lat="42.87772" lon="-0.18551">
        <ele>2256.4</ele>
        <time>2026-07-15T11:27:22Z</time>
      </trkpt>
      <trkpt lat="42.87772" lon="-0.18551">
        <ele>2256.4</ele>
        <time>2026-07-15T11:27:23Z</time>
      </trkpt>
      <trkpt lat="42.87773" lon="-0.1855">
        <ele>2256.4</ele>
        <time>2026-07-15T11:27:24Z</time>
      </trkpt>
      <trkpt lat="42.87773" lon="-0.18549">
        <ele>2256.4</ele>
        <time>2026-07-15T11:27:24Z</time>
      </trkpt>
      <trkpt lat="42.87773" lon="-0.18549">
        <ele>2256.4</ele>
        <time>2026-07-15T11:27:25Z</time>
      </trkpt>
      <trkpt lat="42.87774" lon="-0.18548">
        <ele>2256.4</ele>
        <time>2026-07-15T11:27:26Z</time>
      </trkpt>
      <trkpt lat="42.87774" lon="-0.18548">
        <ele>2257.4</ele>
        <time>2026-07-15T11:27:27Z</time>
      </trkpt>
      <trkpt lat="42.87775" lon="-0.18548">
        <ele>2257.4</ele>
        <time>2026-07-15T11:27:27Z</time>
      </trkpt>
      <trkpt lat="42.87775" lon="-0.18547">
        <ele>2258.4</ele>
        <time>2026-07-15T11:27:28Z</time>
      </trkpt>
      <trkpt lat="42.87776" lon="-0.18547">
        <ele>2258.4</ele>
        <time>2026-07-15T11:27:29Z</time>
      </trkpt>
      <trkpt lat="42.87776" lon="-0.18547">
        <ele>2259.4</ele>
        <time>2026-07-15T11:27:30Z</time>
      </trkpt>
      <trkpt lat="42.87776" lon="-0.18547">
        <ele>2259.4</ele>
        <time>2026-07-15T11:27:30Z</time>
      </trkpt>
      <trkpt lat="42.87776" lon="-0.18546">
        <ele>2260.4</ele>
        <time>2026-07-15T11:27:31Z</time>
      </trkpt>
      <trkpt lat="42.87777" lon="-0.18545">
        <ele>2259.4</ele>
        <time>2026-07-15T11:27:32Z</time>
      </trkpt>
      <trkpt lat="42.87777" lon="-0.18545">
        <ele>2259.4</ele>
        <time>2026-07-15T11:27:33Z</time>
      </trkpt>
      <trkpt lat="42.87777" lon="-0.18544">
        <ele>2260.4</ele>
        <time>2026-07-15T11:27:34Z</time>
      </trkpt>
      <trkpt lat="42.87777" lon="-0.18543">
        <ele>2259.4</ele>
        <time>2026-07-15T11:27:35Z</time>
      </trkpt>
      <trkpt lat="42.87777" lon="-0.18543">
        <ele>2259.4</ele>
        <time>2026-07-15T11:27:35Z</time>
      </trkpt>
      <trkpt lat="42.87777" lon="-0.18543">
        <ele>2259.4</ele>
        <time>2026-07-15T11:27:36Z</time>
      </trkpt>
      <trkpt lat="42.87777" lon="-0.18542">
        <ele>2259.4</ele>
        <time>2026-07-15T11:27:37Z</time>
      </trkpt>
      <trkpt lat="42.87777" lon="-0.18542">
        <ele>2258.4</ele>
        <time>2026-07-15T11:27:38Z</time>
      </trkpt>
      <trkpt lat="42.87777" lon="-0.18542">
        <ele>2258.4</ele>
        <time>2026-07-15T11:27:38Z</time>
      </trkpt>
      <trkpt lat="42.87777" lon="-0.18541">
        <ele>2259.4</ele>
        <time>2026-07-15T11:27:39Z</time>
      </trkpt>
      <trkpt lat="42.87777" lon="-0.18541">
        <ele>2260.4</ele>
        <time>2026-07-15T11:27:40Z</time>
      </trkpt>
      <trkpt lat="42.87778" lon="-0.18541">
        <ele>2261.4</ele>
        <time>2026-07-15T11:27:41Z</time>
      </trkpt>
      <trkpt lat="42.87778" lon="-0.18542">
        <ele>2261.4</ele>
        <time>2026-07-15T11:27:42Z</time>
      </trkpt>
      <trkpt lat="42.87778" lon="-0.18542">
        <ele>2261.4</ele>
        <time>2026-07-15T11:27:43Z</time>
      </trkpt>
      <trkpt lat="42.87778" lon="-0.18542">
        <ele>2261.4</ele>
        <time>2026-07-15T11:27:44Z</time>
      </trkpt>
      <trkpt lat="42.87777" lon="-0.18543">
        <ele>2261.4</ele>
        <time>2026-07-15T11:27:45Z</time>
      </trkpt>
      <trkpt lat="42.87777" lon="-0.18543">
        <ele>2261.4</ele>
        <time>2026-07-15T11:27:46Z</time>
      </trkpt>
      <trkpt lat="42.87777" lon="-0.18543">
        <ele>2261.4</ele>
        <time>2026-07-15T11:27:47Z</time>
      </trkpt>
      <trkpt lat="42.87777" lon="-0.18543">
        <ele>2261.4</ele>
        <time>2026-07-15T11:27:48Z</time>
      </trkpt>
      <trkpt lat="42.87777" lon="-0.18543">
        <ele>2261.4</ele>
        <time>2026-07-15T11:27:49Z</time>
      </trkpt>
      <trkpt lat="42.87777" lon="-0.18543">
        <ele>2261.4</ele>
        <time>2026-07-15T11:27:50Z</time>
      </trkpt>
      <trkpt lat="42.87777" lon="-0.18543">
        <ele>2261.4</ele>
        <time>2026-07-15T11:27:51Z</time>
      </trkpt>
      <trkpt lat="42.87777" lon="-0.18543">
        <ele>2261.4</ele>
        <time>2026-07-15T11:27:51Z</time>
      </trkpt>
      <trkpt lat="42.87777" lon="-0.18543">
        <ele>2261.4</ele>
        <time>2026-07-15T11:27:52Z</time>
      </trkpt>
      <trkpt lat="42.87777" lon="-0.18543">
        <ele>2261.4</ele>
        <time>2026-07-15T11:27:52Z</time>
      </trkpt>
      <trkpt lat="42.87777" lon="-0.18543">
        <ele>2262.4</ele>
        <time>2026-07-15T11:27:53Z</time>
      </trkpt>
      <trkpt lat="42.87777" lon="-0.18543">
        <ele>2262.4</ele>
        <time>2026-07-15T11:27:54Z</time>
      </trkpt>
      <trkpt lat="42.87777" lon="-0.18543">
        <ele>2261.4</ele>
        <time>2026-07-15T11:27:54Z</time>
      </trkpt>
      <trkpt lat="42.87778" lon="-0.18543">
        <ele>2261.4</ele>
        <time>2026-07-15T11:27:55Z</time>
      </trkpt>
      <trkpt lat="42.87778" lon="-0.18544">
        <ele>2261.4</ele>
        <time>2026-07-15T11:27:56Z</time>
      </trkpt>
      <trkpt lat="42.87778" lon="-0.18544">
        <ele>2261.4</ele>
        <time>2026-07-15T11:27:57Z</time>
      </trkpt>
      <trkpt lat="42.87778" lon="-0.18544">
        <ele>2261.4</ele>
        <time>2026-07-15T11:27:58Z</time>
      </trkpt>
      <trkpt lat="42.87778" lon="-0.18544">
        <ele>2261.4</ele>
        <time>2026-07-15T11:27:59Z</time>
      </trkpt>
      <trkpt lat="42.87778" lon="-0.18545">
        <ele>2261.4</ele>
        <time>2026-07-15T11:28:00Z</time>
      </trkpt>
      <trkpt lat="42.87778" lon="-0.18545">
        <ele>2261.4</ele>
        <time>2026-07-15T11:28:01Z</time>
      </trkpt>
      <trkpt lat="42.87778" lon="-0.18545">
        <ele>2261.4</ele>
        <time>2026-07-15T11:28:02Z</time>
      </trkpt>
      <trkpt lat="42.87778" lon="-0.18545">
        <ele>2261.4</ele>
        <time>2026-07-15T11:28:03Z</time>
      </trkpt>
      <trkpt lat="42.87778" lon="-0.18545">
        <ele>2261.4</ele>
        <time>2026-07-15T11:28:04Z</time>
      </trkpt>
      <trkpt lat="42.87778" lon="-0.18545">
        <ele>2261.4</ele>
        <time>2026-07-15T11:28:05Z</time>
      </trkpt>
      <trkpt lat="42.87778" lon="-0.18545">
        <ele>2261.4</ele>
        <time>2026-07-15T11:28:06Z</time>
      </trkpt>
      <trkpt lat="42.87778" lon="-0.18545">
        <ele>2261.4</ele>
        <time>2026-07-15T11:28:07Z</time>
      </trkpt>
      <trkpt lat="42.87778" lon="-0.18545">
        <ele>2261.4</ele>
        <time>2026-07-15T11:28:08Z</time>
      </trkpt>
      <trkpt lat="42.87778" lon="-0.18545">
        <ele>2261.4</ele>
        <time>2026-07-15T11:28:09Z</time>
      </trkpt>
      <trkpt lat="42.87778" lon="-0.18545">
        <ele>2261.4</ele>
        <time>2026-07-15T11:28:10Z</time>
      </trkpt>
      <trkpt lat="42.87778" lon="-0.18545">
        <ele>2261.4</ele>
        <time>2026-07-15T11:28:11Z</time>
      </trkpt>
      <trkpt lat="42.87778" lon="-0.18545">
        <ele>2261.4</ele>
        <time>2026-07-15T11:28:12Z</time>
      </trkpt>
      <trkpt lat="42.87778" lon="-0.18545">
        <ele>2261.4</ele>
        <time>2026-07-15T11:28:13Z</time>
      </trkpt>
      <trkpt lat="42.87778" lon="-0.18545">
        <ele>2262.4</ele>
        <time>2026-07-15T11:28:14Z</time>
      </trkpt>
      <trkpt lat="42.87778" lon="-0.18545">
        <ele>2262.4</ele>
        <time>2026-07-15T11:28:15Z</time>
      </trkpt>
      <trkpt lat="42.87778" lon="-0.18545">
        <ele>2263.4</ele>
        <time>2026-07-15T11:28:16Z</time>
      </trkpt>
      <trkpt lat="42.87778" lon="-0.18545">
        <ele>2263.4</ele>
        <time>2026-07-15T11:28:17Z</time>
      </trkpt>
      <trkpt lat="42.87778" lon="-0.18544">
        <ele>2263.4</ele>
        <time>2026-07-15T11:28:18Z</time>
      </trkpt>
      <trkpt lat="42.87778" lon="-0.18544">
        <ele>2263.4</ele>
        <time>2026-07-15T11:28:19Z</time>
      </trkpt>
      <trkpt lat="42.87778" lon="-0.18544">
        <ele>2263.4</ele>
        <time>2026-07-15T11:28:20Z</time>
      </trkpt>
      <trkpt lat="42.87778" lon="-0.18544">
        <ele>2263.4</ele>
        <time>2026-07-15T11:28:21Z</time>
      </trkpt>
      <trkpt lat="42.87778" lon="-0.18544">
        <ele>2263.4</ele>
        <time>2026-07-15T11:28:22Z</time>
      </trkpt>
      <trkpt lat="42.87778" lon="-0.18544">
        <ele>2262.4</ele>
        <time>2026-07-15T11:28:23Z</time>
      </trkpt>
      <trkpt lat="42.87778" lon="-0.18544">
        <ele>2262.4</ele>
        <time>2026-07-15T11:28:24Z</time>
      </trkpt>
      <trkpt lat="42.87778" lon="-0.18544">
        <ele>2262.4</ele>
        <time>2026-07-15T11:28:25Z</time>
      </trkpt>
      <trkpt lat="42.87778" lon="-0.18543">
        <ele>2262.4</ele>
        <time>2026-07-15T11:28:26Z</time>
      </trkpt>
      <trkpt lat="42.87778" lon="-0.18543">
        <ele>2262.4</ele>
        <time>2026-07-15T11:28:27Z</time>
      </trkpt>
      <trkpt lat="42.87778" lon="-0.18543">
        <ele>2262.4</ele>
        <time>2026-07-15T11:28:28Z</time>
      </trkpt>
      <trkpt lat="42.87778" lon="-0.18543">
        <ele>2262.4</ele>
        <time>2026-07-15T11:28:29Z</time>
      </trkpt>
      <trkpt lat="42.87778" lon="-0.18543">
        <ele>2262.4</ele>
        <time>2026-07-15T11:28:30Z</time>
      </trkpt>
      <trkpt lat="42.87778" lon="-0.18543">
        <ele>2262.4</ele>
        <time>2026-07-15T11:28:31Z</time>
      </trkpt>
      <trkpt lat="42.87778" lon="-0.18543">
        <ele>2262.4</ele>
        <time>2026-07-15T11:28:32Z</time>
      </trkpt>
      <trkpt lat="42.87778" lon="-0.18543">
        <ele>2262.4</ele>
        <time>2026-07-15T11:28:33Z</time>
      </trkpt>
      <trkpt lat="42.87778" lon="-0.18543">
        <ele>2262.4</ele>
        <time>2026-07-15T11:28:34Z</time>
      </trkpt>
      <trkpt lat="42.87778" lon="-0.18543">
        <ele>2262.4</ele>
        <time>2026-07-15T11:28:35Z</time>
      </trkpt>
      <trkpt lat="42.87778" lon="-0.18543">
        <ele>2262.4</ele>
        <time>2026-07-15T11:28:36Z</time>
      </trkpt>
      <trkpt lat="42.87778" lon="-0.18543">
        <ele>2262.4</ele>
        <time>2026-07-15T11:28:37Z</time>
      </trkpt>
      <trkpt lat="42.87778" lon="-0.18543">
        <ele>2262.4</ele>
        <time>2026-07-15T11:28:38Z</time>
      </trkpt>
      <trkpt lat="42.87778" lon="-0.18543">
        <ele>2262.4</ele>
        <time>2026-07-15T11:28:39Z</time>
      </trkpt>
      <trkpt lat="42.87778" lon="-0.18543">
        <ele>2262.4</ele>
        <time>2026-07-15T11:28:40Z</time>
      </trkpt>
      <trkpt lat="42.87778" lon="-0.18543">
        <ele>2262.4</ele>
        <time>2026-07-15T11:28:41Z</time>
      </trkpt>
      <trkpt lat="42.87778" lon="-0.18543">
        <ele>2262.4</ele>
        <time>2026-07-15T11:28:42Z</time>
      </trkpt>
      <trkpt lat="42.87778" lon="-0.18543">
        <ele>2262.4</ele>
        <time>2026-07-15T11:28:43Z</time>
      </trkpt>
      <trkpt lat="42.87778" lon="-0.18543">
        <ele>2262.4</ele>
        <time>2026-07-15T11:28:44Z</time>
      </trkpt>
      <trkpt lat="42.87778" lon="-0.18543">
        <ele>2262.4</ele>
        <time>2026-07-15T11:28:45Z</time>
      </trkpt>
      <trkpt lat="42.87778" lon="-0.18543">
        <ele>2262.4</ele>
        <time>2026-07-15T11:28:46Z</time>
      </trkpt>
      <trkpt lat="42.87778" lon="-0.18543">
        <ele>2262.4</ele>
        <time>2026-07-15T11:28:47Z</time>
      </trkpt>
      <trkpt lat="42.87778" lon="-0.18543">
        <ele>2262.4</ele>
        <time>2026-07-15T11:28:48Z</time>
      </trkpt>
      <trkpt lat="42.87778" lon="-0.18542">
        <ele>2261.4</ele>
        <time>2026-07-15T11:28:48Z</time>
      </trkpt>
      <trkpt lat="42.87778" lon="-0.18542">
        <ele>2261.4</ele>
        <time>2026-07-15T11:28:49Z</time>
      </trkpt>
      <trkpt lat="42.87778" lon="-0.18542">
        <ele>2261.4</ele>
        <time>2026-07-15T11:28:50Z</time>
      </trkpt>
      <trkpt lat="42.87778" lon="-0.18542">
        <ele>2260.4</ele>
        <time>2026-07-15T11:28:51Z</time>
      </trkpt>
      <trkpt lat="42.87778" lon="-0.18543">
        <ele>2261.4</ele>
        <time>2026-07-15T11:28:52Z</time>
      </trkpt>
      <trkpt lat="42.87779" lon="-0.18543">
        <ele>2260.4</ele>
        <time>2026-07-15T11:28:53Z</time>
      </trkpt>
      <trkpt lat="42.87779" lon="-0.18543">
        <ele>2260.4</ele>
        <time>2026-07-15T11:28:54Z</time>
      </trkpt>
      <trkpt lat="42.87779" lon="-0.18543">
        <ele>2261.4</ele>
        <time>2026-07-15T11:28:55Z</time>
      </trkpt>
      <trkpt lat="42.87779" lon="-0.18543">
        <ele>2261.4</ele>
        <time>2026-07-15T11:28:56Z</time>
      </trkpt>
      <trkpt lat="42.87779" lon="-0.18543">
        <ele>2262.4</ele>
        <time>2026-07-15T11:28:57Z</time>
      </trkpt>
      <trkpt lat="42.87779" lon="-0.18543">
        <ele>2262.4</ele>
        <time>2026-07-15T11:28:58Z</time>
      </trkpt>
      <trkpt lat="42.87779" lon="-0.18544">
        <ele>2262.4</ele>
        <time>2026-07-15T11:28:59Z</time>
      </trkpt>
      <trkpt lat="42.87779" lon="-0.18543">
        <ele>2263.4</ele>
        <time>2026-07-15T11:29:00Z</time>
      </trkpt>
      <trkpt lat="42.87779" lon="-0.18543">
        <ele>2263.4</ele>
        <time>2026-07-15T11:29:01Z</time>
      </trkpt>
      <trkpt lat="42.87779" lon="-0.18543">
        <ele>2263.4</ele>
        <time>2026-07-15T11:29:02Z</time>
      </trkpt>
      <trkpt lat="42.87779" lon="-0.18543">
        <ele>2263.4</ele>
        <time>2026-07-15T11:29:03Z</time>
      </trkpt>
      <trkpt lat="42.87779" lon="-0.18542">
        <ele>2263.4</ele>
        <time>2026-07-15T11:29:04Z</time>
      </trkpt>
      <trkpt lat="42.87779" lon="-0.18542">
        <ele>2263.4</ele>
        <time>2026-07-15T11:29:05Z</time>
      </trkpt>
      <trkpt lat="42.87779" lon="-0.18542">
        <ele>2263.4</ele>
        <time>2026-07-15T11:29:06Z</time>
      </trkpt>
      <trkpt lat="42.87779" lon="-0.18542">
        <ele>2263.4</ele>
        <time>2026-07-15T11:29:07Z</time>
      </trkpt>
      <trkpt lat="42.87779" lon="-0.18542">
        <ele>2262.4</ele>
        <time>2026-07-15T11:29:08Z</time>
      </trkpt>
      <trkpt lat="42.87779" lon="-0.18542">
        <ele>2261.4</ele>
        <time>2026-07-15T11:29:09Z</time>
      </trkpt>
      <trkpt lat="42.87779" lon="-0.18542">
        <ele>2261.4</ele>
        <time>2026-07-15T11:29:10Z</time>
      </trkpt>
      <trkpt lat="42.87779" lon="-0.18542">
        <ele>2261.4</ele>
        <time>2026-07-15T11:29:11Z</time>
      </trkpt>
      <trkpt lat="42.87778" lon="-0.18542">
        <ele>2261.4</ele>
        <time>2026-07-15T11:29:12Z</time>
      </trkpt>
      <trkpt lat="42.87778" lon="-0.18542">
        <ele>2261.4</ele>
        <time>2026-07-15T11:29:13Z</time>
      </trkpt>
      <trkpt lat="42.87778" lon="-0.18542">
        <ele>2261.4</ele>
        <time>2026-07-15T11:29:13Z</time>
      </trkpt>
      <trkpt lat="42.87778" lon="-0.18542">
        <ele>2261.4</ele>
        <time>2026-07-15T11:29:14Z</time>
      </trkpt>
      <trkpt lat="42.87778" lon="-0.18542">
        <ele>2261.4</ele>
        <time>2026-07-15T11:29:14Z</time>
      </trkpt>
      <trkpt lat="42.87778" lon="-0.18542">
        <ele>2261.4</ele>
        <time>2026-07-15T11:29:15Z</time>
      </trkpt>
      <trkpt lat="42.87778" lon="-0.18542">
        <ele>2261.4</ele>
        <time>2026-07-15T11:29:16Z</time>
      </trkpt>
      <trkpt lat="42.87779" lon="-0.18542">
        <ele>2261.4</ele>
        <time>2026-07-15T11:29:17Z</time>
      </trkpt>
      <trkpt lat="42.87779" lon="-0.18542">
        <ele>2261.4</ele>
        <time>2026-07-15T11:29:17Z</time>
      </trkpt>
      <trkpt lat="42.87779" lon="-0.18542">
        <ele>2261.4</ele>
        <time>2026-07-15T11:29:18Z</time>
      </trkpt>
      <trkpt lat="42.87779" lon="-0.18541">
        <ele>2261.4</ele>
        <time>2026-07-15T11:29:18Z</time>
      </trkpt>
      <trkpt lat="42.8778" lon="-0.18541">
        <ele>2260.4</ele>
        <time>2026-07-15T11:29:19Z</time>
      </trkpt>
      <trkpt lat="42.8778" lon="-0.1854">
        <ele>2260.4</ele>
        <time>2026-07-15T11:29:20Z</time>
      </trkpt>
      <trkpt lat="42.87781" lon="-0.18539">
        <ele>2260.4</ele>
        <time>2026-07-15T11:29:20Z</time>
      </trkpt>
      <trkpt lat="42.87781" lon="-0.18538">
        <ele>2260.4</ele>
        <time>2026-07-15T11:29:21Z</time>
      </trkpt>
      <trkpt lat="42.87782" lon="-0.18538">
        <ele>2260.4</ele>
        <time>2026-07-15T11:29:21Z</time>
      </trkpt>
      <trkpt lat="42.87782" lon="-0.18537">
        <ele>2260.4</ele>
        <time>2026-07-15T11:29:22Z</time>
      </trkpt>
      <trkpt lat="42.87783" lon="-0.18536">
        <ele>2260.4</ele>
        <time>2026-07-15T11:29:22Z</time>
      </trkpt>
      <trkpt lat="42.87783" lon="-0.18535">
        <ele>2260.4</ele>
        <time>2026-07-15T11:29:23Z</time>
      </trkpt>
      <trkpt lat="42.87784" lon="-0.18536">
        <ele>2260.4</ele>
        <time>2026-07-15T11:29:24Z</time>
      </trkpt>
      <trkpt lat="42.87785" lon="-0.18538">
        <ele>2260.4</ele>
        <time>2026-07-15T11:29:24Z</time>
      </trkpt>
      <trkpt lat="42.87785" lon="-0.18538">
        <ele>2260.4</ele>
        <time>2026-07-15T11:29:25Z</time>
      </trkpt>
      <trkpt lat="42.87786" lon="-0.18539">
        <ele>2261.4</ele>
        <time>2026-07-15T11:29:25Z</time>
      </trkpt>
      <trkpt lat="42.87786" lon="-0.1854">
        <ele>2261.4</ele>
        <time>2026-07-15T11:29:26Z</time>
      </trkpt>
      <trkpt lat="42.87787" lon="-0.18541">
        <ele>2261.4</ele>
        <time>2026-07-15T11:29:27Z</time>
      </trkpt>
      <trkpt lat="42.87788" lon="-0.18542">
        <ele>2261.4</ele>
        <time>2026-07-15T11:29:27Z</time>
      </trkpt>
      <trkpt lat="42.87788" lon="-0.18542">
        <ele>2261.4</ele>
        <time>2026-07-15T11:29:28Z</time>
      </trkpt>
      <trkpt lat="42.87789" lon="-0.18543">
        <ele>2262.4</ele>
        <time>2026-07-15T11:29:29Z</time>
      </trkpt>
      <trkpt lat="42.8779" lon="-0.18543">
        <ele>2261.4</ele>
        <time>2026-07-15T11:29:29Z</time>
      </trkpt>
      <trkpt lat="42.87791" lon="-0.18544">
        <ele>2261.4</ele>
        <time>2026-07-15T11:29:30Z</time>
      </trkpt>
      <trkpt lat="42.87792" lon="-0.18544">
        <ele>2261.4</ele>
        <time>2026-07-15T11:29:30Z</time>
      </trkpt>
      <trkpt lat="42.87792" lon="-0.18543">
        <ele>2261.4</ele>
        <time>2026-07-15T11:29:31Z</time>
      </trkpt>
      <trkpt lat="42.87793" lon="-0.18543">
        <ele>2261.4</ele>
        <time>2026-07-15T11:29:32Z</time>
      </trkpt>
      <trkpt lat="42.87794" lon="-0.18543">
        <ele>2261.4</ele>
        <time>2026-07-15T11:29:32Z</time>
      </trkpt>
      <trkpt lat="42.87795" lon="-0.18542">
        <ele>2261.4</ele>
        <time>2026-07-15T11:29:33Z</time>
      </trkpt>
      <trkpt lat="42.87796" lon="-0.18542">
        <ele>2261.4</ele>
        <time>2026-07-15T11:29:33Z</time>
      </trkpt>
      <trkpt lat="42.87797" lon="-0.18542">
        <ele>2261.4</ele>
        <time>2026-07-15T11:29:34Z</time>
      </trkpt>
      <trkpt lat="42.87797" lon="-0.18542">
        <ele>2261.4</ele>
        <time>2026-07-15T11:29:35Z</time>
      </trkpt>
      <trkpt lat="42.87798" lon="-0.18541">
        <ele>2261.4</ele>
        <time>2026-07-15T11:29:35Z</time>
      </trkpt>
      <trkpt lat="42.87799" lon="-0.18541">
        <ele>2261.4</ele>
        <time>2026-07-15T11:29:36Z</time>
      </trkpt>
      <trkpt lat="42.878" lon="-0.1854">
        <ele>2261.4</ele>
        <time>2026-07-15T11:29:37Z</time>
      </trkpt>
      <trkpt lat="42.878" lon="-0.1854">
        <ele>2261.4</ele>
        <time>2026-07-15T11:29:37Z</time>
      </trkpt>
      <trkpt lat="42.87801" lon="-0.1854">
        <ele>2261.4</ele>
        <time>2026-07-15T11:29:38Z</time>
      </trkpt>
      <trkpt lat="42.87801" lon="-0.18539">
        <ele>2261.4</ele>
        <time>2026-07-15T11:29:38Z</time>
      </trkpt>
      <trkpt lat="42.87802" lon="-0.18539">
        <ele>2261.4</ele>
        <time>2026-07-15T11:29:39Z</time>
      </trkpt>
      <trkpt lat="42.87802" lon="-0.18538">
        <ele>2261.4</ele>
        <time>2026-07-15T11:29:40Z</time>
      </trkpt>
      <trkpt lat="42.87803" lon="-0.18538">
        <ele>2261.4</ele>
        <time>2026-07-15T11:29:40Z</time>
      </trkpt>
      <trkpt lat="42.87803" lon="-0.18537">
        <ele>2261.4</ele>
        <time>2026-07-15T11:29:41Z</time>
      </trkpt>
      <trkpt lat="42.87804" lon="-0.18536">
        <ele>2261.4</ele>
        <time>2026-07-15T11:29:42Z</time>
      </trkpt>
      <trkpt lat="42.87804" lon="-0.18536">
        <ele>2260.4</ele>
        <time>2026-07-15T11:29:42Z</time>
      </trkpt>
      <trkpt lat="42.87804" lon="-0.18535">
        <ele>2260.4</ele>
        <time>2026-07-15T11:29:43Z</time>
      </trkpt>
      <trkpt lat="42.87805" lon="-0.18535">
        <ele>2260.4</ele>
        <time>2026-07-15T11:29:44Z</time>
      </trkpt>
      <trkpt lat="42.87805" lon="-0.18534">
        <ele>2260.4</ele>
        <time>2026-07-15T11:29:45Z</time>
      </trkpt>
      <trkpt lat="42.87805" lon="-0.18534">
        <ele>2261.4</ele>
        <time>2026-07-15T11:29:45Z</time>
      </trkpt>
      <trkpt lat="42.87806" lon="-0.18533">
        <ele>2261.4</ele>
        <time>2026-07-15T11:29:46Z</time>
      </trkpt>
      <trkpt lat="42.87806" lon="-0.18533">
        <ele>2262.4</ele>
        <time>2026-07-15T11:29:46Z</time>
      </trkpt>
      <trkpt lat="42.87807" lon="-0.18533">
        <ele>2262.4</ele>
        <time>2026-07-15T11:29:47Z</time>
      </trkpt>
      <trkpt lat="42.87808" lon="-0.18533">
        <ele>2262.4</ele>
        <time>2026-07-15T11:29:48Z</time>
      </trkpt>
      <trkpt lat="42.87808" lon="-0.18533">
        <ele>2263.4</ele>
        <time>2026-07-15T11:29:49Z</time>
      </trkpt>
      <trkpt lat="42.87808" lon="-0.18534">
        <ele>2262.4</ele>
        <time>2026-07-15T11:29:49Z</time>
      </trkpt>
      <trkpt lat="42.87809" lon="-0.18534">
        <ele>2262.4</ele>
        <time>2026-07-15T11:29:50Z</time>
      </trkpt>
      <trkpt lat="42.87809" lon="-0.18535">
        <ele>2263.4</ele>
        <time>2026-07-15T11:29:51Z</time>
      </trkpt>
      <trkpt lat="42.87809" lon="-0.18535">
        <ele>2263.4</ele>
        <time>2026-07-15T11:29:51Z</time>
      </trkpt>
      <trkpt lat="42.8781" lon="-0.18535">
        <ele>2263.4</ele>
        <time>2026-07-15T11:29:52Z</time>
      </trkpt>
      <trkpt lat="42.8781" lon="-0.18536">
        <ele>2263.4</ele>
        <time>2026-07-15T11:29:53Z</time>
      </trkpt>
      <trkpt lat="42.87811" lon="-0.18536">
        <ele>2263.4</ele>
        <time>2026-07-15T11:29:53Z</time>
      </trkpt>
      <trkpt lat="42.87811" lon="-0.18536">
        <ele>2263.4</ele>
        <time>2026-07-15T11:29:54Z</time>
      </trkpt>
      <trkpt lat="42.87811" lon="-0.18537">
        <ele>2263.4</ele>
        <time>2026-07-15T11:29:55Z</time>
      </trkpt>
      <trkpt lat="42.87812" lon="-0.18537">
        <ele>2263.4</ele>
        <time>2026-07-15T11:29:55Z</time>
      </trkpt>
      <trkpt lat="42.87812" lon="-0.18537">
        <ele>2263.4</ele>
        <time>2026-07-15T11:29:56Z</time>
      </trkpt>
      <trkpt lat="42.87812" lon="-0.18538">
        <ele>2263.4</ele>
        <time>2026-07-15T11:29:57Z</time>
      </trkpt>
      <trkpt lat="42.87812" lon="-0.18539">
        <ele>2263.4</ele>
        <time>2026-07-15T11:29:58Z</time>
      </trkpt>
      <trkpt lat="42.87813" lon="-0.18539">
        <ele>2264.4</ele>
        <time>2026-07-15T11:29:58Z</time>
      </trkpt>
      <trkpt lat="42.87813" lon="-0.1854">
        <ele>2264.4</ele>
        <time>2026-07-15T11:29:59Z</time>
      </trkpt>
      <trkpt lat="42.87813" lon="-0.18541">
        <ele>2264.4</ele>
        <time>2026-07-15T11:30:00Z</time>
      </trkpt>
      <trkpt lat="42.87813" lon="-0.18542">
        <ele>2264.4</ele>
        <time>2026-07-15T11:30:00Z</time>
      </trkpt>
      <trkpt lat="42.87813" lon="-0.18543">
        <ele>2264.4</ele>
        <time>2026-07-15T11:30:01Z</time>
      </trkpt>
      <trkpt lat="42.87813" lon="-0.18544">
        <ele>2264.4</ele>
        <time>2026-07-15T11:30:02Z</time>
      </trkpt>
      <trkpt lat="42.87813" lon="-0.18544">
        <ele>2264.4</ele>
        <time>2026-07-15T11:30:02Z</time>
      </trkpt>
      <trkpt lat="42.87813" lon="-0.18545">
        <ele>2264.4</ele>
        <time>2026-07-15T11:30:03Z</time>
      </trkpt>
      <trkpt lat="42.87813" lon="-0.18545">
        <ele>2264.4</ele>
        <time>2026-07-15T11:30:04Z</time>
      </trkpt>
      <trkpt lat="42.87813" lon="-0.18545">
        <ele>2264.4</ele>
        <time>2026-07-15T11:30:04Z</time>
      </trkpt>
      <trkpt lat="42.87813" lon="-0.18546">
        <ele>2264.4</ele>
        <time>2026-07-15T11:30:05Z</time>
      </trkpt>
      <trkpt lat="42.87813" lon="-0.18546">
        <ele>2264.4</ele>
        <time>2026-07-15T11:30:06Z</time>
      </trkpt>
      <trkpt lat="42.87813" lon="-0.18546">
        <ele>2264.4</ele>
        <time>2026-07-15T11:30:06Z</time>
      </trkpt>
      <trkpt lat="42.87813" lon="-0.18547">
        <ele>2264.4</ele>
        <time>2026-07-15T11:30:07Z</time>
      </trkpt>
      <trkpt lat="42.87813" lon="-0.18548">
        <ele>2265.4</ele>
        <time>2026-07-15T11:30:08Z</time>
      </trkpt>
      <trkpt lat="42.87813" lon="-0.18548">
        <ele>2266.4</ele>
        <time>2026-07-15T11:30:08Z</time>
      </trkpt>
      <trkpt lat="42.87813" lon="-0.18549">
        <ele>2266.4</ele>
        <time>2026-07-15T11:30:09Z</time>
      </trkpt>
      <trkpt lat="42.87813" lon="-0.1855">
        <ele>2265.4</ele>
        <time>2026-07-15T11:30:09Z</time>
      </trkpt>
      <trkpt lat="42.87813" lon="-0.18551">
        <ele>2265.4</ele>
        <time>2026-07-15T11:30:10Z</time>
      </trkpt>
      <trkpt lat="42.87813" lon="-0.18552">
        <ele>2265.4</ele>
        <time>2026-07-15T11:30:11Z</time>
      </trkpt>
      <trkpt lat="42.87813" lon="-0.18553">
        <ele>2264.4</ele>
        <time>2026-07-15T11:30:11Z</time>
      </trkpt>
      <trkpt lat="42.87813" lon="-0.18553">
        <ele>2264.4</ele>
        <time>2026-07-15T11:30:12Z</time>
      </trkpt>
      <trkpt lat="42.87813" lon="-0.18554">
        <ele>2264.4</ele>
        <time>2026-07-15T11:30:13Z</time>
      </trkpt>
      <trkpt lat="42.87813" lon="-0.18555">
        <ele>2264.4</ele>
        <time>2026-07-15T11:30:14Z</time>
      </trkpt>
      <trkpt lat="42.87813" lon="-0.18556">
        <ele>2265.4</ele>
        <time>2026-07-15T11:30:14Z</time>
      </trkpt>
      <trkpt lat="42.87814" lon="-0.18557">
        <ele>2265.4</ele>
        <time>2026-07-15T11:30:15Z</time>
      </trkpt>
      <trkpt lat="42.87814" lon="-0.18557">
        <ele>2264.4</ele>
        <time>2026-07-15T11:30:16Z</time>
      </trkpt>
      <trkpt lat="42.87814" lon="-0.18558">
        <ele>2264.4</ele>
        <time>2026-07-15T11:30:16Z</time>
      </trkpt>
      <trkpt lat="42.87814" lon="-0.18559">
        <ele>2264.4</ele>
        <time>2026-07-15T11:30:17Z</time>
      </trkpt>
      <trkpt lat="42.87814" lon="-0.18559">
        <ele>2264.4</ele>
        <time>2026-07-15T11:30:18Z</time>
      </trkpt>
      <trkpt lat="42.87814" lon="-0.1856">
        <ele>2264.4</ele>
        <time>2026-07-15T11:30:18Z</time>
      </trkpt>
      <trkpt lat="42.87814" lon="-0.18561">
        <ele>2264.4</ele>
        <time>2026-07-15T11:30:19Z</time>
      </trkpt>
      <trkpt lat="42.87814" lon="-0.18562">
        <ele>2264.4</ele>
        <time>2026-07-15T11:30:20Z</time>
      </trkpt>
      <trkpt lat="42.87814" lon="-0.18562">
        <ele>2263.4</ele>
        <time>2026-07-15T11:30:21Z</time>
      </trkpt>
      <trkpt lat="42.87814" lon="-0.18563">
        <ele>2262.4</ele>
        <time>2026-07-15T11:30:21Z</time>
      </trkpt>
      <trkpt lat="42.87814" lon="-0.18564">
        <ele>2262.4</ele>
        <time>2026-07-15T11:30:22Z</time>
      </trkpt>
      <trkpt lat="42.87814" lon="-0.18565">
        <ele>2264.4</ele>
        <time>2026-07-15T11:30:23Z</time>
      </trkpt>
      <trkpt lat="42.87814" lon="-0.18566">
        <ele>2264.4</ele>
        <time>2026-07-15T11:30:23Z</time>
      </trkpt>
      <trkpt lat="42.87814" lon="-0.18566">
        <ele>2264.4</ele>
        <time>2026-07-15T11:30:24Z</time>
      </trkpt>
      <trkpt lat="42.87815" lon="-0.18567">
        <ele>2264.4</ele>
        <time>2026-07-15T11:30:25Z</time>
      </trkpt>
      <trkpt lat="42.87815" lon="-0.18568">
        <ele>2264.4</ele>
        <time>2026-07-15T11:30:26Z</time>
      </trkpt>
      <trkpt lat="42.87815" lon="-0.18568">
        <ele>2264.4</ele>
        <time>2026-07-15T11:30:26Z</time>
      </trkpt>
      <trkpt lat="42.87815" lon="-0.18569">
        <ele>2264.4</ele>
        <time>2026-07-15T11:30:27Z</time>
      </trkpt>
      <trkpt lat="42.87815" lon="-0.1857">
        <ele>2264.4</ele>
        <time>2026-07-15T11:30:28Z</time>
      </trkpt>
      <trkpt lat="42.87816" lon="-0.18571">
        <ele>2264.4</ele>
        <time>2026-07-15T11:30:28Z</time>
      </trkpt>
      <trkpt lat="42.87816" lon="-0.18571">
        <ele>2263.4</ele>
        <time>2026-07-15T11:30:29Z</time>
      </trkpt>
      <trkpt lat="42.87816" lon="-0.18572">
        <ele>2263.4</ele>
        <time>2026-07-15T11:30:30Z</time>
      </trkpt>
      <trkpt lat="42.87816" lon="-0.18572">
        <ele>2263.4</ele>
        <time>2026-07-15T11:30:31Z</time>
      </trkpt>
      <trkpt lat="42.87816" lon="-0.18573">
        <ele>2264.4</ele>
        <time>2026-07-15T11:30:31Z</time>
      </trkpt>
      <trkpt lat="42.87816" lon="-0.18573">
        <ele>2265.4</ele>
        <time>2026-07-15T11:30:32Z</time>
      </trkpt>
      <trkpt lat="42.87817" lon="-0.18574">
        <ele>2265.4</ele>
        <time>2026-07-15T11:30:33Z</time>
      </trkpt>
      <trkpt lat="42.87817" lon="-0.18574">
        <ele>2265.4</ele>
        <time>2026-07-15T11:30:34Z</time>
      </trkpt>
      <trkpt lat="42.87817" lon="-0.18574">
        <ele>2264.4</ele>
        <time>2026-07-15T11:30:34Z</time>
      </trkpt>
      <trkpt lat="42.87817" lon="-0.18575">
        <ele>2264.4</ele>
        <time>2026-07-15T11:30:35Z</time>
      </trkpt>
      <trkpt lat="42.87818" lon="-0.18576">
        <ele>2264.4</ele>
        <time>2026-07-15T11:30:36Z</time>
      </trkpt>
      <trkpt lat="42.87818" lon="-0.18576">
        <ele>2263.4</ele>
        <time>2026-07-15T11:30:37Z</time>
      </trkpt>
      <trkpt lat="42.87818" lon="-0.18577">
        <ele>2264.4</ele>
        <time>2026-07-15T11:30:37Z</time>
      </trkpt>
      <trkpt lat="42.87818" lon="-0.18577">
        <ele>2264.4</ele>
        <time>2026-07-15T11:30:38Z</time>
      </trkpt>
      <trkpt lat="42.87818" lon="-0.18578">
        <ele>2264.4</ele>
        <time>2026-07-15T11:30:39Z</time>
      </trkpt>
      <trkpt lat="42.87818" lon="-0.18578">
        <ele>2265.4</ele>
        <time>2026-07-15T11:30:40Z</time>
      </trkpt>
      <trkpt lat="42.87818" lon="-0.18579">
        <ele>2265.4</ele>
        <time>2026-07-15T11:30:40Z</time>
      </trkpt>
      <trkpt lat="42.87818" lon="-0.1858">
        <ele>2265.4</ele>
        <time>2026-07-15T11:30:41Z</time>
      </trkpt>
      <trkpt lat="42.87819" lon="-0.18581">
        <ele>2265.4</ele>
        <time>2026-07-15T11:30:42Z</time>
      </trkpt>
      <trkpt lat="42.87819" lon="-0.18581">
        <ele>2267.4</ele>
        <time>2026-07-15T11:30:43Z</time>
      </trkpt>
      <trkpt lat="42.87819" lon="-0.18582">
        <ele>2268.4</ele>
        <time>2026-07-15T11:30:43Z</time>
      </trkpt>
      <trkpt lat="42.8782" lon="-0.18583">
        <ele>2268.4</ele>
        <time>2026-07-15T11:30:44Z</time>
      </trkpt>
      <trkpt lat="42.8782" lon="-0.18584">
        <ele>2268.4</ele>
        <time>2026-07-15T11:30:45Z</time>
      </trkpt>
      <trkpt lat="42.87821" lon="-0.18584">
        <ele>2268.4</ele>
        <time>2026-07-15T11:30:46Z</time>
      </trkpt>
      <trkpt lat="42.87822" lon="-0.18585">
        <ele>2268.4</ele>
        <time>2026-07-15T11:30:47Z</time>
      </trkpt>
      <trkpt lat="42.87822" lon="-0.18586">
        <ele>2268.4</ele>
        <time>2026-07-15T11:30:47Z</time>
      </trkpt>
      <trkpt lat="42.87823" lon="-0.18586">
        <ele>2268.4</ele>
        <time>2026-07-15T11:30:48Z</time>
      </trkpt>
      <trkpt lat="42.87823" lon="-0.18587">
        <ele>2268.4</ele>
        <time>2026-07-15T11:30:49Z</time>
      </trkpt>
      <trkpt lat="42.87824" lon="-0.18587">
        <ele>2269.4</ele>
        <time>2026-07-15T11:30:49Z</time>
      </trkpt>
      <trkpt lat="42.87825" lon="-0.18588">
        <ele>2269.4</ele>
        <time>2026-07-15T11:30:50Z</time>
      </trkpt>
      <trkpt lat="42.87825" lon="-0.18589">
        <ele>2270.4</ele>
        <time>2026-07-15T11:30:51Z</time>
      </trkpt>
      <trkpt lat="42.87825" lon="-0.1859">
        <ele>2271.4</ele>
        <time>2026-07-15T11:30:51Z</time>
      </trkpt>
      <trkpt lat="42.87826" lon="-0.1859">
        <ele>2272.4</ele>
        <time>2026-07-15T11:30:52Z</time>
      </trkpt>
      <trkpt lat="42.87826" lon="-0.18592">
        <ele>2272.4</ele>
        <time>2026-07-15T11:30:53Z</time>
      </trkpt>
      <trkpt lat="42.87826" lon="-0.18592">
        <ele>2271.4</ele>
        <time>2026-07-15T11:30:54Z</time>
      </trkpt>
      <trkpt lat="42.87826" lon="-0.18593">
        <ele>2270.4</ele>
        <time>2026-07-15T11:30:54Z</time>
      </trkpt>
      <trkpt lat="42.87826" lon="-0.18594">
        <ele>2270.4</ele>
        <time>2026-07-15T11:30:55Z</time>
      </trkpt>
      <trkpt lat="42.87827" lon="-0.18595">
        <ele>2270.4</ele>
        <time>2026-07-15T11:30:56Z</time>
      </trkpt>
      <trkpt lat="42.87827" lon="-0.18596">
        <ele>2271.4</ele>
        <time>2026-07-15T11:30:57Z</time>
      </trkpt>
      <trkpt lat="42.87827" lon="-0.18596">
        <ele>2271.4</ele>
        <time>2026-07-15T11:30:57Z</time>
      </trkpt>
      <trkpt lat="42.87828" lon="-0.18597">
        <ele>2271.4</ele>
        <time>2026-07-15T11:30:58Z</time>
      </trkpt>
      <trkpt lat="42.87828" lon="-0.18598">
        <ele>2271.4</ele>
        <time>2026-07-15T11:30:59Z</time>
      </trkpt>
      <trkpt lat="42.87828" lon="-0.18598">
        <ele>2271.4</ele>
        <time>2026-07-15T11:31:00Z</time>
      </trkpt>
      <trkpt lat="42.87829" lon="-0.18598">
        <ele>2271.4</ele>
        <time>2026-07-15T11:31:00Z</time>
      </trkpt>
      <trkpt lat="42.87829" lon="-0.18599">
        <ele>2271.4</ele>
        <time>2026-07-15T11:31:01Z</time>
      </trkpt>
      <trkpt lat="42.87829" lon="-0.18599">
        <ele>2271.4</ele>
        <time>2026-07-15T11:31:02Z</time>
      </trkpt>
      <trkpt lat="42.87829" lon="-0.18599">
        <ele>2271.4</ele>
        <time>2026-07-15T11:31:02Z</time>
      </trkpt>
      <trkpt lat="42.87829" lon="-0.18599">
        <ele>2272.4</ele>
        <time>2026-07-15T11:31:03Z</time>
      </trkpt>
      <trkpt lat="42.87829" lon="-0.186">
        <ele>2272.4</ele>
        <time>2026-07-15T11:31:04Z</time>
      </trkpt>
      <trkpt lat="42.87829" lon="-0.186">
        <ele>2273.4</ele>
        <time>2026-07-15T11:31:05Z</time>
      </trkpt>
      <trkpt lat="42.87829" lon="-0.18601">
        <ele>2273.4</ele>
        <time>2026-07-15T11:31:05Z</time>
      </trkpt>
      <trkpt lat="42.87829" lon="-0.18601">
        <ele>2273.4</ele>
        <time>2026-07-15T11:31:06Z</time>
      </trkpt>
      <trkpt lat="42.87828" lon="-0.18602">
        <ele>2272.4</ele>
        <time>2026-07-15T11:31:07Z</time>
      </trkpt>
      <trkpt lat="42.87828" lon="-0.18603">
        <ele>2272.4</ele>
        <time>2026-07-15T11:31:07Z</time>
      </trkpt>
      <trkpt lat="42.87828" lon="-0.18603">
        <ele>2271.4</ele>
        <time>2026-07-15T11:31:08Z</time>
      </trkpt>
      <trkpt lat="42.87828" lon="-0.18604">
        <ele>2271.4</ele>
        <time>2026-07-15T11:31:09Z</time>
      </trkpt>
      <trkpt lat="42.87827" lon="-0.18605">
        <ele>2271.4</ele>
        <time>2026-07-15T11:31:09Z</time>
      </trkpt>
      <trkpt lat="42.87827" lon="-0.18606">
        <ele>2271.4</ele>
        <time>2026-07-15T11:31:10Z</time>
      </trkpt>
      <trkpt lat="42.87827" lon="-0.18606">
        <ele>2271.4</ele>
        <time>2026-07-15T11:31:11Z</time>
      </trkpt>
      <trkpt lat="42.87827" lon="-0.18607">
        <ele>2271.4</ele>
        <time>2026-07-15T11:31:12Z</time>
      </trkpt>
      <trkpt lat="42.87826" lon="-0.18608">
        <ele>2271.4</ele>
        <time>2026-07-15T11:31:12Z</time>
      </trkpt>
      <trkpt lat="42.87826" lon="-0.18609">
        <ele>2271.4</ele>
        <time>2026-07-15T11:31:13Z</time>
      </trkpt>
      <trkpt lat="42.87826" lon="-0.18609">
        <ele>2271.4</ele>
        <time>2026-07-15T11:31:13Z</time>
      </trkpt>
      <trkpt lat="42.87826" lon="-0.1861">
        <ele>2271.4</ele>
        <time>2026-07-15T11:31:14Z</time>
      </trkpt>
      <trkpt lat="42.87827" lon="-0.18611">
        <ele>2271.4</ele>
        <time>2026-07-15T11:31:15Z</time>
      </trkpt>
      <trkpt lat="42.87827" lon="-0.18612">
        <ele>2271.4</ele>
        <time>2026-07-15T11:31:16Z</time>
      </trkpt>
      <trkpt lat="42.87827" lon="-0.18612">
        <ele>2271.4</ele>
        <time>2026-07-15T11:31:16Z</time>
      </trkpt>
      <trkpt lat="42.87827" lon="-0.18613">
        <ele>2271.4</ele>
        <time>2026-07-15T11:31:17Z</time>
      </trkpt>
      <trkpt lat="42.87827" lon="-0.18614">
        <ele>2271.4</ele>
        <time>2026-07-15T11:31:18Z</time>
      </trkpt>
      <trkpt lat="42.87827" lon="-0.18615">
        <ele>2271.4</ele>
        <time>2026-07-15T11:31:18Z</time>
      </trkpt>
      <trkpt lat="42.87827" lon="-0.18616">
        <ele>2271.4</ele>
        <time>2026-07-15T11:31:19Z</time>
      </trkpt>
      <trkpt lat="42.87828" lon="-0.18617">
        <ele>2273.4</ele>
        <time>2026-07-15T11:31:20Z</time>
      </trkpt>
      <trkpt lat="42.87828" lon="-0.18618">
        <ele>2273.4</ele>
        <time>2026-07-15T11:31:20Z</time>
      </trkpt>
      <trkpt lat="42.87828" lon="-0.18618">
        <ele>2273.4</ele>
        <time>2026-07-15T11:31:21Z</time>
      </trkpt>
      <trkpt lat="42.87828" lon="-0.18619">
        <ele>2273.4</ele>
        <time>2026-07-15T11:31:22Z</time>
      </trkpt>
      <trkpt lat="42.87828" lon="-0.1862">
        <ele>2273.4</ele>
        <time>2026-07-15T11:31:23Z</time>
      </trkpt>
      <trkpt lat="42.87828" lon="-0.18621">
        <ele>2272.4</ele>
        <time>2026-07-15T11:31:23Z</time>
      </trkpt>
      <trkpt lat="42.87828" lon="-0.18621">
        <ele>2273.4</ele>
        <time>2026-07-15T11:31:24Z</time>
      </trkpt>
      <trkpt lat="42.87828" lon="-0.18622">
        <ele>2273.4</ele>
        <time>2026-07-15T11:31:25Z</time>
      </trkpt>
      <trkpt lat="42.87828" lon="-0.18623">
        <ele>2273.4</ele>
        <time>2026-07-15T11:31:26Z</time>
      </trkpt>
      <trkpt lat="42.87828" lon="-0.18623">
        <ele>2273.4</ele>
        <time>2026-07-15T11:31:26Z</time>
      </trkpt>
      <trkpt lat="42.87828" lon="-0.18624">
        <ele>2273.4</ele>
        <time>2026-07-15T11:31:27Z</time>
      </trkpt>
      <trkpt lat="42.87828" lon="-0.18625">
        <ele>2273.4</ele>
        <time>2026-07-15T11:31:28Z</time>
      </trkpt>
      <trkpt lat="42.87828" lon="-0.18626">
        <ele>2273.4</ele>
        <time>2026-07-15T11:31:29Z</time>
      </trkpt>
      <trkpt lat="42.87827" lon="-0.18627">
        <ele>2273.4</ele>
        <time>2026-07-15T11:31:29Z</time>
      </trkpt>
      <trkpt lat="42.87827" lon="-0.18627">
        <ele>2273.4</ele>
        <time>2026-07-15T11:31:30Z</time>
      </trkpt>
      <trkpt lat="42.87827" lon="-0.18628">
        <ele>2272.4</ele>
        <time>2026-07-15T11:31:31Z</time>
      </trkpt>
      <trkpt lat="42.87827" lon="-0.18629">
        <ele>2272.4</ele>
        <time>2026-07-15T11:31:31Z</time>
      </trkpt>
      <trkpt lat="42.87827" lon="-0.1863">
        <ele>2272.4</ele>
        <time>2026-07-15T11:31:32Z</time>
      </trkpt>
      <trkpt lat="42.87827" lon="-0.18631">
        <ele>2272.4</ele>
        <time>2026-07-15T11:31:33Z</time>
      </trkpt>
      <trkpt lat="42.87827" lon="-0.18632">
        <ele>2272.4</ele>
        <time>2026-07-15T11:31:34Z</time>
      </trkpt>
      <trkpt lat="42.87827" lon="-0.18632">
        <ele>2273.4</ele>
        <time>2026-07-15T11:31:34Z</time>
      </trkpt>
      <trkpt lat="42.87827" lon="-0.18633">
        <ele>2273.4</ele>
        <time>2026-07-15T11:31:35Z</time>
      </trkpt>
      <trkpt lat="42.87827" lon="-0.18634">
        <ele>2273.4</ele>
        <time>2026-07-15T11:31:36Z</time>
      </trkpt>
      <trkpt lat="42.87827" lon="-0.18635">
        <ele>2273.4</ele>
        <time>2026-07-15T11:31:36Z</time>
      </trkpt>
      <trkpt lat="42.87827" lon="-0.18636">
        <ele>2273.4</ele>
        <time>2026-07-15T11:31:37Z</time>
      </trkpt>
      <trkpt lat="42.87827" lon="-0.18637">
        <ele>2273.4</ele>
        <time>2026-07-15T11:31:38Z</time>
      </trkpt>
      <trkpt lat="42.87827" lon="-0.18637">
        <ele>2272.4</ele>
        <time>2026-07-15T11:31:39Z</time>
      </trkpt>
      <trkpt lat="42.87827" lon="-0.18638">
        <ele>2272.4</ele>
        <time>2026-07-15T11:31:39Z</time>
      </trkpt>
      <trkpt lat="42.87827" lon="-0.18638">
        <ele>2272.4</ele>
        <time>2026-07-15T11:31:40Z</time>
      </trkpt>
      <trkpt lat="42.87827" lon="-0.18639">
        <ele>2272.4</ele>
        <time>2026-07-15T11:31:41Z</time>
      </trkpt>
      <trkpt lat="42.87827" lon="-0.1864">
        <ele>2273.4</ele>
        <time>2026-07-15T11:31:42Z</time>
      </trkpt>
      <trkpt lat="42.87827" lon="-0.1864">
        <ele>2273.4</ele>
        <time>2026-07-15T11:31:42Z</time>
      </trkpt>
      <trkpt lat="42.87827" lon="-0.18641">
        <ele>2273.4</ele>
        <time>2026-07-15T11:31:43Z</time>
      </trkpt>
      <trkpt lat="42.87827" lon="-0.18642">
        <ele>2273.4</ele>
        <time>2026-07-15T11:31:44Z</time>
      </trkpt>
      <trkpt lat="42.87827" lon="-0.18643">
        <ele>2274.4</ele>
        <time>2026-07-15T11:31:45Z</time>
      </trkpt>
      <trkpt lat="42.87827" lon="-0.18643">
        <ele>2274.4</ele>
        <time>2026-07-15T11:31:45Z</time>
      </trkpt>
      <trkpt lat="42.87827" lon="-0.18644">
        <ele>2273.4</ele>
        <time>2026-07-15T11:31:46Z</time>
      </trkpt>
      <trkpt lat="42.87827" lon="-0.18645">
        <ele>2273.4</ele>
        <time>2026-07-15T11:31:47Z</time>
      </trkpt>
      <trkpt lat="42.87828" lon="-0.18645">
        <ele>2273.4</ele>
        <time>2026-07-15T11:31:48Z</time>
      </trkpt>
      <trkpt lat="42.87828" lon="-0.18646">
        <ele>2273.4</ele>
        <time>2026-07-15T11:31:48Z</time>
      </trkpt>
      <trkpt lat="42.87828" lon="-0.18647">
        <ele>2273.4</ele>
        <time>2026-07-15T11:31:49Z</time>
      </trkpt>
      <trkpt lat="42.87828" lon="-0.18647">
        <ele>2273.4</ele>
        <time>2026-07-15T11:31:50Z</time>
      </trkpt>
      <trkpt lat="42.87829" lon="-0.18648">
        <ele>2273.4</ele>
        <time>2026-07-15T11:31:50Z</time>
      </trkpt>
      <trkpt lat="42.87829" lon="-0.18648">
        <ele>2273.4</ele>
        <time>2026-07-15T11:31:51Z</time>
      </trkpt>
      <trkpt lat="42.87829" lon="-0.18648">
        <ele>2273.4</ele>
        <time>2026-07-15T11:31:52Z</time>
      </trkpt>
      <trkpt lat="42.8783" lon="-0.18649">
        <ele>2274.4</ele>
        <time>2026-07-15T11:31:52Z</time>
      </trkpt>
      <trkpt lat="42.8783" lon="-0.1865">
        <ele>2274.4</ele>
        <time>2026-07-15T11:31:53Z</time>
      </trkpt>
      <trkpt lat="42.8783" lon="-0.1865">
        <ele>2274.4</ele>
        <time>2026-07-15T11:31:54Z</time>
      </trkpt>
      <trkpt lat="42.8783" lon="-0.18651">
        <ele>2274.4</ele>
        <time>2026-07-15T11:31:54Z</time>
      </trkpt>
      <trkpt lat="42.8783" lon="-0.18651">
        <ele>2274.4</ele>
        <time>2026-07-15T11:31:55Z</time>
      </trkpt>
      <trkpt lat="42.8783" lon="-0.18652">
        <ele>2274.4</ele>
        <time>2026-07-15T11:31:56Z</time>
      </trkpt>
      <trkpt lat="42.87831" lon="-0.18653">
        <ele>2273.4</ele>
        <time>2026-07-15T11:31:57Z</time>
      </trkpt>
      <trkpt lat="42.87831" lon="-0.18653">
        <ele>2273.4</ele>
        <time>2026-07-15T11:31:57Z</time>
      </trkpt>
      <trkpt lat="42.87831" lon="-0.18654">
        <ele>2273.4</ele>
        <time>2026-07-15T11:31:58Z</time>
      </trkpt>
      <trkpt lat="42.87831" lon="-0.18655">
        <ele>2274.4</ele>
        <time>2026-07-15T11:31:59Z</time>
      </trkpt>
      <trkpt lat="42.87831" lon="-0.18655">
        <ele>2274.4</ele>
        <time>2026-07-15T11:31:59Z</time>
      </trkpt>
      <trkpt lat="42.87832" lon="-0.18656">
        <ele>2274.4</ele>
        <time>2026-07-15T11:32:00Z</time>
      </trkpt>
      <trkpt lat="42.87832" lon="-0.18657">
        <ele>2274.4</ele>
        <time>2026-07-15T11:32:01Z</time>
      </trkpt>
      <trkpt lat="42.87833" lon="-0.18658">
        <ele>2274.4</ele>
        <time>2026-07-15T11:32:02Z</time>
      </trkpt>
      <trkpt lat="42.87833" lon="-0.18658">
        <ele>2275.4</ele>
        <time>2026-07-15T11:32:03Z</time>
      </trkpt>
      <trkpt lat="42.87833" lon="-0.18659">
        <ele>2275.4</ele>
        <time>2026-07-15T11:32:03Z</time>
      </trkpt>
      <trkpt lat="42.87834" lon="-0.18659">
        <ele>2275.4</ele>
        <time>2026-07-15T11:32:04Z</time>
      </trkpt>
      <trkpt lat="42.87834" lon="-0.1866">
        <ele>2275.4</ele>
        <time>2026-07-15T11:32:05Z</time>
      </trkpt>
      <trkpt lat="42.87834" lon="-0.1866">
        <ele>2275.4</ele>
        <time>2026-07-15T11:32:06Z</time>
      </trkpt>
      <trkpt lat="42.87834" lon="-0.1866">
        <ele>2276.4</ele>
        <time>2026-07-15T11:32:07Z</time>
      </trkpt>
      <trkpt lat="42.87834" lon="-0.18661">
        <ele>2276.4</ele>
        <time>2026-07-15T11:32:07Z</time>
      </trkpt>
      <trkpt lat="42.87835" lon="-0.18661">
        <ele>2277.4</ele>
        <time>2026-07-15T11:32:08Z</time>
      </trkpt>
      <trkpt lat="42.87835" lon="-0.18662">
        <ele>2277.4</ele>
        <time>2026-07-15T11:32:09Z</time>
      </trkpt>
      <trkpt lat="42.87835" lon="-0.18662">
        <ele>2278.4</ele>
        <time>2026-07-15T11:32:10Z</time>
      </trkpt>
      <trkpt lat="42.87835" lon="-0.18663">
        <ele>2278.4</ele>
        <time>2026-07-15T11:32:11Z</time>
      </trkpt>
      <trkpt lat="42.87835" lon="-0.18663">
        <ele>2278.4</ele>
        <time>2026-07-15T11:32:11Z</time>
      </trkpt>
      <trkpt lat="42.87836" lon="-0.18664">
        <ele>2279.4</ele>
        <time>2026-07-15T11:32:12Z</time>
      </trkpt>
      <trkpt lat="42.87836" lon="-0.18664">
        <ele>2279.4</ele>
        <time>2026-07-15T11:32:13Z</time>
      </trkpt>
      <trkpt lat="42.87836" lon="-0.18665">
        <ele>2279.4</ele>
        <time>2026-07-15T11:32:14Z</time>
      </trkpt>
      <trkpt lat="42.87837" lon="-0.18665">
        <ele>2278.4</ele>
        <time>2026-07-15T11:32:15Z</time>
      </trkpt>
      <trkpt lat="42.87838" lon="-0.18665">
        <ele>2279.4</ele>
        <time>2026-07-15T11:32:16Z</time>
      </trkpt>
      <trkpt lat="42.87838" lon="-0.18665">
        <ele>2279.4</ele>
        <time>2026-07-15T11:32:17Z</time>
      </trkpt>
      <trkpt lat="42.87839" lon="-0.18666">
        <ele>2279.4</ele>
        <time>2026-07-15T11:32:18Z</time>
      </trkpt>
      <trkpt lat="42.87839" lon="-0.18666">
        <ele>2279.4</ele>
        <time>2026-07-15T11:32:18Z</time>
      </trkpt>
      <trkpt lat="42.87839" lon="-0.18666">
        <ele>2279.4</ele>
        <time>2026-07-15T11:32:18Z</time>
      </trkpt>
      <trkpt lat="42.87839" lon="-0.18666">
        <ele>2279.4</ele>
        <time>2026-07-15T11:32:19Z</time>
      </trkpt>
      <trkpt lat="42.87839" lon="-0.18667">
        <ele>2279.4</ele>
        <time>2026-07-15T11:32:20Z</time>
      </trkpt>
      <trkpt lat="42.87839" lon="-0.18668">
        <ele>2279.4</ele>
        <time>2026-07-15T11:32:21Z</time>
      </trkpt>
      <trkpt lat="42.87839" lon="-0.18668">
        <ele>2279.4</ele>
        <time>2026-07-15T11:32:22Z</time>
      </trkpt>
      <trkpt lat="42.87839" lon="-0.18669">
        <ele>2280.4</ele>
        <time>2026-07-15T11:32:22Z</time>
      </trkpt>
      <trkpt lat="42.87839" lon="-0.18669">
        <ele>2280.4</ele>
        <time>2026-07-15T11:32:23Z</time>
      </trkpt>
      <trkpt lat="42.8784" lon="-0.1867">
        <ele>2280.4</ele>
        <time>2026-07-15T11:32:24Z</time>
      </trkpt>
      <trkpt lat="42.8784" lon="-0.18671">
        <ele>2280.4</ele>
        <time>2026-07-15T11:32:25Z</time>
      </trkpt>
      <trkpt lat="42.8784" lon="-0.18672">
        <ele>2280.4</ele>
        <time>2026-07-15T11:32:26Z</time>
      </trkpt>
      <trkpt lat="42.87841" lon="-0.18673">
        <ele>2281.4</ele>
        <time>2026-07-15T11:32:27Z</time>
      </trkpt>
      <trkpt lat="42.87841" lon="-0.18673">
        <ele>2281.4</ele>
        <time>2026-07-15T11:32:28Z</time>
      </trkpt>
      <trkpt lat="42.87841" lon="-0.18674">
        <ele>2281.4</ele>
        <time>2026-07-15T11:32:28Z</time>
      </trkpt>
      <trkpt lat="42.87841" lon="-0.18674">
        <ele>2281.4</ele>
        <time>2026-07-15T11:32:28Z</time>
      </trkpt>
      <trkpt lat="42.87841" lon="-0.18674">
        <ele>2282.4</ele>
        <time>2026-07-15T11:32:29Z</time>
      </trkpt>
      <trkpt lat="42.87841" lon="-0.18674">
        <ele>2282.4</ele>
        <time>2026-07-15T11:32:30Z</time>
      </trkpt>
      <trkpt lat="42.87841" lon="-0.18673">
        <ele>2282.4</ele>
        <time>2026-07-15T11:32:31Z</time>
      </trkpt>
      <trkpt lat="42.87841" lon="-0.18673">
        <ele>2282.4</ele>
        <time>2026-07-15T11:32:31Z</time>
      </trkpt>
      <trkpt lat="42.87841" lon="-0.18673">
        <ele>2282.4</ele>
        <time>2026-07-15T11:32:32Z</time>
      </trkpt>
      <trkpt lat="42.87841" lon="-0.18673">
        <ele>2281.4</ele>
        <time>2026-07-15T11:32:33Z</time>
      </trkpt>
      <trkpt lat="42.87841" lon="-0.18674">
        <ele>2281.4</ele>
        <time>2026-07-15T11:32:34Z</time>
      </trkpt>
      <trkpt lat="42.87841" lon="-0.18674">
        <ele>2281.4</ele>
        <time>2026-07-15T11:32:35Z</time>
      </trkpt>
      <trkpt lat="42.87841" lon="-0.18674">
        <ele>2282.4</ele>
        <time>2026-07-15T11:32:36Z</time>
      </trkpt>
      <trkpt lat="42.87841" lon="-0.18673">
        <ele>2283.4</ele>
        <time>2026-07-15T11:32:37Z</time>
      </trkpt>
      <trkpt lat="42.87842" lon="-0.18674">
        <ele>2283.4</ele>
        <time>2026-07-15T11:32:38Z</time>
      </trkpt>
      <trkpt lat="42.87842" lon="-0.18674">
        <ele>2283.4</ele>
        <time>2026-07-15T11:32:38Z</time>
      </trkpt>
      <trkpt lat="42.87842" lon="-0.18674">
        <ele>2283.4</ele>
        <time>2026-07-15T11:32:39Z</time>
      </trkpt>
      <trkpt lat="42.87842" lon="-0.18674">
        <ele>2283.4</ele>
        <time>2026-07-15T11:32:40Z</time>
      </trkpt>
      <trkpt lat="42.87842" lon="-0.18674">
        <ele>2283.4</ele>
        <time>2026-07-15T11:32:41Z</time>
      </trkpt>
      <trkpt lat="42.87842" lon="-0.18675">
        <ele>2283.4</ele>
        <time>2026-07-15T11:32:42Z</time>
      </trkpt>
      <trkpt lat="42.87842" lon="-0.18675">
        <ele>2285.4</ele>
        <time>2026-07-15T11:32:43Z</time>
      </trkpt>
      <trkpt lat="42.87842" lon="-0.18675">
        <ele>2285.4</ele>
        <time>2026-07-15T11:32:44Z</time>
      </trkpt>
      <trkpt lat="42.87842" lon="-0.18675">
        <ele>2285.4</ele>
        <time>2026-07-15T11:32:45Z</time>
      </trkpt>
      <trkpt lat="42.87843" lon="-0.18676">
        <ele>2284.4</ele>
        <time>2026-07-15T11:32:46Z</time>
      </trkpt>
      <trkpt lat="42.87843" lon="-0.18676">
        <ele>2284.4</ele>
        <time>2026-07-15T11:32:47Z</time>
      </trkpt>
      <trkpt lat="42.87843" lon="-0.18676">
        <ele>2284.4</ele>
        <time>2026-07-15T11:32:48Z</time>
      </trkpt>
      <trkpt lat="42.87843" lon="-0.18676">
        <ele>2283.4</ele>
        <time>2026-07-15T11:32:49Z</time>
      </trkpt>
      <trkpt lat="42.87843" lon="-0.18675">
        <ele>2282.4</ele>
        <time>2026-07-15T11:32:50Z</time>
      </trkpt>
      <trkpt lat="42.87843" lon="-0.18673">
        <ele>2281.4</ele>
        <time>2026-07-15T11:32:51Z</time>
      </trkpt>
      <trkpt lat="42.87843" lon="-0.18672">
        <ele>2282.4</ele>
        <time>2026-07-15T11:32:52Z</time>
      </trkpt>
      <trkpt lat="42.87843" lon="-0.18671">
        <ele>2282.4</ele>
        <time>2026-07-15T11:32:53Z</time>
      </trkpt>
      <trkpt lat="42.87844" lon="-0.18671">
        <ele>2282.4</ele>
        <time>2026-07-15T11:32:54Z</time>
      </trkpt>
      <trkpt lat="42.87846" lon="-0.18672">
        <ele>2283.4</ele>
        <time>2026-07-15T11:32:55Z</time>
      </trkpt>
      <trkpt lat="42.87846" lon="-0.1867">
        <ele>2283.4</ele>
        <time>2026-07-15T11:32:56Z</time>
      </trkpt>
      <trkpt lat="42.87846" lon="-0.1867">
        <ele>2283.4</ele>
        <time>2026-07-15T11:32:57Z</time>
      </trkpt>
      <trkpt lat="42.87847" lon="-0.18668">
        <ele>2282.4</ele>
        <time>2026-07-15T11:32:58Z</time>
      </trkpt>
      <trkpt lat="42.87847" lon="-0.18667">
        <ele>2283.4</ele>
        <time>2026-07-15T11:32:59Z</time>
      </trkpt>
      <trkpt lat="42.87847" lon="-0.18666">
        <ele>2282.4</ele>
        <time>2026-07-15T11:33:00Z</time>
      </trkpt>
      <trkpt lat="42.87847" lon="-0.18665">
        <ele>2283.4</ele>
        <time>2026-07-15T11:33:01Z</time>
      </trkpt>
      <trkpt lat="42.87847" lon="-0.18665">
        <ele>2283.4</ele>
        <time>2026-07-15T11:33:02Z</time>
      </trkpt>
      <trkpt lat="42.87846" lon="-0.18665">
        <ele>2283.4</ele>
        <time>2026-07-15T11:33:03Z</time>
      </trkpt>
      <trkpt lat="42.87846" lon="-0.18664">
        <ele>2283.4</ele>
        <time>2026-07-15T11:33:04Z</time>
      </trkpt>
      <trkpt lat="42.87848" lon="-0.18664">
        <ele>2283.4</ele>
        <time>2026-07-15T11:33:05Z</time>
      </trkpt>
      <trkpt lat="42.87848" lon="-0.18663">
        <ele>2283.4</ele>
        <time>2026-07-15T11:33:06Z</time>
      </trkpt>
      <trkpt lat="42.87848" lon="-0.18664">
        <ele>2284.4</ele>
        <time>2026-07-15T11:33:07Z</time>
      </trkpt>
      <trkpt lat="42.87848" lon="-0.18664">
        <ele>2285.4</ele>
        <time>2026-07-15T11:33:08Z</time>
      </trkpt>
      <trkpt lat="42.87848" lon="-0.18663">
        <ele>2285.4</ele>
        <time>2026-07-15T11:33:09Z</time>
      </trkpt>
      <trkpt lat="42.87849" lon="-0.18662">
        <ele>2285.4</ele>
        <time>2026-07-15T11:33:10Z</time>
      </trkpt>
      <trkpt lat="42.8785" lon="-0.18662">
        <ele>2285.4</ele>
        <time>2026-07-15T11:33:11Z</time>
      </trkpt>
      <trkpt lat="42.8785" lon="-0.18662">
        <ele>2285.4</ele>
        <time>2026-07-15T11:33:12Z</time>
      </trkpt>
      <trkpt lat="42.87851" lon="-0.18662">
        <ele>2285.4</ele>
        <time>2026-07-15T11:33:13Z</time>
      </trkpt>
      <trkpt lat="42.87852" lon="-0.18661">
        <ele>2286.4</ele>
        <time>2026-07-15T11:33:14Z</time>
      </trkpt>
      <trkpt lat="42.87852" lon="-0.1866">
        <ele>2286.4</ele>
        <time>2026-07-15T11:33:15Z</time>
      </trkpt>
      <trkpt lat="42.87852" lon="-0.18661">
        <ele>2285.4</ele>
        <time>2026-07-15T11:33:16Z</time>
      </trkpt>
      <trkpt lat="42.87852" lon="-0.18662">
        <ele>2285.4</ele>
        <time>2026-07-15T11:33:17Z</time>
      </trkpt>
      <trkpt lat="42.87852" lon="-0.18662">
        <ele>2285.4</ele>
        <time>2026-07-15T11:33:18Z</time>
      </trkpt>
      <trkpt lat="42.87851" lon="-0.18661">
        <ele>2286.4</ele>
        <time>2026-07-15T11:33:19Z</time>
      </trkpt>
      <trkpt lat="42.87852" lon="-0.18661">
        <ele>2286.4</ele>
        <time>2026-07-15T11:33:20Z</time>
      </trkpt>
      <trkpt lat="42.87852" lon="-0.1866">
        <ele>2287.4</ele>
        <time>2026-07-15T11:33:21Z</time>
      </trkpt>
      <trkpt lat="42.87853" lon="-0.1866">
        <ele>2287.4</ele>
        <time>2026-07-15T11:33:22Z</time>
      </trkpt>
      <trkpt lat="42.87853" lon="-0.1866">
        <ele>2287.4</ele>
        <time>2026-07-15T11:33:23Z</time>
      </trkpt>
      <trkpt lat="42.87852" lon="-0.1866">
        <ele>2288.4</ele>
        <time>2026-07-15T11:33:24Z</time>
      </trkpt>
      <trkpt lat="42.87853" lon="-0.1866">
        <ele>2289.4</ele>
        <time>2026-07-15T11:33:25Z</time>
      </trkpt>
      <trkpt lat="42.87853" lon="-0.1866">
        <ele>2289.4</ele>
        <time>2026-07-15T11:33:26Z</time>
      </trkpt>
      <trkpt lat="42.87853" lon="-0.1866">
        <ele>2289.4</ele>
        <time>2026-07-15T11:33:27Z</time>
      </trkpt>
      <trkpt lat="42.87854" lon="-0.18661">
        <ele>2290.4</ele>
        <time>2026-07-15T11:33:28Z</time>
      </trkpt>
      <trkpt lat="42.87855" lon="-0.18661">
        <ele>2290.4</ele>
        <time>2026-07-15T11:33:29Z</time>
      </trkpt>
      <trkpt lat="42.87855" lon="-0.1866">
        <ele>2291.4</ele>
        <time>2026-07-15T11:33:30Z</time>
      </trkpt>
      <trkpt lat="42.87856" lon="-0.18659">
        <ele>2290.4</ele>
        <time>2026-07-15T11:33:31Z</time>
      </trkpt>
      <trkpt lat="42.87857" lon="-0.18659">
        <ele>2290.4</ele>
        <time>2026-07-15T11:33:32Z</time>
      </trkpt>
      <trkpt lat="42.87858" lon="-0.18659">
        <ele>2291.4</ele>
        <time>2026-07-15T11:33:33Z</time>
      </trkpt>
      <trkpt lat="42.87858" lon="-0.18659">
        <ele>2291.4</ele>
        <time>2026-07-15T11:33:34Z</time>
      </trkpt>
      <trkpt lat="42.87859" lon="-0.18659">
        <ele>2292.4</ele>
        <time>2026-07-15T11:33:35Z</time>
      </trkpt>
      <trkpt lat="42.8786" lon="-0.18659">
        <ele>2291.4</ele>
        <time>2026-07-15T11:33:36Z</time>
      </trkpt>
      <trkpt lat="42.87861" lon="-0.1866">
        <ele>2291.4</ele>
        <time>2026-07-15T11:33:37Z</time>
      </trkpt>
      <trkpt lat="42.87861" lon="-0.18658">
        <ele>2291.4</ele>
        <time>2026-07-15T11:33:38Z</time>
      </trkpt>
      <trkpt lat="42.87861" lon="-0.18658">
        <ele>2291.4</ele>
        <time>2026-07-15T11:33:39Z</time>
      </trkpt>
      <trkpt lat="42.87861" lon="-0.18657">
        <ele>2292.4</ele>
        <time>2026-07-15T11:33:40Z</time>
      </trkpt>
      <trkpt lat="42.87862" lon="-0.18657">
        <ele>2292.4</ele>
        <time>2026-07-15T11:33:41Z</time>
      </trkpt>
      <trkpt lat="42.87862" lon="-0.18657">
        <ele>2293.4</ele>
        <time>2026-07-15T11:33:42Z</time>
      </trkpt>
      <trkpt lat="42.87862" lon="-0.18657">
        <ele>2293.4</ele>
        <time>2026-07-15T11:33:43Z</time>
      </trkpt>
      <trkpt lat="42.87862" lon="-0.18656">
        <ele>2293.4</ele>
        <time>2026-07-15T11:33:44Z</time>
      </trkpt>
      <trkpt lat="42.87862" lon="-0.18656">
        <ele>2295.4</ele>
        <time>2026-07-15T11:33:45Z</time>
      </trkpt>
      <trkpt lat="42.87863" lon="-0.18655">
        <ele>2295.4</ele>
        <time>2026-07-15T11:33:46Z</time>
      </trkpt>
      <trkpt lat="42.87863" lon="-0.18655">
        <ele>2296.4</ele>
        <time>2026-07-15T11:33:47Z</time>
      </trkpt>
      <trkpt lat="42.87863" lon="-0.18655">
        <ele>2295.4</ele>
        <time>2026-07-15T11:33:48Z</time>
      </trkpt>
      <trkpt lat="42.87863" lon="-0.18655">
        <ele>2295.4</ele>
        <time>2026-07-15T11:33:49Z</time>
      </trkpt>
      <trkpt lat="42.87864" lon="-0.18654">
        <ele>2295.4</ele>
        <time>2026-07-15T11:33:50Z</time>
      </trkpt>
      <trkpt lat="42.87864" lon="-0.18655">
        <ele>2296.4</ele>
        <time>2026-07-15T11:33:51Z</time>
      </trkpt>
      <trkpt lat="42.87865" lon="-0.18655">
        <ele>2296.4</ele>
        <time>2026-07-15T11:33:52Z</time>
      </trkpt>
      <trkpt lat="42.87866" lon="-0.18654">
        <ele>2297.4</ele>
        <time>2026-07-15T11:33:53Z</time>
      </trkpt>
      <trkpt lat="42.87866" lon="-0.18654">
        <ele>2297.4</ele>
        <time>2026-07-15T11:33:54Z</time>
      </trkpt>
      <trkpt lat="42.87866" lon="-0.18654">
        <ele>2297.4</ele>
        <time>2026-07-15T11:33:55Z</time>
      </trkpt>
      <trkpt lat="42.87868" lon="-0.18654">
        <ele>2297.4</ele>
        <time>2026-07-15T11:33:56Z</time>
      </trkpt>
      <trkpt lat="42.87869" lon="-0.18654">
        <ele>2298.4</ele>
        <time>2026-07-15T11:33:57Z</time>
      </trkpt>
      <trkpt lat="42.87869" lon="-0.18654">
        <ele>2298.4</ele>
        <time>2026-07-15T11:33:58Z</time>
      </trkpt>
      <trkpt lat="42.8787" lon="-0.18653">
        <ele>2298.4</ele>
        <time>2026-07-15T11:33:59Z</time>
      </trkpt>
      <trkpt lat="42.8787" lon="-0.18652">
        <ele>2299.4</ele>
        <time>2026-07-15T11:34:00Z</time>
      </trkpt>
      <trkpt lat="42.87869" lon="-0.18652">
        <ele>2298.4</ele>
        <time>2026-07-15T11:34:01Z</time>
      </trkpt>
      <trkpt lat="42.8787" lon="-0.18651">
        <ele>2298.4</ele>
        <time>2026-07-15T11:34:02Z</time>
      </trkpt>
      <trkpt lat="42.87871" lon="-0.18651">
        <ele>2298.4</ele>
        <time>2026-07-15T11:34:03Z</time>
      </trkpt>
      <trkpt lat="42.87872" lon="-0.18651">
        <ele>2298.4</ele>
        <time>2026-07-15T11:34:04Z</time>
      </trkpt>
      <trkpt lat="42.87872" lon="-0.1865">
        <ele>2298.4</ele>
        <time>2026-07-15T11:34:05Z</time>
      </trkpt>
      <trkpt lat="42.87873" lon="-0.18651">
        <ele>2297.4</ele>
        <time>2026-07-15T11:34:06Z</time>
      </trkpt>
      <trkpt lat="42.87873" lon="-0.18651">
        <ele>2297.4</ele>
        <time>2026-07-15T11:34:07Z</time>
      </trkpt>
      <trkpt lat="42.87872" lon="-0.18653">
        <ele>2298.4</ele>
        <time>2026-07-15T11:34:08Z</time>
      </trkpt>
      <trkpt lat="42.87872" lon="-0.18653">
        <ele>2299.4</ele>
        <time>2026-07-15T11:34:09Z</time>
      </trkpt>
      <trkpt lat="42.87872" lon="-0.18654">
        <ele>2298.4</ele>
        <time>2026-07-15T11:34:10Z</time>
      </trkpt>
      <trkpt lat="42.87872" lon="-0.18655">
        <ele>2299.4</ele>
        <time>2026-07-15T11:34:11Z</time>
      </trkpt>
      <trkpt lat="42.87872" lon="-0.18655">
        <ele>2299.4</ele>
        <time>2026-07-15T11:34:12Z</time>
      </trkpt>
      <trkpt lat="42.87871" lon="-0.18656">
        <ele>2300.4</ele>
        <time>2026-07-15T11:34:13Z</time>
      </trkpt>
      <trkpt lat="42.87872" lon="-0.18655">
        <ele>2299.4</ele>
        <time>2026-07-15T11:34:14Z</time>
      </trkpt>
      <trkpt lat="42.87873" lon="-0.18655">
        <ele>2299.4</ele>
        <time>2026-07-15T11:34:15Z</time>
      </trkpt>
      <trkpt lat="42.87873" lon="-0.18655">
        <ele>2299.4</ele>
        <time>2026-07-15T11:34:16Z</time>
      </trkpt>
      <trkpt lat="42.87873" lon="-0.18655">
        <ele>2299.4</ele>
        <time>2026-07-15T11:34:17Z</time>
      </trkpt>
      <trkpt lat="42.87873" lon="-0.18656">
        <ele>2299.4</ele>
        <time>2026-07-15T11:34:18Z</time>
      </trkpt>
      <trkpt lat="42.87874" lon="-0.18657">
        <ele>2299.4</ele>
        <time>2026-07-15T11:34:19Z</time>
      </trkpt>
      <trkpt lat="42.87874" lon="-0.18658">
        <ele>2298.4</ele>
        <time>2026-07-15T11:34:20Z</time>
      </trkpt>
      <trkpt lat="42.87875" lon="-0.18658">
        <ele>2298.4</ele>
        <time>2026-07-15T11:34:21Z</time>
      </trkpt>
      <trkpt lat="42.87875" lon="-0.18658">
        <ele>2298.4</ele>
        <time>2026-07-15T11:34:22Z</time>
      </trkpt>
      <trkpt lat="42.87875" lon="-0.18658">
        <ele>2298.4</ele>
        <time>2026-07-15T11:34:22Z</time>
      </trkpt>
      <trkpt lat="42.87876" lon="-0.18658">
        <ele>2298.4</ele>
        <time>2026-07-15T11:34:23Z</time>
      </trkpt>
      <trkpt lat="42.87876" lon="-0.18658">
        <ele>2298.4</ele>
        <time>2026-07-15T11:34:24Z</time>
      </trkpt>
      <trkpt lat="42.87877" lon="-0.18658">
        <ele>2298.4</ele>
        <time>2026-07-15T11:34:25Z</time>
      </trkpt>
      <trkpt lat="42.87877" lon="-0.18659">
        <ele>2298.4</ele>
        <time>2026-07-15T11:34:25Z</time>
      </trkpt>
      <trkpt lat="42.87877" lon="-0.18659">
        <ele>2298.4</ele>
        <time>2026-07-15T11:34:26Z</time>
      </trkpt>
      <trkpt lat="42.87877" lon="-0.18659">
        <ele>2298.4</ele>
        <time>2026-07-15T11:34:27Z</time>
      </trkpt>
      <trkpt lat="42.87877" lon="-0.18659">
        <ele>2298.4</ele>
        <time>2026-07-15T11:34:28Z</time>
      </trkpt>
      <trkpt lat="42.87877" lon="-0.18659">
        <ele>2298.4</ele>
        <time>2026-07-15T11:34:29Z</time>
      </trkpt>
      <trkpt lat="42.87877" lon="-0.18659">
        <ele>2298.4</ele>
        <time>2026-07-15T11:34:29Z</time>
      </trkpt>
      <trkpt lat="42.87877" lon="-0.18659">
        <ele>2298.4</ele>
        <time>2026-07-15T11:34:30Z</time>
      </trkpt>
      <trkpt lat="42.87877" lon="-0.18659">
        <ele>2298.4</ele>
        <time>2026-07-15T11:34:31Z</time>
      </trkpt>
      <trkpt lat="42.87877" lon="-0.18659">
        <ele>2298.4</ele>
        <time>2026-07-15T11:34:32Z</time>
      </trkpt>
      <trkpt lat="42.87878" lon="-0.1866">
        <ele>2298.4</ele>
        <time>2026-07-15T11:34:33Z</time>
      </trkpt>
      <trkpt lat="42.87878" lon="-0.1866">
        <ele>2299.4</ele>
        <time>2026-07-15T11:34:34Z</time>
      </trkpt>
      <trkpt lat="42.87878" lon="-0.1866">
        <ele>2300.4</ele>
        <time>2026-07-15T11:34:35Z</time>
      </trkpt>
      <trkpt lat="42.87878" lon="-0.1866">
        <ele>2299.4</ele>
        <time>2026-07-15T11:34:35Z</time>
      </trkpt>
      <trkpt lat="42.87879" lon="-0.1866">
        <ele>2298.4</ele>
        <time>2026-07-15T11:34:36Z</time>
      </trkpt>
      <trkpt lat="42.87879" lon="-0.1866">
        <ele>2298.4</ele>
        <time>2026-07-15T11:34:37Z</time>
      </trkpt>
      <trkpt lat="42.87879" lon="-0.1866">
        <ele>2298.4</ele>
        <time>2026-07-15T11:34:38Z</time>
      </trkpt>
      <trkpt lat="42.87879" lon="-0.18661">
        <ele>2297.4</ele>
        <time>2026-07-15T11:34:39Z</time>
      </trkpt>
      <trkpt lat="42.87879" lon="-0.18661">
        <ele>2298.4</ele>
        <time>2026-07-15T11:34:40Z</time>
      </trkpt>
      <trkpt lat="42.87879" lon="-0.18661">
        <ele>2298.4</ele>
        <time>2026-07-15T11:34:41Z</time>
      </trkpt>
      <trkpt lat="42.8788" lon="-0.18661">
        <ele>2299.4</ele>
        <time>2026-07-15T11:34:42Z</time>
      </trkpt>
      <trkpt lat="42.8788" lon="-0.18661">
        <ele>2298.4</ele>
        <time>2026-07-15T11:34:43Z</time>
      </trkpt>
      <trkpt lat="42.8788" lon="-0.18661">
        <ele>2299.4</ele>
        <time>2026-07-15T11:34:43Z</time>
      </trkpt>
      <trkpt lat="42.87881" lon="-0.18662">
        <ele>2298.4</ele>
        <time>2026-07-15T11:34:44Z</time>
      </trkpt>
      <trkpt lat="42.87881" lon="-0.18661">
        <ele>2298.4</ele>
        <time>2026-07-15T11:34:45Z</time>
      </trkpt>
      <trkpt lat="42.87881" lon="-0.18661">
        <ele>2298.4</ele>
        <time>2026-07-15T11:34:46Z</time>
      </trkpt>
      <trkpt lat="42.87882" lon="-0.18661">
        <ele>2299.4</ele>
        <time>2026-07-15T11:34:46Z</time>
      </trkpt>
      <trkpt lat="42.87882" lon="-0.18661">
        <ele>2299.4</ele>
        <time>2026-07-15T11:34:47Z</time>
      </trkpt>
      <trkpt lat="42.87883" lon="-0.1866">
        <ele>2299.4</ele>
        <time>2026-07-15T11:34:48Z</time>
      </trkpt>
      <trkpt lat="42.87883" lon="-0.1866">
        <ele>2300.4</ele>
        <time>2026-07-15T11:34:48Z</time>
      </trkpt>
      <trkpt lat="42.87883" lon="-0.18659">
        <ele>2300.4</ele>
        <time>2026-07-15T11:34:49Z</time>
      </trkpt>
      <trkpt lat="42.87884" lon="-0.18659">
        <ele>2300.4</ele>
        <time>2026-07-15T11:34:50Z</time>
      </trkpt>
      <trkpt lat="42.87884" lon="-0.18658">
        <ele>2300.4</ele>
        <time>2026-07-15T11:34:50Z</time>
      </trkpt>
      <trkpt lat="42.87885" lon="-0.18658">
        <ele>2300.4</ele>
        <time>2026-07-15T11:34:51Z</time>
      </trkpt>
      <trkpt lat="42.87885" lon="-0.18657">
        <ele>2300.4</ele>
        <time>2026-07-15T11:34:51Z</time>
      </trkpt>
      <trkpt lat="42.87886" lon="-0.18657">
        <ele>2300.4</ele>
        <time>2026-07-15T11:34:52Z</time>
      </trkpt>
      <trkpt lat="42.87886" lon="-0.18656">
        <ele>2300.4</ele>
        <time>2026-07-15T11:34:53Z</time>
      </trkpt>
      <trkpt lat="42.87886" lon="-0.18656">
        <ele>2300.4</ele>
        <time>2026-07-15T11:34:53Z</time>
      </trkpt>
      <trkpt lat="42.87887" lon="-0.18655">
        <ele>2300.4</ele>
        <time>2026-07-15T11:34:54Z</time>
      </trkpt>
      <trkpt lat="42.87887" lon="-0.18654">
        <ele>2300.4</ele>
        <time>2026-07-15T11:34:55Z</time>
      </trkpt>
      <trkpt lat="42.87887" lon="-0.18654">
        <ele>2300.4</ele>
        <time>2026-07-15T11:34:55Z</time>
      </trkpt>
      <trkpt lat="42.87887" lon="-0.18653">
        <ele>2300.4</ele>
        <time>2026-07-15T11:34:56Z</time>
      </trkpt>
      <trkpt lat="42.87887" lon="-0.18652">
        <ele>2301.4</ele>
        <time>2026-07-15T11:34:56Z</time>
      </trkpt>
      <trkpt lat="42.87888" lon="-0.18651">
        <ele>2301.4</ele>
        <time>2026-07-15T11:34:57Z</time>
      </trkpt>
      <trkpt lat="42.87888" lon="-0.1865">
        <ele>2301.4</ele>
        <time>2026-07-15T11:34:58Z</time>
      </trkpt>
      <trkpt lat="42.87889" lon="-0.18649">
        <ele>2301.4</ele>
        <time>2026-07-15T11:34:58Z</time>
      </trkpt>
      <trkpt lat="42.87889" lon="-0.18648">
        <ele>2301.4</ele>
        <time>2026-07-15T11:34:59Z</time>
      </trkpt>
      <trkpt lat="42.87889" lon="-0.18648">
        <ele>2301.4</ele>
        <time>2026-07-15T11:34:59Z</time>
      </trkpt>
      <trkpt lat="42.8789" lon="-0.18647">
        <ele>2302.4</ele>
        <time>2026-07-15T11:35:00Z</time>
      </trkpt>
      <trkpt lat="42.8789" lon="-0.18646">
        <ele>2302.4</ele>
        <time>2026-07-15T11:35:01Z</time>
      </trkpt>
      <trkpt lat="42.8789" lon="-0.18645">
        <ele>2302.4</ele>
        <time>2026-07-15T11:35:02Z</time>
      </trkpt>
      <trkpt lat="42.87891" lon="-0.18645">
        <ele>2302.4</ele>
        <time>2026-07-15T11:35:02Z</time>
      </trkpt>
      <trkpt lat="42.87891" lon="-0.18644">
        <ele>2302.4</ele>
        <time>2026-07-15T11:35:03Z</time>
      </trkpt>
      <trkpt lat="42.87892" lon="-0.18643">
        <ele>2303.4</ele>
        <time>2026-07-15T11:35:03Z</time>
      </trkpt>
      <trkpt lat="42.87892" lon="-0.18642">
        <ele>2303.4</ele>
        <time>2026-07-15T11:35:04Z</time>
      </trkpt>
      <trkpt lat="42.87892" lon="-0.18642">
        <ele>2303.4</ele>
        <time>2026-07-15T11:35:05Z</time>
      </trkpt>
      <trkpt lat="42.87892" lon="-0.18641">
        <ele>2303.4</ele>
        <time>2026-07-15T11:35:05Z</time>
      </trkpt>
      <trkpt lat="42.87893" lon="-0.18641">
        <ele>2304.4</ele>
        <time>2026-07-15T11:35:06Z</time>
      </trkpt>
      <trkpt lat="42.87893" lon="-0.1864">
        <ele>2304.4</ele>
        <time>2026-07-15T11:35:07Z</time>
      </trkpt>
      <trkpt lat="42.87893" lon="-0.18639">
        <ele>2304.4</ele>
        <time>2026-07-15T11:35:07Z</time>
      </trkpt>
      <trkpt lat="42.87894" lon="-0.18639">
        <ele>2304.4</ele>
        <time>2026-07-15T11:35:08Z</time>
      </trkpt>
      <trkpt lat="42.87894" lon="-0.18638">
        <ele>2303.4</ele>
        <time>2026-07-15T11:35:09Z</time>
      </trkpt>
      <trkpt lat="42.87894" lon="-0.18637">
        <ele>2303.4</ele>
        <time>2026-07-15T11:35:09Z</time>
      </trkpt>
      <trkpt lat="42.87895" lon="-0.18636">
        <ele>2303.4</ele>
        <time>2026-07-15T11:35:10Z</time>
      </trkpt>
      <trkpt lat="42.87895" lon="-0.18636">
        <ele>2303.4</ele>
        <time>2026-07-15T11:35:11Z</time>
      </trkpt>
      <trkpt lat="42.87895" lon="-0.18635">
        <ele>2303.4</ele>
        <time>2026-07-15T11:35:11Z</time>
      </trkpt>
      <trkpt lat="42.87895" lon="-0.18634">
        <ele>2303.4</ele>
        <time>2026-07-15T11:35:12Z</time>
      </trkpt>
      <trkpt lat="42.87895" lon="-0.18634">
        <ele>2303.4</ele>
        <time>2026-07-15T11:35:13Z</time>
      </trkpt>
      <trkpt lat="42.87895" lon="-0.18633">
        <ele>2303.4</ele>
        <time>2026-07-15T11:35:14Z</time>
      </trkpt>
      <trkpt lat="42.87896" lon="-0.18633">
        <ele>2303.4</ele>
        <time>2026-07-15T11:35:14Z</time>
      </trkpt>
      <trkpt lat="42.87896" lon="-0.18632">
        <ele>2303.4</ele>
        <time>2026-07-15T11:35:15Z</time>
      </trkpt>
      <trkpt lat="42.87896" lon="-0.18631">
        <ele>2303.4</ele>
        <time>2026-07-15T11:35:16Z</time>
      </trkpt>
      <trkpt lat="42.87896" lon="-0.1863">
        <ele>2303.4</ele>
        <time>2026-07-15T11:35:17Z</time>
      </trkpt>
      <trkpt lat="42.87896" lon="-0.1863">
        <ele>2303.4</ele>
        <time>2026-07-15T11:35:17Z</time>
      </trkpt>
      <trkpt lat="42.87897" lon="-0.18629">
        <ele>2302.4</ele>
        <time>2026-07-15T11:35:18Z</time>
      </trkpt>
      <trkpt lat="42.87897" lon="-0.18628">
        <ele>2302.4</ele>
        <time>2026-07-15T11:35:19Z</time>
      </trkpt>
      <trkpt lat="42.87897" lon="-0.18627">
        <ele>2303.4</ele>
        <time>2026-07-15T11:35:20Z</time>
      </trkpt>
      <trkpt lat="42.87897" lon="-0.18627">
        <ele>2303.4</ele>
        <time>2026-07-15T11:35:20Z</time>
      </trkpt>
      <trkpt lat="42.87898" lon="-0.18626">
        <ele>2303.4</ele>
        <time>2026-07-15T11:35:21Z</time>
      </trkpt>
      <trkpt lat="42.87898" lon="-0.18626">
        <ele>2304.4</ele>
        <time>2026-07-15T11:35:21Z</time>
      </trkpt>
      <trkpt lat="42.87898" lon="-0.18626">
        <ele>2304.4</ele>
        <time>2026-07-15T11:35:22Z</time>
      </trkpt>
      <trkpt lat="42.87898" lon="-0.18625">
        <ele>2304.4</ele>
        <time>2026-07-15T11:35:23Z</time>
      </trkpt>
      <trkpt lat="42.87898" lon="-0.18625">
        <ele>2304.4</ele>
        <time>2026-07-15T11:35:23Z</time>
      </trkpt>
      <trkpt lat="42.87898" lon="-0.18625">
        <ele>2304.4</ele>
        <time>2026-07-15T11:35:24Z</time>
      </trkpt>
      <trkpt lat="42.87898" lon="-0.18624">
        <ele>2304.4</ele>
        <time>2026-07-15T11:35:25Z</time>
      </trkpt>
      <trkpt lat="42.87898" lon="-0.18624">
        <ele>2303.4</ele>
        <time>2026-07-15T11:35:25Z</time>
      </trkpt>
      <trkpt lat="42.87898" lon="-0.18624">
        <ele>2303.4</ele>
        <time>2026-07-15T11:35:26Z</time>
      </trkpt>
      <trkpt lat="42.87898" lon="-0.18624">
        <ele>2304.4</ele>
        <time>2026-07-15T11:35:27Z</time>
      </trkpt>
      <trkpt lat="42.87898" lon="-0.18623">
        <ele>2304.4</ele>
        <time>2026-07-15T11:35:28Z</time>
      </trkpt>
      <trkpt lat="42.87898" lon="-0.18622">
        <ele>2304.4</ele>
        <time>2026-07-15T11:35:29Z</time>
      </trkpt>
      <trkpt lat="42.87898" lon="-0.18622">
        <ele>2304.4</ele>
        <time>2026-07-15T11:35:29Z</time>
      </trkpt>
      <trkpt lat="42.87899" lon="-0.18621">
        <ele>2304.4</ele>
        <time>2026-07-15T11:35:30Z</time>
      </trkpt>
      <trkpt lat="42.87899" lon="-0.18621">
        <ele>2304.4</ele>
        <time>2026-07-15T11:35:31Z</time>
      </trkpt>
      <trkpt lat="42.87899" lon="-0.18621">
        <ele>2305.4</ele>
        <time>2026-07-15T11:35:32Z</time>
      </trkpt>
      <trkpt lat="42.87899" lon="-0.18621">
        <ele>2305.4</ele>
        <time>2026-07-15T11:35:32Z</time>
      </trkpt>
      <trkpt lat="42.87899" lon="-0.18621">
        <ele>2304.4</ele>
        <time>2026-07-15T11:35:33Z</time>
      </trkpt>
      <trkpt lat="42.87899" lon="-0.1862">
        <ele>2304.4</ele>
        <time>2026-07-15T11:35:34Z</time>
      </trkpt>
      <trkpt lat="42.87899" lon="-0.18619">
        <ele>2304.4</ele>
        <time>2026-07-15T11:35:35Z</time>
      </trkpt>
      <trkpt lat="42.87899" lon="-0.18619">
        <ele>2304.4</ele>
        <time>2026-07-15T11:35:36Z</time>
      </trkpt>
      <trkpt lat="42.87899" lon="-0.18618">
        <ele>2304.4</ele>
        <time>2026-07-15T11:35:36Z</time>
      </trkpt>
      <trkpt lat="42.87899" lon="-0.18618">
        <ele>2304.4</ele>
        <time>2026-07-15T11:35:37Z</time>
      </trkpt>
      <trkpt lat="42.87899" lon="-0.18617">
        <ele>2304.4</ele>
        <time>2026-07-15T11:35:38Z</time>
      </trkpt>
      <trkpt lat="42.879" lon="-0.18617">
        <ele>2304.4</ele>
        <time>2026-07-15T11:35:39Z</time>
      </trkpt>
      <trkpt lat="42.879" lon="-0.18616">
        <ele>2304.4</ele>
        <time>2026-07-15T11:35:40Z</time>
      </trkpt>
      <trkpt lat="42.87901" lon="-0.18616">
        <ele>2304.4</ele>
        <time>2026-07-15T11:35:40Z</time>
      </trkpt>
      <trkpt lat="42.87901" lon="-0.18615">
        <ele>2304.4</ele>
        <time>2026-07-15T11:35:41Z</time>
      </trkpt>
      <trkpt lat="42.87902" lon="-0.18614">
        <ele>2305.4</ele>
        <time>2026-07-15T11:35:42Z</time>
      </trkpt>
      <trkpt lat="42.87902" lon="-0.18614">
        <ele>2305.4</ele>
        <time>2026-07-15T11:35:42Z</time>
      </trkpt>
      <trkpt lat="42.87903" lon="-0.18613">
        <ele>2305.4</ele>
        <time>2026-07-15T11:35:43Z</time>
      </trkpt>
      <trkpt lat="42.87904" lon="-0.18612">
        <ele>2305.4</ele>
        <time>2026-07-15T11:35:44Z</time>
      </trkpt>
      <trkpt lat="42.87904" lon="-0.18612">
        <ele>2305.4</ele>
        <time>2026-07-15T11:35:45Z</time>
      </trkpt>
      <trkpt lat="42.87905" lon="-0.18611">
        <ele>2305.4</ele>
        <time>2026-07-15T11:35:45Z</time>
      </trkpt>
      <trkpt lat="42.87906" lon="-0.1861">
        <ele>2305.4</ele>
        <time>2026-07-15T11:35:46Z</time>
      </trkpt>
      <trkpt lat="42.87906" lon="-0.1861">
        <ele>2306.4</ele>
        <time>2026-07-15T11:35:47Z</time>
      </trkpt>
      <trkpt lat="42.87906" lon="-0.18609">
        <ele>2306.4</ele>
        <time>2026-07-15T11:35:47Z</time>
      </trkpt>
      <trkpt lat="42.87907" lon="-0.18609">
        <ele>2305.4</ele>
        <time>2026-07-15T11:35:48Z</time>
      </trkpt>
      <trkpt lat="42.87907" lon="-0.18608">
        <ele>2305.4</ele>
        <time>2026-07-15T11:35:49Z</time>
      </trkpt>
      <trkpt lat="42.87907" lon="-0.18607">
        <ele>2305.4</ele>
        <time>2026-07-15T11:35:50Z</time>
      </trkpt>
      <trkpt lat="42.87908" lon="-0.18607">
        <ele>2305.4</ele>
        <time>2026-07-15T11:35:50Z</time>
      </trkpt>
      <trkpt lat="42.87908" lon="-0.18607">
        <ele>2305.4</ele>
        <time>2026-07-15T11:35:51Z</time>
      </trkpt>
      <trkpt lat="42.87908" lon="-0.18606">
        <ele>2305.4</ele>
        <time>2026-07-15T11:35:52Z</time>
      </trkpt>
      <trkpt lat="42.87908" lon="-0.18606">
        <ele>2305.4</ele>
        <time>2026-07-15T11:35:53Z</time>
      </trkpt>
      <trkpt lat="42.87908" lon="-0.18605">
        <ele>2305.4</ele>
        <time>2026-07-15T11:35:54Z</time>
      </trkpt>
      <trkpt lat="42.87908" lon="-0.18605">
        <ele>2306.4</ele>
        <time>2026-07-15T11:35:54Z</time>
      </trkpt>
      <trkpt lat="42.87909" lon="-0.18605">
        <ele>2306.4</ele>
        <time>2026-07-15T11:35:55Z</time>
      </trkpt>
      <trkpt lat="42.87909" lon="-0.18604">
        <ele>2306.4</ele>
        <time>2026-07-15T11:35:56Z</time>
      </trkpt>
      <trkpt lat="42.87909" lon="-0.18603">
        <ele>2306.4</ele>
        <time>2026-07-15T11:35:57Z</time>
      </trkpt>
      <trkpt lat="42.8791" lon="-0.18602">
        <ele>2306.4</ele>
        <time>2026-07-15T11:35:58Z</time>
      </trkpt>
      <trkpt lat="42.8791" lon="-0.18602">
        <ele>2306.4</ele>
        <time>2026-07-15T11:35:59Z</time>
      </trkpt>
      <trkpt lat="42.8791" lon="-0.18601">
        <ele>2306.4</ele>
        <time>2026-07-15T11:35:59Z</time>
      </trkpt>
      <trkpt lat="42.8791" lon="-0.18601">
        <ele>2306.4</ele>
        <time>2026-07-15T11:36:00Z</time>
      </trkpt>
      <trkpt lat="42.87911" lon="-0.186">
        <ele>2307.4</ele>
        <time>2026-07-15T11:36:01Z</time>
      </trkpt>
      <trkpt lat="42.87911" lon="-0.18599">
        <ele>2307.4</ele>
        <time>2026-07-15T11:36:02Z</time>
      </trkpt>
      <trkpt lat="42.87911" lon="-0.18598">
        <ele>2307.4</ele>
        <time>2026-07-15T11:36:03Z</time>
      </trkpt>
      <trkpt lat="42.87912" lon="-0.18597">
        <ele>2308.4</ele>
        <time>2026-07-15T11:36:04Z</time>
      </trkpt>
      <trkpt lat="42.87912" lon="-0.18597">
        <ele>2308.4</ele>
        <time>2026-07-15T11:36:04Z</time>
      </trkpt>
      <trkpt lat="42.87912" lon="-0.18597">
        <ele>2308.4</ele>
        <time>2026-07-15T11:36:05Z</time>
      </trkpt>
      <trkpt lat="42.87912" lon="-0.18596">
        <ele>2308.4</ele>
        <time>2026-07-15T11:36:06Z</time>
      </trkpt>
      <trkpt lat="42.87913" lon="-0.18595">
        <ele>2308.4</ele>
        <time>2026-07-15T11:36:07Z</time>
      </trkpt>
      <trkpt lat="42.87913" lon="-0.18594">
        <ele>2308.4</ele>
        <time>2026-07-15T11:36:08Z</time>
      </trkpt>
      <trkpt lat="42.87913" lon="-0.18594">
        <ele>2308.4</ele>
        <time>2026-07-15T11:36:09Z</time>
      </trkpt>
      <trkpt lat="42.87913" lon="-0.18593">
        <ele>2307.4</ele>
        <time>2026-07-15T11:36:10Z</time>
      </trkpt>
      <trkpt lat="42.87914" lon="-0.18593">
        <ele>2307.4</ele>
        <time>2026-07-15T11:36:10Z</time>
      </trkpt>
      <trkpt lat="42.87914" lon="-0.18593">
        <ele>2307.4</ele>
        <time>2026-07-15T11:36:11Z</time>
      </trkpt>
      <trkpt lat="42.87914" lon="-0.18592">
        <ele>2307.4</ele>
        <time>2026-07-15T11:36:12Z</time>
      </trkpt>
      <trkpt lat="42.87915" lon="-0.18592">
        <ele>2307.4</ele>
        <time>2026-07-15T11:36:13Z</time>
      </trkpt>
      <trkpt lat="42.87916" lon="-0.18592">
        <ele>2307.4</ele>
        <time>2026-07-15T11:36:14Z</time>
      </trkpt>
      <trkpt lat="42.87917" lon="-0.18592">
        <ele>2308.4</ele>
        <time>2026-07-15T11:36:15Z</time>
      </trkpt>
      <trkpt lat="42.87917" lon="-0.18591">
        <ele>2308.4</ele>
        <time>2026-07-15T11:36:15Z</time>
      </trkpt>
      <trkpt lat="42.87917" lon="-0.18591">
        <ele>2308.4</ele>
        <time>2026-07-15T11:36:16Z</time>
      </trkpt>
      <trkpt lat="42.87918" lon="-0.1859">
        <ele>2308.4</ele>
        <time>2026-07-15T11:36:17Z</time>
      </trkpt>
      <trkpt lat="42.87918" lon="-0.1859">
        <ele>2308.4</ele>
        <time>2026-07-15T11:36:18Z</time>
      </trkpt>
      <trkpt lat="42.87919" lon="-0.18589">
        <ele>2308.4</ele>
        <time>2026-07-15T11:36:19Z</time>
      </trkpt>
      <trkpt lat="42.87919" lon="-0.18589">
        <ele>2307.4</ele>
        <time>2026-07-15T11:36:20Z</time>
      </trkpt>
      <trkpt lat="42.8792" lon="-0.18589">
        <ele>2307.4</ele>
        <time>2026-07-15T11:36:21Z</time>
      </trkpt>
      <trkpt lat="42.8792" lon="-0.18589">
        <ele>2307.4</ele>
        <time>2026-07-15T11:36:21Z</time>
      </trkpt>
      <trkpt lat="42.87921" lon="-0.18589">
        <ele>2307.4</ele>
        <time>2026-07-15T11:36:22Z</time>
      </trkpt>
      <trkpt lat="42.87922" lon="-0.18588">
        <ele>2307.4</ele>
        <time>2026-07-15T11:36:23Z</time>
      </trkpt>
      <trkpt lat="42.87922" lon="-0.18588">
        <ele>2308.4</ele>
        <time>2026-07-15T11:36:24Z</time>
      </trkpt>
      <trkpt lat="42.87922" lon="-0.18588">
        <ele>2308.4</ele>
        <time>2026-07-15T11:36:24Z</time>
      </trkpt>
      <trkpt lat="42.87923" lon="-0.18588">
        <ele>2309.4</ele>
        <time>2026-07-15T11:36:25Z</time>
      </trkpt>
      <trkpt lat="42.87924" lon="-0.18587">
        <ele>2309.4</ele>
        <time>2026-07-15T11:36:26Z</time>
      </trkpt>
      <trkpt lat="42.87924" lon="-0.18587">
        <ele>2309.4</ele>
        <time>2026-07-15T11:36:27Z</time>
      </trkpt>
      <trkpt lat="42.87925" lon="-0.18587">
        <ele>2309.4</ele>
        <time>2026-07-15T11:36:27Z</time>
      </trkpt>
      <trkpt lat="42.87925" lon="-0.18586">
        <ele>2308.4</ele>
        <time>2026-07-15T11:36:28Z</time>
      </trkpt>
      <trkpt lat="42.87926" lon="-0.18586">
        <ele>2308.4</ele>
        <time>2026-07-15T11:36:29Z</time>
      </trkpt>
      <trkpt lat="42.87926" lon="-0.18586">
        <ele>2308.4</ele>
        <time>2026-07-15T11:36:29Z</time>
      </trkpt>
      <trkpt lat="42.87927" lon="-0.18586">
        <ele>2308.4</ele>
        <time>2026-07-15T11:36:30Z</time>
      </trkpt>
      <trkpt lat="42.87927" lon="-0.18585">
        <ele>2308.4</ele>
        <time>2026-07-15T11:36:31Z</time>
      </trkpt>
      <trkpt lat="42.87928" lon="-0.18585">
        <ele>2308.4</ele>
        <time>2026-07-15T11:36:32Z</time>
      </trkpt>
      <trkpt lat="42.87928" lon="-0.18585">
        <ele>2308.4</ele>
        <time>2026-07-15T11:36:33Z</time>
      </trkpt>
      <trkpt lat="42.87929" lon="-0.18585">
        <ele>2308.4</ele>
        <time>2026-07-15T11:36:33Z</time>
      </trkpt>
      <trkpt lat="42.87929" lon="-0.18585">
        <ele>2309.4</ele>
        <time>2026-07-15T11:36:34Z</time>
      </trkpt>
      <trkpt lat="42.8793" lon="-0.18585">
        <ele>2309.4</ele>
        <time>2026-07-15T11:36:35Z</time>
      </trkpt>
      <trkpt lat="42.87931" lon="-0.18585">
        <ele>2309.4</ele>
        <time>2026-07-15T11:36:36Z</time>
      </trkpt>
      <trkpt lat="42.87931" lon="-0.18585">
        <ele>2309.4</ele>
        <time>2026-07-15T11:36:37Z</time>
      </trkpt>
      <trkpt lat="42.87932" lon="-0.18585">
        <ele>2309.4</ele>
        <time>2026-07-15T11:36:37Z</time>
      </trkpt>
      <trkpt lat="42.87932" lon="-0.18585">
        <ele>2308.4</ele>
        <time>2026-07-15T11:36:38Z</time>
      </trkpt>
      <trkpt lat="42.87933" lon="-0.18585">
        <ele>2308.4</ele>
        <time>2026-07-15T11:36:39Z</time>
      </trkpt>
      <trkpt lat="42.87933" lon="-0.18585">
        <ele>2308.4</ele>
        <time>2026-07-15T11:36:40Z</time>
      </trkpt>
      <trkpt lat="42.87934" lon="-0.18585">
        <ele>2308.4</ele>
        <time>2026-07-15T11:36:41Z</time>
      </trkpt>
      <trkpt lat="42.87934" lon="-0.18585">
        <ele>2309.4</ele>
        <time>2026-07-15T11:36:41Z</time>
      </trkpt>
      <trkpt lat="42.87935" lon="-0.18585">
        <ele>2309.4</ele>
        <time>2026-07-15T11:36:42Z</time>
      </trkpt>
      <trkpt lat="42.87935" lon="-0.18585">
        <ele>2308.4</ele>
        <time>2026-07-15T11:36:43Z</time>
      </trkpt>
      <trkpt lat="42.87936" lon="-0.18585">
        <ele>2309.4</ele>
        <time>2026-07-15T11:36:44Z</time>
      </trkpt>
      <trkpt lat="42.87936" lon="-0.18584">
        <ele>2309.4</ele>
        <time>2026-07-15T11:36:44Z</time>
      </trkpt>
      <trkpt lat="42.87936" lon="-0.18584">
        <ele>2309.4</ele>
        <time>2026-07-15T11:36:45Z</time>
      </trkpt>
      <trkpt lat="42.87937" lon="-0.18584">
        <ele>2310.4</ele>
        <time>2026-07-15T11:36:46Z</time>
      </trkpt>
      <trkpt lat="42.87937" lon="-0.18584">
        <ele>2310.4</ele>
        <time>2026-07-15T11:36:47Z</time>
      </trkpt>
      <trkpt lat="42.87937" lon="-0.18584">
        <ele>2310.4</ele>
        <time>2026-07-15T11:36:48Z</time>
      </trkpt>
      <trkpt lat="42.87938" lon="-0.18584">
        <ele>2310.4</ele>
        <time>2026-07-15T11:36:48Z</time>
      </trkpt>
      <trkpt lat="42.87938" lon="-0.18585">
        <ele>2311.4</ele>
        <time>2026-07-15T11:36:49Z</time>
      </trkpt>
      <trkpt lat="42.87939" lon="-0.18585">
        <ele>2312.4</ele>
        <time>2026-07-15T11:36:50Z</time>
      </trkpt>
      <trkpt lat="42.8794" lon="-0.18585">
        <ele>2312.4</ele>
        <time>2026-07-15T11:36:51Z</time>
      </trkpt>
      <trkpt lat="42.8794" lon="-0.18585">
        <ele>2313.4</ele>
        <time>2026-07-15T11:36:52Z</time>
      </trkpt>
      <trkpt lat="42.8794" lon="-0.18585">
        <ele>2314.4</ele>
        <time>2026-07-15T11:36:52Z</time>
      </trkpt>
      <trkpt lat="42.87941" lon="-0.18585">
        <ele>2314.4</ele>
        <time>2026-07-15T11:36:53Z</time>
      </trkpt>
      <trkpt lat="42.87941" lon="-0.18585">
        <ele>2314.4</ele>
        <time>2026-07-15T11:36:54Z</time>
      </trkpt>
      <trkpt lat="42.87941" lon="-0.18585">
        <ele>2314.4</ele>
        <time>2026-07-15T11:36:55Z</time>
      </trkpt>
      <trkpt lat="42.87942" lon="-0.18586">
        <ele>2314.4</ele>
        <time>2026-07-15T11:36:56Z</time>
      </trkpt>
      <trkpt lat="42.87942" lon="-0.18586">
        <ele>2314.4</ele>
        <time>2026-07-15T11:36:57Z</time>
      </trkpt>
      <trkpt lat="42.87943" lon="-0.18586">
        <ele>2313.4</ele>
        <time>2026-07-15T11:36:57Z</time>
      </trkpt>
      <trkpt lat="42.87943" lon="-0.18586">
        <ele>2314.4</ele>
        <time>2026-07-15T11:36:58Z</time>
      </trkpt>
      <trkpt lat="42.87944" lon="-0.18586">
        <ele>2314.4</ele>
        <time>2026-07-15T11:36:59Z</time>
      </trkpt>
      <trkpt lat="42.87944" lon="-0.18586">
        <ele>2314.4</ele>
        <time>2026-07-15T11:37:00Z</time>
      </trkpt>
      <trkpt lat="42.87944" lon="-0.18586">
        <ele>2314.4</ele>
        <time>2026-07-15T11:37:00Z</time>
      </trkpt>
      <trkpt lat="42.87944" lon="-0.18585">
        <ele>2314.4</ele>
        <time>2026-07-15T11:37:01Z</time>
      </trkpt>
      <trkpt lat="42.87945" lon="-0.18585">
        <ele>2314.4</ele>
        <time>2026-07-15T11:37:02Z</time>
      </trkpt>
      <trkpt lat="42.87945" lon="-0.18585">
        <ele>2314.4</ele>
        <time>2026-07-15T11:37:02Z</time>
      </trkpt>
      <trkpt lat="42.8794" lon="-0.18582">
        <ele>2314.4</ele>
        <time>2026-07-15T11:37:03Z</time>
      </trkpt>
      <trkpt lat="42.8794" lon="-0.18582">
        <ele>2314.4</ele>
        <time>2026-07-15T11:37:04Z</time>
      </trkpt>
      <trkpt lat="42.87941" lon="-0.18583">
        <ele>2315.4</ele>
        <time>2026-07-15T11:37:05Z</time>
      </trkpt>
      <trkpt lat="42.87941" lon="-0.18582">
        <ele>2314.4</ele>
        <time>2026-07-15T11:37:06Z</time>
      </trkpt>
      <trkpt lat="42.87941" lon="-0.18583">
        <ele>2315.4</ele>
        <time>2026-07-15T11:37:07Z</time>
      </trkpt>
      <trkpt lat="42.8794" lon="-0.18582">
        <ele>2315.4</ele>
        <time>2026-07-15T11:37:08Z</time>
      </trkpt>
      <trkpt lat="42.87941" lon="-0.18582">
        <ele>2315.4</ele>
        <time>2026-07-15T11:37:09Z</time>
      </trkpt>
      <trkpt lat="42.87941" lon="-0.18582">
        <ele>2316.4</ele>
        <time>2026-07-15T11:37:10Z</time>
      </trkpt>
      <trkpt lat="42.87942" lon="-0.18581">
        <ele>2316.4</ele>
        <time>2026-07-15T11:37:11Z</time>
      </trkpt>
      <trkpt lat="42.87942" lon="-0.1858">
        <ele>2315.4</ele>
        <time>2026-07-15T11:37:12Z</time>
      </trkpt>
      <trkpt lat="42.87942" lon="-0.1858">
        <ele>2315.4</ele>
        <time>2026-07-15T11:37:13Z</time>
      </trkpt>
      <trkpt lat="42.87942" lon="-0.1858">
        <ele>2316.4</ele>
        <time>2026-07-15T11:37:14Z</time>
      </trkpt>
      <trkpt lat="42.87943" lon="-0.18579">
        <ele>2316.4</ele>
        <time>2026-07-15T11:37:15Z</time>
      </trkpt>
      <trkpt lat="42.87944" lon="-0.18578">
        <ele>2316.4</ele>
        <time>2026-07-15T11:37:16Z</time>
      </trkpt>
      <trkpt lat="42.87944" lon="-0.18576">
        <ele>2317.4</ele>
        <time>2026-07-15T11:37:17Z</time>
      </trkpt>
      <trkpt lat="42.87946" lon="-0.18576">
        <ele>2316.4</ele>
        <time>2026-07-15T11:37:18Z</time>
      </trkpt>
      <trkpt lat="42.87946" lon="-0.18576">
        <ele>2316.4</ele>
        <time>2026-07-15T11:37:19Z</time>
      </trkpt>
      <trkpt lat="42.87947" lon="-0.18576">
        <ele>2316.4</ele>
        <time>2026-07-15T11:37:20Z</time>
      </trkpt>
      <trkpt lat="42.87948" lon="-0.18575">
        <ele>2317.4</ele>
        <time>2026-07-15T11:37:21Z</time>
      </trkpt>
      <trkpt lat="42.87949" lon="-0.18576">
        <ele>2318.4</ele>
        <time>2026-07-15T11:37:22Z</time>
      </trkpt>
      <trkpt lat="42.8795" lon="-0.18576">
        <ele>2318.4</ele>
        <time>2026-07-15T11:37:23Z</time>
      </trkpt>
      <trkpt lat="42.87951" lon="-0.18577">
        <ele>2318.4</ele>
        <time>2026-07-15T11:37:24Z</time>
      </trkpt>
      <trkpt lat="42.87951" lon="-0.18577">
        <ele>2319.4</ele>
        <time>2026-07-15T11:37:25Z</time>
      </trkpt>
      <trkpt lat="42.87951" lon="-0.18578">
        <ele>2318.4</ele>
        <time>2026-07-15T11:37:26Z</time>
      </trkpt>
      <trkpt lat="42.87952" lon="-0.18578">
        <ele>2318.4</ele>
        <time>2026-07-15T11:37:27Z</time>
      </trkpt>
      <trkpt lat="42.87952" lon="-0.18578">
        <ele>2319.4</ele>
        <time>2026-07-15T11:37:28Z</time>
      </trkpt>
      <trkpt lat="42.87953" lon="-0.18577">
        <ele>2319.4</ele>
        <time>2026-07-15T11:37:29Z</time>
      </trkpt>
      <trkpt lat="42.87954" lon="-0.18576">
        <ele>2319.4</ele>
        <time>2026-07-15T11:37:30Z</time>
      </trkpt>
      <trkpt lat="42.87954" lon="-0.18575">
        <ele>2319.4</ele>
        <time>2026-07-15T11:37:31Z</time>
      </trkpt>
      <trkpt lat="42.87954" lon="-0.18575">
        <ele>2320.4</ele>
        <time>2026-07-15T11:37:32Z</time>
      </trkpt>
      <trkpt lat="42.87954" lon="-0.18574">
        <ele>2321.4</ele>
        <time>2026-07-15T11:37:33Z</time>
      </trkpt>
      <trkpt lat="42.87954" lon="-0.18574">
        <ele>2323.4</ele>
        <time>2026-07-15T11:37:34Z</time>
      </trkpt>
      <trkpt lat="42.87954" lon="-0.18574">
        <ele>2323.4</ele>
        <time>2026-07-15T11:37:35Z</time>
      </trkpt>
      <trkpt lat="42.87954" lon="-0.18574">
        <ele>2323.4</ele>
        <time>2026-07-15T11:37:36Z</time>
      </trkpt>
      <trkpt lat="42.87954" lon="-0.18574">
        <ele>2323.4</ele>
        <time>2026-07-15T11:37:37Z</time>
      </trkpt>
      <trkpt lat="42.87955" lon="-0.18574">
        <ele>2324.4</ele>
        <time>2026-07-15T11:37:38Z</time>
      </trkpt>
      <trkpt lat="42.87956" lon="-0.18574">
        <ele>2324.4</ele>
        <time>2026-07-15T11:37:39Z</time>
      </trkpt>
      <trkpt lat="42.87956" lon="-0.18574">
        <ele>2325.4</ele>
        <time>2026-07-15T11:37:40Z</time>
      </trkpt>
      <trkpt lat="42.87956" lon="-0.18574">
        <ele>2324.4</ele>
        <time>2026-07-15T11:37:41Z</time>
      </trkpt>
      <trkpt lat="42.87956" lon="-0.18574">
        <ele>2324.4</ele>
        <time>2026-07-15T11:37:42Z</time>
      </trkpt>
      <trkpt lat="42.87956" lon="-0.18574">
        <ele>2324.4</ele>
        <time>2026-07-15T11:37:43Z</time>
      </trkpt>
      <trkpt lat="42.87957" lon="-0.18573">
        <ele>2325.4</ele>
        <time>2026-07-15T11:37:44Z</time>
      </trkpt>
      <trkpt lat="42.87957" lon="-0.18573">
        <ele>2325.4</ele>
        <time>2026-07-15T11:37:45Z</time>
      </trkpt>
      <trkpt lat="42.87957" lon="-0.18573">
        <ele>2325.4</ele>
        <time>2026-07-15T11:37:46Z</time>
      </trkpt>
      <trkpt lat="42.87956" lon="-0.18572">
        <ele>2326.4</ele>
        <time>2026-07-15T11:37:47Z</time>
      </trkpt>
      <trkpt lat="42.87956" lon="-0.18572">
        <ele>2326.4</ele>
        <time>2026-07-15T11:37:48Z</time>
      </trkpt>
      <trkpt lat="42.87956" lon="-0.18572">
        <ele>2325.4</ele>
        <time>2026-07-15T11:37:49Z</time>
      </trkpt>
      <trkpt lat="42.87957" lon="-0.18572">
        <ele>2325.4</ele>
        <time>2026-07-15T11:37:50Z</time>
      </trkpt>
      <trkpt lat="42.87957" lon="-0.18571">
        <ele>2326.4</ele>
        <time>2026-07-15T11:37:51Z</time>
      </trkpt>
      <trkpt lat="42.87957" lon="-0.18571">
        <ele>2326.4</ele>
        <time>2026-07-15T11:37:52Z</time>
      </trkpt>
      <trkpt lat="42.87957" lon="-0.18571">
        <ele>2325.4</ele>
        <time>2026-07-15T11:37:53Z</time>
      </trkpt>
      <trkpt lat="42.87958" lon="-0.18571">
        <ele>2325.4</ele>
        <time>2026-07-15T11:37:54Z</time>
      </trkpt>
      <trkpt lat="42.87958" lon="-0.18571">
        <ele>2325.4</ele>
        <time>2026-07-15T11:37:55Z</time>
      </trkpt>
      <trkpt lat="42.87959" lon="-0.18571">
        <ele>2326.4</ele>
        <time>2026-07-15T11:37:56Z</time>
      </trkpt>
      <trkpt lat="42.8796" lon="-0.18571">
        <ele>2325.4</ele>
        <time>2026-07-15T11:37:57Z</time>
      </trkpt>
      <trkpt lat="42.87961" lon="-0.18571">
        <ele>2325.4</ele>
        <time>2026-07-15T11:37:58Z</time>
      </trkpt>
      <trkpt lat="42.87963" lon="-0.18571">
        <ele>2325.4</ele>
        <time>2026-07-15T11:37:59Z</time>
      </trkpt>
      <trkpt lat="42.87963" lon="-0.18571">
        <ele>2324.4</ele>
        <time>2026-07-15T11:38:00Z</time>
      </trkpt>
      <trkpt lat="42.87964" lon="-0.18571">
        <ele>2325.4</ele>
        <time>2026-07-15T11:38:01Z</time>
      </trkpt>
      <trkpt lat="42.87964" lon="-0.18571">
        <ele>2325.4</ele>
        <time>2026-07-15T11:38:02Z</time>
      </trkpt>
      <trkpt lat="42.87963" lon="-0.18571">
        <ele>2325.4</ele>
        <time>2026-07-15T11:38:03Z</time>
      </trkpt>
      <trkpt lat="42.87963" lon="-0.18569">
        <ele>2326.4</ele>
        <time>2026-07-15T11:38:04Z</time>
      </trkpt>
      <trkpt lat="42.87963" lon="-0.18569">
        <ele>2326.4</ele>
        <time>2026-07-15T11:38:05Z</time>
      </trkpt>
      <trkpt lat="42.87963" lon="-0.18569">
        <ele>2326.4</ele>
        <time>2026-07-15T11:38:06Z</time>
      </trkpt>
      <trkpt lat="42.87963" lon="-0.18569">
        <ele>2326.4</ele>
        <time>2026-07-15T11:38:07Z</time>
      </trkpt>
      <trkpt lat="42.87963" lon="-0.18569">
        <ele>2326.4</ele>
        <time>2026-07-15T11:38:08Z</time>
      </trkpt>
      <trkpt lat="42.87963" lon="-0.18568">
        <ele>2326.4</ele>
        <time>2026-07-15T11:38:09Z</time>
      </trkpt>
      <trkpt lat="42.87963" lon="-0.18567">
        <ele>2325.4</ele>
        <time>2026-07-15T11:38:10Z</time>
      </trkpt>
      <trkpt lat="42.87963" lon="-0.18566">
        <ele>2325.4</ele>
        <time>2026-07-15T11:38:11Z</time>
      </trkpt>
      <trkpt lat="42.87963" lon="-0.18566">
        <ele>2325.4</ele>
        <time>2026-07-15T11:38:12Z</time>
      </trkpt>
      <trkpt lat="42.87963" lon="-0.18566">
        <ele>2325.4</ele>
        <time>2026-07-15T11:38:13Z</time>
      </trkpt>
      <trkpt lat="42.87963" lon="-0.18566">
        <ele>2325.4</ele>
        <time>2026-07-15T11:38:14Z</time>
      </trkpt>
      <trkpt lat="42.87963" lon="-0.18567">
        <ele>2325.4</ele>
        <time>2026-07-15T11:38:15Z</time>
      </trkpt>
      <trkpt lat="42.87963" lon="-0.18567">
        <ele>2325.4</ele>
        <time>2026-07-15T11:38:16Z</time>
      </trkpt>
      <trkpt lat="42.87963" lon="-0.18567">
        <ele>2325.4</ele>
        <time>2026-07-15T11:38:17Z</time>
      </trkpt>
      <trkpt lat="42.87963" lon="-0.18568">
        <ele>2325.4</ele>
        <time>2026-07-15T11:38:18Z</time>
      </trkpt>
      <trkpt lat="42.87964" lon="-0.18568">
        <ele>2325.4</ele>
        <time>2026-07-15T11:38:19Z</time>
      </trkpt>
      <trkpt lat="42.87965" lon="-0.18568">
        <ele>2325.4</ele>
        <time>2026-07-15T11:38:20Z</time>
      </trkpt>
      <trkpt lat="42.87965" lon="-0.18568">
        <ele>2326.4</ele>
        <time>2026-07-15T11:38:21Z</time>
      </trkpt>
      <trkpt lat="42.87965" lon="-0.18568">
        <ele>2326.4</ele>
        <time>2026-07-15T11:38:22Z</time>
      </trkpt>
      <trkpt lat="42.87966" lon="-0.18568">
        <ele>2327.4</ele>
        <time>2026-07-15T11:38:23Z</time>
      </trkpt>
      <trkpt lat="42.87966" lon="-0.18568">
        <ele>2327.4</ele>
        <time>2026-07-15T11:38:24Z</time>
      </trkpt>
      <trkpt lat="42.87967" lon="-0.18567">
        <ele>2326.4</ele>
        <time>2026-07-15T11:38:25Z</time>
      </trkpt>
      <trkpt lat="42.87968" lon="-0.18568">
        <ele>2327.4</ele>
        <time>2026-07-15T11:38:26Z</time>
      </trkpt>
      <trkpt lat="42.87968" lon="-0.18568">
        <ele>2328.4</ele>
        <time>2026-07-15T11:38:27Z</time>
      </trkpt>
      <trkpt lat="42.87968" lon="-0.18569">
        <ele>2329.4</ele>
        <time>2026-07-15T11:38:28Z</time>
      </trkpt>
      <trkpt lat="42.87968" lon="-0.1857">
        <ele>2328.4</ele>
        <time>2026-07-15T11:38:29Z</time>
      </trkpt>
      <trkpt lat="42.87967" lon="-0.18571">
        <ele>2329.4</ele>
        <time>2026-07-15T11:38:30Z</time>
      </trkpt>
      <trkpt lat="42.87967" lon="-0.18572">
        <ele>2329.4</ele>
        <time>2026-07-15T11:38:31Z</time>
      </trkpt>
      <trkpt lat="42.87967" lon="-0.18571">
        <ele>2330.4</ele>
        <time>2026-07-15T11:38:32Z</time>
      </trkpt>
      <trkpt lat="42.87967" lon="-0.18572">
        <ele>2330.4</ele>
        <time>2026-07-15T11:38:33Z</time>
      </trkpt>
      <trkpt lat="42.87966" lon="-0.18573">
        <ele>2331.4</ele>
        <time>2026-07-15T11:38:34Z</time>
      </trkpt>
      <trkpt lat="42.87966" lon="-0.18573">
        <ele>2331.4</ele>
        <time>2026-07-15T11:38:35Z</time>
      </trkpt>
      <trkpt lat="42.87965" lon="-0.18574">
        <ele>2331.4</ele>
        <time>2026-07-15T11:38:36Z</time>
      </trkpt>
      <trkpt lat="42.87965" lon="-0.18575">
        <ele>2331.4</ele>
        <time>2026-07-15T11:38:37Z</time>
      </trkpt>
      <trkpt lat="42.87965" lon="-0.18575">
        <ele>2331.4</ele>
        <time>2026-07-15T11:38:38Z</time>
      </trkpt>
      <trkpt lat="42.87965" lon="-0.18575">
        <ele>2331.4</ele>
        <time>2026-07-15T11:38:39Z</time>
      </trkpt>
      <trkpt lat="42.87965" lon="-0.18576">
        <ele>2330.4</ele>
        <time>2026-07-15T11:38:40Z</time>
      </trkpt>
      <trkpt lat="42.87965" lon="-0.18577">
        <ele>2330.4</ele>
        <time>2026-07-15T11:38:41Z</time>
      </trkpt>
      <trkpt lat="42.87965" lon="-0.18578">
        <ele>2330.4</ele>
        <time>2026-07-15T11:38:42Z</time>
      </trkpt>
      <trkpt lat="42.87965" lon="-0.1858">
        <ele>2331.4</ele>
        <time>2026-07-15T11:38:43Z</time>
      </trkpt>
      <trkpt lat="42.87965" lon="-0.18581">
        <ele>2330.4</ele>
        <time>2026-07-15T11:38:44Z</time>
      </trkpt>
      <trkpt lat="42.87965" lon="-0.18582">
        <ele>2331.4</ele>
        <time>2026-07-15T11:38:45Z</time>
      </trkpt>
      <trkpt lat="42.87965" lon="-0.18583">
        <ele>2331.4</ele>
        <time>2026-07-15T11:38:46Z</time>
      </trkpt>
      <trkpt lat="42.87966" lon="-0.18584">
        <ele>2333.4</ele>
        <time>2026-07-15T11:38:47Z</time>
      </trkpt>
      <trkpt lat="42.87966" lon="-0.18585">
        <ele>2332.4</ele>
        <time>2026-07-15T11:38:48Z</time>
      </trkpt>
      <trkpt lat="42.87966" lon="-0.18586">
        <ele>2333.4</ele>
        <time>2026-07-15T11:38:49Z</time>
      </trkpt>
      <trkpt lat="42.87965" lon="-0.18586">
        <ele>2333.4</ele>
        <time>2026-07-15T11:38:50Z</time>
      </trkpt>
      <trkpt lat="42.87965" lon="-0.18586">
        <ele>2334.4</ele>
        <time>2026-07-15T11:38:51Z</time>
      </trkpt>
      <trkpt lat="42.87965" lon="-0.18587">
        <ele>2334.4</ele>
        <time>2026-07-15T11:38:52Z</time>
      </trkpt>
      <trkpt lat="42.87965" lon="-0.18586">
        <ele>2336.4</ele>
        <time>2026-07-15T11:38:53Z</time>
      </trkpt>
      <trkpt lat="42.87965" lon="-0.18587">
        <ele>2336.4</ele>
        <time>2026-07-15T11:38:54Z</time>
      </trkpt>
      <trkpt lat="42.87966" lon="-0.18588">
        <ele>2337.4</ele>
        <time>2026-07-15T11:38:55Z</time>
      </trkpt>
      <trkpt lat="42.87966" lon="-0.18588">
        <ele>2337.4</ele>
        <time>2026-07-15T11:38:56Z</time>
      </trkpt>
      <trkpt lat="42.87967" lon="-0.18588">
        <ele>2337.4</ele>
        <time>2026-07-15T11:38:57Z</time>
      </trkpt>
      <trkpt lat="42.87967" lon="-0.18588">
        <ele>2336.4</ele>
        <time>2026-07-15T11:38:58Z</time>
      </trkpt>
      <trkpt lat="42.87967" lon="-0.18587">
        <ele>2337.4</ele>
        <time>2026-07-15T11:38:59Z</time>
      </trkpt>
      <trkpt lat="42.87967" lon="-0.18587">
        <ele>2336.4</ele>
        <time>2026-07-15T11:39:00Z</time>
      </trkpt>
      <trkpt lat="42.87968" lon="-0.18587">
        <ele>2336.4</ele>
        <time>2026-07-15T11:39:01Z</time>
      </trkpt>
      <trkpt lat="42.87968" lon="-0.18587">
        <ele>2335.4</ele>
        <time>2026-07-15T11:39:02Z</time>
      </trkpt>
      <trkpt lat="42.87969" lon="-0.18586">
        <ele>2335.4</ele>
        <time>2026-07-15T11:39:03Z</time>
      </trkpt>
      <trkpt lat="42.8797" lon="-0.18586">
        <ele>2336.4</ele>
        <time>2026-07-15T11:39:04Z</time>
      </trkpt>
      <trkpt lat="42.8797" lon="-0.18586">
        <ele>2336.4</ele>
        <time>2026-07-15T11:39:05Z</time>
      </trkpt>
      <trkpt lat="42.87971" lon="-0.18586">
        <ele>2337.4</ele>
        <time>2026-07-15T11:39:06Z</time>
      </trkpt>
      <trkpt lat="42.87972" lon="-0.18586">
        <ele>2337.4</ele>
        <time>2026-07-15T11:39:07Z</time>
      </trkpt>
      <trkpt lat="42.87972" lon="-0.18586">
        <ele>2336.4</ele>
        <time>2026-07-15T11:39:08Z</time>
      </trkpt>
      <trkpt lat="42.87973" lon="-0.18585">
        <ele>2336.4</ele>
        <time>2026-07-15T11:39:09Z</time>
      </trkpt>
      <trkpt lat="42.87973" lon="-0.18585">
        <ele>2336.4</ele>
        <time>2026-07-15T11:39:10Z</time>
      </trkpt>
      <trkpt lat="42.87974" lon="-0.18585">
        <ele>2336.4</ele>
        <time>2026-07-15T11:39:11Z</time>
      </trkpt>
      <trkpt lat="42.87975" lon="-0.18585">
        <ele>2336.4</ele>
        <time>2026-07-15T11:39:12Z</time>
      </trkpt>
      <trkpt lat="42.87975" lon="-0.18585">
        <ele>2336.4</ele>
        <time>2026-07-15T11:39:13Z</time>
      </trkpt>
      <trkpt lat="42.87975" lon="-0.18585">
        <ele>2336.4</ele>
        <time>2026-07-15T11:39:14Z</time>
      </trkpt>
      <trkpt lat="42.87975" lon="-0.18585">
        <ele>2336.4</ele>
        <time>2026-07-15T11:39:15Z</time>
      </trkpt>
      <trkpt lat="42.87975" lon="-0.18585">
        <ele>2336.4</ele>
        <time>2026-07-15T11:39:16Z</time>
      </trkpt>
      <trkpt lat="42.87975" lon="-0.18585">
        <ele>2336.4</ele>
        <time>2026-07-15T11:39:17Z</time>
      </trkpt>
      <trkpt lat="42.87975" lon="-0.18585">
        <ele>2336.4</ele>
        <time>2026-07-15T11:39:18Z</time>
      </trkpt>
      <trkpt lat="42.87975" lon="-0.18585">
        <ele>2336.4</ele>
        <time>2026-07-15T11:39:19Z</time>
      </trkpt>
      <trkpt lat="42.87976" lon="-0.18584">
        <ele>2336.4</ele>
        <time>2026-07-15T11:39:20Z</time>
      </trkpt>
      <trkpt lat="42.87976" lon="-0.18585">
        <ele>2335.4</ele>
        <time>2026-07-15T11:39:21Z</time>
      </trkpt>
      <trkpt lat="42.87977" lon="-0.18585">
        <ele>2336.4</ele>
        <time>2026-07-15T11:39:22Z</time>
      </trkpt>
      <trkpt lat="42.87977" lon="-0.18585">
        <ele>2337.4</ele>
        <time>2026-07-15T11:39:23Z</time>
      </trkpt>
      <trkpt lat="42.87977" lon="-0.18585">
        <ele>2337.4</ele>
        <time>2026-07-15T11:39:24Z</time>
      </trkpt>
      <trkpt lat="42.87977" lon="-0.18585">
        <ele>2337.4</ele>
        <time>2026-07-15T11:39:25Z</time>
      </trkpt>
      <trkpt lat="42.87977" lon="-0.18585">
        <ele>2337.4</ele>
        <time>2026-07-15T11:39:26Z</time>
      </trkpt>
      <trkpt lat="42.87977" lon="-0.18585">
        <ele>2337.4</ele>
        <time>2026-07-15T11:39:27Z</time>
      </trkpt>
      <trkpt lat="42.87978" lon="-0.18586">
        <ele>2337.4</ele>
        <time>2026-07-15T11:39:28Z</time>
      </trkpt>
      <trkpt lat="42.87978" lon="-0.18586">
        <ele>2336.4</ele>
        <time>2026-07-15T11:39:29Z</time>
      </trkpt>
      <trkpt lat="42.87978" lon="-0.18586">
        <ele>2336.4</ele>
        <time>2026-07-15T11:39:30Z</time>
      </trkpt>
      <trkpt lat="42.87978" lon="-0.18586">
        <ele>2336.4</ele>
        <time>2026-07-15T11:39:31Z</time>
      </trkpt>
      <trkpt lat="42.87978" lon="-0.18586">
        <ele>2336.4</ele>
        <time>2026-07-15T11:39:32Z</time>
      </trkpt>
      <trkpt lat="42.87978" lon="-0.18586">
        <ele>2336.4</ele>
        <time>2026-07-15T11:39:33Z</time>
      </trkpt>
      <trkpt lat="42.87978" lon="-0.18586">
        <ele>2336.4</ele>
        <time>2026-07-15T11:39:34Z</time>
      </trkpt>
      <trkpt lat="42.87978" lon="-0.18586">
        <ele>2336.4</ele>
        <time>2026-07-15T11:39:35Z</time>
      </trkpt>
      <trkpt lat="42.87978" lon="-0.18586">
        <ele>2336.4</ele>
        <time>2026-07-15T11:39:36Z</time>
      </trkpt>
      <trkpt lat="42.87978" lon="-0.18586">
        <ele>2336.4</ele>
        <time>2026-07-15T11:39:37Z</time>
      </trkpt>
      <trkpt lat="42.87978" lon="-0.18586">
        <ele>2336.4</ele>
        <time>2026-07-15T11:39:38Z</time>
      </trkpt>
      <trkpt lat="42.87978" lon="-0.18586">
        <ele>2336.4</ele>
        <time>2026-07-15T11:39:39Z</time>
      </trkpt>
      <trkpt lat="42.87978" lon="-0.18586">
        <ele>2336.4</ele>
        <time>2026-07-15T11:39:40Z</time>
      </trkpt>
      <trkpt lat="42.87978" lon="-0.18586">
        <ele>2336.4</ele>
        <time>2026-07-15T11:39:41Z</time>
      </trkpt>
      <trkpt lat="42.87978" lon="-0.18586">
        <ele>2336.4</ele>
        <time>2026-07-15T11:39:42Z</time>
      </trkpt>
      <trkpt lat="42.87978" lon="-0.18586">
        <ele>2336.4</ele>
        <time>2026-07-15T11:39:43Z</time>
      </trkpt>
      <trkpt lat="42.87978" lon="-0.18586">
        <ele>2336.4</ele>
        <time>2026-07-15T11:39:44Z</time>
      </trkpt>
      <trkpt lat="42.87978" lon="-0.18586">
        <ele>2336.4</ele>
        <time>2026-07-15T11:39:45Z</time>
      </trkpt>
      <trkpt lat="42.87978" lon="-0.18586">
        <ele>2336.4</ele>
        <time>2026-07-15T11:39:46Z</time>
      </trkpt>
      <trkpt lat="42.87979" lon="-0.18586">
        <ele>2336.4</ele>
        <time>2026-07-15T11:39:47Z</time>
      </trkpt>
      <trkpt lat="42.87979" lon="-0.18586">
        <ele>2336.4</ele>
        <time>2026-07-15T11:39:48Z</time>
      </trkpt>
      <trkpt lat="42.87979" lon="-0.18586">
        <ele>2336.4</ele>
        <time>2026-07-15T11:39:49Z</time>
      </trkpt>
      <trkpt lat="42.87979" lon="-0.18587">
        <ele>2337.4</ele>
        <time>2026-07-15T11:39:50Z</time>
      </trkpt>
      <trkpt lat="42.87979" lon="-0.18587">
        <ele>2337.4</ele>
        <time>2026-07-15T11:39:51Z</time>
      </trkpt>
      <trkpt lat="42.87979" lon="-0.18588">
        <ele>2337.4</ele>
        <time>2026-07-15T11:39:52Z</time>
      </trkpt>
      <trkpt lat="42.8798" lon="-0.18589">
        <ele>2337.4</ele>
        <time>2026-07-15T11:39:53Z</time>
      </trkpt>
      <trkpt lat="42.8798" lon="-0.1859">
        <ele>2337.4</ele>
        <time>2026-07-15T11:39:54Z</time>
      </trkpt>
      <trkpt lat="42.8798" lon="-0.18591">
        <ele>2338.4</ele>
        <time>2026-07-15T11:39:55Z</time>
      </trkpt>
      <trkpt lat="42.8798" lon="-0.18592">
        <ele>2339.4</ele>
        <time>2026-07-15T11:39:56Z</time>
      </trkpt>
      <trkpt lat="42.8798" lon="-0.18593">
        <ele>2339.4</ele>
        <time>2026-07-15T11:39:57Z</time>
      </trkpt>
      <trkpt lat="42.8798" lon="-0.18593">
        <ele>2339.4</ele>
        <time>2026-07-15T11:39:58Z</time>
      </trkpt>
      <trkpt lat="42.87979" lon="-0.18594">
        <ele>2338.4</ele>
        <time>2026-07-15T11:39:59Z</time>
      </trkpt>
      <trkpt lat="42.8798" lon="-0.18594">
        <ele>2338.4</ele>
        <time>2026-07-15T11:40:00Z</time>
      </trkpt>
      <trkpt lat="42.8798" lon="-0.18595">
        <ele>2339.4</ele>
        <time>2026-07-15T11:40:01Z</time>
      </trkpt>
      <trkpt lat="42.87981" lon="-0.18596">
        <ele>2339.4</ele>
        <time>2026-07-15T11:40:02Z</time>
      </trkpt>
      <trkpt lat="42.87981" lon="-0.18597">
        <ele>2339.4</ele>
        <time>2026-07-15T11:40:03Z</time>
      </trkpt>
      <trkpt lat="42.87981" lon="-0.18599">
        <ele>2339.4</ele>
        <time>2026-07-15T11:40:04Z</time>
      </trkpt>
      <trkpt lat="42.87981" lon="-0.18599">
        <ele>2339.4</ele>
        <time>2026-07-15T11:40:05Z</time>
      </trkpt>
      <trkpt lat="42.87982" lon="-0.186">
        <ele>2339.4</ele>
        <time>2026-07-15T11:40:06Z</time>
      </trkpt>
      <trkpt lat="42.87982" lon="-0.18599">
        <ele>2338.4</ele>
        <time>2026-07-15T11:40:07Z</time>
      </trkpt>
      <trkpt lat="42.87982" lon="-0.186">
        <ele>2338.4</ele>
        <time>2026-07-15T11:40:08Z</time>
      </trkpt>
      <trkpt lat="42.87983" lon="-0.186">
        <ele>2338.4</ele>
        <time>2026-07-15T11:40:09Z</time>
      </trkpt>
      <trkpt lat="42.87984" lon="-0.186">
        <ele>2339.4</ele>
        <time>2026-07-15T11:40:10Z</time>
      </trkpt>
      <trkpt lat="42.87984" lon="-0.186">
        <ele>2339.4</ele>
        <time>2026-07-15T11:40:11Z</time>
      </trkpt>
      <trkpt lat="42.87985" lon="-0.18601">
        <ele>2339.4</ele>
        <time>2026-07-15T11:40:12Z</time>
      </trkpt>
      <trkpt lat="42.87986" lon="-0.18601">
        <ele>2340.4</ele>
        <time>2026-07-15T11:40:13Z</time>
      </trkpt>
      <trkpt lat="42.87987" lon="-0.18602">
        <ele>2339.4</ele>
        <time>2026-07-15T11:40:14Z</time>
      </trkpt>
      <trkpt lat="42.87987" lon="-0.18602">
        <ele>2339.4</ele>
        <time>2026-07-15T11:40:15Z</time>
      </trkpt>
      <trkpt lat="42.87987" lon="-0.18602">
        <ele>2339.4</ele>
        <time>2026-07-15T11:40:16Z</time>
      </trkpt>
      <trkpt lat="42.87987" lon="-0.18602">
        <ele>2339.4</ele>
        <time>2026-07-15T11:40:17Z</time>
      </trkpt>
      <trkpt lat="42.87987" lon="-0.18602">
        <ele>2339.4</ele>
        <time>2026-07-15T11:40:18Z</time>
      </trkpt>
      <trkpt lat="42.87987" lon="-0.18603">
        <ele>2339.4</ele>
        <time>2026-07-15T11:40:19Z</time>
      </trkpt>
      <trkpt lat="42.87987" lon="-0.18603">
        <ele>2340.4</ele>
        <time>2026-07-15T11:40:20Z</time>
      </trkpt>
      <trkpt lat="42.87987" lon="-0.18604">
        <ele>2341.4</ele>
        <time>2026-07-15T11:40:21Z</time>
      </trkpt>
      <trkpt lat="42.87987" lon="-0.18604">
        <ele>2341.4</ele>
        <time>2026-07-15T11:40:22Z</time>
      </trkpt>
      <trkpt lat="42.87987" lon="-0.18605">
        <ele>2341.4</ele>
        <time>2026-07-15T11:40:23Z</time>
      </trkpt>
      <trkpt lat="42.87986" lon="-0.18605">
        <ele>2340.4</ele>
        <time>2026-07-15T11:40:24Z</time>
      </trkpt>
      <trkpt lat="42.87986" lon="-0.18605">
        <ele>2340.4</ele>
        <time>2026-07-15T11:40:25Z</time>
      </trkpt>
      <trkpt lat="42.87986" lon="-0.18605">
        <ele>2340.4</ele>
        <time>2026-07-15T11:40:26Z</time>
      </trkpt>
      <trkpt lat="42.87986" lon="-0.18605">
        <ele>2340.4</ele>
        <time>2026-07-15T11:40:27Z</time>
      </trkpt>
      <trkpt lat="42.87986" lon="-0.18605">
        <ele>2340.4</ele>
        <time>2026-07-15T11:40:28Z</time>
      </trkpt>
      <trkpt lat="42.87986" lon="-0.18605">
        <ele>2340.4</ele>
        <time>2026-07-15T11:40:29Z</time>
      </trkpt>
      <trkpt lat="42.87986" lon="-0.18605">
        <ele>2340.4</ele>
        <time>2026-07-15T11:40:30Z</time>
      </trkpt>
      <trkpt lat="42.87986" lon="-0.18605">
        <ele>2340.4</ele>
        <time>2026-07-15T11:40:31Z</time>
      </trkpt>
      <trkpt lat="42.87986" lon="-0.18605">
        <ele>2340.4</ele>
        <time>2026-07-15T11:40:32Z</time>
      </trkpt>
      <trkpt lat="42.87986" lon="-0.18605">
        <ele>2340.4</ele>
        <time>2026-07-15T11:40:33Z</time>
      </trkpt>
      <trkpt lat="42.87986" lon="-0.18605">
        <ele>2340.4</ele>
        <time>2026-07-15T11:40:34Z</time>
      </trkpt>
      <trkpt lat="42.87986" lon="-0.18605">
        <ele>2340.4</ele>
        <time>2026-07-15T11:40:35Z</time>
      </trkpt>
      <trkpt lat="42.87986" lon="-0.18606">
        <ele>2340.4</ele>
        <time>2026-07-15T11:40:36Z</time>
      </trkpt>
      <trkpt lat="42.87985" lon="-0.18607">
        <ele>2340.4</ele>
        <time>2026-07-15T11:40:37Z</time>
      </trkpt>
      <trkpt lat="42.87985" lon="-0.18607">
        <ele>2339.4</ele>
        <time>2026-07-15T11:40:38Z</time>
      </trkpt>
      <trkpt lat="42.87984" lon="-0.18608">
        <ele>2339.4</ele>
        <time>2026-07-15T11:40:39Z</time>
      </trkpt>
      <trkpt lat="42.87983" lon="-0.18609">
        <ele>2339.4</ele>
        <time>2026-07-15T11:40:40Z</time>
      </trkpt>
      <trkpt lat="42.87982" lon="-0.1861">
        <ele>2339.4</ele>
        <time>2026-07-15T11:40:41Z</time>
      </trkpt>
      <trkpt lat="42.87981" lon="-0.18611">
        <ele>2339.4</ele>
        <time>2026-07-15T11:40:42Z</time>
      </trkpt>
      <trkpt lat="42.8798" lon="-0.18611">
        <ele>2339.4</ele>
        <time>2026-07-15T11:40:43Z</time>
      </trkpt>
      <trkpt lat="42.8798" lon="-0.18611">
        <ele>2340.4</ele>
        <time>2026-07-15T11:40:44Z</time>
      </trkpt>
      <trkpt lat="42.87979" lon="-0.18612">
        <ele>2340.4</ele>
        <time>2026-07-15T11:40:45Z</time>
      </trkpt>
      <trkpt lat="42.87978" lon="-0.18613">
        <ele>2340.4</ele>
        <time>2026-07-15T11:40:46Z</time>
      </trkpt>
      <trkpt lat="42.87977" lon="-0.18613">
        <ele>2340.4</ele>
        <time>2026-07-15T11:40:47Z</time>
      </trkpt>
      <trkpt lat="42.87976" lon="-0.18614">
        <ele>2340.4</ele>
        <time>2026-07-15T11:40:48Z</time>
      </trkpt>
      <trkpt lat="42.87975" lon="-0.18614">
        <ele>2340.4</ele>
        <time>2026-07-15T11:40:49Z</time>
      </trkpt>
      <trkpt lat="42.87974" lon="-0.18613">
        <ele>2341.4</ele>
        <time>2026-07-15T11:40:49Z</time>
      </trkpt>
      <trkpt lat="42.87974" lon="-0.18613">
        <ele>2341.4</ele>
        <time>2026-07-15T11:40:50Z</time>
      </trkpt>
      <trkpt lat="42.87974" lon="-0.18612">
        <ele>2341.4</ele>
        <time>2026-07-15T11:40:51Z</time>
      </trkpt>
      <trkpt lat="42.87973" lon="-0.18612">
        <ele>2341.4</ele>
        <time>2026-07-15T11:40:52Z</time>
      </trkpt>
      <trkpt lat="42.87973" lon="-0.18612">
        <ele>2342.4</ele>
        <time>2026-07-15T11:40:52Z</time>
      </trkpt>
      <trkpt lat="42.87972" lon="-0.18612">
        <ele>2343.4</ele>
        <time>2026-07-15T11:40:53Z</time>
      </trkpt>
      <trkpt lat="42.87971" lon="-0.18612">
        <ele>2343.4</ele>
        <time>2026-07-15T11:40:54Z</time>
      </trkpt>
      <trkpt lat="42.87971" lon="-0.18613">
        <ele>2343.4</ele>
        <time>2026-07-15T11:40:54Z</time>
      </trkpt>
      <trkpt lat="42.87971" lon="-0.18613">
        <ele>2343.4</ele>
        <time>2026-07-15T11:40:55Z</time>
      </trkpt>
      <trkpt lat="42.8797" lon="-0.18613">
        <ele>2343.4</ele>
        <time>2026-07-15T11:40:56Z</time>
      </trkpt>
      <trkpt lat="42.87969" lon="-0.18614">
        <ele>2343.4</ele>
        <time>2026-07-15T11:40:57Z</time>
      </trkpt>
      <trkpt lat="42.87969" lon="-0.18614">
        <ele>2343.4</ele>
        <time>2026-07-15T11:40:57Z</time>
      </trkpt>
      <trkpt lat="42.87968" lon="-0.18614">
        <ele>2343.4</ele>
        <time>2026-07-15T11:40:58Z</time>
      </trkpt>
      <trkpt lat="42.87968" lon="-0.18615">
        <ele>2342.4</ele>
        <time>2026-07-15T11:40:59Z</time>
      </trkpt>
      <trkpt lat="42.87968" lon="-0.18615">
        <ele>2343.4</ele>
        <time>2026-07-15T11:40:59Z</time>
      </trkpt>
      <trkpt lat="42.87967" lon="-0.18615">
        <ele>2343.4</ele>
        <time>2026-07-15T11:41:00Z</time>
      </trkpt>
      <trkpt lat="42.87967" lon="-0.18615">
        <ele>2343.4</ele>
        <time>2026-07-15T11:41:01Z</time>
      </trkpt>
      <trkpt lat="42.87966" lon="-0.18614">
        <ele>2343.4</ele>
        <time>2026-07-15T11:41:02Z</time>
      </trkpt>
      <trkpt lat="42.87966" lon="-0.18614">
        <ele>2343.4</ele>
        <time>2026-07-15T11:41:03Z</time>
      </trkpt>
      <trkpt lat="42.87965" lon="-0.18614">
        <ele>2342.4</ele>
        <time>2026-07-15T11:41:03Z</time>
      </trkpt>
      <trkpt lat="42.87965" lon="-0.18614">
        <ele>2342.4</ele>
        <time>2026-07-15T11:41:04Z</time>
      </trkpt>
      <trkpt lat="42.87964" lon="-0.18614">
        <ele>2343.4</ele>
        <time>2026-07-15T11:41:05Z</time>
      </trkpt>
      <trkpt lat="42.87964" lon="-0.18614">
        <ele>2342.4</ele>
        <time>2026-07-15T11:41:06Z</time>
      </trkpt>
      <trkpt lat="42.87963" lon="-0.18614">
        <ele>2343.4</ele>
        <time>2026-07-15T11:41:06Z</time>
      </trkpt>
      <trkpt lat="42.87963" lon="-0.18614">
        <ele>2342.4</ele>
        <time>2026-07-15T11:41:07Z</time>
      </trkpt>
      <trkpt lat="42.87962" lon="-0.18615">
        <ele>2342.4</ele>
        <time>2026-07-15T11:41:08Z</time>
      </trkpt>
      <trkpt lat="42.87962" lon="-0.18615">
        <ele>2342.4</ele>
        <time>2026-07-15T11:41:08Z</time>
      </trkpt>
      <trkpt lat="42.87962" lon="-0.18615">
        <ele>2341.4</ele>
        <time>2026-07-15T11:41:09Z</time>
      </trkpt>
      <trkpt lat="42.87961" lon="-0.18615">
        <ele>2341.4</ele>
        <time>2026-07-15T11:41:10Z</time>
      </trkpt>
      <trkpt lat="42.8796" lon="-0.18615">
        <ele>2341.4</ele>
        <time>2026-07-15T11:41:11Z</time>
      </trkpt>
      <trkpt lat="42.8796" lon="-0.18615">
        <ele>2342.4</ele>
        <time>2026-07-15T11:41:12Z</time>
      </trkpt>
      <trkpt lat="42.8796" lon="-0.18615">
        <ele>2342.4</ele>
        <time>2026-07-15T11:41:12Z</time>
      </trkpt>
      <trkpt lat="42.87959" lon="-0.18615">
        <ele>2342.4</ele>
        <time>2026-07-15T11:41:13Z</time>
      </trkpt>
      <trkpt lat="42.87959" lon="-0.18616">
        <ele>2341.4</ele>
        <time>2026-07-15T11:41:14Z</time>
      </trkpt>
      <trkpt lat="42.87959" lon="-0.18616">
        <ele>2341.4</ele>
        <time>2026-07-15T11:41:14Z</time>
      </trkpt>
      <trkpt lat="42.87958" lon="-0.18617">
        <ele>2341.4</ele>
        <time>2026-07-15T11:41:15Z</time>
      </trkpt>
      <trkpt lat="42.87958" lon="-0.18617">
        <ele>2341.4</ele>
        <time>2026-07-15T11:41:16Z</time>
      </trkpt>
      <trkpt lat="42.87958" lon="-0.18618">
        <ele>2341.4</ele>
        <time>2026-07-15T11:41:16Z</time>
      </trkpt>
      <trkpt lat="42.87958" lon="-0.18618">
        <ele>2341.4</ele>
        <time>2026-07-15T11:41:17Z</time>
      </trkpt>
      <trkpt lat="42.87958" lon="-0.18619">
        <ele>2342.4</ele>
        <time>2026-07-15T11:41:18Z</time>
      </trkpt>
      <trkpt lat="42.87958" lon="-0.1862">
        <ele>2342.4</ele>
        <time>2026-07-15T11:41:19Z</time>
      </trkpt>
      <trkpt lat="42.87958" lon="-0.18621">
        <ele>2341.4</ele>
        <time>2026-07-15T11:41:20Z</time>
      </trkpt>
      <trkpt lat="42.87958" lon="-0.1862">
        <ele>2342.4</ele>
        <time>2026-07-15T11:41:21Z</time>
      </trkpt>
      <trkpt lat="42.87958" lon="-0.1862">
        <ele>2342.4</ele>
        <time>2026-07-15T11:41:22Z</time>
      </trkpt>
      <trkpt lat="42.87958" lon="-0.18619">
        <ele>2342.4</ele>
        <time>2026-07-15T11:41:23Z</time>
      </trkpt>
      <trkpt lat="42.87958" lon="-0.18619">
        <ele>2342.4</ele>
        <time>2026-07-15T11:41:24Z</time>
      </trkpt>
      <trkpt lat="42.87958" lon="-0.18619">
        <ele>2342.4</ele>
        <time>2026-07-15T11:41:25Z</time>
      </trkpt>
      <trkpt lat="42.87958" lon="-0.18619">
        <ele>2342.4</ele>
        <time>2026-07-15T11:41:26Z</time>
      </trkpt>
      <trkpt lat="42.87958" lon="-0.18619">
        <ele>2342.4</ele>
        <time>2026-07-15T11:41:27Z</time>
      </trkpt>
      <trkpt lat="42.87958" lon="-0.18619">
        <ele>2342.4</ele>
        <time>2026-07-15T11:41:28Z</time>
      </trkpt>
      <trkpt lat="42.87958" lon="-0.18619">
        <ele>2342.4</ele>
        <time>2026-07-15T11:41:29Z</time>
      </trkpt>
      <trkpt lat="42.87958" lon="-0.18619">
        <ele>2342.4</ele>
        <time>2026-07-15T11:41:30Z</time>
      </trkpt>
      <trkpt lat="42.87958" lon="-0.18619">
        <ele>2342.4</ele>
        <time>2026-07-15T11:41:30Z</time>
      </trkpt>
      <trkpt lat="42.87958" lon="-0.18619">
        <ele>2343.4</ele>
        <time>2026-07-15T11:41:31Z</time>
      </trkpt>
      <trkpt lat="42.87959" lon="-0.18619">
        <ele>2343.4</ele>
        <time>2026-07-15T11:41:32Z</time>
      </trkpt>
      <trkpt lat="42.87959" lon="-0.18619">
        <ele>2344.4</ele>
        <time>2026-07-15T11:41:33Z</time>
      </trkpt>
      <trkpt lat="42.87959" lon="-0.18619">
        <ele>2344.4</ele>
        <time>2026-07-15T11:41:34Z</time>
      </trkpt>
      <trkpt lat="42.87959" lon="-0.18619">
        <ele>2344.4</ele>
        <time>2026-07-15T11:41:35Z</time>
      </trkpt>
      <trkpt lat="42.87959" lon="-0.18619">
        <ele>2343.4</ele>
        <time>2026-07-15T11:41:36Z</time>
      </trkpt>
      <trkpt lat="42.87959" lon="-0.18619">
        <ele>2343.4</ele>
        <time>2026-07-15T11:41:37Z</time>
      </trkpt>
      <trkpt lat="42.87959" lon="-0.18619">
        <ele>2343.4</ele>
        <time>2026-07-15T11:41:38Z</time>
      </trkpt>
      <trkpt lat="42.87959" lon="-0.18619">
        <ele>2341.4</ele>
        <time>2026-07-15T11:41:39Z</time>
      </trkpt>
      <trkpt lat="42.87959" lon="-0.18619">
        <ele>2341.4</ele>
        <time>2026-07-15T11:41:40Z</time>
      </trkpt>
      <trkpt lat="42.87959" lon="-0.18618">
        <ele>2341.4</ele>
        <time>2026-07-15T11:41:40Z</time>
      </trkpt>
      <trkpt lat="42.87959" lon="-0.18618">
        <ele>2341.4</ele>
        <time>2026-07-15T11:41:41Z</time>
      </trkpt>
      <trkpt lat="42.87959" lon="-0.18618">
        <ele>2341.4</ele>
        <time>2026-07-15T11:41:42Z</time>
      </trkpt>
      <trkpt lat="42.87959" lon="-0.18618">
        <ele>2341.4</ele>
        <time>2026-07-15T11:41:43Z</time>
      </trkpt>
      <trkpt lat="42.87959" lon="-0.18618">
        <ele>2342.4</ele>
        <time>2026-07-15T11:41:44Z</time>
      </trkpt>
      <trkpt lat="42.87959" lon="-0.18618">
        <ele>2342.4</ele>
        <time>2026-07-15T11:41:45Z</time>
      </trkpt>
      <trkpt lat="42.87959" lon="-0.18618">
        <ele>2343.4</ele>
        <time>2026-07-15T11:41:46Z</time>
      </trkpt>
      <trkpt lat="42.87959" lon="-0.18618">
        <ele>2343.4</ele>
        <time>2026-07-15T11:41:47Z</time>
      </trkpt>
      <trkpt lat="42.87959" lon="-0.18618">
        <ele>2342.4</ele>
        <time>2026-07-15T11:41:48Z</time>
      </trkpt>
      <trkpt lat="42.87959" lon="-0.18618">
        <ele>2341.4</ele>
        <time>2026-07-15T11:41:49Z</time>
      </trkpt>
      <trkpt lat="42.87959" lon="-0.18618">
        <ele>2341.4</ele>
        <time>2026-07-15T11:41:50Z</time>
      </trkpt>
      <trkpt lat="42.8796" lon="-0.18618">
        <ele>2341.4</ele>
        <time>2026-07-15T11:41:51Z</time>
      </trkpt>
      <trkpt lat="42.8796" lon="-0.18618">
        <ele>2341.4</ele>
        <time>2026-07-15T11:41:52Z</time>
      </trkpt>
      <trkpt lat="42.8796" lon="-0.18618">
        <ele>2341.4</ele>
        <time>2026-07-15T11:41:53Z</time>
      </trkpt>
      <trkpt lat="42.8796" lon="-0.18618">
        <ele>2341.4</ele>
        <time>2026-07-15T11:41:54Z</time>
      </trkpt>
      <trkpt lat="42.8796" lon="-0.18618">
        <ele>2341.4</ele>
        <time>2026-07-15T11:41:55Z</time>
      </trkpt>
      <trkpt lat="42.8796" lon="-0.18618">
        <ele>2341.4</ele>
        <time>2026-07-15T11:41:56Z</time>
      </trkpt>
      <trkpt lat="42.8796" lon="-0.18618">
        <ele>2341.4</ele>
        <time>2026-07-15T11:41:57Z</time>
      </trkpt>
      <trkpt lat="42.8796" lon="-0.18618">
        <ele>2341.4</ele>
        <time>2026-07-15T11:41:58Z</time>
      </trkpt>
      <trkpt lat="42.8796" lon="-0.18618">
        <ele>2341.4</ele>
        <time>2026-07-15T11:41:58Z</time>
      </trkpt>
      <trkpt lat="42.8796" lon="-0.18618">
        <ele>2341.4</ele>
        <time>2026-07-15T11:41:59Z</time>
      </trkpt>
      <trkpt lat="42.8796" lon="-0.18618">
        <ele>2341.4</ele>
        <time>2026-07-15T11:42:00Z</time>
      </trkpt>
      <trkpt lat="42.8796" lon="-0.18618">
        <ele>2341.4</ele>
        <time>2026-07-15T11:42:01Z</time>
      </trkpt>
      <trkpt lat="42.87959" lon="-0.18618">
        <ele>2341.4</ele>
        <time>2026-07-15T11:42:02Z</time>
      </trkpt>
      <trkpt lat="42.87959" lon="-0.18618">
        <ele>2341.4</ele>
        <time>2026-07-15T11:42:03Z</time>
      </trkpt>
      <trkpt lat="42.87959" lon="-0.18617">
        <ele>2341.4</ele>
        <time>2026-07-15T11:42:04Z</time>
      </trkpt>
      <trkpt lat="42.87959" lon="-0.18617">
        <ele>2341.4</ele>
        <time>2026-07-15T11:42:05Z</time>
      </trkpt>
      <trkpt lat="42.87959" lon="-0.18618">
        <ele>2342.4</ele>
        <time>2026-07-15T11:42:05Z</time>
      </trkpt>
      <trkpt lat="42.87959" lon="-0.18619">
        <ele>2342.4</ele>
        <time>2026-07-15T11:42:06Z</time>
      </trkpt>
      <trkpt lat="42.8796" lon="-0.18619">
        <ele>2342.4</ele>
        <time>2026-07-15T11:42:07Z</time>
      </trkpt>
      <trkpt lat="42.8796" lon="-0.1862">
        <ele>2343.4</ele>
        <time>2026-07-15T11:42:07Z</time>
      </trkpt>
      <trkpt lat="42.8796" lon="-0.1862">
        <ele>2342.4</ele>
        <time>2026-07-15T11:42:08Z</time>
      </trkpt>
      <trkpt lat="42.8796" lon="-0.1862">
        <ele>2342.4</ele>
        <time>2026-07-15T11:42:09Z</time>
      </trkpt>
      <trkpt lat="42.8796" lon="-0.18621">
        <ele>2342.4</ele>
        <time>2026-07-15T11:42:10Z</time>
      </trkpt>
      <trkpt lat="42.8796" lon="-0.18621">
        <ele>2342.4</ele>
        <time>2026-07-15T11:42:11Z</time>
      </trkpt>
      <trkpt lat="42.8796" lon="-0.18621">
        <ele>2342.4</ele>
        <time>2026-07-15T11:42:12Z</time>
      </trkpt>
      <trkpt lat="42.8796" lon="-0.18621">
        <ele>2342.4</ele>
        <time>2026-07-15T11:42:13Z</time>
      </trkpt>
      <trkpt lat="42.8796" lon="-0.18621">
        <ele>2342.4</ele>
        <time>2026-07-15T11:42:14Z</time>
      </trkpt>
      <trkpt lat="42.8796" lon="-0.18621">
        <ele>2342.4</ele>
        <time>2026-07-15T11:42:15Z</time>
      </trkpt>
      <trkpt lat="42.8796" lon="-0.18621">
        <ele>2342.4</ele>
        <time>2026-07-15T11:42:16Z</time>
      </trkpt>
      <trkpt lat="42.8796" lon="-0.18621">
        <ele>2342.4</ele>
        <time>2026-07-15T11:42:17Z</time>
      </trkpt>
      <trkpt lat="42.8796" lon="-0.18621">
        <ele>2342.4</ele>
        <time>2026-07-15T11:42:18Z</time>
      </trkpt>
      <trkpt lat="42.8796" lon="-0.18621">
        <ele>2342.4</ele>
        <time>2026-07-15T11:42:19Z</time>
      </trkpt>
      <trkpt lat="42.8796" lon="-0.18621">
        <ele>2342.4</ele>
        <time>2026-07-15T11:42:20Z</time>
      </trkpt>
      <trkpt lat="42.8796" lon="-0.18621">
        <ele>2342.4</ele>
        <time>2026-07-15T11:42:21Z</time>
      </trkpt>
      <trkpt lat="42.8796" lon="-0.18621">
        <ele>2342.4</ele>
        <time>2026-07-15T11:42:22Z</time>
      </trkpt>
      <trkpt lat="42.8796" lon="-0.18621">
        <ele>2342.4</ele>
        <time>2026-07-15T11:42:23Z</time>
      </trkpt>
      <trkpt lat="42.8796" lon="-0.18621">
        <ele>2342.4</ele>
        <time>2026-07-15T11:42:24Z</time>
      </trkpt>
      <trkpt lat="42.8796" lon="-0.18621">
        <ele>2342.4</ele>
        <time>2026-07-15T11:42:25Z</time>
      </trkpt>
      <trkpt lat="42.8796" lon="-0.18621">
        <ele>2342.4</ele>
        <time>2026-07-15T11:42:26Z</time>
      </trkpt>
      <trkpt lat="42.8796" lon="-0.18621">
        <ele>2342.4</ele>
        <time>2026-07-15T11:42:27Z</time>
      </trkpt>
      <trkpt lat="42.8796" lon="-0.18621">
        <ele>2342.4</ele>
        <time>2026-07-15T11:42:28Z</time>
      </trkpt>
      <trkpt lat="42.8796" lon="-0.18621">
        <ele>2342.4</ele>
        <time>2026-07-15T11:42:29Z</time>
      </trkpt>
      <trkpt lat="42.8796" lon="-0.18621">
        <ele>2341.4</ele>
        <time>2026-07-15T11:42:30Z</time>
      </trkpt>
      <trkpt lat="42.8796" lon="-0.18621">
        <ele>2341.4</ele>
        <time>2026-07-15T11:42:31Z</time>
      </trkpt>
      <trkpt lat="42.8796" lon="-0.18621">
        <ele>2342.4</ele>
        <time>2026-07-15T11:42:32Z</time>
      </trkpt>
      <trkpt lat="42.8796" lon="-0.18621">
        <ele>2342.4</ele>
        <time>2026-07-15T11:42:33Z</time>
      </trkpt>
      <trkpt lat="42.8796" lon="-0.18621">
        <ele>2341.4</ele>
        <time>2026-07-15T11:42:33Z</time>
      </trkpt>
      <trkpt lat="42.8796" lon="-0.18621">
        <ele>2342.4</ele>
        <time>2026-07-15T11:42:34Z</time>
      </trkpt>
      <trkpt lat="42.8796" lon="-0.18621">
        <ele>2342.4</ele>
        <time>2026-07-15T11:42:35Z</time>
      </trkpt>
      <trkpt lat="42.8796" lon="-0.18621">
        <ele>2342.4</ele>
        <time>2026-07-15T11:42:35Z</time>
      </trkpt>
      <trkpt lat="42.8796" lon="-0.18621">
        <ele>2342.4</ele>
        <time>2026-07-15T11:42:36Z</time>
      </trkpt>
      <trkpt lat="42.8796" lon="-0.18622">
        <ele>2342.4</ele>
        <time>2026-07-15T11:42:37Z</time>
      </trkpt>
      <trkpt lat="42.8796" lon="-0.18622">
        <ele>2342.4</ele>
        <time>2026-07-15T11:42:38Z</time>
      </trkpt>
      <trkpt lat="42.8796" lon="-0.18622">
        <ele>2342.4</ele>
        <time>2026-07-15T11:42:39Z</time>
      </trkpt>
      <trkpt lat="42.8796" lon="-0.18622">
        <ele>2342.4</ele>
        <time>2026-07-15T11:42:40Z</time>
      </trkpt>
      <trkpt lat="42.8796" lon="-0.18622">
        <ele>2342.4</ele>
        <time>2026-07-15T11:42:41Z</time>
      </trkpt>
      <trkpt lat="42.8796" lon="-0.18622">
        <ele>2342.4</ele>
        <time>2026-07-15T11:42:42Z</time>
      </trkpt>
      <trkpt lat="42.8796" lon="-0.18622">
        <ele>2342.4</ele>
        <time>2026-07-15T11:42:43Z</time>
      </trkpt>
      <trkpt lat="42.8796" lon="-0.18622">
        <ele>2342.4</ele>
        <time>2026-07-15T11:42:44Z</time>
      </trkpt>
      <trkpt lat="42.8796" lon="-0.18622">
        <ele>2342.4</ele>
        <time>2026-07-15T11:42:45Z</time>
      </trkpt>
      <trkpt lat="42.8796" lon="-0.18622">
        <ele>2342.4</ele>
        <time>2026-07-15T11:42:46Z</time>
      </trkpt>
      <trkpt lat="42.8796" lon="-0.18622">
        <ele>2342.4</ele>
        <time>2026-07-15T11:42:47Z</time>
      </trkpt>
      <trkpt lat="42.8796" lon="-0.18622">
        <ele>2342.4</ele>
        <time>2026-07-15T11:42:47Z</time>
      </trkpt>
      <trkpt lat="42.8796" lon="-0.18622">
        <ele>2342.4</ele>
        <time>2026-07-15T11:42:48Z</time>
      </trkpt>
      <trkpt lat="42.8796" lon="-0.18622">
        <ele>2341.4</ele>
        <time>2026-07-15T11:42:49Z</time>
      </trkpt>
      <trkpt lat="42.8796" lon="-0.18622">
        <ele>2341.4</ele>
        <time>2026-07-15T11:42:50Z</time>
      </trkpt>
      <trkpt lat="42.8796" lon="-0.18622">
        <ele>2342.4</ele>
        <time>2026-07-15T11:42:50Z</time>
      </trkpt>
      <trkpt lat="42.8796" lon="-0.18622">
        <ele>2342.4</ele>
        <time>2026-07-15T11:42:51Z</time>
      </trkpt>
      <trkpt lat="42.8796" lon="-0.18622">
        <ele>2342.4</ele>
        <time>2026-07-15T11:42:52Z</time>
      </trkpt>
      <trkpt lat="42.8796" lon="-0.18622">
        <ele>2342.4</ele>
        <time>2026-07-15T11:42:53Z</time>
      </trkpt>
      <trkpt lat="42.8796" lon="-0.18622">
        <ele>2342.4</ele>
        <time>2026-07-15T11:42:54Z</time>
      </trkpt>
      <trkpt lat="42.8796" lon="-0.18622">
        <ele>2342.4</ele>
        <time>2026-07-15T11:42:55Z</time>
      </trkpt>
      <trkpt lat="42.8796" lon="-0.18622">
        <ele>2342.4</ele>
        <time>2026-07-15T11:42:56Z</time>
      </trkpt>
      <trkpt lat="42.8796" lon="-0.18622">
        <ele>2342.4</ele>
        <time>2026-07-15T11:42:57Z</time>
      </trkpt>
      <trkpt lat="42.8796" lon="-0.18622">
        <ele>2342.4</ele>
        <time>2026-07-15T11:42:58Z</time>
      </trkpt>
      <trkpt lat="42.8796" lon="-0.18622">
        <ele>2342.4</ele>
        <time>2026-07-15T11:42:59Z</time>
      </trkpt>
      <trkpt lat="42.8796" lon="-0.18622">
        <ele>2342.4</ele>
        <time>2026-07-15T11:43:00Z</time>
      </trkpt>
      <trkpt lat="42.8796" lon="-0.18622">
        <ele>2342.4</ele>
        <time>2026-07-15T11:43:01Z</time>
      </trkpt>
      <trkpt lat="42.8796" lon="-0.18622">
        <ele>2342.4</ele>
        <time>2026-07-15T11:43:02Z</time>
      </trkpt>
      <trkpt lat="42.8796" lon="-0.18622">
        <ele>2342.4</ele>
        <time>2026-07-15T11:43:03Z</time>
      </trkpt>
      <trkpt lat="42.8796" lon="-0.18622">
        <ele>2342.4</ele>
        <time>2026-07-15T11:43:04Z</time>
      </trkpt>
      <trkpt lat="42.8796" lon="-0.18622">
        <ele>2342.4</ele>
        <time>2026-07-15T11:43:05Z</time>
      </trkpt>
      <trkpt lat="42.8796" lon="-0.18621">
        <ele>2342.4</ele>
        <time>2026-07-15T11:43:06Z</time>
      </trkpt>
      <trkpt lat="42.8796" lon="-0.18621">
        <ele>2342.4</ele>
        <time>2026-07-15T11:43:07Z</time>
      </trkpt>
      <trkpt lat="42.8796" lon="-0.18621">
        <ele>2342.4</ele>
        <time>2026-07-15T11:43:08Z</time>
      </trkpt>
      <trkpt lat="42.8796" lon="-0.18621">
        <ele>2342.4</ele>
        <time>2026-07-15T11:43:09Z</time>
      </trkpt>
      <trkpt lat="42.8796" lon="-0.18621">
        <ele>2342.4</ele>
        <time>2026-07-15T11:43:10Z</time>
      </trkpt>
      <trkpt lat="42.8796" lon="-0.18621">
        <ele>2342.4</ele>
        <time>2026-07-15T11:43:11Z</time>
      </trkpt>
      <trkpt lat="42.8796" lon="-0.18621">
        <ele>2342.4</ele>
        <time>2026-07-15T11:43:12Z</time>
      </trkpt>
      <trkpt lat="42.8796" lon="-0.18621">
        <ele>2342.4</ele>
        <time>2026-07-15T11:43:13Z</time>
      </trkpt>
      <trkpt lat="42.8796" lon="-0.18621">
        <ele>2342.4</ele>
        <time>2026-07-15T11:43:14Z</time>
      </trkpt>
      <trkpt lat="42.8796" lon="-0.18621">
        <ele>2342.4</ele>
        <time>2026-07-15T11:43:15Z</time>
      </trkpt>
      <trkpt lat="42.8796" lon="-0.18621">
        <ele>2342.4</ele>
        <time>2026-07-15T11:43:16Z</time>
      </trkpt>
      <trkpt lat="42.8796" lon="-0.18621">
        <ele>2342.4</ele>
        <time>2026-07-15T11:43:17Z</time>
      </trkpt>
      <trkpt lat="42.8796" lon="-0.18621">
        <ele>2342.4</ele>
        <time>2026-07-15T11:43:18Z</time>
      </trkpt>
      <trkpt lat="42.8796" lon="-0.18621">
        <ele>2342.4</ele>
        <time>2026-07-15T11:43:19Z</time>
      </trkpt>
      <trkpt lat="42.8796" lon="-0.18621">
        <ele>2342.4</ele>
        <time>2026-07-15T11:43:20Z</time>
      </trkpt>
      <trkpt lat="42.8796" lon="-0.18621">
        <ele>2342.4</ele>
        <time>2026-07-15T11:43:21Z</time>
      </trkpt>
      <trkpt lat="42.8796" lon="-0.18621">
        <ele>2342.4</ele>
        <time>2026-07-15T11:43:22Z</time>
      </trkpt>
      <trkpt lat="42.8796" lon="-0.18621">
        <ele>2343.4</ele>
        <time>2026-07-15T11:43:22Z</time>
      </trkpt>
      <trkpt lat="42.8796" lon="-0.18621">
        <ele>2343.4</ele>
        <time>2026-07-15T11:43:23Z</time>
      </trkpt>
      <trkpt lat="42.87959" lon="-0.18621">
        <ele>2343.4</ele>
        <time>2026-07-15T11:43:24Z</time>
      </trkpt>
      <trkpt lat="42.87959" lon="-0.18621">
        <ele>2343.4</ele>
        <time>2026-07-15T11:43:25Z</time>
      </trkpt>
      <trkpt lat="42.87959" lon="-0.18621">
        <ele>2343.4</ele>
        <time>2026-07-15T11:43:26Z</time>
      </trkpt>
      <trkpt lat="42.87959" lon="-0.18621">
        <ele>2343.4</ele>
        <time>2026-07-15T11:43:27Z</time>
      </trkpt>
      <trkpt lat="42.87959" lon="-0.1862">
        <ele>2342.4</ele>
        <time>2026-07-15T11:43:28Z</time>
      </trkpt>
      <trkpt lat="42.87959" lon="-0.1862">
        <ele>2342.4</ele>
        <time>2026-07-15T11:43:29Z</time>
      </trkpt>
      <trkpt lat="42.87959" lon="-0.1862">
        <ele>2342.4</ele>
        <time>2026-07-15T11:43:30Z</time>
      </trkpt>
      <trkpt lat="42.87959" lon="-0.1862">
        <ele>2342.4</ele>
        <time>2026-07-15T11:43:31Z</time>
      </trkpt>
      <trkpt lat="42.87958" lon="-0.1862">
        <ele>2342.4</ele>
        <time>2026-07-15T11:43:32Z</time>
      </trkpt>
      <trkpt lat="42.87958" lon="-0.1862">
        <ele>2342.4</ele>
        <time>2026-07-15T11:43:33Z</time>
      </trkpt>
      <trkpt lat="42.87958" lon="-0.1862">
        <ele>2342.4</ele>
        <time>2026-07-15T11:43:34Z</time>
      </trkpt>
      <trkpt lat="42.87958" lon="-0.1862">
        <ele>2342.4</ele>
        <time>2026-07-15T11:43:35Z</time>
      </trkpt>
      <trkpt lat="42.87958" lon="-0.1862">
        <ele>2342.4</ele>
        <time>2026-07-15T11:43:36Z</time>
      </trkpt>
      <trkpt lat="42.87958" lon="-0.1862">
        <ele>2342.4</ele>
        <time>2026-07-15T11:43:37Z</time>
      </trkpt>
      <trkpt lat="42.87958" lon="-0.1862">
        <ele>2342.4</ele>
        <time>2026-07-15T11:43:38Z</time>
      </trkpt>
      <trkpt lat="42.87958" lon="-0.1862">
        <ele>2342.4</ele>
        <time>2026-07-15T11:43:39Z</time>
      </trkpt>
      <trkpt lat="42.87958" lon="-0.1862">
        <ele>2342.4</ele>
        <time>2026-07-15T11:43:39Z</time>
      </trkpt>
      <trkpt lat="42.87958" lon="-0.1862">
        <ele>2342.4</ele>
        <time>2026-07-15T11:43:40Z</time>
      </trkpt>
      <trkpt lat="42.87958" lon="-0.1862">
        <ele>2342.4</ele>
        <time>2026-07-15T11:43:41Z</time>
      </trkpt>
      <trkpt lat="42.87958" lon="-0.1862">
        <ele>2342.4</ele>
        <time>2026-07-15T11:43:42Z</time>
      </trkpt>
      <trkpt lat="42.87958" lon="-0.1862">
        <ele>2342.4</ele>
        <time>2026-07-15T11:43:43Z</time>
      </trkpt>
      <trkpt lat="42.87958" lon="-0.18619">
        <ele>2342.4</ele>
        <time>2026-07-15T11:43:44Z</time>
      </trkpt>
      <trkpt lat="42.87958" lon="-0.1862">
        <ele>2342.4</ele>
        <time>2026-07-15T11:43:45Z</time>
      </trkpt>
      <trkpt lat="42.87958" lon="-0.1862">
        <ele>2342.4</ele>
        <time>2026-07-15T11:43:46Z</time>
      </trkpt>
      <trkpt lat="42.87959" lon="-0.18619">
        <ele>2342.4</ele>
        <time>2026-07-15T11:43:47Z</time>
      </trkpt>
      <trkpt lat="42.87959" lon="-0.18619">
        <ele>2342.4</ele>
        <time>2026-07-15T11:43:48Z</time>
      </trkpt>
      <trkpt lat="42.87959" lon="-0.18619">
        <ele>2342.4</ele>
        <time>2026-07-15T11:43:49Z</time>
      </trkpt>
      <trkpt lat="42.87959" lon="-0.18619">
        <ele>2342.4</ele>
        <time>2026-07-15T11:43:50Z</time>
      </trkpt>
      <trkpt lat="42.87959" lon="-0.18619">
        <ele>2342.4</ele>
        <time>2026-07-15T11:43:51Z</time>
      </trkpt>
      <trkpt lat="42.87959" lon="-0.18619">
        <ele>2342.4</ele>
        <time>2026-07-15T11:43:52Z</time>
      </trkpt>
      <trkpt lat="42.87959" lon="-0.18619">
        <ele>2342.4</ele>
        <time>2026-07-15T11:43:53Z</time>
      </trkpt>
      <trkpt lat="42.87959" lon="-0.18619">
        <ele>2342.4</ele>
        <time>2026-07-15T11:43:54Z</time>
      </trkpt>
      <trkpt lat="42.87959" lon="-0.18619">
        <ele>2342.4</ele>
        <time>2026-07-15T11:43:55Z</time>
      </trkpt>
      <trkpt lat="42.87959" lon="-0.18619">
        <ele>2342.4</ele>
        <time>2026-07-15T11:43:56Z</time>
      </trkpt>
      <trkpt lat="42.87959" lon="-0.1862">
        <ele>2342.4</ele>
        <time>2026-07-15T11:43:57Z</time>
      </trkpt>
      <trkpt lat="42.87959" lon="-0.1862">
        <ele>2342.4</ele>
        <time>2026-07-15T11:43:58Z</time>
      </trkpt>
      <trkpt lat="42.87959" lon="-0.1862">
        <ele>2342.4</ele>
        <time>2026-07-15T11:43:59Z</time>
      </trkpt>
      <trkpt lat="42.87959" lon="-0.1862">
        <ele>2342.4</ele>
        <time>2026-07-15T11:44:00Z</time>
      </trkpt>
      <trkpt lat="42.87959" lon="-0.1862">
        <ele>2342.4</ele>
        <time>2026-07-15T11:44:00Z</time>
      </trkpt>
      <trkpt lat="42.87959" lon="-0.1862">
        <ele>2342.4</ele>
        <time>2026-07-15T11:44:01Z</time>
      </trkpt>
      <trkpt lat="42.87959" lon="-0.1862">
        <ele>2342.4</ele>
        <time>2026-07-15T11:44:02Z</time>
      </trkpt>
      <trkpt lat="42.87959" lon="-0.1862">
        <ele>2342.4</ele>
        <time>2026-07-15T11:44:03Z</time>
      </trkpt>
      <trkpt lat="42.87959" lon="-0.1862">
        <ele>2342.4</ele>
        <time>2026-07-15T11:44:04Z</time>
      </trkpt>
      <trkpt lat="42.87959" lon="-0.1862">
        <ele>2342.4</ele>
        <time>2026-07-15T11:44:05Z</time>
      </trkpt>
      <trkpt lat="42.87959" lon="-0.1862">
        <ele>2342.4</ele>
        <time>2026-07-15T11:44:06Z</time>
      </trkpt>
      <trkpt lat="42.87959" lon="-0.1862">
        <ele>2342.4</ele>
        <time>2026-07-15T11:44:07Z</time>
      </trkpt>
      <trkpt lat="42.87959" lon="-0.1862">
        <ele>2342.4</ele>
        <time>2026-07-15T11:44:08Z</time>
      </trkpt>
      <trkpt lat="42.87959" lon="-0.1862">
        <ele>2342.4</ele>
        <time>2026-07-15T11:44:09Z</time>
      </trkpt>
      <trkpt lat="42.87959" lon="-0.1862">
        <ele>2342.4</ele>
        <time>2026-07-15T11:44:10Z</time>
      </trkpt>
      <trkpt lat="42.87959" lon="-0.1862">
        <ele>2342.4</ele>
        <time>2026-07-15T11:44:11Z</time>
      </trkpt>
      <trkpt lat="42.87959" lon="-0.1862">
        <ele>2342.4</ele>
        <time>2026-07-15T11:44:12Z</time>
      </trkpt>
      <trkpt lat="42.87959" lon="-0.1862">
        <ele>2342.4</ele>
        <time>2026-07-15T11:44:13Z</time>
      </trkpt>
      <trkpt lat="42.87959" lon="-0.1862">
        <ele>2342.4</ele>
        <time>2026-07-15T11:44:13Z</time>
      </trkpt>
      <trkpt lat="42.87959" lon="-0.1862">
        <ele>2342.4</ele>
        <time>2026-07-15T11:44:14Z</time>
      </trkpt>
      <trkpt lat="42.87959" lon="-0.1862">
        <ele>2342.4</ele>
        <time>2026-07-15T11:44:14Z</time>
      </trkpt>
      <trkpt lat="42.87959" lon="-0.1862">
        <ele>2342.4</ele>
        <time>2026-07-15T11:44:15Z</time>
      </trkpt>
      <trkpt lat="42.87959" lon="-0.1862">
        <ele>2342.4</ele>
        <time>2026-07-15T11:44:16Z</time>
      </trkpt>
      <trkpt lat="42.87959" lon="-0.1862">
        <ele>2342.4</ele>
        <time>2026-07-15T11:44:17Z</time>
      </trkpt>
      <trkpt lat="42.87959" lon="-0.1862">
        <ele>2340.4</ele>
        <time>2026-07-15T11:44:18Z</time>
      </trkpt>
      <trkpt lat="42.87959" lon="-0.1862">
        <ele>2341.4</ele>
        <time>2026-07-15T11:44:18Z</time>
      </trkpt>
      <trkpt lat="42.87959" lon="-0.1862">
        <ele>2341.4</ele>
        <time>2026-07-15T11:44:19Z</time>
      </trkpt>
      <trkpt lat="42.87959" lon="-0.1862">
        <ele>2342.4</ele>
        <time>2026-07-15T11:44:20Z</time>
      </trkpt>
      <trkpt lat="42.87959" lon="-0.1862">
        <ele>2342.4</ele>
        <time>2026-07-15T11:44:21Z</time>
      </trkpt>
      <trkpt lat="42.87959" lon="-0.1862">
        <ele>2342.4</ele>
        <time>2026-07-15T11:44:22Z</time>
      </trkpt>
      <trkpt lat="42.87959" lon="-0.1862">
        <ele>2342.4</ele>
        <time>2026-07-15T11:44:22Z</time>
      </trkpt>
      <trkpt lat="42.87959" lon="-0.1862">
        <ele>2341.4</ele>
        <time>2026-07-15T11:44:23Z</time>
      </trkpt>
      <trkpt lat="42.87959" lon="-0.1862">
        <ele>2342.4</ele>
        <time>2026-07-15T11:44:24Z</time>
      </trkpt>
      <trkpt lat="42.87959" lon="-0.1862">
        <ele>2341.4</ele>
        <time>2026-07-15T11:44:25Z</time>
      </trkpt>
      <trkpt lat="42.87959" lon="-0.1862">
        <ele>2341.4</ele>
        <time>2026-07-15T11:44:26Z</time>
      </trkpt>
      <trkpt lat="42.87959" lon="-0.1862">
        <ele>2341.4</ele>
        <time>2026-07-15T11:44:27Z</time>
      </trkpt>
      <trkpt lat="42.87959" lon="-0.18621">
        <ele>2341.4</ele>
        <time>2026-07-15T11:44:28Z</time>
      </trkpt>
      <trkpt lat="42.87959" lon="-0.18621">
        <ele>2341.4</ele>
        <time>2026-07-15T11:44:29Z</time>
      </trkpt>
      <trkpt lat="42.87959" lon="-0.18621">
        <ele>2340.4</ele>
        <time>2026-07-15T11:44:29Z</time>
      </trkpt>
      <trkpt lat="42.87958" lon="-0.18621">
        <ele>2340.4</ele>
        <time>2026-07-15T11:44:30Z</time>
      </trkpt>
      <trkpt lat="42.87958" lon="-0.18621">
        <ele>2340.4</ele>
        <time>2026-07-15T11:44:31Z</time>
      </trkpt>
      <trkpt lat="42.87958" lon="-0.18621">
        <ele>2340.4</ele>
        <time>2026-07-15T11:44:32Z</time>
      </trkpt>
      <trkpt lat="42.87958" lon="-0.18621">
        <ele>2340.4</ele>
        <time>2026-07-15T11:44:33Z</time>
      </trkpt>
      <trkpt lat="42.87958" lon="-0.18621">
        <ele>2340.4</ele>
        <time>2026-07-15T11:44:34Z</time>
      </trkpt>
      <trkpt lat="42.87958" lon="-0.18621">
        <ele>2340.4</ele>
        <time>2026-07-15T11:44:35Z</time>
      </trkpt>
      <trkpt lat="42.87958" lon="-0.18621">
        <ele>2340.4</ele>
        <time>2026-07-15T11:44:36Z</time>
      </trkpt>
      <trkpt lat="42.87958" lon="-0.18621">
        <ele>2340.4</ele>
        <time>2026-07-15T11:44:37Z</time>
      </trkpt>
      <trkpt lat="42.87958" lon="-0.18621">
        <ele>2340.4</ele>
        <time>2026-07-15T11:44:38Z</time>
      </trkpt>
      <trkpt lat="42.87958" lon="-0.18621">
        <ele>2340.4</ele>
        <time>2026-07-15T11:44:39Z</time>
      </trkpt>
      <trkpt lat="42.87958" lon="-0.18621">
        <ele>2339.4</ele>
        <time>2026-07-15T11:44:40Z</time>
      </trkpt>
      <trkpt lat="42.87958" lon="-0.18621">
        <ele>2339.4</ele>
        <time>2026-07-15T11:44:41Z</time>
      </trkpt>
      <trkpt lat="42.87958" lon="-0.18621">
        <ele>2339.4</ele>
        <time>2026-07-15T11:44:42Z</time>
      </trkpt>
      <trkpt lat="42.87958" lon="-0.18621">
        <ele>2339.4</ele>
        <time>2026-07-15T11:44:43Z</time>
      </trkpt>
      <trkpt lat="42.87958" lon="-0.18621">
        <ele>2339.4</ele>
        <time>2026-07-15T11:44:44Z</time>
      </trkpt>
      <trkpt lat="42.87958" lon="-0.18621">
        <ele>2340.4</ele>
        <time>2026-07-15T11:44:45Z</time>
      </trkpt>
      <trkpt lat="42.87958" lon="-0.18621">
        <ele>2340.4</ele>
        <time>2026-07-15T11:44:46Z</time>
      </trkpt>
      <trkpt lat="42.87958" lon="-0.18621">
        <ele>2339.4</ele>
        <time>2026-07-15T11:44:47Z</time>
      </trkpt>
      <trkpt lat="42.87958" lon="-0.18621">
        <ele>2339.4</ele>
        <time>2026-07-15T11:44:48Z</time>
      </trkpt>
      <trkpt lat="42.87958" lon="-0.18621">
        <ele>2339.4</ele>
        <time>2026-07-15T11:44:48Z</time>
      </trkpt>
      <trkpt lat="42.87958" lon="-0.18621">
        <ele>2339.4</ele>
        <time>2026-07-15T11:44:50Z</time>
      </trkpt>
      <trkpt lat="42.87958" lon="-0.18621">
        <ele>2339.4</ele>
        <time>2026-07-15T11:44:51Z</time>
      </trkpt>
      <trkpt lat="42.87958" lon="-0.18621">
        <ele>2339.4</ele>
        <time>2026-07-15T11:44:51Z</time>
      </trkpt>
      <trkpt lat="42.87958" lon="-0.18621">
        <ele>2339.4</ele>
        <time>2026-07-15T11:44:52Z</time>
      </trkpt>
      <trkpt lat="42.87958" lon="-0.18621">
        <ele>2340.4</ele>
        <time>2026-07-15T11:44:53Z</time>
      </trkpt>
      <trkpt lat="42.87957" lon="-0.18621">
        <ele>2340.4</ele>
        <time>2026-07-15T11:44:54Z</time>
      </trkpt>
      <trkpt lat="42.87957" lon="-0.18621">
        <ele>2341.4</ele>
        <time>2026-07-15T11:44:55Z</time>
      </trkpt>
      <trkpt lat="42.87957" lon="-0.1862">
        <ele>2340.4</ele>
        <time>2026-07-15T11:44:56Z</time>
      </trkpt>
      <trkpt lat="42.87957" lon="-0.18621">
        <ele>2340.4</ele>
        <time>2026-07-15T11:44:57Z</time>
      </trkpt>
      <trkpt lat="42.87957" lon="-0.1862">
        <ele>2340.4</ele>
        <time>2026-07-15T11:44:58Z</time>
      </trkpt>
      <trkpt lat="42.87957" lon="-0.1862">
        <ele>2340.4</ele>
        <time>2026-07-15T11:44:59Z</time>
      </trkpt>
      <trkpt lat="42.87957" lon="-0.1862">
        <ele>2342.4</ele>
        <time>2026-07-15T11:45:00Z</time>
      </trkpt>
      <trkpt lat="42.87957" lon="-0.1862">
        <ele>2341.4</ele>
        <time>2026-07-15T11:45:01Z</time>
      </trkpt>
      <trkpt lat="42.87957" lon="-0.1862">
        <ele>2341.4</ele>
        <time>2026-07-15T11:45:02Z</time>
      </trkpt>
      <trkpt lat="42.87957" lon="-0.18619">
        <ele>2341.4</ele>
        <time>2026-07-15T11:45:03Z</time>
      </trkpt>
      <trkpt lat="42.87958" lon="-0.18618">
        <ele>2341.4</ele>
        <time>2026-07-15T11:45:04Z</time>
      </trkpt>
      <trkpt lat="42.87958" lon="-0.18618">
        <ele>2341.4</ele>
        <time>2026-07-15T11:45:05Z</time>
      </trkpt>
      <trkpt lat="42.87958" lon="-0.18617">
        <ele>2340.4</ele>
        <time>2026-07-15T11:45:05Z</time>
      </trkpt>
      <trkpt lat="42.87959" lon="-0.18617">
        <ele>2340.4</ele>
        <time>2026-07-15T11:45:06Z</time>
      </trkpt>
      <trkpt lat="42.87959" lon="-0.18616">
        <ele>2340.4</ele>
        <time>2026-07-15T11:45:06Z</time>
      </trkpt>
      <trkpt lat="42.87959" lon="-0.18615">
        <ele>2340.4</ele>
        <time>2026-07-15T11:45:07Z</time>
      </trkpt>
      <trkpt lat="42.87959" lon="-0.18615">
        <ele>2341.4</ele>
        <time>2026-07-15T11:45:08Z</time>
      </trkpt>
      <trkpt lat="42.87959" lon="-0.18615">
        <ele>2341.4</ele>
        <time>2026-07-15T11:45:09Z</time>
      </trkpt>
      <trkpt lat="42.87959" lon="-0.18614">
        <ele>2341.4</ele>
        <time>2026-07-15T11:45:10Z</time>
      </trkpt>
      <trkpt lat="42.87959" lon="-0.18614">
        <ele>2341.4</ele>
        <time>2026-07-15T11:45:11Z</time>
      </trkpt>
      <trkpt lat="42.87959" lon="-0.18614">
        <ele>2341.4</ele>
        <time>2026-07-15T11:45:12Z</time>
      </trkpt>
      <trkpt lat="42.87959" lon="-0.18614">
        <ele>2341.4</ele>
        <time>2026-07-15T11:45:13Z</time>
      </trkpt>
      <trkpt lat="42.87959" lon="-0.18614">
        <ele>2341.4</ele>
        <time>2026-07-15T11:45:14Z</time>
      </trkpt>
      <trkpt lat="42.87959" lon="-0.18614">
        <ele>2341.4</ele>
        <time>2026-07-15T11:45:15Z</time>
      </trkpt>
      <trkpt lat="42.87959" lon="-0.18614">
        <ele>2341.4</ele>
        <time>2026-07-15T11:45:16Z</time>
      </trkpt>
      <trkpt lat="42.87959" lon="-0.18614">
        <ele>2341.4</ele>
        <time>2026-07-15T11:45:17Z</time>
      </trkpt>
      <trkpt lat="42.87959" lon="-0.18613">
        <ele>2341.4</ele>
        <time>2026-07-15T11:45:18Z</time>
      </trkpt>
      <trkpt lat="42.87959" lon="-0.18613">
        <ele>2341.4</ele>
        <time>2026-07-15T11:45:19Z</time>
      </trkpt>
      <trkpt lat="42.87959" lon="-0.18613">
        <ele>2341.4</ele>
        <time>2026-07-15T11:45:20Z</time>
      </trkpt>
      <trkpt lat="42.87959" lon="-0.18613">
        <ele>2341.4</ele>
        <time>2026-07-15T11:45:21Z</time>
      </trkpt>
      <trkpt lat="42.87959" lon="-0.18613">
        <ele>2341.4</ele>
        <time>2026-07-15T11:45:22Z</time>
      </trkpt>
      <trkpt lat="42.87959" lon="-0.18613">
        <ele>2342.4</ele>
        <time>2026-07-15T11:45:23Z</time>
      </trkpt>
      <trkpt lat="42.87959" lon="-0.18613">
        <ele>2342.4</ele>
        <time>2026-07-15T11:45:24Z</time>
      </trkpt>
      <trkpt lat="42.8796" lon="-0.18612">
        <ele>2341.4</ele>
        <time>2026-07-15T11:45:24Z</time>
      </trkpt>
      <trkpt lat="42.8796" lon="-0.18612">
        <ele>2341.4</ele>
        <time>2026-07-15T11:45:25Z</time>
      </trkpt>
      <trkpt lat="42.8796" lon="-0.18612">
        <ele>2341.4</ele>
        <time>2026-07-15T11:45:26Z</time>
      </trkpt>
      <trkpt lat="42.87961" lon="-0.18611">
        <ele>2340.4</ele>
        <time>2026-07-15T11:45:26Z</time>
      </trkpt>
      <trkpt lat="42.87961" lon="-0.1861">
        <ele>2340.4</ele>
        <time>2026-07-15T11:45:27Z</time>
      </trkpt>
      <trkpt lat="42.87963" lon="-0.18608">
        <ele>2339.4</ele>
        <time>2026-07-15T11:45:28Z</time>
      </trkpt>
      <trkpt lat="42.87964" lon="-0.18608">
        <ele>2339.4</ele>
        <time>2026-07-15T11:45:28Z</time>
      </trkpt>
      <trkpt lat="42.87964" lon="-0.18607">
        <ele>2339.4</ele>
        <time>2026-07-15T11:45:29Z</time>
      </trkpt>
      <trkpt lat="42.87965" lon="-0.18607">
        <ele>2338.4</ele>
        <time>2026-07-15T11:45:29Z</time>
      </trkpt>
      <trkpt lat="42.87966" lon="-0.18606">
        <ele>2338.4</ele>
        <time>2026-07-15T11:45:30Z</time>
      </trkpt>
      <trkpt lat="42.87966" lon="-0.18606">
        <ele>2338.4</ele>
        <time>2026-07-15T11:45:31Z</time>
      </trkpt>
      <trkpt lat="42.87967" lon="-0.18605">
        <ele>2338.4</ele>
        <time>2026-07-15T11:45:31Z</time>
      </trkpt>
      <trkpt lat="42.87968" lon="-0.18605">
        <ele>2338.4</ele>
        <time>2026-07-15T11:45:32Z</time>
      </trkpt>
      <trkpt lat="42.87968" lon="-0.18604">
        <ele>2338.4</ele>
        <time>2026-07-15T11:45:32Z</time>
      </trkpt>
      <trkpt lat="42.87968" lon="-0.18603">
        <ele>2338.4</ele>
        <time>2026-07-15T11:45:33Z</time>
      </trkpt>
      <trkpt lat="42.87969" lon="-0.18602">
        <ele>2338.4</ele>
        <time>2026-07-15T11:45:34Z</time>
      </trkpt>
      <trkpt lat="42.87969" lon="-0.18602">
        <ele>2338.4</ele>
        <time>2026-07-15T11:45:34Z</time>
      </trkpt>
      <trkpt lat="42.8797" lon="-0.18601">
        <ele>2338.4</ele>
        <time>2026-07-15T11:45:35Z</time>
      </trkpt>
      <trkpt lat="42.8797" lon="-0.18601">
        <ele>2339.4</ele>
        <time>2026-07-15T11:45:35Z</time>
      </trkpt>
      <trkpt lat="42.8797" lon="-0.186">
        <ele>2339.4</ele>
        <time>2026-07-15T11:45:36Z</time>
      </trkpt>
      <trkpt lat="42.8797" lon="-0.186">
        <ele>2339.4</ele>
        <time>2026-07-15T11:45:37Z</time>
      </trkpt>
      <trkpt lat="42.87971" lon="-0.18599">
        <ele>2338.4</ele>
        <time>2026-07-15T11:45:37Z</time>
      </trkpt>
      <trkpt lat="42.87971" lon="-0.18598">
        <ele>2338.4</ele>
        <time>2026-07-15T11:45:38Z</time>
      </trkpt>
      <trkpt lat="42.87971" lon="-0.18598">
        <ele>2338.4</ele>
        <time>2026-07-15T11:45:38Z</time>
      </trkpt>
      <trkpt lat="42.87971" lon="-0.18597">
        <ele>2338.4</ele>
        <time>2026-07-15T11:45:39Z</time>
      </trkpt>
      <trkpt lat="42.87972" lon="-0.18596">
        <ele>2337.4</ele>
        <time>2026-07-15T11:45:40Z</time>
      </trkpt>
      <trkpt lat="42.87972" lon="-0.18595">
        <ele>2337.4</ele>
        <time>2026-07-15T11:45:41Z</time>
      </trkpt>
      <trkpt lat="42.87972" lon="-0.18595">
        <ele>2337.4</ele>
        <time>2026-07-15T11:45:42Z</time>
      </trkpt>
      <trkpt lat="42.87972" lon="-0.18594">
        <ele>2337.4</ele>
        <time>2026-07-15T11:45:42Z</time>
      </trkpt>
      <trkpt lat="42.87972" lon="-0.18593">
        <ele>2337.4</ele>
        <time>2026-07-15T11:45:43Z</time>
      </trkpt>
      <trkpt lat="42.87971" lon="-0.18593">
        <ele>2337.4</ele>
        <time>2026-07-15T11:45:44Z</time>
      </trkpt>
      <trkpt lat="42.87971" lon="-0.18593">
        <ele>2337.4</ele>
        <time>2026-07-15T11:45:44Z</time>
      </trkpt>
      <trkpt lat="42.8797" lon="-0.18592">
        <ele>2337.4</ele>
        <time>2026-07-15T11:45:45Z</time>
      </trkpt>
      <trkpt lat="42.8797" lon="-0.18592">
        <ele>2336.4</ele>
        <time>2026-07-15T11:45:46Z</time>
      </trkpt>
      <trkpt lat="42.8797" lon="-0.18592">
        <ele>2336.4</ele>
        <time>2026-07-15T11:45:46Z</time>
      </trkpt>
      <trkpt lat="42.8797" lon="-0.18592">
        <ele>2335.4</ele>
        <time>2026-07-15T11:45:47Z</time>
      </trkpt>
      <trkpt lat="42.87971" lon="-0.18591">
        <ele>2335.4</ele>
        <time>2026-07-15T11:45:48Z</time>
      </trkpt>
      <trkpt lat="42.87971" lon="-0.18591">
        <ele>2334.4</ele>
        <time>2026-07-15T11:45:49Z</time>
      </trkpt>
      <trkpt lat="42.87971" lon="-0.1859">
        <ele>2334.4</ele>
        <time>2026-07-15T11:45:50Z</time>
      </trkpt>
      <trkpt lat="42.87971" lon="-0.18589">
        <ele>2334.4</ele>
        <time>2026-07-15T11:45:51Z</time>
      </trkpt>
      <trkpt lat="42.87971" lon="-0.18589">
        <ele>2333.4</ele>
        <time>2026-07-15T11:45:51Z</time>
      </trkpt>
      <trkpt lat="42.8797" lon="-0.18588">
        <ele>2333.4</ele>
        <time>2026-07-15T11:45:52Z</time>
      </trkpt>
      <trkpt lat="42.8797" lon="-0.18588">
        <ele>2332.4</ele>
        <time>2026-07-15T11:45:53Z</time>
      </trkpt>
      <trkpt lat="42.8797" lon="-0.18587">
        <ele>2331.4</ele>
        <time>2026-07-15T11:45:54Z</time>
      </trkpt>
      <trkpt lat="42.87969" lon="-0.18588">
        <ele>2332.4</ele>
        <time>2026-07-15T11:45:55Z</time>
      </trkpt>
      <trkpt lat="42.87969" lon="-0.18588">
        <ele>2332.4</ele>
        <time>2026-07-15T11:45:55Z</time>
      </trkpt>
      <trkpt lat="42.87969" lon="-0.18588">
        <ele>2332.4</ele>
        <time>2026-07-15T11:45:56Z</time>
      </trkpt>
      <trkpt lat="42.87969" lon="-0.18589">
        <ele>2332.4</ele>
        <time>2026-07-15T11:45:56Z</time>
      </trkpt>
      <trkpt lat="42.87969" lon="-0.18589">
        <ele>2332.4</ele>
        <time>2026-07-15T11:45:57Z</time>
      </trkpt>
      <trkpt lat="42.87969" lon="-0.18589">
        <ele>2332.4</ele>
        <time>2026-07-15T11:45:58Z</time>
      </trkpt>
      <trkpt lat="42.87968" lon="-0.1859">
        <ele>2332.4</ele>
        <time>2026-07-15T11:45:58Z</time>
      </trkpt>
      <trkpt lat="42.87967" lon="-0.1859">
        <ele>2331.4</ele>
        <time>2026-07-15T11:45:59Z</time>
      </trkpt>
      <trkpt lat="42.87967" lon="-0.18591">
        <ele>2331.4</ele>
        <time>2026-07-15T11:46:00Z</time>
      </trkpt>
      <trkpt lat="42.87966" lon="-0.18591">
        <ele>2331.4</ele>
        <time>2026-07-15T11:46:01Z</time>
      </trkpt>
      <trkpt lat="42.87966" lon="-0.18591">
        <ele>2332.4</ele>
        <time>2026-07-15T11:46:01Z</time>
      </trkpt>
      <trkpt lat="42.87965" lon="-0.1859">
        <ele>2332.4</ele>
        <time>2026-07-15T11:46:02Z</time>
      </trkpt>
      <trkpt lat="42.87965" lon="-0.1859">
        <ele>2331.4</ele>
        <time>2026-07-15T11:46:03Z</time>
      </trkpt>
      <trkpt lat="42.87965" lon="-0.18589">
        <ele>2332.4</ele>
        <time>2026-07-15T11:46:03Z</time>
      </trkpt>
      <trkpt lat="42.87965" lon="-0.18589">
        <ele>2332.4</ele>
        <time>2026-07-15T11:46:04Z</time>
      </trkpt>
      <trkpt lat="42.87965" lon="-0.18589">
        <ele>2332.4</ele>
        <time>2026-07-15T11:46:05Z</time>
      </trkpt>
      <trkpt lat="42.87965" lon="-0.18589">
        <ele>2332.4</ele>
        <time>2026-07-15T11:46:06Z</time>
      </trkpt>
      <trkpt lat="42.87965" lon="-0.18589">
        <ele>2331.4</ele>
        <time>2026-07-15T11:46:07Z</time>
      </trkpt>
      <trkpt lat="42.87965" lon="-0.18589">
        <ele>2331.4</ele>
        <time>2026-07-15T11:46:08Z</time>
      </trkpt>
      <trkpt lat="42.87965" lon="-0.18589">
        <ele>2332.4</ele>
        <time>2026-07-15T11:46:09Z</time>
      </trkpt>
      <trkpt lat="42.87965" lon="-0.18589">
        <ele>2332.4</ele>
        <time>2026-07-15T11:46:10Z</time>
      </trkpt>
      <trkpt lat="42.87965" lon="-0.18588">
        <ele>2332.4</ele>
        <time>2026-07-15T11:46:11Z</time>
      </trkpt>
      <trkpt lat="42.87965" lon="-0.18588">
        <ele>2332.4</ele>
        <time>2026-07-15T11:46:11Z</time>
      </trkpt>
      <trkpt lat="42.87965" lon="-0.18588">
        <ele>2332.4</ele>
        <time>2026-07-15T11:46:12Z</time>
      </trkpt>
      <trkpt lat="42.87965" lon="-0.18588">
        <ele>2332.4</ele>
        <time>2026-07-15T11:46:13Z</time>
      </trkpt>
      <trkpt lat="42.87965" lon="-0.18588">
        <ele>2333.4</ele>
        <time>2026-07-15T11:46:13Z</time>
      </trkpt>
      <trkpt lat="42.87965" lon="-0.18587">
        <ele>2333.4</ele>
        <time>2026-07-15T11:46:14Z</time>
      </trkpt>
      <trkpt lat="42.87965" lon="-0.18587">
        <ele>2333.4</ele>
        <time>2026-07-15T11:46:15Z</time>
      </trkpt>
      <trkpt lat="42.87965" lon="-0.18586">
        <ele>2333.4</ele>
        <time>2026-07-15T11:46:16Z</time>
      </trkpt>
      <trkpt lat="42.87965" lon="-0.18585">
        <ele>2333.4</ele>
        <time>2026-07-15T11:46:17Z</time>
      </trkpt>
      <trkpt lat="42.87966" lon="-0.18583">
        <ele>2333.4</ele>
        <time>2026-07-15T11:46:17Z</time>
      </trkpt>
      <trkpt lat="42.87966" lon="-0.18582">
        <ele>2333.4</ele>
        <time>2026-07-15T11:46:18Z</time>
      </trkpt>
      <trkpt lat="42.87966" lon="-0.18581">
        <ele>2333.4</ele>
        <time>2026-07-15T11:46:19Z</time>
      </trkpt>
      <trkpt lat="42.87966" lon="-0.18581">
        <ele>2333.4</ele>
        <time>2026-07-15T11:46:19Z</time>
      </trkpt>
      <trkpt lat="42.87966" lon="-0.1858">
        <ele>2333.4</ele>
        <time>2026-07-15T11:46:20Z</time>
      </trkpt>
      <trkpt lat="42.87966" lon="-0.18579">
        <ele>2333.4</ele>
        <time>2026-07-15T11:46:21Z</time>
      </trkpt>
      <trkpt lat="42.87966" lon="-0.18579">
        <ele>2332.4</ele>
        <time>2026-07-15T11:46:22Z</time>
      </trkpt>
      <trkpt lat="42.87966" lon="-0.18578">
        <ele>2332.4</ele>
        <time>2026-07-15T11:46:22Z</time>
      </trkpt>
      <trkpt lat="42.87966" lon="-0.18579">
        <ele>2332.4</ele>
        <time>2026-07-15T11:46:23Z</time>
      </trkpt>
      <trkpt lat="42.87965" lon="-0.18578">
        <ele>2332.4</ele>
        <time>2026-07-15T11:46:24Z</time>
      </trkpt>
      <trkpt lat="42.87965" lon="-0.18578">
        <ele>2332.4</ele>
        <time>2026-07-15T11:46:25Z</time>
      </trkpt>
      <trkpt lat="42.87966" lon="-0.18578">
        <ele>2332.4</ele>
        <time>2026-07-15T11:46:25Z</time>
      </trkpt>
      <trkpt lat="42.87966" lon="-0.18578">
        <ele>2331.4</ele>
        <time>2026-07-15T11:46:26Z</time>
      </trkpt>
      <trkpt lat="42.87966" lon="-0.18577">
        <ele>2331.4</ele>
        <time>2026-07-15T11:46:27Z</time>
      </trkpt>
      <trkpt lat="42.87965" lon="-0.18577">
        <ele>2331.4</ele>
        <time>2026-07-15T11:46:28Z</time>
      </trkpt>
      <trkpt lat="42.87965" lon="-0.18577">
        <ele>2330.4</ele>
        <time>2026-07-15T11:46:28Z</time>
      </trkpt>
      <trkpt lat="42.87964" lon="-0.18577">
        <ele>2330.4</ele>
        <time>2026-07-15T11:46:29Z</time>
      </trkpt>
      <trkpt lat="42.87964" lon="-0.18577">
        <ele>2330.4</ele>
        <time>2026-07-15T11:46:30Z</time>
      </trkpt>
      <trkpt lat="42.87963" lon="-0.18578">
        <ele>2330.4</ele>
        <time>2026-07-15T11:46:31Z</time>
      </trkpt>
      <trkpt lat="42.87962" lon="-0.18579">
        <ele>2330.4</ele>
        <time>2026-07-15T11:46:31Z</time>
      </trkpt>
      <trkpt lat="42.87962" lon="-0.18579">
        <ele>2330.4</ele>
        <time>2026-07-15T11:46:32Z</time>
      </trkpt>
      <trkpt lat="42.87961" lon="-0.18579">
        <ele>2329.4</ele>
        <time>2026-07-15T11:46:33Z</time>
      </trkpt>
      <trkpt lat="42.87961" lon="-0.18578">
        <ele>2329.4</ele>
        <time>2026-07-15T11:46:33Z</time>
      </trkpt>
      <trkpt lat="42.87961" lon="-0.18578">
        <ele>2329.4</ele>
        <time>2026-07-15T11:46:34Z</time>
      </trkpt>
      <trkpt lat="42.87961" lon="-0.18578">
        <ele>2329.4</ele>
        <time>2026-07-15T11:46:35Z</time>
      </trkpt>
      <trkpt lat="42.8796" lon="-0.18579">
        <ele>2329.4</ele>
        <time>2026-07-15T11:46:35Z</time>
      </trkpt>
      <trkpt lat="42.8796" lon="-0.18579">
        <ele>2329.4</ele>
        <time>2026-07-15T11:46:36Z</time>
      </trkpt>
      <trkpt lat="42.8796" lon="-0.18579">
        <ele>2329.4</ele>
        <time>2026-07-15T11:46:37Z</time>
      </trkpt>
      <trkpt lat="42.87959" lon="-0.18579">
        <ele>2329.4</ele>
        <time>2026-07-15T11:46:38Z</time>
      </trkpt>
      <trkpt lat="42.87959" lon="-0.18579">
        <ele>2329.4</ele>
        <time>2026-07-15T11:46:38Z</time>
      </trkpt>
      <trkpt lat="42.87959" lon="-0.18579">
        <ele>2329.4</ele>
        <time>2026-07-15T11:46:39Z</time>
      </trkpt>
      <trkpt lat="42.87959" lon="-0.18579">
        <ele>2330.4</ele>
        <time>2026-07-15T11:46:40Z</time>
      </trkpt>
      <trkpt lat="42.87959" lon="-0.1858">
        <ele>2330.4</ele>
        <time>2026-07-15T11:46:41Z</time>
      </trkpt>
      <trkpt lat="42.87959" lon="-0.1858">
        <ele>2330.4</ele>
        <time>2026-07-15T11:46:42Z</time>
      </trkpt>
      <trkpt lat="42.87959" lon="-0.1858">
        <ele>2330.4</ele>
        <time>2026-07-15T11:46:42Z</time>
      </trkpt>
      <trkpt lat="42.87959" lon="-0.1858">
        <ele>2330.4</ele>
        <time>2026-07-15T11:46:43Z</time>
      </trkpt>
      <trkpt lat="42.87959" lon="-0.1858">
        <ele>2330.4</ele>
        <time>2026-07-15T11:46:44Z</time>
      </trkpt>
      <trkpt lat="42.8796" lon="-0.18579">
        <ele>2330.4</ele>
        <time>2026-07-15T11:46:44Z</time>
      </trkpt>
      <trkpt lat="42.8796" lon="-0.1858">
        <ele>2329.4</ele>
        <time>2026-07-15T11:46:45Z</time>
      </trkpt>
      <trkpt lat="42.87959" lon="-0.1858">
        <ele>2330.4</ele>
        <time>2026-07-15T11:46:46Z</time>
      </trkpt>
      <trkpt lat="42.87959" lon="-0.18581">
        <ele>2330.4</ele>
        <time>2026-07-15T11:46:47Z</time>
      </trkpt>
      <trkpt lat="42.87958" lon="-0.18581">
        <ele>2330.4</ele>
        <time>2026-07-15T11:46:48Z</time>
      </trkpt>
      <trkpt lat="42.87958" lon="-0.18581">
        <ele>2329.4</ele>
        <time>2026-07-15T11:46:49Z</time>
      </trkpt>
      <trkpt lat="42.87957" lon="-0.18582">
        <ele>2330.4</ele>
        <time>2026-07-15T11:46:50Z</time>
      </trkpt>
      <trkpt lat="42.87956" lon="-0.18582">
        <ele>2329.4</ele>
        <time>2026-07-15T11:46:50Z</time>
      </trkpt>
      <trkpt lat="42.87955" lon="-0.18582">
        <ele>2330.4</ele>
        <time>2026-07-15T11:46:51Z</time>
      </trkpt>
      <trkpt lat="42.87955" lon="-0.18582">
        <ele>2330.4</ele>
        <time>2026-07-15T11:46:52Z</time>
      </trkpt>
      <trkpt lat="42.87954" lon="-0.18582">
        <ele>2330.4</ele>
        <time>2026-07-15T11:46:53Z</time>
      </trkpt>
      <trkpt lat="42.87954" lon="-0.18582">
        <ele>2330.4</ele>
        <time>2026-07-15T11:46:54Z</time>
      </trkpt>
      <trkpt lat="42.87954" lon="-0.18582">
        <ele>2330.4</ele>
        <time>2026-07-15T11:46:54Z</time>
      </trkpt>
      <trkpt lat="42.87954" lon="-0.18582">
        <ele>2330.4</ele>
        <time>2026-07-15T11:46:55Z</time>
      </trkpt>
      <trkpt lat="42.87954" lon="-0.18582">
        <ele>2330.4</ele>
        <time>2026-07-15T11:46:56Z</time>
      </trkpt>
      <trkpt lat="42.87953" lon="-0.18582">
        <ele>2329.4</ele>
        <time>2026-07-15T11:46:56Z</time>
      </trkpt>
      <trkpt lat="42.87953" lon="-0.18582">
        <ele>2329.4</ele>
        <time>2026-07-15T11:46:57Z</time>
      </trkpt>
      <trkpt lat="42.87952" lon="-0.18583">
        <ele>2328.4</ele>
        <time>2026-07-15T11:46:57Z</time>
      </trkpt>
      <trkpt lat="42.87951" lon="-0.18583">
        <ele>2328.4</ele>
        <time>2026-07-15T11:46:58Z</time>
      </trkpt>
      <trkpt lat="42.87951" lon="-0.18583">
        <ele>2328.4</ele>
        <time>2026-07-15T11:46:59Z</time>
      </trkpt>
      <trkpt lat="42.8795" lon="-0.18584">
        <ele>2328.4</ele>
        <time>2026-07-15T11:47:00Z</time>
      </trkpt>
      <trkpt lat="42.8795" lon="-0.18584">
        <ele>2327.4</ele>
        <time>2026-07-15T11:47:00Z</time>
      </trkpt>
      <trkpt lat="42.8795" lon="-0.18584">
        <ele>2327.4</ele>
        <time>2026-07-15T11:47:01Z</time>
      </trkpt>
      <trkpt lat="42.87949" lon="-0.18584">
        <ele>2327.4</ele>
        <time>2026-07-15T11:47:02Z</time>
      </trkpt>
      <trkpt lat="42.87949" lon="-0.18584">
        <ele>2328.4</ele>
        <time>2026-07-15T11:47:03Z</time>
      </trkpt>
      <trkpt lat="42.87948" lon="-0.18584">
        <ele>2328.4</ele>
        <time>2026-07-15T11:47:03Z</time>
      </trkpt>
      <trkpt lat="42.87948" lon="-0.18585">
        <ele>2328.4</ele>
        <time>2026-07-15T11:47:04Z</time>
      </trkpt>
      <trkpt lat="42.87947" lon="-0.18585">
        <ele>2329.4</ele>
        <time>2026-07-15T11:47:04Z</time>
      </trkpt>
      <trkpt lat="42.87947" lon="-0.18586">
        <ele>2329.4</ele>
        <time>2026-07-15T11:47:05Z</time>
      </trkpt>
      <trkpt lat="42.87946" lon="-0.18586">
        <ele>2328.4</ele>
        <time>2026-07-15T11:47:06Z</time>
      </trkpt>
      <trkpt lat="42.87946" lon="-0.18587">
        <ele>2328.4</ele>
        <time>2026-07-15T11:47:06Z</time>
      </trkpt>
      <trkpt lat="42.87946" lon="-0.18587">
        <ele>2327.4</ele>
        <time>2026-07-15T11:47:07Z</time>
      </trkpt>
      <trkpt lat="42.87945" lon="-0.18587">
        <ele>2327.4</ele>
        <time>2026-07-15T11:47:08Z</time>
      </trkpt>
      <trkpt lat="42.87944" lon="-0.18588">
        <ele>2327.4</ele>
        <time>2026-07-15T11:47:08Z</time>
      </trkpt>
      <trkpt lat="42.87944" lon="-0.18588">
        <ele>2327.4</ele>
        <time>2026-07-15T11:47:09Z</time>
      </trkpt>
      <trkpt lat="42.87943" lon="-0.18588">
        <ele>2327.4</ele>
        <time>2026-07-15T11:47:09Z</time>
      </trkpt>
      <trkpt lat="42.87942" lon="-0.18588">
        <ele>2327.4</ele>
        <time>2026-07-15T11:47:10Z</time>
      </trkpt>
      <trkpt lat="42.87942" lon="-0.18588">
        <ele>2326.4</ele>
        <time>2026-07-15T11:47:11Z</time>
      </trkpt>
      <trkpt lat="42.87941" lon="-0.18588">
        <ele>2326.4</ele>
        <time>2026-07-15T11:47:12Z</time>
      </trkpt>
      <trkpt lat="42.8794" lon="-0.18589">
        <ele>2326.4</ele>
        <time>2026-07-15T11:47:13Z</time>
      </trkpt>
      <trkpt lat="42.8794" lon="-0.18589">
        <ele>2326.4</ele>
        <time>2026-07-15T11:47:13Z</time>
      </trkpt>
      <trkpt lat="42.87939" lon="-0.18589">
        <ele>2326.4</ele>
        <time>2026-07-15T11:47:14Z</time>
      </trkpt>
      <trkpt lat="42.87939" lon="-0.18589">
        <ele>2325.4</ele>
        <time>2026-07-15T11:47:14Z</time>
      </trkpt>
      <trkpt lat="42.87939" lon="-0.1859">
        <ele>2325.4</ele>
        <time>2026-07-15T11:47:15Z</time>
      </trkpt>
      <trkpt lat="42.87938" lon="-0.1859">
        <ele>2325.4</ele>
        <time>2026-07-15T11:47:16Z</time>
      </trkpt>
      <trkpt lat="42.87938" lon="-0.1859">
        <ele>2324.4</ele>
        <time>2026-07-15T11:47:16Z</time>
      </trkpt>
      <trkpt lat="42.87937" lon="-0.18591">
        <ele>2324.4</ele>
        <time>2026-07-15T11:47:17Z</time>
      </trkpt>
      <trkpt lat="42.87937" lon="-0.18591">
        <ele>2323.4</ele>
        <time>2026-07-15T11:47:17Z</time>
      </trkpt>
      <trkpt lat="42.87937" lon="-0.18592">
        <ele>2323.4</ele>
        <time>2026-07-15T11:47:18Z</time>
      </trkpt>
      <trkpt lat="42.87936" lon="-0.18592">
        <ele>2323.4</ele>
        <time>2026-07-15T11:47:19Z</time>
      </trkpt>
      <trkpt lat="42.87936" lon="-0.18592">
        <ele>2323.4</ele>
        <time>2026-07-15T11:47:19Z</time>
      </trkpt>
      <trkpt lat="42.87936" lon="-0.18593">
        <ele>2323.4</ele>
        <time>2026-07-15T11:47:20Z</time>
      </trkpt>
      <trkpt lat="42.87936" lon="-0.18593">
        <ele>2323.4</ele>
        <time>2026-07-15T11:47:20Z</time>
      </trkpt>
      <trkpt lat="42.87935" lon="-0.18593">
        <ele>2323.4</ele>
        <time>2026-07-15T11:47:21Z</time>
      </trkpt>
      <trkpt lat="42.87935" lon="-0.18594">
        <ele>2324.4</ele>
        <time>2026-07-15T11:47:22Z</time>
      </trkpt>
      <trkpt lat="42.87935" lon="-0.18594">
        <ele>2324.4</ele>
        <time>2026-07-15T11:47:22Z</time>
      </trkpt>
      <trkpt lat="42.87934" lon="-0.18594">
        <ele>2324.4</ele>
        <time>2026-07-15T11:47:23Z</time>
      </trkpt>
      <trkpt lat="42.87934" lon="-0.18595">
        <ele>2324.4</ele>
        <time>2026-07-15T11:47:24Z</time>
      </trkpt>
      <trkpt lat="42.87934" lon="-0.18595">
        <ele>2324.4</ele>
        <time>2026-07-15T11:47:24Z</time>
      </trkpt>
      <trkpt lat="42.87934" lon="-0.18595">
        <ele>2324.4</ele>
        <time>2026-07-15T11:47:25Z</time>
      </trkpt>
      <trkpt lat="42.87934" lon="-0.18595">
        <ele>2324.4</ele>
        <time>2026-07-15T11:47:26Z</time>
      </trkpt>
      <trkpt lat="42.87935" lon="-0.18595">
        <ele>2324.4</ele>
        <time>2026-07-15T11:47:27Z</time>
      </trkpt>
      <trkpt lat="42.87935" lon="-0.18595">
        <ele>2324.4</ele>
        <time>2026-07-15T11:47:28Z</time>
      </trkpt>
      <trkpt lat="42.87935" lon="-0.18595">
        <ele>2324.4</ele>
        <time>2026-07-15T11:47:29Z</time>
      </trkpt>
      <trkpt lat="42.87935" lon="-0.18595">
        <ele>2324.4</ele>
        <time>2026-07-15T11:47:29Z</time>
      </trkpt>
      <trkpt lat="42.87935" lon="-0.18595">
        <ele>2324.4</ele>
        <time>2026-07-15T11:47:30Z</time>
      </trkpt>
      <trkpt lat="42.87935" lon="-0.18595">
        <ele>2324.4</ele>
        <time>2026-07-15T11:47:31Z</time>
      </trkpt>
      <trkpt lat="42.87935" lon="-0.18595">
        <ele>2323.4</ele>
        <time>2026-07-15T11:47:32Z</time>
      </trkpt>
      <trkpt lat="42.87935" lon="-0.18596">
        <ele>2323.4</ele>
        <time>2026-07-15T11:47:32Z</time>
      </trkpt>
      <trkpt lat="42.87935" lon="-0.18596">
        <ele>2323.4</ele>
        <time>2026-07-15T11:47:33Z</time>
      </trkpt>
      <trkpt lat="42.87935" lon="-0.18596">
        <ele>2322.4</ele>
        <time>2026-07-15T11:47:34Z</time>
      </trkpt>
      <trkpt lat="42.87934" lon="-0.18596">
        <ele>2320.4</ele>
        <time>2026-07-15T11:47:35Z</time>
      </trkpt>
      <trkpt lat="42.87934" lon="-0.18596">
        <ele>2321.4</ele>
        <time>2026-07-15T11:47:35Z</time>
      </trkpt>
      <trkpt lat="42.87934" lon="-0.18596">
        <ele>2321.4</ele>
        <time>2026-07-15T11:47:36Z</time>
      </trkpt>
      <trkpt lat="42.87933" lon="-0.18597">
        <ele>2320.4</ele>
        <time>2026-07-15T11:47:37Z</time>
      </trkpt>
      <trkpt lat="42.87932" lon="-0.18597">
        <ele>2320.4</ele>
        <time>2026-07-15T11:47:38Z</time>
      </trkpt>
      <trkpt lat="42.87932" lon="-0.18598">
        <ele>2320.4</ele>
        <time>2026-07-15T11:47:39Z</time>
      </trkpt>
      <trkpt lat="42.87932" lon="-0.18598">
        <ele>2321.4</ele>
        <time>2026-07-15T11:47:39Z</time>
      </trkpt>
      <trkpt lat="42.87931" lon="-0.18599">
        <ele>2320.4</ele>
        <time>2026-07-15T11:47:40Z</time>
      </trkpt>
      <trkpt lat="42.87931" lon="-0.18599">
        <ele>2320.4</ele>
        <time>2026-07-15T11:47:41Z</time>
      </trkpt>
      <trkpt lat="42.8793" lon="-0.186">
        <ele>2320.4</ele>
        <time>2026-07-15T11:47:42Z</time>
      </trkpt>
      <trkpt lat="42.8793" lon="-0.186">
        <ele>2320.4</ele>
        <time>2026-07-15T11:47:43Z</time>
      </trkpt>
      <trkpt lat="42.87929" lon="-0.186">
        <ele>2320.4</ele>
        <time>2026-07-15T11:47:44Z</time>
      </trkpt>
      <trkpt lat="42.87929" lon="-0.186">
        <ele>2320.4</ele>
        <time>2026-07-15T11:47:45Z</time>
      </trkpt>
      <trkpt lat="42.87929" lon="-0.186">
        <ele>2320.4</ele>
        <time>2026-07-15T11:47:45Z</time>
      </trkpt>
      <trkpt lat="42.87929" lon="-0.18599">
        <ele>2320.4</ele>
        <time>2026-07-15T11:47:46Z</time>
      </trkpt>
      <trkpt lat="42.87929" lon="-0.18599">
        <ele>2320.4</ele>
        <time>2026-07-15T11:47:47Z</time>
      </trkpt>
      <trkpt lat="42.87928" lon="-0.18599">
        <ele>2320.4</ele>
        <time>2026-07-15T11:47:47Z</time>
      </trkpt>
      <trkpt lat="42.87928" lon="-0.18599">
        <ele>2320.4</ele>
        <time>2026-07-15T11:47:48Z</time>
      </trkpt>
      <trkpt lat="42.87928" lon="-0.18599">
        <ele>2320.4</ele>
        <time>2026-07-15T11:47:49Z</time>
      </trkpt>
      <trkpt lat="42.87928" lon="-0.18598">
        <ele>2320.4</ele>
        <time>2026-07-15T11:47:49Z</time>
      </trkpt>
      <trkpt lat="42.87928" lon="-0.18598">
        <ele>2320.4</ele>
        <time>2026-07-15T11:47:50Z</time>
      </trkpt>
      <trkpt lat="42.87928" lon="-0.18597">
        <ele>2320.4</ele>
        <time>2026-07-15T11:47:51Z</time>
      </trkpt>
      <trkpt lat="42.87928" lon="-0.18597">
        <ele>2319.4</ele>
        <time>2026-07-15T11:47:51Z</time>
      </trkpt>
      <trkpt lat="42.87928" lon="-0.18597">
        <ele>2320.4</ele>
        <time>2026-07-15T11:47:52Z</time>
      </trkpt>
      <trkpt lat="42.87928" lon="-0.18598">
        <ele>2319.4</ele>
        <time>2026-07-15T11:47:53Z</time>
      </trkpt>
      <trkpt lat="42.87928" lon="-0.18598">
        <ele>2319.4</ele>
        <time>2026-07-15T11:47:54Z</time>
      </trkpt>
      <trkpt lat="42.87928" lon="-0.18598">
        <ele>2319.4</ele>
        <time>2026-07-15T11:47:55Z</time>
      </trkpt>
      <trkpt lat="42.87928" lon="-0.18598">
        <ele>2316.4</ele>
        <time>2026-07-15T11:47:56Z</time>
      </trkpt>
      <trkpt lat="42.87928" lon="-0.18598">
        <ele>2316.4</ele>
        <time>2026-07-15T11:47:57Z</time>
      </trkpt>
      <trkpt lat="42.87928" lon="-0.18598">
        <ele>2316.4</ele>
        <time>2026-07-15T11:47:58Z</time>
      </trkpt>
      <trkpt lat="42.87928" lon="-0.18598">
        <ele>2316.4</ele>
        <time>2026-07-15T11:47:58Z</time>
      </trkpt>
      <trkpt lat="42.87928" lon="-0.18598">
        <ele>2316.4</ele>
        <time>2026-07-15T11:47:59Z</time>
      </trkpt>
      <trkpt lat="42.87928" lon="-0.18598">
        <ele>2316.4</ele>
        <time>2026-07-15T11:48:00Z</time>
      </trkpt>
      <trkpt lat="42.87928" lon="-0.18598">
        <ele>2316.4</ele>
        <time>2026-07-15T11:48:01Z</time>
      </trkpt>
      <trkpt lat="42.87928" lon="-0.18597">
        <ele>2316.4</ele>
        <time>2026-07-15T11:48:02Z</time>
      </trkpt>
      <trkpt lat="42.87928" lon="-0.18597">
        <ele>2316.4</ele>
        <time>2026-07-15T11:48:03Z</time>
      </trkpt>
      <trkpt lat="42.87928" lon="-0.18597">
        <ele>2316.4</ele>
        <time>2026-07-15T11:48:03Z</time>
      </trkpt>
      <trkpt lat="42.87928" lon="-0.18597">
        <ele>2316.4</ele>
        <time>2026-07-15T11:48:04Z</time>
      </trkpt>
      <trkpt lat="42.87928" lon="-0.18597">
        <ele>2316.4</ele>
        <time>2026-07-15T11:48:05Z</time>
      </trkpt>
      <trkpt lat="42.87928" lon="-0.18597">
        <ele>2315.4</ele>
        <time>2026-07-15T11:48:06Z</time>
      </trkpt>
      <trkpt lat="42.87928" lon="-0.18597">
        <ele>2315.4</ele>
        <time>2026-07-15T11:48:07Z</time>
      </trkpt>
      <trkpt lat="42.87927" lon="-0.18597">
        <ele>2315.4</ele>
        <time>2026-07-15T11:48:08Z</time>
      </trkpt>
      <trkpt lat="42.87927" lon="-0.18597">
        <ele>2315.4</ele>
        <time>2026-07-15T11:48:08Z</time>
      </trkpt>
      <trkpt lat="42.87927" lon="-0.18597">
        <ele>2315.4</ele>
        <time>2026-07-15T11:48:09Z</time>
      </trkpt>
      <trkpt lat="42.87927" lon="-0.18597">
        <ele>2316.4</ele>
        <time>2026-07-15T11:48:10Z</time>
      </trkpt>
      <trkpt lat="42.87927" lon="-0.18597">
        <ele>2316.4</ele>
        <time>2026-07-15T11:48:11Z</time>
      </trkpt>
      <trkpt lat="42.87927" lon="-0.18597">
        <ele>2315.4</ele>
        <time>2026-07-15T11:48:12Z</time>
      </trkpt>
      <trkpt lat="42.87927" lon="-0.18597">
        <ele>2315.4</ele>
        <time>2026-07-15T11:48:13Z</time>
      </trkpt>
      <trkpt lat="42.87927" lon="-0.18597">
        <ele>2315.4</ele>
        <time>2026-07-15T11:48:14Z</time>
      </trkpt>
      <trkpt lat="42.87927" lon="-0.18597">
        <ele>2315.4</ele>
        <time>2026-07-15T11:48:15Z</time>
      </trkpt>
      <trkpt lat="42.87927" lon="-0.18597">
        <ele>2314.4</ele>
        <time>2026-07-15T11:48:15Z</time>
      </trkpt>
      <trkpt lat="42.87927" lon="-0.18597">
        <ele>2314.4</ele>
        <time>2026-07-15T11:48:16Z</time>
      </trkpt>
      <trkpt lat="42.87927" lon="-0.18597">
        <ele>2314.4</ele>
        <time>2026-07-15T11:48:17Z</time>
      </trkpt>
      <trkpt lat="42.87927" lon="-0.18597">
        <ele>2314.4</ele>
        <time>2026-07-15T11:48:18Z</time>
      </trkpt>
      <trkpt lat="42.87927" lon="-0.18597">
        <ele>2315.4</ele>
        <time>2026-07-15T11:48:19Z</time>
      </trkpt>
      <trkpt lat="42.87927" lon="-0.18597">
        <ele>2315.4</ele>
        <time>2026-07-15T11:48:20Z</time>
      </trkpt>
      <trkpt lat="42.87926" lon="-0.18597">
        <ele>2315.4</ele>
        <time>2026-07-15T11:48:21Z</time>
      </trkpt>
      <trkpt lat="42.87926" lon="-0.18597">
        <ele>2315.4</ele>
        <time>2026-07-15T11:48:21Z</time>
      </trkpt>
      <trkpt lat="42.87926" lon="-0.18597">
        <ele>2315.4</ele>
        <time>2026-07-15T11:48:22Z</time>
      </trkpt>
      <trkpt lat="42.87926" lon="-0.18597">
        <ele>2315.4</ele>
        <time>2026-07-15T11:48:23Z</time>
      </trkpt>
      <trkpt lat="42.87926" lon="-0.18597">
        <ele>2315.4</ele>
        <time>2026-07-15T11:48:24Z</time>
      </trkpt>
      <trkpt lat="42.87926" lon="-0.18597">
        <ele>2315.4</ele>
        <time>2026-07-15T11:48:25Z</time>
      </trkpt>
      <trkpt lat="42.87926" lon="-0.18597">
        <ele>2315.4</ele>
        <time>2026-07-15T11:48:26Z</time>
      </trkpt>
      <trkpt lat="42.87926" lon="-0.18597">
        <ele>2315.4</ele>
        <time>2026-07-15T11:48:27Z</time>
      </trkpt>
      <trkpt lat="42.87926" lon="-0.18597">
        <ele>2315.4</ele>
        <time>2026-07-15T11:48:28Z</time>
      </trkpt>
      <trkpt lat="42.87926" lon="-0.18597">
        <ele>2315.4</ele>
        <time>2026-07-15T11:48:29Z</time>
      </trkpt>
      <trkpt lat="42.87926" lon="-0.18598">
        <ele>2315.4</ele>
        <time>2026-07-15T11:48:30Z</time>
      </trkpt>
      <trkpt lat="42.87925" lon="-0.18597">
        <ele>2315.4</ele>
        <time>2026-07-15T11:48:31Z</time>
      </trkpt>
      <trkpt lat="42.87925" lon="-0.18598">
        <ele>2315.4</ele>
        <time>2026-07-15T11:48:32Z</time>
      </trkpt>
      <trkpt lat="42.87925" lon="-0.18598">
        <ele>2315.4</ele>
        <time>2026-07-15T11:48:33Z</time>
      </trkpt>
      <trkpt lat="42.87925" lon="-0.18597">
        <ele>2315.4</ele>
        <time>2026-07-15T11:48:34Z</time>
      </trkpt>
      <trkpt lat="42.87925" lon="-0.18597">
        <ele>2315.4</ele>
        <time>2026-07-15T11:48:35Z</time>
      </trkpt>
      <trkpt lat="42.87924" lon="-0.18597">
        <ele>2315.4</ele>
        <time>2026-07-15T11:48:36Z</time>
      </trkpt>
      <trkpt lat="42.87924" lon="-0.18597">
        <ele>2315.4</ele>
        <time>2026-07-15T11:48:37Z</time>
      </trkpt>
      <trkpt lat="42.87924" lon="-0.18596">
        <ele>2314.4</ele>
        <time>2026-07-15T11:48:38Z</time>
      </trkpt>
      <trkpt lat="42.87924" lon="-0.18596">
        <ele>2314.4</ele>
        <time>2026-07-15T11:48:39Z</time>
      </trkpt>
      <trkpt lat="42.87924" lon="-0.18596">
        <ele>2314.4</ele>
        <time>2026-07-15T11:48:40Z</time>
      </trkpt>
      <trkpt lat="42.87924" lon="-0.18596">
        <ele>2314.4</ele>
        <time>2026-07-15T11:48:41Z</time>
      </trkpt>
      <trkpt lat="42.87923" lon="-0.18596">
        <ele>2314.4</ele>
        <time>2026-07-15T11:48:42Z</time>
      </trkpt>
      <trkpt lat="42.87923" lon="-0.18596">
        <ele>2313.4</ele>
        <time>2026-07-15T11:48:42Z</time>
      </trkpt>
      <trkpt lat="42.87923" lon="-0.18596">
        <ele>2313.4</ele>
        <time>2026-07-15T11:48:43Z</time>
      </trkpt>
      <trkpt lat="42.87923" lon="-0.18596">
        <ele>2313.4</ele>
        <time>2026-07-15T11:48:44Z</time>
      </trkpt>
      <trkpt lat="42.87923" lon="-0.18596">
        <ele>2313.4</ele>
        <time>2026-07-15T11:48:45Z</time>
      </trkpt>
      <trkpt lat="42.87922" lon="-0.18596">
        <ele>2313.4</ele>
        <time>2026-07-15T11:48:45Z</time>
      </trkpt>
      <trkpt lat="42.87922" lon="-0.18596">
        <ele>2313.4</ele>
        <time>2026-07-15T11:48:46Z</time>
      </trkpt>
      <trkpt lat="42.87922" lon="-0.18597">
        <ele>2313.4</ele>
        <time>2026-07-15T11:48:47Z</time>
      </trkpt>
      <trkpt lat="42.87921" lon="-0.18597">
        <ele>2313.4</ele>
        <time>2026-07-15T11:48:47Z</time>
      </trkpt>
      <trkpt lat="42.87921" lon="-0.18597">
        <ele>2314.4</ele>
        <time>2026-07-15T11:48:48Z</time>
      </trkpt>
      <trkpt lat="42.87921" lon="-0.18597">
        <ele>2314.4</ele>
        <time>2026-07-15T11:48:49Z</time>
      </trkpt>
      <trkpt lat="42.8792" lon="-0.18598">
        <ele>2313.4</ele>
        <time>2026-07-15T11:48:50Z</time>
      </trkpt>
      <trkpt lat="42.8792" lon="-0.18598">
        <ele>2313.4</ele>
        <time>2026-07-15T11:48:51Z</time>
      </trkpt>
      <trkpt lat="42.8792" lon="-0.18598">
        <ele>2312.4</ele>
        <time>2026-07-15T11:48:52Z</time>
      </trkpt>
      <trkpt lat="42.8792" lon="-0.18598">
        <ele>2312.4</ele>
        <time>2026-07-15T11:48:52Z</time>
      </trkpt>
      <trkpt lat="42.87919" lon="-0.18598">
        <ele>2312.4</ele>
        <time>2026-07-15T11:48:53Z</time>
      </trkpt>
      <trkpt lat="42.87919" lon="-0.18599">
        <ele>2312.4</ele>
        <time>2026-07-15T11:48:54Z</time>
      </trkpt>
      <trkpt lat="42.87919" lon="-0.18599">
        <ele>2312.4</ele>
        <time>2026-07-15T11:48:55Z</time>
      </trkpt>
      <trkpt lat="42.87918" lon="-0.186">
        <ele>2312.4</ele>
        <time>2026-07-15T11:48:56Z</time>
      </trkpt>
      <trkpt lat="42.87918" lon="-0.186">
        <ele>2312.4</ele>
        <time>2026-07-15T11:48:56Z</time>
      </trkpt>
      <trkpt lat="42.87917" lon="-0.18601">
        <ele>2312.4</ele>
        <time>2026-07-15T11:48:57Z</time>
      </trkpt>
      <trkpt lat="42.87917" lon="-0.18601">
        <ele>2312.4</ele>
        <time>2026-07-15T11:48:57Z</time>
      </trkpt>
      <trkpt lat="42.87916" lon="-0.18602">
        <ele>2312.4</ele>
        <time>2026-07-15T11:48:58Z</time>
      </trkpt>
      <trkpt lat="42.87916" lon="-0.18603">
        <ele>2313.4</ele>
        <time>2026-07-15T11:48:59Z</time>
      </trkpt>
      <trkpt lat="42.87915" lon="-0.18604">
        <ele>2313.4</ele>
        <time>2026-07-15T11:49:00Z</time>
      </trkpt>
      <trkpt lat="42.87915" lon="-0.18605">
        <ele>2313.4</ele>
        <time>2026-07-15T11:49:01Z</time>
      </trkpt>
      <trkpt lat="42.87914" lon="-0.18606">
        <ele>2313.4</ele>
        <time>2026-07-15T11:49:02Z</time>
      </trkpt>
      <trkpt lat="42.87914" lon="-0.18606">
        <ele>2312.4</ele>
        <time>2026-07-15T11:49:03Z</time>
      </trkpt>
      <trkpt lat="42.87914" lon="-0.18606">
        <ele>2312.4</ele>
        <time>2026-07-15T11:49:03Z</time>
      </trkpt>
      <trkpt lat="42.87914" lon="-0.18607">
        <ele>2312.4</ele>
        <time>2026-07-15T11:49:04Z</time>
      </trkpt>
      <trkpt lat="42.87913" lon="-0.18608">
        <ele>2313.4</ele>
        <time>2026-07-15T11:49:05Z</time>
      </trkpt>
      <trkpt lat="42.87913" lon="-0.18608">
        <ele>2313.4</ele>
        <time>2026-07-15T11:49:05Z</time>
      </trkpt>
      <trkpt lat="42.87913" lon="-0.18609">
        <ele>2313.4</ele>
        <time>2026-07-15T11:49:06Z</time>
      </trkpt>
      <trkpt lat="42.87912" lon="-0.18609">
        <ele>2313.4</ele>
        <time>2026-07-15T11:49:06Z</time>
      </trkpt>
      <trkpt lat="42.87912" lon="-0.1861">
        <ele>2313.4</ele>
        <time>2026-07-15T11:49:07Z</time>
      </trkpt>
      <trkpt lat="42.87911" lon="-0.1861">
        <ele>2313.4</ele>
        <time>2026-07-15T11:49:08Z</time>
      </trkpt>
      <trkpt lat="42.87911" lon="-0.1861">
        <ele>2313.4</ele>
        <time>2026-07-15T11:49:08Z</time>
      </trkpt>
      <trkpt lat="42.87911" lon="-0.18611">
        <ele>2313.4</ele>
        <time>2026-07-15T11:49:09Z</time>
      </trkpt>
      <trkpt lat="42.8791" lon="-0.18612">
        <ele>2313.4</ele>
        <time>2026-07-15T11:49:10Z</time>
      </trkpt>
      <trkpt lat="42.8791" lon="-0.18612">
        <ele>2313.4</ele>
        <time>2026-07-15T11:49:10Z</time>
      </trkpt>
      <trkpt lat="42.87909" lon="-0.18613">
        <ele>2313.4</ele>
        <time>2026-07-15T11:49:11Z</time>
      </trkpt>
      <trkpt lat="42.87909" lon="-0.18614">
        <ele>2314.4</ele>
        <time>2026-07-15T11:49:12Z</time>
      </trkpt>
      <trkpt lat="42.87909" lon="-0.18614">
        <ele>2313.4</ele>
        <time>2026-07-15T11:49:12Z</time>
      </trkpt>
      <trkpt lat="42.87908" lon="-0.18614">
        <ele>2312.4</ele>
        <time>2026-07-15T11:49:13Z</time>
      </trkpt>
      <trkpt lat="42.87908" lon="-0.18614">
        <ele>2312.4</ele>
        <time>2026-07-15T11:49:14Z</time>
      </trkpt>
      <trkpt lat="42.87909" lon="-0.18613">
        <ele>2312.4</ele>
        <time>2026-07-15T11:49:15Z</time>
      </trkpt>
      <trkpt lat="42.87909" lon="-0.18613">
        <ele>2312.4</ele>
        <time>2026-07-15T11:49:16Z</time>
      </trkpt>
      <trkpt lat="42.87909" lon="-0.18613">
        <ele>2312.4</ele>
        <time>2026-07-15T11:49:17Z</time>
      </trkpt>
      <trkpt lat="42.8791" lon="-0.18612">
        <ele>2312.4</ele>
        <time>2026-07-15T11:49:18Z</time>
      </trkpt>
      <trkpt lat="42.87909" lon="-0.18612">
        <ele>2312.4</ele>
        <time>2026-07-15T11:49:19Z</time>
      </trkpt>
      <trkpt lat="42.87909" lon="-0.18612">
        <ele>2313.4</ele>
        <time>2026-07-15T11:49:20Z</time>
      </trkpt>
      <trkpt lat="42.87909" lon="-0.18612">
        <ele>2313.4</ele>
        <time>2026-07-15T11:49:21Z</time>
      </trkpt>
      <trkpt lat="42.87909" lon="-0.18612">
        <ele>2312.4</ele>
        <time>2026-07-15T11:49:21Z</time>
      </trkpt>
      <trkpt lat="42.87909" lon="-0.18612">
        <ele>2312.4</ele>
        <time>2026-07-15T11:49:22Z</time>
      </trkpt>
      <trkpt lat="42.87909" lon="-0.18612">
        <ele>2312.4</ele>
        <time>2026-07-15T11:49:23Z</time>
      </trkpt>
      <trkpt lat="42.87909" lon="-0.18612">
        <ele>2313.4</ele>
        <time>2026-07-15T11:49:24Z</time>
      </trkpt>
      <trkpt lat="42.87908" lon="-0.18612">
        <ele>2312.4</ele>
        <time>2026-07-15T11:49:24Z</time>
      </trkpt>
      <trkpt lat="42.87908" lon="-0.18612">
        <ele>2312.4</ele>
        <time>2026-07-15T11:49:25Z</time>
      </trkpt>
      <trkpt lat="42.87908" lon="-0.18613">
        <ele>2312.4</ele>
        <time>2026-07-15T11:49:26Z</time>
      </trkpt>
      <trkpt lat="42.87907" lon="-0.18613">
        <ele>2312.4</ele>
        <time>2026-07-15T11:49:26Z</time>
      </trkpt>
      <trkpt lat="42.87906" lon="-0.18614">
        <ele>2312.4</ele>
        <time>2026-07-15T11:49:27Z</time>
      </trkpt>
      <trkpt lat="42.87906" lon="-0.18614">
        <ele>2312.4</ele>
        <time>2026-07-15T11:49:28Z</time>
      </trkpt>
      <trkpt lat="42.87906" lon="-0.18615">
        <ele>2312.4</ele>
        <time>2026-07-15T11:49:28Z</time>
      </trkpt>
      <trkpt lat="42.87905" lon="-0.18616">
        <ele>2312.4</ele>
        <time>2026-07-15T11:49:29Z</time>
      </trkpt>
      <trkpt lat="42.87904" lon="-0.18617">
        <ele>2312.4</ele>
        <time>2026-07-15T11:49:30Z</time>
      </trkpt>
      <trkpt lat="42.87903" lon="-0.18618">
        <ele>2311.4</ele>
        <time>2026-07-15T11:49:31Z</time>
      </trkpt>
      <trkpt lat="42.87903" lon="-0.18619">
        <ele>2311.4</ele>
        <time>2026-07-15T11:49:31Z</time>
      </trkpt>
      <trkpt lat="42.87903" lon="-0.1862">
        <ele>2312.4</ele>
        <time>2026-07-15T11:49:32Z</time>
      </trkpt>
      <trkpt lat="42.87902" lon="-0.1862">
        <ele>2312.4</ele>
        <time>2026-07-15T11:49:32Z</time>
      </trkpt>
      <trkpt lat="42.87902" lon="-0.1862">
        <ele>2312.4</ele>
        <time>2026-07-15T11:49:33Z</time>
      </trkpt>
      <trkpt lat="42.87902" lon="-0.18621">
        <ele>2312.4</ele>
        <time>2026-07-15T11:49:34Z</time>
      </trkpt>
      <trkpt lat="42.87901" lon="-0.18622">
        <ele>2312.4</ele>
        <time>2026-07-15T11:49:35Z</time>
      </trkpt>
      <trkpt lat="42.879" lon="-0.18622">
        <ele>2311.4</ele>
        <time>2026-07-15T11:49:36Z</time>
      </trkpt>
      <trkpt lat="42.87899" lon="-0.18623">
        <ele>2311.4</ele>
        <time>2026-07-15T11:49:37Z</time>
      </trkpt>
      <trkpt lat="42.87899" lon="-0.18623">
        <ele>2311.4</ele>
        <time>2026-07-15T11:49:38Z</time>
      </trkpt>
      <trkpt lat="42.87899" lon="-0.18623">
        <ele>2311.4</ele>
        <time>2026-07-15T11:49:38Z</time>
      </trkpt>
      <trkpt lat="42.87898" lon="-0.18623">
        <ele>2310.4</ele>
        <time>2026-07-15T11:49:39Z</time>
      </trkpt>
      <trkpt lat="42.87898" lon="-0.18623">
        <ele>2310.4</ele>
        <time>2026-07-15T11:49:40Z</time>
      </trkpt>
      <trkpt lat="42.87898" lon="-0.18624">
        <ele>2310.4</ele>
        <time>2026-07-15T11:49:41Z</time>
      </trkpt>
      <trkpt lat="42.87898" lon="-0.18624">
        <ele>2309.4</ele>
        <time>2026-07-15T11:49:41Z</time>
      </trkpt>
      <trkpt lat="42.87898" lon="-0.18624">
        <ele>2308.4</ele>
        <time>2026-07-15T11:49:42Z</time>
      </trkpt>
      <trkpt lat="42.87898" lon="-0.18625">
        <ele>2308.4</ele>
        <time>2026-07-15T11:49:43Z</time>
      </trkpt>
      <trkpt lat="42.87898" lon="-0.18625">
        <ele>2308.4</ele>
        <time>2026-07-15T11:49:44Z</time>
      </trkpt>
      <trkpt lat="42.87898" lon="-0.18625">
        <ele>2308.4</ele>
        <time>2026-07-15T11:49:45Z</time>
      </trkpt>
      <trkpt lat="42.87898" lon="-0.18625">
        <ele>2308.4</ele>
        <time>2026-07-15T11:49:46Z</time>
      </trkpt>
      <trkpt lat="42.87898" lon="-0.18626">
        <ele>2307.4</ele>
        <time>2026-07-15T11:49:47Z</time>
      </trkpt>
      <trkpt lat="42.87898" lon="-0.18626">
        <ele>2306.4</ele>
        <time>2026-07-15T11:49:48Z</time>
      </trkpt>
      <trkpt lat="42.87898" lon="-0.18626">
        <ele>2306.4</ele>
        <time>2026-07-15T11:49:49Z</time>
      </trkpt>
      <trkpt lat="42.87898" lon="-0.18627">
        <ele>2306.4</ele>
        <time>2026-07-15T11:49:50Z</time>
      </trkpt>
      <trkpt lat="42.87898" lon="-0.18627">
        <ele>2306.4</ele>
        <time>2026-07-15T11:49:50Z</time>
      </trkpt>
      <trkpt lat="42.87898" lon="-0.18628">
        <ele>2306.4</ele>
        <time>2026-07-15T11:49:51Z</time>
      </trkpt>
      <trkpt lat="42.87898" lon="-0.18629">
        <ele>2306.4</ele>
        <time>2026-07-15T11:49:52Z</time>
      </trkpt>
      <trkpt lat="42.87898" lon="-0.1863">
        <ele>2305.4</ele>
        <time>2026-07-15T11:49:52Z</time>
      </trkpt>
      <trkpt lat="42.87897" lon="-0.1863">
        <ele>2305.4</ele>
        <time>2026-07-15T11:49:53Z</time>
      </trkpt>
      <trkpt lat="42.87897" lon="-0.18632">
        <ele>2305.4</ele>
        <time>2026-07-15T11:49:54Z</time>
      </trkpt>
      <trkpt lat="42.87896" lon="-0.18633">
        <ele>2306.4</ele>
        <time>2026-07-15T11:49:55Z</time>
      </trkpt>
      <trkpt lat="42.87896" lon="-0.18634">
        <ele>2306.4</ele>
        <time>2026-07-15T11:49:56Z</time>
      </trkpt>
      <trkpt lat="42.87896" lon="-0.18634">
        <ele>2307.4</ele>
        <time>2026-07-15T11:49:57Z</time>
      </trkpt>
      <trkpt lat="42.87896" lon="-0.18635">
        <ele>2307.4</ele>
        <time>2026-07-15T11:49:57Z</time>
      </trkpt>
      <trkpt lat="42.87895" lon="-0.18635">
        <ele>2307.4</ele>
        <time>2026-07-15T11:49:58Z</time>
      </trkpt>
      <trkpt lat="42.87896" lon="-0.18634">
        <ele>2307.4</ele>
        <time>2026-07-15T11:49:59Z</time>
      </trkpt>
      <trkpt lat="42.87896" lon="-0.18634">
        <ele>2307.4</ele>
        <time>2026-07-15T11:50:00Z</time>
      </trkpt>
      <trkpt lat="42.87896" lon="-0.18634">
        <ele>2308.4</ele>
        <time>2026-07-15T11:50:01Z</time>
      </trkpt>
      <trkpt lat="42.87896" lon="-0.18634">
        <ele>2308.4</ele>
        <time>2026-07-15T11:50:01Z</time>
      </trkpt>
      <trkpt lat="42.87896" lon="-0.18634">
        <ele>2308.4</ele>
        <time>2026-07-15T11:50:01Z</time>
      </trkpt>
      <trkpt lat="42.87896" lon="-0.18633">
        <ele>2308.4</ele>
        <time>2026-07-15T11:50:02Z</time>
      </trkpt>
      <trkpt lat="42.87895" lon="-0.18633">
        <ele>2308.4</ele>
        <time>2026-07-15T11:50:03Z</time>
      </trkpt>
      <trkpt lat="42.87895" lon="-0.18633">
        <ele>2308.4</ele>
        <time>2026-07-15T11:50:04Z</time>
      </trkpt>
      <trkpt lat="42.87895" lon="-0.18633">
        <ele>2308.4</ele>
        <time>2026-07-15T11:50:05Z</time>
      </trkpt>
      <trkpt lat="42.87895" lon="-0.18633">
        <ele>2308.4</ele>
        <time>2026-07-15T11:50:05Z</time>
      </trkpt>
      <trkpt lat="42.87895" lon="-0.18633">
        <ele>2308.4</ele>
        <time>2026-07-15T11:50:06Z</time>
      </trkpt>
      <trkpt lat="42.87895" lon="-0.18633">
        <ele>2307.4</ele>
        <time>2026-07-15T11:50:07Z</time>
      </trkpt>
      <trkpt lat="42.87895" lon="-0.18632">
        <ele>2308.4</ele>
        <time>2026-07-15T11:50:07Z</time>
      </trkpt>
      <trkpt lat="42.87895" lon="-0.18632">
        <ele>2308.4</ele>
        <time>2026-07-15T11:50:08Z</time>
      </trkpt>
      <trkpt lat="42.87895" lon="-0.18632">
        <ele>2308.4</ele>
        <time>2026-07-15T11:50:09Z</time>
      </trkpt>
      <trkpt lat="42.87895" lon="-0.18632">
        <ele>2308.4</ele>
        <time>2026-07-15T11:50:10Z</time>
      </trkpt>
      <trkpt lat="42.87895" lon="-0.18632">
        <ele>2308.4</ele>
        <time>2026-07-15T11:50:11Z</time>
      </trkpt>
      <trkpt lat="42.87895" lon="-0.18632">
        <ele>2308.4</ele>
        <time>2026-07-15T11:50:12Z</time>
      </trkpt>
      <trkpt lat="42.87895" lon="-0.18632">
        <ele>2308.4</ele>
        <time>2026-07-15T11:50:13Z</time>
      </trkpt>
      <trkpt lat="42.87895" lon="-0.18632">
        <ele>2308.4</ele>
        <time>2026-07-15T11:50:14Z</time>
      </trkpt>
      <trkpt lat="42.87895" lon="-0.18632">
        <ele>2308.4</ele>
        <time>2026-07-15T11:50:15Z</time>
      </trkpt>
      <trkpt lat="42.87894" lon="-0.18632">
        <ele>2308.4</ele>
        <time>2026-07-15T11:50:16Z</time>
      </trkpt>
      <trkpt lat="42.87894" lon="-0.18632">
        <ele>2308.4</ele>
        <time>2026-07-15T11:50:17Z</time>
      </trkpt>
      <trkpt lat="42.87894" lon="-0.18632">
        <ele>2308.4</ele>
        <time>2026-07-15T11:50:18Z</time>
      </trkpt>
      <trkpt lat="42.87894" lon="-0.18632">
        <ele>2308.4</ele>
        <time>2026-07-15T11:50:19Z</time>
      </trkpt>
      <trkpt lat="42.87894" lon="-0.18632">
        <ele>2308.4</ele>
        <time>2026-07-15T11:50:20Z</time>
      </trkpt>
      <trkpt lat="42.87894" lon="-0.18632">
        <ele>2308.4</ele>
        <time>2026-07-15T11:50:21Z</time>
      </trkpt>
      <trkpt lat="42.87894" lon="-0.18632">
        <ele>2308.4</ele>
        <time>2026-07-15T11:50:22Z</time>
      </trkpt>
      <trkpt lat="42.87894" lon="-0.18632">
        <ele>2308.4</ele>
        <time>2026-07-15T11:50:23Z</time>
      </trkpt>
      <trkpt lat="42.87894" lon="-0.18632">
        <ele>2308.4</ele>
        <time>2026-07-15T11:50:24Z</time>
      </trkpt>
      <trkpt lat="42.87894" lon="-0.18632">
        <ele>2308.4</ele>
        <time>2026-07-15T11:50:25Z</time>
      </trkpt>
      <trkpt lat="42.87894" lon="-0.18632">
        <ele>2308.4</ele>
        <time>2026-07-15T11:50:26Z</time>
      </trkpt>
      <trkpt lat="42.87894" lon="-0.18632">
        <ele>2308.4</ele>
        <time>2026-07-15T11:50:27Z</time>
      </trkpt>
      <trkpt lat="42.87894" lon="-0.18632">
        <ele>2308.4</ele>
        <time>2026-07-15T11:50:28Z</time>
      </trkpt>
      <trkpt lat="42.87894" lon="-0.18632">
        <ele>2308.4</ele>
        <time>2026-07-15T11:50:29Z</time>
      </trkpt>
      <trkpt lat="42.87894" lon="-0.18632">
        <ele>2308.4</ele>
        <time>2026-07-15T11:50:30Z</time>
      </trkpt>
      <trkpt lat="42.87894" lon="-0.18632">
        <ele>2308.4</ele>
        <time>2026-07-15T11:50:31Z</time>
      </trkpt>
      <trkpt lat="42.87894" lon="-0.18632">
        <ele>2308.4</ele>
        <time>2026-07-15T11:50:32Z</time>
      </trkpt>
      <trkpt lat="42.87894" lon="-0.18632">
        <ele>2308.4</ele>
        <time>2026-07-15T11:50:33Z</time>
      </trkpt>
      <trkpt lat="42.87894" lon="-0.18632">
        <ele>2308.4</ele>
        <time>2026-07-15T11:50:34Z</time>
      </trkpt>
      <trkpt lat="42.87894" lon="-0.18632">
        <ele>2308.4</ele>
        <time>2026-07-15T11:50:35Z</time>
      </trkpt>
      <trkpt lat="42.87894" lon="-0.18632">
        <ele>2308.4</ele>
        <time>2026-07-15T11:50:36Z</time>
      </trkpt>
      <trkpt lat="42.87894" lon="-0.18632">
        <ele>2308.4</ele>
        <time>2026-07-15T11:50:37Z</time>
      </trkpt>
      <trkpt lat="42.87894" lon="-0.18632">
        <ele>2308.4</ele>
        <time>2026-07-15T11:50:38Z</time>
      </trkpt>
      <trkpt lat="42.87894" lon="-0.18632">
        <ele>2308.4</ele>
        <time>2026-07-15T11:50:39Z</time>
      </trkpt>
      <trkpt lat="42.87894" lon="-0.18632">
        <ele>2308.4</ele>
        <time>2026-07-15T11:50:40Z</time>
      </trkpt>
      <trkpt lat="42.87894" lon="-0.18632">
        <ele>2308.4</ele>
        <time>2026-07-15T11:50:41Z</time>
      </trkpt>
      <trkpt lat="42.87894" lon="-0.18632">
        <ele>2308.4</ele>
        <time>2026-07-15T11:50:42Z</time>
      </trkpt>
      <trkpt lat="42.87894" lon="-0.18632">
        <ele>2308.4</ele>
        <time>2026-07-15T11:50:43Z</time>
      </trkpt>
      <trkpt lat="42.87894" lon="-0.18632">
        <ele>2308.4</ele>
        <time>2026-07-15T11:50:44Z</time>
      </trkpt>
      <trkpt lat="42.87894" lon="-0.18632">
        <ele>2308.4</ele>
        <time>2026-07-15T11:50:45Z</time>
      </trkpt>
      <trkpt lat="42.87894" lon="-0.18632">
        <ele>2308.4</ele>
        <time>2026-07-15T11:50:46Z</time>
      </trkpt>
      <trkpt lat="42.87894" lon="-0.18632">
        <ele>2306.4</ele>
        <time>2026-07-15T11:50:46Z</time>
      </trkpt>
      <trkpt lat="42.87894" lon="-0.18632">
        <ele>2306.4</ele>
        <time>2026-07-15T11:50:47Z</time>
      </trkpt>
      <trkpt lat="42.87894" lon="-0.18632">
        <ele>2306.4</ele>
        <time>2026-07-15T11:50:48Z</time>
      </trkpt>
      <trkpt lat="42.87894" lon="-0.18632">
        <ele>2306.4</ele>
        <time>2026-07-15T11:50:49Z</time>
      </trkpt>
      <trkpt lat="42.87894" lon="-0.18632">
        <ele>2306.4</ele>
        <time>2026-07-15T11:50:50Z</time>
      </trkpt>
      <trkpt lat="42.87894" lon="-0.18632">
        <ele>2306.4</ele>
        <time>2026-07-15T11:50:51Z</time>
      </trkpt>
      <trkpt lat="42.87894" lon="-0.18632">
        <ele>2306.4</ele>
        <time>2026-07-15T11:50:52Z</time>
      </trkpt>
      <trkpt lat="42.87894" lon="-0.18632">
        <ele>2306.4</ele>
        <time>2026-07-15T11:50:53Z</time>
      </trkpt>
      <trkpt lat="42.87894" lon="-0.18631">
        <ele>2306.4</ele>
        <time>2026-07-15T11:50:54Z</time>
      </trkpt>
      <trkpt lat="42.87894" lon="-0.18631">
        <ele>2306.4</ele>
        <time>2026-07-15T11:50:55Z</time>
      </trkpt>
      <trkpt lat="42.87894" lon="-0.18631">
        <ele>2306.4</ele>
        <time>2026-07-15T11:50:55Z</time>
      </trkpt>
      <trkpt lat="42.87894" lon="-0.18631">
        <ele>2307.4</ele>
        <time>2026-07-15T11:50:56Z</time>
      </trkpt>
      <trkpt lat="42.87894" lon="-0.18632">
        <ele>2307.4</ele>
        <time>2026-07-15T11:50:57Z</time>
      </trkpt>
      <trkpt lat="42.87894" lon="-0.18632">
        <ele>2307.4</ele>
        <time>2026-07-15T11:50:57Z</time>
      </trkpt>
      <trkpt lat="42.87894" lon="-0.18632">
        <ele>2307.4</ele>
        <time>2026-07-15T11:50:58Z</time>
      </trkpt>
      <trkpt lat="42.87894" lon="-0.18632">
        <ele>2307.4</ele>
        <time>2026-07-15T11:50:59Z</time>
      </trkpt>
      <trkpt lat="42.87894" lon="-0.18632">
        <ele>2307.4</ele>
        <time>2026-07-15T11:51:00Z</time>
      </trkpt>
      <trkpt lat="42.87893" lon="-0.18633">
        <ele>2307.4</ele>
        <time>2026-07-15T11:51:01Z</time>
      </trkpt>
      <trkpt lat="42.87893" lon="-0.18633">
        <ele>2308.4</ele>
        <time>2026-07-15T11:51:01Z</time>
      </trkpt>
      <trkpt lat="42.87893" lon="-0.18633">
        <ele>2308.4</ele>
        <time>2026-07-15T11:51:02Z</time>
      </trkpt>
      <trkpt lat="42.87892" lon="-0.18634">
        <ele>2307.4</ele>
        <time>2026-07-15T11:51:02Z</time>
      </trkpt>
      <trkpt lat="42.87891" lon="-0.18634">
        <ele>2307.4</ele>
        <time>2026-07-15T11:51:03Z</time>
      </trkpt>
      <trkpt lat="42.8789" lon="-0.18635">
        <ele>2307.4</ele>
        <time>2026-07-15T11:51:03Z</time>
      </trkpt>
      <trkpt lat="42.87889" lon="-0.18636">
        <ele>2307.4</ele>
        <time>2026-07-15T11:51:04Z</time>
      </trkpt>
      <trkpt lat="42.87888" lon="-0.18637">
        <ele>2307.4</ele>
        <time>2026-07-15T11:51:05Z</time>
      </trkpt>
      <trkpt lat="42.87887" lon="-0.18638">
        <ele>2307.4</ele>
        <time>2026-07-15T11:51:05Z</time>
      </trkpt>
      <trkpt lat="42.87886" lon="-0.18638">
        <ele>2307.4</ele>
        <time>2026-07-15T11:51:06Z</time>
      </trkpt>
      <trkpt lat="42.87885" lon="-0.18638">
        <ele>2307.4</ele>
        <time>2026-07-15T11:51:07Z</time>
      </trkpt>
      <trkpt lat="42.87885" lon="-0.18639">
        <ele>2307.4</ele>
        <time>2026-07-15T11:51:07Z</time>
      </trkpt>
      <trkpt lat="42.87884" lon="-0.18639">
        <ele>2307.4</ele>
        <time>2026-07-15T11:51:08Z</time>
      </trkpt>
      <trkpt lat="42.87884" lon="-0.1864">
        <ele>2307.4</ele>
        <time>2026-07-15T11:51:08Z</time>
      </trkpt>
      <trkpt lat="42.87883" lon="-0.1864">
        <ele>2307.4</ele>
        <time>2026-07-15T11:51:09Z</time>
      </trkpt>
      <trkpt lat="42.87882" lon="-0.1864">
        <ele>2306.4</ele>
        <time>2026-07-15T11:51:10Z</time>
      </trkpt>
      <trkpt lat="42.87882" lon="-0.1864">
        <ele>2305.4</ele>
        <time>2026-07-15T11:51:10Z</time>
      </trkpt>
      <trkpt lat="42.87881" lon="-0.1864">
        <ele>2305.4</ele>
        <time>2026-07-15T11:51:11Z</time>
      </trkpt>
      <trkpt lat="42.87881" lon="-0.18641">
        <ele>2305.4</ele>
        <time>2026-07-15T11:51:11Z</time>
      </trkpt>
      <trkpt lat="42.8788" lon="-0.18641">
        <ele>2305.4</ele>
        <time>2026-07-15T11:51:12Z</time>
      </trkpt>
      <trkpt lat="42.87879" lon="-0.18641">
        <ele>2305.4</ele>
        <time>2026-07-15T11:51:13Z</time>
      </trkpt>
      <trkpt lat="42.87879" lon="-0.18641">
        <ele>2305.4</ele>
        <time>2026-07-15T11:51:13Z</time>
      </trkpt>
      <trkpt lat="42.87878" lon="-0.18641">
        <ele>2305.4</ele>
        <time>2026-07-15T11:51:14Z</time>
      </trkpt>
      <trkpt lat="42.87878" lon="-0.18641">
        <ele>2305.4</ele>
        <time>2026-07-15T11:51:14Z</time>
      </trkpt>
      <trkpt lat="42.87878" lon="-0.18642">
        <ele>2305.4</ele>
        <time>2026-07-15T11:51:15Z</time>
      </trkpt>
      <trkpt lat="42.87877" lon="-0.18642">
        <ele>2305.4</ele>
        <time>2026-07-15T11:51:16Z</time>
      </trkpt>
      <trkpt lat="42.87877" lon="-0.18642">
        <ele>2304.4</ele>
        <time>2026-07-15T11:51:16Z</time>
      </trkpt>
      <trkpt lat="42.87876" lon="-0.18642">
        <ele>2303.4</ele>
        <time>2026-07-15T11:51:17Z</time>
      </trkpt>
      <trkpt lat="42.87876" lon="-0.18642">
        <ele>2303.4</ele>
        <time>2026-07-15T11:51:18Z</time>
      </trkpt>
      <trkpt lat="42.87875" lon="-0.18643">
        <ele>2302.4</ele>
        <time>2026-07-15T11:51:19Z</time>
      </trkpt>
      <trkpt lat="42.87874" lon="-0.18644">
        <ele>2302.4</ele>
        <time>2026-07-15T11:51:20Z</time>
      </trkpt>
      <trkpt lat="42.87873" lon="-0.18644">
        <ele>2302.4</ele>
        <time>2026-07-15T11:51:21Z</time>
      </trkpt>
      <trkpt lat="42.87873" lon="-0.18645">
        <ele>2302.4</ele>
        <time>2026-07-15T11:51:21Z</time>
      </trkpt>
      <trkpt lat="42.87872" lon="-0.18645">
        <ele>2301.4</ele>
        <time>2026-07-15T11:51:22Z</time>
      </trkpt>
      <trkpt lat="42.87872" lon="-0.18646">
        <ele>2301.4</ele>
        <time>2026-07-15T11:51:23Z</time>
      </trkpt>
      <trkpt lat="42.87871" lon="-0.18647">
        <ele>2301.4</ele>
        <time>2026-07-15T11:51:24Z</time>
      </trkpt>
      <trkpt lat="42.87871" lon="-0.18648">
        <ele>2300.4</ele>
        <time>2026-07-15T11:51:24Z</time>
      </trkpt>
      <trkpt lat="42.8787" lon="-0.18649">
        <ele>2300.4</ele>
        <time>2026-07-15T11:51:25Z</time>
      </trkpt>
      <trkpt lat="42.87869" lon="-0.1865">
        <ele>2301.4</ele>
        <time>2026-07-15T11:51:26Z</time>
      </trkpt>
      <trkpt lat="42.87869" lon="-0.18651">
        <ele>2301.4</ele>
        <time>2026-07-15T11:51:27Z</time>
      </trkpt>
      <trkpt lat="42.87869" lon="-0.18651">
        <ele>2302.4</ele>
        <time>2026-07-15T11:51:27Z</time>
      </trkpt>
      <trkpt lat="42.87868" lon="-0.18652">
        <ele>2302.4</ele>
        <time>2026-07-15T11:51:28Z</time>
      </trkpt>
      <trkpt lat="42.87868" lon="-0.18653">
        <ele>2301.4</ele>
        <time>2026-07-15T11:51:28Z</time>
      </trkpt>
      <trkpt lat="42.87867" lon="-0.18654">
        <ele>2301.4</ele>
        <time>2026-07-15T11:51:29Z</time>
      </trkpt>
      <trkpt lat="42.87867" lon="-0.18654">
        <ele>2302.4</ele>
        <time>2026-07-15T11:51:30Z</time>
      </trkpt>
      <trkpt lat="42.87867" lon="-0.18654">
        <ele>2301.4</ele>
        <time>2026-07-15T11:51:30Z</time>
      </trkpt>
      <trkpt lat="42.87866" lon="-0.18655">
        <ele>2301.4</ele>
        <time>2026-07-15T11:51:31Z</time>
      </trkpt>
      <trkpt lat="42.87866" lon="-0.18655">
        <ele>2301.4</ele>
        <time>2026-07-15T11:51:31Z</time>
      </trkpt>
      <trkpt lat="42.87866" lon="-0.18656">
        <ele>2301.4</ele>
        <time>2026-07-15T11:51:32Z</time>
      </trkpt>
      <trkpt lat="42.87866" lon="-0.18656">
        <ele>2301.4</ele>
        <time>2026-07-15T11:51:33Z</time>
      </trkpt>
      <trkpt lat="42.87866" lon="-0.18656">
        <ele>2300.4</ele>
        <time>2026-07-15T11:51:33Z</time>
      </trkpt>
      <trkpt lat="42.87865" lon="-0.18657">
        <ele>2300.4</ele>
        <time>2026-07-15T11:51:34Z</time>
      </trkpt>
      <trkpt lat="42.87865" lon="-0.18657">
        <ele>2299.4</ele>
        <time>2026-07-15T11:51:34Z</time>
      </trkpt>
      <trkpt lat="42.87865" lon="-0.18658">
        <ele>2299.4</ele>
        <time>2026-07-15T11:51:35Z</time>
      </trkpt>
      <trkpt lat="42.87865" lon="-0.18659">
        <ele>2299.4</ele>
        <time>2026-07-15T11:51:36Z</time>
      </trkpt>
      <trkpt lat="42.87864" lon="-0.18659">
        <ele>2299.4</ele>
        <time>2026-07-15T11:51:36Z</time>
      </trkpt>
      <trkpt lat="42.87864" lon="-0.18659">
        <ele>2299.4</ele>
        <time>2026-07-15T11:51:37Z</time>
      </trkpt>
      <trkpt lat="42.87864" lon="-0.1866">
        <ele>2299.4</ele>
        <time>2026-07-15T11:51:37Z</time>
      </trkpt>
      <trkpt lat="42.87863" lon="-0.1866">
        <ele>2299.4</ele>
        <time>2026-07-15T11:51:38Z</time>
      </trkpt>
      <trkpt lat="42.87863" lon="-0.18661">
        <ele>2299.4</ele>
        <time>2026-07-15T11:51:39Z</time>
      </trkpt>
      <trkpt lat="42.87863" lon="-0.18661">
        <ele>2298.4</ele>
        <time>2026-07-15T11:51:40Z</time>
      </trkpt>
      <trkpt lat="42.87862" lon="-0.18661">
        <ele>2298.4</ele>
        <time>2026-07-15T11:51:40Z</time>
      </trkpt>
      <trkpt lat="42.87862" lon="-0.18661">
        <ele>2298.4</ele>
        <time>2026-07-15T11:51:41Z</time>
      </trkpt>
      <trkpt lat="42.87861" lon="-0.18661">
        <ele>2298.4</ele>
        <time>2026-07-15T11:51:41Z</time>
      </trkpt>
      <trkpt lat="42.87861" lon="-0.18662">
        <ele>2298.4</ele>
        <time>2026-07-15T11:51:42Z</time>
      </trkpt>
      <trkpt lat="42.87861" lon="-0.18662">
        <ele>2297.4</ele>
        <time>2026-07-15T11:51:43Z</time>
      </trkpt>
      <trkpt lat="42.8786" lon="-0.18662">
        <ele>2297.4</ele>
        <time>2026-07-15T11:51:44Z</time>
      </trkpt>
      <trkpt lat="42.8786" lon="-0.18662">
        <ele>2297.4</ele>
        <time>2026-07-15T11:51:44Z</time>
      </trkpt>
      <trkpt lat="42.87859" lon="-0.18663">
        <ele>2297.4</ele>
        <time>2026-07-15T11:51:45Z</time>
      </trkpt>
      <trkpt lat="42.87858" lon="-0.18663">
        <ele>2296.4</ele>
        <time>2026-07-15T11:51:46Z</time>
      </trkpt>
      <trkpt lat="42.87858" lon="-0.18663">
        <ele>2295.4</ele>
        <time>2026-07-15T11:51:46Z</time>
      </trkpt>
      <trkpt lat="42.87857" lon="-0.18662">
        <ele>2295.4</ele>
        <time>2026-07-15T11:51:47Z</time>
      </trkpt>
      <trkpt lat="42.87857" lon="-0.18662">
        <ele>2295.4</ele>
        <time>2026-07-15T11:51:47Z</time>
      </trkpt>
      <trkpt lat="42.87857" lon="-0.18662">
        <ele>2294.4</ele>
        <time>2026-07-15T11:51:48Z</time>
      </trkpt>
      <trkpt lat="42.87856" lon="-0.18662">
        <ele>2294.4</ele>
        <time>2026-07-15T11:51:48Z</time>
      </trkpt>
      <trkpt lat="42.87856" lon="-0.18662">
        <ele>2294.4</ele>
        <time>2026-07-15T11:51:49Z</time>
      </trkpt>
      <trkpt lat="42.87855" lon="-0.18662">
        <ele>2293.4</ele>
        <time>2026-07-15T11:51:50Z</time>
      </trkpt>
      <trkpt lat="42.87855" lon="-0.18662">
        <ele>2293.4</ele>
        <time>2026-07-15T11:51:50Z</time>
      </trkpt>
      <trkpt lat="42.87854" lon="-0.18662">
        <ele>2293.4</ele>
        <time>2026-07-15T11:51:51Z</time>
      </trkpt>
      <trkpt lat="42.87854" lon="-0.18662">
        <ele>2293.4</ele>
        <time>2026-07-15T11:51:51Z</time>
      </trkpt>
      <trkpt lat="42.87854" lon="-0.18662">
        <ele>2293.4</ele>
        <time>2026-07-15T11:51:52Z</time>
      </trkpt>
      <trkpt lat="42.87853" lon="-0.18662">
        <ele>2293.4</ele>
        <time>2026-07-15T11:51:53Z</time>
      </trkpt>
      <trkpt lat="42.87853" lon="-0.18662">
        <ele>2293.4</ele>
        <time>2026-07-15T11:51:54Z</time>
      </trkpt>
      <trkpt lat="42.87853" lon="-0.18662">
        <ele>2293.4</ele>
        <time>2026-07-15T11:51:54Z</time>
      </trkpt>
      <trkpt lat="42.87852" lon="-0.18662">
        <ele>2293.4</ele>
        <time>2026-07-15T11:51:55Z</time>
      </trkpt>
      <trkpt lat="42.87852" lon="-0.18662">
        <ele>2292.4</ele>
        <time>2026-07-15T11:51:56Z</time>
      </trkpt>
      <trkpt lat="42.87852" lon="-0.18662">
        <ele>2292.4</ele>
        <time>2026-07-15T11:51:56Z</time>
      </trkpt>
      <trkpt lat="42.87852" lon="-0.18662">
        <ele>2292.4</ele>
        <time>2026-07-15T11:51:57Z</time>
      </trkpt>
      <trkpt lat="42.87851" lon="-0.18662">
        <ele>2292.4</ele>
        <time>2026-07-15T11:51:58Z</time>
      </trkpt>
      <trkpt lat="42.87851" lon="-0.18662">
        <ele>2292.4</ele>
        <time>2026-07-15T11:51:58Z</time>
      </trkpt>
      <trkpt lat="42.87851" lon="-0.18662">
        <ele>2292.4</ele>
        <time>2026-07-15T11:51:59Z</time>
      </trkpt>
      <trkpt lat="42.8785" lon="-0.18662">
        <ele>2292.4</ele>
        <time>2026-07-15T11:52:00Z</time>
      </trkpt>
      <trkpt lat="42.8785" lon="-0.18663">
        <ele>2292.4</ele>
        <time>2026-07-15T11:52:01Z</time>
      </trkpt>
      <trkpt lat="42.8785" lon="-0.18663">
        <ele>2292.4</ele>
        <time>2026-07-15T11:52:01Z</time>
      </trkpt>
      <trkpt lat="42.8785" lon="-0.18663">
        <ele>2292.4</ele>
        <time>2026-07-15T11:52:02Z</time>
      </trkpt>
      <trkpt lat="42.87849" lon="-0.18664">
        <ele>2292.4</ele>
        <time>2026-07-15T11:52:03Z</time>
      </trkpt>
      <trkpt lat="42.87849" lon="-0.18664">
        <ele>2292.4</ele>
        <time>2026-07-15T11:52:04Z</time>
      </trkpt>
      <trkpt lat="42.87849" lon="-0.18664">
        <ele>2292.4</ele>
        <time>2026-07-15T11:52:04Z</time>
      </trkpt>
      <trkpt lat="42.87849" lon="-0.18665">
        <ele>2292.4</ele>
        <time>2026-07-15T11:52:05Z</time>
      </trkpt>
      <trkpt lat="42.87848" lon="-0.18665">
        <ele>2292.4</ele>
        <time>2026-07-15T11:52:06Z</time>
      </trkpt>
      <trkpt lat="42.87848" lon="-0.18665">
        <ele>2292.4</ele>
        <time>2026-07-15T11:52:07Z</time>
      </trkpt>
      <trkpt lat="42.87847" lon="-0.18665">
        <ele>2292.4</ele>
        <time>2026-07-15T11:52:08Z</time>
      </trkpt>
      <trkpt lat="42.87847" lon="-0.18666">
        <ele>2292.4</ele>
        <time>2026-07-15T11:52:08Z</time>
      </trkpt>
      <trkpt lat="42.87847" lon="-0.18666">
        <ele>2292.4</ele>
        <time>2026-07-15T11:52:09Z</time>
      </trkpt>
      <trkpt lat="42.87846" lon="-0.18666">
        <ele>2291.4</ele>
        <time>2026-07-15T11:52:09Z</time>
      </trkpt>
      <trkpt lat="42.87846" lon="-0.18667">
        <ele>2291.4</ele>
        <time>2026-07-15T11:52:10Z</time>
      </trkpt>
      <trkpt lat="42.87846" lon="-0.18667">
        <ele>2291.4</ele>
        <time>2026-07-15T11:52:11Z</time>
      </trkpt>
      <trkpt lat="42.87846" lon="-0.18667">
        <ele>2292.4</ele>
        <time>2026-07-15T11:52:11Z</time>
      </trkpt>
      <trkpt lat="42.87846" lon="-0.18668">
        <ele>2292.4</ele>
        <time>2026-07-15T11:52:11Z</time>
      </trkpt>
      <trkpt lat="42.87846" lon="-0.18668">
        <ele>2292.4</ele>
        <time>2026-07-15T11:52:12Z</time>
      </trkpt>
      <trkpt lat="42.87846" lon="-0.18668">
        <ele>2292.4</ele>
        <time>2026-07-15T11:52:13Z</time>
      </trkpt>
      <trkpt lat="42.87846" lon="-0.18669">
        <ele>2292.4</ele>
        <time>2026-07-15T11:52:14Z</time>
      </trkpt>
      <trkpt lat="42.87846" lon="-0.18669">
        <ele>2292.4</ele>
        <time>2026-07-15T11:52:14Z</time>
      </trkpt>
      <trkpt lat="42.87846" lon="-0.18669">
        <ele>2292.4</ele>
        <time>2026-07-15T11:52:15Z</time>
      </trkpt>
      <trkpt lat="42.87846" lon="-0.18669">
        <ele>2292.4</ele>
        <time>2026-07-15T11:52:15Z</time>
      </trkpt>
      <trkpt lat="42.87846" lon="-0.18669">
        <ele>2291.4</ele>
        <time>2026-07-15T11:52:16Z</time>
      </trkpt>
      <trkpt lat="42.87846" lon="-0.18669">
        <ele>2291.4</ele>
        <time>2026-07-15T11:52:17Z</time>
      </trkpt>
      <trkpt lat="42.87846" lon="-0.18669">
        <ele>2291.4</ele>
        <time>2026-07-15T11:52:18Z</time>
      </trkpt>
      <trkpt lat="42.87846" lon="-0.18669">
        <ele>2290.4</ele>
        <time>2026-07-15T11:52:19Z</time>
      </trkpt>
      <trkpt lat="42.87846" lon="-0.18669">
        <ele>2290.4</ele>
        <time>2026-07-15T11:52:20Z</time>
      </trkpt>
      <trkpt lat="42.87846" lon="-0.18669">
        <ele>2290.4</ele>
        <time>2026-07-15T11:52:21Z</time>
      </trkpt>
      <trkpt lat="42.87846" lon="-0.18669">
        <ele>2290.4</ele>
        <time>2026-07-15T11:52:22Z</time>
      </trkpt>
      <trkpt lat="42.87846" lon="-0.18669">
        <ele>2289.4</ele>
        <time>2026-07-15T11:52:23Z</time>
      </trkpt>
      <trkpt lat="42.87845" lon="-0.18669">
        <ele>2287.4</ele>
        <time>2026-07-15T11:52:24Z</time>
      </trkpt>
      <trkpt lat="42.87845" lon="-0.1867">
        <ele>2286.4</ele>
        <time>2026-07-15T11:52:25Z</time>
      </trkpt>
      <trkpt lat="42.87845" lon="-0.1867">
        <ele>2286.4</ele>
        <time>2026-07-15T11:52:25Z</time>
      </trkpt>
      <trkpt lat="42.87845" lon="-0.18671">
        <ele>2286.4</ele>
        <time>2026-07-15T11:52:26Z</time>
      </trkpt>
      <trkpt lat="42.87845" lon="-0.18671">
        <ele>2286.4</ele>
        <time>2026-07-15T11:52:27Z</time>
      </trkpt>
      <trkpt lat="42.87845" lon="-0.18672">
        <ele>2286.4</ele>
        <time>2026-07-15T11:52:28Z</time>
      </trkpt>
      <trkpt lat="42.87844" lon="-0.18673">
        <ele>2286.4</ele>
        <time>2026-07-15T11:52:29Z</time>
      </trkpt>
      <trkpt lat="42.87844" lon="-0.18673">
        <ele>2286.4</ele>
        <time>2026-07-15T11:52:29Z</time>
      </trkpt>
      <trkpt lat="42.87844" lon="-0.18674">
        <ele>2286.4</ele>
        <time>2026-07-15T11:52:30Z</time>
      </trkpt>
      <trkpt lat="42.87843" lon="-0.18675">
        <ele>2287.4</ele>
        <time>2026-07-15T11:52:30Z</time>
      </trkpt>
      <trkpt lat="42.87843" lon="-0.18675">
        <ele>2287.4</ele>
        <time>2026-07-15T11:52:31Z</time>
      </trkpt>
      <trkpt lat="42.87843" lon="-0.18676">
        <ele>2285.4</ele>
        <time>2026-07-15T11:52:31Z</time>
      </trkpt>
      <trkpt lat="42.87842" lon="-0.18677">
        <ele>2285.4</ele>
        <time>2026-07-15T11:52:32Z</time>
      </trkpt>
      <trkpt lat="42.87842" lon="-0.18677">
        <ele>2285.4</ele>
        <time>2026-07-15T11:52:33Z</time>
      </trkpt>
      <trkpt lat="42.87842" lon="-0.18677">
        <ele>2285.4</ele>
        <time>2026-07-15T11:52:33Z</time>
      </trkpt>
      <trkpt lat="42.87841" lon="-0.18677">
        <ele>2285.4</ele>
        <time>2026-07-15T11:52:34Z</time>
      </trkpt>
      <trkpt lat="42.8784" lon="-0.18677">
        <ele>2285.4</ele>
        <time>2026-07-15T11:52:35Z</time>
      </trkpt>
      <trkpt lat="42.8784" lon="-0.18677">
        <ele>2285.4</ele>
        <time>2026-07-15T11:52:35Z</time>
      </trkpt>
      <trkpt lat="42.8784" lon="-0.18676">
        <ele>2285.4</ele>
        <time>2026-07-15T11:52:36Z</time>
      </trkpt>
      <trkpt lat="42.87839" lon="-0.18676">
        <ele>2285.4</ele>
        <time>2026-07-15T11:52:37Z</time>
      </trkpt>
      <trkpt lat="42.87839" lon="-0.18675">
        <ele>2285.4</ele>
        <time>2026-07-15T11:52:37Z</time>
      </trkpt>
      <trkpt lat="42.87839" lon="-0.18674">
        <ele>2285.4</ele>
        <time>2026-07-15T11:52:38Z</time>
      </trkpt>
      <trkpt lat="42.87839" lon="-0.18673">
        <ele>2285.4</ele>
        <time>2026-07-15T11:52:39Z</time>
      </trkpt>
      <trkpt lat="42.87839" lon="-0.18673">
        <ele>2285.4</ele>
        <time>2026-07-15T11:52:40Z</time>
      </trkpt>
      <trkpt lat="42.87839" lon="-0.18672">
        <ele>2284.4</ele>
        <time>2026-07-15T11:52:40Z</time>
      </trkpt>
      <trkpt lat="42.87839" lon="-0.18672">
        <ele>2284.4</ele>
        <time>2026-07-15T11:52:41Z</time>
      </trkpt>
      <trkpt lat="42.87838" lon="-0.18672">
        <ele>2284.4</ele>
        <time>2026-07-15T11:52:42Z</time>
      </trkpt>
      <trkpt lat="42.87838" lon="-0.18673">
        <ele>2284.4</ele>
        <time>2026-07-15T11:52:43Z</time>
      </trkpt>
      <trkpt lat="42.87838" lon="-0.18673">
        <ele>2284.4</ele>
        <time>2026-07-15T11:52:43Z</time>
      </trkpt>
      <trkpt lat="42.87838" lon="-0.18673">
        <ele>2283.4</ele>
        <time>2026-07-15T11:52:44Z</time>
      </trkpt>
      <trkpt lat="42.87837" lon="-0.18673">
        <ele>2283.4</ele>
        <time>2026-07-15T11:52:45Z</time>
      </trkpt>
      <trkpt lat="42.87837" lon="-0.18673">
        <ele>2283.4</ele>
        <time>2026-07-15T11:52:45Z</time>
      </trkpt>
      <trkpt lat="42.87836" lon="-0.18672">
        <ele>2283.4</ele>
        <time>2026-07-15T11:52:46Z</time>
      </trkpt>
      <trkpt lat="42.87836" lon="-0.18672">
        <ele>2283.4</ele>
        <time>2026-07-15T11:52:46Z</time>
      </trkpt>
      <trkpt lat="42.87835" lon="-0.18672">
        <ele>2283.4</ele>
        <time>2026-07-15T11:52:47Z</time>
      </trkpt>
      <trkpt lat="42.87834" lon="-0.18672">
        <ele>2283.4</ele>
        <time>2026-07-15T11:52:47Z</time>
      </trkpt>
      <trkpt lat="42.87834" lon="-0.18672">
        <ele>2283.4</ele>
        <time>2026-07-15T11:52:48Z</time>
      </trkpt>
      <trkpt lat="42.87834" lon="-0.18672">
        <ele>2283.4</ele>
        <time>2026-07-15T11:52:49Z</time>
      </trkpt>
      <trkpt lat="42.87833" lon="-0.18672">
        <ele>2283.4</ele>
        <time>2026-07-15T11:52:49Z</time>
      </trkpt>
      <trkpt lat="42.87833" lon="-0.18672">
        <ele>2283.4</ele>
        <time>2026-07-15T11:52:50Z</time>
      </trkpt>
      <trkpt lat="42.87832" lon="-0.18671">
        <ele>2283.4</ele>
        <time>2026-07-15T11:52:50Z</time>
      </trkpt>
      <trkpt lat="42.87832" lon="-0.18671">
        <ele>2283.4</ele>
        <time>2026-07-15T11:52:51Z</time>
      </trkpt>
      <trkpt lat="42.87831" lon="-0.18669">
        <ele>2282.4</ele>
        <time>2026-07-15T11:52:52Z</time>
      </trkpt>
      <trkpt lat="42.87831" lon="-0.18669">
        <ele>2281.4</ele>
        <time>2026-07-15T11:52:53Z</time>
      </trkpt>
      <trkpt lat="42.87831" lon="-0.18668">
        <ele>2280.4</ele>
        <time>2026-07-15T11:52:54Z</time>
      </trkpt>
      <trkpt lat="42.87831" lon="-0.18668">
        <ele>2280.4</ele>
        <time>2026-07-15T11:52:54Z</time>
      </trkpt>
      <trkpt lat="42.8783" lon="-0.18667">
        <ele>2280.4</ele>
        <time>2026-07-15T11:52:55Z</time>
      </trkpt>
      <trkpt lat="42.87831" lon="-0.18667">
        <ele>2280.4</ele>
        <time>2026-07-15T11:52:55Z</time>
      </trkpt>
      <trkpt lat="42.87831" lon="-0.18666">
        <ele>2280.4</ele>
        <time>2026-07-15T11:52:56Z</time>
      </trkpt>
      <trkpt lat="42.8783" lon="-0.18665">
        <ele>2280.4</ele>
        <time>2026-07-15T11:52:57Z</time>
      </trkpt>
      <trkpt lat="42.8783" lon="-0.18665">
        <ele>2279.4</ele>
        <time>2026-07-15T11:52:57Z</time>
      </trkpt>
      <trkpt lat="42.8783" lon="-0.18664">
        <ele>2279.4</ele>
        <time>2026-07-15T11:52:58Z</time>
      </trkpt>
      <trkpt lat="42.8783" lon="-0.18664">
        <ele>2279.4</ele>
        <time>2026-07-15T11:52:59Z</time>
      </trkpt>
      <trkpt lat="42.87829" lon="-0.18664">
        <ele>2279.4</ele>
        <time>2026-07-15T11:52:59Z</time>
      </trkpt>
      <trkpt lat="42.87829" lon="-0.18663">
        <ele>2279.4</ele>
        <time>2026-07-15T11:53:00Z</time>
      </trkpt>
      <trkpt lat="42.87828" lon="-0.18663">
        <ele>2278.4</ele>
        <time>2026-07-15T11:53:01Z</time>
      </trkpt>
      <trkpt lat="42.87827" lon="-0.18662">
        <ele>2278.4</ele>
        <time>2026-07-15T11:53:01Z</time>
      </trkpt>
      <trkpt lat="42.87827" lon="-0.18662">
        <ele>2277.4</ele>
        <time>2026-07-15T11:53:02Z</time>
      </trkpt>
      <trkpt lat="42.87827" lon="-0.18662">
        <ele>2277.4</ele>
        <time>2026-07-15T11:53:03Z</time>
      </trkpt>
      <trkpt lat="42.87826" lon="-0.18661">
        <ele>2277.4</ele>
        <time>2026-07-15T11:53:03Z</time>
      </trkpt>
      <trkpt lat="42.87825" lon="-0.18661">
        <ele>2277.4</ele>
        <time>2026-07-15T11:53:04Z</time>
      </trkpt>
      <trkpt lat="42.87824" lon="-0.18661">
        <ele>2276.4</ele>
        <time>2026-07-15T11:53:05Z</time>
      </trkpt>
      <trkpt lat="42.87823" lon="-0.18661">
        <ele>2277.4</ele>
        <time>2026-07-15T11:53:06Z</time>
      </trkpt>
      <trkpt lat="42.87823" lon="-0.18661">
        <ele>2277.4</ele>
        <time>2026-07-15T11:53:06Z</time>
      </trkpt>
      <trkpt lat="42.87822" lon="-0.18661">
        <ele>2277.4</ele>
        <time>2026-07-15T11:53:07Z</time>
      </trkpt>
      <trkpt lat="42.87822" lon="-0.18661">
        <ele>2277.4</ele>
        <time>2026-07-15T11:53:08Z</time>
      </trkpt>
      <trkpt lat="42.87822" lon="-0.18661">
        <ele>2277.4</ele>
        <time>2026-07-15T11:53:08Z</time>
      </trkpt>
      <trkpt lat="42.87822" lon="-0.18661">
        <ele>2277.4</ele>
        <time>2026-07-15T11:53:09Z</time>
      </trkpt>
      <trkpt lat="42.87822" lon="-0.18661">
        <ele>2277.4</ele>
        <time>2026-07-15T11:53:09Z</time>
      </trkpt>
      <trkpt lat="42.87821" lon="-0.18661">
        <ele>2277.4</ele>
        <time>2026-07-15T11:53:10Z</time>
      </trkpt>
      <trkpt lat="42.87821" lon="-0.18661">
        <ele>2277.4</ele>
        <time>2026-07-15T11:53:11Z</time>
      </trkpt>
      <trkpt lat="42.87821" lon="-0.18661">
        <ele>2276.4</ele>
        <time>2026-07-15T11:53:11Z</time>
      </trkpt>
      <trkpt lat="42.8782" lon="-0.1866">
        <ele>2276.4</ele>
        <time>2026-07-15T11:53:12Z</time>
      </trkpt>
      <trkpt lat="42.8782" lon="-0.1866">
        <ele>2276.4</ele>
        <time>2026-07-15T11:53:12Z</time>
      </trkpt>
      <trkpt lat="42.87819" lon="-0.1866">
        <ele>2276.4</ele>
        <time>2026-07-15T11:53:13Z</time>
      </trkpt>
      <trkpt lat="42.87819" lon="-0.1866">
        <ele>2275.4</ele>
        <time>2026-07-15T11:53:13Z</time>
      </trkpt>
      <trkpt lat="42.87818" lon="-0.1866">
        <ele>2275.4</ele>
        <time>2026-07-15T11:53:14Z</time>
      </trkpt>
      <trkpt lat="42.87818" lon="-0.1866">
        <ele>2276.4</ele>
        <time>2026-07-15T11:53:14Z</time>
      </trkpt>
      <trkpt lat="42.87818" lon="-0.18661">
        <ele>2275.4</ele>
        <time>2026-07-15T11:53:15Z</time>
      </trkpt>
      <trkpt lat="42.87817" lon="-0.18662">
        <ele>2275.4</ele>
        <time>2026-07-15T11:53:16Z</time>
      </trkpt>
      <trkpt lat="42.87817" lon="-0.18662">
        <ele>2275.4</ele>
        <time>2026-07-15T11:53:16Z</time>
      </trkpt>
      <trkpt lat="42.87816" lon="-0.18663">
        <ele>2275.4</ele>
        <time>2026-07-15T11:53:17Z</time>
      </trkpt>
      <trkpt lat="42.87816" lon="-0.18664">
        <ele>2274.4</ele>
        <time>2026-07-15T11:53:18Z</time>
      </trkpt>
      <trkpt lat="42.87815" lon="-0.18664">
        <ele>2274.4</ele>
        <time>2026-07-15T11:53:19Z</time>
      </trkpt>
      <trkpt lat="42.87815" lon="-0.18664">
        <ele>2272.4</ele>
        <time>2026-07-15T11:53:20Z</time>
      </trkpt>
      <trkpt lat="42.87815" lon="-0.18664">
        <ele>2272.4</ele>
        <time>2026-07-15T11:53:20Z</time>
      </trkpt>
      <trkpt lat="42.87815" lon="-0.18663">
        <ele>2272.4</ele>
        <time>2026-07-15T11:53:21Z</time>
      </trkpt>
      <trkpt lat="42.87814" lon="-0.18663">
        <ele>2272.4</ele>
        <time>2026-07-15T11:53:22Z</time>
      </trkpt>
      <trkpt lat="42.87814" lon="-0.18663">
        <ele>2271.4</ele>
        <time>2026-07-15T11:53:22Z</time>
      </trkpt>
      <trkpt lat="42.87814" lon="-0.18663">
        <ele>2271.4</ele>
        <time>2026-07-15T11:53:23Z</time>
      </trkpt>
      <trkpt lat="42.87814" lon="-0.18663">
        <ele>2271.4</ele>
        <time>2026-07-15T11:53:24Z</time>
      </trkpt>
      <trkpt lat="42.87814" lon="-0.18663">
        <ele>2271.4</ele>
        <time>2026-07-15T11:53:24Z</time>
      </trkpt>
      <trkpt lat="42.87814" lon="-0.18663">
        <ele>2271.4</ele>
        <time>2026-07-15T11:53:25Z</time>
      </trkpt>
      <trkpt lat="42.87814" lon="-0.18663">
        <ele>2272.4</ele>
        <time>2026-07-15T11:53:26Z</time>
      </trkpt>
      <trkpt lat="42.87814" lon="-0.18663">
        <ele>2271.4</ele>
        <time>2026-07-15T11:53:27Z</time>
      </trkpt>
      <trkpt lat="42.87814" lon="-0.18663">
        <ele>2271.4</ele>
        <time>2026-07-15T11:53:27Z</time>
      </trkpt>
      <trkpt lat="42.87813" lon="-0.18663">
        <ele>2271.4</ele>
        <time>2026-07-15T11:53:28Z</time>
      </trkpt>
      <trkpt lat="42.87813" lon="-0.18662">
        <ele>2272.4</ele>
        <time>2026-07-15T11:53:29Z</time>
      </trkpt>
      <trkpt lat="42.87813" lon="-0.18662">
        <ele>2273.4</ele>
        <time>2026-07-15T11:53:29Z</time>
      </trkpt>
      <trkpt lat="42.87812" lon="-0.18662">
        <ele>2273.4</ele>
        <time>2026-07-15T11:53:30Z</time>
      </trkpt>
      <trkpt lat="42.87812" lon="-0.18663">
        <ele>2272.4</ele>
        <time>2026-07-15T11:53:31Z</time>
      </trkpt>
      <trkpt lat="42.87812" lon="-0.18663">
        <ele>2272.4</ele>
        <time>2026-07-15T11:53:31Z</time>
      </trkpt>
      <trkpt lat="42.87811" lon="-0.18664">
        <ele>2272.4</ele>
        <time>2026-07-15T11:53:32Z</time>
      </trkpt>
      <trkpt lat="42.87811" lon="-0.18664">
        <ele>2271.4</ele>
        <time>2026-07-15T11:53:33Z</time>
      </trkpt>
      <trkpt lat="42.87811" lon="-0.18664">
        <ele>2272.4</ele>
        <time>2026-07-15T11:53:33Z</time>
      </trkpt>
      <trkpt lat="42.8781" lon="-0.18665">
        <ele>2272.4</ele>
        <time>2026-07-15T11:53:34Z</time>
      </trkpt>
      <trkpt lat="42.87809" lon="-0.18664">
        <ele>2271.4</ele>
        <time>2026-07-15T11:53:34Z</time>
      </trkpt>
      <trkpt lat="42.87809" lon="-0.18665">
        <ele>2271.4</ele>
        <time>2026-07-15T11:53:35Z</time>
      </trkpt>
      <trkpt lat="42.87808" lon="-0.18665">
        <ele>2271.4</ele>
        <time>2026-07-15T11:53:36Z</time>
      </trkpt>
      <trkpt lat="42.87809" lon="-0.18665">
        <ele>2270.4</ele>
        <time>2026-07-15T11:53:36Z</time>
      </trkpt>
      <trkpt lat="42.87808" lon="-0.18665">
        <ele>2270.4</ele>
        <time>2026-07-15T11:53:37Z</time>
      </trkpt>
      <trkpt lat="42.87808" lon="-0.18665">
        <ele>2270.4</ele>
        <time>2026-07-15T11:53:38Z</time>
      </trkpt>
      <trkpt lat="42.87808" lon="-0.18665">
        <ele>2270.4</ele>
        <time>2026-07-15T11:53:38Z</time>
      </trkpt>
      <trkpt lat="42.87808" lon="-0.18666">
        <ele>2270.4</ele>
        <time>2026-07-15T11:53:39Z</time>
      </trkpt>
      <trkpt lat="42.87808" lon="-0.18666">
        <ele>2270.4</ele>
        <time>2026-07-15T11:53:40Z</time>
      </trkpt>
      <trkpt lat="42.87807" lon="-0.18667">
        <ele>2270.4</ele>
        <time>2026-07-15T11:53:40Z</time>
      </trkpt>
      <trkpt lat="42.87807" lon="-0.18667">
        <ele>2270.4</ele>
        <time>2026-07-15T11:53:41Z</time>
      </trkpt>
      <trkpt lat="42.87808" lon="-0.18666">
        <ele>2270.4</ele>
        <time>2026-07-15T11:53:41Z</time>
      </trkpt>
      <trkpt lat="42.87808" lon="-0.18666">
        <ele>2270.4</ele>
        <time>2026-07-15T11:53:42Z</time>
      </trkpt>
      <trkpt lat="42.87809" lon="-0.18665">
        <ele>2270.4</ele>
        <time>2026-07-15T11:53:42Z</time>
      </trkpt>
      <trkpt lat="42.87809" lon="-0.18665">
        <ele>2270.4</ele>
        <time>2026-07-15T11:53:43Z</time>
      </trkpt>
      <trkpt lat="42.8781" lon="-0.18665">
        <ele>2270.4</ele>
        <time>2026-07-15T11:53:44Z</time>
      </trkpt>
      <trkpt lat="42.87809" lon="-0.18665">
        <ele>2268.4</ele>
        <time>2026-07-15T11:53:44Z</time>
      </trkpt>
      <trkpt lat="42.87808" lon="-0.18665">
        <ele>2268.4</ele>
        <time>2026-07-15T11:53:45Z</time>
      </trkpt>
      <trkpt lat="42.87807" lon="-0.18666">
        <ele>2267.4</ele>
        <time>2026-07-15T11:53:46Z</time>
      </trkpt>
      <trkpt lat="42.87806" lon="-0.18666">
        <ele>2266.4</ele>
        <time>2026-07-15T11:53:47Z</time>
      </trkpt>
      <trkpt lat="42.87806" lon="-0.18666">
        <ele>2266.4</ele>
        <time>2026-07-15T11:53:48Z</time>
      </trkpt>
      <trkpt lat="42.87805" lon="-0.18666">
        <ele>2266.4</ele>
        <time>2026-07-15T11:53:49Z</time>
      </trkpt>
      <trkpt lat="42.87805" lon="-0.18667">
        <ele>2265.4</ele>
        <time>2026-07-15T11:53:49Z</time>
      </trkpt>
      <trkpt lat="42.87805" lon="-0.18667">
        <ele>2265.4</ele>
        <time>2026-07-15T11:53:50Z</time>
      </trkpt>
      <trkpt lat="42.87804" lon="-0.18668">
        <ele>2265.4</ele>
        <time>2026-07-15T11:53:51Z</time>
      </trkpt>
      <trkpt lat="42.87804" lon="-0.18669">
        <ele>2265.4</ele>
        <time>2026-07-15T11:53:51Z</time>
      </trkpt>
      <trkpt lat="42.87804" lon="-0.18669">
        <ele>2266.4</ele>
        <time>2026-07-15T11:53:52Z</time>
      </trkpt>
      <trkpt lat="42.87803" lon="-0.1867">
        <ele>2266.4</ele>
        <time>2026-07-15T11:53:53Z</time>
      </trkpt>
      <trkpt lat="42.87803" lon="-0.1867">
        <ele>2266.4</ele>
        <time>2026-07-15T11:53:53Z</time>
      </trkpt>
      <trkpt lat="42.87803" lon="-0.18671">
        <ele>2266.4</ele>
        <time>2026-07-15T11:53:54Z</time>
      </trkpt>
      <trkpt lat="42.87802" lon="-0.18671">
        <ele>2266.4</ele>
        <time>2026-07-15T11:53:55Z</time>
      </trkpt>
      <trkpt lat="42.87802" lon="-0.18671">
        <ele>2265.4</ele>
        <time>2026-07-15T11:53:55Z</time>
      </trkpt>
      <trkpt lat="42.87801" lon="-0.18671">
        <ele>2265.4</ele>
        <time>2026-07-15T11:53:56Z</time>
      </trkpt>
      <trkpt lat="42.87801" lon="-0.18671">
        <ele>2265.4</ele>
        <time>2026-07-15T11:53:57Z</time>
      </trkpt>
      <trkpt lat="42.878" lon="-0.18671">
        <ele>2265.4</ele>
        <time>2026-07-15T11:53:57Z</time>
      </trkpt>
      <trkpt lat="42.87799" lon="-0.18672">
        <ele>2265.4</ele>
        <time>2026-07-15T11:53:58Z</time>
      </trkpt>
      <trkpt lat="42.87799" lon="-0.18672">
        <ele>2265.4</ele>
        <time>2026-07-15T11:53:58Z</time>
      </trkpt>
      <trkpt lat="42.87799" lon="-0.18672">
        <ele>2265.4</ele>
        <time>2026-07-15T11:53:59Z</time>
      </trkpt>
      <trkpt lat="42.87798" lon="-0.18672">
        <ele>2265.4</ele>
        <time>2026-07-15T11:54:00Z</time>
      </trkpt>
      <trkpt lat="42.87798" lon="-0.18673">
        <ele>2265.4</ele>
        <time>2026-07-15T11:54:00Z</time>
      </trkpt>
      <trkpt lat="42.87798" lon="-0.18673">
        <ele>2265.4</ele>
        <time>2026-07-15T11:54:01Z</time>
      </trkpt>
      <trkpt lat="42.87798" lon="-0.18674">
        <ele>2266.4</ele>
        <time>2026-07-15T11:54:02Z</time>
      </trkpt>
      <trkpt lat="42.87798" lon="-0.18674">
        <ele>2265.4</ele>
        <time>2026-07-15T11:54:02Z</time>
      </trkpt>
      <trkpt lat="42.87798" lon="-0.18675">
        <ele>2264.4</ele>
        <time>2026-07-15T11:54:03Z</time>
      </trkpt>
      <trkpt lat="42.87798" lon="-0.18676">
        <ele>2264.4</ele>
        <time>2026-07-15T11:54:04Z</time>
      </trkpt>
      <trkpt lat="42.87798" lon="-0.18677">
        <ele>2264.4</ele>
        <time>2026-07-15T11:54:05Z</time>
      </trkpt>
      <trkpt lat="42.87798" lon="-0.18677">
        <ele>2264.4</ele>
        <time>2026-07-15T11:54:05Z</time>
      </trkpt>
      <trkpt lat="42.87799" lon="-0.18677">
        <ele>2264.4</ele>
        <time>2026-07-15T11:54:06Z</time>
      </trkpt>
      <trkpt lat="42.87799" lon="-0.18678">
        <ele>2264.4</ele>
        <time>2026-07-15T11:54:07Z</time>
      </trkpt>
      <trkpt lat="42.87799" lon="-0.1868">
        <ele>2264.4</ele>
        <time>2026-07-15T11:54:08Z</time>
      </trkpt>
      <trkpt lat="42.87799" lon="-0.1868">
        <ele>2264.4</ele>
        <time>2026-07-15T11:54:09Z</time>
      </trkpt>
      <trkpt lat="42.87799" lon="-0.18679">
        <ele>2264.4</ele>
        <time>2026-07-15T11:54:09Z</time>
      </trkpt>
      <trkpt lat="42.87799" lon="-0.18679">
        <ele>2264.4</ele>
        <time>2026-07-15T11:54:10Z</time>
      </trkpt>
      <trkpt lat="42.87799" lon="-0.18678">
        <ele>2264.4</ele>
        <time>2026-07-15T11:54:10Z</time>
      </trkpt>
      <trkpt lat="42.87799" lon="-0.18678">
        <ele>2264.4</ele>
        <time>2026-07-15T11:54:11Z</time>
      </trkpt>
      <trkpt lat="42.87799" lon="-0.18678">
        <ele>2264.4</ele>
        <time>2026-07-15T11:54:12Z</time>
      </trkpt>
      <trkpt lat="42.87799" lon="-0.18678">
        <ele>2264.4</ele>
        <time>2026-07-15T11:54:13Z</time>
      </trkpt>
      <trkpt lat="42.87799" lon="-0.18678">
        <ele>2263.4</ele>
        <time>2026-07-15T11:54:13Z</time>
      </trkpt>
      <trkpt lat="42.87799" lon="-0.18679">
        <ele>2263.4</ele>
        <time>2026-07-15T11:54:14Z</time>
      </trkpt>
      <trkpt lat="42.878" lon="-0.1868">
        <ele>2263.4</ele>
        <time>2026-07-15T11:54:15Z</time>
      </trkpt>
      <trkpt lat="42.878" lon="-0.18681">
        <ele>2263.4</ele>
        <time>2026-07-15T11:54:15Z</time>
      </trkpt>
      <trkpt lat="42.87801" lon="-0.18682">
        <ele>2263.4</ele>
        <time>2026-07-15T11:54:16Z</time>
      </trkpt>
      <trkpt lat="42.87801" lon="-0.18683">
        <ele>2263.4</ele>
        <time>2026-07-15T11:54:17Z</time>
      </trkpt>
      <trkpt lat="42.87801" lon="-0.18684">
        <ele>2264.4</ele>
        <time>2026-07-15T11:54:17Z</time>
      </trkpt>
      <trkpt lat="42.87801" lon="-0.18685">
        <ele>2263.4</ele>
        <time>2026-07-15T11:54:18Z</time>
      </trkpt>
      <trkpt lat="42.87801" lon="-0.18686">
        <ele>2263.4</ele>
        <time>2026-07-15T11:54:19Z</time>
      </trkpt>
      <trkpt lat="42.87801" lon="-0.18686">
        <ele>2263.4</ele>
        <time>2026-07-15T11:54:19Z</time>
      </trkpt>
      <trkpt lat="42.87802" lon="-0.18687">
        <ele>2262.4</ele>
        <time>2026-07-15T11:54:20Z</time>
      </trkpt>
      <trkpt lat="42.87802" lon="-0.18687">
        <ele>2262.4</ele>
        <time>2026-07-15T11:54:21Z</time>
      </trkpt>
      <trkpt lat="42.87802" lon="-0.18688">
        <ele>2262.4</ele>
        <time>2026-07-15T11:54:22Z</time>
      </trkpt>
      <trkpt lat="42.87803" lon="-0.18688">
        <ele>2262.4</ele>
        <time>2026-07-15T11:54:22Z</time>
      </trkpt>
      <trkpt lat="42.87803" lon="-0.18689">
        <ele>2262.4</ele>
        <time>2026-07-15T11:54:23Z</time>
      </trkpt>
      <trkpt lat="42.87803" lon="-0.18689">
        <ele>2262.4</ele>
        <time>2026-07-15T11:54:24Z</time>
      </trkpt>
      <trkpt lat="42.87803" lon="-0.18689">
        <ele>2263.4</ele>
        <time>2026-07-15T11:54:24Z</time>
      </trkpt>
      <trkpt lat="42.87803" lon="-0.1869">
        <ele>2263.4</ele>
        <time>2026-07-15T11:54:25Z</time>
      </trkpt>
      <trkpt lat="42.87803" lon="-0.18691">
        <ele>2262.4</ele>
        <time>2026-07-15T11:54:26Z</time>
      </trkpt>
      <trkpt lat="42.87804" lon="-0.18691">
        <ele>2262.4</ele>
        <time>2026-07-15T11:54:27Z</time>
      </trkpt>
      <trkpt lat="42.87803" lon="-0.18691">
        <ele>2261.4</ele>
        <time>2026-07-15T11:54:27Z</time>
      </trkpt>
      <trkpt lat="42.87804" lon="-0.18692">
        <ele>2261.4</ele>
        <time>2026-07-15T11:54:28Z</time>
      </trkpt>
      <trkpt lat="42.87804" lon="-0.18693">
        <ele>2261.4</ele>
        <time>2026-07-15T11:54:29Z</time>
      </trkpt>
      <trkpt lat="42.87804" lon="-0.18692">
        <ele>2261.4</ele>
        <time>2026-07-15T11:54:30Z</time>
      </trkpt>
      <trkpt lat="42.87804" lon="-0.18693">
        <ele>2261.4</ele>
        <time>2026-07-15T11:54:31Z</time>
      </trkpt>
      <trkpt lat="42.87803" lon="-0.18692">
        <ele>2261.4</ele>
        <time>2026-07-15T11:54:32Z</time>
      </trkpt>
      <trkpt lat="42.87803" lon="-0.18691">
        <ele>2261.4</ele>
        <time>2026-07-15T11:54:33Z</time>
      </trkpt>
      <trkpt lat="42.87803" lon="-0.18691">
        <ele>2262.4</ele>
        <time>2026-07-15T11:54:33Z</time>
      </trkpt>
      <trkpt lat="42.87803" lon="-0.18692">
        <ele>2262.4</ele>
        <time>2026-07-15T11:54:34Z</time>
      </trkpt>
      <trkpt lat="42.87803" lon="-0.18693">
        <ele>2262.4</ele>
        <time>2026-07-15T11:54:35Z</time>
      </trkpt>
      <trkpt lat="42.87803" lon="-0.18693">
        <ele>2262.4</ele>
        <time>2026-07-15T11:54:35Z</time>
      </trkpt>
      <trkpt lat="42.87803" lon="-0.18694">
        <ele>2262.4</ele>
        <time>2026-07-15T11:54:36Z</time>
      </trkpt>
      <trkpt lat="42.87803" lon="-0.18695">
        <ele>2262.4</ele>
        <time>2026-07-15T11:54:37Z</time>
      </trkpt>
      <trkpt lat="42.87803" lon="-0.18695">
        <ele>2262.4</ele>
        <time>2026-07-15T11:54:38Z</time>
      </trkpt>
      <trkpt lat="42.87804" lon="-0.18696">
        <ele>2262.4</ele>
        <time>2026-07-15T11:54:39Z</time>
      </trkpt>
      <trkpt lat="42.87804" lon="-0.18696">
        <ele>2262.4</ele>
        <time>2026-07-15T11:54:39Z</time>
      </trkpt>
      <trkpt lat="42.87804" lon="-0.18697">
        <ele>2261.4</ele>
        <time>2026-07-15T11:54:40Z</time>
      </trkpt>
      <trkpt lat="42.87804" lon="-0.18698">
        <ele>2261.4</ele>
        <time>2026-07-15T11:54:41Z</time>
      </trkpt>
      <trkpt lat="42.87805" lon="-0.18699">
        <ele>2261.4</ele>
        <time>2026-07-15T11:54:41Z</time>
      </trkpt>
      <trkpt lat="42.87805" lon="-0.18699">
        <ele>2260.4</ele>
        <time>2026-07-15T11:54:42Z</time>
      </trkpt>
      <trkpt lat="42.87805" lon="-0.187">
        <ele>2260.4</ele>
        <time>2026-07-15T11:54:43Z</time>
      </trkpt>
      <trkpt lat="42.87805" lon="-0.187">
        <ele>2259.4</ele>
        <time>2026-07-15T11:54:43Z</time>
      </trkpt>
      <trkpt lat="42.87805" lon="-0.187">
        <ele>2259.4</ele>
        <time>2026-07-15T11:54:44Z</time>
      </trkpt>
      <trkpt lat="42.87805" lon="-0.18701">
        <ele>2259.4</ele>
        <time>2026-07-15T11:54:45Z</time>
      </trkpt>
      <trkpt lat="42.87806" lon="-0.18701">
        <ele>2258.4</ele>
        <time>2026-07-15T11:54:46Z</time>
      </trkpt>
      <trkpt lat="42.87806" lon="-0.18701">
        <ele>2258.4</ele>
        <time>2026-07-15T11:54:46Z</time>
      </trkpt>
      <trkpt lat="42.87806" lon="-0.18701">
        <ele>2258.4</ele>
        <time>2026-07-15T11:54:47Z</time>
      </trkpt>
      <trkpt lat="42.87806" lon="-0.18702">
        <ele>2258.4</ele>
        <time>2026-07-15T11:54:48Z</time>
      </trkpt>
      <trkpt lat="42.87806" lon="-0.18702">
        <ele>2258.4</ele>
        <time>2026-07-15T11:54:49Z</time>
      </trkpt>
      <trkpt lat="42.87806" lon="-0.18702">
        <ele>2257.4</ele>
        <time>2026-07-15T11:54:49Z</time>
      </trkpt>
      <trkpt lat="42.87807" lon="-0.18703">
        <ele>2257.4</ele>
        <time>2026-07-15T11:54:50Z</time>
      </trkpt>
      <trkpt lat="42.87807" lon="-0.18703">
        <ele>2256.4</ele>
        <time>2026-07-15T11:54:50Z</time>
      </trkpt>
      <trkpt lat="42.87807" lon="-0.18704">
        <ele>2256.4</ele>
        <time>2026-07-15T11:54:51Z</time>
      </trkpt>
      <trkpt lat="42.87807" lon="-0.18705">
        <ele>2256.4</ele>
        <time>2026-07-15T11:54:52Z</time>
      </trkpt>
      <trkpt lat="42.87807" lon="-0.18705">
        <ele>2255.4</ele>
        <time>2026-07-15T11:54:52Z</time>
      </trkpt>
      <trkpt lat="42.87808" lon="-0.18706">
        <ele>2255.4</ele>
        <time>2026-07-15T11:54:53Z</time>
      </trkpt>
      <trkpt lat="42.87808" lon="-0.18707">
        <ele>2254.4</ele>
        <time>2026-07-15T11:54:54Z</time>
      </trkpt>
      <trkpt lat="42.87808" lon="-0.18708">
        <ele>2254.4</ele>
        <time>2026-07-15T11:54:55Z</time>
      </trkpt>
      <trkpt lat="42.87808" lon="-0.18709">
        <ele>2253.4</ele>
        <time>2026-07-15T11:54:55Z</time>
      </trkpt>
      <trkpt lat="42.87808" lon="-0.18709">
        <ele>2253.4</ele>
        <time>2026-07-15T11:54:56Z</time>
      </trkpt>
      <trkpt lat="42.87808" lon="-0.1871">
        <ele>2252.4</ele>
        <time>2026-07-15T11:54:57Z</time>
      </trkpt>
      <trkpt lat="42.87808" lon="-0.1871">
        <ele>2252.4</ele>
        <time>2026-07-15T11:54:57Z</time>
      </trkpt>
      <trkpt lat="42.87808" lon="-0.1871">
        <ele>2252.4</ele>
        <time>2026-07-15T11:54:58Z</time>
      </trkpt>
      <trkpt lat="42.87808" lon="-0.1871">
        <ele>2252.4</ele>
        <time>2026-07-15T11:54:59Z</time>
      </trkpt>
      <trkpt lat="42.87808" lon="-0.1871">
        <ele>2252.4</ele>
        <time>2026-07-15T11:55:00Z</time>
      </trkpt>
      <trkpt lat="42.87808" lon="-0.1871">
        <ele>2252.4</ele>
        <time>2026-07-15T11:55:01Z</time>
      </trkpt>
      <trkpt lat="42.87808" lon="-0.18709">
        <ele>2252.4</ele>
        <time>2026-07-15T11:55:02Z</time>
      </trkpt>
      <trkpt lat="42.87808" lon="-0.18709">
        <ele>2252.4</ele>
        <time>2026-07-15T11:55:03Z</time>
      </trkpt>
      <trkpt lat="42.87808" lon="-0.18709">
        <ele>2251.4</ele>
        <time>2026-07-15T11:55:03Z</time>
      </trkpt>
      <trkpt lat="42.87808" lon="-0.18709">
        <ele>2251.4</ele>
        <time>2026-07-15T11:55:04Z</time>
      </trkpt>
      <trkpt lat="42.87808" lon="-0.1871">
        <ele>2252.4</ele>
        <time>2026-07-15T11:55:05Z</time>
      </trkpt>
      <trkpt lat="42.87808" lon="-0.1871">
        <ele>2251.4</ele>
        <time>2026-07-15T11:55:05Z</time>
      </trkpt>
      <trkpt lat="42.87808" lon="-0.18711">
        <ele>2251.4</ele>
        <time>2026-07-15T11:55:06Z</time>
      </trkpt>
      <trkpt lat="42.87808" lon="-0.18711">
        <ele>2251.4</ele>
        <time>2026-07-15T11:55:07Z</time>
      </trkpt>
      <trkpt lat="42.87807" lon="-0.18712">
        <ele>2251.4</ele>
        <time>2026-07-15T11:55:07Z</time>
      </trkpt>
      <trkpt lat="42.87807" lon="-0.18712">
        <ele>2251.4</ele>
        <time>2026-07-15T11:55:08Z</time>
      </trkpt>
      <trkpt lat="42.87807" lon="-0.18713">
        <ele>2250.4</ele>
        <time>2026-07-15T11:55:08Z</time>
      </trkpt>
      <trkpt lat="42.87807" lon="-0.18714">
        <ele>2250.4</ele>
        <time>2026-07-15T11:55:09Z</time>
      </trkpt>
      <trkpt lat="42.87806" lon="-0.18715">
        <ele>2250.4</ele>
        <time>2026-07-15T11:55:10Z</time>
      </trkpt>
      <trkpt lat="42.87806" lon="-0.18716">
        <ele>2248.4</ele>
        <time>2026-07-15T11:55:11Z</time>
      </trkpt>
      <trkpt lat="42.87805" lon="-0.18717">
        <ele>2248.4</ele>
        <time>2026-07-15T11:55:12Z</time>
      </trkpt>
      <trkpt lat="42.87805" lon="-0.18717">
        <ele>2247.4</ele>
        <time>2026-07-15T11:55:12Z</time>
      </trkpt>
      <trkpt lat="42.87805" lon="-0.18718">
        <ele>2247.4</ele>
        <time>2026-07-15T11:55:13Z</time>
      </trkpt>
      <trkpt lat="42.87805" lon="-0.18718">
        <ele>2246.4</ele>
        <time>2026-07-15T11:55:14Z</time>
      </trkpt>
      <trkpt lat="42.87805" lon="-0.18719">
        <ele>2246.4</ele>
        <time>2026-07-15T11:55:15Z</time>
      </trkpt>
      <trkpt lat="42.87806" lon="-0.18719">
        <ele>2246.4</ele>
        <time>2026-07-15T11:55:16Z</time>
      </trkpt>
      <trkpt lat="42.87805" lon="-0.18719">
        <ele>2247.4</ele>
        <time>2026-07-15T11:55:16Z</time>
      </trkpt>
      <trkpt lat="42.87805" lon="-0.1872">
        <ele>2247.4</ele>
        <time>2026-07-15T11:55:17Z</time>
      </trkpt>
      <trkpt lat="42.87805" lon="-0.1872">
        <ele>2247.4</ele>
        <time>2026-07-15T11:55:18Z</time>
      </trkpt>
      <trkpt lat="42.87805" lon="-0.1872">
        <ele>2246.4</ele>
        <time>2026-07-15T11:55:18Z</time>
      </trkpt>
      <trkpt lat="42.87805" lon="-0.1872">
        <ele>2246.4</ele>
        <time>2026-07-15T11:55:19Z</time>
      </trkpt>
      <trkpt lat="42.87804" lon="-0.18721">
        <ele>2246.4</ele>
        <time>2026-07-15T11:55:20Z</time>
      </trkpt>
      <trkpt lat="42.87803" lon="-0.18722">
        <ele>2246.4</ele>
        <time>2026-07-15T11:55:20Z</time>
      </trkpt>
      <trkpt lat="42.87803" lon="-0.18722">
        <ele>2245.4</ele>
        <time>2026-07-15T11:55:21Z</time>
      </trkpt>
      <trkpt lat="42.87802" lon="-0.18722">
        <ele>2245.4</ele>
        <time>2026-07-15T11:55:22Z</time>
      </trkpt>
      <trkpt lat="42.87801" lon="-0.18722">
        <ele>2244.4</ele>
        <time>2026-07-15T11:55:22Z</time>
      </trkpt>
      <trkpt lat="42.87801" lon="-0.18722">
        <ele>2244.4</ele>
        <time>2026-07-15T11:55:23Z</time>
      </trkpt>
      <trkpt lat="42.878" lon="-0.18723">
        <ele>2244.4</ele>
        <time>2026-07-15T11:55:24Z</time>
      </trkpt>
      <trkpt lat="42.878" lon="-0.18723">
        <ele>2243.4</ele>
        <time>2026-07-15T11:55:24Z</time>
      </trkpt>
      <trkpt lat="42.878" lon="-0.18724">
        <ele>2243.4</ele>
        <time>2026-07-15T11:55:25Z</time>
      </trkpt>
      <trkpt lat="42.878" lon="-0.18724">
        <ele>2243.4</ele>
        <time>2026-07-15T11:55:26Z</time>
      </trkpt>
      <trkpt lat="42.87799" lon="-0.18725">
        <ele>2243.4</ele>
        <time>2026-07-15T11:55:26Z</time>
      </trkpt>
      <trkpt lat="42.87799" lon="-0.18725">
        <ele>2242.4</ele>
        <time>2026-07-15T11:55:27Z</time>
      </trkpt>
      <trkpt lat="42.87798" lon="-0.18725">
        <ele>2242.4</ele>
        <time>2026-07-15T11:55:28Z</time>
      </trkpt>
      <trkpt lat="42.87798" lon="-0.18726">
        <ele>2241.4</ele>
        <time>2026-07-15T11:55:29Z</time>
      </trkpt>
      <trkpt lat="42.87798" lon="-0.18726">
        <ele>2242.4</ele>
        <time>2026-07-15T11:55:29Z</time>
      </trkpt>
      <trkpt lat="42.87797" lon="-0.18726">
        <ele>2242.4</ele>
        <time>2026-07-15T11:55:30Z</time>
      </trkpt>
      <trkpt lat="42.87797" lon="-0.18727">
        <ele>2243.4</ele>
        <time>2026-07-15T11:55:31Z</time>
      </trkpt>
      <trkpt lat="42.87797" lon="-0.18727">
        <ele>2243.4</ele>
        <time>2026-07-15T11:55:31Z</time>
      </trkpt>
      <trkpt lat="42.87797" lon="-0.18728">
        <ele>2243.4</ele>
        <time>2026-07-15T11:55:32Z</time>
      </trkpt>
      <trkpt lat="42.87797" lon="-0.18729">
        <ele>2243.4</ele>
        <time>2026-07-15T11:55:33Z</time>
      </trkpt>
      <trkpt lat="42.87798" lon="-0.18729">
        <ele>2242.4</ele>
        <time>2026-07-15T11:55:33Z</time>
      </trkpt>
      <trkpt lat="42.87798" lon="-0.1873">
        <ele>2242.4</ele>
        <time>2026-07-15T11:55:34Z</time>
      </trkpt>
      <trkpt lat="42.87799" lon="-0.18731">
        <ele>2241.4</ele>
        <time>2026-07-15T11:55:35Z</time>
      </trkpt>
      <trkpt lat="42.87799" lon="-0.18731">
        <ele>2241.4</ele>
        <time>2026-07-15T11:55:35Z</time>
      </trkpt>
      <trkpt lat="42.878" lon="-0.18732">
        <ele>2241.4</ele>
        <time>2026-07-15T11:55:36Z</time>
      </trkpt>
      <trkpt lat="42.878" lon="-0.18732">
        <ele>2242.4</ele>
        <time>2026-07-15T11:55:37Z</time>
      </trkpt>
      <trkpt lat="42.87801" lon="-0.18732">
        <ele>2242.4</ele>
        <time>2026-07-15T11:55:37Z</time>
      </trkpt>
      <trkpt lat="42.87801" lon="-0.18733">
        <ele>2242.4</ele>
        <time>2026-07-15T11:55:38Z</time>
      </trkpt>
      <trkpt lat="42.87801" lon="-0.18733">
        <ele>2241.4</ele>
        <time>2026-07-15T11:55:38Z</time>
      </trkpt>
      <trkpt lat="42.87802" lon="-0.18734">
        <ele>2241.4</ele>
        <time>2026-07-15T11:55:39Z</time>
      </trkpt>
      <trkpt lat="42.87802" lon="-0.18733">
        <ele>2241.4</ele>
        <time>2026-07-15T11:55:39Z</time>
      </trkpt>
      <trkpt lat="42.87801" lon="-0.18733">
        <ele>2241.4</ele>
        <time>2026-07-15T11:55:40Z</time>
      </trkpt>
      <trkpt lat="42.87802" lon="-0.18734">
        <ele>2241.4</ele>
        <time>2026-07-15T11:55:41Z</time>
      </trkpt>
      <trkpt lat="42.87802" lon="-0.18734">
        <ele>2241.4</ele>
        <time>2026-07-15T11:55:42Z</time>
      </trkpt>
      <trkpt lat="42.87802" lon="-0.18735">
        <ele>2241.4</ele>
        <time>2026-07-15T11:55:43Z</time>
      </trkpt>
      <trkpt lat="42.87802" lon="-0.18735">
        <ele>2241.4</ele>
        <time>2026-07-15T11:55:43Z</time>
      </trkpt>
      <trkpt lat="42.87803" lon="-0.18736">
        <ele>2241.4</ele>
        <time>2026-07-15T11:55:44Z</time>
      </trkpt>
      <trkpt lat="42.87803" lon="-0.18736">
        <ele>2242.4</ele>
        <time>2026-07-15T11:55:45Z</time>
      </trkpt>
      <trkpt lat="42.87803" lon="-0.18737">
        <ele>2242.4</ele>
        <time>2026-07-15T11:55:46Z</time>
      </trkpt>
      <trkpt lat="42.87803" lon="-0.18738">
        <ele>2241.4</ele>
        <time>2026-07-15T11:55:46Z</time>
      </trkpt>
      <trkpt lat="42.87803" lon="-0.18738">
        <ele>2240.4</ele>
        <time>2026-07-15T11:55:47Z</time>
      </trkpt>
      <trkpt lat="42.87803" lon="-0.18739">
        <ele>2240.4</ele>
        <time>2026-07-15T11:55:48Z</time>
      </trkpt>
      <trkpt lat="42.87803" lon="-0.18739">
        <ele>2240.4</ele>
        <time>2026-07-15T11:55:48Z</time>
      </trkpt>
      <trkpt lat="42.87803" lon="-0.1874">
        <ele>2240.4</ele>
        <time>2026-07-15T11:55:49Z</time>
      </trkpt>
      <trkpt lat="42.87803" lon="-0.1874">
        <ele>2240.4</ele>
        <time>2026-07-15T11:55:49Z</time>
      </trkpt>
      <trkpt lat="42.87803" lon="-0.18741">
        <ele>2240.4</ele>
        <time>2026-07-15T11:55:50Z</time>
      </trkpt>
      <trkpt lat="42.87803" lon="-0.18742">
        <ele>2241.4</ele>
        <time>2026-07-15T11:55:51Z</time>
      </trkpt>
      <trkpt lat="42.87802" lon="-0.18742">
        <ele>2241.4</ele>
        <time>2026-07-15T11:55:51Z</time>
      </trkpt>
      <trkpt lat="42.87802" lon="-0.18742">
        <ele>2241.4</ele>
        <time>2026-07-15T11:55:52Z</time>
      </trkpt>
      <trkpt lat="42.87802" lon="-0.18743">
        <ele>2241.4</ele>
        <time>2026-07-15T11:55:53Z</time>
      </trkpt>
      <trkpt lat="42.87802" lon="-0.18742">
        <ele>2241.4</ele>
        <time>2026-07-15T11:55:54Z</time>
      </trkpt>
      <trkpt lat="42.87802" lon="-0.18742">
        <ele>2243.4</ele>
        <time>2026-07-15T11:55:55Z</time>
      </trkpt>
      <trkpt lat="42.87802" lon="-0.18742">
        <ele>2243.4</ele>
        <time>2026-07-15T11:55:55Z</time>
      </trkpt>
      <trkpt lat="42.87802" lon="-0.18742">
        <ele>2243.4</ele>
        <time>2026-07-15T11:55:56Z</time>
      </trkpt>
      <trkpt lat="42.87802" lon="-0.18743">
        <ele>2243.4</ele>
        <time>2026-07-15T11:55:57Z</time>
      </trkpt>
      <trkpt lat="42.87802" lon="-0.18744">
        <ele>2244.4</ele>
        <time>2026-07-15T11:55:58Z</time>
      </trkpt>
      <trkpt lat="42.87802" lon="-0.18745">
        <ele>2244.4</ele>
        <time>2026-07-15T11:55:59Z</time>
      </trkpt>
      <trkpt lat="42.87802" lon="-0.18746">
        <ele>2244.4</ele>
        <time>2026-07-15T11:56:00Z</time>
      </trkpt>
      <trkpt lat="42.87803" lon="-0.18746">
        <ele>2243.4</ele>
        <time>2026-07-15T11:56:00Z</time>
      </trkpt>
      <trkpt lat="42.87803" lon="-0.18747">
        <ele>2243.4</ele>
        <time>2026-07-15T11:56:01Z</time>
      </trkpt>
      <trkpt lat="42.87802" lon="-0.18748">
        <ele>2243.4</ele>
        <time>2026-07-15T11:56:02Z</time>
      </trkpt>
      <trkpt lat="42.87802" lon="-0.18748">
        <ele>2243.4</ele>
        <time>2026-07-15T11:56:02Z</time>
      </trkpt>
      <trkpt lat="42.87802" lon="-0.18749">
        <ele>2243.4</ele>
        <time>2026-07-15T11:56:02Z</time>
      </trkpt>
      <trkpt lat="42.87802" lon="-0.1875">
        <ele>2243.4</ele>
        <time>2026-07-15T11:56:03Z</time>
      </trkpt>
      <trkpt lat="42.87801" lon="-0.1875">
        <ele>2243.4</ele>
        <time>2026-07-15T11:56:04Z</time>
      </trkpt>
      <trkpt lat="42.87801" lon="-0.18751">
        <ele>2243.4</ele>
        <time>2026-07-15T11:56:04Z</time>
      </trkpt>
      <trkpt lat="42.878" lon="-0.18752">
        <ele>2243.4</ele>
        <time>2026-07-15T11:56:05Z</time>
      </trkpt>
      <trkpt lat="42.878" lon="-0.18752">
        <ele>2241.4</ele>
        <time>2026-07-15T11:56:06Z</time>
      </trkpt>
      <trkpt lat="42.878" lon="-0.18753">
        <ele>2242.4</ele>
        <time>2026-07-15T11:56:06Z</time>
      </trkpt>
      <trkpt lat="42.87799" lon="-0.18753">
        <ele>2242.4</ele>
        <time>2026-07-15T11:56:07Z</time>
      </trkpt>
      <trkpt lat="42.87799" lon="-0.18753">
        <ele>2242.4</ele>
        <time>2026-07-15T11:56:07Z</time>
      </trkpt>
      <trkpt lat="42.87798" lon="-0.18754">
        <ele>2242.4</ele>
        <time>2026-07-15T11:56:08Z</time>
      </trkpt>
      <trkpt lat="42.87798" lon="-0.18754">
        <ele>2242.4</ele>
        <time>2026-07-15T11:56:09Z</time>
      </trkpt>
      <trkpt lat="42.87798" lon="-0.18754">
        <ele>2242.4</ele>
        <time>2026-07-15T11:56:09Z</time>
      </trkpt>
      <trkpt lat="42.87798" lon="-0.18755">
        <ele>2242.4</ele>
        <time>2026-07-15T11:56:10Z</time>
      </trkpt>
      <trkpt lat="42.87798" lon="-0.18756">
        <ele>2242.4</ele>
        <time>2026-07-15T11:56:10Z</time>
      </trkpt>
      <trkpt lat="42.87799" lon="-0.18757">
        <ele>2242.4</ele>
        <time>2026-07-15T11:56:11Z</time>
      </trkpt>
      <trkpt lat="42.87799" lon="-0.18757">
        <ele>2242.4</ele>
        <time>2026-07-15T11:56:11Z</time>
      </trkpt>
      <trkpt lat="42.87799" lon="-0.18757">
        <ele>2241.4</ele>
        <time>2026-07-15T11:56:12Z</time>
      </trkpt>
      <trkpt lat="42.878" lon="-0.18758">
        <ele>2241.4</ele>
        <time>2026-07-15T11:56:13Z</time>
      </trkpt>
      <trkpt lat="42.87801" lon="-0.18758">
        <ele>2241.4</ele>
        <time>2026-07-15T11:56:14Z</time>
      </trkpt>
      <trkpt lat="42.87801" lon="-0.18758">
        <ele>2240.4</ele>
        <time>2026-07-15T11:56:14Z</time>
      </trkpt>
      <trkpt lat="42.87802" lon="-0.18758">
        <ele>2240.4</ele>
        <time>2026-07-15T11:56:15Z</time>
      </trkpt>
      <trkpt lat="42.87802" lon="-0.18759">
        <ele>2240.4</ele>
        <time>2026-07-15T11:56:15Z</time>
      </trkpt>
      <trkpt lat="42.87802" lon="-0.18759">
        <ele>2240.4</ele>
        <time>2026-07-15T11:56:16Z</time>
      </trkpt>
      <trkpt lat="42.87803" lon="-0.1876">
        <ele>2240.4</ele>
        <time>2026-07-15T11:56:17Z</time>
      </trkpt>
      <trkpt lat="42.87804" lon="-0.1876">
        <ele>2240.4</ele>
        <time>2026-07-15T11:56:18Z</time>
      </trkpt>
      <trkpt lat="42.87804" lon="-0.1876">
        <ele>2240.4</ele>
        <time>2026-07-15T11:56:18Z</time>
      </trkpt>
      <trkpt lat="42.87805" lon="-0.1876">
        <ele>2240.4</ele>
        <time>2026-07-15T11:56:19Z</time>
      </trkpt>
      <trkpt lat="42.87805" lon="-0.1876">
        <ele>2240.4</ele>
        <time>2026-07-15T11:56:19Z</time>
      </trkpt>
      <trkpt lat="42.87805" lon="-0.18761">
        <ele>2240.4</ele>
        <time>2026-07-15T11:56:20Z</time>
      </trkpt>
      <trkpt lat="42.87806" lon="-0.18762">
        <ele>2240.4</ele>
        <time>2026-07-15T11:56:21Z</time>
      </trkpt>
      <trkpt lat="42.87806" lon="-0.18762">
        <ele>2240.4</ele>
        <time>2026-07-15T11:56:21Z</time>
      </trkpt>
      <trkpt lat="42.87805" lon="-0.18763">
        <ele>2240.4</ele>
        <time>2026-07-15T11:56:22Z</time>
      </trkpt>
      <trkpt lat="42.87805" lon="-0.18764">
        <ele>2239.4</ele>
        <time>2026-07-15T11:56:23Z</time>
      </trkpt>
      <trkpt lat="42.87805" lon="-0.18765">
        <ele>2239.4</ele>
        <time>2026-07-15T11:56:24Z</time>
      </trkpt>
      <trkpt lat="42.87805" lon="-0.18766">
        <ele>2239.4</ele>
        <time>2026-07-15T11:56:25Z</time>
      </trkpt>
      <trkpt lat="42.87805" lon="-0.18767">
        <ele>2238.4</ele>
        <time>2026-07-15T11:56:26Z</time>
      </trkpt>
      <trkpt lat="42.87805" lon="-0.18768">
        <ele>2238.4</ele>
        <time>2026-07-15T11:56:27Z</time>
      </trkpt>
      <trkpt lat="42.87805" lon="-0.18768">
        <ele>2238.4</ele>
        <time>2026-07-15T11:56:28Z</time>
      </trkpt>
      <trkpt lat="42.87806" lon="-0.18769">
        <ele>2238.4</ele>
        <time>2026-07-15T11:56:28Z</time>
      </trkpt>
      <trkpt lat="42.87806" lon="-0.18769">
        <ele>2237.4</ele>
        <time>2026-07-15T11:56:29Z</time>
      </trkpt>
      <trkpt lat="42.87806" lon="-0.1877">
        <ele>2237.4</ele>
        <time>2026-07-15T11:56:30Z</time>
      </trkpt>
      <trkpt lat="42.87806" lon="-0.1877">
        <ele>2237.4</ele>
        <time>2026-07-15T11:56:30Z</time>
      </trkpt>
      <trkpt lat="42.87807" lon="-0.18771">
        <ele>2237.4</ele>
        <time>2026-07-15T11:56:31Z</time>
      </trkpt>
      <trkpt lat="42.87807" lon="-0.18772">
        <ele>2237.4</ele>
        <time>2026-07-15T11:56:32Z</time>
      </trkpt>
      <trkpt lat="42.87808" lon="-0.18772">
        <ele>2237.4</ele>
        <time>2026-07-15T11:56:33Z</time>
      </trkpt>
      <trkpt lat="42.87808" lon="-0.18771">
        <ele>2237.4</ele>
        <time>2026-07-15T11:56:33Z</time>
      </trkpt>
      <trkpt lat="42.87808" lon="-0.18771">
        <ele>2237.4</ele>
        <time>2026-07-15T11:56:34Z</time>
      </trkpt>
      <trkpt lat="42.87808" lon="-0.18771">
        <ele>2237.4</ele>
        <time>2026-07-15T11:56:35Z</time>
      </trkpt>
      <trkpt lat="42.87808" lon="-0.18771">
        <ele>2236.4</ele>
        <time>2026-07-15T11:56:35Z</time>
      </trkpt>
      <trkpt lat="42.87809" lon="-0.18771">
        <ele>2236.4</ele>
        <time>2026-07-15T11:56:36Z</time>
      </trkpt>
      <trkpt lat="42.87809" lon="-0.18772">
        <ele>2236.4</ele>
        <time>2026-07-15T11:56:37Z</time>
      </trkpt>
      <trkpt lat="42.87808" lon="-0.18773">
        <ele>2236.4</ele>
        <time>2026-07-15T11:56:38Z</time>
      </trkpt>
      <trkpt lat="42.87808" lon="-0.18774">
        <ele>2236.4</ele>
        <time>2026-07-15T11:56:39Z</time>
      </trkpt>
      <trkpt lat="42.87808" lon="-0.18776">
        <ele>2236.4</ele>
        <time>2026-07-15T11:56:40Z</time>
      </trkpt>
      <trkpt lat="42.87808" lon="-0.18777">
        <ele>2235.4</ele>
        <time>2026-07-15T11:56:41Z</time>
      </trkpt>
      <trkpt lat="42.87808" lon="-0.18777">
        <ele>2235.4</ele>
        <time>2026-07-15T11:56:41Z</time>
      </trkpt>
      <trkpt lat="42.87808" lon="-0.18778">
        <ele>2235.4</ele>
        <time>2026-07-15T11:56:42Z</time>
      </trkpt>
      <trkpt lat="42.87809" lon="-0.18779">
        <ele>2235.4</ele>
        <time>2026-07-15T11:56:42Z</time>
      </trkpt>
      <trkpt lat="42.87809" lon="-0.18779">
        <ele>2235.4</ele>
        <time>2026-07-15T11:56:43Z</time>
      </trkpt>
      <trkpt lat="42.8781" lon="-0.1878">
        <ele>2235.4</ele>
        <time>2026-07-15T11:56:44Z</time>
      </trkpt>
      <trkpt lat="42.8781" lon="-0.1878">
        <ele>2235.4</ele>
        <time>2026-07-15T11:56:44Z</time>
      </trkpt>
      <trkpt lat="42.8781" lon="-0.18781">
        <ele>2235.4</ele>
        <time>2026-07-15T11:56:45Z</time>
      </trkpt>
      <trkpt lat="42.8781" lon="-0.18781">
        <ele>2236.4</ele>
        <time>2026-07-15T11:56:45Z</time>
      </trkpt>
      <trkpt lat="42.87811" lon="-0.18782">
        <ele>2236.4</ele>
        <time>2026-07-15T11:56:46Z</time>
      </trkpt>
      <trkpt lat="42.87811" lon="-0.18782">
        <ele>2236.4</ele>
        <time>2026-07-15T11:56:47Z</time>
      </trkpt>
      <trkpt lat="42.87812" lon="-0.18782">
        <ele>2235.4</ele>
        <time>2026-07-15T11:56:48Z</time>
      </trkpt>
      <trkpt lat="42.87813" lon="-0.18781">
        <ele>2235.4</ele>
        <time>2026-07-15T11:56:49Z</time>
      </trkpt>
      <trkpt lat="42.87814" lon="-0.18781">
        <ele>2235.4</ele>
        <time>2026-07-15T11:56:50Z</time>
      </trkpt>
      <trkpt lat="42.87814" lon="-0.1878">
        <ele>2234.4</ele>
        <time>2026-07-15T11:56:51Z</time>
      </trkpt>
      <trkpt lat="42.87814" lon="-0.1878">
        <ele>2234.4</ele>
        <time>2026-07-15T11:56:51Z</time>
      </trkpt>
      <trkpt lat="42.87815" lon="-0.1878">
        <ele>2234.4</ele>
        <time>2026-07-15T11:56:52Z</time>
      </trkpt>
      <trkpt lat="42.87815" lon="-0.1878">
        <ele>2233.4</ele>
        <time>2026-07-15T11:56:53Z</time>
      </trkpt>
      <trkpt lat="42.87815" lon="-0.1878">
        <ele>2234.4</ele>
        <time>2026-07-15T11:56:53Z</time>
      </trkpt>
      <trkpt lat="42.87816" lon="-0.1878">
        <ele>2234.4</ele>
        <time>2026-07-15T11:56:54Z</time>
      </trkpt>
      <trkpt lat="42.87816" lon="-0.18781">
        <ele>2234.4</ele>
        <time>2026-07-15T11:56:54Z</time>
      </trkpt>
      <trkpt lat="42.87816" lon="-0.18781">
        <ele>2233.4</ele>
        <time>2026-07-15T11:56:55Z</time>
      </trkpt>
      <trkpt lat="42.87817" lon="-0.18781">
        <ele>2233.4</ele>
        <time>2026-07-15T11:56:56Z</time>
      </trkpt>
      <trkpt lat="42.87817" lon="-0.18781">
        <ele>2234.4</ele>
        <time>2026-07-15T11:56:56Z</time>
      </trkpt>
      <trkpt lat="42.87817" lon="-0.18781">
        <ele>2234.4</ele>
        <time>2026-07-15T11:56:57Z</time>
      </trkpt>
      <trkpt lat="42.87818" lon="-0.18782">
        <ele>2234.4</ele>
        <time>2026-07-15T11:56:58Z</time>
      </trkpt>
      <trkpt lat="42.87819" lon="-0.18782">
        <ele>2233.4</ele>
        <time>2026-07-15T11:56:59Z</time>
      </trkpt>
      <trkpt lat="42.87819" lon="-0.18783">
        <ele>2233.4</ele>
        <time>2026-07-15T11:56:59Z</time>
      </trkpt>
      <trkpt lat="42.87819" lon="-0.18783">
        <ele>2233.4</ele>
        <time>2026-07-15T11:57:00Z</time>
      </trkpt>
      <trkpt lat="42.8782" lon="-0.18784">
        <ele>2232.4</ele>
        <time>2026-07-15T11:57:00Z</time>
      </trkpt>
      <trkpt lat="42.8782" lon="-0.18784">
        <ele>2232.4</ele>
        <time>2026-07-15T11:57:01Z</time>
      </trkpt>
      <trkpt lat="42.87821" lon="-0.18785">
        <ele>2232.4</ele>
        <time>2026-07-15T11:57:02Z</time>
      </trkpt>
      <trkpt lat="42.87821" lon="-0.18785">
        <ele>2233.4</ele>
        <time>2026-07-15T11:57:02Z</time>
      </trkpt>
      <trkpt lat="42.87821" lon="-0.18785">
        <ele>2233.4</ele>
        <time>2026-07-15T11:57:03Z</time>
      </trkpt>
      <trkpt lat="42.87822" lon="-0.18785">
        <ele>2233.4</ele>
        <time>2026-07-15T11:57:04Z</time>
      </trkpt>
      <trkpt lat="42.87823" lon="-0.18786">
        <ele>2233.4</ele>
        <time>2026-07-15T11:57:05Z</time>
      </trkpt>
      <trkpt lat="42.87823" lon="-0.18785">
        <ele>2233.4</ele>
        <time>2026-07-15T11:57:05Z</time>
      </trkpt>
      <trkpt lat="42.87824" lon="-0.18785">
        <ele>2233.4</ele>
        <time>2026-07-15T11:57:06Z</time>
      </trkpt>
      <trkpt lat="42.87824" lon="-0.18784">
        <ele>2232.4</ele>
        <time>2026-07-15T11:57:07Z</time>
      </trkpt>
      <trkpt lat="42.87825" lon="-0.18784">
        <ele>2232.4</ele>
        <time>2026-07-15T11:57:07Z</time>
      </trkpt>
      <trkpt lat="42.87826" lon="-0.18784">
        <ele>2232.4</ele>
        <time>2026-07-15T11:57:08Z</time>
      </trkpt>
      <trkpt lat="42.87826" lon="-0.18784">
        <ele>2231.4</ele>
        <time>2026-07-15T11:57:09Z</time>
      </trkpt>
      <trkpt lat="42.87827" lon="-0.18784">
        <ele>2231.4</ele>
        <time>2026-07-15T11:57:09Z</time>
      </trkpt>
      <trkpt lat="42.87827" lon="-0.18784">
        <ele>2231.4</ele>
        <time>2026-07-15T11:57:10Z</time>
      </trkpt>
      <trkpt lat="42.87828" lon="-0.18785">
        <ele>2231.4</ele>
        <time>2026-07-15T11:57:10Z</time>
      </trkpt>
      <trkpt lat="42.87828" lon="-0.18785">
        <ele>2231.4</ele>
        <time>2026-07-15T11:57:11Z</time>
      </trkpt>
      <trkpt lat="42.87828" lon="-0.18786">
        <ele>2230.4</ele>
        <time>2026-07-15T11:57:12Z</time>
      </trkpt>
      <trkpt lat="42.87828" lon="-0.18786">
        <ele>2230.4</ele>
        <time>2026-07-15T11:57:12Z</time>
      </trkpt>
      <trkpt lat="42.87829" lon="-0.18787">
        <ele>2230.4</ele>
        <time>2026-07-15T11:57:13Z</time>
      </trkpt>
      <trkpt lat="42.87829" lon="-0.18788">
        <ele>2229.4</ele>
        <time>2026-07-15T11:57:14Z</time>
      </trkpt>
      <trkpt lat="42.87829" lon="-0.18788">
        <ele>2229.4</ele>
        <time>2026-07-15T11:57:15Z</time>
      </trkpt>
      <trkpt lat="42.87829" lon="-0.18788">
        <ele>2229.4</ele>
        <time>2026-07-15T11:57:15Z</time>
      </trkpt>
      <trkpt lat="42.8783" lon="-0.18789">
        <ele>2229.4</ele>
        <time>2026-07-15T11:57:16Z</time>
      </trkpt>
      <trkpt lat="42.8783" lon="-0.18789">
        <ele>2229.4</ele>
        <time>2026-07-15T11:57:17Z</time>
      </trkpt>
      <trkpt lat="42.8783" lon="-0.18789">
        <ele>2230.4</ele>
        <time>2026-07-15T11:57:17Z</time>
      </trkpt>
      <trkpt lat="42.87831" lon="-0.18789">
        <ele>2230.4</ele>
        <time>2026-07-15T11:57:18Z</time>
      </trkpt>
      <trkpt lat="42.87831" lon="-0.18789">
        <ele>2230.4</ele>
        <time>2026-07-15T11:57:18Z</time>
      </trkpt>
      <trkpt lat="42.87831" lon="-0.18789">
        <ele>2230.4</ele>
        <time>2026-07-15T11:57:19Z</time>
      </trkpt>
      <trkpt lat="42.87832" lon="-0.1879">
        <ele>2230.4</ele>
        <time>2026-07-15T11:57:20Z</time>
      </trkpt>
      <trkpt lat="42.87832" lon="-0.1879">
        <ele>2230.4</ele>
        <time>2026-07-15T11:57:20Z</time>
      </trkpt>
      <trkpt lat="42.87832" lon="-0.1879">
        <ele>2230.4</ele>
        <time>2026-07-15T11:57:21Z</time>
      </trkpt>
      <trkpt lat="42.87833" lon="-0.18791">
        <ele>2230.4</ele>
        <time>2026-07-15T11:57:22Z</time>
      </trkpt>
      <trkpt lat="42.87833" lon="-0.18791">
        <ele>2230.4</ele>
        <time>2026-07-15T11:57:22Z</time>
      </trkpt>
      <trkpt lat="42.87834" lon="-0.18791">
        <ele>2230.4</ele>
        <time>2026-07-15T11:57:23Z</time>
      </trkpt>
      <trkpt lat="42.87834" lon="-0.18792">
        <ele>2230.4</ele>
        <time>2026-07-15T11:57:24Z</time>
      </trkpt>
      <trkpt lat="42.87835" lon="-0.18792">
        <ele>2230.4</ele>
        <time>2026-07-15T11:57:24Z</time>
      </trkpt>
      <trkpt lat="42.87835" lon="-0.18793">
        <ele>2230.4</ele>
        <time>2026-07-15T11:57:25Z</time>
      </trkpt>
      <trkpt lat="42.87835" lon="-0.18793">
        <ele>2230.4</ele>
        <time>2026-07-15T11:57:25Z</time>
      </trkpt>
      <trkpt lat="42.87835" lon="-0.18793">
        <ele>2230.4</ele>
        <time>2026-07-15T11:57:26Z</time>
      </trkpt>
      <trkpt lat="42.87836" lon="-0.18794">
        <ele>2230.4</ele>
        <time>2026-07-15T11:57:26Z</time>
      </trkpt>
      <trkpt lat="42.87836" lon="-0.18794">
        <ele>2230.4</ele>
        <time>2026-07-15T11:57:27Z</time>
      </trkpt>
      <trkpt lat="42.87836" lon="-0.18794">
        <ele>2229.4</ele>
        <time>2026-07-15T11:57:27Z</time>
      </trkpt>
      <trkpt lat="42.87837" lon="-0.18794">
        <ele>2229.4</ele>
        <time>2026-07-15T11:57:27Z</time>
      </trkpt>
      <trkpt lat="42.87837" lon="-0.18794">
        <ele>2229.4</ele>
        <time>2026-07-15T11:57:28Z</time>
      </trkpt>
      <trkpt lat="42.87837" lon="-0.18795">
        <ele>2229.4</ele>
        <time>2026-07-15T11:57:29Z</time>
      </trkpt>
      <trkpt lat="42.87838" lon="-0.18794">
        <ele>2228.4</ele>
        <time>2026-07-15T11:57:29Z</time>
      </trkpt>
      <trkpt lat="42.87838" lon="-0.18795">
        <ele>2228.4</ele>
        <time>2026-07-15T11:57:30Z</time>
      </trkpt>
      <trkpt lat="42.87839" lon="-0.18794">
        <ele>2228.4</ele>
        <time>2026-07-15T11:57:31Z</time>
      </trkpt>
      <trkpt lat="42.87839" lon="-0.18794">
        <ele>2228.4</ele>
        <time>2026-07-15T11:57:32Z</time>
      </trkpt>
      <trkpt lat="42.87839" lon="-0.18794">
        <ele>2228.4</ele>
        <time>2026-07-15T11:57:32Z</time>
      </trkpt>
      <trkpt lat="42.8784" lon="-0.18795">
        <ele>2228.4</ele>
        <time>2026-07-15T11:57:33Z</time>
      </trkpt>
      <trkpt lat="42.8784" lon="-0.18795">
        <ele>2228.4</ele>
        <time>2026-07-15T11:57:34Z</time>
      </trkpt>
      <trkpt lat="42.8784" lon="-0.18795">
        <ele>2228.4</ele>
        <time>2026-07-15T11:57:34Z</time>
      </trkpt>
      <trkpt lat="42.87841" lon="-0.18796">
        <ele>2228.4</ele>
        <time>2026-07-15T11:57:35Z</time>
      </trkpt>
      <trkpt lat="42.87841" lon="-0.18796">
        <ele>2228.4</ele>
        <time>2026-07-15T11:57:36Z</time>
      </trkpt>
      <trkpt lat="42.87841" lon="-0.18797">
        <ele>2227.4</ele>
        <time>2026-07-15T11:57:36Z</time>
      </trkpt>
      <trkpt lat="42.87841" lon="-0.18797">
        <ele>2227.4</ele>
        <time>2026-07-15T11:57:37Z</time>
      </trkpt>
      <trkpt lat="42.87842" lon="-0.18797">
        <ele>2227.4</ele>
        <time>2026-07-15T11:57:38Z</time>
      </trkpt>
      <trkpt lat="42.87842" lon="-0.18798">
        <ele>2227.4</ele>
        <time>2026-07-15T11:57:38Z</time>
      </trkpt>
      <trkpt lat="42.87842" lon="-0.18798">
        <ele>2227.4</ele>
        <time>2026-07-15T11:57:39Z</time>
      </trkpt>
      <trkpt lat="42.87843" lon="-0.18798">
        <ele>2226.4</ele>
        <time>2026-07-15T11:57:39Z</time>
      </trkpt>
      <trkpt lat="42.87843" lon="-0.18798">
        <ele>2226.4</ele>
        <time>2026-07-15T11:57:40Z</time>
      </trkpt>
      <trkpt lat="42.87844" lon="-0.18798">
        <ele>2226.4</ele>
        <time>2026-07-15T11:57:41Z</time>
      </trkpt>
      <trkpt lat="42.87845" lon="-0.18799">
        <ele>2226.4</ele>
        <time>2026-07-15T11:57:42Z</time>
      </trkpt>
      <trkpt lat="42.87845" lon="-0.18799">
        <ele>2225.4</ele>
        <time>2026-07-15T11:57:43Z</time>
      </trkpt>
      <trkpt lat="42.87846" lon="-0.18799">
        <ele>2224.4</ele>
        <time>2026-07-15T11:57:43Z</time>
      </trkpt>
      <trkpt lat="42.87846" lon="-0.188">
        <ele>2224.4</ele>
        <time>2026-07-15T11:57:44Z</time>
      </trkpt>
      <trkpt lat="42.87846" lon="-0.188">
        <ele>2223.4</ele>
        <time>2026-07-15T11:57:44Z</time>
      </trkpt>
      <trkpt lat="42.87846" lon="-0.188">
        <ele>2224.4</ele>
        <time>2026-07-15T11:57:45Z</time>
      </trkpt>
      <trkpt lat="42.87847" lon="-0.188">
        <ele>2224.4</ele>
        <time>2026-07-15T11:57:46Z</time>
      </trkpt>
      <trkpt lat="42.87847" lon="-0.188">
        <ele>2224.4</ele>
        <time>2026-07-15T11:57:46Z</time>
      </trkpt>
      <trkpt lat="42.87848" lon="-0.188">
        <ele>2224.4</ele>
        <time>2026-07-15T11:57:47Z</time>
      </trkpt>
      <trkpt lat="42.87848" lon="-0.188">
        <ele>2224.4</ele>
        <time>2026-07-15T11:57:48Z</time>
      </trkpt>
      <trkpt lat="42.87848" lon="-0.188">
        <ele>2224.4</ele>
        <time>2026-07-15T11:57:48Z</time>
      </trkpt>
      <trkpt lat="42.87849" lon="-0.188">
        <ele>2224.4</ele>
        <time>2026-07-15T11:57:49Z</time>
      </trkpt>
      <trkpt lat="42.87849" lon="-0.188">
        <ele>2224.4</ele>
        <time>2026-07-15T11:57:49Z</time>
      </trkpt>
      <trkpt lat="42.8785" lon="-0.188">
        <ele>2224.4</ele>
        <time>2026-07-15T11:57:50Z</time>
      </trkpt>
      <trkpt lat="42.8785" lon="-0.188">
        <ele>2224.4</ele>
        <time>2026-07-15T11:57:51Z</time>
      </trkpt>
      <trkpt lat="42.87851" lon="-0.188">
        <ele>2223.4</ele>
        <time>2026-07-15T11:57:51Z</time>
      </trkpt>
      <trkpt lat="42.87851" lon="-0.188">
        <ele>2223.4</ele>
        <time>2026-07-15T11:57:52Z</time>
      </trkpt>
      <trkpt lat="42.87851" lon="-0.18801">
        <ele>2223.4</ele>
        <time>2026-07-15T11:57:52Z</time>
      </trkpt>
      <trkpt lat="42.87851" lon="-0.18801">
        <ele>2223.4</ele>
        <time>2026-07-15T11:57:53Z</time>
      </trkpt>
      <trkpt lat="42.87851" lon="-0.18802">
        <ele>2223.4</ele>
        <time>2026-07-15T11:57:54Z</time>
      </trkpt>
      <trkpt lat="42.87851" lon="-0.18802">
        <ele>2223.4</ele>
        <time>2026-07-15T11:57:55Z</time>
      </trkpt>
      <trkpt lat="42.87852" lon="-0.18802">
        <ele>2223.4</ele>
        <time>2026-07-15T11:57:56Z</time>
      </trkpt>
      <trkpt lat="42.87853" lon="-0.18802">
        <ele>2222.4</ele>
        <time>2026-07-15T11:57:57Z</time>
      </trkpt>
      <trkpt lat="42.87854" lon="-0.18802">
        <ele>2222.4</ele>
        <time>2026-07-15T11:57:58Z</time>
      </trkpt>
      <trkpt lat="42.87854" lon="-0.18803">
        <ele>2221.4</ele>
        <time>2026-07-15T11:57:59Z</time>
      </trkpt>
      <trkpt lat="42.87854" lon="-0.18803">
        <ele>2221.4</ele>
        <time>2026-07-15T11:57:59Z</time>
      </trkpt>
      <trkpt lat="42.87854" lon="-0.18803">
        <ele>2221.4</ele>
        <time>2026-07-15T11:58:00Z</time>
      </trkpt>
      <trkpt lat="42.87854" lon="-0.18804">
        <ele>2221.4</ele>
        <time>2026-07-15T11:58:00Z</time>
      </trkpt>
      <trkpt lat="42.87853" lon="-0.18805">
        <ele>2221.4</ele>
        <time>2026-07-15T11:58:01Z</time>
      </trkpt>
      <trkpt lat="42.87853" lon="-0.18805">
        <ele>2220.4</ele>
        <time>2026-07-15T11:58:01Z</time>
      </trkpt>
      <trkpt lat="42.87853" lon="-0.18805">
        <ele>2219.4</ele>
        <time>2026-07-15T11:58:02Z</time>
      </trkpt>
      <trkpt lat="42.87853" lon="-0.18806">
        <ele>2219.4</ele>
        <time>2026-07-15T11:58:03Z</time>
      </trkpt>
      <trkpt lat="42.87852" lon="-0.18806">
        <ele>2219.4</ele>
        <time>2026-07-15T11:58:04Z</time>
      </trkpt>
      <trkpt lat="42.87852" lon="-0.18806">
        <ele>2219.4</ele>
        <time>2026-07-15T11:58:04Z</time>
      </trkpt>
      <trkpt lat="42.87851" lon="-0.18806">
        <ele>2217.4</ele>
        <time>2026-07-15T11:58:05Z</time>
      </trkpt>
      <trkpt lat="42.87851" lon="-0.18807">
        <ele>2217.4</ele>
        <time>2026-07-15T11:58:06Z</time>
      </trkpt>
      <trkpt lat="42.8785" lon="-0.18807">
        <ele>2216.4</ele>
        <time>2026-07-15T11:58:07Z</time>
      </trkpt>
      <trkpt lat="42.87849" lon="-0.18808">
        <ele>2216.4</ele>
        <time>2026-07-15T11:58:07Z</time>
      </trkpt>
      <trkpt lat="42.87849" lon="-0.18808">
        <ele>2216.4</ele>
        <time>2026-07-15T11:58:08Z</time>
      </trkpt>
      <trkpt lat="42.87849" lon="-0.18809">
        <ele>2216.4</ele>
        <time>2026-07-15T11:58:09Z</time>
      </trkpt>
      <trkpt lat="42.87849" lon="-0.18809">
        <ele>2216.4</ele>
        <time>2026-07-15T11:58:09Z</time>
      </trkpt>
      <trkpt lat="42.87849" lon="-0.1881">
        <ele>2216.4</ele>
        <time>2026-07-15T11:58:10Z</time>
      </trkpt>
      <trkpt lat="42.87849" lon="-0.18811">
        <ele>2216.4</ele>
        <time>2026-07-15T11:58:10Z</time>
      </trkpt>
      <trkpt lat="42.8785" lon="-0.18811">
        <ele>2215.4</ele>
        <time>2026-07-15T11:58:11Z</time>
      </trkpt>
      <trkpt lat="42.8785" lon="-0.18812">
        <ele>2215.4</ele>
        <time>2026-07-15T11:58:12Z</time>
      </trkpt>
      <trkpt lat="42.8785" lon="-0.18812">
        <ele>2215.4</ele>
        <time>2026-07-15T11:58:12Z</time>
      </trkpt>
      <trkpt lat="42.8785" lon="-0.18813">
        <ele>2214.4</ele>
        <time>2026-07-15T11:58:13Z</time>
      </trkpt>
      <trkpt lat="42.8785" lon="-0.18814">
        <ele>2214.4</ele>
        <time>2026-07-15T11:58:14Z</time>
      </trkpt>
      <trkpt lat="42.87849" lon="-0.18814">
        <ele>2214.4</ele>
        <time>2026-07-15T11:58:14Z</time>
      </trkpt>
      <trkpt lat="42.87849" lon="-0.18815">
        <ele>2214.4</ele>
        <time>2026-07-15T11:58:15Z</time>
      </trkpt>
      <trkpt lat="42.87848" lon="-0.18815">
        <ele>2213.4</ele>
        <time>2026-07-15T11:58:16Z</time>
      </trkpt>
      <trkpt lat="42.87848" lon="-0.18816">
        <ele>2213.4</ele>
        <time>2026-07-15T11:58:17Z</time>
      </trkpt>
      <trkpt lat="42.87847" lon="-0.18816">
        <ele>2213.4</ele>
        <time>2026-07-15T11:58:18Z</time>
      </trkpt>
      <trkpt lat="42.87847" lon="-0.18816">
        <ele>2212.4</ele>
        <time>2026-07-15T11:58:18Z</time>
      </trkpt>
      <trkpt lat="42.87846" lon="-0.18817">
        <ele>2212.4</ele>
        <time>2026-07-15T11:58:19Z</time>
      </trkpt>
      <trkpt lat="42.87846" lon="-0.18817">
        <ele>2212.4</ele>
        <time>2026-07-15T11:58:19Z</time>
      </trkpt>
      <trkpt lat="42.87846" lon="-0.18818">
        <ele>2212.4</ele>
        <time>2026-07-15T11:58:20Z</time>
      </trkpt>
      <trkpt lat="42.87845" lon="-0.18818">
        <ele>2212.4</ele>
        <time>2026-07-15T11:58:21Z</time>
      </trkpt>
      <trkpt lat="42.87845" lon="-0.18818">
        <ele>2211.4</ele>
        <time>2026-07-15T11:58:21Z</time>
      </trkpt>
      <trkpt lat="42.87844" lon="-0.18819">
        <ele>2211.4</ele>
        <time>2026-07-15T11:58:22Z</time>
      </trkpt>
      <trkpt lat="42.87844" lon="-0.18819">
        <ele>2212.4</ele>
        <time>2026-07-15T11:58:23Z</time>
      </trkpt>
      <trkpt lat="42.87843" lon="-0.1882">
        <ele>2212.4</ele>
        <time>2026-07-15T11:58:24Z</time>
      </trkpt>
      <trkpt lat="42.87843" lon="-0.1882">
        <ele>2212.4</ele>
        <time>2026-07-15T11:58:24Z</time>
      </trkpt>
      <trkpt lat="42.87842" lon="-0.18821">
        <ele>2211.4</ele>
        <time>2026-07-15T11:58:25Z</time>
      </trkpt>
      <trkpt lat="42.87842" lon="-0.18821">
        <ele>2211.4</ele>
        <time>2026-07-15T11:58:25Z</time>
      </trkpt>
      <trkpt lat="42.87842" lon="-0.18822">
        <ele>2211.4</ele>
        <time>2026-07-15T11:58:26Z</time>
      </trkpt>
      <trkpt lat="42.87842" lon="-0.18822">
        <ele>2211.4</ele>
        <time>2026-07-15T11:58:27Z</time>
      </trkpt>
      <trkpt lat="42.87842" lon="-0.18823">
        <ele>2211.4</ele>
        <time>2026-07-15T11:58:27Z</time>
      </trkpt>
      <trkpt lat="42.87842" lon="-0.18824">
        <ele>2210.4</ele>
        <time>2026-07-15T11:58:28Z</time>
      </trkpt>
      <trkpt lat="42.87842" lon="-0.18824">
        <ele>2210.4</ele>
        <time>2026-07-15T11:58:28Z</time>
      </trkpt>
      <trkpt lat="42.87841" lon="-0.18825">
        <ele>2210.4</ele>
        <time>2026-07-15T11:58:29Z</time>
      </trkpt>
      <trkpt lat="42.87841" lon="-0.18825">
        <ele>2210.4</ele>
        <time>2026-07-15T11:58:29Z</time>
      </trkpt>
      <trkpt lat="42.87841" lon="-0.18826">
        <ele>2210.4</ele>
        <time>2026-07-15T11:58:30Z</time>
      </trkpt>
      <trkpt lat="42.87841" lon="-0.18826">
        <ele>2210.4</ele>
        <time>2026-07-15T11:58:30Z</time>
      </trkpt>
      <trkpt lat="42.87841" lon="-0.18826">
        <ele>2210.4</ele>
        <time>2026-07-15T11:58:31Z</time>
      </trkpt>
      <trkpt lat="42.87841" lon="-0.18827">
        <ele>2209.4</ele>
        <time>2026-07-15T11:58:32Z</time>
      </trkpt>
      <trkpt lat="42.87841" lon="-0.18828">
        <ele>2210.4</ele>
        <time>2026-07-15T11:58:32Z</time>
      </trkpt>
      <trkpt lat="42.87841" lon="-0.18829">
        <ele>2210.4</ele>
        <time>2026-07-15T11:58:33Z</time>
      </trkpt>
      <trkpt lat="42.87841" lon="-0.18829">
        <ele>2210.4</ele>
        <time>2026-07-15T11:58:34Z</time>
      </trkpt>
      <trkpt lat="42.87841" lon="-0.1883">
        <ele>2210.4</ele>
        <time>2026-07-15T11:58:34Z</time>
      </trkpt>
      <trkpt lat="42.87841" lon="-0.1883">
        <ele>2210.4</ele>
        <time>2026-07-15T11:58:35Z</time>
      </trkpt>
      <trkpt lat="42.87841" lon="-0.18831">
        <ele>2209.4</ele>
        <time>2026-07-15T11:58:35Z</time>
      </trkpt>
      <trkpt lat="42.87841" lon="-0.18831">
        <ele>2208.4</ele>
        <time>2026-07-15T11:58:36Z</time>
      </trkpt>
      <trkpt lat="42.87841" lon="-0.18832">
        <ele>2208.4</ele>
        <time>2026-07-15T11:58:37Z</time>
      </trkpt>
      <trkpt lat="42.87841" lon="-0.18832">
        <ele>2209.4</ele>
        <time>2026-07-15T11:58:37Z</time>
      </trkpt>
      <trkpt lat="42.87841" lon="-0.18833">
        <ele>2208.4</ele>
        <time>2026-07-15T11:58:38Z</time>
      </trkpt>
      <trkpt lat="42.87841" lon="-0.18834">
        <ele>2208.4</ele>
        <time>2026-07-15T11:58:39Z</time>
      </trkpt>
      <trkpt lat="42.87841" lon="-0.18835">
        <ele>2208.4</ele>
        <time>2026-07-15T11:58:39Z</time>
      </trkpt>
      <trkpt lat="42.87841" lon="-0.18836">
        <ele>2208.4</ele>
        <time>2026-07-15T11:58:40Z</time>
      </trkpt>
      <trkpt lat="42.87841" lon="-0.18836">
        <ele>2209.4</ele>
        <time>2026-07-15T11:58:41Z</time>
      </trkpt>
      <trkpt lat="42.87841" lon="-0.18837">
        <ele>2208.4</ele>
        <time>2026-07-15T11:58:42Z</time>
      </trkpt>
      <trkpt lat="42.87842" lon="-0.18837">
        <ele>2208.4</ele>
        <time>2026-07-15T11:58:42Z</time>
      </trkpt>
      <trkpt lat="42.87842" lon="-0.18838">
        <ele>2209.4</ele>
        <time>2026-07-15T11:58:43Z</time>
      </trkpt>
      <trkpt lat="42.87842" lon="-0.18838">
        <ele>2209.4</ele>
        <time>2026-07-15T11:58:44Z</time>
      </trkpt>
      <trkpt lat="42.87842" lon="-0.18838">
        <ele>2208.4</ele>
        <time>2026-07-15T11:58:44Z</time>
      </trkpt>
      <trkpt lat="42.87843" lon="-0.18838">
        <ele>2208.4</ele>
        <time>2026-07-15T11:58:45Z</time>
      </trkpt>
      <trkpt lat="42.87843" lon="-0.18838">
        <ele>2208.4</ele>
        <time>2026-07-15T11:58:46Z</time>
      </trkpt>
      <trkpt lat="42.87844" lon="-0.18839">
        <ele>2209.4</ele>
        <time>2026-07-15T11:58:46Z</time>
      </trkpt>
      <trkpt lat="42.87844" lon="-0.18839">
        <ele>2209.4</ele>
        <time>2026-07-15T11:58:47Z</time>
      </trkpt>
      <trkpt lat="42.87845" lon="-0.1884">
        <ele>2209.4</ele>
        <time>2026-07-15T11:58:48Z</time>
      </trkpt>
      <trkpt lat="42.87845" lon="-0.1884">
        <ele>2209.4</ele>
        <time>2026-07-15T11:58:48Z</time>
      </trkpt>
      <trkpt lat="42.87846" lon="-0.1884">
        <ele>2209.4</ele>
        <time>2026-07-15T11:58:49Z</time>
      </trkpt>
      <trkpt lat="42.87847" lon="-0.18839">
        <ele>2209.4</ele>
        <time>2026-07-15T11:58:50Z</time>
      </trkpt>
      <trkpt lat="42.87848" lon="-0.18839">
        <ele>2208.4</ele>
        <time>2026-07-15T11:58:51Z</time>
      </trkpt>
      <trkpt lat="42.87849" lon="-0.1884">
        <ele>2208.4</ele>
        <time>2026-07-15T11:58:52Z</time>
      </trkpt>
      <trkpt lat="42.8785" lon="-0.1884">
        <ele>2208.4</ele>
        <time>2026-07-15T11:58:52Z</time>
      </trkpt>
      <trkpt lat="42.8785" lon="-0.18841">
        <ele>2208.4</ele>
        <time>2026-07-15T11:58:53Z</time>
      </trkpt>
      <trkpt lat="42.8785" lon="-0.18842">
        <ele>2208.4</ele>
        <time>2026-07-15T11:58:54Z</time>
      </trkpt>
      <trkpt lat="42.8785" lon="-0.18843">
        <ele>2208.4</ele>
        <time>2026-07-15T11:58:55Z</time>
      </trkpt>
      <trkpt lat="42.87851" lon="-0.18843">
        <ele>2207.4</ele>
        <time>2026-07-15T11:58:55Z</time>
      </trkpt>
      <trkpt lat="42.87851" lon="-0.18844">
        <ele>2207.4</ele>
        <time>2026-07-15T11:58:56Z</time>
      </trkpt>
      <trkpt lat="42.87852" lon="-0.18844">
        <ele>2207.4</ele>
        <time>2026-07-15T11:58:57Z</time>
      </trkpt>
      <trkpt lat="42.87853" lon="-0.18844">
        <ele>2207.4</ele>
        <time>2026-07-15T11:58:58Z</time>
      </trkpt>
      <trkpt lat="42.87854" lon="-0.18844">
        <ele>2207.4</ele>
        <time>2026-07-15T11:58:59Z</time>
      </trkpt>
      <trkpt lat="42.87855" lon="-0.18844">
        <ele>2207.4</ele>
        <time>2026-07-15T11:59:00Z</time>
      </trkpt>
      <trkpt lat="42.87855" lon="-0.18844">
        <ele>2207.4</ele>
        <time>2026-07-15T11:59:01Z</time>
      </trkpt>
      <trkpt lat="42.87856" lon="-0.18844">
        <ele>2206.4</ele>
        <time>2026-07-15T11:59:02Z</time>
      </trkpt>
      <trkpt lat="42.87857" lon="-0.18844">
        <ele>2206.4</ele>
        <time>2026-07-15T11:59:03Z</time>
      </trkpt>
      <trkpt lat="42.87857" lon="-0.18845">
        <ele>2206.4</ele>
        <time>2026-07-15T11:59:04Z</time>
      </trkpt>
      <trkpt lat="42.87858" lon="-0.18844">
        <ele>2205.4</ele>
        <time>2026-07-15T11:59:05Z</time>
      </trkpt>
      <trkpt lat="42.87859" lon="-0.18844">
        <ele>2204.4</ele>
        <time>2026-07-15T11:59:05Z</time>
      </trkpt>
      <trkpt lat="42.87859" lon="-0.18844">
        <ele>2204.4</ele>
        <time>2026-07-15T11:59:06Z</time>
      </trkpt>
      <trkpt lat="42.8786" lon="-0.18844">
        <ele>2204.4</ele>
        <time>2026-07-15T11:59:07Z</time>
      </trkpt>
      <trkpt lat="42.8786" lon="-0.18845">
        <ele>2203.4</ele>
        <time>2026-07-15T11:59:08Z</time>
      </trkpt>
      <trkpt lat="42.87861" lon="-0.18845">
        <ele>2202.4</ele>
        <time>2026-07-15T11:59:08Z</time>
      </trkpt>
      <trkpt lat="42.87861" lon="-0.18845">
        <ele>2202.4</ele>
        <time>2026-07-15T11:59:09Z</time>
      </trkpt>
      <trkpt lat="42.87862" lon="-0.18845">
        <ele>2202.4</ele>
        <time>2026-07-15T11:59:10Z</time>
      </trkpt>
      <trkpt lat="42.87863" lon="-0.18846">
        <ele>2202.4</ele>
        <time>2026-07-15T11:59:11Z</time>
      </trkpt>
      <trkpt lat="42.87863" lon="-0.18848">
        <ele>2201.4</ele>
        <time>2026-07-15T11:59:12Z</time>
      </trkpt>
      <trkpt lat="42.87863" lon="-0.1885">
        <ele>2202.4</ele>
        <time>2026-07-15T11:59:13Z</time>
      </trkpt>
      <trkpt lat="42.87863" lon="-0.18851">
        <ele>2202.4</ele>
        <time>2026-07-15T11:59:14Z</time>
      </trkpt>
      <trkpt lat="42.87864" lon="-0.18851">
        <ele>2202.4</ele>
        <time>2026-07-15T11:59:15Z</time>
      </trkpt>
      <trkpt lat="42.87865" lon="-0.18851">
        <ele>2201.4</ele>
        <time>2026-07-15T11:59:16Z</time>
      </trkpt>
      <trkpt lat="42.87865" lon="-0.18851">
        <ele>2201.4</ele>
        <time>2026-07-15T11:59:16Z</time>
      </trkpt>
      <trkpt lat="42.87865" lon="-0.18851">
        <ele>2201.4</ele>
        <time>2026-07-15T11:59:17Z</time>
      </trkpt>
      <trkpt lat="42.87866" lon="-0.18851">
        <ele>2201.4</ele>
        <time>2026-07-15T11:59:17Z</time>
      </trkpt>
      <trkpt lat="42.87866" lon="-0.18851">
        <ele>2201.4</ele>
        <time>2026-07-15T11:59:18Z</time>
      </trkpt>
      <trkpt lat="42.87867" lon="-0.18852">
        <ele>2201.4</ele>
        <time>2026-07-15T11:59:19Z</time>
      </trkpt>
      <trkpt lat="42.87867" lon="-0.18853">
        <ele>2201.4</ele>
        <time>2026-07-15T11:59:20Z</time>
      </trkpt>
      <trkpt lat="42.87867" lon="-0.18853">
        <ele>2201.4</ele>
        <time>2026-07-15T11:59:20Z</time>
      </trkpt>
      <trkpt lat="42.87868" lon="-0.18853">
        <ele>2201.4</ele>
        <time>2026-07-15T11:59:21Z</time>
      </trkpt>
      <trkpt lat="42.87869" lon="-0.18853">
        <ele>2201.4</ele>
        <time>2026-07-15T11:59:22Z</time>
      </trkpt>
      <trkpt lat="42.8787" lon="-0.18852">
        <ele>2201.4</ele>
        <time>2026-07-15T11:59:23Z</time>
      </trkpt>
      <trkpt lat="42.8787" lon="-0.18851">
        <ele>2201.4</ele>
        <time>2026-07-15T11:59:23Z</time>
      </trkpt>
      <trkpt lat="42.87871" lon="-0.18851">
        <ele>2200.4</ele>
        <time>2026-07-15T11:59:24Z</time>
      </trkpt>
      <trkpt lat="42.87871" lon="-0.1885">
        <ele>2200.4</ele>
        <time>2026-07-15T11:59:25Z</time>
      </trkpt>
      <trkpt lat="42.87871" lon="-0.1885">
        <ele>2200.4</ele>
        <time>2026-07-15T11:59:25Z</time>
      </trkpt>
      <trkpt lat="42.87872" lon="-0.1885">
        <ele>2200.4</ele>
        <time>2026-07-15T11:59:26Z</time>
      </trkpt>
      <trkpt lat="42.87872" lon="-0.1885">
        <ele>2199.4</ele>
        <time>2026-07-15T11:59:26Z</time>
      </trkpt>
      <trkpt lat="42.87873" lon="-0.18849">
        <ele>2199.4</ele>
        <time>2026-07-15T11:59:27Z</time>
      </trkpt>
      <trkpt lat="42.87873" lon="-0.18849">
        <ele>2199.4</ele>
        <time>2026-07-15T11:59:27Z</time>
      </trkpt>
      <trkpt lat="42.87874" lon="-0.18848">
        <ele>2199.4</ele>
        <time>2026-07-15T11:59:28Z</time>
      </trkpt>
      <trkpt lat="42.87875" lon="-0.18848">
        <ele>2199.4</ele>
        <time>2026-07-15T11:59:29Z</time>
      </trkpt>
      <trkpt lat="42.87876" lon="-0.18848">
        <ele>2199.4</ele>
        <time>2026-07-15T11:59:30Z</time>
      </trkpt>
      <trkpt lat="42.87876" lon="-0.18848">
        <ele>2198.4</ele>
        <time>2026-07-15T11:59:30Z</time>
      </trkpt>
      <trkpt lat="42.87877" lon="-0.18848">
        <ele>2198.4</ele>
        <time>2026-07-15T11:59:31Z</time>
      </trkpt>
      <trkpt lat="42.87877" lon="-0.18848">
        <ele>2198.4</ele>
        <time>2026-07-15T11:59:31Z</time>
      </trkpt>
      <trkpt lat="42.87878" lon="-0.18848">
        <ele>2198.4</ele>
        <time>2026-07-15T11:59:32Z</time>
      </trkpt>
      <trkpt lat="42.87879" lon="-0.18848">
        <ele>2198.4</ele>
        <time>2026-07-15T11:59:33Z</time>
      </trkpt>
      <trkpt lat="42.87879" lon="-0.18849">
        <ele>2198.4</ele>
        <time>2026-07-15T11:59:34Z</time>
      </trkpt>
      <trkpt lat="42.87879" lon="-0.18849">
        <ele>2198.4</ele>
        <time>2026-07-15T11:59:34Z</time>
      </trkpt>
      <trkpt lat="42.87879" lon="-0.18849">
        <ele>2199.4</ele>
        <time>2026-07-15T11:59:35Z</time>
      </trkpt>
      <trkpt lat="42.87879" lon="-0.1885">
        <ele>2198.4</ele>
        <time>2026-07-15T11:59:35Z</time>
      </trkpt>
      <trkpt lat="42.8788" lon="-0.1885">
        <ele>2198.4</ele>
        <time>2026-07-15T11:59:36Z</time>
      </trkpt>
      <trkpt lat="42.87881" lon="-0.1885">
        <ele>2197.4</ele>
        <time>2026-07-15T11:59:37Z</time>
      </trkpt>
      <trkpt lat="42.87881" lon="-0.18851">
        <ele>2197.4</ele>
        <time>2026-07-15T11:59:37Z</time>
      </trkpt>
      <trkpt lat="42.87881" lon="-0.18852">
        <ele>2197.4</ele>
        <time>2026-07-15T11:59:38Z</time>
      </trkpt>
      <trkpt lat="42.87881" lon="-0.18853">
        <ele>2197.4</ele>
        <time>2026-07-15T11:59:39Z</time>
      </trkpt>
      <trkpt lat="42.87881" lon="-0.18853">
        <ele>2197.4</ele>
        <time>2026-07-15T11:59:39Z</time>
      </trkpt>
      <trkpt lat="42.87881" lon="-0.18853">
        <ele>2197.4</ele>
        <time>2026-07-15T11:59:40Z</time>
      </trkpt>
      <trkpt lat="42.87882" lon="-0.18854">
        <ele>2197.4</ele>
        <time>2026-07-15T11:59:41Z</time>
      </trkpt>
      <trkpt lat="42.87882" lon="-0.18855">
        <ele>2197.4</ele>
        <time>2026-07-15T11:59:41Z</time>
      </trkpt>
      <trkpt lat="42.87882" lon="-0.18856">
        <ele>2197.4</ele>
        <time>2026-07-15T11:59:42Z</time>
      </trkpt>
      <trkpt lat="42.87882" lon="-0.18856">
        <ele>2197.4</ele>
        <time>2026-07-15T11:59:42Z</time>
      </trkpt>
      <trkpt lat="42.87882" lon="-0.18857">
        <ele>2196.4</ele>
        <time>2026-07-15T11:59:43Z</time>
      </trkpt>
      <trkpt lat="42.87883" lon="-0.18857">
        <ele>2196.4</ele>
        <time>2026-07-15T11:59:44Z</time>
      </trkpt>
      <trkpt lat="42.87883" lon="-0.18857">
        <ele>2196.4</ele>
        <time>2026-07-15T11:59:44Z</time>
      </trkpt>
      <trkpt lat="42.87884" lon="-0.18858">
        <ele>2196.4</ele>
        <time>2026-07-15T11:59:45Z</time>
      </trkpt>
      <trkpt lat="42.87884" lon="-0.18858">
        <ele>2196.4</ele>
        <time>2026-07-15T11:59:45Z</time>
      </trkpt>
      <trkpt lat="42.87884" lon="-0.18859">
        <ele>2196.4</ele>
        <time>2026-07-15T11:59:46Z</time>
      </trkpt>
      <trkpt lat="42.87885" lon="-0.18859">
        <ele>2196.4</ele>
        <time>2026-07-15T11:59:46Z</time>
      </trkpt>
      <trkpt lat="42.87885" lon="-0.18859">
        <ele>2196.4</ele>
        <time>2026-07-15T11:59:47Z</time>
      </trkpt>
      <trkpt lat="42.87885" lon="-0.18859">
        <ele>2196.4</ele>
        <time>2026-07-15T11:59:47Z</time>
      </trkpt>
      <trkpt lat="42.87885" lon="-0.1886">
        <ele>2196.4</ele>
        <time>2026-07-15T11:59:48Z</time>
      </trkpt>
      <trkpt lat="42.87885" lon="-0.1886">
        <ele>2195.4</ele>
        <time>2026-07-15T11:59:48Z</time>
      </trkpt>
      <trkpt lat="42.87886" lon="-0.18861">
        <ele>2195.4</ele>
        <time>2026-07-15T11:59:49Z</time>
      </trkpt>
      <trkpt lat="42.87887" lon="-0.18861">
        <ele>2195.4</ele>
        <time>2026-07-15T11:59:50Z</time>
      </trkpt>
      <trkpt lat="42.87887" lon="-0.18861">
        <ele>2194.4</ele>
        <time>2026-07-15T11:59:50Z</time>
      </trkpt>
      <trkpt lat="42.87888" lon="-0.18862">
        <ele>2194.4</ele>
        <time>2026-07-15T11:59:51Z</time>
      </trkpt>
      <trkpt lat="42.87888" lon="-0.18862">
        <ele>2194.4</ele>
        <time>2026-07-15T11:59:52Z</time>
      </trkpt>
      <trkpt lat="42.87889" lon="-0.18862">
        <ele>2194.4</ele>
        <time>2026-07-15T11:59:52Z</time>
      </trkpt>
      <trkpt lat="42.87889" lon="-0.18863">
        <ele>2194.4</ele>
        <time>2026-07-15T11:59:53Z</time>
      </trkpt>
      <trkpt lat="42.8789" lon="-0.18863">
        <ele>2194.4</ele>
        <time>2026-07-15T11:59:54Z</time>
      </trkpt>
      <trkpt lat="42.8789" lon="-0.18864">
        <ele>2193.4</ele>
        <time>2026-07-15T11:59:54Z</time>
      </trkpt>
      <trkpt lat="42.8789" lon="-0.18865">
        <ele>2193.4</ele>
        <time>2026-07-15T11:59:55Z</time>
      </trkpt>
      <trkpt lat="42.87891" lon="-0.18866">
        <ele>2193.4</ele>
        <time>2026-07-15T11:59:56Z</time>
      </trkpt>
      <trkpt lat="42.87891" lon="-0.18866">
        <ele>2193.4</ele>
        <time>2026-07-15T11:59:56Z</time>
      </trkpt>
      <trkpt lat="42.87891" lon="-0.18867">
        <ele>2193.4</ele>
        <time>2026-07-15T11:59:57Z</time>
      </trkpt>
      <trkpt lat="42.87891" lon="-0.18867">
        <ele>2193.4</ele>
        <time>2026-07-15T11:59:58Z</time>
      </trkpt>
      <trkpt lat="42.87891" lon="-0.18868">
        <ele>2193.4</ele>
        <time>2026-07-15T11:59:58Z</time>
      </trkpt>
      <trkpt lat="42.87892" lon="-0.18869">
        <ele>2193.4</ele>
        <time>2026-07-15T11:59:59Z</time>
      </trkpt>
      <trkpt lat="42.87891" lon="-0.18869">
        <ele>2193.4</ele>
        <time>2026-07-15T11:59:59Z</time>
      </trkpt>
      <trkpt lat="42.87891" lon="-0.1887">
        <ele>2193.4</ele>
        <time>2026-07-15T12:00:00Z</time>
      </trkpt>
      <trkpt lat="42.87892" lon="-0.1887">
        <ele>2192.4</ele>
        <time>2026-07-15T12:00:00Z</time>
      </trkpt>
      <trkpt lat="42.87892" lon="-0.1887">
        <ele>2192.4</ele>
        <time>2026-07-15T12:00:01Z</time>
      </trkpt>
      <trkpt lat="42.87892" lon="-0.18872">
        <ele>2192.4</ele>
        <time>2026-07-15T12:00:02Z</time>
      </trkpt>
      <trkpt lat="42.87893" lon="-0.18871">
        <ele>2191.4</ele>
        <time>2026-07-15T12:00:02Z</time>
      </trkpt>
      <trkpt lat="42.87893" lon="-0.18872">
        <ele>2191.4</ele>
        <time>2026-07-15T12:00:03Z</time>
      </trkpt>
      <trkpt lat="42.87893" lon="-0.18872">
        <ele>2190.4</ele>
        <time>2026-07-15T12:00:04Z</time>
      </trkpt>
      <trkpt lat="42.87894" lon="-0.18873">
        <ele>2190.4</ele>
        <time>2026-07-15T12:00:05Z</time>
      </trkpt>
      <trkpt lat="42.87894" lon="-0.18873">
        <ele>2189.4</ele>
        <time>2026-07-15T12:00:05Z</time>
      </trkpt>
      <trkpt lat="42.87895" lon="-0.18874">
        <ele>2189.4</ele>
        <time>2026-07-15T12:00:06Z</time>
      </trkpt>
      <trkpt lat="42.87896" lon="-0.18874">
        <ele>2189.4</ele>
        <time>2026-07-15T12:00:07Z</time>
      </trkpt>
      <trkpt lat="42.87896" lon="-0.18875">
        <ele>2189.4</ele>
        <time>2026-07-15T12:00:07Z</time>
      </trkpt>
      <trkpt lat="42.87896" lon="-0.18875">
        <ele>2189.4</ele>
        <time>2026-07-15T12:00:08Z</time>
      </trkpt>
      <trkpt lat="42.87896" lon="-0.18876">
        <ele>2189.4</ele>
        <time>2026-07-15T12:00:09Z</time>
      </trkpt>
      <trkpt lat="42.87897" lon="-0.18878">
        <ele>2188.4</ele>
        <time>2026-07-15T12:00:10Z</time>
      </trkpt>
      <trkpt lat="42.87897" lon="-0.18878">
        <ele>2187.4</ele>
        <time>2026-07-15T12:00:11Z</time>
      </trkpt>
      <trkpt lat="42.87898" lon="-0.18878">
        <ele>2187.4</ele>
        <time>2026-07-15T12:00:12Z</time>
      </trkpt>
      <trkpt lat="42.879" lon="-0.18878">
        <ele>2187.4</ele>
        <time>2026-07-15T12:00:13Z</time>
      </trkpt>
      <trkpt lat="42.87901" lon="-0.18878">
        <ele>2187.4</ele>
        <time>2026-07-15T12:00:14Z</time>
      </trkpt>
      <trkpt lat="42.87902" lon="-0.18878">
        <ele>2187.4</ele>
        <time>2026-07-15T12:00:15Z</time>
      </trkpt>
      <trkpt lat="42.87902" lon="-0.18879">
        <ele>2187.4</ele>
        <time>2026-07-15T12:00:15Z</time>
      </trkpt>
      <trkpt lat="42.87903" lon="-0.18879">
        <ele>2187.4</ele>
        <time>2026-07-15T12:00:16Z</time>
      </trkpt>
      <trkpt lat="42.87903" lon="-0.1888">
        <ele>2186.4</ele>
        <time>2026-07-15T12:00:16Z</time>
      </trkpt>
      <trkpt lat="42.87903" lon="-0.1888">
        <ele>2186.4</ele>
        <time>2026-07-15T12:00:17Z</time>
      </trkpt>
      <trkpt lat="42.87904" lon="-0.18881">
        <ele>2186.4</ele>
        <time>2026-07-15T12:00:18Z</time>
      </trkpt>
      <trkpt lat="42.87905" lon="-0.18883">
        <ele>2185.4</ele>
        <time>2026-07-15T12:00:19Z</time>
      </trkpt>
      <trkpt lat="42.87905" lon="-0.18884">
        <ele>2185.4</ele>
        <time>2026-07-15T12:00:20Z</time>
      </trkpt>
      <trkpt lat="42.87906" lon="-0.18884">
        <ele>2185.4</ele>
        <time>2026-07-15T12:00:20Z</time>
      </trkpt>
      <trkpt lat="42.87906" lon="-0.18885">
        <ele>2185.4</ele>
        <time>2026-07-15T12:00:21Z</time>
      </trkpt>
      <trkpt lat="42.87906" lon="-0.18886">
        <ele>2184.4</ele>
        <time>2026-07-15T12:00:22Z</time>
      </trkpt>
      <trkpt lat="42.87906" lon="-0.18886">
        <ele>2183.4</ele>
        <time>2026-07-15T12:00:22Z</time>
      </trkpt>
      <trkpt lat="42.87906" lon="-0.18887">
        <ele>2183.4</ele>
        <time>2026-07-15T12:00:23Z</time>
      </trkpt>
      <trkpt lat="42.87907" lon="-0.18887">
        <ele>2183.4</ele>
        <time>2026-07-15T12:00:24Z</time>
      </trkpt>
      <trkpt lat="42.87907" lon="-0.18888">
        <ele>2183.4</ele>
        <time>2026-07-15T12:00:24Z</time>
      </trkpt>
      <trkpt lat="42.87907" lon="-0.18888">
        <ele>2183.4</ele>
        <time>2026-07-15T12:00:25Z</time>
      </trkpt>
      <trkpt lat="42.87907" lon="-0.18889">
        <ele>2183.4</ele>
        <time>2026-07-15T12:00:25Z</time>
      </trkpt>
      <trkpt lat="42.87908" lon="-0.18889">
        <ele>2183.4</ele>
        <time>2026-07-15T12:00:26Z</time>
      </trkpt>
      <trkpt lat="42.87908" lon="-0.1889">
        <ele>2183.4</ele>
        <time>2026-07-15T12:00:27Z</time>
      </trkpt>
      <trkpt lat="42.87908" lon="-0.18889">
        <ele>2183.4</ele>
        <time>2026-07-15T12:00:27Z</time>
      </trkpt>
      <trkpt lat="42.87908" lon="-0.1889">
        <ele>2182.4</ele>
        <time>2026-07-15T12:00:28Z</time>
      </trkpt>
      <trkpt lat="42.87908" lon="-0.18891">
        <ele>2182.4</ele>
        <time>2026-07-15T12:00:29Z</time>
      </trkpt>
      <trkpt lat="42.87909" lon="-0.18891">
        <ele>2182.4</ele>
        <time>2026-07-15T12:00:29Z</time>
      </trkpt>
      <trkpt lat="42.87909" lon="-0.18892">
        <ele>2182.4</ele>
        <time>2026-07-15T12:00:30Z</time>
      </trkpt>
      <trkpt lat="42.87909" lon="-0.18892">
        <ele>2182.4</ele>
        <time>2026-07-15T12:00:30Z</time>
      </trkpt>
      <trkpt lat="42.8791" lon="-0.18892">
        <ele>2182.4</ele>
        <time>2026-07-15T12:00:31Z</time>
      </trkpt>
      <trkpt lat="42.8791" lon="-0.18892">
        <ele>2182.4</ele>
        <time>2026-07-15T12:00:31Z</time>
      </trkpt>
      <trkpt lat="42.8791" lon="-0.18892">
        <ele>2181.4</ele>
        <time>2026-07-15T12:00:32Z</time>
      </trkpt>
      <trkpt lat="42.87911" lon="-0.18893">
        <ele>2181.4</ele>
        <time>2026-07-15T12:00:33Z</time>
      </trkpt>
      <trkpt lat="42.87912" lon="-0.18893">
        <ele>2181.4</ele>
        <time>2026-07-15T12:00:33Z</time>
      </trkpt>
      <trkpt lat="42.87912" lon="-0.18894">
        <ele>2181.4</ele>
        <time>2026-07-15T12:00:34Z</time>
      </trkpt>
      <trkpt lat="42.87912" lon="-0.18894">
        <ele>2181.4</ele>
        <time>2026-07-15T12:00:34Z</time>
      </trkpt>
      <trkpt lat="42.87913" lon="-0.18895">
        <ele>2181.4</ele>
        <time>2026-07-15T12:00:35Z</time>
      </trkpt>
      <trkpt lat="42.87913" lon="-0.18896">
        <ele>2181.4</ele>
        <time>2026-07-15T12:00:36Z</time>
      </trkpt>
      <trkpt lat="42.87913" lon="-0.18896">
        <ele>2180.4</ele>
        <time>2026-07-15T12:00:36Z</time>
      </trkpt>
      <trkpt lat="42.87913" lon="-0.18897">
        <ele>2180.4</ele>
        <time>2026-07-15T12:00:37Z</time>
      </trkpt>
      <trkpt lat="42.87913" lon="-0.18898">
        <ele>2180.4</ele>
        <time>2026-07-15T12:00:38Z</time>
      </trkpt>
      <trkpt lat="42.87913" lon="-0.18898">
        <ele>2180.4</ele>
        <time>2026-07-15T12:00:38Z</time>
      </trkpt>
      <trkpt lat="42.87913" lon="-0.18898">
        <ele>2180.4</ele>
        <time>2026-07-15T12:00:39Z</time>
      </trkpt>
      <trkpt lat="42.87914" lon="-0.18898">
        <ele>2180.4</ele>
        <time>2026-07-15T12:00:39Z</time>
      </trkpt>
      <trkpt lat="42.87914" lon="-0.18898">
        <ele>2180.4</ele>
        <time>2026-07-15T12:00:40Z</time>
      </trkpt>
      <trkpt lat="42.87915" lon="-0.18898">
        <ele>2180.4</ele>
        <time>2026-07-15T12:00:41Z</time>
      </trkpt>
      <trkpt lat="42.87916" lon="-0.18899">
        <ele>2180.4</ele>
        <time>2026-07-15T12:00:42Z</time>
      </trkpt>
      <trkpt lat="42.87916" lon="-0.18899">
        <ele>2180.4</ele>
        <time>2026-07-15T12:00:42Z</time>
      </trkpt>
      <trkpt lat="42.87916" lon="-0.189">
        <ele>2180.4</ele>
        <time>2026-07-15T12:00:43Z</time>
      </trkpt>
      <trkpt lat="42.87916" lon="-0.18901">
        <ele>2179.4</ele>
        <time>2026-07-15T12:00:44Z</time>
      </trkpt>
      <trkpt lat="42.87916" lon="-0.18901">
        <ele>2179.4</ele>
        <time>2026-07-15T12:00:44Z</time>
      </trkpt>
      <trkpt lat="42.87916" lon="-0.18902">
        <ele>2179.4</ele>
        <time>2026-07-15T12:00:45Z</time>
      </trkpt>
      <trkpt lat="42.87917" lon="-0.18903">
        <ele>2178.4</ele>
        <time>2026-07-15T12:00:46Z</time>
      </trkpt>
      <trkpt lat="42.87917" lon="-0.18904">
        <ele>2178.4</ele>
        <time>2026-07-15T12:00:46Z</time>
      </trkpt>
      <trkpt lat="42.87917" lon="-0.18904">
        <ele>2178.4</ele>
        <time>2026-07-15T12:00:47Z</time>
      </trkpt>
      <trkpt lat="42.87917" lon="-0.18905">
        <ele>2178.4</ele>
        <time>2026-07-15T12:00:48Z</time>
      </trkpt>
      <trkpt lat="42.87917" lon="-0.18905">
        <ele>2178.4</ele>
        <time>2026-07-15T12:00:49Z</time>
      </trkpt>
      <trkpt lat="42.87918" lon="-0.18906">
        <ele>2177.4</ele>
        <time>2026-07-15T12:00:49Z</time>
      </trkpt>
      <trkpt lat="42.87919" lon="-0.18906">
        <ele>2177.4</ele>
        <time>2026-07-15T12:00:50Z</time>
      </trkpt>
      <trkpt lat="42.87919" lon="-0.18906">
        <ele>2177.4</ele>
        <time>2026-07-15T12:00:50Z</time>
      </trkpt>
      <trkpt lat="42.87919" lon="-0.18907">
        <ele>2177.4</ele>
        <time>2026-07-15T12:00:51Z</time>
      </trkpt>
      <trkpt lat="42.8792" lon="-0.18907">
        <ele>2178.4</ele>
        <time>2026-07-15T12:00:52Z</time>
      </trkpt>
      <trkpt lat="42.8792" lon="-0.18908">
        <ele>2177.4</ele>
        <time>2026-07-15T12:00:52Z</time>
      </trkpt>
      <trkpt lat="42.8792" lon="-0.18908">
        <ele>2177.4</ele>
        <time>2026-07-15T12:00:53Z</time>
      </trkpt>
      <trkpt lat="42.8792" lon="-0.18908">
        <ele>2177.4</ele>
        <time>2026-07-15T12:00:53Z</time>
      </trkpt>
      <trkpt lat="42.87921" lon="-0.18909">
        <ele>2177.4</ele>
        <time>2026-07-15T12:00:54Z</time>
      </trkpt>
      <trkpt lat="42.87921" lon="-0.18908">
        <ele>2177.4</ele>
        <time>2026-07-15T12:00:55Z</time>
      </trkpt>
      <trkpt lat="42.87922" lon="-0.18908">
        <ele>2177.4</ele>
        <time>2026-07-15T12:00:55Z</time>
      </trkpt>
      <trkpt lat="42.87923" lon="-0.18908">
        <ele>2177.4</ele>
        <time>2026-07-15T12:00:56Z</time>
      </trkpt>
      <trkpt lat="42.87923" lon="-0.18907">
        <ele>2176.4</ele>
        <time>2026-07-15T12:00:56Z</time>
      </trkpt>
      <trkpt lat="42.87924" lon="-0.18907">
        <ele>2176.4</ele>
        <time>2026-07-15T12:00:57Z</time>
      </trkpt>
      <trkpt lat="42.87924" lon="-0.18907">
        <ele>2176.4</ele>
        <time>2026-07-15T12:00:57Z</time>
      </trkpt>
      <trkpt lat="42.87925" lon="-0.18907">
        <ele>2175.4</ele>
        <time>2026-07-15T12:00:58Z</time>
      </trkpt>
      <trkpt lat="42.87925" lon="-0.18907">
        <ele>2175.4</ele>
        <time>2026-07-15T12:00:59Z</time>
      </trkpt>
      <trkpt lat="42.87926" lon="-0.18907">
        <ele>2175.4</ele>
        <time>2026-07-15T12:00:59Z</time>
      </trkpt>
      <trkpt lat="42.87926" lon="-0.18907">
        <ele>2175.4</ele>
        <time>2026-07-15T12:01:00Z</time>
      </trkpt>
      <trkpt lat="42.87927" lon="-0.18906">
        <ele>2175.4</ele>
        <time>2026-07-15T12:01:01Z</time>
      </trkpt>
      <trkpt lat="42.87927" lon="-0.18906">
        <ele>2174.4</ele>
        <time>2026-07-15T12:01:01Z</time>
      </trkpt>
      <trkpt lat="42.87927" lon="-0.18906">
        <ele>2174.4</ele>
        <time>2026-07-15T12:01:02Z</time>
      </trkpt>
      <trkpt lat="42.87928" lon="-0.18906">
        <ele>2174.4</ele>
        <time>2026-07-15T12:01:03Z</time>
      </trkpt>
      <trkpt lat="42.87928" lon="-0.18906">
        <ele>2173.4</ele>
        <time>2026-07-15T12:01:03Z</time>
      </trkpt>
      <trkpt lat="42.87929" lon="-0.18906">
        <ele>2172.4</ele>
        <time>2026-07-15T12:01:04Z</time>
      </trkpt>
      <trkpt lat="42.87929" lon="-0.18906">
        <ele>2172.4</ele>
        <time>2026-07-15T12:01:05Z</time>
      </trkpt>
      <trkpt lat="42.8793" lon="-0.18907">
        <ele>2172.4</ele>
        <time>2026-07-15T12:01:05Z</time>
      </trkpt>
      <trkpt lat="42.8793" lon="-0.18907">
        <ele>2172.4</ele>
        <time>2026-07-15T12:01:06Z</time>
      </trkpt>
      <trkpt lat="42.87931" lon="-0.18906">
        <ele>2172.4</ele>
        <time>2026-07-15T12:01:07Z</time>
      </trkpt>
      <trkpt lat="42.87931" lon="-0.18906">
        <ele>2172.4</ele>
        <time>2026-07-15T12:01:07Z</time>
      </trkpt>
      <trkpt lat="42.87932" lon="-0.18906">
        <ele>2172.4</ele>
        <time>2026-07-15T12:01:08Z</time>
      </trkpt>
      <trkpt lat="42.87932" lon="-0.18906">
        <ele>2172.4</ele>
        <time>2026-07-15T12:01:08Z</time>
      </trkpt>
      <trkpt lat="42.87932" lon="-0.18907">
        <ele>2172.4</ele>
        <time>2026-07-15T12:01:09Z</time>
      </trkpt>
      <trkpt lat="42.87933" lon="-0.18907">
        <ele>2171.4</ele>
        <time>2026-07-15T12:01:10Z</time>
      </trkpt>
      <trkpt lat="42.87933" lon="-0.18907">
        <ele>2171.4</ele>
        <time>2026-07-15T12:01:10Z</time>
      </trkpt>
      <trkpt lat="42.87934" lon="-0.18907">
        <ele>2171.4</ele>
        <time>2026-07-15T12:01:11Z</time>
      </trkpt>
      <trkpt lat="42.87934" lon="-0.18907">
        <ele>2171.4</ele>
        <time>2026-07-15T12:01:11Z</time>
      </trkpt>
      <trkpt lat="42.87935" lon="-0.18907">
        <ele>2171.4</ele>
        <time>2026-07-15T12:01:12Z</time>
      </trkpt>
      <trkpt lat="42.87936" lon="-0.18907">
        <ele>2170.4</ele>
        <time>2026-07-15T12:01:13Z</time>
      </trkpt>
      <trkpt lat="42.87936" lon="-0.18907">
        <ele>2171.4</ele>
        <time>2026-07-15T12:01:13Z</time>
      </trkpt>
      <trkpt lat="42.87937" lon="-0.18907">
        <ele>2171.4</ele>
        <time>2026-07-15T12:01:14Z</time>
      </trkpt>
      <trkpt lat="42.87937" lon="-0.18907">
        <ele>2171.4</ele>
        <time>2026-07-15T12:01:14Z</time>
      </trkpt>
      <trkpt lat="42.87938" lon="-0.18907">
        <ele>2170.4</ele>
        <time>2026-07-15T12:01:15Z</time>
      </trkpt>
      <trkpt lat="42.87938" lon="-0.18907">
        <ele>2170.4</ele>
        <time>2026-07-15T12:01:16Z</time>
      </trkpt>
      <trkpt lat="42.87939" lon="-0.18907">
        <ele>2170.4</ele>
        <time>2026-07-15T12:01:17Z</time>
      </trkpt>
      <trkpt lat="42.87939" lon="-0.18907">
        <ele>2170.4</ele>
        <time>2026-07-15T12:01:18Z</time>
      </trkpt>
      <trkpt lat="42.8794" lon="-0.18907">
        <ele>2169.4</ele>
        <time>2026-07-15T12:01:18Z</time>
      </trkpt>
      <trkpt lat="42.8794" lon="-0.18908">
        <ele>2169.4</ele>
        <time>2026-07-15T12:01:19Z</time>
      </trkpt>
      <trkpt lat="42.8794" lon="-0.18908">
        <ele>2170.4</ele>
        <time>2026-07-15T12:01:19Z</time>
      </trkpt>
      <trkpt lat="42.87941" lon="-0.18908">
        <ele>2170.4</ele>
        <time>2026-07-15T12:01:20Z</time>
      </trkpt>
      <trkpt lat="42.87942" lon="-0.18907">
        <ele>2170.4</ele>
        <time>2026-07-15T12:01:21Z</time>
      </trkpt>
      <trkpt lat="42.87942" lon="-0.18907">
        <ele>2170.4</ele>
        <time>2026-07-15T12:01:21Z</time>
      </trkpt>
      <trkpt lat="42.87942" lon="-0.18906">
        <ele>2170.4</ele>
        <time>2026-07-15T12:01:22Z</time>
      </trkpt>
      <trkpt lat="42.87943" lon="-0.18906">
        <ele>2170.4</ele>
        <time>2026-07-15T12:01:22Z</time>
      </trkpt>
      <trkpt lat="42.87943" lon="-0.18906">
        <ele>2170.4</ele>
        <time>2026-07-15T12:01:23Z</time>
      </trkpt>
      <trkpt lat="42.87943" lon="-0.18906">
        <ele>2170.4</ele>
        <time>2026-07-15T12:01:24Z</time>
      </trkpt>
      <trkpt lat="42.87943" lon="-0.18906">
        <ele>2170.4</ele>
        <time>2026-07-15T12:01:24Z</time>
      </trkpt>
      <trkpt lat="42.87944" lon="-0.18906">
        <ele>2170.4</ele>
        <time>2026-07-15T12:01:25Z</time>
      </trkpt>
      <trkpt lat="42.87944" lon="-0.18906">
        <ele>2170.4</ele>
        <time>2026-07-15T12:01:26Z</time>
      </trkpt>
      <trkpt lat="42.87944" lon="-0.18907">
        <ele>2170.4</ele>
        <time>2026-07-15T12:01:26Z</time>
      </trkpt>
      <trkpt lat="42.87945" lon="-0.18907">
        <ele>2170.4</ele>
        <time>2026-07-15T12:01:27Z</time>
      </trkpt>
      <trkpt lat="42.87945" lon="-0.18908">
        <ele>2169.4</ele>
        <time>2026-07-15T12:01:28Z</time>
      </trkpt>
      <trkpt lat="42.87946" lon="-0.18908">
        <ele>2169.4</ele>
        <time>2026-07-15T12:01:28Z</time>
      </trkpt>
      <trkpt lat="42.87946" lon="-0.18909">
        <ele>2169.4</ele>
        <time>2026-07-15T12:01:29Z</time>
      </trkpt>
      <trkpt lat="42.87947" lon="-0.18909">
        <ele>2169.4</ele>
        <time>2026-07-15T12:01:30Z</time>
      </trkpt>
      <trkpt lat="42.87947" lon="-0.18909">
        <ele>2168.4</ele>
        <time>2026-07-15T12:01:30Z</time>
      </trkpt>
      <trkpt lat="42.87947" lon="-0.1891">
        <ele>2169.4</ele>
        <time>2026-07-15T12:01:31Z</time>
      </trkpt>
      <trkpt lat="42.87947" lon="-0.1891">
        <ele>2169.4</ele>
        <time>2026-07-15T12:01:32Z</time>
      </trkpt>
      <trkpt lat="42.87947" lon="-0.18911">
        <ele>2168.4</ele>
        <time>2026-07-15T12:01:32Z</time>
      </trkpt>
      <trkpt lat="42.87947" lon="-0.18911">
        <ele>2168.4</ele>
        <time>2026-07-15T12:01:33Z</time>
      </trkpt>
      <trkpt lat="42.87948" lon="-0.18912">
        <ele>2168.4</ele>
        <time>2026-07-15T12:01:33Z</time>
      </trkpt>
      <trkpt lat="42.87948" lon="-0.18912">
        <ele>2168.4</ele>
        <time>2026-07-15T12:01:34Z</time>
      </trkpt>
      <trkpt lat="42.87949" lon="-0.18912">
        <ele>2167.4</ele>
        <time>2026-07-15T12:01:34Z</time>
      </trkpt>
      <trkpt lat="42.87949" lon="-0.18912">
        <ele>2166.4</ele>
        <time>2026-07-15T12:01:35Z</time>
      </trkpt>
      <trkpt lat="42.8795" lon="-0.18912">
        <ele>2166.4</ele>
        <time>2026-07-15T12:01:36Z</time>
      </trkpt>
      <trkpt lat="42.8795" lon="-0.18912">
        <ele>2166.4</ele>
        <time>2026-07-15T12:01:36Z</time>
      </trkpt>
      <trkpt lat="42.8795" lon="-0.18913">
        <ele>2166.4</ele>
        <time>2026-07-15T12:01:37Z</time>
      </trkpt>
      <trkpt lat="42.8795" lon="-0.18914">
        <ele>2165.4</ele>
        <time>2026-07-15T12:01:38Z</time>
      </trkpt>
      <trkpt lat="42.87951" lon="-0.18915">
        <ele>2165.4</ele>
        <time>2026-07-15T12:01:39Z</time>
      </trkpt>
      <trkpt lat="42.87951" lon="-0.18915">
        <ele>2165.4</ele>
        <time>2026-07-15T12:01:40Z</time>
      </trkpt>
      <trkpt lat="42.87952" lon="-0.18915">
        <ele>2165.4</ele>
        <time>2026-07-15T12:01:40Z</time>
      </trkpt>
      <trkpt lat="42.87952" lon="-0.18916">
        <ele>2164.4</ele>
        <time>2026-07-15T12:01:41Z</time>
      </trkpt>
      <trkpt lat="42.87953" lon="-0.18916">
        <ele>2164.4</ele>
        <time>2026-07-15T12:01:42Z</time>
      </trkpt>
      <trkpt lat="42.87953" lon="-0.18916">
        <ele>2163.4</ele>
        <time>2026-07-15T12:01:43Z</time>
      </trkpt>
      <trkpt lat="42.87953" lon="-0.18916">
        <ele>2164.4</ele>
        <time>2026-07-15T12:01:43Z</time>
      </trkpt>
      <trkpt lat="42.87954" lon="-0.18916">
        <ele>2164.4</ele>
        <time>2026-07-15T12:01:44Z</time>
      </trkpt>
      <trkpt lat="42.87954" lon="-0.18916">
        <ele>2164.4</ele>
        <time>2026-07-15T12:01:45Z</time>
      </trkpt>
      <trkpt lat="42.87954" lon="-0.18916">
        <ele>2164.4</ele>
        <time>2026-07-15T12:01:45Z</time>
      </trkpt>
      <trkpt lat="42.87954" lon="-0.18916">
        <ele>2164.4</ele>
        <time>2026-07-15T12:01:46Z</time>
      </trkpt>
      <trkpt lat="42.87954" lon="-0.18916">
        <ele>2164.4</ele>
        <time>2026-07-15T12:01:46Z</time>
      </trkpt>
      <trkpt lat="42.87954" lon="-0.18916">
        <ele>2164.4</ele>
        <time>2026-07-15T12:01:47Z</time>
      </trkpt>
      <trkpt lat="42.87954" lon="-0.18916">
        <ele>2164.4</ele>
        <time>2026-07-15T12:01:48Z</time>
      </trkpt>
      <trkpt lat="42.87954" lon="-0.18916">
        <ele>2164.4</ele>
        <time>2026-07-15T12:01:48Z</time>
      </trkpt>
      <trkpt lat="42.87954" lon="-0.18917">
        <ele>2164.4</ele>
        <time>2026-07-15T12:01:49Z</time>
      </trkpt>
      <trkpt lat="42.87954" lon="-0.18917">
        <ele>2164.4</ele>
        <time>2026-07-15T12:01:49Z</time>
      </trkpt>
      <trkpt lat="42.87954" lon="-0.18918">
        <ele>2164.4</ele>
        <time>2026-07-15T12:01:50Z</time>
      </trkpt>
      <trkpt lat="42.87954" lon="-0.18918">
        <ele>2163.4</ele>
        <time>2026-07-15T12:01:50Z</time>
      </trkpt>
      <trkpt lat="42.87954" lon="-0.18919">
        <ele>2163.4</ele>
        <time>2026-07-15T12:01:51Z</time>
      </trkpt>
      <trkpt lat="42.87955" lon="-0.18919">
        <ele>2163.4</ele>
        <time>2026-07-15T12:01:52Z</time>
      </trkpt>
      <trkpt lat="42.87955" lon="-0.1892">
        <ele>2163.4</ele>
        <time>2026-07-15T12:01:53Z</time>
      </trkpt>
      <trkpt lat="42.87956" lon="-0.1892">
        <ele>2163.4</ele>
        <time>2026-07-15T12:01:54Z</time>
      </trkpt>
      <trkpt lat="42.87957" lon="-0.18921">
        <ele>2162.4</ele>
        <time>2026-07-15T12:01:55Z</time>
      </trkpt>
      <trkpt lat="42.87957" lon="-0.18921">
        <ele>2162.4</ele>
        <time>2026-07-15T12:01:55Z</time>
      </trkpt>
      <trkpt lat="42.87958" lon="-0.18921">
        <ele>2162.4</ele>
        <time>2026-07-15T12:01:56Z</time>
      </trkpt>
      <trkpt lat="42.87958" lon="-0.18921">
        <ele>2161.4</ele>
        <time>2026-07-15T12:01:56Z</time>
      </trkpt>
      <trkpt lat="42.87958" lon="-0.18921">
        <ele>2161.4</ele>
        <time>2026-07-15T12:01:57Z</time>
      </trkpt>
      <trkpt lat="42.87959" lon="-0.18921">
        <ele>2161.4</ele>
        <time>2026-07-15T12:01:58Z</time>
      </trkpt>
      <trkpt lat="42.87959" lon="-0.18922">
        <ele>2161.4</ele>
        <time>2026-07-15T12:01:58Z</time>
      </trkpt>
      <trkpt lat="42.8796" lon="-0.18922">
        <ele>2161.4</ele>
        <time>2026-07-15T12:01:59Z</time>
      </trkpt>
      <trkpt lat="42.8796" lon="-0.18923">
        <ele>2161.4</ele>
        <time>2026-07-15T12:02:00Z</time>
      </trkpt>
      <trkpt lat="42.87961" lon="-0.18923">
        <ele>2160.4</ele>
        <time>2026-07-15T12:02:01Z</time>
      </trkpt>
      <trkpt lat="42.87961" lon="-0.18923">
        <ele>2160.4</ele>
        <time>2026-07-15T12:02:02Z</time>
      </trkpt>
      <trkpt lat="42.87962" lon="-0.18923">
        <ele>2160.4</ele>
        <time>2026-07-15T12:02:02Z</time>
      </trkpt>
      <trkpt lat="42.87962" lon="-0.18923">
        <ele>2160.4</ele>
        <time>2026-07-15T12:02:03Z</time>
      </trkpt>
      <trkpt lat="42.87962" lon="-0.18923">
        <ele>2159.4</ele>
        <time>2026-07-15T12:02:03Z</time>
      </trkpt>
      <trkpt lat="42.87963" lon="-0.18924">
        <ele>2159.4</ele>
        <time>2026-07-15T12:02:04Z</time>
      </trkpt>
      <trkpt lat="42.87963" lon="-0.18924">
        <ele>2159.4</ele>
        <time>2026-07-15T12:02:04Z</time>
      </trkpt>
      <trkpt lat="42.87963" lon="-0.18924">
        <ele>2159.4</ele>
        <time>2026-07-15T12:02:05Z</time>
      </trkpt>
      <trkpt lat="42.87963" lon="-0.18925">
        <ele>2159.4</ele>
        <time>2026-07-15T12:02:06Z</time>
      </trkpt>
      <trkpt lat="42.87964" lon="-0.18926">
        <ele>2158.4</ele>
        <time>2026-07-15T12:02:07Z</time>
      </trkpt>
      <trkpt lat="42.87964" lon="-0.18926">
        <ele>2157.4</ele>
        <time>2026-07-15T12:02:07Z</time>
      </trkpt>
      <trkpt lat="42.87964" lon="-0.18926">
        <ele>2157.4</ele>
        <time>2026-07-15T12:02:08Z</time>
      </trkpt>
      <trkpt lat="42.87964" lon="-0.18927">
        <ele>2158.4</ele>
        <time>2026-07-15T12:02:08Z</time>
      </trkpt>
      <trkpt lat="42.87964" lon="-0.18927">
        <ele>2157.4</ele>
        <time>2026-07-15T12:02:09Z</time>
      </trkpt>
      <trkpt lat="42.87965" lon="-0.18927">
        <ele>2157.4</ele>
        <time>2026-07-15T12:02:09Z</time>
      </trkpt>
      <trkpt lat="42.87965" lon="-0.18927">
        <ele>2157.4</ele>
        <time>2026-07-15T12:02:10Z</time>
      </trkpt>
      <trkpt lat="42.87965" lon="-0.18928">
        <ele>2157.4</ele>
        <time>2026-07-15T12:02:11Z</time>
      </trkpt>
      <trkpt lat="42.87964" lon="-0.18928">
        <ele>2158.4</ele>
        <time>2026-07-15T12:02:11Z</time>
      </trkpt>
      <trkpt lat="42.87965" lon="-0.18929">
        <ele>2158.4</ele>
        <time>2026-07-15T12:02:12Z</time>
      </trkpt>
      <trkpt lat="42.87965" lon="-0.18929">
        <ele>2157.4</ele>
        <time>2026-07-15T12:02:13Z</time>
      </trkpt>
      <trkpt lat="42.87965" lon="-0.18929">
        <ele>2157.4</ele>
        <time>2026-07-15T12:02:13Z</time>
      </trkpt>
      <trkpt lat="42.87965" lon="-0.1893">
        <ele>2157.4</ele>
        <time>2026-07-15T12:02:14Z</time>
      </trkpt>
      <trkpt lat="42.87965" lon="-0.1893">
        <ele>2156.4</ele>
        <time>2026-07-15T12:02:14Z</time>
      </trkpt>
      <trkpt lat="42.87966" lon="-0.18931">
        <ele>2156.4</ele>
        <time>2026-07-15T12:02:15Z</time>
      </trkpt>
      <trkpt lat="42.87966" lon="-0.18931">
        <ele>2156.4</ele>
        <time>2026-07-15T12:02:15Z</time>
      </trkpt>
      <trkpt lat="42.87966" lon="-0.18931">
        <ele>2157.4</ele>
        <time>2026-07-15T12:02:16Z</time>
      </trkpt>
      <trkpt lat="42.87967" lon="-0.18931">
        <ele>2157.4</ele>
        <time>2026-07-15T12:02:17Z</time>
      </trkpt>
      <trkpt lat="42.87967" lon="-0.18932">
        <ele>2156.4</ele>
        <time>2026-07-15T12:02:17Z</time>
      </trkpt>
      <trkpt lat="42.87967" lon="-0.18932">
        <ele>2155.4</ele>
        <time>2026-07-15T12:02:18Z</time>
      </trkpt>
      <trkpt lat="42.87968" lon="-0.18934">
        <ele>2155.4</ele>
        <time>2026-07-15T12:02:19Z</time>
      </trkpt>
      <trkpt lat="42.87968" lon="-0.18934">
        <ele>2155.4</ele>
        <time>2026-07-15T12:02:20Z</time>
      </trkpt>
      <trkpt lat="42.87968" lon="-0.18935">
        <ele>2155.4</ele>
        <time>2026-07-15T12:02:20Z</time>
      </trkpt>
      <trkpt lat="42.87968" lon="-0.18935">
        <ele>2155.4</ele>
        <time>2026-07-15T12:02:21Z</time>
      </trkpt>
      <trkpt lat="42.87969" lon="-0.18935">
        <ele>2154.4</ele>
        <time>2026-07-15T12:02:21Z</time>
      </trkpt>
      <trkpt lat="42.87969" lon="-0.18936">
        <ele>2154.4</ele>
        <time>2026-07-15T12:02:22Z</time>
      </trkpt>
      <trkpt lat="42.87969" lon="-0.18936">
        <ele>2154.4</ele>
        <time>2026-07-15T12:02:23Z</time>
      </trkpt>
      <trkpt lat="42.8797" lon="-0.18936">
        <ele>2154.4</ele>
        <time>2026-07-15T12:02:24Z</time>
      </trkpt>
      <trkpt lat="42.87971" lon="-0.18935">
        <ele>2153.4</ele>
        <time>2026-07-15T12:02:25Z</time>
      </trkpt>
      <trkpt lat="42.87972" lon="-0.18935">
        <ele>2152.4</ele>
        <time>2026-07-15T12:02:26Z</time>
      </trkpt>
      <trkpt lat="42.87972" lon="-0.18935">
        <ele>2152.4</ele>
        <time>2026-07-15T12:02:27Z</time>
      </trkpt>
      <trkpt lat="42.87972" lon="-0.18935">
        <ele>2152.4</ele>
        <time>2026-07-15T12:02:27Z</time>
      </trkpt>
      <trkpt lat="42.87973" lon="-0.18936">
        <ele>2152.4</ele>
        <time>2026-07-15T12:02:28Z</time>
      </trkpt>
      <trkpt lat="42.87973" lon="-0.18936">
        <ele>2152.4</ele>
        <time>2026-07-15T12:02:28Z</time>
      </trkpt>
      <trkpt lat="42.87973" lon="-0.18936">
        <ele>2152.4</ele>
        <time>2026-07-15T12:02:29Z</time>
      </trkpt>
      <trkpt lat="42.87973" lon="-0.18937">
        <ele>2151.4</ele>
        <time>2026-07-15T12:02:30Z</time>
      </trkpt>
      <trkpt lat="42.87973" lon="-0.18936">
        <ele>2151.4</ele>
        <time>2026-07-15T12:02:30Z</time>
      </trkpt>
      <trkpt lat="42.87973" lon="-0.18937">
        <ele>2151.4</ele>
        <time>2026-07-15T12:02:31Z</time>
      </trkpt>
      <trkpt lat="42.87973" lon="-0.18936">
        <ele>2151.4</ele>
        <time>2026-07-15T12:02:31Z</time>
      </trkpt>
      <trkpt lat="42.87973" lon="-0.18936">
        <ele>2151.4</ele>
        <time>2026-07-15T12:02:32Z</time>
      </trkpt>
      <trkpt lat="42.87974" lon="-0.18936">
        <ele>2151.4</ele>
        <time>2026-07-15T12:02:33Z</time>
      </trkpt>
      <trkpt lat="42.87975" lon="-0.18937">
        <ele>2151.4</ele>
        <time>2026-07-15T12:02:33Z</time>
      </trkpt>
      <trkpt lat="42.87975" lon="-0.18938">
        <ele>2151.4</ele>
        <time>2026-07-15T12:02:34Z</time>
      </trkpt>
      <trkpt lat="42.87975" lon="-0.18938">
        <ele>2150.4</ele>
        <time>2026-07-15T12:02:35Z</time>
      </trkpt>
      <trkpt lat="42.87976" lon="-0.18938">
        <ele>2150.4</ele>
        <time>2026-07-15T12:02:35Z</time>
      </trkpt>
      <trkpt lat="42.87976" lon="-0.18939">
        <ele>2150.4</ele>
        <time>2026-07-15T12:02:36Z</time>
      </trkpt>
      <trkpt lat="42.87976" lon="-0.1894">
        <ele>2150.4</ele>
        <time>2026-07-15T12:02:37Z</time>
      </trkpt>
      <trkpt lat="42.87976" lon="-0.18941">
        <ele>2150.4</ele>
        <time>2026-07-15T12:02:37Z</time>
      </trkpt>
      <trkpt lat="42.87976" lon="-0.18941">
        <ele>2150.4</ele>
        <time>2026-07-15T12:02:38Z</time>
      </trkpt>
      <trkpt lat="42.87976" lon="-0.18942">
        <ele>2150.4</ele>
        <time>2026-07-15T12:02:38Z</time>
      </trkpt>
      <trkpt lat="42.87977" lon="-0.18943">
        <ele>2150.4</ele>
        <time>2026-07-15T12:02:39Z</time>
      </trkpt>
      <trkpt lat="42.87977" lon="-0.18944">
        <ele>2150.4</ele>
        <time>2026-07-15T12:02:40Z</time>
      </trkpt>
      <trkpt lat="42.87977" lon="-0.18945">
        <ele>2150.4</ele>
        <time>2026-07-15T12:02:41Z</time>
      </trkpt>
      <trkpt lat="42.87978" lon="-0.18945">
        <ele>2150.4</ele>
        <time>2026-07-15T12:02:41Z</time>
      </trkpt>
      <trkpt lat="42.87978" lon="-0.18946">
        <ele>2149.4</ele>
        <time>2026-07-15T12:02:42Z</time>
      </trkpt>
      <trkpt lat="42.87978" lon="-0.18946">
        <ele>2149.4</ele>
        <time>2026-07-15T12:02:43Z</time>
      </trkpt>
      <trkpt lat="42.87978" lon="-0.18947">
        <ele>2149.4</ele>
        <time>2026-07-15T12:02:43Z</time>
      </trkpt>
      <trkpt lat="42.87978" lon="-0.18948">
        <ele>2149.4</ele>
        <time>2026-07-15T12:02:44Z</time>
      </trkpt>
      <trkpt lat="42.87978" lon="-0.18948">
        <ele>2149.4</ele>
        <time>2026-07-15T12:02:45Z</time>
      </trkpt>
      <trkpt lat="42.87978" lon="-0.18949">
        <ele>2148.4</ele>
        <time>2026-07-15T12:02:45Z</time>
      </trkpt>
      <trkpt lat="42.87978" lon="-0.18949">
        <ele>2147.4</ele>
        <time>2026-07-15T12:02:46Z</time>
      </trkpt>
      <trkpt lat="42.87979" lon="-0.1895">
        <ele>2147.4</ele>
        <time>2026-07-15T12:02:47Z</time>
      </trkpt>
      <trkpt lat="42.87979" lon="-0.1895">
        <ele>2147.4</ele>
        <time>2026-07-15T12:02:47Z</time>
      </trkpt>
      <trkpt lat="42.87979" lon="-0.1895">
        <ele>2147.4</ele>
        <time>2026-07-15T12:02:48Z</time>
      </trkpt>
      <trkpt lat="42.8798" lon="-0.18951">
        <ele>2146.4</ele>
        <time>2026-07-15T12:02:48Z</time>
      </trkpt>
      <trkpt lat="42.8798" lon="-0.18951">
        <ele>2146.4</ele>
        <time>2026-07-15T12:02:49Z</time>
      </trkpt>
      <trkpt lat="42.87981" lon="-0.18952">
        <ele>2146.4</ele>
        <time>2026-07-15T12:02:50Z</time>
      </trkpt>
      <trkpt lat="42.87981" lon="-0.18952">
        <ele>2145.4</ele>
        <time>2026-07-15T12:02:50Z</time>
      </trkpt>
      <trkpt lat="42.87982" lon="-0.18952">
        <ele>2145.4</ele>
        <time>2026-07-15T12:02:51Z</time>
      </trkpt>
      <trkpt lat="42.87982" lon="-0.18952">
        <ele>2145.4</ele>
        <time>2026-07-15T12:02:51Z</time>
      </trkpt>
      <trkpt lat="42.87983" lon="-0.18953">
        <ele>2145.4</ele>
        <time>2026-07-15T12:02:52Z</time>
      </trkpt>
      <trkpt lat="42.87984" lon="-0.18953">
        <ele>2144.4</ele>
        <time>2026-07-15T12:02:53Z</time>
      </trkpt>
      <trkpt lat="42.87984" lon="-0.18953">
        <ele>2143.4</ele>
        <time>2026-07-15T12:02:54Z</time>
      </trkpt>
      <trkpt lat="42.87984" lon="-0.18953">
        <ele>2143.4</ele>
        <time>2026-07-15T12:02:54Z</time>
      </trkpt>
      <trkpt lat="42.87985" lon="-0.18954">
        <ele>2143.4</ele>
        <time>2026-07-15T12:02:55Z</time>
      </trkpt>
      <trkpt lat="42.87985" lon="-0.18954">
        <ele>2143.4</ele>
        <time>2026-07-15T12:02:55Z</time>
      </trkpt>
      <trkpt lat="42.87985" lon="-0.18954">
        <ele>2143.4</ele>
        <time>2026-07-15T12:02:56Z</time>
      </trkpt>
      <trkpt lat="42.87986" lon="-0.18955">
        <ele>2143.4</ele>
        <time>2026-07-15T12:02:57Z</time>
      </trkpt>
      <trkpt lat="42.87986" lon="-0.18955">
        <ele>2143.4</ele>
        <time>2026-07-15T12:02:57Z</time>
      </trkpt>
      <trkpt lat="42.87986" lon="-0.18955">
        <ele>2142.4</ele>
        <time>2026-07-15T12:02:58Z</time>
      </trkpt>
      <trkpt lat="42.87986" lon="-0.18955">
        <ele>2142.4</ele>
        <time>2026-07-15T12:02:59Z</time>
      </trkpt>
      <trkpt lat="42.87986" lon="-0.18956">
        <ele>2142.4</ele>
        <time>2026-07-15T12:03:00Z</time>
      </trkpt>
      <trkpt lat="42.87986" lon="-0.18957">
        <ele>2142.4</ele>
        <time>2026-07-15T12:03:00Z</time>
      </trkpt>
      <trkpt lat="42.87986" lon="-0.18957">
        <ele>2142.4</ele>
        <time>2026-07-15T12:03:01Z</time>
      </trkpt>
      <trkpt lat="42.87986" lon="-0.18958">
        <ele>2142.4</ele>
        <time>2026-07-15T12:03:01Z</time>
      </trkpt>
      <trkpt lat="42.87986" lon="-0.18958">
        <ele>2141.4</ele>
        <time>2026-07-15T12:03:02Z</time>
      </trkpt>
      <trkpt lat="42.87987" lon="-0.18958">
        <ele>2142.4</ele>
        <time>2026-07-15T12:03:02Z</time>
      </trkpt>
      <trkpt lat="42.87987" lon="-0.18958">
        <ele>2142.4</ele>
        <time>2026-07-15T12:03:03Z</time>
      </trkpt>
      <trkpt lat="42.87987" lon="-0.18959">
        <ele>2141.4</ele>
        <time>2026-07-15T12:03:04Z</time>
      </trkpt>
      <trkpt lat="42.87988" lon="-0.18959">
        <ele>2141.4</ele>
        <time>2026-07-15T12:03:04Z</time>
      </trkpt>
      <trkpt lat="42.87988" lon="-0.18959">
        <ele>2141.4</ele>
        <time>2026-07-15T12:03:05Z</time>
      </trkpt>
      <trkpt lat="42.87988" lon="-0.1896">
        <ele>2141.4</ele>
        <time>2026-07-15T12:03:06Z</time>
      </trkpt>
      <trkpt lat="42.87989" lon="-0.1896">
        <ele>2141.4</ele>
        <time>2026-07-15T12:03:06Z</time>
      </trkpt>
      <trkpt lat="42.87989" lon="-0.1896">
        <ele>2141.4</ele>
        <time>2026-07-15T12:03:07Z</time>
      </trkpt>
      <trkpt lat="42.87989" lon="-0.18961">
        <ele>2140.4</ele>
        <time>2026-07-15T12:03:07Z</time>
      </trkpt>
      <trkpt lat="42.87989" lon="-0.18961">
        <ele>2140.4</ele>
        <time>2026-07-15T12:03:08Z</time>
      </trkpt>
      <trkpt lat="42.87989" lon="-0.18961">
        <ele>2140.4</ele>
        <time>2026-07-15T12:03:08Z</time>
      </trkpt>
      <trkpt lat="42.8799" lon="-0.18962">
        <ele>2140.4</ele>
        <time>2026-07-15T12:03:09Z</time>
      </trkpt>
      <trkpt lat="42.8799" lon="-0.18962">
        <ele>2140.4</ele>
        <time>2026-07-15T12:03:10Z</time>
      </trkpt>
      <trkpt lat="42.87991" lon="-0.18962">
        <ele>2140.4</ele>
        <time>2026-07-15T12:03:11Z</time>
      </trkpt>
      <trkpt lat="42.87991" lon="-0.18962">
        <ele>2139.4</ele>
        <time>2026-07-15T12:03:11Z</time>
      </trkpt>
      <trkpt lat="42.87992" lon="-0.18962">
        <ele>2139.4</ele>
        <time>2026-07-15T12:03:12Z</time>
      </trkpt>
      <trkpt lat="42.87992" lon="-0.18962">
        <ele>2139.4</ele>
        <time>2026-07-15T12:03:12Z</time>
      </trkpt>
      <trkpt lat="42.87993" lon="-0.18963">
        <ele>2139.4</ele>
        <time>2026-07-15T12:03:13Z</time>
      </trkpt>
      <trkpt lat="42.87993" lon="-0.18963">
        <ele>2139.4</ele>
        <time>2026-07-15T12:03:13Z</time>
      </trkpt>
      <trkpt lat="42.87994" lon="-0.18963">
        <ele>2138.4</ele>
        <time>2026-07-15T12:03:14Z</time>
      </trkpt>
      <trkpt lat="42.87994" lon="-0.18963">
        <ele>2138.4</ele>
        <time>2026-07-15T12:03:15Z</time>
      </trkpt>
      <trkpt lat="42.87995" lon="-0.18962">
        <ele>2138.4</ele>
        <time>2026-07-15T12:03:15Z</time>
      </trkpt>
      <trkpt lat="42.87995" lon="-0.18962">
        <ele>2138.4</ele>
        <time>2026-07-15T12:03:16Z</time>
      </trkpt>
      <trkpt lat="42.87995" lon="-0.18962">
        <ele>2138.4</ele>
        <time>2026-07-15T12:03:16Z</time>
      </trkpt>
      <trkpt lat="42.87996" lon="-0.18962">
        <ele>2137.4</ele>
        <time>2026-07-15T12:03:17Z</time>
      </trkpt>
      <trkpt lat="42.87996" lon="-0.18963">
        <ele>2137.4</ele>
        <time>2026-07-15T12:03:18Z</time>
      </trkpt>
      <trkpt lat="42.87996" lon="-0.18963">
        <ele>2137.4</ele>
        <time>2026-07-15T12:03:18Z</time>
      </trkpt>
      <trkpt lat="42.87997" lon="-0.18963">
        <ele>2137.4</ele>
        <time>2026-07-15T12:03:19Z</time>
      </trkpt>
      <trkpt lat="42.87997" lon="-0.18964">
        <ele>2137.4</ele>
        <time>2026-07-15T12:03:19Z</time>
      </trkpt>
      <trkpt lat="42.87997" lon="-0.18964">
        <ele>2137.4</ele>
        <time>2026-07-15T12:03:20Z</time>
      </trkpt>
      <trkpt lat="42.87998" lon="-0.18965">
        <ele>2135.4</ele>
        <time>2026-07-15T12:03:21Z</time>
      </trkpt>
      <trkpt lat="42.87998" lon="-0.18965">
        <ele>2135.4</ele>
        <time>2026-07-15T12:03:22Z</time>
      </trkpt>
      <trkpt lat="42.87998" lon="-0.18965">
        <ele>2134.4</ele>
        <time>2026-07-15T12:03:22Z</time>
      </trkpt>
      <trkpt lat="42.87999" lon="-0.18965">
        <ele>2134.4</ele>
        <time>2026-07-15T12:03:23Z</time>
      </trkpt>
      <trkpt lat="42.87999" lon="-0.18965">
        <ele>2134.4</ele>
        <time>2026-07-15T12:03:23Z</time>
      </trkpt>
      <trkpt lat="42.87999" lon="-0.18966">
        <ele>2134.4</ele>
        <time>2026-07-15T12:03:24Z</time>
      </trkpt>
      <trkpt lat="42.87998" lon="-0.18965">
        <ele>2133.4</ele>
        <time>2026-07-15T12:03:25Z</time>
      </trkpt>
      <trkpt lat="42.87998" lon="-0.18965">
        <ele>2133.4</ele>
        <time>2026-07-15T12:03:26Z</time>
      </trkpt>
      <trkpt lat="42.87998" lon="-0.18965">
        <ele>2133.4</ele>
        <time>2026-07-15T12:03:27Z</time>
      </trkpt>
      <trkpt lat="42.87998" lon="-0.18964">
        <ele>2133.4</ele>
        <time>2026-07-15T12:03:28Z</time>
      </trkpt>
      <trkpt lat="42.87997" lon="-0.18964">
        <ele>2133.4</ele>
        <time>2026-07-15T12:03:29Z</time>
      </trkpt>
      <trkpt lat="42.87997" lon="-0.18963">
        <ele>2133.4</ele>
        <time>2026-07-15T12:03:30Z</time>
      </trkpt>
      <trkpt lat="42.87997" lon="-0.18963">
        <ele>2133.4</ele>
        <time>2026-07-15T12:03:31Z</time>
      </trkpt>
      <trkpt lat="42.87997" lon="-0.18963">
        <ele>2134.4</ele>
        <time>2026-07-15T12:03:32Z</time>
      </trkpt>
      <trkpt lat="42.87997" lon="-0.18963">
        <ele>2134.4</ele>
        <time>2026-07-15T12:03:33Z</time>
      </trkpt>
      <trkpt lat="42.87997" lon="-0.18963">
        <ele>2134.4</ele>
        <time>2026-07-15T12:03:34Z</time>
      </trkpt>
      <trkpt lat="42.87997" lon="-0.18963">
        <ele>2134.4</ele>
        <time>2026-07-15T12:03:35Z</time>
      </trkpt>
      <trkpt lat="42.87997" lon="-0.18963">
        <ele>2134.4</ele>
        <time>2026-07-15T12:03:36Z</time>
      </trkpt>
      <trkpt lat="42.87997" lon="-0.18963">
        <ele>2134.4</ele>
        <time>2026-07-15T12:03:36Z</time>
      </trkpt>
      <trkpt lat="42.87998" lon="-0.18963">
        <ele>2134.4</ele>
        <time>2026-07-15T12:03:37Z</time>
      </trkpt>
      <trkpt lat="42.87998" lon="-0.18963">
        <ele>2133.4</ele>
        <time>2026-07-15T12:03:38Z</time>
      </trkpt>
      <trkpt lat="42.87998" lon="-0.18963">
        <ele>2133.4</ele>
        <time>2026-07-15T12:03:39Z</time>
      </trkpt>
      <trkpt lat="42.87998" lon="-0.18963">
        <ele>2133.4</ele>
        <time>2026-07-15T12:03:40Z</time>
      </trkpt>
      <trkpt lat="42.87998" lon="-0.18963">
        <ele>2133.4</ele>
        <time>2026-07-15T12:03:40Z</time>
      </trkpt>
      <trkpt lat="42.87998" lon="-0.18963">
        <ele>2133.4</ele>
        <time>2026-07-15T12:03:41Z</time>
      </trkpt>
      <trkpt lat="42.87998" lon="-0.18963">
        <ele>2133.4</ele>
        <time>2026-07-15T12:03:42Z</time>
      </trkpt>
      <trkpt lat="42.87998" lon="-0.18963">
        <ele>2133.4</ele>
        <time>2026-07-15T12:03:42Z</time>
      </trkpt>
      <trkpt lat="42.87999" lon="-0.18963">
        <ele>2132.4</ele>
        <time>2026-07-15T12:03:43Z</time>
      </trkpt>
      <trkpt lat="42.87999" lon="-0.18963">
        <ele>2132.4</ele>
        <time>2026-07-15T12:03:44Z</time>
      </trkpt>
      <trkpt lat="42.88" lon="-0.18963">
        <ele>2132.4</ele>
        <time>2026-07-15T12:03:44Z</time>
      </trkpt>
      <trkpt lat="42.88" lon="-0.18963">
        <ele>2132.4</ele>
        <time>2026-07-15T12:03:45Z</time>
      </trkpt>
      <trkpt lat="42.88" lon="-0.18963">
        <ele>2132.4</ele>
        <time>2026-07-15T12:03:46Z</time>
      </trkpt>
      <trkpt lat="42.88" lon="-0.18963">
        <ele>2132.4</ele>
        <time>2026-07-15T12:03:47Z</time>
      </trkpt>
      <trkpt lat="42.88" lon="-0.18963">
        <ele>2131.4</ele>
        <time>2026-07-15T12:03:47Z</time>
      </trkpt>
      <trkpt lat="42.88" lon="-0.18963">
        <ele>2131.4</ele>
        <time>2026-07-15T12:03:48Z</time>
      </trkpt>
      <trkpt lat="42.88" lon="-0.18964">
        <ele>2131.4</ele>
        <time>2026-07-15T12:03:48Z</time>
      </trkpt>
      <trkpt lat="42.88001" lon="-0.18964">
        <ele>2130.4</ele>
        <time>2026-07-15T12:03:49Z</time>
      </trkpt>
      <trkpt lat="42.88001" lon="-0.18965">
        <ele>2130.4</ele>
        <time>2026-07-15T12:03:50Z</time>
      </trkpt>
      <trkpt lat="42.88002" lon="-0.18965">
        <ele>2131.4</ele>
        <time>2026-07-15T12:03:51Z</time>
      </trkpt>
      <trkpt lat="42.88003" lon="-0.18966">
        <ele>2130.4</ele>
        <time>2026-07-15T12:03:51Z</time>
      </trkpt>
      <trkpt lat="42.88004" lon="-0.18967">
        <ele>2130.4</ele>
        <time>2026-07-15T12:03:52Z</time>
      </trkpt>
      <trkpt lat="42.88004" lon="-0.18967">
        <ele>2130.4</ele>
        <time>2026-07-15T12:03:53Z</time>
      </trkpt>
      <trkpt lat="42.88005" lon="-0.18968">
        <ele>2130.4</ele>
        <time>2026-07-15T12:03:54Z</time>
      </trkpt>
      <trkpt lat="42.88006" lon="-0.18968">
        <ele>2129.4</ele>
        <time>2026-07-15T12:03:54Z</time>
      </trkpt>
      <trkpt lat="42.88006" lon="-0.18969">
        <ele>2129.4</ele>
        <time>2026-07-15T12:03:55Z</time>
      </trkpt>
      <trkpt lat="42.88007" lon="-0.1897">
        <ele>2128.4</ele>
        <time>2026-07-15T12:03:56Z</time>
      </trkpt>
      <trkpt lat="42.88007" lon="-0.18971">
        <ele>2128.4</ele>
        <time>2026-07-15T12:03:57Z</time>
      </trkpt>
      <trkpt lat="42.88007" lon="-0.18972">
        <ele>2128.4</ele>
        <time>2026-07-15T12:03:58Z</time>
      </trkpt>
      <trkpt lat="42.88007" lon="-0.18972">
        <ele>2128.4</ele>
        <time>2026-07-15T12:03:58Z</time>
      </trkpt>
      <trkpt lat="42.88008" lon="-0.18973">
        <ele>2128.4</ele>
        <time>2026-07-15T12:03:59Z</time>
      </trkpt>
      <trkpt lat="42.88008" lon="-0.18973">
        <ele>2128.4</ele>
        <time>2026-07-15T12:04:00Z</time>
      </trkpt>
      <trkpt lat="42.88009" lon="-0.18974">
        <ele>2127.4</ele>
        <time>2026-07-15T12:04:00Z</time>
      </trkpt>
      <trkpt lat="42.88009" lon="-0.18974">
        <ele>2127.4</ele>
        <time>2026-07-15T12:04:01Z</time>
      </trkpt>
      <trkpt lat="42.8801" lon="-0.18975">
        <ele>2127.4</ele>
        <time>2026-07-15T12:04:02Z</time>
      </trkpt>
      <trkpt lat="42.8801" lon="-0.18976">
        <ele>2127.4</ele>
        <time>2026-07-15T12:04:03Z</time>
      </trkpt>
      <trkpt lat="42.8801" lon="-0.18977">
        <ele>2127.4</ele>
        <time>2026-07-15T12:04:04Z</time>
      </trkpt>
      <trkpt lat="42.88009" lon="-0.18977">
        <ele>2127.4</ele>
        <time>2026-07-15T12:04:04Z</time>
      </trkpt>
      <trkpt lat="42.88009" lon="-0.18978">
        <ele>2127.4</ele>
        <time>2026-07-15T12:04:05Z</time>
      </trkpt>
      <trkpt lat="42.88009" lon="-0.18979">
        <ele>2127.4</ele>
        <time>2026-07-15T12:04:05Z</time>
      </trkpt>
      <trkpt lat="42.88009" lon="-0.1898">
        <ele>2127.4</ele>
        <time>2026-07-15T12:04:06Z</time>
      </trkpt>
      <trkpt lat="42.88009" lon="-0.1898">
        <ele>2128.4</ele>
        <time>2026-07-15T12:04:06Z</time>
      </trkpt>
      <trkpt lat="42.88009" lon="-0.18981">
        <ele>2127.4</ele>
        <time>2026-07-15T12:04:07Z</time>
      </trkpt>
      <trkpt lat="42.88009" lon="-0.18981">
        <ele>2127.4</ele>
        <time>2026-07-15T12:04:08Z</time>
      </trkpt>
      <trkpt lat="42.8801" lon="-0.18982">
        <ele>2126.4</ele>
        <time>2026-07-15T12:04:08Z</time>
      </trkpt>
      <trkpt lat="42.8801" lon="-0.18982">
        <ele>2126.4</ele>
        <time>2026-07-15T12:04:09Z</time>
      </trkpt>
      <trkpt lat="42.8801" lon="-0.18982">
        <ele>2126.4</ele>
        <time>2026-07-15T12:04:09Z</time>
      </trkpt>
      <trkpt lat="42.8801" lon="-0.18983">
        <ele>2126.4</ele>
        <time>2026-07-15T12:04:10Z</time>
      </trkpt>
      <trkpt lat="42.8801" lon="-0.18983">
        <ele>2126.4</ele>
        <time>2026-07-15T12:04:10Z</time>
      </trkpt>
      <trkpt lat="42.8801" lon="-0.18984">
        <ele>2126.4</ele>
        <time>2026-07-15T12:04:11Z</time>
      </trkpt>
      <trkpt lat="42.8801" lon="-0.18984">
        <ele>2125.4</ele>
        <time>2026-07-15T12:04:12Z</time>
      </trkpt>
      <trkpt lat="42.8801" lon="-0.18985">
        <ele>2125.4</ele>
        <time>2026-07-15T12:04:13Z</time>
      </trkpt>
      <trkpt lat="42.8801" lon="-0.18986">
        <ele>2125.4</ele>
        <time>2026-07-15T12:04:13Z</time>
      </trkpt>
      <trkpt lat="42.88011" lon="-0.18986">
        <ele>2124.4</ele>
        <time>2026-07-15T12:04:14Z</time>
      </trkpt>
      <trkpt lat="42.88011" lon="-0.18986">
        <ele>2124.4</ele>
        <time>2026-07-15T12:04:14Z</time>
      </trkpt>
      <trkpt lat="42.88011" lon="-0.18987">
        <ele>2124.4</ele>
        <time>2026-07-15T12:04:15Z</time>
      </trkpt>
      <trkpt lat="42.88011" lon="-0.18987">
        <ele>2124.4</ele>
        <time>2026-07-15T12:04:16Z</time>
      </trkpt>
      <trkpt lat="42.88012" lon="-0.18987">
        <ele>2123.4</ele>
        <time>2026-07-15T12:04:16Z</time>
      </trkpt>
      <trkpt lat="42.88012" lon="-0.18988">
        <ele>2123.4</ele>
        <time>2026-07-15T12:04:17Z</time>
      </trkpt>
      <trkpt lat="42.88013" lon="-0.18988">
        <ele>2123.4</ele>
        <time>2026-07-15T12:04:17Z</time>
      </trkpt>
      <trkpt lat="42.88013" lon="-0.18988">
        <ele>2123.4</ele>
        <time>2026-07-15T12:04:18Z</time>
      </trkpt>
      <trkpt lat="42.88014" lon="-0.18988">
        <ele>2123.4</ele>
        <time>2026-07-15T12:04:18Z</time>
      </trkpt>
      <trkpt lat="42.88014" lon="-0.18988">
        <ele>2123.4</ele>
        <time>2026-07-15T12:04:19Z</time>
      </trkpt>
      <trkpt lat="42.88015" lon="-0.18988">
        <ele>2123.4</ele>
        <time>2026-07-15T12:04:20Z</time>
      </trkpt>
      <trkpt lat="42.88015" lon="-0.18988">
        <ele>2123.4</ele>
        <time>2026-07-15T12:04:20Z</time>
      </trkpt>
      <trkpt lat="42.88016" lon="-0.18989">
        <ele>2123.4</ele>
        <time>2026-07-15T12:04:21Z</time>
      </trkpt>
      <trkpt lat="42.88016" lon="-0.18989">
        <ele>2124.4</ele>
        <time>2026-07-15T12:04:22Z</time>
      </trkpt>
      <trkpt lat="42.88016" lon="-0.1899">
        <ele>2124.4</ele>
        <time>2026-07-15T12:04:23Z</time>
      </trkpt>
      <trkpt lat="42.88016" lon="-0.1899">
        <ele>2124.4</ele>
        <time>2026-07-15T12:04:24Z</time>
      </trkpt>
      <trkpt lat="42.88016" lon="-0.1899">
        <ele>2123.4</ele>
        <time>2026-07-15T12:04:24Z</time>
      </trkpt>
      <trkpt lat="42.88017" lon="-0.1899">
        <ele>2123.4</ele>
        <time>2026-07-15T12:04:25Z</time>
      </trkpt>
      <trkpt lat="42.88017" lon="-0.1899">
        <ele>2123.4</ele>
        <time>2026-07-15T12:04:26Z</time>
      </trkpt>
      <trkpt lat="42.88018" lon="-0.18991">
        <ele>2122.4</ele>
        <time>2026-07-15T12:04:27Z</time>
      </trkpt>
      <trkpt lat="42.88018" lon="-0.18991">
        <ele>2122.4</ele>
        <time>2026-07-15T12:04:27Z</time>
      </trkpt>
      <trkpt lat="42.88019" lon="-0.18991">
        <ele>2122.4</ele>
        <time>2026-07-15T12:04:27Z</time>
      </trkpt>
      <trkpt lat="42.88019" lon="-0.18992">
        <ele>2122.4</ele>
        <time>2026-07-15T12:04:28Z</time>
      </trkpt>
      <trkpt lat="42.88019" lon="-0.18992">
        <ele>2121.4</ele>
        <time>2026-07-15T12:04:28Z</time>
      </trkpt>
      <trkpt lat="42.88019" lon="-0.18993">
        <ele>2121.4</ele>
        <time>2026-07-15T12:04:29Z</time>
      </trkpt>
      <trkpt lat="42.8802" lon="-0.18994">
        <ele>2121.4</ele>
        <time>2026-07-15T12:04:30Z</time>
      </trkpt>
      <trkpt lat="42.8802" lon="-0.18995">
        <ele>2120.4</ele>
        <time>2026-07-15T12:04:30Z</time>
      </trkpt>
      <trkpt lat="42.8802" lon="-0.18995">
        <ele>2120.4</ele>
        <time>2026-07-15T12:04:31Z</time>
      </trkpt>
      <trkpt lat="42.8802" lon="-0.18996">
        <ele>2120.4</ele>
        <time>2026-07-15T12:04:31Z</time>
      </trkpt>
      <trkpt lat="42.88021" lon="-0.18996">
        <ele>2120.4</ele>
        <time>2026-07-15T12:04:32Z</time>
      </trkpt>
      <trkpt lat="42.88022" lon="-0.18997">
        <ele>2120.4</ele>
        <time>2026-07-15T12:04:33Z</time>
      </trkpt>
      <trkpt lat="42.88022" lon="-0.18998">
        <ele>2119.4</ele>
        <time>2026-07-15T12:04:34Z</time>
      </trkpt>
      <trkpt lat="42.88023" lon="-0.18998">
        <ele>2119.4</ele>
        <time>2026-07-15T12:04:34Z</time>
      </trkpt>
      <trkpt lat="42.88023" lon="-0.18998">
        <ele>2119.4</ele>
        <time>2026-07-15T12:04:35Z</time>
      </trkpt>
      <trkpt lat="42.88024" lon="-0.18998">
        <ele>2119.4</ele>
        <time>2026-07-15T12:04:36Z</time>
      </trkpt>
      <trkpt lat="42.88024" lon="-0.18998">
        <ele>2119.4</ele>
        <time>2026-07-15T12:04:37Z</time>
      </trkpt>
      <trkpt lat="42.88023" lon="-0.18998">
        <ele>2119.4</ele>
        <time>2026-07-15T12:04:37Z</time>
      </trkpt>
      <trkpt lat="42.88023" lon="-0.18998">
        <ele>2119.4</ele>
        <time>2026-07-15T12:04:37Z</time>
      </trkpt>
      <trkpt lat="42.88023" lon="-0.18998">
        <ele>2119.4</ele>
        <time>2026-07-15T12:04:38Z</time>
      </trkpt>
      <trkpt lat="42.88023" lon="-0.18999">
        <ele>2119.4</ele>
        <time>2026-07-15T12:04:39Z</time>
      </trkpt>
      <trkpt lat="42.88023" lon="-0.18999">
        <ele>2119.4</ele>
        <time>2026-07-15T12:04:39Z</time>
      </trkpt>
      <trkpt lat="42.88023" lon="-0.19">
        <ele>2119.4</ele>
        <time>2026-07-15T12:04:40Z</time>
      </trkpt>
      <trkpt lat="42.88023" lon="-0.19">
        <ele>2119.4</ele>
        <time>2026-07-15T12:04:40Z</time>
      </trkpt>
      <trkpt lat="42.88023" lon="-0.19001">
        <ele>2119.4</ele>
        <time>2026-07-15T12:04:41Z</time>
      </trkpt>
      <trkpt lat="42.88023" lon="-0.19001">
        <ele>2118.4</ele>
        <time>2026-07-15T12:04:41Z</time>
      </trkpt>
      <trkpt lat="42.88023" lon="-0.19002">
        <ele>2118.4</ele>
        <time>2026-07-15T12:04:42Z</time>
      </trkpt>
      <trkpt lat="42.88023" lon="-0.19003">
        <ele>2118.4</ele>
        <time>2026-07-15T12:04:43Z</time>
      </trkpt>
      <trkpt lat="42.88024" lon="-0.19003">
        <ele>2117.4</ele>
        <time>2026-07-15T12:04:44Z</time>
      </trkpt>
      <trkpt lat="42.88024" lon="-0.19004">
        <ele>2117.4</ele>
        <time>2026-07-15T12:04:45Z</time>
      </trkpt>
      <trkpt lat="42.88025" lon="-0.19004">
        <ele>2117.4</ele>
        <time>2026-07-15T12:04:45Z</time>
      </trkpt>
      <trkpt lat="42.88025" lon="-0.19005">
        <ele>2117.4</ele>
        <time>2026-07-15T12:04:46Z</time>
      </trkpt>
      <trkpt lat="42.88025" lon="-0.19006">
        <ele>2117.4</ele>
        <time>2026-07-15T12:04:47Z</time>
      </trkpt>
      <trkpt lat="42.88025" lon="-0.19007">
        <ele>2116.4</ele>
        <time>2026-07-15T12:04:48Z</time>
      </trkpt>
      <trkpt lat="42.88025" lon="-0.19008">
        <ele>2115.4</ele>
        <time>2026-07-15T12:04:48Z</time>
      </trkpt>
      <trkpt lat="42.88025" lon="-0.19008">
        <ele>2115.4</ele>
        <time>2026-07-15T12:04:49Z</time>
      </trkpt>
      <trkpt lat="42.88025" lon="-0.19009">
        <ele>2115.4</ele>
        <time>2026-07-15T12:04:49Z</time>
      </trkpt>
      <trkpt lat="42.88025" lon="-0.1901">
        <ele>2115.4</ele>
        <time>2026-07-15T12:04:50Z</time>
      </trkpt>
      <trkpt lat="42.88025" lon="-0.19011">
        <ele>2115.4</ele>
        <time>2026-07-15T12:04:51Z</time>
      </trkpt>
      <trkpt lat="42.88026" lon="-0.19012">
        <ele>2114.4</ele>
        <time>2026-07-15T12:04:52Z</time>
      </trkpt>
      <trkpt lat="42.88027" lon="-0.19012">
        <ele>2114.4</ele>
        <time>2026-07-15T12:04:52Z</time>
      </trkpt>
      <trkpt lat="42.88027" lon="-0.19012">
        <ele>2114.4</ele>
        <time>2026-07-15T12:04:53Z</time>
      </trkpt>
      <trkpt lat="42.88027" lon="-0.19012">
        <ele>2114.4</ele>
        <time>2026-07-15T12:04:54Z</time>
      </trkpt>
      <trkpt lat="42.88026" lon="-0.19012">
        <ele>2113.4</ele>
        <time>2026-07-15T12:04:55Z</time>
      </trkpt>
      <trkpt lat="42.88025" lon="-0.19012">
        <ele>2114.4</ele>
        <time>2026-07-15T12:04:56Z</time>
      </trkpt>
      <trkpt lat="42.88025" lon="-0.19012">
        <ele>2114.4</ele>
        <time>2026-07-15T12:04:57Z</time>
      </trkpt>
      <trkpt lat="42.88025" lon="-0.19012">
        <ele>2114.4</ele>
        <time>2026-07-15T12:04:58Z</time>
      </trkpt>
      <trkpt lat="42.88025" lon="-0.19012">
        <ele>2114.4</ele>
        <time>2026-07-15T12:04:59Z</time>
      </trkpt>
      <trkpt lat="42.88025" lon="-0.19012">
        <ele>2114.4</ele>
        <time>2026-07-15T12:04:59Z</time>
      </trkpt>
      <trkpt lat="42.88025" lon="-0.19012">
        <ele>2113.4</ele>
        <time>2026-07-15T12:05:00Z</time>
      </trkpt>
      <trkpt lat="42.88025" lon="-0.19012">
        <ele>2113.4</ele>
        <time>2026-07-15T12:05:01Z</time>
      </trkpt>
      <trkpt lat="42.88025" lon="-0.19012">
        <ele>2113.4</ele>
        <time>2026-07-15T12:05:01Z</time>
      </trkpt>
      <trkpt lat="42.88026" lon="-0.19012">
        <ele>2113.4</ele>
        <time>2026-07-15T12:05:02Z</time>
      </trkpt>
      <trkpt lat="42.88026" lon="-0.19012">
        <ele>2113.4</ele>
        <time>2026-07-15T12:05:02Z</time>
      </trkpt>
      <trkpt lat="42.88026" lon="-0.19012">
        <ele>2113.4</ele>
        <time>2026-07-15T12:05:03Z</time>
      </trkpt>
      <trkpt lat="42.88026" lon="-0.19013">
        <ele>2113.4</ele>
        <time>2026-07-15T12:05:03Z</time>
      </trkpt>
      <trkpt lat="42.88027" lon="-0.19013">
        <ele>2112.4</ele>
        <time>2026-07-15T12:05:04Z</time>
      </trkpt>
      <trkpt lat="42.88028" lon="-0.19015">
        <ele>2112.4</ele>
        <time>2026-07-15T12:05:05Z</time>
      </trkpt>
      <trkpt lat="42.88028" lon="-0.19016">
        <ele>2112.4</ele>
        <time>2026-07-15T12:05:05Z</time>
      </trkpt>
      <trkpt lat="42.88028" lon="-0.19016">
        <ele>2112.4</ele>
        <time>2026-07-15T12:05:06Z</time>
      </trkpt>
      <trkpt lat="42.88029" lon="-0.19018">
        <ele>2111.4</ele>
        <time>2026-07-15T12:05:07Z</time>
      </trkpt>
      <trkpt lat="42.88029" lon="-0.19019">
        <ele>2111.4</ele>
        <time>2026-07-15T12:05:08Z</time>
      </trkpt>
      <trkpt lat="42.8803" lon="-0.1902">
        <ele>2111.4</ele>
        <time>2026-07-15T12:05:08Z</time>
      </trkpt>
      <trkpt lat="42.8803" lon="-0.19021">
        <ele>2111.4</ele>
        <time>2026-07-15T12:05:09Z</time>
      </trkpt>
      <trkpt lat="42.88031" lon="-0.19021">
        <ele>2111.4</ele>
        <time>2026-07-15T12:05:10Z</time>
      </trkpt>
      <trkpt lat="42.88031" lon="-0.19021">
        <ele>2111.4</ele>
        <time>2026-07-15T12:05:10Z</time>
      </trkpt>
      <trkpt lat="42.88031" lon="-0.19022">
        <ele>2111.4</ele>
        <time>2026-07-15T12:05:11Z</time>
      </trkpt>
      <trkpt lat="42.88032" lon="-0.19022">
        <ele>2111.4</ele>
        <time>2026-07-15T12:05:11Z</time>
      </trkpt>
      <trkpt lat="42.88032" lon="-0.19022">
        <ele>2111.4</ele>
        <time>2026-07-15T12:05:12Z</time>
      </trkpt>
      <trkpt lat="42.88033" lon="-0.19023">
        <ele>2111.4</ele>
        <time>2026-07-15T12:05:12Z</time>
      </trkpt>
      <trkpt lat="42.88033" lon="-0.19023">
        <ele>2111.4</ele>
        <time>2026-07-15T12:05:13Z</time>
      </trkpt>
      <trkpt lat="42.88034" lon="-0.19023">
        <ele>2111.4</ele>
        <time>2026-07-15T12:05:13Z</time>
      </trkpt>
      <trkpt lat="42.88034" lon="-0.19023">
        <ele>2111.4</ele>
        <time>2026-07-15T12:05:14Z</time>
      </trkpt>
      <trkpt lat="42.88034" lon="-0.19023">
        <ele>2111.4</ele>
        <time>2026-07-15T12:05:14Z</time>
      </trkpt>
      <trkpt lat="42.88035" lon="-0.19024">
        <ele>2111.4</ele>
        <time>2026-07-15T12:05:15Z</time>
      </trkpt>
      <trkpt lat="42.88035" lon="-0.19024">
        <ele>2112.4</ele>
        <time>2026-07-15T12:05:15Z</time>
      </trkpt>
      <trkpt lat="42.88035" lon="-0.19024">
        <ele>2112.4</ele>
        <time>2026-07-15T12:05:16Z</time>
      </trkpt>
      <trkpt lat="42.88035" lon="-0.19025">
        <ele>2112.4</ele>
        <time>2026-07-15T12:05:17Z</time>
      </trkpt>
      <trkpt lat="42.88035" lon="-0.19024">
        <ele>2112.4</ele>
        <time>2026-07-15T12:05:17Z</time>
      </trkpt>
      <trkpt lat="42.88035" lon="-0.19025">
        <ele>2112.4</ele>
        <time>2026-07-15T12:05:18Z</time>
      </trkpt>
      <trkpt lat="42.88036" lon="-0.19025">
        <ele>2111.4</ele>
        <time>2026-07-15T12:05:18Z</time>
      </trkpt>
      <trkpt lat="42.88036" lon="-0.19025">
        <ele>2111.4</ele>
        <time>2026-07-15T12:05:19Z</time>
      </trkpt>
      <trkpt lat="42.88037" lon="-0.19025">
        <ele>2111.4</ele>
        <time>2026-07-15T12:05:20Z</time>
      </trkpt>
      <trkpt lat="42.88037" lon="-0.19025">
        <ele>2111.4</ele>
        <time>2026-07-15T12:05:21Z</time>
      </trkpt>
      <trkpt lat="42.88037" lon="-0.19025">
        <ele>2110.4</ele>
        <time>2026-07-15T12:05:21Z</time>
      </trkpt>
      <trkpt lat="42.88038" lon="-0.19025">
        <ele>2110.4</ele>
        <time>2026-07-15T12:05:22Z</time>
      </trkpt>
      <trkpt lat="42.88038" lon="-0.19025">
        <ele>2110.4</ele>
        <time>2026-07-15T12:05:22Z</time>
      </trkpt>
      <trkpt lat="42.88039" lon="-0.19026">
        <ele>2109.4</ele>
        <time>2026-07-15T12:05:23Z</time>
      </trkpt>
      <trkpt lat="42.88039" lon="-0.19026">
        <ele>2109.4</ele>
        <time>2026-07-15T12:05:24Z</time>
      </trkpt>
      <trkpt lat="42.8804" lon="-0.19027">
        <ele>2108.4</ele>
        <time>2026-07-15T12:05:25Z</time>
      </trkpt>
      <trkpt lat="42.8804" lon="-0.19028">
        <ele>2107.4</ele>
        <time>2026-07-15T12:05:25Z</time>
      </trkpt>
      <trkpt lat="42.88041" lon="-0.19028">
        <ele>2107.4</ele>
        <time>2026-07-15T12:05:26Z</time>
      </trkpt>
      <trkpt lat="42.88041" lon="-0.19029">
        <ele>2107.4</ele>
        <time>2026-07-15T12:05:27Z</time>
      </trkpt>
      <trkpt lat="42.88041" lon="-0.19029">
        <ele>2106.4</ele>
        <time>2026-07-15T12:05:27Z</time>
      </trkpt>
      <trkpt lat="42.88042" lon="-0.19029">
        <ele>2106.4</ele>
        <time>2026-07-15T12:05:28Z</time>
      </trkpt>
      <trkpt lat="42.88042" lon="-0.19029">
        <ele>2105.4</ele>
        <time>2026-07-15T12:05:28Z</time>
      </trkpt>
      <trkpt lat="42.88043" lon="-0.1903">
        <ele>2105.4</ele>
        <time>2026-07-15T12:05:29Z</time>
      </trkpt>
      <trkpt lat="42.88043" lon="-0.1903">
        <ele>2105.4</ele>
        <time>2026-07-15T12:05:29Z</time>
      </trkpt>
      <trkpt lat="42.88043" lon="-0.19031">
        <ele>2105.4</ele>
        <time>2026-07-15T12:05:30Z</time>
      </trkpt>
      <trkpt lat="42.88044" lon="-0.19031">
        <ele>2105.4</ele>
        <time>2026-07-15T12:05:30Z</time>
      </trkpt>
      <trkpt lat="42.88044" lon="-0.19031">
        <ele>2105.4</ele>
        <time>2026-07-15T12:05:31Z</time>
      </trkpt>
      <trkpt lat="42.88045" lon="-0.19032">
        <ele>2104.4</ele>
        <time>2026-07-15T12:05:31Z</time>
      </trkpt>
      <trkpt lat="42.88045" lon="-0.19032">
        <ele>2104.4</ele>
        <time>2026-07-15T12:05:32Z</time>
      </trkpt>
      <trkpt lat="42.88045" lon="-0.19032">
        <ele>2104.4</ele>
        <time>2026-07-15T12:05:32Z</time>
      </trkpt>
      <trkpt lat="42.88046" lon="-0.19032">
        <ele>2104.4</ele>
        <time>2026-07-15T12:05:33Z</time>
      </trkpt>
      <trkpt lat="42.88047" lon="-0.19032">
        <ele>2104.4</ele>
        <time>2026-07-15T12:05:34Z</time>
      </trkpt>
      <trkpt lat="42.88047" lon="-0.19032">
        <ele>2104.4</ele>
        <time>2026-07-15T12:05:35Z</time>
      </trkpt>
      <trkpt lat="42.88048" lon="-0.19033">
        <ele>2104.4</ele>
        <time>2026-07-15T12:05:35Z</time>
      </trkpt>
      <trkpt lat="42.88048" lon="-0.19033">
        <ele>2104.4</ele>
        <time>2026-07-15T12:05:36Z</time>
      </trkpt>
      <trkpt lat="42.88049" lon="-0.19034">
        <ele>2104.4</ele>
        <time>2026-07-15T12:05:37Z</time>
      </trkpt>
      <trkpt lat="42.88049" lon="-0.19034">
        <ele>2104.4</ele>
        <time>2026-07-15T12:05:37Z</time>
      </trkpt>
      <trkpt lat="42.8805" lon="-0.19035">
        <ele>2104.4</ele>
        <time>2026-07-15T12:05:38Z</time>
      </trkpt>
      <trkpt lat="42.8805" lon="-0.19035">
        <ele>2104.4</ele>
        <time>2026-07-15T12:05:39Z</time>
      </trkpt>
      <trkpt lat="42.8805" lon="-0.19035">
        <ele>2103.4</ele>
        <time>2026-07-15T12:05:39Z</time>
      </trkpt>
      <trkpt lat="42.88051" lon="-0.19036">
        <ele>2103.4</ele>
        <time>2026-07-15T12:05:40Z</time>
      </trkpt>
      <trkpt lat="42.88051" lon="-0.19036">
        <ele>2103.4</ele>
        <time>2026-07-15T12:05:40Z</time>
      </trkpt>
      <trkpt lat="42.88052" lon="-0.19036">
        <ele>2103.4</ele>
        <time>2026-07-15T12:05:41Z</time>
      </trkpt>
      <trkpt lat="42.88053" lon="-0.19035">
        <ele>2103.4</ele>
        <time>2026-07-15T12:05:42Z</time>
      </trkpt>
      <trkpt lat="42.88053" lon="-0.19035">
        <ele>2102.4</ele>
        <time>2026-07-15T12:05:43Z</time>
      </trkpt>
      <trkpt lat="42.88054" lon="-0.19035">
        <ele>2102.4</ele>
        <time>2026-07-15T12:05:44Z</time>
      </trkpt>
      <trkpt lat="42.88054" lon="-0.19035">
        <ele>2102.4</ele>
        <time>2026-07-15T12:05:44Z</time>
      </trkpt>
      <trkpt lat="42.88054" lon="-0.19035">
        <ele>2102.4</ele>
        <time>2026-07-15T12:05:44Z</time>
      </trkpt>
      <trkpt lat="42.88054" lon="-0.19035">
        <ele>2101.4</ele>
        <time>2026-07-15T12:05:45Z</time>
      </trkpt>
      <trkpt lat="42.88055" lon="-0.19035">
        <ele>2101.4</ele>
        <time>2026-07-15T12:05:46Z</time>
      </trkpt>
      <trkpt lat="42.88054" lon="-0.19034">
        <ele>2100.4</ele>
        <time>2026-07-15T12:05:47Z</time>
      </trkpt>
      <trkpt lat="42.88055" lon="-0.19035">
        <ele>2100.4</ele>
        <time>2026-07-15T12:05:48Z</time>
      </trkpt>
      <trkpt lat="42.88055" lon="-0.19035">
        <ele>2100.4</ele>
        <time>2026-07-15T12:05:49Z</time>
      </trkpt>
      <trkpt lat="42.88056" lon="-0.19035">
        <ele>2100.4</ele>
        <time>2026-07-15T12:05:50Z</time>
      </trkpt>
      <trkpt lat="42.88057" lon="-0.19036">
        <ele>2100.4</ele>
        <time>2026-07-15T12:05:51Z</time>
      </trkpt>
      <trkpt lat="42.88057" lon="-0.19037">
        <ele>2100.4</ele>
        <time>2026-07-15T12:05:52Z</time>
      </trkpt>
      <trkpt lat="42.88059" lon="-0.19038">
        <ele>2100.4</ele>
        <time>2026-07-15T12:05:53Z</time>
      </trkpt>
      <trkpt lat="42.8806" lon="-0.19038">
        <ele>2100.4</ele>
        <time>2026-07-15T12:05:54Z</time>
      </trkpt>
      <trkpt lat="42.8806" lon="-0.19039">
        <ele>2099.4</ele>
        <time>2026-07-15T12:05:55Z</time>
      </trkpt>
      <trkpt lat="42.88061" lon="-0.19039">
        <ele>2099.4</ele>
        <time>2026-07-15T12:05:56Z</time>
      </trkpt>
      <trkpt lat="42.88061" lon="-0.1904">
        <ele>2100.4</ele>
        <time>2026-07-15T12:05:57Z</time>
      </trkpt>
      <trkpt lat="42.88062" lon="-0.19041">
        <ele>2100.4</ele>
        <time>2026-07-15T12:05:58Z</time>
      </trkpt>
      <trkpt lat="42.88062" lon="-0.19041">
        <ele>2100.4</ele>
        <time>2026-07-15T12:05:59Z</time>
      </trkpt>
      <trkpt lat="42.88063" lon="-0.19041">
        <ele>2099.4</ele>
        <time>2026-07-15T12:06:00Z</time>
      </trkpt>
      <trkpt lat="42.88063" lon="-0.19041">
        <ele>2099.4</ele>
        <time>2026-07-15T12:06:01Z</time>
      </trkpt>
      <trkpt lat="42.88064" lon="-0.19041">
        <ele>2099.4</ele>
        <time>2026-07-15T12:06:02Z</time>
      </trkpt>
      <trkpt lat="42.88065" lon="-0.19042">
        <ele>2099.4</ele>
        <time>2026-07-15T12:06:03Z</time>
      </trkpt>
      <trkpt lat="42.88065" lon="-0.19043">
        <ele>2098.4</ele>
        <time>2026-07-15T12:06:04Z</time>
      </trkpt>
      <trkpt lat="42.88067" lon="-0.19043">
        <ele>2097.4</ele>
        <time>2026-07-15T12:06:05Z</time>
      </trkpt>
      <trkpt lat="42.88067" lon="-0.19043">
        <ele>2097.4</ele>
        <time>2026-07-15T12:06:06Z</time>
      </trkpt>
      <trkpt lat="42.88067" lon="-0.19044">
        <ele>2097.4</ele>
        <time>2026-07-15T12:06:07Z</time>
      </trkpt>
      <trkpt lat="42.88068" lon="-0.19044">
        <ele>2096.4</ele>
        <time>2026-07-15T12:06:08Z</time>
      </trkpt>
      <trkpt lat="42.88069" lon="-0.19044">
        <ele>2096.4</ele>
        <time>2026-07-15T12:06:09Z</time>
      </trkpt>
      <trkpt lat="42.8807" lon="-0.19044">
        <ele>2096.4</ele>
        <time>2026-07-15T12:06:10Z</time>
      </trkpt>
      <trkpt lat="42.8807" lon="-0.19045">
        <ele>2095.4</ele>
        <time>2026-07-15T12:06:11Z</time>
      </trkpt>
      <trkpt lat="42.88071" lon="-0.19045">
        <ele>2096.4</ele>
        <time>2026-07-15T12:06:12Z</time>
      </trkpt>
      <trkpt lat="42.88072" lon="-0.19045">
        <ele>2095.4</ele>
        <time>2026-07-15T12:06:13Z</time>
      </trkpt>
      <trkpt lat="42.88073" lon="-0.19046">
        <ele>2095.4</ele>
        <time>2026-07-15T12:06:14Z</time>
      </trkpt>
      <trkpt lat="42.88074" lon="-0.19045">
        <ele>2095.4</ele>
        <time>2026-07-15T12:06:15Z</time>
      </trkpt>
      <trkpt lat="42.88074" lon="-0.19045">
        <ele>2095.4</ele>
        <time>2026-07-15T12:06:16Z</time>
      </trkpt>
      <trkpt lat="42.88074" lon="-0.19045">
        <ele>2094.4</ele>
        <time>2026-07-15T12:06:17Z</time>
      </trkpt>
      <trkpt lat="42.88074" lon="-0.19045">
        <ele>2094.4</ele>
        <time>2026-07-15T12:06:18Z</time>
      </trkpt>
      <trkpt lat="42.88075" lon="-0.19044">
        <ele>2094.4</ele>
        <time>2026-07-15T12:06:19Z</time>
      </trkpt>
      <trkpt lat="42.88075" lon="-0.19044">
        <ele>2093.4</ele>
        <time>2026-07-15T12:06:20Z</time>
      </trkpt>
      <trkpt lat="42.88076" lon="-0.19044">
        <ele>2093.4</ele>
        <time>2026-07-15T12:06:21Z</time>
      </trkpt>
      <trkpt lat="42.88077" lon="-0.19043">
        <ele>2093.4</ele>
        <time>2026-07-15T12:06:22Z</time>
      </trkpt>
      <trkpt lat="42.88078" lon="-0.19043">
        <ele>2093.4</ele>
        <time>2026-07-15T12:06:23Z</time>
      </trkpt>
      <trkpt lat="42.88079" lon="-0.19041">
        <ele>2092.4</ele>
        <time>2026-07-15T12:06:24Z</time>
      </trkpt>
      <trkpt lat="42.8808" lon="-0.19041">
        <ele>2093.4</ele>
        <time>2026-07-15T12:06:25Z</time>
      </trkpt>
      <trkpt lat="42.88081" lon="-0.19041">
        <ele>2091.4</ele>
        <time>2026-07-15T12:06:26Z</time>
      </trkpt>
      <trkpt lat="42.88082" lon="-0.1904">
        <ele>2091.4</ele>
        <time>2026-07-15T12:06:27Z</time>
      </trkpt>
      <trkpt lat="42.88082" lon="-0.19039">
        <ele>2091.4</ele>
        <time>2026-07-15T12:06:28Z</time>
      </trkpt>
      <trkpt lat="42.88082" lon="-0.19038">
        <ele>2090.4</ele>
        <time>2026-07-15T12:06:29Z</time>
      </trkpt>
      <trkpt lat="42.88082" lon="-0.19037">
        <ele>2089.4</ele>
        <time>2026-07-15T12:06:30Z</time>
      </trkpt>
      <trkpt lat="42.88083" lon="-0.19037">
        <ele>2089.4</ele>
        <time>2026-07-15T12:06:31Z</time>
      </trkpt>
      <trkpt lat="42.88084" lon="-0.19036">
        <ele>2089.4</ele>
        <time>2026-07-15T12:06:32Z</time>
      </trkpt>
      <trkpt lat="42.88085" lon="-0.19035">
        <ele>2089.4</ele>
        <time>2026-07-15T12:06:33Z</time>
      </trkpt>
      <trkpt lat="42.88085" lon="-0.19035">
        <ele>2089.4</ele>
        <time>2026-07-15T12:06:34Z</time>
      </trkpt>
      <trkpt lat="42.88086" lon="-0.19034">
        <ele>2089.4</ele>
        <time>2026-07-15T12:06:35Z</time>
      </trkpt>
      <trkpt lat="42.88086" lon="-0.19034">
        <ele>2089.4</ele>
        <time>2026-07-15T12:06:36Z</time>
      </trkpt>
      <trkpt lat="42.88087" lon="-0.19034">
        <ele>2089.4</ele>
        <time>2026-07-15T12:06:37Z</time>
      </trkpt>
      <trkpt lat="42.88088" lon="-0.19033">
        <ele>2089.4</ele>
        <time>2026-07-15T12:06:38Z</time>
      </trkpt>
      <trkpt lat="42.88087" lon="-0.19033">
        <ele>2089.4</ele>
        <time>2026-07-15T12:06:39Z</time>
      </trkpt>
      <trkpt lat="42.88088" lon="-0.19032">
        <ele>2089.4</ele>
        <time>2026-07-15T12:06:40Z</time>
      </trkpt>
      <trkpt lat="42.88089" lon="-0.19031">
        <ele>2089.4</ele>
        <time>2026-07-15T12:06:41Z</time>
      </trkpt>
      <trkpt lat="42.8809" lon="-0.1903">
        <ele>2088.4</ele>
        <time>2026-07-15T12:06:42Z</time>
      </trkpt>
      <trkpt lat="42.88091" lon="-0.1903">
        <ele>2089.4</ele>
        <time>2026-07-15T12:06:43Z</time>
      </trkpt>
      <trkpt lat="42.88092" lon="-0.19031">
        <ele>2088.4</ele>
        <time>2026-07-15T12:06:44Z</time>
      </trkpt>
      <trkpt lat="42.88093" lon="-0.19031">
        <ele>2088.4</ele>
        <time>2026-07-15T12:06:45Z</time>
      </trkpt>
      <trkpt lat="42.88094" lon="-0.19031">
        <ele>2087.4</ele>
        <time>2026-07-15T12:06:46Z</time>
      </trkpt>
      <trkpt lat="42.88095" lon="-0.19031">
        <ele>2087.4</ele>
        <time>2026-07-15T12:06:47Z</time>
      </trkpt>
      <trkpt lat="42.88096" lon="-0.19031">
        <ele>2087.4</ele>
        <time>2026-07-15T12:06:48Z</time>
      </trkpt>
      <trkpt lat="42.88096" lon="-0.19032">
        <ele>2086.4</ele>
        <time>2026-07-15T12:06:49Z</time>
      </trkpt>
      <trkpt lat="42.88097" lon="-0.19032">
        <ele>2086.4</ele>
        <time>2026-07-15T12:06:50Z</time>
      </trkpt>
      <trkpt lat="42.88097" lon="-0.19032">
        <ele>2086.4</ele>
        <time>2026-07-15T12:06:51Z</time>
      </trkpt>
      <trkpt lat="42.88098" lon="-0.19033">
        <ele>2086.4</ele>
        <time>2026-07-15T12:06:52Z</time>
      </trkpt>
      <trkpt lat="42.88098" lon="-0.19033">
        <ele>2086.4</ele>
        <time>2026-07-15T12:06:53Z</time>
      </trkpt>
      <trkpt lat="42.88099" lon="-0.19033">
        <ele>2086.4</ele>
        <time>2026-07-15T12:06:54Z</time>
      </trkpt>
      <trkpt lat="42.881" lon="-0.19034">
        <ele>2086.4</ele>
        <time>2026-07-15T12:06:55Z</time>
      </trkpt>
      <trkpt lat="42.881" lon="-0.19034">
        <ele>2086.4</ele>
        <time>2026-07-15T12:06:56Z</time>
      </trkpt>
      <trkpt lat="42.881" lon="-0.19035">
        <ele>2086.4</ele>
        <time>2026-07-15T12:06:57Z</time>
      </trkpt>
      <trkpt lat="42.881" lon="-0.19036">
        <ele>2086.4</ele>
        <time>2026-07-15T12:06:58Z</time>
      </trkpt>
      <trkpt lat="42.88101" lon="-0.19037">
        <ele>2085.4</ele>
        <time>2026-07-15T12:06:59Z</time>
      </trkpt>
      <trkpt lat="42.88102" lon="-0.19037">
        <ele>2085.4</ele>
        <time>2026-07-15T12:07:00Z</time>
      </trkpt>
      <trkpt lat="42.88102" lon="-0.19037">
        <ele>2085.4</ele>
        <time>2026-07-15T12:07:01Z</time>
      </trkpt>
      <trkpt lat="42.88104" lon="-0.19039">
        <ele>2085.4</ele>
        <time>2026-07-15T12:07:02Z</time>
      </trkpt>
      <trkpt lat="42.88105" lon="-0.1904">
        <ele>2085.4</ele>
        <time>2026-07-15T12:07:03Z</time>
      </trkpt>
      <trkpt lat="42.88106" lon="-0.19041">
        <ele>2084.4</ele>
        <time>2026-07-15T12:07:04Z</time>
      </trkpt>
      <trkpt lat="42.88106" lon="-0.19041">
        <ele>2084.4</ele>
        <time>2026-07-15T12:07:05Z</time>
      </trkpt>
      <trkpt lat="42.88106" lon="-0.19041">
        <ele>2084.4</ele>
        <time>2026-07-15T12:07:05Z</time>
      </trkpt>
      <trkpt lat="42.88108" lon="-0.19041">
        <ele>2084.4</ele>
        <time>2026-07-15T12:07:06Z</time>
      </trkpt>
      <trkpt lat="42.88108" lon="-0.19042">
        <ele>2084.4</ele>
        <time>2026-07-15T12:07:07Z</time>
      </trkpt>
      <trkpt lat="42.88109" lon="-0.19042">
        <ele>2084.4</ele>
        <time>2026-07-15T12:07:07Z</time>
      </trkpt>
      <trkpt lat="42.88109" lon="-0.19042">
        <ele>2084.4</ele>
        <time>2026-07-15T12:07:08Z</time>
      </trkpt>
      <trkpt lat="42.8811" lon="-0.19043">
        <ele>2084.4</ele>
        <time>2026-07-15T12:07:09Z</time>
      </trkpt>
      <trkpt lat="42.8811" lon="-0.19043">
        <ele>2084.4</ele>
        <time>2026-07-15T12:07:09Z</time>
      </trkpt>
      <trkpt lat="42.88111" lon="-0.19043">
        <ele>2084.4</ele>
        <time>2026-07-15T12:07:10Z</time>
      </trkpt>
      <trkpt lat="42.88111" lon="-0.19043">
        <ele>2084.4</ele>
        <time>2026-07-15T12:07:10Z</time>
      </trkpt>
      <trkpt lat="42.88111" lon="-0.19043">
        <ele>2084.4</ele>
        <time>2026-07-15T12:07:11Z</time>
      </trkpt>
      <trkpt lat="42.88112" lon="-0.19043">
        <ele>2084.4</ele>
        <time>2026-07-15T12:07:12Z</time>
      </trkpt>
      <trkpt lat="42.88112" lon="-0.19043">
        <ele>2084.4</ele>
        <time>2026-07-15T12:07:12Z</time>
      </trkpt>
      <trkpt lat="42.88113" lon="-0.19043">
        <ele>2084.4</ele>
        <time>2026-07-15T12:07:13Z</time>
      </trkpt>
      <trkpt lat="42.88113" lon="-0.19043">
        <ele>2084.4</ele>
        <time>2026-07-15T12:07:13Z</time>
      </trkpt>
      <trkpt lat="42.88113" lon="-0.19044">
        <ele>2083.4</ele>
        <time>2026-07-15T12:07:14Z</time>
      </trkpt>
      <trkpt lat="42.88113" lon="-0.19044">
        <ele>2083.4</ele>
        <time>2026-07-15T12:07:15Z</time>
      </trkpt>
      <trkpt lat="42.88112" lon="-0.19044">
        <ele>2083.4</ele>
        <time>2026-07-15T12:07:15Z</time>
      </trkpt>
      <trkpt lat="42.88113" lon="-0.19045">
        <ele>2084.4</ele>
        <time>2026-07-15T12:07:16Z</time>
      </trkpt>
      <trkpt lat="42.88113" lon="-0.19045">
        <ele>2084.4</ele>
        <time>2026-07-15T12:07:17Z</time>
      </trkpt>
      <trkpt lat="42.88114" lon="-0.19045">
        <ele>2083.4</ele>
        <time>2026-07-15T12:07:18Z</time>
      </trkpt>
      <trkpt lat="42.88114" lon="-0.19046">
        <ele>2083.4</ele>
        <time>2026-07-15T12:07:19Z</time>
      </trkpt>
      <trkpt lat="42.88115" lon="-0.19046">
        <ele>2084.4</ele>
        <time>2026-07-15T12:07:19Z</time>
      </trkpt>
      <trkpt lat="42.88115" lon="-0.19046">
        <ele>2084.4</ele>
        <time>2026-07-15T12:07:20Z</time>
      </trkpt>
      <trkpt lat="42.88115" lon="-0.19046">
        <ele>2083.4</ele>
        <time>2026-07-15T12:07:20Z</time>
      </trkpt>
      <trkpt lat="42.88116" lon="-0.19046">
        <ele>2083.4</ele>
        <time>2026-07-15T12:07:21Z</time>
      </trkpt>
      <trkpt lat="42.88116" lon="-0.19045">
        <ele>2083.4</ele>
        <time>2026-07-15T12:07:21Z</time>
      </trkpt>
      <trkpt lat="42.88117" lon="-0.19045">
        <ele>2083.4</ele>
        <time>2026-07-15T12:07:22Z</time>
      </trkpt>
      <trkpt lat="42.88118" lon="-0.19045">
        <ele>2083.4</ele>
        <time>2026-07-15T12:07:23Z</time>
      </trkpt>
      <trkpt lat="42.88118" lon="-0.19045">
        <ele>2082.4</ele>
        <time>2026-07-15T12:07:24Z</time>
      </trkpt>
      <trkpt lat="42.88119" lon="-0.19046">
        <ele>2082.4</ele>
        <time>2026-07-15T12:07:25Z</time>
      </trkpt>
      <trkpt lat="42.88119" lon="-0.19046">
        <ele>2081.4</ele>
        <time>2026-07-15T12:07:25Z</time>
      </trkpt>
      <trkpt lat="42.88119" lon="-0.19046">
        <ele>2081.4</ele>
        <time>2026-07-15T12:07:26Z</time>
      </trkpt>
      <trkpt lat="42.88119" lon="-0.19047">
        <ele>2081.4</ele>
        <time>2026-07-15T12:07:27Z</time>
      </trkpt>
      <trkpt lat="42.88119" lon="-0.19047">
        <ele>2080.4</ele>
        <time>2026-07-15T12:07:27Z</time>
      </trkpt>
      <trkpt lat="42.88119" lon="-0.19047">
        <ele>2080.4</ele>
        <time>2026-07-15T12:07:28Z</time>
      </trkpt>
      <trkpt lat="42.88119" lon="-0.19047">
        <ele>2080.4</ele>
        <time>2026-07-15T12:07:29Z</time>
      </trkpt>
      <trkpt lat="42.88119" lon="-0.19047">
        <ele>2080.4</ele>
        <time>2026-07-15T12:07:29Z</time>
      </trkpt>
      <trkpt lat="42.88119" lon="-0.19047">
        <ele>2080.4</ele>
        <time>2026-07-15T12:07:30Z</time>
      </trkpt>
      <trkpt lat="42.88119" lon="-0.19047">
        <ele>2080.4</ele>
        <time>2026-07-15T12:07:31Z</time>
      </trkpt>
      <trkpt lat="42.88119" lon="-0.19047">
        <ele>2080.4</ele>
        <time>2026-07-15T12:07:31Z</time>
      </trkpt>
      <trkpt lat="42.88119" lon="-0.19047">
        <ele>2080.4</ele>
        <time>2026-07-15T12:07:32Z</time>
      </trkpt>
      <trkpt lat="42.88119" lon="-0.19047">
        <ele>2080.4</ele>
        <time>2026-07-15T12:07:33Z</time>
      </trkpt>
      <trkpt lat="42.88119" lon="-0.19047">
        <ele>2080.4</ele>
        <time>2026-07-15T12:07:34Z</time>
      </trkpt>
      <trkpt lat="42.88118" lon="-0.19047">
        <ele>2080.4</ele>
        <time>2026-07-15T12:07:35Z</time>
      </trkpt>
      <trkpt lat="42.88119" lon="-0.19047">
        <ele>2080.4</ele>
        <time>2026-07-15T12:07:35Z</time>
      </trkpt>
      <trkpt lat="42.88119" lon="-0.19047">
        <ele>2080.4</ele>
        <time>2026-07-15T12:07:36Z</time>
      </trkpt>
      <trkpt lat="42.88119" lon="-0.19047">
        <ele>2080.4</ele>
        <time>2026-07-15T12:07:37Z</time>
      </trkpt>
      <trkpt lat="42.88119" lon="-0.19047">
        <ele>2080.4</ele>
        <time>2026-07-15T12:07:38Z</time>
      </trkpt>
      <trkpt lat="42.88119" lon="-0.19047">
        <ele>2080.4</ele>
        <time>2026-07-15T12:07:39Z</time>
      </trkpt>
      <trkpt lat="42.88119" lon="-0.19047">
        <ele>2080.4</ele>
        <time>2026-07-15T12:07:40Z</time>
      </trkpt>
      <trkpt lat="42.88119" lon="-0.19047">
        <ele>2080.4</ele>
        <time>2026-07-15T12:07:41Z</time>
      </trkpt>
      <trkpt lat="42.88119" lon="-0.19047">
        <ele>2080.4</ele>
        <time>2026-07-15T12:07:42Z</time>
      </trkpt>
      <trkpt lat="42.88119" lon="-0.19047">
        <ele>2080.4</ele>
        <time>2026-07-15T12:07:43Z</time>
      </trkpt>
      <trkpt lat="42.88119" lon="-0.19047">
        <ele>2080.4</ele>
        <time>2026-07-15T12:07:44Z</time>
      </trkpt>
      <trkpt lat="42.88119" lon="-0.19047">
        <ele>2080.4</ele>
        <time>2026-07-15T12:07:45Z</time>
      </trkpt>
      <trkpt lat="42.88119" lon="-0.19047">
        <ele>2080.4</ele>
        <time>2026-07-15T12:07:46Z</time>
      </trkpt>
      <trkpt lat="42.88119" lon="-0.19047">
        <ele>2079.4</ele>
        <time>2026-07-15T12:07:47Z</time>
      </trkpt>
      <trkpt lat="42.88119" lon="-0.19047">
        <ele>2079.4</ele>
        <time>2026-07-15T12:07:48Z</time>
      </trkpt>
      <trkpt lat="42.88119" lon="-0.19047">
        <ele>2078.4</ele>
        <time>2026-07-15T12:07:48Z</time>
      </trkpt>
      <trkpt lat="42.88119" lon="-0.19047">
        <ele>2078.4</ele>
        <time>2026-07-15T12:07:49Z</time>
      </trkpt>
      <trkpt lat="42.88119" lon="-0.19047">
        <ele>2078.4</ele>
        <time>2026-07-15T12:07:50Z</time>
      </trkpt>
      <trkpt lat="42.8812" lon="-0.19047">
        <ele>2077.4</ele>
        <time>2026-07-15T12:07:51Z</time>
      </trkpt>
      <trkpt lat="42.8812" lon="-0.19047">
        <ele>2077.4</ele>
        <time>2026-07-15T12:07:52Z</time>
      </trkpt>
      <trkpt lat="42.88121" lon="-0.19048">
        <ele>2077.4</ele>
        <time>2026-07-15T12:07:52Z</time>
      </trkpt>
      <trkpt lat="42.88121" lon="-0.19048">
        <ele>2077.4</ele>
        <time>2026-07-15T12:07:53Z</time>
      </trkpt>
      <trkpt lat="42.88121" lon="-0.19048">
        <ele>2077.4</ele>
        <time>2026-07-15T12:07:54Z</time>
      </trkpt>
      <trkpt lat="42.88121" lon="-0.19048">
        <ele>2077.4</ele>
        <time>2026-07-15T12:07:54Z</time>
      </trkpt>
      <trkpt lat="42.88121" lon="-0.19048">
        <ele>2077.4</ele>
        <time>2026-07-15T12:07:55Z</time>
      </trkpt>
      <trkpt lat="42.88122" lon="-0.19049">
        <ele>2076.4</ele>
        <time>2026-07-15T12:07:56Z</time>
      </trkpt>
      <trkpt lat="42.88124" lon="-0.1905">
        <ele>2075.4</ele>
        <time>2026-07-15T12:07:57Z</time>
      </trkpt>
      <trkpt lat="42.88125" lon="-0.1905">
        <ele>2075.4</ele>
        <time>2026-07-15T12:07:57Z</time>
      </trkpt>
      <trkpt lat="42.88125" lon="-0.19051">
        <ele>2075.4</ele>
        <time>2026-07-15T12:07:58Z</time>
      </trkpt>
      <trkpt lat="42.88126" lon="-0.19052">
        <ele>2074.4</ele>
        <time>2026-07-15T12:07:59Z</time>
      </trkpt>
      <trkpt lat="42.88127" lon="-0.19052">
        <ele>2074.4</ele>
        <time>2026-07-15T12:08:00Z</time>
      </trkpt>
      <trkpt lat="42.88128" lon="-0.19052">
        <ele>2075.4</ele>
        <time>2026-07-15T12:08:00Z</time>
      </trkpt>
      <trkpt lat="42.88128" lon="-0.19052">
        <ele>2075.4</ele>
        <time>2026-07-15T12:08:01Z</time>
      </trkpt>
      <trkpt lat="42.88129" lon="-0.19053">
        <ele>2074.4</ele>
        <time>2026-07-15T12:08:02Z</time>
      </trkpt>
      <trkpt lat="42.88129" lon="-0.19053">
        <ele>2073.4</ele>
        <time>2026-07-15T12:08:03Z</time>
      </trkpt>
      <trkpt lat="42.88129" lon="-0.19053">
        <ele>2073.4</ele>
        <time>2026-07-15T12:08:03Z</time>
      </trkpt>
      <trkpt lat="42.8813" lon="-0.19053">
        <ele>2073.4</ele>
        <time>2026-07-15T12:08:04Z</time>
      </trkpt>
      <trkpt lat="42.8813" lon="-0.19053">
        <ele>2073.4</ele>
        <time>2026-07-15T12:08:04Z</time>
      </trkpt>
      <trkpt lat="42.8813" lon="-0.19053">
        <ele>2073.4</ele>
        <time>2026-07-15T12:08:05Z</time>
      </trkpt>
      <trkpt lat="42.88131" lon="-0.19053">
        <ele>2073.4</ele>
        <time>2026-07-15T12:08:05Z</time>
      </trkpt>
      <trkpt lat="42.88131" lon="-0.19054">
        <ele>2072.4</ele>
        <time>2026-07-15T12:08:06Z</time>
      </trkpt>
      <trkpt lat="42.88132" lon="-0.19054">
        <ele>2072.4</ele>
        <time>2026-07-15T12:08:07Z</time>
      </trkpt>
      <trkpt lat="42.88132" lon="-0.19054">
        <ele>2072.4</ele>
        <time>2026-07-15T12:08:08Z</time>
      </trkpt>
      <trkpt lat="42.88133" lon="-0.19054">
        <ele>2072.4</ele>
        <time>2026-07-15T12:08:08Z</time>
      </trkpt>
      <trkpt lat="42.88133" lon="-0.19055">
        <ele>2072.4</ele>
        <time>2026-07-15T12:08:09Z</time>
      </trkpt>
      <trkpt lat="42.88133" lon="-0.19055">
        <ele>2072.4</ele>
        <time>2026-07-15T12:08:09Z</time>
      </trkpt>
      <trkpt lat="42.88133" lon="-0.19056">
        <ele>2072.4</ele>
        <time>2026-07-15T12:08:10Z</time>
      </trkpt>
      <trkpt lat="42.88133" lon="-0.19056">
        <ele>2072.4</ele>
        <time>2026-07-15T12:08:10Z</time>
      </trkpt>
      <trkpt lat="42.88134" lon="-0.19056">
        <ele>2071.4</ele>
        <time>2026-07-15T12:08:11Z</time>
      </trkpt>
      <trkpt lat="42.88134" lon="-0.19056">
        <ele>2071.4</ele>
        <time>2026-07-15T12:08:12Z</time>
      </trkpt>
      <trkpt lat="42.88135" lon="-0.19056">
        <ele>2071.4</ele>
        <time>2026-07-15T12:08:12Z</time>
      </trkpt>
      <trkpt lat="42.88135" lon="-0.19056">
        <ele>2071.4</ele>
        <time>2026-07-15T12:08:13Z</time>
      </trkpt>
      <trkpt lat="42.88135" lon="-0.19056">
        <ele>2071.4</ele>
        <time>2026-07-15T12:08:14Z</time>
      </trkpt>
      <trkpt lat="42.88136" lon="-0.19056">
        <ele>2072.4</ele>
        <time>2026-07-15T12:08:14Z</time>
      </trkpt>
      <trkpt lat="42.88136" lon="-0.19057">
        <ele>2072.4</ele>
        <time>2026-07-15T12:08:15Z</time>
      </trkpt>
      <trkpt lat="42.88136" lon="-0.19058">
        <ele>2072.4</ele>
        <time>2026-07-15T12:08:15Z</time>
      </trkpt>
      <trkpt lat="42.88136" lon="-0.19058">
        <ele>2072.4</ele>
        <time>2026-07-15T12:08:16Z</time>
      </trkpt>
      <trkpt lat="42.88136" lon="-0.19059">
        <ele>2070.4</ele>
        <time>2026-07-15T12:08:16Z</time>
      </trkpt>
      <trkpt lat="42.88136" lon="-0.1906">
        <ele>2070.4</ele>
        <time>2026-07-15T12:08:17Z</time>
      </trkpt>
      <trkpt lat="42.88136" lon="-0.19061">
        <ele>2069.4</ele>
        <time>2026-07-15T12:08:17Z</time>
      </trkpt>
      <trkpt lat="42.88136" lon="-0.19061">
        <ele>2069.4</ele>
        <time>2026-07-15T12:08:18Z</time>
      </trkpt>
      <trkpt lat="42.88136" lon="-0.19062">
        <ele>2069.4</ele>
        <time>2026-07-15T12:08:18Z</time>
      </trkpt>
      <trkpt lat="42.88136" lon="-0.19062">
        <ele>2068.4</ele>
        <time>2026-07-15T12:08:19Z</time>
      </trkpt>
      <trkpt lat="42.88136" lon="-0.19063">
        <ele>2068.4</ele>
        <time>2026-07-15T12:08:20Z</time>
      </trkpt>
      <trkpt lat="42.88136" lon="-0.19064">
        <ele>2068.4</ele>
        <time>2026-07-15T12:08:21Z</time>
      </trkpt>
      <trkpt lat="42.88137" lon="-0.19065">
        <ele>2068.4</ele>
        <time>2026-07-15T12:08:22Z</time>
      </trkpt>
      <trkpt lat="42.88137" lon="-0.19065">
        <ele>2067.4</ele>
        <time>2026-07-15T12:08:22Z</time>
      </trkpt>
      <trkpt lat="42.88137" lon="-0.19065">
        <ele>2066.4</ele>
        <time>2026-07-15T12:08:23Z</time>
      </trkpt>
      <trkpt lat="42.88138" lon="-0.19065">
        <ele>2066.4</ele>
        <time>2026-07-15T12:08:24Z</time>
      </trkpt>
      <trkpt lat="42.88138" lon="-0.19065">
        <ele>2066.4</ele>
        <time>2026-07-15T12:08:24Z</time>
      </trkpt>
      <trkpt lat="42.88138" lon="-0.19066">
        <ele>2066.4</ele>
        <time>2026-07-15T12:08:25Z</time>
      </trkpt>
      <trkpt lat="42.88138" lon="-0.19066">
        <ele>2066.4</ele>
        <time>2026-07-15T12:08:25Z</time>
      </trkpt>
      <trkpt lat="42.88138" lon="-0.19066">
        <ele>2066.4</ele>
        <time>2026-07-15T12:08:26Z</time>
      </trkpt>
      <trkpt lat="42.88138" lon="-0.19067">
        <ele>2066.4</ele>
        <time>2026-07-15T12:08:27Z</time>
      </trkpt>
      <trkpt lat="42.88138" lon="-0.19067">
        <ele>2065.4</ele>
        <time>2026-07-15T12:08:27Z</time>
      </trkpt>
      <trkpt lat="42.88138" lon="-0.19068">
        <ele>2065.4</ele>
        <time>2026-07-15T12:08:28Z</time>
      </trkpt>
      <trkpt lat="42.88138" lon="-0.19069">
        <ele>2065.4</ele>
        <time>2026-07-15T12:08:29Z</time>
      </trkpt>
      <trkpt lat="42.88138" lon="-0.19069">
        <ele>2064.4</ele>
        <time>2026-07-15T12:08:30Z</time>
      </trkpt>
      <trkpt lat="42.88137" lon="-0.19069">
        <ele>2064.4</ele>
        <time>2026-07-15T12:08:30Z</time>
      </trkpt>
      <trkpt lat="42.88137" lon="-0.1907">
        <ele>2064.4</ele>
        <time>2026-07-15T12:08:31Z</time>
      </trkpt>
      <trkpt lat="42.88137" lon="-0.1907">
        <ele>2063.4</ele>
        <time>2026-07-15T12:08:31Z</time>
      </trkpt>
      <trkpt lat="42.88137" lon="-0.19071">
        <ele>2063.4</ele>
        <time>2026-07-15T12:08:32Z</time>
      </trkpt>
      <trkpt lat="42.88138" lon="-0.19072">
        <ele>2063.4</ele>
        <time>2026-07-15T12:08:33Z</time>
      </trkpt>
      <trkpt lat="42.88139" lon="-0.19072">
        <ele>2064.4</ele>
        <time>2026-07-15T12:08:34Z</time>
      </trkpt>
      <trkpt lat="42.88139" lon="-0.19073">
        <ele>2064.4</ele>
        <time>2026-07-15T12:08:35Z</time>
      </trkpt>
      <trkpt lat="42.88139" lon="-0.19073">
        <ele>2064.4</ele>
        <time>2026-07-15T12:08:36Z</time>
      </trkpt>
      <trkpt lat="42.88138" lon="-0.19072">
        <ele>2064.4</ele>
        <time>2026-07-15T12:08:36Z</time>
      </trkpt>
      <trkpt lat="42.88138" lon="-0.19072">
        <ele>2064.4</ele>
        <time>2026-07-15T12:08:37Z</time>
      </trkpt>
      <trkpt lat="42.88138" lon="-0.19071">
        <ele>2064.4</ele>
        <time>2026-07-15T12:08:37Z</time>
      </trkpt>
      <trkpt lat="42.88138" lon="-0.19071">
        <ele>2064.4</ele>
        <time>2026-07-15T12:08:38Z</time>
      </trkpt>
      <trkpt lat="42.88138" lon="-0.1907">
        <ele>2064.4</ele>
        <time>2026-07-15T12:08:38Z</time>
      </trkpt>
      <trkpt lat="42.88138" lon="-0.1907">
        <ele>2064.4</ele>
        <time>2026-07-15T12:08:39Z</time>
      </trkpt>
      <trkpt lat="42.88138" lon="-0.19072">
        <ele>2063.4</ele>
        <time>2026-07-15T12:08:39Z</time>
      </trkpt>
      <trkpt lat="42.88139" lon="-0.19072">
        <ele>2063.4</ele>
        <time>2026-07-15T12:08:40Z</time>
      </trkpt>
      <trkpt lat="42.88139" lon="-0.19073">
        <ele>2063.4</ele>
        <time>2026-07-15T12:08:41Z</time>
      </trkpt>
      <trkpt lat="42.88139" lon="-0.19073">
        <ele>2063.4</ele>
        <time>2026-07-15T12:08:41Z</time>
      </trkpt>
      <trkpt lat="42.88139" lon="-0.19074">
        <ele>2063.4</ele>
        <time>2026-07-15T12:08:42Z</time>
      </trkpt>
      <trkpt lat="42.8814" lon="-0.19075">
        <ele>2063.4</ele>
        <time>2026-07-15T12:08:43Z</time>
      </trkpt>
      <trkpt lat="42.88141" lon="-0.19075">
        <ele>2063.4</ele>
        <time>2026-07-15T12:08:43Z</time>
      </trkpt>
      <trkpt lat="42.88141" lon="-0.19075">
        <ele>2063.4</ele>
        <time>2026-07-15T12:08:44Z</time>
      </trkpt>
      <trkpt lat="42.88142" lon="-0.19075">
        <ele>2064.4</ele>
        <time>2026-07-15T12:08:45Z</time>
      </trkpt>
      <trkpt lat="42.88142" lon="-0.19075">
        <ele>2064.4</ele>
        <time>2026-07-15T12:08:45Z</time>
      </trkpt>
      <trkpt lat="42.88143" lon="-0.19075">
        <ele>2064.4</ele>
        <time>2026-07-15T12:08:46Z</time>
      </trkpt>
      <trkpt lat="42.88143" lon="-0.19076">
        <ele>2064.4</ele>
        <time>2026-07-15T12:08:46Z</time>
      </trkpt>
      <trkpt lat="42.88143" lon="-0.19076">
        <ele>2064.4</ele>
        <time>2026-07-15T12:08:47Z</time>
      </trkpt>
      <trkpt lat="42.88144" lon="-0.19076">
        <ele>2064.4</ele>
        <time>2026-07-15T12:08:48Z</time>
      </trkpt>
      <trkpt lat="42.88144" lon="-0.19076">
        <ele>2063.4</ele>
        <time>2026-07-15T12:08:48Z</time>
      </trkpt>
      <trkpt lat="42.88145" lon="-0.19075">
        <ele>2062.4</ele>
        <time>2026-07-15T12:08:49Z</time>
      </trkpt>
      <trkpt lat="42.88145" lon="-0.19075">
        <ele>2062.4</ele>
        <time>2026-07-15T12:08:50Z</time>
      </trkpt>
      <trkpt lat="42.88145" lon="-0.19074">
        <ele>2061.4</ele>
        <time>2026-07-15T12:08:50Z</time>
      </trkpt>
      <trkpt lat="42.88146" lon="-0.19074">
        <ele>2061.4</ele>
        <time>2026-07-15T12:08:51Z</time>
      </trkpt>
      <trkpt lat="42.88147" lon="-0.19074">
        <ele>2061.4</ele>
        <time>2026-07-15T12:08:52Z</time>
      </trkpt>
      <trkpt lat="42.88147" lon="-0.19074">
        <ele>2060.4</ele>
        <time>2026-07-15T12:08:53Z</time>
      </trkpt>
      <trkpt lat="42.88148" lon="-0.19075">
        <ele>2060.4</ele>
        <time>2026-07-15T12:08:53Z</time>
      </trkpt>
      <trkpt lat="42.88148" lon="-0.19075">
        <ele>2060.4</ele>
        <time>2026-07-15T12:08:54Z</time>
      </trkpt>
      <trkpt lat="42.88149" lon="-0.19076">
        <ele>2060.4</ele>
        <time>2026-07-15T12:08:55Z</time>
      </trkpt>
      <trkpt lat="42.88149" lon="-0.19076">
        <ele>2059.4</ele>
        <time>2026-07-15T12:08:55Z</time>
      </trkpt>
      <trkpt lat="42.88148" lon="-0.19077">
        <ele>2059.4</ele>
        <time>2026-07-15T12:08:56Z</time>
      </trkpt>
      <trkpt lat="42.88148" lon="-0.19079">
        <ele>2059.4</ele>
        <time>2026-07-15T12:08:57Z</time>
      </trkpt>
      <trkpt lat="42.88147" lon="-0.19079">
        <ele>2058.4</ele>
        <time>2026-07-15T12:08:58Z</time>
      </trkpt>
      <trkpt lat="42.88146" lon="-0.1908">
        <ele>2058.4</ele>
        <time>2026-07-15T12:08:58Z</time>
      </trkpt>
      <trkpt lat="42.88146" lon="-0.1908">
        <ele>2058.4</ele>
        <time>2026-07-15T12:08:59Z</time>
      </trkpt>
      <trkpt lat="42.88145" lon="-0.19081">
        <ele>2058.4</ele>
        <time>2026-07-15T12:08:59Z</time>
      </trkpt>
      <trkpt lat="42.88145" lon="-0.19081">
        <ele>2058.4</ele>
        <time>2026-07-15T12:09:00Z</time>
      </trkpt>
      <trkpt lat="42.88144" lon="-0.19082">
        <ele>2057.4</ele>
        <time>2026-07-15T12:09:00Z</time>
      </trkpt>
      <trkpt lat="42.88144" lon="-0.19083">
        <ele>2057.4</ele>
        <time>2026-07-15T12:09:01Z</time>
      </trkpt>
      <trkpt lat="42.88144" lon="-0.19083">
        <ele>2057.4</ele>
        <time>2026-07-15T12:09:01Z</time>
      </trkpt>
      <trkpt lat="42.88143" lon="-0.19084">
        <ele>2057.4</ele>
        <time>2026-07-15T12:09:02Z</time>
      </trkpt>
      <trkpt lat="42.88143" lon="-0.19085">
        <ele>2056.4</ele>
        <time>2026-07-15T12:09:02Z</time>
      </trkpt>
      <trkpt lat="42.88142" lon="-0.19086">
        <ele>2056.4</ele>
        <time>2026-07-15T12:09:03Z</time>
      </trkpt>
      <trkpt lat="42.88142" lon="-0.19086">
        <ele>2056.4</ele>
        <time>2026-07-15T12:09:04Z</time>
      </trkpt>
      <trkpt lat="42.88142" lon="-0.19088">
        <ele>2056.4</ele>
        <time>2026-07-15T12:09:04Z</time>
      </trkpt>
      <trkpt lat="42.88142" lon="-0.19088">
        <ele>2056.4</ele>
        <time>2026-07-15T12:09:05Z</time>
      </trkpt>
      <trkpt lat="42.88142" lon="-0.19089">
        <ele>2056.4</ele>
        <time>2026-07-15T12:09:05Z</time>
      </trkpt>
      <trkpt lat="42.88142" lon="-0.19089">
        <ele>2056.4</ele>
        <time>2026-07-15T12:09:06Z</time>
      </trkpt>
      <trkpt lat="42.88142" lon="-0.1909">
        <ele>2055.4</ele>
        <time>2026-07-15T12:09:06Z</time>
      </trkpt>
      <trkpt lat="42.88142" lon="-0.1909">
        <ele>2055.4</ele>
        <time>2026-07-15T12:09:07Z</time>
      </trkpt>
      <trkpt lat="42.88143" lon="-0.19091">
        <ele>2055.4</ele>
        <time>2026-07-15T12:09:08Z</time>
      </trkpt>
      <trkpt lat="42.88143" lon="-0.19091">
        <ele>2054.4</ele>
        <time>2026-07-15T12:09:08Z</time>
      </trkpt>
      <trkpt lat="42.88143" lon="-0.19091">
        <ele>2054.4</ele>
        <time>2026-07-15T12:09:09Z</time>
      </trkpt>
      <trkpt lat="42.88143" lon="-0.19092">
        <ele>2054.4</ele>
        <time>2026-07-15T12:09:10Z</time>
      </trkpt>
      <trkpt lat="42.88143" lon="-0.19091">
        <ele>2054.4</ele>
        <time>2026-07-15T12:09:10Z</time>
      </trkpt>
      <trkpt lat="42.88143" lon="-0.19092">
        <ele>2054.4</ele>
        <time>2026-07-15T12:09:11Z</time>
      </trkpt>
      <trkpt lat="42.88143" lon="-0.19092">
        <ele>2054.4</ele>
        <time>2026-07-15T12:09:12Z</time>
      </trkpt>
      <trkpt lat="42.88143" lon="-0.19092">
        <ele>2053.4</ele>
        <time>2026-07-15T12:09:12Z</time>
      </trkpt>
      <trkpt lat="42.88144" lon="-0.19093">
        <ele>2053.4</ele>
        <time>2026-07-15T12:09:13Z</time>
      </trkpt>
      <trkpt lat="42.88144" lon="-0.19095">
        <ele>2053.4</ele>
        <time>2026-07-15T12:09:14Z</time>
      </trkpt>
      <trkpt lat="42.88144" lon="-0.19096">
        <ele>2053.4</ele>
        <time>2026-07-15T12:09:15Z</time>
      </trkpt>
      <trkpt lat="42.88144" lon="-0.19096">
        <ele>2053.4</ele>
        <time>2026-07-15T12:09:15Z</time>
      </trkpt>
      <trkpt lat="42.88145" lon="-0.19097">
        <ele>2053.4</ele>
        <time>2026-07-15T12:09:16Z</time>
      </trkpt>
      <trkpt lat="42.88145" lon="-0.19099">
        <ele>2053.4</ele>
        <time>2026-07-15T12:09:17Z</time>
      </trkpt>
      <trkpt lat="42.88146" lon="-0.191">
        <ele>2053.4</ele>
        <time>2026-07-15T12:09:18Z</time>
      </trkpt>
      <trkpt lat="42.88146" lon="-0.19101">
        <ele>2053.4</ele>
        <time>2026-07-15T12:09:19Z</time>
      </trkpt>
      <trkpt lat="42.88146" lon="-0.19101">
        <ele>2053.4</ele>
        <time>2026-07-15T12:09:19Z</time>
      </trkpt>
      <trkpt lat="42.88147" lon="-0.19102">
        <ele>2053.4</ele>
        <time>2026-07-15T12:09:20Z</time>
      </trkpt>
      <trkpt lat="42.88147" lon="-0.19102">
        <ele>2053.4</ele>
        <time>2026-07-15T12:09:20Z</time>
      </trkpt>
      <trkpt lat="42.88148" lon="-0.19102">
        <ele>2052.4</ele>
        <time>2026-07-15T12:09:21Z</time>
      </trkpt>
      <trkpt lat="42.88148" lon="-0.19102">
        <ele>2052.4</ele>
        <time>2026-07-15T12:09:21Z</time>
      </trkpt>
      <trkpt lat="42.88149" lon="-0.19102">
        <ele>2052.4</ele>
        <time>2026-07-15T12:09:22Z</time>
      </trkpt>
      <trkpt lat="42.88149" lon="-0.19101">
        <ele>2051.4</ele>
        <time>2026-07-15T12:09:23Z</time>
      </trkpt>
      <trkpt lat="42.88149" lon="-0.19101">
        <ele>2051.4</ele>
        <time>2026-07-15T12:09:23Z</time>
      </trkpt>
      <trkpt lat="42.8815" lon="-0.191">
        <ele>2051.4</ele>
        <time>2026-07-15T12:09:24Z</time>
      </trkpt>
      <trkpt lat="42.8815" lon="-0.19099">
        <ele>2050.4</ele>
        <time>2026-07-15T12:09:25Z</time>
      </trkpt>
      <trkpt lat="42.88151" lon="-0.19098">
        <ele>2050.4</ele>
        <time>2026-07-15T12:09:25Z</time>
      </trkpt>
      <trkpt lat="42.88151" lon="-0.19097">
        <ele>2050.4</ele>
        <time>2026-07-15T12:09:26Z</time>
      </trkpt>
      <trkpt lat="42.88151" lon="-0.19097">
        <ele>2050.4</ele>
        <time>2026-07-15T12:09:27Z</time>
      </trkpt>
      <trkpt lat="42.88151" lon="-0.19096">
        <ele>2050.4</ele>
        <time>2026-07-15T12:09:28Z</time>
      </trkpt>
      <trkpt lat="42.88152" lon="-0.19095">
        <ele>2050.4</ele>
        <time>2026-07-15T12:09:29Z</time>
      </trkpt>
      <trkpt lat="42.88152" lon="-0.19095">
        <ele>2048.4</ele>
        <time>2026-07-15T12:09:29Z</time>
      </trkpt>
      <trkpt lat="42.88152" lon="-0.19095">
        <ele>2048.4</ele>
        <time>2026-07-15T12:09:30Z</time>
      </trkpt>
      <trkpt lat="42.88153" lon="-0.19094">
        <ele>2048.4</ele>
        <time>2026-07-15T12:09:31Z</time>
      </trkpt>
      <trkpt lat="42.88153" lon="-0.19094">
        <ele>2048.4</ele>
        <time>2026-07-15T12:09:31Z</time>
      </trkpt>
      <trkpt lat="42.88154" lon="-0.19094">
        <ele>2048.4</ele>
        <time>2026-07-15T12:09:32Z</time>
      </trkpt>
      <trkpt lat="42.88154" lon="-0.19093">
        <ele>2048.4</ele>
        <time>2026-07-15T12:09:32Z</time>
      </trkpt>
      <trkpt lat="42.88154" lon="-0.19093">
        <ele>2047.4</ele>
        <time>2026-07-15T12:09:33Z</time>
      </trkpt>
      <trkpt lat="42.88155" lon="-0.19093">
        <ele>2047.4</ele>
        <time>2026-07-15T12:09:34Z</time>
      </trkpt>
      <trkpt lat="42.88155" lon="-0.19093">
        <ele>2047.4</ele>
        <time>2026-07-15T12:09:34Z</time>
      </trkpt>
      <trkpt lat="42.88156" lon="-0.19093">
        <ele>2047.4</ele>
        <time>2026-07-15T12:09:35Z</time>
      </trkpt>
      <trkpt lat="42.88156" lon="-0.19093">
        <ele>2046.4</ele>
        <time>2026-07-15T12:09:36Z</time>
      </trkpt>
      <trkpt lat="42.88156" lon="-0.19093">
        <ele>2047.4</ele>
        <time>2026-07-15T12:09:36Z</time>
      </trkpt>
      <trkpt lat="42.88157" lon="-0.19094">
        <ele>2047.4</ele>
        <time>2026-07-15T12:09:37Z</time>
      </trkpt>
      <trkpt lat="42.88157" lon="-0.19094">
        <ele>2047.4</ele>
        <time>2026-07-15T12:09:38Z</time>
      </trkpt>
      <trkpt lat="42.88158" lon="-0.19095">
        <ele>2047.4</ele>
        <time>2026-07-15T12:09:38Z</time>
      </trkpt>
      <trkpt lat="42.88158" lon="-0.19095">
        <ele>2047.4</ele>
        <time>2026-07-15T12:09:39Z</time>
      </trkpt>
      <trkpt lat="42.88158" lon="-0.19095">
        <ele>2047.4</ele>
        <time>2026-07-15T12:09:39Z</time>
      </trkpt>
      <trkpt lat="42.88158" lon="-0.19096">
        <ele>2047.4</ele>
        <time>2026-07-15T12:09:40Z</time>
      </trkpt>
      <trkpt lat="42.88159" lon="-0.19096">
        <ele>2047.4</ele>
        <time>2026-07-15T12:09:40Z</time>
      </trkpt>
      <trkpt lat="42.88159" lon="-0.19097">
        <ele>2047.4</ele>
        <time>2026-07-15T12:09:41Z</time>
      </trkpt>
      <trkpt lat="42.88159" lon="-0.19097">
        <ele>2047.4</ele>
        <time>2026-07-15T12:09:42Z</time>
      </trkpt>
      <trkpt lat="42.8816" lon="-0.19097">
        <ele>2046.4</ele>
        <time>2026-07-15T12:09:43Z</time>
      </trkpt>
      <trkpt lat="42.8816" lon="-0.19097">
        <ele>2046.4</ele>
        <time>2026-07-15T12:09:43Z</time>
      </trkpt>
      <trkpt lat="42.8816" lon="-0.19096">
        <ele>2046.4</ele>
        <time>2026-07-15T12:09:44Z</time>
      </trkpt>
      <trkpt lat="42.88161" lon="-0.19096">
        <ele>2046.4</ele>
        <time>2026-07-15T12:09:45Z</time>
      </trkpt>
      <trkpt lat="42.88161" lon="-0.19096">
        <ele>2046.4</ele>
        <time>2026-07-15T12:09:45Z</time>
      </trkpt>
      <trkpt lat="42.88161" lon="-0.19096">
        <ele>2046.4</ele>
        <time>2026-07-15T12:09:46Z</time>
      </trkpt>
      <trkpt lat="42.8816" lon="-0.19096">
        <ele>2046.4</ele>
        <time>2026-07-15T12:09:47Z</time>
      </trkpt>
      <trkpt lat="42.8816" lon="-0.19096">
        <ele>2047.4</ele>
        <time>2026-07-15T12:09:47Z</time>
      </trkpt>
      <trkpt lat="42.88161" lon="-0.19095">
        <ele>2047.4</ele>
        <time>2026-07-15T12:09:48Z</time>
      </trkpt>
      <trkpt lat="42.88161" lon="-0.19095">
        <ele>2046.4</ele>
        <time>2026-07-15T12:09:49Z</time>
      </trkpt>
      <trkpt lat="42.88161" lon="-0.19094">
        <ele>2046.4</ele>
        <time>2026-07-15T12:09:49Z</time>
      </trkpt>
      <trkpt lat="42.88161" lon="-0.19094">
        <ele>2046.4</ele>
        <time>2026-07-15T12:09:50Z</time>
      </trkpt>
      <trkpt lat="42.88162" lon="-0.19094">
        <ele>2046.4</ele>
        <time>2026-07-15T12:09:51Z</time>
      </trkpt>
      <trkpt lat="42.88162" lon="-0.19093">
        <ele>2046.4</ele>
        <time>2026-07-15T12:09:51Z</time>
      </trkpt>
      <trkpt lat="42.88162" lon="-0.19093">
        <ele>2046.4</ele>
        <time>2026-07-15T12:09:52Z</time>
      </trkpt>
      <trkpt lat="42.88163" lon="-0.19094">
        <ele>2046.4</ele>
        <time>2026-07-15T12:09:52Z</time>
      </trkpt>
      <trkpt lat="42.88163" lon="-0.19094">
        <ele>2046.4</ele>
        <time>2026-07-15T12:09:53Z</time>
      </trkpt>
      <trkpt lat="42.88163" lon="-0.19094">
        <ele>2046.4</ele>
        <time>2026-07-15T12:09:53Z</time>
      </trkpt>
      <trkpt lat="42.88163" lon="-0.19094">
        <ele>2046.4</ele>
        <time>2026-07-15T12:09:54Z</time>
      </trkpt>
      <trkpt lat="42.88163" lon="-0.19095">
        <ele>2045.4</ele>
        <time>2026-07-15T12:09:54Z</time>
      </trkpt>
      <trkpt lat="42.88164" lon="-0.19095">
        <ele>2045.4</ele>
        <time>2026-07-15T12:09:55Z</time>
      </trkpt>
      <trkpt lat="42.88166" lon="-0.19095">
        <ele>2045.4</ele>
        <time>2026-07-15T12:09:56Z</time>
      </trkpt>
      <trkpt lat="42.88166" lon="-0.19095">
        <ele>2044.4</ele>
        <time>2026-07-15T12:09:57Z</time>
      </trkpt>
      <trkpt lat="42.88166" lon="-0.19095">
        <ele>2045.4</ele>
        <time>2026-07-15T12:09:57Z</time>
      </trkpt>
      <trkpt lat="42.88167" lon="-0.19096">
        <ele>2045.4</ele>
        <time>2026-07-15T12:09:58Z</time>
      </trkpt>
      <trkpt lat="42.88167" lon="-0.19096">
        <ele>2045.4</ele>
        <time>2026-07-15T12:09:59Z</time>
      </trkpt>
      <trkpt lat="42.88167" lon="-0.19096">
        <ele>2045.4</ele>
        <time>2026-07-15T12:09:59Z</time>
      </trkpt>
      <trkpt lat="42.88168" lon="-0.19096">
        <ele>2045.4</ele>
        <time>2026-07-15T12:10:00Z</time>
      </trkpt>
      <trkpt lat="42.88168" lon="-0.19096">
        <ele>2044.4</ele>
        <time>2026-07-15T12:10:01Z</time>
      </trkpt>
      <trkpt lat="42.88168" lon="-0.19096">
        <ele>2044.4</ele>
        <time>2026-07-15T12:10:01Z</time>
      </trkpt>
      <trkpt lat="42.88169" lon="-0.19096">
        <ele>2044.4</ele>
        <time>2026-07-15T12:10:02Z</time>
      </trkpt>
      <trkpt lat="42.88169" lon="-0.19096">
        <ele>2044.4</ele>
        <time>2026-07-15T12:10:03Z</time>
      </trkpt>
      <trkpt lat="42.88169" lon="-0.19096">
        <ele>2044.4</ele>
        <time>2026-07-15T12:10:04Z</time>
      </trkpt>
      <trkpt lat="42.88169" lon="-0.19095">
        <ele>2043.4</ele>
        <time>2026-07-15T12:10:05Z</time>
      </trkpt>
      <trkpt lat="42.8817" lon="-0.19094">
        <ele>2044.4</ele>
        <time>2026-07-15T12:10:06Z</time>
      </trkpt>
      <trkpt lat="42.8817" lon="-0.19094">
        <ele>2043.4</ele>
        <time>2026-07-15T12:10:06Z</time>
      </trkpt>
      <trkpt lat="42.88171" lon="-0.19094">
        <ele>2042.4</ele>
        <time>2026-07-15T12:10:07Z</time>
      </trkpt>
      <trkpt lat="42.88171" lon="-0.19093">
        <ele>2042.4</ele>
        <time>2026-07-15T12:10:08Z</time>
      </trkpt>
      <trkpt lat="42.88172" lon="-0.19093">
        <ele>2043.4</ele>
        <time>2026-07-15T12:10:08Z</time>
      </trkpt>
      <trkpt lat="42.88172" lon="-0.19092">
        <ele>2043.4</ele>
        <time>2026-07-15T12:10:09Z</time>
      </trkpt>
      <trkpt lat="42.88172" lon="-0.19093">
        <ele>2042.4</ele>
        <time>2026-07-15T12:10:09Z</time>
      </trkpt>
      <trkpt lat="42.88172" lon="-0.19093">
        <ele>2042.4</ele>
        <time>2026-07-15T12:10:10Z</time>
      </trkpt>
      <trkpt lat="42.88172" lon="-0.19094">
        <ele>2042.4</ele>
        <time>2026-07-15T12:10:11Z</time>
      </trkpt>
      <trkpt lat="42.88171" lon="-0.19094">
        <ele>2042.4</ele>
        <time>2026-07-15T12:10:12Z</time>
      </trkpt>
      <trkpt lat="42.88171" lon="-0.19095">
        <ele>2042.4</ele>
        <time>2026-07-15T12:10:13Z</time>
      </trkpt>
      <trkpt lat="42.88171" lon="-0.19095">
        <ele>2042.4</ele>
        <time>2026-07-15T12:10:14Z</time>
      </trkpt>
      <trkpt lat="42.88171" lon="-0.19096">
        <ele>2042.4</ele>
        <time>2026-07-15T12:10:15Z</time>
      </trkpt>
      <trkpt lat="42.88171" lon="-0.19096">
        <ele>2042.4</ele>
        <time>2026-07-15T12:10:15Z</time>
      </trkpt>
      <trkpt lat="42.88171" lon="-0.19097">
        <ele>2042.4</ele>
        <time>2026-07-15T12:10:16Z</time>
      </trkpt>
      <trkpt lat="42.88171" lon="-0.19098">
        <ele>2042.4</ele>
        <time>2026-07-15T12:10:16Z</time>
      </trkpt>
      <trkpt lat="42.8817" lon="-0.19099">
        <ele>2042.4</ele>
        <time>2026-07-15T12:10:17Z</time>
      </trkpt>
      <trkpt lat="42.8817" lon="-0.191">
        <ele>2042.4</ele>
        <time>2026-07-15T12:10:18Z</time>
      </trkpt>
      <trkpt lat="42.8817" lon="-0.19101">
        <ele>2042.4</ele>
        <time>2026-07-15T12:10:18Z</time>
      </trkpt>
      <trkpt lat="42.8817" lon="-0.19102">
        <ele>2042.4</ele>
        <time>2026-07-15T12:10:19Z</time>
      </trkpt>
      <trkpt lat="42.88171" lon="-0.19103">
        <ele>2042.4</ele>
        <time>2026-07-15T12:10:20Z</time>
      </trkpt>
      <trkpt lat="42.88171" lon="-0.19103">
        <ele>2042.4</ele>
        <time>2026-07-15T12:10:21Z</time>
      </trkpt>
      <trkpt lat="42.88171" lon="-0.19103">
        <ele>2042.4</ele>
        <time>2026-07-15T12:10:21Z</time>
      </trkpt>
      <trkpt lat="42.88172" lon="-0.19103">
        <ele>2042.4</ele>
        <time>2026-07-15T12:10:22Z</time>
      </trkpt>
      <trkpt lat="42.88173" lon="-0.19103">
        <ele>2042.4</ele>
        <time>2026-07-15T12:10:23Z</time>
      </trkpt>
      <trkpt lat="42.88173" lon="-0.19102">
        <ele>2042.4</ele>
        <time>2026-07-15T12:10:23Z</time>
      </trkpt>
      <trkpt lat="42.88173" lon="-0.19102">
        <ele>2042.4</ele>
        <time>2026-07-15T12:10:24Z</time>
      </trkpt>
      <trkpt lat="42.88173" lon="-0.19101">
        <ele>2041.4</ele>
        <time>2026-07-15T12:10:24Z</time>
      </trkpt>
      <trkpt lat="42.88174" lon="-0.191">
        <ele>2041.4</ele>
        <time>2026-07-15T12:10:25Z</time>
      </trkpt>
      <trkpt lat="42.88174" lon="-0.191">
        <ele>2041.4</ele>
        <time>2026-07-15T12:10:25Z</time>
      </trkpt>
      <trkpt lat="42.88174" lon="-0.19099">
        <ele>2041.4</ele>
        <time>2026-07-15T12:10:26Z</time>
      </trkpt>
      <trkpt lat="42.88174" lon="-0.19099">
        <ele>2041.4</ele>
        <time>2026-07-15T12:10:27Z</time>
      </trkpt>
      <trkpt lat="42.88175" lon="-0.19098">
        <ele>2041.4</ele>
        <time>2026-07-15T12:10:28Z</time>
      </trkpt>
      <trkpt lat="42.88176" lon="-0.19098">
        <ele>2041.4</ele>
        <time>2026-07-15T12:10:29Z</time>
      </trkpt>
      <trkpt lat="42.88176" lon="-0.19097">
        <ele>2040.4</ele>
        <time>2026-07-15T12:10:30Z</time>
      </trkpt>
      <trkpt lat="42.88176" lon="-0.19097">
        <ele>2040.4</ele>
        <time>2026-07-15T12:10:30Z</time>
      </trkpt>
      <trkpt lat="42.88177" lon="-0.19097">
        <ele>2040.4</ele>
        <time>2026-07-15T12:10:31Z</time>
      </trkpt>
      <trkpt lat="42.88178" lon="-0.19097">
        <ele>2040.4</ele>
        <time>2026-07-15T12:10:32Z</time>
      </trkpt>
      <trkpt lat="42.88178" lon="-0.19097">
        <ele>2039.4</ele>
        <time>2026-07-15T12:10:33Z</time>
      </trkpt>
      <trkpt lat="42.88178" lon="-0.19097">
        <ele>2039.4</ele>
        <time>2026-07-15T12:10:33Z</time>
      </trkpt>
      <trkpt lat="42.88179" lon="-0.19097">
        <ele>2039.4</ele>
        <time>2026-07-15T12:10:34Z</time>
      </trkpt>
      <trkpt lat="42.88179" lon="-0.19097">
        <ele>2039.4</ele>
        <time>2026-07-15T12:10:34Z</time>
      </trkpt>
      <trkpt lat="42.88179" lon="-0.19097">
        <ele>2038.4</ele>
        <time>2026-07-15T12:10:35Z</time>
      </trkpt>
      <trkpt lat="42.8818" lon="-0.19097">
        <ele>2038.4</ele>
        <time>2026-07-15T12:10:36Z</time>
      </trkpt>
      <trkpt lat="42.8818" lon="-0.19097">
        <ele>2037.4</ele>
        <time>2026-07-15T12:10:36Z</time>
      </trkpt>
      <trkpt lat="42.88181" lon="-0.19097">
        <ele>2037.4</ele>
        <time>2026-07-15T12:10:37Z</time>
      </trkpt>
      <trkpt lat="42.88181" lon="-0.19097">
        <ele>2037.4</ele>
        <time>2026-07-15T12:10:37Z</time>
      </trkpt>
      <trkpt lat="42.88181" lon="-0.19097">
        <ele>2037.4</ele>
        <time>2026-07-15T12:10:38Z</time>
      </trkpt>
      <trkpt lat="42.88182" lon="-0.19097">
        <ele>2037.4</ele>
        <time>2026-07-15T12:10:38Z</time>
      </trkpt>
      <trkpt lat="42.88182" lon="-0.19097">
        <ele>2036.4</ele>
        <time>2026-07-15T12:10:39Z</time>
      </trkpt>
      <trkpt lat="42.88182" lon="-0.19097">
        <ele>2036.4</ele>
        <time>2026-07-15T12:10:40Z</time>
      </trkpt>
      <trkpt lat="42.88182" lon="-0.19097">
        <ele>2036.4</ele>
        <time>2026-07-15T12:10:41Z</time>
      </trkpt>
      <trkpt lat="42.88183" lon="-0.19097">
        <ele>2036.4</ele>
        <time>2026-07-15T12:10:42Z</time>
      </trkpt>
      <trkpt lat="42.88184" lon="-0.19097">
        <ele>2036.4</ele>
        <time>2026-07-15T12:10:43Z</time>
      </trkpt>
      <trkpt lat="42.88184" lon="-0.19098">
        <ele>2035.4</ele>
        <time>2026-07-15T12:10:44Z</time>
      </trkpt>
      <trkpt lat="42.88185" lon="-0.19099">
        <ele>2035.4</ele>
        <time>2026-07-15T12:10:45Z</time>
      </trkpt>
      <trkpt lat="42.88184" lon="-0.191">
        <ele>2035.4</ele>
        <time>2026-07-15T12:10:46Z</time>
      </trkpt>
      <trkpt lat="42.88184" lon="-0.19101">
        <ele>2035.4</ele>
        <time>2026-07-15T12:10:47Z</time>
      </trkpt>
      <trkpt lat="42.88184" lon="-0.19102">
        <ele>2035.4</ele>
        <time>2026-07-15T12:10:48Z</time>
      </trkpt>
      <trkpt lat="42.88185" lon="-0.19102">
        <ele>2034.4</ele>
        <time>2026-07-15T12:10:49Z</time>
      </trkpt>
      <trkpt lat="42.88185" lon="-0.19102">
        <ele>2034.4</ele>
        <time>2026-07-15T12:10:49Z</time>
      </trkpt>
      <trkpt lat="42.88186" lon="-0.19102">
        <ele>2034.4</ele>
        <time>2026-07-15T12:10:50Z</time>
      </trkpt>
      <trkpt lat="42.88186" lon="-0.19101">
        <ele>2033.4</ele>
        <time>2026-07-15T12:10:50Z</time>
      </trkpt>
      <trkpt lat="42.88187" lon="-0.19101">
        <ele>2033.4</ele>
        <time>2026-07-15T12:10:51Z</time>
      </trkpt>
      <trkpt lat="42.88187" lon="-0.19101">
        <ele>2033.4</ele>
        <time>2026-07-15T12:10:52Z</time>
      </trkpt>
      <trkpt lat="42.88187" lon="-0.19101">
        <ele>2033.4</ele>
        <time>2026-07-15T12:10:52Z</time>
      </trkpt>
      <trkpt lat="42.88187" lon="-0.19102">
        <ele>2033.4</ele>
        <time>2026-07-15T12:10:53Z</time>
      </trkpt>
      <trkpt lat="42.88187" lon="-0.19103">
        <ele>2033.4</ele>
        <time>2026-07-15T12:10:54Z</time>
      </trkpt>
      <trkpt lat="42.88187" lon="-0.19103">
        <ele>2033.4</ele>
        <time>2026-07-15T12:10:55Z</time>
      </trkpt>
      <trkpt lat="42.88187" lon="-0.19103">
        <ele>2033.4</ele>
        <time>2026-07-15T12:10:55Z</time>
      </trkpt>
      <trkpt lat="42.88187" lon="-0.19104">
        <ele>2033.4</ele>
        <time>2026-07-15T12:10:56Z</time>
      </trkpt>
      <trkpt lat="42.88187" lon="-0.19104">
        <ele>2032.4</ele>
        <time>2026-07-15T12:10:56Z</time>
      </trkpt>
      <trkpt lat="42.88186" lon="-0.19105">
        <ele>2033.4</ele>
        <time>2026-07-15T12:10:57Z</time>
      </trkpt>
      <trkpt lat="42.88186" lon="-0.19106">
        <ele>2033.4</ele>
        <time>2026-07-15T12:10:58Z</time>
      </trkpt>
      <trkpt lat="42.88186" lon="-0.19107">
        <ele>2032.4</ele>
        <time>2026-07-15T12:10:59Z</time>
      </trkpt>
      <trkpt lat="42.88186" lon="-0.19108">
        <ele>2032.4</ele>
        <time>2026-07-15T12:11:00Z</time>
      </trkpt>
      <trkpt lat="42.88186" lon="-0.19109">
        <ele>2032.4</ele>
        <time>2026-07-15T12:11:01Z</time>
      </trkpt>
      <trkpt lat="42.88186" lon="-0.19109">
        <ele>2032.4</ele>
        <time>2026-07-15T12:11:01Z</time>
      </trkpt>
      <trkpt lat="42.88185" lon="-0.1911">
        <ele>2032.4</ele>
        <time>2026-07-15T12:11:02Z</time>
      </trkpt>
      <trkpt lat="42.88185" lon="-0.19111">
        <ele>2032.4</ele>
        <time>2026-07-15T12:11:03Z</time>
      </trkpt>
      <trkpt lat="42.88185" lon="-0.19111">
        <ele>2032.4</ele>
        <time>2026-07-15T12:11:04Z</time>
      </trkpt>
      <trkpt lat="42.88185" lon="-0.19111">
        <ele>2032.4</ele>
        <time>2026-07-15T12:11:04Z</time>
      </trkpt>
      <trkpt lat="42.88185" lon="-0.19112">
        <ele>2032.4</ele>
        <time>2026-07-15T12:11:05Z</time>
      </trkpt>
      <trkpt lat="42.88185" lon="-0.19112">
        <ele>2031.4</ele>
        <time>2026-07-15T12:11:05Z</time>
      </trkpt>
      <trkpt lat="42.88186" lon="-0.19113">
        <ele>2031.4</ele>
        <time>2026-07-15T12:11:06Z</time>
      </trkpt>
      <trkpt lat="42.88186" lon="-0.19113">
        <ele>2031.4</ele>
        <time>2026-07-15T12:11:07Z</time>
      </trkpt>
      <trkpt lat="42.88187" lon="-0.19113">
        <ele>2031.4</ele>
        <time>2026-07-15T12:11:07Z</time>
      </trkpt>
      <trkpt lat="42.88187" lon="-0.19113">
        <ele>2030.4</ele>
        <time>2026-07-15T12:11:08Z</time>
      </trkpt>
      <trkpt lat="42.88188" lon="-0.19113">
        <ele>2030.4</ele>
        <time>2026-07-15T12:11:08Z</time>
      </trkpt>
      <trkpt lat="42.88189" lon="-0.19113">
        <ele>2030.4</ele>
        <time>2026-07-15T12:11:09Z</time>
      </trkpt>
      <trkpt lat="42.88189" lon="-0.19113">
        <ele>2030.4</ele>
        <time>2026-07-15T12:11:09Z</time>
      </trkpt>
      <trkpt lat="42.8819" lon="-0.19113">
        <ele>2028.4</ele>
        <time>2026-07-15T12:11:10Z</time>
      </trkpt>
      <trkpt lat="42.8819" lon="-0.19113">
        <ele>2028.4</ele>
        <time>2026-07-15T12:11:11Z</time>
      </trkpt>
      <trkpt lat="42.8819" lon="-0.19113">
        <ele>2028.4</ele>
        <time>2026-07-15T12:11:11Z</time>
      </trkpt>
      <trkpt lat="42.88191" lon="-0.19113">
        <ele>2028.4</ele>
        <time>2026-07-15T12:11:12Z</time>
      </trkpt>
      <trkpt lat="42.88191" lon="-0.19113">
        <ele>2027.4</ele>
        <time>2026-07-15T12:11:12Z</time>
      </trkpt>
      <trkpt lat="42.88192" lon="-0.19113">
        <ele>2027.4</ele>
        <time>2026-07-15T12:11:13Z</time>
      </trkpt>
      <trkpt lat="42.88192" lon="-0.19113">
        <ele>2027.4</ele>
        <time>2026-07-15T12:11:13Z</time>
      </trkpt>
      <trkpt lat="42.88193" lon="-0.19114">
        <ele>2027.4</ele>
        <time>2026-07-15T12:11:14Z</time>
      </trkpt>
      <trkpt lat="42.88193" lon="-0.19114">
        <ele>2027.4</ele>
        <time>2026-07-15T12:11:15Z</time>
      </trkpt>
      <trkpt lat="42.88193" lon="-0.19115">
        <ele>2027.4</ele>
        <time>2026-07-15T12:11:15Z</time>
      </trkpt>
      <trkpt lat="42.88194" lon="-0.19116">
        <ele>2027.4</ele>
        <time>2026-07-15T12:11:16Z</time>
      </trkpt>
      <trkpt lat="42.88194" lon="-0.19117">
        <ele>2027.4</ele>
        <time>2026-07-15T12:11:17Z</time>
      </trkpt>
      <trkpt lat="42.88195" lon="-0.19117">
        <ele>2028.4</ele>
        <time>2026-07-15T12:11:17Z</time>
      </trkpt>
      <trkpt lat="42.88195" lon="-0.19118">
        <ele>2028.4</ele>
        <time>2026-07-15T12:11:18Z</time>
      </trkpt>
      <trkpt lat="42.88195" lon="-0.19119">
        <ele>2027.4</ele>
        <time>2026-07-15T12:11:19Z</time>
      </trkpt>
      <trkpt lat="42.88196" lon="-0.1912">
        <ele>2026.4</ele>
        <time>2026-07-15T12:11:20Z</time>
      </trkpt>
      <trkpt lat="42.88196" lon="-0.19121">
        <ele>2026.4</ele>
        <time>2026-07-15T12:11:21Z</time>
      </trkpt>
      <trkpt lat="42.88196" lon="-0.19121">
        <ele>2026.4</ele>
        <time>2026-07-15T12:11:21Z</time>
      </trkpt>
      <trkpt lat="42.88196" lon="-0.19122">
        <ele>2026.4</ele>
        <time>2026-07-15T12:11:22Z</time>
      </trkpt>
      <trkpt lat="42.88197" lon="-0.19122">
        <ele>2025.4</ele>
        <time>2026-07-15T12:11:23Z</time>
      </trkpt>
      <trkpt lat="42.88197" lon="-0.19122">
        <ele>2025.4</ele>
        <time>2026-07-15T12:11:23Z</time>
      </trkpt>
      <trkpt lat="42.88198" lon="-0.19122">
        <ele>2025.4</ele>
        <time>2026-07-15T12:11:24Z</time>
      </trkpt>
      <trkpt lat="42.88198" lon="-0.19123">
        <ele>2024.4</ele>
        <time>2026-07-15T12:11:25Z</time>
      </trkpt>
      <trkpt lat="42.88199" lon="-0.19124">
        <ele>2024.4</ele>
        <time>2026-07-15T12:11:26Z</time>
      </trkpt>
      <trkpt lat="42.88199" lon="-0.19124">
        <ele>2024.4</ele>
        <time>2026-07-15T12:11:27Z</time>
      </trkpt>
      <trkpt lat="42.882" lon="-0.19125">
        <ele>2024.4</ele>
        <time>2026-07-15T12:11:27Z</time>
      </trkpt>
      <trkpt lat="42.882" lon="-0.19125">
        <ele>2024.4</ele>
        <time>2026-07-15T12:11:27Z</time>
      </trkpt>
      <trkpt lat="42.882" lon="-0.19125">
        <ele>2024.4</ele>
        <time>2026-07-15T12:11:28Z</time>
      </trkpt>
      <trkpt lat="42.88201" lon="-0.19126">
        <ele>2024.4</ele>
        <time>2026-07-15T12:11:29Z</time>
      </trkpt>
      <trkpt lat="42.88201" lon="-0.19126">
        <ele>2024.4</ele>
        <time>2026-07-15T12:11:30Z</time>
      </trkpt>
      <trkpt lat="42.88201" lon="-0.19126">
        <ele>2023.4</ele>
        <time>2026-07-15T12:11:30Z</time>
      </trkpt>
      <trkpt lat="42.88202" lon="-0.19127">
        <ele>2023.4</ele>
        <time>2026-07-15T12:11:31Z</time>
      </trkpt>
      <trkpt lat="42.88202" lon="-0.19128">
        <ele>2023.4</ele>
        <time>2026-07-15T12:11:32Z</time>
      </trkpt>
      <trkpt lat="42.88202" lon="-0.19128">
        <ele>2024.4</ele>
        <time>2026-07-15T12:11:32Z</time>
      </trkpt>
      <trkpt lat="42.88202" lon="-0.19129">
        <ele>2024.4</ele>
        <time>2026-07-15T12:11:33Z</time>
      </trkpt>
      <trkpt lat="42.88202" lon="-0.1913">
        <ele>2024.4</ele>
        <time>2026-07-15T12:11:34Z</time>
      </trkpt>
      <trkpt lat="42.88202" lon="-0.1913">
        <ele>2023.4</ele>
        <time>2026-07-15T12:11:35Z</time>
      </trkpt>
      <trkpt lat="42.88202" lon="-0.19131">
        <ele>2023.4</ele>
        <time>2026-07-15T12:11:35Z</time>
      </trkpt>
      <trkpt lat="42.88202" lon="-0.19131">
        <ele>2023.4</ele>
        <time>2026-07-15T12:11:36Z</time>
      </trkpt>
      <trkpt lat="42.88203" lon="-0.19132">
        <ele>2023.4</ele>
        <time>2026-07-15T12:11:37Z</time>
      </trkpt>
      <trkpt lat="42.88203" lon="-0.19132">
        <ele>2023.4</ele>
        <time>2026-07-15T12:11:37Z</time>
      </trkpt>
      <trkpt lat="42.88203" lon="-0.19132">
        <ele>2022.4</ele>
        <time>2026-07-15T12:11:38Z</time>
      </trkpt>
      <trkpt lat="42.88204" lon="-0.19132">
        <ele>2022.4</ele>
        <time>2026-07-15T12:11:38Z</time>
      </trkpt>
      <trkpt lat="42.88204" lon="-0.19133">
        <ele>2022.4</ele>
        <time>2026-07-15T12:11:39Z</time>
      </trkpt>
      <trkpt lat="42.88205" lon="-0.19133">
        <ele>2022.4</ele>
        <time>2026-07-15T12:11:40Z</time>
      </trkpt>
      <trkpt lat="42.88205" lon="-0.19133">
        <ele>2023.4</ele>
        <time>2026-07-15T12:11:40Z</time>
      </trkpt>
      <trkpt lat="42.88206" lon="-0.19134">
        <ele>2023.4</ele>
        <time>2026-07-15T12:11:41Z</time>
      </trkpt>
      <trkpt lat="42.88206" lon="-0.19134">
        <ele>2023.4</ele>
        <time>2026-07-15T12:11:42Z</time>
      </trkpt>
      <trkpt lat="42.88206" lon="-0.19134">
        <ele>2023.4</ele>
        <time>2026-07-15T12:11:42Z</time>
      </trkpt>
      <trkpt lat="42.88206" lon="-0.19135">
        <ele>2023.4</ele>
        <time>2026-07-15T12:11:43Z</time>
      </trkpt>
      <trkpt lat="42.88206" lon="-0.19136">
        <ele>2023.4</ele>
        <time>2026-07-15T12:11:43Z</time>
      </trkpt>
      <trkpt lat="42.88206" lon="-0.19136">
        <ele>2023.4</ele>
        <time>2026-07-15T12:11:44Z</time>
      </trkpt>
      <trkpt lat="42.88206" lon="-0.19137">
        <ele>2023.4</ele>
        <time>2026-07-15T12:11:45Z</time>
      </trkpt>
      <trkpt lat="42.88205" lon="-0.19138">
        <ele>2023.4</ele>
        <time>2026-07-15T12:11:46Z</time>
      </trkpt>
      <trkpt lat="42.88204" lon="-0.19139">
        <ele>2023.4</ele>
        <time>2026-07-15T12:11:47Z</time>
      </trkpt>
      <trkpt lat="42.88204" lon="-0.19139">
        <ele>2023.4</ele>
        <time>2026-07-15T12:11:48Z</time>
      </trkpt>
      <trkpt lat="42.88204" lon="-0.1914">
        <ele>2023.4</ele>
        <time>2026-07-15T12:11:49Z</time>
      </trkpt>
      <trkpt lat="42.88203" lon="-0.19141">
        <ele>2023.4</ele>
        <time>2026-07-15T12:11:49Z</time>
      </trkpt>
      <trkpt lat="42.88203" lon="-0.19141">
        <ele>2023.4</ele>
        <time>2026-07-15T12:11:50Z</time>
      </trkpt>
      <trkpt lat="42.88204" lon="-0.19143">
        <ele>2022.4</ele>
        <time>2026-07-15T12:11:51Z</time>
      </trkpt>
      <trkpt lat="42.88204" lon="-0.19143">
        <ele>2022.4</ele>
        <time>2026-07-15T12:11:51Z</time>
      </trkpt>
      <trkpt lat="42.88204" lon="-0.19144">
        <ele>2022.4</ele>
        <time>2026-07-15T12:11:52Z</time>
      </trkpt>
      <trkpt lat="42.88205" lon="-0.19144">
        <ele>2021.4</ele>
        <time>2026-07-15T12:11:52Z</time>
      </trkpt>
      <trkpt lat="42.88205" lon="-0.19144">
        <ele>2021.4</ele>
        <time>2026-07-15T12:11:53Z</time>
      </trkpt>
      <trkpt lat="42.88206" lon="-0.19145">
        <ele>2020.4</ele>
        <time>2026-07-15T12:11:54Z</time>
      </trkpt>
      <trkpt lat="42.88206" lon="-0.19145">
        <ele>2020.4</ele>
        <time>2026-07-15T12:11:54Z</time>
      </trkpt>
      <trkpt lat="42.88206" lon="-0.19145">
        <ele>2020.4</ele>
        <time>2026-07-15T12:11:55Z</time>
      </trkpt>
      <trkpt lat="42.88207" lon="-0.19145">
        <ele>2020.4</ele>
        <time>2026-07-15T12:11:55Z</time>
      </trkpt>
      <trkpt lat="42.88207" lon="-0.19145">
        <ele>2020.4</ele>
        <time>2026-07-15T12:11:56Z</time>
      </trkpt>
      <trkpt lat="42.88208" lon="-0.19145">
        <ele>2021.4</ele>
        <time>2026-07-15T12:11:56Z</time>
      </trkpt>
      <trkpt lat="42.88208" lon="-0.19146">
        <ele>2021.4</ele>
        <time>2026-07-15T12:11:57Z</time>
      </trkpt>
      <trkpt lat="42.88208" lon="-0.19146">
        <ele>2021.4</ele>
        <time>2026-07-15T12:11:57Z</time>
      </trkpt>
      <trkpt lat="42.88208" lon="-0.19146">
        <ele>2021.4</ele>
        <time>2026-07-15T12:11:58Z</time>
      </trkpt>
      <trkpt lat="42.88209" lon="-0.19146">
        <ele>2021.4</ele>
        <time>2026-07-15T12:11:59Z</time>
      </trkpt>
      <trkpt lat="42.88209" lon="-0.19146">
        <ele>2021.4</ele>
        <time>2026-07-15T12:12:00Z</time>
      </trkpt>
      <trkpt lat="42.88209" lon="-0.19147">
        <ele>2021.4</ele>
        <time>2026-07-15T12:12:01Z</time>
      </trkpt>
      <trkpt lat="42.88209" lon="-0.19147">
        <ele>2020.4</ele>
        <time>2026-07-15T12:12:01Z</time>
      </trkpt>
      <trkpt lat="42.88209" lon="-0.19147">
        <ele>2020.4</ele>
        <time>2026-07-15T12:12:02Z</time>
      </trkpt>
      <trkpt lat="42.8821" lon="-0.19148">
        <ele>2019.4</ele>
        <time>2026-07-15T12:12:03Z</time>
      </trkpt>
      <trkpt lat="42.8821" lon="-0.19148">
        <ele>2019.4</ele>
        <time>2026-07-15T12:12:04Z</time>
      </trkpt>
      <trkpt lat="42.88211" lon="-0.19149">
        <ele>2018.4</ele>
        <time>2026-07-15T12:12:05Z</time>
      </trkpt>
      <trkpt lat="42.88211" lon="-0.19149">
        <ele>2018.4</ele>
        <time>2026-07-15T12:12:06Z</time>
      </trkpt>
      <trkpt lat="42.88211" lon="-0.19149">
        <ele>2018.4</ele>
        <time>2026-07-15T12:12:06Z</time>
      </trkpt>
      <trkpt lat="42.88211" lon="-0.1915">
        <ele>2018.4</ele>
        <time>2026-07-15T12:12:07Z</time>
      </trkpt>
      <trkpt lat="42.88211" lon="-0.1915">
        <ele>2018.4</ele>
        <time>2026-07-15T12:12:07Z</time>
      </trkpt>
      <trkpt lat="42.88211" lon="-0.19151">
        <ele>2018.4</ele>
        <time>2026-07-15T12:12:08Z</time>
      </trkpt>
      <trkpt lat="42.88211" lon="-0.19151">
        <ele>2017.4</ele>
        <time>2026-07-15T12:12:09Z</time>
      </trkpt>
      <trkpt lat="42.88211" lon="-0.19151">
        <ele>2017.4</ele>
        <time>2026-07-15T12:12:09Z</time>
      </trkpt>
      <trkpt lat="42.88211" lon="-0.19152">
        <ele>2017.4</ele>
        <time>2026-07-15T12:12:10Z</time>
      </trkpt>
      <trkpt lat="42.88211" lon="-0.19153">
        <ele>2017.4</ele>
        <time>2026-07-15T12:12:11Z</time>
      </trkpt>
      <trkpt lat="42.88211" lon="-0.19153">
        <ele>2017.4</ele>
        <time>2026-07-15T12:12:12Z</time>
      </trkpt>
      <trkpt lat="42.88211" lon="-0.19154">
        <ele>2017.4</ele>
        <time>2026-07-15T12:12:12Z</time>
      </trkpt>
      <trkpt lat="42.88211" lon="-0.19154">
        <ele>2017.4</ele>
        <time>2026-07-15T12:12:13Z</time>
      </trkpt>
      <trkpt lat="42.88212" lon="-0.19154">
        <ele>2016.4</ele>
        <time>2026-07-15T12:12:13Z</time>
      </trkpt>
      <trkpt lat="42.88212" lon="-0.19154">
        <ele>2015.4</ele>
        <time>2026-07-15T12:12:14Z</time>
      </trkpt>
      <trkpt lat="42.88213" lon="-0.19154">
        <ele>2015.4</ele>
        <time>2026-07-15T12:12:15Z</time>
      </trkpt>
      <trkpt lat="42.88213" lon="-0.19154">
        <ele>2014.4</ele>
        <time>2026-07-15T12:12:15Z</time>
      </trkpt>
      <trkpt lat="42.88213" lon="-0.19154">
        <ele>2013.4</ele>
        <time>2026-07-15T12:12:16Z</time>
      </trkpt>
      <trkpt lat="42.88214" lon="-0.19153">
        <ele>2013.4</ele>
        <time>2026-07-15T12:12:17Z</time>
      </trkpt>
      <trkpt lat="42.88214" lon="-0.19153">
        <ele>2013.4</ele>
        <time>2026-07-15T12:12:17Z</time>
      </trkpt>
      <trkpt lat="42.88215" lon="-0.19153">
        <ele>2013.4</ele>
        <time>2026-07-15T12:12:18Z</time>
      </trkpt>
      <trkpt lat="42.88215" lon="-0.19153">
        <ele>2012.4</ele>
        <time>2026-07-15T12:12:18Z</time>
      </trkpt>
      <trkpt lat="42.88215" lon="-0.19153">
        <ele>2013.4</ele>
        <time>2026-07-15T12:12:19Z</time>
      </trkpt>
      <trkpt lat="42.88215" lon="-0.19154">
        <ele>2013.4</ele>
        <time>2026-07-15T12:12:20Z</time>
      </trkpt>
      <trkpt lat="42.88215" lon="-0.19154">
        <ele>2013.4</ele>
        <time>2026-07-15T12:12:20Z</time>
      </trkpt>
      <trkpt lat="42.88215" lon="-0.19154">
        <ele>2013.4</ele>
        <time>2026-07-15T12:12:21Z</time>
      </trkpt>
      <trkpt lat="42.88215" lon="-0.19155">
        <ele>2012.4</ele>
        <time>2026-07-15T12:12:21Z</time>
      </trkpt>
      <trkpt lat="42.88215" lon="-0.19155">
        <ele>2012.4</ele>
        <time>2026-07-15T12:12:22Z</time>
      </trkpt>
      <trkpt lat="42.88215" lon="-0.19156">
        <ele>2012.4</ele>
        <time>2026-07-15T12:12:22Z</time>
      </trkpt>
      <trkpt lat="42.88215" lon="-0.19157">
        <ele>2012.4</ele>
        <time>2026-07-15T12:12:23Z</time>
      </trkpt>
      <trkpt lat="42.88215" lon="-0.19158">
        <ele>2011.4</ele>
        <time>2026-07-15T12:12:24Z</time>
      </trkpt>
      <trkpt lat="42.88215" lon="-0.19158">
        <ele>2012.4</ele>
        <time>2026-07-15T12:12:24Z</time>
      </trkpt>
      <trkpt lat="42.88215" lon="-0.19158">
        <ele>2012.4</ele>
        <time>2026-07-15T12:12:25Z</time>
      </trkpt>
      <trkpt lat="42.88214" lon="-0.19159">
        <ele>2012.4</ele>
        <time>2026-07-15T12:12:26Z</time>
      </trkpt>
      <trkpt lat="42.88214" lon="-0.19159">
        <ele>2012.4</ele>
        <time>2026-07-15T12:12:27Z</time>
      </trkpt>
      <trkpt lat="42.88214" lon="-0.1916">
        <ele>2012.4</ele>
        <time>2026-07-15T12:12:27Z</time>
      </trkpt>
      <trkpt lat="42.88214" lon="-0.1916">
        <ele>2012.4</ele>
        <time>2026-07-15T12:12:28Z</time>
      </trkpt>
      <trkpt lat="42.88214" lon="-0.1916">
        <ele>2012.4</ele>
        <time>2026-07-15T12:12:28Z</time>
      </trkpt>
      <trkpt lat="42.88215" lon="-0.19161">
        <ele>2011.4</ele>
        <time>2026-07-15T12:12:29Z</time>
      </trkpt>
      <trkpt lat="42.88216" lon="-0.19161">
        <ele>2011.4</ele>
        <time>2026-07-15T12:12:30Z</time>
      </trkpt>
      <trkpt lat="42.88216" lon="-0.19161">
        <ele>2010.4</ele>
        <time>2026-07-15T12:12:31Z</time>
      </trkpt>
      <trkpt lat="42.88217" lon="-0.19162">
        <ele>2010.4</ele>
        <time>2026-07-15T12:12:32Z</time>
      </trkpt>
      <trkpt lat="42.88217" lon="-0.19163">
        <ele>2011.4</ele>
        <time>2026-07-15T12:12:33Z</time>
      </trkpt>
      <trkpt lat="42.88217" lon="-0.19163">
        <ele>2010.4</ele>
        <time>2026-07-15T12:12:34Z</time>
      </trkpt>
      <trkpt lat="42.88217" lon="-0.19164">
        <ele>2010.4</ele>
        <time>2026-07-15T12:12:35Z</time>
      </trkpt>
      <trkpt lat="42.88217" lon="-0.19164">
        <ele>2010.4</ele>
        <time>2026-07-15T12:12:35Z</time>
      </trkpt>
      <trkpt lat="42.88218" lon="-0.19165">
        <ele>2010.4</ele>
        <time>2026-07-15T12:12:35Z</time>
      </trkpt>
      <trkpt lat="42.88218" lon="-0.19165">
        <ele>2010.4</ele>
        <time>2026-07-15T12:12:36Z</time>
      </trkpt>
      <trkpt lat="42.88218" lon="-0.19165">
        <ele>2010.4</ele>
        <time>2026-07-15T12:12:36Z</time>
      </trkpt>
      <trkpt lat="42.88218" lon="-0.19165">
        <ele>2010.4</ele>
        <time>2026-07-15T12:12:37Z</time>
      </trkpt>
      <trkpt lat="42.88219" lon="-0.19166">
        <ele>2009.4</ele>
        <time>2026-07-15T12:12:38Z</time>
      </trkpt>
      <trkpt lat="42.88219" lon="-0.19166">
        <ele>2008.4</ele>
        <time>2026-07-15T12:12:39Z</time>
      </trkpt>
      <trkpt lat="42.8822" lon="-0.19166">
        <ele>2008.4</ele>
        <time>2026-07-15T12:12:39Z</time>
      </trkpt>
      <trkpt lat="42.8822" lon="-0.19167">
        <ele>2008.4</ele>
        <time>2026-07-15T12:12:40Z</time>
      </trkpt>
      <trkpt lat="42.8822" lon="-0.19167">
        <ele>2008.4</ele>
        <time>2026-07-15T12:12:40Z</time>
      </trkpt>
      <trkpt lat="42.88221" lon="-0.19166">
        <ele>2008.4</ele>
        <time>2026-07-15T12:12:40Z</time>
      </trkpt>
      <trkpt lat="42.88221" lon="-0.19166">
        <ele>2008.4</ele>
        <time>2026-07-15T12:12:41Z</time>
      </trkpt>
      <trkpt lat="42.88222" lon="-0.19166">
        <ele>2008.4</ele>
        <time>2026-07-15T12:12:42Z</time>
      </trkpt>
      <trkpt lat="42.88221" lon="-0.19166">
        <ele>2008.4</ele>
        <time>2026-07-15T12:12:42Z</time>
      </trkpt>
      <trkpt lat="42.88222" lon="-0.19166">
        <ele>2008.4</ele>
        <time>2026-07-15T12:12:43Z</time>
      </trkpt>
      <trkpt lat="42.88222" lon="-0.19166">
        <ele>2008.4</ele>
        <time>2026-07-15T12:12:44Z</time>
      </trkpt>
      <trkpt lat="42.88222" lon="-0.19165">
        <ele>2007.4</ele>
        <time>2026-07-15T12:12:44Z</time>
      </trkpt>
      <trkpt lat="42.88223" lon="-0.19166">
        <ele>2006.4</ele>
        <time>2026-07-15T12:12:45Z</time>
      </trkpt>
      <trkpt lat="42.88223" lon="-0.19166">
        <ele>2006.4</ele>
        <time>2026-07-15T12:12:46Z</time>
      </trkpt>
      <trkpt lat="42.88224" lon="-0.19167">
        <ele>2006.4</ele>
        <time>2026-07-15T12:12:47Z</time>
      </trkpt>
      <trkpt lat="42.88224" lon="-0.19168">
        <ele>2005.4</ele>
        <time>2026-07-15T12:12:48Z</time>
      </trkpt>
      <trkpt lat="42.88225" lon="-0.19169">
        <ele>2004.4</ele>
        <time>2026-07-15T12:12:49Z</time>
      </trkpt>
      <trkpt lat="42.88225" lon="-0.1917">
        <ele>2004.4</ele>
        <time>2026-07-15T12:12:49Z</time>
      </trkpt>
      <trkpt lat="42.88225" lon="-0.1917">
        <ele>2004.4</ele>
        <time>2026-07-15T12:12:50Z</time>
      </trkpt>
      <trkpt lat="42.88225" lon="-0.1917">
        <ele>2004.4</ele>
        <time>2026-07-15T12:12:50Z</time>
      </trkpt>
      <trkpt lat="42.88226" lon="-0.1917">
        <ele>2004.4</ele>
        <time>2026-07-15T12:12:51Z</time>
      </trkpt>
      <trkpt lat="42.88226" lon="-0.1917">
        <ele>2004.4</ele>
        <time>2026-07-15T12:12:51Z</time>
      </trkpt>
      <trkpt lat="42.88226" lon="-0.19171">
        <ele>2004.4</ele>
        <time>2026-07-15T12:12:52Z</time>
      </trkpt>
      <trkpt lat="42.88227" lon="-0.19171">
        <ele>2004.4</ele>
        <time>2026-07-15T12:12:52Z</time>
      </trkpt>
      <trkpt lat="42.88227" lon="-0.19171">
        <ele>2004.4</ele>
        <time>2026-07-15T12:12:53Z</time>
      </trkpt>
      <trkpt lat="42.88227" lon="-0.19172">
        <ele>2004.4</ele>
        <time>2026-07-15T12:12:54Z</time>
      </trkpt>
      <trkpt lat="42.88227" lon="-0.19172">
        <ele>2003.4</ele>
        <time>2026-07-15T12:12:54Z</time>
      </trkpt>
      <trkpt lat="42.88228" lon="-0.19173">
        <ele>2003.4</ele>
        <time>2026-07-15T12:12:55Z</time>
      </trkpt>
      <trkpt lat="42.88228" lon="-0.19173">
        <ele>2003.4</ele>
        <time>2026-07-15T12:12:56Z</time>
      </trkpt>
      <trkpt lat="42.88228" lon="-0.19174">
        <ele>2003.4</ele>
        <time>2026-07-15T12:12:56Z</time>
      </trkpt>
      <trkpt lat="42.88229" lon="-0.19175">
        <ele>2003.4</ele>
        <time>2026-07-15T12:12:57Z</time>
      </trkpt>
      <trkpt lat="42.88229" lon="-0.19176">
        <ele>2003.4</ele>
        <time>2026-07-15T12:12:58Z</time>
      </trkpt>
      <trkpt lat="42.88229" lon="-0.19177">
        <ele>2002.4</ele>
        <time>2026-07-15T12:12:59Z</time>
      </trkpt>
      <trkpt lat="42.88228" lon="-0.19178">
        <ele>2002.4</ele>
        <time>2026-07-15T12:13:00Z</time>
      </trkpt>
      <trkpt lat="42.88228" lon="-0.19179">
        <ele>2002.4</ele>
        <time>2026-07-15T12:13:00Z</time>
      </trkpt>
      <trkpt lat="42.88228" lon="-0.1918">
        <ele>2002.4</ele>
        <time>2026-07-15T12:13:01Z</time>
      </trkpt>
      <trkpt lat="42.88228" lon="-0.1918">
        <ele>2002.4</ele>
        <time>2026-07-15T12:13:01Z</time>
      </trkpt>
      <trkpt lat="42.88229" lon="-0.19181">
        <ele>2002.4</ele>
        <time>2026-07-15T12:13:02Z</time>
      </trkpt>
      <trkpt lat="42.88229" lon="-0.19181">
        <ele>2001.4</ele>
        <time>2026-07-15T12:13:02Z</time>
      </trkpt>
      <trkpt lat="42.88229" lon="-0.19181">
        <ele>2001.4</ele>
        <time>2026-07-15T12:13:03Z</time>
      </trkpt>
      <trkpt lat="42.88229" lon="-0.19182">
        <ele>2001.4</ele>
        <time>2026-07-15T12:13:04Z</time>
      </trkpt>
      <trkpt lat="42.88229" lon="-0.19182">
        <ele>2000.4</ele>
        <time>2026-07-15T12:13:04Z</time>
      </trkpt>
      <trkpt lat="42.8823" lon="-0.19183">
        <ele>2000.4</ele>
        <time>2026-07-15T12:13:05Z</time>
      </trkpt>
      <trkpt lat="42.88229" lon="-0.19184">
        <ele>2000.4</ele>
        <time>2026-07-15T12:13:05Z</time>
      </trkpt>
      <trkpt lat="42.88229" lon="-0.19185">
        <ele>2000.4</ele>
        <time>2026-07-15T12:13:06Z</time>
      </trkpt>
      <trkpt lat="42.88229" lon="-0.19186">
        <ele>2000.4</ele>
        <time>2026-07-15T12:13:07Z</time>
      </trkpt>
      <trkpt lat="42.88229" lon="-0.19186">
        <ele>1999.4</ele>
        <time>2026-07-15T12:13:07Z</time>
      </trkpt>
      <trkpt lat="42.8823" lon="-0.19186">
        <ele>1999.4</ele>
        <time>2026-07-15T12:13:08Z</time>
      </trkpt>
      <trkpt lat="42.8823" lon="-0.19187">
        <ele>1999.4</ele>
        <time>2026-07-15T12:13:09Z</time>
      </trkpt>
      <trkpt lat="42.8823" lon="-0.19187">
        <ele>1999.4</ele>
        <time>2026-07-15T12:13:09Z</time>
      </trkpt>
      <trkpt lat="42.88231" lon="-0.19187">
        <ele>1999.4</ele>
        <time>2026-07-15T12:13:10Z</time>
      </trkpt>
      <trkpt lat="42.88232" lon="-0.19188">
        <ele>1998.4</ele>
        <time>2026-07-15T12:13:11Z</time>
      </trkpt>
      <trkpt lat="42.88232" lon="-0.19187">
        <ele>1998.4</ele>
        <time>2026-07-15T12:13:11Z</time>
      </trkpt>
      <trkpt lat="42.88233" lon="-0.19188">
        <ele>1998.4</ele>
        <time>2026-07-15T12:13:12Z</time>
      </trkpt>
      <trkpt lat="42.88233" lon="-0.19188">
        <ele>1998.4</ele>
        <time>2026-07-15T12:13:13Z</time>
      </trkpt>
      <trkpt lat="42.88234" lon="-0.19189">
        <ele>1998.4</ele>
        <time>2026-07-15T12:13:14Z</time>
      </trkpt>
      <trkpt lat="42.88234" lon="-0.19189">
        <ele>1998.4</ele>
        <time>2026-07-15T12:13:15Z</time>
      </trkpt>
      <trkpt lat="42.88235" lon="-0.1919">
        <ele>1998.4</ele>
        <time>2026-07-15T12:13:16Z</time>
      </trkpt>
      <trkpt lat="42.88235" lon="-0.19191">
        <ele>1997.4</ele>
        <time>2026-07-15T12:13:17Z</time>
      </trkpt>
      <trkpt lat="42.88235" lon="-0.19192">
        <ele>1996.4</ele>
        <time>2026-07-15T12:13:18Z</time>
      </trkpt>
      <trkpt lat="42.88235" lon="-0.19192">
        <ele>1996.4</ele>
        <time>2026-07-15T12:13:18Z</time>
      </trkpt>
      <trkpt lat="42.88235" lon="-0.19193">
        <ele>1997.4</ele>
        <time>2026-07-15T12:13:19Z</time>
      </trkpt>
      <trkpt lat="42.88234" lon="-0.19193">
        <ele>1997.4</ele>
        <time>2026-07-15T12:13:20Z</time>
      </trkpt>
      <trkpt lat="42.88234" lon="-0.19194">
        <ele>1996.4</ele>
        <time>2026-07-15T12:13:20Z</time>
      </trkpt>
      <trkpt lat="42.88234" lon="-0.19194">
        <ele>1996.4</ele>
        <time>2026-07-15T12:13:21Z</time>
      </trkpt>
      <trkpt lat="42.88234" lon="-0.19195">
        <ele>1997.4</ele>
        <time>2026-07-15T12:13:22Z</time>
      </trkpt>
      <trkpt lat="42.88235" lon="-0.19195">
        <ele>1996.4</ele>
        <time>2026-07-15T12:13:23Z</time>
      </trkpt>
      <trkpt lat="42.88236" lon="-0.19195">
        <ele>1996.4</ele>
        <time>2026-07-15T12:13:24Z</time>
      </trkpt>
      <trkpt lat="42.88236" lon="-0.19195">
        <ele>1996.4</ele>
        <time>2026-07-15T12:13:25Z</time>
      </trkpt>
      <trkpt lat="42.88237" lon="-0.19195">
        <ele>1996.4</ele>
        <time>2026-07-15T12:13:26Z</time>
      </trkpt>
      <trkpt lat="42.88237" lon="-0.19195">
        <ele>1996.4</ele>
        <time>2026-07-15T12:13:26Z</time>
      </trkpt>
      <trkpt lat="42.88237" lon="-0.19195">
        <ele>1995.4</ele>
        <time>2026-07-15T12:13:27Z</time>
      </trkpt>
      <trkpt lat="42.88237" lon="-0.19195">
        <ele>1995.4</ele>
        <time>2026-07-15T12:13:27Z</time>
      </trkpt>
      <trkpt lat="42.88238" lon="-0.19196">
        <ele>1995.4</ele>
        <time>2026-07-15T12:13:28Z</time>
      </trkpt>
      <trkpt lat="42.88238" lon="-0.19195">
        <ele>1994.4</ele>
        <time>2026-07-15T12:13:28Z</time>
      </trkpt>
      <trkpt lat="42.88239" lon="-0.19195">
        <ele>1994.4</ele>
        <time>2026-07-15T12:13:29Z</time>
      </trkpt>
      <trkpt lat="42.88239" lon="-0.19195">
        <ele>1994.4</ele>
        <time>2026-07-15T12:13:30Z</time>
      </trkpt>
      <trkpt lat="42.88239" lon="-0.19196">
        <ele>1994.4</ele>
        <time>2026-07-15T12:13:30Z</time>
      </trkpt>
      <trkpt lat="42.8824" lon="-0.19196">
        <ele>1994.4</ele>
        <time>2026-07-15T12:13:31Z</time>
      </trkpt>
      <trkpt lat="42.8824" lon="-0.19196">
        <ele>1993.4</ele>
        <time>2026-07-15T12:13:31Z</time>
      </trkpt>
      <trkpt lat="42.88241" lon="-0.19197">
        <ele>1992.4</ele>
        <time>2026-07-15T12:13:32Z</time>
      </trkpt>
      <trkpt lat="42.88241" lon="-0.19198">
        <ele>1992.4</ele>
        <time>2026-07-15T12:13:33Z</time>
      </trkpt>
      <trkpt lat="42.88242" lon="-0.19198">
        <ele>1991.4</ele>
        <time>2026-07-15T12:13:34Z</time>
      </trkpt>
      <trkpt lat="42.88242" lon="-0.19199">
        <ele>1991.4</ele>
        <time>2026-07-15T12:13:34Z</time>
      </trkpt>
      <trkpt lat="42.88241" lon="-0.19199">
        <ele>1990.4</ele>
        <time>2026-07-15T12:13:35Z</time>
      </trkpt>
      <trkpt lat="42.88241" lon="-0.192">
        <ele>1990.4</ele>
        <time>2026-07-15T12:13:36Z</time>
      </trkpt>
      <trkpt lat="42.88241" lon="-0.192">
        <ele>1990.4</ele>
        <time>2026-07-15T12:13:37Z</time>
      </trkpt>
      <trkpt lat="42.88241" lon="-0.19201">
        <ele>1990.4</ele>
        <time>2026-07-15T12:13:38Z</time>
      </trkpt>
      <trkpt lat="42.88241" lon="-0.19201">
        <ele>1990.4</ele>
        <time>2026-07-15T12:13:38Z</time>
      </trkpt>
      <trkpt lat="42.88241" lon="-0.19201">
        <ele>1990.4</ele>
        <time>2026-07-15T12:13:39Z</time>
      </trkpt>
      <trkpt lat="42.88241" lon="-0.19201">
        <ele>1990.4</ele>
        <time>2026-07-15T12:13:39Z</time>
      </trkpt>
      <trkpt lat="42.88241" lon="-0.19202">
        <ele>1990.4</ele>
        <time>2026-07-15T12:13:39Z</time>
      </trkpt>
      <trkpt lat="42.88241" lon="-0.19202">
        <ele>1989.4</ele>
        <time>2026-07-15T12:13:40Z</time>
      </trkpt>
      <trkpt lat="42.88241" lon="-0.19202">
        <ele>1989.4</ele>
        <time>2026-07-15T12:13:41Z</time>
      </trkpt>
      <trkpt lat="42.88241" lon="-0.19202">
        <ele>1988.4</ele>
        <time>2026-07-15T12:13:42Z</time>
      </trkpt>
      <trkpt lat="42.88241" lon="-0.19202">
        <ele>1988.4</ele>
        <time>2026-07-15T12:13:43Z</time>
      </trkpt>
      <trkpt lat="42.88241" lon="-0.19202">
        <ele>1988.4</ele>
        <time>2026-07-15T12:13:44Z</time>
      </trkpt>
      <trkpt lat="42.88241" lon="-0.19202">
        <ele>1987.4</ele>
        <time>2026-07-15T12:13:45Z</time>
      </trkpt>
      <trkpt lat="42.88241" lon="-0.19202">
        <ele>1987.4</ele>
        <time>2026-07-15T12:13:46Z</time>
      </trkpt>
      <trkpt lat="42.88241" lon="-0.19202">
        <ele>1987.4</ele>
        <time>2026-07-15T12:13:47Z</time>
      </trkpt>
      <trkpt lat="42.88242" lon="-0.19202">
        <ele>1987.4</ele>
        <time>2026-07-15T12:13:48Z</time>
      </trkpt>
      <trkpt lat="42.88242" lon="-0.19202">
        <ele>1987.4</ele>
        <time>2026-07-15T12:13:49Z</time>
      </trkpt>
      <trkpt lat="42.88242" lon="-0.19202">
        <ele>1986.4</ele>
        <time>2026-07-15T12:13:49Z</time>
      </trkpt>
      <trkpt lat="42.88243" lon="-0.19202">
        <ele>1986.4</ele>
        <time>2026-07-15T12:13:50Z</time>
      </trkpt>
      <trkpt lat="42.88243" lon="-0.19203">
        <ele>1986.4</ele>
        <time>2026-07-15T12:13:50Z</time>
      </trkpt>
      <trkpt lat="42.88243" lon="-0.19203">
        <ele>1986.4</ele>
        <time>2026-07-15T12:13:51Z</time>
      </trkpt>
      <trkpt lat="42.88244" lon="-0.19203">
        <ele>1985.4</ele>
        <time>2026-07-15T12:13:52Z</time>
      </trkpt>
      <trkpt lat="42.88244" lon="-0.19204">
        <ele>1985.4</ele>
        <time>2026-07-15T12:13:53Z</time>
      </trkpt>
      <trkpt lat="42.88244" lon="-0.19203">
        <ele>1985.4</ele>
        <time>2026-07-15T12:13:53Z</time>
      </trkpt>
      <trkpt lat="42.88244" lon="-0.19203">
        <ele>1985.4</ele>
        <time>2026-07-15T12:13:54Z</time>
      </trkpt>
      <trkpt lat="42.88244" lon="-0.19204">
        <ele>1985.4</ele>
        <time>2026-07-15T12:13:55Z</time>
      </trkpt>
      <trkpt lat="42.88244" lon="-0.19204">
        <ele>1985.4</ele>
        <time>2026-07-15T12:13:56Z</time>
      </trkpt>
      <trkpt lat="42.88244" lon="-0.19204">
        <ele>1985.4</ele>
        <time>2026-07-15T12:13:56Z</time>
      </trkpt>
      <trkpt lat="42.88244" lon="-0.19204">
        <ele>1985.4</ele>
        <time>2026-07-15T12:13:57Z</time>
      </trkpt>
      <trkpt lat="42.88244" lon="-0.19204">
        <ele>1985.4</ele>
        <time>2026-07-15T12:13:58Z</time>
      </trkpt>
      <trkpt lat="42.88244" lon="-0.19204">
        <ele>1985.4</ele>
        <time>2026-07-15T12:13:58Z</time>
      </trkpt>
      <trkpt lat="42.88244" lon="-0.19204">
        <ele>1985.4</ele>
        <time>2026-07-15T12:13:59Z</time>
      </trkpt>
      <trkpt lat="42.88245" lon="-0.19204">
        <ele>1985.4</ele>
        <time>2026-07-15T12:14:00Z</time>
      </trkpt>
      <trkpt lat="42.88245" lon="-0.19204">
        <ele>1985.4</ele>
        <time>2026-07-15T12:14:00Z</time>
      </trkpt>
      <trkpt lat="42.88245" lon="-0.19204">
        <ele>1985.4</ele>
        <time>2026-07-15T12:14:01Z</time>
      </trkpt>
      <trkpt lat="42.88245" lon="-0.19204">
        <ele>1983.4</ele>
        <time>2026-07-15T12:14:01Z</time>
      </trkpt>
      <trkpt lat="42.88245" lon="-0.19204">
        <ele>1983.4</ele>
        <time>2026-07-15T12:14:02Z</time>
      </trkpt>
      <trkpt lat="42.88245" lon="-0.19205">
        <ele>1983.4</ele>
        <time>2026-07-15T12:14:03Z</time>
      </trkpt>
      <trkpt lat="42.88246" lon="-0.19205">
        <ele>1983.4</ele>
        <time>2026-07-15T12:14:03Z</time>
      </trkpt>
      <trkpt lat="42.88246" lon="-0.19206">
        <ele>1983.4</ele>
        <time>2026-07-15T12:14:04Z</time>
      </trkpt>
      <trkpt lat="42.88246" lon="-0.19206">
        <ele>1983.4</ele>
        <time>2026-07-15T12:14:05Z</time>
      </trkpt>
      <trkpt lat="42.88246" lon="-0.19206">
        <ele>1983.4</ele>
        <time>2026-07-15T12:14:05Z</time>
      </trkpt>
      <trkpt lat="42.88246" lon="-0.19207">
        <ele>1983.4</ele>
        <time>2026-07-15T12:14:06Z</time>
      </trkpt>
      <trkpt lat="42.88246" lon="-0.19207">
        <ele>1983.4</ele>
        <time>2026-07-15T12:14:07Z</time>
      </trkpt>
      <trkpt lat="42.88246" lon="-0.19208">
        <ele>1983.4</ele>
        <time>2026-07-15T12:14:07Z</time>
      </trkpt>
      <trkpt lat="42.88247" lon="-0.19209">
        <ele>1982.4</ele>
        <time>2026-07-15T12:14:08Z</time>
      </trkpt>
      <trkpt lat="42.88248" lon="-0.19209">
        <ele>1982.4</ele>
        <time>2026-07-15T12:14:09Z</time>
      </trkpt>
      <trkpt lat="42.88248" lon="-0.19209">
        <ele>1982.4</ele>
        <time>2026-07-15T12:14:09Z</time>
      </trkpt>
      <trkpt lat="42.88249" lon="-0.1921">
        <ele>1982.4</ele>
        <time>2026-07-15T12:14:10Z</time>
      </trkpt>
      <trkpt lat="42.88249" lon="-0.1921">
        <ele>1982.4</ele>
        <time>2026-07-15T12:14:10Z</time>
      </trkpt>
      <trkpt lat="42.8825" lon="-0.1921">
        <ele>1982.4</ele>
        <time>2026-07-15T12:14:11Z</time>
      </trkpt>
      <trkpt lat="42.88251" lon="-0.1921">
        <ele>1981.4</ele>
        <time>2026-07-15T12:14:12Z</time>
      </trkpt>
      <trkpt lat="42.88252" lon="-0.19211">
        <ele>1981.4</ele>
        <time>2026-07-15T12:14:13Z</time>
      </trkpt>
      <trkpt lat="42.88252" lon="-0.19212">
        <ele>1981.4</ele>
        <time>2026-07-15T12:14:13Z</time>
      </trkpt>
      <trkpt lat="42.88252" lon="-0.19212">
        <ele>1981.4</ele>
        <time>2026-07-15T12:14:14Z</time>
      </trkpt>
      <trkpt lat="42.88253" lon="-0.19213">
        <ele>1980.4</ele>
        <time>2026-07-15T12:14:14Z</time>
      </trkpt>
      <trkpt lat="42.88253" lon="-0.19213">
        <ele>1980.4</ele>
        <time>2026-07-15T12:14:15Z</time>
      </trkpt>
      <trkpt lat="42.88253" lon="-0.19213">
        <ele>1980.4</ele>
        <time>2026-07-15T12:14:16Z</time>
      </trkpt>
      <trkpt lat="42.88254" lon="-0.19213">
        <ele>1980.4</ele>
        <time>2026-07-15T12:14:16Z</time>
      </trkpt>
      <trkpt lat="42.88254" lon="-0.19213">
        <ele>1979.4</ele>
        <time>2026-07-15T12:14:17Z</time>
      </trkpt>
      <trkpt lat="42.88255" lon="-0.19213">
        <ele>1979.4</ele>
        <time>2026-07-15T12:14:18Z</time>
      </trkpt>
      <trkpt lat="42.88255" lon="-0.19213">
        <ele>1980.4</ele>
        <time>2026-07-15T12:14:18Z</time>
      </trkpt>
      <trkpt lat="42.88256" lon="-0.19213">
        <ele>1979.4</ele>
        <time>2026-07-15T12:14:19Z</time>
      </trkpt>
      <trkpt lat="42.88257" lon="-0.19213">
        <ele>1979.4</ele>
        <time>2026-07-15T12:14:20Z</time>
      </trkpt>
      <trkpt lat="42.88257" lon="-0.19213">
        <ele>1979.4</ele>
        <time>2026-07-15T12:14:20Z</time>
      </trkpt>
      <trkpt lat="42.88257" lon="-0.19214">
        <ele>1979.4</ele>
        <time>2026-07-15T12:14:21Z</time>
      </trkpt>
      <trkpt lat="42.88258" lon="-0.19214">
        <ele>1979.4</ele>
        <time>2026-07-15T12:14:22Z</time>
      </trkpt>
      <trkpt lat="42.88258" lon="-0.19214">
        <ele>1979.4</ele>
        <time>2026-07-15T12:14:22Z</time>
      </trkpt>
      <trkpt lat="42.88258" lon="-0.19215">
        <ele>1978.4</ele>
        <time>2026-07-15T12:14:23Z</time>
      </trkpt>
      <trkpt lat="42.88258" lon="-0.19216">
        <ele>1977.4</ele>
        <time>2026-07-15T12:14:24Z</time>
      </trkpt>
      <trkpt lat="42.88259" lon="-0.19216">
        <ele>1977.4</ele>
        <time>2026-07-15T12:14:25Z</time>
      </trkpt>
      <trkpt lat="42.88259" lon="-0.19217">
        <ele>1976.4</ele>
        <time>2026-07-15T12:14:25Z</time>
      </trkpt>
      <trkpt lat="42.8826" lon="-0.19217">
        <ele>1976.4</ele>
        <time>2026-07-15T12:14:26Z</time>
      </trkpt>
      <trkpt lat="42.8826" lon="-0.19218">
        <ele>1976.4</ele>
        <time>2026-07-15T12:14:27Z</time>
      </trkpt>
      <trkpt lat="42.8826" lon="-0.19218">
        <ele>1976.4</ele>
        <time>2026-07-15T12:14:27Z</time>
      </trkpt>
      <trkpt lat="42.8826" lon="-0.19218">
        <ele>1976.4</ele>
        <time>2026-07-15T12:14:28Z</time>
      </trkpt>
      <trkpt lat="42.8826" lon="-0.19218">
        <ele>1976.4</ele>
        <time>2026-07-15T12:14:28Z</time>
      </trkpt>
      <trkpt lat="42.88261" lon="-0.19218">
        <ele>1976.4</ele>
        <time>2026-07-15T12:14:29Z</time>
      </trkpt>
      <trkpt lat="42.88261" lon="-0.19218">
        <ele>1975.4</ele>
        <time>2026-07-15T12:14:30Z</time>
      </trkpt>
      <trkpt lat="42.88261" lon="-0.19219">
        <ele>1975.4</ele>
        <time>2026-07-15T12:14:31Z</time>
      </trkpt>
      <trkpt lat="42.88261" lon="-0.19219">
        <ele>1975.4</ele>
        <time>2026-07-15T12:14:31Z</time>
      </trkpt>
      <trkpt lat="42.88262" lon="-0.1922">
        <ele>1975.4</ele>
        <time>2026-07-15T12:14:32Z</time>
      </trkpt>
      <trkpt lat="42.88262" lon="-0.19221">
        <ele>1974.4</ele>
        <time>2026-07-15T12:14:33Z</time>
      </trkpt>
      <trkpt lat="42.88262" lon="-0.19221">
        <ele>1974.4</ele>
        <time>2026-07-15T12:14:33Z</time>
      </trkpt>
      <trkpt lat="42.88262" lon="-0.19221">
        <ele>1974.4</ele>
        <time>2026-07-15T12:14:34Z</time>
      </trkpt>
      <trkpt lat="42.88262" lon="-0.19222">
        <ele>1974.4</ele>
        <time>2026-07-15T12:14:35Z</time>
      </trkpt>
      <trkpt lat="42.88263" lon="-0.19222">
        <ele>1974.4</ele>
        <time>2026-07-15T12:14:36Z</time>
      </trkpt>
      <trkpt lat="42.88263" lon="-0.19222">
        <ele>1974.4</ele>
        <time>2026-07-15T12:14:36Z</time>
      </trkpt>
      <trkpt lat="42.88263" lon="-0.19223">
        <ele>1974.4</ele>
        <time>2026-07-15T12:14:37Z</time>
      </trkpt>
      <trkpt lat="42.88264" lon="-0.19223">
        <ele>1974.4</ele>
        <time>2026-07-15T12:14:38Z</time>
      </trkpt>
      <trkpt lat="42.88265" lon="-0.19223">
        <ele>1974.4</ele>
        <time>2026-07-15T12:14:39Z</time>
      </trkpt>
      <trkpt lat="42.88265" lon="-0.19223">
        <ele>1973.4</ele>
        <time>2026-07-15T12:14:39Z</time>
      </trkpt>
      <trkpt lat="42.88265" lon="-0.19223">
        <ele>1973.4</ele>
        <time>2026-07-15T12:14:40Z</time>
      </trkpt>
      <trkpt lat="42.88264" lon="-0.19222">
        <ele>1973.4</ele>
        <time>2026-07-15T12:14:41Z</time>
      </trkpt>
      <trkpt lat="42.88263" lon="-0.19221">
        <ele>1973.4</ele>
        <time>2026-07-15T12:14:41Z</time>
      </trkpt>
      <trkpt lat="42.88264" lon="-0.19221">
        <ele>1973.4</ele>
        <time>2026-07-15T12:14:42Z</time>
      </trkpt>
      <trkpt lat="42.88264" lon="-0.19222">
        <ele>1972.4</ele>
        <time>2026-07-15T12:14:43Z</time>
      </trkpt>
      <trkpt lat="42.88264" lon="-0.19224">
        <ele>1972.4</ele>
        <time>2026-07-15T12:14:44Z</time>
      </trkpt>
      <trkpt lat="42.88264" lon="-0.19225">
        <ele>1972.4</ele>
        <time>2026-07-15T12:14:45Z</time>
      </trkpt>
      <trkpt lat="42.88264" lon="-0.19226">
        <ele>1972.4</ele>
        <time>2026-07-15T12:14:45Z</time>
      </trkpt>
      <trkpt lat="42.88265" lon="-0.19226">
        <ele>1971.4</ele>
        <time>2026-07-15T12:14:46Z</time>
      </trkpt>
      <trkpt lat="42.88265" lon="-0.19227">
        <ele>1971.4</ele>
        <time>2026-07-15T12:14:47Z</time>
      </trkpt>
      <trkpt lat="42.88266" lon="-0.19227">
        <ele>1971.4</ele>
        <time>2026-07-15T12:14:47Z</time>
      </trkpt>
      <trkpt lat="42.88266" lon="-0.19227">
        <ele>1971.4</ele>
        <time>2026-07-15T12:14:48Z</time>
      </trkpt>
      <trkpt lat="42.88267" lon="-0.19228">
        <ele>1971.4</ele>
        <time>2026-07-15T12:14:49Z</time>
      </trkpt>
      <trkpt lat="42.88267" lon="-0.19227">
        <ele>1971.4</ele>
        <time>2026-07-15T12:14:49Z</time>
      </trkpt>
      <trkpt lat="42.88268" lon="-0.19227">
        <ele>1970.4</ele>
        <time>2026-07-15T12:14:50Z</time>
      </trkpt>
      <trkpt lat="42.88268" lon="-0.19227">
        <ele>1970.4</ele>
        <time>2026-07-15T12:14:51Z</time>
      </trkpt>
      <trkpt lat="42.88269" lon="-0.19228">
        <ele>1970.4</ele>
        <time>2026-07-15T12:14:52Z</time>
      </trkpt>
      <trkpt lat="42.88269" lon="-0.19228">
        <ele>1969.4</ele>
        <time>2026-07-15T12:14:52Z</time>
      </trkpt>
      <trkpt lat="42.88269" lon="-0.19229">
        <ele>1969.4</ele>
        <time>2026-07-15T12:14:53Z</time>
      </trkpt>
      <trkpt lat="42.88269" lon="-0.1923">
        <ele>1969.4</ele>
        <time>2026-07-15T12:14:54Z</time>
      </trkpt>
      <trkpt lat="42.88269" lon="-0.1923">
        <ele>1969.4</ele>
        <time>2026-07-15T12:14:54Z</time>
      </trkpt>
      <trkpt lat="42.88269" lon="-0.19231">
        <ele>1969.4</ele>
        <time>2026-07-15T12:14:55Z</time>
      </trkpt>
      <trkpt lat="42.88269" lon="-0.19231">
        <ele>1969.4</ele>
        <time>2026-07-15T12:14:55Z</time>
      </trkpt>
      <trkpt lat="42.88269" lon="-0.19232">
        <ele>1969.4</ele>
        <time>2026-07-15T12:14:56Z</time>
      </trkpt>
      <trkpt lat="42.8827" lon="-0.19232">
        <ele>1969.4</ele>
        <time>2026-07-15T12:14:57Z</time>
      </trkpt>
      <trkpt lat="42.8827" lon="-0.19232">
        <ele>1968.4</ele>
        <time>2026-07-15T12:14:57Z</time>
      </trkpt>
      <trkpt lat="42.8827" lon="-0.19233">
        <ele>1968.4</ele>
        <time>2026-07-15T12:14:58Z</time>
      </trkpt>
      <trkpt lat="42.88271" lon="-0.19233">
        <ele>1968.4</ele>
        <time>2026-07-15T12:14:59Z</time>
      </trkpt>
      <trkpt lat="42.88271" lon="-0.19234">
        <ele>1968.4</ele>
        <time>2026-07-15T12:15:00Z</time>
      </trkpt>
      <trkpt lat="42.88271" lon="-0.19234">
        <ele>1967.4</ele>
        <time>2026-07-15T12:15:00Z</time>
      </trkpt>
      <trkpt lat="42.88271" lon="-0.19234">
        <ele>1967.4</ele>
        <time>2026-07-15T12:15:01Z</time>
      </trkpt>
      <trkpt lat="42.88272" lon="-0.19235">
        <ele>1967.4</ele>
        <time>2026-07-15T12:15:02Z</time>
      </trkpt>
      <trkpt lat="42.88272" lon="-0.19235">
        <ele>1966.4</ele>
        <time>2026-07-15T12:15:03Z</time>
      </trkpt>
      <trkpt lat="42.88272" lon="-0.19234">
        <ele>1966.4</ele>
        <time>2026-07-15T12:15:03Z</time>
      </trkpt>
      <trkpt lat="42.88273" lon="-0.19234">
        <ele>1966.4</ele>
        <time>2026-07-15T12:15:04Z</time>
      </trkpt>
      <trkpt lat="42.88273" lon="-0.19235">
        <ele>1966.4</ele>
        <time>2026-07-15T12:15:05Z</time>
      </trkpt>
      <trkpt lat="42.88273" lon="-0.19235">
        <ele>1965.4</ele>
        <time>2026-07-15T12:15:06Z</time>
      </trkpt>
      <trkpt lat="42.88273" lon="-0.19235">
        <ele>1965.4</ele>
        <time>2026-07-15T12:15:07Z</time>
      </trkpt>
      <trkpt lat="42.88273" lon="-0.19236">
        <ele>1964.4</ele>
        <time>2026-07-15T12:15:08Z</time>
      </trkpt>
      <trkpt lat="42.88273" lon="-0.19236">
        <ele>1964.4</ele>
        <time>2026-07-15T12:15:08Z</time>
      </trkpt>
      <trkpt lat="42.88273" lon="-0.19237">
        <ele>1964.4</ele>
        <time>2026-07-15T12:15:09Z</time>
      </trkpt>
      <trkpt lat="42.88273" lon="-0.19238">
        <ele>1963.4</ele>
        <time>2026-07-15T12:15:09Z</time>
      </trkpt>
      <trkpt lat="42.88273" lon="-0.19239">
        <ele>1963.4</ele>
        <time>2026-07-15T12:15:10Z</time>
      </trkpt>
      <trkpt lat="42.88273" lon="-0.19239">
        <ele>1963.4</ele>
        <time>2026-07-15T12:15:10Z</time>
      </trkpt>
      <trkpt lat="42.88274" lon="-0.19239">
        <ele>1963.4</ele>
        <time>2026-07-15T12:15:11Z</time>
      </trkpt>
      <trkpt lat="42.88274" lon="-0.19239">
        <ele>1963.4</ele>
        <time>2026-07-15T12:15:12Z</time>
      </trkpt>
      <trkpt lat="42.88274" lon="-0.19239">
        <ele>1962.4</ele>
        <time>2026-07-15T12:15:12Z</time>
      </trkpt>
      <trkpt lat="42.88275" lon="-0.19239">
        <ele>1961.4</ele>
        <time>2026-07-15T12:15:13Z</time>
      </trkpt>
      <trkpt lat="42.88275" lon="-0.19239">
        <ele>1961.4</ele>
        <time>2026-07-15T12:15:14Z</time>
      </trkpt>
      <trkpt lat="42.88276" lon="-0.19239">
        <ele>1961.4</ele>
        <time>2026-07-15T12:15:14Z</time>
      </trkpt>
      <trkpt lat="42.88277" lon="-0.19239">
        <ele>1961.4</ele>
        <time>2026-07-15T12:15:15Z</time>
      </trkpt>
      <trkpt lat="42.88277" lon="-0.19239">
        <ele>1961.4</ele>
        <time>2026-07-15T12:15:15Z</time>
      </trkpt>
      <trkpt lat="42.88277" lon="-0.19239">
        <ele>1961.4</ele>
        <time>2026-07-15T12:15:16Z</time>
      </trkpt>
      <trkpt lat="42.88278" lon="-0.19239">
        <ele>1960.4</ele>
        <time>2026-07-15T12:15:17Z</time>
      </trkpt>
      <trkpt lat="42.88278" lon="-0.19239">
        <ele>1960.4</ele>
        <time>2026-07-15T12:15:18Z</time>
      </trkpt>
      <trkpt lat="42.88278" lon="-0.19239">
        <ele>1960.4</ele>
        <time>2026-07-15T12:15:18Z</time>
      </trkpt>
      <trkpt lat="42.88278" lon="-0.19239">
        <ele>1960.4</ele>
        <time>2026-07-15T12:15:19Z</time>
      </trkpt>
      <trkpt lat="42.88279" lon="-0.19239">
        <ele>1960.4</ele>
        <time>2026-07-15T12:15:20Z</time>
      </trkpt>
      <trkpt lat="42.88279" lon="-0.19239">
        <ele>1960.4</ele>
        <time>2026-07-15T12:15:20Z</time>
      </trkpt>
      <trkpt lat="42.88279" lon="-0.19239">
        <ele>1960.4</ele>
        <time>2026-07-15T12:15:21Z</time>
      </trkpt>
      <trkpt lat="42.88279" lon="-0.19239">
        <ele>1959.4</ele>
        <time>2026-07-15T12:15:21Z</time>
      </trkpt>
      <trkpt lat="42.88279" lon="-0.19239">
        <ele>1959.4</ele>
        <time>2026-07-15T12:15:22Z</time>
      </trkpt>
      <trkpt lat="42.88279" lon="-0.1924">
        <ele>1959.4</ele>
        <time>2026-07-15T12:15:23Z</time>
      </trkpt>
      <trkpt lat="42.88279" lon="-0.19241">
        <ele>1959.4</ele>
        <time>2026-07-15T12:15:23Z</time>
      </trkpt>
      <trkpt lat="42.88279" lon="-0.19242">
        <ele>1959.4</ele>
        <time>2026-07-15T12:15:24Z</time>
      </trkpt>
      <trkpt lat="42.88279" lon="-0.19242">
        <ele>1959.4</ele>
        <time>2026-07-15T12:15:24Z</time>
      </trkpt>
      <trkpt lat="42.88279" lon="-0.19243">
        <ele>1959.4</ele>
        <time>2026-07-15T12:15:25Z</time>
      </trkpt>
      <trkpt lat="42.8828" lon="-0.19244">
        <ele>1958.4</ele>
        <time>2026-07-15T12:15:26Z</time>
      </trkpt>
      <trkpt lat="42.8828" lon="-0.19245">
        <ele>1958.4</ele>
        <time>2026-07-15T12:15:26Z</time>
      </trkpt>
      <trkpt lat="42.8828" lon="-0.19245">
        <ele>1958.4</ele>
        <time>2026-07-15T12:15:27Z</time>
      </trkpt>
      <trkpt lat="42.8828" lon="-0.19246">
        <ele>1958.4</ele>
        <time>2026-07-15T12:15:27Z</time>
      </trkpt>
      <trkpt lat="42.8828" lon="-0.19246">
        <ele>1958.4</ele>
        <time>2026-07-15T12:15:28Z</time>
      </trkpt>
      <trkpt lat="42.88281" lon="-0.19246">
        <ele>1958.4</ele>
        <time>2026-07-15T12:15:28Z</time>
      </trkpt>
      <trkpt lat="42.88281" lon="-0.19247">
        <ele>1958.4</ele>
        <time>2026-07-15T12:15:29Z</time>
      </trkpt>
      <trkpt lat="42.88281" lon="-0.19247">
        <ele>1957.4</ele>
        <time>2026-07-15T12:15:29Z</time>
      </trkpt>
      <trkpt lat="42.88282" lon="-0.19247">
        <ele>1957.4</ele>
        <time>2026-07-15T12:15:30Z</time>
      </trkpt>
      <trkpt lat="42.88282" lon="-0.19247">
        <ele>1957.4</ele>
        <time>2026-07-15T12:15:30Z</time>
      </trkpt>
      <trkpt lat="42.88282" lon="-0.19247">
        <ele>1956.4</ele>
        <time>2026-07-15T12:15:31Z</time>
      </trkpt>
      <trkpt lat="42.88283" lon="-0.19248">
        <ele>1956.4</ele>
        <time>2026-07-15T12:15:32Z</time>
      </trkpt>
      <trkpt lat="42.88283" lon="-0.19248">
        <ele>1956.4</ele>
        <time>2026-07-15T12:15:32Z</time>
      </trkpt>
      <trkpt lat="42.88284" lon="-0.19249">
        <ele>1956.4</ele>
        <time>2026-07-15T12:15:33Z</time>
      </trkpt>
      <trkpt lat="42.88284" lon="-0.19249">
        <ele>1956.4</ele>
        <time>2026-07-15T12:15:33Z</time>
      </trkpt>
      <trkpt lat="42.88285" lon="-0.19249">
        <ele>1955.4</ele>
        <time>2026-07-15T12:15:34Z</time>
      </trkpt>
      <trkpt lat="42.88285" lon="-0.19249">
        <ele>1955.4</ele>
        <time>2026-07-15T12:15:35Z</time>
      </trkpt>
      <trkpt lat="42.88285" lon="-0.19249">
        <ele>1955.4</ele>
        <time>2026-07-15T12:15:35Z</time>
      </trkpt>
      <trkpt lat="42.88286" lon="-0.19249">
        <ele>1955.4</ele>
        <time>2026-07-15T12:15:36Z</time>
      </trkpt>
      <trkpt lat="42.88286" lon="-0.1925">
        <ele>1955.4</ele>
        <time>2026-07-15T12:15:37Z</time>
      </trkpt>
      <trkpt lat="42.88287" lon="-0.1925">
        <ele>1956.4</ele>
        <time>2026-07-15T12:15:37Z</time>
      </trkpt>
      <trkpt lat="42.88287" lon="-0.19251">
        <ele>1956.4</ele>
        <time>2026-07-15T12:15:38Z</time>
      </trkpt>
      <trkpt lat="42.88287" lon="-0.19252">
        <ele>1956.4</ele>
        <time>2026-07-15T12:15:39Z</time>
      </trkpt>
      <trkpt lat="42.88287" lon="-0.19252">
        <ele>1956.4</ele>
        <time>2026-07-15T12:15:39Z</time>
      </trkpt>
      <trkpt lat="42.88288" lon="-0.19253">
        <ele>1956.4</ele>
        <time>2026-07-15T12:15:40Z</time>
      </trkpt>
      <trkpt lat="42.88289" lon="-0.19253">
        <ele>1955.4</ele>
        <time>2026-07-15T12:15:41Z</time>
      </trkpt>
      <trkpt lat="42.88289" lon="-0.19253">
        <ele>1954.4</ele>
        <time>2026-07-15T12:15:42Z</time>
      </trkpt>
      <trkpt lat="42.8829" lon="-0.19253">
        <ele>1954.4</ele>
        <time>2026-07-15T12:15:43Z</time>
      </trkpt>
      <trkpt lat="42.88291" lon="-0.19253">
        <ele>1955.4</ele>
        <time>2026-07-15T12:15:43Z</time>
      </trkpt>
      <trkpt lat="42.88291" lon="-0.19253">
        <ele>1955.4</ele>
        <time>2026-07-15T12:15:44Z</time>
      </trkpt>
      <trkpt lat="42.88291" lon="-0.19253">
        <ele>1955.4</ele>
        <time>2026-07-15T12:15:45Z</time>
      </trkpt>
      <trkpt lat="42.88292" lon="-0.19253">
        <ele>1955.4</ele>
        <time>2026-07-15T12:15:45Z</time>
      </trkpt>
      <trkpt lat="42.88292" lon="-0.19254">
        <ele>1955.4</ele>
        <time>2026-07-15T12:15:46Z</time>
      </trkpt>
      <trkpt lat="42.88292" lon="-0.19254">
        <ele>1955.4</ele>
        <time>2026-07-15T12:15:47Z</time>
      </trkpt>
      <trkpt lat="42.88292" lon="-0.19255">
        <ele>1955.4</ele>
        <time>2026-07-15T12:15:47Z</time>
      </trkpt>
      <trkpt lat="42.88292" lon="-0.19256">
        <ele>1955.4</ele>
        <time>2026-07-15T12:15:48Z</time>
      </trkpt>
      <trkpt lat="42.88292" lon="-0.19256">
        <ele>1954.4</ele>
        <time>2026-07-15T12:15:48Z</time>
      </trkpt>
      <trkpt lat="42.88293" lon="-0.19257">
        <ele>1954.4</ele>
        <time>2026-07-15T12:15:49Z</time>
      </trkpt>
      <trkpt lat="42.88293" lon="-0.19258">
        <ele>1954.4</ele>
        <time>2026-07-15T12:15:50Z</time>
      </trkpt>
      <trkpt lat="42.88293" lon="-0.19258">
        <ele>1954.4</ele>
        <time>2026-07-15T12:15:51Z</time>
      </trkpt>
      <trkpt lat="42.88293" lon="-0.19259">
        <ele>1953.4</ele>
        <time>2026-07-15T12:15:51Z</time>
      </trkpt>
      <trkpt lat="42.88293" lon="-0.19259">
        <ele>1953.4</ele>
        <time>2026-07-15T12:15:52Z</time>
      </trkpt>
      <trkpt lat="42.88293" lon="-0.19259">
        <ele>1952.4</ele>
        <time>2026-07-15T12:15:52Z</time>
      </trkpt>
      <trkpt lat="42.88294" lon="-0.1926">
        <ele>1952.4</ele>
        <time>2026-07-15T12:15:53Z</time>
      </trkpt>
      <trkpt lat="42.88294" lon="-0.1926">
        <ele>1952.4</ele>
        <time>2026-07-15T12:15:53Z</time>
      </trkpt>
      <trkpt lat="42.88294" lon="-0.1926">
        <ele>1952.4</ele>
        <time>2026-07-15T12:15:54Z</time>
      </trkpt>
      <trkpt lat="42.88294" lon="-0.1926">
        <ele>1951.4</ele>
        <time>2026-07-15T12:15:54Z</time>
      </trkpt>
      <trkpt lat="42.88295" lon="-0.1926">
        <ele>1952.4</ele>
        <time>2026-07-15T12:15:55Z</time>
      </trkpt>
      <trkpt lat="42.88295" lon="-0.1926">
        <ele>1952.4</ele>
        <time>2026-07-15T12:15:56Z</time>
      </trkpt>
      <trkpt lat="42.88296" lon="-0.1926">
        <ele>1951.4</ele>
        <time>2026-07-15T12:15:57Z</time>
      </trkpt>
      <trkpt lat="42.88297" lon="-0.19261">
        <ele>1952.4</ele>
        <time>2026-07-15T12:15:58Z</time>
      </trkpt>
      <trkpt lat="42.88297" lon="-0.19261">
        <ele>1952.4</ele>
        <time>2026-07-15T12:15:58Z</time>
      </trkpt>
      <trkpt lat="42.88298" lon="-0.19261">
        <ele>1952.4</ele>
        <time>2026-07-15T12:15:59Z</time>
      </trkpt>
      <trkpt lat="42.88298" lon="-0.19261">
        <ele>1952.4</ele>
        <time>2026-07-15T12:15:59Z</time>
      </trkpt>
      <trkpt lat="42.88298" lon="-0.19262">
        <ele>1952.4</ele>
        <time>2026-07-15T12:16:00Z</time>
      </trkpt>
      <trkpt lat="42.88298" lon="-0.19262">
        <ele>1953.4</ele>
        <time>2026-07-15T12:16:01Z</time>
      </trkpt>
      <trkpt lat="42.88298" lon="-0.19262">
        <ele>1954.4</ele>
        <time>2026-07-15T12:16:01Z</time>
      </trkpt>
      <trkpt lat="42.88299" lon="-0.19263">
        <ele>1954.4</ele>
        <time>2026-07-15T12:16:02Z</time>
      </trkpt>
      <trkpt lat="42.883" lon="-0.19263">
        <ele>1954.4</ele>
        <time>2026-07-15T12:16:03Z</time>
      </trkpt>
      <trkpt lat="42.883" lon="-0.19263">
        <ele>1953.4</ele>
        <time>2026-07-15T12:16:03Z</time>
      </trkpt>
      <trkpt lat="42.883" lon="-0.19263">
        <ele>1953.4</ele>
        <time>2026-07-15T12:16:04Z</time>
      </trkpt>
      <trkpt lat="42.88301" lon="-0.19263">
        <ele>1953.4</ele>
        <time>2026-07-15T12:16:05Z</time>
      </trkpt>
      <trkpt lat="42.88301" lon="-0.19263">
        <ele>1953.4</ele>
        <time>2026-07-15T12:16:05Z</time>
      </trkpt>
      <trkpt lat="42.88301" lon="-0.19263">
        <ele>1953.4</ele>
        <time>2026-07-15T12:16:06Z</time>
      </trkpt>
      <trkpt lat="42.88302" lon="-0.19263">
        <ele>1953.4</ele>
        <time>2026-07-15T12:16:07Z</time>
      </trkpt>
      <trkpt lat="42.88302" lon="-0.19263">
        <ele>1952.4</ele>
        <time>2026-07-15T12:16:07Z</time>
      </trkpt>
      <trkpt lat="42.88302" lon="-0.19263">
        <ele>1952.4</ele>
        <time>2026-07-15T12:16:08Z</time>
      </trkpt>
      <trkpt lat="42.88302" lon="-0.19264">
        <ele>1952.4</ele>
        <time>2026-07-15T12:16:09Z</time>
      </trkpt>
      <trkpt lat="42.88301" lon="-0.19265">
        <ele>1952.4</ele>
        <time>2026-07-15T12:16:09Z</time>
      </trkpt>
      <trkpt lat="42.88301" lon="-0.19265">
        <ele>1952.4</ele>
        <time>2026-07-15T12:16:10Z</time>
      </trkpt>
      <trkpt lat="42.88301" lon="-0.19267">
        <ele>1951.4</ele>
        <time>2026-07-15T12:16:11Z</time>
      </trkpt>
      <trkpt lat="42.88301" lon="-0.19267">
        <ele>1951.4</ele>
        <time>2026-07-15T12:16:12Z</time>
      </trkpt>
      <trkpt lat="42.88301" lon="-0.19268">
        <ele>1950.4</ele>
        <time>2026-07-15T12:16:12Z</time>
      </trkpt>
      <trkpt lat="42.88301" lon="-0.19269">
        <ele>1950.4</ele>
        <time>2026-07-15T12:16:13Z</time>
      </trkpt>
      <trkpt lat="42.88301" lon="-0.19269">
        <ele>1950.4</ele>
        <time>2026-07-15T12:16:14Z</time>
      </trkpt>
      <trkpt lat="42.88302" lon="-0.1927">
        <ele>1949.4</ele>
        <time>2026-07-15T12:16:15Z</time>
      </trkpt>
      <trkpt lat="42.88302" lon="-0.19269">
        <ele>1949.4</ele>
        <time>2026-07-15T12:16:15Z</time>
      </trkpt>
      <trkpt lat="42.88302" lon="-0.19269">
        <ele>1949.4</ele>
        <time>2026-07-15T12:16:16Z</time>
      </trkpt>
      <trkpt lat="42.88303" lon="-0.19269">
        <ele>1949.4</ele>
        <time>2026-07-15T12:16:17Z</time>
      </trkpt>
      <trkpt lat="42.88304" lon="-0.19268">
        <ele>1948.4</ele>
        <time>2026-07-15T12:16:18Z</time>
      </trkpt>
      <trkpt lat="42.88304" lon="-0.19269">
        <ele>1948.4</ele>
        <time>2026-07-15T12:16:19Z</time>
      </trkpt>
      <trkpt lat="42.88305" lon="-0.19269">
        <ele>1948.4</ele>
        <time>2026-07-15T12:16:20Z</time>
      </trkpt>
      <trkpt lat="42.88305" lon="-0.19269">
        <ele>1948.4</ele>
        <time>2026-07-15T12:16:21Z</time>
      </trkpt>
      <trkpt lat="42.88305" lon="-0.19269">
        <ele>1947.4</ele>
        <time>2026-07-15T12:16:22Z</time>
      </trkpt>
      <trkpt lat="42.88305" lon="-0.19269">
        <ele>1947.4</ele>
        <time>2026-07-15T12:16:22Z</time>
      </trkpt>
      <trkpt lat="42.88306" lon="-0.19269">
        <ele>1947.4</ele>
        <time>2026-07-15T12:16:23Z</time>
      </trkpt>
      <trkpt lat="42.88306" lon="-0.19269">
        <ele>1946.4</ele>
        <time>2026-07-15T12:16:24Z</time>
      </trkpt>
      <trkpt lat="42.88306" lon="-0.19269">
        <ele>1945.4</ele>
        <time>2026-07-15T12:16:25Z</time>
      </trkpt>
      <trkpt lat="42.88306" lon="-0.19269">
        <ele>1945.4</ele>
        <time>2026-07-15T12:16:26Z</time>
      </trkpt>
      <trkpt lat="42.88306" lon="-0.19269">
        <ele>1945.4</ele>
        <time>2026-07-15T12:16:26Z</time>
      </trkpt>
      <trkpt lat="42.88306" lon="-0.19269">
        <ele>1945.4</ele>
        <time>2026-07-15T12:16:27Z</time>
      </trkpt>
      <trkpt lat="42.88306" lon="-0.19269">
        <ele>1944.4</ele>
        <time>2026-07-15T12:16:28Z</time>
      </trkpt>
      <trkpt lat="42.88307" lon="-0.19269">
        <ele>1944.4</ele>
        <time>2026-07-15T12:16:29Z</time>
      </trkpt>
      <trkpt lat="42.88307" lon="-0.19268">
        <ele>1944.4</ele>
        <time>2026-07-15T12:16:29Z</time>
      </trkpt>
      <trkpt lat="42.88307" lon="-0.19268">
        <ele>1944.4</ele>
        <time>2026-07-15T12:16:30Z</time>
      </trkpt>
      <trkpt lat="42.88307" lon="-0.19268">
        <ele>1944.4</ele>
        <time>2026-07-15T12:16:31Z</time>
      </trkpt>
      <trkpt lat="42.88307" lon="-0.19269">
        <ele>1944.4</ele>
        <time>2026-07-15T12:16:32Z</time>
      </trkpt>
      <trkpt lat="42.88307" lon="-0.19269">
        <ele>1944.4</ele>
        <time>2026-07-15T12:16:33Z</time>
      </trkpt>
      <trkpt lat="42.88307" lon="-0.19269">
        <ele>1944.4</ele>
        <time>2026-07-15T12:16:33Z</time>
      </trkpt>
      <trkpt lat="42.88306" lon="-0.19269">
        <ele>1944.4</ele>
        <time>2026-07-15T12:16:34Z</time>
      </trkpt>
      <trkpt lat="42.88306" lon="-0.19269">
        <ele>1944.4</ele>
        <time>2026-07-15T12:16:35Z</time>
      </trkpt>
      <trkpt lat="42.88306" lon="-0.19269">
        <ele>1944.4</ele>
        <time>2026-07-15T12:16:35Z</time>
      </trkpt>
      <trkpt lat="42.88306" lon="-0.19269">
        <ele>1944.4</ele>
        <time>2026-07-15T12:16:36Z</time>
      </trkpt>
      <trkpt lat="42.88306" lon="-0.19269">
        <ele>1944.4</ele>
        <time>2026-07-15T12:16:37Z</time>
      </trkpt>
      <trkpt lat="42.88306" lon="-0.19269">
        <ele>1943.4</ele>
        <time>2026-07-15T12:16:37Z</time>
      </trkpt>
      <trkpt lat="42.88306" lon="-0.19269">
        <ele>1943.4</ele>
        <time>2026-07-15T12:16:37Z</time>
      </trkpt>
      <trkpt lat="42.88306" lon="-0.19269">
        <ele>1943.4</ele>
        <time>2026-07-15T12:16:38Z</time>
      </trkpt>
      <trkpt lat="42.88306" lon="-0.19269">
        <ele>1943.4</ele>
        <time>2026-07-15T12:16:39Z</time>
      </trkpt>
      <trkpt lat="42.88307" lon="-0.1927">
        <ele>1942.4</ele>
        <time>2026-07-15T12:16:39Z</time>
      </trkpt>
      <trkpt lat="42.88307" lon="-0.1927">
        <ele>1942.4</ele>
        <time>2026-07-15T12:16:40Z</time>
      </trkpt>
      <trkpt lat="42.88307" lon="-0.1927">
        <ele>1942.4</ele>
        <time>2026-07-15T12:16:41Z</time>
      </trkpt>
      <trkpt lat="42.88308" lon="-0.19271">
        <ele>1941.4</ele>
        <time>2026-07-15T12:16:41Z</time>
      </trkpt>
      <trkpt lat="42.88308" lon="-0.19271">
        <ele>1941.4</ele>
        <time>2026-07-15T12:16:42Z</time>
      </trkpt>
      <trkpt lat="42.88309" lon="-0.19271">
        <ele>1941.4</ele>
        <time>2026-07-15T12:16:43Z</time>
      </trkpt>
      <trkpt lat="42.88309" lon="-0.19271">
        <ele>1941.4</ele>
        <time>2026-07-15T12:16:43Z</time>
      </trkpt>
      <trkpt lat="42.8831" lon="-0.19271">
        <ele>1941.4</ele>
        <time>2026-07-15T12:16:44Z</time>
      </trkpt>
      <trkpt lat="42.88311" lon="-0.19271">
        <ele>1940.4</ele>
        <time>2026-07-15T12:16:45Z</time>
      </trkpt>
      <trkpt lat="42.88311" lon="-0.19271">
        <ele>1939.4</ele>
        <time>2026-07-15T12:16:46Z</time>
      </trkpt>
      <trkpt lat="42.88311" lon="-0.19272">
        <ele>1939.4</ele>
        <time>2026-07-15T12:16:47Z</time>
      </trkpt>
      <trkpt lat="42.88312" lon="-0.19273">
        <ele>1939.4</ele>
        <time>2026-07-15T12:16:48Z</time>
      </trkpt>
      <trkpt lat="42.88311" lon="-0.19273">
        <ele>1939.4</ele>
        <time>2026-07-15T12:16:48Z</time>
      </trkpt>
      <trkpt lat="42.88311" lon="-0.19274">
        <ele>1939.4</ele>
        <time>2026-07-15T12:16:49Z</time>
      </trkpt>
      <trkpt lat="42.88311" lon="-0.19275">
        <ele>1938.4</ele>
        <time>2026-07-15T12:16:50Z</time>
      </trkpt>
      <trkpt lat="42.88311" lon="-0.19275">
        <ele>1937.4</ele>
        <time>2026-07-15T12:16:50Z</time>
      </trkpt>
      <trkpt lat="42.88311" lon="-0.19275">
        <ele>1937.4</ele>
        <time>2026-07-15T12:16:50Z</time>
      </trkpt>
      <trkpt lat="42.88311" lon="-0.19276">
        <ele>1937.4</ele>
        <time>2026-07-15T12:16:51Z</time>
      </trkpt>
      <trkpt lat="42.88312" lon="-0.19277">
        <ele>1937.4</ele>
        <time>2026-07-15T12:16:52Z</time>
      </trkpt>
      <trkpt lat="42.88311" lon="-0.19277">
        <ele>1937.4</ele>
        <time>2026-07-15T12:16:52Z</time>
      </trkpt>
      <trkpt lat="42.88311" lon="-0.19278">
        <ele>1937.4</ele>
        <time>2026-07-15T12:16:53Z</time>
      </trkpt>
      <trkpt lat="42.88311" lon="-0.19279">
        <ele>1937.4</ele>
        <time>2026-07-15T12:16:54Z</time>
      </trkpt>
      <trkpt lat="42.88311" lon="-0.19281">
        <ele>1936.4</ele>
        <time>2026-07-15T12:16:55Z</time>
      </trkpt>
      <trkpt lat="42.88312" lon="-0.19281">
        <ele>1936.4</ele>
        <time>2026-07-15T12:16:55Z</time>
      </trkpt>
      <trkpt lat="42.88312" lon="-0.19282">
        <ele>1936.4</ele>
        <time>2026-07-15T12:16:56Z</time>
      </trkpt>
      <trkpt lat="42.88312" lon="-0.19283">
        <ele>1936.4</ele>
        <time>2026-07-15T12:16:56Z</time>
      </trkpt>
      <trkpt lat="42.88313" lon="-0.19283">
        <ele>1937.4</ele>
        <time>2026-07-15T12:16:57Z</time>
      </trkpt>
      <trkpt lat="42.88313" lon="-0.19284">
        <ele>1937.4</ele>
        <time>2026-07-15T12:16:58Z</time>
      </trkpt>
      <trkpt lat="42.88313" lon="-0.19285">
        <ele>1937.4</ele>
        <time>2026-07-15T12:16:58Z</time>
      </trkpt>
      <trkpt lat="42.88313" lon="-0.19286">
        <ele>1937.4</ele>
        <time>2026-07-15T12:16:59Z</time>
      </trkpt>
      <trkpt lat="42.88313" lon="-0.19286">
        <ele>1937.4</ele>
        <time>2026-07-15T12:16:59Z</time>
      </trkpt>
      <trkpt lat="42.88313" lon="-0.19286">
        <ele>1937.4</ele>
        <time>2026-07-15T12:17:00Z</time>
      </trkpt>
      <trkpt lat="42.88313" lon="-0.19287">
        <ele>1937.4</ele>
        <time>2026-07-15T12:17:01Z</time>
      </trkpt>
      <trkpt lat="42.88313" lon="-0.19287">
        <ele>1937.4</ele>
        <time>2026-07-15T12:17:01Z</time>
      </trkpt>
      <trkpt lat="42.88313" lon="-0.19288">
        <ele>1937.4</ele>
        <time>2026-07-15T12:17:02Z</time>
      </trkpt>
      <trkpt lat="42.88313" lon="-0.19288">
        <ele>1936.4</ele>
        <time>2026-07-15T12:17:03Z</time>
      </trkpt>
      <trkpt lat="42.88314" lon="-0.19289">
        <ele>1936.4</ele>
        <time>2026-07-15T12:17:03Z</time>
      </trkpt>
      <trkpt lat="42.88314" lon="-0.19289">
        <ele>1936.4</ele>
        <time>2026-07-15T12:17:04Z</time>
      </trkpt>
      <trkpt lat="42.88314" lon="-0.1929">
        <ele>1936.4</ele>
        <time>2026-07-15T12:17:05Z</time>
      </trkpt>
      <trkpt lat="42.88314" lon="-0.1929">
        <ele>1936.4</ele>
        <time>2026-07-15T12:17:05Z</time>
      </trkpt>
      <trkpt lat="42.88314" lon="-0.19291">
        <ele>1936.4</ele>
        <time>2026-07-15T12:17:06Z</time>
      </trkpt>
      <trkpt lat="42.88314" lon="-0.1929">
        <ele>1936.4</ele>
        <time>2026-07-15T12:17:06Z</time>
      </trkpt>
      <trkpt lat="42.88314" lon="-0.19291">
        <ele>1936.4</ele>
        <time>2026-07-15T12:17:07Z</time>
      </trkpt>
      <trkpt lat="42.88314" lon="-0.19292">
        <ele>1936.4</ele>
        <time>2026-07-15T12:17:08Z</time>
      </trkpt>
      <trkpt lat="42.88314" lon="-0.19293">
        <ele>1936.4</ele>
        <time>2026-07-15T12:17:09Z</time>
      </trkpt>
      <trkpt lat="42.88314" lon="-0.19293">
        <ele>1935.4</ele>
        <time>2026-07-15T12:17:09Z</time>
      </trkpt>
      <trkpt lat="42.88314" lon="-0.19294">
        <ele>1935.4</ele>
        <time>2026-07-15T12:17:10Z</time>
      </trkpt>
      <trkpt lat="42.88314" lon="-0.19295">
        <ele>1935.4</ele>
        <time>2026-07-15T12:17:11Z</time>
      </trkpt>
      <trkpt lat="42.88315" lon="-0.19295">
        <ele>1934.4</ele>
        <time>2026-07-15T12:17:11Z</time>
      </trkpt>
      <trkpt lat="42.88315" lon="-0.19295">
        <ele>1934.4</ele>
        <time>2026-07-15T12:17:12Z</time>
      </trkpt>
      <trkpt lat="42.88315" lon="-0.19296">
        <ele>1934.4</ele>
        <time>2026-07-15T12:17:12Z</time>
      </trkpt>
      <trkpt lat="42.88315" lon="-0.19296">
        <ele>1934.4</ele>
        <time>2026-07-15T12:17:13Z</time>
      </trkpt>
      <trkpt lat="42.88315" lon="-0.19297">
        <ele>1934.4</ele>
        <time>2026-07-15T12:17:13Z</time>
      </trkpt>
      <trkpt lat="42.88315" lon="-0.19298">
        <ele>1934.4</ele>
        <time>2026-07-15T12:17:14Z</time>
      </trkpt>
      <trkpt lat="42.88315" lon="-0.19298">
        <ele>1932.4</ele>
        <time>2026-07-15T12:17:14Z</time>
      </trkpt>
      <trkpt lat="42.88315" lon="-0.19298">
        <ele>1933.4</ele>
        <time>2026-07-15T12:17:15Z</time>
      </trkpt>
      <trkpt lat="42.88315" lon="-0.19299">
        <ele>1933.4</ele>
        <time>2026-07-15T12:17:16Z</time>
      </trkpt>
      <trkpt lat="42.88315" lon="-0.19299">
        <ele>1933.4</ele>
        <time>2026-07-15T12:17:16Z</time>
      </trkpt>
      <trkpt lat="42.88315" lon="-0.19299">
        <ele>1933.4</ele>
        <time>2026-07-15T12:17:17Z</time>
      </trkpt>
      <trkpt lat="42.88315" lon="-0.193">
        <ele>1933.4</ele>
        <time>2026-07-15T12:17:18Z</time>
      </trkpt>
      <trkpt lat="42.88315" lon="-0.19299">
        <ele>1933.4</ele>
        <time>2026-07-15T12:17:18Z</time>
      </trkpt>
      <trkpt lat="42.88315" lon="-0.193">
        <ele>1933.4</ele>
        <time>2026-07-15T12:17:19Z</time>
      </trkpt>
      <trkpt lat="42.88315" lon="-0.19301">
        <ele>1934.4</ele>
        <time>2026-07-15T12:17:20Z</time>
      </trkpt>
      <trkpt lat="42.88315" lon="-0.19302">
        <ele>1933.4</ele>
        <time>2026-07-15T12:17:20Z</time>
      </trkpt>
      <trkpt lat="42.88316" lon="-0.19303">
        <ele>1933.4</ele>
        <time>2026-07-15T12:17:21Z</time>
      </trkpt>
      <trkpt lat="42.88316" lon="-0.19304">
        <ele>1934.4</ele>
        <time>2026-07-15T12:17:22Z</time>
      </trkpt>
      <trkpt lat="42.88316" lon="-0.19305">
        <ele>1934.4</ele>
        <time>2026-07-15T12:17:22Z</time>
      </trkpt>
      <trkpt lat="42.88316" lon="-0.19305">
        <ele>1933.4</ele>
        <time>2026-07-15T12:17:23Z</time>
      </trkpt>
      <trkpt lat="42.88316" lon="-0.19306">
        <ele>1933.4</ele>
        <time>2026-07-15T12:17:23Z</time>
      </trkpt>
      <trkpt lat="42.88317" lon="-0.19306">
        <ele>1933.4</ele>
        <time>2026-07-15T12:17:24Z</time>
      </trkpt>
      <trkpt lat="42.88317" lon="-0.19307">
        <ele>1932.4</ele>
        <time>2026-07-15T12:17:24Z</time>
      </trkpt>
      <trkpt lat="42.88317" lon="-0.19307">
        <ele>1932.4</ele>
        <time>2026-07-15T12:17:25Z</time>
      </trkpt>
      <trkpt lat="42.88317" lon="-0.19308">
        <ele>1932.4</ele>
        <time>2026-07-15T12:17:26Z</time>
      </trkpt>
      <trkpt lat="42.88317" lon="-0.19309">
        <ele>1932.4</ele>
        <time>2026-07-15T12:17:26Z</time>
      </trkpt>
      <trkpt lat="42.88317" lon="-0.19309">
        <ele>1931.4</ele>
        <time>2026-07-15T12:17:27Z</time>
      </trkpt>
      <trkpt lat="42.88317" lon="-0.19309">
        <ele>1931.4</ele>
        <time>2026-07-15T12:17:27Z</time>
      </trkpt>
      <trkpt lat="42.88318" lon="-0.19309">
        <ele>1931.4</ele>
        <time>2026-07-15T12:17:28Z</time>
      </trkpt>
      <trkpt lat="42.88318" lon="-0.1931">
        <ele>1931.4</ele>
        <time>2026-07-15T12:17:29Z</time>
      </trkpt>
      <trkpt lat="42.88318" lon="-0.19309">
        <ele>1931.4</ele>
        <time>2026-07-15T12:17:29Z</time>
      </trkpt>
      <trkpt lat="42.88319" lon="-0.1931">
        <ele>1931.4</ele>
        <time>2026-07-15T12:17:30Z</time>
      </trkpt>
      <trkpt lat="42.88319" lon="-0.1931">
        <ele>1931.4</ele>
        <time>2026-07-15T12:17:31Z</time>
      </trkpt>
      <trkpt lat="42.8832" lon="-0.1931">
        <ele>1931.4</ele>
        <time>2026-07-15T12:17:31Z</time>
      </trkpt>
      <trkpt lat="42.8832" lon="-0.1931">
        <ele>1931.4</ele>
        <time>2026-07-15T12:17:32Z</time>
      </trkpt>
      <trkpt lat="42.88321" lon="-0.1931">
        <ele>1931.4</ele>
        <time>2026-07-15T12:17:33Z</time>
      </trkpt>
      <trkpt lat="42.88321" lon="-0.19309">
        <ele>1930.4</ele>
        <time>2026-07-15T12:17:33Z</time>
      </trkpt>
      <trkpt lat="42.88321" lon="-0.19309">
        <ele>1930.4</ele>
        <time>2026-07-15T12:17:33Z</time>
      </trkpt>
      <trkpt lat="42.88321" lon="-0.19309">
        <ele>1930.4</ele>
        <time>2026-07-15T12:17:34Z</time>
      </trkpt>
      <trkpt lat="42.88321" lon="-0.1931">
        <ele>1930.4</ele>
        <time>2026-07-15T12:17:35Z</time>
      </trkpt>
      <trkpt lat="42.88321" lon="-0.1931">
        <ele>1931.4</ele>
        <time>2026-07-15T12:17:35Z</time>
      </trkpt>
      <trkpt lat="42.88321" lon="-0.19311">
        <ele>1931.4</ele>
        <time>2026-07-15T12:17:36Z</time>
      </trkpt>
      <trkpt lat="42.8832" lon="-0.19312">
        <ele>1931.4</ele>
        <time>2026-07-15T12:17:37Z</time>
      </trkpt>
      <trkpt lat="42.8832" lon="-0.19313">
        <ele>1931.4</ele>
        <time>2026-07-15T12:17:37Z</time>
      </trkpt>
      <trkpt lat="42.8832" lon="-0.19314">
        <ele>1931.4</ele>
        <time>2026-07-15T12:17:38Z</time>
      </trkpt>
      <trkpt lat="42.88319" lon="-0.19314">
        <ele>1932.4</ele>
        <time>2026-07-15T12:17:38Z</time>
      </trkpt>
      <trkpt lat="42.88319" lon="-0.19315">
        <ele>1932.4</ele>
        <time>2026-07-15T12:17:39Z</time>
      </trkpt>
      <trkpt lat="42.88319" lon="-0.19316">
        <ele>1931.4</ele>
        <time>2026-07-15T12:17:40Z</time>
      </trkpt>
      <trkpt lat="42.88318" lon="-0.19317">
        <ele>1931.4</ele>
        <time>2026-07-15T12:17:40Z</time>
      </trkpt>
      <trkpt lat="42.88318" lon="-0.19317">
        <ele>1931.4</ele>
        <time>2026-07-15T12:17:41Z</time>
      </trkpt>
      <trkpt lat="42.88318" lon="-0.19318">
        <ele>1930.4</ele>
        <time>2026-07-15T12:17:41Z</time>
      </trkpt>
      <trkpt lat="42.88317" lon="-0.19318">
        <ele>1930.4</ele>
        <time>2026-07-15T12:17:42Z</time>
      </trkpt>
      <trkpt lat="42.88317" lon="-0.19319">
        <ele>1930.4</ele>
        <time>2026-07-15T12:17:43Z</time>
      </trkpt>
      <trkpt lat="42.88316" lon="-0.19319">
        <ele>1930.4</ele>
        <time>2026-07-15T12:17:43Z</time>
      </trkpt>
      <trkpt lat="42.88316" lon="-0.1932">
        <ele>1930.4</ele>
        <time>2026-07-15T12:17:44Z</time>
      </trkpt>
      <trkpt lat="42.88315" lon="-0.1932">
        <ele>1929.4</ele>
        <time>2026-07-15T12:17:44Z</time>
      </trkpt>
      <trkpt lat="42.88315" lon="-0.19321">
        <ele>1929.4</ele>
        <time>2026-07-15T12:17:45Z</time>
      </trkpt>
      <trkpt lat="42.88316" lon="-0.19322">
        <ele>1929.4</ele>
        <time>2026-07-15T12:17:45Z</time>
      </trkpt>
      <trkpt lat="42.88316" lon="-0.19322">
        <ele>1928.4</ele>
        <time>2026-07-15T12:17:46Z</time>
      </trkpt>
      <trkpt lat="42.88316" lon="-0.19322">
        <ele>1928.4</ele>
        <time>2026-07-15T12:17:46Z</time>
      </trkpt>
      <trkpt lat="42.88317" lon="-0.19323">
        <ele>1928.4</ele>
        <time>2026-07-15T12:17:47Z</time>
      </trkpt>
      <trkpt lat="42.88318" lon="-0.19323">
        <ele>1928.4</ele>
        <time>2026-07-15T12:17:47Z</time>
      </trkpt>
      <trkpt lat="42.88318" lon="-0.19322">
        <ele>1928.4</ele>
        <time>2026-07-15T12:17:48Z</time>
      </trkpt>
      <trkpt lat="42.88319" lon="-0.19322">
        <ele>1928.4</ele>
        <time>2026-07-15T12:17:49Z</time>
      </trkpt>
      <trkpt lat="42.88319" lon="-0.19322">
        <ele>1927.4</ele>
        <time>2026-07-15T12:17:49Z</time>
      </trkpt>
      <trkpt lat="42.8832" lon="-0.19322">
        <ele>1927.4</ele>
        <time>2026-07-15T12:17:50Z</time>
      </trkpt>
      <trkpt lat="42.88321" lon="-0.19322">
        <ele>1927.4</ele>
        <time>2026-07-15T12:17:51Z</time>
      </trkpt>
      <trkpt lat="42.88321" lon="-0.19323">
        <ele>1926.4</ele>
        <time>2026-07-15T12:17:52Z</time>
      </trkpt>
      <trkpt lat="42.88321" lon="-0.19323">
        <ele>1926.4</ele>
        <time>2026-07-15T12:17:52Z</time>
      </trkpt>
      <trkpt lat="42.88322" lon="-0.19324">
        <ele>1926.4</ele>
        <time>2026-07-15T12:17:53Z</time>
      </trkpt>
      <trkpt lat="42.88322" lon="-0.19324">
        <ele>1926.4</ele>
        <time>2026-07-15T12:17:54Z</time>
      </trkpt>
      <trkpt lat="42.88322" lon="-0.19324">
        <ele>1926.4</ele>
        <time>2026-07-15T12:17:54Z</time>
      </trkpt>
      <trkpt lat="42.88322" lon="-0.19325">
        <ele>1926.4</ele>
        <time>2026-07-15T12:17:55Z</time>
      </trkpt>
      <trkpt lat="42.88322" lon="-0.19326">
        <ele>1926.4</ele>
        <time>2026-07-15T12:17:56Z</time>
      </trkpt>
      <trkpt lat="42.88322" lon="-0.19326">
        <ele>1926.4</ele>
        <time>2026-07-15T12:17:56Z</time>
      </trkpt>
      <trkpt lat="42.88322" lon="-0.19327">
        <ele>1926.4</ele>
        <time>2026-07-15T12:17:57Z</time>
      </trkpt>
      <trkpt lat="42.88322" lon="-0.19327">
        <ele>1926.4</ele>
        <time>2026-07-15T12:17:57Z</time>
      </trkpt>
      <trkpt lat="42.88322" lon="-0.19328">
        <ele>1925.4</ele>
        <time>2026-07-15T12:17:58Z</time>
      </trkpt>
      <trkpt lat="42.88322" lon="-0.19328">
        <ele>1925.4</ele>
        <time>2026-07-15T12:17:59Z</time>
      </trkpt>
      <trkpt lat="42.88322" lon="-0.19328">
        <ele>1925.4</ele>
        <time>2026-07-15T12:18:00Z</time>
      </trkpt>
      <trkpt lat="42.88322" lon="-0.19328">
        <ele>1926.4</ele>
        <time>2026-07-15T12:18:00Z</time>
      </trkpt>
      <trkpt lat="42.88323" lon="-0.19328">
        <ele>1926.4</ele>
        <time>2026-07-15T12:18:01Z</time>
      </trkpt>
      <trkpt lat="42.88324" lon="-0.19328">
        <ele>1924.4</ele>
        <time>2026-07-15T12:18:02Z</time>
      </trkpt>
      <trkpt lat="42.88324" lon="-0.19328">
        <ele>1924.4</ele>
        <time>2026-07-15T12:18:03Z</time>
      </trkpt>
      <trkpt lat="42.88325" lon="-0.19328">
        <ele>1924.4</ele>
        <time>2026-07-15T12:18:04Z</time>
      </trkpt>
      <trkpt lat="42.88325" lon="-0.19329">
        <ele>1925.4</ele>
        <time>2026-07-15T12:18:04Z</time>
      </trkpt>
      <trkpt lat="42.88326" lon="-0.19329">
        <ele>1925.4</ele>
        <time>2026-07-15T12:18:05Z</time>
      </trkpt>
      <trkpt lat="42.88326" lon="-0.19329">
        <ele>1925.4</ele>
        <time>2026-07-15T12:18:06Z</time>
      </trkpt>
      <trkpt lat="42.88327" lon="-0.19329">
        <ele>1925.4</ele>
        <time>2026-07-15T12:18:06Z</time>
      </trkpt>
      <trkpt lat="42.88327" lon="-0.19328">
        <ele>1925.4</ele>
        <time>2026-07-15T12:18:07Z</time>
      </trkpt>
      <trkpt lat="42.88327" lon="-0.19328">
        <ele>1924.4</ele>
        <time>2026-07-15T12:18:07Z</time>
      </trkpt>
      <trkpt lat="42.88328" lon="-0.19328">
        <ele>1924.4</ele>
        <time>2026-07-15T12:18:08Z</time>
      </trkpt>
      <trkpt lat="42.88327" lon="-0.19328">
        <ele>1924.4</ele>
        <time>2026-07-15T12:18:08Z</time>
      </trkpt>
      <trkpt lat="42.88328" lon="-0.19329">
        <ele>1924.4</ele>
        <time>2026-07-15T12:18:09Z</time>
      </trkpt>
      <trkpt lat="42.88328" lon="-0.19329">
        <ele>1923.4</ele>
        <time>2026-07-15T12:18:09Z</time>
      </trkpt>
      <trkpt lat="42.88328" lon="-0.19329">
        <ele>1924.4</ele>
        <time>2026-07-15T12:18:10Z</time>
      </trkpt>
      <trkpt lat="42.88329" lon="-0.1933">
        <ele>1924.4</ele>
        <time>2026-07-15T12:18:11Z</time>
      </trkpt>
      <trkpt lat="42.88329" lon="-0.1933">
        <ele>1924.4</ele>
        <time>2026-07-15T12:18:12Z</time>
      </trkpt>
      <trkpt lat="42.88329" lon="-0.1933">
        <ele>1924.4</ele>
        <time>2026-07-15T12:18:12Z</time>
      </trkpt>
      <trkpt lat="42.88329" lon="-0.1933">
        <ele>1924.4</ele>
        <time>2026-07-15T12:18:13Z</time>
      </trkpt>
      <trkpt lat="42.88329" lon="-0.1933">
        <ele>1924.4</ele>
        <time>2026-07-15T12:18:14Z</time>
      </trkpt>
      <trkpt lat="42.88329" lon="-0.1933">
        <ele>1922.4</ele>
        <time>2026-07-15T12:18:15Z</time>
      </trkpt>
      <trkpt lat="42.88329" lon="-0.1933">
        <ele>1921.4</ele>
        <time>2026-07-15T12:18:15Z</time>
      </trkpt>
      <trkpt lat="42.88329" lon="-0.1933">
        <ele>1921.4</ele>
        <time>2026-07-15T12:18:16Z</time>
      </trkpt>
      <trkpt lat="42.8833" lon="-0.19331">
        <ele>1921.4</ele>
        <time>2026-07-15T12:18:17Z</time>
      </trkpt>
      <trkpt lat="42.8833" lon="-0.19331">
        <ele>1921.4</ele>
        <time>2026-07-15T12:18:18Z</time>
      </trkpt>
      <trkpt lat="42.8833" lon="-0.19332">
        <ele>1921.4</ele>
        <time>2026-07-15T12:18:18Z</time>
      </trkpt>
      <trkpt lat="42.8833" lon="-0.19332">
        <ele>1922.4</ele>
        <time>2026-07-15T12:18:19Z</time>
      </trkpt>
      <trkpt lat="42.8833" lon="-0.19332">
        <ele>1921.4</ele>
        <time>2026-07-15T12:18:20Z</time>
      </trkpt>
      <trkpt lat="42.8833" lon="-0.19332">
        <ele>1921.4</ele>
        <time>2026-07-15T12:18:21Z</time>
      </trkpt>
      <trkpt lat="42.88331" lon="-0.19332">
        <ele>1922.4</ele>
        <time>2026-07-15T12:18:22Z</time>
      </trkpt>
      <trkpt lat="42.88331" lon="-0.19333">
        <ele>1921.4</ele>
        <time>2026-07-15T12:18:23Z</time>
      </trkpt>
      <trkpt lat="42.88331" lon="-0.19333">
        <ele>1921.4</ele>
        <time>2026-07-15T12:18:23Z</time>
      </trkpt>
      <trkpt lat="42.88331" lon="-0.19333">
        <ele>1919.4</ele>
        <time>2026-07-15T12:18:24Z</time>
      </trkpt>
      <trkpt lat="42.88331" lon="-0.19333">
        <ele>1919.4</ele>
        <time>2026-07-15T12:18:25Z</time>
      </trkpt>
      <trkpt lat="42.8833" lon="-0.19333">
        <ele>1918.4</ele>
        <time>2026-07-15T12:18:25Z</time>
      </trkpt>
      <trkpt lat="42.8833" lon="-0.19333">
        <ele>1918.4</ele>
        <time>2026-07-15T12:18:26Z</time>
      </trkpt>
      <trkpt lat="42.8833" lon="-0.19333">
        <ele>1918.4</ele>
        <time>2026-07-15T12:18:27Z</time>
      </trkpt>
      <trkpt lat="42.8833" lon="-0.19333">
        <ele>1918.4</ele>
        <time>2026-07-15T12:18:27Z</time>
      </trkpt>
      <trkpt lat="42.8833" lon="-0.19334">
        <ele>1918.4</ele>
        <time>2026-07-15T12:18:28Z</time>
      </trkpt>
      <trkpt lat="42.8833" lon="-0.19334">
        <ele>1918.4</ele>
        <time>2026-07-15T12:18:29Z</time>
      </trkpt>
      <trkpt lat="42.8833" lon="-0.19335">
        <ele>1918.4</ele>
        <time>2026-07-15T12:18:29Z</time>
      </trkpt>
      <trkpt lat="42.8833" lon="-0.19336">
        <ele>1918.4</ele>
        <time>2026-07-15T12:18:30Z</time>
      </trkpt>
      <trkpt lat="42.8833" lon="-0.19338">
        <ele>1918.4</ele>
        <time>2026-07-15T12:18:30Z</time>
      </trkpt>
      <trkpt lat="42.8833" lon="-0.19339">
        <ele>1918.4</ele>
        <time>2026-07-15T12:18:31Z</time>
      </trkpt>
      <trkpt lat="42.8833" lon="-0.19341">
        <ele>1917.4</ele>
        <time>2026-07-15T12:18:32Z</time>
      </trkpt>
      <trkpt lat="42.88331" lon="-0.19342">
        <ele>1916.4</ele>
        <time>2026-07-15T12:18:33Z</time>
      </trkpt>
      <trkpt lat="42.88331" lon="-0.19342">
        <ele>1915.4</ele>
        <time>2026-07-15T12:18:34Z</time>
      </trkpt>
      <trkpt lat="42.88331" lon="-0.19342">
        <ele>1915.4</ele>
        <time>2026-07-15T12:18:34Z</time>
      </trkpt>
      <trkpt lat="42.88332" lon="-0.19343">
        <ele>1915.4</ele>
        <time>2026-07-15T12:18:35Z</time>
      </trkpt>
      <trkpt lat="42.88332" lon="-0.19344">
        <ele>1914.4</ele>
        <time>2026-07-15T12:18:35Z</time>
      </trkpt>
      <trkpt lat="42.88332" lon="-0.19344">
        <ele>1913.4</ele>
        <time>2026-07-15T12:18:36Z</time>
      </trkpt>
      <trkpt lat="42.88332" lon="-0.19345">
        <ele>1913.4</ele>
        <time>2026-07-15T12:18:37Z</time>
      </trkpt>
      <trkpt lat="42.88331" lon="-0.19346">
        <ele>1914.4</ele>
        <time>2026-07-15T12:18:37Z</time>
      </trkpt>
      <trkpt lat="42.88331" lon="-0.19347">
        <ele>1914.4</ele>
        <time>2026-07-15T12:18:38Z</time>
      </trkpt>
      <trkpt lat="42.88331" lon="-0.19348">
        <ele>1914.4</ele>
        <time>2026-07-15T12:18:39Z</time>
      </trkpt>
      <trkpt lat="42.88331" lon="-0.19349">
        <ele>1914.4</ele>
        <time>2026-07-15T12:18:39Z</time>
      </trkpt>
      <trkpt lat="42.88331" lon="-0.19349">
        <ele>1914.4</ele>
        <time>2026-07-15T12:18:40Z</time>
      </trkpt>
      <trkpt lat="42.88331" lon="-0.1935">
        <ele>1914.4</ele>
        <time>2026-07-15T12:18:40Z</time>
      </trkpt>
      <trkpt lat="42.88331" lon="-0.1935">
        <ele>1913.4</ele>
        <time>2026-07-15T12:18:41Z</time>
      </trkpt>
      <trkpt lat="42.88331" lon="-0.19351">
        <ele>1913.4</ele>
        <time>2026-07-15T12:18:42Z</time>
      </trkpt>
      <trkpt lat="42.88331" lon="-0.19351">
        <ele>1913.4</ele>
        <time>2026-07-15T12:18:42Z</time>
      </trkpt>
      <trkpt lat="42.88332" lon="-0.19352">
        <ele>1913.4</ele>
        <time>2026-07-15T12:18:43Z</time>
      </trkpt>
      <trkpt lat="42.88332" lon="-0.19352">
        <ele>1913.4</ele>
        <time>2026-07-15T12:18:44Z</time>
      </trkpt>
      <trkpt lat="42.88332" lon="-0.19353">
        <ele>1913.4</ele>
        <time>2026-07-15T12:18:44Z</time>
      </trkpt>
      <trkpt lat="42.88331" lon="-0.19354">
        <ele>1914.4</ele>
        <time>2026-07-15T12:18:45Z</time>
      </trkpt>
      <trkpt lat="42.88331" lon="-0.19354">
        <ele>1914.4</ele>
        <time>2026-07-15T12:18:46Z</time>
      </trkpt>
      <trkpt lat="42.88331" lon="-0.19354">
        <ele>1914.4</ele>
        <time>2026-07-15T12:18:46Z</time>
      </trkpt>
      <trkpt lat="42.88331" lon="-0.19355">
        <ele>1914.4</ele>
        <time>2026-07-15T12:18:47Z</time>
      </trkpt>
      <trkpt lat="42.88331" lon="-0.19355">
        <ele>1913.4</ele>
        <time>2026-07-15T12:18:47Z</time>
      </trkpt>
      <trkpt lat="42.88331" lon="-0.19356">
        <ele>1913.4</ele>
        <time>2026-07-15T12:18:48Z</time>
      </trkpt>
      <trkpt lat="42.88331" lon="-0.19355">
        <ele>1913.4</ele>
        <time>2026-07-15T12:18:48Z</time>
      </trkpt>
      <trkpt lat="42.88332" lon="-0.19355">
        <ele>1911.4</ele>
        <time>2026-07-15T12:18:49Z</time>
      </trkpt>
      <trkpt lat="42.88332" lon="-0.19356">
        <ele>1911.4</ele>
        <time>2026-07-15T12:18:50Z</time>
      </trkpt>
      <trkpt lat="42.88332" lon="-0.19356">
        <ele>1911.4</ele>
        <time>2026-07-15T12:18:50Z</time>
      </trkpt>
      <trkpt lat="42.88332" lon="-0.19356">
        <ele>1911.4</ele>
        <time>2026-07-15T12:18:51Z</time>
      </trkpt>
      <trkpt lat="42.88333" lon="-0.19357">
        <ele>1911.4</ele>
        <time>2026-07-15T12:18:51Z</time>
      </trkpt>
      <trkpt lat="42.88332" lon="-0.19357">
        <ele>1911.4</ele>
        <time>2026-07-15T12:18:52Z</time>
      </trkpt>
      <trkpt lat="42.88332" lon="-0.19357">
        <ele>1911.4</ele>
        <time>2026-07-15T12:18:52Z</time>
      </trkpt>
      <trkpt lat="42.88332" lon="-0.19357">
        <ele>1910.4</ele>
        <time>2026-07-15T12:18:53Z</time>
      </trkpt>
      <trkpt lat="42.88333" lon="-0.19358">
        <ele>1910.4</ele>
        <time>2026-07-15T12:18:54Z</time>
      </trkpt>
      <trkpt lat="42.88333" lon="-0.19358">
        <ele>1909.4</ele>
        <time>2026-07-15T12:18:54Z</time>
      </trkpt>
      <trkpt lat="42.88333" lon="-0.19359">
        <ele>1909.4</ele>
        <time>2026-07-15T12:18:55Z</time>
      </trkpt>
      <trkpt lat="42.88333" lon="-0.19359">
        <ele>1909.4</ele>
        <time>2026-07-15T12:18:55Z</time>
      </trkpt>
      <trkpt lat="42.88334" lon="-0.1936">
        <ele>1909.4</ele>
        <time>2026-07-15T12:18:56Z</time>
      </trkpt>
      <trkpt lat="42.88334" lon="-0.19361">
        <ele>1909.4</ele>
        <time>2026-07-15T12:18:57Z</time>
      </trkpt>
      <trkpt lat="42.88334" lon="-0.19361">
        <ele>1909.4</ele>
        <time>2026-07-15T12:18:57Z</time>
      </trkpt>
      <trkpt lat="42.88334" lon="-0.19361">
        <ele>1908.4</ele>
        <time>2026-07-15T12:18:58Z</time>
      </trkpt>
      <trkpt lat="42.88335" lon="-0.19362">
        <ele>1908.4</ele>
        <time>2026-07-15T12:18:59Z</time>
      </trkpt>
      <trkpt lat="42.88335" lon="-0.19362">
        <ele>1908.4</ele>
        <time>2026-07-15T12:18:59Z</time>
      </trkpt>
      <trkpt lat="42.88335" lon="-0.19363">
        <ele>1907.4</ele>
        <time>2026-07-15T12:19:00Z</time>
      </trkpt>
      <trkpt lat="42.88335" lon="-0.19364">
        <ele>1907.4</ele>
        <time>2026-07-15T12:19:01Z</time>
      </trkpt>
      <trkpt lat="42.88335" lon="-0.19364">
        <ele>1907.4</ele>
        <time>2026-07-15T12:19:01Z</time>
      </trkpt>
      <trkpt lat="42.88335" lon="-0.19364">
        <ele>1908.4</ele>
        <time>2026-07-15T12:19:02Z</time>
      </trkpt>
      <trkpt lat="42.88335" lon="-0.19365">
        <ele>1908.4</ele>
        <time>2026-07-15T12:19:02Z</time>
      </trkpt>
      <trkpt lat="42.88335" lon="-0.19365">
        <ele>1908.4</ele>
        <time>2026-07-15T12:19:03Z</time>
      </trkpt>
      <trkpt lat="42.88335" lon="-0.19366">
        <ele>1908.4</ele>
        <time>2026-07-15T12:19:04Z</time>
      </trkpt>
      <trkpt lat="42.88336" lon="-0.19367">
        <ele>1908.4</ele>
        <time>2026-07-15T12:19:04Z</time>
      </trkpt>
      <trkpt lat="42.88336" lon="-0.19368">
        <ele>1908.4</ele>
        <time>2026-07-15T12:19:05Z</time>
      </trkpt>
      <trkpt lat="42.88336" lon="-0.19368">
        <ele>1908.4</ele>
        <time>2026-07-15T12:19:06Z</time>
      </trkpt>
      <trkpt lat="42.88336" lon="-0.19368">
        <ele>1907.4</ele>
        <time>2026-07-15T12:19:06Z</time>
      </trkpt>
      <trkpt lat="42.88337" lon="-0.19369">
        <ele>1907.4</ele>
        <time>2026-07-15T12:19:07Z</time>
      </trkpt>
      <trkpt lat="42.88338" lon="-0.19368">
        <ele>1907.4</ele>
        <time>2026-07-15T12:19:07Z</time>
      </trkpt>
      <trkpt lat="42.88338" lon="-0.19368">
        <ele>1907.4</ele>
        <time>2026-07-15T12:19:08Z</time>
      </trkpt>
      <trkpt lat="42.88339" lon="-0.19369">
        <ele>1907.4</ele>
        <time>2026-07-15T12:19:09Z</time>
      </trkpt>
      <trkpt lat="42.8834" lon="-0.1937">
        <ele>1907.4</ele>
        <time>2026-07-15T12:19:10Z</time>
      </trkpt>
      <trkpt lat="42.8834" lon="-0.1937">
        <ele>1906.4</ele>
        <time>2026-07-15T12:19:11Z</time>
      </trkpt>
      <trkpt lat="42.8834" lon="-0.1937">
        <ele>1905.4</ele>
        <time>2026-07-15T12:19:11Z</time>
      </trkpt>
      <trkpt lat="42.8834" lon="-0.1937">
        <ele>1905.4</ele>
        <time>2026-07-15T12:19:12Z</time>
      </trkpt>
      <trkpt lat="42.88341" lon="-0.1937">
        <ele>1905.4</ele>
        <time>2026-07-15T12:19:12Z</time>
      </trkpt>
      <trkpt lat="42.88341" lon="-0.1937">
        <ele>1905.4</ele>
        <time>2026-07-15T12:19:13Z</time>
      </trkpt>
      <trkpt lat="42.88341" lon="-0.1937">
        <ele>1904.4</ele>
        <time>2026-07-15T12:19:13Z</time>
      </trkpt>
      <trkpt lat="42.88342" lon="-0.1937">
        <ele>1904.4</ele>
        <time>2026-07-15T12:19:14Z</time>
      </trkpt>
      <trkpt lat="42.88342" lon="-0.1937">
        <ele>1903.4</ele>
        <time>2026-07-15T12:19:14Z</time>
      </trkpt>
      <trkpt lat="42.88342" lon="-0.1937">
        <ele>1903.4</ele>
        <time>2026-07-15T12:19:15Z</time>
      </trkpt>
      <trkpt lat="42.88342" lon="-0.19369">
        <ele>1902.4</ele>
        <time>2026-07-15T12:19:15Z</time>
      </trkpt>
      <trkpt lat="42.88342" lon="-0.1937">
        <ele>1902.4</ele>
        <time>2026-07-15T12:19:16Z</time>
      </trkpt>
      <trkpt lat="42.88342" lon="-0.1937">
        <ele>1902.4</ele>
        <time>2026-07-15T12:19:16Z</time>
      </trkpt>
      <trkpt lat="42.88342" lon="-0.19371">
        <ele>1902.4</ele>
        <time>2026-07-15T12:19:17Z</time>
      </trkpt>
      <trkpt lat="42.88342" lon="-0.19371">
        <ele>1901.4</ele>
        <time>2026-07-15T12:19:17Z</time>
      </trkpt>
      <trkpt lat="42.88342" lon="-0.19372">
        <ele>1901.4</ele>
        <time>2026-07-15T12:19:18Z</time>
      </trkpt>
      <trkpt lat="42.88341" lon="-0.19373">
        <ele>1901.4</ele>
        <time>2026-07-15T12:19:19Z</time>
      </trkpt>
      <trkpt lat="42.88342" lon="-0.19373">
        <ele>1901.4</ele>
        <time>2026-07-15T12:19:20Z</time>
      </trkpt>
      <trkpt lat="42.88342" lon="-0.19373">
        <ele>1900.4</ele>
        <time>2026-07-15T12:19:21Z</time>
      </trkpt>
      <trkpt lat="42.88343" lon="-0.19373">
        <ele>1900.4</ele>
        <time>2026-07-15T12:19:22Z</time>
      </trkpt>
      <trkpt lat="42.88343" lon="-0.19374">
        <ele>1899.4</ele>
        <time>2026-07-15T12:19:23Z</time>
      </trkpt>
      <trkpt lat="42.88342" lon="-0.19374">
        <ele>1899.4</ele>
        <time>2026-07-15T12:19:23Z</time>
      </trkpt>
      <trkpt lat="42.88342" lon="-0.19375">
        <ele>1899.4</ele>
        <time>2026-07-15T12:19:24Z</time>
      </trkpt>
      <trkpt lat="42.88343" lon="-0.19376">
        <ele>1899.4</ele>
        <time>2026-07-15T12:19:25Z</time>
      </trkpt>
      <trkpt lat="42.88343" lon="-0.19377">
        <ele>1899.4</ele>
        <time>2026-07-15T12:19:26Z</time>
      </trkpt>
      <trkpt lat="42.88343" lon="-0.19378">
        <ele>1898.4</ele>
        <time>2026-07-15T12:19:26Z</time>
      </trkpt>
      <trkpt lat="42.88343" lon="-0.19379">
        <ele>1898.4</ele>
        <time>2026-07-15T12:19:27Z</time>
      </trkpt>
      <trkpt lat="42.88343" lon="-0.19379">
        <ele>1899.4</ele>
        <time>2026-07-15T12:19:27Z</time>
      </trkpt>
      <trkpt lat="42.88343" lon="-0.1938">
        <ele>1899.4</ele>
        <time>2026-07-15T12:19:28Z</time>
      </trkpt>
      <trkpt lat="42.88343" lon="-0.19381">
        <ele>1898.4</ele>
        <time>2026-07-15T12:19:29Z</time>
      </trkpt>
      <trkpt lat="42.88344" lon="-0.19382">
        <ele>1898.4</ele>
        <time>2026-07-15T12:19:30Z</time>
      </trkpt>
      <trkpt lat="42.88344" lon="-0.19383">
        <ele>1897.4</ele>
        <time>2026-07-15T12:19:30Z</time>
      </trkpt>
      <trkpt lat="42.88344" lon="-0.19383">
        <ele>1897.4</ele>
        <time>2026-07-15T12:19:31Z</time>
      </trkpt>
      <trkpt lat="42.88344" lon="-0.19384">
        <ele>1897.4</ele>
        <time>2026-07-15T12:19:32Z</time>
      </trkpt>
      <trkpt lat="42.88344" lon="-0.19384">
        <ele>1897.4</ele>
        <time>2026-07-15T12:19:32Z</time>
      </trkpt>
      <trkpt lat="42.88345" lon="-0.19385">
        <ele>1897.4</ele>
        <time>2026-07-15T12:19:33Z</time>
      </trkpt>
      <trkpt lat="42.88345" lon="-0.19386">
        <ele>1897.4</ele>
        <time>2026-07-15T12:19:34Z</time>
      </trkpt>
      <trkpt lat="42.88346" lon="-0.19386">
        <ele>1896.4</ele>
        <time>2026-07-15T12:19:34Z</time>
      </trkpt>
      <trkpt lat="42.88346" lon="-0.19386">
        <ele>1895.4</ele>
        <time>2026-07-15T12:19:35Z</time>
      </trkpt>
      <trkpt lat="42.88346" lon="-0.19386">
        <ele>1895.4</ele>
        <time>2026-07-15T12:19:35Z</time>
      </trkpt>
      <trkpt lat="42.88347" lon="-0.19386">
        <ele>1895.4</ele>
        <time>2026-07-15T12:19:36Z</time>
      </trkpt>
      <trkpt lat="42.88347" lon="-0.19387">
        <ele>1895.4</ele>
        <time>2026-07-15T12:19:37Z</time>
      </trkpt>
      <trkpt lat="42.88348" lon="-0.19387">
        <ele>1895.4</ele>
        <time>2026-07-15T12:19:38Z</time>
      </trkpt>
      <trkpt lat="42.88348" lon="-0.19387">
        <ele>1895.4</ele>
        <time>2026-07-15T12:19:38Z</time>
      </trkpt>
      <trkpt lat="42.88348" lon="-0.19387">
        <ele>1895.4</ele>
        <time>2026-07-15T12:19:39Z</time>
      </trkpt>
      <trkpt lat="42.88348" lon="-0.19387">
        <ele>1894.4</ele>
        <time>2026-07-15T12:19:40Z</time>
      </trkpt>
      <trkpt lat="42.88348" lon="-0.19387">
        <ele>1894.4</ele>
        <time>2026-07-15T12:19:40Z</time>
      </trkpt>
      <trkpt lat="42.88348" lon="-0.19387">
        <ele>1894.4</ele>
        <time>2026-07-15T12:19:41Z</time>
      </trkpt>
      <trkpt lat="42.88349" lon="-0.19387">
        <ele>1894.4</ele>
        <time>2026-07-15T12:19:41Z</time>
      </trkpt>
      <trkpt lat="42.88349" lon="-0.19388">
        <ele>1894.4</ele>
        <time>2026-07-15T12:19:42Z</time>
      </trkpt>
      <trkpt lat="42.8835" lon="-0.19388">
        <ele>1894.4</ele>
        <time>2026-07-15T12:19:42Z</time>
      </trkpt>
      <trkpt lat="42.8835" lon="-0.19389">
        <ele>1893.4</ele>
        <time>2026-07-15T12:19:43Z</time>
      </trkpt>
      <trkpt lat="42.8835" lon="-0.19389">
        <ele>1893.4</ele>
        <time>2026-07-15T12:19:43Z</time>
      </trkpt>
      <trkpt lat="42.8835" lon="-0.1939">
        <ele>1893.4</ele>
        <time>2026-07-15T12:19:44Z</time>
      </trkpt>
      <trkpt lat="42.8835" lon="-0.19391">
        <ele>1893.4</ele>
        <time>2026-07-15T12:19:45Z</time>
      </trkpt>
      <trkpt lat="42.8835" lon="-0.19391">
        <ele>1892.4</ele>
        <time>2026-07-15T12:19:45Z</time>
      </trkpt>
      <trkpt lat="42.8835" lon="-0.19392">
        <ele>1892.4</ele>
        <time>2026-07-15T12:19:46Z</time>
      </trkpt>
      <trkpt lat="42.8835" lon="-0.19393">
        <ele>1892.4</ele>
        <time>2026-07-15T12:19:47Z</time>
      </trkpt>
      <trkpt lat="42.8835" lon="-0.19393">
        <ele>1891.4</ele>
        <time>2026-07-15T12:19:47Z</time>
      </trkpt>
      <trkpt lat="42.8835" lon="-0.19394">
        <ele>1891.4</ele>
        <time>2026-07-15T12:19:47Z</time>
      </trkpt>
      <trkpt lat="42.8835" lon="-0.19394">
        <ele>1891.4</ele>
        <time>2026-07-15T12:19:48Z</time>
      </trkpt>
      <trkpt lat="42.88351" lon="-0.19395">
        <ele>1891.4</ele>
        <time>2026-07-15T12:19:49Z</time>
      </trkpt>
      <trkpt lat="42.88351" lon="-0.19394">
        <ele>1891.4</ele>
        <time>2026-07-15T12:19:49Z</time>
      </trkpt>
      <trkpt lat="42.88351" lon="-0.19395">
        <ele>1891.4</ele>
        <time>2026-07-15T12:19:50Z</time>
      </trkpt>
      <trkpt lat="42.88352" lon="-0.19395">
        <ele>1891.4</ele>
        <time>2026-07-15T12:19:50Z</time>
      </trkpt>
      <trkpt lat="42.88352" lon="-0.19395">
        <ele>1891.4</ele>
        <time>2026-07-15T12:19:51Z</time>
      </trkpt>
      <trkpt lat="42.88352" lon="-0.19396">
        <ele>1892.4</ele>
        <time>2026-07-15T12:19:52Z</time>
      </trkpt>
      <trkpt lat="42.88353" lon="-0.19396">
        <ele>1892.4</ele>
        <time>2026-07-15T12:19:53Z</time>
      </trkpt>
      <trkpt lat="42.88353" lon="-0.19396">
        <ele>1892.4</ele>
        <time>2026-07-15T12:19:53Z</time>
      </trkpt>
      <trkpt lat="42.88353" lon="-0.19397">
        <ele>1892.4</ele>
        <time>2026-07-15T12:19:54Z</time>
      </trkpt>
      <trkpt lat="42.88354" lon="-0.19398">
        <ele>1891.4</ele>
        <time>2026-07-15T12:19:54Z</time>
      </trkpt>
      <trkpt lat="42.88354" lon="-0.19398">
        <ele>1890.4</ele>
        <time>2026-07-15T12:19:55Z</time>
      </trkpt>
      <trkpt lat="42.88354" lon="-0.19399">
        <ele>1890.4</ele>
        <time>2026-07-15T12:19:56Z</time>
      </trkpt>
      <trkpt lat="42.88354" lon="-0.194">
        <ele>1890.4</ele>
        <time>2026-07-15T12:19:56Z</time>
      </trkpt>
      <trkpt lat="42.88354" lon="-0.194">
        <ele>1890.4</ele>
        <time>2026-07-15T12:19:57Z</time>
      </trkpt>
      <trkpt lat="42.88353" lon="-0.19401">
        <ele>1890.4</ele>
        <time>2026-07-15T12:19:58Z</time>
      </trkpt>
      <trkpt lat="42.88353" lon="-0.19402">
        <ele>1889.4</ele>
        <time>2026-07-15T12:19:58Z</time>
      </trkpt>
      <trkpt lat="42.88352" lon="-0.19402">
        <ele>1889.4</ele>
        <time>2026-07-15T12:19:59Z</time>
      </trkpt>
      <trkpt lat="42.88352" lon="-0.19403">
        <ele>1888.4</ele>
        <time>2026-07-15T12:19:59Z</time>
      </trkpt>
      <trkpt lat="42.88351" lon="-0.19403">
        <ele>1889.4</ele>
        <time>2026-07-15T12:20:00Z</time>
      </trkpt>
      <trkpt lat="42.88351" lon="-0.19403">
        <ele>1889.4</ele>
        <time>2026-07-15T12:20:00Z</time>
      </trkpt>
      <trkpt lat="42.88351" lon="-0.19404">
        <ele>1890.4</ele>
        <time>2026-07-15T12:20:01Z</time>
      </trkpt>
      <trkpt lat="42.88351" lon="-0.19404">
        <ele>1890.4</ele>
        <time>2026-07-15T12:20:02Z</time>
      </trkpt>
      <trkpt lat="42.88352" lon="-0.19404">
        <ele>1890.4</ele>
        <time>2026-07-15T12:20:03Z</time>
      </trkpt>
      <trkpt lat="42.88352" lon="-0.19403">
        <ele>1890.4</ele>
        <time>2026-07-15T12:20:04Z</time>
      </trkpt>
      <trkpt lat="42.88352" lon="-0.19402">
        <ele>1890.4</ele>
        <time>2026-07-15T12:20:04Z</time>
      </trkpt>
      <trkpt lat="42.88353" lon="-0.19402">
        <ele>1889.4</ele>
        <time>2026-07-15T12:20:05Z</time>
      </trkpt>
      <trkpt lat="42.88353" lon="-0.19401">
        <ele>1889.4</ele>
        <time>2026-07-15T12:20:06Z</time>
      </trkpt>
      <trkpt lat="42.88354" lon="-0.194">
        <ele>1889.4</ele>
        <time>2026-07-15T12:20:06Z</time>
      </trkpt>
      <trkpt lat="42.88354" lon="-0.194">
        <ele>1889.4</ele>
        <time>2026-07-15T12:20:07Z</time>
      </trkpt>
      <trkpt lat="42.88355" lon="-0.19399">
        <ele>1889.4</ele>
        <time>2026-07-15T12:20:07Z</time>
      </trkpt>
      <trkpt lat="42.88355" lon="-0.19399">
        <ele>1889.4</ele>
        <time>2026-07-15T12:20:08Z</time>
      </trkpt>
      <trkpt lat="42.88355" lon="-0.19398">
        <ele>1889.4</ele>
        <time>2026-07-15T12:20:09Z</time>
      </trkpt>
      <trkpt lat="42.88356" lon="-0.19397">
        <ele>1889.4</ele>
        <time>2026-07-15T12:20:09Z</time>
      </trkpt>
      <trkpt lat="42.88356" lon="-0.19397">
        <ele>1888.4</ele>
        <time>2026-07-15T12:20:10Z</time>
      </trkpt>
      <trkpt lat="42.88356" lon="-0.19396">
        <ele>1888.4</ele>
        <time>2026-07-15T12:20:11Z</time>
      </trkpt>
      <trkpt lat="42.88356" lon="-0.19397">
        <ele>1888.4</ele>
        <time>2026-07-15T12:20:12Z</time>
      </trkpt>
      <trkpt lat="42.88356" lon="-0.19397">
        <ele>1888.4</ele>
        <time>2026-07-15T12:20:13Z</time>
      </trkpt>
      <trkpt lat="42.88356" lon="-0.19397">
        <ele>1888.4</ele>
        <time>2026-07-15T12:20:14Z</time>
      </trkpt>
      <trkpt lat="42.88356" lon="-0.19397">
        <ele>1888.4</ele>
        <time>2026-07-15T12:20:15Z</time>
      </trkpt>
      <trkpt lat="42.88355" lon="-0.19397">
        <ele>1888.4</ele>
        <time>2026-07-15T12:20:16Z</time>
      </trkpt>
      <trkpt lat="42.88355" lon="-0.19397">
        <ele>1888.4</ele>
        <time>2026-07-15T12:20:17Z</time>
      </trkpt>
      <trkpt lat="42.88355" lon="-0.19397">
        <ele>1888.4</ele>
        <time>2026-07-15T12:20:18Z</time>
      </trkpt>
      <trkpt lat="42.88355" lon="-0.19397">
        <ele>1888.4</ele>
        <time>2026-07-15T12:20:19Z</time>
      </trkpt>
      <trkpt lat="42.88356" lon="-0.19397">
        <ele>1889.4</ele>
        <time>2026-07-15T12:20:20Z</time>
      </trkpt>
      <trkpt lat="42.88356" lon="-0.19397">
        <ele>1889.4</ele>
        <time>2026-07-15T12:20:20Z</time>
      </trkpt>
      <trkpt lat="42.88356" lon="-0.19397">
        <ele>1889.4</ele>
        <time>2026-07-15T12:20:21Z</time>
      </trkpt>
      <trkpt lat="42.88356" lon="-0.19397">
        <ele>1889.4</ele>
        <time>2026-07-15T12:20:21Z</time>
      </trkpt>
      <trkpt lat="42.88356" lon="-0.19396">
        <ele>1889.4</ele>
        <time>2026-07-15T12:20:22Z</time>
      </trkpt>
      <trkpt lat="42.88357" lon="-0.19396">
        <ele>1888.4</ele>
        <time>2026-07-15T12:20:22Z</time>
      </trkpt>
      <trkpt lat="42.88357" lon="-0.19396">
        <ele>1888.4</ele>
        <time>2026-07-15T12:20:23Z</time>
      </trkpt>
      <trkpt lat="42.88357" lon="-0.19396">
        <ele>1888.4</ele>
        <time>2026-07-15T12:20:24Z</time>
      </trkpt>
      <trkpt lat="42.88358" lon="-0.19396">
        <ele>1888.4</ele>
        <time>2026-07-15T12:20:24Z</time>
      </trkpt>
      <trkpt lat="42.88359" lon="-0.19397">
        <ele>1888.4</ele>
        <time>2026-07-15T12:20:24Z</time>
      </trkpt>
      <trkpt lat="42.88359" lon="-0.19397">
        <ele>1888.4</ele>
        <time>2026-07-15T12:20:25Z</time>
      </trkpt>
      <trkpt lat="42.8836" lon="-0.19397">
        <ele>1888.4</ele>
        <time>2026-07-15T12:20:26Z</time>
      </trkpt>
      <trkpt lat="42.88361" lon="-0.19397">
        <ele>1888.4</ele>
        <time>2026-07-15T12:20:26Z</time>
      </trkpt>
      <trkpt lat="42.88362" lon="-0.19397">
        <ele>1888.4</ele>
        <time>2026-07-15T12:20:27Z</time>
      </trkpt>
      <trkpt lat="42.88362" lon="-0.19397">
        <ele>1888.4</ele>
        <time>2026-07-15T12:20:27Z</time>
      </trkpt>
      <trkpt lat="42.88362" lon="-0.19397">
        <ele>1887.4</ele>
        <time>2026-07-15T12:20:28Z</time>
      </trkpt>
      <trkpt lat="42.88363" lon="-0.19397">
        <ele>1887.4</ele>
        <time>2026-07-15T12:20:29Z</time>
      </trkpt>
      <trkpt lat="42.88364" lon="-0.19398">
        <ele>1887.4</ele>
        <time>2026-07-15T12:20:30Z</time>
      </trkpt>
      <trkpt lat="42.88364" lon="-0.19398">
        <ele>1887.4</ele>
        <time>2026-07-15T12:20:31Z</time>
      </trkpt>
      <trkpt lat="42.88364" lon="-0.19398">
        <ele>1885.4</ele>
        <time>2026-07-15T12:20:31Z</time>
      </trkpt>
      <trkpt lat="42.88365" lon="-0.19398">
        <ele>1885.4</ele>
        <time>2026-07-15T12:20:32Z</time>
      </trkpt>
      <trkpt lat="42.88366" lon="-0.19398">
        <ele>1884.4</ele>
        <time>2026-07-15T12:20:33Z</time>
      </trkpt>
      <trkpt lat="42.88366" lon="-0.19397">
        <ele>1884.4</ele>
        <time>2026-07-15T12:20:34Z</time>
      </trkpt>
      <trkpt lat="42.88366" lon="-0.19397">
        <ele>1883.4</ele>
        <time>2026-07-15T12:20:34Z</time>
      </trkpt>
      <trkpt lat="42.88366" lon="-0.19397">
        <ele>1883.4</ele>
        <time>2026-07-15T12:20:35Z</time>
      </trkpt>
      <trkpt lat="42.88366" lon="-0.19397">
        <ele>1883.4</ele>
        <time>2026-07-15T12:20:36Z</time>
      </trkpt>
      <trkpt lat="42.88366" lon="-0.19397">
        <ele>1883.4</ele>
        <time>2026-07-15T12:20:36Z</time>
      </trkpt>
      <trkpt lat="42.88366" lon="-0.19398">
        <ele>1883.4</ele>
        <time>2026-07-15T12:20:37Z</time>
      </trkpt>
      <trkpt lat="42.88366" lon="-0.19398">
        <ele>1883.4</ele>
        <time>2026-07-15T12:20:37Z</time>
      </trkpt>
      <trkpt lat="42.88366" lon="-0.19398">
        <ele>1883.4</ele>
        <time>2026-07-15T12:20:38Z</time>
      </trkpt>
      <trkpt lat="42.88366" lon="-0.19398">
        <ele>1883.4</ele>
        <time>2026-07-15T12:20:38Z</time>
      </trkpt>
      <trkpt lat="42.88365" lon="-0.19397">
        <ele>1884.4</ele>
        <time>2026-07-15T12:20:39Z</time>
      </trkpt>
      <trkpt lat="42.88366" lon="-0.19397">
        <ele>1884.4</ele>
        <time>2026-07-15T12:20:39Z</time>
      </trkpt>
      <trkpt lat="42.88366" lon="-0.19397">
        <ele>1884.4</ele>
        <time>2026-07-15T12:20:40Z</time>
      </trkpt>
      <trkpt lat="42.88365" lon="-0.19398">
        <ele>1883.4</ele>
        <time>2026-07-15T12:20:41Z</time>
      </trkpt>
      <trkpt lat="42.88365" lon="-0.19398">
        <ele>1883.4</ele>
        <time>2026-07-15T12:20:42Z</time>
      </trkpt>
      <trkpt lat="42.88364" lon="-0.19398">
        <ele>1884.4</ele>
        <time>2026-07-15T12:20:43Z</time>
      </trkpt>
      <trkpt lat="42.88364" lon="-0.19398">
        <ele>1884.4</ele>
        <time>2026-07-15T12:20:44Z</time>
      </trkpt>
      <trkpt lat="42.88364" lon="-0.19398">
        <ele>1884.4</ele>
        <time>2026-07-15T12:20:45Z</time>
      </trkpt>
      <trkpt lat="42.88364" lon="-0.19398">
        <ele>1884.4</ele>
        <time>2026-07-15T12:20:46Z</time>
      </trkpt>
      <trkpt lat="42.88364" lon="-0.19398">
        <ele>1884.4</ele>
        <time>2026-07-15T12:20:47Z</time>
      </trkpt>
      <trkpt lat="42.88364" lon="-0.19398">
        <ele>1884.4</ele>
        <time>2026-07-15T12:20:48Z</time>
      </trkpt>
      <trkpt lat="42.88364" lon="-0.19399">
        <ele>1884.4</ele>
        <time>2026-07-15T12:20:49Z</time>
      </trkpt>
      <trkpt lat="42.88363" lon="-0.194">
        <ele>1884.4</ele>
        <time>2026-07-15T12:20:50Z</time>
      </trkpt>
      <trkpt lat="42.88363" lon="-0.194">
        <ele>1884.4</ele>
        <time>2026-07-15T12:20:51Z</time>
      </trkpt>
      <trkpt lat="42.88364" lon="-0.19401">
        <ele>1884.4</ele>
        <time>2026-07-15T12:20:52Z</time>
      </trkpt>
      <trkpt lat="42.88364" lon="-0.19402">
        <ele>1885.4</ele>
        <time>2026-07-15T12:20:53Z</time>
      </trkpt>
      <trkpt lat="42.88364" lon="-0.19403">
        <ele>1885.4</ele>
        <time>2026-07-15T12:20:54Z</time>
      </trkpt>
      <trkpt lat="42.88364" lon="-0.19404">
        <ele>1885.4</ele>
        <time>2026-07-15T12:20:55Z</time>
      </trkpt>
      <trkpt lat="42.88364" lon="-0.19404">
        <ele>1885.4</ele>
        <time>2026-07-15T12:20:56Z</time>
      </trkpt>
      <trkpt lat="42.88364" lon="-0.19404">
        <ele>1885.4</ele>
        <time>2026-07-15T12:20:57Z</time>
      </trkpt>
      <trkpt lat="42.88364" lon="-0.19406">
        <ele>1884.4</ele>
        <time>2026-07-15T12:20:58Z</time>
      </trkpt>
      <trkpt lat="42.88364" lon="-0.19407">
        <ele>1883.4</ele>
        <time>2026-07-15T12:20:59Z</time>
      </trkpt>
      <trkpt lat="42.88364" lon="-0.19409">
        <ele>1883.4</ele>
        <time>2026-07-15T12:21:00Z</time>
      </trkpt>
      <trkpt lat="42.88364" lon="-0.1941">
        <ele>1884.4</ele>
        <time>2026-07-15T12:21:01Z</time>
      </trkpt>
      <trkpt lat="42.88364" lon="-0.19411">
        <ele>1884.4</ele>
        <time>2026-07-15T12:21:02Z</time>
      </trkpt>
      <trkpt lat="42.88363" lon="-0.19412">
        <ele>1885.4</ele>
        <time>2026-07-15T12:21:03Z</time>
      </trkpt>
      <trkpt lat="42.88363" lon="-0.19412">
        <ele>1884.4</ele>
        <time>2026-07-15T12:21:04Z</time>
      </trkpt>
      <trkpt lat="42.88363" lon="-0.19413">
        <ele>1885.4</ele>
        <time>2026-07-15T12:21:05Z</time>
      </trkpt>
      <trkpt lat="42.88362" lon="-0.19414">
        <ele>1885.4</ele>
        <time>2026-07-15T12:21:06Z</time>
      </trkpt>
      <trkpt lat="42.88362" lon="-0.19415">
        <ele>1886.4</ele>
        <time>2026-07-15T12:21:07Z</time>
      </trkpt>
      <trkpt lat="42.88361" lon="-0.19415">
        <ele>1885.4</ele>
        <time>2026-07-15T12:21:08Z</time>
      </trkpt>
      <trkpt lat="42.88361" lon="-0.19416">
        <ele>1885.4</ele>
        <time>2026-07-15T12:21:09Z</time>
      </trkpt>
      <trkpt lat="42.88362" lon="-0.19415">
        <ele>1885.4</ele>
        <time>2026-07-15T12:21:10Z</time>
      </trkpt>
      <trkpt lat="42.88362" lon="-0.19415">
        <ele>1885.4</ele>
        <time>2026-07-15T12:21:11Z</time>
      </trkpt>
      <trkpt lat="42.88362" lon="-0.19414">
        <ele>1884.4</ele>
        <time>2026-07-15T12:21:12Z</time>
      </trkpt>
      <trkpt lat="42.88362" lon="-0.19414">
        <ele>1884.4</ele>
        <time>2026-07-15T12:21:13Z</time>
      </trkpt>
      <trkpt lat="42.88362" lon="-0.19414">
        <ele>1884.4</ele>
        <time>2026-07-15T12:21:14Z</time>
      </trkpt>
      <trkpt lat="42.88362" lon="-0.19414">
        <ele>1884.4</ele>
        <time>2026-07-15T12:21:15Z</time>
      </trkpt>
      <trkpt lat="42.88362" lon="-0.19414">
        <ele>1884.4</ele>
        <time>2026-07-15T12:21:16Z</time>
      </trkpt>
      <trkpt lat="42.88362" lon="-0.19414">
        <ele>1884.4</ele>
        <time>2026-07-15T12:21:17Z</time>
      </trkpt>
      <trkpt lat="42.88362" lon="-0.19414">
        <ele>1884.4</ele>
        <time>2026-07-15T12:21:18Z</time>
      </trkpt>
      <trkpt lat="42.88362" lon="-0.19413">
        <ele>1884.4</ele>
        <time>2026-07-15T12:21:19Z</time>
      </trkpt>
      <trkpt lat="42.88362" lon="-0.19413">
        <ele>1884.4</ele>
        <time>2026-07-15T12:21:20Z</time>
      </trkpt>
      <trkpt lat="42.88362" lon="-0.19413">
        <ele>1884.4</ele>
        <time>2026-07-15T12:21:21Z</time>
      </trkpt>
      <trkpt lat="42.88362" lon="-0.19413">
        <ele>1884.4</ele>
        <time>2026-07-15T12:21:22Z</time>
      </trkpt>
      <trkpt lat="42.88362" lon="-0.19413">
        <ele>1884.4</ele>
        <time>2026-07-15T12:21:23Z</time>
      </trkpt>
      <trkpt lat="42.88362" lon="-0.19413">
        <ele>1884.4</ele>
        <time>2026-07-15T12:21:24Z</time>
      </trkpt>
      <trkpt lat="42.88362" lon="-0.19413">
        <ele>1884.4</ele>
        <time>2026-07-15T12:21:25Z</time>
      </trkpt>
      <trkpt lat="42.88362" lon="-0.19413">
        <ele>1884.4</ele>
        <time>2026-07-15T12:21:26Z</time>
      </trkpt>
      <trkpt lat="42.88362" lon="-0.19413">
        <ele>1884.4</ele>
        <time>2026-07-15T12:21:27Z</time>
      </trkpt>
      <trkpt lat="42.88363" lon="-0.19413">
        <ele>1883.4</ele>
        <time>2026-07-15T12:21:28Z</time>
      </trkpt>
      <trkpt lat="42.88363" lon="-0.19413">
        <ele>1883.4</ele>
        <time>2026-07-15T12:21:29Z</time>
      </trkpt>
      <trkpt lat="42.88363" lon="-0.19413">
        <ele>1883.4</ele>
        <time>2026-07-15T12:21:30Z</time>
      </trkpt>
      <trkpt lat="42.88364" lon="-0.19413">
        <ele>1882.4</ele>
        <time>2026-07-15T12:21:31Z</time>
      </trkpt>
      <trkpt lat="42.88364" lon="-0.19413">
        <ele>1882.4</ele>
        <time>2026-07-15T12:21:32Z</time>
      </trkpt>
      <trkpt lat="42.88365" lon="-0.19412">
        <ele>1881.4</ele>
        <time>2026-07-15T12:21:33Z</time>
      </trkpt>
      <trkpt lat="42.88365" lon="-0.19412">
        <ele>1881.4</ele>
        <time>2026-07-15T12:21:34Z</time>
      </trkpt>
      <trkpt lat="42.88366" lon="-0.19411">
        <ele>1880.4</ele>
        <time>2026-07-15T12:21:35Z</time>
      </trkpt>
      <trkpt lat="42.88367" lon="-0.1941">
        <ele>1880.4</ele>
        <time>2026-07-15T12:21:36Z</time>
      </trkpt>
      <trkpt lat="42.88367" lon="-0.19409">
        <ele>1880.4</ele>
        <time>2026-07-15T12:21:37Z</time>
      </trkpt>
      <trkpt lat="42.88368" lon="-0.19408">
        <ele>1879.4</ele>
        <time>2026-07-15T12:21:38Z</time>
      </trkpt>
      <trkpt lat="42.88368" lon="-0.19408">
        <ele>1878.4</ele>
        <time>2026-07-15T12:21:39Z</time>
      </trkpt>
      <trkpt lat="42.88369" lon="-0.19408">
        <ele>1878.4</ele>
        <time>2026-07-15T12:21:40Z</time>
      </trkpt>
      <trkpt lat="42.88369" lon="-0.19408">
        <ele>1878.4</ele>
        <time>2026-07-15T12:21:41Z</time>
      </trkpt>
      <trkpt lat="42.88369" lon="-0.19408">
        <ele>1878.4</ele>
        <time>2026-07-15T12:21:42Z</time>
      </trkpt>
      <trkpt lat="42.8837" lon="-0.19408">
        <ele>1878.4</ele>
        <time>2026-07-15T12:21:43Z</time>
      </trkpt>
      <trkpt lat="42.8837" lon="-0.19408">
        <ele>1878.4</ele>
        <time>2026-07-15T12:21:44Z</time>
      </trkpt>
      <trkpt lat="42.88369" lon="-0.19408">
        <ele>1878.4</ele>
        <time>2026-07-15T12:21:45Z</time>
      </trkpt>
      <trkpt lat="42.88369" lon="-0.19408">
        <ele>1878.4</ele>
        <time>2026-07-15T12:21:46Z</time>
      </trkpt>
      <trkpt lat="42.88369" lon="-0.19408">
        <ele>1878.4</ele>
        <time>2026-07-15T12:21:47Z</time>
      </trkpt>
      <trkpt lat="42.8837" lon="-0.19408">
        <ele>1877.4</ele>
        <time>2026-07-15T12:21:48Z</time>
      </trkpt>
      <trkpt lat="42.88371" lon="-0.19407">
        <ele>1877.4</ele>
        <time>2026-07-15T12:21:49Z</time>
      </trkpt>
      <trkpt lat="42.88372" lon="-0.19406">
        <ele>1877.4</ele>
        <time>2026-07-15T12:21:50Z</time>
      </trkpt>
      <trkpt lat="42.88372" lon="-0.19406">
        <ele>1877.4</ele>
        <time>2026-07-15T12:21:51Z</time>
      </trkpt>
      <trkpt lat="42.88373" lon="-0.19406">
        <ele>1878.4</ele>
        <time>2026-07-15T12:21:52Z</time>
      </trkpt>
      <trkpt lat="42.88374" lon="-0.19406">
        <ele>1877.4</ele>
        <time>2026-07-15T12:21:53Z</time>
      </trkpt>
      <trkpt lat="42.88374" lon="-0.19406">
        <ele>1877.4</ele>
        <time>2026-07-15T12:21:54Z</time>
      </trkpt>
      <trkpt lat="42.88375" lon="-0.19406">
        <ele>1877.4</ele>
        <time>2026-07-15T12:21:55Z</time>
      </trkpt>
      <trkpt lat="42.88375" lon="-0.19406">
        <ele>1878.4</ele>
        <time>2026-07-15T12:21:56Z</time>
      </trkpt>
      <trkpt lat="42.88375" lon="-0.19406">
        <ele>1878.4</ele>
        <time>2026-07-15T12:21:57Z</time>
      </trkpt>
      <trkpt lat="42.88375" lon="-0.19406">
        <ele>1878.4</ele>
        <time>2026-07-15T12:21:58Z</time>
      </trkpt>
      <trkpt lat="42.88375" lon="-0.19406">
        <ele>1878.4</ele>
        <time>2026-07-15T12:21:59Z</time>
      </trkpt>
      <trkpt lat="42.88376" lon="-0.19406">
        <ele>1877.4</ele>
        <time>2026-07-15T12:22:00Z</time>
      </trkpt>
      <trkpt lat="42.88377" lon="-0.19406">
        <ele>1876.4</ele>
        <time>2026-07-15T12:22:01Z</time>
      </trkpt>
      <trkpt lat="42.88377" lon="-0.19406">
        <ele>1876.4</ele>
        <time>2026-07-15T12:22:02Z</time>
      </trkpt>
      <trkpt lat="42.88378" lon="-0.19405">
        <ele>1876.4</ele>
        <time>2026-07-15T12:22:03Z</time>
      </trkpt>
      <trkpt lat="42.88379" lon="-0.19405">
        <ele>1876.4</ele>
        <time>2026-07-15T12:22:04Z</time>
      </trkpt>
      <trkpt lat="42.88379" lon="-0.19405">
        <ele>1875.4</ele>
        <time>2026-07-15T12:22:05Z</time>
      </trkpt>
      <trkpt lat="42.88381" lon="-0.19405">
        <ele>1876.4</ele>
        <time>2026-07-15T12:22:06Z</time>
      </trkpt>
      <trkpt lat="42.88381" lon="-0.19405">
        <ele>1875.4</ele>
        <time>2026-07-15T12:22:07Z</time>
      </trkpt>
      <trkpt lat="42.88382" lon="-0.19405">
        <ele>1875.4</ele>
        <time>2026-07-15T12:22:08Z</time>
      </trkpt>
      <trkpt lat="42.88383" lon="-0.19405">
        <ele>1875.4</ele>
        <time>2026-07-15T12:22:09Z</time>
      </trkpt>
      <trkpt lat="42.88384" lon="-0.19405">
        <ele>1875.4</ele>
        <time>2026-07-15T12:22:10Z</time>
      </trkpt>
      <trkpt lat="42.88384" lon="-0.19405">
        <ele>1874.4</ele>
        <time>2026-07-15T12:22:11Z</time>
      </trkpt>
      <trkpt lat="42.88385" lon="-0.19405">
        <ele>1874.4</ele>
        <time>2026-07-15T12:22:12Z</time>
      </trkpt>
      <trkpt lat="42.88386" lon="-0.19405">
        <ele>1873.4</ele>
        <time>2026-07-15T12:22:13Z</time>
      </trkpt>
      <trkpt lat="42.88386" lon="-0.19405">
        <ele>1873.4</ele>
        <time>2026-07-15T12:22:14Z</time>
      </trkpt>
      <trkpt lat="42.88386" lon="-0.19404">
        <ele>1872.4</ele>
        <time>2026-07-15T12:22:15Z</time>
      </trkpt>
      <trkpt lat="42.88387" lon="-0.19404">
        <ele>1871.4</ele>
        <time>2026-07-15T12:22:16Z</time>
      </trkpt>
      <trkpt lat="42.88388" lon="-0.19404">
        <ele>1871.4</ele>
        <time>2026-07-15T12:22:17Z</time>
      </trkpt>
      <trkpt lat="42.88389" lon="-0.19404">
        <ele>1870.4</ele>
        <time>2026-07-15T12:22:18Z</time>
      </trkpt>
      <trkpt lat="42.8839" lon="-0.19404">
        <ele>1870.4</ele>
        <time>2026-07-15T12:22:19Z</time>
      </trkpt>
      <trkpt lat="42.8839" lon="-0.19404">
        <ele>1870.4</ele>
        <time>2026-07-15T12:22:20Z</time>
      </trkpt>
      <trkpt lat="42.88391" lon="-0.19404">
        <ele>1870.4</ele>
        <time>2026-07-15T12:22:21Z</time>
      </trkpt>
      <trkpt lat="42.88391" lon="-0.19404">
        <ele>1870.4</ele>
        <time>2026-07-15T12:22:22Z</time>
      </trkpt>
      <trkpt lat="42.88392" lon="-0.19404">
        <ele>1871.4</ele>
        <time>2026-07-15T12:22:23Z</time>
      </trkpt>
      <trkpt lat="42.88392" lon="-0.19404">
        <ele>1871.4</ele>
        <time>2026-07-15T12:22:24Z</time>
      </trkpt>
      <trkpt lat="42.88392" lon="-0.19404">
        <ele>1871.4</ele>
        <time>2026-07-15T12:22:25Z</time>
      </trkpt>
      <trkpt lat="42.88393" lon="-0.19405">
        <ele>1870.4</ele>
        <time>2026-07-15T12:22:26Z</time>
      </trkpt>
      <trkpt lat="42.88394" lon="-0.19405">
        <ele>1870.4</ele>
        <time>2026-07-15T12:22:27Z</time>
      </trkpt>
      <trkpt lat="42.88395" lon="-0.19405">
        <ele>1869.4</ele>
        <time>2026-07-15T12:22:28Z</time>
      </trkpt>
      <trkpt lat="42.88395" lon="-0.19404">
        <ele>1869.4</ele>
        <time>2026-07-15T12:22:29Z</time>
      </trkpt>
      <trkpt lat="42.88396" lon="-0.19404">
        <ele>1869.4</ele>
        <time>2026-07-15T12:22:30Z</time>
      </trkpt>
      <trkpt lat="42.88396" lon="-0.19403">
        <ele>1867.4</ele>
        <time>2026-07-15T12:22:31Z</time>
      </trkpt>
      <trkpt lat="42.88397" lon="-0.19402">
        <ele>1867.4</ele>
        <time>2026-07-15T12:22:32Z</time>
      </trkpt>
      <trkpt lat="42.88397" lon="-0.194">
        <ele>1867.4</ele>
        <time>2026-07-15T12:22:33Z</time>
      </trkpt>
      <trkpt lat="42.88397" lon="-0.19399">
        <ele>1867.4</ele>
        <time>2026-07-15T12:22:34Z</time>
      </trkpt>
      <trkpt lat="42.88397" lon="-0.19398">
        <ele>1867.4</ele>
        <time>2026-07-15T12:22:35Z</time>
      </trkpt>
      <trkpt lat="42.88397" lon="-0.19396">
        <ele>1867.4</ele>
        <time>2026-07-15T12:22:36Z</time>
      </trkpt>
      <trkpt lat="42.88397" lon="-0.19395">
        <ele>1868.4</ele>
        <time>2026-07-15T12:22:37Z</time>
      </trkpt>
      <trkpt lat="42.88397" lon="-0.19395">
        <ele>1867.4</ele>
        <time>2026-07-15T12:22:38Z</time>
      </trkpt>
      <trkpt lat="42.88397" lon="-0.19395">
        <ele>1867.4</ele>
        <time>2026-07-15T12:22:39Z</time>
      </trkpt>
      <trkpt lat="42.88397" lon="-0.19394">
        <ele>1867.4</ele>
        <time>2026-07-15T12:22:40Z</time>
      </trkpt>
      <trkpt lat="42.88397" lon="-0.19395">
        <ele>1867.4</ele>
        <time>2026-07-15T12:22:41Z</time>
      </trkpt>
      <trkpt lat="42.88397" lon="-0.19395">
        <ele>1867.4</ele>
        <time>2026-07-15T12:22:42Z</time>
      </trkpt>
      <trkpt lat="42.88397" lon="-0.19396">
        <ele>1867.4</ele>
        <time>2026-07-15T12:22:43Z</time>
      </trkpt>
      <trkpt lat="42.88397" lon="-0.19396">
        <ele>1867.4</ele>
        <time>2026-07-15T12:22:44Z</time>
      </trkpt>
      <trkpt lat="42.88397" lon="-0.19396">
        <ele>1867.4</ele>
        <time>2026-07-15T12:22:45Z</time>
      </trkpt>
      <trkpt lat="42.88397" lon="-0.19396">
        <ele>1867.4</ele>
        <time>2026-07-15T12:22:46Z</time>
      </trkpt>
      <trkpt lat="42.88397" lon="-0.19396">
        <ele>1867.4</ele>
        <time>2026-07-15T12:22:47Z</time>
      </trkpt>
      <trkpt lat="42.88397" lon="-0.19396">
        <ele>1867.4</ele>
        <time>2026-07-15T12:22:48Z</time>
      </trkpt>
      <trkpt lat="42.88397" lon="-0.19396">
        <ele>1867.4</ele>
        <time>2026-07-15T12:22:49Z</time>
      </trkpt>
      <trkpt lat="42.88397" lon="-0.19396">
        <ele>1867.4</ele>
        <time>2026-07-15T12:22:50Z</time>
      </trkpt>
      <trkpt lat="42.88397" lon="-0.19396">
        <ele>1867.4</ele>
        <time>2026-07-15T12:22:51Z</time>
      </trkpt>
      <trkpt lat="42.88397" lon="-0.19396">
        <ele>1867.4</ele>
        <time>2026-07-15T12:22:52Z</time>
      </trkpt>
      <trkpt lat="42.88397" lon="-0.19396">
        <ele>1867.4</ele>
        <time>2026-07-15T12:22:53Z</time>
      </trkpt>
      <trkpt lat="42.88397" lon="-0.19396">
        <ele>1866.4</ele>
        <time>2026-07-15T12:22:54Z</time>
      </trkpt>
      <trkpt lat="42.88397" lon="-0.19396">
        <ele>1866.4</ele>
        <time>2026-07-15T12:22:55Z</time>
      </trkpt>
      <trkpt lat="42.88397" lon="-0.19396">
        <ele>1866.4</ele>
        <time>2026-07-15T12:22:56Z</time>
      </trkpt>
      <trkpt lat="42.88397" lon="-0.19396">
        <ele>1866.4</ele>
        <time>2026-07-15T12:22:57Z</time>
      </trkpt>
      <trkpt lat="42.88396" lon="-0.19396">
        <ele>1866.4</ele>
        <time>2026-07-15T12:22:58Z</time>
      </trkpt>
      <trkpt lat="42.88396" lon="-0.19396">
        <ele>1866.4</ele>
        <time>2026-07-15T12:22:59Z</time>
      </trkpt>
      <trkpt lat="42.88396" lon="-0.19396">
        <ele>1866.4</ele>
        <time>2026-07-15T12:23:00Z</time>
      </trkpt>
      <trkpt lat="42.88396" lon="-0.19396">
        <ele>1866.4</ele>
        <time>2026-07-15T12:23:01Z</time>
      </trkpt>
      <trkpt lat="42.88396" lon="-0.19396">
        <ele>1866.4</ele>
        <time>2026-07-15T12:23:02Z</time>
      </trkpt>
      <trkpt lat="42.88396" lon="-0.19396">
        <ele>1866.4</ele>
        <time>2026-07-15T12:23:03Z</time>
      </trkpt>
      <trkpt lat="42.88396" lon="-0.19396">
        <ele>1866.4</ele>
        <time>2026-07-15T12:23:04Z</time>
      </trkpt>
      <trkpt lat="42.88396" lon="-0.19396">
        <ele>1867.4</ele>
        <time>2026-07-15T12:23:05Z</time>
      </trkpt>
      <trkpt lat="42.88396" lon="-0.19396">
        <ele>1866.4</ele>
        <time>2026-07-15T12:23:06Z</time>
      </trkpt>
      <trkpt lat="42.88396" lon="-0.19396">
        <ele>1866.4</ele>
        <time>2026-07-15T12:23:07Z</time>
      </trkpt>
      <trkpt lat="42.88396" lon="-0.19396">
        <ele>1866.4</ele>
        <time>2026-07-15T12:23:08Z</time>
      </trkpt>
      <trkpt lat="42.88396" lon="-0.19396">
        <ele>1865.4</ele>
        <time>2026-07-15T12:23:09Z</time>
      </trkpt>
      <trkpt lat="42.88396" lon="-0.19396">
        <ele>1863.4</ele>
        <time>2026-07-15T12:23:10Z</time>
      </trkpt>
      <trkpt lat="42.88396" lon="-0.19396">
        <ele>1863.4</ele>
        <time>2026-07-15T12:23:11Z</time>
      </trkpt>
      <trkpt lat="42.88395" lon="-0.19396">
        <ele>1863.4</ele>
        <time>2026-07-15T12:23:12Z</time>
      </trkpt>
      <trkpt lat="42.88395" lon="-0.19396">
        <ele>1863.4</ele>
        <time>2026-07-15T12:23:13Z</time>
      </trkpt>
      <trkpt lat="42.88395" lon="-0.19396">
        <ele>1863.4</ele>
        <time>2026-07-15T12:23:14Z</time>
      </trkpt>
      <trkpt lat="42.88395" lon="-0.19396">
        <ele>1863.4</ele>
        <time>2026-07-15T12:23:15Z</time>
      </trkpt>
      <trkpt lat="42.88395" lon="-0.19396">
        <ele>1862.4</ele>
        <time>2026-07-15T12:23:16Z</time>
      </trkpt>
      <trkpt lat="42.88395" lon="-0.19396">
        <ele>1862.4</ele>
        <time>2026-07-15T12:23:17Z</time>
      </trkpt>
      <trkpt lat="42.88395" lon="-0.19396">
        <ele>1862.4</ele>
        <time>2026-07-15T12:23:18Z</time>
      </trkpt>
      <trkpt lat="42.88395" lon="-0.19396">
        <ele>1862.4</ele>
        <time>2026-07-15T12:23:19Z</time>
      </trkpt>
      <trkpt lat="42.88395" lon="-0.19396">
        <ele>1862.4</ele>
        <time>2026-07-15T12:23:20Z</time>
      </trkpt>
      <trkpt lat="42.88395" lon="-0.19396">
        <ele>1862.4</ele>
        <time>2026-07-15T12:23:21Z</time>
      </trkpt>
      <trkpt lat="42.88395" lon="-0.19396">
        <ele>1862.4</ele>
        <time>2026-07-15T12:23:22Z</time>
      </trkpt>
      <trkpt lat="42.88395" lon="-0.19396">
        <ele>1862.4</ele>
        <time>2026-07-15T12:23:23Z</time>
      </trkpt>
      <trkpt lat="42.88395" lon="-0.19396">
        <ele>1862.4</ele>
        <time>2026-07-15T12:23:24Z</time>
      </trkpt>
      <trkpt lat="42.88395" lon="-0.19396">
        <ele>1862.4</ele>
        <time>2026-07-15T12:23:25Z</time>
      </trkpt>
      <trkpt lat="42.88395" lon="-0.19396">
        <ele>1862.4</ele>
        <time>2026-07-15T12:23:26Z</time>
      </trkpt>
      <trkpt lat="42.88395" lon="-0.19396">
        <ele>1864.4</ele>
        <time>2026-07-15T12:23:27Z</time>
      </trkpt>
      <trkpt lat="42.88395" lon="-0.19396">
        <ele>1864.4</ele>
        <time>2026-07-15T12:23:28Z</time>
      </trkpt>
      <trkpt lat="42.88395" lon="-0.19396">
        <ele>1862.4</ele>
        <time>2026-07-15T12:23:28Z</time>
      </trkpt>
      <trkpt lat="42.88395" lon="-0.19396">
        <ele>1862.4</ele>
        <time>2026-07-15T12:23:29Z</time>
      </trkpt>
      <trkpt lat="42.88395" lon="-0.19396">
        <ele>1862.4</ele>
        <time>2026-07-15T12:23:30Z</time>
      </trkpt>
      <trkpt lat="42.88395" lon="-0.19396">
        <ele>1863.4</ele>
        <time>2026-07-15T12:23:30Z</time>
      </trkpt>
      <trkpt lat="42.88395" lon="-0.19396">
        <ele>1863.4</ele>
        <time>2026-07-15T12:23:31Z</time>
      </trkpt>
      <trkpt lat="42.88395" lon="-0.19397">
        <ele>1862.4</ele>
        <time>2026-07-15T12:23:32Z</time>
      </trkpt>
      <trkpt lat="42.88395" lon="-0.19397">
        <ele>1862.4</ele>
        <time>2026-07-15T12:23:33Z</time>
      </trkpt>
      <trkpt lat="42.88395" lon="-0.19397">
        <ele>1862.4</ele>
        <time>2026-07-15T12:23:33Z</time>
      </trkpt>
      <trkpt lat="42.88395" lon="-0.19397">
        <ele>1862.4</ele>
        <time>2026-07-15T12:23:34Z</time>
      </trkpt>
      <trkpt lat="42.88396" lon="-0.19397">
        <ele>1862.4</ele>
        <time>2026-07-15T12:23:35Z</time>
      </trkpt>
      <trkpt lat="42.88396" lon="-0.19397">
        <ele>1863.4</ele>
        <time>2026-07-15T12:23:35Z</time>
      </trkpt>
      <trkpt lat="42.88396" lon="-0.19397">
        <ele>1863.4</ele>
        <time>2026-07-15T12:23:36Z</time>
      </trkpt>
      <trkpt lat="42.88396" lon="-0.19397">
        <ele>1863.4</ele>
        <time>2026-07-15T12:23:36Z</time>
      </trkpt>
      <trkpt lat="42.88397" lon="-0.19398">
        <ele>1863.4</ele>
        <time>2026-07-15T12:23:37Z</time>
      </trkpt>
      <trkpt lat="42.88397" lon="-0.19399">
        <ele>1864.4</ele>
        <time>2026-07-15T12:23:38Z</time>
      </trkpt>
      <trkpt lat="42.88398" lon="-0.19399">
        <ele>1864.4</ele>
        <time>2026-07-15T12:23:39Z</time>
      </trkpt>
      <trkpt lat="42.88399" lon="-0.194">
        <ele>1864.4</ele>
        <time>2026-07-15T12:23:40Z</time>
      </trkpt>
      <trkpt lat="42.88399" lon="-0.194">
        <ele>1864.4</ele>
        <time>2026-07-15T12:23:40Z</time>
      </trkpt>
      <trkpt lat="42.88399" lon="-0.19401">
        <ele>1864.4</ele>
        <time>2026-07-15T12:23:41Z</time>
      </trkpt>
      <trkpt lat="42.884" lon="-0.19402">
        <ele>1864.4</ele>
        <time>2026-07-15T12:23:41Z</time>
      </trkpt>
      <trkpt lat="42.884" lon="-0.19402">
        <ele>1864.4</ele>
        <time>2026-07-15T12:23:42Z</time>
      </trkpt>
      <trkpt lat="42.88401" lon="-0.19403">
        <ele>1864.4</ele>
        <time>2026-07-15T12:23:43Z</time>
      </trkpt>
      <trkpt lat="42.88401" lon="-0.19404">
        <ele>1864.4</ele>
        <time>2026-07-15T12:23:44Z</time>
      </trkpt>
      <trkpt lat="42.88401" lon="-0.19404">
        <ele>1863.4</ele>
        <time>2026-07-15T12:23:44Z</time>
      </trkpt>
      <trkpt lat="42.88402" lon="-0.19404">
        <ele>1863.4</ele>
        <time>2026-07-15T12:23:45Z</time>
      </trkpt>
      <trkpt lat="42.88402" lon="-0.19404">
        <ele>1863.4</ele>
        <time>2026-07-15T12:23:45Z</time>
      </trkpt>
      <trkpt lat="42.88403" lon="-0.19404">
        <ele>1862.4</ele>
        <time>2026-07-15T12:23:46Z</time>
      </trkpt>
      <trkpt lat="42.88404" lon="-0.19405">
        <ele>1862.4</ele>
        <time>2026-07-15T12:23:47Z</time>
      </trkpt>
      <trkpt lat="42.88404" lon="-0.19405">
        <ele>1862.4</ele>
        <time>2026-07-15T12:23:47Z</time>
      </trkpt>
      <trkpt lat="42.88404" lon="-0.19404">
        <ele>1862.4</ele>
        <time>2026-07-15T12:23:48Z</time>
      </trkpt>
      <trkpt lat="42.88405" lon="-0.19405">
        <ele>1862.4</ele>
        <time>2026-07-15T12:23:49Z</time>
      </trkpt>
      <trkpt lat="42.88405" lon="-0.19404">
        <ele>1862.4</ele>
        <time>2026-07-15T12:23:49Z</time>
      </trkpt>
      <trkpt lat="42.88405" lon="-0.19405">
        <ele>1862.4</ele>
        <time>2026-07-15T12:23:50Z</time>
      </trkpt>
      <trkpt lat="42.88406" lon="-0.19404">
        <ele>1862.4</ele>
        <time>2026-07-15T12:23:50Z</time>
      </trkpt>
      <trkpt lat="42.88406" lon="-0.19404">
        <ele>1861.4</ele>
        <time>2026-07-15T12:23:51Z</time>
      </trkpt>
      <trkpt lat="42.88406" lon="-0.19405">
        <ele>1861.4</ele>
        <time>2026-07-15T12:23:52Z</time>
      </trkpt>
      <trkpt lat="42.88406" lon="-0.19405">
        <ele>1861.4</ele>
        <time>2026-07-15T12:23:53Z</time>
      </trkpt>
      <trkpt lat="42.88406" lon="-0.19405">
        <ele>1861.4</ele>
        <time>2026-07-15T12:23:53Z</time>
      </trkpt>
      <trkpt lat="42.88406" lon="-0.19405">
        <ele>1861.4</ele>
        <time>2026-07-15T12:23:54Z</time>
      </trkpt>
      <trkpt lat="42.88406" lon="-0.19406">
        <ele>1861.4</ele>
        <time>2026-07-15T12:23:55Z</time>
      </trkpt>
      <trkpt lat="42.88406" lon="-0.19406">
        <ele>1862.4</ele>
        <time>2026-07-15T12:23:55Z</time>
      </trkpt>
      <trkpt lat="42.88407" lon="-0.19406">
        <ele>1862.4</ele>
        <time>2026-07-15T12:23:56Z</time>
      </trkpt>
      <trkpt lat="42.88407" lon="-0.19407">
        <ele>1863.4</ele>
        <time>2026-07-15T12:23:57Z</time>
      </trkpt>
      <trkpt lat="42.88407" lon="-0.19408">
        <ele>1863.4</ele>
        <time>2026-07-15T12:23:58Z</time>
      </trkpt>
      <trkpt lat="42.88407" lon="-0.19408">
        <ele>1863.4</ele>
        <time>2026-07-15T12:23:59Z</time>
      </trkpt>
      <trkpt lat="42.88407" lon="-0.19409">
        <ele>1863.4</ele>
        <time>2026-07-15T12:23:59Z</time>
      </trkpt>
      <trkpt lat="42.88408" lon="-0.1941">
        <ele>1862.4</ele>
        <time>2026-07-15T12:24:00Z</time>
      </trkpt>
      <trkpt lat="42.88408" lon="-0.19411">
        <ele>1862.4</ele>
        <time>2026-07-15T12:24:01Z</time>
      </trkpt>
      <trkpt lat="42.88408" lon="-0.19412">
        <ele>1862.4</ele>
        <time>2026-07-15T12:24:01Z</time>
      </trkpt>
      <trkpt lat="42.88408" lon="-0.19413">
        <ele>1862.4</ele>
        <time>2026-07-15T12:24:02Z</time>
      </trkpt>
      <trkpt lat="42.88408" lon="-0.19413">
        <ele>1862.4</ele>
        <time>2026-07-15T12:24:02Z</time>
      </trkpt>
      <trkpt lat="42.88409" lon="-0.19414">
        <ele>1862.4</ele>
        <time>2026-07-15T12:24:03Z</time>
      </trkpt>
      <trkpt lat="42.88409" lon="-0.19414">
        <ele>1862.4</ele>
        <time>2026-07-15T12:24:04Z</time>
      </trkpt>
      <trkpt lat="42.88409" lon="-0.19415">
        <ele>1862.4</ele>
        <time>2026-07-15T12:24:04Z</time>
      </trkpt>
      <trkpt lat="42.88409" lon="-0.19415">
        <ele>1862.4</ele>
        <time>2026-07-15T12:24:05Z</time>
      </trkpt>
      <trkpt lat="42.8841" lon="-0.19415">
        <ele>1863.4</ele>
        <time>2026-07-15T12:24:05Z</time>
      </trkpt>
      <trkpt lat="42.88411" lon="-0.19415">
        <ele>1863.4</ele>
        <time>2026-07-15T12:24:06Z</time>
      </trkpt>
      <trkpt lat="42.88411" lon="-0.19415">
        <ele>1863.4</ele>
        <time>2026-07-15T12:24:06Z</time>
      </trkpt>
      <trkpt lat="42.88411" lon="-0.19416">
        <ele>1863.4</ele>
        <time>2026-07-15T12:24:07Z</time>
      </trkpt>
      <trkpt lat="42.88411" lon="-0.19416">
        <ele>1862.4</ele>
        <time>2026-07-15T12:24:08Z</time>
      </trkpt>
      <trkpt lat="42.88411" lon="-0.19415">
        <ele>1862.4</ele>
        <time>2026-07-15T12:24:09Z</time>
      </trkpt>
      <trkpt lat="42.88411" lon="-0.19414">
        <ele>1862.4</ele>
        <time>2026-07-15T12:24:10Z</time>
      </trkpt>
      <trkpt lat="42.88411" lon="-0.19414">
        <ele>1862.4</ele>
        <time>2026-07-15T12:24:11Z</time>
      </trkpt>
      <trkpt lat="42.8841" lon="-0.19414">
        <ele>1862.4</ele>
        <time>2026-07-15T12:24:12Z</time>
      </trkpt>
      <trkpt lat="42.8841" lon="-0.19414">
        <ele>1862.4</ele>
        <time>2026-07-15T12:24:12Z</time>
      </trkpt>
      <trkpt lat="42.8841" lon="-0.19414">
        <ele>1862.4</ele>
        <time>2026-07-15T12:24:13Z</time>
      </trkpt>
      <trkpt lat="42.8841" lon="-0.19414">
        <ele>1862.4</ele>
        <time>2026-07-15T12:24:14Z</time>
      </trkpt>
      <trkpt lat="42.8841" lon="-0.19415">
        <ele>1862.4</ele>
        <time>2026-07-15T12:24:15Z</time>
      </trkpt>
      <trkpt lat="42.8841" lon="-0.19416">
        <ele>1862.4</ele>
        <time>2026-07-15T12:24:15Z</time>
      </trkpt>
      <trkpt lat="42.88411" lon="-0.19416">
        <ele>1862.4</ele>
        <time>2026-07-15T12:24:16Z</time>
      </trkpt>
      <trkpt lat="42.88411" lon="-0.19417">
        <ele>1862.4</ele>
        <time>2026-07-15T12:24:16Z</time>
      </trkpt>
      <trkpt lat="42.88412" lon="-0.19418">
        <ele>1862.4</ele>
        <time>2026-07-15T12:24:17Z</time>
      </trkpt>
      <trkpt lat="42.88413" lon="-0.19418">
        <ele>1862.4</ele>
        <time>2026-07-15T12:24:18Z</time>
      </trkpt>
      <trkpt lat="42.88413" lon="-0.19419">
        <ele>1862.4</ele>
        <time>2026-07-15T12:24:18Z</time>
      </trkpt>
      <trkpt lat="42.88414" lon="-0.1942">
        <ele>1862.4</ele>
        <time>2026-07-15T12:24:19Z</time>
      </trkpt>
      <trkpt lat="42.88414" lon="-0.1942">
        <ele>1862.4</ele>
        <time>2026-07-15T12:24:19Z</time>
      </trkpt>
      <trkpt lat="42.88414" lon="-0.19421">
        <ele>1862.4</ele>
        <time>2026-07-15T12:24:20Z</time>
      </trkpt>
      <trkpt lat="42.88415" lon="-0.19422">
        <ele>1862.4</ele>
        <time>2026-07-15T12:24:21Z</time>
      </trkpt>
      <trkpt lat="42.88415" lon="-0.19423">
        <ele>1862.4</ele>
        <time>2026-07-15T12:24:21Z</time>
      </trkpt>
      <trkpt lat="42.88415" lon="-0.19424">
        <ele>1862.4</ele>
        <time>2026-07-15T12:24:22Z</time>
      </trkpt>
      <trkpt lat="42.88415" lon="-0.19424">
        <ele>1862.4</ele>
        <time>2026-07-15T12:24:23Z</time>
      </trkpt>
      <trkpt lat="42.88415" lon="-0.19424">
        <ele>1861.4</ele>
        <time>2026-07-15T12:24:23Z</time>
      </trkpt>
      <trkpt lat="42.88416" lon="-0.19424">
        <ele>1861.4</ele>
        <time>2026-07-15T12:24:24Z</time>
      </trkpt>
      <trkpt lat="42.88416" lon="-0.19424">
        <ele>1861.4</ele>
        <time>2026-07-15T12:24:24Z</time>
      </trkpt>
      <trkpt lat="42.88417" lon="-0.19425">
        <ele>1861.4</ele>
        <time>2026-07-15T12:24:25Z</time>
      </trkpt>
      <trkpt lat="42.88417" lon="-0.19425">
        <ele>1861.4</ele>
        <time>2026-07-15T12:24:26Z</time>
      </trkpt>
      <trkpt lat="42.88417" lon="-0.19425">
        <ele>1861.4</ele>
        <time>2026-07-15T12:24:26Z</time>
      </trkpt>
      <trkpt lat="42.88418" lon="-0.19426">
        <ele>1860.4</ele>
        <time>2026-07-15T12:24:27Z</time>
      </trkpt>
      <trkpt lat="42.88418" lon="-0.19426">
        <ele>1859.4</ele>
        <time>2026-07-15T12:24:27Z</time>
      </trkpt>
      <trkpt lat="42.88418" lon="-0.19426">
        <ele>1859.4</ele>
        <time>2026-07-15T12:24:28Z</time>
      </trkpt>
      <trkpt lat="42.88419" lon="-0.19426">
        <ele>1859.4</ele>
        <time>2026-07-15T12:24:29Z</time>
      </trkpt>
      <trkpt lat="42.88419" lon="-0.19426">
        <ele>1859.4</ele>
        <time>2026-07-15T12:24:30Z</time>
      </trkpt>
      <trkpt lat="42.88419" lon="-0.19426">
        <ele>1859.4</ele>
        <time>2026-07-15T12:24:30Z</time>
      </trkpt>
      <trkpt lat="42.8842" lon="-0.19426">
        <ele>1859.4</ele>
        <time>2026-07-15T12:24:31Z</time>
      </trkpt>
      <trkpt lat="42.8842" lon="-0.19427">
        <ele>1859.4</ele>
        <time>2026-07-15T12:24:31Z</time>
      </trkpt>
      <trkpt lat="42.88421" lon="-0.19427">
        <ele>1859.4</ele>
        <time>2026-07-15T12:24:32Z</time>
      </trkpt>
      <trkpt lat="42.88421" lon="-0.19427">
        <ele>1859.4</ele>
        <time>2026-07-15T12:24:33Z</time>
      </trkpt>
      <trkpt lat="42.88422" lon="-0.19428">
        <ele>1859.4</ele>
        <time>2026-07-15T12:24:34Z</time>
      </trkpt>
      <trkpt lat="42.88422" lon="-0.19428">
        <ele>1858.4</ele>
        <time>2026-07-15T12:24:34Z</time>
      </trkpt>
      <trkpt lat="42.88422" lon="-0.19429">
        <ele>1858.4</ele>
        <time>2026-07-15T12:24:35Z</time>
      </trkpt>
      <trkpt lat="42.88423" lon="-0.19429">
        <ele>1858.4</ele>
        <time>2026-07-15T12:24:35Z</time>
      </trkpt>
      <trkpt lat="42.88423" lon="-0.19429">
        <ele>1858.4</ele>
        <time>2026-07-15T12:24:36Z</time>
      </trkpt>
      <trkpt lat="42.88424" lon="-0.1943">
        <ele>1858.4</ele>
        <time>2026-07-15T12:24:37Z</time>
      </trkpt>
      <trkpt lat="42.88424" lon="-0.1943">
        <ele>1858.4</ele>
        <time>2026-07-15T12:24:38Z</time>
      </trkpt>
      <trkpt lat="42.88424" lon="-0.1943">
        <ele>1858.4</ele>
        <time>2026-07-15T12:24:39Z</time>
      </trkpt>
      <trkpt lat="42.88424" lon="-0.1943">
        <ele>1858.4</ele>
        <time>2026-07-15T12:24:39Z</time>
      </trkpt>
      <trkpt lat="42.88425" lon="-0.1943">
        <ele>1858.4</ele>
        <time>2026-07-15T12:24:40Z</time>
      </trkpt>
      <trkpt lat="42.88425" lon="-0.19431">
        <ele>1857.4</ele>
        <time>2026-07-15T12:24:41Z</time>
      </trkpt>
      <trkpt lat="42.88425" lon="-0.19431">
        <ele>1857.4</ele>
        <time>2026-07-15T12:24:42Z</time>
      </trkpt>
      <trkpt lat="42.88426" lon="-0.19431">
        <ele>1857.4</ele>
        <time>2026-07-15T12:24:42Z</time>
      </trkpt>
      <trkpt lat="42.88426" lon="-0.19432">
        <ele>1857.4</ele>
        <time>2026-07-15T12:24:43Z</time>
      </trkpt>
      <trkpt lat="42.88427" lon="-0.19432">
        <ele>1857.4</ele>
        <time>2026-07-15T12:24:43Z</time>
      </trkpt>
      <trkpt lat="42.88427" lon="-0.19432">
        <ele>1857.4</ele>
        <time>2026-07-15T12:24:44Z</time>
      </trkpt>
      <trkpt lat="42.88428" lon="-0.19433">
        <ele>1857.4</ele>
        <time>2026-07-15T12:24:44Z</time>
      </trkpt>
      <trkpt lat="42.88428" lon="-0.19433">
        <ele>1857.4</ele>
        <time>2026-07-15T12:24:45Z</time>
      </trkpt>
      <trkpt lat="42.88429" lon="-0.19433">
        <ele>1856.4</ele>
        <time>2026-07-15T12:24:46Z</time>
      </trkpt>
      <trkpt lat="42.88429" lon="-0.19433">
        <ele>1856.4</ele>
        <time>2026-07-15T12:24:46Z</time>
      </trkpt>
      <trkpt lat="42.8843" lon="-0.19433">
        <ele>1856.4</ele>
        <time>2026-07-15T12:24:47Z</time>
      </trkpt>
      <trkpt lat="42.8843" lon="-0.19432">
        <ele>1855.4</ele>
        <time>2026-07-15T12:24:47Z</time>
      </trkpt>
      <trkpt lat="42.88431" lon="-0.19432">
        <ele>1855.4</ele>
        <time>2026-07-15T12:24:48Z</time>
      </trkpt>
      <trkpt lat="42.88431" lon="-0.19431">
        <ele>1854.4</ele>
        <time>2026-07-15T12:24:49Z</time>
      </trkpt>
      <trkpt lat="42.88431" lon="-0.19431">
        <ele>1853.4</ele>
        <time>2026-07-15T12:24:49Z</time>
      </trkpt>
      <trkpt lat="42.88431" lon="-0.19431">
        <ele>1853.4</ele>
        <time>2026-07-15T12:24:50Z</time>
      </trkpt>
      <trkpt lat="42.88432" lon="-0.19431">
        <ele>1853.4</ele>
        <time>2026-07-15T12:24:51Z</time>
      </trkpt>
      <trkpt lat="42.88432" lon="-0.19431">
        <ele>1853.4</ele>
        <time>2026-07-15T12:24:51Z</time>
      </trkpt>
      <trkpt lat="42.88432" lon="-0.19431">
        <ele>1853.4</ele>
        <time>2026-07-15T12:24:52Z</time>
      </trkpt>
      <trkpt lat="42.88432" lon="-0.19431">
        <ele>1853.4</ele>
        <time>2026-07-15T12:24:53Z</time>
      </trkpt>
      <trkpt lat="42.88433" lon="-0.19431">
        <ele>1853.4</ele>
        <time>2026-07-15T12:24:54Z</time>
      </trkpt>
      <trkpt lat="42.88433" lon="-0.19431">
        <ele>1852.4</ele>
        <time>2026-07-15T12:24:55Z</time>
      </trkpt>
      <trkpt lat="42.88433" lon="-0.19431">
        <ele>1852.4</ele>
        <time>2026-07-15T12:24:55Z</time>
      </trkpt>
      <trkpt lat="42.88434" lon="-0.19431">
        <ele>1852.4</ele>
        <time>2026-07-15T12:24:56Z</time>
      </trkpt>
      <trkpt lat="42.88434" lon="-0.19431">
        <ele>1852.4</ele>
        <time>2026-07-15T12:24:57Z</time>
      </trkpt>
      <trkpt lat="42.88434" lon="-0.19431">
        <ele>1851.4</ele>
        <time>2026-07-15T12:24:57Z</time>
      </trkpt>
      <trkpt lat="42.88435" lon="-0.19431">
        <ele>1851.4</ele>
        <time>2026-07-15T12:24:58Z</time>
      </trkpt>
      <trkpt lat="42.88435" lon="-0.19432">
        <ele>1852.4</ele>
        <time>2026-07-15T12:24:58Z</time>
      </trkpt>
      <trkpt lat="42.88436" lon="-0.19432">
        <ele>1852.4</ele>
        <time>2026-07-15T12:24:59Z</time>
      </trkpt>
      <trkpt lat="42.88436" lon="-0.19432">
        <ele>1852.4</ele>
        <time>2026-07-15T12:24:59Z</time>
      </trkpt>
      <trkpt lat="42.88436" lon="-0.19432">
        <ele>1852.4</ele>
        <time>2026-07-15T12:25:00Z</time>
      </trkpt>
      <trkpt lat="42.88437" lon="-0.19432">
        <ele>1852.4</ele>
        <time>2026-07-15T12:25:01Z</time>
      </trkpt>
      <trkpt lat="42.88437" lon="-0.19432">
        <ele>1852.4</ele>
        <time>2026-07-15T12:25:01Z</time>
      </trkpt>
      <trkpt lat="42.88437" lon="-0.19432">
        <ele>1851.4</ele>
        <time>2026-07-15T12:25:02Z</time>
      </trkpt>
      <trkpt lat="42.88437" lon="-0.19432">
        <ele>1851.4</ele>
        <time>2026-07-15T12:25:03Z</time>
      </trkpt>
      <trkpt lat="42.88438" lon="-0.19432">
        <ele>1851.4</ele>
        <time>2026-07-15T12:25:03Z</time>
      </trkpt>
      <trkpt lat="42.88438" lon="-0.19432">
        <ele>1851.4</ele>
        <time>2026-07-15T12:25:04Z</time>
      </trkpt>
      <trkpt lat="42.88438" lon="-0.19432">
        <ele>1851.4</ele>
        <time>2026-07-15T12:25:04Z</time>
      </trkpt>
      <trkpt lat="42.88439" lon="-0.19433">
        <ele>1851.4</ele>
        <time>2026-07-15T12:25:05Z</time>
      </trkpt>
      <trkpt lat="42.88439" lon="-0.19433">
        <ele>1850.4</ele>
        <time>2026-07-15T12:25:05Z</time>
      </trkpt>
      <trkpt lat="42.88439" lon="-0.19433">
        <ele>1850.4</ele>
        <time>2026-07-15T12:25:06Z</time>
      </trkpt>
      <trkpt lat="42.88439" lon="-0.19434">
        <ele>1850.4</ele>
        <time>2026-07-15T12:25:07Z</time>
      </trkpt>
      <trkpt lat="42.8844" lon="-0.19434">
        <ele>1849.4</ele>
        <time>2026-07-15T12:25:07Z</time>
      </trkpt>
      <trkpt lat="42.8844" lon="-0.19434">
        <ele>1849.4</ele>
        <time>2026-07-15T12:25:08Z</time>
      </trkpt>
      <trkpt lat="42.8844" lon="-0.19434">
        <ele>1849.4</ele>
        <time>2026-07-15T12:25:08Z</time>
      </trkpt>
      <trkpt lat="42.88441" lon="-0.19434">
        <ele>1849.4</ele>
        <time>2026-07-15T12:25:09Z</time>
      </trkpt>
      <trkpt lat="42.88441" lon="-0.19434">
        <ele>1849.4</ele>
        <time>2026-07-15T12:25:10Z</time>
      </trkpt>
      <trkpt lat="42.88442" lon="-0.19433">
        <ele>1848.4</ele>
        <time>2026-07-15T12:25:10Z</time>
      </trkpt>
      <trkpt lat="42.88442" lon="-0.19433">
        <ele>1848.4</ele>
        <time>2026-07-15T12:25:11Z</time>
      </trkpt>
      <trkpt lat="42.88443" lon="-0.19432">
        <ele>1848.4</ele>
        <time>2026-07-15T12:25:12Z</time>
      </trkpt>
      <trkpt lat="42.88443" lon="-0.19432">
        <ele>1848.4</ele>
        <time>2026-07-15T12:25:12Z</time>
      </trkpt>
      <trkpt lat="42.88443" lon="-0.19431">
        <ele>1848.4</ele>
        <time>2026-07-15T12:25:13Z</time>
      </trkpt>
      <trkpt lat="42.88444" lon="-0.19431">
        <ele>1847.4</ele>
        <time>2026-07-15T12:25:13Z</time>
      </trkpt>
      <trkpt lat="42.88444" lon="-0.19431">
        <ele>1847.4</ele>
        <time>2026-07-15T12:25:14Z</time>
      </trkpt>
      <trkpt lat="42.88444" lon="-0.19431">
        <ele>1847.4</ele>
        <time>2026-07-15T12:25:15Z</time>
      </trkpt>
      <trkpt lat="42.88445" lon="-0.19431">
        <ele>1846.4</ele>
        <time>2026-07-15T12:25:16Z</time>
      </trkpt>
      <trkpt lat="42.88445" lon="-0.19432">
        <ele>1846.4</ele>
        <time>2026-07-15T12:25:16Z</time>
      </trkpt>
      <trkpt lat="42.88445" lon="-0.19432">
        <ele>1846.4</ele>
        <time>2026-07-15T12:25:17Z</time>
      </trkpt>
      <trkpt lat="42.88445" lon="-0.19432">
        <ele>1845.4</ele>
        <time>2026-07-15T12:25:17Z</time>
      </trkpt>
      <trkpt lat="42.88446" lon="-0.19432">
        <ele>1845.4</ele>
        <time>2026-07-15T12:25:18Z</time>
      </trkpt>
      <trkpt lat="42.88446" lon="-0.19432">
        <ele>1845.4</ele>
        <time>2026-07-15T12:25:19Z</time>
      </trkpt>
      <trkpt lat="42.88446" lon="-0.19432">
        <ele>1845.4</ele>
        <time>2026-07-15T12:25:20Z</time>
      </trkpt>
      <trkpt lat="42.88446" lon="-0.19432">
        <ele>1844.4</ele>
        <time>2026-07-15T12:25:20Z</time>
      </trkpt>
      <trkpt lat="42.88447" lon="-0.19432">
        <ele>1844.4</ele>
        <time>2026-07-15T12:25:21Z</time>
      </trkpt>
      <trkpt lat="42.88447" lon="-0.19432">
        <ele>1844.4</ele>
        <time>2026-07-15T12:25:22Z</time>
      </trkpt>
      <trkpt lat="42.88447" lon="-0.19432">
        <ele>1844.4</ele>
        <time>2026-07-15T12:25:23Z</time>
      </trkpt>
      <trkpt lat="42.88446" lon="-0.19432">
        <ele>1844.4</ele>
        <time>2026-07-15T12:25:24Z</time>
      </trkpt>
      <trkpt lat="42.88446" lon="-0.19432">
        <ele>1844.4</ele>
        <time>2026-07-15T12:25:24Z</time>
      </trkpt>
      <trkpt lat="42.88446" lon="-0.19433">
        <ele>1844.4</ele>
        <time>2026-07-15T12:25:25Z</time>
      </trkpt>
      <trkpt lat="42.88446" lon="-0.19433">
        <ele>1844.4</ele>
        <time>2026-07-15T12:25:26Z</time>
      </trkpt>
      <trkpt lat="42.88446" lon="-0.19433">
        <ele>1844.4</ele>
        <time>2026-07-15T12:25:26Z</time>
      </trkpt>
      <trkpt lat="42.88446" lon="-0.19433">
        <ele>1844.4</ele>
        <time>2026-07-15T12:25:27Z</time>
      </trkpt>
      <trkpt lat="42.88446" lon="-0.19433">
        <ele>1844.4</ele>
        <time>2026-07-15T12:25:27Z</time>
      </trkpt>
      <trkpt lat="42.88446" lon="-0.19433">
        <ele>1844.4</ele>
        <time>2026-07-15T12:25:28Z</time>
      </trkpt>
      <trkpt lat="42.88446" lon="-0.19433">
        <ele>1842.4</ele>
        <time>2026-07-15T12:25:29Z</time>
      </trkpt>
      <trkpt lat="42.88446" lon="-0.19433">
        <ele>1842.4</ele>
        <time>2026-07-15T12:25:29Z</time>
      </trkpt>
      <trkpt lat="42.88446" lon="-0.19433">
        <ele>1842.4</ele>
        <time>2026-07-15T12:25:30Z</time>
      </trkpt>
      <trkpt lat="42.88447" lon="-0.19434">
        <ele>1842.4</ele>
        <time>2026-07-15T12:25:31Z</time>
      </trkpt>
      <trkpt lat="42.88448" lon="-0.19435">
        <ele>1842.4</ele>
        <time>2026-07-15T12:25:31Z</time>
      </trkpt>
      <trkpt lat="42.88449" lon="-0.19435">
        <ele>1842.4</ele>
        <time>2026-07-15T12:25:32Z</time>
      </trkpt>
      <trkpt lat="42.88449" lon="-0.19435">
        <ele>1842.4</ele>
        <time>2026-07-15T12:25:33Z</time>
      </trkpt>
      <trkpt lat="42.8845" lon="-0.19435">
        <ele>1842.4</ele>
        <time>2026-07-15T12:25:34Z</time>
      </trkpt>
      <trkpt lat="42.88451" lon="-0.19435">
        <ele>1842.4</ele>
        <time>2026-07-15T12:25:34Z</time>
      </trkpt>
      <trkpt lat="42.88451" lon="-0.19435">
        <ele>1841.4</ele>
        <time>2026-07-15T12:25:35Z</time>
      </trkpt>
      <trkpt lat="42.88452" lon="-0.19435">
        <ele>1841.4</ele>
        <time>2026-07-15T12:25:36Z</time>
      </trkpt>
      <trkpt lat="42.88452" lon="-0.19435">
        <ele>1841.4</ele>
        <time>2026-07-15T12:25:37Z</time>
      </trkpt>
      <trkpt lat="42.88452" lon="-0.19435">
        <ele>1841.4</ele>
        <time>2026-07-15T12:25:37Z</time>
      </trkpt>
      <trkpt lat="42.88452" lon="-0.19435">
        <ele>1841.4</ele>
        <time>2026-07-15T12:25:38Z</time>
      </trkpt>
      <trkpt lat="42.88452" lon="-0.19435">
        <ele>1841.4</ele>
        <time>2026-07-15T12:25:39Z</time>
      </trkpt>
      <trkpt lat="42.88452" lon="-0.19435">
        <ele>1841.4</ele>
        <time>2026-07-15T12:25:40Z</time>
      </trkpt>
      <trkpt lat="42.88452" lon="-0.19435">
        <ele>1841.4</ele>
        <time>2026-07-15T12:25:41Z</time>
      </trkpt>
      <trkpt lat="42.88451" lon="-0.19434">
        <ele>1840.4</ele>
        <time>2026-07-15T12:25:42Z</time>
      </trkpt>
      <trkpt lat="42.88451" lon="-0.19434">
        <ele>1840.4</ele>
        <time>2026-07-15T12:25:43Z</time>
      </trkpt>
      <trkpt lat="42.88451" lon="-0.19435">
        <ele>1840.4</ele>
        <time>2026-07-15T12:25:44Z</time>
      </trkpt>
      <trkpt lat="42.88451" lon="-0.19435">
        <ele>1840.4</ele>
        <time>2026-07-15T12:25:45Z</time>
      </trkpt>
      <trkpt lat="42.88451" lon="-0.19435">
        <ele>1839.4</ele>
        <time>2026-07-15T12:25:46Z</time>
      </trkpt>
      <trkpt lat="42.88451" lon="-0.19434">
        <ele>1838.4</ele>
        <time>2026-07-15T12:25:47Z</time>
      </trkpt>
      <trkpt lat="42.88451" lon="-0.19434">
        <ele>1838.4</ele>
        <time>2026-07-15T12:25:48Z</time>
      </trkpt>
      <trkpt lat="42.88451" lon="-0.19434">
        <ele>1837.4</ele>
        <time>2026-07-15T12:25:49Z</time>
      </trkpt>
      <trkpt lat="42.8845" lon="-0.19434">
        <ele>1837.4</ele>
        <time>2026-07-15T12:25:50Z</time>
      </trkpt>
      <trkpt lat="42.8845" lon="-0.19434">
        <ele>1837.4</ele>
        <time>2026-07-15T12:25:51Z</time>
      </trkpt>
      <trkpt lat="42.8845" lon="-0.19434">
        <ele>1837.4</ele>
        <time>2026-07-15T12:25:52Z</time>
      </trkpt>
      <trkpt lat="42.8845" lon="-0.19434">
        <ele>1837.4</ele>
        <time>2026-07-15T12:25:53Z</time>
      </trkpt>
      <trkpt lat="42.8845" lon="-0.19434">
        <ele>1838.4</ele>
        <time>2026-07-15T12:25:54Z</time>
      </trkpt>
      <trkpt lat="42.8845" lon="-0.19434">
        <ele>1838.4</ele>
        <time>2026-07-15T12:25:54Z</time>
      </trkpt>
      <trkpt lat="42.8845" lon="-0.19434">
        <ele>1839.4</ele>
        <time>2026-07-15T12:25:55Z</time>
      </trkpt>
      <trkpt lat="42.8845" lon="-0.19434">
        <ele>1839.4</ele>
        <time>2026-07-15T12:25:56Z</time>
      </trkpt>
      <trkpt lat="42.88451" lon="-0.19434">
        <ele>1839.4</ele>
        <time>2026-07-15T12:25:57Z</time>
      </trkpt>
      <trkpt lat="42.88451" lon="-0.19434">
        <ele>1839.4</ele>
        <time>2026-07-15T12:25:58Z</time>
      </trkpt>
      <trkpt lat="42.88452" lon="-0.19434">
        <ele>1839.4</ele>
        <time>2026-07-15T12:25:59Z</time>
      </trkpt>
      <trkpt lat="42.88452" lon="-0.19434">
        <ele>1840.4</ele>
        <time>2026-07-15T12:26:00Z</time>
      </trkpt>
      <trkpt lat="42.88452" lon="-0.19434">
        <ele>1840.4</ele>
        <time>2026-07-15T12:26:01Z</time>
      </trkpt>
      <trkpt lat="42.88453" lon="-0.19435">
        <ele>1840.4</ele>
        <time>2026-07-15T12:26:02Z</time>
      </trkpt>
      <trkpt lat="42.88454" lon="-0.19435">
        <ele>1840.4</ele>
        <time>2026-07-15T12:26:02Z</time>
      </trkpt>
      <trkpt lat="42.88454" lon="-0.19435">
        <ele>1840.4</ele>
        <time>2026-07-15T12:26:03Z</time>
      </trkpt>
      <trkpt lat="42.88455" lon="-0.19436">
        <ele>1840.4</ele>
        <time>2026-07-15T12:26:04Z</time>
      </trkpt>
      <trkpt lat="42.88455" lon="-0.19436">
        <ele>1840.4</ele>
        <time>2026-07-15T12:26:04Z</time>
      </trkpt>
      <trkpt lat="42.88455" lon="-0.19436">
        <ele>1840.4</ele>
        <time>2026-07-15T12:26:05Z</time>
      </trkpt>
      <trkpt lat="42.88455" lon="-0.19436">
        <ele>1839.4</ele>
        <time>2026-07-15T12:26:06Z</time>
      </trkpt>
      <trkpt lat="42.88456" lon="-0.19437">
        <ele>1839.4</ele>
        <time>2026-07-15T12:26:06Z</time>
      </trkpt>
      <trkpt lat="42.88456" lon="-0.19437">
        <ele>1839.4</ele>
        <time>2026-07-15T12:26:07Z</time>
      </trkpt>
      <trkpt lat="42.88456" lon="-0.19437">
        <ele>1838.4</ele>
        <time>2026-07-15T12:26:08Z</time>
      </trkpt>
      <trkpt lat="42.88456" lon="-0.19437">
        <ele>1838.4</ele>
        <time>2026-07-15T12:26:09Z</time>
      </trkpt>
      <trkpt lat="42.88456" lon="-0.19437">
        <ele>1838.4</ele>
        <time>2026-07-15T12:26:10Z</time>
      </trkpt>
      <trkpt lat="42.88456" lon="-0.19437">
        <ele>1838.4</ele>
        <time>2026-07-15T12:26:11Z</time>
      </trkpt>
      <trkpt lat="42.88457" lon="-0.19437">
        <ele>1838.4</ele>
        <time>2026-07-15T12:26:12Z</time>
      </trkpt>
      <trkpt lat="42.88457" lon="-0.19437">
        <ele>1838.4</ele>
        <time>2026-07-15T12:26:12Z</time>
      </trkpt>
      <trkpt lat="42.88457" lon="-0.19437">
        <ele>1838.4</ele>
        <time>2026-07-15T12:26:13Z</time>
      </trkpt>
      <trkpt lat="42.88457" lon="-0.19437">
        <ele>1838.4</ele>
        <time>2026-07-15T12:26:14Z</time>
      </trkpt>
      <trkpt lat="42.88457" lon="-0.19437">
        <ele>1838.4</ele>
        <time>2026-07-15T12:26:14Z</time>
      </trkpt>
      <trkpt lat="42.88458" lon="-0.19437">
        <ele>1838.4</ele>
        <time>2026-07-15T12:26:15Z</time>
      </trkpt>
      <trkpt lat="42.88458" lon="-0.19437">
        <ele>1838.4</ele>
        <time>2026-07-15T12:26:16Z</time>
      </trkpt>
      <trkpt lat="42.88458" lon="-0.19437">
        <ele>1837.4</ele>
        <time>2026-07-15T12:26:16Z</time>
      </trkpt>
      <trkpt lat="42.88458" lon="-0.19437">
        <ele>1837.4</ele>
        <time>2026-07-15T12:26:17Z</time>
      </trkpt>
      <trkpt lat="42.88459" lon="-0.19437">
        <ele>1837.4</ele>
        <time>2026-07-15T12:26:18Z</time>
      </trkpt>
      <trkpt lat="42.8846" lon="-0.19437">
        <ele>1837.4</ele>
        <time>2026-07-15T12:26:19Z</time>
      </trkpt>
      <trkpt lat="42.8846" lon="-0.19438">
        <ele>1837.4</ele>
        <time>2026-07-15T12:26:20Z</time>
      </trkpt>
      <trkpt lat="42.8846" lon="-0.19438">
        <ele>1837.4</ele>
        <time>2026-07-15T12:26:20Z</time>
      </trkpt>
      <trkpt lat="42.88461" lon="-0.19437">
        <ele>1837.4</ele>
        <time>2026-07-15T12:26:21Z</time>
      </trkpt>
      <trkpt lat="42.88461" lon="-0.19438">
        <ele>1837.4</ele>
        <time>2026-07-15T12:26:22Z</time>
      </trkpt>
      <trkpt lat="42.88461" lon="-0.19438">
        <ele>1837.4</ele>
        <time>2026-07-15T12:26:23Z</time>
      </trkpt>
      <trkpt lat="42.88461" lon="-0.19437">
        <ele>1837.4</ele>
        <time>2026-07-15T12:26:23Z</time>
      </trkpt>
      <trkpt lat="42.88461" lon="-0.19437">
        <ele>1837.4</ele>
        <time>2026-07-15T12:26:24Z</time>
      </trkpt>
      <trkpt lat="42.88461" lon="-0.19437">
        <ele>1837.4</ele>
        <time>2026-07-15T12:26:24Z</time>
      </trkpt>
      <trkpt lat="42.88462" lon="-0.19438">
        <ele>1837.4</ele>
        <time>2026-07-15T12:26:25Z</time>
      </trkpt>
      <trkpt lat="42.88462" lon="-0.19438">
        <ele>1837.4</ele>
        <time>2026-07-15T12:26:26Z</time>
      </trkpt>
      <trkpt lat="42.88463" lon="-0.19439">
        <ele>1836.4</ele>
        <time>2026-07-15T12:26:26Z</time>
      </trkpt>
      <trkpt lat="42.88464" lon="-0.19439">
        <ele>1836.4</ele>
        <time>2026-07-15T12:26:27Z</time>
      </trkpt>
      <trkpt lat="42.88465" lon="-0.1944">
        <ele>1835.4</ele>
        <time>2026-07-15T12:26:28Z</time>
      </trkpt>
      <trkpt lat="42.88466" lon="-0.1944">
        <ele>1835.4</ele>
        <time>2026-07-15T12:26:28Z</time>
      </trkpt>
      <trkpt lat="42.88466" lon="-0.19441">
        <ele>1835.4</ele>
        <time>2026-07-15T12:26:29Z</time>
      </trkpt>
      <trkpt lat="42.88466" lon="-0.19441">
        <ele>1834.4</ele>
        <time>2026-07-15T12:26:29Z</time>
      </trkpt>
      <trkpt lat="42.88466" lon="-0.19441">
        <ele>1834.4</ele>
        <time>2026-07-15T12:26:30Z</time>
      </trkpt>
      <trkpt lat="42.88467" lon="-0.19442">
        <ele>1834.4</ele>
        <time>2026-07-15T12:26:31Z</time>
      </trkpt>
      <trkpt lat="42.88467" lon="-0.19442">
        <ele>1833.4</ele>
        <time>2026-07-15T12:26:32Z</time>
      </trkpt>
      <trkpt lat="42.88467" lon="-0.19442">
        <ele>1833.4</ele>
        <time>2026-07-15T12:26:32Z</time>
      </trkpt>
      <trkpt lat="42.88467" lon="-0.19442">
        <ele>1833.4</ele>
        <time>2026-07-15T12:26:33Z</time>
      </trkpt>
      <trkpt lat="42.88467" lon="-0.19443">
        <ele>1832.4</ele>
        <time>2026-07-15T12:26:33Z</time>
      </trkpt>
      <trkpt lat="42.88468" lon="-0.19443">
        <ele>1832.4</ele>
        <time>2026-07-15T12:26:34Z</time>
      </trkpt>
      <trkpt lat="42.88468" lon="-0.19443">
        <ele>1832.4</ele>
        <time>2026-07-15T12:26:34Z</time>
      </trkpt>
      <trkpt lat="42.88469" lon="-0.19444">
        <ele>1832.4</ele>
        <time>2026-07-15T12:26:35Z</time>
      </trkpt>
      <trkpt lat="42.88469" lon="-0.19445">
        <ele>1832.4</ele>
        <time>2026-07-15T12:26:36Z</time>
      </trkpt>
      <trkpt lat="42.88469" lon="-0.19445">
        <ele>1832.4</ele>
        <time>2026-07-15T12:26:37Z</time>
      </trkpt>
      <trkpt lat="42.88469" lon="-0.19446">
        <ele>1832.4</ele>
        <time>2026-07-15T12:26:37Z</time>
      </trkpt>
      <trkpt lat="42.88469" lon="-0.19447">
        <ele>1832.4</ele>
        <time>2026-07-15T12:26:38Z</time>
      </trkpt>
      <trkpt lat="42.88469" lon="-0.19447">
        <ele>1832.4</ele>
        <time>2026-07-15T12:26:39Z</time>
      </trkpt>
      <trkpt lat="42.88469" lon="-0.19448">
        <ele>1831.4</ele>
        <time>2026-07-15T12:26:39Z</time>
      </trkpt>
      <trkpt lat="42.8847" lon="-0.19449">
        <ele>1831.4</ele>
        <time>2026-07-15T12:26:40Z</time>
      </trkpt>
      <trkpt lat="42.8847" lon="-0.19449">
        <ele>1831.4</ele>
        <time>2026-07-15T12:26:41Z</time>
      </trkpt>
      <trkpt lat="42.8847" lon="-0.19449">
        <ele>1831.4</ele>
        <time>2026-07-15T12:26:42Z</time>
      </trkpt>
      <trkpt lat="42.8847" lon="-0.19449">
        <ele>1831.4</ele>
        <time>2026-07-15T12:26:42Z</time>
      </trkpt>
      <trkpt lat="42.88469" lon="-0.1945">
        <ele>1831.4</ele>
        <time>2026-07-15T12:26:43Z</time>
      </trkpt>
      <trkpt lat="42.88469" lon="-0.1945">
        <ele>1832.4</ele>
        <time>2026-07-15T12:26:44Z</time>
      </trkpt>
      <trkpt lat="42.88469" lon="-0.1945">
        <ele>1832.4</ele>
        <time>2026-07-15T12:26:45Z</time>
      </trkpt>
      <trkpt lat="42.88469" lon="-0.1945">
        <ele>1831.4</ele>
        <time>2026-07-15T12:26:45Z</time>
      </trkpt>
      <trkpt lat="42.88469" lon="-0.1945">
        <ele>1831.4</ele>
        <time>2026-07-15T12:26:46Z</time>
      </trkpt>
      <trkpt lat="42.88468" lon="-0.1945">
        <ele>1832.4</ele>
        <time>2026-07-15T12:26:47Z</time>
      </trkpt>
      <trkpt lat="42.88468" lon="-0.1945">
        <ele>1832.4</ele>
        <time>2026-07-15T12:26:48Z</time>
      </trkpt>
      <trkpt lat="42.88468" lon="-0.1945">
        <ele>1832.4</ele>
        <time>2026-07-15T12:26:48Z</time>
      </trkpt>
      <trkpt lat="42.88468" lon="-0.1945">
        <ele>1832.4</ele>
        <time>2026-07-15T12:26:49Z</time>
      </trkpt>
      <trkpt lat="42.88468" lon="-0.19451">
        <ele>1831.4</ele>
        <time>2026-07-15T12:26:50Z</time>
      </trkpt>
      <trkpt lat="42.88468" lon="-0.19452">
        <ele>1831.4</ele>
        <time>2026-07-15T12:26:51Z</time>
      </trkpt>
      <trkpt lat="42.88468" lon="-0.19452">
        <ele>1831.4</ele>
        <time>2026-07-15T12:26:51Z</time>
      </trkpt>
      <trkpt lat="42.88468" lon="-0.19452">
        <ele>1831.4</ele>
        <time>2026-07-15T12:26:52Z</time>
      </trkpt>
      <trkpt lat="42.88468" lon="-0.19452">
        <ele>1831.4</ele>
        <time>2026-07-15T12:26:53Z</time>
      </trkpt>
      <trkpt lat="42.88469" lon="-0.19453">
        <ele>1830.4</ele>
        <time>2026-07-15T12:26:53Z</time>
      </trkpt>
      <trkpt lat="42.88469" lon="-0.19454">
        <ele>1829.4</ele>
        <time>2026-07-15T12:26:54Z</time>
      </trkpt>
      <trkpt lat="42.88469" lon="-0.19455">
        <ele>1829.4</ele>
        <time>2026-07-15T12:26:55Z</time>
      </trkpt>
      <trkpt lat="42.88469" lon="-0.19455">
        <ele>1829.4</ele>
        <time>2026-07-15T12:26:55Z</time>
      </trkpt>
      <trkpt lat="42.88469" lon="-0.19456">
        <ele>1829.4</ele>
        <time>2026-07-15T12:26:56Z</time>
      </trkpt>
      <trkpt lat="42.88469" lon="-0.19456">
        <ele>1829.4</ele>
        <time>2026-07-15T12:26:57Z</time>
      </trkpt>
      <trkpt lat="42.8847" lon="-0.19456">
        <ele>1829.4</ele>
        <time>2026-07-15T12:26:57Z</time>
      </trkpt>
      <trkpt lat="42.8847" lon="-0.19457">
        <ele>1830.4</ele>
        <time>2026-07-15T12:26:58Z</time>
      </trkpt>
      <trkpt lat="42.8847" lon="-0.19457">
        <ele>1830.4</ele>
        <time>2026-07-15T12:26:59Z</time>
      </trkpt>
      <trkpt lat="42.88471" lon="-0.19458">
        <ele>1830.4</ele>
        <time>2026-07-15T12:27:00Z</time>
      </trkpt>
      <trkpt lat="42.88471" lon="-0.19459">
        <ele>1829.4</ele>
        <time>2026-07-15T12:27:01Z</time>
      </trkpt>
      <trkpt lat="42.88471" lon="-0.19459">
        <ele>1829.4</ele>
        <time>2026-07-15T12:27:01Z</time>
      </trkpt>
      <trkpt lat="42.88471" lon="-0.19459">
        <ele>1830.4</ele>
        <time>2026-07-15T12:27:02Z</time>
      </trkpt>
      <trkpt lat="42.88472" lon="-0.19459">
        <ele>1830.4</ele>
        <time>2026-07-15T12:27:03Z</time>
      </trkpt>
      <trkpt lat="42.88472" lon="-0.1946">
        <ele>1829.4</ele>
        <time>2026-07-15T12:27:03Z</time>
      </trkpt>
      <trkpt lat="42.88472" lon="-0.1946">
        <ele>1829.4</ele>
        <time>2026-07-15T12:27:04Z</time>
      </trkpt>
      <trkpt lat="42.88473" lon="-0.1946">
        <ele>1829.4</ele>
        <time>2026-07-15T12:27:05Z</time>
      </trkpt>
      <trkpt lat="42.88473" lon="-0.19461">
        <ele>1829.4</ele>
        <time>2026-07-15T12:27:06Z</time>
      </trkpt>
      <trkpt lat="42.88474" lon="-0.19461">
        <ele>1828.4</ele>
        <time>2026-07-15T12:27:07Z</time>
      </trkpt>
      <trkpt lat="42.88474" lon="-0.19461">
        <ele>1828.4</ele>
        <time>2026-07-15T12:27:07Z</time>
      </trkpt>
      <trkpt lat="42.88475" lon="-0.19461">
        <ele>1828.4</ele>
        <time>2026-07-15T12:27:08Z</time>
      </trkpt>
      <trkpt lat="42.88475" lon="-0.19461">
        <ele>1829.4</ele>
        <time>2026-07-15T12:27:08Z</time>
      </trkpt>
      <trkpt lat="42.88475" lon="-0.19461">
        <ele>1829.4</ele>
        <time>2026-07-15T12:27:09Z</time>
      </trkpt>
      <trkpt lat="42.88476" lon="-0.19461">
        <ele>1828.4</ele>
        <time>2026-07-15T12:27:10Z</time>
      </trkpt>
      <trkpt lat="42.88475" lon="-0.19462">
        <ele>1828.4</ele>
        <time>2026-07-15T12:27:10Z</time>
      </trkpt>
      <trkpt lat="42.88475" lon="-0.19462">
        <ele>1828.4</ele>
        <time>2026-07-15T12:27:11Z</time>
      </trkpt>
      <trkpt lat="42.88475" lon="-0.19463">
        <ele>1828.4</ele>
        <time>2026-07-15T12:27:12Z</time>
      </trkpt>
      <trkpt lat="42.88475" lon="-0.19463">
        <ele>1827.4</ele>
        <time>2026-07-15T12:27:12Z</time>
      </trkpt>
      <trkpt lat="42.88474" lon="-0.19464">
        <ele>1827.4</ele>
        <time>2026-07-15T12:27:13Z</time>
      </trkpt>
      <trkpt lat="42.88474" lon="-0.19465">
        <ele>1827.4</ele>
        <time>2026-07-15T12:27:14Z</time>
      </trkpt>
      <trkpt lat="42.88474" lon="-0.19466">
        <ele>1827.4</ele>
        <time>2026-07-15T12:27:14Z</time>
      </trkpt>
      <trkpt lat="42.88474" lon="-0.19466">
        <ele>1827.4</ele>
        <time>2026-07-15T12:27:15Z</time>
      </trkpt>
      <trkpt lat="42.88473" lon="-0.19467">
        <ele>1827.4</ele>
        <time>2026-07-15T12:27:16Z</time>
      </trkpt>
      <trkpt lat="42.88473" lon="-0.19467">
        <ele>1826.4</ele>
        <time>2026-07-15T12:27:17Z</time>
      </trkpt>
      <trkpt lat="42.88473" lon="-0.19467">
        <ele>1826.4</ele>
        <time>2026-07-15T12:27:17Z</time>
      </trkpt>
      <trkpt lat="42.88473" lon="-0.19468">
        <ele>1826.4</ele>
        <time>2026-07-15T12:27:18Z</time>
      </trkpt>
      <trkpt lat="42.88474" lon="-0.19468">
        <ele>1826.4</ele>
        <time>2026-07-15T12:27:19Z</time>
      </trkpt>
      <trkpt lat="42.88474" lon="-0.19468">
        <ele>1826.4</ele>
        <time>2026-07-15T12:27:19Z</time>
      </trkpt>
      <trkpt lat="42.88474" lon="-0.19468">
        <ele>1826.4</ele>
        <time>2026-07-15T12:27:20Z</time>
      </trkpt>
      <trkpt lat="42.88474" lon="-0.19468">
        <ele>1826.4</ele>
        <time>2026-07-15T12:27:21Z</time>
      </trkpt>
      <trkpt lat="42.88474" lon="-0.19468">
        <ele>1825.4</ele>
        <time>2026-07-15T12:27:22Z</time>
      </trkpt>
      <trkpt lat="42.88474" lon="-0.19468">
        <ele>1825.4</ele>
        <time>2026-07-15T12:27:22Z</time>
      </trkpt>
      <trkpt lat="42.88473" lon="-0.19469">
        <ele>1824.4</ele>
        <time>2026-07-15T12:27:23Z</time>
      </trkpt>
      <trkpt lat="42.88473" lon="-0.19469">
        <ele>1824.4</ele>
        <time>2026-07-15T12:27:24Z</time>
      </trkpt>
      <trkpt lat="42.88473" lon="-0.1947">
        <ele>1825.4</ele>
        <time>2026-07-15T12:27:25Z</time>
      </trkpt>
      <trkpt lat="42.88473" lon="-0.19471">
        <ele>1825.4</ele>
        <time>2026-07-15T12:27:25Z</time>
      </trkpt>
      <trkpt lat="42.88473" lon="-0.19471">
        <ele>1824.4</ele>
        <time>2026-07-15T12:27:26Z</time>
      </trkpt>
      <trkpt lat="42.88472" lon="-0.1947">
        <ele>1823.4</ele>
        <time>2026-07-15T12:27:27Z</time>
      </trkpt>
      <trkpt lat="42.88472" lon="-0.1947">
        <ele>1824.4</ele>
        <time>2026-07-15T12:27:28Z</time>
      </trkpt>
      <trkpt lat="42.88472" lon="-0.1947">
        <ele>1824.4</ele>
        <time>2026-07-15T12:27:29Z</time>
      </trkpt>
      <trkpt lat="42.88472" lon="-0.19469">
        <ele>1824.4</ele>
        <time>2026-07-15T12:27:30Z</time>
      </trkpt>
      <trkpt lat="42.88472" lon="-0.19469">
        <ele>1824.4</ele>
        <time>2026-07-15T12:27:30Z</time>
      </trkpt>
      <trkpt lat="42.88472" lon="-0.19469">
        <ele>1824.4</ele>
        <time>2026-07-15T12:27:31Z</time>
      </trkpt>
      <trkpt lat="42.88472" lon="-0.19469">
        <ele>1824.4</ele>
        <time>2026-07-15T12:27:32Z</time>
      </trkpt>
      <trkpt lat="42.88472" lon="-0.1947">
        <ele>1824.4</ele>
        <time>2026-07-15T12:27:32Z</time>
      </trkpt>
      <trkpt lat="42.88472" lon="-0.1947">
        <ele>1824.4</ele>
        <time>2026-07-15T12:27:33Z</time>
      </trkpt>
      <trkpt lat="42.88472" lon="-0.1947">
        <ele>1824.4</ele>
        <time>2026-07-15T12:27:34Z</time>
      </trkpt>
      <trkpt lat="42.88472" lon="-0.1947">
        <ele>1824.4</ele>
        <time>2026-07-15T12:27:34Z</time>
      </trkpt>
      <trkpt lat="42.88472" lon="-0.19471">
        <ele>1824.4</ele>
        <time>2026-07-15T12:27:35Z</time>
      </trkpt>
      <trkpt lat="42.88472" lon="-0.19471">
        <ele>1824.4</ele>
        <time>2026-07-15T12:27:35Z</time>
      </trkpt>
      <trkpt lat="42.88472" lon="-0.19471">
        <ele>1824.4</ele>
        <time>2026-07-15T12:27:36Z</time>
      </trkpt>
      <trkpt lat="42.88472" lon="-0.19471">
        <ele>1824.4</ele>
        <time>2026-07-15T12:27:36Z</time>
      </trkpt>
      <trkpt lat="42.88472" lon="-0.19471">
        <ele>1824.4</ele>
        <time>2026-07-15T12:27:37Z</time>
      </trkpt>
      <trkpt lat="42.88472" lon="-0.19472">
        <ele>1824.4</ele>
        <time>2026-07-15T12:27:38Z</time>
      </trkpt>
      <trkpt lat="42.88472" lon="-0.19472">
        <ele>1823.4</ele>
        <time>2026-07-15T12:27:38Z</time>
      </trkpt>
      <trkpt lat="42.88472" lon="-0.19473">
        <ele>1823.4</ele>
        <time>2026-07-15T12:27:39Z</time>
      </trkpt>
      <trkpt lat="42.88473" lon="-0.19474">
        <ele>1823.4</ele>
        <time>2026-07-15T12:27:39Z</time>
      </trkpt>
      <trkpt lat="42.88473" lon="-0.19475">
        <ele>1822.4</ele>
        <time>2026-07-15T12:27:40Z</time>
      </trkpt>
      <trkpt lat="42.88473" lon="-0.19476">
        <ele>1822.4</ele>
        <time>2026-07-15T12:27:41Z</time>
      </trkpt>
      <trkpt lat="42.88474" lon="-0.19477">
        <ele>1821.4</ele>
        <time>2026-07-15T12:27:42Z</time>
      </trkpt>
      <trkpt lat="42.88474" lon="-0.19478">
        <ele>1821.4</ele>
        <time>2026-07-15T12:27:42Z</time>
      </trkpt>
      <trkpt lat="42.88474" lon="-0.19478">
        <ele>1821.4</ele>
        <time>2026-07-15T12:27:43Z</time>
      </trkpt>
      <trkpt lat="42.88474" lon="-0.19479">
        <ele>1821.4</ele>
        <time>2026-07-15T12:27:44Z</time>
      </trkpt>
      <trkpt lat="42.88475" lon="-0.1948">
        <ele>1821.4</ele>
        <time>2026-07-15T12:27:45Z</time>
      </trkpt>
      <trkpt lat="42.88475" lon="-0.19481">
        <ele>1821.4</ele>
        <time>2026-07-15T12:27:45Z</time>
      </trkpt>
      <trkpt lat="42.88475" lon="-0.19481">
        <ele>1821.4</ele>
        <time>2026-07-15T12:27:46Z</time>
      </trkpt>
      <trkpt lat="42.88475" lon="-0.19482">
        <ele>1820.4</ele>
        <time>2026-07-15T12:27:47Z</time>
      </trkpt>
      <trkpt lat="42.88475" lon="-0.19483">
        <ele>1820.4</ele>
        <time>2026-07-15T12:27:47Z</time>
      </trkpt>
      <trkpt lat="42.88475" lon="-0.19483">
        <ele>1820.4</ele>
        <time>2026-07-15T12:27:48Z</time>
      </trkpt>
      <trkpt lat="42.88475" lon="-0.19485">
        <ele>1820.4</ele>
        <time>2026-07-15T12:27:49Z</time>
      </trkpt>
      <trkpt lat="42.88475" lon="-0.19485">
        <ele>1821.4</ele>
        <time>2026-07-15T12:27:50Z</time>
      </trkpt>
      <trkpt lat="42.88475" lon="-0.19485">
        <ele>1821.4</ele>
        <time>2026-07-15T12:27:50Z</time>
      </trkpt>
      <trkpt lat="42.88475" lon="-0.19485">
        <ele>1821.4</ele>
        <time>2026-07-15T12:27:51Z</time>
      </trkpt>
      <trkpt lat="42.88475" lon="-0.19486">
        <ele>1821.4</ele>
        <time>2026-07-15T12:27:52Z</time>
      </trkpt>
      <trkpt lat="42.88475" lon="-0.19486">
        <ele>1820.4</ele>
        <time>2026-07-15T12:27:52Z</time>
      </trkpt>
      <trkpt lat="42.88475" lon="-0.19486">
        <ele>1820.4</ele>
        <time>2026-07-15T12:27:53Z</time>
      </trkpt>
      <trkpt lat="42.88475" lon="-0.19487">
        <ele>1820.4</ele>
        <time>2026-07-15T12:27:54Z</time>
      </trkpt>
      <trkpt lat="42.88475" lon="-0.19487">
        <ele>1820.4</ele>
        <time>2026-07-15T12:27:54Z</time>
      </trkpt>
      <trkpt lat="42.88475" lon="-0.19487">
        <ele>1820.4</ele>
        <time>2026-07-15T12:27:55Z</time>
      </trkpt>
      <trkpt lat="42.88476" lon="-0.19488">
        <ele>1818.4</ele>
        <time>2026-07-15T12:27:56Z</time>
      </trkpt>
      <trkpt lat="42.88476" lon="-0.19488">
        <ele>1818.4</ele>
        <time>2026-07-15T12:27:56Z</time>
      </trkpt>
      <trkpt lat="42.88476" lon="-0.19489">
        <ele>1818.4</ele>
        <time>2026-07-15T12:27:57Z</time>
      </trkpt>
      <trkpt lat="42.88476" lon="-0.1949">
        <ele>1818.4</ele>
        <time>2026-07-15T12:27:58Z</time>
      </trkpt>
      <trkpt lat="42.88477" lon="-0.1949">
        <ele>1817.4</ele>
        <time>2026-07-15T12:27:58Z</time>
      </trkpt>
      <trkpt lat="42.88477" lon="-0.1949">
        <ele>1817.4</ele>
        <time>2026-07-15T12:27:59Z</time>
      </trkpt>
      <trkpt lat="42.88477" lon="-0.1949">
        <ele>1817.4</ele>
        <time>2026-07-15T12:27:59Z</time>
      </trkpt>
      <trkpt lat="42.88478" lon="-0.1949">
        <ele>1816.4</ele>
        <time>2026-07-15T12:28:00Z</time>
      </trkpt>
      <trkpt lat="42.88478" lon="-0.1949">
        <ele>1816.4</ele>
        <time>2026-07-15T12:28:01Z</time>
      </trkpt>
      <trkpt lat="42.88479" lon="-0.1949">
        <ele>1816.4</ele>
        <time>2026-07-15T12:28:01Z</time>
      </trkpt>
      <trkpt lat="42.88479" lon="-0.1949">
        <ele>1816.4</ele>
        <time>2026-07-15T12:28:02Z</time>
      </trkpt>
      <trkpt lat="42.88479" lon="-0.1949">
        <ele>1815.4</ele>
        <time>2026-07-15T12:28:02Z</time>
      </trkpt>
      <trkpt lat="42.8848" lon="-0.19491">
        <ele>1815.4</ele>
        <time>2026-07-15T12:28:03Z</time>
      </trkpt>
      <trkpt lat="42.88479" lon="-0.19491">
        <ele>1814.4</ele>
        <time>2026-07-15T12:28:04Z</time>
      </trkpt>
      <trkpt lat="42.88479" lon="-0.1949">
        <ele>1813.4</ele>
        <time>2026-07-15T12:28:05Z</time>
      </trkpt>
      <trkpt lat="42.88479" lon="-0.1949">
        <ele>1813.4</ele>
        <time>2026-07-15T12:28:06Z</time>
      </trkpt>
      <trkpt lat="42.88479" lon="-0.1949">
        <ele>1812.4</ele>
        <time>2026-07-15T12:28:07Z</time>
      </trkpt>
      <trkpt lat="42.88479" lon="-0.19489">
        <ele>1811.4</ele>
        <time>2026-07-15T12:28:07Z</time>
      </trkpt>
      <trkpt lat="42.88479" lon="-0.19489">
        <ele>1811.4</ele>
        <time>2026-07-15T12:28:08Z</time>
      </trkpt>
      <trkpt lat="42.88479" lon="-0.19489">
        <ele>1811.4</ele>
        <time>2026-07-15T12:28:09Z</time>
      </trkpt>
      <trkpt lat="42.88479" lon="-0.19489">
        <ele>1811.4</ele>
        <time>2026-07-15T12:28:09Z</time>
      </trkpt>
      <trkpt lat="42.88479" lon="-0.19489">
        <ele>1811.4</ele>
        <time>2026-07-15T12:28:10Z</time>
      </trkpt>
      <trkpt lat="42.88479" lon="-0.19489">
        <ele>1810.4</ele>
        <time>2026-07-15T12:28:10Z</time>
      </trkpt>
      <trkpt lat="42.88478" lon="-0.19489">
        <ele>1810.4</ele>
        <time>2026-07-15T12:28:11Z</time>
      </trkpt>
      <trkpt lat="42.88478" lon="-0.19489">
        <ele>1810.4</ele>
        <time>2026-07-15T12:28:12Z</time>
      </trkpt>
      <trkpt lat="42.88478" lon="-0.19489">
        <ele>1811.4</ele>
        <time>2026-07-15T12:28:13Z</time>
      </trkpt>
      <trkpt lat="42.88478" lon="-0.19489">
        <ele>1811.4</ele>
        <time>2026-07-15T12:28:14Z</time>
      </trkpt>
      <trkpt lat="42.88478" lon="-0.19489">
        <ele>1811.4</ele>
        <time>2026-07-15T12:28:15Z</time>
      </trkpt>
      <trkpt lat="42.88478" lon="-0.1949">
        <ele>1811.4</ele>
        <time>2026-07-15T12:28:15Z</time>
      </trkpt>
      <trkpt lat="42.88478" lon="-0.1949">
        <ele>1811.4</ele>
        <time>2026-07-15T12:28:16Z</time>
      </trkpt>
      <trkpt lat="42.88478" lon="-0.1949">
        <ele>1811.4</ele>
        <time>2026-07-15T12:28:17Z</time>
      </trkpt>
      <trkpt lat="42.88478" lon="-0.1949">
        <ele>1811.4</ele>
        <time>2026-07-15T12:28:18Z</time>
      </trkpt>
      <trkpt lat="42.88478" lon="-0.1949">
        <ele>1811.4</ele>
        <time>2026-07-15T12:28:18Z</time>
      </trkpt>
      <trkpt lat="42.88478" lon="-0.1949">
        <ele>1811.4</ele>
        <time>2026-07-15T12:28:19Z</time>
      </trkpt>
      <trkpt lat="42.88478" lon="-0.1949">
        <ele>1811.4</ele>
        <time>2026-07-15T12:28:20Z</time>
      </trkpt>
      <trkpt lat="42.88478" lon="-0.1949">
        <ele>1811.4</ele>
        <time>2026-07-15T12:28:21Z</time>
      </trkpt>
      <trkpt lat="42.88478" lon="-0.1949">
        <ele>1811.4</ele>
        <time>2026-07-15T12:28:22Z</time>
      </trkpt>
      <trkpt lat="42.88478" lon="-0.1949">
        <ele>1811.4</ele>
        <time>2026-07-15T12:28:22Z</time>
      </trkpt>
      <trkpt lat="42.88478" lon="-0.19491">
        <ele>1810.4</ele>
        <time>2026-07-15T12:28:23Z</time>
      </trkpt>
      <trkpt lat="42.88478" lon="-0.19491">
        <ele>1810.4</ele>
        <time>2026-07-15T12:28:24Z</time>
      </trkpt>
      <trkpt lat="42.88478" lon="-0.19491">
        <ele>1809.4</ele>
        <time>2026-07-15T12:28:25Z</time>
      </trkpt>
      <trkpt lat="42.88478" lon="-0.19492">
        <ele>1809.4</ele>
        <time>2026-07-15T12:28:25Z</time>
      </trkpt>
      <trkpt lat="42.88478" lon="-0.19493">
        <ele>1809.4</ele>
        <time>2026-07-15T12:28:26Z</time>
      </trkpt>
      <trkpt lat="42.88478" lon="-0.19494">
        <ele>1809.4</ele>
        <time>2026-07-15T12:28:27Z</time>
      </trkpt>
      <trkpt lat="42.88478" lon="-0.19496">
        <ele>1810.4</ele>
        <time>2026-07-15T12:28:28Z</time>
      </trkpt>
      <trkpt lat="42.88479" lon="-0.19497">
        <ele>1810.4</ele>
        <time>2026-07-15T12:28:29Z</time>
      </trkpt>
      <trkpt lat="42.88479" lon="-0.19497">
        <ele>1811.4</ele>
        <time>2026-07-15T12:28:29Z</time>
      </trkpt>
      <trkpt lat="42.88479" lon="-0.19498">
        <ele>1811.4</ele>
        <time>2026-07-15T12:28:30Z</time>
      </trkpt>
      <trkpt lat="42.88479" lon="-0.19499">
        <ele>1810.4</ele>
        <time>2026-07-15T12:28:31Z</time>
      </trkpt>
      <trkpt lat="42.88479" lon="-0.19501">
        <ele>1811.4</ele>
        <time>2026-07-15T12:28:32Z</time>
      </trkpt>
      <trkpt lat="42.88479" lon="-0.19501">
        <ele>1810.4</ele>
        <time>2026-07-15T12:28:32Z</time>
      </trkpt>
      <trkpt lat="42.88479" lon="-0.19502">
        <ele>1810.4</ele>
        <time>2026-07-15T12:28:33Z</time>
      </trkpt>
      <trkpt lat="42.88479" lon="-0.19503">
        <ele>1810.4</ele>
        <time>2026-07-15T12:28:34Z</time>
      </trkpt>
      <trkpt lat="42.88479" lon="-0.19503">
        <ele>1809.4</ele>
        <time>2026-07-15T12:28:34Z</time>
      </trkpt>
      <trkpt lat="42.88479" lon="-0.19504">
        <ele>1809.4</ele>
        <time>2026-07-15T12:28:35Z</time>
      </trkpt>
      <trkpt lat="42.88479" lon="-0.19504">
        <ele>1809.4</ele>
        <time>2026-07-15T12:28:35Z</time>
      </trkpt>
      <trkpt lat="42.88479" lon="-0.19504">
        <ele>1809.4</ele>
        <time>2026-07-15T12:28:36Z</time>
      </trkpt>
      <trkpt lat="42.88479" lon="-0.19505">
        <ele>1809.4</ele>
        <time>2026-07-15T12:28:37Z</time>
      </trkpt>
      <trkpt lat="42.88478" lon="-0.19505">
        <ele>1808.4</ele>
        <time>2026-07-15T12:28:37Z</time>
      </trkpt>
      <trkpt lat="42.88479" lon="-0.19506">
        <ele>1808.4</ele>
        <time>2026-07-15T12:28:38Z</time>
      </trkpt>
      <trkpt lat="42.88478" lon="-0.19506">
        <ele>1808.4</ele>
        <time>2026-07-15T12:28:38Z</time>
      </trkpt>
      <trkpt lat="42.88478" lon="-0.19507">
        <ele>1808.4</ele>
        <time>2026-07-15T12:28:39Z</time>
      </trkpt>
      <trkpt lat="42.88478" lon="-0.19508">
        <ele>1808.4</ele>
        <time>2026-07-15T12:28:40Z</time>
      </trkpt>
      <trkpt lat="42.88478" lon="-0.19508">
        <ele>1807.4</ele>
        <time>2026-07-15T12:28:40Z</time>
      </trkpt>
      <trkpt lat="42.88478" lon="-0.19508">
        <ele>1807.4</ele>
        <time>2026-07-15T12:28:41Z</time>
      </trkpt>
      <trkpt lat="42.88478" lon="-0.19509">
        <ele>1807.4</ele>
        <time>2026-07-15T12:28:42Z</time>
      </trkpt>
      <trkpt lat="42.88479" lon="-0.1951">
        <ele>1805.4</ele>
        <time>2026-07-15T12:28:43Z</time>
      </trkpt>
      <trkpt lat="42.88479" lon="-0.1951">
        <ele>1804.4</ele>
        <time>2026-07-15T12:28:43Z</time>
      </trkpt>
      <trkpt lat="42.88479" lon="-0.19511">
        <ele>1804.4</ele>
        <time>2026-07-15T12:28:44Z</time>
      </trkpt>
      <trkpt lat="42.88479" lon="-0.19511">
        <ele>1804.4</ele>
        <time>2026-07-15T12:28:44Z</time>
      </trkpt>
      <trkpt lat="42.88479" lon="-0.19512">
        <ele>1804.4</ele>
        <time>2026-07-15T12:28:45Z</time>
      </trkpt>
      <trkpt lat="42.88479" lon="-0.19512">
        <ele>1803.4</ele>
        <time>2026-07-15T12:28:45Z</time>
      </trkpt>
      <trkpt lat="42.88479" lon="-0.19513">
        <ele>1803.4</ele>
        <time>2026-07-15T12:28:46Z</time>
      </trkpt>
      <trkpt lat="42.88479" lon="-0.19514">
        <ele>1803.4</ele>
        <time>2026-07-15T12:28:46Z</time>
      </trkpt>
      <trkpt lat="42.88479" lon="-0.19514">
        <ele>1803.4</ele>
        <time>2026-07-15T12:28:47Z</time>
      </trkpt>
      <trkpt lat="42.88479" lon="-0.19515">
        <ele>1804.4</ele>
        <time>2026-07-15T12:28:47Z</time>
      </trkpt>
      <trkpt lat="42.88479" lon="-0.19516">
        <ele>1804.4</ele>
        <time>2026-07-15T12:28:48Z</time>
      </trkpt>
      <trkpt lat="42.88479" lon="-0.19516">
        <ele>1804.4</ele>
        <time>2026-07-15T12:28:49Z</time>
      </trkpt>
      <trkpt lat="42.8848" lon="-0.19516">
        <ele>1804.4</ele>
        <time>2026-07-15T12:28:49Z</time>
      </trkpt>
      <trkpt lat="42.8848" lon="-0.19516">
        <ele>1803.4</ele>
        <time>2026-07-15T12:28:50Z</time>
      </trkpt>
      <trkpt lat="42.88481" lon="-0.19517">
        <ele>1803.4</ele>
        <time>2026-07-15T12:28:51Z</time>
      </trkpt>
      <trkpt lat="42.88481" lon="-0.19517">
        <ele>1803.4</ele>
        <time>2026-07-15T12:28:51Z</time>
      </trkpt>
      <trkpt lat="42.88482" lon="-0.19517">
        <ele>1803.4</ele>
        <time>2026-07-15T12:28:52Z</time>
      </trkpt>
      <trkpt lat="42.88482" lon="-0.19517">
        <ele>1802.4</ele>
        <time>2026-07-15T12:28:53Z</time>
      </trkpt>
      <trkpt lat="42.88482" lon="-0.19518">
        <ele>1802.4</ele>
        <time>2026-07-15T12:28:53Z</time>
      </trkpt>
      <trkpt lat="42.88482" lon="-0.19518">
        <ele>1802.4</ele>
        <time>2026-07-15T12:28:54Z</time>
      </trkpt>
      <trkpt lat="42.88482" lon="-0.19517">
        <ele>1801.4</ele>
        <time>2026-07-15T12:28:55Z</time>
      </trkpt>
      <trkpt lat="42.88482" lon="-0.19518">
        <ele>1801.4</ele>
        <time>2026-07-15T12:28:56Z</time>
      </trkpt>
      <trkpt lat="42.88482" lon="-0.19517">
        <ele>1801.4</ele>
        <time>2026-07-15T12:28:56Z</time>
      </trkpt>
      <trkpt lat="42.88482" lon="-0.19518">
        <ele>1801.4</ele>
        <time>2026-07-15T12:28:57Z</time>
      </trkpt>
      <trkpt lat="42.88483" lon="-0.19518">
        <ele>1801.4</ele>
        <time>2026-07-15T12:28:58Z</time>
      </trkpt>
      <trkpt lat="42.88483" lon="-0.19518">
        <ele>1801.4</ele>
        <time>2026-07-15T12:28:58Z</time>
      </trkpt>
      <trkpt lat="42.88483" lon="-0.19519">
        <ele>1801.4</ele>
        <time>2026-07-15T12:28:59Z</time>
      </trkpt>
      <trkpt lat="42.88483" lon="-0.19519">
        <ele>1801.4</ele>
        <time>2026-07-15T12:28:59Z</time>
      </trkpt>
      <trkpt lat="42.88483" lon="-0.1952">
        <ele>1801.4</ele>
        <time>2026-07-15T12:29:00Z</time>
      </trkpt>
      <trkpt lat="42.88483" lon="-0.19521">
        <ele>1801.4</ele>
        <time>2026-07-15T12:29:00Z</time>
      </trkpt>
      <trkpt lat="42.88483" lon="-0.19522">
        <ele>1801.4</ele>
        <time>2026-07-15T12:29:01Z</time>
      </trkpt>
      <trkpt lat="42.88483" lon="-0.19522">
        <ele>1801.4</ele>
        <time>2026-07-15T12:29:02Z</time>
      </trkpt>
      <trkpt lat="42.88483" lon="-0.19523">
        <ele>1801.4</ele>
        <time>2026-07-15T12:29:03Z</time>
      </trkpt>
      <trkpt lat="42.88483" lon="-0.19523">
        <ele>1801.4</ele>
        <time>2026-07-15T12:29:03Z</time>
      </trkpt>
      <trkpt lat="42.88483" lon="-0.19524">
        <ele>1801.4</ele>
        <time>2026-07-15T12:29:04Z</time>
      </trkpt>
      <trkpt lat="42.88483" lon="-0.19523">
        <ele>1801.4</ele>
        <time>2026-07-15T12:29:04Z</time>
      </trkpt>
      <trkpt lat="42.88483" lon="-0.19524">
        <ele>1801.4</ele>
        <time>2026-07-15T12:29:05Z</time>
      </trkpt>
      <trkpt lat="42.88483" lon="-0.19525">
        <ele>1801.4</ele>
        <time>2026-07-15T12:29:06Z</time>
      </trkpt>
      <trkpt lat="42.88483" lon="-0.19525">
        <ele>1800.4</ele>
        <time>2026-07-15T12:29:06Z</time>
      </trkpt>
      <trkpt lat="42.88484" lon="-0.19526">
        <ele>1800.4</ele>
        <time>2026-07-15T12:29:06Z</time>
      </trkpt>
      <trkpt lat="42.88484" lon="-0.19526">
        <ele>1800.4</ele>
        <time>2026-07-15T12:29:07Z</time>
      </trkpt>
      <trkpt lat="42.88484" lon="-0.19527">
        <ele>1800.4</ele>
        <time>2026-07-15T12:29:08Z</time>
      </trkpt>
      <trkpt lat="42.88484" lon="-0.19527">
        <ele>1800.4</ele>
        <time>2026-07-15T12:29:08Z</time>
      </trkpt>
      <trkpt lat="42.88484" lon="-0.19528">
        <ele>1800.4</ele>
        <time>2026-07-15T12:29:09Z</time>
      </trkpt>
      <trkpt lat="42.88483" lon="-0.19529">
        <ele>1800.4</ele>
        <time>2026-07-15T12:29:10Z</time>
      </trkpt>
      <trkpt lat="42.88483" lon="-0.1953">
        <ele>1799.4</ele>
        <time>2026-07-15T12:29:11Z</time>
      </trkpt>
      <trkpt lat="42.88484" lon="-0.19531">
        <ele>1799.4</ele>
        <time>2026-07-15T12:29:12Z</time>
      </trkpt>
      <trkpt lat="42.88484" lon="-0.19532">
        <ele>1799.4</ele>
        <time>2026-07-15T12:29:12Z</time>
      </trkpt>
      <trkpt lat="42.88484" lon="-0.19532">
        <ele>1799.4</ele>
        <time>2026-07-15T12:29:13Z</time>
      </trkpt>
      <trkpt lat="42.88484" lon="-0.19532">
        <ele>1799.4</ele>
        <time>2026-07-15T12:29:13Z</time>
      </trkpt>
      <trkpt lat="42.88484" lon="-0.19533">
        <ele>1799.4</ele>
        <time>2026-07-15T12:29:14Z</time>
      </trkpt>
      <trkpt lat="42.88485" lon="-0.19535">
        <ele>1799.4</ele>
        <time>2026-07-15T12:29:15Z</time>
      </trkpt>
      <trkpt lat="42.88485" lon="-0.19535">
        <ele>1799.4</ele>
        <time>2026-07-15T12:29:15Z</time>
      </trkpt>
      <trkpt lat="42.88485" lon="-0.19536">
        <ele>1799.4</ele>
        <time>2026-07-15T12:29:16Z</time>
      </trkpt>
      <trkpt lat="42.88486" lon="-0.19537">
        <ele>1798.4</ele>
        <time>2026-07-15T12:29:17Z</time>
      </trkpt>
      <trkpt lat="42.88486" lon="-0.19537">
        <ele>1797.4</ele>
        <time>2026-07-15T12:29:17Z</time>
      </trkpt>
      <trkpt lat="42.88486" lon="-0.19538">
        <ele>1797.4</ele>
        <time>2026-07-15T12:29:18Z</time>
      </trkpt>
      <trkpt lat="42.88486" lon="-0.19538">
        <ele>1797.4</ele>
        <time>2026-07-15T12:29:19Z</time>
      </trkpt>
      <trkpt lat="42.88487" lon="-0.19539">
        <ele>1796.4</ele>
        <time>2026-07-15T12:29:19Z</time>
      </trkpt>
      <trkpt lat="42.88487" lon="-0.19539">
        <ele>1795.4</ele>
        <time>2026-07-15T12:29:20Z</time>
      </trkpt>
      <trkpt lat="42.88488" lon="-0.1954">
        <ele>1795.4</ele>
        <time>2026-07-15T12:29:21Z</time>
      </trkpt>
      <trkpt lat="42.88488" lon="-0.1954">
        <ele>1795.4</ele>
        <time>2026-07-15T12:29:22Z</time>
      </trkpt>
      <trkpt lat="42.88488" lon="-0.1954">
        <ele>1794.4</ele>
        <time>2026-07-15T12:29:22Z</time>
      </trkpt>
      <trkpt lat="42.88489" lon="-0.19541">
        <ele>1794.4</ele>
        <time>2026-07-15T12:29:23Z</time>
      </trkpt>
      <trkpt lat="42.88489" lon="-0.19541">
        <ele>1794.4</ele>
        <time>2026-07-15T12:29:23Z</time>
      </trkpt>
      <trkpt lat="42.88489" lon="-0.19542">
        <ele>1794.4</ele>
        <time>2026-07-15T12:29:24Z</time>
      </trkpt>
      <trkpt lat="42.8849" lon="-0.19542">
        <ele>1794.4</ele>
        <time>2026-07-15T12:29:25Z</time>
      </trkpt>
      <trkpt lat="42.8849" lon="-0.19542">
        <ele>1793.4</ele>
        <time>2026-07-15T12:29:25Z</time>
      </trkpt>
      <trkpt lat="42.8849" lon="-0.19543">
        <ele>1793.4</ele>
        <time>2026-07-15T12:29:26Z</time>
      </trkpt>
      <trkpt lat="42.8849" lon="-0.19543">
        <ele>1793.4</ele>
        <time>2026-07-15T12:29:27Z</time>
      </trkpt>
      <trkpt lat="42.8849" lon="-0.19544">
        <ele>1793.4</ele>
        <time>2026-07-15T12:29:27Z</time>
      </trkpt>
      <trkpt lat="42.88491" lon="-0.19543">
        <ele>1793.4</ele>
        <time>2026-07-15T12:29:28Z</time>
      </trkpt>
      <trkpt lat="42.88491" lon="-0.19543">
        <ele>1793.4</ele>
        <time>2026-07-15T12:29:29Z</time>
      </trkpt>
      <trkpt lat="42.88491" lon="-0.19543">
        <ele>1793.4</ele>
        <time>2026-07-15T12:29:29Z</time>
      </trkpt>
      <trkpt lat="42.88491" lon="-0.19544">
        <ele>1793.4</ele>
        <time>2026-07-15T12:29:30Z</time>
      </trkpt>
      <trkpt lat="42.88492" lon="-0.19544">
        <ele>1792.4</ele>
        <time>2026-07-15T12:29:30Z</time>
      </trkpt>
      <trkpt lat="42.88492" lon="-0.19544">
        <ele>1792.4</ele>
        <time>2026-07-15T12:29:31Z</time>
      </trkpt>
      <trkpt lat="42.88492" lon="-0.19545">
        <ele>1792.4</ele>
        <time>2026-07-15T12:29:32Z</time>
      </trkpt>
      <trkpt lat="42.88492" lon="-0.19545">
        <ele>1791.4</ele>
        <time>2026-07-15T12:29:32Z</time>
      </trkpt>
      <trkpt lat="42.88493" lon="-0.19545">
        <ele>1791.4</ele>
        <time>2026-07-15T12:29:33Z</time>
      </trkpt>
      <trkpt lat="42.88493" lon="-0.19545">
        <ele>1790.4</ele>
        <time>2026-07-15T12:29:33Z</time>
      </trkpt>
      <trkpt lat="42.88493" lon="-0.19546">
        <ele>1790.4</ele>
        <time>2026-07-15T12:29:34Z</time>
      </trkpt>
      <trkpt lat="42.88494" lon="-0.19547">
        <ele>1791.4</ele>
        <time>2026-07-15T12:29:35Z</time>
      </trkpt>
      <trkpt lat="42.88494" lon="-0.19547">
        <ele>1791.4</ele>
        <time>2026-07-15T12:29:35Z</time>
      </trkpt>
      <trkpt lat="42.88494" lon="-0.19547">
        <ele>1791.4</ele>
        <time>2026-07-15T12:29:36Z</time>
      </trkpt>
      <trkpt lat="42.88494" lon="-0.19548">
        <ele>1791.4</ele>
        <time>2026-07-15T12:29:37Z</time>
      </trkpt>
      <trkpt lat="42.88495" lon="-0.19549">
        <ele>1791.4</ele>
        <time>2026-07-15T12:29:38Z</time>
      </trkpt>
      <trkpt lat="42.88495" lon="-0.19549">
        <ele>1790.4</ele>
        <time>2026-07-15T12:29:39Z</time>
      </trkpt>
      <trkpt lat="42.88495" lon="-0.1955">
        <ele>1790.4</ele>
        <time>2026-07-15T12:29:40Z</time>
      </trkpt>
      <trkpt lat="42.88495" lon="-0.1955">
        <ele>1790.4</ele>
        <time>2026-07-15T12:29:41Z</time>
      </trkpt>
      <trkpt lat="42.88496" lon="-0.19551">
        <ele>1790.4</ele>
        <time>2026-07-15T12:29:42Z</time>
      </trkpt>
      <trkpt lat="42.88496" lon="-0.19551">
        <ele>1790.4</ele>
        <time>2026-07-15T12:29:42Z</time>
      </trkpt>
      <trkpt lat="42.88496" lon="-0.19551">
        <ele>1790.4</ele>
        <time>2026-07-15T12:29:43Z</time>
      </trkpt>
      <trkpt lat="42.88496" lon="-0.19552">
        <ele>1790.4</ele>
        <time>2026-07-15T12:29:44Z</time>
      </trkpt>
      <trkpt lat="42.88496" lon="-0.19553">
        <ele>1790.4</ele>
        <time>2026-07-15T12:29:44Z</time>
      </trkpt>
      <trkpt lat="42.88497" lon="-0.19553">
        <ele>1790.4</ele>
        <time>2026-07-15T12:29:45Z</time>
      </trkpt>
      <trkpt lat="42.88497" lon="-0.19554">
        <ele>1790.4</ele>
        <time>2026-07-15T12:29:45Z</time>
      </trkpt>
      <trkpt lat="42.88498" lon="-0.19554">
        <ele>1790.4</ele>
        <time>2026-07-15T12:29:46Z</time>
      </trkpt>
      <trkpt lat="42.88497" lon="-0.19555">
        <ele>1790.4</ele>
        <time>2026-07-15T12:29:46Z</time>
      </trkpt>
      <trkpt lat="42.88498" lon="-0.19555">
        <ele>1790.4</ele>
        <time>2026-07-15T12:29:47Z</time>
      </trkpt>
      <trkpt lat="42.88498" lon="-0.19556">
        <ele>1789.4</ele>
        <time>2026-07-15T12:29:48Z</time>
      </trkpt>
      <trkpt lat="42.88498" lon="-0.19556">
        <ele>1789.4</ele>
        <time>2026-07-15T12:29:48Z</time>
      </trkpt>
      <trkpt lat="42.88498" lon="-0.19557">
        <ele>1789.4</ele>
        <time>2026-07-15T12:29:49Z</time>
      </trkpt>
      <trkpt lat="42.88498" lon="-0.19558">
        <ele>1788.4</ele>
        <time>2026-07-15T12:29:49Z</time>
      </trkpt>
      <trkpt lat="42.88498" lon="-0.19558">
        <ele>1788.4</ele>
        <time>2026-07-15T12:29:50Z</time>
      </trkpt>
      <trkpt lat="42.88498" lon="-0.19558">
        <ele>1789.4</ele>
        <time>2026-07-15T12:29:51Z</time>
      </trkpt>
      <trkpt lat="42.88498" lon="-0.19558">
        <ele>1788.4</ele>
        <time>2026-07-15T12:29:51Z</time>
      </trkpt>
      <trkpt lat="42.88498" lon="-0.19558">
        <ele>1788.4</ele>
        <time>2026-07-15T12:29:52Z</time>
      </trkpt>
      <trkpt lat="42.88498" lon="-0.19558">
        <ele>1788.4</ele>
        <time>2026-07-15T12:29:52Z</time>
      </trkpt>
      <trkpt lat="42.88498" lon="-0.19559">
        <ele>1788.4</ele>
        <time>2026-07-15T12:29:53Z</time>
      </trkpt>
      <trkpt lat="42.88498" lon="-0.19558">
        <ele>1787.4</ele>
        <time>2026-07-15T12:29:54Z</time>
      </trkpt>
      <trkpt lat="42.88498" lon="-0.19558">
        <ele>1786.4</ele>
        <time>2026-07-15T12:29:54Z</time>
      </trkpt>
      <trkpt lat="42.88498" lon="-0.19558">
        <ele>1786.4</ele>
        <time>2026-07-15T12:29:55Z</time>
      </trkpt>
      <trkpt lat="42.88498" lon="-0.19558">
        <ele>1786.4</ele>
        <time>2026-07-15T12:29:56Z</time>
      </trkpt>
      <trkpt lat="42.88498" lon="-0.19558">
        <ele>1786.4</ele>
        <time>2026-07-15T12:29:56Z</time>
      </trkpt>
      <trkpt lat="42.88498" lon="-0.19558">
        <ele>1786.4</ele>
        <time>2026-07-15T12:29:57Z</time>
      </trkpt>
      <trkpt lat="42.88498" lon="-0.19559">
        <ele>1787.4</ele>
        <time>2026-07-15T12:29:57Z</time>
      </trkpt>
      <trkpt lat="42.88498" lon="-0.19559">
        <ele>1787.4</ele>
        <time>2026-07-15T12:29:58Z</time>
      </trkpt>
      <trkpt lat="42.88498" lon="-0.1956">
        <ele>1787.4</ele>
        <time>2026-07-15T12:29:58Z</time>
      </trkpt>
      <trkpt lat="42.88498" lon="-0.19561">
        <ele>1786.4</ele>
        <time>2026-07-15T12:29:59Z</time>
      </trkpt>
      <trkpt lat="42.88498" lon="-0.19561">
        <ele>1786.4</ele>
        <time>2026-07-15T12:30:00Z</time>
      </trkpt>
      <trkpt lat="42.88498" lon="-0.19562">
        <ele>1786.4</ele>
        <time>2026-07-15T12:30:00Z</time>
      </trkpt>
      <trkpt lat="42.88499" lon="-0.19563">
        <ele>1786.4</ele>
        <time>2026-07-15T12:30:01Z</time>
      </trkpt>
      <trkpt lat="42.88499" lon="-0.19563">
        <ele>1787.4</ele>
        <time>2026-07-15T12:30:01Z</time>
      </trkpt>
      <trkpt lat="42.88499" lon="-0.19564">
        <ele>1787.4</ele>
        <time>2026-07-15T12:30:02Z</time>
      </trkpt>
      <trkpt lat="42.88499" lon="-0.19564">
        <ele>1786.4</ele>
        <time>2026-07-15T12:30:03Z</time>
      </trkpt>
      <trkpt lat="42.885" lon="-0.19565">
        <ele>1786.4</ele>
        <time>2026-07-15T12:30:04Z</time>
      </trkpt>
      <trkpt lat="42.885" lon="-0.19565">
        <ele>1785.4</ele>
        <time>2026-07-15T12:30:04Z</time>
      </trkpt>
      <trkpt lat="42.885" lon="-0.19566">
        <ele>1785.4</ele>
        <time>2026-07-15T12:30:05Z</time>
      </trkpt>
      <trkpt lat="42.88501" lon="-0.19566">
        <ele>1785.4</ele>
        <time>2026-07-15T12:30:06Z</time>
      </trkpt>
      <trkpt lat="42.885" lon="-0.19567">
        <ele>1783.4</ele>
        <time>2026-07-15T12:30:07Z</time>
      </trkpt>
      <trkpt lat="42.885" lon="-0.19567">
        <ele>1783.4</ele>
        <time>2026-07-15T12:30:08Z</time>
      </trkpt>
      <trkpt lat="42.885" lon="-0.19567">
        <ele>1784.4</ele>
        <time>2026-07-15T12:30:08Z</time>
      </trkpt>
      <trkpt lat="42.885" lon="-0.19567">
        <ele>1784.4</ele>
        <time>2026-07-15T12:30:09Z</time>
      </trkpt>
      <trkpt lat="42.885" lon="-0.19567">
        <ele>1783.4</ele>
        <time>2026-07-15T12:30:09Z</time>
      </trkpt>
      <trkpt lat="42.88501" lon="-0.19567">
        <ele>1783.4</ele>
        <time>2026-07-15T12:30:10Z</time>
      </trkpt>
      <trkpt lat="42.88501" lon="-0.19567">
        <ele>1783.4</ele>
        <time>2026-07-15T12:30:11Z</time>
      </trkpt>
      <trkpt lat="42.88502" lon="-0.19567">
        <ele>1783.4</ele>
        <time>2026-07-15T12:30:11Z</time>
      </trkpt>
      <trkpt lat="42.88502" lon="-0.19568">
        <ele>1783.4</ele>
        <time>2026-07-15T12:30:12Z</time>
      </trkpt>
      <trkpt lat="42.88502" lon="-0.19569">
        <ele>1783.4</ele>
        <time>2026-07-15T12:30:13Z</time>
      </trkpt>
      <trkpt lat="42.88503" lon="-0.1957">
        <ele>1782.4</ele>
        <time>2026-07-15T12:30:13Z</time>
      </trkpt>
      <trkpt lat="42.88503" lon="-0.1957">
        <ele>1782.4</ele>
        <time>2026-07-15T12:30:14Z</time>
      </trkpt>
      <trkpt lat="42.88503" lon="-0.19571">
        <ele>1781.4</ele>
        <time>2026-07-15T12:30:15Z</time>
      </trkpt>
      <trkpt lat="42.88503" lon="-0.19573">
        <ele>1781.4</ele>
        <time>2026-07-15T12:30:16Z</time>
      </trkpt>
      <trkpt lat="42.88503" lon="-0.19573">
        <ele>1780.4</ele>
        <time>2026-07-15T12:30:16Z</time>
      </trkpt>
      <trkpt lat="42.88504" lon="-0.19574">
        <ele>1780.4</ele>
        <time>2026-07-15T12:30:17Z</time>
      </trkpt>
      <trkpt lat="42.88504" lon="-0.19575">
        <ele>1779.4</ele>
        <time>2026-07-15T12:30:18Z</time>
      </trkpt>
      <trkpt lat="42.88505" lon="-0.19575">
        <ele>1779.4</ele>
        <time>2026-07-15T12:30:19Z</time>
      </trkpt>
      <trkpt lat="42.88505" lon="-0.19576">
        <ele>1779.4</ele>
        <time>2026-07-15T12:30:19Z</time>
      </trkpt>
      <trkpt lat="42.88505" lon="-0.19577">
        <ele>1779.4</ele>
        <time>2026-07-15T12:30:20Z</time>
      </trkpt>
      <trkpt lat="42.88506" lon="-0.19578">
        <ele>1779.4</ele>
        <time>2026-07-15T12:30:21Z</time>
      </trkpt>
      <trkpt lat="42.88506" lon="-0.19578">
        <ele>1780.4</ele>
        <time>2026-07-15T12:30:21Z</time>
      </trkpt>
      <trkpt lat="42.88506" lon="-0.19579">
        <ele>1780.4</ele>
        <time>2026-07-15T12:30:22Z</time>
      </trkpt>
      <trkpt lat="42.88506" lon="-0.1958">
        <ele>1780.4</ele>
        <time>2026-07-15T12:30:22Z</time>
      </trkpt>
      <trkpt lat="42.88506" lon="-0.19581">
        <ele>1780.4</ele>
        <time>2026-07-15T12:30:23Z</time>
      </trkpt>
      <trkpt lat="42.88506" lon="-0.19581">
        <ele>1779.4</ele>
        <time>2026-07-15T12:30:24Z</time>
      </trkpt>
      <trkpt lat="42.88506" lon="-0.19581">
        <ele>1779.4</ele>
        <time>2026-07-15T12:30:24Z</time>
      </trkpt>
      <trkpt lat="42.88507" lon="-0.19582">
        <ele>1779.4</ele>
        <time>2026-07-15T12:30:25Z</time>
      </trkpt>
      <trkpt lat="42.88507" lon="-0.19582">
        <ele>1779.4</ele>
        <time>2026-07-15T12:30:25Z</time>
      </trkpt>
      <trkpt lat="42.88506" lon="-0.19583">
        <ele>1779.4</ele>
        <time>2026-07-15T12:30:26Z</time>
      </trkpt>
      <trkpt lat="42.88506" lon="-0.19585">
        <ele>1779.4</ele>
        <time>2026-07-15T12:30:27Z</time>
      </trkpt>
      <trkpt lat="42.88506" lon="-0.19585">
        <ele>1780.4</ele>
        <time>2026-07-15T12:30:27Z</time>
      </trkpt>
      <trkpt lat="42.88506" lon="-0.19585">
        <ele>1779.4</ele>
        <time>2026-07-15T12:30:28Z</time>
      </trkpt>
      <trkpt lat="42.88506" lon="-0.19586">
        <ele>1779.4</ele>
        <time>2026-07-15T12:30:29Z</time>
      </trkpt>
      <trkpt lat="42.88506" lon="-0.19586">
        <ele>1779.4</ele>
        <time>2026-07-15T12:30:29Z</time>
      </trkpt>
      <trkpt lat="42.88506" lon="-0.19587">
        <ele>1779.4</ele>
        <time>2026-07-15T12:30:30Z</time>
      </trkpt>
      <trkpt lat="42.88506" lon="-0.19587">
        <ele>1779.4</ele>
        <time>2026-07-15T12:30:30Z</time>
      </trkpt>
      <trkpt lat="42.88506" lon="-0.19588">
        <ele>1779.4</ele>
        <time>2026-07-15T12:30:31Z</time>
      </trkpt>
      <trkpt lat="42.88506" lon="-0.19589">
        <ele>1779.4</ele>
        <time>2026-07-15T12:30:31Z</time>
      </trkpt>
      <trkpt lat="42.88506" lon="-0.1959">
        <ele>1779.4</ele>
        <time>2026-07-15T12:30:32Z</time>
      </trkpt>
      <trkpt lat="42.88505" lon="-0.1959">
        <ele>1779.4</ele>
        <time>2026-07-15T12:30:33Z</time>
      </trkpt>
      <trkpt lat="42.88505" lon="-0.1959">
        <ele>1779.4</ele>
        <time>2026-07-15T12:30:33Z</time>
      </trkpt>
      <trkpt lat="42.88505" lon="-0.19591">
        <ele>1779.4</ele>
        <time>2026-07-15T12:30:34Z</time>
      </trkpt>
      <trkpt lat="42.88505" lon="-0.19592">
        <ele>1778.4</ele>
        <time>2026-07-15T12:30:34Z</time>
      </trkpt>
      <trkpt lat="42.88505" lon="-0.19592">
        <ele>1778.4</ele>
        <time>2026-07-15T12:30:35Z</time>
      </trkpt>
      <trkpt lat="42.88505" lon="-0.19593">
        <ele>1778.4</ele>
        <time>2026-07-15T12:30:35Z</time>
      </trkpt>
      <trkpt lat="42.88505" lon="-0.19594">
        <ele>1778.4</ele>
        <time>2026-07-15T12:30:36Z</time>
      </trkpt>
      <trkpt lat="42.88506" lon="-0.19594">
        <ele>1778.4</ele>
        <time>2026-07-15T12:30:37Z</time>
      </trkpt>
      <trkpt lat="42.88506" lon="-0.19594">
        <ele>1778.4</ele>
        <time>2026-07-15T12:30:38Z</time>
      </trkpt>
      <trkpt lat="42.88507" lon="-0.19594">
        <ele>1778.4</ele>
        <time>2026-07-15T12:30:39Z</time>
      </trkpt>
      <trkpt lat="42.88507" lon="-0.19594">
        <ele>1778.4</ele>
        <time>2026-07-15T12:30:39Z</time>
      </trkpt>
      <trkpt lat="42.88507" lon="-0.19595">
        <ele>1778.4</ele>
        <time>2026-07-15T12:30:40Z</time>
      </trkpt>
      <trkpt lat="42.88507" lon="-0.19595">
        <ele>1777.4</ele>
        <time>2026-07-15T12:30:40Z</time>
      </trkpt>
      <trkpt lat="42.88507" lon="-0.19595">
        <ele>1777.4</ele>
        <time>2026-07-15T12:30:41Z</time>
      </trkpt>
      <trkpt lat="42.88507" lon="-0.19596">
        <ele>1777.4</ele>
        <time>2026-07-15T12:30:42Z</time>
      </trkpt>
      <trkpt lat="42.88508" lon="-0.19597">
        <ele>1777.4</ele>
        <time>2026-07-15T12:30:43Z</time>
      </trkpt>
      <trkpt lat="42.88508" lon="-0.19598">
        <ele>1776.4</ele>
        <time>2026-07-15T12:30:44Z</time>
      </trkpt>
      <trkpt lat="42.88508" lon="-0.19598">
        <ele>1776.4</ele>
        <time>2026-07-15T12:30:44Z</time>
      </trkpt>
      <trkpt lat="42.88508" lon="-0.19599">
        <ele>1776.4</ele>
        <time>2026-07-15T12:30:45Z</time>
      </trkpt>
      <trkpt lat="42.88508" lon="-0.19599">
        <ele>1775.4</ele>
        <time>2026-07-15T12:30:45Z</time>
      </trkpt>
      <trkpt lat="42.88509" lon="-0.196">
        <ele>1775.4</ele>
        <time>2026-07-15T12:30:46Z</time>
      </trkpt>
      <trkpt lat="42.88509" lon="-0.19601">
        <ele>1775.4</ele>
        <time>2026-07-15T12:30:47Z</time>
      </trkpt>
      <trkpt lat="42.88509" lon="-0.19601">
        <ele>1775.4</ele>
        <time>2026-07-15T12:30:47Z</time>
      </trkpt>
      <trkpt lat="42.8851" lon="-0.19602">
        <ele>1775.4</ele>
        <time>2026-07-15T12:30:48Z</time>
      </trkpt>
      <trkpt lat="42.8851" lon="-0.19602">
        <ele>1775.4</ele>
        <time>2026-07-15T12:30:49Z</time>
      </trkpt>
      <trkpt lat="42.8851" lon="-0.19602">
        <ele>1774.4</ele>
        <time>2026-07-15T12:30:49Z</time>
      </trkpt>
      <trkpt lat="42.8851" lon="-0.19603">
        <ele>1774.4</ele>
        <time>2026-07-15T12:30:50Z</time>
      </trkpt>
      <trkpt lat="42.88511" lon="-0.19603">
        <ele>1774.4</ele>
        <time>2026-07-15T12:30:51Z</time>
      </trkpt>
      <trkpt lat="42.88511" lon="-0.19603">
        <ele>1773.4</ele>
        <time>2026-07-15T12:30:51Z</time>
      </trkpt>
      <trkpt lat="42.88511" lon="-0.19604">
        <ele>1773.4</ele>
        <time>2026-07-15T12:30:52Z</time>
      </trkpt>
      <trkpt lat="42.88511" lon="-0.19605">
        <ele>1773.4</ele>
        <time>2026-07-15T12:30:53Z</time>
      </trkpt>
      <trkpt lat="42.88512" lon="-0.19605">
        <ele>1773.4</ele>
        <time>2026-07-15T12:30:53Z</time>
      </trkpt>
      <trkpt lat="42.88512" lon="-0.19606">
        <ele>1773.4</ele>
        <time>2026-07-15T12:30:54Z</time>
      </trkpt>
      <trkpt lat="42.88512" lon="-0.19606">
        <ele>1773.4</ele>
        <time>2026-07-15T12:30:54Z</time>
      </trkpt>
      <trkpt lat="42.88512" lon="-0.19606">
        <ele>1773.4</ele>
        <time>2026-07-15T12:30:55Z</time>
      </trkpt>
      <trkpt lat="42.88512" lon="-0.19607">
        <ele>1773.4</ele>
        <time>2026-07-15T12:30:55Z</time>
      </trkpt>
      <trkpt lat="42.88513" lon="-0.19607">
        <ele>1773.4</ele>
        <time>2026-07-15T12:30:56Z</time>
      </trkpt>
      <trkpt lat="42.88513" lon="-0.19607">
        <ele>1773.4</ele>
        <time>2026-07-15T12:30:56Z</time>
      </trkpt>
      <trkpt lat="42.88513" lon="-0.19608">
        <ele>1773.4</ele>
        <time>2026-07-15T12:30:57Z</time>
      </trkpt>
      <trkpt lat="42.88513" lon="-0.19608">
        <ele>1773.4</ele>
        <time>2026-07-15T12:30:58Z</time>
      </trkpt>
      <trkpt lat="42.88513" lon="-0.19608">
        <ele>1772.4</ele>
        <time>2026-07-15T12:30:58Z</time>
      </trkpt>
      <trkpt lat="42.88513" lon="-0.19609">
        <ele>1772.4</ele>
        <time>2026-07-15T12:30:59Z</time>
      </trkpt>
      <trkpt lat="42.88513" lon="-0.19609">
        <ele>1772.4</ele>
        <time>2026-07-15T12:31:00Z</time>
      </trkpt>
      <trkpt lat="42.88513" lon="-0.1961">
        <ele>1772.4</ele>
        <time>2026-07-15T12:31:00Z</time>
      </trkpt>
      <trkpt lat="42.88513" lon="-0.1961">
        <ele>1772.4</ele>
        <time>2026-07-15T12:31:01Z</time>
      </trkpt>
      <trkpt lat="42.88513" lon="-0.1961">
        <ele>1772.4</ele>
        <time>2026-07-15T12:31:01Z</time>
      </trkpt>
      <trkpt lat="42.88514" lon="-0.19611">
        <ele>1772.4</ele>
        <time>2026-07-15T12:31:02Z</time>
      </trkpt>
      <trkpt lat="42.88514" lon="-0.19611">
        <ele>1771.4</ele>
        <time>2026-07-15T12:31:02Z</time>
      </trkpt>
      <trkpt lat="42.88514" lon="-0.19612">
        <ele>1771.4</ele>
        <time>2026-07-15T12:31:03Z</time>
      </trkpt>
      <trkpt lat="42.88514" lon="-0.19612">
        <ele>1772.4</ele>
        <time>2026-07-15T12:31:04Z</time>
      </trkpt>
      <trkpt lat="42.88514" lon="-0.19612">
        <ele>1772.4</ele>
        <time>2026-07-15T12:31:04Z</time>
      </trkpt>
      <trkpt lat="42.88513" lon="-0.19612">
        <ele>1771.4</ele>
        <time>2026-07-15T12:31:05Z</time>
      </trkpt>
      <trkpt lat="42.88513" lon="-0.19613">
        <ele>1771.4</ele>
        <time>2026-07-15T12:31:05Z</time>
      </trkpt>
      <trkpt lat="42.88513" lon="-0.19613">
        <ele>1771.4</ele>
        <time>2026-07-15T12:31:06Z</time>
      </trkpt>
      <trkpt lat="42.88513" lon="-0.19615">
        <ele>1771.4</ele>
        <time>2026-07-15T12:31:07Z</time>
      </trkpt>
      <trkpt lat="42.88513" lon="-0.19616">
        <ele>1770.4</ele>
        <time>2026-07-15T12:31:08Z</time>
      </trkpt>
      <trkpt lat="42.88514" lon="-0.19617">
        <ele>1770.4</ele>
        <time>2026-07-15T12:31:09Z</time>
      </trkpt>
      <trkpt lat="42.88514" lon="-0.19617">
        <ele>1770.4</ele>
        <time>2026-07-15T12:31:09Z</time>
      </trkpt>
      <trkpt lat="42.88514" lon="-0.19618">
        <ele>1770.4</ele>
        <time>2026-07-15T12:31:10Z</time>
      </trkpt>
      <trkpt lat="42.88515" lon="-0.19618">
        <ele>1769.4</ele>
        <time>2026-07-15T12:31:11Z</time>
      </trkpt>
      <trkpt lat="42.88516" lon="-0.19619">
        <ele>1769.4</ele>
        <time>2026-07-15T12:31:12Z</time>
      </trkpt>
      <trkpt lat="42.88516" lon="-0.19619">
        <ele>1769.4</ele>
        <time>2026-07-15T12:31:12Z</time>
      </trkpt>
      <trkpt lat="42.88517" lon="-0.19619">
        <ele>1769.4</ele>
        <time>2026-07-15T12:31:13Z</time>
      </trkpt>
      <trkpt lat="42.88517" lon="-0.19619">
        <ele>1769.4</ele>
        <time>2026-07-15T12:31:13Z</time>
      </trkpt>
      <trkpt lat="42.88517" lon="-0.1962">
        <ele>1769.4</ele>
        <time>2026-07-15T12:31:14Z</time>
      </trkpt>
      <trkpt lat="42.88517" lon="-0.19621">
        <ele>1769.4</ele>
        <time>2026-07-15T12:31:14Z</time>
      </trkpt>
      <trkpt lat="42.88517" lon="-0.19622">
        <ele>1769.4</ele>
        <time>2026-07-15T12:31:15Z</time>
      </trkpt>
      <trkpt lat="42.88517" lon="-0.19622">
        <ele>1768.4</ele>
        <time>2026-07-15T12:31:15Z</time>
      </trkpt>
      <trkpt lat="42.88517" lon="-0.19622">
        <ele>1768.4</ele>
        <time>2026-07-15T12:31:16Z</time>
      </trkpt>
      <trkpt lat="42.88518" lon="-0.19623">
        <ele>1768.4</ele>
        <time>2026-07-15T12:31:17Z</time>
      </trkpt>
      <trkpt lat="42.88518" lon="-0.19623">
        <ele>1768.4</ele>
        <time>2026-07-15T12:31:17Z</time>
      </trkpt>
      <trkpt lat="42.88518" lon="-0.19623">
        <ele>1768.4</ele>
        <time>2026-07-15T12:31:18Z</time>
      </trkpt>
      <trkpt lat="42.88519" lon="-0.19623">
        <ele>1768.4</ele>
        <time>2026-07-15T12:31:19Z</time>
      </trkpt>
      <trkpt lat="42.88519" lon="-0.19622">
        <ele>1768.4</ele>
        <time>2026-07-15T12:31:19Z</time>
      </trkpt>
      <trkpt lat="42.88519" lon="-0.19623">
        <ele>1768.4</ele>
        <time>2026-07-15T12:31:20Z</time>
      </trkpt>
      <trkpt lat="42.88519" lon="-0.19623">
        <ele>1768.4</ele>
        <time>2026-07-15T12:31:21Z</time>
      </trkpt>
      <trkpt lat="42.88519" lon="-0.19623">
        <ele>1768.4</ele>
        <time>2026-07-15T12:31:22Z</time>
      </trkpt>
      <trkpt lat="42.88518" lon="-0.19624">
        <ele>1767.4</ele>
        <time>2026-07-15T12:31:23Z</time>
      </trkpt>
      <trkpt lat="42.88518" lon="-0.19625">
        <ele>1767.4</ele>
        <time>2026-07-15T12:31:23Z</time>
      </trkpt>
      <trkpt lat="42.88518" lon="-0.19625">
        <ele>1767.4</ele>
        <time>2026-07-15T12:31:24Z</time>
      </trkpt>
      <trkpt lat="42.88518" lon="-0.19626">
        <ele>1767.4</ele>
        <time>2026-07-15T12:31:24Z</time>
      </trkpt>
      <trkpt lat="42.88518" lon="-0.19627">
        <ele>1767.4</ele>
        <time>2026-07-15T12:31:25Z</time>
      </trkpt>
      <trkpt lat="42.88517" lon="-0.19628">
        <ele>1767.4</ele>
        <time>2026-07-15T12:31:26Z</time>
      </trkpt>
      <trkpt lat="42.88517" lon="-0.19629">
        <ele>1767.4</ele>
        <time>2026-07-15T12:31:27Z</time>
      </trkpt>
      <trkpt lat="42.88518" lon="-0.19629">
        <ele>1767.4</ele>
        <time>2026-07-15T12:31:27Z</time>
      </trkpt>
      <trkpt lat="42.88518" lon="-0.19629">
        <ele>1766.4</ele>
        <time>2026-07-15T12:31:28Z</time>
      </trkpt>
      <trkpt lat="42.88518" lon="-0.1963">
        <ele>1767.4</ele>
        <time>2026-07-15T12:31:28Z</time>
      </trkpt>
      <trkpt lat="42.88519" lon="-0.1963">
        <ele>1767.4</ele>
        <time>2026-07-15T12:31:29Z</time>
      </trkpt>
      <trkpt lat="42.88519" lon="-0.19629">
        <ele>1765.4</ele>
        <time>2026-07-15T12:31:29Z</time>
      </trkpt>
      <trkpt lat="42.8852" lon="-0.1963">
        <ele>1765.4</ele>
        <time>2026-07-15T12:31:30Z</time>
      </trkpt>
      <trkpt lat="42.8852" lon="-0.1963">
        <ele>1764.4</ele>
        <time>2026-07-15T12:31:31Z</time>
      </trkpt>
      <trkpt lat="42.8852" lon="-0.1963">
        <ele>1764.4</ele>
        <time>2026-07-15T12:31:31Z</time>
      </trkpt>
      <trkpt lat="42.8852" lon="-0.1963">
        <ele>1764.4</ele>
        <time>2026-07-15T12:31:32Z</time>
      </trkpt>
      <trkpt lat="42.88521" lon="-0.19631">
        <ele>1764.4</ele>
        <time>2026-07-15T12:31:33Z</time>
      </trkpt>
      <trkpt lat="42.88522" lon="-0.19632">
        <ele>1764.4</ele>
        <time>2026-07-15T12:31:34Z</time>
      </trkpt>
      <trkpt lat="42.88522" lon="-0.19633">
        <ele>1764.4</ele>
        <time>2026-07-15T12:31:35Z</time>
      </trkpt>
      <trkpt lat="42.88523" lon="-0.19634">
        <ele>1764.4</ele>
        <time>2026-07-15T12:31:36Z</time>
      </trkpt>
      <trkpt lat="42.88523" lon="-0.19634">
        <ele>1763.4</ele>
        <time>2026-07-15T12:31:37Z</time>
      </trkpt>
      <trkpt lat="42.88523" lon="-0.19635">
        <ele>1764.4</ele>
        <time>2026-07-15T12:31:37Z</time>
      </trkpt>
      <trkpt lat="42.88523" lon="-0.19636">
        <ele>1764.4</ele>
        <time>2026-07-15T12:31:38Z</time>
      </trkpt>
      <trkpt lat="42.88523" lon="-0.19636">
        <ele>1764.4</ele>
        <time>2026-07-15T12:31:38Z</time>
      </trkpt>
      <trkpt lat="42.88523" lon="-0.19637">
        <ele>1763.4</ele>
        <time>2026-07-15T12:31:39Z</time>
      </trkpt>
      <trkpt lat="42.88524" lon="-0.19638">
        <ele>1763.4</ele>
        <time>2026-07-15T12:31:40Z</time>
      </trkpt>
      <trkpt lat="42.88524" lon="-0.19638">
        <ele>1764.4</ele>
        <time>2026-07-15T12:31:40Z</time>
      </trkpt>
      <trkpt lat="42.88524" lon="-0.19639">
        <ele>1764.4</ele>
        <time>2026-07-15T12:31:41Z</time>
      </trkpt>
      <trkpt lat="42.88524" lon="-0.19639">
        <ele>1764.4</ele>
        <time>2026-07-15T12:31:42Z</time>
      </trkpt>
      <trkpt lat="42.88525" lon="-0.1964">
        <ele>1764.4</ele>
        <time>2026-07-15T12:31:42Z</time>
      </trkpt>
      <trkpt lat="42.88525" lon="-0.1964">
        <ele>1764.4</ele>
        <time>2026-07-15T12:31:43Z</time>
      </trkpt>
      <trkpt lat="42.88525" lon="-0.19641">
        <ele>1764.4</ele>
        <time>2026-07-15T12:31:44Z</time>
      </trkpt>
      <trkpt lat="42.88525" lon="-0.19642">
        <ele>1764.4</ele>
        <time>2026-07-15T12:31:44Z</time>
      </trkpt>
      <trkpt lat="42.88525" lon="-0.19643">
        <ele>1764.4</ele>
        <time>2026-07-15T12:31:45Z</time>
      </trkpt>
      <trkpt lat="42.88525" lon="-0.19643">
        <ele>1764.4</ele>
        <time>2026-07-15T12:31:45Z</time>
      </trkpt>
      <trkpt lat="42.88525" lon="-0.19644">
        <ele>1764.4</ele>
        <time>2026-07-15T12:31:46Z</time>
      </trkpt>
      <trkpt lat="42.88525" lon="-0.19644">
        <ele>1764.4</ele>
        <time>2026-07-15T12:31:46Z</time>
      </trkpt>
      <trkpt lat="42.88525" lon="-0.19645">
        <ele>1763.4</ele>
        <time>2026-07-15T12:31:47Z</time>
      </trkpt>
      <trkpt lat="42.88525" lon="-0.19645">
        <ele>1763.4</ele>
        <time>2026-07-15T12:31:47Z</time>
      </trkpt>
      <trkpt lat="42.88525" lon="-0.19646">
        <ele>1763.4</ele>
        <time>2026-07-15T12:31:48Z</time>
      </trkpt>
      <trkpt lat="42.88526" lon="-0.19646">
        <ele>1763.4</ele>
        <time>2026-07-15T12:31:49Z</time>
      </trkpt>
      <trkpt lat="42.88526" lon="-0.19647">
        <ele>1763.4</ele>
        <time>2026-07-15T12:31:50Z</time>
      </trkpt>
      <trkpt lat="42.88526" lon="-0.19647">
        <ele>1763.4</ele>
        <time>2026-07-15T12:31:50Z</time>
      </trkpt>
      <trkpt lat="42.88526" lon="-0.19648">
        <ele>1763.4</ele>
        <time>2026-07-15T12:31:51Z</time>
      </trkpt>
      <trkpt lat="42.88526" lon="-0.19649">
        <ele>1762.4</ele>
        <time>2026-07-15T12:31:52Z</time>
      </trkpt>
      <trkpt lat="42.88526" lon="-0.1965">
        <ele>1762.4</ele>
        <time>2026-07-15T12:31:52Z</time>
      </trkpt>
      <trkpt lat="42.88526" lon="-0.1965">
        <ele>1762.4</ele>
        <time>2026-07-15T12:31:53Z</time>
      </trkpt>
      <trkpt lat="42.88526" lon="-0.19651">
        <ele>1762.4</ele>
        <time>2026-07-15T12:31:54Z</time>
      </trkpt>
      <trkpt lat="42.88526" lon="-0.19651">
        <ele>1761.4</ele>
        <time>2026-07-15T12:31:54Z</time>
      </trkpt>
      <trkpt lat="42.88527" lon="-0.19652">
        <ele>1761.4</ele>
        <time>2026-07-15T12:31:55Z</time>
      </trkpt>
      <trkpt lat="42.88527" lon="-0.19652">
        <ele>1761.4</ele>
        <time>2026-07-15T12:31:56Z</time>
      </trkpt>
      <trkpt lat="42.88527" lon="-0.19653">
        <ele>1761.4</ele>
        <time>2026-07-15T12:31:57Z</time>
      </trkpt>
      <trkpt lat="42.88528" lon="-0.19654">
        <ele>1760.4</ele>
        <time>2026-07-15T12:31:58Z</time>
      </trkpt>
      <trkpt lat="42.88529" lon="-0.19654">
        <ele>1759.4</ele>
        <time>2026-07-15T12:31:59Z</time>
      </trkpt>
      <trkpt lat="42.88529" lon="-0.19653">
        <ele>1758.4</ele>
        <time>2026-07-15T12:31:59Z</time>
      </trkpt>
      <trkpt lat="42.88529" lon="-0.19654">
        <ele>1758.4</ele>
        <time>2026-07-15T12:32:00Z</time>
      </trkpt>
      <trkpt lat="42.88529" lon="-0.19654">
        <ele>1758.4</ele>
        <time>2026-07-15T12:32:00Z</time>
      </trkpt>
      <trkpt lat="42.8853" lon="-0.19655">
        <ele>1758.4</ele>
        <time>2026-07-15T12:32:01Z</time>
      </trkpt>
      <trkpt lat="42.8853" lon="-0.19655">
        <ele>1757.4</ele>
        <time>2026-07-15T12:32:02Z</time>
      </trkpt>
      <trkpt lat="42.88531" lon="-0.19655">
        <ele>1757.4</ele>
        <time>2026-07-15T12:32:02Z</time>
      </trkpt>
      <trkpt lat="42.88531" lon="-0.19655">
        <ele>1757.4</ele>
        <time>2026-07-15T12:32:03Z</time>
      </trkpt>
      <trkpt lat="42.88531" lon="-0.19655">
        <ele>1756.4</ele>
        <time>2026-07-15T12:32:04Z</time>
      </trkpt>
      <trkpt lat="42.88531" lon="-0.19655">
        <ele>1756.4</ele>
        <time>2026-07-15T12:32:04Z</time>
      </trkpt>
      <trkpt lat="42.88532" lon="-0.19655">
        <ele>1756.4</ele>
        <time>2026-07-15T12:32:05Z</time>
      </trkpt>
      <trkpt lat="42.88532" lon="-0.19655">
        <ele>1756.4</ele>
        <time>2026-07-15T12:32:05Z</time>
      </trkpt>
      <trkpt lat="42.88532" lon="-0.19655">
        <ele>1756.4</ele>
        <time>2026-07-15T12:32:06Z</time>
      </trkpt>
      <trkpt lat="42.88532" lon="-0.19655">
        <ele>1756.4</ele>
        <time>2026-07-15T12:32:06Z</time>
      </trkpt>
      <trkpt lat="42.88533" lon="-0.19655">
        <ele>1755.4</ele>
        <time>2026-07-15T12:32:07Z</time>
      </trkpt>
      <trkpt lat="42.88533" lon="-0.19655">
        <ele>1755.4</ele>
        <time>2026-07-15T12:32:08Z</time>
      </trkpt>
      <trkpt lat="42.88533" lon="-0.19654">
        <ele>1754.4</ele>
        <time>2026-07-15T12:32:08Z</time>
      </trkpt>
      <trkpt lat="42.88533" lon="-0.19655">
        <ele>1754.4</ele>
        <time>2026-07-15T12:32:09Z</time>
      </trkpt>
      <trkpt lat="42.88534" lon="-0.19655">
        <ele>1754.4</ele>
        <time>2026-07-15T12:32:09Z</time>
      </trkpt>
      <trkpt lat="42.88534" lon="-0.19656">
        <ele>1755.4</ele>
        <time>2026-07-15T12:32:10Z</time>
      </trkpt>
      <trkpt lat="42.88534" lon="-0.19656">
        <ele>1755.4</ele>
        <time>2026-07-15T12:32:10Z</time>
      </trkpt>
      <trkpt lat="42.88534" lon="-0.19656">
        <ele>1754.4</ele>
        <time>2026-07-15T12:32:11Z</time>
      </trkpt>
      <trkpt lat="42.88534" lon="-0.19657">
        <ele>1754.4</ele>
        <time>2026-07-15T12:32:12Z</time>
      </trkpt>
      <trkpt lat="42.88535" lon="-0.19657">
        <ele>1754.4</ele>
        <time>2026-07-15T12:32:13Z</time>
      </trkpt>
      <trkpt lat="42.88535" lon="-0.19657">
        <ele>1754.4</ele>
        <time>2026-07-15T12:32:13Z</time>
      </trkpt>
      <trkpt lat="42.88535" lon="-0.19658">
        <ele>1754.4</ele>
        <time>2026-07-15T12:32:14Z</time>
      </trkpt>
      <trkpt lat="42.88535" lon="-0.19658">
        <ele>1753.4</ele>
        <time>2026-07-15T12:32:14Z</time>
      </trkpt>
      <trkpt lat="42.88535" lon="-0.19659">
        <ele>1753.4</ele>
        <time>2026-07-15T12:32:15Z</time>
      </trkpt>
      <trkpt lat="42.88535" lon="-0.19659">
        <ele>1753.4</ele>
        <time>2026-07-15T12:32:15Z</time>
      </trkpt>
      <trkpt lat="42.88536" lon="-0.19659">
        <ele>1753.4</ele>
        <time>2026-07-15T12:32:16Z</time>
      </trkpt>
      <trkpt lat="42.88536" lon="-0.19659">
        <ele>1753.4</ele>
        <time>2026-07-15T12:32:17Z</time>
      </trkpt>
      <trkpt lat="42.88536" lon="-0.19659">
        <ele>1753.4</ele>
        <time>2026-07-15T12:32:18Z</time>
      </trkpt>
      <trkpt lat="42.88537" lon="-0.19659">
        <ele>1752.4</ele>
        <time>2026-07-15T12:32:18Z</time>
      </trkpt>
      <trkpt lat="42.88537" lon="-0.1966">
        <ele>1752.4</ele>
        <time>2026-07-15T12:32:19Z</time>
      </trkpt>
      <trkpt lat="42.88537" lon="-0.19662">
        <ele>1751.4</ele>
        <time>2026-07-15T12:32:20Z</time>
      </trkpt>
      <trkpt lat="42.88537" lon="-0.19661">
        <ele>1750.4</ele>
        <time>2026-07-15T12:32:20Z</time>
      </trkpt>
      <trkpt lat="42.88537" lon="-0.19662">
        <ele>1750.4</ele>
        <time>2026-07-15T12:32:21Z</time>
      </trkpt>
      <trkpt lat="42.88538" lon="-0.19662">
        <ele>1750.4</ele>
        <time>2026-07-15T12:32:21Z</time>
      </trkpt>
      <trkpt lat="42.88538" lon="-0.19662">
        <ele>1750.4</ele>
        <time>2026-07-15T12:32:22Z</time>
      </trkpt>
      <trkpt lat="42.88538" lon="-0.19661">
        <ele>1749.4</ele>
        <time>2026-07-15T12:32:23Z</time>
      </trkpt>
      <trkpt lat="42.88538" lon="-0.19661">
        <ele>1749.4</ele>
        <time>2026-07-15T12:32:24Z</time>
      </trkpt>
      <trkpt lat="42.88538" lon="-0.19661">
        <ele>1749.4</ele>
        <time>2026-07-15T12:32:24Z</time>
      </trkpt>
      <trkpt lat="42.88539" lon="-0.19661">
        <ele>1749.4</ele>
        <time>2026-07-15T12:32:25Z</time>
      </trkpt>
      <trkpt lat="42.88539" lon="-0.19661">
        <ele>1749.4</ele>
        <time>2026-07-15T12:32:25Z</time>
      </trkpt>
      <trkpt lat="42.8854" lon="-0.19661">
        <ele>1748.4</ele>
        <time>2026-07-15T12:32:26Z</time>
      </trkpt>
      <trkpt lat="42.8854" lon="-0.19661">
        <ele>1748.4</ele>
        <time>2026-07-15T12:32:27Z</time>
      </trkpt>
      <trkpt lat="42.88541" lon="-0.19661">
        <ele>1747.4</ele>
        <time>2026-07-15T12:32:27Z</time>
      </trkpt>
      <trkpt lat="42.88541" lon="-0.19661">
        <ele>1747.4</ele>
        <time>2026-07-15T12:32:28Z</time>
      </trkpt>
      <trkpt lat="42.88542" lon="-0.19661">
        <ele>1747.4</ele>
        <time>2026-07-15T12:32:28Z</time>
      </trkpt>
      <trkpt lat="42.88542" lon="-0.19661">
        <ele>1746.4</ele>
        <time>2026-07-15T12:32:29Z</time>
      </trkpt>
      <trkpt lat="42.88543" lon="-0.19661">
        <ele>1746.4</ele>
        <time>2026-07-15T12:32:30Z</time>
      </trkpt>
      <trkpt lat="42.88543" lon="-0.19661">
        <ele>1746.4</ele>
        <time>2026-07-15T12:32:31Z</time>
      </trkpt>
      <trkpt lat="42.88543" lon="-0.19661">
        <ele>1746.4</ele>
        <time>2026-07-15T12:32:31Z</time>
      </trkpt>
      <trkpt lat="42.88544" lon="-0.19661">
        <ele>1746.4</ele>
        <time>2026-07-15T12:32:32Z</time>
      </trkpt>
      <trkpt lat="42.88544" lon="-0.19661">
        <ele>1746.4</ele>
        <time>2026-07-15T12:32:33Z</time>
      </trkpt>
      <trkpt lat="42.88545" lon="-0.19661">
        <ele>1746.4</ele>
        <time>2026-07-15T12:32:34Z</time>
      </trkpt>
      <trkpt lat="42.88545" lon="-0.19662">
        <ele>1745.4</ele>
        <time>2026-07-15T12:32:35Z</time>
      </trkpt>
      <trkpt lat="42.88545" lon="-0.19662">
        <ele>1745.4</ele>
        <time>2026-07-15T12:32:35Z</time>
      </trkpt>
      <trkpt lat="42.88545" lon="-0.19662">
        <ele>1745.4</ele>
        <time>2026-07-15T12:32:36Z</time>
      </trkpt>
      <trkpt lat="42.88545" lon="-0.19662">
        <ele>1745.4</ele>
        <time>2026-07-15T12:32:36Z</time>
      </trkpt>
      <trkpt lat="42.88546" lon="-0.19663">
        <ele>1745.4</ele>
        <time>2026-07-15T12:32:37Z</time>
      </trkpt>
      <trkpt lat="42.88546" lon="-0.19663">
        <ele>1744.4</ele>
        <time>2026-07-15T12:32:38Z</time>
      </trkpt>
      <trkpt lat="42.88546" lon="-0.19663">
        <ele>1743.4</ele>
        <time>2026-07-15T12:32:38Z</time>
      </trkpt>
      <trkpt lat="42.88547" lon="-0.19664">
        <ele>1743.4</ele>
        <time>2026-07-15T12:32:39Z</time>
      </trkpt>
      <trkpt lat="42.88547" lon="-0.19664">
        <ele>1742.4</ele>
        <time>2026-07-15T12:32:39Z</time>
      </trkpt>
      <trkpt lat="42.88547" lon="-0.19664">
        <ele>1742.4</ele>
        <time>2026-07-15T12:32:40Z</time>
      </trkpt>
      <trkpt lat="42.88547" lon="-0.19665">
        <ele>1742.4</ele>
        <time>2026-07-15T12:32:41Z</time>
      </trkpt>
      <trkpt lat="42.88547" lon="-0.19665">
        <ele>1742.4</ele>
        <time>2026-07-15T12:32:41Z</time>
      </trkpt>
      <trkpt lat="42.88548" lon="-0.19665">
        <ele>1742.4</ele>
        <time>2026-07-15T12:32:42Z</time>
      </trkpt>
      <trkpt lat="42.88548" lon="-0.19666">
        <ele>1742.4</ele>
        <time>2026-07-15T12:32:42Z</time>
      </trkpt>
      <trkpt lat="42.88549" lon="-0.19666">
        <ele>1742.4</ele>
        <time>2026-07-15T12:32:43Z</time>
      </trkpt>
      <trkpt lat="42.88549" lon="-0.19666">
        <ele>1742.4</ele>
        <time>2026-07-15T12:32:44Z</time>
      </trkpt>
      <trkpt lat="42.88549" lon="-0.19666">
        <ele>1742.4</ele>
        <time>2026-07-15T12:32:44Z</time>
      </trkpt>
      <trkpt lat="42.8855" lon="-0.19666">
        <ele>1742.4</ele>
        <time>2026-07-15T12:32:45Z</time>
      </trkpt>
      <trkpt lat="42.88551" lon="-0.19667">
        <ele>1742.4</ele>
        <time>2026-07-15T12:32:46Z</time>
      </trkpt>
      <trkpt lat="42.88551" lon="-0.19667">
        <ele>1741.4</ele>
        <time>2026-07-15T12:32:46Z</time>
      </trkpt>
      <trkpt lat="42.88551" lon="-0.19668">
        <ele>1741.4</ele>
        <time>2026-07-15T12:32:47Z</time>
      </trkpt>
      <trkpt lat="42.88552" lon="-0.19668">
        <ele>1741.4</ele>
        <time>2026-07-15T12:32:48Z</time>
      </trkpt>
      <trkpt lat="42.88551" lon="-0.19668">
        <ele>1741.4</ele>
        <time>2026-07-15T12:32:48Z</time>
      </trkpt>
      <trkpt lat="42.88552" lon="-0.19669">
        <ele>1741.4</ele>
        <time>2026-07-15T12:32:49Z</time>
      </trkpt>
      <trkpt lat="42.88552" lon="-0.19669">
        <ele>1741.4</ele>
        <time>2026-07-15T12:32:50Z</time>
      </trkpt>
      <trkpt lat="42.88552" lon="-0.1967">
        <ele>1741.4</ele>
        <time>2026-07-15T12:32:50Z</time>
      </trkpt>
      <trkpt lat="42.88553" lon="-0.1967">
        <ele>1741.4</ele>
        <time>2026-07-15T12:32:51Z</time>
      </trkpt>
      <trkpt lat="42.88553" lon="-0.1967">
        <ele>1741.4</ele>
        <time>2026-07-15T12:32:51Z</time>
      </trkpt>
      <trkpt lat="42.88553" lon="-0.1967">
        <ele>1741.4</ele>
        <time>2026-07-15T12:32:52Z</time>
      </trkpt>
      <trkpt lat="42.88553" lon="-0.1967">
        <ele>1740.4</ele>
        <time>2026-07-15T12:32:52Z</time>
      </trkpt>
      <trkpt lat="42.88554" lon="-0.19671">
        <ele>1740.4</ele>
        <time>2026-07-15T12:32:53Z</time>
      </trkpt>
      <trkpt lat="42.88554" lon="-0.19671">
        <ele>1740.4</ele>
        <time>2026-07-15T12:32:54Z</time>
      </trkpt>
      <trkpt lat="42.88554" lon="-0.19671">
        <ele>1740.4</ele>
        <time>2026-07-15T12:32:54Z</time>
      </trkpt>
      <trkpt lat="42.88555" lon="-0.19671">
        <ele>1740.4</ele>
        <time>2026-07-15T12:32:55Z</time>
      </trkpt>
      <trkpt lat="42.88555" lon="-0.19672">
        <ele>1741.4</ele>
        <time>2026-07-15T12:32:56Z</time>
      </trkpt>
      <trkpt lat="42.88555" lon="-0.19672">
        <ele>1741.4</ele>
        <time>2026-07-15T12:32:56Z</time>
      </trkpt>
      <trkpt lat="42.88555" lon="-0.19672">
        <ele>1741.4</ele>
        <time>2026-07-15T12:32:57Z</time>
      </trkpt>
      <trkpt lat="42.88555" lon="-0.19672">
        <ele>1741.4</ele>
        <time>2026-07-15T12:32:57Z</time>
      </trkpt>
      <trkpt lat="42.88555" lon="-0.19673">
        <ele>1741.4</ele>
        <time>2026-07-15T12:32:58Z</time>
      </trkpt>
      <trkpt lat="42.88555" lon="-0.19673">
        <ele>1741.4</ele>
        <time>2026-07-15T12:32:58Z</time>
      </trkpt>
      <trkpt lat="42.88555" lon="-0.19673">
        <ele>1741.4</ele>
        <time>2026-07-15T12:32:59Z</time>
      </trkpt>
      <trkpt lat="42.88555" lon="-0.19674">
        <ele>1741.4</ele>
        <time>2026-07-15T12:32:59Z</time>
      </trkpt>
      <trkpt lat="42.88555" lon="-0.19674">
        <ele>1741.4</ele>
        <time>2026-07-15T12:33:00Z</time>
      </trkpt>
      <trkpt lat="42.88555" lon="-0.19673">
        <ele>1741.4</ele>
        <time>2026-07-15T12:33:00Z</time>
      </trkpt>
      <trkpt lat="42.88555" lon="-0.19673">
        <ele>1741.4</ele>
        <time>2026-07-15T12:33:01Z</time>
      </trkpt>
      <trkpt lat="42.88555" lon="-0.19673">
        <ele>1741.4</ele>
        <time>2026-07-15T12:33:02Z</time>
      </trkpt>
      <trkpt lat="42.88554" lon="-0.19673">
        <ele>1740.4</ele>
        <time>2026-07-15T12:33:02Z</time>
      </trkpt>
      <trkpt lat="42.88555" lon="-0.19673">
        <ele>1740.4</ele>
        <time>2026-07-15T12:33:03Z</time>
      </trkpt>
      <trkpt lat="42.88555" lon="-0.19673">
        <ele>1739.4</ele>
        <time>2026-07-15T12:33:03Z</time>
      </trkpt>
      <trkpt lat="42.88555" lon="-0.19674">
        <ele>1739.4</ele>
        <time>2026-07-15T12:33:04Z</time>
      </trkpt>
      <trkpt lat="42.88555" lon="-0.19674">
        <ele>1739.4</ele>
        <time>2026-07-15T12:33:04Z</time>
      </trkpt>
      <trkpt lat="42.88556" lon="-0.19675">
        <ele>1739.4</ele>
        <time>2026-07-15T12:33:05Z</time>
      </trkpt>
      <trkpt lat="42.88556" lon="-0.19676">
        <ele>1739.4</ele>
        <time>2026-07-15T12:33:05Z</time>
      </trkpt>
      <trkpt lat="42.88556" lon="-0.19676">
        <ele>1739.4</ele>
        <time>2026-07-15T12:33:06Z</time>
      </trkpt>
      <trkpt lat="42.88556" lon="-0.19677">
        <ele>1739.4</ele>
        <time>2026-07-15T12:33:07Z</time>
      </trkpt>
      <trkpt lat="42.88556" lon="-0.19678">
        <ele>1739.4</ele>
        <time>2026-07-15T12:33:07Z</time>
      </trkpt>
      <trkpt lat="42.88557" lon="-0.19679">
        <ele>1738.4</ele>
        <time>2026-07-15T12:33:08Z</time>
      </trkpt>
      <trkpt lat="42.88557" lon="-0.19679">
        <ele>1738.4</ele>
        <time>2026-07-15T12:33:09Z</time>
      </trkpt>
      <trkpt lat="42.88558" lon="-0.1968">
        <ele>1738.4</ele>
        <time>2026-07-15T12:33:09Z</time>
      </trkpt>
      <trkpt lat="42.88558" lon="-0.1968">
        <ele>1738.4</ele>
        <time>2026-07-15T12:33:10Z</time>
      </trkpt>
      <trkpt lat="42.88558" lon="-0.19681">
        <ele>1738.4</ele>
        <time>2026-07-15T12:33:10Z</time>
      </trkpt>
      <trkpt lat="42.88559" lon="-0.19681">
        <ele>1738.4</ele>
        <time>2026-07-15T12:33:11Z</time>
      </trkpt>
      <trkpt lat="42.88559" lon="-0.19682">
        <ele>1737.4</ele>
        <time>2026-07-15T12:33:11Z</time>
      </trkpt>
      <trkpt lat="42.88559" lon="-0.19683">
        <ele>1737.4</ele>
        <time>2026-07-15T12:33:12Z</time>
      </trkpt>
      <trkpt lat="42.8856" lon="-0.19683">
        <ele>1737.4</ele>
        <time>2026-07-15T12:33:12Z</time>
      </trkpt>
      <trkpt lat="42.8856" lon="-0.19683">
        <ele>1737.4</ele>
        <time>2026-07-15T12:33:13Z</time>
      </trkpt>
      <trkpt lat="42.8856" lon="-0.19683">
        <ele>1737.4</ele>
        <time>2026-07-15T12:33:14Z</time>
      </trkpt>
      <trkpt lat="42.8856" lon="-0.19683">
        <ele>1737.4</ele>
        <time>2026-07-15T12:33:14Z</time>
      </trkpt>
      <trkpt lat="42.88561" lon="-0.19683">
        <ele>1737.4</ele>
        <time>2026-07-15T12:33:15Z</time>
      </trkpt>
      <trkpt lat="42.88561" lon="-0.19683">
        <ele>1737.4</ele>
        <time>2026-07-15T12:33:16Z</time>
      </trkpt>
      <trkpt lat="42.88562" lon="-0.19683">
        <ele>1735.4</ele>
        <time>2026-07-15T12:33:17Z</time>
      </trkpt>
      <trkpt lat="42.88563" lon="-0.19683">
        <ele>1735.4</ele>
        <time>2026-07-15T12:33:18Z</time>
      </trkpt>
      <trkpt lat="42.88563" lon="-0.19684">
        <ele>1735.4</ele>
        <time>2026-07-15T12:33:18Z</time>
      </trkpt>
      <trkpt lat="42.88564" lon="-0.19684">
        <ele>1735.4</ele>
        <time>2026-07-15T12:33:19Z</time>
      </trkpt>
      <trkpt lat="42.88564" lon="-0.19684">
        <ele>1734.4</ele>
        <time>2026-07-15T12:33:19Z</time>
      </trkpt>
      <trkpt lat="42.88564" lon="-0.19684">
        <ele>1734.4</ele>
        <time>2026-07-15T12:33:20Z</time>
      </trkpt>
      <trkpt lat="42.88565" lon="-0.19685">
        <ele>1734.4</ele>
        <time>2026-07-15T12:33:20Z</time>
      </trkpt>
      <trkpt lat="42.88565" lon="-0.19685">
        <ele>1734.4</ele>
        <time>2026-07-15T12:33:21Z</time>
      </trkpt>
      <trkpt lat="42.88566" lon="-0.19686">
        <ele>1734.4</ele>
        <time>2026-07-15T12:33:22Z</time>
      </trkpt>
      <trkpt lat="42.88566" lon="-0.19686">
        <ele>1734.4</ele>
        <time>2026-07-15T12:33:23Z</time>
      </trkpt>
      <trkpt lat="42.88567" lon="-0.19687">
        <ele>1733.4</ele>
        <time>2026-07-15T12:33:24Z</time>
      </trkpt>
      <trkpt lat="42.88567" lon="-0.19687">
        <ele>1733.4</ele>
        <time>2026-07-15T12:33:25Z</time>
      </trkpt>
      <trkpt lat="42.88567" lon="-0.19688">
        <ele>1733.4</ele>
        <time>2026-07-15T12:33:25Z</time>
      </trkpt>
      <trkpt lat="42.88567" lon="-0.19688">
        <ele>1733.4</ele>
        <time>2026-07-15T12:33:26Z</time>
      </trkpt>
      <trkpt lat="42.88568" lon="-0.19688">
        <ele>1732.4</ele>
        <time>2026-07-15T12:33:26Z</time>
      </trkpt>
      <trkpt lat="42.88568" lon="-0.19689">
        <ele>1732.4</ele>
        <time>2026-07-15T12:33:27Z</time>
      </trkpt>
      <trkpt lat="42.88569" lon="-0.19689">
        <ele>1732.4</ele>
        <time>2026-07-15T12:33:28Z</time>
      </trkpt>
      <trkpt lat="42.88569" lon="-0.19689">
        <ele>1732.4</ele>
        <time>2026-07-15T12:33:29Z</time>
      </trkpt>
      <trkpt lat="42.8857" lon="-0.19689">
        <ele>1732.4</ele>
        <time>2026-07-15T12:33:29Z</time>
      </trkpt>
      <trkpt lat="42.8857" lon="-0.19689">
        <ele>1733.4</ele>
        <time>2026-07-15T12:33:30Z</time>
      </trkpt>
      <trkpt lat="42.88571" lon="-0.1969">
        <ele>1733.4</ele>
        <time>2026-07-15T12:33:31Z</time>
      </trkpt>
      <trkpt lat="42.88571" lon="-0.1969">
        <ele>1733.4</ele>
        <time>2026-07-15T12:33:32Z</time>
      </trkpt>
      <trkpt lat="42.88571" lon="-0.1969">
        <ele>1733.4</ele>
        <time>2026-07-15T12:33:32Z</time>
      </trkpt>
      <trkpt lat="42.88572" lon="-0.19691">
        <ele>1733.4</ele>
        <time>2026-07-15T12:33:33Z</time>
      </trkpt>
      <trkpt lat="42.88572" lon="-0.19691">
        <ele>1733.4</ele>
        <time>2026-07-15T12:33:33Z</time>
      </trkpt>
      <trkpt lat="42.88572" lon="-0.19691">
        <ele>1733.4</ele>
        <time>2026-07-15T12:33:34Z</time>
      </trkpt>
      <trkpt lat="42.88572" lon="-0.19691">
        <ele>1732.4</ele>
        <time>2026-07-15T12:33:34Z</time>
      </trkpt>
      <trkpt lat="42.88573" lon="-0.19691">
        <ele>1732.4</ele>
        <time>2026-07-15T12:33:35Z</time>
      </trkpt>
      <trkpt lat="42.88573" lon="-0.19691">
        <ele>1732.4</ele>
        <time>2026-07-15T12:33:36Z</time>
      </trkpt>
      <trkpt lat="42.88573" lon="-0.19691">
        <ele>1732.4</ele>
        <time>2026-07-15T12:33:36Z</time>
      </trkpt>
      <trkpt lat="42.88574" lon="-0.19691">
        <ele>1732.4</ele>
        <time>2026-07-15T12:33:37Z</time>
      </trkpt>
      <trkpt lat="42.88574" lon="-0.19692">
        <ele>1732.4</ele>
        <time>2026-07-15T12:33:38Z</time>
      </trkpt>
      <trkpt lat="42.88575" lon="-0.19692">
        <ele>1732.4</ele>
        <time>2026-07-15T12:33:39Z</time>
      </trkpt>
      <trkpt lat="42.88575" lon="-0.19692">
        <ele>1731.4</ele>
        <time>2026-07-15T12:33:39Z</time>
      </trkpt>
      <trkpt lat="42.88575" lon="-0.19692">
        <ele>1731.4</ele>
        <time>2026-07-15T12:33:40Z</time>
      </trkpt>
      <trkpt lat="42.88575" lon="-0.19692">
        <ele>1731.4</ele>
        <time>2026-07-15T12:33:40Z</time>
      </trkpt>
      <trkpt lat="42.88576" lon="-0.19692">
        <ele>1731.4</ele>
        <time>2026-07-15T12:33:41Z</time>
      </trkpt>
      <trkpt lat="42.88576" lon="-0.19693">
        <ele>1730.4</ele>
        <time>2026-07-15T12:33:42Z</time>
      </trkpt>
      <trkpt lat="42.88576" lon="-0.19693">
        <ele>1730.4</ele>
        <time>2026-07-15T12:33:42Z</time>
      </trkpt>
      <trkpt lat="42.88576" lon="-0.19692">
        <ele>1730.4</ele>
        <time>2026-07-15T12:33:43Z</time>
      </trkpt>
      <trkpt lat="42.88576" lon="-0.19692">
        <ele>1730.4</ele>
        <time>2026-07-15T12:33:44Z</time>
      </trkpt>
      <trkpt lat="42.88576" lon="-0.19692">
        <ele>1728.4</ele>
        <time>2026-07-15T12:33:44Z</time>
      </trkpt>
      <trkpt lat="42.88577" lon="-0.19692">
        <ele>1728.4</ele>
        <time>2026-07-15T12:33:45Z</time>
      </trkpt>
      <trkpt lat="42.88577" lon="-0.19692">
        <ele>1727.4</ele>
        <time>2026-07-15T12:33:46Z</time>
      </trkpt>
      <trkpt lat="42.88578" lon="-0.19693">
        <ele>1727.4</ele>
        <time>2026-07-15T12:33:47Z</time>
      </trkpt>
      <trkpt lat="42.88578" lon="-0.19692">
        <ele>1726.4</ele>
        <time>2026-07-15T12:33:47Z</time>
      </trkpt>
      <trkpt lat="42.88579" lon="-0.19692">
        <ele>1726.4</ele>
        <time>2026-07-15T12:33:48Z</time>
      </trkpt>
      <trkpt lat="42.88579" lon="-0.19692">
        <ele>1727.4</ele>
        <time>2026-07-15T12:33:48Z</time>
      </trkpt>
      <trkpt lat="42.88579" lon="-0.19693">
        <ele>1727.4</ele>
        <time>2026-07-15T12:33:49Z</time>
      </trkpt>
      <trkpt lat="42.8858" lon="-0.19693">
        <ele>1727.4</ele>
        <time>2026-07-15T12:33:50Z</time>
      </trkpt>
      <trkpt lat="42.8858" lon="-0.19694">
        <ele>1726.4</ele>
        <time>2026-07-15T12:33:50Z</time>
      </trkpt>
      <trkpt lat="42.8858" lon="-0.19695">
        <ele>1726.4</ele>
        <time>2026-07-15T12:33:51Z</time>
      </trkpt>
      <trkpt lat="42.8858" lon="-0.19695">
        <ele>1726.4</ele>
        <time>2026-07-15T12:33:52Z</time>
      </trkpt>
      <trkpt lat="42.88581" lon="-0.19695">
        <ele>1725.4</ele>
        <time>2026-07-15T12:33:52Z</time>
      </trkpt>
      <trkpt lat="42.88581" lon="-0.19696">
        <ele>1725.4</ele>
        <time>2026-07-15T12:33:53Z</time>
      </trkpt>
      <trkpt lat="42.88581" lon="-0.19695">
        <ele>1724.4</ele>
        <time>2026-07-15T12:33:53Z</time>
      </trkpt>
      <trkpt lat="42.88582" lon="-0.19696">
        <ele>1724.4</ele>
        <time>2026-07-15T12:33:54Z</time>
      </trkpt>
      <trkpt lat="42.88582" lon="-0.19696">
        <ele>1724.4</ele>
        <time>2026-07-15T12:33:54Z</time>
      </trkpt>
      <trkpt lat="42.88582" lon="-0.19696">
        <ele>1724.4</ele>
        <time>2026-07-15T12:33:55Z</time>
      </trkpt>
      <trkpt lat="42.88582" lon="-0.19696">
        <ele>1724.4</ele>
        <time>2026-07-15T12:33:55Z</time>
      </trkpt>
      <trkpt lat="42.88583" lon="-0.19696">
        <ele>1723.4</ele>
        <time>2026-07-15T12:33:56Z</time>
      </trkpt>
      <trkpt lat="42.88583" lon="-0.19696">
        <ele>1723.4</ele>
        <time>2026-07-15T12:33:57Z</time>
      </trkpt>
      <trkpt lat="42.88583" lon="-0.19696">
        <ele>1723.4</ele>
        <time>2026-07-15T12:33:57Z</time>
      </trkpt>
      <trkpt lat="42.88584" lon="-0.19696">
        <ele>1723.4</ele>
        <time>2026-07-15T12:33:58Z</time>
      </trkpt>
      <trkpt lat="42.88584" lon="-0.19696">
        <ele>1722.4</ele>
        <time>2026-07-15T12:33:58Z</time>
      </trkpt>
      <trkpt lat="42.88584" lon="-0.19696">
        <ele>1722.4</ele>
        <time>2026-07-15T12:33:59Z</time>
      </trkpt>
      <trkpt lat="42.88585" lon="-0.19696">
        <ele>1721.4</ele>
        <time>2026-07-15T12:34:00Z</time>
      </trkpt>
      <trkpt lat="42.88584" lon="-0.19696">
        <ele>1721.4</ele>
        <time>2026-07-15T12:34:00Z</time>
      </trkpt>
      <trkpt lat="42.88585" lon="-0.19696">
        <ele>1721.4</ele>
        <time>2026-07-15T12:34:01Z</time>
      </trkpt>
      <trkpt lat="42.88585" lon="-0.19696">
        <ele>1721.4</ele>
        <time>2026-07-15T12:34:01Z</time>
      </trkpt>
      <trkpt lat="42.88585" lon="-0.19695">
        <ele>1721.4</ele>
        <time>2026-07-15T12:34:02Z</time>
      </trkpt>
      <trkpt lat="42.88585" lon="-0.19695">
        <ele>1721.4</ele>
        <time>2026-07-15T12:34:02Z</time>
      </trkpt>
      <trkpt lat="42.88586" lon="-0.19695">
        <ele>1721.4</ele>
        <time>2026-07-15T12:34:03Z</time>
      </trkpt>
      <trkpt lat="42.88586" lon="-0.19695">
        <ele>1721.4</ele>
        <time>2026-07-15T12:34:03Z</time>
      </trkpt>
      <trkpt lat="42.88587" lon="-0.19695">
        <ele>1721.4</ele>
        <time>2026-07-15T12:34:04Z</time>
      </trkpt>
      <trkpt lat="42.88588" lon="-0.19696">
        <ele>1721.4</ele>
        <time>2026-07-15T12:34:05Z</time>
      </trkpt>
      <trkpt lat="42.88588" lon="-0.19696">
        <ele>1721.4</ele>
        <time>2026-07-15T12:34:05Z</time>
      </trkpt>
      <trkpt lat="42.88588" lon="-0.19696">
        <ele>1721.4</ele>
        <time>2026-07-15T12:34:06Z</time>
      </trkpt>
      <trkpt lat="42.88589" lon="-0.19697">
        <ele>1721.4</ele>
        <time>2026-07-15T12:34:06Z</time>
      </trkpt>
      <trkpt lat="42.88589" lon="-0.19697">
        <ele>1721.4</ele>
        <time>2026-07-15T12:34:07Z</time>
      </trkpt>
      <trkpt lat="42.88589" lon="-0.19698">
        <ele>1721.4</ele>
        <time>2026-07-15T12:34:07Z</time>
      </trkpt>
      <trkpt lat="42.88589" lon="-0.19698">
        <ele>1721.4</ele>
        <time>2026-07-15T12:34:08Z</time>
      </trkpt>
      <trkpt lat="42.8859" lon="-0.19699">
        <ele>1721.4</ele>
        <time>2026-07-15T12:34:08Z</time>
      </trkpt>
      <trkpt lat="42.8859" lon="-0.19699">
        <ele>1721.4</ele>
        <time>2026-07-15T12:34:09Z</time>
      </trkpt>
      <trkpt lat="42.88591" lon="-0.19699">
        <ele>1721.4</ele>
        <time>2026-07-15T12:34:10Z</time>
      </trkpt>
      <trkpt lat="42.88591" lon="-0.197">
        <ele>1720.4</ele>
        <time>2026-07-15T12:34:11Z</time>
      </trkpt>
      <trkpt lat="42.88591" lon="-0.197">
        <ele>1720.4</ele>
        <time>2026-07-15T12:34:11Z</time>
      </trkpt>
      <trkpt lat="42.88592" lon="-0.19701">
        <ele>1720.4</ele>
        <time>2026-07-15T12:34:12Z</time>
      </trkpt>
      <trkpt lat="42.88592" lon="-0.19701">
        <ele>1720.4</ele>
        <time>2026-07-15T12:34:12Z</time>
      </trkpt>
      <trkpt lat="42.88593" lon="-0.19702">
        <ele>1720.4</ele>
        <time>2026-07-15T12:34:13Z</time>
      </trkpt>
      <trkpt lat="42.88593" lon="-0.19702">
        <ele>1719.4</ele>
        <time>2026-07-15T12:34:14Z</time>
      </trkpt>
      <trkpt lat="42.88593" lon="-0.19702">
        <ele>1719.4</ele>
        <time>2026-07-15T12:34:14Z</time>
      </trkpt>
      <trkpt lat="42.88593" lon="-0.19702">
        <ele>1719.4</ele>
        <time>2026-07-15T12:34:15Z</time>
      </trkpt>
      <trkpt lat="42.88594" lon="-0.19701">
        <ele>1719.4</ele>
        <time>2026-07-15T12:34:16Z</time>
      </trkpt>
      <trkpt lat="42.88594" lon="-0.19701">
        <ele>1718.4</ele>
        <time>2026-07-15T12:34:17Z</time>
      </trkpt>
      <trkpt lat="42.88595" lon="-0.19701">
        <ele>1717.4</ele>
        <time>2026-07-15T12:34:17Z</time>
      </trkpt>
      <trkpt lat="42.88595" lon="-0.19702">
        <ele>1717.4</ele>
        <time>2026-07-15T12:34:18Z</time>
      </trkpt>
      <trkpt lat="42.88595" lon="-0.19702">
        <ele>1716.4</ele>
        <time>2026-07-15T12:34:18Z</time>
      </trkpt>
      <trkpt lat="42.88595" lon="-0.19703">
        <ele>1716.4</ele>
        <time>2026-07-15T12:34:19Z</time>
      </trkpt>
      <trkpt lat="42.88595" lon="-0.19704">
        <ele>1716.4</ele>
        <time>2026-07-15T12:34:20Z</time>
      </trkpt>
      <trkpt lat="42.88595" lon="-0.19705">
        <ele>1715.4</ele>
        <time>2026-07-15T12:34:20Z</time>
      </trkpt>
      <trkpt lat="42.88595" lon="-0.19705">
        <ele>1715.4</ele>
        <time>2026-07-15T12:34:21Z</time>
      </trkpt>
      <trkpt lat="42.88596" lon="-0.19706">
        <ele>1715.4</ele>
        <time>2026-07-15T12:34:21Z</time>
      </trkpt>
      <trkpt lat="42.88596" lon="-0.19706">
        <ele>1715.4</ele>
        <time>2026-07-15T12:34:22Z</time>
      </trkpt>
      <trkpt lat="42.88596" lon="-0.19707">
        <ele>1716.4</ele>
        <time>2026-07-15T12:34:23Z</time>
      </trkpt>
      <trkpt lat="42.88597" lon="-0.19707">
        <ele>1715.4</ele>
        <time>2026-07-15T12:34:23Z</time>
      </trkpt>
      <trkpt lat="42.88597" lon="-0.19707">
        <ele>1715.4</ele>
        <time>2026-07-15T12:34:24Z</time>
      </trkpt>
      <trkpt lat="42.88597" lon="-0.19707">
        <ele>1715.4</ele>
        <time>2026-07-15T12:34:24Z</time>
      </trkpt>
      <trkpt lat="42.88598" lon="-0.19708">
        <ele>1715.4</ele>
        <time>2026-07-15T12:34:25Z</time>
      </trkpt>
      <trkpt lat="42.88599" lon="-0.19709">
        <ele>1715.4</ele>
        <time>2026-07-15T12:34:26Z</time>
      </trkpt>
      <trkpt lat="42.88599" lon="-0.19709">
        <ele>1715.4</ele>
        <time>2026-07-15T12:34:26Z</time>
      </trkpt>
      <trkpt lat="42.88599" lon="-0.19709">
        <ele>1714.4</ele>
        <time>2026-07-15T12:34:27Z</time>
      </trkpt>
      <trkpt lat="42.886" lon="-0.1971">
        <ele>1714.4</ele>
        <time>2026-07-15T12:34:28Z</time>
      </trkpt>
      <trkpt lat="42.886" lon="-0.1971">
        <ele>1714.4</ele>
        <time>2026-07-15T12:34:28Z</time>
      </trkpt>
      <trkpt lat="42.88601" lon="-0.1971">
        <ele>1714.4</ele>
        <time>2026-07-15T12:34:29Z</time>
      </trkpt>
      <trkpt lat="42.88601" lon="-0.19711">
        <ele>1714.4</ele>
        <time>2026-07-15T12:34:29Z</time>
      </trkpt>
      <trkpt lat="42.88601" lon="-0.19711">
        <ele>1714.4</ele>
        <time>2026-07-15T12:34:30Z</time>
      </trkpt>
      <trkpt lat="42.88602" lon="-0.19711">
        <ele>1713.4</ele>
        <time>2026-07-15T12:34:30Z</time>
      </trkpt>
      <trkpt lat="42.88602" lon="-0.19712">
        <ele>1713.4</ele>
        <time>2026-07-15T12:34:31Z</time>
      </trkpt>
      <trkpt lat="42.88602" lon="-0.19713">
        <ele>1713.4</ele>
        <time>2026-07-15T12:34:31Z</time>
      </trkpt>
      <trkpt lat="42.88602" lon="-0.19713">
        <ele>1713.4</ele>
        <time>2026-07-15T12:34:32Z</time>
      </trkpt>
      <trkpt lat="42.88602" lon="-0.19714">
        <ele>1713.4</ele>
        <time>2026-07-15T12:34:33Z</time>
      </trkpt>
      <trkpt lat="42.88602" lon="-0.19714">
        <ele>1713.4</ele>
        <time>2026-07-15T12:34:33Z</time>
      </trkpt>
      <trkpt lat="42.88603" lon="-0.19715">
        <ele>1712.4</ele>
        <time>2026-07-15T12:34:34Z</time>
      </trkpt>
      <trkpt lat="42.88603" lon="-0.19715">
        <ele>1712.4</ele>
        <time>2026-07-15T12:34:34Z</time>
      </trkpt>
      <trkpt lat="42.88603" lon="-0.19716">
        <ele>1712.4</ele>
        <time>2026-07-15T12:34:35Z</time>
      </trkpt>
      <trkpt lat="42.88603" lon="-0.19716">
        <ele>1713.4</ele>
        <time>2026-07-15T12:34:35Z</time>
      </trkpt>
      <trkpt lat="42.88604" lon="-0.19717">
        <ele>1713.4</ele>
        <time>2026-07-15T12:34:36Z</time>
      </trkpt>
      <trkpt lat="42.88604" lon="-0.19717">
        <ele>1713.4</ele>
        <time>2026-07-15T12:34:36Z</time>
      </trkpt>
      <trkpt lat="42.88604" lon="-0.19718">
        <ele>1713.4</ele>
        <time>2026-07-15T12:34:37Z</time>
      </trkpt>
      <trkpt lat="42.88605" lon="-0.19718">
        <ele>1712.4</ele>
        <time>2026-07-15T12:34:37Z</time>
      </trkpt>
      <trkpt lat="42.88605" lon="-0.19719">
        <ele>1712.4</ele>
        <time>2026-07-15T12:34:38Z</time>
      </trkpt>
      <trkpt lat="42.88606" lon="-0.19719">
        <ele>1712.4</ele>
        <time>2026-07-15T12:34:39Z</time>
      </trkpt>
      <trkpt lat="42.88606" lon="-0.19719">
        <ele>1712.4</ele>
        <time>2026-07-15T12:34:39Z</time>
      </trkpt>
      <trkpt lat="42.88607" lon="-0.19719">
        <ele>1712.4</ele>
        <time>2026-07-15T12:34:40Z</time>
      </trkpt>
      <trkpt lat="42.88608" lon="-0.19719">
        <ele>1712.4</ele>
        <time>2026-07-15T12:34:41Z</time>
      </trkpt>
      <trkpt lat="42.88608" lon="-0.19719">
        <ele>1712.4</ele>
        <time>2026-07-15T12:34:41Z</time>
      </trkpt>
      <trkpt lat="42.88609" lon="-0.19719">
        <ele>1712.4</ele>
        <time>2026-07-15T12:34:42Z</time>
      </trkpt>
      <trkpt lat="42.88609" lon="-0.19719">
        <ele>1712.4</ele>
        <time>2026-07-15T12:34:42Z</time>
      </trkpt>
      <trkpt lat="42.8861" lon="-0.19719">
        <ele>1712.4</ele>
        <time>2026-07-15T12:34:43Z</time>
      </trkpt>
      <trkpt lat="42.8861" lon="-0.19719">
        <ele>1712.4</ele>
        <time>2026-07-15T12:34:44Z</time>
      </trkpt>
      <trkpt lat="42.8861" lon="-0.1972">
        <ele>1711.4</ele>
        <time>2026-07-15T12:34:44Z</time>
      </trkpt>
      <trkpt lat="42.88611" lon="-0.1972">
        <ele>1711.4</ele>
        <time>2026-07-15T12:34:44Z</time>
      </trkpt>
      <trkpt lat="42.88611" lon="-0.1972">
        <ele>1711.4</ele>
        <time>2026-07-15T12:34:45Z</time>
      </trkpt>
      <trkpt lat="42.88611" lon="-0.19721">
        <ele>1711.4</ele>
        <time>2026-07-15T12:34:46Z</time>
      </trkpt>
      <trkpt lat="42.88612" lon="-0.19721">
        <ele>1712.4</ele>
        <time>2026-07-15T12:34:46Z</time>
      </trkpt>
      <trkpt lat="42.88612" lon="-0.19721">
        <ele>1712.4</ele>
        <time>2026-07-15T12:34:47Z</time>
      </trkpt>
      <trkpt lat="42.88613" lon="-0.19722">
        <ele>1711.4</ele>
        <time>2026-07-15T12:34:48Z</time>
      </trkpt>
      <trkpt lat="42.88614" lon="-0.19723">
        <ele>1711.4</ele>
        <time>2026-07-15T12:34:49Z</time>
      </trkpt>
      <trkpt lat="42.88614" lon="-0.19724">
        <ele>1711.4</ele>
        <time>2026-07-15T12:34:50Z</time>
      </trkpt>
      <trkpt lat="42.88614" lon="-0.19724">
        <ele>1711.4</ele>
        <time>2026-07-15T12:34:51Z</time>
      </trkpt>
      <trkpt lat="42.88613" lon="-0.19724">
        <ele>1711.4</ele>
        <time>2026-07-15T12:34:52Z</time>
      </trkpt>
      <trkpt lat="42.88613" lon="-0.19724">
        <ele>1711.4</ele>
        <time>2026-07-15T12:34:53Z</time>
      </trkpt>
      <trkpt lat="42.88614" lon="-0.19724">
        <ele>1711.4</ele>
        <time>2026-07-15T12:34:53Z</time>
      </trkpt>
      <trkpt lat="42.88614" lon="-0.19724">
        <ele>1711.4</ele>
        <time>2026-07-15T12:34:54Z</time>
      </trkpt>
      <trkpt lat="42.88615" lon="-0.19724">
        <ele>1711.4</ele>
        <time>2026-07-15T12:34:54Z</time>
      </trkpt>
      <trkpt lat="42.88615" lon="-0.19724">
        <ele>1711.4</ele>
        <time>2026-07-15T12:34:55Z</time>
      </trkpt>
      <trkpt lat="42.88616" lon="-0.19724">
        <ele>1711.4</ele>
        <time>2026-07-15T12:34:56Z</time>
      </trkpt>
      <trkpt lat="42.88616" lon="-0.19724">
        <ele>1711.4</ele>
        <time>2026-07-15T12:34:56Z</time>
      </trkpt>
      <trkpt lat="42.88617" lon="-0.19724">
        <ele>1711.4</ele>
        <time>2026-07-15T12:34:57Z</time>
      </trkpt>
      <trkpt lat="42.88617" lon="-0.19724">
        <ele>1710.4</ele>
        <time>2026-07-15T12:34:57Z</time>
      </trkpt>
      <trkpt lat="42.88617" lon="-0.19724">
        <ele>1710.4</ele>
        <time>2026-07-15T12:34:58Z</time>
      </trkpt>
      <trkpt lat="42.88618" lon="-0.19725">
        <ele>1709.4</ele>
        <time>2026-07-15T12:34:58Z</time>
      </trkpt>
      <trkpt lat="42.88618" lon="-0.19725">
        <ele>1709.4</ele>
        <time>2026-07-15T12:34:59Z</time>
      </trkpt>
      <trkpt lat="42.88618" lon="-0.19725">
        <ele>1709.4</ele>
        <time>2026-07-15T12:34:59Z</time>
      </trkpt>
      <trkpt lat="42.88619" lon="-0.19726">
        <ele>1709.4</ele>
        <time>2026-07-15T12:35:00Z</time>
      </trkpt>
      <trkpt lat="42.88619" lon="-0.19726">
        <ele>1709.4</ele>
        <time>2026-07-15T12:35:01Z</time>
      </trkpt>
      <trkpt lat="42.88619" lon="-0.19726">
        <ele>1708.4</ele>
        <time>2026-07-15T12:35:01Z</time>
      </trkpt>
      <trkpt lat="42.88619" lon="-0.19727">
        <ele>1708.4</ele>
        <time>2026-07-15T12:35:02Z</time>
      </trkpt>
      <trkpt lat="42.88619" lon="-0.19728">
        <ele>1707.4</ele>
        <time>2026-07-15T12:35:02Z</time>
      </trkpt>
      <trkpt lat="42.88619" lon="-0.19728">
        <ele>1707.4</ele>
        <time>2026-07-15T12:35:03Z</time>
      </trkpt>
      <trkpt lat="42.8862" lon="-0.19729">
        <ele>1707.4</ele>
        <time>2026-07-15T12:35:03Z</time>
      </trkpt>
      <trkpt lat="42.8862" lon="-0.1973">
        <ele>1707.4</ele>
        <time>2026-07-15T12:35:04Z</time>
      </trkpt>
      <trkpt lat="42.8862" lon="-0.1973">
        <ele>1707.4</ele>
        <time>2026-07-15T12:35:04Z</time>
      </trkpt>
      <trkpt lat="42.8862" lon="-0.19731">
        <ele>1707.4</ele>
        <time>2026-07-15T12:35:05Z</time>
      </trkpt>
      <trkpt lat="42.8862" lon="-0.19731">
        <ele>1708.4</ele>
        <time>2026-07-15T12:35:06Z</time>
      </trkpt>
      <trkpt lat="42.8862" lon="-0.19731">
        <ele>1707.4</ele>
        <time>2026-07-15T12:35:06Z</time>
      </trkpt>
      <trkpt lat="42.8862" lon="-0.19731">
        <ele>1707.4</ele>
        <time>2026-07-15T12:35:07Z</time>
      </trkpt>
      <trkpt lat="42.8862" lon="-0.19732">
        <ele>1707.4</ele>
        <time>2026-07-15T12:35:08Z</time>
      </trkpt>
      <trkpt lat="42.8862" lon="-0.19733">
        <ele>1707.4</ele>
        <time>2026-07-15T12:35:08Z</time>
      </trkpt>
      <trkpt lat="42.88621" lon="-0.19733">
        <ele>1707.4</ele>
        <time>2026-07-15T12:35:09Z</time>
      </trkpt>
      <trkpt lat="42.88621" lon="-0.19733">
        <ele>1707.4</ele>
        <time>2026-07-15T12:35:10Z</time>
      </trkpt>
      <trkpt lat="42.88621" lon="-0.19733">
        <ele>1706.4</ele>
        <time>2026-07-15T12:35:10Z</time>
      </trkpt>
      <trkpt lat="42.88622" lon="-0.19734">
        <ele>1706.4</ele>
        <time>2026-07-15T12:35:11Z</time>
      </trkpt>
      <trkpt lat="42.88623" lon="-0.19734">
        <ele>1706.4</ele>
        <time>2026-07-15T12:35:11Z</time>
      </trkpt>
      <trkpt lat="42.88624" lon="-0.19734">
        <ele>1706.4</ele>
        <time>2026-07-15T12:35:12Z</time>
      </trkpt>
      <trkpt lat="42.88624" lon="-0.19734">
        <ele>1706.4</ele>
        <time>2026-07-15T12:35:13Z</time>
      </trkpt>
      <trkpt lat="42.88625" lon="-0.19734">
        <ele>1705.4</ele>
        <time>2026-07-15T12:35:13Z</time>
      </trkpt>
      <trkpt lat="42.88625" lon="-0.19734">
        <ele>1705.4</ele>
        <time>2026-07-15T12:35:14Z</time>
      </trkpt>
      <trkpt lat="42.88626" lon="-0.19735">
        <ele>1705.4</ele>
        <time>2026-07-15T12:35:15Z</time>
      </trkpt>
      <trkpt lat="42.88626" lon="-0.19735">
        <ele>1705.4</ele>
        <time>2026-07-15T12:35:15Z</time>
      </trkpt>
      <trkpt lat="42.88626" lon="-0.19735">
        <ele>1705.4</ele>
        <time>2026-07-15T12:35:16Z</time>
      </trkpt>
      <trkpt lat="42.88627" lon="-0.19736">
        <ele>1705.4</ele>
        <time>2026-07-15T12:35:17Z</time>
      </trkpt>
      <trkpt lat="42.88628" lon="-0.19737">
        <ele>1705.4</ele>
        <time>2026-07-15T12:35:18Z</time>
      </trkpt>
      <trkpt lat="42.88628" lon="-0.19737">
        <ele>1705.4</ele>
        <time>2026-07-15T12:35:18Z</time>
      </trkpt>
      <trkpt lat="42.88629" lon="-0.19738">
        <ele>1705.4</ele>
        <time>2026-07-15T12:35:19Z</time>
      </trkpt>
      <trkpt lat="42.88629" lon="-0.19738">
        <ele>1704.4</ele>
        <time>2026-07-15T12:35:20Z</time>
      </trkpt>
      <trkpt lat="42.88629" lon="-0.19739">
        <ele>1703.4</ele>
        <time>2026-07-15T12:35:21Z</time>
      </trkpt>
      <trkpt lat="42.8863" lon="-0.19739">
        <ele>1703.4</ele>
        <time>2026-07-15T12:35:22Z</time>
      </trkpt>
      <trkpt lat="42.8863" lon="-0.1974">
        <ele>1702.4</ele>
        <time>2026-07-15T12:35:22Z</time>
      </trkpt>
      <trkpt lat="42.88631" lon="-0.1974">
        <ele>1702.4</ele>
        <time>2026-07-15T12:35:23Z</time>
      </trkpt>
      <trkpt lat="42.88631" lon="-0.19741">
        <ele>1702.4</ele>
        <time>2026-07-15T12:35:23Z</time>
      </trkpt>
      <trkpt lat="42.88631" lon="-0.19741">
        <ele>1702.4</ele>
        <time>2026-07-15T12:35:24Z</time>
      </trkpt>
      <trkpt lat="42.88631" lon="-0.19742">
        <ele>1701.4</ele>
        <time>2026-07-15T12:35:24Z</time>
      </trkpt>
      <trkpt lat="42.88631" lon="-0.19743">
        <ele>1700.4</ele>
        <time>2026-07-15T12:35:25Z</time>
      </trkpt>
      <trkpt lat="42.88632" lon="-0.19744">
        <ele>1700.4</ele>
        <time>2026-07-15T12:35:26Z</time>
      </trkpt>
      <trkpt lat="42.88632" lon="-0.19744">
        <ele>1699.4</ele>
        <time>2026-07-15T12:35:26Z</time>
      </trkpt>
      <trkpt lat="42.88632" lon="-0.19745">
        <ele>1699.4</ele>
        <time>2026-07-15T12:35:27Z</time>
      </trkpt>
      <trkpt lat="42.88632" lon="-0.19745">
        <ele>1699.4</ele>
        <time>2026-07-15T12:35:28Z</time>
      </trkpt>
      <trkpt lat="42.88633" lon="-0.19746">
        <ele>1699.4</ele>
        <time>2026-07-15T12:35:28Z</time>
      </trkpt>
      <trkpt lat="42.88633" lon="-0.19746">
        <ele>1699.4</ele>
        <time>2026-07-15T12:35:29Z</time>
      </trkpt>
      <trkpt lat="42.88633" lon="-0.19747">
        <ele>1698.4</ele>
        <time>2026-07-15T12:35:30Z</time>
      </trkpt>
      <trkpt lat="42.88633" lon="-0.19748">
        <ele>1698.4</ele>
        <time>2026-07-15T12:35:30Z</time>
      </trkpt>
      <trkpt lat="42.88634" lon="-0.19748">
        <ele>1698.4</ele>
        <time>2026-07-15T12:35:31Z</time>
      </trkpt>
      <trkpt lat="42.88634" lon="-0.19749">
        <ele>1698.4</ele>
        <time>2026-07-15T12:35:31Z</time>
      </trkpt>
      <trkpt lat="42.88635" lon="-0.19749">
        <ele>1698.4</ele>
        <time>2026-07-15T12:35:32Z</time>
      </trkpt>
      <trkpt lat="42.88635" lon="-0.1975">
        <ele>1699.4</ele>
        <time>2026-07-15T12:35:32Z</time>
      </trkpt>
      <trkpt lat="42.88635" lon="-0.1975">
        <ele>1699.4</ele>
        <time>2026-07-15T12:35:33Z</time>
      </trkpt>
      <trkpt lat="42.88636" lon="-0.19751">
        <ele>1698.4</ele>
        <time>2026-07-15T12:35:33Z</time>
      </trkpt>
      <trkpt lat="42.88636" lon="-0.19751">
        <ele>1698.4</ele>
        <time>2026-07-15T12:35:34Z</time>
      </trkpt>
      <trkpt lat="42.88637" lon="-0.19752">
        <ele>1698.4</ele>
        <time>2026-07-15T12:35:35Z</time>
      </trkpt>
      <trkpt lat="42.88637" lon="-0.19752">
        <ele>1698.4</ele>
        <time>2026-07-15T12:35:35Z</time>
      </trkpt>
      <trkpt lat="42.88637" lon="-0.19752">
        <ele>1698.4</ele>
        <time>2026-07-15T12:35:36Z</time>
      </trkpt>
      <trkpt lat="42.88638" lon="-0.19752">
        <ele>1698.4</ele>
        <time>2026-07-15T12:35:37Z</time>
      </trkpt>
      <trkpt lat="42.88638" lon="-0.19752">
        <ele>1698.4</ele>
        <time>2026-07-15T12:35:37Z</time>
      </trkpt>
      <trkpt lat="42.88639" lon="-0.19753">
        <ele>1698.4</ele>
        <time>2026-07-15T12:35:38Z</time>
      </trkpt>
      <trkpt lat="42.88639" lon="-0.19753">
        <ele>1698.4</ele>
        <time>2026-07-15T12:35:38Z</time>
      </trkpt>
      <trkpt lat="42.88639" lon="-0.19753">
        <ele>1698.4</ele>
        <time>2026-07-15T12:35:39Z</time>
      </trkpt>
      <trkpt lat="42.8864" lon="-0.19753">
        <ele>1698.4</ele>
        <time>2026-07-15T12:35:39Z</time>
      </trkpt>
      <trkpt lat="42.8864" lon="-0.19754">
        <ele>1698.4</ele>
        <time>2026-07-15T12:35:40Z</time>
      </trkpt>
      <trkpt lat="42.88641" lon="-0.19755">
        <ele>1698.4</ele>
        <time>2026-07-15T12:35:41Z</time>
      </trkpt>
      <trkpt lat="42.88641" lon="-0.19755">
        <ele>1697.4</ele>
        <time>2026-07-15T12:35:42Z</time>
      </trkpt>
      <trkpt lat="42.88641" lon="-0.19755">
        <ele>1696.4</ele>
        <time>2026-07-15T12:35:42Z</time>
      </trkpt>
      <trkpt lat="42.88642" lon="-0.19755">
        <ele>1696.4</ele>
        <time>2026-07-15T12:35:43Z</time>
      </trkpt>
      <trkpt lat="42.88642" lon="-0.19755">
        <ele>1696.4</ele>
        <time>2026-07-15T12:35:43Z</time>
      </trkpt>
      <trkpt lat="42.88643" lon="-0.19756">
        <ele>1696.4</ele>
        <time>2026-07-15T12:35:44Z</time>
      </trkpt>
      <trkpt lat="42.88643" lon="-0.19755">
        <ele>1695.4</ele>
        <time>2026-07-15T12:35:44Z</time>
      </trkpt>
      <trkpt lat="42.88643" lon="-0.19755">
        <ele>1696.4</ele>
        <time>2026-07-15T12:35:45Z</time>
      </trkpt>
      <trkpt lat="42.88644" lon="-0.19755">
        <ele>1695.4</ele>
        <time>2026-07-15T12:35:46Z</time>
      </trkpt>
      <trkpt lat="42.88645" lon="-0.19755">
        <ele>1695.4</ele>
        <time>2026-07-15T12:35:47Z</time>
      </trkpt>
      <trkpt lat="42.88645" lon="-0.19755">
        <ele>1694.4</ele>
        <time>2026-07-15T12:35:47Z</time>
      </trkpt>
      <trkpt lat="42.88646" lon="-0.19755">
        <ele>1694.4</ele>
        <time>2026-07-15T12:35:48Z</time>
      </trkpt>
      <trkpt lat="42.88645" lon="-0.19755">
        <ele>1694.4</ele>
        <time>2026-07-15T12:35:48Z</time>
      </trkpt>
      <trkpt lat="42.88646" lon="-0.19755">
        <ele>1694.4</ele>
        <time>2026-07-15T12:35:49Z</time>
      </trkpt>
      <trkpt lat="42.88646" lon="-0.19755">
        <ele>1694.4</ele>
        <time>2026-07-15T12:35:50Z</time>
      </trkpt>
      <trkpt lat="42.88646" lon="-0.19755">
        <ele>1694.4</ele>
        <time>2026-07-15T12:35:50Z</time>
      </trkpt>
      <trkpt lat="42.88646" lon="-0.19755">
        <ele>1694.4</ele>
        <time>2026-07-15T12:35:51Z</time>
      </trkpt>
      <trkpt lat="42.88646" lon="-0.19757">
        <ele>1693.4</ele>
        <time>2026-07-15T12:35:52Z</time>
      </trkpt>
      <trkpt lat="42.88645" lon="-0.19757">
        <ele>1693.4</ele>
        <time>2026-07-15T12:35:53Z</time>
      </trkpt>
      <trkpt lat="42.88645" lon="-0.19758">
        <ele>1693.4</ele>
        <time>2026-07-15T12:35:54Z</time>
      </trkpt>
      <trkpt lat="42.88645" lon="-0.19759">
        <ele>1692.4</ele>
        <time>2026-07-15T12:35:54Z</time>
      </trkpt>
      <trkpt lat="42.88645" lon="-0.19759">
        <ele>1692.4</ele>
        <time>2026-07-15T12:35:55Z</time>
      </trkpt>
      <trkpt lat="42.88645" lon="-0.1976">
        <ele>1692.4</ele>
        <time>2026-07-15T12:35:56Z</time>
      </trkpt>
      <trkpt lat="42.88645" lon="-0.19761">
        <ele>1692.4</ele>
        <time>2026-07-15T12:35:56Z</time>
      </trkpt>
      <trkpt lat="42.88645" lon="-0.19762">
        <ele>1692.4</ele>
        <time>2026-07-15T12:35:57Z</time>
      </trkpt>
      <trkpt lat="42.88645" lon="-0.19763">
        <ele>1691.4</ele>
        <time>2026-07-15T12:35:57Z</time>
      </trkpt>
      <trkpt lat="42.88645" lon="-0.19765">
        <ele>1691.4</ele>
        <time>2026-07-15T12:35:58Z</time>
      </trkpt>
      <trkpt lat="42.88645" lon="-0.19766">
        <ele>1691.4</ele>
        <time>2026-07-15T12:35:59Z</time>
      </trkpt>
      <trkpt lat="42.88645" lon="-0.19767">
        <ele>1691.4</ele>
        <time>2026-07-15T12:35:59Z</time>
      </trkpt>
      <trkpt lat="42.88646" lon="-0.19768">
        <ele>1691.4</ele>
        <time>2026-07-15T12:36:00Z</time>
      </trkpt>
      <trkpt lat="42.88646" lon="-0.19768">
        <ele>1691.4</ele>
        <time>2026-07-15T12:36:00Z</time>
      </trkpt>
      <trkpt lat="42.88646" lon="-0.19769">
        <ele>1690.4</ele>
        <time>2026-07-15T12:36:01Z</time>
      </trkpt>
      <trkpt lat="42.88647" lon="-0.1977">
        <ele>1690.4</ele>
        <time>2026-07-15T12:36:02Z</time>
      </trkpt>
      <trkpt lat="42.88647" lon="-0.19771">
        <ele>1690.4</ele>
        <time>2026-07-15T12:36:02Z</time>
      </trkpt>
      <trkpt lat="42.88647" lon="-0.19772">
        <ele>1690.4</ele>
        <time>2026-07-15T12:36:03Z</time>
      </trkpt>
      <trkpt lat="42.88647" lon="-0.19773">
        <ele>1690.4</ele>
        <time>2026-07-15T12:36:03Z</time>
      </trkpt>
      <trkpt lat="42.88648" lon="-0.19774">
        <ele>1690.4</ele>
        <time>2026-07-15T12:36:04Z</time>
      </trkpt>
      <trkpt lat="42.88648" lon="-0.19775">
        <ele>1689.4</ele>
        <time>2026-07-15T12:36:04Z</time>
      </trkpt>
      <trkpt lat="42.88648" lon="-0.19775">
        <ele>1689.4</ele>
        <time>2026-07-15T12:36:05Z</time>
      </trkpt>
      <trkpt lat="42.88648" lon="-0.19777">
        <ele>1689.4</ele>
        <time>2026-07-15T12:36:06Z</time>
      </trkpt>
      <trkpt lat="42.88648" lon="-0.19778">
        <ele>1689.4</ele>
        <time>2026-07-15T12:36:07Z</time>
      </trkpt>
      <trkpt lat="42.88648" lon="-0.19778">
        <ele>1688.4</ele>
        <time>2026-07-15T12:36:07Z</time>
      </trkpt>
      <trkpt lat="42.88649" lon="-0.19779">
        <ele>1688.4</ele>
        <time>2026-07-15T12:36:08Z</time>
      </trkpt>
      <trkpt lat="42.88649" lon="-0.19779">
        <ele>1688.4</ele>
        <time>2026-07-15T12:36:08Z</time>
      </trkpt>
      <trkpt lat="42.8865" lon="-0.1978">
        <ele>1688.4</ele>
        <time>2026-07-15T12:36:09Z</time>
      </trkpt>
      <trkpt lat="42.88651" lon="-0.1978">
        <ele>1688.4</ele>
        <time>2026-07-15T12:36:10Z</time>
      </trkpt>
      <trkpt lat="42.88651" lon="-0.1978">
        <ele>1689.4</ele>
        <time>2026-07-15T12:36:11Z</time>
      </trkpt>
      <trkpt lat="42.88651" lon="-0.1978">
        <ele>1689.4</ele>
        <time>2026-07-15T12:36:11Z</time>
      </trkpt>
      <trkpt lat="42.88652" lon="-0.19781">
        <ele>1689.4</ele>
        <time>2026-07-15T12:36:12Z</time>
      </trkpt>
      <trkpt lat="42.88652" lon="-0.19781">
        <ele>1689.4</ele>
        <time>2026-07-15T12:36:12Z</time>
      </trkpt>
      <trkpt lat="42.88653" lon="-0.19782">
        <ele>1689.4</ele>
        <time>2026-07-15T12:36:13Z</time>
      </trkpt>
      <trkpt lat="42.88653" lon="-0.19782">
        <ele>1688.4</ele>
        <time>2026-07-15T12:36:13Z</time>
      </trkpt>
      <trkpt lat="42.88653" lon="-0.19783">
        <ele>1688.4</ele>
        <time>2026-07-15T12:36:14Z</time>
      </trkpt>
      <trkpt lat="42.88653" lon="-0.19783">
        <ele>1688.4</ele>
        <time>2026-07-15T12:36:14Z</time>
      </trkpt>
      <trkpt lat="42.88654" lon="-0.19783">
        <ele>1688.4</ele>
        <time>2026-07-15T12:36:15Z</time>
      </trkpt>
      <trkpt lat="42.88654" lon="-0.19783">
        <ele>1688.4</ele>
        <time>2026-07-15T12:36:15Z</time>
      </trkpt>
      <trkpt lat="42.88655" lon="-0.19784">
        <ele>1688.4</ele>
        <time>2026-07-15T12:36:16Z</time>
      </trkpt>
      <trkpt lat="42.88655" lon="-0.19784">
        <ele>1688.4</ele>
        <time>2026-07-15T12:36:17Z</time>
      </trkpt>
      <trkpt lat="42.88656" lon="-0.19785">
        <ele>1688.4</ele>
        <time>2026-07-15T12:36:17Z</time>
      </trkpt>
      <trkpt lat="42.88656" lon="-0.19785">
        <ele>1688.4</ele>
        <time>2026-07-15T12:36:18Z</time>
      </trkpt>
      <trkpt lat="42.88657" lon="-0.19786">
        <ele>1688.4</ele>
        <time>2026-07-15T12:36:19Z</time>
      </trkpt>
      <trkpt lat="42.88657" lon="-0.19786">
        <ele>1688.4</ele>
        <time>2026-07-15T12:36:19Z</time>
      </trkpt>
      <trkpt lat="42.88658" lon="-0.19786">
        <ele>1688.4</ele>
        <time>2026-07-15T12:36:20Z</time>
      </trkpt>
      <trkpt lat="42.88658" lon="-0.19786">
        <ele>1688.4</ele>
        <time>2026-07-15T12:36:20Z</time>
      </trkpt>
      <trkpt lat="42.88659" lon="-0.19786">
        <ele>1688.4</ele>
        <time>2026-07-15T12:36:21Z</time>
      </trkpt>
      <trkpt lat="42.88659" lon="-0.19787">
        <ele>1688.4</ele>
        <time>2026-07-15T12:36:21Z</time>
      </trkpt>
      <trkpt lat="42.8866" lon="-0.19787">
        <ele>1688.4</ele>
        <time>2026-07-15T12:36:22Z</time>
      </trkpt>
      <trkpt lat="42.88661" lon="-0.19787">
        <ele>1688.4</ele>
        <time>2026-07-15T12:36:23Z</time>
      </trkpt>
      <trkpt lat="42.88661" lon="-0.19787">
        <ele>1688.4</ele>
        <time>2026-07-15T12:36:23Z</time>
      </trkpt>
      <trkpt lat="42.88662" lon="-0.19787">
        <ele>1688.4</ele>
        <time>2026-07-15T12:36:24Z</time>
      </trkpt>
      <trkpt lat="42.88663" lon="-0.19788">
        <ele>1689.4</ele>
        <time>2026-07-15T12:36:25Z</time>
      </trkpt>
      <trkpt lat="42.88664" lon="-0.19788">
        <ele>1688.4</ele>
        <time>2026-07-15T12:36:26Z</time>
      </trkpt>
      <trkpt lat="42.88664" lon="-0.19788">
        <ele>1688.4</ele>
        <time>2026-07-15T12:36:27Z</time>
      </trkpt>
      <trkpt lat="42.88665" lon="-0.19787">
        <ele>1688.4</ele>
        <time>2026-07-15T12:36:27Z</time>
      </trkpt>
      <trkpt lat="42.88666" lon="-0.19787">
        <ele>1688.4</ele>
        <time>2026-07-15T12:36:28Z</time>
      </trkpt>
      <trkpt lat="42.88666" lon="-0.19787">
        <ele>1688.4</ele>
        <time>2026-07-15T12:36:28Z</time>
      </trkpt>
      <trkpt lat="42.88667" lon="-0.19787">
        <ele>1688.4</ele>
        <time>2026-07-15T12:36:29Z</time>
      </trkpt>
      <trkpt lat="42.88667" lon="-0.19787">
        <ele>1688.4</ele>
        <time>2026-07-15T12:36:30Z</time>
      </trkpt>
      <trkpt lat="42.88668" lon="-0.19787">
        <ele>1688.4</ele>
        <time>2026-07-15T12:36:30Z</time>
      </trkpt>
      <trkpt lat="42.88669" lon="-0.19788">
        <ele>1688.4</ele>
        <time>2026-07-15T12:36:31Z</time>
      </trkpt>
      <trkpt lat="42.8867" lon="-0.19789">
        <ele>1688.4</ele>
        <time>2026-07-15T12:36:32Z</time>
      </trkpt>
      <trkpt lat="42.88671" lon="-0.1979">
        <ele>1688.4</ele>
        <time>2026-07-15T12:36:33Z</time>
      </trkpt>
      <trkpt lat="42.88672" lon="-0.19791">
        <ele>1688.4</ele>
        <time>2026-07-15T12:36:34Z</time>
      </trkpt>
      <trkpt lat="42.88673" lon="-0.19792">
        <ele>1688.4</ele>
        <time>2026-07-15T12:36:35Z</time>
      </trkpt>
      <trkpt lat="42.88674" lon="-0.19792">
        <ele>1688.4</ele>
        <time>2026-07-15T12:36:36Z</time>
      </trkpt>
      <trkpt lat="42.88674" lon="-0.19792">
        <ele>1688.4</ele>
        <time>2026-07-15T12:36:36Z</time>
      </trkpt>
      <trkpt lat="42.88675" lon="-0.19792">
        <ele>1688.4</ele>
        <time>2026-07-15T12:36:37Z</time>
      </trkpt>
      <trkpt lat="42.88675" lon="-0.19793">
        <ele>1688.4</ele>
        <time>2026-07-15T12:36:37Z</time>
      </trkpt>
      <trkpt lat="42.88675" lon="-0.19793">
        <ele>1687.4</ele>
        <time>2026-07-15T12:36:38Z</time>
      </trkpt>
      <trkpt lat="42.88676" lon="-0.19793">
        <ele>1687.4</ele>
        <time>2026-07-15T12:36:39Z</time>
      </trkpt>
      <trkpt lat="42.88676" lon="-0.19794">
        <ele>1686.4</ele>
        <time>2026-07-15T12:36:39Z</time>
      </trkpt>
      <trkpt lat="42.88677" lon="-0.19795">
        <ele>1686.4</ele>
        <time>2026-07-15T12:36:40Z</time>
      </trkpt>
      <trkpt lat="42.88677" lon="-0.19795">
        <ele>1686.4</ele>
        <time>2026-07-15T12:36:41Z</time>
      </trkpt>
      <trkpt lat="42.88678" lon="-0.19795">
        <ele>1685.4</ele>
        <time>2026-07-15T12:36:42Z</time>
      </trkpt>
      <trkpt lat="42.88679" lon="-0.19795">
        <ele>1685.4</ele>
        <time>2026-07-15T12:36:43Z</time>
      </trkpt>
      <trkpt lat="42.88679" lon="-0.19796">
        <ele>1685.4</ele>
        <time>2026-07-15T12:36:44Z</time>
      </trkpt>
      <trkpt lat="42.8868" lon="-0.19796">
        <ele>1685.4</ele>
        <time>2026-07-15T12:36:44Z</time>
      </trkpt>
      <trkpt lat="42.8868" lon="-0.19796">
        <ele>1684.4</ele>
        <time>2026-07-15T12:36:44Z</time>
      </trkpt>
      <trkpt lat="42.8868" lon="-0.19796">
        <ele>1683.4</ele>
        <time>2026-07-15T12:36:45Z</time>
      </trkpt>
      <trkpt lat="42.88681" lon="-0.19796">
        <ele>1683.4</ele>
        <time>2026-07-15T12:36:46Z</time>
      </trkpt>
      <trkpt lat="42.88681" lon="-0.19796">
        <ele>1683.4</ele>
        <time>2026-07-15T12:36:46Z</time>
      </trkpt>
      <trkpt lat="42.88682" lon="-0.19797">
        <ele>1683.4</ele>
        <time>2026-07-15T12:36:47Z</time>
      </trkpt>
      <trkpt lat="42.88682" lon="-0.19797">
        <ele>1683.4</ele>
        <time>2026-07-15T12:36:48Z</time>
      </trkpt>
      <trkpt lat="42.88683" lon="-0.19797">
        <ele>1683.4</ele>
        <time>2026-07-15T12:36:48Z</time>
      </trkpt>
      <trkpt lat="42.88683" lon="-0.19797">
        <ele>1683.4</ele>
        <time>2026-07-15T12:36:49Z</time>
      </trkpt>
      <trkpt lat="42.88684" lon="-0.19798">
        <ele>1683.4</ele>
        <time>2026-07-15T12:36:50Z</time>
      </trkpt>
      <trkpt lat="42.88684" lon="-0.19798">
        <ele>1683.4</ele>
        <time>2026-07-15T12:36:50Z</time>
      </trkpt>
      <trkpt lat="42.88685" lon="-0.19799">
        <ele>1683.4</ele>
        <time>2026-07-15T12:36:51Z</time>
      </trkpt>
      <trkpt lat="42.88685" lon="-0.198">
        <ele>1683.4</ele>
        <time>2026-07-15T12:36:52Z</time>
      </trkpt>
      <trkpt lat="42.88686" lon="-0.198">
        <ele>1683.4</ele>
        <time>2026-07-15T12:36:52Z</time>
      </trkpt>
      <trkpt lat="42.88686" lon="-0.198">
        <ele>1683.4</ele>
        <time>2026-07-15T12:36:53Z</time>
      </trkpt>
      <trkpt lat="42.88687" lon="-0.198">
        <ele>1682.4</ele>
        <time>2026-07-15T12:36:53Z</time>
      </trkpt>
      <trkpt lat="42.88687" lon="-0.198">
        <ele>1682.4</ele>
        <time>2026-07-15T12:36:54Z</time>
      </trkpt>
      <trkpt lat="42.88687" lon="-0.198">
        <ele>1682.4</ele>
        <time>2026-07-15T12:36:55Z</time>
      </trkpt>
      <trkpt lat="42.88688" lon="-0.19801">
        <ele>1682.4</ele>
        <time>2026-07-15T12:36:56Z</time>
      </trkpt>
      <trkpt lat="42.88688" lon="-0.19801">
        <ele>1682.4</ele>
        <time>2026-07-15T12:36:56Z</time>
      </trkpt>
      <trkpt lat="42.88689" lon="-0.19802">
        <ele>1682.4</ele>
        <time>2026-07-15T12:36:57Z</time>
      </trkpt>
      <trkpt lat="42.88688" lon="-0.19802">
        <ele>1682.4</ele>
        <time>2026-07-15T12:36:57Z</time>
      </trkpt>
      <trkpt lat="42.88689" lon="-0.19802">
        <ele>1682.4</ele>
        <time>2026-07-15T12:36:58Z</time>
      </trkpt>
      <trkpt lat="42.88689" lon="-0.19803">
        <ele>1682.4</ele>
        <time>2026-07-15T12:36:59Z</time>
      </trkpt>
      <trkpt lat="42.8869" lon="-0.19804">
        <ele>1682.4</ele>
        <time>2026-07-15T12:36:59Z</time>
      </trkpt>
      <trkpt lat="42.8869" lon="-0.19805">
        <ele>1682.4</ele>
        <time>2026-07-15T12:37:00Z</time>
      </trkpt>
      <trkpt lat="42.8869" lon="-0.19806">
        <ele>1682.4</ele>
        <time>2026-07-15T12:37:01Z</time>
      </trkpt>
      <trkpt lat="42.8869" lon="-0.19806">
        <ele>1681.4</ele>
        <time>2026-07-15T12:37:01Z</time>
      </trkpt>
      <trkpt lat="42.8869" lon="-0.19807">
        <ele>1681.4</ele>
        <time>2026-07-15T12:37:02Z</time>
      </trkpt>
      <trkpt lat="42.88691" lon="-0.19808">
        <ele>1682.4</ele>
        <time>2026-07-15T12:37:02Z</time>
      </trkpt>
      <trkpt lat="42.88691" lon="-0.19809">
        <ele>1682.4</ele>
        <time>2026-07-15T12:37:03Z</time>
      </trkpt>
      <trkpt lat="42.88691" lon="-0.19809">
        <ele>1681.4</ele>
        <time>2026-07-15T12:37:03Z</time>
      </trkpt>
      <trkpt lat="42.88691" lon="-0.1981">
        <ele>1681.4</ele>
        <time>2026-07-15T12:37:04Z</time>
      </trkpt>
      <trkpt lat="42.88691" lon="-0.1981">
        <ele>1681.4</ele>
        <time>2026-07-15T12:37:04Z</time>
      </trkpt>
      <trkpt lat="42.88691" lon="-0.19811">
        <ele>1681.4</ele>
        <time>2026-07-15T12:37:05Z</time>
      </trkpt>
      <trkpt lat="42.88692" lon="-0.19811">
        <ele>1681.4</ele>
        <time>2026-07-15T12:37:06Z</time>
      </trkpt>
      <trkpt lat="42.88692" lon="-0.19812">
        <ele>1680.4</ele>
        <time>2026-07-15T12:37:06Z</time>
      </trkpt>
      <trkpt lat="42.88693" lon="-0.19812">
        <ele>1679.4</ele>
        <time>2026-07-15T12:37:07Z</time>
      </trkpt>
      <trkpt lat="42.88693" lon="-0.19813">
        <ele>1679.4</ele>
        <time>2026-07-15T12:37:08Z</time>
      </trkpt>
      <trkpt lat="42.88693" lon="-0.19813">
        <ele>1679.4</ele>
        <time>2026-07-15T12:37:08Z</time>
      </trkpt>
      <trkpt lat="42.88694" lon="-0.19814">
        <ele>1679.4</ele>
        <time>2026-07-15T12:37:09Z</time>
      </trkpt>
      <trkpt lat="42.88694" lon="-0.19814">
        <ele>1679.4</ele>
        <time>2026-07-15T12:37:10Z</time>
      </trkpt>
      <trkpt lat="42.88695" lon="-0.19814">
        <ele>1679.4</ele>
        <time>2026-07-15T12:37:10Z</time>
      </trkpt>
      <trkpt lat="42.88695" lon="-0.19815">
        <ele>1678.4</ele>
        <time>2026-07-15T12:37:11Z</time>
      </trkpt>
      <trkpt lat="42.88696" lon="-0.19815">
        <ele>1677.4</ele>
        <time>2026-07-15T12:37:12Z</time>
      </trkpt>
      <trkpt lat="42.88696" lon="-0.19815">
        <ele>1676.4</ele>
        <time>2026-07-15T12:37:12Z</time>
      </trkpt>
      <trkpt lat="42.88697" lon="-0.19815">
        <ele>1676.4</ele>
        <time>2026-07-15T12:37:13Z</time>
      </trkpt>
      <trkpt lat="42.88698" lon="-0.19816">
        <ele>1676.4</ele>
        <time>2026-07-15T12:37:14Z</time>
      </trkpt>
      <trkpt lat="42.88698" lon="-0.19816">
        <ele>1676.4</ele>
        <time>2026-07-15T12:37:15Z</time>
      </trkpt>
      <trkpt lat="42.88699" lon="-0.19816">
        <ele>1675.4</ele>
        <time>2026-07-15T12:37:15Z</time>
      </trkpt>
      <trkpt lat="42.88699" lon="-0.19816">
        <ele>1675.4</ele>
        <time>2026-07-15T12:37:16Z</time>
      </trkpt>
      <trkpt lat="42.887" lon="-0.19815">
        <ele>1675.4</ele>
        <time>2026-07-15T12:37:17Z</time>
      </trkpt>
      <trkpt lat="42.88701" lon="-0.19815">
        <ele>1675.4</ele>
        <time>2026-07-15T12:37:18Z</time>
      </trkpt>
      <trkpt lat="42.88702" lon="-0.19815">
        <ele>1675.4</ele>
        <time>2026-07-15T12:37:18Z</time>
      </trkpt>
      <trkpt lat="42.88702" lon="-0.19815">
        <ele>1675.4</ele>
        <time>2026-07-15T12:37:19Z</time>
      </trkpt>
      <trkpt lat="42.88703" lon="-0.19815">
        <ele>1675.4</ele>
        <time>2026-07-15T12:37:19Z</time>
      </trkpt>
      <trkpt lat="42.88703" lon="-0.19816">
        <ele>1675.4</ele>
        <time>2026-07-15T12:37:20Z</time>
      </trkpt>
      <trkpt lat="42.88704" lon="-0.19816">
        <ele>1675.4</ele>
        <time>2026-07-15T12:37:20Z</time>
      </trkpt>
      <trkpt lat="42.88704" lon="-0.19816">
        <ele>1675.4</ele>
        <time>2026-07-15T12:37:21Z</time>
      </trkpt>
      <trkpt lat="42.88704" lon="-0.19816">
        <ele>1675.4</ele>
        <time>2026-07-15T12:37:21Z</time>
      </trkpt>
      <trkpt lat="42.88705" lon="-0.19816">
        <ele>1675.4</ele>
        <time>2026-07-15T12:37:22Z</time>
      </trkpt>
      <trkpt lat="42.88705" lon="-0.19815">
        <ele>1674.4</ele>
        <time>2026-07-15T12:37:22Z</time>
      </trkpt>
      <trkpt lat="42.88706" lon="-0.19815">
        <ele>1674.4</ele>
        <time>2026-07-15T12:37:23Z</time>
      </trkpt>
      <trkpt lat="42.88706" lon="-0.19815">
        <ele>1674.4</ele>
        <time>2026-07-15T12:37:24Z</time>
      </trkpt>
      <trkpt lat="42.88707" lon="-0.19816">
        <ele>1674.4</ele>
        <time>2026-07-15T12:37:24Z</time>
      </trkpt>
      <trkpt lat="42.88707" lon="-0.19816">
        <ele>1673.4</ele>
        <time>2026-07-15T12:37:25Z</time>
      </trkpt>
      <trkpt lat="42.88707" lon="-0.19816">
        <ele>1673.4</ele>
        <time>2026-07-15T12:37:26Z</time>
      </trkpt>
      <trkpt lat="42.88708" lon="-0.19816">
        <ele>1673.4</ele>
        <time>2026-07-15T12:37:26Z</time>
      </trkpt>
      <trkpt lat="42.88708" lon="-0.19817">
        <ele>1673.4</ele>
        <time>2026-07-15T12:37:27Z</time>
      </trkpt>
      <trkpt lat="42.88708" lon="-0.19817">
        <ele>1673.4</ele>
        <time>2026-07-15T12:37:27Z</time>
      </trkpt>
      <trkpt lat="42.88709" lon="-0.19817">
        <ele>1673.4</ele>
        <time>2026-07-15T12:37:28Z</time>
      </trkpt>
      <trkpt lat="42.88709" lon="-0.19817">
        <ele>1673.4</ele>
        <time>2026-07-15T12:37:28Z</time>
      </trkpt>
      <trkpt lat="42.88709" lon="-0.19818">
        <ele>1672.4</ele>
        <time>2026-07-15T12:37:29Z</time>
      </trkpt>
      <trkpt lat="42.8871" lon="-0.19819">
        <ele>1672.4</ele>
        <time>2026-07-15T12:37:30Z</time>
      </trkpt>
      <trkpt lat="42.8871" lon="-0.19819">
        <ele>1672.4</ele>
        <time>2026-07-15T12:37:30Z</time>
      </trkpt>
      <trkpt lat="42.88711" lon="-0.19819">
        <ele>1672.4</ele>
        <time>2026-07-15T12:37:31Z</time>
      </trkpt>
      <trkpt lat="42.88711" lon="-0.19819">
        <ele>1672.4</ele>
        <time>2026-07-15T12:37:32Z</time>
      </trkpt>
      <trkpt lat="42.88712" lon="-0.1982">
        <ele>1671.4</ele>
        <time>2026-07-15T12:37:32Z</time>
      </trkpt>
      <trkpt lat="42.88713" lon="-0.1982">
        <ele>1672.4</ele>
        <time>2026-07-15T12:37:33Z</time>
      </trkpt>
      <trkpt lat="42.88713" lon="-0.19821">
        <ele>1672.4</ele>
        <time>2026-07-15T12:37:34Z</time>
      </trkpt>
      <trkpt lat="42.88713" lon="-0.19821">
        <ele>1672.4</ele>
        <time>2026-07-15T12:37:34Z</time>
      </trkpt>
      <trkpt lat="42.88714" lon="-0.19821">
        <ele>1672.4</ele>
        <time>2026-07-15T12:37:35Z</time>
      </trkpt>
      <trkpt lat="42.88714" lon="-0.19822">
        <ele>1672.4</ele>
        <time>2026-07-15T12:37:35Z</time>
      </trkpt>
      <trkpt lat="42.88715" lon="-0.19822">
        <ele>1672.4</ele>
        <time>2026-07-15T12:37:36Z</time>
      </trkpt>
      <trkpt lat="42.88715" lon="-0.19823">
        <ele>1672.4</ele>
        <time>2026-07-15T12:37:36Z</time>
      </trkpt>
      <trkpt lat="42.88716" lon="-0.19823">
        <ele>1672.4</ele>
        <time>2026-07-15T12:37:37Z</time>
      </trkpt>
      <trkpt lat="42.88716" lon="-0.19824">
        <ele>1671.4</ele>
        <time>2026-07-15T12:37:37Z</time>
      </trkpt>
      <trkpt lat="42.88716" lon="-0.19825">
        <ele>1671.4</ele>
        <time>2026-07-15T12:37:38Z</time>
      </trkpt>
      <trkpt lat="42.88716" lon="-0.19825">
        <ele>1670.4</ele>
        <time>2026-07-15T12:37:39Z</time>
      </trkpt>
      <trkpt lat="42.88717" lon="-0.19826">
        <ele>1670.4</ele>
        <time>2026-07-15T12:37:39Z</time>
      </trkpt>
      <trkpt lat="42.88717" lon="-0.19826">
        <ele>1670.4</ele>
        <time>2026-07-15T12:37:40Z</time>
      </trkpt>
      <trkpt lat="42.88717" lon="-0.19827">
        <ele>1670.4</ele>
        <time>2026-07-15T12:37:40Z</time>
      </trkpt>
      <trkpt lat="42.88718" lon="-0.19827">
        <ele>1670.4</ele>
        <time>2026-07-15T12:37:41Z</time>
      </trkpt>
      <trkpt lat="42.88718" lon="-0.19827">
        <ele>1670.4</ele>
        <time>2026-07-15T12:37:41Z</time>
      </trkpt>
      <trkpt lat="42.88719" lon="-0.19828">
        <ele>1670.4</ele>
        <time>2026-07-15T12:37:42Z</time>
      </trkpt>
      <trkpt lat="42.88719" lon="-0.19828">
        <ele>1670.4</ele>
        <time>2026-07-15T12:37:42Z</time>
      </trkpt>
      <trkpt lat="42.8872" lon="-0.19829">
        <ele>1670.4</ele>
        <time>2026-07-15T12:37:43Z</time>
      </trkpt>
      <trkpt lat="42.8872" lon="-0.19829">
        <ele>1670.4</ele>
        <time>2026-07-15T12:37:43Z</time>
      </trkpt>
      <trkpt lat="42.8872" lon="-0.1983">
        <ele>1670.4</ele>
        <time>2026-07-15T12:37:44Z</time>
      </trkpt>
      <trkpt lat="42.88721" lon="-0.1983">
        <ele>1670.4</ele>
        <time>2026-07-15T12:37:45Z</time>
      </trkpt>
      <trkpt lat="42.88721" lon="-0.19831">
        <ele>1670.4</ele>
        <time>2026-07-15T12:37:45Z</time>
      </trkpt>
      <trkpt lat="42.88721" lon="-0.19831">
        <ele>1670.4</ele>
        <time>2026-07-15T12:37:46Z</time>
      </trkpt>
      <trkpt lat="42.88721" lon="-0.19832">
        <ele>1670.4</ele>
        <time>2026-07-15T12:37:47Z</time>
      </trkpt>
      <trkpt lat="42.88721" lon="-0.19832">
        <ele>1669.4</ele>
        <time>2026-07-15T12:37:47Z</time>
      </trkpt>
      <trkpt lat="42.88722" lon="-0.19833">
        <ele>1669.4</ele>
        <time>2026-07-15T12:37:48Z</time>
      </trkpt>
      <trkpt lat="42.88722" lon="-0.19833">
        <ele>1668.4</ele>
        <time>2026-07-15T12:37:48Z</time>
      </trkpt>
      <trkpt lat="42.88722" lon="-0.19834">
        <ele>1668.4</ele>
        <time>2026-07-15T12:37:49Z</time>
      </trkpt>
      <trkpt lat="42.88722" lon="-0.19834">
        <ele>1667.4</ele>
        <time>2026-07-15T12:37:49Z</time>
      </trkpt>
      <trkpt lat="42.88722" lon="-0.19835">
        <ele>1667.4</ele>
        <time>2026-07-15T12:37:49Z</time>
      </trkpt>
      <trkpt lat="42.88722" lon="-0.19836">
        <ele>1667.4</ele>
        <time>2026-07-15T12:37:50Z</time>
      </trkpt>
      <trkpt lat="42.88722" lon="-0.19837">
        <ele>1667.4</ele>
        <time>2026-07-15T12:37:50Z</time>
      </trkpt>
      <trkpt lat="42.88721" lon="-0.19837">
        <ele>1667.4</ele>
        <time>2026-07-15T12:37:51Z</time>
      </trkpt>
      <trkpt lat="42.88721" lon="-0.19838">
        <ele>1667.4</ele>
        <time>2026-07-15T12:37:52Z</time>
      </trkpt>
      <trkpt lat="42.88721" lon="-0.19839">
        <ele>1666.4</ele>
        <time>2026-07-15T12:37:52Z</time>
      </trkpt>
      <trkpt lat="42.8872" lon="-0.1984">
        <ele>1666.4</ele>
        <time>2026-07-15T12:37:53Z</time>
      </trkpt>
      <trkpt lat="42.8872" lon="-0.1984">
        <ele>1666.4</ele>
        <time>2026-07-15T12:37:53Z</time>
      </trkpt>
      <trkpt lat="42.8872" lon="-0.1984">
        <ele>1666.4</ele>
        <time>2026-07-15T12:37:54Z</time>
      </trkpt>
      <trkpt lat="42.8872" lon="-0.19841">
        <ele>1666.4</ele>
        <time>2026-07-15T12:37:55Z</time>
      </trkpt>
      <trkpt lat="42.8872" lon="-0.19841">
        <ele>1665.4</ele>
        <time>2026-07-15T12:37:55Z</time>
      </trkpt>
      <trkpt lat="42.88721" lon="-0.19842">
        <ele>1665.4</ele>
        <time>2026-07-15T12:37:56Z</time>
      </trkpt>
      <trkpt lat="42.88721" lon="-0.19842">
        <ele>1664.4</ele>
        <time>2026-07-15T12:37:57Z</time>
      </trkpt>
      <trkpt lat="42.88721" lon="-0.19843">
        <ele>1664.4</ele>
        <time>2026-07-15T12:37:57Z</time>
      </trkpt>
      <trkpt lat="42.88721" lon="-0.19843">
        <ele>1664.4</ele>
        <time>2026-07-15T12:37:58Z</time>
      </trkpt>
      <trkpt lat="42.88721" lon="-0.19843">
        <ele>1664.4</ele>
        <time>2026-07-15T12:37:59Z</time>
      </trkpt>
      <trkpt lat="42.88722" lon="-0.19843">
        <ele>1664.4</ele>
        <time>2026-07-15T12:37:59Z</time>
      </trkpt>
      <trkpt lat="42.88722" lon="-0.19843">
        <ele>1664.4</ele>
        <time>2026-07-15T12:38:00Z</time>
      </trkpt>
      <trkpt lat="42.88722" lon="-0.19843">
        <ele>1663.4</ele>
        <time>2026-07-15T12:38:00Z</time>
      </trkpt>
      <trkpt lat="42.88722" lon="-0.19844">
        <ele>1663.4</ele>
        <time>2026-07-15T12:38:01Z</time>
      </trkpt>
      <trkpt lat="42.88722" lon="-0.19844">
        <ele>1664.4</ele>
        <time>2026-07-15T12:38:01Z</time>
      </trkpt>
      <trkpt lat="42.88722" lon="-0.19845">
        <ele>1664.4</ele>
        <time>2026-07-15T12:38:02Z</time>
      </trkpt>
      <trkpt lat="42.88722" lon="-0.19845">
        <ele>1663.4</ele>
        <time>2026-07-15T12:38:02Z</time>
      </trkpt>
      <trkpt lat="42.88722" lon="-0.19846">
        <ele>1663.4</ele>
        <time>2026-07-15T12:38:03Z</time>
      </trkpt>
      <trkpt lat="42.88722" lon="-0.19846">
        <ele>1662.4</ele>
        <time>2026-07-15T12:38:03Z</time>
      </trkpt>
      <trkpt lat="42.88722" lon="-0.19847">
        <ele>1662.4</ele>
        <time>2026-07-15T12:38:04Z</time>
      </trkpt>
      <trkpt lat="42.88722" lon="-0.19848">
        <ele>1661.4</ele>
        <time>2026-07-15T12:38:05Z</time>
      </trkpt>
      <trkpt lat="42.88721" lon="-0.19848">
        <ele>1661.4</ele>
        <time>2026-07-15T12:38:05Z</time>
      </trkpt>
      <trkpt lat="42.88721" lon="-0.19849">
        <ele>1661.4</ele>
        <time>2026-07-15T12:38:06Z</time>
      </trkpt>
      <trkpt lat="42.88722" lon="-0.19849">
        <ele>1660.4</ele>
        <time>2026-07-15T12:38:06Z</time>
      </trkpt>
      <trkpt lat="42.88722" lon="-0.19849">
        <ele>1660.4</ele>
        <time>2026-07-15T12:38:07Z</time>
      </trkpt>
      <trkpt lat="42.88722" lon="-0.19849">
        <ele>1660.4</ele>
        <time>2026-07-15T12:38:07Z</time>
      </trkpt>
      <trkpt lat="42.88723" lon="-0.19849">
        <ele>1661.4</ele>
        <time>2026-07-15T12:38:08Z</time>
      </trkpt>
      <trkpt lat="42.88723" lon="-0.1985">
        <ele>1661.4</ele>
        <time>2026-07-15T12:38:09Z</time>
      </trkpt>
      <trkpt lat="42.88723" lon="-0.1985">
        <ele>1660.4</ele>
        <time>2026-07-15T12:38:09Z</time>
      </trkpt>
      <trkpt lat="42.88723" lon="-0.19851">
        <ele>1660.4</ele>
        <time>2026-07-15T12:38:10Z</time>
      </trkpt>
      <trkpt lat="42.88724" lon="-0.19851">
        <ele>1660.4</ele>
        <time>2026-07-15T12:38:11Z</time>
      </trkpt>
      <trkpt lat="42.88724" lon="-0.19852">
        <ele>1660.4</ele>
        <time>2026-07-15T12:38:11Z</time>
      </trkpt>
      <trkpt lat="42.88724" lon="-0.19852">
        <ele>1660.4</ele>
        <time>2026-07-15T12:38:12Z</time>
      </trkpt>
      <trkpt lat="42.88725" lon="-0.19853">
        <ele>1659.4</ele>
        <time>2026-07-15T12:38:12Z</time>
      </trkpt>
      <trkpt lat="42.88725" lon="-0.19854">
        <ele>1659.4</ele>
        <time>2026-07-15T12:38:13Z</time>
      </trkpt>
      <trkpt lat="42.88726" lon="-0.19854">
        <ele>1659.4</ele>
        <time>2026-07-15T12:38:14Z</time>
      </trkpt>
      <trkpt lat="42.88726" lon="-0.19854">
        <ele>1660.4</ele>
        <time>2026-07-15T12:38:14Z</time>
      </trkpt>
      <trkpt lat="42.88727" lon="-0.19854">
        <ele>1660.4</ele>
        <time>2026-07-15T12:38:15Z</time>
      </trkpt>
      <trkpt lat="42.88727" lon="-0.19854">
        <ele>1659.4</ele>
        <time>2026-07-15T12:38:15Z</time>
      </trkpt>
      <trkpt lat="42.88728" lon="-0.19855">
        <ele>1659.4</ele>
        <time>2026-07-15T12:38:16Z</time>
      </trkpt>
      <trkpt lat="42.88729" lon="-0.19854">
        <ele>1659.4</ele>
        <time>2026-07-15T12:38:16Z</time>
      </trkpt>
      <trkpt lat="42.88729" lon="-0.19855">
        <ele>1659.4</ele>
        <time>2026-07-15T12:38:17Z</time>
      </trkpt>
      <trkpt lat="42.88731" lon="-0.19854">
        <ele>1658.4</ele>
        <time>2026-07-15T12:38:18Z</time>
      </trkpt>
      <trkpt lat="42.88732" lon="-0.19854">
        <ele>1658.4</ele>
        <time>2026-07-15T12:38:18Z</time>
      </trkpt>
      <trkpt lat="42.88733" lon="-0.19854">
        <ele>1658.4</ele>
        <time>2026-07-15T12:38:19Z</time>
      </trkpt>
      <trkpt lat="42.88734" lon="-0.19853">
        <ele>1658.4</ele>
        <time>2026-07-15T12:38:19Z</time>
      </trkpt>
      <trkpt lat="42.88734" lon="-0.19853">
        <ele>1657.4</ele>
        <time>2026-07-15T12:38:20Z</time>
      </trkpt>
      <trkpt lat="42.88735" lon="-0.19852">
        <ele>1657.4</ele>
        <time>2026-07-15T12:38:21Z</time>
      </trkpt>
      <trkpt lat="42.88736" lon="-0.19852">
        <ele>1658.4</ele>
        <time>2026-07-15T12:38:21Z</time>
      </trkpt>
      <trkpt lat="42.88736" lon="-0.19852">
        <ele>1658.4</ele>
        <time>2026-07-15T12:38:22Z</time>
      </trkpt>
      <trkpt lat="42.88737" lon="-0.19852">
        <ele>1657.4</ele>
        <time>2026-07-15T12:38:22Z</time>
      </trkpt>
      <trkpt lat="42.88737" lon="-0.19852">
        <ele>1656.4</ele>
        <time>2026-07-15T12:38:23Z</time>
      </trkpt>
      <trkpt lat="42.88738" lon="-0.19853">
        <ele>1656.4</ele>
        <time>2026-07-15T12:38:24Z</time>
      </trkpt>
      <trkpt lat="42.88738" lon="-0.19853">
        <ele>1656.4</ele>
        <time>2026-07-15T12:38:25Z</time>
      </trkpt>
      <trkpt lat="42.88739" lon="-0.19853">
        <ele>1655.4</ele>
        <time>2026-07-15T12:38:25Z</time>
      </trkpt>
      <trkpt lat="42.88739" lon="-0.19853">
        <ele>1655.4</ele>
        <time>2026-07-15T12:38:26Z</time>
      </trkpt>
      <trkpt lat="42.8874" lon="-0.19853">
        <ele>1655.4</ele>
        <time>2026-07-15T12:38:26Z</time>
      </trkpt>
      <trkpt lat="42.8874" lon="-0.19853">
        <ele>1654.4</ele>
        <time>2026-07-15T12:38:27Z</time>
      </trkpt>
      <trkpt lat="42.8874" lon="-0.19852">
        <ele>1654.4</ele>
        <time>2026-07-15T12:38:27Z</time>
      </trkpt>
      <trkpt lat="42.88741" lon="-0.19852">
        <ele>1654.4</ele>
        <time>2026-07-15T12:38:28Z</time>
      </trkpt>
      <trkpt lat="42.88741" lon="-0.19852">
        <ele>1654.4</ele>
        <time>2026-07-15T12:38:28Z</time>
      </trkpt>
      <trkpt lat="42.88741" lon="-0.19851">
        <ele>1654.4</ele>
        <time>2026-07-15T12:38:29Z</time>
      </trkpt>
      <trkpt lat="42.88742" lon="-0.19852">
        <ele>1654.4</ele>
        <time>2026-07-15T12:38:29Z</time>
      </trkpt>
      <trkpt lat="42.88742" lon="-0.19852">
        <ele>1654.4</ele>
        <time>2026-07-15T12:38:30Z</time>
      </trkpt>
      <trkpt lat="42.88743" lon="-0.19852">
        <ele>1653.4</ele>
        <time>2026-07-15T12:38:30Z</time>
      </trkpt>
      <trkpt lat="42.88744" lon="-0.19853">
        <ele>1653.4</ele>
        <time>2026-07-15T12:38:31Z</time>
      </trkpt>
      <trkpt lat="42.88744" lon="-0.19853">
        <ele>1653.4</ele>
        <time>2026-07-15T12:38:31Z</time>
      </trkpt>
      <trkpt lat="42.88745" lon="-0.19853">
        <ele>1653.4</ele>
        <time>2026-07-15T12:38:32Z</time>
      </trkpt>
      <trkpt lat="42.88745" lon="-0.19853">
        <ele>1653.4</ele>
        <time>2026-07-15T12:38:32Z</time>
      </trkpt>
      <trkpt lat="42.88746" lon="-0.19853">
        <ele>1653.4</ele>
        <time>2026-07-15T12:38:33Z</time>
      </trkpt>
      <trkpt lat="42.88746" lon="-0.19854">
        <ele>1653.4</ele>
        <time>2026-07-15T12:38:34Z</time>
      </trkpt>
      <trkpt lat="42.88746" lon="-0.19853">
        <ele>1653.4</ele>
        <time>2026-07-15T12:38:35Z</time>
      </trkpt>
      <trkpt lat="42.88746" lon="-0.19853">
        <ele>1653.4</ele>
        <time>2026-07-15T12:38:35Z</time>
      </trkpt>
      <trkpt lat="42.88747" lon="-0.19853">
        <ele>1653.4</ele>
        <time>2026-07-15T12:38:36Z</time>
      </trkpt>
      <trkpt lat="42.88748" lon="-0.19852">
        <ele>1652.4</ele>
        <time>2026-07-15T12:38:36Z</time>
      </trkpt>
      <trkpt lat="42.88748" lon="-0.19852">
        <ele>1653.4</ele>
        <time>2026-07-15T12:38:37Z</time>
      </trkpt>
      <trkpt lat="42.88748" lon="-0.19853">
        <ele>1652.4</ele>
        <time>2026-07-15T12:38:38Z</time>
      </trkpt>
      <trkpt lat="42.88749" lon="-0.19853">
        <ele>1652.4</ele>
        <time>2026-07-15T12:38:39Z</time>
      </trkpt>
      <trkpt lat="42.88749" lon="-0.19853">
        <ele>1652.4</ele>
        <time>2026-07-15T12:38:39Z</time>
      </trkpt>
      <trkpt lat="42.8875" lon="-0.19853">
        <ele>1652.4</ele>
        <time>2026-07-15T12:38:40Z</time>
      </trkpt>
      <trkpt lat="42.8875" lon="-0.19853">
        <ele>1651.4</ele>
        <time>2026-07-15T12:38:41Z</time>
      </trkpt>
      <trkpt lat="42.88751" lon="-0.19852">
        <ele>1651.4</ele>
        <time>2026-07-15T12:38:42Z</time>
      </trkpt>
      <trkpt lat="42.88751" lon="-0.19852">
        <ele>1650.4</ele>
        <time>2026-07-15T12:38:42Z</time>
      </trkpt>
      <trkpt lat="42.8875" lon="-0.19852">
        <ele>1650.4</ele>
        <time>2026-07-15T12:38:43Z</time>
      </trkpt>
      <trkpt lat="42.88751" lon="-0.19851">
        <ele>1650.4</ele>
        <time>2026-07-15T12:38:44Z</time>
      </trkpt>
      <trkpt lat="42.88751" lon="-0.19851">
        <ele>1651.4</ele>
        <time>2026-07-15T12:38:44Z</time>
      </trkpt>
      <trkpt lat="42.88751" lon="-0.1985">
        <ele>1651.4</ele>
        <time>2026-07-15T12:38:45Z</time>
      </trkpt>
      <trkpt lat="42.88752" lon="-0.1985">
        <ele>1651.4</ele>
        <time>2026-07-15T12:38:46Z</time>
      </trkpt>
      <trkpt lat="42.88752" lon="-0.1985">
        <ele>1651.4</ele>
        <time>2026-07-15T12:38:46Z</time>
      </trkpt>
      <trkpt lat="42.88752" lon="-0.1985">
        <ele>1651.4</ele>
        <time>2026-07-15T12:38:47Z</time>
      </trkpt>
      <trkpt lat="42.88752" lon="-0.1985">
        <ele>1651.4</ele>
        <time>2026-07-15T12:38:48Z</time>
      </trkpt>
      <trkpt lat="42.88752" lon="-0.19849">
        <ele>1650.4</ele>
        <time>2026-07-15T12:38:48Z</time>
      </trkpt>
      <trkpt lat="42.88752" lon="-0.19848">
        <ele>1650.4</ele>
        <time>2026-07-15T12:38:49Z</time>
      </trkpt>
      <trkpt lat="42.88752" lon="-0.19848">
        <ele>1650.4</ele>
        <time>2026-07-15T12:38:50Z</time>
      </trkpt>
      <trkpt lat="42.88752" lon="-0.19848">
        <ele>1650.4</ele>
        <time>2026-07-15T12:38:50Z</time>
      </trkpt>
      <trkpt lat="42.88752" lon="-0.19848">
        <ele>1650.4</ele>
        <time>2026-07-15T12:38:51Z</time>
      </trkpt>
      <trkpt lat="42.88753" lon="-0.19848">
        <ele>1650.4</ele>
        <time>2026-07-15T12:38:52Z</time>
      </trkpt>
      <trkpt lat="42.88753" lon="-0.19848">
        <ele>1650.4</ele>
        <time>2026-07-15T12:38:52Z</time>
      </trkpt>
      <trkpt lat="42.88754" lon="-0.19848">
        <ele>1650.4</ele>
        <time>2026-07-15T12:38:53Z</time>
      </trkpt>
      <trkpt lat="42.88755" lon="-0.1985">
        <ele>1650.4</ele>
        <time>2026-07-15T12:38:54Z</time>
      </trkpt>
      <trkpt lat="42.88755" lon="-0.1985">
        <ele>1650.4</ele>
        <time>2026-07-15T12:38:55Z</time>
      </trkpt>
      <trkpt lat="42.88756" lon="-0.19851">
        <ele>1650.4</ele>
        <time>2026-07-15T12:38:55Z</time>
      </trkpt>
      <trkpt lat="42.88756" lon="-0.19852">
        <ele>1650.4</ele>
        <time>2026-07-15T12:38:56Z</time>
      </trkpt>
      <trkpt lat="42.88756" lon="-0.19853">
        <ele>1649.4</ele>
        <time>2026-07-15T12:38:57Z</time>
      </trkpt>
      <trkpt lat="42.88756" lon="-0.19854">
        <ele>1649.4</ele>
        <time>2026-07-15T12:38:57Z</time>
      </trkpt>
      <trkpt lat="42.88757" lon="-0.19855">
        <ele>1649.4</ele>
        <time>2026-07-15T12:38:58Z</time>
      </trkpt>
      <trkpt lat="42.88757" lon="-0.19856">
        <ele>1649.4</ele>
        <time>2026-07-15T12:38:59Z</time>
      </trkpt>
      <trkpt lat="42.88757" lon="-0.19857">
        <ele>1650.4</ele>
        <time>2026-07-15T12:38:59Z</time>
      </trkpt>
      <trkpt lat="42.88758" lon="-0.19857">
        <ele>1650.4</ele>
        <time>2026-07-15T12:39:00Z</time>
      </trkpt>
      <trkpt lat="42.88758" lon="-0.19858">
        <ele>1650.4</ele>
        <time>2026-07-15T12:39:00Z</time>
      </trkpt>
      <trkpt lat="42.88759" lon="-0.19859">
        <ele>1650.4</ele>
        <time>2026-07-15T12:39:01Z</time>
      </trkpt>
      <trkpt lat="42.88759" lon="-0.1986">
        <ele>1650.4</ele>
        <time>2026-07-15T12:39:02Z</time>
      </trkpt>
      <trkpt lat="42.8876" lon="-0.19861">
        <ele>1649.4</ele>
        <time>2026-07-15T12:39:02Z</time>
      </trkpt>
      <trkpt lat="42.8876" lon="-0.19861">
        <ele>1649.4</ele>
        <time>2026-07-15T12:39:03Z</time>
      </trkpt>
      <trkpt lat="42.88761" lon="-0.19862">
        <ele>1649.4</ele>
        <time>2026-07-15T12:39:04Z</time>
      </trkpt>
      <trkpt lat="42.88762" lon="-0.19862">
        <ele>1649.4</ele>
        <time>2026-07-15T12:39:04Z</time>
      </trkpt>
      <trkpt lat="42.88762" lon="-0.19863">
        <ele>1649.4</ele>
        <time>2026-07-15T12:39:05Z</time>
      </trkpt>
      <trkpt lat="42.88763" lon="-0.19863">
        <ele>1650.4</ele>
        <time>2026-07-15T12:39:05Z</time>
      </trkpt>
      <trkpt lat="42.88764" lon="-0.19863">
        <ele>1650.4</ele>
        <time>2026-07-15T12:39:06Z</time>
      </trkpt>
      <trkpt lat="42.88764" lon="-0.19863">
        <ele>1650.4</ele>
        <time>2026-07-15T12:39:07Z</time>
      </trkpt>
      <trkpt lat="42.88765" lon="-0.19862">
        <ele>1649.4</ele>
        <time>2026-07-15T12:39:08Z</time>
      </trkpt>
      <trkpt lat="42.88765" lon="-0.1986">
        <ele>1649.4</ele>
        <time>2026-07-15T12:39:09Z</time>
      </trkpt>
      <trkpt lat="42.88764" lon="-0.1986">
        <ele>1649.4</ele>
        <time>2026-07-15T12:39:09Z</time>
      </trkpt>
      <trkpt lat="42.88764" lon="-0.1986">
        <ele>1649.4</ele>
        <time>2026-07-15T12:39:10Z</time>
      </trkpt>
      <trkpt lat="42.88763" lon="-0.1986">
        <ele>1650.4</ele>
        <time>2026-07-15T12:39:10Z</time>
      </trkpt>
      <trkpt lat="42.88763" lon="-0.1986">
        <ele>1650.4</ele>
        <time>2026-07-15T12:39:11Z</time>
      </trkpt>
      <trkpt lat="42.88763" lon="-0.19861">
        <ele>1649.4</ele>
        <time>2026-07-15T12:39:11Z</time>
      </trkpt>
      <trkpt lat="42.88764" lon="-0.19861">
        <ele>1649.4</ele>
        <time>2026-07-15T12:39:12Z</time>
      </trkpt>
      <trkpt lat="42.88764" lon="-0.19862">
        <ele>1649.4</ele>
        <time>2026-07-15T12:39:12Z</time>
      </trkpt>
      <trkpt lat="42.88765" lon="-0.19862">
        <ele>1649.4</ele>
        <time>2026-07-15T12:39:13Z</time>
      </trkpt>
      <trkpt lat="42.88766" lon="-0.19863">
        <ele>1649.4</ele>
        <time>2026-07-15T12:39:14Z</time>
      </trkpt>
      <trkpt lat="42.88767" lon="-0.19864">
        <ele>1649.4</ele>
        <time>2026-07-15T12:39:14Z</time>
      </trkpt>
      <trkpt lat="42.88768" lon="-0.19864">
        <ele>1649.4</ele>
        <time>2026-07-15T12:39:15Z</time>
      </trkpt>
      <trkpt lat="42.88768" lon="-0.19865">
        <ele>1650.4</ele>
        <time>2026-07-15T12:39:15Z</time>
      </trkpt>
      <trkpt lat="42.88769" lon="-0.19866">
        <ele>1650.4</ele>
        <time>2026-07-15T12:39:16Z</time>
      </trkpt>
      <trkpt lat="42.88769" lon="-0.19867">
        <ele>1649.4</ele>
        <time>2026-07-15T12:39:16Z</time>
      </trkpt>
      <trkpt lat="42.8877" lon="-0.19867">
        <ele>1649.4</ele>
        <time>2026-07-15T12:39:17Z</time>
      </trkpt>
      <trkpt lat="42.8877" lon="-0.19868">
        <ele>1648.4</ele>
        <time>2026-07-15T12:39:17Z</time>
      </trkpt>
      <trkpt lat="42.88771" lon="-0.19869">
        <ele>1648.4</ele>
        <time>2026-07-15T12:39:18Z</time>
      </trkpt>
      <trkpt lat="42.88772" lon="-0.19871">
        <ele>1648.4</ele>
        <time>2026-07-15T12:39:19Z</time>
      </trkpt>
      <trkpt lat="42.88772" lon="-0.19871">
        <ele>1649.4</ele>
        <time>2026-07-15T12:39:19Z</time>
      </trkpt>
      <trkpt lat="42.88773" lon="-0.19872">
        <ele>1649.4</ele>
        <time>2026-07-15T12:39:20Z</time>
      </trkpt>
      <trkpt lat="42.88773" lon="-0.19872">
        <ele>1649.4</ele>
        <time>2026-07-15T12:39:21Z</time>
      </trkpt>
      <trkpt lat="42.88774" lon="-0.19873">
        <ele>1649.4</ele>
        <time>2026-07-15T12:39:21Z</time>
      </trkpt>
      <trkpt lat="42.88775" lon="-0.19874">
        <ele>1649.4</ele>
        <time>2026-07-15T12:39:22Z</time>
      </trkpt>
      <trkpt lat="42.88775" lon="-0.19875">
        <ele>1649.4</ele>
        <time>2026-07-15T12:39:22Z</time>
      </trkpt>
      <trkpt lat="42.88776" lon="-0.19875">
        <ele>1649.4</ele>
        <time>2026-07-15T12:39:23Z</time>
      </trkpt>
      <trkpt lat="42.88777" lon="-0.19876">
        <ele>1649.4</ele>
        <time>2026-07-15T12:39:24Z</time>
      </trkpt>
      <trkpt lat="42.88777" lon="-0.19877">
        <ele>1649.4</ele>
        <time>2026-07-15T12:39:24Z</time>
      </trkpt>
      <trkpt lat="42.88778" lon="-0.19878">
        <ele>1649.4</ele>
        <time>2026-07-15T12:39:25Z</time>
      </trkpt>
      <trkpt lat="42.88779" lon="-0.19878">
        <ele>1649.4</ele>
        <time>2026-07-15T12:39:26Z</time>
      </trkpt>
      <trkpt lat="42.88779" lon="-0.19879">
        <ele>1649.4</ele>
        <time>2026-07-15T12:39:26Z</time>
      </trkpt>
      <trkpt lat="42.8878" lon="-0.19879">
        <ele>1649.4</ele>
        <time>2026-07-15T12:39:27Z</time>
      </trkpt>
      <trkpt lat="42.8878" lon="-0.19879">
        <ele>1650.4</ele>
        <time>2026-07-15T12:39:27Z</time>
      </trkpt>
      <trkpt lat="42.8878" lon="-0.1988">
        <ele>1650.4</ele>
        <time>2026-07-15T12:39:28Z</time>
      </trkpt>
      <trkpt lat="42.88781" lon="-0.1988">
        <ele>1649.4</ele>
        <time>2026-07-15T12:39:29Z</time>
      </trkpt>
      <trkpt lat="42.88781" lon="-0.1988">
        <ele>1648.4</ele>
        <time>2026-07-15T12:39:29Z</time>
      </trkpt>
      <trkpt lat="42.88782" lon="-0.1988">
        <ele>1648.4</ele>
        <time>2026-07-15T12:39:30Z</time>
      </trkpt>
      <trkpt lat="42.88782" lon="-0.19881">
        <ele>1648.4</ele>
        <time>2026-07-15T12:39:30Z</time>
      </trkpt>
      <trkpt lat="42.88783" lon="-0.19881">
        <ele>1648.4</ele>
        <time>2026-07-15T12:39:31Z</time>
      </trkpt>
      <trkpt lat="42.88784" lon="-0.19881">
        <ele>1648.4</ele>
        <time>2026-07-15T12:39:32Z</time>
      </trkpt>
      <trkpt lat="42.88784" lon="-0.19881">
        <ele>1648.4</ele>
        <time>2026-07-15T12:39:32Z</time>
      </trkpt>
      <trkpt lat="42.88785" lon="-0.19881">
        <ele>1648.4</ele>
        <time>2026-07-15T12:39:33Z</time>
      </trkpt>
      <trkpt lat="42.88786" lon="-0.19881">
        <ele>1648.4</ele>
        <time>2026-07-15T12:39:33Z</time>
      </trkpt>
      <trkpt lat="42.88786" lon="-0.19881">
        <ele>1648.4</ele>
        <time>2026-07-15T12:39:34Z</time>
      </trkpt>
      <trkpt lat="42.88787" lon="-0.19881">
        <ele>1648.4</ele>
        <time>2026-07-15T12:39:34Z</time>
      </trkpt>
      <trkpt lat="42.88787" lon="-0.19882">
        <ele>1648.4</ele>
        <time>2026-07-15T12:39:35Z</time>
      </trkpt>
      <trkpt lat="42.88788" lon="-0.19882">
        <ele>1649.4</ele>
        <time>2026-07-15T12:39:35Z</time>
      </trkpt>
      <trkpt lat="42.88788" lon="-0.19882">
        <ele>1649.4</ele>
        <time>2026-07-15T12:39:36Z</time>
      </trkpt>
      <trkpt lat="42.88789" lon="-0.19882">
        <ele>1648.4</ele>
        <time>2026-07-15T12:39:37Z</time>
      </trkpt>
      <trkpt lat="42.8879" lon="-0.19882">
        <ele>1648.4</ele>
        <time>2026-07-15T12:39:37Z</time>
      </trkpt>
      <trkpt lat="42.88791" lon="-0.19882">
        <ele>1648.4</ele>
        <time>2026-07-15T12:39:38Z</time>
      </trkpt>
      <trkpt lat="42.88791" lon="-0.19883">
        <ele>1648.4</ele>
        <time>2026-07-15T12:39:38Z</time>
      </trkpt>
      <trkpt lat="42.88792" lon="-0.19883">
        <ele>1647.4</ele>
        <time>2026-07-15T12:39:39Z</time>
      </trkpt>
      <trkpt lat="42.88792" lon="-0.19884">
        <ele>1647.4</ele>
        <time>2026-07-15T12:39:40Z</time>
      </trkpt>
      <trkpt lat="42.88793" lon="-0.19884">
        <ele>1647.4</ele>
        <time>2026-07-15T12:39:40Z</time>
      </trkpt>
      <trkpt lat="42.88794" lon="-0.19884">
        <ele>1648.4</ele>
        <time>2026-07-15T12:39:41Z</time>
      </trkpt>
      <trkpt lat="42.88794" lon="-0.19885">
        <ele>1648.4</ele>
        <time>2026-07-15T12:39:42Z</time>
      </trkpt>
      <trkpt lat="42.88795" lon="-0.19885">
        <ele>1647.4</ele>
        <time>2026-07-15T12:39:42Z</time>
      </trkpt>
      <trkpt lat="42.88795" lon="-0.19885">
        <ele>1647.4</ele>
        <time>2026-07-15T12:39:43Z</time>
      </trkpt>
      <trkpt lat="42.88796" lon="-0.19886">
        <ele>1647.4</ele>
        <time>2026-07-15T12:39:43Z</time>
      </trkpt>
      <trkpt lat="42.88796" lon="-0.19886">
        <ele>1647.4</ele>
        <time>2026-07-15T12:39:44Z</time>
      </trkpt>
      <trkpt lat="42.88797" lon="-0.19886">
        <ele>1647.4</ele>
        <time>2026-07-15T12:39:44Z</time>
      </trkpt>
      <trkpt lat="42.88798" lon="-0.19887">
        <ele>1647.4</ele>
        <time>2026-07-15T12:39:45Z</time>
      </trkpt>
      <trkpt lat="42.88798" lon="-0.19887">
        <ele>1647.4</ele>
        <time>2026-07-15T12:39:45Z</time>
      </trkpt>
      <trkpt lat="42.88799" lon="-0.19887">
        <ele>1647.4</ele>
        <time>2026-07-15T12:39:46Z</time>
      </trkpt>
      <trkpt lat="42.888" lon="-0.19888">
        <ele>1648.4</ele>
        <time>2026-07-15T12:39:47Z</time>
      </trkpt>
      <trkpt lat="42.88801" lon="-0.19888">
        <ele>1648.4</ele>
        <time>2026-07-15T12:39:48Z</time>
      </trkpt>
      <trkpt lat="42.88801" lon="-0.19888">
        <ele>1648.4</ele>
        <time>2026-07-15T12:39:48Z</time>
      </trkpt>
      <trkpt lat="42.88802" lon="-0.19889">
        <ele>1648.4</ele>
        <time>2026-07-15T12:39:49Z</time>
      </trkpt>
      <trkpt lat="42.88803" lon="-0.19889">
        <ele>1648.4</ele>
        <time>2026-07-15T12:39:49Z</time>
      </trkpt>
      <trkpt lat="42.88803" lon="-0.19889">
        <ele>1648.4</ele>
        <time>2026-07-15T12:39:50Z</time>
      </trkpt>
      <trkpt lat="42.88804" lon="-0.1989">
        <ele>1648.4</ele>
        <time>2026-07-15T12:39:51Z</time>
      </trkpt>
      <trkpt lat="42.88805" lon="-0.19891">
        <ele>1648.4</ele>
        <time>2026-07-15T12:39:51Z</time>
      </trkpt>
      <trkpt lat="42.88805" lon="-0.19891">
        <ele>1648.4</ele>
        <time>2026-07-15T12:39:52Z</time>
      </trkpt>
      <trkpt lat="42.88807" lon="-0.19892">
        <ele>1649.4</ele>
        <time>2026-07-15T12:39:53Z</time>
      </trkpt>
      <trkpt lat="42.88807" lon="-0.19892">
        <ele>1649.4</ele>
        <time>2026-07-15T12:39:53Z</time>
      </trkpt>
      <trkpt lat="42.88808" lon="-0.19892">
        <ele>1649.4</ele>
        <time>2026-07-15T12:39:54Z</time>
      </trkpt>
      <trkpt lat="42.88809" lon="-0.19892">
        <ele>1649.4</ele>
        <time>2026-07-15T12:39:54Z</time>
      </trkpt>
      <trkpt lat="42.88809" lon="-0.19893">
        <ele>1649.4</ele>
        <time>2026-07-15T12:39:55Z</time>
      </trkpt>
      <trkpt lat="42.88811" lon="-0.19893">
        <ele>1649.4</ele>
        <time>2026-07-15T12:39:56Z</time>
      </trkpt>
      <trkpt lat="42.88811" lon="-0.19894">
        <ele>1650.4</ele>
        <time>2026-07-15T12:39:56Z</time>
      </trkpt>
      <trkpt lat="42.88811" lon="-0.19894">
        <ele>1650.4</ele>
        <time>2026-07-15T12:39:57Z</time>
      </trkpt>
      <trkpt lat="42.88812" lon="-0.19894">
        <ele>1650.4</ele>
        <time>2026-07-15T12:39:58Z</time>
      </trkpt>
      <trkpt lat="42.88813" lon="-0.19894">
        <ele>1650.4</ele>
        <time>2026-07-15T12:39:58Z</time>
      </trkpt>
      <trkpt lat="42.88813" lon="-0.19895">
        <ele>1650.4</ele>
        <time>2026-07-15T12:39:59Z</time>
      </trkpt>
      <trkpt lat="42.88814" lon="-0.19895">
        <ele>1650.4</ele>
        <time>2026-07-15T12:39:59Z</time>
      </trkpt>
      <trkpt lat="42.88815" lon="-0.19896">
        <ele>1650.4</ele>
        <time>2026-07-15T12:40:00Z</time>
      </trkpt>
      <trkpt lat="42.88815" lon="-0.19896">
        <ele>1650.4</ele>
        <time>2026-07-15T12:40:01Z</time>
      </trkpt>
      <trkpt lat="42.88816" lon="-0.19897">
        <ele>1651.4</ele>
        <time>2026-07-15T12:40:01Z</time>
      </trkpt>
      <trkpt lat="42.88816" lon="-0.19897">
        <ele>1651.4</ele>
        <time>2026-07-15T12:40:02Z</time>
      </trkpt>
      <trkpt lat="42.88817" lon="-0.19897">
        <ele>1650.4</ele>
        <time>2026-07-15T12:40:02Z</time>
      </trkpt>
      <trkpt lat="42.88818" lon="-0.19897">
        <ele>1650.4</ele>
        <time>2026-07-15T12:40:03Z</time>
      </trkpt>
      <trkpt lat="42.88818" lon="-0.19898">
        <ele>1651.4</ele>
        <time>2026-07-15T12:40:03Z</time>
      </trkpt>
      <trkpt lat="42.88819" lon="-0.19898">
        <ele>1651.4</ele>
        <time>2026-07-15T12:40:04Z</time>
      </trkpt>
      <trkpt lat="42.8882" lon="-0.19899">
        <ele>1651.4</ele>
        <time>2026-07-15T12:40:05Z</time>
      </trkpt>
      <trkpt lat="42.8882" lon="-0.19899">
        <ele>1651.4</ele>
        <time>2026-07-15T12:40:05Z</time>
      </trkpt>
      <trkpt lat="42.88821" lon="-0.19899">
        <ele>1651.4</ele>
        <time>2026-07-15T12:40:06Z</time>
      </trkpt>
      <trkpt lat="42.88821" lon="-0.199">
        <ele>1650.4</ele>
        <time>2026-07-15T12:40:07Z</time>
      </trkpt>
      <trkpt lat="42.88821" lon="-0.199">
        <ele>1650.4</ele>
        <time>2026-07-15T12:40:07Z</time>
      </trkpt>
      <trkpt lat="42.88822" lon="-0.19901">
        <ele>1650.4</ele>
        <time>2026-07-15T12:40:08Z</time>
      </trkpt>
      <trkpt lat="42.88823" lon="-0.19901">
        <ele>1650.4</ele>
        <time>2026-07-15T12:40:09Z</time>
      </trkpt>
      <trkpt lat="42.88823" lon="-0.19901">
        <ele>1650.4</ele>
        <time>2026-07-15T12:40:09Z</time>
      </trkpt>
      <trkpt lat="42.88823" lon="-0.19902">
        <ele>1650.4</ele>
        <time>2026-07-15T12:40:10Z</time>
      </trkpt>
      <trkpt lat="42.88824" lon="-0.19902">
        <ele>1650.4</ele>
        <time>2026-07-15T12:40:10Z</time>
      </trkpt>
      <trkpt lat="42.88824" lon="-0.19903">
        <ele>1650.4</ele>
        <time>2026-07-15T12:40:11Z</time>
      </trkpt>
      <trkpt lat="42.88825" lon="-0.19903">
        <ele>1651.4</ele>
        <time>2026-07-15T12:40:11Z</time>
      </trkpt>
      <trkpt lat="42.88825" lon="-0.19903">
        <ele>1650.4</ele>
        <time>2026-07-15T12:40:12Z</time>
      </trkpt>
      <trkpt lat="42.88826" lon="-0.19904">
        <ele>1649.4</ele>
        <time>2026-07-15T12:40:13Z</time>
      </trkpt>
      <trkpt lat="42.88828" lon="-0.19905">
        <ele>1649.4</ele>
        <time>2026-07-15T12:40:14Z</time>
      </trkpt>
      <trkpt lat="42.88828" lon="-0.19905">
        <ele>1649.4</ele>
        <time>2026-07-15T12:40:14Z</time>
      </trkpt>
      <trkpt lat="42.88829" lon="-0.19905">
        <ele>1649.4</ele>
        <time>2026-07-15T12:40:15Z</time>
      </trkpt>
      <trkpt lat="42.8883" lon="-0.19905">
        <ele>1649.4</ele>
        <time>2026-07-15T12:40:16Z</time>
      </trkpt>
      <trkpt lat="42.8883" lon="-0.19905">
        <ele>1649.4</ele>
        <time>2026-07-15T12:40:16Z</time>
      </trkpt>
      <trkpt lat="42.88831" lon="-0.19905">
        <ele>1649.4</ele>
        <time>2026-07-15T12:40:17Z</time>
      </trkpt>
      <trkpt lat="42.88831" lon="-0.19905">
        <ele>1649.4</ele>
        <time>2026-07-15T12:40:17Z</time>
      </trkpt>
      <trkpt lat="42.88832" lon="-0.19905">
        <ele>1649.4</ele>
        <time>2026-07-15T12:40:18Z</time>
      </trkpt>
      <trkpt lat="42.88832" lon="-0.19905">
        <ele>1648.4</ele>
        <time>2026-07-15T12:40:18Z</time>
      </trkpt>
      <trkpt lat="42.88833" lon="-0.19905">
        <ele>1648.4</ele>
        <time>2026-07-15T12:40:19Z</time>
      </trkpt>
      <trkpt lat="42.88834" lon="-0.19905">
        <ele>1648.4</ele>
        <time>2026-07-15T12:40:19Z</time>
      </trkpt>
      <trkpt lat="42.88835" lon="-0.19906">
        <ele>1649.4</ele>
        <time>2026-07-15T12:40:20Z</time>
      </trkpt>
      <trkpt lat="42.88835" lon="-0.19906">
        <ele>1649.4</ele>
        <time>2026-07-15T12:40:21Z</time>
      </trkpt>
      <trkpt lat="42.88836" lon="-0.19906">
        <ele>1649.4</ele>
        <time>2026-07-15T12:40:21Z</time>
      </trkpt>
      <trkpt lat="42.88837" lon="-0.19907">
        <ele>1649.4</ele>
        <time>2026-07-15T12:40:22Z</time>
      </trkpt>
      <trkpt lat="42.88837" lon="-0.19907">
        <ele>1649.4</ele>
        <time>2026-07-15T12:40:22Z</time>
      </trkpt>
      <trkpt lat="42.88838" lon="-0.19907">
        <ele>1649.4</ele>
        <time>2026-07-15T12:40:23Z</time>
      </trkpt>
      <trkpt lat="42.88839" lon="-0.19908">
        <ele>1649.4</ele>
        <time>2026-07-15T12:40:24Z</time>
      </trkpt>
      <trkpt lat="42.8884" lon="-0.19909">
        <ele>1648.4</ele>
        <time>2026-07-15T12:40:25Z</time>
      </trkpt>
      <trkpt lat="42.8884" lon="-0.19909">
        <ele>1648.4</ele>
        <time>2026-07-15T12:40:25Z</time>
      </trkpt>
      <trkpt lat="42.8884" lon="-0.19909">
        <ele>1648.4</ele>
        <time>2026-07-15T12:40:26Z</time>
      </trkpt>
      <trkpt lat="42.88841" lon="-0.1991">
        <ele>1648.4</ele>
        <time>2026-07-15T12:40:27Z</time>
      </trkpt>
      <trkpt lat="42.88842" lon="-0.1991">
        <ele>1647.4</ele>
        <time>2026-07-15T12:40:28Z</time>
      </trkpt>
      <trkpt lat="42.88842" lon="-0.19911">
        <ele>1647.4</ele>
        <time>2026-07-15T12:40:28Z</time>
      </trkpt>
      <trkpt lat="42.88843" lon="-0.19911">
        <ele>1647.4</ele>
        <time>2026-07-15T12:40:29Z</time>
      </trkpt>
      <trkpt lat="42.88843" lon="-0.19911">
        <ele>1646.4</ele>
        <time>2026-07-15T12:40:30Z</time>
      </trkpt>
      <trkpt lat="42.88843" lon="-0.19911">
        <ele>1647.4</ele>
        <time>2026-07-15T12:40:31Z</time>
      </trkpt>
      <trkpt lat="42.88843" lon="-0.19911">
        <ele>1647.4</ele>
        <time>2026-07-15T12:40:31Z</time>
      </trkpt>
      <trkpt lat="42.88844" lon="-0.19911">
        <ele>1647.4</ele>
        <time>2026-07-15T12:40:32Z</time>
      </trkpt>
      <trkpt lat="42.88844" lon="-0.19911">
        <ele>1647.4</ele>
        <time>2026-07-15T12:40:33Z</time>
      </trkpt>
      <trkpt lat="42.88845" lon="-0.19911">
        <ele>1647.4</ele>
        <time>2026-07-15T12:40:33Z</time>
      </trkpt>
      <trkpt lat="42.88845" lon="-0.19911">
        <ele>1647.4</ele>
        <time>2026-07-15T12:40:34Z</time>
      </trkpt>
      <trkpt lat="42.88846" lon="-0.19911">
        <ele>1647.4</ele>
        <time>2026-07-15T12:40:34Z</time>
      </trkpt>
      <trkpt lat="42.88846" lon="-0.19911">
        <ele>1647.4</ele>
        <time>2026-07-15T12:40:35Z</time>
      </trkpt>
      <trkpt lat="42.88847" lon="-0.19911">
        <ele>1647.4</ele>
        <time>2026-07-15T12:40:36Z</time>
      </trkpt>
      <trkpt lat="42.88847" lon="-0.19911">
        <ele>1646.4</ele>
        <time>2026-07-15T12:40:36Z</time>
      </trkpt>
      <trkpt lat="42.88848" lon="-0.1991">
        <ele>1646.4</ele>
        <time>2026-07-15T12:40:37Z</time>
      </trkpt>
      <trkpt lat="42.88848" lon="-0.1991">
        <ele>1646.4</ele>
        <time>2026-07-15T12:40:38Z</time>
      </trkpt>
      <trkpt lat="42.88849" lon="-0.1991">
        <ele>1646.4</ele>
        <time>2026-07-15T12:40:38Z</time>
      </trkpt>
      <trkpt lat="42.88849" lon="-0.1991">
        <ele>1646.4</ele>
        <time>2026-07-15T12:40:39Z</time>
      </trkpt>
      <trkpt lat="42.8885" lon="-0.1991">
        <ele>1646.4</ele>
        <time>2026-07-15T12:40:39Z</time>
      </trkpt>
      <trkpt lat="42.8885" lon="-0.1991">
        <ele>1646.4</ele>
        <time>2026-07-15T12:40:40Z</time>
      </trkpt>
      <trkpt lat="42.88851" lon="-0.1991">
        <ele>1646.4</ele>
        <time>2026-07-15T12:40:40Z</time>
      </trkpt>
      <trkpt lat="42.88852" lon="-0.19911">
        <ele>1646.4</ele>
        <time>2026-07-15T12:40:41Z</time>
      </trkpt>
      <trkpt lat="42.88852" lon="-0.19911">
        <ele>1646.4</ele>
        <time>2026-07-15T12:40:41Z</time>
      </trkpt>
      <trkpt lat="42.88853" lon="-0.19911">
        <ele>1646.4</ele>
        <time>2026-07-15T12:40:42Z</time>
      </trkpt>
      <trkpt lat="42.88853" lon="-0.19911">
        <ele>1644.4</ele>
        <time>2026-07-15T12:40:42Z</time>
      </trkpt>
      <trkpt lat="42.88854" lon="-0.19912">
        <ele>1644.4</ele>
        <time>2026-07-15T12:40:43Z</time>
      </trkpt>
      <trkpt lat="42.88854" lon="-0.19912">
        <ele>1645.4</ele>
        <time>2026-07-15T12:40:44Z</time>
      </trkpt>
      <trkpt lat="42.88855" lon="-0.19912">
        <ele>1645.4</ele>
        <time>2026-07-15T12:40:44Z</time>
      </trkpt>
      <trkpt lat="42.88856" lon="-0.19912">
        <ele>1645.4</ele>
        <time>2026-07-15T12:40:45Z</time>
      </trkpt>
      <trkpt lat="42.88856" lon="-0.19913">
        <ele>1645.4</ele>
        <time>2026-07-15T12:40:45Z</time>
      </trkpt>
      <trkpt lat="42.88857" lon="-0.19913">
        <ele>1645.4</ele>
        <time>2026-07-15T12:40:46Z</time>
      </trkpt>
      <trkpt lat="42.88857" lon="-0.19913">
        <ele>1644.4</ele>
        <time>2026-07-15T12:40:47Z</time>
      </trkpt>
      <trkpt lat="42.88857" lon="-0.19914">
        <ele>1643.4</ele>
        <time>2026-07-15T12:40:47Z</time>
      </trkpt>
      <trkpt lat="42.88858" lon="-0.19914">
        <ele>1643.4</ele>
        <time>2026-07-15T12:40:48Z</time>
      </trkpt>
      <trkpt lat="42.88859" lon="-0.19914">
        <ele>1643.4</ele>
        <time>2026-07-15T12:40:48Z</time>
      </trkpt>
      <trkpt lat="42.88859" lon="-0.19914">
        <ele>1643.5</ele>
        <time>2026-07-15T12:40:49Z</time>
      </trkpt>
      <trkpt lat="42.8886" lon="-0.19914">
        <ele>1643.5</ele>
        <time>2026-07-15T12:40:50Z</time>
      </trkpt>
      <trkpt lat="42.8886" lon="-0.19915">
        <ele>1643.5</ele>
        <time>2026-07-15T12:40:50Z</time>
      </trkpt>
      <trkpt lat="42.88861" lon="-0.19915">
        <ele>1643.5</ele>
        <time>2026-07-15T12:40:51Z</time>
      </trkpt>
      <trkpt lat="42.88861" lon="-0.19915">
        <ele>1642.5</ele>
        <time>2026-07-15T12:40:51Z</time>
      </trkpt>
      <trkpt lat="42.88861" lon="-0.19916">
        <ele>1642.5</ele>
        <time>2026-07-15T12:40:52Z</time>
      </trkpt>
      <trkpt lat="42.88861" lon="-0.19916">
        <ele>1643.5</ele>
        <time>2026-07-15T12:40:52Z</time>
      </trkpt>
      <trkpt lat="42.88862" lon="-0.19916">
        <ele>1643.5</ele>
        <time>2026-07-15T12:40:53Z</time>
      </trkpt>
      <trkpt lat="42.88862" lon="-0.19916">
        <ele>1643.5</ele>
        <time>2026-07-15T12:40:53Z</time>
      </trkpt>
      <trkpt lat="42.88863" lon="-0.19917">
        <ele>1643.5</ele>
        <time>2026-07-15T12:40:54Z</time>
      </trkpt>
      <trkpt lat="42.88863" lon="-0.19917">
        <ele>1642.5</ele>
        <time>2026-07-15T12:40:54Z</time>
      </trkpt>
      <trkpt lat="42.88864" lon="-0.19918">
        <ele>1642.5</ele>
        <time>2026-07-15T12:40:55Z</time>
      </trkpt>
      <trkpt lat="42.88864" lon="-0.19918">
        <ele>1643.5</ele>
        <time>2026-07-15T12:40:55Z</time>
      </trkpt>
      <trkpt lat="42.88865" lon="-0.19919">
        <ele>1643.5</ele>
        <time>2026-07-15T12:40:56Z</time>
      </trkpt>
      <trkpt lat="42.88866" lon="-0.19919">
        <ele>1642.5</ele>
        <time>2026-07-15T12:40:56Z</time>
      </trkpt>
      <trkpt lat="42.88866" lon="-0.1992">
        <ele>1642.5</ele>
        <time>2026-07-15T12:40:57Z</time>
      </trkpt>
      <trkpt lat="42.88867" lon="-0.1992">
        <ele>1642.5</ele>
        <time>2026-07-15T12:40:57Z</time>
      </trkpt>
      <trkpt lat="42.88868" lon="-0.1992">
        <ele>1642.5</ele>
        <time>2026-07-15T12:40:58Z</time>
      </trkpt>
      <trkpt lat="42.88868" lon="-0.19921">
        <ele>1642.5</ele>
        <time>2026-07-15T12:40:58Z</time>
      </trkpt>
      <trkpt lat="42.88869" lon="-0.19921">
        <ele>1642.5</ele>
        <time>2026-07-15T12:40:59Z</time>
      </trkpt>
      <trkpt lat="42.8887" lon="-0.19921">
        <ele>1642.5</ele>
        <time>2026-07-15T12:41:00Z</time>
      </trkpt>
      <trkpt lat="42.8887" lon="-0.19922">
        <ele>1642.5</ele>
        <time>2026-07-15T12:41:00Z</time>
      </trkpt>
      <trkpt lat="42.88871" lon="-0.19922">
        <ele>1642.5</ele>
        <time>2026-07-15T12:41:01Z</time>
      </trkpt>
      <trkpt lat="42.88871" lon="-0.19923">
        <ele>1642.5</ele>
        <time>2026-07-15T12:41:01Z</time>
      </trkpt>
      <trkpt lat="42.88872" lon="-0.19923">
        <ele>1642.5</ele>
        <time>2026-07-15T12:41:02Z</time>
      </trkpt>
      <trkpt lat="42.88873" lon="-0.19924">
        <ele>1642.5</ele>
        <time>2026-07-15T12:41:02Z</time>
      </trkpt>
      <trkpt lat="42.88873" lon="-0.19924">
        <ele>1642.5</ele>
        <time>2026-07-15T12:41:03Z</time>
      </trkpt>
      <trkpt lat="42.88874" lon="-0.19925">
        <ele>1642.5</ele>
        <time>2026-07-15T12:41:03Z</time>
      </trkpt>
      <trkpt lat="42.88875" lon="-0.19925">
        <ele>1642.5</ele>
        <time>2026-07-15T12:41:04Z</time>
      </trkpt>
      <trkpt lat="42.88875" lon="-0.19926">
        <ele>1642.5</ele>
        <time>2026-07-15T12:41:04Z</time>
      </trkpt>
      <trkpt lat="42.88876" lon="-0.19926">
        <ele>1642.5</ele>
        <time>2026-07-15T12:41:05Z</time>
      </trkpt>
      <trkpt lat="42.88877" lon="-0.19926">
        <ele>1641.5</ele>
        <time>2026-07-15T12:41:05Z</time>
      </trkpt>
      <trkpt lat="42.88877" lon="-0.19927">
        <ele>1641.5</ele>
        <time>2026-07-15T12:41:06Z</time>
      </trkpt>
      <trkpt lat="42.88878" lon="-0.19927">
        <ele>1641.5</ele>
        <time>2026-07-15T12:41:07Z</time>
      </trkpt>
      <trkpt lat="42.88878" lon="-0.19927">
        <ele>1641.5</ele>
        <time>2026-07-15T12:41:07Z</time>
      </trkpt>
      <trkpt lat="42.88879" lon="-0.19928">
        <ele>1641.5</ele>
        <time>2026-07-15T12:41:08Z</time>
      </trkpt>
      <trkpt lat="42.8888" lon="-0.19928">
        <ele>1641.5</ele>
        <time>2026-07-15T12:41:08Z</time>
      </trkpt>
      <trkpt lat="42.88881" lon="-0.19929">
        <ele>1641.5</ele>
        <time>2026-07-15T12:41:09Z</time>
      </trkpt>
      <trkpt lat="42.88882" lon="-0.19929">
        <ele>1639.5</ele>
        <time>2026-07-15T12:41:10Z</time>
      </trkpt>
      <trkpt lat="42.88882" lon="-0.19929">
        <ele>1639.5</ele>
        <time>2026-07-15T12:41:10Z</time>
      </trkpt>
      <trkpt lat="42.88883" lon="-0.1993">
        <ele>1640.5</ele>
        <time>2026-07-15T12:41:11Z</time>
      </trkpt>
      <trkpt lat="42.88884" lon="-0.1993">
        <ele>1640.5</ele>
        <time>2026-07-15T12:41:11Z</time>
      </trkpt>
      <trkpt lat="42.88885" lon="-0.1993">
        <ele>1640.5</ele>
        <time>2026-07-15T12:41:12Z</time>
      </trkpt>
      <trkpt lat="42.88885" lon="-0.1993">
        <ele>1640.5</ele>
        <time>2026-07-15T12:41:12Z</time>
      </trkpt>
      <trkpt lat="42.88886" lon="-0.1993">
        <ele>1639.5</ele>
        <time>2026-07-15T12:41:13Z</time>
      </trkpt>
      <trkpt lat="42.88886" lon="-0.1993">
        <ele>1639.5</ele>
        <time>2026-07-15T12:41:14Z</time>
      </trkpt>
      <trkpt lat="42.88887" lon="-0.1993">
        <ele>1639.5</ele>
        <time>2026-07-15T12:41:14Z</time>
      </trkpt>
      <trkpt lat="42.88888" lon="-0.1993">
        <ele>1639.5</ele>
        <time>2026-07-15T12:41:15Z</time>
      </trkpt>
      <trkpt lat="42.88888" lon="-0.19931">
        <ele>1640.5</ele>
        <time>2026-07-15T12:41:15Z</time>
      </trkpt>
      <trkpt lat="42.88889" lon="-0.19931">
        <ele>1640.5</ele>
        <time>2026-07-15T12:41:16Z</time>
      </trkpt>
      <trkpt lat="42.88889" lon="-0.19931">
        <ele>1640.5</ele>
        <time>2026-07-15T12:41:16Z</time>
      </trkpt>
      <trkpt lat="42.8889" lon="-0.19931">
        <ele>1640.5</ele>
        <time>2026-07-15T12:41:17Z</time>
      </trkpt>
      <trkpt lat="42.88891" lon="-0.19932">
        <ele>1640.5</ele>
        <time>2026-07-15T12:41:17Z</time>
      </trkpt>
      <trkpt lat="42.88892" lon="-0.19932">
        <ele>1640.5</ele>
        <time>2026-07-15T12:41:18Z</time>
      </trkpt>
      <trkpt lat="42.88893" lon="-0.19933">
        <ele>1640.5</ele>
        <time>2026-07-15T12:41:19Z</time>
      </trkpt>
      <trkpt lat="42.88893" lon="-0.19933">
        <ele>1641.5</ele>
        <time>2026-07-15T12:41:19Z</time>
      </trkpt>
      <trkpt lat="42.88894" lon="-0.19933">
        <ele>1641.5</ele>
        <time>2026-07-15T12:41:20Z</time>
      </trkpt>
      <trkpt lat="42.88894" lon="-0.19934">
        <ele>1640.5</ele>
        <time>2026-07-15T12:41:20Z</time>
      </trkpt>
      <trkpt lat="42.88895" lon="-0.19934">
        <ele>1640.5</ele>
        <time>2026-07-15T12:41:21Z</time>
      </trkpt>
      <trkpt lat="42.88896" lon="-0.19935">
        <ele>1640.5</ele>
        <time>2026-07-15T12:41:22Z</time>
      </trkpt>
      <trkpt lat="42.88896" lon="-0.19935">
        <ele>1640.5</ele>
        <time>2026-07-15T12:41:22Z</time>
      </trkpt>
      <trkpt lat="42.88896" lon="-0.19935">
        <ele>1640.5</ele>
        <time>2026-07-15T12:41:23Z</time>
      </trkpt>
      <trkpt lat="42.88897" lon="-0.19936">
        <ele>1639.5</ele>
        <time>2026-07-15T12:41:23Z</time>
      </trkpt>
      <trkpt lat="42.88897" lon="-0.19936">
        <ele>1639.5</ele>
        <time>2026-07-15T12:41:24Z</time>
      </trkpt>
      <trkpt lat="42.88898" lon="-0.19936">
        <ele>1639.5</ele>
        <time>2026-07-15T12:41:24Z</time>
      </trkpt>
      <trkpt lat="42.88898" lon="-0.19936">
        <ele>1639.5</ele>
        <time>2026-07-15T12:41:25Z</time>
      </trkpt>
      <trkpt lat="42.88899" lon="-0.19936">
        <ele>1639.5</ele>
        <time>2026-07-15T12:41:25Z</time>
      </trkpt>
      <trkpt lat="42.88899" lon="-0.19936">
        <ele>1639.5</ele>
        <time>2026-07-15T12:41:26Z</time>
      </trkpt>
      <trkpt lat="42.889" lon="-0.19936">
        <ele>1639.5</ele>
        <time>2026-07-15T12:41:26Z</time>
      </trkpt>
      <trkpt lat="42.88901" lon="-0.19936">
        <ele>1639.5</ele>
        <time>2026-07-15T12:41:27Z</time>
      </trkpt>
      <trkpt lat="42.88901" lon="-0.19937">
        <ele>1639.5</ele>
        <time>2026-07-15T12:41:27Z</time>
      </trkpt>
      <trkpt lat="42.88902" lon="-0.19937">
        <ele>1639.5</ele>
        <time>2026-07-15T12:41:28Z</time>
      </trkpt>
      <trkpt lat="42.88902" lon="-0.19937">
        <ele>1638.5</ele>
        <time>2026-07-15T12:41:29Z</time>
      </trkpt>
      <trkpt lat="42.88903" lon="-0.19937">
        <ele>1638.5</ele>
        <time>2026-07-15T12:41:29Z</time>
      </trkpt>
      <trkpt lat="42.88903" lon="-0.19937">
        <ele>1638.5</ele>
        <time>2026-07-15T12:41:30Z</time>
      </trkpt>
      <trkpt lat="42.88904" lon="-0.19937">
        <ele>1638.5</ele>
        <time>2026-07-15T12:41:30Z</time>
      </trkpt>
      <trkpt lat="42.88905" lon="-0.19937">
        <ele>1638.5</ele>
        <time>2026-07-15T12:41:31Z</time>
      </trkpt>
      <trkpt lat="42.88905" lon="-0.19937">
        <ele>1638.5</ele>
        <time>2026-07-15T12:41:31Z</time>
      </trkpt>
      <trkpt lat="42.88906" lon="-0.19937">
        <ele>1638.5</ele>
        <time>2026-07-15T12:41:32Z</time>
      </trkpt>
      <trkpt lat="42.88907" lon="-0.19937">
        <ele>1638.5</ele>
        <time>2026-07-15T12:41:33Z</time>
      </trkpt>
      <trkpt lat="42.88908" lon="-0.19937">
        <ele>1638.5</ele>
        <time>2026-07-15T12:41:34Z</time>
      </trkpt>
      <trkpt lat="42.88909" lon="-0.19937">
        <ele>1638.5</ele>
        <time>2026-07-15T12:41:34Z</time>
      </trkpt>
      <trkpt lat="42.88909" lon="-0.19938">
        <ele>1638.5</ele>
        <time>2026-07-15T12:41:35Z</time>
      </trkpt>
      <trkpt lat="42.8891" lon="-0.19938">
        <ele>1639.5</ele>
        <time>2026-07-15T12:41:35Z</time>
      </trkpt>
      <trkpt lat="42.88911" lon="-0.19938">
        <ele>1639.5</ele>
        <time>2026-07-15T12:41:36Z</time>
      </trkpt>
      <trkpt lat="42.88911" lon="-0.19938">
        <ele>1639.5</ele>
        <time>2026-07-15T12:41:36Z</time>
      </trkpt>
      <trkpt lat="42.88912" lon="-0.19938">
        <ele>1639.5</ele>
        <time>2026-07-15T12:41:37Z</time>
      </trkpt>
      <trkpt lat="42.88913" lon="-0.19939">
        <ele>1639.5</ele>
        <time>2026-07-15T12:41:38Z</time>
      </trkpt>
      <trkpt lat="42.88914" lon="-0.1994">
        <ele>1640.5</ele>
        <time>2026-07-15T12:41:38Z</time>
      </trkpt>
      <trkpt lat="42.88914" lon="-0.1994">
        <ele>1640.5</ele>
        <time>2026-07-15T12:41:39Z</time>
      </trkpt>
      <trkpt lat="42.88915" lon="-0.1994">
        <ele>1639.5</ele>
        <time>2026-07-15T12:41:39Z</time>
      </trkpt>
      <trkpt lat="42.88916" lon="-0.19941">
        <ele>1640.5</ele>
        <time>2026-07-15T12:41:40Z</time>
      </trkpt>
      <trkpt lat="42.88917" lon="-0.19941">
        <ele>1640.5</ele>
        <time>2026-07-15T12:41:41Z</time>
      </trkpt>
      <trkpt lat="42.88917" lon="-0.19941">
        <ele>1639.5</ele>
        <time>2026-07-15T12:41:42Z</time>
      </trkpt>
      <trkpt lat="42.88918" lon="-0.19942">
        <ele>1640.5</ele>
        <time>2026-07-15T12:41:42Z</time>
      </trkpt>
      <trkpt lat="42.88918" lon="-0.19942">
        <ele>1640.5</ele>
        <time>2026-07-15T12:41:43Z</time>
      </trkpt>
      <trkpt lat="42.88919" lon="-0.19942">
        <ele>1640.5</ele>
        <time>2026-07-15T12:41:43Z</time>
      </trkpt>
      <trkpt lat="42.8892" lon="-0.19942">
        <ele>1640.5</ele>
        <time>2026-07-15T12:41:44Z</time>
      </trkpt>
      <trkpt lat="42.8892" lon="-0.19943">
        <ele>1640.5</ele>
        <time>2026-07-15T12:41:44Z</time>
      </trkpt>
      <trkpt lat="42.88921" lon="-0.19943">
        <ele>1640.5</ele>
        <time>2026-07-15T12:41:45Z</time>
      </trkpt>
      <trkpt lat="42.88921" lon="-0.19943">
        <ele>1640.5</ele>
        <time>2026-07-15T12:41:45Z</time>
      </trkpt>
      <trkpt lat="42.88922" lon="-0.19943">
        <ele>1640.5</ele>
        <time>2026-07-15T12:41:46Z</time>
      </trkpt>
      <trkpt lat="42.88923" lon="-0.19944">
        <ele>1640.5</ele>
        <time>2026-07-15T12:41:46Z</time>
      </trkpt>
      <trkpt lat="42.88923" lon="-0.19944">
        <ele>1640.5</ele>
        <time>2026-07-15T12:41:47Z</time>
      </trkpt>
      <trkpt lat="42.88924" lon="-0.19944">
        <ele>1640.5</ele>
        <time>2026-07-15T12:41:47Z</time>
      </trkpt>
      <trkpt lat="42.88924" lon="-0.19945">
        <ele>1640.5</ele>
        <time>2026-07-15T12:41:48Z</time>
      </trkpt>
      <trkpt lat="42.88925" lon="-0.19945">
        <ele>1640.5</ele>
        <time>2026-07-15T12:41:48Z</time>
      </trkpt>
      <trkpt lat="42.88926" lon="-0.19946">
        <ele>1640.5</ele>
        <time>2026-07-15T12:41:49Z</time>
      </trkpt>
      <trkpt lat="42.88926" lon="-0.19946">
        <ele>1641.5</ele>
        <time>2026-07-15T12:41:50Z</time>
      </trkpt>
      <trkpt lat="42.88927" lon="-0.19947">
        <ele>1642.5</ele>
        <time>2026-07-15T12:41:50Z</time>
      </trkpt>
      <trkpt lat="42.88928" lon="-0.19947">
        <ele>1642.5</ele>
        <time>2026-07-15T12:41:51Z</time>
      </trkpt>
      <trkpt lat="42.88929" lon="-0.19948">
        <ele>1641.5</ele>
        <time>2026-07-15T12:41:52Z</time>
      </trkpt>
      <trkpt lat="42.8893" lon="-0.19949">
        <ele>1641.5</ele>
        <time>2026-07-15T12:41:53Z</time>
      </trkpt>
      <trkpt lat="42.88931" lon="-0.19949">
        <ele>1641.5</ele>
        <time>2026-07-15T12:41:54Z</time>
      </trkpt>
      <trkpt lat="42.88932" lon="-0.1995">
        <ele>1640.5</ele>
        <time>2026-07-15T12:41:55Z</time>
      </trkpt>
      <trkpt lat="42.88933" lon="-0.1995">
        <ele>1639.5</ele>
        <time>2026-07-15T12:41:55Z</time>
      </trkpt>
      <trkpt lat="42.88933" lon="-0.19951">
        <ele>1639.5</ele>
        <time>2026-07-15T12:41:56Z</time>
      </trkpt>
      <trkpt lat="42.88935" lon="-0.19951">
        <ele>1639.5</ele>
        <time>2026-07-15T12:41:57Z</time>
      </trkpt>
      <trkpt lat="42.88935" lon="-0.19951">
        <ele>1639.5</ele>
        <time>2026-07-15T12:41:58Z</time>
      </trkpt>
      <trkpt lat="42.88935" lon="-0.19952">
        <ele>1639.5</ele>
        <time>2026-07-15T12:41:58Z</time>
      </trkpt>
      <trkpt lat="42.88936" lon="-0.19952">
        <ele>1639.5</ele>
        <time>2026-07-15T12:41:59Z</time>
      </trkpt>
      <trkpt lat="42.88937" lon="-0.19952">
        <ele>1639.5</ele>
        <time>2026-07-15T12:41:59Z</time>
      </trkpt>
      <trkpt lat="42.88937" lon="-0.19953">
        <ele>1639.5</ele>
        <time>2026-07-15T12:42:00Z</time>
      </trkpt>
      <trkpt lat="42.88938" lon="-0.19953">
        <ele>1639.5</ele>
        <time>2026-07-15T12:42:00Z</time>
      </trkpt>
      <trkpt lat="42.88938" lon="-0.19953">
        <ele>1639.5</ele>
        <time>2026-07-15T12:42:01Z</time>
      </trkpt>
      <trkpt lat="42.88939" lon="-0.19953">
        <ele>1639.5</ele>
        <time>2026-07-15T12:42:01Z</time>
      </trkpt>
      <trkpt lat="42.88939" lon="-0.19954">
        <ele>1639.5</ele>
        <time>2026-07-15T12:42:02Z</time>
      </trkpt>
      <trkpt lat="42.8894" lon="-0.19954">
        <ele>1639.5</ele>
        <time>2026-07-15T12:42:02Z</time>
      </trkpt>
      <trkpt lat="42.8894" lon="-0.19954">
        <ele>1639.5</ele>
        <time>2026-07-15T12:42:03Z</time>
      </trkpt>
      <trkpt lat="42.88941" lon="-0.19955">
        <ele>1638.5</ele>
        <time>2026-07-15T12:42:04Z</time>
      </trkpt>
      <trkpt lat="42.88942" lon="-0.19956">
        <ele>1638.5</ele>
        <time>2026-07-15T12:42:05Z</time>
      </trkpt>
      <trkpt lat="42.88943" lon="-0.19957">
        <ele>1637.5</ele>
        <time>2026-07-15T12:42:06Z</time>
      </trkpt>
      <trkpt lat="42.88943" lon="-0.19957">
        <ele>1637.5</ele>
        <time>2026-07-15T12:42:06Z</time>
      </trkpt>
      <trkpt lat="42.88944" lon="-0.19958">
        <ele>1637.5</ele>
        <time>2026-07-15T12:42:07Z</time>
      </trkpt>
      <trkpt lat="42.88945" lon="-0.19958">
        <ele>1637.5</ele>
        <time>2026-07-15T12:42:08Z</time>
      </trkpt>
      <trkpt lat="42.88946" lon="-0.19959">
        <ele>1638.5</ele>
        <time>2026-07-15T12:42:09Z</time>
      </trkpt>
      <trkpt lat="42.88947" lon="-0.19959">
        <ele>1638.5</ele>
        <time>2026-07-15T12:42:10Z</time>
      </trkpt>
      <trkpt lat="42.88948" lon="-0.1996">
        <ele>1638.5</ele>
        <time>2026-07-15T12:42:10Z</time>
      </trkpt>
      <trkpt lat="42.88948" lon="-0.1996">
        <ele>1638.5</ele>
        <time>2026-07-15T12:42:11Z</time>
      </trkpt>
      <trkpt lat="42.88949" lon="-0.1996">
        <ele>1638.5</ele>
        <time>2026-07-15T12:42:11Z</time>
      </trkpt>
      <trkpt lat="42.8895" lon="-0.19961">
        <ele>1638.5</ele>
        <time>2026-07-15T12:42:12Z</time>
      </trkpt>
      <trkpt lat="42.8895" lon="-0.19961">
        <ele>1638.5</ele>
        <time>2026-07-15T12:42:13Z</time>
      </trkpt>
      <trkpt lat="42.88951" lon="-0.19961">
        <ele>1638.5</ele>
        <time>2026-07-15T12:42:13Z</time>
      </trkpt>
      <trkpt lat="42.88951" lon="-0.19961">
        <ele>1638.5</ele>
        <time>2026-07-15T12:42:14Z</time>
      </trkpt>
      <trkpt lat="42.88952" lon="-0.19961">
        <ele>1638.5</ele>
        <time>2026-07-15T12:42:14Z</time>
      </trkpt>
      <trkpt lat="42.88953" lon="-0.19961">
        <ele>1638.5</ele>
        <time>2026-07-15T12:42:15Z</time>
      </trkpt>
      <trkpt lat="42.88954" lon="-0.19961">
        <ele>1638.5</ele>
        <time>2026-07-15T12:42:16Z</time>
      </trkpt>
      <trkpt lat="42.88955" lon="-0.19961">
        <ele>1638.5</ele>
        <time>2026-07-15T12:42:17Z</time>
      </trkpt>
      <trkpt lat="42.88955" lon="-0.19962">
        <ele>1638.5</ele>
        <time>2026-07-15T12:42:18Z</time>
      </trkpt>
      <trkpt lat="42.88955" lon="-0.19963">
        <ele>1637.5</ele>
        <time>2026-07-15T12:42:19Z</time>
      </trkpt>
      <trkpt lat="42.88956" lon="-0.19963">
        <ele>1638.5</ele>
        <time>2026-07-15T12:42:19Z</time>
      </trkpt>
      <trkpt lat="42.88956" lon="-0.19964">
        <ele>1636.5</ele>
        <time>2026-07-15T12:42:20Z</time>
      </trkpt>
      <trkpt lat="42.88956" lon="-0.19964">
        <ele>1636.5</ele>
        <time>2026-07-15T12:42:20Z</time>
      </trkpt>
      <trkpt lat="42.88957" lon="-0.19964">
        <ele>1635.5</ele>
        <time>2026-07-15T12:42:21Z</time>
      </trkpt>
      <trkpt lat="42.88957" lon="-0.19964">
        <ele>1635.5</ele>
        <time>2026-07-15T12:42:22Z</time>
      </trkpt>
      <trkpt lat="42.88958" lon="-0.19964">
        <ele>1635.5</ele>
        <time>2026-07-15T12:42:23Z</time>
      </trkpt>
      <trkpt lat="42.88958" lon="-0.19964">
        <ele>1635.5</ele>
        <time>2026-07-15T12:42:23Z</time>
      </trkpt>
      <trkpt lat="42.88959" lon="-0.19964">
        <ele>1635.5</ele>
        <time>2026-07-15T12:42:24Z</time>
      </trkpt>
      <trkpt lat="42.88959" lon="-0.19964">
        <ele>1635.5</ele>
        <time>2026-07-15T12:42:24Z</time>
      </trkpt>
      <trkpt lat="42.88959" lon="-0.19964">
        <ele>1635.5</ele>
        <time>2026-07-15T12:42:25Z</time>
      </trkpt>
      <trkpt lat="42.8896" lon="-0.19966">
        <ele>1635.5</ele>
        <time>2026-07-15T12:42:26Z</time>
      </trkpt>
      <trkpt lat="42.8896" lon="-0.19966">
        <ele>1635.5</ele>
        <time>2026-07-15T12:42:27Z</time>
      </trkpt>
      <trkpt lat="42.88961" lon="-0.19967">
        <ele>1635.5</ele>
        <time>2026-07-15T12:42:28Z</time>
      </trkpt>
      <trkpt lat="42.88962" lon="-0.19967">
        <ele>1634.5</ele>
        <time>2026-07-15T12:42:29Z</time>
      </trkpt>
      <trkpt lat="42.88962" lon="-0.19968">
        <ele>1634.5</ele>
        <time>2026-07-15T12:42:29Z</time>
      </trkpt>
      <trkpt lat="42.88963" lon="-0.19968">
        <ele>1634.5</ele>
        <time>2026-07-15T12:42:30Z</time>
      </trkpt>
      <trkpt lat="42.88963" lon="-0.19968">
        <ele>1633.5</ele>
        <time>2026-07-15T12:42:30Z</time>
      </trkpt>
      <trkpt lat="42.88964" lon="-0.19969">
        <ele>1633.5</ele>
        <time>2026-07-15T12:42:31Z</time>
      </trkpt>
      <trkpt lat="42.88964" lon="-0.19969">
        <ele>1632.5</ele>
        <time>2026-07-15T12:42:31Z</time>
      </trkpt>
      <trkpt lat="42.88965" lon="-0.19969">
        <ele>1632.5</ele>
        <time>2026-07-15T12:42:32Z</time>
      </trkpt>
      <trkpt lat="42.88966" lon="-0.19969">
        <ele>1632.5</ele>
        <time>2026-07-15T12:42:33Z</time>
      </trkpt>
      <trkpt lat="42.88967" lon="-0.1997">
        <ele>1630.5</ele>
        <time>2026-07-15T12:42:34Z</time>
      </trkpt>
      <trkpt lat="42.88967" lon="-0.1997">
        <ele>1630.5</ele>
        <time>2026-07-15T12:42:34Z</time>
      </trkpt>
      <trkpt lat="42.88968" lon="-0.19971">
        <ele>1631.5</ele>
        <time>2026-07-15T12:42:35Z</time>
      </trkpt>
      <trkpt lat="42.88968" lon="-0.19971">
        <ele>1631.5</ele>
        <time>2026-07-15T12:42:36Z</time>
      </trkpt>
      <trkpt lat="42.88969" lon="-0.19971">
        <ele>1631.5</ele>
        <time>2026-07-15T12:42:36Z</time>
      </trkpt>
      <trkpt lat="42.88969" lon="-0.19972">
        <ele>1631.5</ele>
        <time>2026-07-15T12:42:37Z</time>
      </trkpt>
      <trkpt lat="42.8897" lon="-0.19972">
        <ele>1632.5</ele>
        <time>2026-07-15T12:42:37Z</time>
      </trkpt>
      <trkpt lat="42.8897" lon="-0.19973">
        <ele>1632.5</ele>
        <time>2026-07-15T12:42:38Z</time>
      </trkpt>
      <trkpt lat="42.8897" lon="-0.19974">
        <ele>1632.5</ele>
        <time>2026-07-15T12:42:38Z</time>
      </trkpt>
      <trkpt lat="42.88971" lon="-0.19974">
        <ele>1632.5</ele>
        <time>2026-07-15T12:42:39Z</time>
      </trkpt>
      <trkpt lat="42.88971" lon="-0.19975">
        <ele>1632.5</ele>
        <time>2026-07-15T12:42:39Z</time>
      </trkpt>
      <trkpt lat="42.88972" lon="-0.19976">
        <ele>1632.5</ele>
        <time>2026-07-15T12:42:40Z</time>
      </trkpt>
      <trkpt lat="42.88973" lon="-0.19977">
        <ele>1632.5</ele>
        <time>2026-07-15T12:42:41Z</time>
      </trkpt>
      <trkpt lat="42.88973" lon="-0.19977">
        <ele>1631.5</ele>
        <time>2026-07-15T12:42:41Z</time>
      </trkpt>
      <trkpt lat="42.88974" lon="-0.19978">
        <ele>1631.5</ele>
        <time>2026-07-15T12:42:42Z</time>
      </trkpt>
      <trkpt lat="42.88974" lon="-0.19979">
        <ele>1631.5</ele>
        <time>2026-07-15T12:42:42Z</time>
      </trkpt>
      <trkpt lat="42.88975" lon="-0.19979">
        <ele>1631.5</ele>
        <time>2026-07-15T12:42:43Z</time>
      </trkpt>
      <trkpt lat="42.88975" lon="-0.1998">
        <ele>1631.5</ele>
        <time>2026-07-15T12:42:44Z</time>
      </trkpt>
      <trkpt lat="42.88975" lon="-0.19982">
        <ele>1630.5</ele>
        <time>2026-07-15T12:42:45Z</time>
      </trkpt>
      <trkpt lat="42.88976" lon="-0.19983">
        <ele>1630.5</ele>
        <time>2026-07-15T12:42:46Z</time>
      </trkpt>
      <trkpt lat="42.88977" lon="-0.19984">
        <ele>1630.5</ele>
        <time>2026-07-15T12:42:47Z</time>
      </trkpt>
      <trkpt lat="42.88978" lon="-0.19984">
        <ele>1630.5</ele>
        <time>2026-07-15T12:42:47Z</time>
      </trkpt>
      <trkpt lat="42.88978" lon="-0.19985">
        <ele>1630.5</ele>
        <time>2026-07-15T12:42:48Z</time>
      </trkpt>
      <trkpt lat="42.88979" lon="-0.19986">
        <ele>1630.5</ele>
        <time>2026-07-15T12:42:49Z</time>
      </trkpt>
      <trkpt lat="42.8898" lon="-0.19986">
        <ele>1630.5</ele>
        <time>2026-07-15T12:42:49Z</time>
      </trkpt>
      <trkpt lat="42.8898" lon="-0.19987">
        <ele>1630.5</ele>
        <time>2026-07-15T12:42:50Z</time>
      </trkpt>
      <trkpt lat="42.8898" lon="-0.19987">
        <ele>1630.5</ele>
        <time>2026-07-15T12:42:50Z</time>
      </trkpt>
      <trkpt lat="42.88981" lon="-0.19988">
        <ele>1630.5</ele>
        <time>2026-07-15T12:42:51Z</time>
      </trkpt>
      <trkpt lat="42.88981" lon="-0.19989">
        <ele>1630.5</ele>
        <time>2026-07-15T12:42:51Z</time>
      </trkpt>
      <trkpt lat="42.88982" lon="-0.19989">
        <ele>1630.5</ele>
        <time>2026-07-15T12:42:52Z</time>
      </trkpt>
      <trkpt lat="42.88983" lon="-0.1999">
        <ele>1628.5</ele>
        <time>2026-07-15T12:42:53Z</time>
      </trkpt>
      <trkpt lat="42.88983" lon="-0.1999">
        <ele>1628.5</ele>
        <time>2026-07-15T12:42:54Z</time>
      </trkpt>
      <trkpt lat="42.88983" lon="-0.19991">
        <ele>1628.5</ele>
        <time>2026-07-15T12:42:54Z</time>
      </trkpt>
      <trkpt lat="42.88984" lon="-0.19992">
        <ele>1628.5</ele>
        <time>2026-07-15T12:42:55Z</time>
      </trkpt>
      <trkpt lat="42.88984" lon="-0.19992">
        <ele>1628.5</ele>
        <time>2026-07-15T12:42:55Z</time>
      </trkpt>
      <trkpt lat="42.88984" lon="-0.19993">
        <ele>1628.5</ele>
        <time>2026-07-15T12:42:56Z</time>
      </trkpt>
      <trkpt lat="42.88985" lon="-0.19994">
        <ele>1628.5</ele>
        <time>2026-07-15T12:42:57Z</time>
      </trkpt>
      <trkpt lat="42.88985" lon="-0.19994">
        <ele>1627.5</ele>
        <time>2026-07-15T12:42:57Z</time>
      </trkpt>
      <trkpt lat="42.88986" lon="-0.19995">
        <ele>1627.5</ele>
        <time>2026-07-15T12:42:58Z</time>
      </trkpt>
      <trkpt lat="42.88986" lon="-0.19997">
        <ele>1627.5</ele>
        <time>2026-07-15T12:42:59Z</time>
      </trkpt>
      <trkpt lat="42.88986" lon="-0.19998">
        <ele>1627.5</ele>
        <time>2026-07-15T12:42:59Z</time>
      </trkpt>
      <trkpt lat="42.88987" lon="-0.19998">
        <ele>1627.5</ele>
        <time>2026-07-15T12:43:00Z</time>
      </trkpt>
      <trkpt lat="42.88987" lon="-0.19999">
        <ele>1627.5</ele>
        <time>2026-07-15T12:43:01Z</time>
      </trkpt>
      <trkpt lat="42.88987" lon="-0.2">
        <ele>1627.5</ele>
        <time>2026-07-15T12:43:01Z</time>
      </trkpt>
      <trkpt lat="42.88988" lon="-0.2">
        <ele>1627.5</ele>
        <time>2026-07-15T12:43:02Z</time>
      </trkpt>
      <trkpt lat="42.88988" lon="-0.2">
        <ele>1627.5</ele>
        <time>2026-07-15T12:43:02Z</time>
      </trkpt>
      <trkpt lat="42.88989" lon="-0.20001">
        <ele>1627.5</ele>
        <time>2026-07-15T12:43:03Z</time>
      </trkpt>
      <trkpt lat="42.88989" lon="-0.20001">
        <ele>1627.5</ele>
        <time>2026-07-15T12:43:03Z</time>
      </trkpt>
      <trkpt lat="42.8899" lon="-0.20002">
        <ele>1627.5</ele>
        <time>2026-07-15T12:43:04Z</time>
      </trkpt>
      <trkpt lat="42.88991" lon="-0.20002">
        <ele>1628.5</ele>
        <time>2026-07-15T12:43:04Z</time>
      </trkpt>
      <trkpt lat="42.88991" lon="-0.20002">
        <ele>1628.5</ele>
        <time>2026-07-15T12:43:05Z</time>
      </trkpt>
      <trkpt lat="42.88992" lon="-0.20002">
        <ele>1628.5</ele>
        <time>2026-07-15T12:43:05Z</time>
      </trkpt>
      <trkpt lat="42.88993" lon="-0.20002">
        <ele>1628.5</ele>
        <time>2026-07-15T12:43:06Z</time>
      </trkpt>
      <trkpt lat="42.88993" lon="-0.20003">
        <ele>1628.5</ele>
        <time>2026-07-15T12:43:06Z</time>
      </trkpt>
      <trkpt lat="42.88994" lon="-0.20003">
        <ele>1628.5</ele>
        <time>2026-07-15T12:43:07Z</time>
      </trkpt>
      <trkpt lat="42.88994" lon="-0.20003">
        <ele>1628.5</ele>
        <time>2026-07-15T12:43:08Z</time>
      </trkpt>
      <trkpt lat="42.88995" lon="-0.20004">
        <ele>1628.5</ele>
        <time>2026-07-15T12:43:08Z</time>
      </trkpt>
      <trkpt lat="42.88995" lon="-0.20005">
        <ele>1628.5</ele>
        <time>2026-07-15T12:43:09Z</time>
      </trkpt>
      <trkpt lat="42.88996" lon="-0.20005">
        <ele>1628.5</ele>
        <time>2026-07-15T12:43:10Z</time>
      </trkpt>
      <trkpt lat="42.88997" lon="-0.20006">
        <ele>1628.5</ele>
        <time>2026-07-15T12:43:10Z</time>
      </trkpt>
      <trkpt lat="42.88997" lon="-0.20006">
        <ele>1628.5</ele>
        <time>2026-07-15T12:43:11Z</time>
      </trkpt>
      <trkpt lat="42.88998" lon="-0.20006">
        <ele>1628.5</ele>
        <time>2026-07-15T12:43:11Z</time>
      </trkpt>
      <trkpt lat="42.88998" lon="-0.20007">
        <ele>1628.5</ele>
        <time>2026-07-15T12:43:12Z</time>
      </trkpt>
      <trkpt lat="42.88999" lon="-0.20007">
        <ele>1628.5</ele>
        <time>2026-07-15T12:43:13Z</time>
      </trkpt>
      <trkpt lat="42.89" lon="-0.20007">
        <ele>1628.5</ele>
        <time>2026-07-15T12:43:13Z</time>
      </trkpt>
      <trkpt lat="42.89" lon="-0.20007">
        <ele>1628.5</ele>
        <time>2026-07-15T12:43:14Z</time>
      </trkpt>
      <trkpt lat="42.89001" lon="-0.20007">
        <ele>1628.5</ele>
        <time>2026-07-15T12:43:14Z</time>
      </trkpt>
      <trkpt lat="42.89002" lon="-0.20007">
        <ele>1628.5</ele>
        <time>2026-07-15T12:43:15Z</time>
      </trkpt>
      <trkpt lat="42.89002" lon="-0.20008">
        <ele>1629.5</ele>
        <time>2026-07-15T12:43:15Z</time>
      </trkpt>
      <trkpt lat="42.89003" lon="-0.20008">
        <ele>1629.5</ele>
        <time>2026-07-15T12:43:16Z</time>
      </trkpt>
      <trkpt lat="42.89004" lon="-0.20008">
        <ele>1629.5</ele>
        <time>2026-07-15T12:43:17Z</time>
      </trkpt>
      <trkpt lat="42.89004" lon="-0.20008">
        <ele>1628.5</ele>
        <time>2026-07-15T12:43:17Z</time>
      </trkpt>
      <trkpt lat="42.89005" lon="-0.20008">
        <ele>1628.5</ele>
        <time>2026-07-15T12:43:18Z</time>
      </trkpt>
      <trkpt lat="42.89005" lon="-0.20008">
        <ele>1628.5</ele>
        <time>2026-07-15T12:43:18Z</time>
      </trkpt>
      <trkpt lat="42.89006" lon="-0.20009">
        <ele>1628.5</ele>
        <time>2026-07-15T12:43:19Z</time>
      </trkpt>
      <trkpt lat="42.89007" lon="-0.20009">
        <ele>1627.5</ele>
        <time>2026-07-15T12:43:19Z</time>
      </trkpt>
      <trkpt lat="42.89007" lon="-0.20009">
        <ele>1627.5</ele>
        <time>2026-07-15T12:43:20Z</time>
      </trkpt>
      <trkpt lat="42.89008" lon="-0.20009">
        <ele>1626.5</ele>
        <time>2026-07-15T12:43:20Z</time>
      </trkpt>
      <trkpt lat="42.89008" lon="-0.2001">
        <ele>1625.5</ele>
        <time>2026-07-15T12:43:21Z</time>
      </trkpt>
      <trkpt lat="42.89009" lon="-0.2001">
        <ele>1625.5</ele>
        <time>2026-07-15T12:43:22Z</time>
      </trkpt>
      <trkpt lat="42.89009" lon="-0.2001">
        <ele>1625.5</ele>
        <time>2026-07-15T12:43:22Z</time>
      </trkpt>
      <trkpt lat="42.8901" lon="-0.20011">
        <ele>1625.5</ele>
        <time>2026-07-15T12:43:23Z</time>
      </trkpt>
      <trkpt lat="42.8901" lon="-0.20011">
        <ele>1625.5</ele>
        <time>2026-07-15T12:43:23Z</time>
      </trkpt>
      <trkpt lat="42.89011" lon="-0.20011">
        <ele>1625.5</ele>
        <time>2026-07-15T12:43:24Z</time>
      </trkpt>
      <trkpt lat="42.89011" lon="-0.20012">
        <ele>1625.5</ele>
        <time>2026-07-15T12:43:24Z</time>
      </trkpt>
      <trkpt lat="42.89012" lon="-0.20012">
        <ele>1625.5</ele>
        <time>2026-07-15T12:43:25Z</time>
      </trkpt>
      <trkpt lat="42.89012" lon="-0.20013">
        <ele>1625.5</ele>
        <time>2026-07-15T12:43:25Z</time>
      </trkpt>
      <trkpt lat="42.89013" lon="-0.20013">
        <ele>1625.5</ele>
        <time>2026-07-15T12:43:26Z</time>
      </trkpt>
      <trkpt lat="42.89013" lon="-0.20014">
        <ele>1625.5</ele>
        <time>2026-07-15T12:43:26Z</time>
      </trkpt>
      <trkpt lat="42.89014" lon="-0.20015">
        <ele>1624.5</ele>
        <time>2026-07-15T12:43:27Z</time>
      </trkpt>
      <trkpt lat="42.89015" lon="-0.20016">
        <ele>1624.5</ele>
        <time>2026-07-15T12:43:28Z</time>
      </trkpt>
      <trkpt lat="42.89015" lon="-0.20016">
        <ele>1623.5</ele>
        <time>2026-07-15T12:43:28Z</time>
      </trkpt>
      <trkpt lat="42.89016" lon="-0.20017">
        <ele>1623.5</ele>
        <time>2026-07-15T12:43:29Z</time>
      </trkpt>
      <trkpt lat="42.89016" lon="-0.20017">
        <ele>1623.5</ele>
        <time>2026-07-15T12:43:30Z</time>
      </trkpt>
      <trkpt lat="42.89017" lon="-0.20018">
        <ele>1623.5</ele>
        <time>2026-07-15T12:43:30Z</time>
      </trkpt>
      <trkpt lat="42.89017" lon="-0.20018">
        <ele>1622.5</ele>
        <time>2026-07-15T12:43:31Z</time>
      </trkpt>
      <trkpt lat="42.89018" lon="-0.20018">
        <ele>1622.5</ele>
        <time>2026-07-15T12:43:31Z</time>
      </trkpt>
      <trkpt lat="42.89018" lon="-0.20019">
        <ele>1622.5</ele>
        <time>2026-07-15T12:43:32Z</time>
      </trkpt>
      <trkpt lat="42.89019" lon="-0.20019">
        <ele>1622.5</ele>
        <time>2026-07-15T12:43:32Z</time>
      </trkpt>
      <trkpt lat="42.89019" lon="-0.2002">
        <ele>1622.5</ele>
        <time>2026-07-15T12:43:33Z</time>
      </trkpt>
      <trkpt lat="42.8902" lon="-0.2002">
        <ele>1623.5</ele>
        <time>2026-07-15T12:43:33Z</time>
      </trkpt>
      <trkpt lat="42.89021" lon="-0.20021">
        <ele>1623.5</ele>
        <time>2026-07-15T12:43:34Z</time>
      </trkpt>
      <trkpt lat="42.89021" lon="-0.20021">
        <ele>1623.5</ele>
        <time>2026-07-15T12:43:34Z</time>
      </trkpt>
      <trkpt lat="42.89022" lon="-0.20022">
        <ele>1623.5</ele>
        <time>2026-07-15T12:43:35Z</time>
      </trkpt>
      <trkpt lat="42.89022" lon="-0.20022">
        <ele>1622.5</ele>
        <time>2026-07-15T12:43:35Z</time>
      </trkpt>
      <trkpt lat="42.89023" lon="-0.20023">
        <ele>1622.5</ele>
        <time>2026-07-15T12:43:36Z</time>
      </trkpt>
      <trkpt lat="42.89023" lon="-0.20024">
        <ele>1623.5</ele>
        <time>2026-07-15T12:43:36Z</time>
      </trkpt>
      <trkpt lat="42.89024" lon="-0.20024">
        <ele>1623.5</ele>
        <time>2026-07-15T12:43:37Z</time>
      </trkpt>
      <trkpt lat="42.89024" lon="-0.20025">
        <ele>1623.5</ele>
        <time>2026-07-15T12:43:37Z</time>
      </trkpt>
      <trkpt lat="42.89025" lon="-0.20025">
        <ele>1623.5</ele>
        <time>2026-07-15T12:43:38Z</time>
      </trkpt>
      <trkpt lat="42.89025" lon="-0.20026">
        <ele>1623.5</ele>
        <time>2026-07-15T12:43:39Z</time>
      </trkpt>
      <trkpt lat="42.89025" lon="-0.20027">
        <ele>1622.5</ele>
        <time>2026-07-15T12:43:39Z</time>
      </trkpt>
      <trkpt lat="42.89026" lon="-0.20027">
        <ele>1622.5</ele>
        <time>2026-07-15T12:43:40Z</time>
      </trkpt>
      <trkpt lat="42.89027" lon="-0.20028">
        <ele>1622.5</ele>
        <time>2026-07-15T12:43:40Z</time>
      </trkpt>
      <trkpt lat="42.89027" lon="-0.20028">
        <ele>1622.5</ele>
        <time>2026-07-15T12:43:41Z</time>
      </trkpt>
      <trkpt lat="42.89028" lon="-0.20029">
        <ele>1622.5</ele>
        <time>2026-07-15T12:43:41Z</time>
      </trkpt>
      <trkpt lat="42.89028" lon="-0.20029">
        <ele>1622.5</ele>
        <time>2026-07-15T12:43:42Z</time>
      </trkpt>
      <trkpt lat="42.89029" lon="-0.2003">
        <ele>1621.5</ele>
        <time>2026-07-15T12:43:42Z</time>
      </trkpt>
      <trkpt lat="42.89029" lon="-0.2003">
        <ele>1621.5</ele>
        <time>2026-07-15T12:43:43Z</time>
      </trkpt>
      <trkpt lat="42.8903" lon="-0.2003">
        <ele>1621.5</ele>
        <time>2026-07-15T12:43:43Z</time>
      </trkpt>
      <trkpt lat="42.8903" lon="-0.20031">
        <ele>1621.5</ele>
        <time>2026-07-15T12:43:44Z</time>
      </trkpt>
      <trkpt lat="42.89031" lon="-0.20031">
        <ele>1620.5</ele>
        <time>2026-07-15T12:43:44Z</time>
      </trkpt>
      <trkpt lat="42.89031" lon="-0.20032">
        <ele>1620.5</ele>
        <time>2026-07-15T12:43:45Z</time>
      </trkpt>
      <trkpt lat="42.89032" lon="-0.20032">
        <ele>1620.5</ele>
        <time>2026-07-15T12:43:45Z</time>
      </trkpt>
      <trkpt lat="42.89032" lon="-0.20033">
        <ele>1620.5</ele>
        <time>2026-07-15T12:43:46Z</time>
      </trkpt>
      <trkpt lat="42.89033" lon="-0.20033">
        <ele>1620.5</ele>
        <time>2026-07-15T12:43:46Z</time>
      </trkpt>
      <trkpt lat="42.89033" lon="-0.20034">
        <ele>1620.5</ele>
        <time>2026-07-15T12:43:47Z</time>
      </trkpt>
      <trkpt lat="42.89034" lon="-0.20034">
        <ele>1619.5</ele>
        <time>2026-07-15T12:43:48Z</time>
      </trkpt>
      <trkpt lat="42.89034" lon="-0.20035">
        <ele>1619.5</ele>
        <time>2026-07-15T12:43:48Z</time>
      </trkpt>
      <trkpt lat="42.89035" lon="-0.20035">
        <ele>1619.5</ele>
        <time>2026-07-15T12:43:49Z</time>
      </trkpt>
      <trkpt lat="42.89035" lon="-0.20036">
        <ele>1619.5</ele>
        <time>2026-07-15T12:43:49Z</time>
      </trkpt>
      <trkpt lat="42.89036" lon="-0.20036">
        <ele>1619.5</ele>
        <time>2026-07-15T12:43:50Z</time>
      </trkpt>
      <trkpt lat="42.89036" lon="-0.20037">
        <ele>1619.5</ele>
        <time>2026-07-15T12:43:50Z</time>
      </trkpt>
      <trkpt lat="42.89037" lon="-0.20037">
        <ele>1619.5</ele>
        <time>2026-07-15T12:43:51Z</time>
      </trkpt>
      <trkpt lat="42.89037" lon="-0.20038">
        <ele>1619.5</ele>
        <time>2026-07-15T12:43:51Z</time>
      </trkpt>
      <trkpt lat="42.89038" lon="-0.20038">
        <ele>1619.5</ele>
        <time>2026-07-15T12:43:52Z</time>
      </trkpt>
      <trkpt lat="42.89038" lon="-0.20039">
        <ele>1619.5</ele>
        <time>2026-07-15T12:43:52Z</time>
      </trkpt>
      <trkpt lat="42.89039" lon="-0.20039">
        <ele>1619.5</ele>
        <time>2026-07-15T12:43:53Z</time>
      </trkpt>
      <trkpt lat="42.89039" lon="-0.2004">
        <ele>1619.5</ele>
        <time>2026-07-15T12:43:53Z</time>
      </trkpt>
      <trkpt lat="42.89039" lon="-0.2004">
        <ele>1618.5</ele>
        <time>2026-07-15T12:43:54Z</time>
      </trkpt>
      <trkpt lat="42.89039" lon="-0.2004">
        <ele>1618.5</ele>
        <time>2026-07-15T12:43:55Z</time>
      </trkpt>
      <trkpt lat="42.8904" lon="-0.20041">
        <ele>1618.5</ele>
        <time>2026-07-15T12:43:55Z</time>
      </trkpt>
      <trkpt lat="42.8904" lon="-0.20041">
        <ele>1618.5</ele>
        <time>2026-07-15T12:43:56Z</time>
      </trkpt>
      <trkpt lat="42.8904" lon="-0.20042">
        <ele>1618.5</ele>
        <time>2026-07-15T12:43:56Z</time>
      </trkpt>
      <trkpt lat="42.89041" lon="-0.20042">
        <ele>1618.5</ele>
        <time>2026-07-15T12:43:57Z</time>
      </trkpt>
      <trkpt lat="42.89042" lon="-0.20043">
        <ele>1617.5</ele>
        <time>2026-07-15T12:43:57Z</time>
      </trkpt>
      <trkpt lat="42.89042" lon="-0.20043">
        <ele>1617.5</ele>
        <time>2026-07-15T12:43:58Z</time>
      </trkpt>
      <trkpt lat="42.89043" lon="-0.20044">
        <ele>1617.5</ele>
        <time>2026-07-15T12:43:59Z</time>
      </trkpt>
      <trkpt lat="42.89044" lon="-0.20045">
        <ele>1618.5</ele>
        <time>2026-07-15T12:44:00Z</time>
      </trkpt>
      <trkpt lat="42.89044" lon="-0.20045">
        <ele>1618.5</ele>
        <time>2026-07-15T12:44:00Z</time>
      </trkpt>
      <trkpt lat="42.89044" lon="-0.20046">
        <ele>1618.5</ele>
        <time>2026-07-15T12:44:01Z</time>
      </trkpt>
      <trkpt lat="42.89045" lon="-0.20047">
        <ele>1618.5</ele>
        <time>2026-07-15T12:44:02Z</time>
      </trkpt>
      <trkpt lat="42.89046" lon="-0.20048">
        <ele>1617.5</ele>
        <time>2026-07-15T12:44:03Z</time>
      </trkpt>
      <trkpt lat="42.89046" lon="-0.20048">
        <ele>1617.5</ele>
        <time>2026-07-15T12:44:03Z</time>
      </trkpt>
      <trkpt lat="42.89047" lon="-0.20049">
        <ele>1617.5</ele>
        <time>2026-07-15T12:44:04Z</time>
      </trkpt>
      <trkpt lat="42.89047" lon="-0.2005">
        <ele>1617.5</ele>
        <time>2026-07-15T12:44:04Z</time>
      </trkpt>
      <trkpt lat="42.89047" lon="-0.2005">
        <ele>1617.5</ele>
        <time>2026-07-15T12:44:05Z</time>
      </trkpt>
      <trkpt lat="42.89047" lon="-0.20051">
        <ele>1616.5</ele>
        <time>2026-07-15T12:44:05Z</time>
      </trkpt>
      <trkpt lat="42.89048" lon="-0.20051">
        <ele>1616.5</ele>
        <time>2026-07-15T12:44:06Z</time>
      </trkpt>
      <trkpt lat="42.89048" lon="-0.20051">
        <ele>1616.5</ele>
        <time>2026-07-15T12:44:06Z</time>
      </trkpt>
      <trkpt lat="42.89049" lon="-0.20052">
        <ele>1616.5</ele>
        <time>2026-07-15T12:44:07Z</time>
      </trkpt>
      <trkpt lat="42.89049" lon="-0.20052">
        <ele>1616.5</ele>
        <time>2026-07-15T12:44:07Z</time>
      </trkpt>
      <trkpt lat="42.8905" lon="-0.20053">
        <ele>1616.5</ele>
        <time>2026-07-15T12:44:08Z</time>
      </trkpt>
      <trkpt lat="42.8905" lon="-0.20054">
        <ele>1616.5</ele>
        <time>2026-07-15T12:44:09Z</time>
      </trkpt>
      <trkpt lat="42.8905" lon="-0.20054">
        <ele>1616.5</ele>
        <time>2026-07-15T12:44:10Z</time>
      </trkpt>
      <trkpt lat="42.89051" lon="-0.20054">
        <ele>1617.5</ele>
        <time>2026-07-15T12:44:11Z</time>
      </trkpt>
      <trkpt lat="42.89051" lon="-0.20054">
        <ele>1617.5</ele>
        <time>2026-07-15T12:44:12Z</time>
      </trkpt>
      <trkpt lat="42.89051" lon="-0.20053">
        <ele>1617.5</ele>
        <time>2026-07-15T12:44:13Z</time>
      </trkpt>
      <trkpt lat="42.89051" lon="-0.20053">
        <ele>1617.5</ele>
        <time>2026-07-15T12:44:14Z</time>
      </trkpt>
      <trkpt lat="42.89051" lon="-0.20053">
        <ele>1617.5</ele>
        <time>2026-07-15T12:44:14Z</time>
      </trkpt>
      <trkpt lat="42.89051" lon="-0.20053">
        <ele>1618.5</ele>
        <time>2026-07-15T12:44:15Z</time>
      </trkpt>
      <trkpt lat="42.89052" lon="-0.20054">
        <ele>1618.5</ele>
        <time>2026-07-15T12:44:16Z</time>
      </trkpt>
      <trkpt lat="42.89053" lon="-0.20055">
        <ele>1618.5</ele>
        <time>2026-07-15T12:44:17Z</time>
      </trkpt>
      <trkpt lat="42.89055" lon="-0.20056">
        <ele>1617.5</ele>
        <time>2026-07-15T12:44:18Z</time>
      </trkpt>
      <trkpt lat="42.89055" lon="-0.20057">
        <ele>1618.5</ele>
        <time>2026-07-15T12:44:18Z</time>
      </trkpt>
      <trkpt lat="42.89056" lon="-0.20058">
        <ele>1618.5</ele>
        <time>2026-07-15T12:44:19Z</time>
      </trkpt>
      <trkpt lat="42.89057" lon="-0.20058">
        <ele>1617.5</ele>
        <time>2026-07-15T12:44:20Z</time>
      </trkpt>
      <trkpt lat="42.89057" lon="-0.20059">
        <ele>1617.5</ele>
        <time>2026-07-15T12:44:20Z</time>
      </trkpt>
      <trkpt lat="42.89058" lon="-0.20059">
        <ele>1617.5</ele>
        <time>2026-07-15T12:44:21Z</time>
      </trkpt>
      <trkpt lat="42.89058" lon="-0.2006">
        <ele>1617.5</ele>
        <time>2026-07-15T12:44:21Z</time>
      </trkpt>
      <trkpt lat="42.89059" lon="-0.20061">
        <ele>1617.5</ele>
        <time>2026-07-15T12:44:22Z</time>
      </trkpt>
      <trkpt lat="42.89059" lon="-0.20061">
        <ele>1616.5</ele>
        <time>2026-07-15T12:44:23Z</time>
      </trkpt>
      <trkpt lat="42.8906" lon="-0.20062">
        <ele>1616.5</ele>
        <time>2026-07-15T12:44:23Z</time>
      </trkpt>
      <trkpt lat="42.8906" lon="-0.20062">
        <ele>1616.5</ele>
        <time>2026-07-15T12:44:24Z</time>
      </trkpt>
      <trkpt lat="42.89061" lon="-0.20063">
        <ele>1616.5</ele>
        <time>2026-07-15T12:44:25Z</time>
      </trkpt>
      <trkpt lat="42.89062" lon="-0.20064">
        <ele>1615.5</ele>
        <time>2026-07-15T12:44:25Z</time>
      </trkpt>
      <trkpt lat="42.89062" lon="-0.20064">
        <ele>1615.5</ele>
        <time>2026-07-15T12:44:26Z</time>
      </trkpt>
      <trkpt lat="42.89063" lon="-0.20065">
        <ele>1616.5</ele>
        <time>2026-07-15T12:44:26Z</time>
      </trkpt>
      <trkpt lat="42.89063" lon="-0.20066">
        <ele>1616.5</ele>
        <time>2026-07-15T12:44:27Z</time>
      </trkpt>
      <trkpt lat="42.89064" lon="-0.20066">
        <ele>1616.5</ele>
        <time>2026-07-15T12:44:27Z</time>
      </trkpt>
      <trkpt lat="42.89064" lon="-0.20066">
        <ele>1615.5</ele>
        <time>2026-07-15T12:44:28Z</time>
      </trkpt>
      <trkpt lat="42.89065" lon="-0.20067">
        <ele>1615.5</ele>
        <time>2026-07-15T12:44:29Z</time>
      </trkpt>
      <trkpt lat="42.89066" lon="-0.20067">
        <ele>1615.5</ele>
        <time>2026-07-15T12:44:29Z</time>
      </trkpt>
      <trkpt lat="42.89067" lon="-0.20068">
        <ele>1616.5</ele>
        <time>2026-07-15T12:44:30Z</time>
      </trkpt>
      <trkpt lat="42.89067" lon="-0.20069">
        <ele>1616.5</ele>
        <time>2026-07-15T12:44:31Z</time>
      </trkpt>
      <trkpt lat="42.89068" lon="-0.20069">
        <ele>1616.5</ele>
        <time>2026-07-15T12:44:31Z</time>
      </trkpt>
      <trkpt lat="42.89068" lon="-0.2007">
        <ele>1616.5</ele>
        <time>2026-07-15T12:44:32Z</time>
      </trkpt>
      <trkpt lat="42.89069" lon="-0.20071">
        <ele>1616.5</ele>
        <time>2026-07-15T12:44:33Z</time>
      </trkpt>
      <trkpt lat="42.8907" lon="-0.20071">
        <ele>1615.5</ele>
        <time>2026-07-15T12:44:33Z</time>
      </trkpt>
      <trkpt lat="42.8907" lon="-0.20072">
        <ele>1615.5</ele>
        <time>2026-07-15T12:44:34Z</time>
      </trkpt>
      <trkpt lat="42.89071" lon="-0.20072">
        <ele>1615.5</ele>
        <time>2026-07-15T12:44:35Z</time>
      </trkpt>
      <trkpt lat="42.89072" lon="-0.20073">
        <ele>1614.5</ele>
        <time>2026-07-15T12:44:35Z</time>
      </trkpt>
      <trkpt lat="42.89072" lon="-0.20073">
        <ele>1614.5</ele>
        <time>2026-07-15T12:44:36Z</time>
      </trkpt>
      <trkpt lat="42.89073" lon="-0.20074">
        <ele>1614.5</ele>
        <time>2026-07-15T12:44:37Z</time>
      </trkpt>
      <trkpt lat="42.89074" lon="-0.20074">
        <ele>1613.5</ele>
        <time>2026-07-15T12:44:37Z</time>
      </trkpt>
      <trkpt lat="42.89074" lon="-0.20075">
        <ele>1613.5</ele>
        <time>2026-07-15T12:44:37Z</time>
      </trkpt>
      <trkpt lat="42.89075" lon="-0.20075">
        <ele>1613.5</ele>
        <time>2026-07-15T12:44:38Z</time>
      </trkpt>
      <trkpt lat="42.89075" lon="-0.20076">
        <ele>1613.5</ele>
        <time>2026-07-15T12:44:39Z</time>
      </trkpt>
      <trkpt lat="42.89076" lon="-0.20077">
        <ele>1613.5</ele>
        <time>2026-07-15T12:44:39Z</time>
      </trkpt>
      <trkpt lat="42.89076" lon="-0.20077">
        <ele>1613.5</ele>
        <time>2026-07-15T12:44:39Z</time>
      </trkpt>
      <trkpt lat="42.89077" lon="-0.20078">
        <ele>1613.5</ele>
        <time>2026-07-15T12:44:40Z</time>
      </trkpt>
      <trkpt lat="42.89078" lon="-0.20079">
        <ele>1613.5</ele>
        <time>2026-07-15T12:44:41Z</time>
      </trkpt>
      <trkpt lat="42.89078" lon="-0.2008">
        <ele>1612.5</ele>
        <time>2026-07-15T12:44:42Z</time>
      </trkpt>
      <trkpt lat="42.8908" lon="-0.20081">
        <ele>1612.5</ele>
        <time>2026-07-15T12:44:43Z</time>
      </trkpt>
      <trkpt lat="42.89081" lon="-0.20082">
        <ele>1612.5</ele>
        <time>2026-07-15T12:44:44Z</time>
      </trkpt>
      <trkpt lat="42.89082" lon="-0.20082">
        <ele>1612.5</ele>
        <time>2026-07-15T12:44:45Z</time>
      </trkpt>
      <trkpt lat="42.89082" lon="-0.20083">
        <ele>1612.5</ele>
        <time>2026-07-15T12:44:45Z</time>
      </trkpt>
      <trkpt lat="42.89083" lon="-0.20083">
        <ele>1612.5</ele>
        <time>2026-07-15T12:44:46Z</time>
      </trkpt>
      <trkpt lat="42.89084" lon="-0.20084">
        <ele>1611.5</ele>
        <time>2026-07-15T12:44:46Z</time>
      </trkpt>
      <trkpt lat="42.89085" lon="-0.20084">
        <ele>1611.5</ele>
        <time>2026-07-15T12:44:47Z</time>
      </trkpt>
      <trkpt lat="42.89086" lon="-0.20085">
        <ele>1611.5</ele>
        <time>2026-07-15T12:44:48Z</time>
      </trkpt>
      <trkpt lat="42.89087" lon="-0.20086">
        <ele>1611.5</ele>
        <time>2026-07-15T12:44:48Z</time>
      </trkpt>
      <trkpt lat="42.89087" lon="-0.20087">
        <ele>1611.5</ele>
        <time>2026-07-15T12:44:49Z</time>
      </trkpt>
      <trkpt lat="42.89088" lon="-0.20087">
        <ele>1610.5</ele>
        <time>2026-07-15T12:44:50Z</time>
      </trkpt>
      <trkpt lat="42.89089" lon="-0.20088">
        <ele>1610.5</ele>
        <time>2026-07-15T12:44:51Z</time>
      </trkpt>
      <trkpt lat="42.89089" lon="-0.20089">
        <ele>1610.5</ele>
        <time>2026-07-15T12:44:52Z</time>
      </trkpt>
      <trkpt lat="42.89089" lon="-0.20089">
        <ele>1609.5</ele>
        <time>2026-07-15T12:44:52Z</time>
      </trkpt>
      <trkpt lat="42.8909" lon="-0.2009">
        <ele>1608.5</ele>
        <time>2026-07-15T12:44:53Z</time>
      </trkpt>
      <trkpt lat="42.8909" lon="-0.2009">
        <ele>1608.5</ele>
        <time>2026-07-15T12:44:54Z</time>
      </trkpt>
      <trkpt lat="42.89091" lon="-0.2009">
        <ele>1608.5</ele>
        <time>2026-07-15T12:44:54Z</time>
      </trkpt>
      <trkpt lat="42.89091" lon="-0.20091">
        <ele>1608.5</ele>
        <time>2026-07-15T12:44:54Z</time>
      </trkpt>
      <trkpt lat="42.89092" lon="-0.20091">
        <ele>1608.5</ele>
        <time>2026-07-15T12:44:55Z</time>
      </trkpt>
      <trkpt lat="42.89093" lon="-0.20092">
        <ele>1608.5</ele>
        <time>2026-07-15T12:44:56Z</time>
      </trkpt>
      <trkpt lat="42.89093" lon="-0.20092">
        <ele>1607.5</ele>
        <time>2026-07-15T12:44:56Z</time>
      </trkpt>
      <trkpt lat="42.89094" lon="-0.20093">
        <ele>1607.5</ele>
        <time>2026-07-15T12:44:57Z</time>
      </trkpt>
      <trkpt lat="42.89095" lon="-0.20094">
        <ele>1607.5</ele>
        <time>2026-07-15T12:44:58Z</time>
      </trkpt>
      <trkpt lat="42.89095" lon="-0.20094">
        <ele>1607.5</ele>
        <time>2026-07-15T12:44:58Z</time>
      </trkpt>
      <trkpt lat="42.89096" lon="-0.20095">
        <ele>1607.5</ele>
        <time>2026-07-15T12:44:59Z</time>
      </trkpt>
      <trkpt lat="42.89097" lon="-0.20095">
        <ele>1607.5</ele>
        <time>2026-07-15T12:45:00Z</time>
      </trkpt>
      <trkpt lat="42.89098" lon="-0.20096">
        <ele>1608.5</ele>
        <time>2026-07-15T12:45:00Z</time>
      </trkpt>
      <trkpt lat="42.89098" lon="-0.20096">
        <ele>1608.5</ele>
        <time>2026-07-15T12:45:01Z</time>
      </trkpt>
      <trkpt lat="42.89099" lon="-0.20097">
        <ele>1608.5</ele>
        <time>2026-07-15T12:45:02Z</time>
      </trkpt>
      <trkpt lat="42.89099" lon="-0.20098">
        <ele>1608.5</ele>
        <time>2026-07-15T12:45:03Z</time>
      </trkpt>
      <trkpt lat="42.891" lon="-0.201">
        <ele>1608.5</ele>
        <time>2026-07-15T12:45:04Z</time>
      </trkpt>
      <trkpt lat="42.891" lon="-0.20101">
        <ele>1608.5</ele>
        <time>2026-07-15T12:45:05Z</time>
      </trkpt>
      <trkpt lat="42.89101" lon="-0.20103">
        <ele>1607.5</ele>
        <time>2026-07-15T12:45:06Z</time>
      </trkpt>
      <trkpt lat="42.89102" lon="-0.20104">
        <ele>1608.5</ele>
        <time>2026-07-15T12:45:06Z</time>
      </trkpt>
      <trkpt lat="42.89102" lon="-0.20105">
        <ele>1608.5</ele>
        <time>2026-07-15T12:45:07Z</time>
      </trkpt>
      <trkpt lat="42.89103" lon="-0.20105">
        <ele>1607.5</ele>
        <time>2026-07-15T12:45:07Z</time>
      </trkpt>
      <trkpt lat="42.89104" lon="-0.20106">
        <ele>1606.5</ele>
        <time>2026-07-15T12:45:08Z</time>
      </trkpt>
      <trkpt lat="42.89104" lon="-0.20107">
        <ele>1606.5</ele>
        <time>2026-07-15T12:45:09Z</time>
      </trkpt>
      <trkpt lat="42.89105" lon="-0.20107">
        <ele>1605.5</ele>
        <time>2026-07-15T12:45:09Z</time>
      </trkpt>
      <trkpt lat="42.89106" lon="-0.20108">
        <ele>1605.5</ele>
        <time>2026-07-15T12:45:10Z</time>
      </trkpt>
      <trkpt lat="42.89106" lon="-0.20108">
        <ele>1605.5</ele>
        <time>2026-07-15T12:45:11Z</time>
      </trkpt>
      <trkpt lat="42.89107" lon="-0.20108">
        <ele>1606.5</ele>
        <time>2026-07-15T12:45:11Z</time>
      </trkpt>
      <trkpt lat="42.89108" lon="-0.20109">
        <ele>1606.5</ele>
        <time>2026-07-15T12:45:12Z</time>
      </trkpt>
      <trkpt lat="42.89109" lon="-0.20109">
        <ele>1606.5</ele>
        <time>2026-07-15T12:45:13Z</time>
      </trkpt>
      <trkpt lat="42.8911" lon="-0.20109">
        <ele>1606.5</ele>
        <time>2026-07-15T12:45:14Z</time>
      </trkpt>
      <trkpt lat="42.89112" lon="-0.2011">
        <ele>1606.5</ele>
        <time>2026-07-15T12:45:15Z</time>
      </trkpt>
      <trkpt lat="42.89113" lon="-0.2011">
        <ele>1606.5</ele>
        <time>2026-07-15T12:45:16Z</time>
      </trkpt>
      <trkpt lat="42.89114" lon="-0.20111">
        <ele>1606.5</ele>
        <time>2026-07-15T12:45:17Z</time>
      </trkpt>
      <trkpt lat="42.89115" lon="-0.20111">
        <ele>1606.5</ele>
        <time>2026-07-15T12:45:18Z</time>
      </trkpt>
      <trkpt lat="42.89116" lon="-0.20112">
        <ele>1606.5</ele>
        <time>2026-07-15T12:45:18Z</time>
      </trkpt>
      <trkpt lat="42.89116" lon="-0.20112">
        <ele>1606.5</ele>
        <time>2026-07-15T12:45:18Z</time>
      </trkpt>
      <trkpt lat="42.89117" lon="-0.20112">
        <ele>1607.5</ele>
        <time>2026-07-15T12:45:19Z</time>
      </trkpt>
      <trkpt lat="42.89118" lon="-0.20113">
        <ele>1607.5</ele>
        <time>2026-07-15T12:45:20Z</time>
      </trkpt>
      <trkpt lat="42.89118" lon="-0.20113">
        <ele>1607.5</ele>
        <time>2026-07-15T12:45:21Z</time>
      </trkpt>
      <trkpt lat="42.89118" lon="-0.20113">
        <ele>1607.5</ele>
        <time>2026-07-15T12:45:21Z</time>
      </trkpt>
      <trkpt lat="42.89119" lon="-0.20113">
        <ele>1607.5</ele>
        <time>2026-07-15T12:45:22Z</time>
      </trkpt>
      <trkpt lat="42.89119" lon="-0.20113">
        <ele>1607.5</ele>
        <time>2026-07-15T12:45:22Z</time>
      </trkpt>
      <trkpt lat="42.8912" lon="-0.20113">
        <ele>1607.5</ele>
        <time>2026-07-15T12:45:23Z</time>
      </trkpt>
      <trkpt lat="42.8912" lon="-0.20114">
        <ele>1607.5</ele>
        <time>2026-07-15T12:45:23Z</time>
      </trkpt>
      <trkpt lat="42.89121" lon="-0.20114">
        <ele>1607.5</ele>
        <time>2026-07-15T12:45:24Z</time>
      </trkpt>
      <trkpt lat="42.89122" lon="-0.20114">
        <ele>1606.5</ele>
        <time>2026-07-15T12:45:24Z</time>
      </trkpt>
      <trkpt lat="42.89122" lon="-0.20114">
        <ele>1606.5</ele>
        <time>2026-07-15T12:45:25Z</time>
      </trkpt>
      <trkpt lat="42.89123" lon="-0.20115">
        <ele>1606.5</ele>
        <time>2026-07-15T12:45:26Z</time>
      </trkpt>
      <trkpt lat="42.89123" lon="-0.20115">
        <ele>1607.5</ele>
        <time>2026-07-15T12:45:27Z</time>
      </trkpt>
      <trkpt lat="42.89124" lon="-0.20114">
        <ele>1606.5</ele>
        <time>2026-07-15T12:45:27Z</time>
      </trkpt>
      <trkpt lat="42.89124" lon="-0.20114">
        <ele>1606.5</ele>
        <time>2026-07-15T12:45:28Z</time>
      </trkpt>
      <trkpt lat="42.89124" lon="-0.20113">
        <ele>1606.5</ele>
        <time>2026-07-15T12:45:28Z</time>
      </trkpt>
      <trkpt lat="42.89124" lon="-0.20112">
        <ele>1606.5</ele>
        <time>2026-07-15T12:45:29Z</time>
      </trkpt>
      <trkpt lat="42.89124" lon="-0.2011">
        <ele>1605.5</ele>
        <time>2026-07-15T12:45:30Z</time>
      </trkpt>
      <trkpt lat="42.89124" lon="-0.2011">
        <ele>1605.5</ele>
        <time>2026-07-15T12:45:31Z</time>
      </trkpt>
      <trkpt lat="42.89123" lon="-0.20109">
        <ele>1605.5</ele>
        <time>2026-07-15T12:45:32Z</time>
      </trkpt>
      <trkpt lat="42.89123" lon="-0.20109">
        <ele>1604.5</ele>
        <time>2026-07-15T12:45:33Z</time>
      </trkpt>
      <trkpt lat="42.89123" lon="-0.20109">
        <ele>1604.5</ele>
        <time>2026-07-15T12:45:34Z</time>
      </trkpt>
      <trkpt lat="42.89123" lon="-0.20109">
        <ele>1604.5</ele>
        <time>2026-07-15T12:45:35Z</time>
      </trkpt>
      <trkpt lat="42.89123" lon="-0.20109">
        <ele>1604.5</ele>
        <time>2026-07-15T12:45:36Z</time>
      </trkpt>
      <trkpt lat="42.89123" lon="-0.20109">
        <ele>1603.5</ele>
        <time>2026-07-15T12:45:37Z</time>
      </trkpt>
      <trkpt lat="42.89123" lon="-0.20109">
        <ele>1602.5</ele>
        <time>2026-07-15T12:45:38Z</time>
      </trkpt>
      <trkpt lat="42.89123" lon="-0.20109">
        <ele>1602.5</ele>
        <time>2026-07-15T12:45:39Z</time>
      </trkpt>
      <trkpt lat="42.89123" lon="-0.20109">
        <ele>1602.5</ele>
        <time>2026-07-15T12:45:40Z</time>
      </trkpt>
      <trkpt lat="42.89123" lon="-0.20109">
        <ele>1602.5</ele>
        <time>2026-07-15T12:45:41Z</time>
      </trkpt>
      <trkpt lat="42.89123" lon="-0.20109">
        <ele>1602.5</ele>
        <time>2026-07-15T12:45:42Z</time>
      </trkpt>
      <trkpt lat="42.89123" lon="-0.20109">
        <ele>1602.5</ele>
        <time>2026-07-15T12:45:43Z</time>
      </trkpt>
      <trkpt lat="42.89123" lon="-0.20109">
        <ele>1602.5</ele>
        <time>2026-07-15T12:45:44Z</time>
      </trkpt>
      <trkpt lat="42.89123" lon="-0.20109">
        <ele>1602.5</ele>
        <time>2026-07-15T12:45:45Z</time>
      </trkpt>
      <trkpt lat="42.89124" lon="-0.20109">
        <ele>1602.5</ele>
        <time>2026-07-15T12:45:46Z</time>
      </trkpt>
      <trkpt lat="42.89123" lon="-0.20109">
        <ele>1602.5</ele>
        <time>2026-07-15T12:45:47Z</time>
      </trkpt>
      <trkpt lat="42.89123" lon="-0.20109">
        <ele>1602.5</ele>
        <time>2026-07-15T12:45:48Z</time>
      </trkpt>
      <trkpt lat="42.89124" lon="-0.20109">
        <ele>1602.5</ele>
        <time>2026-07-15T12:45:49Z</time>
      </trkpt>
      <trkpt lat="42.89124" lon="-0.20109">
        <ele>1603.5</ele>
        <time>2026-07-15T12:45:50Z</time>
      </trkpt>
      <trkpt lat="42.89124" lon="-0.20109">
        <ele>1604.5</ele>
        <time>2026-07-15T12:45:51Z</time>
      </trkpt>
      <trkpt lat="42.89124" lon="-0.20109">
        <ele>1604.5</ele>
        <time>2026-07-15T12:45:52Z</time>
      </trkpt>
      <trkpt lat="42.89124" lon="-0.20109">
        <ele>1604.5</ele>
        <time>2026-07-15T12:45:53Z</time>
      </trkpt>
      <trkpt lat="42.89124" lon="-0.20109">
        <ele>1604.5</ele>
        <time>2026-07-15T12:45:54Z</time>
      </trkpt>
      <trkpt lat="42.89124" lon="-0.20109">
        <ele>1604.5</ele>
        <time>2026-07-15T12:45:55Z</time>
      </trkpt>
      <trkpt lat="42.89124" lon="-0.20109">
        <ele>1604.5</ele>
        <time>2026-07-15T12:45:56Z</time>
      </trkpt>
      <trkpt lat="42.89124" lon="-0.20109">
        <ele>1604.5</ele>
        <time>2026-07-15T12:45:57Z</time>
      </trkpt>
      <trkpt lat="42.89124" lon="-0.20109">
        <ele>1604.5</ele>
        <time>2026-07-15T12:45:58Z</time>
      </trkpt>
      <trkpt lat="42.89124" lon="-0.20109">
        <ele>1604.5</ele>
        <time>2026-07-15T12:45:59Z</time>
      </trkpt>
      <trkpt lat="42.89124" lon="-0.20109">
        <ele>1604.5</ele>
        <time>2026-07-15T12:46:00Z</time>
      </trkpt>
      <trkpt lat="42.89124" lon="-0.20109">
        <ele>1604.5</ele>
        <time>2026-07-15T12:46:01Z</time>
      </trkpt>
      <trkpt lat="42.89124" lon="-0.2011">
        <ele>1604.5</ele>
        <time>2026-07-15T12:46:01Z</time>
      </trkpt>
      <trkpt lat="42.89124" lon="-0.2011">
        <ele>1604.5</ele>
        <time>2026-07-15T12:46:02Z</time>
      </trkpt>
      <trkpt lat="42.89124" lon="-0.2011">
        <ele>1604.5</ele>
        <time>2026-07-15T12:46:03Z</time>
      </trkpt>
      <trkpt lat="42.89124" lon="-0.2011">
        <ele>1604.5</ele>
        <time>2026-07-15T12:46:04Z</time>
      </trkpt>
      <trkpt lat="42.89125" lon="-0.20111">
        <ele>1604.5</ele>
        <time>2026-07-15T12:46:05Z</time>
      </trkpt>
      <trkpt lat="42.89125" lon="-0.20112">
        <ele>1604.5</ele>
        <time>2026-07-15T12:46:06Z</time>
      </trkpt>
      <trkpt lat="42.89125" lon="-0.20114">
        <ele>1604.5</ele>
        <time>2026-07-15T12:46:07Z</time>
      </trkpt>
      <trkpt lat="42.89125" lon="-0.20115">
        <ele>1604.5</ele>
        <time>2026-07-15T12:46:07Z</time>
      </trkpt>
      <trkpt lat="42.89126" lon="-0.20116">
        <ele>1604.5</ele>
        <time>2026-07-15T12:46:08Z</time>
      </trkpt>
      <trkpt lat="42.89126" lon="-0.20117">
        <ele>1603.5</ele>
        <time>2026-07-15T12:46:08Z</time>
      </trkpt>
      <trkpt lat="42.89126" lon="-0.20118">
        <ele>1603.5</ele>
        <time>2026-07-15T12:46:09Z</time>
      </trkpt>
      <trkpt lat="42.89127" lon="-0.20119">
        <ele>1602.5</ele>
        <time>2026-07-15T12:46:10Z</time>
      </trkpt>
      <trkpt lat="42.89128" lon="-0.2012">
        <ele>1603.5</ele>
        <time>2026-07-15T12:46:11Z</time>
      </trkpt>
      <trkpt lat="42.8913" lon="-0.2012">
        <ele>1602.5</ele>
        <time>2026-07-15T12:46:12Z</time>
      </trkpt>
      <trkpt lat="42.89131" lon="-0.2012">
        <ele>1602.5</ele>
        <time>2026-07-15T12:46:13Z</time>
      </trkpt>
      <trkpt lat="42.89132" lon="-0.20121">
        <ele>1602.5</ele>
        <time>2026-07-15T12:46:14Z</time>
      </trkpt>
      <trkpt lat="42.89132" lon="-0.20121">
        <ele>1602.5</ele>
        <time>2026-07-15T12:46:14Z</time>
      </trkpt>
      <trkpt lat="42.89132" lon="-0.20122">
        <ele>1602.5</ele>
        <time>2026-07-15T12:46:15Z</time>
      </trkpt>
      <trkpt lat="42.89133" lon="-0.20122">
        <ele>1603.5</ele>
        <time>2026-07-15T12:46:15Z</time>
      </trkpt>
      <trkpt lat="42.89133" lon="-0.20122">
        <ele>1603.5</ele>
        <time>2026-07-15T12:46:15Z</time>
      </trkpt>
      <trkpt lat="42.89133" lon="-0.20123">
        <ele>1602.5</ele>
        <time>2026-07-15T12:46:16Z</time>
      </trkpt>
      <trkpt lat="42.89134" lon="-0.20123">
        <ele>1602.5</ele>
        <time>2026-07-15T12:46:17Z</time>
      </trkpt>
      <trkpt lat="42.89134" lon="-0.20124">
        <ele>1601.5</ele>
        <time>2026-07-15T12:46:17Z</time>
      </trkpt>
      <trkpt lat="42.89135" lon="-0.20125">
        <ele>1601.5</ele>
        <time>2026-07-15T12:46:18Z</time>
      </trkpt>
      <trkpt lat="42.89135" lon="-0.20125">
        <ele>1601.5</ele>
        <time>2026-07-15T12:46:19Z</time>
      </trkpt>
      <trkpt lat="42.89135" lon="-0.20126">
        <ele>1601.5</ele>
        <time>2026-07-15T12:46:19Z</time>
      </trkpt>
      <trkpt lat="42.89135" lon="-0.20127">
        <ele>1601.5</ele>
        <time>2026-07-15T12:46:20Z</time>
      </trkpt>
      <trkpt lat="42.89135" lon="-0.20128">
        <ele>1601.5</ele>
        <time>2026-07-15T12:46:20Z</time>
      </trkpt>
      <trkpt lat="42.89136" lon="-0.20128">
        <ele>1601.5</ele>
        <time>2026-07-15T12:46:21Z</time>
      </trkpt>
      <trkpt lat="42.89137" lon="-0.20129">
        <ele>1601.5</ele>
        <time>2026-07-15T12:46:22Z</time>
      </trkpt>
      <trkpt lat="42.89137" lon="-0.20129">
        <ele>1601.5</ele>
        <time>2026-07-15T12:46:22Z</time>
      </trkpt>
      <trkpt lat="42.89138" lon="-0.2013">
        <ele>1600.5</ele>
        <time>2026-07-15T12:46:23Z</time>
      </trkpt>
      <trkpt lat="42.89139" lon="-0.2013">
        <ele>1600.5</ele>
        <time>2026-07-15T12:46:24Z</time>
      </trkpt>
      <trkpt lat="42.8914" lon="-0.20131">
        <ele>1601.5</ele>
        <time>2026-07-15T12:46:24Z</time>
      </trkpt>
      <trkpt lat="42.89141" lon="-0.20132">
        <ele>1601.5</ele>
        <time>2026-07-15T12:46:25Z</time>
      </trkpt>
      <trkpt lat="42.89142" lon="-0.20133">
        <ele>1601.5</ele>
        <time>2026-07-15T12:46:26Z</time>
      </trkpt>
      <trkpt lat="42.89143" lon="-0.20133">
        <ele>1601.5</ele>
        <time>2026-07-15T12:46:27Z</time>
      </trkpt>
      <trkpt lat="42.89144" lon="-0.20134">
        <ele>1600.5</ele>
        <time>2026-07-15T12:46:28Z</time>
      </trkpt>
      <trkpt lat="42.89145" lon="-0.20135">
        <ele>1601.5</ele>
        <time>2026-07-15T12:46:29Z</time>
      </trkpt>
      <trkpt lat="42.89146" lon="-0.20135">
        <ele>1600.5</ele>
        <time>2026-07-15T12:46:29Z</time>
      </trkpt>
      <trkpt lat="42.89146" lon="-0.20136">
        <ele>1600.5</ele>
        <time>2026-07-15T12:46:30Z</time>
      </trkpt>
      <trkpt lat="42.89147" lon="-0.20137">
        <ele>1600.5</ele>
        <time>2026-07-15T12:46:31Z</time>
      </trkpt>
      <trkpt lat="42.89149" lon="-0.20137">
        <ele>1600.5</ele>
        <time>2026-07-15T12:46:32Z</time>
      </trkpt>
      <trkpt lat="42.8915" lon="-0.20137">
        <ele>1599.5</ele>
        <time>2026-07-15T12:46:33Z</time>
      </trkpt>
      <trkpt lat="42.89151" lon="-0.20137">
        <ele>1599.5</ele>
        <time>2026-07-15T12:46:34Z</time>
      </trkpt>
      <trkpt lat="42.89151" lon="-0.20138">
        <ele>1599.5</ele>
        <time>2026-07-15T12:46:34Z</time>
      </trkpt>
      <trkpt lat="42.89152" lon="-0.20138">
        <ele>1599.5</ele>
        <time>2026-07-15T12:46:35Z</time>
      </trkpt>
      <trkpt lat="42.89152" lon="-0.20138">
        <ele>1600.5</ele>
        <time>2026-07-15T12:46:36Z</time>
      </trkpt>
      <trkpt lat="42.89152" lon="-0.20139">
        <ele>1600.5</ele>
        <time>2026-07-15T12:46:36Z</time>
      </trkpt>
      <trkpt lat="42.89152" lon="-0.2014">
        <ele>1600.5</ele>
        <time>2026-07-15T12:46:37Z</time>
      </trkpt>
      <trkpt lat="42.89152" lon="-0.2014">
        <ele>1600.5</ele>
        <time>2026-07-15T12:46:37Z</time>
      </trkpt>
      <trkpt lat="42.89152" lon="-0.20141">
        <ele>1599.5</ele>
        <time>2026-07-15T12:46:38Z</time>
      </trkpt>
      <trkpt lat="42.89152" lon="-0.20141">
        <ele>1599.5</ele>
        <time>2026-07-15T12:46:38Z</time>
      </trkpt>
      <trkpt lat="42.89153" lon="-0.20142">
        <ele>1599.5</ele>
        <time>2026-07-15T12:46:39Z</time>
      </trkpt>
      <trkpt lat="42.89153" lon="-0.20142">
        <ele>1599.5</ele>
        <time>2026-07-15T12:46:40Z</time>
      </trkpt>
      <trkpt lat="42.89154" lon="-0.20142">
        <ele>1598.5</ele>
        <time>2026-07-15T12:46:40Z</time>
      </trkpt>
      <trkpt lat="42.89154" lon="-0.20143">
        <ele>1598.5</ele>
        <time>2026-07-15T12:46:41Z</time>
      </trkpt>
      <trkpt lat="42.89155" lon="-0.20143">
        <ele>1599.5</ele>
        <time>2026-07-15T12:46:42Z</time>
      </trkpt>
      <trkpt lat="42.89156" lon="-0.20144">
        <ele>1599.5</ele>
        <time>2026-07-15T12:46:43Z</time>
      </trkpt>
      <trkpt lat="42.89157" lon="-0.20145">
        <ele>1600.5</ele>
        <time>2026-07-15T12:46:43Z</time>
      </trkpt>
      <trkpt lat="42.89157" lon="-0.20145">
        <ele>1600.5</ele>
        <time>2026-07-15T12:46:43Z</time>
      </trkpt>
      <trkpt lat="42.89158" lon="-0.20146">
        <ele>1600.5</ele>
        <time>2026-07-15T12:46:44Z</time>
      </trkpt>
      <trkpt lat="42.89158" lon="-0.20146">
        <ele>1600.5</ele>
        <time>2026-07-15T12:46:45Z</time>
      </trkpt>
      <trkpt lat="42.89159" lon="-0.20147">
        <ele>1600.5</ele>
        <time>2026-07-15T12:46:45Z</time>
      </trkpt>
      <trkpt lat="42.89159" lon="-0.20148">
        <ele>1600.5</ele>
        <time>2026-07-15T12:46:46Z</time>
      </trkpt>
      <trkpt lat="42.8916" lon="-0.20148">
        <ele>1600.5</ele>
        <time>2026-07-15T12:46:46Z</time>
      </trkpt>
      <trkpt lat="42.8916" lon="-0.20149">
        <ele>1600.5</ele>
        <time>2026-07-15T12:46:47Z</time>
      </trkpt>
      <trkpt lat="42.89161" lon="-0.20149">
        <ele>1600.5</ele>
        <time>2026-07-15T12:46:47Z</time>
      </trkpt>
      <trkpt lat="42.89161" lon="-0.20149">
        <ele>1599.5</ele>
        <time>2026-07-15T12:46:48Z</time>
      </trkpt>
      <trkpt lat="42.89161" lon="-0.2015">
        <ele>1598.5</ele>
        <time>2026-07-15T12:46:48Z</time>
      </trkpt>
      <trkpt lat="42.89162" lon="-0.2015">
        <ele>1598.5</ele>
        <time>2026-07-15T12:46:49Z</time>
      </trkpt>
      <trkpt lat="42.89162" lon="-0.2015">
        <ele>1598.5</ele>
        <time>2026-07-15T12:46:49Z</time>
      </trkpt>
      <trkpt lat="42.89163" lon="-0.20151">
        <ele>1598.5</ele>
        <time>2026-07-15T12:46:50Z</time>
      </trkpt>
      <trkpt lat="42.89164" lon="-0.20151">
        <ele>1598.5</ele>
        <time>2026-07-15T12:46:51Z</time>
      </trkpt>
      <trkpt lat="42.89164" lon="-0.20152">
        <ele>1598.5</ele>
        <time>2026-07-15T12:46:51Z</time>
      </trkpt>
      <trkpt lat="42.89165" lon="-0.20153">
        <ele>1598.5</ele>
        <time>2026-07-15T12:46:52Z</time>
      </trkpt>
      <trkpt lat="42.89166" lon="-0.20154">
        <ele>1597.5</ele>
        <time>2026-07-15T12:46:53Z</time>
      </trkpt>
      <trkpt lat="42.89167" lon="-0.20155">
        <ele>1597.5</ele>
        <time>2026-07-15T12:46:54Z</time>
      </trkpt>
      <trkpt lat="42.89168" lon="-0.20155">
        <ele>1597.5</ele>
        <time>2026-07-15T12:46:55Z</time>
      </trkpt>
      <trkpt lat="42.89169" lon="-0.20155">
        <ele>1597.5</ele>
        <time>2026-07-15T12:46:55Z</time>
      </trkpt>
      <trkpt lat="42.8917" lon="-0.20156">
        <ele>1597.5</ele>
        <time>2026-07-15T12:46:56Z</time>
      </trkpt>
      <trkpt lat="42.8917" lon="-0.20156">
        <ele>1596.5</ele>
        <time>2026-07-15T12:46:56Z</time>
      </trkpt>
      <trkpt lat="42.89171" lon="-0.20156">
        <ele>1596.5</ele>
        <time>2026-07-15T12:46:57Z</time>
      </trkpt>
      <trkpt lat="42.89172" lon="-0.20157">
        <ele>1596.5</ele>
        <time>2026-07-15T12:46:58Z</time>
      </trkpt>
      <trkpt lat="42.89173" lon="-0.20157">
        <ele>1596.5</ele>
        <time>2026-07-15T12:46:58Z</time>
      </trkpt>
      <trkpt lat="42.89173" lon="-0.20157">
        <ele>1596.5</ele>
        <time>2026-07-15T12:46:59Z</time>
      </trkpt>
      <trkpt lat="42.89174" lon="-0.20158">
        <ele>1595.5</ele>
        <time>2026-07-15T12:46:59Z</time>
      </trkpt>
      <trkpt lat="42.89174" lon="-0.20158">
        <ele>1595.5</ele>
        <time>2026-07-15T12:47:00Z</time>
      </trkpt>
      <trkpt lat="42.89176" lon="-0.20159">
        <ele>1595.5</ele>
        <time>2026-07-15T12:47:01Z</time>
      </trkpt>
      <trkpt lat="42.89176" lon="-0.20159">
        <ele>1595.5</ele>
        <time>2026-07-15T12:47:01Z</time>
      </trkpt>
      <trkpt lat="42.89177" lon="-0.2016">
        <ele>1595.5</ele>
        <time>2026-07-15T12:47:02Z</time>
      </trkpt>
      <trkpt lat="42.89178" lon="-0.2016">
        <ele>1595.5</ele>
        <time>2026-07-15T12:47:03Z</time>
      </trkpt>
      <trkpt lat="42.89179" lon="-0.20161">
        <ele>1596.5</ele>
        <time>2026-07-15T12:47:04Z</time>
      </trkpt>
      <trkpt lat="42.8918" lon="-0.20162">
        <ele>1595.5</ele>
        <time>2026-07-15T12:47:05Z</time>
      </trkpt>
      <trkpt lat="42.89181" lon="-0.20162">
        <ele>1595.5</ele>
        <time>2026-07-15T12:47:05Z</time>
      </trkpt>
      <trkpt lat="42.89181" lon="-0.20162">
        <ele>1594.5</ele>
        <time>2026-07-15T12:47:06Z</time>
      </trkpt>
      <trkpt lat="42.89182" lon="-0.20163">
        <ele>1594.5</ele>
        <time>2026-07-15T12:47:07Z</time>
      </trkpt>
      <trkpt lat="42.89182" lon="-0.20164">
        <ele>1594.5</ele>
        <time>2026-07-15T12:47:07Z</time>
      </trkpt>
      <trkpt lat="42.89183" lon="-0.20164">
        <ele>1594.5</ele>
        <time>2026-07-15T12:47:08Z</time>
      </trkpt>
      <trkpt lat="42.89184" lon="-0.20165">
        <ele>1594.5</ele>
        <time>2026-07-15T12:47:09Z</time>
      </trkpt>
      <trkpt lat="42.89184" lon="-0.20165">
        <ele>1594.5</ele>
        <time>2026-07-15T12:47:09Z</time>
      </trkpt>
      <trkpt lat="42.89185" lon="-0.20166">
        <ele>1594.5</ele>
        <time>2026-07-15T12:47:10Z</time>
      </trkpt>
      <trkpt lat="42.89186" lon="-0.20166">
        <ele>1593.5</ele>
        <time>2026-07-15T12:47:10Z</time>
      </trkpt>
      <trkpt lat="42.89186" lon="-0.20166">
        <ele>1593.5</ele>
        <time>2026-07-15T12:47:11Z</time>
      </trkpt>
      <trkpt lat="42.89187" lon="-0.20167">
        <ele>1593.5</ele>
        <time>2026-07-15T12:47:12Z</time>
      </trkpt>
      <trkpt lat="42.89189" lon="-0.20167">
        <ele>1592.5</ele>
        <time>2026-07-15T12:47:13Z</time>
      </trkpt>
      <trkpt lat="42.89189" lon="-0.20167">
        <ele>1592.5</ele>
        <time>2026-07-15T12:47:14Z</time>
      </trkpt>
      <trkpt lat="42.89189" lon="-0.20167">
        <ele>1592.5</ele>
        <time>2026-07-15T12:47:14Z</time>
      </trkpt>
      <trkpt lat="42.8919" lon="-0.20168">
        <ele>1592.5</ele>
        <time>2026-07-15T12:47:15Z</time>
      </trkpt>
      <trkpt lat="42.89191" lon="-0.20168">
        <ele>1591.5</ele>
        <time>2026-07-15T12:47:16Z</time>
      </trkpt>
      <trkpt lat="42.89192" lon="-0.20169">
        <ele>1592.5</ele>
        <time>2026-07-15T12:47:17Z</time>
      </trkpt>
      <trkpt lat="42.89193" lon="-0.20169">
        <ele>1592.5</ele>
        <time>2026-07-15T12:47:18Z</time>
      </trkpt>
      <trkpt lat="42.89193" lon="-0.2017">
        <ele>1591.5</ele>
        <time>2026-07-15T12:47:18Z</time>
      </trkpt>
      <trkpt lat="42.89194" lon="-0.20171">
        <ele>1591.5</ele>
        <time>2026-07-15T12:47:19Z</time>
      </trkpt>
      <trkpt lat="42.89195" lon="-0.20171">
        <ele>1591.5</ele>
        <time>2026-07-15T12:47:20Z</time>
      </trkpt>
      <trkpt lat="42.89196" lon="-0.20172">
        <ele>1591.5</ele>
        <time>2026-07-15T12:47:21Z</time>
      </trkpt>
      <trkpt lat="42.89197" lon="-0.20172">
        <ele>1590.5</ele>
        <time>2026-07-15T12:47:22Z</time>
      </trkpt>
      <trkpt lat="42.89198" lon="-0.20173">
        <ele>1590.5</ele>
        <time>2026-07-15T12:47:22Z</time>
      </trkpt>
      <trkpt lat="42.89199" lon="-0.20173">
        <ele>1590.5</ele>
        <time>2026-07-15T12:47:23Z</time>
      </trkpt>
      <trkpt lat="42.892" lon="-0.20174">
        <ele>1591.5</ele>
        <time>2026-07-15T12:47:24Z</time>
      </trkpt>
      <trkpt lat="42.892" lon="-0.20174">
        <ele>1590.5</ele>
        <time>2026-07-15T12:47:25Z</time>
      </trkpt>
      <trkpt lat="42.89201" lon="-0.20175">
        <ele>1590.5</ele>
        <time>2026-07-15T12:47:25Z</time>
      </trkpt>
      <trkpt lat="42.89201" lon="-0.20175">
        <ele>1590.5</ele>
        <time>2026-07-15T12:47:26Z</time>
      </trkpt>
      <trkpt lat="42.89202" lon="-0.20175">
        <ele>1590.5</ele>
        <time>2026-07-15T12:47:26Z</time>
      </trkpt>
      <trkpt lat="42.89202" lon="-0.20175">
        <ele>1590.5</ele>
        <time>2026-07-15T12:47:27Z</time>
      </trkpt>
      <trkpt lat="42.89203" lon="-0.20175">
        <ele>1589.5</ele>
        <time>2026-07-15T12:47:28Z</time>
      </trkpt>
      <trkpt lat="42.89204" lon="-0.20175">
        <ele>1589.5</ele>
        <time>2026-07-15T12:47:29Z</time>
      </trkpt>
      <trkpt lat="42.89204" lon="-0.20175">
        <ele>1590.5</ele>
        <time>2026-07-15T12:47:29Z</time>
      </trkpt>
      <trkpt lat="42.89205" lon="-0.20176">
        <ele>1590.5</ele>
        <time>2026-07-15T12:47:30Z</time>
      </trkpt>
      <trkpt lat="42.89205" lon="-0.20176">
        <ele>1590.5</ele>
        <time>2026-07-15T12:47:30Z</time>
      </trkpt>
      <trkpt lat="42.89206" lon="-0.20176">
        <ele>1590.5</ele>
        <time>2026-07-15T12:47:31Z</time>
      </trkpt>
      <trkpt lat="42.89207" lon="-0.20175">
        <ele>1590.5</ele>
        <time>2026-07-15T12:47:31Z</time>
      </trkpt>
      <trkpt lat="42.89207" lon="-0.20176">
        <ele>1590.5</ele>
        <time>2026-07-15T12:47:32Z</time>
      </trkpt>
      <trkpt lat="42.89208" lon="-0.20175">
        <ele>1590.5</ele>
        <time>2026-07-15T12:47:32Z</time>
      </trkpt>
      <trkpt lat="42.89209" lon="-0.20175">
        <ele>1589.5</ele>
        <time>2026-07-15T12:47:33Z</time>
      </trkpt>
      <trkpt lat="42.8921" lon="-0.20175">
        <ele>1589.5</ele>
        <time>2026-07-15T12:47:34Z</time>
      </trkpt>
      <trkpt lat="42.89211" lon="-0.20176">
        <ele>1589.5</ele>
        <time>2026-07-15T12:47:34Z</time>
      </trkpt>
      <trkpt lat="42.89211" lon="-0.20176">
        <ele>1589.5</ele>
        <time>2026-07-15T12:47:35Z</time>
      </trkpt>
      <trkpt lat="42.89212" lon="-0.20176">
        <ele>1589.5</ele>
        <time>2026-07-15T12:47:35Z</time>
      </trkpt>
      <trkpt lat="42.89212" lon="-0.20176">
        <ele>1589.5</ele>
        <time>2026-07-15T12:47:36Z</time>
      </trkpt>
      <trkpt lat="42.89213" lon="-0.20177">
        <ele>1590.5</ele>
        <time>2026-07-15T12:47:36Z</time>
      </trkpt>
      <trkpt lat="42.89214" lon="-0.20178">
        <ele>1591.5</ele>
        <time>2026-07-15T12:47:37Z</time>
      </trkpt>
      <trkpt lat="42.89215" lon="-0.20178">
        <ele>1591.5</ele>
        <time>2026-07-15T12:47:38Z</time>
      </trkpt>
      <trkpt lat="42.89215" lon="-0.20178">
        <ele>1591.5</ele>
        <time>2026-07-15T12:47:38Z</time>
      </trkpt>
      <trkpt lat="42.89216" lon="-0.20179">
        <ele>1590.5</ele>
        <time>2026-07-15T12:47:39Z</time>
      </trkpt>
      <trkpt lat="42.89217" lon="-0.20179">
        <ele>1590.5</ele>
        <time>2026-07-15T12:47:40Z</time>
      </trkpt>
      <trkpt lat="42.89217" lon="-0.20179">
        <ele>1590.5</ele>
        <time>2026-07-15T12:47:40Z</time>
      </trkpt>
      <trkpt lat="42.89218" lon="-0.20179">
        <ele>1590.5</ele>
        <time>2026-07-15T12:47:41Z</time>
      </trkpt>
      <trkpt lat="42.89219" lon="-0.2018">
        <ele>1590.5</ele>
        <time>2026-07-15T12:47:42Z</time>
      </trkpt>
      <trkpt lat="42.89219" lon="-0.2018">
        <ele>1590.5</ele>
        <time>2026-07-15T12:47:42Z</time>
      </trkpt>
      <trkpt lat="42.8922" lon="-0.2018">
        <ele>1590.5</ele>
        <time>2026-07-15T12:47:43Z</time>
      </trkpt>
      <trkpt lat="42.8922" lon="-0.2018">
        <ele>1590.5</ele>
        <time>2026-07-15T12:47:44Z</time>
      </trkpt>
      <trkpt lat="42.89221" lon="-0.20181">
        <ele>1590.5</ele>
        <time>2026-07-15T12:47:44Z</time>
      </trkpt>
      <trkpt lat="42.89222" lon="-0.20181">
        <ele>1590.5</ele>
        <time>2026-07-15T12:47:45Z</time>
      </trkpt>
      <trkpt lat="42.89222" lon="-0.20181">
        <ele>1589.5</ele>
        <time>2026-07-15T12:47:45Z</time>
      </trkpt>
      <trkpt lat="42.89223" lon="-0.20181">
        <ele>1589.5</ele>
        <time>2026-07-15T12:47:46Z</time>
      </trkpt>
      <trkpt lat="42.89223" lon="-0.20181">
        <ele>1589.5</ele>
        <time>2026-07-15T12:47:47Z</time>
      </trkpt>
      <trkpt lat="42.89224" lon="-0.20182">
        <ele>1589.5</ele>
        <time>2026-07-15T12:47:47Z</time>
      </trkpt>
      <trkpt lat="42.89224" lon="-0.20183">
        <ele>1589.5</ele>
        <time>2026-07-15T12:47:48Z</time>
      </trkpt>
      <trkpt lat="42.89225" lon="-0.20184">
        <ele>1588.5</ele>
        <time>2026-07-15T12:47:48Z</time>
      </trkpt>
      <trkpt lat="42.89225" lon="-0.20184">
        <ele>1588.5</ele>
        <time>2026-07-15T12:47:49Z</time>
      </trkpt>
      <trkpt lat="42.89225" lon="-0.20185">
        <ele>1588.5</ele>
        <time>2026-07-15T12:47:50Z</time>
      </trkpt>
      <trkpt lat="42.89226" lon="-0.20186">
        <ele>1588.5</ele>
        <time>2026-07-15T12:47:51Z</time>
      </trkpt>
      <trkpt lat="42.89226" lon="-0.20186">
        <ele>1588.5</ele>
        <time>2026-07-15T12:47:51Z</time>
      </trkpt>
      <trkpt lat="42.89227" lon="-0.20187">
        <ele>1588.5</ele>
        <time>2026-07-15T12:47:52Z</time>
      </trkpt>
      <trkpt lat="42.89228" lon="-0.20187">
        <ele>1588.5</ele>
        <time>2026-07-15T12:47:53Z</time>
      </trkpt>
      <trkpt lat="42.89229" lon="-0.20188">
        <ele>1588.5</ele>
        <time>2026-07-15T12:47:54Z</time>
      </trkpt>
      <trkpt lat="42.8923" lon="-0.20188">
        <ele>1587.5</ele>
        <time>2026-07-15T12:47:55Z</time>
      </trkpt>
      <trkpt lat="42.89232" lon="-0.20188">
        <ele>1587.5</ele>
        <time>2026-07-15T12:47:56Z</time>
      </trkpt>
      <trkpt lat="42.89233" lon="-0.20188">
        <ele>1587.5</ele>
        <time>2026-07-15T12:47:57Z</time>
      </trkpt>
      <trkpt lat="42.89233" lon="-0.20188">
        <ele>1587.5</ele>
        <time>2026-07-15T12:47:57Z</time>
      </trkpt>
      <trkpt lat="42.89234" lon="-0.20188">
        <ele>1587.5</ele>
        <time>2026-07-15T12:47:58Z</time>
      </trkpt>
      <trkpt lat="42.89234" lon="-0.20189">
        <ele>1587.5</ele>
        <time>2026-07-15T12:47:59Z</time>
      </trkpt>
      <trkpt lat="42.89235" lon="-0.20189">
        <ele>1587.5</ele>
        <time>2026-07-15T12:47:59Z</time>
      </trkpt>
      <trkpt lat="42.89236" lon="-0.20189">
        <ele>1587.5</ele>
        <time>2026-07-15T12:48:00Z</time>
      </trkpt>
      <trkpt lat="42.89236" lon="-0.20189">
        <ele>1587.5</ele>
        <time>2026-07-15T12:48:00Z</time>
      </trkpt>
      <trkpt lat="42.89237" lon="-0.2019">
        <ele>1587.5</ele>
        <time>2026-07-15T12:48:01Z</time>
      </trkpt>
      <trkpt lat="42.89237" lon="-0.2019">
        <ele>1587.5</ele>
        <time>2026-07-15T12:48:01Z</time>
      </trkpt>
      <trkpt lat="42.89238" lon="-0.2019">
        <ele>1587.5</ele>
        <time>2026-07-15T12:48:02Z</time>
      </trkpt>
      <trkpt lat="42.89239" lon="-0.2019">
        <ele>1586.5</ele>
        <time>2026-07-15T12:48:02Z</time>
      </trkpt>
      <trkpt lat="42.89239" lon="-0.2019">
        <ele>1586.5</ele>
        <time>2026-07-15T12:48:03Z</time>
      </trkpt>
      <trkpt lat="42.8924" lon="-0.2019">
        <ele>1586.5</ele>
        <time>2026-07-15T12:48:04Z</time>
      </trkpt>
      <trkpt lat="42.8924" lon="-0.2019">
        <ele>1586.5</ele>
        <time>2026-07-15T12:48:04Z</time>
      </trkpt>
      <trkpt lat="42.89241" lon="-0.2019">
        <ele>1586.5</ele>
        <time>2026-07-15T12:48:05Z</time>
      </trkpt>
      <trkpt lat="42.89241" lon="-0.2019">
        <ele>1586.5</ele>
        <time>2026-07-15T12:48:05Z</time>
      </trkpt>
      <trkpt lat="42.89242" lon="-0.2019">
        <ele>1586.5</ele>
        <time>2026-07-15T12:48:06Z</time>
      </trkpt>
      <trkpt lat="42.89242" lon="-0.2019">
        <ele>1586.5</ele>
        <time>2026-07-15T12:48:06Z</time>
      </trkpt>
      <trkpt lat="42.89243" lon="-0.2019">
        <ele>1586.5</ele>
        <time>2026-07-15T12:48:07Z</time>
      </trkpt>
      <trkpt lat="42.89243" lon="-0.2019">
        <ele>1586.5</ele>
        <time>2026-07-15T12:48:07Z</time>
      </trkpt>
      <trkpt lat="42.89243" lon="-0.2019">
        <ele>1586.5</ele>
        <time>2026-07-15T12:48:08Z</time>
      </trkpt>
      <trkpt lat="42.89244" lon="-0.20191">
        <ele>1586.5</ele>
        <time>2026-07-15T12:48:08Z</time>
      </trkpt>
      <trkpt lat="42.89244" lon="-0.20191">
        <ele>1586.5</ele>
        <time>2026-07-15T12:48:09Z</time>
      </trkpt>
      <trkpt lat="42.89244" lon="-0.20191">
        <ele>1586.5</ele>
        <time>2026-07-15T12:48:09Z</time>
      </trkpt>
      <trkpt lat="42.89245" lon="-0.20191">
        <ele>1586.5</ele>
        <time>2026-07-15T12:48:10Z</time>
      </trkpt>
      <trkpt lat="42.89245" lon="-0.20192">
        <ele>1586.5</ele>
        <time>2026-07-15T12:48:11Z</time>
      </trkpt>
      <trkpt lat="42.89245" lon="-0.20192">
        <ele>1585.5</ele>
        <time>2026-07-15T12:48:11Z</time>
      </trkpt>
      <trkpt lat="42.89246" lon="-0.20192">
        <ele>1585.5</ele>
        <time>2026-07-15T12:48:12Z</time>
      </trkpt>
      <trkpt lat="42.89246" lon="-0.20192">
        <ele>1585.5</ele>
        <time>2026-07-15T12:48:12Z</time>
      </trkpt>
      <trkpt lat="42.89247" lon="-0.20193">
        <ele>1584.5</ele>
        <time>2026-07-15T12:48:13Z</time>
      </trkpt>
      <trkpt lat="42.89248" lon="-0.20193">
        <ele>1584.5</ele>
        <time>2026-07-15T12:48:14Z</time>
      </trkpt>
      <trkpt lat="42.89248" lon="-0.20192">
        <ele>1584.5</ele>
        <time>2026-07-15T12:48:14Z</time>
      </trkpt>
      <trkpt lat="42.89249" lon="-0.20192">
        <ele>1584.5</ele>
        <time>2026-07-15T12:48:15Z</time>
      </trkpt>
      <trkpt lat="42.89249" lon="-0.20192">
        <ele>1584.5</ele>
        <time>2026-07-15T12:48:15Z</time>
      </trkpt>
      <trkpt lat="42.8925" lon="-0.20192">
        <ele>1584.5</ele>
        <time>2026-07-15T12:48:16Z</time>
      </trkpt>
      <trkpt lat="42.8925" lon="-0.20193">
        <ele>1583.5</ele>
        <time>2026-07-15T12:48:16Z</time>
      </trkpt>
      <trkpt lat="42.89251" lon="-0.20193">
        <ele>1583.5</ele>
        <time>2026-07-15T12:48:17Z</time>
      </trkpt>
      <trkpt lat="42.89251" lon="-0.20193">
        <ele>1583.5</ele>
        <time>2026-07-15T12:48:18Z</time>
      </trkpt>
      <trkpt lat="42.89251" lon="-0.20193">
        <ele>1583.5</ele>
        <time>2026-07-15T12:48:19Z</time>
      </trkpt>
      <trkpt lat="42.89252" lon="-0.20194">
        <ele>1582.5</ele>
        <time>2026-07-15T12:48:20Z</time>
      </trkpt>
      <trkpt lat="42.89253" lon="-0.20194">
        <ele>1581.5</ele>
        <time>2026-07-15T12:48:21Z</time>
      </trkpt>
      <trkpt lat="42.89254" lon="-0.20195">
        <ele>1582.5</ele>
        <time>2026-07-15T12:48:22Z</time>
      </trkpt>
      <trkpt lat="42.89255" lon="-0.20195">
        <ele>1581.5</ele>
        <time>2026-07-15T12:48:23Z</time>
      </trkpt>
      <trkpt lat="42.89256" lon="-0.20195">
        <ele>1581.5</ele>
        <time>2026-07-15T12:48:23Z</time>
      </trkpt>
      <trkpt lat="42.89256" lon="-0.20195">
        <ele>1580.5</ele>
        <time>2026-07-15T12:48:24Z</time>
      </trkpt>
      <trkpt lat="42.89256" lon="-0.20195">
        <ele>1580.5</ele>
        <time>2026-07-15T12:48:24Z</time>
      </trkpt>
      <trkpt lat="42.89257" lon="-0.20196">
        <ele>1580.5</ele>
        <time>2026-07-15T12:48:25Z</time>
      </trkpt>
      <trkpt lat="42.89258" lon="-0.20196">
        <ele>1580.5</ele>
        <time>2026-07-15T12:48:26Z</time>
      </trkpt>
      <trkpt lat="42.89258" lon="-0.20197">
        <ele>1580.5</ele>
        <time>2026-07-15T12:48:26Z</time>
      </trkpt>
      <trkpt lat="42.89259" lon="-0.20197">
        <ele>1580.5</ele>
        <time>2026-07-15T12:48:27Z</time>
      </trkpt>
      <trkpt lat="42.89259" lon="-0.20197">
        <ele>1580.5</ele>
        <time>2026-07-15T12:48:27Z</time>
      </trkpt>
      <trkpt lat="42.8926" lon="-0.20198">
        <ele>1580.5</ele>
        <time>2026-07-15T12:48:28Z</time>
      </trkpt>
      <trkpt lat="42.8926" lon="-0.20198">
        <ele>1580.5</ele>
        <time>2026-07-15T12:48:28Z</time>
      </trkpt>
      <trkpt lat="42.89261" lon="-0.20198">
        <ele>1580.5</ele>
        <time>2026-07-15T12:48:29Z</time>
      </trkpt>
      <trkpt lat="42.89262" lon="-0.20199">
        <ele>1580.5</ele>
        <time>2026-07-15T12:48:30Z</time>
      </trkpt>
      <trkpt lat="42.89263" lon="-0.20199">
        <ele>1579.5</ele>
        <time>2026-07-15T12:48:31Z</time>
      </trkpt>
      <trkpt lat="42.89264" lon="-0.202">
        <ele>1578.5</ele>
        <time>2026-07-15T12:48:32Z</time>
      </trkpt>
      <trkpt lat="42.89266" lon="-0.202">
        <ele>1578.5</ele>
        <time>2026-07-15T12:48:33Z</time>
      </trkpt>
      <trkpt lat="42.89267" lon="-0.20201">
        <ele>1578.5</ele>
        <time>2026-07-15T12:48:34Z</time>
      </trkpt>
      <trkpt lat="42.89268" lon="-0.20201">
        <ele>1578.5</ele>
        <time>2026-07-15T12:48:34Z</time>
      </trkpt>
      <trkpt lat="42.89269" lon="-0.20201">
        <ele>1578.5</ele>
        <time>2026-07-15T12:48:35Z</time>
      </trkpt>
      <trkpt lat="42.8927" lon="-0.20201">
        <ele>1577.5</ele>
        <time>2026-07-15T12:48:36Z</time>
      </trkpt>
      <trkpt lat="42.8927" lon="-0.20201">
        <ele>1578.5</ele>
        <time>2026-07-15T12:48:36Z</time>
      </trkpt>
      <trkpt lat="42.89271" lon="-0.20201">
        <ele>1578.5</ele>
        <time>2026-07-15T12:48:37Z</time>
      </trkpt>
      <trkpt lat="42.89272" lon="-0.20202">
        <ele>1577.5</ele>
        <time>2026-07-15T12:48:37Z</time>
      </trkpt>
      <trkpt lat="42.89272" lon="-0.20202">
        <ele>1577.5</ele>
        <time>2026-07-15T12:48:38Z</time>
      </trkpt>
      <trkpt lat="42.89273" lon="-0.20202">
        <ele>1576.5</ele>
        <time>2026-07-15T12:48:38Z</time>
      </trkpt>
      <trkpt lat="42.89273" lon="-0.20202">
        <ele>1576.5</ele>
        <time>2026-07-15T12:48:39Z</time>
      </trkpt>
      <trkpt lat="42.89274" lon="-0.20202">
        <ele>1576.5</ele>
        <time>2026-07-15T12:48:39Z</time>
      </trkpt>
      <trkpt lat="42.89274" lon="-0.20202">
        <ele>1576.5</ele>
        <time>2026-07-15T12:48:40Z</time>
      </trkpt>
      <trkpt lat="42.89275" lon="-0.20202">
        <ele>1576.5</ele>
        <time>2026-07-15T12:48:41Z</time>
      </trkpt>
      <trkpt lat="42.89275" lon="-0.20202">
        <ele>1576.5</ele>
        <time>2026-07-15T12:48:41Z</time>
      </trkpt>
      <trkpt lat="42.89276" lon="-0.20203">
        <ele>1576.5</ele>
        <time>2026-07-15T12:48:41Z</time>
      </trkpt>
      <trkpt lat="42.89276" lon="-0.20203">
        <ele>1576.5</ele>
        <time>2026-07-15T12:48:42Z</time>
      </trkpt>
      <trkpt lat="42.89277" lon="-0.20204">
        <ele>1576.5</ele>
        <time>2026-07-15T12:48:42Z</time>
      </trkpt>
      <trkpt lat="42.89277" lon="-0.20204">
        <ele>1575.5</ele>
        <time>2026-07-15T12:48:43Z</time>
      </trkpt>
      <trkpt lat="42.89278" lon="-0.20204">
        <ele>1575.5</ele>
        <time>2026-07-15T12:48:44Z</time>
      </trkpt>
      <trkpt lat="42.89279" lon="-0.20204">
        <ele>1575.5</ele>
        <time>2026-07-15T12:48:44Z</time>
      </trkpt>
      <trkpt lat="42.89279" lon="-0.20204">
        <ele>1574.5</ele>
        <time>2026-07-15T12:48:45Z</time>
      </trkpt>
      <trkpt lat="42.8928" lon="-0.20205">
        <ele>1574.5</ele>
        <time>2026-07-15T12:48:46Z</time>
      </trkpt>
      <trkpt lat="42.89281" lon="-0.20205">
        <ele>1573.5</ele>
        <time>2026-07-15T12:48:46Z</time>
      </trkpt>
      <trkpt lat="42.89281" lon="-0.20205">
        <ele>1573.5</ele>
        <time>2026-07-15T12:48:47Z</time>
      </trkpt>
      <trkpt lat="42.89282" lon="-0.20205">
        <ele>1573.5</ele>
        <time>2026-07-15T12:48:48Z</time>
      </trkpt>
      <trkpt lat="42.89283" lon="-0.20205">
        <ele>1572.5</ele>
        <time>2026-07-15T12:48:48Z</time>
      </trkpt>
      <trkpt lat="42.89284" lon="-0.20206">
        <ele>1572.5</ele>
        <time>2026-07-15T12:48:49Z</time>
      </trkpt>
      <trkpt lat="42.89284" lon="-0.20206">
        <ele>1573.5</ele>
        <time>2026-07-15T12:48:49Z</time>
      </trkpt>
      <trkpt lat="42.89285" lon="-0.20206">
        <ele>1573.5</ele>
        <time>2026-07-15T12:48:50Z</time>
      </trkpt>
      <trkpt lat="42.89286" lon="-0.20207">
        <ele>1573.5</ele>
        <time>2026-07-15T12:48:51Z</time>
      </trkpt>
      <trkpt lat="42.89286" lon="-0.20208">
        <ele>1573.5</ele>
        <time>2026-07-15T12:48:51Z</time>
      </trkpt>
      <trkpt lat="42.89287" lon="-0.20208">
        <ele>1572.5</ele>
        <time>2026-07-15T12:48:52Z</time>
      </trkpt>
      <trkpt lat="42.89288" lon="-0.20209">
        <ele>1572.5</ele>
        <time>2026-07-15T12:48:53Z</time>
      </trkpt>
      <trkpt lat="42.89288" lon="-0.20209">
        <ele>1572.5</ele>
        <time>2026-07-15T12:48:53Z</time>
      </trkpt>
      <trkpt lat="42.89289" lon="-0.20209">
        <ele>1572.5</ele>
        <time>2026-07-15T12:48:54Z</time>
      </trkpt>
      <trkpt lat="42.8929" lon="-0.2021">
        <ele>1572.5</ele>
        <time>2026-07-15T12:48:55Z</time>
      </trkpt>
      <trkpt lat="42.8929" lon="-0.2021">
        <ele>1571.5</ele>
        <time>2026-07-15T12:48:55Z</time>
      </trkpt>
      <trkpt lat="42.89291" lon="-0.2021">
        <ele>1571.5</ele>
        <time>2026-07-15T12:48:56Z</time>
      </trkpt>
      <trkpt lat="42.89292" lon="-0.2021">
        <ele>1571.5</ele>
        <time>2026-07-15T12:48:56Z</time>
      </trkpt>
      <trkpt lat="42.89293" lon="-0.20211">
        <ele>1570.5</ele>
        <time>2026-07-15T12:48:57Z</time>
      </trkpt>
      <trkpt lat="42.89294" lon="-0.20211">
        <ele>1570.5</ele>
        <time>2026-07-15T12:48:58Z</time>
      </trkpt>
      <trkpt lat="42.89295" lon="-0.20211">
        <ele>1570.5</ele>
        <time>2026-07-15T12:48:59Z</time>
      </trkpt>
      <trkpt lat="42.89296" lon="-0.20212">
        <ele>1570.5</ele>
        <time>2026-07-15T12:49:00Z</time>
      </trkpt>
      <trkpt lat="42.89297" lon="-0.20212">
        <ele>1570.5</ele>
        <time>2026-07-15T12:49:01Z</time>
      </trkpt>
      <trkpt lat="42.89298" lon="-0.20212">
        <ele>1570.5</ele>
        <time>2026-07-15T12:49:02Z</time>
      </trkpt>
      <trkpt lat="42.89299" lon="-0.20213">
        <ele>1570.5</ele>
        <time>2026-07-15T12:49:03Z</time>
      </trkpt>
      <trkpt lat="42.89299" lon="-0.20214">
        <ele>1569.5</ele>
        <time>2026-07-15T12:49:04Z</time>
      </trkpt>
      <trkpt lat="42.893" lon="-0.20215">
        <ele>1569.5</ele>
        <time>2026-07-15T12:49:05Z</time>
      </trkpt>
      <trkpt lat="42.89301" lon="-0.20215">
        <ele>1569.5</ele>
        <time>2026-07-15T12:49:06Z</time>
      </trkpt>
      <trkpt lat="42.89301" lon="-0.20216">
        <ele>1568.5</ele>
        <time>2026-07-15T12:49:06Z</time>
      </trkpt>
      <trkpt lat="42.89302" lon="-0.20216">
        <ele>1568.5</ele>
        <time>2026-07-15T12:49:07Z</time>
      </trkpt>
      <trkpt lat="42.89302" lon="-0.20217">
        <ele>1568.5</ele>
        <time>2026-07-15T12:49:08Z</time>
      </trkpt>
      <trkpt lat="42.89303" lon="-0.20217">
        <ele>1568.5</ele>
        <time>2026-07-15T12:49:08Z</time>
      </trkpt>
      <trkpt lat="42.89304" lon="-0.20217">
        <ele>1568.5</ele>
        <time>2026-07-15T12:49:09Z</time>
      </trkpt>
      <trkpt lat="42.89304" lon="-0.20217">
        <ele>1568.5</ele>
        <time>2026-07-15T12:49:09Z</time>
      </trkpt>
      <trkpt lat="42.89305" lon="-0.20218">
        <ele>1568.5</ele>
        <time>2026-07-15T12:49:10Z</time>
      </trkpt>
      <trkpt lat="42.89305" lon="-0.20218">
        <ele>1569.5</ele>
        <time>2026-07-15T12:49:10Z</time>
      </trkpt>
      <trkpt lat="42.89306" lon="-0.20219">
        <ele>1569.5</ele>
        <time>2026-07-15T12:49:11Z</time>
      </trkpt>
      <trkpt lat="42.89306" lon="-0.20219">
        <ele>1569.5</ele>
        <time>2026-07-15T12:49:11Z</time>
      </trkpt>
      <trkpt lat="42.89307" lon="-0.2022">
        <ele>1569.5</ele>
        <time>2026-07-15T12:49:12Z</time>
      </trkpt>
      <trkpt lat="42.89307" lon="-0.20221">
        <ele>1569.5</ele>
        <time>2026-07-15T12:49:12Z</time>
      </trkpt>
      <trkpt lat="42.89308" lon="-0.20221">
        <ele>1570.5</ele>
        <time>2026-07-15T12:49:13Z</time>
      </trkpt>
      <trkpt lat="42.89309" lon="-0.20222">
        <ele>1570.5</ele>
        <time>2026-07-15T12:49:14Z</time>
      </trkpt>
      <trkpt lat="42.89309" lon="-0.20222">
        <ele>1569.5</ele>
        <time>2026-07-15T12:49:14Z</time>
      </trkpt>
      <trkpt lat="42.8931" lon="-0.20223">
        <ele>1569.5</ele>
        <time>2026-07-15T12:49:15Z</time>
      </trkpt>
      <trkpt lat="42.8931" lon="-0.20223">
        <ele>1569.5</ele>
        <time>2026-07-15T12:49:15Z</time>
      </trkpt>
      <trkpt lat="42.89311" lon="-0.20224">
        <ele>1569.5</ele>
        <time>2026-07-15T12:49:16Z</time>
      </trkpt>
      <trkpt lat="42.89311" lon="-0.20224">
        <ele>1569.5</ele>
        <time>2026-07-15T12:49:16Z</time>
      </trkpt>
      <trkpt lat="42.89312" lon="-0.20224">
        <ele>1570.5</ele>
        <time>2026-07-15T12:49:17Z</time>
      </trkpt>
      <trkpt lat="42.89312" lon="-0.20225">
        <ele>1570.5</ele>
        <time>2026-07-15T12:49:17Z</time>
      </trkpt>
      <trkpt lat="42.89312" lon="-0.20225">
        <ele>1569.5</ele>
        <time>2026-07-15T12:49:18Z</time>
      </trkpt>
      <trkpt lat="42.89313" lon="-0.20226">
        <ele>1569.5</ele>
        <time>2026-07-15T12:49:19Z</time>
      </trkpt>
      <trkpt lat="42.89313" lon="-0.20226">
        <ele>1569.5</ele>
        <time>2026-07-15T12:49:19Z</time>
      </trkpt>
      <trkpt lat="42.89314" lon="-0.20227">
        <ele>1569.5</ele>
        <time>2026-07-15T12:49:20Z</time>
      </trkpt>
      <trkpt lat="42.89314" lon="-0.20228">
        <ele>1569.5</ele>
        <time>2026-07-15T12:49:21Z</time>
      </trkpt>
      <trkpt lat="42.89315" lon="-0.20228">
        <ele>1569.5</ele>
        <time>2026-07-15T12:49:21Z</time>
      </trkpt>
      <trkpt lat="42.89315" lon="-0.20228">
        <ele>1569.5</ele>
        <time>2026-07-15T12:49:22Z</time>
      </trkpt>
      <trkpt lat="42.89316" lon="-0.20228">
        <ele>1568.5</ele>
        <time>2026-07-15T12:49:22Z</time>
      </trkpt>
      <trkpt lat="42.89317" lon="-0.20229">
        <ele>1568.5</ele>
        <time>2026-07-15T12:49:23Z</time>
      </trkpt>
      <trkpt lat="42.89317" lon="-0.20229">
        <ele>1568.5</ele>
        <time>2026-07-15T12:49:24Z</time>
      </trkpt>
      <trkpt lat="42.89318" lon="-0.2023">
        <ele>1569.5</ele>
        <time>2026-07-15T12:49:24Z</time>
      </trkpt>
      <trkpt lat="42.89319" lon="-0.2023">
        <ele>1568.5</ele>
        <time>2026-07-15T12:49:25Z</time>
      </trkpt>
      <trkpt lat="42.89319" lon="-0.2023">
        <ele>1568.5</ele>
        <time>2026-07-15T12:49:26Z</time>
      </trkpt>
      <trkpt lat="42.8932" lon="-0.2023">
        <ele>1567.5</ele>
        <time>2026-07-15T12:49:26Z</time>
      </trkpt>
      <trkpt lat="42.89321" lon="-0.2023">
        <ele>1567.5</ele>
        <time>2026-07-15T12:49:27Z</time>
      </trkpt>
      <trkpt lat="42.89321" lon="-0.2023">
        <ele>1566.5</ele>
        <time>2026-07-15T12:49:27Z</time>
      </trkpt>
      <trkpt lat="42.89322" lon="-0.2023">
        <ele>1566.5</ele>
        <time>2026-07-15T12:49:28Z</time>
      </trkpt>
      <trkpt lat="42.89322" lon="-0.2023">
        <ele>1567.5</ele>
        <time>2026-07-15T12:49:28Z</time>
      </trkpt>
      <trkpt lat="42.89323" lon="-0.20231">
        <ele>1567.5</ele>
        <time>2026-07-15T12:49:29Z</time>
      </trkpt>
      <trkpt lat="42.89323" lon="-0.20231">
        <ele>1566.5</ele>
        <time>2026-07-15T12:49:30Z</time>
      </trkpt>
      <trkpt lat="42.89324" lon="-0.20231">
        <ele>1566.5</ele>
        <time>2026-07-15T12:49:30Z</time>
      </trkpt>
      <trkpt lat="42.89324" lon="-0.20232">
        <ele>1566.5</ele>
        <time>2026-07-15T12:49:31Z</time>
      </trkpt>
      <trkpt lat="42.89326" lon="-0.20233">
        <ele>1566.5</ele>
        <time>2026-07-15T12:49:32Z</time>
      </trkpt>
      <trkpt lat="42.89327" lon="-0.20234">
        <ele>1566.5</ele>
        <time>2026-07-15T12:49:33Z</time>
      </trkpt>
      <trkpt lat="42.89328" lon="-0.20234">
        <ele>1566.5</ele>
        <time>2026-07-15T12:49:34Z</time>
      </trkpt>
      <trkpt lat="42.89329" lon="-0.20235">
        <ele>1566.5</ele>
        <time>2026-07-15T12:49:35Z</time>
      </trkpt>
      <trkpt lat="42.8933" lon="-0.20236">
        <ele>1565.5</ele>
        <time>2026-07-15T12:49:36Z</time>
      </trkpt>
      <trkpt lat="42.8933" lon="-0.20236">
        <ele>1566.5</ele>
        <time>2026-07-15T12:49:37Z</time>
      </trkpt>
      <trkpt lat="42.89331" lon="-0.20237">
        <ele>1565.5</ele>
        <time>2026-07-15T12:49:38Z</time>
      </trkpt>
      <trkpt lat="42.89332" lon="-0.20237">
        <ele>1565.5</ele>
        <time>2026-07-15T12:49:39Z</time>
      </trkpt>
      <trkpt lat="42.89333" lon="-0.20238">
        <ele>1565.5</ele>
        <time>2026-07-15T12:49:40Z</time>
      </trkpt>
      <trkpt lat="42.89334" lon="-0.20239">
        <ele>1565.5</ele>
        <time>2026-07-15T12:49:41Z</time>
      </trkpt>
      <trkpt lat="42.89335" lon="-0.2024">
        <ele>1565.5</ele>
        <time>2026-07-15T12:49:42Z</time>
      </trkpt>
      <trkpt lat="42.89336" lon="-0.20241">
        <ele>1564.5</ele>
        <time>2026-07-15T12:49:43Z</time>
      </trkpt>
      <trkpt lat="42.89337" lon="-0.20242">
        <ele>1564.5</ele>
        <time>2026-07-15T12:49:44Z</time>
      </trkpt>
      <trkpt lat="42.89337" lon="-0.20242">
        <ele>1564.5</ele>
        <time>2026-07-15T12:49:44Z</time>
      </trkpt>
      <trkpt lat="42.89337" lon="-0.20243">
        <ele>1564.5</ele>
        <time>2026-07-15T12:49:45Z</time>
      </trkpt>
      <trkpt lat="42.89338" lon="-0.20243">
        <ele>1563.5</ele>
        <time>2026-07-15T12:49:45Z</time>
      </trkpt>
      <trkpt lat="42.89338" lon="-0.20243">
        <ele>1563.5</ele>
        <time>2026-07-15T12:49:46Z</time>
      </trkpt>
      <trkpt lat="42.89339" lon="-0.20243">
        <ele>1563.5</ele>
        <time>2026-07-15T12:49:46Z</time>
      </trkpt>
      <trkpt lat="42.89339" lon="-0.20244">
        <ele>1563.5</ele>
        <time>2026-07-15T12:49:47Z</time>
      </trkpt>
      <trkpt lat="42.89339" lon="-0.20244">
        <ele>1563.5</ele>
        <time>2026-07-15T12:49:48Z</time>
      </trkpt>
      <trkpt lat="42.89339" lon="-0.20245">
        <ele>1562.5</ele>
        <time>2026-07-15T12:49:48Z</time>
      </trkpt>
      <trkpt lat="42.8934" lon="-0.20245">
        <ele>1562.5</ele>
        <time>2026-07-15T12:49:49Z</time>
      </trkpt>
      <trkpt lat="42.89341" lon="-0.20245">
        <ele>1562.5</ele>
        <time>2026-07-15T12:49:49Z</time>
      </trkpt>
      <trkpt lat="42.89342" lon="-0.20245">
        <ele>1561.5</ele>
        <time>2026-07-15T12:49:50Z</time>
      </trkpt>
      <trkpt lat="42.89342" lon="-0.20245">
        <ele>1561.5</ele>
        <time>2026-07-15T12:49:51Z</time>
      </trkpt>
      <trkpt lat="42.89343" lon="-0.20245">
        <ele>1562.5</ele>
        <time>2026-07-15T12:49:51Z</time>
      </trkpt>
      <trkpt lat="42.89343" lon="-0.20245">
        <ele>1561.5</ele>
        <time>2026-07-15T12:49:52Z</time>
      </trkpt>
      <trkpt lat="42.89344" lon="-0.20245">
        <ele>1561.5</ele>
        <time>2026-07-15T12:49:53Z</time>
      </trkpt>
      <trkpt lat="42.89345" lon="-0.20245">
        <ele>1561.5</ele>
        <time>2026-07-15T12:49:53Z</time>
      </trkpt>
      <trkpt lat="42.89345" lon="-0.20246">
        <ele>1562.5</ele>
        <time>2026-07-15T12:49:54Z</time>
      </trkpt>
      <trkpt lat="42.89346" lon="-0.20246">
        <ele>1562.5</ele>
        <time>2026-07-15T12:49:55Z</time>
      </trkpt>
      <trkpt lat="42.89346" lon="-0.20247">
        <ele>1561.5</ele>
        <time>2026-07-15T12:49:55Z</time>
      </trkpt>
      <trkpt lat="42.89347" lon="-0.20247">
        <ele>1561.5</ele>
        <time>2026-07-15T12:49:56Z</time>
      </trkpt>
      <trkpt lat="42.89347" lon="-0.20247">
        <ele>1561.5</ele>
        <time>2026-07-15T12:49:56Z</time>
      </trkpt>
      <trkpt lat="42.89348" lon="-0.20248">
        <ele>1561.5</ele>
        <time>2026-07-15T12:49:57Z</time>
      </trkpt>
      <trkpt lat="42.89349" lon="-0.20249">
        <ele>1561.5</ele>
        <time>2026-07-15T12:49:58Z</time>
      </trkpt>
      <trkpt lat="42.89349" lon="-0.20249">
        <ele>1560.5</ele>
        <time>2026-07-15T12:49:58Z</time>
      </trkpt>
      <trkpt lat="42.8935" lon="-0.2025">
        <ele>1560.5</ele>
        <time>2026-07-15T12:49:59Z</time>
      </trkpt>
      <trkpt lat="42.8935" lon="-0.2025">
        <ele>1560.5</ele>
        <time>2026-07-15T12:50:00Z</time>
      </trkpt>
      <trkpt lat="42.89351" lon="-0.20252">
        <ele>1560.5</ele>
        <time>2026-07-15T12:50:01Z</time>
      </trkpt>
      <trkpt lat="42.89352" lon="-0.20253">
        <ele>1560.5</ele>
        <time>2026-07-15T12:50:02Z</time>
      </trkpt>
      <trkpt lat="42.89353" lon="-0.20253">
        <ele>1560.5</ele>
        <time>2026-07-15T12:50:03Z</time>
      </trkpt>
      <trkpt lat="42.89354" lon="-0.20254">
        <ele>1560.5</ele>
        <time>2026-07-15T12:50:04Z</time>
      </trkpt>
      <trkpt lat="42.89354" lon="-0.20256">
        <ele>1560.5</ele>
        <time>2026-07-15T12:50:05Z</time>
      </trkpt>
      <trkpt lat="42.89355" lon="-0.20256">
        <ele>1560.5</ele>
        <time>2026-07-15T12:50:05Z</time>
      </trkpt>
      <trkpt lat="42.89355" lon="-0.20257">
        <ele>1561.5</ele>
        <time>2026-07-15T12:50:06Z</time>
      </trkpt>
      <trkpt lat="42.89356" lon="-0.20258">
        <ele>1561.5</ele>
        <time>2026-07-15T12:50:07Z</time>
      </trkpt>
      <trkpt lat="42.89358" lon="-0.20258">
        <ele>1560.5</ele>
        <time>2026-07-15T12:50:08Z</time>
      </trkpt>
      <trkpt lat="42.89359" lon="-0.20259">
        <ele>1560.5</ele>
        <time>2026-07-15T12:50:09Z</time>
      </trkpt>
      <trkpt lat="42.89359" lon="-0.20259">
        <ele>1560.5</ele>
        <time>2026-07-15T12:50:09Z</time>
      </trkpt>
      <trkpt lat="42.8936" lon="-0.20259">
        <ele>1560.5</ele>
        <time>2026-07-15T12:50:10Z</time>
      </trkpt>
      <trkpt lat="42.89361" lon="-0.20259">
        <ele>1560.5</ele>
        <time>2026-07-15T12:50:10Z</time>
      </trkpt>
      <trkpt lat="42.89361" lon="-0.2026">
        <ele>1560.5</ele>
        <time>2026-07-15T12:50:11Z</time>
      </trkpt>
      <trkpt lat="42.89362" lon="-0.2026">
        <ele>1560.5</ele>
        <time>2026-07-15T12:50:11Z</time>
      </trkpt>
      <trkpt lat="42.89363" lon="-0.20261">
        <ele>1560.5</ele>
        <time>2026-07-15T12:50:12Z</time>
      </trkpt>
      <trkpt lat="42.89364" lon="-0.20261">
        <ele>1560.5</ele>
        <time>2026-07-15T12:50:13Z</time>
      </trkpt>
      <trkpt lat="42.89365" lon="-0.20262">
        <ele>1560.5</ele>
        <time>2026-07-15T12:50:13Z</time>
      </trkpt>
      <trkpt lat="42.89366" lon="-0.20262">
        <ele>1560.5</ele>
        <time>2026-07-15T12:50:14Z</time>
      </trkpt>
      <trkpt lat="42.89366" lon="-0.20262">
        <ele>1560.5</ele>
        <time>2026-07-15T12:50:14Z</time>
      </trkpt>
      <trkpt lat="42.89367" lon="-0.20263">
        <ele>1560.5</ele>
        <time>2026-07-15T12:50:15Z</time>
      </trkpt>
      <trkpt lat="42.89367" lon="-0.20263">
        <ele>1560.5</ele>
        <time>2026-07-15T12:50:15Z</time>
      </trkpt>
      <trkpt lat="42.89368" lon="-0.20263">
        <ele>1560.5</ele>
        <time>2026-07-15T12:50:16Z</time>
      </trkpt>
      <trkpt lat="42.89369" lon="-0.20264">
        <ele>1560.5</ele>
        <time>2026-07-15T12:50:17Z</time>
      </trkpt>
      <trkpt lat="42.89369" lon="-0.20264">
        <ele>1560.5</ele>
        <time>2026-07-15T12:50:17Z</time>
      </trkpt>
      <trkpt lat="42.8937" lon="-0.20264">
        <ele>1560.5</ele>
        <time>2026-07-15T12:50:18Z</time>
      </trkpt>
      <trkpt lat="42.89371" lon="-0.20265">
        <ele>1560.5</ele>
        <time>2026-07-15T12:50:18Z</time>
      </trkpt>
      <trkpt lat="42.89371" lon="-0.20266">
        <ele>1560.5</ele>
        <time>2026-07-15T12:50:19Z</time>
      </trkpt>
      <trkpt lat="42.89372" lon="-0.20266">
        <ele>1560.5</ele>
        <time>2026-07-15T12:50:20Z</time>
      </trkpt>
      <trkpt lat="42.89374" lon="-0.20267">
        <ele>1561.5</ele>
        <time>2026-07-15T12:50:21Z</time>
      </trkpt>
      <trkpt lat="42.89374" lon="-0.20268">
        <ele>1561.5</ele>
        <time>2026-07-15T12:50:21Z</time>
      </trkpt>
      <trkpt lat="42.89375" lon="-0.20268">
        <ele>1561.5</ele>
        <time>2026-07-15T12:50:22Z</time>
      </trkpt>
      <trkpt lat="42.89375" lon="-0.20269">
        <ele>1561.5</ele>
        <time>2026-07-15T12:50:22Z</time>
      </trkpt>
      <trkpt lat="42.89376" lon="-0.2027">
        <ele>1561.5</ele>
        <time>2026-07-15T12:50:23Z</time>
      </trkpt>
      <trkpt lat="42.89376" lon="-0.20271">
        <ele>1561.5</ele>
        <time>2026-07-15T12:50:24Z</time>
      </trkpt>
      <trkpt lat="42.89377" lon="-0.20271">
        <ele>1560.5</ele>
        <time>2026-07-15T12:50:24Z</time>
      </trkpt>
      <trkpt lat="42.89377" lon="-0.20272">
        <ele>1561.5</ele>
        <time>2026-07-15T12:50:25Z</time>
      </trkpt>
      <trkpt lat="42.89378" lon="-0.20273">
        <ele>1561.5</ele>
        <time>2026-07-15T12:50:26Z</time>
      </trkpt>
      <trkpt lat="42.89378" lon="-0.20274">
        <ele>1560.5</ele>
        <time>2026-07-15T12:50:26Z</time>
      </trkpt>
      <trkpt lat="42.89379" lon="-0.20275">
        <ele>1560.5</ele>
        <time>2026-07-15T12:50:27Z</time>
      </trkpt>
      <trkpt lat="42.89379" lon="-0.20276">
        <ele>1560.5</ele>
        <time>2026-07-15T12:50:28Z</time>
      </trkpt>
      <trkpt lat="42.8938" lon="-0.20276">
        <ele>1560.5</ele>
        <time>2026-07-15T12:50:28Z</time>
      </trkpt>
      <trkpt lat="42.8938" lon="-0.20276">
        <ele>1560.5</ele>
        <time>2026-07-15T12:50:29Z</time>
      </trkpt>
      <trkpt lat="42.89381" lon="-0.20277">
        <ele>1561.5</ele>
        <time>2026-07-15T12:50:29Z</time>
      </trkpt>
      <trkpt lat="42.89381" lon="-0.20278">
        <ele>1561.5</ele>
        <time>2026-07-15T12:50:30Z</time>
      </trkpt>
      <trkpt lat="42.89381" lon="-0.20279">
        <ele>1561.5</ele>
        <time>2026-07-15T12:50:30Z</time>
      </trkpt>
      <trkpt lat="42.89381" lon="-0.20279">
        <ele>1561.5</ele>
        <time>2026-07-15T12:50:31Z</time>
      </trkpt>
      <trkpt lat="42.89382" lon="-0.2028">
        <ele>1561.5</ele>
        <time>2026-07-15T12:50:32Z</time>
      </trkpt>
      <trkpt lat="42.89382" lon="-0.20281">
        <ele>1561.5</ele>
        <time>2026-07-15T12:50:32Z</time>
      </trkpt>
      <trkpt lat="42.89382" lon="-0.20281">
        <ele>1560.5</ele>
        <time>2026-07-15T12:50:33Z</time>
      </trkpt>
      <trkpt lat="42.89383" lon="-0.20281">
        <ele>1561.5</ele>
        <time>2026-07-15T12:50:33Z</time>
      </trkpt>
      <trkpt lat="42.89383" lon="-0.20282">
        <ele>1561.5</ele>
        <time>2026-07-15T12:50:33Z</time>
      </trkpt>
      <trkpt lat="42.89384" lon="-0.20282">
        <ele>1560.5</ele>
        <time>2026-07-15T12:50:34Z</time>
      </trkpt>
      <trkpt lat="42.89384" lon="-0.20282">
        <ele>1560.5</ele>
        <time>2026-07-15T12:50:35Z</time>
      </trkpt>
      <trkpt lat="42.89385" lon="-0.20282">
        <ele>1559.5</ele>
        <time>2026-07-15T12:50:35Z</time>
      </trkpt>
      <trkpt lat="42.89385" lon="-0.20283">
        <ele>1559.5</ele>
        <time>2026-07-15T12:50:35Z</time>
      </trkpt>
      <trkpt lat="42.89386" lon="-0.20283">
        <ele>1559.5</ele>
        <time>2026-07-15T12:50:36Z</time>
      </trkpt>
      <trkpt lat="42.89386" lon="-0.20283">
        <ele>1559.5</ele>
        <time>2026-07-15T12:50:37Z</time>
      </trkpt>
      <trkpt lat="42.89387" lon="-0.20284">
        <ele>1558.5</ele>
        <time>2026-07-15T12:50:38Z</time>
      </trkpt>
      <trkpt lat="42.89388" lon="-0.20285">
        <ele>1559.5</ele>
        <time>2026-07-15T12:50:39Z</time>
      </trkpt>
      <trkpt lat="42.89388" lon="-0.20287">
        <ele>1559.5</ele>
        <time>2026-07-15T12:50:40Z</time>
      </trkpt>
      <trkpt lat="42.89389" lon="-0.20288">
        <ele>1558.5</ele>
        <time>2026-07-15T12:50:41Z</time>
      </trkpt>
      <trkpt lat="42.8939" lon="-0.2029">
        <ele>1557.5</ele>
        <time>2026-07-15T12:50:42Z</time>
      </trkpt>
      <trkpt lat="42.89391" lon="-0.20291">
        <ele>1557.5</ele>
        <time>2026-07-15T12:50:43Z</time>
      </trkpt>
      <trkpt lat="42.89391" lon="-0.20292">
        <ele>1557.5</ele>
        <time>2026-07-15T12:50:43Z</time>
      </trkpt>
      <trkpt lat="42.89392" lon="-0.20292">
        <ele>1557.5</ele>
        <time>2026-07-15T12:50:44Z</time>
      </trkpt>
      <trkpt lat="42.89393" lon="-0.20292">
        <ele>1557.5</ele>
        <time>2026-07-15T12:50:45Z</time>
      </trkpt>
      <trkpt lat="42.89393" lon="-0.20292">
        <ele>1557.5</ele>
        <time>2026-07-15T12:50:45Z</time>
      </trkpt>
      <trkpt lat="42.89394" lon="-0.20292">
        <ele>1557.5</ele>
        <time>2026-07-15T12:50:46Z</time>
      </trkpt>
      <trkpt lat="42.89394" lon="-0.20292">
        <ele>1558.5</ele>
        <time>2026-07-15T12:50:46Z</time>
      </trkpt>
      <trkpt lat="42.89395" lon="-0.20293">
        <ele>1558.5</ele>
        <time>2026-07-15T12:50:47Z</time>
      </trkpt>
      <trkpt lat="42.89396" lon="-0.20293">
        <ele>1557.5</ele>
        <time>2026-07-15T12:50:47Z</time>
      </trkpt>
      <trkpt lat="42.89397" lon="-0.20293">
        <ele>1557.5</ele>
        <time>2026-07-15T12:50:48Z</time>
      </trkpt>
      <trkpt lat="42.89397" lon="-0.20293">
        <ele>1557.5</ele>
        <time>2026-07-15T12:50:49Z</time>
      </trkpt>
      <trkpt lat="42.89398" lon="-0.20293">
        <ele>1557.5</ele>
        <time>2026-07-15T12:50:49Z</time>
      </trkpt>
      <trkpt lat="42.89399" lon="-0.20294">
        <ele>1557.5</ele>
        <time>2026-07-15T12:50:50Z</time>
      </trkpt>
      <trkpt lat="42.89399" lon="-0.20294">
        <ele>1557.5</ele>
        <time>2026-07-15T12:50:51Z</time>
      </trkpt>
      <trkpt lat="42.894" lon="-0.20294">
        <ele>1557.5</ele>
        <time>2026-07-15T12:50:51Z</time>
      </trkpt>
      <trkpt lat="42.894" lon="-0.20294">
        <ele>1557.5</ele>
        <time>2026-07-15T12:50:52Z</time>
      </trkpt>
      <trkpt lat="42.89401" lon="-0.20295">
        <ele>1557.5</ele>
        <time>2026-07-15T12:50:53Z</time>
      </trkpt>
      <trkpt lat="42.89402" lon="-0.20295">
        <ele>1557.5</ele>
        <time>2026-07-15T12:50:54Z</time>
      </trkpt>
      <trkpt lat="42.89403" lon="-0.20295">
        <ele>1557.5</ele>
        <time>2026-07-15T12:50:55Z</time>
      </trkpt>
      <trkpt lat="42.89403" lon="-0.20295">
        <ele>1556.5</ele>
        <time>2026-07-15T12:50:55Z</time>
      </trkpt>
      <trkpt lat="42.89403" lon="-0.20296">
        <ele>1556.5</ele>
        <time>2026-07-15T12:50:56Z</time>
      </trkpt>
      <trkpt lat="42.89403" lon="-0.20296">
        <ele>1555.5</ele>
        <time>2026-07-15T12:50:56Z</time>
      </trkpt>
      <trkpt lat="42.89403" lon="-0.20296">
        <ele>1555.5</ele>
        <time>2026-07-15T12:50:57Z</time>
      </trkpt>
      <trkpt lat="42.89403" lon="-0.20297">
        <ele>1555.5</ele>
        <time>2026-07-15T12:50:58Z</time>
      </trkpt>
      <trkpt lat="42.89403" lon="-0.20297">
        <ele>1554.5</ele>
        <time>2026-07-15T12:50:58Z</time>
      </trkpt>
      <trkpt lat="42.89404" lon="-0.20297">
        <ele>1554.5</ele>
        <time>2026-07-15T12:50:59Z</time>
      </trkpt>
      <trkpt lat="42.89404" lon="-0.20298">
        <ele>1554.5</ele>
        <time>2026-07-15T12:50:59Z</time>
      </trkpt>
      <trkpt lat="42.89405" lon="-0.20298">
        <ele>1553.5</ele>
        <time>2026-07-15T12:51:00Z</time>
      </trkpt>
      <trkpt lat="42.89405" lon="-0.20298">
        <ele>1553.5</ele>
        <time>2026-07-15T12:51:01Z</time>
      </trkpt>
      <trkpt lat="42.89405" lon="-0.20298">
        <ele>1553.5</ele>
        <time>2026-07-15T12:51:01Z</time>
      </trkpt>
      <trkpt lat="42.89406" lon="-0.20299">
        <ele>1553.5</ele>
        <time>2026-07-15T12:51:02Z</time>
      </trkpt>
      <trkpt lat="42.89406" lon="-0.20299">
        <ele>1552.5</ele>
        <time>2026-07-15T12:51:02Z</time>
      </trkpt>
      <trkpt lat="42.89407" lon="-0.203">
        <ele>1552.5</ele>
        <time>2026-07-15T12:51:03Z</time>
      </trkpt>
      <trkpt lat="42.89407" lon="-0.20301">
        <ele>1552.5</ele>
        <time>2026-07-15T12:51:04Z</time>
      </trkpt>
      <trkpt lat="42.89407" lon="-0.20302">
        <ele>1552.5</ele>
        <time>2026-07-15T12:51:04Z</time>
      </trkpt>
      <trkpt lat="42.89408" lon="-0.20302">
        <ele>1552.5</ele>
        <time>2026-07-15T12:51:05Z</time>
      </trkpt>
      <trkpt lat="42.89409" lon="-0.20303">
        <ele>1552.5</ele>
        <time>2026-07-15T12:51:06Z</time>
      </trkpt>
      <trkpt lat="42.89409" lon="-0.20303">
        <ele>1552.5</ele>
        <time>2026-07-15T12:51:06Z</time>
      </trkpt>
      <trkpt lat="42.89409" lon="-0.20304">
        <ele>1552.5</ele>
        <time>2026-07-15T12:51:07Z</time>
      </trkpt>
      <trkpt lat="42.8941" lon="-0.20304">
        <ele>1552.5</ele>
        <time>2026-07-15T12:51:08Z</time>
      </trkpt>
      <trkpt lat="42.89411" lon="-0.20305">
        <ele>1551.5</ele>
        <time>2026-07-15T12:51:08Z</time>
      </trkpt>
      <trkpt lat="42.89412" lon="-0.20305">
        <ele>1551.5</ele>
        <time>2026-07-15T12:51:09Z</time>
      </trkpt>
      <trkpt lat="42.89413" lon="-0.20305">
        <ele>1551.5</ele>
        <time>2026-07-15T12:51:10Z</time>
      </trkpt>
      <trkpt lat="42.89413" lon="-0.20305">
        <ele>1552.5</ele>
        <time>2026-07-15T12:51:10Z</time>
      </trkpt>
      <trkpt lat="42.89414" lon="-0.20305">
        <ele>1551.5</ele>
        <time>2026-07-15T12:51:11Z</time>
      </trkpt>
      <trkpt lat="42.89415" lon="-0.20305">
        <ele>1551.5</ele>
        <time>2026-07-15T12:51:12Z</time>
      </trkpt>
      <trkpt lat="42.89415" lon="-0.20306">
        <ele>1551.5</ele>
        <time>2026-07-15T12:51:12Z</time>
      </trkpt>
      <trkpt lat="42.89416" lon="-0.20306">
        <ele>1550.5</ele>
        <time>2026-07-15T12:51:13Z</time>
      </trkpt>
      <trkpt lat="42.89416" lon="-0.20306">
        <ele>1550.5</ele>
        <time>2026-07-15T12:51:13Z</time>
      </trkpt>
      <trkpt lat="42.89417" lon="-0.20307">
        <ele>1550.5</ele>
        <time>2026-07-15T12:51:14Z</time>
      </trkpt>
      <trkpt lat="42.89418" lon="-0.20307">
        <ele>1550.5</ele>
        <time>2026-07-15T12:51:15Z</time>
      </trkpt>
      <trkpt lat="42.89419" lon="-0.20308">
        <ele>1550.5</ele>
        <time>2026-07-15T12:51:16Z</time>
      </trkpt>
      <trkpt lat="42.8942" lon="-0.20309">
        <ele>1550.5</ele>
        <time>2026-07-15T12:51:17Z</time>
      </trkpt>
      <trkpt lat="42.8942" lon="-0.20309">
        <ele>1549.5</ele>
        <time>2026-07-15T12:51:17Z</time>
      </trkpt>
      <trkpt lat="42.89421" lon="-0.20309">
        <ele>1549.5</ele>
        <time>2026-07-15T12:51:18Z</time>
      </trkpt>
      <trkpt lat="42.89421" lon="-0.2031">
        <ele>1549.5</ele>
        <time>2026-07-15T12:51:18Z</time>
      </trkpt>
      <trkpt lat="42.89422" lon="-0.20311">
        <ele>1549.5</ele>
        <time>2026-07-15T12:51:19Z</time>
      </trkpt>
      <trkpt lat="42.89422" lon="-0.20312">
        <ele>1549.5</ele>
        <time>2026-07-15T12:51:20Z</time>
      </trkpt>
      <trkpt lat="42.89423" lon="-0.20313">
        <ele>1549.5</ele>
        <time>2026-07-15T12:51:21Z</time>
      </trkpt>
      <trkpt lat="42.89425" lon="-0.20314">
        <ele>1549.5</ele>
        <time>2026-07-15T12:51:22Z</time>
      </trkpt>
      <trkpt lat="42.89426" lon="-0.20314">
        <ele>1548.5</ele>
        <time>2026-07-15T12:51:23Z</time>
      </trkpt>
      <trkpt lat="42.89427" lon="-0.20314">
        <ele>1548.5</ele>
        <time>2026-07-15T12:51:24Z</time>
      </trkpt>
      <trkpt lat="42.89427" lon="-0.20314">
        <ele>1547.5</ele>
        <time>2026-07-15T12:51:25Z</time>
      </trkpt>
      <trkpt lat="42.89428" lon="-0.20315">
        <ele>1547.5</ele>
        <time>2026-07-15T12:51:26Z</time>
      </trkpt>
      <trkpt lat="42.89429" lon="-0.20317">
        <ele>1548.5</ele>
        <time>2026-07-15T12:51:27Z</time>
      </trkpt>
      <trkpt lat="42.89429" lon="-0.20317">
        <ele>1547.5</ele>
        <time>2026-07-15T12:51:27Z</time>
      </trkpt>
      <trkpt lat="42.89429" lon="-0.20318">
        <ele>1547.5</ele>
        <time>2026-07-15T12:51:28Z</time>
      </trkpt>
      <trkpt lat="42.8943" lon="-0.20318">
        <ele>1547.5</ele>
        <time>2026-07-15T12:51:29Z</time>
      </trkpt>
      <trkpt lat="42.89431" lon="-0.20319">
        <ele>1547.5</ele>
        <time>2026-07-15T12:51:30Z</time>
      </trkpt>
      <trkpt lat="42.89432" lon="-0.20319">
        <ele>1547.5</ele>
        <time>2026-07-15T12:51:30Z</time>
      </trkpt>
      <trkpt lat="42.89432" lon="-0.20319">
        <ele>1547.5</ele>
        <time>2026-07-15T12:51:31Z</time>
      </trkpt>
      <trkpt lat="42.89433" lon="-0.20319">
        <ele>1547.5</ele>
        <time>2026-07-15T12:51:32Z</time>
      </trkpt>
      <trkpt lat="42.89434" lon="-0.2032">
        <ele>1547.5</ele>
        <time>2026-07-15T12:51:33Z</time>
      </trkpt>
      <trkpt lat="42.89435" lon="-0.2032">
        <ele>1547.5</ele>
        <time>2026-07-15T12:51:34Z</time>
      </trkpt>
      <trkpt lat="42.89436" lon="-0.2032">
        <ele>1547.5</ele>
        <time>2026-07-15T12:51:34Z</time>
      </trkpt>
      <trkpt lat="42.89437" lon="-0.2032">
        <ele>1547.5</ele>
        <time>2026-07-15T12:51:35Z</time>
      </trkpt>
      <trkpt lat="42.89438" lon="-0.2032">
        <ele>1546.5</ele>
        <time>2026-07-15T12:51:36Z</time>
      </trkpt>
      <trkpt lat="42.89438" lon="-0.2032">
        <ele>1546.5</ele>
        <time>2026-07-15T12:51:37Z</time>
      </trkpt>
      <trkpt lat="42.89439" lon="-0.2032">
        <ele>1546.5</ele>
        <time>2026-07-15T12:51:38Z</time>
      </trkpt>
      <trkpt lat="42.89439" lon="-0.2032">
        <ele>1545.5</ele>
        <time>2026-07-15T12:51:39Z</time>
      </trkpt>
      <trkpt lat="42.8944" lon="-0.20321">
        <ele>1544.5</ele>
        <time>2026-07-15T12:51:40Z</time>
      </trkpt>
      <trkpt lat="42.8944" lon="-0.20321">
        <ele>1544.5</ele>
        <time>2026-07-15T12:51:41Z</time>
      </trkpt>
      <trkpt lat="42.89441" lon="-0.20321">
        <ele>1543.5</ele>
        <time>2026-07-15T12:51:42Z</time>
      </trkpt>
      <trkpt lat="42.89442" lon="-0.20322">
        <ele>1543.5</ele>
        <time>2026-07-15T12:51:43Z</time>
      </trkpt>
      <trkpt lat="42.89443" lon="-0.20322">
        <ele>1543.5</ele>
        <time>2026-07-15T12:51:44Z</time>
      </trkpt>
      <trkpt lat="42.89444" lon="-0.20322">
        <ele>1543.5</ele>
        <time>2026-07-15T12:51:44Z</time>
      </trkpt>
      <trkpt lat="42.89445" lon="-0.20323">
        <ele>1543.5</ele>
        <time>2026-07-15T12:51:45Z</time>
      </trkpt>
      <trkpt lat="42.89446" lon="-0.20323">
        <ele>1543.5</ele>
        <time>2026-07-15T12:51:46Z</time>
      </trkpt>
      <trkpt lat="42.89447" lon="-0.20324">
        <ele>1544.5</ele>
        <time>2026-07-15T12:51:47Z</time>
      </trkpt>
      <trkpt lat="42.89448" lon="-0.20325">
        <ele>1544.5</ele>
        <time>2026-07-15T12:51:48Z</time>
      </trkpt>
      <trkpt lat="42.89448" lon="-0.20325">
        <ele>1544.5</ele>
        <time>2026-07-15T12:51:48Z</time>
      </trkpt>
      <trkpt lat="42.89449" lon="-0.20325">
        <ele>1544.5</ele>
        <time>2026-07-15T12:51:49Z</time>
      </trkpt>
      <trkpt lat="42.89449" lon="-0.20326">
        <ele>1544.5</ele>
        <time>2026-07-15T12:51:49Z</time>
      </trkpt>
      <trkpt lat="42.8945" lon="-0.20326">
        <ele>1544.5</ele>
        <time>2026-07-15T12:51:50Z</time>
      </trkpt>
      <trkpt lat="42.89451" lon="-0.20326">
        <ele>1543.5</ele>
        <time>2026-07-15T12:51:50Z</time>
      </trkpt>
      <trkpt lat="42.89452" lon="-0.20327">
        <ele>1543.5</ele>
        <time>2026-07-15T12:51:51Z</time>
      </trkpt>
      <trkpt lat="42.89452" lon="-0.20327">
        <ele>1543.5</ele>
        <time>2026-07-15T12:51:52Z</time>
      </trkpt>
      <trkpt lat="42.89454" lon="-0.20328">
        <ele>1543.5</ele>
        <time>2026-07-15T12:51:53Z</time>
      </trkpt>
      <trkpt lat="42.89454" lon="-0.20328">
        <ele>1543.5</ele>
        <time>2026-07-15T12:51:54Z</time>
      </trkpt>
      <trkpt lat="42.89454" lon="-0.20328">
        <ele>1543.5</ele>
        <time>2026-07-15T12:51:54Z</time>
      </trkpt>
      <trkpt lat="42.89455" lon="-0.20329">
        <ele>1543.5</ele>
        <time>2026-07-15T12:51:55Z</time>
      </trkpt>
      <trkpt lat="42.89455" lon="-0.20328">
        <ele>1542.5</ele>
        <time>2026-07-15T12:51:55Z</time>
      </trkpt>
      <trkpt lat="42.89456" lon="-0.20329">
        <ele>1542.5</ele>
        <time>2026-07-15T12:51:56Z</time>
      </trkpt>
      <trkpt lat="42.89456" lon="-0.20329">
        <ele>1542.5</ele>
        <time>2026-07-15T12:51:56Z</time>
      </trkpt>
      <trkpt lat="42.89457" lon="-0.20329">
        <ele>1542.5</ele>
        <time>2026-07-15T12:51:57Z</time>
      </trkpt>
      <trkpt lat="42.89458" lon="-0.20329">
        <ele>1541.5</ele>
        <time>2026-07-15T12:51:58Z</time>
      </trkpt>
      <trkpt lat="42.89458" lon="-0.20329">
        <ele>1541.5</ele>
        <time>2026-07-15T12:51:58Z</time>
      </trkpt>
      <trkpt lat="42.89459" lon="-0.2033">
        <ele>1541.5</ele>
        <time>2026-07-15T12:51:59Z</time>
      </trkpt>
      <trkpt lat="42.89459" lon="-0.2033">
        <ele>1541.5</ele>
        <time>2026-07-15T12:51:59Z</time>
      </trkpt>
      <trkpt lat="42.8946" lon="-0.20331">
        <ele>1541.5</ele>
        <time>2026-07-15T12:52:00Z</time>
      </trkpt>
      <trkpt lat="42.89462" lon="-0.20331">
        <ele>1539.5</ele>
        <time>2026-07-15T12:52:01Z</time>
      </trkpt>
      <trkpt lat="42.89462" lon="-0.20331">
        <ele>1539.5</ele>
        <time>2026-07-15T12:52:02Z</time>
      </trkpt>
      <trkpt lat="42.89463" lon="-0.20332">
        <ele>1539.5</ele>
        <time>2026-07-15T12:52:02Z</time>
      </trkpt>
      <trkpt lat="42.89463" lon="-0.20332">
        <ele>1538.5</ele>
        <time>2026-07-15T12:52:03Z</time>
      </trkpt>
      <trkpt lat="42.89464" lon="-0.20333">
        <ele>1538.5</ele>
        <time>2026-07-15T12:52:04Z</time>
      </trkpt>
      <trkpt lat="42.89465" lon="-0.20333">
        <ele>1538.5</ele>
        <time>2026-07-15T12:52:05Z</time>
      </trkpt>
      <trkpt lat="42.89465" lon="-0.20334">
        <ele>1538.5</ele>
        <time>2026-07-15T12:52:05Z</time>
      </trkpt>
      <trkpt lat="42.89466" lon="-0.20334">
        <ele>1538.5</ele>
        <time>2026-07-15T12:52:06Z</time>
      </trkpt>
      <trkpt lat="42.89466" lon="-0.20335">
        <ele>1538.5</ele>
        <time>2026-07-15T12:52:06Z</time>
      </trkpt>
      <trkpt lat="42.89467" lon="-0.20335">
        <ele>1537.5</ele>
        <time>2026-07-15T12:52:07Z</time>
      </trkpt>
      <trkpt lat="42.89468" lon="-0.20336">
        <ele>1537.5</ele>
        <time>2026-07-15T12:52:08Z</time>
      </trkpt>
      <trkpt lat="42.89469" lon="-0.20337">
        <ele>1537.5</ele>
        <time>2026-07-15T12:52:09Z</time>
      </trkpt>
      <trkpt lat="42.8947" lon="-0.20338">
        <ele>1537.5</ele>
        <time>2026-07-15T12:52:10Z</time>
      </trkpt>
      <trkpt lat="42.8947" lon="-0.20339">
        <ele>1537.5</ele>
        <time>2026-07-15T12:52:10Z</time>
      </trkpt>
      <trkpt lat="42.8947" lon="-0.2034">
        <ele>1537.5</ele>
        <time>2026-07-15T12:52:11Z</time>
      </trkpt>
      <trkpt lat="42.89471" lon="-0.2034">
        <ele>1536.5</ele>
        <time>2026-07-15T12:52:12Z</time>
      </trkpt>
      <trkpt lat="42.89472" lon="-0.20341">
        <ele>1536.5</ele>
        <time>2026-07-15T12:52:13Z</time>
      </trkpt>
      <trkpt lat="42.89473" lon="-0.20341">
        <ele>1535.5</ele>
        <time>2026-07-15T12:52:14Z</time>
      </trkpt>
      <trkpt lat="42.89474" lon="-0.20342">
        <ele>1534.5</ele>
        <time>2026-07-15T12:52:15Z</time>
      </trkpt>
      <trkpt lat="42.89475" lon="-0.20342">
        <ele>1534.5</ele>
        <time>2026-07-15T12:52:16Z</time>
      </trkpt>
      <trkpt lat="42.89475" lon="-0.20342">
        <ele>1534.5</ele>
        <time>2026-07-15T12:52:16Z</time>
      </trkpt>
      <trkpt lat="42.89476" lon="-0.20343">
        <ele>1534.5</ele>
        <time>2026-07-15T12:52:17Z</time>
      </trkpt>
      <trkpt lat="42.89477" lon="-0.20344">
        <ele>1534.5</ele>
        <time>2026-07-15T12:52:18Z</time>
      </trkpt>
      <trkpt lat="42.89478" lon="-0.20344">
        <ele>1534.5</ele>
        <time>2026-07-15T12:52:19Z</time>
      </trkpt>
      <trkpt lat="42.89479" lon="-0.20345">
        <ele>1533.5</ele>
        <time>2026-07-15T12:52:20Z</time>
      </trkpt>
      <trkpt lat="42.8948" lon="-0.20346">
        <ele>1533.5</ele>
        <time>2026-07-15T12:52:21Z</time>
      </trkpt>
      <trkpt lat="42.89481" lon="-0.20347">
        <ele>1533.5</ele>
        <time>2026-07-15T12:52:22Z</time>
      </trkpt>
      <trkpt lat="42.89482" lon="-0.20347">
        <ele>1532.5</ele>
        <time>2026-07-15T12:52:23Z</time>
      </trkpt>
      <trkpt lat="42.89483" lon="-0.20348">
        <ele>1532.5</ele>
        <time>2026-07-15T12:52:24Z</time>
      </trkpt>
      <trkpt lat="42.89484" lon="-0.20348">
        <ele>1534.5</ele>
        <time>2026-07-15T12:52:25Z</time>
      </trkpt>
      <trkpt lat="42.89484" lon="-0.20348">
        <ele>1534.5</ele>
        <time>2026-07-15T12:52:25Z</time>
      </trkpt>
      <trkpt lat="42.89485" lon="-0.20348">
        <ele>1534.5</ele>
        <time>2026-07-15T12:52:26Z</time>
      </trkpt>
      <trkpt lat="42.89486" lon="-0.20349">
        <ele>1534.5</ele>
        <time>2026-07-15T12:52:27Z</time>
      </trkpt>
      <trkpt lat="42.89487" lon="-0.2035">
        <ele>1534.5</ele>
        <time>2026-07-15T12:52:28Z</time>
      </trkpt>
      <trkpt lat="42.89488" lon="-0.20351">
        <ele>1533.5</ele>
        <time>2026-07-15T12:52:29Z</time>
      </trkpt>
      <trkpt lat="42.89489" lon="-0.20351">
        <ele>1532.5</ele>
        <time>2026-07-15T12:52:30Z</time>
      </trkpt>
      <trkpt lat="42.8949" lon="-0.20351">
        <ele>1532.5</ele>
        <time>2026-07-15T12:52:30Z</time>
      </trkpt>
      <trkpt lat="42.89491" lon="-0.20352">
        <ele>1532.5</ele>
        <time>2026-07-15T12:52:31Z</time>
      </trkpt>
      <trkpt lat="42.89491" lon="-0.20352">
        <ele>1532.5</ele>
        <time>2026-07-15T12:52:32Z</time>
      </trkpt>
      <trkpt lat="42.89492" lon="-0.20353">
        <ele>1532.5</ele>
        <time>2026-07-15T12:52:33Z</time>
      </trkpt>
      <trkpt lat="42.89493" lon="-0.20353">
        <ele>1531.5</ele>
        <time>2026-07-15T12:52:33Z</time>
      </trkpt>
      <trkpt lat="42.89493" lon="-0.20353">
        <ele>1531.5</ele>
        <time>2026-07-15T12:52:34Z</time>
      </trkpt>
      <trkpt lat="42.89494" lon="-0.20353">
        <ele>1531.5</ele>
        <time>2026-07-15T12:52:34Z</time>
      </trkpt>
      <trkpt lat="42.89494" lon="-0.20353">
        <ele>1531.5</ele>
        <time>2026-07-15T12:52:35Z</time>
      </trkpt>
      <trkpt lat="42.89495" lon="-0.20354">
        <ele>1531.5</ele>
        <time>2026-07-15T12:52:36Z</time>
      </trkpt>
      <trkpt lat="42.89496" lon="-0.20355">
        <ele>1531.5</ele>
        <time>2026-07-15T12:52:37Z</time>
      </trkpt>
      <trkpt lat="42.89496" lon="-0.20355">
        <ele>1531.5</ele>
        <time>2026-07-15T12:52:37Z</time>
      </trkpt>
      <trkpt lat="42.89497" lon="-0.20355">
        <ele>1531.5</ele>
        <time>2026-07-15T12:52:38Z</time>
      </trkpt>
      <trkpt lat="42.89497" lon="-0.20355">
        <ele>1530.5</ele>
        <time>2026-07-15T12:52:38Z</time>
      </trkpt>
      <trkpt lat="42.89497" lon="-0.20356">
        <ele>1530.5</ele>
        <time>2026-07-15T12:52:39Z</time>
      </trkpt>
      <trkpt lat="42.89498" lon="-0.20357">
        <ele>1530.5</ele>
        <time>2026-07-15T12:52:40Z</time>
      </trkpt>
      <trkpt lat="42.89499" lon="-0.20358">
        <ele>1530.5</ele>
        <time>2026-07-15T12:52:41Z</time>
      </trkpt>
      <trkpt lat="42.895" lon="-0.20358">
        <ele>1529.5</ele>
        <time>2026-07-15T12:52:42Z</time>
      </trkpt>
      <trkpt lat="42.895" lon="-0.20359">
        <ele>1529.5</ele>
        <time>2026-07-15T12:52:42Z</time>
      </trkpt>
      <trkpt lat="42.895" lon="-0.20359">
        <ele>1529.5</ele>
        <time>2026-07-15T12:52:43Z</time>
      </trkpt>
      <trkpt lat="42.89501" lon="-0.2036">
        <ele>1528.5</ele>
        <time>2026-07-15T12:52:44Z</time>
      </trkpt>
      <trkpt lat="42.89502" lon="-0.2036">
        <ele>1528.5</ele>
        <time>2026-07-15T12:52:44Z</time>
      </trkpt>
      <trkpt lat="42.89502" lon="-0.20361">
        <ele>1528.5</ele>
        <time>2026-07-15T12:52:45Z</time>
      </trkpt>
      <trkpt lat="42.89503" lon="-0.20361">
        <ele>1528.5</ele>
        <time>2026-07-15T12:52:46Z</time>
      </trkpt>
      <trkpt lat="42.89504" lon="-0.20362">
        <ele>1528.5</ele>
        <time>2026-07-15T12:52:47Z</time>
      </trkpt>
      <trkpt lat="42.89505" lon="-0.20363">
        <ele>1528.5</ele>
        <time>2026-07-15T12:52:47Z</time>
      </trkpt>
      <trkpt lat="42.89505" lon="-0.20363">
        <ele>1527.5</ele>
        <time>2026-07-15T12:52:48Z</time>
      </trkpt>
      <trkpt lat="42.89506" lon="-0.20363">
        <ele>1527.5</ele>
        <time>2026-07-15T12:52:49Z</time>
      </trkpt>
      <trkpt lat="42.89506" lon="-0.20364">
        <ele>1527.5</ele>
        <time>2026-07-15T12:52:49Z</time>
      </trkpt>
      <trkpt lat="42.89507" lon="-0.20364">
        <ele>1527.5</ele>
        <time>2026-07-15T12:52:50Z</time>
      </trkpt>
      <trkpt lat="42.89507" lon="-0.20364">
        <ele>1527.5</ele>
        <time>2026-07-15T12:52:50Z</time>
      </trkpt>
      <trkpt lat="42.89508" lon="-0.20365">
        <ele>1527.5</ele>
        <time>2026-07-15T12:52:50Z</time>
      </trkpt>
      <trkpt lat="42.89508" lon="-0.20365">
        <ele>1527.5</ele>
        <time>2026-07-15T12:52:51Z</time>
      </trkpt>
      <trkpt lat="42.89509" lon="-0.20365">
        <ele>1527.5</ele>
        <time>2026-07-15T12:52:52Z</time>
      </trkpt>
      <trkpt lat="42.89511" lon="-0.20366">
        <ele>1527.5</ele>
        <time>2026-07-15T12:52:53Z</time>
      </trkpt>
      <trkpt lat="42.89511" lon="-0.20366">
        <ele>1526.5</ele>
        <time>2026-07-15T12:52:54Z</time>
      </trkpt>
      <trkpt lat="42.89511" lon="-0.20367">
        <ele>1526.5</ele>
        <time>2026-07-15T12:52:54Z</time>
      </trkpt>
      <trkpt lat="42.89512" lon="-0.20367">
        <ele>1526.5</ele>
        <time>2026-07-15T12:52:55Z</time>
      </trkpt>
      <trkpt lat="42.89512" lon="-0.20367">
        <ele>1526.5</ele>
        <time>2026-07-15T12:52:55Z</time>
      </trkpt>
      <trkpt lat="42.89513" lon="-0.20368">
        <ele>1526.5</ele>
        <time>2026-07-15T12:52:56Z</time>
      </trkpt>
      <trkpt lat="42.89514" lon="-0.20368">
        <ele>1526.5</ele>
        <time>2026-07-15T12:52:56Z</time>
      </trkpt>
      <trkpt lat="42.89514" lon="-0.20368">
        <ele>1526.5</ele>
        <time>2026-07-15T12:52:57Z</time>
      </trkpt>
      <trkpt lat="42.89515" lon="-0.20368">
        <ele>1525.5</ele>
        <time>2026-07-15T12:52:57Z</time>
      </trkpt>
      <trkpt lat="42.89516" lon="-0.20369">
        <ele>1525.5</ele>
        <time>2026-07-15T12:52:58Z</time>
      </trkpt>
      <trkpt lat="42.89517" lon="-0.20369">
        <ele>1525.5</ele>
        <time>2026-07-15T12:52:59Z</time>
      </trkpt>
      <trkpt lat="42.89517" lon="-0.20369">
        <ele>1525.5</ele>
        <time>2026-07-15T12:52:59Z</time>
      </trkpt>
      <trkpt lat="42.89518" lon="-0.20369">
        <ele>1525.5</ele>
        <time>2026-07-15T12:53:00Z</time>
      </trkpt>
      <trkpt lat="42.89519" lon="-0.20369">
        <ele>1525.5</ele>
        <time>2026-07-15T12:53:00Z</time>
      </trkpt>
      <trkpt lat="42.89519" lon="-0.2037">
        <ele>1525.5</ele>
        <time>2026-07-15T12:53:01Z</time>
      </trkpt>
      <trkpt lat="42.8952" lon="-0.2037">
        <ele>1524.5</ele>
        <time>2026-07-15T12:53:01Z</time>
      </trkpt>
      <trkpt lat="42.89521" lon="-0.2037">
        <ele>1524.5</ele>
        <time>2026-07-15T12:53:02Z</time>
      </trkpt>
      <trkpt lat="42.89522" lon="-0.20371">
        <ele>1524.5</ele>
        <time>2026-07-15T12:53:03Z</time>
      </trkpt>
      <trkpt lat="42.89522" lon="-0.20371">
        <ele>1524.5</ele>
        <time>2026-07-15T12:53:03Z</time>
      </trkpt>
      <trkpt lat="42.89523" lon="-0.20372">
        <ele>1524.5</ele>
        <time>2026-07-15T12:53:04Z</time>
      </trkpt>
      <trkpt lat="42.89523" lon="-0.20373">
        <ele>1524.5</ele>
        <time>2026-07-15T12:53:05Z</time>
      </trkpt>
      <trkpt lat="42.89524" lon="-0.20373">
        <ele>1523.5</ele>
        <time>2026-07-15T12:53:05Z</time>
      </trkpt>
      <trkpt lat="42.89524" lon="-0.20374">
        <ele>1523.5</ele>
        <time>2026-07-15T12:53:06Z</time>
      </trkpt>
      <trkpt lat="42.89525" lon="-0.20375">
        <ele>1523.5</ele>
        <time>2026-07-15T12:53:07Z</time>
      </trkpt>
      <trkpt lat="42.89526" lon="-0.20376">
        <ele>1523.5</ele>
        <time>2026-07-15T12:53:08Z</time>
      </trkpt>
      <trkpt lat="42.89526" lon="-0.20376">
        <ele>1523.5</ele>
        <time>2026-07-15T12:53:08Z</time>
      </trkpt>
      <trkpt lat="42.89527" lon="-0.20377">
        <ele>1523.5</ele>
        <time>2026-07-15T12:53:09Z</time>
      </trkpt>
      <trkpt lat="42.89528" lon="-0.20377">
        <ele>1522.5</ele>
        <time>2026-07-15T12:53:09Z</time>
      </trkpt>
      <trkpt lat="42.89529" lon="-0.20378">
        <ele>1522.5</ele>
        <time>2026-07-15T12:53:10Z</time>
      </trkpt>
      <trkpt lat="42.8953" lon="-0.20378">
        <ele>1522.5</ele>
        <time>2026-07-15T12:53:11Z</time>
      </trkpt>
      <trkpt lat="42.8953" lon="-0.20378">
        <ele>1522.5</ele>
        <time>2026-07-15T12:53:11Z</time>
      </trkpt>
      <trkpt lat="42.89531" lon="-0.20379">
        <ele>1521.5</ele>
        <time>2026-07-15T12:53:12Z</time>
      </trkpt>
      <trkpt lat="42.89532" lon="-0.20378">
        <ele>1521.5</ele>
        <time>2026-07-15T12:53:13Z</time>
      </trkpt>
      <trkpt lat="42.89533" lon="-0.20378">
        <ele>1521.5</ele>
        <time>2026-07-15T12:53:14Z</time>
      </trkpt>
      <trkpt lat="42.89534" lon="-0.20378">
        <ele>1521.5</ele>
        <time>2026-07-15T12:53:14Z</time>
      </trkpt>
      <trkpt lat="42.89534" lon="-0.20378">
        <ele>1521.5</ele>
        <time>2026-07-15T12:53:15Z</time>
      </trkpt>
      <trkpt lat="42.89535" lon="-0.20379">
        <ele>1521.5</ele>
        <time>2026-07-15T12:53:16Z</time>
      </trkpt>
      <trkpt lat="42.89535" lon="-0.2038">
        <ele>1522.5</ele>
        <time>2026-07-15T12:53:17Z</time>
      </trkpt>
      <trkpt lat="42.89536" lon="-0.2038">
        <ele>1521.5</ele>
        <time>2026-07-15T12:53:18Z</time>
      </trkpt>
      <trkpt lat="42.89536" lon="-0.2038">
        <ele>1521.5</ele>
        <time>2026-07-15T12:53:18Z</time>
      </trkpt>
      <trkpt lat="42.89537" lon="-0.20381">
        <ele>1521.5</ele>
        <time>2026-07-15T12:53:19Z</time>
      </trkpt>
      <trkpt lat="42.89537" lon="-0.20382">
        <ele>1520.5</ele>
        <time>2026-07-15T12:53:20Z</time>
      </trkpt>
      <trkpt lat="42.89538" lon="-0.20382">
        <ele>1520.5</ele>
        <time>2026-07-15T12:53:20Z</time>
      </trkpt>
      <trkpt lat="42.89538" lon="-0.20383">
        <ele>1521.5</ele>
        <time>2026-07-15T12:53:20Z</time>
      </trkpt>
      <trkpt lat="42.89539" lon="-0.20384">
        <ele>1521.5</ele>
        <time>2026-07-15T12:53:21Z</time>
      </trkpt>
      <trkpt lat="42.89539" lon="-0.20384">
        <ele>1520.5</ele>
        <time>2026-07-15T12:53:22Z</time>
      </trkpt>
      <trkpt lat="42.89539" lon="-0.20385">
        <ele>1520.5</ele>
        <time>2026-07-15T12:53:22Z</time>
      </trkpt>
      <trkpt lat="42.8954" lon="-0.20386">
        <ele>1520.5</ele>
        <time>2026-07-15T12:53:22Z</time>
      </trkpt>
      <trkpt lat="42.8954" lon="-0.20386">
        <ele>1520.5</ele>
        <time>2026-07-15T12:53:23Z</time>
      </trkpt>
      <trkpt lat="42.89541" lon="-0.20387">
        <ele>1519.5</ele>
        <time>2026-07-15T12:53:24Z</time>
      </trkpt>
      <trkpt lat="42.89541" lon="-0.20387">
        <ele>1520.5</ele>
        <time>2026-07-15T12:53:24Z</time>
      </trkpt>
      <trkpt lat="42.89542" lon="-0.20387">
        <ele>1520.5</ele>
        <time>2026-07-15T12:53:25Z</time>
      </trkpt>
      <trkpt lat="42.89542" lon="-0.20387">
        <ele>1520.5</ele>
        <time>2026-07-15T12:53:25Z</time>
      </trkpt>
      <trkpt lat="42.89543" lon="-0.20388">
        <ele>1520.5</ele>
        <time>2026-07-15T12:53:26Z</time>
      </trkpt>
      <trkpt lat="42.89544" lon="-0.20389">
        <ele>1520.5</ele>
        <time>2026-07-15T12:53:27Z</time>
      </trkpt>
      <trkpt lat="42.89545" lon="-0.20389">
        <ele>1520.5</ele>
        <time>2026-07-15T12:53:28Z</time>
      </trkpt>
      <trkpt lat="42.89546" lon="-0.20391">
        <ele>1519.5</ele>
        <time>2026-07-15T12:53:29Z</time>
      </trkpt>
      <trkpt lat="42.89547" lon="-0.20392">
        <ele>1519.5</ele>
        <time>2026-07-15T12:53:30Z</time>
      </trkpt>
      <trkpt lat="42.89547" lon="-0.20393">
        <ele>1519.5</ele>
        <time>2026-07-15T12:53:30Z</time>
      </trkpt>
      <trkpt lat="42.89548" lon="-0.20393">
        <ele>1519.5</ele>
        <time>2026-07-15T12:53:31Z</time>
      </trkpt>
      <trkpt lat="42.89548" lon="-0.20394">
        <ele>1519.5</ele>
        <time>2026-07-15T12:53:31Z</time>
      </trkpt>
      <trkpt lat="42.89549" lon="-0.20394">
        <ele>1519.5</ele>
        <time>2026-07-15T12:53:32Z</time>
      </trkpt>
      <trkpt lat="42.8955" lon="-0.20395">
        <ele>1518.5</ele>
        <time>2026-07-15T12:53:33Z</time>
      </trkpt>
      <trkpt lat="42.89551" lon="-0.20395">
        <ele>1518.5</ele>
        <time>2026-07-15T12:53:34Z</time>
      </trkpt>
      <trkpt lat="42.89552" lon="-0.20395">
        <ele>1518.5</ele>
        <time>2026-07-15T12:53:34Z</time>
      </trkpt>
      <trkpt lat="42.89553" lon="-0.20395">
        <ele>1518.5</ele>
        <time>2026-07-15T12:53:35Z</time>
      </trkpt>
      <trkpt lat="42.89554" lon="-0.20396">
        <ele>1518.5</ele>
        <time>2026-07-15T12:53:36Z</time>
      </trkpt>
      <trkpt lat="42.89555" lon="-0.20396">
        <ele>1518.5</ele>
        <time>2026-07-15T12:53:37Z</time>
      </trkpt>
      <trkpt lat="42.89556" lon="-0.20397">
        <ele>1518.5</ele>
        <time>2026-07-15T12:53:38Z</time>
      </trkpt>
      <trkpt lat="42.89557" lon="-0.20397">
        <ele>1517.5</ele>
        <time>2026-07-15T12:53:39Z</time>
      </trkpt>
      <trkpt lat="42.89558" lon="-0.20397">
        <ele>1517.5</ele>
        <time>2026-07-15T12:53:39Z</time>
      </trkpt>
      <trkpt lat="42.89559" lon="-0.20398">
        <ele>1517.5</ele>
        <time>2026-07-15T12:53:40Z</time>
      </trkpt>
      <trkpt lat="42.8956" lon="-0.20399">
        <ele>1517.5</ele>
        <time>2026-07-15T12:53:41Z</time>
      </trkpt>
      <trkpt lat="42.8956" lon="-0.204">
        <ele>1517.5</ele>
        <time>2026-07-15T12:53:42Z</time>
      </trkpt>
      <trkpt lat="42.89561" lon="-0.204">
        <ele>1516.5</ele>
        <time>2026-07-15T12:53:42Z</time>
      </trkpt>
      <trkpt lat="42.89561" lon="-0.20401">
        <ele>1516.5</ele>
        <time>2026-07-15T12:53:43Z</time>
      </trkpt>
      <trkpt lat="42.89562" lon="-0.20402">
        <ele>1516.5</ele>
        <time>2026-07-15T12:53:44Z</time>
      </trkpt>
      <trkpt lat="42.89563" lon="-0.20404">
        <ele>1516.5</ele>
        <time>2026-07-15T12:53:45Z</time>
      </trkpt>
      <trkpt lat="42.89563" lon="-0.20406">
        <ele>1516.5</ele>
        <time>2026-07-15T12:53:46Z</time>
      </trkpt>
      <trkpt lat="42.89563" lon="-0.20407">
        <ele>1516.5</ele>
        <time>2026-07-15T12:53:47Z</time>
      </trkpt>
      <trkpt lat="42.89563" lon="-0.20408">
        <ele>1515.5</ele>
        <time>2026-07-15T12:53:48Z</time>
      </trkpt>
      <trkpt lat="42.89564" lon="-0.20409">
        <ele>1515.5</ele>
        <time>2026-07-15T12:53:49Z</time>
      </trkpt>
      <trkpt lat="42.89564" lon="-0.20409">
        <ele>1514.5</ele>
        <time>2026-07-15T12:53:49Z</time>
      </trkpt>
      <trkpt lat="42.89565" lon="-0.20409">
        <ele>1513.5</ele>
        <time>2026-07-15T12:53:50Z</time>
      </trkpt>
      <trkpt lat="42.89566" lon="-0.20411">
        <ele>1513.5</ele>
        <time>2026-07-15T12:53:51Z</time>
      </trkpt>
      <trkpt lat="42.89567" lon="-0.20412">
        <ele>1514.5</ele>
        <time>2026-07-15T12:53:52Z</time>
      </trkpt>
      <trkpt lat="42.89568" lon="-0.20412">
        <ele>1514.5</ele>
        <time>2026-07-15T12:53:53Z</time>
      </trkpt>
      <trkpt lat="42.89568" lon="-0.20413">
        <ele>1513.5</ele>
        <time>2026-07-15T12:53:54Z</time>
      </trkpt>
      <trkpt lat="42.89568" lon="-0.20415">
        <ele>1513.5</ele>
        <time>2026-07-15T12:53:55Z</time>
      </trkpt>
      <trkpt lat="42.89569" lon="-0.20415">
        <ele>1513.5</ele>
        <time>2026-07-15T12:53:55Z</time>
      </trkpt>
      <trkpt lat="42.89569" lon="-0.20416">
        <ele>1513.5</ele>
        <time>2026-07-15T12:53:56Z</time>
      </trkpt>
      <trkpt lat="42.89569" lon="-0.20416">
        <ele>1513.5</ele>
        <time>2026-07-15T12:53:56Z</time>
      </trkpt>
      <trkpt lat="42.8957" lon="-0.20417">
        <ele>1513.5</ele>
        <time>2026-07-15T12:53:57Z</time>
      </trkpt>
      <trkpt lat="42.8957" lon="-0.20418">
        <ele>1513.5</ele>
        <time>2026-07-15T12:53:58Z</time>
      </trkpt>
      <trkpt lat="42.89571" lon="-0.20419">
        <ele>1512.5</ele>
        <time>2026-07-15T12:53:58Z</time>
      </trkpt>
      <trkpt lat="42.89571" lon="-0.2042">
        <ele>1512.5</ele>
        <time>2026-07-15T12:53:59Z</time>
      </trkpt>
      <trkpt lat="42.89571" lon="-0.2042">
        <ele>1512.5</ele>
        <time>2026-07-15T12:53:59Z</time>
      </trkpt>
      <trkpt lat="42.89572" lon="-0.20421">
        <ele>1512.5</ele>
        <time>2026-07-15T12:54:00Z</time>
      </trkpt>
      <trkpt lat="42.89572" lon="-0.20421">
        <ele>1512.5</ele>
        <time>2026-07-15T12:54:00Z</time>
      </trkpt>
      <trkpt lat="42.89573" lon="-0.20422">
        <ele>1512.5</ele>
        <time>2026-07-15T12:54:01Z</time>
      </trkpt>
      <trkpt lat="42.89574" lon="-0.20422">
        <ele>1511.5</ele>
        <time>2026-07-15T12:54:02Z</time>
      </trkpt>
      <trkpt lat="42.89575" lon="-0.20423">
        <ele>1511.5</ele>
        <time>2026-07-15T12:54:03Z</time>
      </trkpt>
      <trkpt lat="42.89575" lon="-0.20423">
        <ele>1511.5</ele>
        <time>2026-07-15T12:54:03Z</time>
      </trkpt>
      <trkpt lat="42.89576" lon="-0.20424">
        <ele>1511.5</ele>
        <time>2026-07-15T12:54:04Z</time>
      </trkpt>
      <trkpt lat="42.89577" lon="-0.20425">
        <ele>1511.5</ele>
        <time>2026-07-15T12:54:05Z</time>
      </trkpt>
      <trkpt lat="42.89578" lon="-0.20425">
        <ele>1511.5</ele>
        <time>2026-07-15T12:54:06Z</time>
      </trkpt>
      <trkpt lat="42.89578" lon="-0.20426">
        <ele>1511.5</ele>
        <time>2026-07-15T12:54:06Z</time>
      </trkpt>
      <trkpt lat="42.89579" lon="-0.20426">
        <ele>1511.5</ele>
        <time>2026-07-15T12:54:07Z</time>
      </trkpt>
      <trkpt lat="42.89579" lon="-0.20426">
        <ele>1511.5</ele>
        <time>2026-07-15T12:54:08Z</time>
      </trkpt>
      <trkpt lat="42.8958" lon="-0.20426">
        <ele>1510.5</ele>
        <time>2026-07-15T12:54:08Z</time>
      </trkpt>
      <trkpt lat="42.8958" lon="-0.20427">
        <ele>1510.5</ele>
        <time>2026-07-15T12:54:09Z</time>
      </trkpt>
      <trkpt lat="42.89581" lon="-0.20427">
        <ele>1510.5</ele>
        <time>2026-07-15T12:54:09Z</time>
      </trkpt>
      <trkpt lat="42.89582" lon="-0.20427">
        <ele>1510.5</ele>
        <time>2026-07-15T12:54:10Z</time>
      </trkpt>
      <trkpt lat="42.89582" lon="-0.20428">
        <ele>1510.5</ele>
        <time>2026-07-15T12:54:10Z</time>
      </trkpt>
      <trkpt lat="42.89583" lon="-0.20428">
        <ele>1511.5</ele>
        <time>2026-07-15T12:54:11Z</time>
      </trkpt>
      <trkpt lat="42.89584" lon="-0.20429">
        <ele>1511.5</ele>
        <time>2026-07-15T12:54:12Z</time>
      </trkpt>
      <trkpt lat="42.89584" lon="-0.2043">
        <ele>1511.5</ele>
        <time>2026-07-15T12:54:12Z</time>
      </trkpt>
      <trkpt lat="42.89585" lon="-0.20431">
        <ele>1510.5</ele>
        <time>2026-07-15T12:54:13Z</time>
      </trkpt>
      <trkpt lat="42.89585" lon="-0.20432">
        <ele>1510.5</ele>
        <time>2026-07-15T12:54:14Z</time>
      </trkpt>
      <trkpt lat="42.89585" lon="-0.20432">
        <ele>1510.5</ele>
        <time>2026-07-15T12:54:14Z</time>
      </trkpt>
      <trkpt lat="42.89585" lon="-0.20433">
        <ele>1510.5</ele>
        <time>2026-07-15T12:54:15Z</time>
      </trkpt>
      <trkpt lat="42.89586" lon="-0.20434">
        <ele>1510.5</ele>
        <time>2026-07-15T12:54:16Z</time>
      </trkpt>
      <trkpt lat="42.89586" lon="-0.20435">
        <ele>1510.5</ele>
        <time>2026-07-15T12:54:16Z</time>
      </trkpt>
      <trkpt lat="42.89587" lon="-0.20436">
        <ele>1510.5</ele>
        <time>2026-07-15T12:54:17Z</time>
      </trkpt>
      <trkpt lat="42.89587" lon="-0.20436">
        <ele>1509.5</ele>
        <time>2026-07-15T12:54:17Z</time>
      </trkpt>
      <trkpt lat="42.89587" lon="-0.20437">
        <ele>1509.5</ele>
        <time>2026-07-15T12:54:18Z</time>
      </trkpt>
      <trkpt lat="42.89588" lon="-0.20438">
        <ele>1509.5</ele>
        <time>2026-07-15T12:54:18Z</time>
      </trkpt>
      <trkpt lat="42.89588" lon="-0.20439">
        <ele>1509.5</ele>
        <time>2026-07-15T12:54:19Z</time>
      </trkpt>
      <trkpt lat="42.89589" lon="-0.20439">
        <ele>1509.5</ele>
        <time>2026-07-15T12:54:20Z</time>
      </trkpt>
      <trkpt lat="42.8959" lon="-0.20441">
        <ele>1509.5</ele>
        <time>2026-07-15T12:54:21Z</time>
      </trkpt>
      <trkpt lat="42.89591" lon="-0.20441">
        <ele>1508.5</ele>
        <time>2026-07-15T12:54:21Z</time>
      </trkpt>
      <trkpt lat="42.89591" lon="-0.20442">
        <ele>1508.5</ele>
        <time>2026-07-15T12:54:22Z</time>
      </trkpt>
      <trkpt lat="42.89592" lon="-0.20443">
        <ele>1508.5</ele>
        <time>2026-07-15T12:54:23Z</time>
      </trkpt>
      <trkpt lat="42.89592" lon="-0.20443">
        <ele>1507.5</ele>
        <time>2026-07-15T12:54:23Z</time>
      </trkpt>
      <trkpt lat="42.89592" lon="-0.20444">
        <ele>1508.5</ele>
        <time>2026-07-15T12:54:24Z</time>
      </trkpt>
      <trkpt lat="42.89591" lon="-0.20444">
        <ele>1508.5</ele>
        <time>2026-07-15T12:54:25Z</time>
      </trkpt>
      <trkpt lat="42.89591" lon="-0.20444">
        <ele>1508.5</ele>
        <time>2026-07-15T12:54:26Z</time>
      </trkpt>
      <trkpt lat="42.89591" lon="-0.20442">
        <ele>1508.5</ele>
        <time>2026-07-15T12:54:27Z</time>
      </trkpt>
      <trkpt lat="42.89591" lon="-0.20441">
        <ele>1508.5</ele>
        <time>2026-07-15T12:54:28Z</time>
      </trkpt>
      <trkpt lat="42.89592" lon="-0.20441">
        <ele>1508.5</ele>
        <time>2026-07-15T12:54:28Z</time>
      </trkpt>
      <trkpt lat="42.89592" lon="-0.20441">
        <ele>1508.5</ele>
        <time>2026-07-15T12:54:29Z</time>
      </trkpt>
      <trkpt lat="42.89592" lon="-0.20441">
        <ele>1507.5</ele>
        <time>2026-07-15T12:54:30Z</time>
      </trkpt>
      <trkpt lat="42.89593" lon="-0.20442">
        <ele>1506.5</ele>
        <time>2026-07-15T12:54:31Z</time>
      </trkpt>
      <trkpt lat="42.89595" lon="-0.20444">
        <ele>1506.5</ele>
        <time>2026-07-15T12:54:32Z</time>
      </trkpt>
      <trkpt lat="42.89597" lon="-0.20444">
        <ele>1506.5</ele>
        <time>2026-07-15T12:54:33Z</time>
      </trkpt>
      <trkpt lat="42.89599" lon="-0.20445">
        <ele>1506.5</ele>
        <time>2026-07-15T12:54:34Z</time>
      </trkpt>
      <trkpt lat="42.896" lon="-0.20445">
        <ele>1506.5</ele>
        <time>2026-07-15T12:54:34Z</time>
      </trkpt>
      <trkpt lat="42.896" lon="-0.20445">
        <ele>1506.5</ele>
        <time>2026-07-15T12:54:35Z</time>
      </trkpt>
      <trkpt lat="42.89602" lon="-0.20446">
        <ele>1506.5</ele>
        <time>2026-07-15T12:54:36Z</time>
      </trkpt>
      <trkpt lat="42.89602" lon="-0.20446">
        <ele>1507.5</ele>
        <time>2026-07-15T12:54:36Z</time>
      </trkpt>
      <trkpt lat="42.89603" lon="-0.20447">
        <ele>1507.5</ele>
        <time>2026-07-15T12:54:37Z</time>
      </trkpt>
      <trkpt lat="42.89604" lon="-0.20449">
        <ele>1506.5</ele>
        <time>2026-07-15T12:54:38Z</time>
      </trkpt>
      <trkpt lat="42.89604" lon="-0.20449">
        <ele>1506.5</ele>
        <time>2026-07-15T12:54:38Z</time>
      </trkpt>
      <trkpt lat="42.89605" lon="-0.2045">
        <ele>1506.5</ele>
        <time>2026-07-15T12:54:39Z</time>
      </trkpt>
      <trkpt lat="42.89606" lon="-0.20451">
        <ele>1506.5</ele>
        <time>2026-07-15T12:54:40Z</time>
      </trkpt>
      <trkpt lat="42.89607" lon="-0.20452">
        <ele>1506.5</ele>
        <time>2026-07-15T12:54:41Z</time>
      </trkpt>
      <trkpt lat="42.89608" lon="-0.20454">
        <ele>1506.5</ele>
        <time>2026-07-15T12:54:42Z</time>
      </trkpt>
      <trkpt lat="42.89609" lon="-0.20454">
        <ele>1506.5</ele>
        <time>2026-07-15T12:54:43Z</time>
      </trkpt>
      <trkpt lat="42.8961" lon="-0.20455">
        <ele>1506.5</ele>
        <time>2026-07-15T12:54:44Z</time>
      </trkpt>
      <trkpt lat="42.8961" lon="-0.20455">
        <ele>1506.5</ele>
        <time>2026-07-15T12:54:44Z</time>
      </trkpt>
      <trkpt lat="42.89611" lon="-0.20456">
        <ele>1506.5</ele>
        <time>2026-07-15T12:54:45Z</time>
      </trkpt>
      <trkpt lat="42.89611" lon="-0.20456">
        <ele>1505.5</ele>
        <time>2026-07-15T12:54:45Z</time>
      </trkpt>
      <trkpt lat="42.89612" lon="-0.20456">
        <ele>1505.5</ele>
        <time>2026-07-15T12:54:46Z</time>
      </trkpt>
      <trkpt lat="42.89613" lon="-0.20457">
        <ele>1505.5</ele>
        <time>2026-07-15T12:54:47Z</time>
      </trkpt>
      <trkpt lat="42.89613" lon="-0.20457">
        <ele>1505.5</ele>
        <time>2026-07-15T12:54:47Z</time>
      </trkpt>
      <trkpt lat="42.89614" lon="-0.20457">
        <ele>1505.5</ele>
        <time>2026-07-15T12:54:48Z</time>
      </trkpt>
      <trkpt lat="42.89615" lon="-0.20457">
        <ele>1505.5</ele>
        <time>2026-07-15T12:54:48Z</time>
      </trkpt>
      <trkpt lat="42.89615" lon="-0.20457">
        <ele>1505.5</ele>
        <time>2026-07-15T12:54:49Z</time>
      </trkpt>
      <trkpt lat="42.89616" lon="-0.20457">
        <ele>1505.5</ele>
        <time>2026-07-15T12:54:50Z</time>
      </trkpt>
      <trkpt lat="42.89616" lon="-0.20458">
        <ele>1505.5</ele>
        <time>2026-07-15T12:54:50Z</time>
      </trkpt>
      <trkpt lat="42.89618" lon="-0.20458">
        <ele>1505.5</ele>
        <time>2026-07-15T12:54:51Z</time>
      </trkpt>
      <trkpt lat="42.89618" lon="-0.20458">
        <ele>1505.5</ele>
        <time>2026-07-15T12:54:51Z</time>
      </trkpt>
      <trkpt lat="42.89619" lon="-0.20459">
        <ele>1504.5</ele>
        <time>2026-07-15T12:54:52Z</time>
      </trkpt>
      <trkpt lat="42.89619" lon="-0.20459">
        <ele>1504.5</ele>
        <time>2026-07-15T12:54:53Z</time>
      </trkpt>
      <trkpt lat="42.8962" lon="-0.20459">
        <ele>1504.5</ele>
        <time>2026-07-15T12:54:53Z</time>
      </trkpt>
      <trkpt lat="42.8962" lon="-0.20459">
        <ele>1504.5</ele>
        <time>2026-07-15T12:54:54Z</time>
      </trkpt>
      <trkpt lat="42.89621" lon="-0.20459">
        <ele>1504.5</ele>
        <time>2026-07-15T12:54:54Z</time>
      </trkpt>
      <trkpt lat="42.89622" lon="-0.2046">
        <ele>1504.5</ele>
        <time>2026-07-15T12:54:55Z</time>
      </trkpt>
      <trkpt lat="42.89622" lon="-0.2046">
        <ele>1504.5</ele>
        <time>2026-07-15T12:54:55Z</time>
      </trkpt>
      <trkpt lat="42.89623" lon="-0.20461">
        <ele>1503.5</ele>
        <time>2026-07-15T12:54:56Z</time>
      </trkpt>
      <trkpt lat="42.89623" lon="-0.20461">
        <ele>1503.5</ele>
        <time>2026-07-15T12:54:57Z</time>
      </trkpt>
      <trkpt lat="42.89624" lon="-0.20461">
        <ele>1502.5</ele>
        <time>2026-07-15T12:54:57Z</time>
      </trkpt>
      <trkpt lat="42.89625" lon="-0.20461">
        <ele>1503.5</ele>
        <time>2026-07-15T12:54:58Z</time>
      </trkpt>
      <trkpt lat="42.89625" lon="-0.20461">
        <ele>1503.5</ele>
        <time>2026-07-15T12:54:59Z</time>
      </trkpt>
      <trkpt lat="42.89626" lon="-0.20462">
        <ele>1503.5</ele>
        <time>2026-07-15T12:54:59Z</time>
      </trkpt>
      <trkpt lat="42.89626" lon="-0.20462">
        <ele>1503.5</ele>
        <time>2026-07-15T12:55:00Z</time>
      </trkpt>
      <trkpt lat="42.89627" lon="-0.20462">
        <ele>1502.5</ele>
        <time>2026-07-15T12:55:00Z</time>
      </trkpt>
      <trkpt lat="42.89628" lon="-0.20462">
        <ele>1502.5</ele>
        <time>2026-07-15T12:55:01Z</time>
      </trkpt>
      <trkpt lat="42.89629" lon="-0.20463">
        <ele>1502.5</ele>
        <time>2026-07-15T12:55:02Z</time>
      </trkpt>
      <trkpt lat="42.89629" lon="-0.20463">
        <ele>1502.5</ele>
        <time>2026-07-15T12:55:02Z</time>
      </trkpt>
      <trkpt lat="42.8963" lon="-0.20464">
        <ele>1502.5</ele>
        <time>2026-07-15T12:55:03Z</time>
      </trkpt>
      <trkpt lat="42.89631" lon="-0.20464">
        <ele>1502.5</ele>
        <time>2026-07-15T12:55:04Z</time>
      </trkpt>
      <trkpt lat="42.89632" lon="-0.20464">
        <ele>1502.5</ele>
        <time>2026-07-15T12:55:04Z</time>
      </trkpt>
      <trkpt lat="42.89632" lon="-0.20465">
        <ele>1502.5</ele>
        <time>2026-07-15T12:55:05Z</time>
      </trkpt>
      <trkpt lat="42.89633" lon="-0.20465">
        <ele>1502.5</ele>
        <time>2026-07-15T12:55:06Z</time>
      </trkpt>
      <trkpt lat="42.89634" lon="-0.20465">
        <ele>1501.5</ele>
        <time>2026-07-15T12:55:06Z</time>
      </trkpt>
      <trkpt lat="42.89635" lon="-0.20465">
        <ele>1501.5</ele>
        <time>2026-07-15T12:55:07Z</time>
      </trkpt>
      <trkpt lat="42.89636" lon="-0.20465">
        <ele>1501.5</ele>
        <time>2026-07-15T12:55:08Z</time>
      </trkpt>
      <trkpt lat="42.89636" lon="-0.20465">
        <ele>1500.5</ele>
        <time>2026-07-15T12:55:08Z</time>
      </trkpt>
      <trkpt lat="42.89637" lon="-0.20465">
        <ele>1500.5</ele>
        <time>2026-07-15T12:55:09Z</time>
      </trkpt>
      <trkpt lat="42.89638" lon="-0.20465">
        <ele>1500.5</ele>
        <time>2026-07-15T12:55:09Z</time>
      </trkpt>
      <trkpt lat="42.89638" lon="-0.20466">
        <ele>1500.5</ele>
        <time>2026-07-15T12:55:10Z</time>
      </trkpt>
      <trkpt lat="42.89639" lon="-0.20466">
        <ele>1500.5</ele>
        <time>2026-07-15T12:55:11Z</time>
      </trkpt>
      <trkpt lat="42.8964" lon="-0.20466">
        <ele>1500.5</ele>
        <time>2026-07-15T12:55:12Z</time>
      </trkpt>
      <trkpt lat="42.89641" lon="-0.20466">
        <ele>1500.5</ele>
        <time>2026-07-15T12:55:12Z</time>
      </trkpt>
      <trkpt lat="42.89641" lon="-0.20466">
        <ele>1500.5</ele>
        <time>2026-07-15T12:55:13Z</time>
      </trkpt>
      <trkpt lat="42.89642" lon="-0.20466">
        <ele>1500.5</ele>
        <time>2026-07-15T12:55:13Z</time>
      </trkpt>
      <trkpt lat="42.89643" lon="-0.20466">
        <ele>1500.5</ele>
        <time>2026-07-15T12:55:13Z</time>
      </trkpt>
      <trkpt lat="42.89643" lon="-0.20467">
        <ele>1500.5</ele>
        <time>2026-07-15T12:55:14Z</time>
      </trkpt>
      <trkpt lat="42.89644" lon="-0.20467">
        <ele>1499.5</ele>
        <time>2026-07-15T12:55:15Z</time>
      </trkpt>
      <trkpt lat="42.89646" lon="-0.20468">
        <ele>1499.5</ele>
        <time>2026-07-15T12:55:16Z</time>
      </trkpt>
      <trkpt lat="42.89646" lon="-0.20468">
        <ele>1499.5</ele>
        <time>2026-07-15T12:55:17Z</time>
      </trkpt>
      <trkpt lat="42.89647" lon="-0.20469">
        <ele>1500.5</ele>
        <time>2026-07-15T12:55:18Z</time>
      </trkpt>
      <trkpt lat="42.89649" lon="-0.20469">
        <ele>1500.5</ele>
        <time>2026-07-15T12:55:18Z</time>
      </trkpt>
      <trkpt lat="42.89649" lon="-0.20469">
        <ele>1499.5</ele>
        <time>2026-07-15T12:55:19Z</time>
      </trkpt>
      <trkpt lat="42.8965" lon="-0.20469">
        <ele>1499.5</ele>
        <time>2026-07-15T12:55:20Z</time>
      </trkpt>
      <trkpt lat="42.89651" lon="-0.20469">
        <ele>1499.5</ele>
        <time>2026-07-15T12:55:20Z</time>
      </trkpt>
      <trkpt lat="42.89652" lon="-0.2047">
        <ele>1498.5</ele>
        <time>2026-07-15T12:55:21Z</time>
      </trkpt>
      <trkpt lat="42.89653" lon="-0.2047">
        <ele>1498.5</ele>
        <time>2026-07-15T12:55:22Z</time>
      </trkpt>
      <trkpt lat="42.89653" lon="-0.20471">
        <ele>1499.5</ele>
        <time>2026-07-15T12:55:22Z</time>
      </trkpt>
      <trkpt lat="42.89654" lon="-0.20471">
        <ele>1499.5</ele>
        <time>2026-07-15T12:55:23Z</time>
      </trkpt>
      <trkpt lat="42.89655" lon="-0.20472">
        <ele>1499.5</ele>
        <time>2026-07-15T12:55:24Z</time>
      </trkpt>
      <trkpt lat="42.89655" lon="-0.20473">
        <ele>1498.5</ele>
        <time>2026-07-15T12:55:24Z</time>
      </trkpt>
      <trkpt lat="42.89656" lon="-0.20474">
        <ele>1498.5</ele>
        <time>2026-07-15T12:55:25Z</time>
      </trkpt>
      <trkpt lat="42.89657" lon="-0.20475">
        <ele>1498.5</ele>
        <time>2026-07-15T12:55:26Z</time>
      </trkpt>
      <trkpt lat="42.89658" lon="-0.20475">
        <ele>1498.5</ele>
        <time>2026-07-15T12:55:26Z</time>
      </trkpt>
      <trkpt lat="42.89658" lon="-0.20475">
        <ele>1498.5</ele>
        <time>2026-07-15T12:55:27Z</time>
      </trkpt>
      <trkpt lat="42.89659" lon="-0.20476">
        <ele>1497.5</ele>
        <time>2026-07-15T12:55:27Z</time>
      </trkpt>
      <trkpt lat="42.89659" lon="-0.20476">
        <ele>1497.5</ele>
        <time>2026-07-15T12:55:28Z</time>
      </trkpt>
      <trkpt lat="42.8966" lon="-0.20476">
        <ele>1498.5</ele>
        <time>2026-07-15T12:55:28Z</time>
      </trkpt>
      <trkpt lat="42.89661" lon="-0.20477">
        <ele>1497.5</ele>
        <time>2026-07-15T12:55:29Z</time>
      </trkpt>
      <trkpt lat="42.89662" lon="-0.20477">
        <ele>1497.5</ele>
        <time>2026-07-15T12:55:30Z</time>
      </trkpt>
      <trkpt lat="42.89662" lon="-0.20478">
        <ele>1497.5</ele>
        <time>2026-07-15T12:55:30Z</time>
      </trkpt>
      <trkpt lat="42.89663" lon="-0.20478">
        <ele>1497.5</ele>
        <time>2026-07-15T12:55:31Z</time>
      </trkpt>
      <trkpt lat="42.89664" lon="-0.20479">
        <ele>1497.5</ele>
        <time>2026-07-15T12:55:32Z</time>
      </trkpt>
      <trkpt lat="42.89664" lon="-0.2048">
        <ele>1496.5</ele>
        <time>2026-07-15T12:55:32Z</time>
      </trkpt>
      <trkpt lat="42.89665" lon="-0.2048">
        <ele>1496.5</ele>
        <time>2026-07-15T12:55:33Z</time>
      </trkpt>
      <trkpt lat="42.89666" lon="-0.20481">
        <ele>1496.5</ele>
        <time>2026-07-15T12:55:34Z</time>
      </trkpt>
      <trkpt lat="42.89666" lon="-0.20481">
        <ele>1496.5</ele>
        <time>2026-07-15T12:55:34Z</time>
      </trkpt>
      <trkpt lat="42.89667" lon="-0.20481">
        <ele>1496.5</ele>
        <time>2026-07-15T12:55:35Z</time>
      </trkpt>
      <trkpt lat="42.89667" lon="-0.20482">
        <ele>1496.5</ele>
        <time>2026-07-15T12:55:35Z</time>
      </trkpt>
      <trkpt lat="42.89668" lon="-0.20482">
        <ele>1496.5</ele>
        <time>2026-07-15T12:55:36Z</time>
      </trkpt>
      <trkpt lat="42.89669" lon="-0.20483">
        <ele>1496.5</ele>
        <time>2026-07-15T12:55:37Z</time>
      </trkpt>
      <trkpt lat="42.89669" lon="-0.20483">
        <ele>1495.5</ele>
        <time>2026-07-15T12:55:38Z</time>
      </trkpt>
      <trkpt lat="42.8967" lon="-0.20484">
        <ele>1496.5</ele>
        <time>2026-07-15T12:55:38Z</time>
      </trkpt>
      <trkpt lat="42.89671" lon="-0.20484">
        <ele>1496.5</ele>
        <time>2026-07-15T12:55:39Z</time>
      </trkpt>
      <trkpt lat="42.89672" lon="-0.20485">
        <ele>1496.5</ele>
        <time>2026-07-15T12:55:40Z</time>
      </trkpt>
      <trkpt lat="42.89672" lon="-0.20485">
        <ele>1496.5</ele>
        <time>2026-07-15T12:55:41Z</time>
      </trkpt>
      <trkpt lat="42.89673" lon="-0.20486">
        <ele>1496.5</ele>
        <time>2026-07-15T12:55:42Z</time>
      </trkpt>
      <trkpt lat="42.89674" lon="-0.20486">
        <ele>1496.5</ele>
        <time>2026-07-15T12:55:43Z</time>
      </trkpt>
      <trkpt lat="42.89675" lon="-0.20487">
        <ele>1496.5</ele>
        <time>2026-07-15T12:55:44Z</time>
      </trkpt>
      <trkpt lat="42.89675" lon="-0.20487">
        <ele>1496.5</ele>
        <time>2026-07-15T12:55:44Z</time>
      </trkpt>
      <trkpt lat="42.89676" lon="-0.20487">
        <ele>1496.5</ele>
        <time>2026-07-15T12:55:45Z</time>
      </trkpt>
      <trkpt lat="42.89676" lon="-0.20488">
        <ele>1495.5</ele>
        <time>2026-07-15T12:55:45Z</time>
      </trkpt>
      <trkpt lat="42.89677" lon="-0.20488">
        <ele>1495.5</ele>
        <time>2026-07-15T12:55:46Z</time>
      </trkpt>
      <trkpt lat="42.89678" lon="-0.20489">
        <ele>1495.5</ele>
        <time>2026-07-15T12:55:47Z</time>
      </trkpt>
      <trkpt lat="42.89679" lon="-0.20489">
        <ele>1496.5</ele>
        <time>2026-07-15T12:55:48Z</time>
      </trkpt>
      <trkpt lat="42.89679" lon="-0.2049">
        <ele>1495.5</ele>
        <time>2026-07-15T12:55:48Z</time>
      </trkpt>
      <trkpt lat="42.8968" lon="-0.2049">
        <ele>1495.5</ele>
        <time>2026-07-15T12:55:49Z</time>
      </trkpt>
      <trkpt lat="42.8968" lon="-0.2049">
        <ele>1495.5</ele>
        <time>2026-07-15T12:55:49Z</time>
      </trkpt>
      <trkpt lat="42.89681" lon="-0.2049">
        <ele>1495.5</ele>
        <time>2026-07-15T12:55:50Z</time>
      </trkpt>
      <trkpt lat="42.89681" lon="-0.20491">
        <ele>1495.5</ele>
        <time>2026-07-15T12:55:50Z</time>
      </trkpt>
      <trkpt lat="42.89682" lon="-0.20491">
        <ele>1495.5</ele>
        <time>2026-07-15T12:55:51Z</time>
      </trkpt>
      <trkpt lat="42.89682" lon="-0.20492">
        <ele>1495.5</ele>
        <time>2026-07-15T12:55:51Z</time>
      </trkpt>
      <trkpt lat="42.89683" lon="-0.20492">
        <ele>1494.5</ele>
        <time>2026-07-15T12:55:52Z</time>
      </trkpt>
      <trkpt lat="42.89683" lon="-0.20493">
        <ele>1494.5</ele>
        <time>2026-07-15T12:55:53Z</time>
      </trkpt>
      <trkpt lat="42.89684" lon="-0.20493">
        <ele>1495.5</ele>
        <time>2026-07-15T12:55:53Z</time>
      </trkpt>
      <trkpt lat="42.89684" lon="-0.20493">
        <ele>1495.5</ele>
        <time>2026-07-15T12:55:54Z</time>
      </trkpt>
      <trkpt lat="42.89685" lon="-0.20494">
        <ele>1495.5</ele>
        <time>2026-07-15T12:55:54Z</time>
      </trkpt>
      <trkpt lat="42.89685" lon="-0.20495">
        <ele>1495.5</ele>
        <time>2026-07-15T12:55:55Z</time>
      </trkpt>
      <trkpt lat="42.89686" lon="-0.20495">
        <ele>1495.5</ele>
        <time>2026-07-15T12:55:55Z</time>
      </trkpt>
      <trkpt lat="42.89686" lon="-0.20495">
        <ele>1495.5</ele>
        <time>2026-07-15T12:55:56Z</time>
      </trkpt>
      <trkpt lat="42.89686" lon="-0.20495">
        <ele>1495.5</ele>
        <time>2026-07-15T12:55:57Z</time>
      </trkpt>
      <trkpt lat="42.89687" lon="-0.20495">
        <ele>1495.5</ele>
        <time>2026-07-15T12:55:57Z</time>
      </trkpt>
      <trkpt lat="42.89687" lon="-0.20495">
        <ele>1493.5</ele>
        <time>2026-07-15T12:55:58Z</time>
      </trkpt>
      <trkpt lat="42.89686" lon="-0.20494">
        <ele>1492.5</ele>
        <time>2026-07-15T12:55:59Z</time>
      </trkpt>
      <trkpt lat="42.89686" lon="-0.20493">
        <ele>1492.5</ele>
        <time>2026-07-15T12:56:00Z</time>
      </trkpt>
      <trkpt lat="42.89686" lon="-0.20494">
        <ele>1492.5</ele>
        <time>2026-07-15T12:56:01Z</time>
      </trkpt>
      <trkpt lat="42.89686" lon="-0.20494">
        <ele>1492.5</ele>
        <time>2026-07-15T12:56:01Z</time>
      </trkpt>
      <trkpt lat="42.89686" lon="-0.20495">
        <ele>1492.5</ele>
        <time>2026-07-15T12:56:02Z</time>
      </trkpt>
      <trkpt lat="42.89687" lon="-0.20495">
        <ele>1492.5</ele>
        <time>2026-07-15T12:56:02Z</time>
      </trkpt>
      <trkpt lat="42.89687" lon="-0.20496">
        <ele>1492.5</ele>
        <time>2026-07-15T12:56:03Z</time>
      </trkpt>
      <trkpt lat="42.89688" lon="-0.20497">
        <ele>1492.5</ele>
        <time>2026-07-15T12:56:04Z</time>
      </trkpt>
      <trkpt lat="42.89689" lon="-0.20498">
        <ele>1492.5</ele>
        <time>2026-07-15T12:56:04Z</time>
      </trkpt>
      <trkpt lat="42.89689" lon="-0.20499">
        <ele>1492.5</ele>
        <time>2026-07-15T12:56:05Z</time>
      </trkpt>
      <trkpt lat="42.8969" lon="-0.205">
        <ele>1492.5</ele>
        <time>2026-07-15T12:56:06Z</time>
      </trkpt>
      <trkpt lat="42.8969" lon="-0.20501">
        <ele>1491.5</ele>
        <time>2026-07-15T12:56:06Z</time>
      </trkpt>
      <trkpt lat="42.8969" lon="-0.20502">
        <ele>1491.5</ele>
        <time>2026-07-15T12:56:07Z</time>
      </trkpt>
      <trkpt lat="42.89691" lon="-0.20502">
        <ele>1491.5</ele>
        <time>2026-07-15T12:56:07Z</time>
      </trkpt>
      <trkpt lat="42.89691" lon="-0.20503">
        <ele>1491.5</ele>
        <time>2026-07-15T12:56:08Z</time>
      </trkpt>
      <trkpt lat="42.89692" lon="-0.20503">
        <ele>1491.5</ele>
        <time>2026-07-15T12:56:08Z</time>
      </trkpt>
      <trkpt lat="42.89692" lon="-0.20504">
        <ele>1491.5</ele>
        <time>2026-07-15T12:56:09Z</time>
      </trkpt>
      <trkpt lat="42.89693" lon="-0.20504">
        <ele>1491.5</ele>
        <time>2026-07-15T12:56:09Z</time>
      </trkpt>
      <trkpt lat="42.89694" lon="-0.20505">
        <ele>1490.5</ele>
        <time>2026-07-15T12:56:10Z</time>
      </trkpt>
      <trkpt lat="42.89694" lon="-0.20505">
        <ele>1490.5</ele>
        <time>2026-07-15T12:56:11Z</time>
      </trkpt>
      <trkpt lat="42.89695" lon="-0.20506">
        <ele>1490.5</ele>
        <time>2026-07-15T12:56:11Z</time>
      </trkpt>
      <trkpt lat="42.89695" lon="-0.20506">
        <ele>1490.5</ele>
        <time>2026-07-15T12:56:12Z</time>
      </trkpt>
      <trkpt lat="42.89696" lon="-0.20507">
        <ele>1490.5</ele>
        <time>2026-07-15T12:56:13Z</time>
      </trkpt>
      <trkpt lat="42.89697" lon="-0.20507">
        <ele>1490.5</ele>
        <time>2026-07-15T12:56:14Z</time>
      </trkpt>
      <trkpt lat="42.89697" lon="-0.20507">
        <ele>1489.5</ele>
        <time>2026-07-15T12:56:14Z</time>
      </trkpt>
      <trkpt lat="42.89698" lon="-0.20507">
        <ele>1489.5</ele>
        <time>2026-07-15T12:56:15Z</time>
      </trkpt>
      <trkpt lat="42.89698" lon="-0.20506">
        <ele>1490.5</ele>
        <time>2026-07-15T12:56:15Z</time>
      </trkpt>
      <trkpt lat="42.89699" lon="-0.20506">
        <ele>1489.5</ele>
        <time>2026-07-15T12:56:16Z</time>
      </trkpt>
      <trkpt lat="42.89701" lon="-0.20505">
        <ele>1489.5</ele>
        <time>2026-07-15T12:56:17Z</time>
      </trkpt>
      <trkpt lat="42.89701" lon="-0.20504">
        <ele>1489.5</ele>
        <time>2026-07-15T12:56:18Z</time>
      </trkpt>
      <trkpt lat="42.89702" lon="-0.20503">
        <ele>1489.5</ele>
        <time>2026-07-15T12:56:18Z</time>
      </trkpt>
      <trkpt lat="42.89702" lon="-0.20502">
        <ele>1489.5</ele>
        <time>2026-07-15T12:56:19Z</time>
      </trkpt>
      <trkpt lat="42.89703" lon="-0.20502">
        <ele>1489.5</ele>
        <time>2026-07-15T12:56:19Z</time>
      </trkpt>
      <trkpt lat="42.89703" lon="-0.20502">
        <ele>1489.5</ele>
        <time>2026-07-15T12:56:20Z</time>
      </trkpt>
      <trkpt lat="42.89704" lon="-0.20501">
        <ele>1489.5</ele>
        <time>2026-07-15T12:56:21Z</time>
      </trkpt>
      <trkpt lat="42.89705" lon="-0.20501">
        <ele>1488.5</ele>
        <time>2026-07-15T12:56:22Z</time>
      </trkpt>
      <trkpt lat="42.89705" lon="-0.20501">
        <ele>1488.5</ele>
        <time>2026-07-15T12:56:22Z</time>
      </trkpt>
      <trkpt lat="42.89706" lon="-0.20501">
        <ele>1488.5</ele>
        <time>2026-07-15T12:56:23Z</time>
      </trkpt>
      <trkpt lat="42.89707" lon="-0.20501">
        <ele>1488.5</ele>
        <time>2026-07-15T12:56:23Z</time>
      </trkpt>
      <trkpt lat="42.89707" lon="-0.20501">
        <ele>1488.5</ele>
        <time>2026-07-15T12:56:24Z</time>
      </trkpt>
      <trkpt lat="42.89708" lon="-0.20501">
        <ele>1488.5</ele>
        <time>2026-07-15T12:56:24Z</time>
      </trkpt>
      <trkpt lat="42.89709" lon="-0.20501">
        <ele>1488.5</ele>
        <time>2026-07-15T12:56:25Z</time>
      </trkpt>
      <trkpt lat="42.89709" lon="-0.20501">
        <ele>1488.5</ele>
        <time>2026-07-15T12:56:26Z</time>
      </trkpt>
      <trkpt lat="42.89709" lon="-0.20501">
        <ele>1488.5</ele>
        <time>2026-07-15T12:56:26Z</time>
      </trkpt>
      <trkpt lat="42.8971" lon="-0.20501">
        <ele>1488.5</ele>
        <time>2026-07-15T12:56:27Z</time>
      </trkpt>
      <trkpt lat="42.89711" lon="-0.20501">
        <ele>1488.5</ele>
        <time>2026-07-15T12:56:28Z</time>
      </trkpt>
      <trkpt lat="42.89712" lon="-0.20501">
        <ele>1488.5</ele>
        <time>2026-07-15T12:56:29Z</time>
      </trkpt>
      <trkpt lat="42.89712" lon="-0.20501">
        <ele>1488.5</ele>
        <time>2026-07-15T12:56:29Z</time>
      </trkpt>
      <trkpt lat="42.89712" lon="-0.20501">
        <ele>1488.5</ele>
        <time>2026-07-15T12:56:30Z</time>
      </trkpt>
      <trkpt lat="42.89713" lon="-0.205">
        <ele>1487.5</ele>
        <time>2026-07-15T12:56:30Z</time>
      </trkpt>
      <trkpt lat="42.89713" lon="-0.205">
        <ele>1487.5</ele>
        <time>2026-07-15T12:56:31Z</time>
      </trkpt>
      <trkpt lat="42.89713" lon="-0.20499">
        <ele>1486.5</ele>
        <time>2026-07-15T12:56:31Z</time>
      </trkpt>
      <trkpt lat="42.89714" lon="-0.20498">
        <ele>1486.5</ele>
        <time>2026-07-15T12:56:32Z</time>
      </trkpt>
      <trkpt lat="42.89714" lon="-0.20498">
        <ele>1486.5</ele>
        <time>2026-07-15T12:56:32Z</time>
      </trkpt>
      <trkpt lat="42.89715" lon="-0.20497">
        <ele>1486.5</ele>
        <time>2026-07-15T12:56:33Z</time>
      </trkpt>
      <trkpt lat="42.89715" lon="-0.20497">
        <ele>1486.5</ele>
        <time>2026-07-15T12:56:33Z</time>
      </trkpt>
      <trkpt lat="42.89715" lon="-0.20496">
        <ele>1486.5</ele>
        <time>2026-07-15T12:56:34Z</time>
      </trkpt>
      <trkpt lat="42.89716" lon="-0.20496">
        <ele>1486.5</ele>
        <time>2026-07-15T12:56:35Z</time>
      </trkpt>
      <trkpt lat="42.89716" lon="-0.20495">
        <ele>1486.5</ele>
        <time>2026-07-15T12:56:35Z</time>
      </trkpt>
      <trkpt lat="42.89716" lon="-0.20494">
        <ele>1486.5</ele>
        <time>2026-07-15T12:56:36Z</time>
      </trkpt>
      <trkpt lat="42.89717" lon="-0.20493">
        <ele>1486.5</ele>
        <time>2026-07-15T12:56:37Z</time>
      </trkpt>
      <trkpt lat="42.89718" lon="-0.20493">
        <ele>1485.5</ele>
        <time>2026-07-15T12:56:38Z</time>
      </trkpt>
      <trkpt lat="42.89718" lon="-0.20493">
        <ele>1486.5</ele>
        <time>2026-07-15T12:56:38Z</time>
      </trkpt>
      <trkpt lat="42.89719" lon="-0.20493">
        <ele>1485.5</ele>
        <time>2026-07-15T12:56:39Z</time>
      </trkpt>
      <trkpt lat="42.8972" lon="-0.20493">
        <ele>1485.5</ele>
        <time>2026-07-15T12:56:40Z</time>
      </trkpt>
      <trkpt lat="42.89721" lon="-0.20493">
        <ele>1485.5</ele>
        <time>2026-07-15T12:56:40Z</time>
      </trkpt>
      <trkpt lat="42.89721" lon="-0.20493">
        <ele>1484.5</ele>
        <time>2026-07-15T12:56:41Z</time>
      </trkpt>
      <trkpt lat="42.89722" lon="-0.20493">
        <ele>1484.5</ele>
        <time>2026-07-15T12:56:42Z</time>
      </trkpt>
      <trkpt lat="42.89723" lon="-0.20492">
        <ele>1484.5</ele>
        <time>2026-07-15T12:56:42Z</time>
      </trkpt>
      <trkpt lat="42.89723" lon="-0.20492">
        <ele>1484.5</ele>
        <time>2026-07-15T12:56:43Z</time>
      </trkpt>
      <trkpt lat="42.89724" lon="-0.20492">
        <ele>1484.5</ele>
        <time>2026-07-15T12:56:44Z</time>
      </trkpt>
      <trkpt lat="42.89725" lon="-0.20491">
        <ele>1484.5</ele>
        <time>2026-07-15T12:56:44Z</time>
      </trkpt>
      <trkpt lat="42.89726" lon="-0.20491">
        <ele>1484.5</ele>
        <time>2026-07-15T12:56:45Z</time>
      </trkpt>
      <trkpt lat="42.89726" lon="-0.20491">
        <ele>1483.5</ele>
        <time>2026-07-15T12:56:46Z</time>
      </trkpt>
      <trkpt lat="42.89728" lon="-0.20491">
        <ele>1483.5</ele>
        <time>2026-07-15T12:56:47Z</time>
      </trkpt>
      <trkpt lat="42.89728" lon="-0.2049">
        <ele>1483.5</ele>
        <time>2026-07-15T12:56:47Z</time>
      </trkpt>
      <trkpt lat="42.89729" lon="-0.2049">
        <ele>1483.5</ele>
        <time>2026-07-15T12:56:48Z</time>
      </trkpt>
      <trkpt lat="42.89729" lon="-0.2049">
        <ele>1483.5</ele>
        <time>2026-07-15T12:56:48Z</time>
      </trkpt>
      <trkpt lat="42.8973" lon="-0.2049">
        <ele>1483.5</ele>
        <time>2026-07-15T12:56:49Z</time>
      </trkpt>
      <trkpt lat="42.8973" lon="-0.2049">
        <ele>1483.5</ele>
        <time>2026-07-15T12:56:50Z</time>
      </trkpt>
      <trkpt lat="42.89731" lon="-0.2049">
        <ele>1483.5</ele>
        <time>2026-07-15T12:56:51Z</time>
      </trkpt>
      <trkpt lat="42.89732" lon="-0.2049">
        <ele>1483.5</ele>
        <time>2026-07-15T12:56:51Z</time>
      </trkpt>
      <trkpt lat="42.89733" lon="-0.20489">
        <ele>1483.5</ele>
        <time>2026-07-15T12:56:52Z</time>
      </trkpt>
      <trkpt lat="42.89733" lon="-0.20489">
        <ele>1483.5</ele>
        <time>2026-07-15T12:56:53Z</time>
      </trkpt>
      <trkpt lat="42.89734" lon="-0.20489">
        <ele>1482.5</ele>
        <time>2026-07-15T12:56:53Z</time>
      </trkpt>
      <trkpt lat="42.89735" lon="-0.20488">
        <ele>1482.5</ele>
        <time>2026-07-15T12:56:54Z</time>
      </trkpt>
      <trkpt lat="42.89735" lon="-0.20488">
        <ele>1482.5</ele>
        <time>2026-07-15T12:56:54Z</time>
      </trkpt>
      <trkpt lat="42.89736" lon="-0.20488">
        <ele>1482.5</ele>
        <time>2026-07-15T12:56:55Z</time>
      </trkpt>
      <trkpt lat="42.89737" lon="-0.20488">
        <ele>1482.5</ele>
        <time>2026-07-15T12:56:56Z</time>
      </trkpt>
      <trkpt lat="42.89737" lon="-0.20488">
        <ele>1482.5</ele>
        <time>2026-07-15T12:56:57Z</time>
      </trkpt>
      <trkpt lat="42.89738" lon="-0.20488">
        <ele>1482.5</ele>
        <time>2026-07-15T12:56:57Z</time>
      </trkpt>
      <trkpt lat="42.89738" lon="-0.20488">
        <ele>1482.5</ele>
        <time>2026-07-15T12:56:58Z</time>
      </trkpt>
      <trkpt lat="42.89739" lon="-0.20488">
        <ele>1481.5</ele>
        <time>2026-07-15T12:56:58Z</time>
      </trkpt>
      <trkpt lat="42.89739" lon="-0.20488">
        <ele>1481.5</ele>
        <time>2026-07-15T12:56:59Z</time>
      </trkpt>
      <trkpt lat="42.8974" lon="-0.20488">
        <ele>1481.5</ele>
        <time>2026-07-15T12:56:59Z</time>
      </trkpt>
      <trkpt lat="42.89741" lon="-0.20488">
        <ele>1481.5</ele>
        <time>2026-07-15T12:57:00Z</time>
      </trkpt>
      <trkpt lat="42.89741" lon="-0.20488">
        <ele>1481.5</ele>
        <time>2026-07-15T12:57:01Z</time>
      </trkpt>
      <trkpt lat="42.89742" lon="-0.20488">
        <ele>1481.5</ele>
        <time>2026-07-15T12:57:01Z</time>
      </trkpt>
      <trkpt lat="42.89742" lon="-0.20488">
        <ele>1480.5</ele>
        <time>2026-07-15T12:57:02Z</time>
      </trkpt>
      <trkpt lat="42.89743" lon="-0.20488">
        <ele>1481.5</ele>
        <time>2026-07-15T12:57:02Z</time>
      </trkpt>
      <trkpt lat="42.89744" lon="-0.20488">
        <ele>1481.5</ele>
        <time>2026-07-15T12:57:03Z</time>
      </trkpt>
      <trkpt lat="42.89744" lon="-0.20488">
        <ele>1481.5</ele>
        <time>2026-07-15T12:57:03Z</time>
      </trkpt>
      <trkpt lat="42.89745" lon="-0.20489">
        <ele>1481.5</ele>
        <time>2026-07-15T12:57:04Z</time>
      </trkpt>
      <trkpt lat="42.89746" lon="-0.20489">
        <ele>1482.5</ele>
        <time>2026-07-15T12:57:05Z</time>
      </trkpt>
      <trkpt lat="42.89746" lon="-0.2049">
        <ele>1482.5</ele>
        <time>2026-07-15T12:57:06Z</time>
      </trkpt>
      <trkpt lat="42.89747" lon="-0.2049">
        <ele>1482.5</ele>
        <time>2026-07-15T12:57:06Z</time>
      </trkpt>
      <trkpt lat="42.89748" lon="-0.20491">
        <ele>1482.5</ele>
        <time>2026-07-15T12:57:07Z</time>
      </trkpt>
      <trkpt lat="42.89748" lon="-0.20491">
        <ele>1482.5</ele>
        <time>2026-07-15T12:57:08Z</time>
      </trkpt>
      <trkpt lat="42.89749" lon="-0.20492">
        <ele>1482.5</ele>
        <time>2026-07-15T12:57:09Z</time>
      </trkpt>
      <trkpt lat="42.8975" lon="-0.20492">
        <ele>1482.5</ele>
        <time>2026-07-15T12:57:10Z</time>
      </trkpt>
      <trkpt lat="42.89751" lon="-0.20492">
        <ele>1482.5</ele>
        <time>2026-07-15T12:57:11Z</time>
      </trkpt>
      <trkpt lat="42.89752" lon="-0.20493">
        <ele>1482.5</ele>
        <time>2026-07-15T12:57:11Z</time>
      </trkpt>
      <trkpt lat="42.89752" lon="-0.20494">
        <ele>1482.5</ele>
        <time>2026-07-15T12:57:12Z</time>
      </trkpt>
      <trkpt lat="42.89752" lon="-0.20495">
        <ele>1482.5</ele>
        <time>2026-07-15T12:57:13Z</time>
      </trkpt>
      <trkpt lat="42.89752" lon="-0.20495">
        <ele>1482.5</ele>
        <time>2026-07-15T12:57:13Z</time>
      </trkpt>
      <trkpt lat="42.89753" lon="-0.20497">
        <ele>1482.5</ele>
        <time>2026-07-15T12:57:14Z</time>
      </trkpt>
      <trkpt lat="42.89753" lon="-0.20497">
        <ele>1481.5</ele>
        <time>2026-07-15T12:57:14Z</time>
      </trkpt>
      <trkpt lat="42.89754" lon="-0.20497">
        <ele>1481.5</ele>
        <time>2026-07-15T12:57:15Z</time>
      </trkpt>
      <trkpt lat="42.89755" lon="-0.20498">
        <ele>1481.5</ele>
        <time>2026-07-15T12:57:16Z</time>
      </trkpt>
      <trkpt lat="42.89755" lon="-0.20498">
        <ele>1481.5</ele>
        <time>2026-07-15T12:57:16Z</time>
      </trkpt>
      <trkpt lat="42.89756" lon="-0.20498">
        <ele>1481.5</ele>
        <time>2026-07-15T12:57:17Z</time>
      </trkpt>
      <trkpt lat="42.89756" lon="-0.20498">
        <ele>1481.5</ele>
        <time>2026-07-15T12:57:17Z</time>
      </trkpt>
      <trkpt lat="42.89757" lon="-0.20499">
        <ele>1481.5</ele>
        <time>2026-07-15T12:57:18Z</time>
      </trkpt>
      <trkpt lat="42.89757" lon="-0.20499">
        <ele>1480.5</ele>
        <time>2026-07-15T12:57:19Z</time>
      </trkpt>
      <trkpt lat="42.89757" lon="-0.205">
        <ele>1480.5</ele>
        <time>2026-07-15T12:57:20Z</time>
      </trkpt>
      <trkpt lat="42.89758" lon="-0.205">
        <ele>1480.5</ele>
        <time>2026-07-15T12:57:20Z</time>
      </trkpt>
      <trkpt lat="42.89758" lon="-0.20501">
        <ele>1480.5</ele>
        <time>2026-07-15T12:57:21Z</time>
      </trkpt>
      <trkpt lat="42.89758" lon="-0.20501">
        <ele>1480.5</ele>
        <time>2026-07-15T12:57:21Z</time>
      </trkpt>
      <trkpt lat="42.89759" lon="-0.20502">
        <ele>1480.5</ele>
        <time>2026-07-15T12:57:22Z</time>
      </trkpt>
      <trkpt lat="42.89759" lon="-0.20502">
        <ele>1480.5</ele>
        <time>2026-07-15T12:57:22Z</time>
      </trkpt>
      <trkpt lat="42.8976" lon="-0.20503">
        <ele>1480.5</ele>
        <time>2026-07-15T12:57:23Z</time>
      </trkpt>
      <trkpt lat="42.8976" lon="-0.20503">
        <ele>1479.5</ele>
        <time>2026-07-15T12:57:24Z</time>
      </trkpt>
      <trkpt lat="42.89761" lon="-0.20504">
        <ele>1479.5</ele>
        <time>2026-07-15T12:57:25Z</time>
      </trkpt>
      <trkpt lat="42.89762" lon="-0.20504">
        <ele>1479.5</ele>
        <time>2026-07-15T12:57:26Z</time>
      </trkpt>
      <trkpt lat="42.89762" lon="-0.20504">
        <ele>1479.5</ele>
        <time>2026-07-15T12:57:26Z</time>
      </trkpt>
      <trkpt lat="42.89762" lon="-0.20505">
        <ele>1479.5</ele>
        <time>2026-07-15T12:57:27Z</time>
      </trkpt>
      <trkpt lat="42.89762" lon="-0.20505">
        <ele>1478.5</ele>
        <time>2026-07-15T12:57:27Z</time>
      </trkpt>
      <trkpt lat="42.89762" lon="-0.20505">
        <ele>1478.5</ele>
        <time>2026-07-15T12:57:28Z</time>
      </trkpt>
      <trkpt lat="42.89763" lon="-0.20505">
        <ele>1478.5</ele>
        <time>2026-07-15T12:57:29Z</time>
      </trkpt>
      <trkpt lat="42.89763" lon="-0.20506">
        <ele>1478.5</ele>
        <time>2026-07-15T12:57:29Z</time>
      </trkpt>
      <trkpt lat="42.89763" lon="-0.20507">
        <ele>1477.5</ele>
        <time>2026-07-15T12:57:30Z</time>
      </trkpt>
      <trkpt lat="42.89763" lon="-0.20507">
        <ele>1477.5</ele>
        <time>2026-07-15T12:57:30Z</time>
      </trkpt>
      <trkpt lat="42.89763" lon="-0.20508">
        <ele>1477.5</ele>
        <time>2026-07-15T12:57:31Z</time>
      </trkpt>
      <trkpt lat="42.89763" lon="-0.20508">
        <ele>1477.5</ele>
        <time>2026-07-15T12:57:32Z</time>
      </trkpt>
      <trkpt lat="42.89763" lon="-0.20508">
        <ele>1477.5</ele>
        <time>2026-07-15T12:57:32Z</time>
      </trkpt>
      <trkpt lat="42.89763" lon="-0.20509">
        <ele>1477.5</ele>
        <time>2026-07-15T12:57:33Z</time>
      </trkpt>
      <trkpt lat="42.89763" lon="-0.20509">
        <ele>1477.5</ele>
        <time>2026-07-15T12:57:33Z</time>
      </trkpt>
      <trkpt lat="42.89763" lon="-0.2051">
        <ele>1477.5</ele>
        <time>2026-07-15T12:57:34Z</time>
      </trkpt>
      <trkpt lat="42.89763" lon="-0.2051">
        <ele>1476.5</ele>
        <time>2026-07-15T12:57:35Z</time>
      </trkpt>
      <trkpt lat="42.89763" lon="-0.20511">
        <ele>1476.5</ele>
        <time>2026-07-15T12:57:35Z</time>
      </trkpt>
      <trkpt lat="42.89763" lon="-0.20512">
        <ele>1476.5</ele>
        <time>2026-07-15T12:57:36Z</time>
      </trkpt>
      <trkpt lat="42.89764" lon="-0.20512">
        <ele>1476.5</ele>
        <time>2026-07-15T12:57:36Z</time>
      </trkpt>
      <trkpt lat="42.89764" lon="-0.20513">
        <ele>1475.5</ele>
        <time>2026-07-15T12:57:37Z</time>
      </trkpt>
      <trkpt lat="42.89764" lon="-0.20514">
        <ele>1475.5</ele>
        <time>2026-07-15T12:57:38Z</time>
      </trkpt>
      <trkpt lat="42.89764" lon="-0.20514">
        <ele>1475.5</ele>
        <time>2026-07-15T12:57:38Z</time>
      </trkpt>
      <trkpt lat="42.89764" lon="-0.20515">
        <ele>1475.5</ele>
        <time>2026-07-15T12:57:39Z</time>
      </trkpt>
      <trkpt lat="42.89764" lon="-0.20516">
        <ele>1474.5</ele>
        <time>2026-07-15T12:57:40Z</time>
      </trkpt>
      <trkpt lat="42.89764" lon="-0.20516">
        <ele>1474.5</ele>
        <time>2026-07-15T12:57:40Z</time>
      </trkpt>
      <trkpt lat="42.89765" lon="-0.20517">
        <ele>1474.5</ele>
        <time>2026-07-15T12:57:41Z</time>
      </trkpt>
      <trkpt lat="42.89765" lon="-0.20518">
        <ele>1474.5</ele>
        <time>2026-07-15T12:57:41Z</time>
      </trkpt>
      <trkpt lat="42.89765" lon="-0.20518">
        <ele>1474.5</ele>
        <time>2026-07-15T12:57:42Z</time>
      </trkpt>
      <trkpt lat="42.89765" lon="-0.20519">
        <ele>1473.5</ele>
        <time>2026-07-15T12:57:43Z</time>
      </trkpt>
      <trkpt lat="42.89765" lon="-0.20519">
        <ele>1474.5</ele>
        <time>2026-07-15T12:57:43Z</time>
      </trkpt>
      <trkpt lat="42.89765" lon="-0.2052">
        <ele>1474.5</ele>
        <time>2026-07-15T12:57:44Z</time>
      </trkpt>
      <trkpt lat="42.89765" lon="-0.2052">
        <ele>1474.5</ele>
        <time>2026-07-15T12:57:45Z</time>
      </trkpt>
      <trkpt lat="42.89765" lon="-0.2052">
        <ele>1474.5</ele>
        <time>2026-07-15T12:57:45Z</time>
      </trkpt>
      <trkpt lat="42.89765" lon="-0.2052">
        <ele>1474.5</ele>
        <time>2026-07-15T12:57:46Z</time>
      </trkpt>
      <trkpt lat="42.89765" lon="-0.20521">
        <ele>1474.5</ele>
        <time>2026-07-15T12:57:47Z</time>
      </trkpt>
      <trkpt lat="42.89765" lon="-0.20521">
        <ele>1474.5</ele>
        <time>2026-07-15T12:57:48Z</time>
      </trkpt>
      <trkpt lat="42.89765" lon="-0.20521">
        <ele>1474.5</ele>
        <time>2026-07-15T12:57:48Z</time>
      </trkpt>
      <trkpt lat="42.89765" lon="-0.20522">
        <ele>1473.5</ele>
        <time>2026-07-15T12:57:49Z</time>
      </trkpt>
      <trkpt lat="42.89765" lon="-0.20522">
        <ele>1473.5</ele>
        <time>2026-07-15T12:57:50Z</time>
      </trkpt>
      <trkpt lat="42.89765" lon="-0.20523">
        <ele>1473.5</ele>
        <time>2026-07-15T12:57:50Z</time>
      </trkpt>
      <trkpt lat="42.89765" lon="-0.20523">
        <ele>1473.5</ele>
        <time>2026-07-15T12:57:51Z</time>
      </trkpt>
      <trkpt lat="42.89766" lon="-0.20523">
        <ele>1473.5</ele>
        <time>2026-07-15T12:57:52Z</time>
      </trkpt>
      <trkpt lat="42.89766" lon="-0.20524">
        <ele>1473.5</ele>
        <time>2026-07-15T12:57:52Z</time>
      </trkpt>
      <trkpt lat="42.89766" lon="-0.20524">
        <ele>1473.5</ele>
        <time>2026-07-15T12:57:53Z</time>
      </trkpt>
      <trkpt lat="42.89766" lon="-0.20525">
        <ele>1473.5</ele>
        <time>2026-07-15T12:57:53Z</time>
      </trkpt>
      <trkpt lat="42.89767" lon="-0.20525">
        <ele>1473.5</ele>
        <time>2026-07-15T12:57:54Z</time>
      </trkpt>
      <trkpt lat="42.89767" lon="-0.20526">
        <ele>1472.5</ele>
        <time>2026-07-15T12:57:54Z</time>
      </trkpt>
      <trkpt lat="42.89767" lon="-0.20526">
        <ele>1472.5</ele>
        <time>2026-07-15T12:57:55Z</time>
      </trkpt>
      <trkpt lat="42.89767" lon="-0.20527">
        <ele>1472.5</ele>
        <time>2026-07-15T12:57:56Z</time>
      </trkpt>
      <trkpt lat="42.89767" lon="-0.20528">
        <ele>1472.5</ele>
        <time>2026-07-15T12:57:56Z</time>
      </trkpt>
      <trkpt lat="42.89768" lon="-0.20528">
        <ele>1472.5</ele>
        <time>2026-07-15T12:57:57Z</time>
      </trkpt>
      <trkpt lat="42.89768" lon="-0.20529">
        <ele>1471.5</ele>
        <time>2026-07-15T12:57:57Z</time>
      </trkpt>
      <trkpt lat="42.89768" lon="-0.2053">
        <ele>1471.5</ele>
        <time>2026-07-15T12:57:58Z</time>
      </trkpt>
      <trkpt lat="42.89768" lon="-0.2053">
        <ele>1470.5</ele>
        <time>2026-07-15T12:57:59Z</time>
      </trkpt>
      <trkpt lat="42.89768" lon="-0.20531">
        <ele>1471.5</ele>
        <time>2026-07-15T12:58:00Z</time>
      </trkpt>
      <trkpt lat="42.89769" lon="-0.20531">
        <ele>1470.5</ele>
        <time>2026-07-15T12:58:01Z</time>
      </trkpt>
      <trkpt lat="42.89769" lon="-0.20531">
        <ele>1470.5</ele>
        <time>2026-07-15T12:58:01Z</time>
      </trkpt>
      <trkpt lat="42.89769" lon="-0.20532">
        <ele>1470.5</ele>
        <time>2026-07-15T12:58:02Z</time>
      </trkpt>
      <trkpt lat="42.89769" lon="-0.20532">
        <ele>1470.5</ele>
        <time>2026-07-15T12:58:03Z</time>
      </trkpt>
      <trkpt lat="42.89769" lon="-0.20532">
        <ele>1470.5</ele>
        <time>2026-07-15T12:58:03Z</time>
      </trkpt>
      <trkpt lat="42.8977" lon="-0.20532">
        <ele>1470.5</ele>
        <time>2026-07-15T12:58:04Z</time>
      </trkpt>
      <trkpt lat="42.8977" lon="-0.20533">
        <ele>1469.5</ele>
        <time>2026-07-15T12:58:05Z</time>
      </trkpt>
      <trkpt lat="42.8977" lon="-0.20533">
        <ele>1469.5</ele>
        <time>2026-07-15T12:58:06Z</time>
      </trkpt>
      <trkpt lat="42.89771" lon="-0.20534">
        <ele>1468.5</ele>
        <time>2026-07-15T12:58:07Z</time>
      </trkpt>
      <trkpt lat="42.89771" lon="-0.20534">
        <ele>1468.5</ele>
        <time>2026-07-15T12:58:08Z</time>
      </trkpt>
      <trkpt lat="42.89772" lon="-0.20534">
        <ele>1468.5</ele>
        <time>2026-07-15T12:58:08Z</time>
      </trkpt>
      <trkpt lat="42.89772" lon="-0.20533">
        <ele>1468.5</ele>
        <time>2026-07-15T12:58:09Z</time>
      </trkpt>
      <trkpt lat="42.89772" lon="-0.20533">
        <ele>1468.5</ele>
        <time>2026-07-15T12:58:10Z</time>
      </trkpt>
      <trkpt lat="42.89773" lon="-0.20532">
        <ele>1468.5</ele>
        <time>2026-07-15T12:58:10Z</time>
      </trkpt>
      <trkpt lat="42.89773" lon="-0.20532">
        <ele>1468.5</ele>
        <time>2026-07-15T12:58:11Z</time>
      </trkpt>
      <trkpt lat="42.89773" lon="-0.20531">
        <ele>1467.5</ele>
        <time>2026-07-15T12:58:11Z</time>
      </trkpt>
      <trkpt lat="42.89774" lon="-0.20531">
        <ele>1467.5</ele>
        <time>2026-07-15T12:58:12Z</time>
      </trkpt>
      <trkpt lat="42.89774" lon="-0.2053">
        <ele>1467.5</ele>
        <time>2026-07-15T12:58:13Z</time>
      </trkpt>
      <trkpt lat="42.89775" lon="-0.2053">
        <ele>1467.5</ele>
        <time>2026-07-15T12:58:13Z</time>
      </trkpt>
      <trkpt lat="42.89775" lon="-0.2053">
        <ele>1467.5</ele>
        <time>2026-07-15T12:58:14Z</time>
      </trkpt>
      <trkpt lat="42.89775" lon="-0.2053">
        <ele>1467.5</ele>
        <time>2026-07-15T12:58:14Z</time>
      </trkpt>
      <trkpt lat="42.89776" lon="-0.2053">
        <ele>1466.5</ele>
        <time>2026-07-15T12:58:15Z</time>
      </trkpt>
      <trkpt lat="42.89776" lon="-0.2053">
        <ele>1466.5</ele>
        <time>2026-07-15T12:58:16Z</time>
      </trkpt>
      <trkpt lat="42.89776" lon="-0.20532">
        <ele>1466.5</ele>
        <time>2026-07-15T12:58:17Z</time>
      </trkpt>
      <trkpt lat="42.89776" lon="-0.20533">
        <ele>1466.5</ele>
        <time>2026-07-15T12:58:18Z</time>
      </trkpt>
      <trkpt lat="42.89776" lon="-0.20534">
        <ele>1467.5</ele>
        <time>2026-07-15T12:58:19Z</time>
      </trkpt>
      <trkpt lat="42.89777" lon="-0.20534">
        <ele>1466.5</ele>
        <time>2026-07-15T12:58:19Z</time>
      </trkpt>
      <trkpt lat="42.89777" lon="-0.20535">
        <ele>1466.5</ele>
        <time>2026-07-15T12:58:20Z</time>
      </trkpt>
      <trkpt lat="42.89777" lon="-0.20536">
        <ele>1466.5</ele>
        <time>2026-07-15T12:58:20Z</time>
      </trkpt>
      <trkpt lat="42.89777" lon="-0.20536">
        <ele>1466.5</ele>
        <time>2026-07-15T12:58:21Z</time>
      </trkpt>
      <trkpt lat="42.89778" lon="-0.20537">
        <ele>1466.5</ele>
        <time>2026-07-15T12:58:21Z</time>
      </trkpt>
      <trkpt lat="42.89778" lon="-0.20537">
        <ele>1466.5</ele>
        <time>2026-07-15T12:58:22Z</time>
      </trkpt>
      <trkpt lat="42.89778" lon="-0.20538">
        <ele>1466.5</ele>
        <time>2026-07-15T12:58:22Z</time>
      </trkpt>
      <trkpt lat="42.89778" lon="-0.20538">
        <ele>1465.5</ele>
        <time>2026-07-15T12:58:23Z</time>
      </trkpt>
      <trkpt lat="42.89779" lon="-0.20539">
        <ele>1465.5</ele>
        <time>2026-07-15T12:58:24Z</time>
      </trkpt>
      <trkpt lat="42.89779" lon="-0.20539">
        <ele>1465.5</ele>
        <time>2026-07-15T12:58:24Z</time>
      </trkpt>
      <trkpt lat="42.89779" lon="-0.2054">
        <ele>1465.5</ele>
        <time>2026-07-15T12:58:25Z</time>
      </trkpt>
      <trkpt lat="42.89779" lon="-0.2054">
        <ele>1465.5</ele>
        <time>2026-07-15T12:58:26Z</time>
      </trkpt>
      <trkpt lat="42.89779" lon="-0.20539">
        <ele>1465.5</ele>
        <time>2026-07-15T12:58:26Z</time>
      </trkpt>
      <trkpt lat="42.89779" lon="-0.2054">
        <ele>1465.5</ele>
        <time>2026-07-15T12:58:27Z</time>
      </trkpt>
      <trkpt lat="42.89779" lon="-0.2054">
        <ele>1464.5</ele>
        <time>2026-07-15T12:58:27Z</time>
      </trkpt>
      <trkpt lat="42.89779" lon="-0.2054">
        <ele>1464.5</ele>
        <time>2026-07-15T12:58:28Z</time>
      </trkpt>
      <trkpt lat="42.89779" lon="-0.2054">
        <ele>1464.5</ele>
        <time>2026-07-15T12:58:29Z</time>
      </trkpt>
      <trkpt lat="42.8978" lon="-0.2054">
        <ele>1464.5</ele>
        <time>2026-07-15T12:58:29Z</time>
      </trkpt>
      <trkpt lat="42.8978" lon="-0.20541">
        <ele>1464.5</ele>
        <time>2026-07-15T12:58:30Z</time>
      </trkpt>
      <trkpt lat="42.8978" lon="-0.20542">
        <ele>1463.5</ele>
        <time>2026-07-15T12:58:31Z</time>
      </trkpt>
      <trkpt lat="42.8978" lon="-0.20542">
        <ele>1463.5</ele>
        <time>2026-07-15T12:58:31Z</time>
      </trkpt>
      <trkpt lat="42.89781" lon="-0.20543">
        <ele>1463.5</ele>
        <time>2026-07-15T12:58:32Z</time>
      </trkpt>
      <trkpt lat="42.89781" lon="-0.20543">
        <ele>1462.5</ele>
        <time>2026-07-15T12:58:32Z</time>
      </trkpt>
      <trkpt lat="42.89781" lon="-0.20543">
        <ele>1462.5</ele>
        <time>2026-07-15T12:58:33Z</time>
      </trkpt>
      <trkpt lat="42.89781" lon="-0.20544">
        <ele>1462.5</ele>
        <time>2026-07-15T12:58:34Z</time>
      </trkpt>
      <trkpt lat="42.89781" lon="-0.20544">
        <ele>1462.5</ele>
        <time>2026-07-15T12:58:34Z</time>
      </trkpt>
      <trkpt lat="42.89781" lon="-0.20545">
        <ele>1462.5</ele>
        <time>2026-07-15T12:58:35Z</time>
      </trkpt>
      <trkpt lat="42.89782" lon="-0.20545">
        <ele>1461.5</ele>
        <time>2026-07-15T12:58:36Z</time>
      </trkpt>
      <trkpt lat="42.89782" lon="-0.20545">
        <ele>1461.5</ele>
        <time>2026-07-15T12:58:36Z</time>
      </trkpt>
      <trkpt lat="42.89783" lon="-0.20546">
        <ele>1461.5</ele>
        <time>2026-07-15T12:58:37Z</time>
      </trkpt>
      <trkpt lat="42.89783" lon="-0.20546">
        <ele>1461.5</ele>
        <time>2026-07-15T12:58:37Z</time>
      </trkpt>
      <trkpt lat="42.89783" lon="-0.20547">
        <ele>1461.5</ele>
        <time>2026-07-15T12:58:38Z</time>
      </trkpt>
      <trkpt lat="42.89783" lon="-0.20547">
        <ele>1461.5</ele>
        <time>2026-07-15T12:58:38Z</time>
      </trkpt>
      <trkpt lat="42.89783" lon="-0.20547">
        <ele>1461.5</ele>
        <time>2026-07-15T12:58:39Z</time>
      </trkpt>
      <trkpt lat="42.89783" lon="-0.20548">
        <ele>1461.5</ele>
        <time>2026-07-15T12:58:40Z</time>
      </trkpt>
      <trkpt lat="42.89784" lon="-0.20548">
        <ele>1460.5</ele>
        <time>2026-07-15T12:58:41Z</time>
      </trkpt>
      <trkpt lat="42.89784" lon="-0.20548">
        <ele>1460.5</ele>
        <time>2026-07-15T12:58:41Z</time>
      </trkpt>
      <trkpt lat="42.89784" lon="-0.20548">
        <ele>1460.5</ele>
        <time>2026-07-15T12:58:42Z</time>
      </trkpt>
      <trkpt lat="42.89784" lon="-0.20548">
        <ele>1460.5</ele>
        <time>2026-07-15T12:58:43Z</time>
      </trkpt>
      <trkpt lat="42.89785" lon="-0.20548">
        <ele>1459.5</ele>
        <time>2026-07-15T12:58:44Z</time>
      </trkpt>
      <trkpt lat="42.89785" lon="-0.20549">
        <ele>1458.5</ele>
        <time>2026-07-15T12:58:44Z</time>
      </trkpt>
      <trkpt lat="42.89786" lon="-0.20549">
        <ele>1458.5</ele>
        <time>2026-07-15T12:58:45Z</time>
      </trkpt>
      <trkpt lat="42.89786" lon="-0.20549">
        <ele>1458.5</ele>
        <time>2026-07-15T12:58:45Z</time>
      </trkpt>
      <trkpt lat="42.89786" lon="-0.2055">
        <ele>1458.5</ele>
        <time>2026-07-15T12:58:46Z</time>
      </trkpt>
      <trkpt lat="42.89786" lon="-0.20551">
        <ele>1457.5</ele>
        <time>2026-07-15T12:58:47Z</time>
      </trkpt>
      <trkpt lat="42.89786" lon="-0.20551">
        <ele>1457.5</ele>
        <time>2026-07-15T12:58:48Z</time>
      </trkpt>
      <trkpt lat="42.89786" lon="-0.20551">
        <ele>1457.5</ele>
        <time>2026-07-15T12:58:48Z</time>
      </trkpt>
      <trkpt lat="42.89787" lon="-0.20552">
        <ele>1457.5</ele>
        <time>2026-07-15T12:58:49Z</time>
      </trkpt>
      <trkpt lat="42.89787" lon="-0.20552">
        <ele>1456.5</ele>
        <time>2026-07-15T12:58:49Z</time>
      </trkpt>
      <trkpt lat="42.89787" lon="-0.20553">
        <ele>1456.5</ele>
        <time>2026-07-15T12:58:50Z</time>
      </trkpt>
      <trkpt lat="42.89787" lon="-0.20553">
        <ele>1456.5</ele>
        <time>2026-07-15T12:58:51Z</time>
      </trkpt>
      <trkpt lat="42.89788" lon="-0.20553">
        <ele>1456.5</ele>
        <time>2026-07-15T12:58:52Z</time>
      </trkpt>
      <trkpt lat="42.89788" lon="-0.20553">
        <ele>1456.5</ele>
        <time>2026-07-15T12:58:52Z</time>
      </trkpt>
      <trkpt lat="42.89788" lon="-0.20554">
        <ele>1456.5</ele>
        <time>2026-07-15T12:58:53Z</time>
      </trkpt>
      <trkpt lat="42.89788" lon="-0.20554">
        <ele>1456.5</ele>
        <time>2026-07-15T12:58:53Z</time>
      </trkpt>
      <trkpt lat="42.89788" lon="-0.20554">
        <ele>1456.5</ele>
        <time>2026-07-15T12:58:54Z</time>
      </trkpt>
      <trkpt lat="42.89788" lon="-0.20555">
        <ele>1456.5</ele>
        <time>2026-07-15T12:58:55Z</time>
      </trkpt>
      <trkpt lat="42.89788" lon="-0.20555">
        <ele>1456.5</ele>
        <time>2026-07-15T12:58:55Z</time>
      </trkpt>
      <trkpt lat="42.89789" lon="-0.20555">
        <ele>1456.5</ele>
        <time>2026-07-15T12:58:56Z</time>
      </trkpt>
      <trkpt lat="42.89788" lon="-0.20555">
        <ele>1456.5</ele>
        <time>2026-07-15T12:58:57Z</time>
      </trkpt>
      <trkpt lat="42.89788" lon="-0.20554">
        <ele>1456.5</ele>
        <time>2026-07-15T12:58:58Z</time>
      </trkpt>
      <trkpt lat="42.89788" lon="-0.20554">
        <ele>1456.5</ele>
        <time>2026-07-15T12:58:59Z</time>
      </trkpt>
      <trkpt lat="42.89787" lon="-0.20554">
        <ele>1456.5</ele>
        <time>2026-07-15T12:59:00Z</time>
      </trkpt>
      <trkpt lat="42.89787" lon="-0.20554">
        <ele>1456.5</ele>
        <time>2026-07-15T12:59:01Z</time>
      </trkpt>
      <trkpt lat="42.89787" lon="-0.20554">
        <ele>1456.5</ele>
        <time>2026-07-15T12:59:02Z</time>
      </trkpt>
      <trkpt lat="42.89787" lon="-0.20554">
        <ele>1456.5</ele>
        <time>2026-07-15T12:59:03Z</time>
      </trkpt>
      <trkpt lat="42.89787" lon="-0.20554">
        <ele>1456.5</ele>
        <time>2026-07-15T12:59:04Z</time>
      </trkpt>
      <trkpt lat="42.89787" lon="-0.20554">
        <ele>1456.5</ele>
        <time>2026-07-15T12:59:04Z</time>
      </trkpt>
      <trkpt lat="42.89787" lon="-0.20554">
        <ele>1456.5</ele>
        <time>2026-07-15T12:59:05Z</time>
      </trkpt>
      <trkpt lat="42.89787" lon="-0.20554">
        <ele>1456.5</ele>
        <time>2026-07-15T12:59:06Z</time>
      </trkpt>
      <trkpt lat="42.89787" lon="-0.20554">
        <ele>1455.5</ele>
        <time>2026-07-15T12:59:07Z</time>
      </trkpt>
      <trkpt lat="42.89787" lon="-0.20554">
        <ele>1455.5</ele>
        <time>2026-07-15T12:59:07Z</time>
      </trkpt>
      <trkpt lat="42.89787" lon="-0.20554">
        <ele>1455.5</ele>
        <time>2026-07-15T12:59:08Z</time>
      </trkpt>
      <trkpt lat="42.89787" lon="-0.20554">
        <ele>1455.5</ele>
        <time>2026-07-15T12:59:09Z</time>
      </trkpt>
      <trkpt lat="42.89788" lon="-0.20555">
        <ele>1455.5</ele>
        <time>2026-07-15T12:59:09Z</time>
      </trkpt>
      <trkpt lat="42.89788" lon="-0.20555">
        <ele>1455.5</ele>
        <time>2026-07-15T12:59:10Z</time>
      </trkpt>
      <trkpt lat="42.89788" lon="-0.20555">
        <ele>1454.5</ele>
        <time>2026-07-15T12:59:10Z</time>
      </trkpt>
      <trkpt lat="42.89788" lon="-0.20556">
        <ele>1454.5</ele>
        <time>2026-07-15T12:59:11Z</time>
      </trkpt>
      <trkpt lat="42.89789" lon="-0.20557">
        <ele>1454.5</ele>
        <time>2026-07-15T12:59:12Z</time>
      </trkpt>
      <trkpt lat="42.8979" lon="-0.20558">
        <ele>1454.5</ele>
        <time>2026-07-15T12:59:13Z</time>
      </trkpt>
      <trkpt lat="42.8979" lon="-0.20559">
        <ele>1454.5</ele>
        <time>2026-07-15T12:59:13Z</time>
      </trkpt>
      <trkpt lat="42.8979" lon="-0.20559">
        <ele>1454.5</ele>
        <time>2026-07-15T12:59:14Z</time>
      </trkpt>
      <trkpt lat="42.89791" lon="-0.2056">
        <ele>1453.5</ele>
        <time>2026-07-15T12:59:15Z</time>
      </trkpt>
      <trkpt lat="42.89791" lon="-0.20561">
        <ele>1453.5</ele>
        <time>2026-07-15T12:59:15Z</time>
      </trkpt>
      <trkpt lat="42.89791" lon="-0.20561">
        <ele>1453.5</ele>
        <time>2026-07-15T12:59:16Z</time>
      </trkpt>
      <trkpt lat="42.89791" lon="-0.20562">
        <ele>1453.5</ele>
        <time>2026-07-15T12:59:16Z</time>
      </trkpt>
      <trkpt lat="42.89792" lon="-0.20563">
        <ele>1453.5</ele>
        <time>2026-07-15T12:59:17Z</time>
      </trkpt>
      <trkpt lat="42.89792" lon="-0.20563">
        <ele>1452.5</ele>
        <time>2026-07-15T12:59:18Z</time>
      </trkpt>
      <trkpt lat="42.89792" lon="-0.20564">
        <ele>1452.5</ele>
        <time>2026-07-15T12:59:18Z</time>
      </trkpt>
      <trkpt lat="42.89792" lon="-0.20564">
        <ele>1452.5</ele>
        <time>2026-07-15T12:59:19Z</time>
      </trkpt>
      <trkpt lat="42.89793" lon="-0.20564">
        <ele>1452.5</ele>
        <time>2026-07-15T12:59:20Z</time>
      </trkpt>
      <trkpt lat="42.89793" lon="-0.20564">
        <ele>1452.5</ele>
        <time>2026-07-15T12:59:20Z</time>
      </trkpt>
      <trkpt lat="42.89793" lon="-0.20565">
        <ele>1453.5</ele>
        <time>2026-07-15T12:59:21Z</time>
      </trkpt>
      <trkpt lat="42.89794" lon="-0.20565">
        <ele>1453.5</ele>
        <time>2026-07-15T12:59:22Z</time>
      </trkpt>
      <trkpt lat="42.89794" lon="-0.20565">
        <ele>1453.5</ele>
        <time>2026-07-15T12:59:23Z</time>
      </trkpt>
      <trkpt lat="42.89794" lon="-0.20566">
        <ele>1452.5</ele>
        <time>2026-07-15T12:59:23Z</time>
      </trkpt>
      <trkpt lat="42.89795" lon="-0.20566">
        <ele>1452.5</ele>
        <time>2026-07-15T12:59:24Z</time>
      </trkpt>
      <trkpt lat="42.89795" lon="-0.20566">
        <ele>1452.5</ele>
        <time>2026-07-15T12:59:24Z</time>
      </trkpt>
      <trkpt lat="42.89795" lon="-0.20567">
        <ele>1452.5</ele>
        <time>2026-07-15T12:59:25Z</time>
      </trkpt>
      <trkpt lat="42.89796" lon="-0.20567">
        <ele>1452.5</ele>
        <time>2026-07-15T12:59:26Z</time>
      </trkpt>
      <trkpt lat="42.89796" lon="-0.20567">
        <ele>1451.5</ele>
        <time>2026-07-15T12:59:26Z</time>
      </trkpt>
      <trkpt lat="42.89796" lon="-0.20568">
        <ele>1451.5</ele>
        <time>2026-07-15T12:59:27Z</time>
      </trkpt>
      <trkpt lat="42.89797" lon="-0.20569">
        <ele>1451.5</ele>
        <time>2026-07-15T12:59:28Z</time>
      </trkpt>
      <trkpt lat="42.89797" lon="-0.20569">
        <ele>1450.5</ele>
        <time>2026-07-15T12:59:29Z</time>
      </trkpt>
      <trkpt lat="42.89797" lon="-0.20569">
        <ele>1450.5</ele>
        <time>2026-07-15T12:59:29Z</time>
      </trkpt>
      <trkpt lat="42.89798" lon="-0.2057">
        <ele>1450.5</ele>
        <time>2026-07-15T12:59:30Z</time>
      </trkpt>
      <trkpt lat="42.89798" lon="-0.2057">
        <ele>1450.5</ele>
        <time>2026-07-15T12:59:31Z</time>
      </trkpt>
      <trkpt lat="42.89799" lon="-0.2057">
        <ele>1450.5</ele>
        <time>2026-07-15T12:59:32Z</time>
      </trkpt>
      <trkpt lat="42.89799" lon="-0.20569">
        <ele>1450.5</ele>
        <time>2026-07-15T12:59:33Z</time>
      </trkpt>
      <trkpt lat="42.89799" lon="-0.20567">
        <ele>1450.5</ele>
        <time>2026-07-15T12:59:34Z</time>
      </trkpt>
      <trkpt lat="42.89799" lon="-0.20566">
        <ele>1450.5</ele>
        <time>2026-07-15T12:59:35Z</time>
      </trkpt>
      <trkpt lat="42.89799" lon="-0.20565">
        <ele>1449.5</ele>
        <time>2026-07-15T12:59:35Z</time>
      </trkpt>
      <trkpt lat="42.89799" lon="-0.20564">
        <ele>1449.5</ele>
        <time>2026-07-15T12:59:36Z</time>
      </trkpt>
      <trkpt lat="42.89799" lon="-0.20564">
        <ele>1449.5</ele>
        <time>2026-07-15T12:59:37Z</time>
      </trkpt>
      <trkpt lat="42.898" lon="-0.20564">
        <ele>1449.5</ele>
        <time>2026-07-15T12:59:38Z</time>
      </trkpt>
      <trkpt lat="42.898" lon="-0.20565">
        <ele>1449.5</ele>
        <time>2026-07-15T12:59:39Z</time>
      </trkpt>
      <trkpt lat="42.898" lon="-0.20565">
        <ele>1449.5</ele>
        <time>2026-07-15T12:59:40Z</time>
      </trkpt>
      <trkpt lat="42.898" lon="-0.20565">
        <ele>1449.5</ele>
        <time>2026-07-15T12:59:40Z</time>
      </trkpt>
      <trkpt lat="42.898" lon="-0.20565">
        <ele>1449.5</ele>
        <time>2026-07-15T12:59:41Z</time>
      </trkpt>
      <trkpt lat="42.898" lon="-0.20565">
        <ele>1449.5</ele>
        <time>2026-07-15T12:59:42Z</time>
      </trkpt>
      <trkpt lat="42.89801" lon="-0.20565">
        <ele>1449.5</ele>
        <time>2026-07-15T12:59:42Z</time>
      </trkpt>
      <trkpt lat="42.89801" lon="-0.20565">
        <ele>1449.5</ele>
        <time>2026-07-15T12:59:43Z</time>
      </trkpt>
      <trkpt lat="42.89801" lon="-0.20564">
        <ele>1449.5</ele>
        <time>2026-07-15T12:59:44Z</time>
      </trkpt>
      <trkpt lat="42.89801" lon="-0.20563">
        <ele>1449.5</ele>
        <time>2026-07-15T12:59:45Z</time>
      </trkpt>
      <trkpt lat="42.89801" lon="-0.20563">
        <ele>1449.5</ele>
        <time>2026-07-15T12:59:46Z</time>
      </trkpt>
      <trkpt lat="42.89802" lon="-0.20562">
        <ele>1449.5</ele>
        <time>2026-07-15T12:59:47Z</time>
      </trkpt>
      <trkpt lat="42.89803" lon="-0.20561">
        <ele>1449.5</ele>
        <time>2026-07-15T12:59:48Z</time>
      </trkpt>
      <trkpt lat="42.89803" lon="-0.20561">
        <ele>1448.5</ele>
        <time>2026-07-15T12:59:48Z</time>
      </trkpt>
      <trkpt lat="42.89804" lon="-0.2056">
        <ele>1448.5</ele>
        <time>2026-07-15T12:59:49Z</time>
      </trkpt>
      <trkpt lat="42.89804" lon="-0.20559">
        <ele>1447.5</ele>
        <time>2026-07-15T12:59:50Z</time>
      </trkpt>
      <trkpt lat="42.89804" lon="-0.20558">
        <ele>1447.5</ele>
        <time>2026-07-15T12:59:50Z</time>
      </trkpt>
      <trkpt lat="42.89804" lon="-0.20557">
        <ele>1447.5</ele>
        <time>2026-07-15T12:59:51Z</time>
      </trkpt>
      <trkpt lat="42.89804" lon="-0.20557">
        <ele>1447.5</ele>
        <time>2026-07-15T12:59:51Z</time>
      </trkpt>
      <trkpt lat="42.89805" lon="-0.20557">
        <ele>1447.5</ele>
        <time>2026-07-15T12:59:52Z</time>
      </trkpt>
      <trkpt lat="42.89805" lon="-0.20557">
        <ele>1447.5</ele>
        <time>2026-07-15T12:59:53Z</time>
      </trkpt>
      <trkpt lat="42.89806" lon="-0.20557">
        <ele>1447.5</ele>
        <time>2026-07-15T12:59:53Z</time>
      </trkpt>
      <trkpt lat="42.89806" lon="-0.20557">
        <ele>1447.5</ele>
        <time>2026-07-15T12:59:54Z</time>
      </trkpt>
      <trkpt lat="42.89807" lon="-0.20558">
        <ele>1447.5</ele>
        <time>2026-07-15T12:59:54Z</time>
      </trkpt>
      <trkpt lat="42.89807" lon="-0.20558">
        <ele>1448.5</ele>
        <time>2026-07-15T12:59:55Z</time>
      </trkpt>
      <trkpt lat="42.89808" lon="-0.20559">
        <ele>1448.5</ele>
        <time>2026-07-15T12:59:56Z</time>
      </trkpt>
      <trkpt lat="42.89809" lon="-0.20559">
        <ele>1448.5</ele>
        <time>2026-07-15T12:59:57Z</time>
      </trkpt>
      <trkpt lat="42.89809" lon="-0.20559">
        <ele>1447.5</ele>
        <time>2026-07-15T12:59:57Z</time>
      </trkpt>
      <trkpt lat="42.89809" lon="-0.20559">
        <ele>1447.5</ele>
        <time>2026-07-15T12:59:58Z</time>
      </trkpt>
      <trkpt lat="42.8981" lon="-0.20558">
        <ele>1447.5</ele>
        <time>2026-07-15T12:59:59Z</time>
      </trkpt>
      <trkpt lat="42.8981" lon="-0.20558">
        <ele>1447.5</ele>
        <time>2026-07-15T12:59:59Z</time>
      </trkpt>
      <trkpt lat="42.8981" lon="-0.20557">
        <ele>1447.5</ele>
        <time>2026-07-15T13:00:00Z</time>
      </trkpt>
      <trkpt lat="42.8981" lon="-0.20557">
        <ele>1446.5</ele>
        <time>2026-07-15T13:00:01Z</time>
      </trkpt>
      <trkpt lat="42.8981" lon="-0.20556">
        <ele>1446.5</ele>
        <time>2026-07-15T13:00:01Z</time>
      </trkpt>
      <trkpt lat="42.89811" lon="-0.20556">
        <ele>1446.5</ele>
        <time>2026-07-15T13:00:02Z</time>
      </trkpt>
      <trkpt lat="42.89811" lon="-0.20555">
        <ele>1446.5</ele>
        <time>2026-07-15T13:00:02Z</time>
      </trkpt>
      <trkpt lat="42.89811" lon="-0.20554">
        <ele>1446.5</ele>
        <time>2026-07-15T13:00:03Z</time>
      </trkpt>
      <trkpt lat="42.89811" lon="-0.20553">
        <ele>1446.5</ele>
        <time>2026-07-15T13:00:04Z</time>
      </trkpt>
      <trkpt lat="42.89811" lon="-0.20553">
        <ele>1446.5</ele>
        <time>2026-07-15T13:00:04Z</time>
      </trkpt>
      <trkpt lat="42.89811" lon="-0.20552">
        <ele>1446.5</ele>
        <time>2026-07-15T13:00:05Z</time>
      </trkpt>
      <trkpt lat="42.89811" lon="-0.20551">
        <ele>1445.5</ele>
        <time>2026-07-15T13:00:05Z</time>
      </trkpt>
      <trkpt lat="42.89811" lon="-0.2055">
        <ele>1445.5</ele>
        <time>2026-07-15T13:00:06Z</time>
      </trkpt>
      <trkpt lat="42.89811" lon="-0.20549">
        <ele>1445.5</ele>
        <time>2026-07-15T13:00:07Z</time>
      </trkpt>
      <trkpt lat="42.89811" lon="-0.20549">
        <ele>1445.5</ele>
        <time>2026-07-15T13:00:07Z</time>
      </trkpt>
      <trkpt lat="42.89811" lon="-0.20548">
        <ele>1445.5</ele>
        <time>2026-07-15T13:00:08Z</time>
      </trkpt>
      <trkpt lat="42.89811" lon="-0.20547">
        <ele>1445.5</ele>
        <time>2026-07-15T13:00:09Z</time>
      </trkpt>
      <trkpt lat="42.8981" lon="-0.20546">
        <ele>1445.5</ele>
        <time>2026-07-15T13:00:10Z</time>
      </trkpt>
      <trkpt lat="42.8981" lon="-0.20546">
        <ele>1445.5</ele>
        <time>2026-07-15T13:00:10Z</time>
      </trkpt>
      <trkpt lat="42.8981" lon="-0.20545">
        <ele>1445.5</ele>
        <time>2026-07-15T13:00:11Z</time>
      </trkpt>
      <trkpt lat="42.8981" lon="-0.20544">
        <ele>1445.5</ele>
        <time>2026-07-15T13:00:11Z</time>
      </trkpt>
      <trkpt lat="42.8981" lon="-0.20544">
        <ele>1445.5</ele>
        <time>2026-07-15T13:00:12Z</time>
      </trkpt>
      <trkpt lat="42.89811" lon="-0.20543">
        <ele>1444.5</ele>
        <time>2026-07-15T13:00:12Z</time>
      </trkpt>
      <trkpt lat="42.89811" lon="-0.20542">
        <ele>1444.5</ele>
        <time>2026-07-15T13:00:13Z</time>
      </trkpt>
      <trkpt lat="42.89811" lon="-0.20541">
        <ele>1444.5</ele>
        <time>2026-07-15T13:00:14Z</time>
      </trkpt>
      <trkpt lat="42.89811" lon="-0.20541">
        <ele>1444.5</ele>
        <time>2026-07-15T13:00:14Z</time>
      </trkpt>
      <trkpt lat="42.89811" lon="-0.2054">
        <ele>1444.5</ele>
        <time>2026-07-15T13:00:15Z</time>
      </trkpt>
      <trkpt lat="42.89812" lon="-0.2054">
        <ele>1443.5</ele>
        <time>2026-07-15T13:00:15Z</time>
      </trkpt>
      <trkpt lat="42.89812" lon="-0.20539">
        <ele>1444.5</ele>
        <time>2026-07-15T13:00:16Z</time>
      </trkpt>
      <trkpt lat="42.89812" lon="-0.20539">
        <ele>1444.5</ele>
        <time>2026-07-15T13:00:16Z</time>
      </trkpt>
      <trkpt lat="42.89812" lon="-0.20538">
        <ele>1444.5</ele>
        <time>2026-07-15T13:00:17Z</time>
      </trkpt>
      <trkpt lat="42.89812" lon="-0.20539">
        <ele>1444.5</ele>
        <time>2026-07-15T13:00:18Z</time>
      </trkpt>
      <trkpt lat="42.89812" lon="-0.20539">
        <ele>1444.5</ele>
        <time>2026-07-15T13:00:19Z</time>
      </trkpt>
      <trkpt lat="42.89812" lon="-0.20539">
        <ele>1443.5</ele>
        <time>2026-07-15T13:00:20Z</time>
      </trkpt>
      <trkpt lat="42.89813" lon="-0.20538">
        <ele>1443.5</ele>
        <time>2026-07-15T13:00:21Z</time>
      </trkpt>
      <trkpt lat="42.89813" lon="-0.20538">
        <ele>1443.5</ele>
        <time>2026-07-15T13:00:21Z</time>
      </trkpt>
      <trkpt lat="42.89813" lon="-0.20538">
        <ele>1443.5</ele>
        <time>2026-07-15T13:00:22Z</time>
      </trkpt>
      <trkpt lat="42.89813" lon="-0.20537">
        <ele>1443.5</ele>
        <time>2026-07-15T13:00:23Z</time>
      </trkpt>
      <trkpt lat="42.89813" lon="-0.20537">
        <ele>1442.5</ele>
        <time>2026-07-15T13:00:23Z</time>
      </trkpt>
      <trkpt lat="42.89813" lon="-0.20536">
        <ele>1442.5</ele>
        <time>2026-07-15T13:00:24Z</time>
      </trkpt>
      <trkpt lat="42.89813" lon="-0.20535">
        <ele>1442.5</ele>
        <time>2026-07-15T13:00:25Z</time>
      </trkpt>
      <trkpt lat="42.89813" lon="-0.20534">
        <ele>1442.5</ele>
        <time>2026-07-15T13:00:25Z</time>
      </trkpt>
      <trkpt lat="42.89813" lon="-0.20533">
        <ele>1441.5</ele>
        <time>2026-07-15T13:00:26Z</time>
      </trkpt>
      <trkpt lat="42.89813" lon="-0.20532">
        <ele>1441.5</ele>
        <time>2026-07-15T13:00:27Z</time>
      </trkpt>
      <trkpt lat="42.89813" lon="-0.20532">
        <ele>1441.5</ele>
        <time>2026-07-15T13:00:27Z</time>
      </trkpt>
      <trkpt lat="42.89813" lon="-0.20531">
        <ele>1441.5</ele>
        <time>2026-07-15T13:00:28Z</time>
      </trkpt>
      <trkpt lat="42.89813" lon="-0.2053">
        <ele>1441.5</ele>
        <time>2026-07-15T13:00:28Z</time>
      </trkpt>
      <trkpt lat="42.89813" lon="-0.2053">
        <ele>1441.5</ele>
        <time>2026-07-15T13:00:29Z</time>
      </trkpt>
      <trkpt lat="42.89813" lon="-0.20529">
        <ele>1441.5</ele>
        <time>2026-07-15T13:00:29Z</time>
      </trkpt>
      <trkpt lat="42.89813" lon="-0.20529">
        <ele>1441.5</ele>
        <time>2026-07-15T13:00:30Z</time>
      </trkpt>
      <trkpt lat="42.89813" lon="-0.20528">
        <ele>1441.5</ele>
        <time>2026-07-15T13:00:30Z</time>
      </trkpt>
      <trkpt lat="42.89813" lon="-0.20528">
        <ele>1441.5</ele>
        <time>2026-07-15T13:00:31Z</time>
      </trkpt>
      <trkpt lat="42.89814" lon="-0.20528">
        <ele>1441.5</ele>
        <time>2026-07-15T13:00:31Z</time>
      </trkpt>
      <trkpt lat="42.89814" lon="-0.20527">
        <ele>1440.5</ele>
        <time>2026-07-15T13:00:32Z</time>
      </trkpt>
      <trkpt lat="42.89814" lon="-0.20526">
        <ele>1440.5</ele>
        <time>2026-07-15T13:00:33Z</time>
      </trkpt>
      <trkpt lat="42.89814" lon="-0.20525">
        <ele>1439.5</ele>
        <time>2026-07-15T13:00:33Z</time>
      </trkpt>
      <trkpt lat="42.89815" lon="-0.20525">
        <ele>1439.5</ele>
        <time>2026-07-15T13:00:33Z</time>
      </trkpt>
      <trkpt lat="42.89815" lon="-0.20524">
        <ele>1439.5</ele>
        <time>2026-07-15T13:00:34Z</time>
      </trkpt>
      <trkpt lat="42.89815" lon="-0.20522">
        <ele>1439.5</ele>
        <time>2026-07-15T13:00:35Z</time>
      </trkpt>
      <trkpt lat="42.89815" lon="-0.20521">
        <ele>1439.5</ele>
        <time>2026-07-15T13:00:36Z</time>
      </trkpt>
      <trkpt lat="42.89815" lon="-0.2052">
        <ele>1438.5</ele>
        <time>2026-07-15T13:00:37Z</time>
      </trkpt>
      <trkpt lat="42.89815" lon="-0.20519">
        <ele>1438.5</ele>
        <time>2026-07-15T13:00:37Z</time>
      </trkpt>
      <trkpt lat="42.89816" lon="-0.20518">
        <ele>1438.5</ele>
        <time>2026-07-15T13:00:38Z</time>
      </trkpt>
      <trkpt lat="42.89816" lon="-0.20517">
        <ele>1438.5</ele>
        <time>2026-07-15T13:00:39Z</time>
      </trkpt>
      <trkpt lat="42.89816" lon="-0.20516">
        <ele>1438.5</ele>
        <time>2026-07-15T13:00:39Z</time>
      </trkpt>
      <trkpt lat="42.89816" lon="-0.20515">
        <ele>1438.5</ele>
        <time>2026-07-15T13:00:40Z</time>
      </trkpt>
      <trkpt lat="42.89816" lon="-0.20515">
        <ele>1437.5</ele>
        <time>2026-07-15T13:00:41Z</time>
      </trkpt>
      <trkpt lat="42.89816" lon="-0.20514">
        <ele>1437.5</ele>
        <time>2026-07-15T13:00:41Z</time>
      </trkpt>
      <trkpt lat="42.89816" lon="-0.20513">
        <ele>1437.5</ele>
        <time>2026-07-15T13:00:42Z</time>
      </trkpt>
      <trkpt lat="42.89817" lon="-0.20512">
        <ele>1437.5</ele>
        <time>2026-07-15T13:00:43Z</time>
      </trkpt>
      <trkpt lat="42.89817" lon="-0.20511">
        <ele>1437.5</ele>
        <time>2026-07-15T13:00:44Z</time>
      </trkpt>
      <trkpt lat="42.89817" lon="-0.2051">
        <ele>1436.5</ele>
        <time>2026-07-15T13:00:45Z</time>
      </trkpt>
      <trkpt lat="42.89817" lon="-0.20509">
        <ele>1436.5</ele>
        <time>2026-07-15T13:00:45Z</time>
      </trkpt>
      <trkpt lat="42.89817" lon="-0.20508">
        <ele>1436.5</ele>
        <time>2026-07-15T13:00:46Z</time>
      </trkpt>
      <trkpt lat="42.89817" lon="-0.20508">
        <ele>1436.5</ele>
        <time>2026-07-15T13:00:46Z</time>
      </trkpt>
      <trkpt lat="42.89818" lon="-0.20507">
        <ele>1436.5</ele>
        <time>2026-07-15T13:00:47Z</time>
      </trkpt>
      <trkpt lat="42.89818" lon="-0.20506">
        <ele>1436.5</ele>
        <time>2026-07-15T13:00:47Z</time>
      </trkpt>
      <trkpt lat="42.89818" lon="-0.20505">
        <ele>1436.5</ele>
        <time>2026-07-15T13:00:48Z</time>
      </trkpt>
      <trkpt lat="42.89819" lon="-0.20504">
        <ele>1436.5</ele>
        <time>2026-07-15T13:00:49Z</time>
      </trkpt>
      <trkpt lat="42.89819" lon="-0.20504">
        <ele>1436.5</ele>
        <time>2026-07-15T13:00:49Z</time>
      </trkpt>
      <trkpt lat="42.8982" lon="-0.20503">
        <ele>1436.5</ele>
        <time>2026-07-15T13:00:50Z</time>
      </trkpt>
      <trkpt lat="42.89821" lon="-0.20502">
        <ele>1435.5</ele>
        <time>2026-07-15T13:00:51Z</time>
      </trkpt>
      <trkpt lat="42.89821" lon="-0.20501">
        <ele>1435.5</ele>
        <time>2026-07-15T13:00:52Z</time>
      </trkpt>
      <trkpt lat="42.89821" lon="-0.205">
        <ele>1434.5</ele>
        <time>2026-07-15T13:00:52Z</time>
      </trkpt>
      <trkpt lat="42.89821" lon="-0.205">
        <ele>1434.5</ele>
        <time>2026-07-15T13:00:53Z</time>
      </trkpt>
      <trkpt lat="42.89821" lon="-0.20499">
        <ele>1434.5</ele>
        <time>2026-07-15T13:00:54Z</time>
      </trkpt>
      <trkpt lat="42.89821" lon="-0.20499">
        <ele>1434.5</ele>
        <time>2026-07-15T13:00:54Z</time>
      </trkpt>
      <trkpt lat="42.89821" lon="-0.20498">
        <ele>1434.5</ele>
        <time>2026-07-15T13:00:55Z</time>
      </trkpt>
      <trkpt lat="42.89821" lon="-0.20497">
        <ele>1434.5</ele>
        <time>2026-07-15T13:00:56Z</time>
      </trkpt>
      <trkpt lat="42.89821" lon="-0.20496">
        <ele>1434.5</ele>
        <time>2026-07-15T13:00:56Z</time>
      </trkpt>
      <trkpt lat="42.89821" lon="-0.20495">
        <ele>1434.5</ele>
        <time>2026-07-15T13:00:57Z</time>
      </trkpt>
      <trkpt lat="42.89822" lon="-0.20495">
        <ele>1434.5</ele>
        <time>2026-07-15T13:00:57Z</time>
      </trkpt>
      <trkpt lat="42.89822" lon="-0.20494">
        <ele>1434.5</ele>
        <time>2026-07-15T13:00:58Z</time>
      </trkpt>
      <trkpt lat="42.89822" lon="-0.20492">
        <ele>1433.5</ele>
        <time>2026-07-15T13:00:59Z</time>
      </trkpt>
      <trkpt lat="42.89822" lon="-0.20491">
        <ele>1433.5</ele>
        <time>2026-07-15T13:01:00Z</time>
      </trkpt>
      <trkpt lat="42.89823" lon="-0.2049">
        <ele>1432.5</ele>
        <time>2026-07-15T13:01:01Z</time>
      </trkpt>
      <trkpt lat="42.89823" lon="-0.20489">
        <ele>1431.5</ele>
        <time>2026-07-15T13:01:02Z</time>
      </trkpt>
      <trkpt lat="42.89823" lon="-0.20489">
        <ele>1431.5</ele>
        <time>2026-07-15T13:01:03Z</time>
      </trkpt>
      <trkpt lat="42.89823" lon="-0.20488">
        <ele>1431.5</ele>
        <time>2026-07-15T13:01:03Z</time>
      </trkpt>
      <trkpt lat="42.89823" lon="-0.20488">
        <ele>1431.5</ele>
        <time>2026-07-15T13:01:04Z</time>
      </trkpt>
      <trkpt lat="42.89823" lon="-0.20487">
        <ele>1431.5</ele>
        <time>2026-07-15T13:01:04Z</time>
      </trkpt>
      <trkpt lat="42.89824" lon="-0.20487">
        <ele>1430.5</ele>
        <time>2026-07-15T13:01:05Z</time>
      </trkpt>
      <trkpt lat="42.89825" lon="-0.20486">
        <ele>1430.5</ele>
        <time>2026-07-15T13:01:06Z</time>
      </trkpt>
      <trkpt lat="42.89825" lon="-0.20486">
        <ele>1430.5</ele>
        <time>2026-07-15T13:01:06Z</time>
      </trkpt>
      <trkpt lat="42.89826" lon="-0.20485">
        <ele>1430.5</ele>
        <time>2026-07-15T13:01:07Z</time>
      </trkpt>
      <trkpt lat="42.89826" lon="-0.20485">
        <ele>1430.5</ele>
        <time>2026-07-15T13:01:07Z</time>
      </trkpt>
      <trkpt lat="42.89826" lon="-0.20484">
        <ele>1430.5</ele>
        <time>2026-07-15T13:01:08Z</time>
      </trkpt>
      <trkpt lat="42.89827" lon="-0.20483">
        <ele>1429.5</ele>
        <time>2026-07-15T13:01:08Z</time>
      </trkpt>
      <trkpt lat="42.89827" lon="-0.20483">
        <ele>1429.5</ele>
        <time>2026-07-15T13:01:09Z</time>
      </trkpt>
      <trkpt lat="42.89828" lon="-0.20482">
        <ele>1429.5</ele>
        <time>2026-07-15T13:01:10Z</time>
      </trkpt>
      <trkpt lat="42.89828" lon="-0.20481">
        <ele>1428.5</ele>
        <time>2026-07-15T13:01:10Z</time>
      </trkpt>
      <trkpt lat="42.89828" lon="-0.20481">
        <ele>1428.5</ele>
        <time>2026-07-15T13:01:11Z</time>
      </trkpt>
      <trkpt lat="42.89829" lon="-0.20481">
        <ele>1428.5</ele>
        <time>2026-07-15T13:01:11Z</time>
      </trkpt>
      <trkpt lat="42.8983" lon="-0.2048">
        <ele>1428.5</ele>
        <time>2026-07-15T13:01:12Z</time>
      </trkpt>
      <trkpt lat="42.8983" lon="-0.2048">
        <ele>1427.5</ele>
        <time>2026-07-15T13:01:12Z</time>
      </trkpt>
      <trkpt lat="42.89831" lon="-0.20479">
        <ele>1427.5</ele>
        <time>2026-07-15T13:01:13Z</time>
      </trkpt>
      <trkpt lat="42.89831" lon="-0.20479">
        <ele>1428.5</ele>
        <time>2026-07-15T13:01:14Z</time>
      </trkpt>
      <trkpt lat="42.89832" lon="-0.20479">
        <ele>1427.5</ele>
        <time>2026-07-15T13:01:14Z</time>
      </trkpt>
      <trkpt lat="42.89832" lon="-0.20479">
        <ele>1427.5</ele>
        <time>2026-07-15T13:01:15Z</time>
      </trkpt>
      <trkpt lat="42.89833" lon="-0.20479">
        <ele>1427.5</ele>
        <time>2026-07-15T13:01:15Z</time>
      </trkpt>
      <trkpt lat="42.89833" lon="-0.20478">
        <ele>1427.5</ele>
        <time>2026-07-15T13:01:16Z</time>
      </trkpt>
      <trkpt lat="42.89833" lon="-0.20478">
        <ele>1426.5</ele>
        <time>2026-07-15T13:01:16Z</time>
      </trkpt>
      <trkpt lat="42.89834" lon="-0.20477">
        <ele>1426.5</ele>
        <time>2026-07-15T13:01:17Z</time>
      </trkpt>
      <trkpt lat="42.89835" lon="-0.20476">
        <ele>1426.5</ele>
        <time>2026-07-15T13:01:18Z</time>
      </trkpt>
      <trkpt lat="42.89835" lon="-0.20476">
        <ele>1426.5</ele>
        <time>2026-07-15T13:01:19Z</time>
      </trkpt>
      <trkpt lat="42.89836" lon="-0.20476">
        <ele>1426.5</ele>
        <time>2026-07-15T13:01:20Z</time>
      </trkpt>
      <trkpt lat="42.89837" lon="-0.20476">
        <ele>1425.5</ele>
        <time>2026-07-15T13:01:21Z</time>
      </trkpt>
      <trkpt lat="42.89838" lon="-0.20477">
        <ele>1425.5</ele>
        <time>2026-07-15T13:01:21Z</time>
      </trkpt>
      <trkpt lat="42.89838" lon="-0.20477">
        <ele>1425.5</ele>
        <time>2026-07-15T13:01:22Z</time>
      </trkpt>
      <trkpt lat="42.89839" lon="-0.20477">
        <ele>1425.5</ele>
        <time>2026-07-15T13:01:23Z</time>
      </trkpt>
      <trkpt lat="42.89839" lon="-0.20477">
        <ele>1425.5</ele>
        <time>2026-07-15T13:01:23Z</time>
      </trkpt>
      <trkpt lat="42.8984" lon="-0.20477">
        <ele>1425.5</ele>
        <time>2026-07-15T13:01:24Z</time>
      </trkpt>
      <trkpt lat="42.8984" lon="-0.20477">
        <ele>1425.5</ele>
        <time>2026-07-15T13:01:24Z</time>
      </trkpt>
      <trkpt lat="42.89841" lon="-0.20478">
        <ele>1425.5</ele>
        <time>2026-07-15T13:01:25Z</time>
      </trkpt>
      <trkpt lat="42.89841" lon="-0.20478">
        <ele>1425.5</ele>
        <time>2026-07-15T13:01:25Z</time>
      </trkpt>
      <trkpt lat="42.89842" lon="-0.20478">
        <ele>1425.5</ele>
        <time>2026-07-15T13:01:26Z</time>
      </trkpt>
      <trkpt lat="42.89843" lon="-0.20478">
        <ele>1425.5</ele>
        <time>2026-07-15T13:01:27Z</time>
      </trkpt>
      <trkpt lat="42.89844" lon="-0.20477">
        <ele>1426.5</ele>
        <time>2026-07-15T13:01:27Z</time>
      </trkpt>
      <trkpt lat="42.89844" lon="-0.20477">
        <ele>1426.5</ele>
        <time>2026-07-15T13:01:28Z</time>
      </trkpt>
      <trkpt lat="42.89845" lon="-0.20477">
        <ele>1426.5</ele>
        <time>2026-07-15T13:01:29Z</time>
      </trkpt>
      <trkpt lat="42.89845" lon="-0.20476">
        <ele>1427.5</ele>
        <time>2026-07-15T13:01:29Z</time>
      </trkpt>
      <trkpt lat="42.89846" lon="-0.20476">
        <ele>1428.5</ele>
        <time>2026-07-15T13:01:30Z</time>
      </trkpt>
      <trkpt lat="42.89847" lon="-0.20476">
        <ele>1428.5</ele>
        <time>2026-07-15T13:01:31Z</time>
      </trkpt>
      <trkpt lat="42.89848" lon="-0.20476">
        <ele>1428.5</ele>
        <time>2026-07-15T13:01:31Z</time>
      </trkpt>
      <trkpt lat="42.89848" lon="-0.20475">
        <ele>1428.5</ele>
        <time>2026-07-15T13:01:32Z</time>
      </trkpt>
      <trkpt lat="42.89849" lon="-0.20475">
        <ele>1428.5</ele>
        <time>2026-07-15T13:01:32Z</time>
      </trkpt>
      <trkpt lat="42.8985" lon="-0.20475">
        <ele>1428.5</ele>
        <time>2026-07-15T13:01:33Z</time>
      </trkpt>
      <trkpt lat="42.8985" lon="-0.20475">
        <ele>1428.5</ele>
        <time>2026-07-15T13:01:33Z</time>
      </trkpt>
      <trkpt lat="42.89851" lon="-0.20475">
        <ele>1428.5</ele>
        <time>2026-07-15T13:01:34Z</time>
      </trkpt>
      <trkpt lat="42.89852" lon="-0.20475">
        <ele>1428.5</ele>
        <time>2026-07-15T13:01:35Z</time>
      </trkpt>
      <trkpt lat="42.89852" lon="-0.20475">
        <ele>1428.5</ele>
        <time>2026-07-15T13:01:35Z</time>
      </trkpt>
      <trkpt lat="42.89853" lon="-0.20475">
        <ele>1428.5</ele>
        <time>2026-07-15T13:01:36Z</time>
      </trkpt>
      <trkpt lat="42.89854" lon="-0.20475">
        <ele>1428.5</ele>
        <time>2026-07-15T13:01:37Z</time>
      </trkpt>
      <trkpt lat="42.89854" lon="-0.20475">
        <ele>1429.5</ele>
        <time>2026-07-15T13:01:37Z</time>
      </trkpt>
      <trkpt lat="42.89855" lon="-0.20475">
        <ele>1429.5</ele>
        <time>2026-07-15T13:01:38Z</time>
      </trkpt>
      <trkpt lat="42.89855" lon="-0.20475">
        <ele>1429.5</ele>
        <time>2026-07-15T13:01:38Z</time>
      </trkpt>
      <trkpt lat="42.89856" lon="-0.20475">
        <ele>1429.5</ele>
        <time>2026-07-15T13:01:39Z</time>
      </trkpt>
      <trkpt lat="42.89856" lon="-0.20474">
        <ele>1428.5</ele>
        <time>2026-07-15T13:01:39Z</time>
      </trkpt>
      <trkpt lat="42.89857" lon="-0.20474">
        <ele>1428.5</ele>
        <time>2026-07-15T13:01:40Z</time>
      </trkpt>
      <trkpt lat="42.89857" lon="-0.20474">
        <ele>1428.5</ele>
        <time>2026-07-15T13:01:40Z</time>
      </trkpt>
      <trkpt lat="42.89858" lon="-0.20474">
        <ele>1428.5</ele>
        <time>2026-07-15T13:01:41Z</time>
      </trkpt>
      <trkpt lat="42.89859" lon="-0.20474">
        <ele>1428.5</ele>
        <time>2026-07-15T13:01:42Z</time>
      </trkpt>
      <trkpt lat="42.89859" lon="-0.20474">
        <ele>1428.5</ele>
        <time>2026-07-15T13:01:42Z</time>
      </trkpt>
      <trkpt lat="42.8986" lon="-0.20474">
        <ele>1428.5</ele>
        <time>2026-07-15T13:01:43Z</time>
      </trkpt>
      <trkpt lat="42.8986" lon="-0.20474">
        <ele>1427.5</ele>
        <time>2026-07-15T13:01:43Z</time>
      </trkpt>
      <trkpt lat="42.8986" lon="-0.20474">
        <ele>1427.5</ele>
        <time>2026-07-15T13:01:44Z</time>
      </trkpt>
      <trkpt lat="42.89861" lon="-0.20474">
        <ele>1427.5</ele>
        <time>2026-07-15T13:01:44Z</time>
      </trkpt>
      <trkpt lat="42.89861" lon="-0.20474">
        <ele>1427.5</ele>
        <time>2026-07-15T13:01:45Z</time>
      </trkpt>
      <trkpt lat="42.89862" lon="-0.20474">
        <ele>1427.5</ele>
        <time>2026-07-15T13:01:45Z</time>
      </trkpt>
      <trkpt lat="42.89863" lon="-0.20473">
        <ele>1427.5</ele>
        <time>2026-07-15T13:01:46Z</time>
      </trkpt>
      <trkpt lat="42.89863" lon="-0.20473">
        <ele>1426.5</ele>
        <time>2026-07-15T13:01:47Z</time>
      </trkpt>
      <trkpt lat="42.89863" lon="-0.20474">
        <ele>1427.5</ele>
        <time>2026-07-15T13:01:47Z</time>
      </trkpt>
      <trkpt lat="42.89864" lon="-0.20474">
        <ele>1427.5</ele>
        <time>2026-07-15T13:01:48Z</time>
      </trkpt>
      <trkpt lat="42.89864" lon="-0.20474">
        <ele>1427.5</ele>
        <time>2026-07-15T13:01:48Z</time>
      </trkpt>
      <trkpt lat="42.89865" lon="-0.20475">
        <ele>1427.5</ele>
        <time>2026-07-15T13:01:49Z</time>
      </trkpt>
      <trkpt lat="42.89865" lon="-0.20475">
        <ele>1426.5</ele>
        <time>2026-07-15T13:01:49Z</time>
      </trkpt>
      <trkpt lat="42.89866" lon="-0.20475">
        <ele>1426.5</ele>
        <time>2026-07-15T13:01:50Z</time>
      </trkpt>
      <trkpt lat="42.89866" lon="-0.20476">
        <ele>1426.5</ele>
        <time>2026-07-15T13:01:50Z</time>
      </trkpt>
      <trkpt lat="42.89867" lon="-0.20476">
        <ele>1426.5</ele>
        <time>2026-07-15T13:01:51Z</time>
      </trkpt>
      <trkpt lat="42.89867" lon="-0.20476">
        <ele>1426.5</ele>
        <time>2026-07-15T13:01:52Z</time>
      </trkpt>
      <trkpt lat="42.89867" lon="-0.20476">
        <ele>1426.5</ele>
        <time>2026-07-15T13:01:52Z</time>
      </trkpt>
      <trkpt lat="42.89868" lon="-0.20476">
        <ele>1426.5</ele>
        <time>2026-07-15T13:01:53Z</time>
      </trkpt>
      <trkpt lat="42.89868" lon="-0.20476">
        <ele>1425.5</ele>
        <time>2026-07-15T13:01:53Z</time>
      </trkpt>
      <trkpt lat="42.89869" lon="-0.20475">
        <ele>1425.5</ele>
        <time>2026-07-15T13:01:54Z</time>
      </trkpt>
      <trkpt lat="42.89869" lon="-0.20475">
        <ele>1425.5</ele>
        <time>2026-07-15T13:01:54Z</time>
      </trkpt>
      <trkpt lat="42.89869" lon="-0.20475">
        <ele>1425.5</ele>
        <time>2026-07-15T13:01:55Z</time>
      </trkpt>
      <trkpt lat="42.8987" lon="-0.20475">
        <ele>1425.5</ele>
        <time>2026-07-15T13:01:55Z</time>
      </trkpt>
      <trkpt lat="42.8987" lon="-0.20475">
        <ele>1425.5</ele>
        <time>2026-07-15T13:01:56Z</time>
      </trkpt>
      <trkpt lat="42.89871" lon="-0.20475">
        <ele>1425.5</ele>
        <time>2026-07-15T13:01:57Z</time>
      </trkpt>
      <trkpt lat="42.89871" lon="-0.20475">
        <ele>1424.5</ele>
        <time>2026-07-15T13:01:57Z</time>
      </trkpt>
      <trkpt lat="42.89871" lon="-0.20475">
        <ele>1424.5</ele>
        <time>2026-07-15T13:01:58Z</time>
      </trkpt>
      <trkpt lat="42.89871" lon="-0.20475">
        <ele>1424.5</ele>
        <time>2026-07-15T13:01:58Z</time>
      </trkpt>
      <trkpt lat="42.89872" lon="-0.20475">
        <ele>1424.5</ele>
        <time>2026-07-15T13:01:59Z</time>
      </trkpt>
      <trkpt lat="42.89872" lon="-0.20476">
        <ele>1424.5</ele>
        <time>2026-07-15T13:01:59Z</time>
      </trkpt>
      <trkpt lat="42.89873" lon="-0.20476">
        <ele>1424.5</ele>
        <time>2026-07-15T13:02:00Z</time>
      </trkpt>
      <trkpt lat="42.89873" lon="-0.20476">
        <ele>1424.5</ele>
        <time>2026-07-15T13:02:00Z</time>
      </trkpt>
      <trkpt lat="42.89874" lon="-0.20476">
        <ele>1424.5</ele>
        <time>2026-07-15T13:02:01Z</time>
      </trkpt>
      <trkpt lat="42.89874" lon="-0.20476">
        <ele>1423.5</ele>
        <time>2026-07-15T13:02:01Z</time>
      </trkpt>
      <trkpt lat="42.89874" lon="-0.20475">
        <ele>1423.5</ele>
        <time>2026-07-15T13:02:02Z</time>
      </trkpt>
      <trkpt lat="42.89874" lon="-0.20475">
        <ele>1423.5</ele>
        <time>2026-07-15T13:02:03Z</time>
      </trkpt>
      <trkpt lat="42.89875" lon="-0.20475">
        <ele>1423.5</ele>
        <time>2026-07-15T13:02:03Z</time>
      </trkpt>
      <trkpt lat="42.89875" lon="-0.20475">
        <ele>1423.5</ele>
        <time>2026-07-15T13:02:04Z</time>
      </trkpt>
      <trkpt lat="42.89875" lon="-0.20475">
        <ele>1423.5</ele>
        <time>2026-07-15T13:02:05Z</time>
      </trkpt>
      <trkpt lat="42.89876" lon="-0.20475">
        <ele>1422.5</ele>
        <time>2026-07-15T13:02:05Z</time>
      </trkpt>
      <trkpt lat="42.89876" lon="-0.20475">
        <ele>1422.5</ele>
        <time>2026-07-15T13:02:06Z</time>
      </trkpt>
      <trkpt lat="42.89877" lon="-0.20474">
        <ele>1421.5</ele>
        <time>2026-07-15T13:02:06Z</time>
      </trkpt>
      <trkpt lat="42.89877" lon="-0.20474">
        <ele>1421.5</ele>
        <time>2026-07-15T13:02:07Z</time>
      </trkpt>
      <trkpt lat="42.89877" lon="-0.20474">
        <ele>1421.5</ele>
        <time>2026-07-15T13:02:07Z</time>
      </trkpt>
      <trkpt lat="42.89877" lon="-0.20474">
        <ele>1420.5</ele>
        <time>2026-07-15T13:02:08Z</time>
      </trkpt>
      <trkpt lat="42.89876" lon="-0.20474">
        <ele>1420.5</ele>
        <time>2026-07-15T13:02:09Z</time>
      </trkpt>
      <trkpt lat="42.89876" lon="-0.20474">
        <ele>1420.5</ele>
        <time>2026-07-15T13:02:10Z</time>
      </trkpt>
      <trkpt lat="42.89875" lon="-0.20474">
        <ele>1420.5</ele>
        <time>2026-07-15T13:02:10Z</time>
      </trkpt>
      <trkpt lat="42.89875" lon="-0.20474">
        <ele>1420.5</ele>
        <time>2026-07-15T13:02:11Z</time>
      </trkpt>
      <trkpt lat="42.89875" lon="-0.20474">
        <ele>1420.5</ele>
        <time>2026-07-15T13:02:12Z</time>
      </trkpt>
      <trkpt lat="42.89875" lon="-0.20475">
        <ele>1420.5</ele>
        <time>2026-07-15T13:02:12Z</time>
      </trkpt>
      <trkpt lat="42.89875" lon="-0.20475">
        <ele>1420.5</ele>
        <time>2026-07-15T13:02:13Z</time>
      </trkpt>
      <trkpt lat="42.89876" lon="-0.20476">
        <ele>1420.5</ele>
        <time>2026-07-15T13:02:14Z</time>
      </trkpt>
      <trkpt lat="42.89876" lon="-0.20477">
        <ele>1420.5</ele>
        <time>2026-07-15T13:02:15Z</time>
      </trkpt>
      <trkpt lat="42.89876" lon="-0.20477">
        <ele>1419.5</ele>
        <time>2026-07-15T13:02:15Z</time>
      </trkpt>
      <trkpt lat="42.89876" lon="-0.20478">
        <ele>1419.5</ele>
        <time>2026-07-15T13:02:16Z</time>
      </trkpt>
      <trkpt lat="42.89877" lon="-0.20479">
        <ele>1419.5</ele>
        <time>2026-07-15T13:02:17Z</time>
      </trkpt>
      <trkpt lat="42.89876" lon="-0.20479">
        <ele>1419.5</ele>
        <time>2026-07-15T13:02:17Z</time>
      </trkpt>
      <trkpt lat="42.89876" lon="-0.2048">
        <ele>1419.5</ele>
        <time>2026-07-15T13:02:18Z</time>
      </trkpt>
      <trkpt lat="42.89876" lon="-0.2048">
        <ele>1419.5</ele>
        <time>2026-07-15T13:02:19Z</time>
      </trkpt>
      <trkpt lat="42.89876" lon="-0.2048">
        <ele>1419.5</ele>
        <time>2026-07-15T13:02:19Z</time>
      </trkpt>
      <trkpt lat="42.89876" lon="-0.2048">
        <ele>1419.5</ele>
        <time>2026-07-15T13:02:20Z</time>
      </trkpt>
      <trkpt lat="42.89876" lon="-0.2048">
        <ele>1419.5</ele>
        <time>2026-07-15T13:02:20Z</time>
      </trkpt>
      <trkpt lat="42.89877" lon="-0.2048">
        <ele>1420.5</ele>
        <time>2026-07-15T13:02:21Z</time>
      </trkpt>
      <trkpt lat="42.89877" lon="-0.2048">
        <ele>1420.5</ele>
        <time>2026-07-15T13:02:22Z</time>
      </trkpt>
      <trkpt lat="42.89877" lon="-0.2048">
        <ele>1420.5</ele>
        <time>2026-07-15T13:02:23Z</time>
      </trkpt>
      <trkpt lat="42.89877" lon="-0.2048">
        <ele>1421.5</ele>
        <time>2026-07-15T13:02:24Z</time>
      </trkpt>
      <trkpt lat="42.89877" lon="-0.20481">
        <ele>1421.5</ele>
        <time>2026-07-15T13:02:25Z</time>
      </trkpt>
      <trkpt lat="42.89877" lon="-0.20481">
        <ele>1421.5</ele>
        <time>2026-07-15T13:02:25Z</time>
      </trkpt>
      <trkpt lat="42.89878" lon="-0.20481">
        <ele>1421.5</ele>
        <time>2026-07-15T13:02:26Z</time>
      </trkpt>
      <trkpt lat="42.89878" lon="-0.20481">
        <ele>1421.5</ele>
        <time>2026-07-15T13:02:27Z</time>
      </trkpt>
      <trkpt lat="42.89878" lon="-0.20481">
        <ele>1420.5</ele>
        <time>2026-07-15T13:02:28Z</time>
      </trkpt>
      <trkpt lat="42.89878" lon="-0.20481">
        <ele>1420.5</ele>
        <time>2026-07-15T13:02:29Z</time>
      </trkpt>
      <trkpt lat="42.89878" lon="-0.20481">
        <ele>1420.5</ele>
        <time>2026-07-15T13:02:30Z</time>
      </trkpt>
      <trkpt lat="42.89879" lon="-0.20481">
        <ele>1421.5</ele>
        <time>2026-07-15T13:02:31Z</time>
      </trkpt>
      <trkpt lat="42.89879" lon="-0.20481">
        <ele>1420.5</ele>
        <time>2026-07-15T13:02:32Z</time>
      </trkpt>
      <trkpt lat="42.89879" lon="-0.20481">
        <ele>1420.5</ele>
        <time>2026-07-15T13:02:33Z</time>
      </trkpt>
      <trkpt lat="42.89879" lon="-0.20481">
        <ele>1421.5</ele>
        <time>2026-07-15T13:02:34Z</time>
      </trkpt>
      <trkpt lat="42.89879" lon="-0.20481">
        <ele>1421.5</ele>
        <time>2026-07-15T13:02:35Z</time>
      </trkpt>
      <trkpt lat="42.89879" lon="-0.20481">
        <ele>1421.5</ele>
        <time>2026-07-15T13:02:36Z</time>
      </trkpt>
      <trkpt lat="42.89879" lon="-0.20481">
        <ele>1419.5</ele>
        <time>2026-07-15T13:02:37Z</time>
      </trkpt>
      <trkpt lat="42.89879" lon="-0.20481">
        <ele>1420.5</ele>
        <time>2026-07-15T13:02:38Z</time>
      </trkpt>
      <trkpt lat="42.89879" lon="-0.20481">
        <ele>1420.5</ele>
        <time>2026-07-15T13:02:39Z</time>
      </trkpt>
      <trkpt lat="42.89879" lon="-0.20481">
        <ele>1421.5</ele>
        <time>2026-07-15T13:02:40Z</time>
      </trkpt>
      <trkpt lat="42.89879" lon="-0.20481">
        <ele>1420.5</ele>
        <time>2026-07-15T13:02:41Z</time>
      </trkpt>
      <trkpt lat="42.89879" lon="-0.20481">
        <ele>1420.5</ele>
        <time>2026-07-15T13:02:42Z</time>
      </trkpt>
      <trkpt lat="42.89879" lon="-0.20481">
        <ele>1420.5</ele>
        <time>2026-07-15T13:02:43Z</time>
      </trkpt>
      <trkpt lat="42.89879" lon="-0.20481">
        <ele>1419.5</ele>
        <time>2026-07-15T13:02:44Z</time>
      </trkpt>
      <trkpt lat="42.89879" lon="-0.20481">
        <ele>1419.5</ele>
        <time>2026-07-15T13:02:45Z</time>
      </trkpt>
      <trkpt lat="42.89879" lon="-0.20481">
        <ele>1419.5</ele>
        <time>2026-07-15T13:02:46Z</time>
      </trkpt>
      <trkpt lat="42.89879" lon="-0.2048">
        <ele>1419.5</ele>
        <time>2026-07-15T13:02:47Z</time>
      </trkpt>
      <trkpt lat="42.89879" lon="-0.2048">
        <ele>1419.5</ele>
        <time>2026-07-15T13:02:48Z</time>
      </trkpt>
      <trkpt lat="42.89879" lon="-0.2048">
        <ele>1419.5</ele>
        <time>2026-07-15T13:02:49Z</time>
      </trkpt>
      <trkpt lat="42.89879" lon="-0.2048">
        <ele>1419.5</ele>
        <time>2026-07-15T13:02:50Z</time>
      </trkpt>
      <trkpt lat="42.89879" lon="-0.2048">
        <ele>1419.5</ele>
        <time>2026-07-15T13:02:51Z</time>
      </trkpt>
      <trkpt lat="42.89879" lon="-0.2048">
        <ele>1419.5</ele>
        <time>2026-07-15T13:02:52Z</time>
      </trkpt>
      <trkpt lat="42.89879" lon="-0.2048">
        <ele>1419.5</ele>
        <time>2026-07-15T13:02:53Z</time>
      </trkpt>
      <trkpt lat="42.89879" lon="-0.2048">
        <ele>1419.5</ele>
        <time>2026-07-15T13:02:54Z</time>
      </trkpt>
      <trkpt lat="42.89879" lon="-0.2048">
        <ele>1419.5</ele>
        <time>2026-07-15T13:02:55Z</time>
      </trkpt>
      <trkpt lat="42.8988" lon="-0.2048">
        <ele>1419.5</ele>
        <time>2026-07-15T13:02:56Z</time>
      </trkpt>
      <trkpt lat="42.8988" lon="-0.2048">
        <ele>1419.5</ele>
        <time>2026-07-15T13:02:57Z</time>
      </trkpt>
      <trkpt lat="42.8988" lon="-0.2048">
        <ele>1419.5</ele>
        <time>2026-07-15T13:02:58Z</time>
      </trkpt>
      <trkpt lat="42.8988" lon="-0.2048">
        <ele>1419.5</ele>
        <time>2026-07-15T13:02:59Z</time>
      </trkpt>
      <trkpt lat="42.8988" lon="-0.2048">
        <ele>1418.5</ele>
        <time>2026-07-15T13:03:00Z</time>
      </trkpt>
      <trkpt lat="42.8988" lon="-0.2048">
        <ele>1419.5</ele>
        <time>2026-07-15T13:03:01Z</time>
      </trkpt>
      <trkpt lat="42.89881" lon="-0.20481">
        <ele>1419.5</ele>
        <time>2026-07-15T13:03:02Z</time>
      </trkpt>
      <trkpt lat="42.8988" lon="-0.20483">
        <ele>1419.5</ele>
        <time>2026-07-15T13:03:03Z</time>
      </trkpt>
      <trkpt lat="42.8988" lon="-0.20483">
        <ele>1419.5</ele>
        <time>2026-07-15T13:03:04Z</time>
      </trkpt>
      <trkpt lat="42.8988" lon="-0.20483">
        <ele>1419.5</ele>
        <time>2026-07-15T13:03:05Z</time>
      </trkpt>
      <trkpt lat="42.8988" lon="-0.20483">
        <ele>1419.5</ele>
        <time>2026-07-15T13:03:06Z</time>
      </trkpt>
      <trkpt lat="42.8988" lon="-0.20483">
        <ele>1419.5</ele>
        <time>2026-07-15T13:03:07Z</time>
      </trkpt>
      <trkpt lat="42.8988" lon="-0.20483">
        <ele>1419.5</ele>
        <time>2026-07-15T13:03:08Z</time>
      </trkpt>
      <trkpt lat="42.8988" lon="-0.20483">
        <ele>1419.5</ele>
        <time>2026-07-15T13:03:09Z</time>
      </trkpt>
      <trkpt lat="42.8988" lon="-0.20483">
        <ele>1419.5</ele>
        <time>2026-07-15T13:03:10Z</time>
      </trkpt>
      <trkpt lat="42.8988" lon="-0.20482">
        <ele>1418.5</ele>
        <time>2026-07-15T13:03:11Z</time>
      </trkpt>
      <trkpt lat="42.89879" lon="-0.20482">
        <ele>1418.5</ele>
        <time>2026-07-15T13:03:12Z</time>
      </trkpt>
      <trkpt lat="42.89879" lon="-0.20482">
        <ele>1418.5</ele>
        <time>2026-07-15T13:03:13Z</time>
      </trkpt>
      <trkpt lat="42.89879" lon="-0.20482">
        <ele>1418.5</ele>
        <time>2026-07-15T13:03:14Z</time>
      </trkpt>
      <trkpt lat="42.89879" lon="-0.20482">
        <ele>1417.5</ele>
        <time>2026-07-15T13:03:15Z</time>
      </trkpt>
      <trkpt lat="42.89879" lon="-0.20482">
        <ele>1417.5</ele>
        <time>2026-07-15T13:03:16Z</time>
      </trkpt>
      <trkpt lat="42.89878" lon="-0.20482">
        <ele>1417.5</ele>
        <time>2026-07-15T13:03:17Z</time>
      </trkpt>
      <trkpt lat="42.89878" lon="-0.20481">
        <ele>1417.5</ele>
        <time>2026-07-15T13:03:18Z</time>
      </trkpt>
      <trkpt lat="42.89878" lon="-0.20481">
        <ele>1417.5</ele>
        <time>2026-07-15T13:03:19Z</time>
      </trkpt>
      <trkpt lat="42.89878" lon="-0.20481">
        <ele>1417.5</ele>
        <time>2026-07-15T13:03:20Z</time>
      </trkpt>
      <trkpt lat="42.89878" lon="-0.20481">
        <ele>1417.5</ele>
        <time>2026-07-15T13:03:21Z</time>
      </trkpt>
      <trkpt lat="42.89878" lon="-0.20481">
        <ele>1417.5</ele>
        <time>2026-07-15T13:03:22Z</time>
      </trkpt>
      <trkpt lat="42.89878" lon="-0.20482">
        <ele>1417.5</ele>
        <time>2026-07-15T13:03:23Z</time>
      </trkpt>
      <trkpt lat="42.89878" lon="-0.20482">
        <ele>1417.5</ele>
        <time>2026-07-15T13:03:24Z</time>
      </trkpt>
      <trkpt lat="42.89878" lon="-0.20482">
        <ele>1417.5</ele>
        <time>2026-07-15T13:03:25Z</time>
      </trkpt>
      <trkpt lat="42.89879" lon="-0.20482">
        <ele>1417.5</ele>
        <time>2026-07-15T13:03:26Z</time>
      </trkpt>
      <trkpt lat="42.8988" lon="-0.20483">
        <ele>1418.5</ele>
        <time>2026-07-15T13:03:27Z</time>
      </trkpt>
      <trkpt lat="42.8988" lon="-0.20484">
        <ele>1420.5</ele>
        <time>2026-07-15T13:03:28Z</time>
      </trkpt>
      <trkpt lat="42.8988" lon="-0.20484">
        <ele>1419.5</ele>
        <time>2026-07-15T13:03:29Z</time>
      </trkpt>
      <trkpt lat="42.8988" lon="-0.20484">
        <ele>1419.5</ele>
        <time>2026-07-15T13:03:30Z</time>
      </trkpt>
      <trkpt lat="42.8988" lon="-0.20484">
        <ele>1419.5</ele>
        <time>2026-07-15T13:03:31Z</time>
      </trkpt>
      <trkpt lat="42.8988" lon="-0.20484">
        <ele>1419.5</ele>
        <time>2026-07-15T13:03:32Z</time>
      </trkpt>
      <trkpt lat="42.8988" lon="-0.20484">
        <ele>1419.5</ele>
        <time>2026-07-15T13:03:33Z</time>
      </trkpt>
      <trkpt lat="42.8988" lon="-0.20484">
        <ele>1419.5</ele>
        <time>2026-07-15T13:03:34Z</time>
      </trkpt>
      <trkpt lat="42.89879" lon="-0.20484">
        <ele>1418.5</ele>
        <time>2026-07-15T13:03:35Z</time>
      </trkpt>
      <trkpt lat="42.89881" lon="-0.20483">
        <ele>1418.5</ele>
        <time>2026-07-15T13:03:36Z</time>
      </trkpt>
      <trkpt lat="42.89882" lon="-0.20482">
        <ele>1419.5</ele>
        <time>2026-07-15T13:03:37Z</time>
      </trkpt>
      <trkpt lat="42.89882" lon="-0.20481">
        <ele>1419.5</ele>
        <time>2026-07-15T13:03:38Z</time>
      </trkpt>
      <trkpt lat="42.89881" lon="-0.20481">
        <ele>1419.5</ele>
        <time>2026-07-15T13:03:39Z</time>
      </trkpt>
      <trkpt lat="42.89881" lon="-0.20481">
        <ele>1419.5</ele>
        <time>2026-07-15T13:03:40Z</time>
      </trkpt>
      <trkpt lat="42.8988" lon="-0.20482">
        <ele>1419.5</ele>
        <time>2026-07-15T13:03:41Z</time>
      </trkpt>
      <trkpt lat="42.8988" lon="-0.20482">
        <ele>1419.5</ele>
        <time>2026-07-15T13:03:42Z</time>
      </trkpt>
      <trkpt lat="42.8988" lon="-0.20482">
        <ele>1419.5</ele>
        <time>2026-07-15T13:03:43Z</time>
      </trkpt>
      <trkpt lat="42.8988" lon="-0.20482">
        <ele>1419.5</ele>
        <time>2026-07-15T13:03:44Z</time>
      </trkpt>
      <trkpt lat="42.8988" lon="-0.20482">
        <ele>1419.5</ele>
        <time>2026-07-15T13:03:45Z</time>
      </trkpt>
      <trkpt lat="42.8988" lon="-0.20482">
        <ele>1419.5</ele>
        <time>2026-07-15T13:03:46Z</time>
      </trkpt>
      <trkpt lat="42.8988" lon="-0.20482">
        <ele>1419.5</ele>
        <time>2026-07-15T13:03:47Z</time>
      </trkpt>
      <trkpt lat="42.8988" lon="-0.20482">
        <ele>1419.5</ele>
        <time>2026-07-15T13:03:48Z</time>
      </trkpt>
      <trkpt lat="42.8988" lon="-0.20482">
        <ele>1419.5</ele>
        <time>2026-07-15T13:03:49Z</time>
      </trkpt>
      <trkpt lat="42.89879" lon="-0.20481">
        <ele>1419.5</ele>
        <time>2026-07-15T13:03:50Z</time>
      </trkpt>
      <trkpt lat="42.8988" lon="-0.2048">
        <ele>1418.5</ele>
        <time>2026-07-15T13:03:51Z</time>
      </trkpt>
      <trkpt lat="42.8988" lon="-0.2048">
        <ele>1418.5</ele>
        <time>2026-07-15T13:03:52Z</time>
      </trkpt>
      <trkpt lat="42.8988" lon="-0.2048">
        <ele>1419.5</ele>
        <time>2026-07-15T13:03:53Z</time>
      </trkpt>
      <trkpt lat="42.8988" lon="-0.2048">
        <ele>1419.5</ele>
        <time>2026-07-15T13:03:54Z</time>
      </trkpt>
      <trkpt lat="42.8988" lon="-0.2048">
        <ele>1419.5</ele>
        <time>2026-07-15T13:03:55Z</time>
      </trkpt>
      <trkpt lat="42.8988" lon="-0.2048">
        <ele>1418.5</ele>
        <time>2026-07-15T13:03:56Z</time>
      </trkpt>
      <trkpt lat="42.8988" lon="-0.2048">
        <ele>1419.5</ele>
        <time>2026-07-15T13:03:57Z</time>
      </trkpt>
      <trkpt lat="42.8988" lon="-0.20481">
        <ele>1419.5</ele>
        <time>2026-07-15T13:03:58Z</time>
      </trkpt>
      <trkpt lat="42.8988" lon="-0.20481">
        <ele>1419.5</ele>
        <time>2026-07-15T13:03:59Z</time>
      </trkpt>
      <trkpt lat="42.89881" lon="-0.20481">
        <ele>1419.5</ele>
        <time>2026-07-15T13:04:00Z</time>
      </trkpt>
      <trkpt lat="42.89881" lon="-0.20481">
        <ele>1419.5</ele>
        <time>2026-07-15T13:04:01Z</time>
      </trkpt>
      <trkpt lat="42.8988" lon="-0.20481">
        <ele>1418.5</ele>
        <time>2026-07-15T13:04:02Z</time>
      </trkpt>
      <trkpt lat="42.8988" lon="-0.20481">
        <ele>1418.5</ele>
        <time>2026-07-15T13:04:03Z</time>
      </trkpt>
      <trkpt lat="42.8988" lon="-0.20481">
        <ele>1418.5</ele>
        <time>2026-07-15T13:04:04Z</time>
      </trkpt>
      <trkpt lat="42.8988" lon="-0.20481">
        <ele>1418.5</ele>
        <time>2026-07-15T13:04:05Z</time>
      </trkpt>
      <trkpt lat="42.8988" lon="-0.20481">
        <ele>1418.5</ele>
        <time>2026-07-15T13:04:06Z</time>
      </trkpt>
      <trkpt lat="42.8988" lon="-0.20481">
        <ele>1418.5</ele>
        <time>2026-07-15T13:04:07Z</time>
      </trkpt>
      <trkpt lat="42.8988" lon="-0.20481">
        <ele>1418.5</ele>
        <time>2026-07-15T13:04:08Z</time>
      </trkpt>
      <trkpt lat="42.8988" lon="-0.20481">
        <ele>1418.5</ele>
        <time>2026-07-15T13:04:09Z</time>
      </trkpt>
      <trkpt lat="42.8988" lon="-0.20481">
        <ele>1418.5</ele>
        <time>2026-07-15T13:04:10Z</time>
      </trkpt>
      <trkpt lat="42.8988" lon="-0.2048">
        <ele>1418.5</ele>
        <time>2026-07-15T13:04:11Z</time>
      </trkpt>
      <trkpt lat="42.8988" lon="-0.20481">
        <ele>1418.5</ele>
        <time>2026-07-15T13:04:12Z</time>
      </trkpt>
      <trkpt lat="42.8988" lon="-0.20481">
        <ele>1418.5</ele>
        <time>2026-07-15T13:04:13Z</time>
      </trkpt>
      <trkpt lat="42.8988" lon="-0.20481">
        <ele>1418.5</ele>
        <time>2026-07-15T13:04:14Z</time>
      </trkpt>
      <trkpt lat="42.8988" lon="-0.20481">
        <ele>1418.5</ele>
        <time>2026-07-15T13:04:15Z</time>
      </trkpt>
      <trkpt lat="42.89879" lon="-0.20481">
        <ele>1418.5</ele>
        <time>2026-07-15T13:04:16Z</time>
      </trkpt>
      <trkpt lat="42.89879" lon="-0.20481">
        <ele>1418.5</ele>
        <time>2026-07-15T13:04:17Z</time>
      </trkpt>
      <trkpt lat="42.89878" lon="-0.20482">
        <ele>1419.5</ele>
        <time>2026-07-15T13:04:18Z</time>
      </trkpt>
      <trkpt lat="42.89878" lon="-0.20482">
        <ele>1419.5</ele>
        <time>2026-07-15T13:04:19Z</time>
      </trkpt>
      <trkpt lat="42.89878" lon="-0.20482">
        <ele>1419.5</ele>
        <time>2026-07-15T13:04:20Z</time>
      </trkpt>
      <trkpt lat="42.89878" lon="-0.20482">
        <ele>1419.5</ele>
        <time>2026-07-15T13:04:21Z</time>
      </trkpt>
      <trkpt lat="42.89878" lon="-0.20482">
        <ele>1419.5</ele>
        <time>2026-07-15T13:04:22Z</time>
      </trkpt>
      <trkpt lat="42.89878" lon="-0.20482">
        <ele>1419.5</ele>
        <time>2026-07-15T13:04:23Z</time>
      </trkpt>
      <trkpt lat="42.89878" lon="-0.20482">
        <ele>1419.5</ele>
        <time>2026-07-15T13:04:24Z</time>
      </trkpt>
      <trkpt lat="42.89878" lon="-0.20482">
        <ele>1419.5</ele>
        <time>2026-07-15T13:04:25Z</time>
      </trkpt>
      <trkpt lat="42.89878" lon="-0.20482">
        <ele>1419.5</ele>
        <time>2026-07-15T13:04:26Z</time>
      </trkpt>
      <trkpt lat="42.89878" lon="-0.20482">
        <ele>1419.5</ele>
        <time>2026-07-15T13:04:27Z</time>
      </trkpt>
      <trkpt lat="42.89878" lon="-0.20482">
        <ele>1419.5</ele>
        <time>2026-07-15T13:04:28Z</time>
      </trkpt>
      <trkpt lat="42.89878" lon="-0.20482">
        <ele>1419.5</ele>
        <time>2026-07-15T13:04:29Z</time>
      </trkpt>
      <trkpt lat="42.89878" lon="-0.20482">
        <ele>1419.5</ele>
        <time>2026-07-15T13:04:30Z</time>
      </trkpt>
      <trkpt lat="42.89877" lon="-0.20481">
        <ele>1418.5</ele>
        <time>2026-07-15T13:04:31Z</time>
      </trkpt>
      <trkpt lat="42.89876" lon="-0.20481">
        <ele>1418.5</ele>
        <time>2026-07-15T13:04:32Z</time>
      </trkpt>
      <trkpt lat="42.89876" lon="-0.20481">
        <ele>1418.5</ele>
        <time>2026-07-15T13:04:33Z</time>
      </trkpt>
      <trkpt lat="42.89876" lon="-0.20481">
        <ele>1418.5</ele>
        <time>2026-07-15T13:04:34Z</time>
      </trkpt>
      <trkpt lat="42.89876" lon="-0.20481">
        <ele>1418.5</ele>
        <time>2026-07-15T13:04:35Z</time>
      </trkpt>
      <trkpt lat="42.89877" lon="-0.20481">
        <ele>1418.5</ele>
        <time>2026-07-15T13:04:36Z</time>
      </trkpt>
      <trkpt lat="42.89877" lon="-0.20481">
        <ele>1417.5</ele>
        <time>2026-07-15T13:04:37Z</time>
      </trkpt>
      <trkpt lat="42.89877" lon="-0.20481">
        <ele>1416.5</ele>
        <time>2026-07-15T13:04:38Z</time>
      </trkpt>
      <trkpt lat="42.89877" lon="-0.20481">
        <ele>1416.5</ele>
        <time>2026-07-15T13:04:39Z</time>
      </trkpt>
      <trkpt lat="42.89877" lon="-0.20481">
        <ele>1416.5</ele>
        <time>2026-07-15T13:04:40Z</time>
      </trkpt>
      <trkpt lat="42.89877" lon="-0.20481">
        <ele>1416.5</ele>
        <time>2026-07-15T13:04:41Z</time>
      </trkpt>
      <trkpt lat="42.89876" lon="-0.20482">
        <ele>1416.5</ele>
        <time>2026-07-15T13:04:42Z</time>
      </trkpt>
      <trkpt lat="42.89876" lon="-0.20482">
        <ele>1415.5</ele>
        <time>2026-07-15T13:04:43Z</time>
      </trkpt>
      <trkpt lat="42.89875" lon="-0.20481">
        <ele>1414.5</ele>
        <time>2026-07-15T13:04:44Z</time>
      </trkpt>
      <trkpt lat="42.89875" lon="-0.20481">
        <ele>1414.5</ele>
        <time>2026-07-15T13:04:45Z</time>
      </trkpt>
      <trkpt lat="42.89875" lon="-0.20481">
        <ele>1414.5</ele>
        <time>2026-07-15T13:04:46Z</time>
      </trkpt>
      <trkpt lat="42.89875" lon="-0.20481">
        <ele>1414.5</ele>
        <time>2026-07-15T13:04:47Z</time>
      </trkpt>
      <trkpt lat="42.89875" lon="-0.20481">
        <ele>1414.5</ele>
        <time>2026-07-15T13:04:48Z</time>
      </trkpt>
      <trkpt lat="42.89875" lon="-0.20481">
        <ele>1414.5</ele>
        <time>2026-07-15T13:04:49Z</time>
      </trkpt>
      <trkpt lat="42.89875" lon="-0.20481">
        <ele>1414.5</ele>
        <time>2026-07-15T13:04:50Z</time>
      </trkpt>
      <trkpt lat="42.89875" lon="-0.20481">
        <ele>1414.5</ele>
        <time>2026-07-15T13:04:51Z</time>
      </trkpt>
      <trkpt lat="42.89875" lon="-0.20481">
        <ele>1414.5</ele>
        <time>2026-07-15T13:04:52Z</time>
      </trkpt>
      <trkpt lat="42.89875" lon="-0.20481">
        <ele>1414.5</ele>
        <time>2026-07-15T13:04:53Z</time>
      </trkpt>
      <trkpt lat="42.89875" lon="-0.20481">
        <ele>1414.5</ele>
        <time>2026-07-15T13:04:54Z</time>
      </trkpt>
      <trkpt lat="42.89875" lon="-0.20481">
        <ele>1414.5</ele>
        <time>2026-07-15T13:04:55Z</time>
      </trkpt>
      <trkpt lat="42.89875" lon="-0.20481">
        <ele>1414.5</ele>
        <time>2026-07-15T13:04:56Z</time>
      </trkpt>
      <trkpt lat="42.89875" lon="-0.20481">
        <ele>1414.5</ele>
        <time>2026-07-15T13:04:57Z</time>
      </trkpt>
      <trkpt lat="42.89875" lon="-0.20481">
        <ele>1414.5</ele>
        <time>2026-07-15T13:04:58Z</time>
      </trkpt>
      <trkpt lat="42.89875" lon="-0.20481">
        <ele>1414.5</ele>
        <time>2026-07-15T13:04:59Z</time>
      </trkpt>
      <trkpt lat="42.89875" lon="-0.20481">
        <ele>1414.5</ele>
        <time>2026-07-15T13:05:00Z</time>
      </trkpt>
      <trkpt lat="42.89875" lon="-0.20481">
        <ele>1414.5</ele>
        <time>2026-07-15T13:05:01Z</time>
      </trkpt>
      <trkpt lat="42.89875" lon="-0.20481">
        <ele>1414.5</ele>
        <time>2026-07-15T13:05:02Z</time>
      </trkpt>
      <trkpt lat="42.89875" lon="-0.20481">
        <ele>1414.5</ele>
        <time>2026-07-15T13:05:03Z</time>
      </trkpt>
      <trkpt lat="42.89875" lon="-0.20481">
        <ele>1414.5</ele>
        <time>2026-07-15T13:05:04Z</time>
      </trkpt>
      <trkpt lat="42.89875" lon="-0.20481">
        <ele>1414.5</ele>
        <time>2026-07-15T13:05:05Z</time>
      </trkpt>
      <trkpt lat="42.89875" lon="-0.20481">
        <ele>1414.5</ele>
        <time>2026-07-15T13:05:06Z</time>
      </trkpt>
      <trkpt lat="42.89875" lon="-0.20481">
        <ele>1414.5</ele>
        <time>2026-07-15T13:05:07Z</time>
      </trkpt>
      <trkpt lat="42.89875" lon="-0.20481">
        <ele>1414.5</ele>
        <time>2026-07-15T13:05:08Z</time>
      </trkpt>
      <trkpt lat="42.89875" lon="-0.20481">
        <ele>1414.5</ele>
        <time>2026-07-15T13:05:09Z</time>
      </trkpt>
      <trkpt lat="42.89875" lon="-0.20481">
        <ele>1414.5</ele>
        <time>2026-07-15T13:05:10Z</time>
      </trkpt>
      <trkpt lat="42.89875" lon="-0.20481">
        <ele>1414.5</ele>
        <time>2026-07-15T13:05:11Z</time>
      </trkpt>
      <trkpt lat="42.89875" lon="-0.20481">
        <ele>1414.5</ele>
        <time>2026-07-15T13:05:12Z</time>
      </trkpt>
      <trkpt lat="42.89875" lon="-0.20481">
        <ele>1414.5</ele>
        <time>2026-07-15T13:05:13Z</time>
      </trkpt>
      <trkpt lat="42.89875" lon="-0.20481">
        <ele>1414.5</ele>
        <time>2026-07-15T13:05:14Z</time>
      </trkpt>
      <trkpt lat="42.89875" lon="-0.20481">
        <ele>1414.5</ele>
        <time>2026-07-15T13:05:15Z</time>
      </trkpt>
      <trkpt lat="42.89875" lon="-0.20481">
        <ele>1414.5</ele>
        <time>2026-07-15T13:05:16Z</time>
      </trkpt>
      <trkpt lat="42.89875" lon="-0.20481">
        <ele>1414.5</ele>
        <time>2026-07-15T13:05:17Z</time>
      </trkpt>
      <trkpt lat="42.89875" lon="-0.20481">
        <ele>1414.5</ele>
        <time>2026-07-15T13:05:18Z</time>
      </trkpt>
      <trkpt lat="42.89875" lon="-0.20481">
        <ele>1414.5</ele>
        <time>2026-07-15T13:05:19Z</time>
      </trkpt>
      <trkpt lat="42.89875" lon="-0.20481">
        <ele>1414.5</ele>
        <time>2026-07-15T13:05:20Z</time>
      </trkpt>
      <trkpt lat="42.89875" lon="-0.20481">
        <ele>1414.5</ele>
        <time>2026-07-15T13:05:21Z</time>
      </trkpt>
      <trkpt lat="42.89875" lon="-0.20481">
        <ele>1414.5</ele>
        <time>2026-07-15T13:05:22Z</time>
      </trkpt>
      <trkpt lat="42.89875" lon="-0.20481">
        <ele>1414.5</ele>
        <time>2026-07-15T13:05:23Z</time>
      </trkpt>
      <trkpt lat="42.89874" lon="-0.20481">
        <ele>1414.5</ele>
        <time>2026-07-15T13:05:24Z</time>
      </trkpt>
      <trkpt lat="42.89874" lon="-0.20481">
        <ele>1414.5</ele>
        <time>2026-07-15T13:05:25Z</time>
      </trkpt>
      <trkpt lat="42.89874" lon="-0.20481">
        <ele>1414.5</ele>
        <time>2026-07-15T13:05:26Z</time>
      </trkpt>
      <trkpt lat="42.89874" lon="-0.20481">
        <ele>1414.5</ele>
        <time>2026-07-15T13:05:27Z</time>
      </trkpt>
      <trkpt lat="42.89874" lon="-0.20481">
        <ele>1414.5</ele>
        <time>2026-07-15T13:05:28Z</time>
      </trkpt>
      <trkpt lat="42.89874" lon="-0.2048">
        <ele>1414.5</ele>
        <time>2026-07-15T13:05:29Z</time>
      </trkpt>
      <trkpt lat="42.89874" lon="-0.2048">
        <ele>1414.5</ele>
        <time>2026-07-15T13:05:30Z</time>
      </trkpt>
      <trkpt lat="42.89874" lon="-0.2048">
        <ele>1414.5</ele>
        <time>2026-07-15T13:05:31Z</time>
      </trkpt>
      <trkpt lat="42.89874" lon="-0.2048">
        <ele>1413.5</ele>
        <time>2026-07-15T13:05:32Z</time>
      </trkpt>
      <trkpt lat="42.89874" lon="-0.2048">
        <ele>1413.5</ele>
        <time>2026-07-15T13:05:33Z</time>
      </trkpt>
      <trkpt lat="42.89874" lon="-0.2048">
        <ele>1413.5</ele>
        <time>2026-07-15T13:05:34Z</time>
      </trkpt>
      <trkpt lat="42.89873" lon="-0.20481">
        <ele>1413.5</ele>
        <time>2026-07-15T13:05:35Z</time>
      </trkpt>
      <trkpt lat="42.89873" lon="-0.20482">
        <ele>1413.5</ele>
        <time>2026-07-15T13:05:36Z</time>
      </trkpt>
      <trkpt lat="42.89873" lon="-0.20481">
        <ele>1413.5</ele>
        <time>2026-07-15T13:05:37Z</time>
      </trkpt>
      <trkpt lat="42.89873" lon="-0.20482">
        <ele>1414.5</ele>
        <time>2026-07-15T13:05:38Z</time>
      </trkpt>
      <trkpt lat="42.89874" lon="-0.20481">
        <ele>1415.5</ele>
        <time>2026-07-15T13:05:39Z</time>
      </trkpt>
      <trkpt lat="42.89873" lon="-0.20482">
        <ele>1415.5</ele>
        <time>2026-07-15T13:05:40Z</time>
      </trkpt>
      <trkpt lat="42.89873" lon="-0.20482">
        <ele>1415.5</ele>
        <time>2026-07-15T13:05:41Z</time>
      </trkpt>
      <trkpt lat="42.89873" lon="-0.20482">
        <ele>1414.5</ele>
        <time>2026-07-15T13:05:42Z</time>
      </trkpt>
      <trkpt lat="42.89874" lon="-0.20481">
        <ele>1414.5</ele>
        <time>2026-07-15T13:05:43Z</time>
      </trkpt>
      <trkpt lat="42.89874" lon="-0.20481">
        <ele>1414.5</ele>
        <time>2026-07-15T13:05:44Z</time>
      </trkpt>
      <trkpt lat="42.89874" lon="-0.20481">
        <ele>1414.5</ele>
        <time>2026-07-15T13:05:45Z</time>
      </trkpt>
      <trkpt lat="42.89874" lon="-0.20481">
        <ele>1414.5</ele>
        <time>2026-07-15T13:05:46Z</time>
      </trkpt>
      <trkpt lat="42.89874" lon="-0.20481">
        <ele>1414.5</ele>
        <time>2026-07-15T13:05:47Z</time>
      </trkpt>
      <trkpt lat="42.89872" lon="-0.2048">
        <ele>1414.5</ele>
        <time>2026-07-15T13:05:48Z</time>
      </trkpt>
      <trkpt lat="42.89872" lon="-0.20481">
        <ele>1414.5</ele>
        <time>2026-07-15T13:05:49Z</time>
      </trkpt>
      <trkpt lat="42.89871" lon="-0.20481">
        <ele>1414.5</ele>
        <time>2026-07-15T13:05:50Z</time>
      </trkpt>
      <trkpt lat="42.89871" lon="-0.2048">
        <ele>1414.5</ele>
        <time>2026-07-15T13:05:51Z</time>
      </trkpt>
      <trkpt lat="42.89871" lon="-0.2048">
        <ele>1414.5</ele>
        <time>2026-07-15T13:05:52Z</time>
      </trkpt>
      <trkpt lat="42.89871" lon="-0.20481">
        <ele>1413.5</ele>
        <time>2026-07-15T13:05:53Z</time>
      </trkpt>
      <trkpt lat="42.89871" lon="-0.20481">
        <ele>1413.5</ele>
        <time>2026-07-15T13:05:54Z</time>
      </trkpt>
      <trkpt lat="42.89871" lon="-0.20481">
        <ele>1413.5</ele>
        <time>2026-07-15T13:05:55Z</time>
      </trkpt>
      <trkpt lat="42.89871" lon="-0.20481">
        <ele>1413.5</ele>
        <time>2026-07-15T13:05:56Z</time>
      </trkpt>
      <trkpt lat="42.89871" lon="-0.20481">
        <ele>1413.5</ele>
        <time>2026-07-15T13:05:57Z</time>
      </trkpt>
      <trkpt lat="42.89871" lon="-0.20481">
        <ele>1413.5</ele>
        <time>2026-07-15T13:05:58Z</time>
      </trkpt>
      <trkpt lat="42.89871" lon="-0.20481">
        <ele>1413.5</ele>
        <time>2026-07-15T13:05:59Z</time>
      </trkpt>
      <trkpt lat="42.89871" lon="-0.20481">
        <ele>1413.5</ele>
        <time>2026-07-15T13:06:00Z</time>
      </trkpt>
      <trkpt lat="42.89871" lon="-0.20481">
        <ele>1413.5</ele>
        <time>2026-07-15T13:06:01Z</time>
      </trkpt>
      <trkpt lat="42.89871" lon="-0.20481">
        <ele>1413.5</ele>
        <time>2026-07-15T13:06:02Z</time>
      </trkpt>
      <trkpt lat="42.89871" lon="-0.20481">
        <ele>1413.5</ele>
        <time>2026-07-15T13:06:03Z</time>
      </trkpt>
      <trkpt lat="42.89871" lon="-0.20481">
        <ele>1413.5</ele>
        <time>2026-07-15T13:06:04Z</time>
      </trkpt>
      <trkpt lat="42.89871" lon="-0.20481">
        <ele>1413.5</ele>
        <time>2026-07-15T13:06:05Z</time>
      </trkpt>
      <trkpt lat="42.89871" lon="-0.20481">
        <ele>1413.5</ele>
        <time>2026-07-15T13:06:06Z</time>
      </trkpt>
      <trkpt lat="42.89871" lon="-0.20481">
        <ele>1413.5</ele>
        <time>2026-07-15T13:06:07Z</time>
      </trkpt>
      <trkpt lat="42.89871" lon="-0.20481">
        <ele>1413.5</ele>
        <time>2026-07-15T13:06:08Z</time>
      </trkpt>
      <trkpt lat="42.89871" lon="-0.20481">
        <ele>1413.5</ele>
        <time>2026-07-15T13:06:09Z</time>
      </trkpt>
      <trkpt lat="42.89871" lon="-0.20481">
        <ele>1413.5</ele>
        <time>2026-07-15T13:06:10Z</time>
      </trkpt>
      <trkpt lat="42.89871" lon="-0.20481">
        <ele>1413.5</ele>
        <time>2026-07-15T13:06:11Z</time>
      </trkpt>
      <trkpt lat="42.89871" lon="-0.20481">
        <ele>1413.5</ele>
        <time>2026-07-15T13:06:12Z</time>
      </trkpt>
      <trkpt lat="42.89871" lon="-0.20481">
        <ele>1413.5</ele>
        <time>2026-07-15T13:06:13Z</time>
      </trkpt>
      <trkpt lat="42.89871" lon="-0.20481">
        <ele>1413.5</ele>
        <time>2026-07-15T13:06:14Z</time>
      </trkpt>
      <trkpt lat="42.89871" lon="-0.2048">
        <ele>1414.5</ele>
        <time>2026-07-15T13:06:15Z</time>
      </trkpt>
      <trkpt lat="42.89871" lon="-0.2048">
        <ele>1414.5</ele>
        <time>2026-07-15T13:06:16Z</time>
      </trkpt>
      <trkpt lat="42.89871" lon="-0.2048">
        <ele>1414.5</ele>
        <time>2026-07-15T13:06:17Z</time>
      </trkpt>
      <trkpt lat="42.89871" lon="-0.20479">
        <ele>1413.5</ele>
        <time>2026-07-15T13:06:18Z</time>
      </trkpt>
      <trkpt lat="42.89871" lon="-0.20479">
        <ele>1413.5</ele>
        <time>2026-07-15T13:06:19Z</time>
      </trkpt>
      <trkpt lat="42.89871" lon="-0.20479">
        <ele>1413.5</ele>
        <time>2026-07-15T13:06:20Z</time>
      </trkpt>
      <trkpt lat="42.8987" lon="-0.20479">
        <ele>1413.5</ele>
        <time>2026-07-15T13:06:21Z</time>
      </trkpt>
      <trkpt lat="42.89869" lon="-0.2048">
        <ele>1413.5</ele>
        <time>2026-07-15T13:06:22Z</time>
      </trkpt>
      <trkpt lat="42.89869" lon="-0.2048">
        <ele>1413.5</ele>
        <time>2026-07-15T13:06:23Z</time>
      </trkpt>
      <trkpt lat="42.89869" lon="-0.2048">
        <ele>1413.5</ele>
        <time>2026-07-15T13:06:24Z</time>
      </trkpt>
      <trkpt lat="42.89869" lon="-0.2048">
        <ele>1413.5</ele>
        <time>2026-07-15T13:06:25Z</time>
      </trkpt>
      <trkpt lat="42.89869" lon="-0.2048">
        <ele>1413.5</ele>
        <time>2026-07-15T13:06:26Z</time>
      </trkpt>
      <trkpt lat="42.89869" lon="-0.2048">
        <ele>1413.5</ele>
        <time>2026-07-15T13:06:27Z</time>
      </trkpt>
      <trkpt lat="42.89869" lon="-0.2048">
        <ele>1413.5</ele>
        <time>2026-07-15T13:06:28Z</time>
      </trkpt>
      <trkpt lat="42.8987" lon="-0.2048">
        <ele>1414.5</ele>
        <time>2026-07-15T13:06:29Z</time>
      </trkpt>
      <trkpt lat="42.8987" lon="-0.2048">
        <ele>1413.5</ele>
        <time>2026-07-15T13:06:30Z</time>
      </trkpt>
      <trkpt lat="42.89871" lon="-0.2048">
        <ele>1413.5</ele>
        <time>2026-07-15T13:06:31Z</time>
      </trkpt>
      <trkpt lat="42.89871" lon="-0.2048">
        <ele>1413.5</ele>
        <time>2026-07-15T13:06:32Z</time>
      </trkpt>
      <trkpt lat="42.89871" lon="-0.2048">
        <ele>1413.5</ele>
        <time>2026-07-15T13:06:33Z</time>
      </trkpt>
      <trkpt lat="42.89871" lon="-0.20479">
        <ele>1412.5</ele>
        <time>2026-07-15T13:06:34Z</time>
      </trkpt>
      <trkpt lat="42.89871" lon="-0.20478">
        <ele>1413.5</ele>
        <time>2026-07-15T13:06:35Z</time>
      </trkpt>
      <trkpt lat="42.89873" lon="-0.20478">
        <ele>1413.5</ele>
        <time>2026-07-15T13:06:36Z</time>
      </trkpt>
      <trkpt lat="42.89873" lon="-0.20479">
        <ele>1413.5</ele>
        <time>2026-07-15T13:06:37Z</time>
      </trkpt>
      <trkpt lat="42.89874" lon="-0.20479">
        <ele>1413.5</ele>
        <time>2026-07-15T13:06:38Z</time>
      </trkpt>
      <trkpt lat="42.89875" lon="-0.20479">
        <ele>1414.5</ele>
        <time>2026-07-15T13:06:39Z</time>
      </trkpt>
      <trkpt lat="42.89875" lon="-0.20479">
        <ele>1414.5</ele>
        <time>2026-07-15T13:06:40Z</time>
      </trkpt>
      <trkpt lat="42.89874" lon="-0.20479">
        <ele>1414.5</ele>
        <time>2026-07-15T13:06:41Z</time>
      </trkpt>
      <trkpt lat="42.89874" lon="-0.20479">
        <ele>1414.5</ele>
        <time>2026-07-15T13:06:42Z</time>
      </trkpt>
      <trkpt lat="42.89874" lon="-0.20479">
        <ele>1414.5</ele>
        <time>2026-07-15T13:06:43Z</time>
      </trkpt>
      <trkpt lat="42.89874" lon="-0.20479">
        <ele>1414.5</ele>
        <time>2026-07-15T13:06:44Z</time>
      </trkpt>
      <trkpt lat="42.89874" lon="-0.20479">
        <ele>1414.5</ele>
        <time>2026-07-15T13:06:45Z</time>
      </trkpt>
      <trkpt lat="42.89874" lon="-0.20479">
        <ele>1414.5</ele>
        <time>2026-07-15T13:06:46Z</time>
      </trkpt>
      <trkpt lat="42.89874" lon="-0.20479">
        <ele>1414.5</ele>
        <time>2026-07-15T13:06:47Z</time>
      </trkpt>
      <trkpt lat="42.89874" lon="-0.20479">
        <ele>1414.5</ele>
        <time>2026-07-15T13:06:48Z</time>
      </trkpt>
      <trkpt lat="42.89874" lon="-0.20479">
        <ele>1414.5</ele>
        <time>2026-07-15T13:06:49Z</time>
      </trkpt>
      <trkpt lat="42.89874" lon="-0.20479">
        <ele>1414.5</ele>
        <time>2026-07-15T13:06:50Z</time>
      </trkpt>
      <trkpt lat="42.89874" lon="-0.20479">
        <ele>1414.5</ele>
        <time>2026-07-15T13:06:51Z</time>
      </trkpt>
      <trkpt lat="42.89874" lon="-0.20479">
        <ele>1414.5</ele>
        <time>2026-07-15T13:06:52Z</time>
      </trkpt>
      <trkpt lat="42.89874" lon="-0.20479">
        <ele>1414.5</ele>
        <time>2026-07-15T13:06:53Z</time>
      </trkpt>
      <trkpt lat="42.89874" lon="-0.20479">
        <ele>1414.5</ele>
        <time>2026-07-15T13:06:54Z</time>
      </trkpt>
      <trkpt lat="42.89874" lon="-0.20479">
        <ele>1414.5</ele>
        <time>2026-07-15T13:06:55Z</time>
      </trkpt>
      <trkpt lat="42.89874" lon="-0.20479">
        <ele>1414.5</ele>
        <time>2026-07-15T13:06:56Z</time>
      </trkpt>
      <trkpt lat="42.89874" lon="-0.20479">
        <ele>1414.5</ele>
        <time>2026-07-15T13:06:57Z</time>
      </trkpt>
      <trkpt lat="42.89875" lon="-0.20479">
        <ele>1414.5</ele>
        <time>2026-07-15T13:06:58Z</time>
      </trkpt>
      <trkpt lat="42.89875" lon="-0.2048">
        <ele>1414.5</ele>
        <time>2026-07-15T13:06:59Z</time>
      </trkpt>
      <trkpt lat="42.89875" lon="-0.20479">
        <ele>1414.5</ele>
        <time>2026-07-15T13:07:00Z</time>
      </trkpt>
      <trkpt lat="42.89875" lon="-0.20479">
        <ele>1414.5</ele>
        <time>2026-07-15T13:07:01Z</time>
      </trkpt>
      <trkpt lat="42.89875" lon="-0.20479">
        <ele>1414.5</ele>
        <time>2026-07-15T13:07:02Z</time>
      </trkpt>
      <trkpt lat="42.89875" lon="-0.20479">
        <ele>1414.5</ele>
        <time>2026-07-15T13:07:03Z</time>
      </trkpt>
      <trkpt lat="42.89875" lon="-0.20479">
        <ele>1414.5</ele>
        <time>2026-07-15T13:07:04Z</time>
      </trkpt>
      <trkpt lat="42.89875" lon="-0.20479">
        <ele>1414.5</ele>
        <time>2026-07-15T13:07:05Z</time>
      </trkpt>
      <trkpt lat="42.89875" lon="-0.20479">
        <ele>1414.5</ele>
        <time>2026-07-15T13:07:06Z</time>
      </trkpt>
      <trkpt lat="42.89875" lon="-0.20479">
        <ele>1414.5</ele>
        <time>2026-07-15T13:07:07Z</time>
      </trkpt>
      <trkpt lat="42.89875" lon="-0.20479">
        <ele>1414.5</ele>
        <time>2026-07-15T13:07:08Z</time>
      </trkpt>
      <trkpt lat="42.89875" lon="-0.20479">
        <ele>1414.5</ele>
        <time>2026-07-15T13:07:09Z</time>
      </trkpt>
      <trkpt lat="42.89875" lon="-0.20479">
        <ele>1414.5</ele>
        <time>2026-07-15T13:07:10Z</time>
      </trkpt>
      <trkpt lat="42.89875" lon="-0.20479">
        <ele>1414.5</ele>
        <time>2026-07-15T13:07:11Z</time>
      </trkpt>
      <trkpt lat="42.89875" lon="-0.20479">
        <ele>1414.5</ele>
        <time>2026-07-15T13:07:12Z</time>
      </trkpt>
      <trkpt lat="42.89875" lon="-0.20479">
        <ele>1414.5</ele>
        <time>2026-07-15T13:07:13Z</time>
      </trkpt>
      <trkpt lat="42.89875" lon="-0.20479">
        <ele>1414.5</ele>
        <time>2026-07-15T13:07:14Z</time>
      </trkpt>
      <trkpt lat="42.89875" lon="-0.20479">
        <ele>1414.5</ele>
        <time>2026-07-15T13:07:15Z</time>
      </trkpt>
      <trkpt lat="42.89875" lon="-0.20479">
        <ele>1414.5</ele>
        <time>2026-07-15T13:07:16Z</time>
      </trkpt>
      <trkpt lat="42.89875" lon="-0.20479">
        <ele>1414.5</ele>
        <time>2026-07-15T13:07:17Z</time>
      </trkpt>
      <trkpt lat="42.89875" lon="-0.20479">
        <ele>1414.5</ele>
        <time>2026-07-15T13:07:18Z</time>
      </trkpt>
      <trkpt lat="42.89875" lon="-0.20479">
        <ele>1414.5</ele>
        <time>2026-07-15T13:07:19Z</time>
      </trkpt>
      <trkpt lat="42.89875" lon="-0.20479">
        <ele>1414.5</ele>
        <time>2026-07-15T13:07:20Z</time>
      </trkpt>
      <trkpt lat="42.89875" lon="-0.20479">
        <ele>1415.5</ele>
        <time>2026-07-15T13:07:21Z</time>
      </trkpt>
      <trkpt lat="42.89876" lon="-0.20479">
        <ele>1415.5</ele>
        <time>2026-07-15T13:07:22Z</time>
      </trkpt>
      <trkpt lat="42.89876" lon="-0.20479">
        <ele>1415.5</ele>
        <time>2026-07-15T13:07:23Z</time>
      </trkpt>
      <trkpt lat="42.89876" lon="-0.20479">
        <ele>1415.5</ele>
        <time>2026-07-15T13:07:24Z</time>
      </trkpt>
      <trkpt lat="42.89876" lon="-0.20479">
        <ele>1415.5</ele>
        <time>2026-07-15T13:07:25Z</time>
      </trkpt>
      <trkpt lat="42.89877" lon="-0.20478">
        <ele>1416.5</ele>
        <time>2026-07-15T13:07:26Z</time>
      </trkpt>
      <trkpt lat="42.89877" lon="-0.20479">
        <ele>1416.5</ele>
        <time>2026-07-15T13:07:27Z</time>
      </trkpt>
      <trkpt lat="42.89877" lon="-0.20478">
        <ele>1417.5</ele>
        <time>2026-07-15T13:07:28Z</time>
      </trkpt>
      <trkpt lat="42.89877" lon="-0.20478">
        <ele>1417.5</ele>
        <time>2026-07-15T13:07:29Z</time>
      </trkpt>
      <trkpt lat="42.89877" lon="-0.20479">
        <ele>1416.5</ele>
        <time>2026-07-15T13:07:30Z</time>
      </trkpt>
      <trkpt lat="42.89877" lon="-0.20481">
        <ele>1417.5</ele>
        <time>2026-07-15T13:07:31Z</time>
      </trkpt>
      <trkpt lat="42.89877" lon="-0.20482">
        <ele>1416.5</ele>
        <time>2026-07-15T13:07:32Z</time>
      </trkpt>
      <trkpt lat="42.89877" lon="-0.20483">
        <ele>1417.5</ele>
        <time>2026-07-15T13:07:33Z</time>
      </trkpt>
      <trkpt lat="42.89877" lon="-0.20484">
        <ele>1416.5</ele>
        <time>2026-07-15T13:07:34Z</time>
      </trkpt>
      <trkpt lat="42.89876" lon="-0.20484">
        <ele>1416.5</ele>
        <time>2026-07-15T13:07:35Z</time>
      </trkpt>
      <trkpt lat="42.89876" lon="-0.20484">
        <ele>1416.5</ele>
        <time>2026-07-15T13:07:36Z</time>
      </trkpt>
      <trkpt lat="42.89876" lon="-0.20484">
        <ele>1416.5</ele>
        <time>2026-07-15T13:07:37Z</time>
      </trkpt>
      <trkpt lat="42.89876" lon="-0.20484">
        <ele>1416.5</ele>
        <time>2026-07-15T13:07:38Z</time>
      </trkpt>
      <trkpt lat="42.89876" lon="-0.20484">
        <ele>1416.5</ele>
        <time>2026-07-15T13:07:39Z</time>
      </trkpt>
      <trkpt lat="42.89876" lon="-0.20484">
        <ele>1415.5</ele>
        <time>2026-07-15T13:07:40Z</time>
      </trkpt>
      <trkpt lat="42.89875" lon="-0.20484">
        <ele>1415.5</ele>
        <time>2026-07-15T13:07:41Z</time>
      </trkpt>
      <trkpt lat="42.89875" lon="-0.20484">
        <ele>1415.5</ele>
        <time>2026-07-15T13:07:42Z</time>
      </trkpt>
      <trkpt lat="42.89875" lon="-0.20484">
        <ele>1415.5</ele>
        <time>2026-07-15T13:07:43Z</time>
      </trkpt>
      <trkpt lat="42.89875" lon="-0.20484">
        <ele>1415.5</ele>
        <time>2026-07-15T13:07:44Z</time>
      </trkpt>
      <trkpt lat="42.89875" lon="-0.20484">
        <ele>1415.5</ele>
        <time>2026-07-15T13:07:45Z</time>
      </trkpt>
      <trkpt lat="42.89875" lon="-0.20484">
        <ele>1415.5</ele>
        <time>2026-07-15T13:07:46Z</time>
      </trkpt>
      <trkpt lat="42.89875" lon="-0.20484">
        <ele>1415.5</ele>
        <time>2026-07-15T13:07:47Z</time>
      </trkpt>
      <trkpt lat="42.89875" lon="-0.20484">
        <ele>1415.5</ele>
        <time>2026-07-15T13:07:48Z</time>
      </trkpt>
      <trkpt lat="42.89875" lon="-0.20484">
        <ele>1415.5</ele>
        <time>2026-07-15T13:07:49Z</time>
      </trkpt>
      <trkpt lat="42.89875" lon="-0.20484">
        <ele>1415.5</ele>
        <time>2026-07-15T13:07:50Z</time>
      </trkpt>
      <trkpt lat="42.89875" lon="-0.20484">
        <ele>1415.5</ele>
        <time>2026-07-15T13:07:51Z</time>
      </trkpt>
      <trkpt lat="42.89875" lon="-0.20484">
        <ele>1415.5</ele>
        <time>2026-07-15T13:07:52Z</time>
      </trkpt>
      <trkpt lat="42.89875" lon="-0.20484">
        <ele>1415.5</ele>
        <time>2026-07-15T13:07:53Z</time>
      </trkpt>
      <trkpt lat="42.89875" lon="-0.20484">
        <ele>1415.5</ele>
        <time>2026-07-15T13:07:54Z</time>
      </trkpt>
      <trkpt lat="42.89875" lon="-0.20484">
        <ele>1415.5</ele>
        <time>2026-07-15T13:07:55Z</time>
      </trkpt>
      <trkpt lat="42.89875" lon="-0.20484">
        <ele>1415.5</ele>
        <time>2026-07-15T13:07:56Z</time>
      </trkpt>
      <trkpt lat="42.89875" lon="-0.20484">
        <ele>1415.5</ele>
        <time>2026-07-15T13:07:57Z</time>
      </trkpt>
      <trkpt lat="42.89875" lon="-0.20484">
        <ele>1415.5</ele>
        <time>2026-07-15T13:07:58Z</time>
      </trkpt>
      <trkpt lat="42.89875" lon="-0.20484">
        <ele>1415.5</ele>
        <time>2026-07-15T13:07:59Z</time>
      </trkpt>
      <trkpt lat="42.89875" lon="-0.20484">
        <ele>1415.5</ele>
        <time>2026-07-15T13:08:00Z</time>
      </trkpt>
      <trkpt lat="42.89875" lon="-0.20484">
        <ele>1415.5</ele>
        <time>2026-07-15T13:08:01Z</time>
      </trkpt>
      <trkpt lat="42.89875" lon="-0.20484">
        <ele>1415.5</ele>
        <time>2026-07-15T13:08:02Z</time>
      </trkpt>
      <trkpt lat="42.89875" lon="-0.20484">
        <ele>1415.5</ele>
        <time>2026-07-15T13:08:03Z</time>
      </trkpt>
      <trkpt lat="42.89875" lon="-0.20484">
        <ele>1415.5</ele>
        <time>2026-07-15T13:08:04Z</time>
      </trkpt>
      <trkpt lat="42.89875" lon="-0.20484">
        <ele>1415.5</ele>
        <time>2026-07-15T13:08:05Z</time>
      </trkpt>
      <trkpt lat="42.89875" lon="-0.20484">
        <ele>1415.5</ele>
        <time>2026-07-15T13:08:06Z</time>
      </trkpt>
      <trkpt lat="42.89875" lon="-0.20484">
        <ele>1415.5</ele>
        <time>2026-07-15T13:08:07Z</time>
      </trkpt>
      <trkpt lat="42.89875" lon="-0.20484">
        <ele>1415.5</ele>
        <time>2026-07-15T13:08:08Z</time>
      </trkpt>
      <trkpt lat="42.89875" lon="-0.20484">
        <ele>1415.5</ele>
        <time>2026-07-15T13:08:09Z</time>
      </trkpt>
      <trkpt lat="42.89875" lon="-0.20484">
        <ele>1415.5</ele>
        <time>2026-07-15T13:08:10Z</time>
      </trkpt>
      <trkpt lat="42.89875" lon="-0.20484">
        <ele>1415.5</ele>
        <time>2026-07-15T13:08:11Z</time>
      </trkpt>
      <trkpt lat="42.89875" lon="-0.20484">
        <ele>1415.5</ele>
        <time>2026-07-15T13:08:12Z</time>
      </trkpt>
      <trkpt lat="42.89873" lon="-0.20483">
        <ele>1415.5</ele>
        <time>2026-07-15T13:08:13Z</time>
      </trkpt>
      <trkpt lat="42.89874" lon="-0.20482">
        <ele>1414.5</ele>
        <time>2026-07-15T13:08:14Z</time>
      </trkpt>
      <trkpt lat="42.89875" lon="-0.20482">
        <ele>1414.5</ele>
        <time>2026-07-15T13:08:15Z</time>
      </trkpt>
      <trkpt lat="42.89875" lon="-0.20482">
        <ele>1414.5</ele>
        <time>2026-07-15T13:08:16Z</time>
      </trkpt>
      <trkpt lat="42.89875" lon="-0.20482">
        <ele>1414.5</ele>
        <time>2026-07-15T13:08:17Z</time>
      </trkpt>
      <trkpt lat="42.89875" lon="-0.20482">
        <ele>1414.5</ele>
        <time>2026-07-15T13:08:18Z</time>
      </trkpt>
      <trkpt lat="42.89876" lon="-0.20483">
        <ele>1414.5</ele>
        <time>2026-07-15T13:08:19Z</time>
      </trkpt>
      <trkpt lat="42.89876" lon="-0.20484">
        <ele>1415.5</ele>
        <time>2026-07-15T13:08:20Z</time>
      </trkpt>
      <trkpt lat="42.89876" lon="-0.20484">
        <ele>1415.5</ele>
        <time>2026-07-15T13:08:21Z</time>
      </trkpt>
      <trkpt lat="42.89876" lon="-0.20484">
        <ele>1415.5</ele>
        <time>2026-07-15T13:08:22Z</time>
      </trkpt>
      <trkpt lat="42.89876" lon="-0.20484">
        <ele>1414.5</ele>
        <time>2026-07-15T13:08:23Z</time>
      </trkpt>
      <trkpt lat="42.89876" lon="-0.20484">
        <ele>1414.5</ele>
        <time>2026-07-15T13:08:24Z</time>
      </trkpt>
      <trkpt lat="42.89876" lon="-0.20484">
        <ele>1414.5</ele>
        <time>2026-07-15T13:08:25Z</time>
      </trkpt>
      <trkpt lat="42.89876" lon="-0.20483">
        <ele>1413.5</ele>
        <time>2026-07-15T13:08:26Z</time>
      </trkpt>
      <trkpt lat="42.89877" lon="-0.20483">
        <ele>1414.5</ele>
        <time>2026-07-15T13:08:27Z</time>
      </trkpt>
      <trkpt lat="42.89877" lon="-0.20483">
        <ele>1415.5</ele>
        <time>2026-07-15T13:08:28Z</time>
      </trkpt>
      <trkpt lat="42.89877" lon="-0.20483">
        <ele>1415.5</ele>
        <time>2026-07-15T13:08:29Z</time>
      </trkpt>
      <trkpt lat="42.89877" lon="-0.20483">
        <ele>1415.5</ele>
        <time>2026-07-15T13:08:30Z</time>
      </trkpt>
      <trkpt lat="42.89876" lon="-0.20483">
        <ele>1416.5</ele>
        <time>2026-07-15T13:08:31Z</time>
      </trkpt>
      <trkpt lat="42.89875" lon="-0.20483">
        <ele>1415.5</ele>
        <time>2026-07-15T13:08:32Z</time>
      </trkpt>
      <trkpt lat="42.89875" lon="-0.20482">
        <ele>1415.5</ele>
        <time>2026-07-15T13:08:33Z</time>
      </trkpt>
      <trkpt lat="42.89875" lon="-0.20482">
        <ele>1415.5</ele>
        <time>2026-07-15T13:08:34Z</time>
      </trkpt>
      <trkpt lat="42.89874" lon="-0.2048">
        <ele>1415.5</ele>
        <time>2026-07-15T13:08:35Z</time>
      </trkpt>
      <trkpt lat="42.89874" lon="-0.2048">
        <ele>1415.5</ele>
        <time>2026-07-15T13:08:36Z</time>
      </trkpt>
      <trkpt lat="42.89875" lon="-0.20479">
        <ele>1415.5</ele>
        <time>2026-07-15T13:08:37Z</time>
      </trkpt>
      <trkpt lat="42.89875" lon="-0.2048">
        <ele>1415.5</ele>
        <time>2026-07-15T13:08:38Z</time>
      </trkpt>
      <trkpt lat="42.89875" lon="-0.20479">
        <ele>1414.5</ele>
        <time>2026-07-15T13:08:39Z</time>
      </trkpt>
      <trkpt lat="42.89875" lon="-0.20479">
        <ele>1414.5</ele>
        <time>2026-07-15T13:08:40Z</time>
      </trkpt>
      <trkpt lat="42.89875" lon="-0.20479">
        <ele>1414.5</ele>
        <time>2026-07-15T13:08:41Z</time>
      </trkpt>
      <trkpt lat="42.89875" lon="-0.20479">
        <ele>1414.5</ele>
        <time>2026-07-15T13:08:42Z</time>
      </trkpt>
      <trkpt lat="42.89875" lon="-0.20479">
        <ele>1414.5</ele>
        <time>2026-07-15T13:08:43Z</time>
      </trkpt>
      <trkpt lat="42.89875" lon="-0.20479">
        <ele>1414.5</ele>
        <time>2026-07-15T13:08:44Z</time>
      </trkpt>
      <trkpt lat="42.89875" lon="-0.20479">
        <ele>1414.5</ele>
        <time>2026-07-15T13:08:45Z</time>
      </trkpt>
      <trkpt lat="42.89875" lon="-0.20479">
        <ele>1414.5</ele>
        <time>2026-07-15T13:08:46Z</time>
      </trkpt>
      <trkpt lat="42.89873" lon="-0.20478">
        <ele>1414.5</ele>
        <time>2026-07-15T13:08:47Z</time>
      </trkpt>
      <trkpt lat="42.89873" lon="-0.20479">
        <ele>1414.5</ele>
        <time>2026-07-15T13:08:48Z</time>
      </trkpt>
      <trkpt lat="42.89873" lon="-0.20479">
        <ele>1414.5</ele>
        <time>2026-07-15T13:08:49Z</time>
      </trkpt>
      <trkpt lat="42.89874" lon="-0.20479">
        <ele>1415.5</ele>
        <time>2026-07-15T13:08:50Z</time>
      </trkpt>
      <trkpt lat="42.89874" lon="-0.20479">
        <ele>1415.5</ele>
        <time>2026-07-15T13:08:51Z</time>
      </trkpt>
      <trkpt lat="42.89873" lon="-0.20479">
        <ele>1415.5</ele>
        <time>2026-07-15T13:08:52Z</time>
      </trkpt>
      <trkpt lat="42.89873" lon="-0.20478">
        <ele>1415.5</ele>
        <time>2026-07-15T13:08:53Z</time>
      </trkpt>
      <trkpt lat="42.89873" lon="-0.20478">
        <ele>1415.5</ele>
        <time>2026-07-15T13:08:54Z</time>
      </trkpt>
      <trkpt lat="42.89873" lon="-0.20479">
        <ele>1415.5</ele>
        <time>2026-07-15T13:08:55Z</time>
      </trkpt>
      <trkpt lat="42.89873" lon="-0.20479">
        <ele>1415.5</ele>
        <time>2026-07-15T13:08:56Z</time>
      </trkpt>
      <trkpt lat="42.89873" lon="-0.20479">
        <ele>1415.5</ele>
        <time>2026-07-15T13:08:57Z</time>
      </trkpt>
      <trkpt lat="42.89873" lon="-0.20479">
        <ele>1414.5</ele>
        <time>2026-07-15T13:08:58Z</time>
      </trkpt>
      <trkpt lat="42.89873" lon="-0.20479">
        <ele>1415.5</ele>
        <time>2026-07-15T13:08:59Z</time>
      </trkpt>
      <trkpt lat="42.89872" lon="-0.20478">
        <ele>1415.5</ele>
        <time>2026-07-15T13:09:00Z</time>
      </trkpt>
      <trkpt lat="42.89872" lon="-0.20478">
        <ele>1415.5</ele>
        <time>2026-07-15T13:09:01Z</time>
      </trkpt>
      <trkpt lat="42.89872" lon="-0.20479">
        <ele>1416.5</ele>
        <time>2026-07-15T13:09:02Z</time>
      </trkpt>
      <trkpt lat="42.89873" lon="-0.20479">
        <ele>1415.5</ele>
        <time>2026-07-15T13:09:03Z</time>
      </trkpt>
      <trkpt lat="42.89873" lon="-0.20479">
        <ele>1416.5</ele>
        <time>2026-07-15T13:09:04Z</time>
      </trkpt>
      <trkpt lat="42.89874" lon="-0.20479">
        <ele>1416.5</ele>
        <time>2026-07-15T13:09:05Z</time>
      </trkpt>
      <trkpt lat="42.89875" lon="-0.20478">
        <ele>1416.5</ele>
        <time>2026-07-15T13:09:06Z</time>
      </trkpt>
      <trkpt lat="42.89875" lon="-0.20478">
        <ele>1416.5</ele>
        <time>2026-07-15T13:09:07Z</time>
      </trkpt>
      <trkpt lat="42.89874" lon="-0.20478">
        <ele>1414.5</ele>
        <time>2026-07-15T13:09:08Z</time>
      </trkpt>
      <trkpt lat="42.89874" lon="-0.20479">
        <ele>1415.5</ele>
        <time>2026-07-15T13:09:09Z</time>
      </trkpt>
      <trkpt lat="42.89874" lon="-0.20479">
        <ele>1415.5</ele>
        <time>2026-07-15T13:09:10Z</time>
      </trkpt>
      <trkpt lat="42.89875" lon="-0.2048">
        <ele>1415.5</ele>
        <time>2026-07-15T13:09:11Z</time>
      </trkpt>
      <trkpt lat="42.89876" lon="-0.2048">
        <ele>1416.5</ele>
        <time>2026-07-15T13:09:12Z</time>
      </trkpt>
      <trkpt lat="42.89876" lon="-0.20479">
        <ele>1416.5</ele>
        <time>2026-07-15T13:09:13Z</time>
      </trkpt>
      <trkpt lat="42.89876" lon="-0.20479">
        <ele>1415.5</ele>
        <time>2026-07-15T13:09:14Z</time>
      </trkpt>
      <trkpt lat="42.89876" lon="-0.20481">
        <ele>1417.5</ele>
        <time>2026-07-15T13:09:15Z</time>
      </trkpt>
      <trkpt lat="42.89877" lon="-0.2048">
        <ele>1416.5</ele>
        <time>2026-07-15T13:09:16Z</time>
      </trkpt>
      <trkpt lat="42.89878" lon="-0.20479">
        <ele>1416.5</ele>
        <time>2026-07-15T13:09:17Z</time>
      </trkpt>
      <trkpt lat="42.89879" lon="-0.20478">
        <ele>1416.5</ele>
        <time>2026-07-15T13:09:18Z</time>
      </trkpt>
      <trkpt lat="42.89879" lon="-0.20478">
        <ele>1416.5</ele>
        <time>2026-07-15T13:09:19Z</time>
      </trkpt>
      <trkpt lat="42.89879" lon="-0.20477">
        <ele>1417.5</ele>
        <time>2026-07-15T13:09:20Z</time>
      </trkpt>
      <trkpt lat="42.89878" lon="-0.20478">
        <ele>1416.5</ele>
        <time>2026-07-15T13:09:21Z</time>
      </trkpt>
      <trkpt lat="42.89876" lon="-0.20479">
        <ele>1416.5</ele>
        <time>2026-07-15T13:09:22Z</time>
      </trkpt>
      <trkpt lat="42.89876" lon="-0.2048">
        <ele>1416.5</ele>
        <time>2026-07-15T13:09:23Z</time>
      </trkpt>
      <trkpt lat="42.89876" lon="-0.2048">
        <ele>1416.5</ele>
        <time>2026-07-15T13:09:24Z</time>
      </trkpt>
      <trkpt lat="42.89875" lon="-0.20479">
        <ele>1416.5</ele>
        <time>2026-07-15T13:09:25Z</time>
      </trkpt>
      <trkpt lat="42.89874" lon="-0.20478">
        <ele>1416.5</ele>
        <time>2026-07-15T13:09:26Z</time>
      </trkpt>
      <trkpt lat="42.89875" lon="-0.20477">
        <ele>1416.5</ele>
        <time>2026-07-15T13:09:27Z</time>
      </trkpt>
      <trkpt lat="42.89875" lon="-0.20478">
        <ele>1416.5</ele>
        <time>2026-07-15T13:09:28Z</time>
      </trkpt>
      <trkpt lat="42.89875" lon="-0.20478">
        <ele>1416.5</ele>
        <time>2026-07-15T13:09:29Z</time>
      </trkpt>
      <trkpt lat="42.89875" lon="-0.20478">
        <ele>1416.5</ele>
        <time>2026-07-15T13:09:30Z</time>
      </trkpt>
      <trkpt lat="42.89874" lon="-0.20479">
        <ele>1415.5</ele>
        <time>2026-07-15T13:09:31Z</time>
      </trkpt>
      <trkpt lat="42.89874" lon="-0.20478">
        <ele>1416.5</ele>
        <time>2026-07-15T13:09:32Z</time>
      </trkpt>
      <trkpt lat="42.89874" lon="-0.20478">
        <ele>1416.5</ele>
        <time>2026-07-15T13:09:33Z</time>
      </trkpt>
      <trkpt lat="42.89873" lon="-0.20479">
        <ele>1416.5</ele>
        <time>2026-07-15T13:09:34Z</time>
      </trkpt>
      <trkpt lat="42.89873" lon="-0.20479">
        <ele>1416.5</ele>
        <time>2026-07-15T13:09:35Z</time>
      </trkpt>
      <trkpt lat="42.89872" lon="-0.20479">
        <ele>1416.5</ele>
        <time>2026-07-15T13:09:36Z</time>
      </trkpt>
      <trkpt lat="42.89872" lon="-0.20479">
        <ele>1416.5</ele>
        <time>2026-07-15T13:09:37Z</time>
      </trkpt>
      <trkpt lat="42.89872" lon="-0.20479">
        <ele>1416.5</ele>
        <time>2026-07-15T13:09:38Z</time>
      </trkpt>
      <trkpt lat="42.89872" lon="-0.20478">
        <ele>1416.5</ele>
        <time>2026-07-15T13:09:39Z</time>
      </trkpt>
      <trkpt lat="42.89872" lon="-0.20478">
        <ele>1415.5</ele>
        <time>2026-07-15T13:09:40Z</time>
      </trkpt>
      <trkpt lat="42.89873" lon="-0.20478">
        <ele>1414.5</ele>
        <time>2026-07-15T13:09:41Z</time>
      </trkpt>
      <trkpt lat="42.89874" lon="-0.20478">
        <ele>1414.5</ele>
        <time>2026-07-15T13:09:42Z</time>
      </trkpt>
      <trkpt lat="42.89875" lon="-0.20479">
        <ele>1415.5</ele>
        <time>2026-07-15T13:09:43Z</time>
      </trkpt>
      <trkpt lat="42.89874" lon="-0.20479">
        <ele>1414.5</ele>
        <time>2026-07-15T13:09:44Z</time>
      </trkpt>
      <trkpt lat="42.89872" lon="-0.20478">
        <ele>1414.5</ele>
        <time>2026-07-15T13:09:45Z</time>
      </trkpt>
      <trkpt lat="42.89872" lon="-0.20476">
        <ele>1413.5</ele>
        <time>2026-07-15T13:09:46Z</time>
      </trkpt>
      <trkpt lat="42.89871" lon="-0.20475">
        <ele>1413.5</ele>
        <time>2026-07-15T13:09:47Z</time>
      </trkpt>
      <trkpt lat="42.89871" lon="-0.20475">
        <ele>1412.5</ele>
        <time>2026-07-15T13:09:48Z</time>
      </trkpt>
      <trkpt lat="42.8987" lon="-0.20475">
        <ele>1412.5</ele>
        <time>2026-07-15T13:09:49Z</time>
      </trkpt>
      <trkpt lat="42.8987" lon="-0.20475">
        <ele>1412.5</ele>
        <time>2026-07-15T13:09:50Z</time>
      </trkpt>
      <trkpt lat="42.8987" lon="-0.20475">
        <ele>1412.5</ele>
        <time>2026-07-15T13:09:51Z</time>
      </trkpt>
      <trkpt lat="42.89871" lon="-0.20476">
        <ele>1411.5</ele>
        <time>2026-07-15T13:09:52Z</time>
      </trkpt>
      <trkpt lat="42.89871" lon="-0.20477">
        <ele>1411.5</ele>
        <time>2026-07-15T13:09:53Z</time>
      </trkpt>
      <trkpt lat="42.89873" lon="-0.20478">
        <ele>1411.5</ele>
        <time>2026-07-15T13:09:54Z</time>
      </trkpt>
      <trkpt lat="42.89872" lon="-0.2048">
        <ele>1411.5</ele>
        <time>2026-07-15T13:09:55Z</time>
      </trkpt>
      <trkpt lat="42.89873" lon="-0.2048">
        <ele>1412.5</ele>
        <time>2026-07-15T13:09:56Z</time>
      </trkpt>
      <trkpt lat="42.89874" lon="-0.20479">
        <ele>1412.5</ele>
        <time>2026-07-15T13:09:57Z</time>
      </trkpt>
      <trkpt lat="42.89874" lon="-0.20478">
        <ele>1412.5</ele>
        <time>2026-07-15T13:09:58Z</time>
      </trkpt>
      <trkpt lat="42.89874" lon="-0.20478">
        <ele>1412.5</ele>
        <time>2026-07-15T13:09:59Z</time>
      </trkpt>
      <trkpt lat="42.89875" lon="-0.20479">
        <ele>1413.5</ele>
        <time>2026-07-15T13:10:00Z</time>
      </trkpt>
      <trkpt lat="42.89875" lon="-0.20479">
        <ele>1413.5</ele>
        <time>2026-07-15T13:10:01Z</time>
      </trkpt>
      <trkpt lat="42.89876" lon="-0.20479">
        <ele>1412.5</ele>
        <time>2026-07-15T13:10:02Z</time>
      </trkpt>
      <trkpt lat="42.89876" lon="-0.20479">
        <ele>1412.5</ele>
        <time>2026-07-15T13:10:03Z</time>
      </trkpt>
      <trkpt lat="42.89876" lon="-0.20479">
        <ele>1412.5</ele>
        <time>2026-07-15T13:10:04Z</time>
      </trkpt>
      <trkpt lat="42.89876" lon="-0.20479">
        <ele>1412.5</ele>
        <time>2026-07-15T13:10:05Z</time>
      </trkpt>
      <trkpt lat="42.89876" lon="-0.20479">
        <ele>1412.5</ele>
        <time>2026-07-15T13:10:06Z</time>
      </trkpt>
      <trkpt lat="42.89876" lon="-0.20479">
        <ele>1412.5</ele>
        <time>2026-07-15T13:10:07Z</time>
      </trkpt>
      <trkpt lat="42.89876" lon="-0.20479">
        <ele>1412.5</ele>
        <time>2026-07-15T13:10:08Z</time>
      </trkpt>
      <trkpt lat="42.89876" lon="-0.20479">
        <ele>1412.5</ele>
        <time>2026-07-15T13:10:09Z</time>
      </trkpt>
      <trkpt lat="42.89875" lon="-0.20479">
        <ele>1412.5</ele>
        <time>2026-07-15T13:10:10Z</time>
      </trkpt>
      <trkpt lat="42.89875" lon="-0.20479">
        <ele>1411.5</ele>
        <time>2026-07-15T13:10:11Z</time>
      </trkpt>
      <trkpt lat="42.89875" lon="-0.2048">
        <ele>1412.5</ele>
        <time>2026-07-15T13:10:12Z</time>
      </trkpt>
      <trkpt lat="42.89875" lon="-0.2048">
        <ele>1411.5</ele>
        <time>2026-07-15T13:10:13Z</time>
      </trkpt>
      <trkpt lat="42.89874" lon="-0.2048">
        <ele>1412.5</ele>
        <time>2026-07-15T13:10:14Z</time>
      </trkpt>
      <trkpt lat="42.89874" lon="-0.2048">
        <ele>1412.5</ele>
        <time>2026-07-15T13:10:15Z</time>
      </trkpt>
      <trkpt lat="42.89874" lon="-0.2048">
        <ele>1412.5</ele>
        <time>2026-07-15T13:10:16Z</time>
      </trkpt>
      <trkpt lat="42.89874" lon="-0.2048">
        <ele>1412.5</ele>
        <time>2026-07-15T13:10:17Z</time>
      </trkpt>
      <trkpt lat="42.89874" lon="-0.2048">
        <ele>1412.5</ele>
        <time>2026-07-15T13:10:18Z</time>
      </trkpt>
      <trkpt lat="42.89873" lon="-0.2048">
        <ele>1411.5</ele>
        <time>2026-07-15T13:10:19Z</time>
      </trkpt>
      <trkpt lat="42.89873" lon="-0.20481">
        <ele>1411.5</ele>
        <time>2026-07-15T13:10:20Z</time>
      </trkpt>
      <trkpt lat="42.89873" lon="-0.20481">
        <ele>1412.5</ele>
        <time>2026-07-15T13:10:21Z</time>
      </trkpt>
      <trkpt lat="42.89873" lon="-0.20481">
        <ele>1412.5</ele>
        <time>2026-07-15T13:10:22Z</time>
      </trkpt>
      <trkpt lat="42.89873" lon="-0.2048">
        <ele>1411.5</ele>
        <time>2026-07-15T13:10:23Z</time>
      </trkpt>
      <trkpt lat="42.89873" lon="-0.20479">
        <ele>1411.5</ele>
        <time>2026-07-15T13:10:24Z</time>
      </trkpt>
      <trkpt lat="42.89874" lon="-0.2048">
        <ele>1411.5</ele>
        <time>2026-07-15T13:10:25Z</time>
      </trkpt>
      <trkpt lat="42.89875" lon="-0.2048">
        <ele>1411.5</ele>
        <time>2026-07-15T13:10:26Z</time>
      </trkpt>
      <trkpt lat="42.89875" lon="-0.2048">
        <ele>1411.5</ele>
        <time>2026-07-15T13:10:27Z</time>
      </trkpt>
      <trkpt lat="42.89874" lon="-0.2048">
        <ele>1412.5</ele>
        <time>2026-07-15T13:10:28Z</time>
      </trkpt>
      <trkpt lat="42.89874" lon="-0.20479">
        <ele>1411.5</ele>
        <time>2026-07-15T13:10:29Z</time>
      </trkpt>
      <trkpt lat="42.89873" lon="-0.2048">
        <ele>1411.5</ele>
        <time>2026-07-15T13:10:30Z</time>
      </trkpt>
      <trkpt lat="42.89873" lon="-0.2048">
        <ele>1411.5</ele>
        <time>2026-07-15T13:10:31Z</time>
      </trkpt>
      <trkpt lat="42.89873" lon="-0.2048">
        <ele>1411.5</ele>
        <time>2026-07-15T13:10:32Z</time>
      </trkpt>
      <trkpt lat="42.89872" lon="-0.20479">
        <ele>1411.5</ele>
        <time>2026-07-15T13:10:33Z</time>
      </trkpt>
      <trkpt lat="42.89871" lon="-0.2048">
        <ele>1410.5</ele>
        <time>2026-07-15T13:10:34Z</time>
      </trkpt>
      <trkpt lat="42.89871" lon="-0.2048">
        <ele>1410.5</ele>
        <time>2026-07-15T13:10:35Z</time>
      </trkpt>
      <trkpt lat="42.89871" lon="-0.2048">
        <ele>1410.5</ele>
        <time>2026-07-15T13:10:36Z</time>
      </trkpt>
      <trkpt lat="42.89871" lon="-0.2048">
        <ele>1410.5</ele>
        <time>2026-07-15T13:10:37Z</time>
      </trkpt>
      <trkpt lat="42.89871" lon="-0.2048">
        <ele>1410.5</ele>
        <time>2026-07-15T13:10:38Z</time>
      </trkpt>
      <trkpt lat="42.89871" lon="-0.2048">
        <ele>1410.5</ele>
        <time>2026-07-15T13:10:39Z</time>
      </trkpt>
      <trkpt lat="42.89871" lon="-0.2048">
        <ele>1410.5</ele>
        <time>2026-07-15T13:10:40Z</time>
      </trkpt>
      <trkpt lat="42.89871" lon="-0.2048">
        <ele>1410.5</ele>
        <time>2026-07-15T13:10:41Z</time>
      </trkpt>
      <trkpt lat="42.89871" lon="-0.2048">
        <ele>1410.5</ele>
        <time>2026-07-15T13:10:42Z</time>
      </trkpt>
      <trkpt lat="42.89871" lon="-0.2048">
        <ele>1410.5</ele>
        <time>2026-07-15T13:10:43Z</time>
      </trkpt>
      <trkpt lat="42.89871" lon="-0.2048">
        <ele>1410.5</ele>
        <time>2026-07-15T13:10:44Z</time>
      </trkpt>
      <trkpt lat="42.89871" lon="-0.2048">
        <ele>1410.5</ele>
        <time>2026-07-15T13:10:45Z</time>
      </trkpt>
      <trkpt lat="42.89871" lon="-0.2048">
        <ele>1410.5</ele>
        <time>2026-07-15T13:10:46Z</time>
      </trkpt>
      <trkpt lat="42.89871" lon="-0.2048">
        <ele>1410.5</ele>
        <time>2026-07-15T13:10:47Z</time>
      </trkpt>
      <trkpt lat="42.89871" lon="-0.2048">
        <ele>1410.5</ele>
        <time>2026-07-15T13:10:48Z</time>
      </trkpt>
      <trkpt lat="42.89871" lon="-0.2048">
        <ele>1410.5</ele>
        <time>2026-07-15T13:10:49Z</time>
      </trkpt>
      <trkpt lat="42.89871" lon="-0.2048">
        <ele>1410.5</ele>
        <time>2026-07-15T13:10:50Z</time>
      </trkpt>
      <trkpt lat="42.89871" lon="-0.2048">
        <ele>1410.5</ele>
        <time>2026-07-15T13:10:51Z</time>
      </trkpt>
      <trkpt lat="42.8987" lon="-0.2048">
        <ele>1410.5</ele>
        <time>2026-07-15T13:10:52Z</time>
      </trkpt>
      <trkpt lat="42.8987" lon="-0.2048">
        <ele>1410.5</ele>
        <time>2026-07-15T13:10:53Z</time>
      </trkpt>
      <trkpt lat="42.8987" lon="-0.2048">
        <ele>1410.5</ele>
        <time>2026-07-15T13:10:54Z</time>
      </trkpt>
      <trkpt lat="42.8987" lon="-0.2048">
        <ele>1410.5</ele>
        <time>2026-07-15T13:10:55Z</time>
      </trkpt>
      <trkpt lat="42.8987" lon="-0.2048">
        <ele>1410.5</ele>
        <time>2026-07-15T13:10:56Z</time>
      </trkpt>
      <trkpt lat="42.8987" lon="-0.2048">
        <ele>1410.5</ele>
        <time>2026-07-15T13:10:57Z</time>
      </trkpt>
      <trkpt lat="42.8987" lon="-0.2048">
        <ele>1410.5</ele>
        <time>2026-07-15T13:10:58Z</time>
      </trkpt>
      <trkpt lat="42.8987" lon="-0.2048">
        <ele>1410.5</ele>
        <time>2026-07-15T13:10:59Z</time>
      </trkpt>
      <trkpt lat="42.8987" lon="-0.2048">
        <ele>1410.5</ele>
        <time>2026-07-15T13:11:00Z</time>
      </trkpt>
      <trkpt lat="42.8987" lon="-0.2048">
        <ele>1410.5</ele>
        <time>2026-07-15T13:11:01Z</time>
      </trkpt>
      <trkpt lat="42.89869" lon="-0.2048">
        <ele>1408.5</ele>
        <time>2026-07-15T13:11:02Z</time>
      </trkpt>
      <trkpt lat="42.89869" lon="-0.2048">
        <ele>1408.5</ele>
        <time>2026-07-15T13:11:03Z</time>
      </trkpt>
      <trkpt lat="42.89869" lon="-0.20481">
        <ele>1407.5</ele>
        <time>2026-07-15T13:11:04Z</time>
      </trkpt>
      <trkpt lat="42.89869" lon="-0.20481">
        <ele>1406.5</ele>
        <time>2026-07-15T13:11:05Z</time>
      </trkpt>
      <trkpt lat="42.89869" lon="-0.20481">
        <ele>1407.5</ele>
        <time>2026-07-15T13:11:06Z</time>
      </trkpt>
      <trkpt lat="42.89869" lon="-0.20481">
        <ele>1407.5</ele>
        <time>2026-07-15T13:11:07Z</time>
      </trkpt>
      <trkpt lat="42.89869" lon="-0.20481">
        <ele>1407.5</ele>
        <time>2026-07-15T13:11:08Z</time>
      </trkpt>
      <trkpt lat="42.89869" lon="-0.20481">
        <ele>1407.5</ele>
        <time>2026-07-15T13:11:09Z</time>
      </trkpt>
      <trkpt lat="42.89869" lon="-0.20481">
        <ele>1407.5</ele>
        <time>2026-07-15T13:11:10Z</time>
      </trkpt>
      <trkpt lat="42.89869" lon="-0.20481">
        <ele>1407.5</ele>
        <time>2026-07-15T13:11:11Z</time>
      </trkpt>
      <trkpt lat="42.89869" lon="-0.20481">
        <ele>1407.5</ele>
        <time>2026-07-15T13:11:12Z</time>
      </trkpt>
      <trkpt lat="42.89869" lon="-0.20481">
        <ele>1407.5</ele>
        <time>2026-07-15T13:11:13Z</time>
      </trkpt>
      <trkpt lat="42.89869" lon="-0.20481">
        <ele>1407.5</ele>
        <time>2026-07-15T13:11:14Z</time>
      </trkpt>
      <trkpt lat="42.89869" lon="-0.20481">
        <ele>1407.5</ele>
        <time>2026-07-15T13:11:15Z</time>
      </trkpt>
      <trkpt lat="42.89869" lon="-0.20481">
        <ele>1407.5</ele>
        <time>2026-07-15T13:11:16Z</time>
      </trkpt>
      <trkpt lat="42.89869" lon="-0.20481">
        <ele>1407.5</ele>
        <time>2026-07-15T13:11:17Z</time>
      </trkpt>
      <trkpt lat="42.89869" lon="-0.20481">
        <ele>1407.5</ele>
        <time>2026-07-15T13:11:18Z</time>
      </trkpt>
      <trkpt lat="42.89869" lon="-0.20481">
        <ele>1407.5</ele>
        <time>2026-07-15T13:11:19Z</time>
      </trkpt>
      <trkpt lat="42.89869" lon="-0.20481">
        <ele>1407.5</ele>
        <time>2026-07-15T13:11:20Z</time>
      </trkpt>
      <trkpt lat="42.8987" lon="-0.2048">
        <ele>1407.5</ele>
        <time>2026-07-15T13:11:21Z</time>
      </trkpt>
      <trkpt lat="42.8987" lon="-0.2048">
        <ele>1407.5</ele>
        <time>2026-07-15T13:11:22Z</time>
      </trkpt>
      <trkpt lat="42.8987" lon="-0.2048">
        <ele>1407.5</ele>
        <time>2026-07-15T13:11:23Z</time>
      </trkpt>
      <trkpt lat="42.8987" lon="-0.2048">
        <ele>1407.5</ele>
        <time>2026-07-15T13:11:24Z</time>
      </trkpt>
      <trkpt lat="42.8987" lon="-0.2048">
        <ele>1407.5</ele>
        <time>2026-07-15T13:11:25Z</time>
      </trkpt>
      <trkpt lat="42.8987" lon="-0.2048">
        <ele>1407.5</ele>
        <time>2026-07-15T13:11:26Z</time>
      </trkpt>
      <trkpt lat="42.8987" lon="-0.2048">
        <ele>1407.5</ele>
        <time>2026-07-15T13:11:27Z</time>
      </trkpt>
      <trkpt lat="42.8987" lon="-0.2048">
        <ele>1407.5</ele>
        <time>2026-07-15T13:11:28Z</time>
      </trkpt>
      <trkpt lat="42.8987" lon="-0.2048">
        <ele>1407.5</ele>
        <time>2026-07-15T13:11:29Z</time>
      </trkpt>
      <trkpt lat="42.8987" lon="-0.2048">
        <ele>1407.5</ele>
        <time>2026-07-15T13:11:30Z</time>
      </trkpt>
      <trkpt lat="42.8987" lon="-0.2048">
        <ele>1407.5</ele>
        <time>2026-07-15T13:11:31Z</time>
      </trkpt>
      <trkpt lat="42.8987" lon="-0.2048">
        <ele>1407.5</ele>
        <time>2026-07-15T13:11:32Z</time>
      </trkpt>
      <trkpt lat="42.8987" lon="-0.2048">
        <ele>1407.5</ele>
        <time>2026-07-15T13:11:33Z</time>
      </trkpt>
      <trkpt lat="42.8987" lon="-0.2048">
        <ele>1407.5</ele>
        <time>2026-07-15T13:11:34Z</time>
      </trkpt>
      <trkpt lat="42.8987" lon="-0.2048">
        <ele>1407.5</ele>
        <time>2026-07-15T13:11:35Z</time>
      </trkpt>
      <trkpt lat="42.8987" lon="-0.2048">
        <ele>1407.5</ele>
        <time>2026-07-15T13:11:36Z</time>
      </trkpt>
      <trkpt lat="42.8987" lon="-0.2048">
        <ele>1407.5</ele>
        <time>2026-07-15T13:11:37Z</time>
      </trkpt>
      <trkpt lat="42.8987" lon="-0.2048">
        <ele>1407.5</ele>
        <time>2026-07-15T13:11:38Z</time>
      </trkpt>
      <trkpt lat="42.8987" lon="-0.2048">
        <ele>1407.5</ele>
        <time>2026-07-15T13:11:39Z</time>
      </trkpt>
      <trkpt lat="42.8987" lon="-0.2048">
        <ele>1407.5</ele>
        <time>2026-07-15T13:11:40Z</time>
      </trkpt>
      <trkpt lat="42.89869" lon="-0.2048">
        <ele>1407.5</ele>
        <time>2026-07-15T13:11:41Z</time>
      </trkpt>
      <trkpt lat="42.89869" lon="-0.2048">
        <ele>1408.5</ele>
        <time>2026-07-15T13:11:42Z</time>
      </trkpt>
      <trkpt lat="42.89869" lon="-0.2048">
        <ele>1408.5</ele>
        <time>2026-07-15T13:11:43Z</time>
      </trkpt>
      <trkpt lat="42.89869" lon="-0.2048">
        <ele>1408.5</ele>
        <time>2026-07-15T13:11:44Z</time>
      </trkpt>
      <trkpt lat="42.89868" lon="-0.2048">
        <ele>1407.5</ele>
        <time>2026-07-15T13:11:45Z</time>
      </trkpt>
      <trkpt lat="42.89868" lon="-0.2048">
        <ele>1407.5</ele>
        <time>2026-07-15T13:11:46Z</time>
      </trkpt>
      <trkpt lat="42.89868" lon="-0.20479">
        <ele>1407.5</ele>
        <time>2026-07-15T13:11:47Z</time>
      </trkpt>
      <trkpt lat="42.89868" lon="-0.20479">
        <ele>1406.5</ele>
        <time>2026-07-15T13:11:48Z</time>
      </trkpt>
      <trkpt lat="42.89868" lon="-0.20479">
        <ele>1407.5</ele>
        <time>2026-07-15T13:11:49Z</time>
      </trkpt>
      <trkpt lat="42.89868" lon="-0.2048">
        <ele>1407.5</ele>
        <time>2026-07-15T13:11:50Z</time>
      </trkpt>
      <trkpt lat="42.89868" lon="-0.2048">
        <ele>1407.5</ele>
        <time>2026-07-15T13:11:51Z</time>
      </trkpt>
      <trkpt lat="42.89868" lon="-0.2048">
        <ele>1407.5</ele>
        <time>2026-07-15T13:11:52Z</time>
      </trkpt>
      <trkpt lat="42.89868" lon="-0.2048">
        <ele>1407.5</ele>
        <time>2026-07-15T13:11:53Z</time>
      </trkpt>
      <trkpt lat="42.89868" lon="-0.2048">
        <ele>1409.5</ele>
        <time>2026-07-15T13:11:54Z</time>
      </trkpt>
      <trkpt lat="42.89868" lon="-0.2048">
        <ele>1410.5</ele>
        <time>2026-07-15T13:11:55Z</time>
      </trkpt>
      <trkpt lat="42.89868" lon="-0.2048">
        <ele>1410.5</ele>
        <time>2026-07-15T13:11:56Z</time>
      </trkpt>
      <trkpt lat="42.89868" lon="-0.2048">
        <ele>1410.5</ele>
        <time>2026-07-15T13:11:57Z</time>
      </trkpt>
      <trkpt lat="42.89868" lon="-0.2048">
        <ele>1410.5</ele>
        <time>2026-07-15T13:11:58Z</time>
      </trkpt>
      <trkpt lat="42.89868" lon="-0.2048">
        <ele>1410.5</ele>
        <time>2026-07-15T13:11:59Z</time>
      </trkpt>
      <trkpt lat="42.89869" lon="-0.2048">
        <ele>1410.5</ele>
        <time>2026-07-15T13:12:00Z</time>
      </trkpt>
      <trkpt lat="42.89869" lon="-0.2048">
        <ele>1410.5</ele>
        <time>2026-07-15T13:12:01Z</time>
      </trkpt>
      <trkpt lat="42.89869" lon="-0.2048">
        <ele>1410.5</ele>
        <time>2026-07-15T13:12:02Z</time>
      </trkpt>
      <trkpt lat="42.89869" lon="-0.2048">
        <ele>1410.5</ele>
        <time>2026-07-15T13:12:03Z</time>
      </trkpt>
      <trkpt lat="42.89869" lon="-0.2048">
        <ele>1410.5</ele>
        <time>2026-07-15T13:12:04Z</time>
      </trkpt>
      <trkpt lat="42.89869" lon="-0.2048">
        <ele>1410.5</ele>
        <time>2026-07-15T13:12:05Z</time>
      </trkpt>
      <trkpt lat="42.89869" lon="-0.2048">
        <ele>1410.5</ele>
        <time>2026-07-15T13:12:06Z</time>
      </trkpt>
      <trkpt lat="42.89869" lon="-0.2048">
        <ele>1410.5</ele>
        <time>2026-07-15T13:12:06Z</time>
      </trkpt>
      <trkpt lat="42.89869" lon="-0.2048">
        <ele>1410.5</ele>
        <time>2026-07-15T13:12:07Z</time>
      </trkpt>
      <trkpt lat="42.89869" lon="-0.2048">
        <ele>1412.5</ele>
        <time>2026-07-15T13:12:08Z</time>
      </trkpt>
      <trkpt lat="42.89869" lon="-0.2048">
        <ele>1412.5</ele>
        <time>2026-07-15T13:12:09Z</time>
      </trkpt>
      <trkpt lat="42.89869" lon="-0.2048">
        <ele>1413.5</ele>
        <time>2026-07-15T13:12:10Z</time>
      </trkpt>
      <trkpt lat="42.89869" lon="-0.2048">
        <ele>1415.5</ele>
        <time>2026-07-15T13:12:11Z</time>
      </trkpt>
      <trkpt lat="42.8987" lon="-0.20481">
        <ele>1416.5</ele>
        <time>2026-07-15T13:12:12Z</time>
      </trkpt>
      <trkpt lat="42.8987" lon="-0.20481">
        <ele>1415.5</ele>
        <time>2026-07-15T13:12:13Z</time>
      </trkpt>
      <trkpt lat="42.8987" lon="-0.20481">
        <ele>1415.5</ele>
        <time>2026-07-15T13:12:14Z</time>
      </trkpt>
      <trkpt lat="42.8987" lon="-0.20481">
        <ele>1415.5</ele>
        <time>2026-07-15T13:12:15Z</time>
      </trkpt>
      <trkpt lat="42.8987" lon="-0.20482">
        <ele>1415.5</ele>
        <time>2026-07-15T13:12:16Z</time>
      </trkpt>
      <trkpt lat="42.8987" lon="-0.20482">
        <ele>1415.5</ele>
        <time>2026-07-15T13:12:17Z</time>
      </trkpt>
      <trkpt lat="42.8987" lon="-0.20483">
        <ele>1415.5</ele>
        <time>2026-07-15T13:12:18Z</time>
      </trkpt>
      <trkpt lat="42.89871" lon="-0.20483">
        <ele>1415.5</ele>
        <time>2026-07-15T13:12:19Z</time>
      </trkpt>
      <trkpt lat="42.89871" lon="-0.20483">
        <ele>1415.5</ele>
        <time>2026-07-15T13:12:20Z</time>
      </trkpt>
      <trkpt lat="42.89871" lon="-0.20483">
        <ele>1415.5</ele>
        <time>2026-07-15T13:12:21Z</time>
      </trkpt>
      <trkpt lat="42.89871" lon="-0.20483">
        <ele>1414.5</ele>
        <time>2026-07-15T13:12:21Z</time>
      </trkpt>
      <trkpt lat="42.89871" lon="-0.20483">
        <ele>1414.5</ele>
        <time>2026-07-15T13:12:22Z</time>
      </trkpt>
      <trkpt lat="42.89871" lon="-0.20483">
        <ele>1414.5</ele>
        <time>2026-07-15T13:12:22Z</time>
      </trkpt>
      <trkpt lat="42.89871" lon="-0.20483">
        <ele>1414.5</ele>
        <time>2026-07-15T13:12:23Z</time>
      </trkpt>
      <trkpt lat="42.89871" lon="-0.20483">
        <ele>1414.5</ele>
        <time>2026-07-15T13:12:24Z</time>
      </trkpt>
      <trkpt lat="42.89871" lon="-0.20483">
        <ele>1414.5</ele>
        <time>2026-07-15T13:12:25Z</time>
      </trkpt>
      <trkpt lat="42.89871" lon="-0.20483">
        <ele>1414.5</ele>
        <time>2026-07-15T13:12:26Z</time>
      </trkpt>
      <trkpt lat="42.89871" lon="-0.20483">
        <ele>1414.5</ele>
        <time>2026-07-15T13:12:27Z</time>
      </trkpt>
      <trkpt lat="42.89872" lon="-0.20483">
        <ele>1415.5</ele>
        <time>2026-07-15T13:12:28Z</time>
      </trkpt>
      <trkpt lat="42.89872" lon="-0.20483">
        <ele>1415.5</ele>
        <time>2026-07-15T13:12:29Z</time>
      </trkpt>
      <trkpt lat="42.89872" lon="-0.20482">
        <ele>1415.5</ele>
        <time>2026-07-15T13:12:30Z</time>
      </trkpt>
      <trkpt lat="42.89872" lon="-0.20482">
        <ele>1415.5</ele>
        <time>2026-07-15T13:12:31Z</time>
      </trkpt>
      <trkpt lat="42.89872" lon="-0.20482">
        <ele>1414.5</ele>
        <time>2026-07-15T13:12:32Z</time>
      </trkpt>
      <trkpt lat="42.89872" lon="-0.20482">
        <ele>1415.5</ele>
        <time>2026-07-15T13:12:33Z</time>
      </trkpt>
      <trkpt lat="42.89872" lon="-0.20482">
        <ele>1416.5</ele>
        <time>2026-07-15T13:12:34Z</time>
      </trkpt>
      <trkpt lat="42.89872" lon="-0.20482">
        <ele>1416.5</ele>
        <time>2026-07-15T13:12:35Z</time>
      </trkpt>
      <trkpt lat="42.89872" lon="-0.20482">
        <ele>1416.5</ele>
        <time>2026-07-15T13:12:36Z</time>
      </trkpt>
      <trkpt lat="42.89872" lon="-0.20481">
        <ele>1416.5</ele>
        <time>2026-07-15T13:12:37Z</time>
      </trkpt>
      <trkpt lat="42.89872" lon="-0.20481">
        <ele>1416.5</ele>
        <time>2026-07-15T13:12:38Z</time>
      </trkpt>
      <trkpt lat="42.89872" lon="-0.20481">
        <ele>1415.5</ele>
        <time>2026-07-15T13:12:39Z</time>
      </trkpt>
      <trkpt lat="42.89872" lon="-0.20481">
        <ele>1415.5</ele>
        <time>2026-07-15T13:12:40Z</time>
      </trkpt>
      <trkpt lat="42.89872" lon="-0.20481">
        <ele>1414.5</ele>
        <time>2026-07-15T13:12:41Z</time>
      </trkpt>
      <trkpt lat="42.89873" lon="-0.20481">
        <ele>1415.5</ele>
        <time>2026-07-15T13:12:42Z</time>
      </trkpt>
      <trkpt lat="42.89873" lon="-0.2048">
        <ele>1415.5</ele>
        <time>2026-07-15T13:12:43Z</time>
      </trkpt>
      <trkpt lat="42.89873" lon="-0.2048">
        <ele>1415.5</ele>
        <time>2026-07-15T13:12:44Z</time>
      </trkpt>
      <trkpt lat="42.89873" lon="-0.2048">
        <ele>1415.5</ele>
        <time>2026-07-15T13:12:45Z</time>
      </trkpt>
      <trkpt lat="42.89873" lon="-0.2048">
        <ele>1414.5</ele>
        <time>2026-07-15T13:12:46Z</time>
      </trkpt>
      <trkpt lat="42.89873" lon="-0.2048">
        <ele>1414.5</ele>
        <time>2026-07-15T13:12:47Z</time>
      </trkpt>
      <trkpt lat="42.89873" lon="-0.20481">
        <ele>1414.5</ele>
        <time>2026-07-15T13:12:48Z</time>
      </trkpt>
      <trkpt lat="42.89873" lon="-0.20481">
        <ele>1414.5</ele>
        <time>2026-07-15T13:12:49Z</time>
      </trkpt>
      <trkpt lat="42.89873" lon="-0.20481">
        <ele>1414.5</ele>
        <time>2026-07-15T13:12:50Z</time>
      </trkpt>
      <trkpt lat="42.89874" lon="-0.20481">
        <ele>1414.5</ele>
        <time>2026-07-15T13:12:51Z</time>
      </trkpt>
      <trkpt lat="42.89874" lon="-0.20481">
        <ele>1415.5</ele>
        <time>2026-07-15T13:12:52Z</time>
      </trkpt>
      <trkpt lat="42.89874" lon="-0.20482">
        <ele>1415.5</ele>
        <time>2026-07-15T13:12:53Z</time>
      </trkpt>
      <trkpt lat="42.89874" lon="-0.20482">
        <ele>1415.5</ele>
        <time>2026-07-15T13:12:54Z</time>
      </trkpt>
      <trkpt lat="42.89874" lon="-0.20482">
        <ele>1415.5</ele>
        <time>2026-07-15T13:12:55Z</time>
      </trkpt>
      <trkpt lat="42.89875" lon="-0.20482">
        <ele>1415.5</ele>
        <time>2026-07-15T13:12:56Z</time>
      </trkpt>
      <trkpt lat="42.89875" lon="-0.20482">
        <ele>1415.5</ele>
        <time>2026-07-15T13:12:57Z</time>
      </trkpt>
      <trkpt lat="42.89875" lon="-0.20482">
        <ele>1415.5</ele>
        <time>2026-07-15T13:12:58Z</time>
      </trkpt>
      <trkpt lat="42.89875" lon="-0.20482">
        <ele>1415.5</ele>
        <time>2026-07-15T13:12:59Z</time>
      </trkpt>
      <trkpt lat="42.89876" lon="-0.20482">
        <ele>1415.5</ele>
        <time>2026-07-15T13:13:00Z</time>
      </trkpt>
      <trkpt lat="42.89876" lon="-0.20482">
        <ele>1415.5</ele>
        <time>2026-07-15T13:13:01Z</time>
      </trkpt>
      <trkpt lat="42.89876" lon="-0.20482">
        <ele>1415.5</ele>
        <time>2026-07-15T13:13:02Z</time>
      </trkpt>
      <trkpt lat="42.89877" lon="-0.20482">
        <ele>1415.5</ele>
        <time>2026-07-15T13:13:03Z</time>
      </trkpt>
      <trkpt lat="42.89877" lon="-0.20482">
        <ele>1415.5</ele>
        <time>2026-07-15T13:13:04Z</time>
      </trkpt>
      <trkpt lat="42.89877" lon="-0.20482">
        <ele>1415.5</ele>
        <time>2026-07-15T13:13:05Z</time>
      </trkpt>
      <trkpt lat="42.89877" lon="-0.20482">
        <ele>1415.5</ele>
        <time>2026-07-15T13:13:06Z</time>
      </trkpt>
      <trkpt lat="42.89877" lon="-0.20481">
        <ele>1415.5</ele>
        <time>2026-07-15T13:13:07Z</time>
      </trkpt>
      <trkpt lat="42.89877" lon="-0.20482">
        <ele>1415.5</ele>
        <time>2026-07-15T13:13:07Z</time>
      </trkpt>
      <trkpt lat="42.89878" lon="-0.20482">
        <ele>1415.5</ele>
        <time>2026-07-15T13:13:08Z</time>
      </trkpt>
      <trkpt lat="42.89878" lon="-0.20482">
        <ele>1415.5</ele>
        <time>2026-07-15T13:13:09Z</time>
      </trkpt>
      <trkpt lat="42.89878" lon="-0.20482">
        <ele>1415.5</ele>
        <time>2026-07-15T13:13:10Z</time>
      </trkpt>
      <trkpt lat="42.89878" lon="-0.20482">
        <ele>1415.5</ele>
        <time>2026-07-15T13:13:11Z</time>
      </trkpt>
      <trkpt lat="42.89878" lon="-0.20482">
        <ele>1415.5</ele>
        <time>2026-07-15T13:13:12Z</time>
      </trkpt>
      <trkpt lat="42.89878" lon="-0.20482">
        <ele>1414.5</ele>
        <time>2026-07-15T13:13:13Z</time>
      </trkpt>
      <trkpt lat="42.89878" lon="-0.20482">
        <ele>1415.5</ele>
        <time>2026-07-15T13:13:14Z</time>
      </trkpt>
      <trkpt lat="42.89878" lon="-0.20482">
        <ele>1414.5</ele>
        <time>2026-07-15T13:13:15Z</time>
      </trkpt>
      <trkpt lat="42.89878" lon="-0.20483">
        <ele>1414.5</ele>
        <time>2026-07-15T13:13:16Z</time>
      </trkpt>
      <trkpt lat="42.89877" lon="-0.20483">
        <ele>1413.5</ele>
        <time>2026-07-15T13:13:17Z</time>
      </trkpt>
      <trkpt lat="42.89877" lon="-0.20483">
        <ele>1414.5</ele>
        <time>2026-07-15T13:13:18Z</time>
      </trkpt>
      <trkpt lat="42.89877" lon="-0.20483">
        <ele>1415.5</ele>
        <time>2026-07-15T13:13:19Z</time>
      </trkpt>
      <trkpt lat="42.89877" lon="-0.20483">
        <ele>1415.5</ele>
        <time>2026-07-15T13:13:20Z</time>
      </trkpt>
      <trkpt lat="42.89876" lon="-0.20483">
        <ele>1414.5</ele>
        <time>2026-07-15T13:13:21Z</time>
      </trkpt>
      <trkpt lat="42.89876" lon="-0.20483">
        <ele>1414.5</ele>
        <time>2026-07-15T13:13:21Z</time>
      </trkpt>
      <trkpt lat="42.89876" lon="-0.20484">
        <ele>1414.5</ele>
        <time>2026-07-15T13:13:22Z</time>
      </trkpt>
      <trkpt lat="42.89876" lon="-0.20484">
        <ele>1414.5</ele>
        <time>2026-07-15T13:13:23Z</time>
      </trkpt>
      <trkpt lat="42.89876" lon="-0.20484">
        <ele>1414.5</ele>
        <time>2026-07-15T13:13:24Z</time>
      </trkpt>
      <trkpt lat="42.89876" lon="-0.20484">
        <ele>1413.5</ele>
        <time>2026-07-15T13:13:25Z</time>
      </trkpt>
      <trkpt lat="42.89876" lon="-0.20484">
        <ele>1413.5</ele>
        <time>2026-07-15T13:13:26Z</time>
      </trkpt>
      <trkpt lat="42.89876" lon="-0.20483">
        <ele>1412.5</ele>
        <time>2026-07-15T13:13:26Z</time>
      </trkpt>
      <trkpt lat="42.89876" lon="-0.20482">
        <ele>1413.5</ele>
        <time>2026-07-15T13:13:27Z</time>
      </trkpt>
      <trkpt lat="42.89876" lon="-0.20482">
        <ele>1413.5</ele>
        <time>2026-07-15T13:13:28Z</time>
      </trkpt>
      <trkpt lat="42.89876" lon="-0.20481">
        <ele>1413.5</ele>
        <time>2026-07-15T13:13:29Z</time>
      </trkpt>
      <trkpt lat="42.89876" lon="-0.20481">
        <ele>1413.5</ele>
        <time>2026-07-15T13:13:29Z</time>
      </trkpt>
      <trkpt lat="42.89876" lon="-0.20481">
        <ele>1414.5</ele>
        <time>2026-07-15T13:13:30Z</time>
      </trkpt>
      <trkpt lat="42.89876" lon="-0.20481">
        <ele>1414.5</ele>
        <time>2026-07-15T13:13:31Z</time>
      </trkpt>
      <trkpt lat="42.89877" lon="-0.2048">
        <ele>1414.5</ele>
        <time>2026-07-15T13:13:32Z</time>
      </trkpt>
      <trkpt lat="42.89877" lon="-0.2048">
        <ele>1413.5</ele>
        <time>2026-07-15T13:13:32Z</time>
      </trkpt>
      <trkpt lat="42.89877" lon="-0.2048">
        <ele>1414.5</ele>
        <time>2026-07-15T13:13:33Z</time>
      </trkpt>
      <trkpt lat="42.89877" lon="-0.2048">
        <ele>1415.5</ele>
        <time>2026-07-15T13:13:34Z</time>
      </trkpt>
      <trkpt lat="42.89877" lon="-0.2048">
        <ele>1415.5</ele>
        <time>2026-07-15T13:13:35Z</time>
      </trkpt>
      <trkpt lat="42.89877" lon="-0.20481">
        <ele>1415.5</ele>
        <time>2026-07-15T13:13:36Z</time>
      </trkpt>
      <trkpt lat="42.89877" lon="-0.20481">
        <ele>1415.5</ele>
        <time>2026-07-15T13:13:37Z</time>
      </trkpt>
      <trkpt lat="42.89877" lon="-0.20481">
        <ele>1415.5</ele>
        <time>2026-07-15T13:13:38Z</time>
      </trkpt>
      <trkpt lat="42.89877" lon="-0.20481">
        <ele>1415.5</ele>
        <time>2026-07-15T13:13:39Z</time>
      </trkpt>
      <trkpt lat="42.89877" lon="-0.20481">
        <ele>1415.5</ele>
        <time>2026-07-15T13:13:40Z</time>
      </trkpt>
      <trkpt lat="42.89877" lon="-0.20481">
        <ele>1415.5</ele>
        <time>2026-07-15T13:13:40Z</time>
      </trkpt>
      <trkpt lat="42.89877" lon="-0.20481">
        <ele>1415.5</ele>
        <time>2026-07-15T13:13:41Z</time>
      </trkpt>
      <trkpt lat="42.89877" lon="-0.20481">
        <ele>1415.5</ele>
        <time>2026-07-15T13:13:42Z</time>
      </trkpt>
      <trkpt lat="42.89878" lon="-0.20482">
        <ele>1414.5</ele>
        <time>2026-07-15T13:13:42Z</time>
      </trkpt>
      <trkpt lat="42.89878" lon="-0.20482">
        <ele>1414.5</ele>
        <time>2026-07-15T13:13:43Z</time>
      </trkpt>
      <trkpt lat="42.89878" lon="-0.20482">
        <ele>1415.5</ele>
        <time>2026-07-15T13:13:44Z</time>
      </trkpt>
      <trkpt lat="42.89879" lon="-0.20482">
        <ele>1415.5</ele>
        <time>2026-07-15T13:13:44Z</time>
      </trkpt>
      <trkpt lat="42.89879" lon="-0.20482">
        <ele>1415.5</ele>
        <time>2026-07-15T13:13:45Z</time>
      </trkpt>
      <trkpt lat="42.89879" lon="-0.20482">
        <ele>1415.5</ele>
        <time>2026-07-15T13:13:45Z</time>
      </trkpt>
      <trkpt lat="42.8988" lon="-0.20482">
        <ele>1415.5</ele>
        <time>2026-07-15T13:13:46Z</time>
      </trkpt>
      <trkpt lat="42.8988" lon="-0.20482">
        <ele>1414.5</ele>
        <time>2026-07-15T13:13:46Z</time>
      </trkpt>
      <trkpt lat="42.89881" lon="-0.20484">
        <ele>1413.5</ele>
        <time>2026-07-15T13:13:47Z</time>
      </trkpt>
      <trkpt lat="42.89882" lon="-0.20485">
        <ele>1413.5</ele>
        <time>2026-07-15T13:13:48Z</time>
      </trkpt>
      <trkpt lat="42.89883" lon="-0.20486">
        <ele>1413.5</ele>
        <time>2026-07-15T13:13:48Z</time>
      </trkpt>
      <trkpt lat="42.89883" lon="-0.20487">
        <ele>1413.5</ele>
        <time>2026-07-15T13:13:49Z</time>
      </trkpt>
      <trkpt lat="42.89884" lon="-0.20486">
        <ele>1413.5</ele>
        <time>2026-07-15T13:13:49Z</time>
      </trkpt>
      <trkpt lat="42.89885" lon="-0.20487">
        <ele>1413.5</ele>
        <time>2026-07-15T13:13:50Z</time>
      </trkpt>
      <trkpt lat="42.89886" lon="-0.20486">
        <ele>1414.5</ele>
        <time>2026-07-15T13:13:51Z</time>
      </trkpt>
      <trkpt lat="42.89887" lon="-0.20486">
        <ele>1414.5</ele>
        <time>2026-07-15T13:13:51Z</time>
      </trkpt>
      <trkpt lat="42.89888" lon="-0.20486">
        <ele>1414.5</ele>
        <time>2026-07-15T13:13:52Z</time>
      </trkpt>
      <trkpt lat="42.89888" lon="-0.20486">
        <ele>1414.5</ele>
        <time>2026-07-15T13:13:52Z</time>
      </trkpt>
      <trkpt lat="42.89889" lon="-0.20486">
        <ele>1414.5</ele>
        <time>2026-07-15T13:13:53Z</time>
      </trkpt>
      <trkpt lat="42.8989" lon="-0.20485">
        <ele>1414.5</ele>
        <time>2026-07-15T13:13:53Z</time>
      </trkpt>
      <trkpt lat="42.89891" lon="-0.20485">
        <ele>1413.5</ele>
        <time>2026-07-15T13:13:54Z</time>
      </trkpt>
      <trkpt lat="42.89891" lon="-0.20484">
        <ele>1413.5</ele>
        <time>2026-07-15T13:13:55Z</time>
      </trkpt>
      <trkpt lat="42.89892" lon="-0.20484">
        <ele>1413.5</ele>
        <time>2026-07-15T13:13:55Z</time>
      </trkpt>
      <trkpt lat="42.89892" lon="-0.20483">
        <ele>1413.5</ele>
        <time>2026-07-15T13:13:56Z</time>
      </trkpt>
      <trkpt lat="42.89893" lon="-0.20483">
        <ele>1413.5</ele>
        <time>2026-07-15T13:13:57Z</time>
      </trkpt>
      <trkpt lat="42.89894" lon="-0.20482">
        <ele>1413.5</ele>
        <time>2026-07-15T13:13:58Z</time>
      </trkpt>
      <trkpt lat="42.89894" lon="-0.20482">
        <ele>1413.5</ele>
        <time>2026-07-15T13:13:58Z</time>
      </trkpt>
      <trkpt lat="42.89895" lon="-0.20481">
        <ele>1412.5</ele>
        <time>2026-07-15T13:13:59Z</time>
      </trkpt>
      <trkpt lat="42.89895" lon="-0.20481">
        <ele>1412.5</ele>
        <time>2026-07-15T13:14:00Z</time>
      </trkpt>
      <trkpt lat="42.89896" lon="-0.2048">
        <ele>1412.5</ele>
        <time>2026-07-15T13:14:00Z</time>
      </trkpt>
      <trkpt lat="42.89896" lon="-0.2048">
        <ele>1412.5</ele>
        <time>2026-07-15T13:14:01Z</time>
      </trkpt>
      <trkpt lat="42.89897" lon="-0.20479">
        <ele>1412.5</ele>
        <time>2026-07-15T13:14:02Z</time>
      </trkpt>
      <trkpt lat="42.89897" lon="-0.20479">
        <ele>1412.5</ele>
        <time>2026-07-15T13:14:02Z</time>
      </trkpt>
      <trkpt lat="42.89898" lon="-0.2048">
        <ele>1412.5</ele>
        <time>2026-07-15T13:14:03Z</time>
      </trkpt>
      <trkpt lat="42.89898" lon="-0.2048">
        <ele>1412.5</ele>
        <time>2026-07-15T13:14:03Z</time>
      </trkpt>
      <trkpt lat="42.89899" lon="-0.2048">
        <ele>1412.5</ele>
        <time>2026-07-15T13:14:04Z</time>
      </trkpt>
      <trkpt lat="42.89899" lon="-0.2048">
        <ele>1411.5</ele>
        <time>2026-07-15T13:14:04Z</time>
      </trkpt>
      <trkpt lat="42.899" lon="-0.20481">
        <ele>1411.5</ele>
        <time>2026-07-15T13:14:05Z</time>
      </trkpt>
      <trkpt lat="42.899" lon="-0.20481">
        <ele>1411.5</ele>
        <time>2026-07-15T13:14:05Z</time>
      </trkpt>
      <trkpt lat="42.89901" lon="-0.20481">
        <ele>1411.5</ele>
        <time>2026-07-15T13:14:06Z</time>
      </trkpt>
      <trkpt lat="42.89901" lon="-0.20481">
        <ele>1411.5</ele>
        <time>2026-07-15T13:14:06Z</time>
      </trkpt>
      <trkpt lat="42.89902" lon="-0.20482">
        <ele>1411.5</ele>
        <time>2026-07-15T13:14:07Z</time>
      </trkpt>
      <trkpt lat="42.89902" lon="-0.20482">
        <ele>1411.5</ele>
        <time>2026-07-15T13:14:07Z</time>
      </trkpt>
      <trkpt lat="42.89902" lon="-0.20483">
        <ele>1410.5</ele>
        <time>2026-07-15T13:14:08Z</time>
      </trkpt>
      <trkpt lat="42.89903" lon="-0.20483">
        <ele>1410.5</ele>
        <time>2026-07-15T13:14:09Z</time>
      </trkpt>
      <trkpt lat="42.89903" lon="-0.20483">
        <ele>1411.5</ele>
        <time>2026-07-15T13:14:09Z</time>
      </trkpt>
      <trkpt lat="42.89904" lon="-0.20484">
        <ele>1411.5</ele>
        <time>2026-07-15T13:14:10Z</time>
      </trkpt>
      <trkpt lat="42.89904" lon="-0.20484">
        <ele>1410.5</ele>
        <time>2026-07-15T13:14:10Z</time>
      </trkpt>
      <trkpt lat="42.89905" lon="-0.20485">
        <ele>1410.5</ele>
        <time>2026-07-15T13:14:11Z</time>
      </trkpt>
      <trkpt lat="42.89905" lon="-0.20485">
        <ele>1410.5</ele>
        <time>2026-07-15T13:14:11Z</time>
      </trkpt>
      <trkpt lat="42.89906" lon="-0.20486">
        <ele>1410.5</ele>
        <time>2026-07-15T13:14:12Z</time>
      </trkpt>
      <trkpt lat="42.89906" lon="-0.20486">
        <ele>1410.5</ele>
        <time>2026-07-15T13:14:12Z</time>
      </trkpt>
      <trkpt lat="42.89906" lon="-0.20486">
        <ele>1409.5</ele>
        <time>2026-07-15T13:14:13Z</time>
      </trkpt>
      <trkpt lat="42.89907" lon="-0.20487">
        <ele>1409.5</ele>
        <time>2026-07-15T13:14:14Z</time>
      </trkpt>
      <trkpt lat="42.89907" lon="-0.20487">
        <ele>1410.5</ele>
        <time>2026-07-15T13:14:14Z</time>
      </trkpt>
      <trkpt lat="42.89908" lon="-0.20487">
        <ele>1410.5</ele>
        <time>2026-07-15T13:14:14Z</time>
      </trkpt>
      <trkpt lat="42.89908" lon="-0.20488">
        <ele>1410.5</ele>
        <time>2026-07-15T13:14:15Z</time>
      </trkpt>
      <trkpt lat="42.89909" lon="-0.20488">
        <ele>1410.5</ele>
        <time>2026-07-15T13:14:16Z</time>
      </trkpt>
      <trkpt lat="42.8991" lon="-0.20489">
        <ele>1410.5</ele>
        <time>2026-07-15T13:14:16Z</time>
      </trkpt>
      <trkpt lat="42.8991" lon="-0.20489">
        <ele>1410.5</ele>
        <time>2026-07-15T13:14:17Z</time>
      </trkpt>
      <trkpt lat="42.89911" lon="-0.2049">
        <ele>1410.5</ele>
        <time>2026-07-15T13:14:17Z</time>
      </trkpt>
      <trkpt lat="42.89912" lon="-0.2049">
        <ele>1410.5</ele>
        <time>2026-07-15T13:14:18Z</time>
      </trkpt>
      <trkpt lat="42.89912" lon="-0.20491">
        <ele>1410.5</ele>
        <time>2026-07-15T13:14:18Z</time>
      </trkpt>
      <trkpt lat="42.89912" lon="-0.20491">
        <ele>1410.5</ele>
        <time>2026-07-15T13:14:19Z</time>
      </trkpt>
      <trkpt lat="42.89913" lon="-0.20492">
        <ele>1409.5</ele>
        <time>2026-07-15T13:14:19Z</time>
      </trkpt>
      <trkpt lat="42.89914" lon="-0.20492">
        <ele>1409.5</ele>
        <time>2026-07-15T13:14:20Z</time>
      </trkpt>
      <trkpt lat="42.89914" lon="-0.20493">
        <ele>1409.5</ele>
        <time>2026-07-15T13:14:20Z</time>
      </trkpt>
      <trkpt lat="42.89915" lon="-0.20493">
        <ele>1409.5</ele>
        <time>2026-07-15T13:14:21Z</time>
      </trkpt>
      <trkpt lat="42.89916" lon="-0.20493">
        <ele>1409.5</ele>
        <time>2026-07-15T13:14:21Z</time>
      </trkpt>
      <trkpt lat="42.89916" lon="-0.20493">
        <ele>1409.5</ele>
        <time>2026-07-15T13:14:22Z</time>
      </trkpt>
      <trkpt lat="42.89917" lon="-0.20494">
        <ele>1409.5</ele>
        <time>2026-07-15T13:14:23Z</time>
      </trkpt>
      <trkpt lat="42.89917" lon="-0.20494">
        <ele>1410.5</ele>
        <time>2026-07-15T13:14:23Z</time>
      </trkpt>
      <trkpt lat="42.89918" lon="-0.20494">
        <ele>1410.5</ele>
        <time>2026-07-15T13:14:24Z</time>
      </trkpt>
      <trkpt lat="42.89919" lon="-0.20494">
        <ele>1409.5</ele>
        <time>2026-07-15T13:14:24Z</time>
      </trkpt>
      <trkpt lat="42.89919" lon="-0.20494">
        <ele>1409.5</ele>
        <time>2026-07-15T13:14:25Z</time>
      </trkpt>
      <trkpt lat="42.8992" lon="-0.20495">
        <ele>1409.5</ele>
        <time>2026-07-15T13:14:25Z</time>
      </trkpt>
      <trkpt lat="42.89921" lon="-0.20495">
        <ele>1409.5</ele>
        <time>2026-07-15T13:14:26Z</time>
      </trkpt>
      <trkpt lat="42.89922" lon="-0.20495">
        <ele>1409.5</ele>
        <time>2026-07-15T13:14:27Z</time>
      </trkpt>
      <trkpt lat="42.89922" lon="-0.20496">
        <ele>1409.5</ele>
        <time>2026-07-15T13:14:28Z</time>
      </trkpt>
      <trkpt lat="42.89923" lon="-0.20496">
        <ele>1409.5</ele>
        <time>2026-07-15T13:14:29Z</time>
      </trkpt>
      <trkpt lat="42.89923" lon="-0.20496">
        <ele>1410.5</ele>
        <time>2026-07-15T13:14:29Z</time>
      </trkpt>
      <trkpt lat="42.89924" lon="-0.20497">
        <ele>1410.5</ele>
        <time>2026-07-15T13:14:30Z</time>
      </trkpt>
      <trkpt lat="42.89924" lon="-0.20497">
        <ele>1410.5</ele>
        <time>2026-07-15T13:14:30Z</time>
      </trkpt>
      <trkpt lat="42.89925" lon="-0.20497">
        <ele>1410.5</ele>
        <time>2026-07-15T13:14:31Z</time>
      </trkpt>
      <trkpt lat="42.89926" lon="-0.20498">
        <ele>1410.5</ele>
        <time>2026-07-15T13:14:31Z</time>
      </trkpt>
      <trkpt lat="42.89926" lon="-0.20498">
        <ele>1410.5</ele>
        <time>2026-07-15T13:14:32Z</time>
      </trkpt>
      <trkpt lat="42.89927" lon="-0.20499">
        <ele>1410.5</ele>
        <time>2026-07-15T13:14:32Z</time>
      </trkpt>
      <trkpt lat="42.89927" lon="-0.20499">
        <ele>1410.5</ele>
        <time>2026-07-15T13:14:33Z</time>
      </trkpt>
      <trkpt lat="42.89928" lon="-0.205">
        <ele>1410.5</ele>
        <time>2026-07-15T13:14:33Z</time>
      </trkpt>
      <trkpt lat="42.89928" lon="-0.205">
        <ele>1410.5</ele>
        <time>2026-07-15T13:14:34Z</time>
      </trkpt>
      <trkpt lat="42.89929" lon="-0.20501">
        <ele>1410.5</ele>
        <time>2026-07-15T13:14:35Z</time>
      </trkpt>
      <trkpt lat="42.89929" lon="-0.20501">
        <ele>1409.5</ele>
        <time>2026-07-15T13:14:35Z</time>
      </trkpt>
      <trkpt lat="42.8993" lon="-0.20502">
        <ele>1409.5</ele>
        <time>2026-07-15T13:14:36Z</time>
      </trkpt>
      <trkpt lat="42.89931" lon="-0.20503">
        <ele>1409.5</ele>
        <time>2026-07-15T13:14:37Z</time>
      </trkpt>
      <trkpt lat="42.89931" lon="-0.20503">
        <ele>1409.5</ele>
        <time>2026-07-15T13:14:37Z</time>
      </trkpt>
      <trkpt lat="42.89932" lon="-0.20504">
        <ele>1409.5</ele>
        <time>2026-07-15T13:14:38Z</time>
      </trkpt>
      <trkpt lat="42.89932" lon="-0.20504">
        <ele>1410.5</ele>
        <time>2026-07-15T13:14:38Z</time>
      </trkpt>
      <trkpt lat="42.89933" lon="-0.20505">
        <ele>1410.5</ele>
        <time>2026-07-15T13:14:39Z</time>
      </trkpt>
      <trkpt lat="42.89934" lon="-0.20505">
        <ele>1410.5</ele>
        <time>2026-07-15T13:14:40Z</time>
      </trkpt>
      <trkpt lat="42.89934" lon="-0.20506">
        <ele>1409.5</ele>
        <time>2026-07-15T13:14:40Z</time>
      </trkpt>
      <trkpt lat="42.89934" lon="-0.20506">
        <ele>1409.5</ele>
        <time>2026-07-15T13:14:41Z</time>
      </trkpt>
      <trkpt lat="42.89935" lon="-0.20507">
        <ele>1409.5</ele>
        <time>2026-07-15T13:14:41Z</time>
      </trkpt>
      <trkpt lat="42.89935" lon="-0.20508">
        <ele>1409.5</ele>
        <time>2026-07-15T13:14:42Z</time>
      </trkpt>
      <trkpt lat="42.89936" lon="-0.20508">
        <ele>1408.5</ele>
        <time>2026-07-15T13:14:42Z</time>
      </trkpt>
      <trkpt lat="42.89936" lon="-0.20509">
        <ele>1408.5</ele>
        <time>2026-07-15T13:14:43Z</time>
      </trkpt>
      <trkpt lat="42.89937" lon="-0.20509">
        <ele>1409.5</ele>
        <time>2026-07-15T13:14:44Z</time>
      </trkpt>
      <trkpt lat="42.89937" lon="-0.2051">
        <ele>1409.5</ele>
        <time>2026-07-15T13:14:44Z</time>
      </trkpt>
      <trkpt lat="42.89938" lon="-0.2051">
        <ele>1409.5</ele>
        <time>2026-07-15T13:14:45Z</time>
      </trkpt>
      <trkpt lat="42.89938" lon="-0.20511">
        <ele>1409.5</ele>
        <time>2026-07-15T13:14:45Z</time>
      </trkpt>
      <trkpt lat="42.89939" lon="-0.20511">
        <ele>1409.5</ele>
        <time>2026-07-15T13:14:46Z</time>
      </trkpt>
      <trkpt lat="42.8994" lon="-0.20512">
        <ele>1409.5</ele>
        <time>2026-07-15T13:14:47Z</time>
      </trkpt>
      <trkpt lat="42.89941" lon="-0.20512">
        <ele>1409.5</ele>
        <time>2026-07-15T13:14:47Z</time>
      </trkpt>
      <trkpt lat="42.89942" lon="-0.20513">
        <ele>1409.5</ele>
        <time>2026-07-15T13:14:48Z</time>
      </trkpt>
      <trkpt lat="42.89942" lon="-0.20513">
        <ele>1408.5</ele>
        <time>2026-07-15T13:14:48Z</time>
      </trkpt>
      <trkpt lat="42.89943" lon="-0.20514">
        <ele>1408.5</ele>
        <time>2026-07-15T13:14:49Z</time>
      </trkpt>
      <trkpt lat="42.89944" lon="-0.20514">
        <ele>1408.5</ele>
        <time>2026-07-15T13:14:50Z</time>
      </trkpt>
      <trkpt lat="42.89944" lon="-0.20515">
        <ele>1408.5</ele>
        <time>2026-07-15T13:14:50Z</time>
      </trkpt>
      <trkpt lat="42.89945" lon="-0.20515">
        <ele>1408.5</ele>
        <time>2026-07-15T13:14:51Z</time>
      </trkpt>
      <trkpt lat="42.89945" lon="-0.20516">
        <ele>1408.5</ele>
        <time>2026-07-15T13:14:51Z</time>
      </trkpt>
      <trkpt lat="42.89946" lon="-0.20517">
        <ele>1408.5</ele>
        <time>2026-07-15T13:14:52Z</time>
      </trkpt>
      <trkpt lat="42.89947" lon="-0.20518">
        <ele>1407.5</ele>
        <time>2026-07-15T13:14:53Z</time>
      </trkpt>
      <trkpt lat="42.89947" lon="-0.20518">
        <ele>1407.5</ele>
        <time>2026-07-15T13:14:53Z</time>
      </trkpt>
      <trkpt lat="42.89947" lon="-0.20518">
        <ele>1407.5</ele>
        <time>2026-07-15T13:14:54Z</time>
      </trkpt>
      <trkpt lat="42.89948" lon="-0.20519">
        <ele>1407.5</ele>
        <time>2026-07-15T13:14:55Z</time>
      </trkpt>
      <trkpt lat="42.89948" lon="-0.20519">
        <ele>1407.5</ele>
        <time>2026-07-15T13:14:55Z</time>
      </trkpt>
      <trkpt lat="42.89949" lon="-0.2052">
        <ele>1407.5</ele>
        <time>2026-07-15T13:14:56Z</time>
      </trkpt>
      <trkpt lat="42.89949" lon="-0.2052">
        <ele>1408.5</ele>
        <time>2026-07-15T13:14:56Z</time>
      </trkpt>
      <trkpt lat="42.89949" lon="-0.2052">
        <ele>1408.5</ele>
        <time>2026-07-15T13:14:57Z</time>
      </trkpt>
      <trkpt lat="42.89949" lon="-0.20521">
        <ele>1408.5</ele>
        <time>2026-07-15T13:14:57Z</time>
      </trkpt>
      <trkpt lat="42.8995" lon="-0.20521">
        <ele>1408.5</ele>
        <time>2026-07-15T13:14:58Z</time>
      </trkpt>
      <trkpt lat="42.8995" lon="-0.20521">
        <ele>1407.5</ele>
        <time>2026-07-15T13:14:58Z</time>
      </trkpt>
      <trkpt lat="42.89951" lon="-0.20522">
        <ele>1407.5</ele>
        <time>2026-07-15T13:14:59Z</time>
      </trkpt>
      <trkpt lat="42.89951" lon="-0.20522">
        <ele>1407.5</ele>
        <time>2026-07-15T13:15:00Z</time>
      </trkpt>
      <trkpt lat="42.89952" lon="-0.20522">
        <ele>1407.5</ele>
        <time>2026-07-15T13:15:00Z</time>
      </trkpt>
      <trkpt lat="42.89952" lon="-0.20522">
        <ele>1407.5</ele>
        <time>2026-07-15T13:15:01Z</time>
      </trkpt>
      <trkpt lat="42.89953" lon="-0.20523">
        <ele>1406.5</ele>
        <time>2026-07-15T13:15:02Z</time>
      </trkpt>
      <trkpt lat="42.89953" lon="-0.20523">
        <ele>1405.5</ele>
        <time>2026-07-15T13:15:02Z</time>
      </trkpt>
      <trkpt lat="42.89954" lon="-0.20523">
        <ele>1405.5</ele>
        <time>2026-07-15T13:15:03Z</time>
      </trkpt>
      <trkpt lat="42.89954" lon="-0.20522">
        <ele>1404.5</ele>
        <time>2026-07-15T13:15:03Z</time>
      </trkpt>
      <trkpt lat="42.89955" lon="-0.20522">
        <ele>1404.5</ele>
        <time>2026-07-15T13:15:04Z</time>
      </trkpt>
      <trkpt lat="42.89955" lon="-0.20522">
        <ele>1404.5</ele>
        <time>2026-07-15T13:15:04Z</time>
      </trkpt>
      <trkpt lat="42.89956" lon="-0.20521">
        <ele>1404.5</ele>
        <time>2026-07-15T13:15:05Z</time>
      </trkpt>
      <trkpt lat="42.89957" lon="-0.20521">
        <ele>1403.5</ele>
        <time>2026-07-15T13:15:05Z</time>
      </trkpt>
      <trkpt lat="42.89957" lon="-0.2052">
        <ele>1403.5</ele>
        <time>2026-07-15T13:15:06Z</time>
      </trkpt>
      <trkpt lat="42.89958" lon="-0.20518">
        <ele>1402.5</ele>
        <time>2026-07-15T13:15:07Z</time>
      </trkpt>
      <trkpt lat="42.89959" lon="-0.20518">
        <ele>1402.5</ele>
        <time>2026-07-15T13:15:08Z</time>
      </trkpt>
      <trkpt lat="42.89959" lon="-0.20517">
        <ele>1401.5</ele>
        <time>2026-07-15T13:15:08Z</time>
      </trkpt>
      <trkpt lat="42.8996" lon="-0.20517">
        <ele>1401.5</ele>
        <time>2026-07-15T13:15:09Z</time>
      </trkpt>
      <trkpt lat="42.8996" lon="-0.20516">
        <ele>1401.5</ele>
        <time>2026-07-15T13:15:09Z</time>
      </trkpt>
      <trkpt lat="42.8996" lon="-0.20515">
        <ele>1401.5</ele>
        <time>2026-07-15T13:15:10Z</time>
      </trkpt>
      <trkpt lat="42.89961" lon="-0.20514">
        <ele>1401.5</ele>
        <time>2026-07-15T13:15:11Z</time>
      </trkpt>
      <trkpt lat="42.89961" lon="-0.20513">
        <ele>1401.5</ele>
        <time>2026-07-15T13:15:11Z</time>
      </trkpt>
      <trkpt lat="42.89962" lon="-0.20512">
        <ele>1401.5</ele>
        <time>2026-07-15T13:15:12Z</time>
      </trkpt>
      <trkpt lat="42.89962" lon="-0.20511">
        <ele>1400.5</ele>
        <time>2026-07-15T13:15:13Z</time>
      </trkpt>
      <trkpt lat="42.89962" lon="-0.2051">
        <ele>1399.5</ele>
        <time>2026-07-15T13:15:13Z</time>
      </trkpt>
      <trkpt lat="42.89963" lon="-0.2051">
        <ele>1399.5</ele>
        <time>2026-07-15T13:15:14Z</time>
      </trkpt>
      <trkpt lat="42.89963" lon="-0.20509">
        <ele>1399.5</ele>
        <time>2026-07-15T13:15:14Z</time>
      </trkpt>
      <trkpt lat="42.89964" lon="-0.20508">
        <ele>1399.5</ele>
        <time>2026-07-15T13:15:15Z</time>
      </trkpt>
      <trkpt lat="42.89964" lon="-0.20508">
        <ele>1400.5</ele>
        <time>2026-07-15T13:15:15Z</time>
      </trkpt>
      <trkpt lat="42.89964" lon="-0.20507">
        <ele>1400.5</ele>
        <time>2026-07-15T13:15:16Z</time>
      </trkpt>
      <trkpt lat="42.89964" lon="-0.20506">
        <ele>1400.5</ele>
        <time>2026-07-15T13:15:16Z</time>
      </trkpt>
      <trkpt lat="42.89964" lon="-0.20505">
        <ele>1400.5</ele>
        <time>2026-07-15T13:15:17Z</time>
      </trkpt>
      <trkpt lat="42.89964" lon="-0.20504">
        <ele>1400.5</ele>
        <time>2026-07-15T13:15:18Z</time>
      </trkpt>
      <trkpt lat="42.89964" lon="-0.20504">
        <ele>1400.5</ele>
        <time>2026-07-15T13:15:18Z</time>
      </trkpt>
      <trkpt lat="42.89965" lon="-0.20503">
        <ele>1400.5</ele>
        <time>2026-07-15T13:15:19Z</time>
      </trkpt>
      <trkpt lat="42.89965" lon="-0.20502">
        <ele>1400.5</ele>
        <time>2026-07-15T13:15:19Z</time>
      </trkpt>
      <trkpt lat="42.89966" lon="-0.20501">
        <ele>1400.5</ele>
        <time>2026-07-15T13:15:20Z</time>
      </trkpt>
      <trkpt lat="42.89966" lon="-0.20501">
        <ele>1400.5</ele>
        <time>2026-07-15T13:15:20Z</time>
      </trkpt>
      <trkpt lat="42.89966" lon="-0.205">
        <ele>1400.5</ele>
        <time>2026-07-15T13:15:21Z</time>
      </trkpt>
      <trkpt lat="42.89967" lon="-0.20499">
        <ele>1400.5</ele>
        <time>2026-07-15T13:15:22Z</time>
      </trkpt>
      <trkpt lat="42.89967" lon="-0.20499">
        <ele>1400.5</ele>
        <time>2026-07-15T13:15:23Z</time>
      </trkpt>
      <trkpt lat="42.89968" lon="-0.20499">
        <ele>1400.5</ele>
        <time>2026-07-15T13:15:23Z</time>
      </trkpt>
      <trkpt lat="42.89969" lon="-0.20499">
        <ele>1399.5</ele>
        <time>2026-07-15T13:15:24Z</time>
      </trkpt>
      <trkpt lat="42.8997" lon="-0.20498">
        <ele>1399.5</ele>
        <time>2026-07-15T13:15:25Z</time>
      </trkpt>
      <trkpt lat="42.8997" lon="-0.20498">
        <ele>1398.5</ele>
        <time>2026-07-15T13:15:25Z</time>
      </trkpt>
      <trkpt lat="42.89971" lon="-0.20497">
        <ele>1398.5</ele>
        <time>2026-07-15T13:15:26Z</time>
      </trkpt>
      <trkpt lat="42.89971" lon="-0.20497">
        <ele>1398.5</ele>
        <time>2026-07-15T13:15:26Z</time>
      </trkpt>
      <trkpt lat="42.89972" lon="-0.20496">
        <ele>1398.5</ele>
        <time>2026-07-15T13:15:27Z</time>
      </trkpt>
      <trkpt lat="42.89973" lon="-0.20496">
        <ele>1398.5</ele>
        <time>2026-07-15T13:15:27Z</time>
      </trkpt>
      <trkpt lat="42.89973" lon="-0.20496">
        <ele>1398.5</ele>
        <time>2026-07-15T13:15:28Z</time>
      </trkpt>
      <trkpt lat="42.89974" lon="-0.20496">
        <ele>1398.5</ele>
        <time>2026-07-15T13:15:29Z</time>
      </trkpt>
      <trkpt lat="42.89975" lon="-0.20496">
        <ele>1398.5</ele>
        <time>2026-07-15T13:15:29Z</time>
      </trkpt>
      <trkpt lat="42.89976" lon="-0.20496">
        <ele>1399.5</ele>
        <time>2026-07-15T13:15:30Z</time>
      </trkpt>
      <trkpt lat="42.89977" lon="-0.20495">
        <ele>1399.5</ele>
        <time>2026-07-15T13:15:31Z</time>
      </trkpt>
      <trkpt lat="42.89977" lon="-0.20495">
        <ele>1399.5</ele>
        <time>2026-07-15T13:15:31Z</time>
      </trkpt>
      <trkpt lat="42.89978" lon="-0.20494">
        <ele>1399.5</ele>
        <time>2026-07-15T13:15:32Z</time>
      </trkpt>
      <trkpt lat="42.89978" lon="-0.20493">
        <ele>1399.5</ele>
        <time>2026-07-15T13:15:32Z</time>
      </trkpt>
      <trkpt lat="42.89978" lon="-0.20493">
        <ele>1399.5</ele>
        <time>2026-07-15T13:15:33Z</time>
      </trkpt>
      <trkpt lat="42.89979" lon="-0.20493">
        <ele>1399.5</ele>
        <time>2026-07-15T13:15:34Z</time>
      </trkpt>
      <trkpt lat="42.89979" lon="-0.20493">
        <ele>1399.5</ele>
        <time>2026-07-15T13:15:34Z</time>
      </trkpt>
      <trkpt lat="42.8998" lon="-0.20492">
        <ele>1399.5</ele>
        <time>2026-07-15T13:15:35Z</time>
      </trkpt>
      <trkpt lat="42.8998" lon="-0.20493">
        <ele>1398.5</ele>
        <time>2026-07-15T13:15:35Z</time>
      </trkpt>
      <trkpt lat="42.89981" lon="-0.20493">
        <ele>1398.5</ele>
        <time>2026-07-15T13:15:36Z</time>
      </trkpt>
      <trkpt lat="42.89981" lon="-0.20493">
        <ele>1398.5</ele>
        <time>2026-07-15T13:15:36Z</time>
      </trkpt>
      <trkpt lat="42.89982" lon="-0.20493">
        <ele>1397.5</ele>
        <time>2026-07-15T13:15:37Z</time>
      </trkpt>
      <trkpt lat="42.89982" lon="-0.20492">
        <ele>1397.5</ele>
        <time>2026-07-15T13:15:38Z</time>
      </trkpt>
      <trkpt lat="42.89983" lon="-0.20491">
        <ele>1397.5</ele>
        <time>2026-07-15T13:15:39Z</time>
      </trkpt>
      <trkpt lat="42.89983" lon="-0.20491">
        <ele>1397.5</ele>
        <time>2026-07-15T13:15:39Z</time>
      </trkpt>
      <trkpt lat="42.89984" lon="-0.2049">
        <ele>1397.5</ele>
        <time>2026-07-15T13:15:40Z</time>
      </trkpt>
      <trkpt lat="42.89984" lon="-0.2049">
        <ele>1396.5</ele>
        <time>2026-07-15T13:15:40Z</time>
      </trkpt>
      <trkpt lat="42.89984" lon="-0.20489">
        <ele>1395.5</ele>
        <time>2026-07-15T13:15:41Z</time>
      </trkpt>
      <trkpt lat="42.89985" lon="-0.20489">
        <ele>1395.5</ele>
        <time>2026-07-15T13:15:42Z</time>
      </trkpt>
      <trkpt lat="42.89985" lon="-0.20489">
        <ele>1395.5</ele>
        <time>2026-07-15T13:15:42Z</time>
      </trkpt>
      <trkpt lat="42.89986" lon="-0.20488">
        <ele>1395.5</ele>
        <time>2026-07-15T13:15:43Z</time>
      </trkpt>
      <trkpt lat="42.89986" lon="-0.20486">
        <ele>1394.5</ele>
        <time>2026-07-15T13:15:44Z</time>
      </trkpt>
      <trkpt lat="42.89986" lon="-0.20486">
        <ele>1394.5</ele>
        <time>2026-07-15T13:15:45Z</time>
      </trkpt>
      <trkpt lat="42.89986" lon="-0.20485">
        <ele>1394.5</ele>
        <time>2026-07-15T13:15:45Z</time>
      </trkpt>
      <trkpt lat="42.89985" lon="-0.20484">
        <ele>1394.5</ele>
        <time>2026-07-15T13:15:46Z</time>
      </trkpt>
      <trkpt lat="42.89985" lon="-0.20483">
        <ele>1394.5</ele>
        <time>2026-07-15T13:15:46Z</time>
      </trkpt>
      <trkpt lat="42.89985" lon="-0.20483">
        <ele>1394.5</ele>
        <time>2026-07-15T13:15:47Z</time>
      </trkpt>
      <trkpt lat="42.89984" lon="-0.20482">
        <ele>1394.5</ele>
        <time>2026-07-15T13:15:48Z</time>
      </trkpt>
      <trkpt lat="42.89983" lon="-0.20483">
        <ele>1395.5</ele>
        <time>2026-07-15T13:15:49Z</time>
      </trkpt>
      <trkpt lat="42.89983" lon="-0.20484">
        <ele>1396.5</ele>
        <time>2026-07-15T13:15:50Z</time>
      </trkpt>
      <trkpt lat="42.89983" lon="-0.20485">
        <ele>1397.5</ele>
        <time>2026-07-15T13:15:50Z</time>
      </trkpt>
      <trkpt lat="42.89983" lon="-0.20485">
        <ele>1397.5</ele>
        <time>2026-07-15T13:15:51Z</time>
      </trkpt>
      <trkpt lat="42.89983" lon="-0.20486">
        <ele>1397.5</ele>
        <time>2026-07-15T13:15:52Z</time>
      </trkpt>
      <trkpt lat="42.89983" lon="-0.20486">
        <ele>1397.5</ele>
        <time>2026-07-15T13:15:53Z</time>
      </trkpt>
      <trkpt lat="42.89983" lon="-0.20486">
        <ele>1397.5</ele>
        <time>2026-07-15T13:15:54Z</time>
      </trkpt>
      <trkpt lat="42.89984" lon="-0.20486">
        <ele>1397.5</ele>
        <time>2026-07-15T13:15:54Z</time>
      </trkpt>
      <trkpt lat="42.89984" lon="-0.20486">
        <ele>1397.5</ele>
        <time>2026-07-15T13:15:55Z</time>
      </trkpt>
      <trkpt lat="42.89984" lon="-0.20486">
        <ele>1397.5</ele>
        <time>2026-07-15T13:15:56Z</time>
      </trkpt>
      <trkpt lat="42.89985" lon="-0.20486">
        <ele>1397.5</ele>
        <time>2026-07-15T13:15:56Z</time>
      </trkpt>
      <trkpt lat="42.89985" lon="-0.20486">
        <ele>1398.5</ele>
        <time>2026-07-15T13:15:57Z</time>
      </trkpt>
      <trkpt lat="42.89986" lon="-0.20486">
        <ele>1398.5</ele>
        <time>2026-07-15T13:15:58Z</time>
      </trkpt>
      <trkpt lat="42.89987" lon="-0.20487">
        <ele>1398.5</ele>
        <time>2026-07-15T13:15:59Z</time>
      </trkpt>
      <trkpt lat="42.89987" lon="-0.20487">
        <ele>1398.5</ele>
        <time>2026-07-15T13:15:59Z</time>
      </trkpt>
      <trkpt lat="42.89989" lon="-0.20487">
        <ele>1397.5</ele>
        <time>2026-07-15T13:16:00Z</time>
      </trkpt>
      <trkpt lat="42.8999" lon="-0.20487">
        <ele>1397.5</ele>
        <time>2026-07-15T13:16:01Z</time>
      </trkpt>
      <trkpt lat="42.89992" lon="-0.20485">
        <ele>1396.5</ele>
        <time>2026-07-15T13:16:02Z</time>
      </trkpt>
      <trkpt lat="42.89993" lon="-0.20485">
        <ele>1396.5</ele>
        <time>2026-07-15T13:16:03Z</time>
      </trkpt>
      <trkpt lat="42.89993" lon="-0.20485">
        <ele>1396.5</ele>
        <time>2026-07-15T13:16:03Z</time>
      </trkpt>
      <trkpt lat="42.89994" lon="-0.20484">
        <ele>1395.5</ele>
        <time>2026-07-15T13:16:04Z</time>
      </trkpt>
      <trkpt lat="42.89994" lon="-0.20483">
        <ele>1396.5</ele>
        <time>2026-07-15T13:16:05Z</time>
      </trkpt>
      <trkpt lat="42.89995" lon="-0.20482">
        <ele>1396.5</ele>
        <time>2026-07-15T13:16:05Z</time>
      </trkpt>
      <trkpt lat="42.89995" lon="-0.20481">
        <ele>1396.5</ele>
        <time>2026-07-15T13:16:06Z</time>
      </trkpt>
      <trkpt lat="42.89995" lon="-0.2048">
        <ele>1396.5</ele>
        <time>2026-07-15T13:16:07Z</time>
      </trkpt>
      <trkpt lat="42.89996" lon="-0.2048">
        <ele>1395.5</ele>
        <time>2026-07-15T13:16:07Z</time>
      </trkpt>
      <trkpt lat="42.89997" lon="-0.2048">
        <ele>1395.5</ele>
        <time>2026-07-15T13:16:08Z</time>
      </trkpt>
      <trkpt lat="42.89997" lon="-0.2048">
        <ele>1396.5</ele>
        <time>2026-07-15T13:16:09Z</time>
      </trkpt>
      <trkpt lat="42.89998" lon="-0.2048">
        <ele>1396.5</ele>
        <time>2026-07-15T13:16:09Z</time>
      </trkpt>
      <trkpt lat="42.89998" lon="-0.20479">
        <ele>1396.5</ele>
        <time>2026-07-15T13:16:10Z</time>
      </trkpt>
      <trkpt lat="42.89998" lon="-0.20478">
        <ele>1396.5</ele>
        <time>2026-07-15T13:16:11Z</time>
      </trkpt>
      <trkpt lat="42.89998" lon="-0.20478">
        <ele>1396.5</ele>
        <time>2026-07-15T13:16:11Z</time>
      </trkpt>
      <trkpt lat="42.89998" lon="-0.20476">
        <ele>1396.5</ele>
        <time>2026-07-15T13:16:12Z</time>
      </trkpt>
      <trkpt lat="42.89999" lon="-0.20476">
        <ele>1395.5</ele>
        <time>2026-07-15T13:16:13Z</time>
      </trkpt>
      <trkpt lat="42.89999" lon="-0.20475">
        <ele>1395.5</ele>
        <time>2026-07-15T13:16:13Z</time>
      </trkpt>
      <trkpt lat="42.89999" lon="-0.20475">
        <ele>1396.5</ele>
        <time>2026-07-15T13:16:14Z</time>
      </trkpt>
      <trkpt lat="42.9" lon="-0.20474">
        <ele>1396.5</ele>
        <time>2026-07-15T13:16:15Z</time>
      </trkpt>
      <trkpt lat="42.9" lon="-0.20474">
        <ele>1395.5</ele>
        <time>2026-07-15T13:16:15Z</time>
      </trkpt>
      <trkpt lat="42.90001" lon="-0.20473">
        <ele>1397.5</ele>
        <time>2026-07-15T13:16:16Z</time>
      </trkpt>
      <trkpt lat="42.90001" lon="-0.20473">
        <ele>1397.5</ele>
        <time>2026-07-15T13:16:17Z</time>
      </trkpt>
      <trkpt lat="42.90002" lon="-0.20472">
        <ele>1397.5</ele>
        <time>2026-07-15T13:16:17Z</time>
      </trkpt>
      <trkpt lat="42.90002" lon="-0.20472">
        <ele>1398.5</ele>
        <time>2026-07-15T13:16:18Z</time>
      </trkpt>
      <trkpt lat="42.90001" lon="-0.20471">
        <ele>1398.5</ele>
        <time>2026-07-15T13:16:19Z</time>
      </trkpt>
      <trkpt lat="42.90001" lon="-0.2047">
        <ele>1398.5</ele>
        <time>2026-07-15T13:16:20Z</time>
      </trkpt>
      <trkpt lat="42.90001" lon="-0.2047">
        <ele>1399.5</ele>
        <time>2026-07-15T13:16:21Z</time>
      </trkpt>
      <trkpt lat="42.90001" lon="-0.20471">
        <ele>1399.5</ele>
        <time>2026-07-15T13:16:22Z</time>
      </trkpt>
      <trkpt lat="42.90001" lon="-0.20472">
        <ele>1398.5</ele>
        <time>2026-07-15T13:16:22Z</time>
      </trkpt>
      <trkpt lat="42.90001" lon="-0.20473">
        <ele>1398.5</ele>
        <time>2026-07-15T13:16:23Z</time>
      </trkpt>
      <trkpt lat="42.90001" lon="-0.20474">
        <ele>1398.5</ele>
        <time>2026-07-15T13:16:24Z</time>
      </trkpt>
      <trkpt lat="42.90001" lon="-0.20474">
        <ele>1398.5</ele>
        <time>2026-07-15T13:16:25Z</time>
      </trkpt>
      <trkpt lat="42.90002" lon="-0.20475">
        <ele>1399.5</ele>
        <time>2026-07-15T13:16:26Z</time>
      </trkpt>
      <trkpt lat="42.90002" lon="-0.20475">
        <ele>1399.5</ele>
        <time>2026-07-15T13:16:26Z</time>
      </trkpt>
      <trkpt lat="42.90002" lon="-0.20475">
        <ele>1399.5</ele>
        <time>2026-07-15T13:16:27Z</time>
      </trkpt>
      <trkpt lat="42.90003" lon="-0.20476">
        <ele>1399.5</ele>
        <time>2026-07-15T13:16:28Z</time>
      </trkpt>
      <trkpt lat="42.90004" lon="-0.20478">
        <ele>1399.5</ele>
        <time>2026-07-15T13:16:29Z</time>
      </trkpt>
      <trkpt lat="42.90004" lon="-0.2048">
        <ele>1399.5</ele>
        <time>2026-07-15T13:16:30Z</time>
      </trkpt>
      <trkpt lat="42.90003" lon="-0.20481">
        <ele>1399.5</ele>
        <time>2026-07-15T13:16:30Z</time>
      </trkpt>
      <trkpt lat="42.90004" lon="-0.20482">
        <ele>1399.5</ele>
        <time>2026-07-15T13:16:31Z</time>
      </trkpt>
      <trkpt lat="42.90004" lon="-0.20483">
        <ele>1399.5</ele>
        <time>2026-07-15T13:16:31Z</time>
      </trkpt>
      <trkpt lat="42.90004" lon="-0.20484">
        <ele>1399.5</ele>
        <time>2026-07-15T13:16:32Z</time>
      </trkpt>
      <trkpt lat="42.90004" lon="-0.20485">
        <ele>1399.5</ele>
        <time>2026-07-15T13:16:32Z</time>
      </trkpt>
      <trkpt lat="42.90005" lon="-0.20485">
        <ele>1399.5</ele>
        <time>2026-07-15T13:16:33Z</time>
      </trkpt>
      <trkpt lat="42.90005" lon="-0.20486">
        <ele>1399.5</ele>
        <time>2026-07-15T13:16:34Z</time>
      </trkpt>
      <trkpt lat="42.90005" lon="-0.20487">
        <ele>1398.5</ele>
        <time>2026-07-15T13:16:34Z</time>
      </trkpt>
      <trkpt lat="42.90006" lon="-0.20488">
        <ele>1398.5</ele>
        <time>2026-07-15T13:16:35Z</time>
      </trkpt>
      <trkpt lat="42.90006" lon="-0.20488">
        <ele>1397.5</ele>
        <time>2026-07-15T13:16:35Z</time>
      </trkpt>
      <trkpt lat="42.90007" lon="-0.20489">
        <ele>1397.5</ele>
        <time>2026-07-15T13:16:36Z</time>
      </trkpt>
      <trkpt lat="42.90007" lon="-0.2049">
        <ele>1397.5</ele>
        <time>2026-07-15T13:16:37Z</time>
      </trkpt>
      <trkpt lat="42.90008" lon="-0.20491">
        <ele>1396.5</ele>
        <time>2026-07-15T13:16:37Z</time>
      </trkpt>
      <trkpt lat="42.90008" lon="-0.20491">
        <ele>1396.5</ele>
        <time>2026-07-15T13:16:38Z</time>
      </trkpt>
      <trkpt lat="42.90009" lon="-0.20492">
        <ele>1396.5</ele>
        <time>2026-07-15T13:16:38Z</time>
      </trkpt>
      <trkpt lat="42.90009" lon="-0.20492">
        <ele>1396.5</ele>
        <time>2026-07-15T13:16:39Z</time>
      </trkpt>
      <trkpt lat="42.9001" lon="-0.20493">
        <ele>1396.5</ele>
        <time>2026-07-15T13:16:40Z</time>
      </trkpt>
      <trkpt lat="42.9001" lon="-0.20493">
        <ele>1395.5</ele>
        <time>2026-07-15T13:16:40Z</time>
      </trkpt>
      <trkpt lat="42.90011" lon="-0.20494">
        <ele>1395.5</ele>
        <time>2026-07-15T13:16:41Z</time>
      </trkpt>
      <trkpt lat="42.90012" lon="-0.20494">
        <ele>1395.5</ele>
        <time>2026-07-15T13:16:42Z</time>
      </trkpt>
      <trkpt lat="42.90012" lon="-0.20495">
        <ele>1395.5</ele>
        <time>2026-07-15T13:16:43Z</time>
      </trkpt>
      <trkpt lat="42.90013" lon="-0.20495">
        <ele>1395.5</ele>
        <time>2026-07-15T13:16:43Z</time>
      </trkpt>
      <trkpt lat="42.90013" lon="-0.20496">
        <ele>1395.5</ele>
        <time>2026-07-15T13:16:44Z</time>
      </trkpt>
      <trkpt lat="42.90013" lon="-0.20496">
        <ele>1394.5</ele>
        <time>2026-07-15T13:16:44Z</time>
      </trkpt>
      <trkpt lat="42.90014" lon="-0.20496">
        <ele>1394.5</ele>
        <time>2026-07-15T13:16:45Z</time>
      </trkpt>
      <trkpt lat="42.90015" lon="-0.20496">
        <ele>1394.5</ele>
        <time>2026-07-15T13:16:46Z</time>
      </trkpt>
      <trkpt lat="42.90015" lon="-0.20497">
        <ele>1395.5</ele>
        <time>2026-07-15T13:16:46Z</time>
      </trkpt>
      <trkpt lat="42.90016" lon="-0.20497">
        <ele>1395.5</ele>
        <time>2026-07-15T13:16:47Z</time>
      </trkpt>
      <trkpt lat="42.90016" lon="-0.20497">
        <ele>1394.5</ele>
        <time>2026-07-15T13:16:47Z</time>
      </trkpt>
      <trkpt lat="42.90016" lon="-0.20498">
        <ele>1394.5</ele>
        <time>2026-07-15T13:16:48Z</time>
      </trkpt>
      <trkpt lat="42.90017" lon="-0.20499">
        <ele>1394.5</ele>
        <time>2026-07-15T13:16:49Z</time>
      </trkpt>
      <trkpt lat="42.90017" lon="-0.20499">
        <ele>1394.5</ele>
        <time>2026-07-15T13:16:49Z</time>
      </trkpt>
      <trkpt lat="42.90017" lon="-0.205">
        <ele>1394.5</ele>
        <time>2026-07-15T13:16:50Z</time>
      </trkpt>
      <trkpt lat="42.90017" lon="-0.20501">
        <ele>1394.5</ele>
        <time>2026-07-15T13:16:50Z</time>
      </trkpt>
      <trkpt lat="42.90018" lon="-0.20501">
        <ele>1394.5</ele>
        <time>2026-07-15T13:16:51Z</time>
      </trkpt>
      <trkpt lat="42.90019" lon="-0.20501">
        <ele>1394.5</ele>
        <time>2026-07-15T13:16:51Z</time>
      </trkpt>
      <trkpt lat="42.90019" lon="-0.20502">
        <ele>1394.5</ele>
        <time>2026-07-15T13:16:52Z</time>
      </trkpt>
      <trkpt lat="42.9002" lon="-0.20502">
        <ele>1394.5</ele>
        <time>2026-07-15T13:16:52Z</time>
      </trkpt>
      <trkpt lat="42.90021" lon="-0.20502">
        <ele>1394.5</ele>
        <time>2026-07-15T13:16:53Z</time>
      </trkpt>
      <trkpt lat="42.90021" lon="-0.20502">
        <ele>1394.5</ele>
        <time>2026-07-15T13:16:54Z</time>
      </trkpt>
      <trkpt lat="42.90022" lon="-0.20502">
        <ele>1393.5</ele>
        <time>2026-07-15T13:16:54Z</time>
      </trkpt>
      <trkpt lat="42.90022" lon="-0.20502">
        <ele>1393.5</ele>
        <time>2026-07-15T13:16:55Z</time>
      </trkpt>
      <trkpt lat="42.90023" lon="-0.20502">
        <ele>1393.5</ele>
        <time>2026-07-15T13:16:55Z</time>
      </trkpt>
      <trkpt lat="42.90023" lon="-0.20502">
        <ele>1393.5</ele>
        <time>2026-07-15T13:16:56Z</time>
      </trkpt>
      <trkpt lat="42.90024" lon="-0.20503">
        <ele>1392.5</ele>
        <time>2026-07-15T13:16:56Z</time>
      </trkpt>
      <trkpt lat="42.90024" lon="-0.20503">
        <ele>1392.5</ele>
        <time>2026-07-15T13:16:57Z</time>
      </trkpt>
      <trkpt lat="42.90025" lon="-0.20503">
        <ele>1392.5</ele>
        <time>2026-07-15T13:16:58Z</time>
      </trkpt>
      <trkpt lat="42.90027" lon="-0.20503">
        <ele>1392.5</ele>
        <time>2026-07-15T13:16:59Z</time>
      </trkpt>
      <trkpt lat="42.90027" lon="-0.20503">
        <ele>1391.5</ele>
        <time>2026-07-15T13:16:59Z</time>
      </trkpt>
      <trkpt lat="42.90028" lon="-0.20503">
        <ele>1391.5</ele>
        <time>2026-07-15T13:17:00Z</time>
      </trkpt>
      <trkpt lat="42.90028" lon="-0.20503">
        <ele>1390.5</ele>
        <time>2026-07-15T13:17:00Z</time>
      </trkpt>
      <trkpt lat="42.90028" lon="-0.20504">
        <ele>1389.5</ele>
        <time>2026-07-15T13:17:01Z</time>
      </trkpt>
      <trkpt lat="42.90028" lon="-0.20504">
        <ele>1389.5</ele>
        <time>2026-07-15T13:17:02Z</time>
      </trkpt>
      <trkpt lat="42.90029" lon="-0.20505">
        <ele>1390.5</ele>
        <time>2026-07-15T13:17:02Z</time>
      </trkpt>
      <trkpt lat="42.90029" lon="-0.20506">
        <ele>1390.5</ele>
        <time>2026-07-15T13:17:03Z</time>
      </trkpt>
      <trkpt lat="42.90029" lon="-0.20507">
        <ele>1390.5</ele>
        <time>2026-07-15T13:17:04Z</time>
      </trkpt>
      <trkpt lat="42.90029" lon="-0.20507">
        <ele>1390.5</ele>
        <time>2026-07-15T13:17:04Z</time>
      </trkpt>
      <trkpt lat="42.90029" lon="-0.20508">
        <ele>1390.5</ele>
        <time>2026-07-15T13:17:05Z</time>
      </trkpt>
      <trkpt lat="42.9003" lon="-0.20509">
        <ele>1390.5</ele>
        <time>2026-07-15T13:17:05Z</time>
      </trkpt>
      <trkpt lat="42.9003" lon="-0.20509">
        <ele>1389.5</ele>
        <time>2026-07-15T13:17:06Z</time>
      </trkpt>
      <trkpt lat="42.9003" lon="-0.2051">
        <ele>1389.5</ele>
        <time>2026-07-15T13:17:06Z</time>
      </trkpt>
      <trkpt lat="42.9003" lon="-0.20511">
        <ele>1389.5</ele>
        <time>2026-07-15T13:17:07Z</time>
      </trkpt>
      <trkpt lat="42.90031" lon="-0.20511">
        <ele>1389.5</ele>
        <time>2026-07-15T13:17:08Z</time>
      </trkpt>
      <trkpt lat="42.90031" lon="-0.20511">
        <ele>1389.5</ele>
        <time>2026-07-15T13:17:08Z</time>
      </trkpt>
      <trkpt lat="42.90032" lon="-0.20512">
        <ele>1389.5</ele>
        <time>2026-07-15T13:17:09Z</time>
      </trkpt>
      <trkpt lat="42.90033" lon="-0.20513">
        <ele>1388.5</ele>
        <time>2026-07-15T13:17:10Z</time>
      </trkpt>
      <trkpt lat="42.90033" lon="-0.20513">
        <ele>1389.5</ele>
        <time>2026-07-15T13:17:10Z</time>
      </trkpt>
      <trkpt lat="42.90034" lon="-0.20513">
        <ele>1389.5</ele>
        <time>2026-07-15T13:17:11Z</time>
      </trkpt>
      <trkpt lat="42.90035" lon="-0.20513">
        <ele>1388.5</ele>
        <time>2026-07-15T13:17:12Z</time>
      </trkpt>
      <trkpt lat="42.90035" lon="-0.20512">
        <ele>1389.5</ele>
        <time>2026-07-15T13:17:12Z</time>
      </trkpt>
      <trkpt lat="42.90035" lon="-0.20512">
        <ele>1388.5</ele>
        <time>2026-07-15T13:17:13Z</time>
      </trkpt>
      <trkpt lat="42.90035" lon="-0.20513">
        <ele>1388.5</ele>
        <time>2026-07-15T13:17:13Z</time>
      </trkpt>
      <trkpt lat="42.90036" lon="-0.20513">
        <ele>1388.5</ele>
        <time>2026-07-15T13:17:14Z</time>
      </trkpt>
      <trkpt lat="42.90036" lon="-0.20513">
        <ele>1388.5</ele>
        <time>2026-07-15T13:17:15Z</time>
      </trkpt>
      <trkpt lat="42.90036" lon="-0.20514">
        <ele>1388.5</ele>
        <time>2026-07-15T13:17:15Z</time>
      </trkpt>
      <trkpt lat="42.90037" lon="-0.20514">
        <ele>1388.5</ele>
        <time>2026-07-15T13:17:16Z</time>
      </trkpt>
      <trkpt lat="42.90037" lon="-0.20515">
        <ele>1388.5</ele>
        <time>2026-07-15T13:17:16Z</time>
      </trkpt>
      <trkpt lat="42.90037" lon="-0.20516">
        <ele>1388.5</ele>
        <time>2026-07-15T13:17:17Z</time>
      </trkpt>
      <trkpt lat="42.90038" lon="-0.20517">
        <ele>1388.5</ele>
        <time>2026-07-15T13:17:18Z</time>
      </trkpt>
      <trkpt lat="42.90038" lon="-0.20519">
        <ele>1389.5</ele>
        <time>2026-07-15T13:17:19Z</time>
      </trkpt>
      <trkpt lat="42.90038" lon="-0.2052">
        <ele>1389.5</ele>
        <time>2026-07-15T13:17:20Z</time>
      </trkpt>
      <trkpt lat="42.90038" lon="-0.20521">
        <ele>1389.5</ele>
        <time>2026-07-15T13:17:21Z</time>
      </trkpt>
      <trkpt lat="42.90038" lon="-0.20522">
        <ele>1388.5</ele>
        <time>2026-07-15T13:17:21Z</time>
      </trkpt>
      <trkpt lat="42.90038" lon="-0.20523">
        <ele>1389.5</ele>
        <time>2026-07-15T13:17:22Z</time>
      </trkpt>
      <trkpt lat="42.90037" lon="-0.20524">
        <ele>1389.5</ele>
        <time>2026-07-15T13:17:23Z</time>
      </trkpt>
      <trkpt lat="42.90037" lon="-0.20526">
        <ele>1389.5</ele>
        <time>2026-07-15T13:17:24Z</time>
      </trkpt>
      <trkpt lat="42.90038" lon="-0.20526">
        <ele>1389.5</ele>
        <time>2026-07-15T13:17:24Z</time>
      </trkpt>
      <trkpt lat="42.90038" lon="-0.20527">
        <ele>1389.5</ele>
        <time>2026-07-15T13:17:25Z</time>
      </trkpt>
      <trkpt lat="42.9004" lon="-0.20528">
        <ele>1389.5</ele>
        <time>2026-07-15T13:17:26Z</time>
      </trkpt>
      <trkpt lat="42.9004" lon="-0.20528">
        <ele>1389.5</ele>
        <time>2026-07-15T13:17:26Z</time>
      </trkpt>
      <trkpt lat="42.90041" lon="-0.20528">
        <ele>1389.5</ele>
        <time>2026-07-15T13:17:27Z</time>
      </trkpt>
      <trkpt lat="42.90042" lon="-0.20528">
        <ele>1389.5</ele>
        <time>2026-07-15T13:17:28Z</time>
      </trkpt>
      <trkpt lat="42.90042" lon="-0.20528">
        <ele>1389.5</ele>
        <time>2026-07-15T13:17:28Z</time>
      </trkpt>
      <trkpt lat="42.90043" lon="-0.20529">
        <ele>1389.5</ele>
        <time>2026-07-15T13:17:29Z</time>
      </trkpt>
      <trkpt lat="42.90043" lon="-0.20529">
        <ele>1389.5</ele>
        <time>2026-07-15T13:17:29Z</time>
      </trkpt>
      <trkpt lat="42.90044" lon="-0.2053">
        <ele>1389.5</ele>
        <time>2026-07-15T13:17:30Z</time>
      </trkpt>
      <trkpt lat="42.90045" lon="-0.2053">
        <ele>1389.5</ele>
        <time>2026-07-15T13:17:31Z</time>
      </trkpt>
      <trkpt lat="42.90045" lon="-0.20531">
        <ele>1389.5</ele>
        <time>2026-07-15T13:17:32Z</time>
      </trkpt>
      <trkpt lat="42.90045" lon="-0.20531">
        <ele>1389.5</ele>
        <time>2026-07-15T13:17:32Z</time>
      </trkpt>
      <trkpt lat="42.90046" lon="-0.20532">
        <ele>1389.5</ele>
        <time>2026-07-15T13:17:33Z</time>
      </trkpt>
      <trkpt lat="42.90046" lon="-0.20532">
        <ele>1390.5</ele>
        <time>2026-07-15T13:17:33Z</time>
      </trkpt>
      <trkpt lat="42.90046" lon="-0.20533">
        <ele>1390.5</ele>
        <time>2026-07-15T13:17:34Z</time>
      </trkpt>
      <trkpt lat="42.90047" lon="-0.20533">
        <ele>1389.5</ele>
        <time>2026-07-15T13:17:34Z</time>
      </trkpt>
      <trkpt lat="42.90047" lon="-0.20534">
        <ele>1389.5</ele>
        <time>2026-07-15T13:17:35Z</time>
      </trkpt>
      <trkpt lat="42.90048" lon="-0.20534">
        <ele>1388.5</ele>
        <time>2026-07-15T13:17:35Z</time>
      </trkpt>
      <trkpt lat="42.90048" lon="-0.20535">
        <ele>1388.5</ele>
        <time>2026-07-15T13:17:36Z</time>
      </trkpt>
      <trkpt lat="42.90049" lon="-0.20536">
        <ele>1389.5</ele>
        <time>2026-07-15T13:17:37Z</time>
      </trkpt>
      <trkpt lat="42.90049" lon="-0.20536">
        <ele>1388.5</ele>
        <time>2026-07-15T13:17:38Z</time>
      </trkpt>
      <trkpt lat="42.90049" lon="-0.20537">
        <ele>1387.5</ele>
        <time>2026-07-15T13:17:38Z</time>
      </trkpt>
      <trkpt lat="42.90049" lon="-0.20538">
        <ele>1387.5</ele>
        <time>2026-07-15T13:17:38Z</time>
      </trkpt>
      <trkpt lat="42.90048" lon="-0.20538">
        <ele>1387.5</ele>
        <time>2026-07-15T13:17:39Z</time>
      </trkpt>
      <trkpt lat="42.90048" lon="-0.2054">
        <ele>1387.5</ele>
        <time>2026-07-15T13:17:40Z</time>
      </trkpt>
      <trkpt lat="42.90048" lon="-0.20541">
        <ele>1387.5</ele>
        <time>2026-07-15T13:17:40Z</time>
      </trkpt>
      <trkpt lat="42.90047" lon="-0.20542">
        <ele>1387.5</ele>
        <time>2026-07-15T13:17:41Z</time>
      </trkpt>
      <trkpt lat="42.90047" lon="-0.20543">
        <ele>1387.5</ele>
        <time>2026-07-15T13:17:42Z</time>
      </trkpt>
      <trkpt lat="42.90047" lon="-0.20544">
        <ele>1386.5</ele>
        <time>2026-07-15T13:17:42Z</time>
      </trkpt>
      <trkpt lat="42.90047" lon="-0.20544">
        <ele>1386.5</ele>
        <time>2026-07-15T13:17:43Z</time>
      </trkpt>
      <trkpt lat="42.90048" lon="-0.20545">
        <ele>1386.5</ele>
        <time>2026-07-15T13:17:44Z</time>
      </trkpt>
      <trkpt lat="42.90049" lon="-0.20545">
        <ele>1386.5</ele>
        <time>2026-07-15T13:17:45Z</time>
      </trkpt>
      <trkpt lat="42.90049" lon="-0.20546">
        <ele>1386.5</ele>
        <time>2026-07-15T13:17:45Z</time>
      </trkpt>
      <trkpt lat="42.9005" lon="-0.20546">
        <ele>1386.5</ele>
        <time>2026-07-15T13:17:46Z</time>
      </trkpt>
      <trkpt lat="42.90051" lon="-0.20546">
        <ele>1385.5</ele>
        <time>2026-07-15T13:17:47Z</time>
      </trkpt>
      <trkpt lat="42.90052" lon="-0.20547">
        <ele>1385.5</ele>
        <time>2026-07-15T13:17:48Z</time>
      </trkpt>
      <trkpt lat="42.90053" lon="-0.20548">
        <ele>1384.5</ele>
        <time>2026-07-15T13:17:49Z</time>
      </trkpt>
      <trkpt lat="42.90053" lon="-0.20549">
        <ele>1385.5</ele>
        <time>2026-07-15T13:17:50Z</time>
      </trkpt>
      <trkpt lat="42.90054" lon="-0.2055">
        <ele>1385.5</ele>
        <time>2026-07-15T13:17:50Z</time>
      </trkpt>
      <trkpt lat="42.90054" lon="-0.2055">
        <ele>1385.5</ele>
        <time>2026-07-15T13:17:51Z</time>
      </trkpt>
      <trkpt lat="42.90055" lon="-0.20551">
        <ele>1384.5</ele>
        <time>2026-07-15T13:17:52Z</time>
      </trkpt>
      <trkpt lat="42.90055" lon="-0.20552">
        <ele>1384.5</ele>
        <time>2026-07-15T13:17:53Z</time>
      </trkpt>
      <trkpt lat="42.90056" lon="-0.20553">
        <ele>1384.5</ele>
        <time>2026-07-15T13:17:54Z</time>
      </trkpt>
      <trkpt lat="42.90056" lon="-0.20553">
        <ele>1383.5</ele>
        <time>2026-07-15T13:17:54Z</time>
      </trkpt>
      <trkpt lat="42.90056" lon="-0.20554">
        <ele>1383.5</ele>
        <time>2026-07-15T13:17:55Z</time>
      </trkpt>
      <trkpt lat="42.90056" lon="-0.20555">
        <ele>1383.5</ele>
        <time>2026-07-15T13:17:55Z</time>
      </trkpt>
      <trkpt lat="42.90056" lon="-0.20555">
        <ele>1383.5</ele>
        <time>2026-07-15T13:17:56Z</time>
      </trkpt>
      <trkpt lat="42.90056" lon="-0.20556">
        <ele>1383.5</ele>
        <time>2026-07-15T13:17:56Z</time>
      </trkpt>
      <trkpt lat="42.90055" lon="-0.20557">
        <ele>1382.5</ele>
        <time>2026-07-15T13:17:57Z</time>
      </trkpt>
      <trkpt lat="42.90055" lon="-0.20558">
        <ele>1382.5</ele>
        <time>2026-07-15T13:17:58Z</time>
      </trkpt>
      <trkpt lat="42.90055" lon="-0.20559">
        <ele>1382.5</ele>
        <time>2026-07-15T13:17:58Z</time>
      </trkpt>
      <trkpt lat="42.90056" lon="-0.20559">
        <ele>1381.5</ele>
        <time>2026-07-15T13:17:59Z</time>
      </trkpt>
      <trkpt lat="42.90056" lon="-0.2056">
        <ele>1381.5</ele>
        <time>2026-07-15T13:17:59Z</time>
      </trkpt>
      <trkpt lat="42.90057" lon="-0.2056">
        <ele>1381.5</ele>
        <time>2026-07-15T13:18:00Z</time>
      </trkpt>
      <trkpt lat="42.90057" lon="-0.2056">
        <ele>1381.5</ele>
        <time>2026-07-15T13:18:01Z</time>
      </trkpt>
      <trkpt lat="42.90058" lon="-0.20561">
        <ele>1381.5</ele>
        <time>2026-07-15T13:18:01Z</time>
      </trkpt>
      <trkpt lat="42.90059" lon="-0.20562">
        <ele>1381.5</ele>
        <time>2026-07-15T13:18:02Z</time>
      </trkpt>
      <trkpt lat="42.90059" lon="-0.20562">
        <ele>1380.5</ele>
        <time>2026-07-15T13:18:03Z</time>
      </trkpt>
      <trkpt lat="42.9006" lon="-0.20561">
        <ele>1381.5</ele>
        <time>2026-07-15T13:18:03Z</time>
      </trkpt>
      <trkpt lat="42.9006" lon="-0.20561">
        <ele>1381.5</ele>
        <time>2026-07-15T13:18:03Z</time>
      </trkpt>
      <trkpt lat="42.90061" lon="-0.20562">
        <ele>1380.5</ele>
        <time>2026-07-15T13:18:04Z</time>
      </trkpt>
      <trkpt lat="42.90062" lon="-0.20562">
        <ele>1380.5</ele>
        <time>2026-07-15T13:18:05Z</time>
      </trkpt>
      <trkpt lat="42.90062" lon="-0.20563">
        <ele>1380.5</ele>
        <time>2026-07-15T13:18:06Z</time>
      </trkpt>
      <trkpt lat="42.90062" lon="-0.20564">
        <ele>1380.5</ele>
        <time>2026-07-15T13:18:06Z</time>
      </trkpt>
      <trkpt lat="42.90062" lon="-0.20565">
        <ele>1380.5</ele>
        <time>2026-07-15T13:18:07Z</time>
      </trkpt>
      <trkpt lat="42.90062" lon="-0.20566">
        <ele>1380.5</ele>
        <time>2026-07-15T13:18:08Z</time>
      </trkpt>
      <trkpt lat="42.90062" lon="-0.20566">
        <ele>1380.5</ele>
        <time>2026-07-15T13:18:08Z</time>
      </trkpt>
      <trkpt lat="42.90062" lon="-0.20567">
        <ele>1380.5</ele>
        <time>2026-07-15T13:18:09Z</time>
      </trkpt>
      <trkpt lat="42.90063" lon="-0.20567">
        <ele>1380.5</ele>
        <time>2026-07-15T13:18:09Z</time>
      </trkpt>
      <trkpt lat="42.90063" lon="-0.20567">
        <ele>1380.5</ele>
        <time>2026-07-15T13:18:10Z</time>
      </trkpt>
      <trkpt lat="42.90063" lon="-0.20567">
        <ele>1380.5</ele>
        <time>2026-07-15T13:18:11Z</time>
      </trkpt>
      <trkpt lat="42.90064" lon="-0.20567">
        <ele>1380.5</ele>
        <time>2026-07-15T13:18:11Z</time>
      </trkpt>
      <trkpt lat="42.90064" lon="-0.20567">
        <ele>1380.5</ele>
        <time>2026-07-15T13:18:12Z</time>
      </trkpt>
      <trkpt lat="42.90064" lon="-0.20567">
        <ele>1379.5</ele>
        <time>2026-07-15T13:18:12Z</time>
      </trkpt>
      <trkpt lat="42.90065" lon="-0.20566">
        <ele>1379.5</ele>
        <time>2026-07-15T13:18:13Z</time>
      </trkpt>
      <trkpt lat="42.90066" lon="-0.20566">
        <ele>1380.5</ele>
        <time>2026-07-15T13:18:13Z</time>
      </trkpt>
      <trkpt lat="42.90066" lon="-0.20566">
        <ele>1380.5</ele>
        <time>2026-07-15T13:18:14Z</time>
      </trkpt>
      <trkpt lat="42.90067" lon="-0.20564">
        <ele>1380.5</ele>
        <time>2026-07-15T13:18:15Z</time>
      </trkpt>
      <trkpt lat="42.90066" lon="-0.20563">
        <ele>1379.5</ele>
        <time>2026-07-15T13:18:15Z</time>
      </trkpt>
      <trkpt lat="42.90067" lon="-0.20561">
        <ele>1379.5</ele>
        <time>2026-07-15T13:18:16Z</time>
      </trkpt>
      <trkpt lat="42.90067" lon="-0.2056">
        <ele>1379.5</ele>
        <time>2026-07-15T13:18:16Z</time>
      </trkpt>
      <trkpt lat="42.90067" lon="-0.20559">
        <ele>1379.5</ele>
        <time>2026-07-15T13:18:17Z</time>
      </trkpt>
      <trkpt lat="42.90067" lon="-0.20558">
        <ele>1378.5</ele>
        <time>2026-07-15T13:18:17Z</time>
      </trkpt>
      <trkpt lat="42.90067" lon="-0.20557">
        <ele>1377.5</ele>
        <time>2026-07-15T13:18:18Z</time>
      </trkpt>
      <trkpt lat="42.90067" lon="-0.20556">
        <ele>1377.5</ele>
        <time>2026-07-15T13:18:19Z</time>
      </trkpt>
      <trkpt lat="42.90067" lon="-0.20556">
        <ele>1377.5</ele>
        <time>2026-07-15T13:18:19Z</time>
      </trkpt>
      <trkpt lat="42.90068" lon="-0.20556">
        <ele>1377.5</ele>
        <time>2026-07-15T13:18:20Z</time>
      </trkpt>
      <trkpt lat="42.90068" lon="-0.20555">
        <ele>1377.5</ele>
        <time>2026-07-15T13:18:21Z</time>
      </trkpt>
      <trkpt lat="42.90068" lon="-0.20555">
        <ele>1377.5</ele>
        <time>2026-07-15T13:18:21Z</time>
      </trkpt>
      <trkpt lat="42.90068" lon="-0.20555">
        <ele>1376.5</ele>
        <time>2026-07-15T13:18:21Z</time>
      </trkpt>
      <trkpt lat="42.90069" lon="-0.20554">
        <ele>1376.5</ele>
        <time>2026-07-15T13:18:22Z</time>
      </trkpt>
      <trkpt lat="42.90069" lon="-0.20554">
        <ele>1375.5</ele>
        <time>2026-07-15T13:18:23Z</time>
      </trkpt>
      <trkpt lat="42.90069" lon="-0.20553">
        <ele>1375.5</ele>
        <time>2026-07-15T13:18:23Z</time>
      </trkpt>
      <trkpt lat="42.90069" lon="-0.20553">
        <ele>1375.5</ele>
        <time>2026-07-15T13:18:24Z</time>
      </trkpt>
      <trkpt lat="42.90069" lon="-0.20552">
        <ele>1375.5</ele>
        <time>2026-07-15T13:18:24Z</time>
      </trkpt>
      <trkpt lat="42.9007" lon="-0.20552">
        <ele>1375.5</ele>
        <time>2026-07-15T13:18:25Z</time>
      </trkpt>
      <trkpt lat="42.9007" lon="-0.2055">
        <ele>1375.5</ele>
        <time>2026-07-15T13:18:26Z</time>
      </trkpt>
      <trkpt lat="42.9007" lon="-0.2055">
        <ele>1375.5</ele>
        <time>2026-07-15T13:18:26Z</time>
      </trkpt>
      <trkpt lat="42.90071" lon="-0.20548">
        <ele>1375.5</ele>
        <time>2026-07-15T13:18:27Z</time>
      </trkpt>
      <trkpt lat="42.90071" lon="-0.20547">
        <ele>1375.5</ele>
        <time>2026-07-15T13:18:28Z</time>
      </trkpt>
      <trkpt lat="42.90071" lon="-0.20547">
        <ele>1374.5</ele>
        <time>2026-07-15T13:18:28Z</time>
      </trkpt>
      <trkpt lat="42.90071" lon="-0.20546">
        <ele>1374.5</ele>
        <time>2026-07-15T13:18:29Z</time>
      </trkpt>
      <trkpt lat="42.90071" lon="-0.20545">
        <ele>1374.5</ele>
        <time>2026-07-15T13:18:30Z</time>
      </trkpt>
      <trkpt lat="42.9007" lon="-0.20544">
        <ele>1373.5</ele>
        <time>2026-07-15T13:18:30Z</time>
      </trkpt>
      <trkpt lat="42.9007" lon="-0.20543">
        <ele>1373.5</ele>
        <time>2026-07-15T13:18:31Z</time>
      </trkpt>
      <trkpt lat="42.9007" lon="-0.20541">
        <ele>1373.5</ele>
        <time>2026-07-15T13:18:32Z</time>
      </trkpt>
      <trkpt lat="42.90069" lon="-0.2054">
        <ele>1373.5</ele>
        <time>2026-07-15T13:18:33Z</time>
      </trkpt>
      <trkpt lat="42.90069" lon="-0.20539">
        <ele>1373.5</ele>
        <time>2026-07-15T13:18:34Z</time>
      </trkpt>
      <trkpt lat="42.90069" lon="-0.20539">
        <ele>1373.5</ele>
        <time>2026-07-15T13:18:34Z</time>
      </trkpt>
      <trkpt lat="42.90069" lon="-0.20538">
        <ele>1373.5</ele>
        <time>2026-07-15T13:18:34Z</time>
      </trkpt>
      <trkpt lat="42.90069" lon="-0.20538">
        <ele>1373.5</ele>
        <time>2026-07-15T13:18:35Z</time>
      </trkpt>
      <trkpt lat="42.9007" lon="-0.20538">
        <ele>1373.5</ele>
        <time>2026-07-15T13:18:36Z</time>
      </trkpt>
      <trkpt lat="42.9007" lon="-0.20538">
        <ele>1372.5</ele>
        <time>2026-07-15T13:18:36Z</time>
      </trkpt>
      <trkpt lat="42.90071" lon="-0.20537">
        <ele>1372.5</ele>
        <time>2026-07-15T13:18:37Z</time>
      </trkpt>
      <trkpt lat="42.90071" lon="-0.20537">
        <ele>1371.5</ele>
        <time>2026-07-15T13:18:38Z</time>
      </trkpt>
      <trkpt lat="42.90072" lon="-0.20536">
        <ele>1371.5</ele>
        <time>2026-07-15T13:18:38Z</time>
      </trkpt>
      <trkpt lat="42.90073" lon="-0.20536">
        <ele>1371.5</ele>
        <time>2026-07-15T13:18:39Z</time>
      </trkpt>
      <trkpt lat="42.90073" lon="-0.20536">
        <ele>1371.5</ele>
        <time>2026-07-15T13:18:39Z</time>
      </trkpt>
      <trkpt lat="42.90074" lon="-0.20535">
        <ele>1371.5</ele>
        <time>2026-07-15T13:18:40Z</time>
      </trkpt>
      <trkpt lat="42.90074" lon="-0.20535">
        <ele>1370.5</ele>
        <time>2026-07-15T13:18:40Z</time>
      </trkpt>
      <trkpt lat="42.90075" lon="-0.20535">
        <ele>1369.5</ele>
        <time>2026-07-15T13:18:41Z</time>
      </trkpt>
      <trkpt lat="42.90075" lon="-0.20535">
        <ele>1369.5</ele>
        <time>2026-07-15T13:18:41Z</time>
      </trkpt>
      <trkpt lat="42.90076" lon="-0.20536">
        <ele>1369.5</ele>
        <time>2026-07-15T13:18:42Z</time>
      </trkpt>
      <trkpt lat="42.90076" lon="-0.20536">
        <ele>1369.5</ele>
        <time>2026-07-15T13:18:43Z</time>
      </trkpt>
      <trkpt lat="42.90077" lon="-0.20536">
        <ele>1368.5</ele>
        <time>2026-07-15T13:18:43Z</time>
      </trkpt>
      <trkpt lat="42.90077" lon="-0.20537">
        <ele>1368.5</ele>
        <time>2026-07-15T13:18:44Z</time>
      </trkpt>
      <trkpt lat="42.90078" lon="-0.20537">
        <ele>1368.5</ele>
        <time>2026-07-15T13:18:45Z</time>
      </trkpt>
      <trkpt lat="42.90078" lon="-0.20538">
        <ele>1367.5</ele>
        <time>2026-07-15T13:18:45Z</time>
      </trkpt>
      <trkpt lat="42.90079" lon="-0.20538">
        <ele>1367.5</ele>
        <time>2026-07-15T13:18:46Z</time>
      </trkpt>
      <trkpt lat="42.9008" lon="-0.20539">
        <ele>1367.5</ele>
        <time>2026-07-15T13:18:47Z</time>
      </trkpt>
      <trkpt lat="42.9008" lon="-0.20539">
        <ele>1367.5</ele>
        <time>2026-07-15T13:18:47Z</time>
      </trkpt>
      <trkpt lat="42.9008" lon="-0.2054">
        <ele>1367.5</ele>
        <time>2026-07-15T13:18:48Z</time>
      </trkpt>
      <trkpt lat="42.90081" lon="-0.20541">
        <ele>1366.5</ele>
        <time>2026-07-15T13:18:48Z</time>
      </trkpt>
      <trkpt lat="42.90082" lon="-0.20542">
        <ele>1367.5</ele>
        <time>2026-07-15T13:18:49Z</time>
      </trkpt>
      <trkpt lat="42.90082" lon="-0.20542">
        <ele>1367.5</ele>
        <time>2026-07-15T13:18:50Z</time>
      </trkpt>
      <trkpt lat="42.90083" lon="-0.20543">
        <ele>1366.5</ele>
        <time>2026-07-15T13:18:50Z</time>
      </trkpt>
      <trkpt lat="42.90084" lon="-0.20543">
        <ele>1366.5</ele>
        <time>2026-07-15T13:18:51Z</time>
      </trkpt>
      <trkpt lat="42.90085" lon="-0.20544">
        <ele>1366.5</ele>
        <time>2026-07-15T13:18:52Z</time>
      </trkpt>
      <trkpt lat="42.90085" lon="-0.20545">
        <ele>1366.5</ele>
        <time>2026-07-15T13:18:53Z</time>
      </trkpt>
      <trkpt lat="42.90085" lon="-0.20545">
        <ele>1367.5</ele>
        <time>2026-07-15T13:18:53Z</time>
      </trkpt>
      <trkpt lat="42.90086" lon="-0.20546">
        <ele>1367.5</ele>
        <time>2026-07-15T13:18:54Z</time>
      </trkpt>
      <trkpt lat="42.90086" lon="-0.20547">
        <ele>1367.5</ele>
        <time>2026-07-15T13:18:54Z</time>
      </trkpt>
      <trkpt lat="42.90086" lon="-0.20548">
        <ele>1367.5</ele>
        <time>2026-07-15T13:18:55Z</time>
      </trkpt>
      <trkpt lat="42.90086" lon="-0.2055">
        <ele>1366.5</ele>
        <time>2026-07-15T13:18:56Z</time>
      </trkpt>
      <trkpt lat="42.90087" lon="-0.20552">
        <ele>1366.5</ele>
        <time>2026-07-15T13:18:57Z</time>
      </trkpt>
      <trkpt lat="42.90087" lon="-0.20553">
        <ele>1365.5</ele>
        <time>2026-07-15T13:18:58Z</time>
      </trkpt>
      <trkpt lat="42.90087" lon="-0.20553">
        <ele>1365.5</ele>
        <time>2026-07-15T13:18:58Z</time>
      </trkpt>
      <trkpt lat="42.90087" lon="-0.20554">
        <ele>1364.5</ele>
        <time>2026-07-15T13:18:59Z</time>
      </trkpt>
      <trkpt lat="42.90087" lon="-0.20554">
        <ele>1364.5</ele>
        <time>2026-07-15T13:19:00Z</time>
      </trkpt>
      <trkpt lat="42.90088" lon="-0.20554">
        <ele>1364.5</ele>
        <time>2026-07-15T13:19:00Z</time>
      </trkpt>
      <trkpt lat="42.90088" lon="-0.20554">
        <ele>1364.5</ele>
        <time>2026-07-15T13:19:01Z</time>
      </trkpt>
      <trkpt lat="42.90089" lon="-0.20554">
        <ele>1364.5</ele>
        <time>2026-07-15T13:19:01Z</time>
      </trkpt>
      <trkpt lat="42.90089" lon="-0.20554">
        <ele>1363.5</ele>
        <time>2026-07-15T13:19:02Z</time>
      </trkpt>
      <trkpt lat="42.9009" lon="-0.20554">
        <ele>1363.5</ele>
        <time>2026-07-15T13:19:03Z</time>
      </trkpt>
      <trkpt lat="42.90091" lon="-0.20553">
        <ele>1363.5</ele>
        <time>2026-07-15T13:19:04Z</time>
      </trkpt>
      <trkpt lat="42.90092" lon="-0.20553">
        <ele>1363.5</ele>
        <time>2026-07-15T13:19:04Z</time>
      </trkpt>
      <trkpt lat="42.90093" lon="-0.20553">
        <ele>1363.5</ele>
        <time>2026-07-15T13:19:05Z</time>
      </trkpt>
      <trkpt lat="42.90093" lon="-0.20553">
        <ele>1363.5</ele>
        <time>2026-07-15T13:19:06Z</time>
      </trkpt>
      <trkpt lat="42.90094" lon="-0.20553">
        <ele>1362.5</ele>
        <time>2026-07-15T13:19:07Z</time>
      </trkpt>
      <trkpt lat="42.90094" lon="-0.20553">
        <ele>1362.5</ele>
        <time>2026-07-15T13:19:07Z</time>
      </trkpt>
      <trkpt lat="42.90095" lon="-0.20553">
        <ele>1362.5</ele>
        <time>2026-07-15T13:19:08Z</time>
      </trkpt>
      <trkpt lat="42.90095" lon="-0.20553">
        <ele>1362.5</ele>
        <time>2026-07-15T13:19:08Z</time>
      </trkpt>
      <trkpt lat="42.90096" lon="-0.20553">
        <ele>1361.5</ele>
        <time>2026-07-15T13:19:09Z</time>
      </trkpt>
      <trkpt lat="42.90096" lon="-0.20552">
        <ele>1361.5</ele>
        <time>2026-07-15T13:19:09Z</time>
      </trkpt>
      <trkpt lat="42.90097" lon="-0.20552">
        <ele>1361.5</ele>
        <time>2026-07-15T13:19:10Z</time>
      </trkpt>
      <trkpt lat="42.90097" lon="-0.20552">
        <ele>1361.5</ele>
        <time>2026-07-15T13:19:10Z</time>
      </trkpt>
      <trkpt lat="42.90098" lon="-0.20551">
        <ele>1361.5</ele>
        <time>2026-07-15T13:19:11Z</time>
      </trkpt>
      <trkpt lat="42.90099" lon="-0.20551">
        <ele>1361.5</ele>
        <time>2026-07-15T13:19:12Z</time>
      </trkpt>
      <trkpt lat="42.90099" lon="-0.2055">
        <ele>1361.5</ele>
        <time>2026-07-15T13:19:12Z</time>
      </trkpt>
      <trkpt lat="42.90099" lon="-0.2055">
        <ele>1361.5</ele>
        <time>2026-07-15T13:19:13Z</time>
      </trkpt>
      <trkpt lat="42.901" lon="-0.20551">
        <ele>1361.5</ele>
        <time>2026-07-15T13:19:13Z</time>
      </trkpt>
      <trkpt lat="42.90099" lon="-0.20551">
        <ele>1360.5</ele>
        <time>2026-07-15T13:19:14Z</time>
      </trkpt>
      <trkpt lat="42.90099" lon="-0.2055">
        <ele>1360.5</ele>
        <time>2026-07-15T13:19:15Z</time>
      </trkpt>
      <trkpt lat="42.90099" lon="-0.2055">
        <ele>1360.5</ele>
        <time>2026-07-15T13:19:15Z</time>
      </trkpt>
      <trkpt lat="42.901" lon="-0.2055">
        <ele>1360.5</ele>
        <time>2026-07-15T13:19:16Z</time>
      </trkpt>
      <trkpt lat="42.901" lon="-0.20549">
        <ele>1360.5</ele>
        <time>2026-07-15T13:19:16Z</time>
      </trkpt>
      <trkpt lat="42.901" lon="-0.20548">
        <ele>1360.5</ele>
        <time>2026-07-15T13:19:17Z</time>
      </trkpt>
      <trkpt lat="42.90101" lon="-0.20548">
        <ele>1360.5</ele>
        <time>2026-07-15T13:19:18Z</time>
      </trkpt>
      <trkpt lat="42.90101" lon="-0.20547">
        <ele>1360.5</ele>
        <time>2026-07-15T13:19:18Z</time>
      </trkpt>
      <trkpt lat="42.90102" lon="-0.20547">
        <ele>1360.5</ele>
        <time>2026-07-15T13:19:19Z</time>
      </trkpt>
      <trkpt lat="42.90102" lon="-0.20546">
        <ele>1359.5</ele>
        <time>2026-07-15T13:19:19Z</time>
      </trkpt>
      <trkpt lat="42.90103" lon="-0.20546">
        <ele>1359.5</ele>
        <time>2026-07-15T13:19:20Z</time>
      </trkpt>
      <trkpt lat="42.90103" lon="-0.20546">
        <ele>1359.5</ele>
        <time>2026-07-15T13:19:21Z</time>
      </trkpt>
      <trkpt lat="42.90104" lon="-0.20545">
        <ele>1359.5</ele>
        <time>2026-07-15T13:19:21Z</time>
      </trkpt>
      <trkpt lat="42.90105" lon="-0.20545">
        <ele>1358.5</ele>
        <time>2026-07-15T13:19:22Z</time>
      </trkpt>
      <trkpt lat="42.90105" lon="-0.20545">
        <ele>1358.5</ele>
        <time>2026-07-15T13:19:22Z</time>
      </trkpt>
      <trkpt lat="42.90106" lon="-0.20544">
        <ele>1358.5</ele>
        <time>2026-07-15T13:19:23Z</time>
      </trkpt>
      <trkpt lat="42.90107" lon="-0.20544">
        <ele>1358.5</ele>
        <time>2026-07-15T13:19:24Z</time>
      </trkpt>
      <trkpt lat="42.90108" lon="-0.20544">
        <ele>1357.5</ele>
        <time>2026-07-15T13:19:25Z</time>
      </trkpt>
      <trkpt lat="42.90109" lon="-0.20545">
        <ele>1357.5</ele>
        <time>2026-07-15T13:19:26Z</time>
      </trkpt>
      <trkpt lat="42.90109" lon="-0.20546">
        <ele>1356.5</ele>
        <time>2026-07-15T13:19:26Z</time>
      </trkpt>
      <trkpt lat="42.9011" lon="-0.20546">
        <ele>1356.5</ele>
        <time>2026-07-15T13:19:27Z</time>
      </trkpt>
      <trkpt lat="42.9011" lon="-0.20547">
        <ele>1356.5</ele>
        <time>2026-07-15T13:19:27Z</time>
      </trkpt>
      <trkpt lat="42.90111" lon="-0.20548">
        <ele>1356.5</ele>
        <time>2026-07-15T13:19:28Z</time>
      </trkpt>
      <trkpt lat="42.90111" lon="-0.20549">
        <ele>1356.5</ele>
        <time>2026-07-15T13:19:29Z</time>
      </trkpt>
      <trkpt lat="42.90111" lon="-0.20551">
        <ele>1355.5</ele>
        <time>2026-07-15T13:19:30Z</time>
      </trkpt>
      <trkpt lat="42.90112" lon="-0.20551">
        <ele>1355.5</ele>
        <time>2026-07-15T13:19:30Z</time>
      </trkpt>
      <trkpt lat="42.90112" lon="-0.20552">
        <ele>1355.5</ele>
        <time>2026-07-15T13:19:31Z</time>
      </trkpt>
      <trkpt lat="42.90112" lon="-0.20552">
        <ele>1356.5</ele>
        <time>2026-07-15T13:19:31Z</time>
      </trkpt>
      <trkpt lat="42.90112" lon="-0.20553">
        <ele>1356.5</ele>
        <time>2026-07-15T13:19:32Z</time>
      </trkpt>
      <trkpt lat="42.90113" lon="-0.20553">
        <ele>1356.5</ele>
        <time>2026-07-15T13:19:33Z</time>
      </trkpt>
      <trkpt lat="42.90113" lon="-0.20554">
        <ele>1356.5</ele>
        <time>2026-07-15T13:19:33Z</time>
      </trkpt>
      <trkpt lat="42.90113" lon="-0.20554">
        <ele>1356.5</ele>
        <time>2026-07-15T13:19:34Z</time>
      </trkpt>
      <trkpt lat="42.90114" lon="-0.20554">
        <ele>1356.5</ele>
        <time>2026-07-15T13:19:34Z</time>
      </trkpt>
      <trkpt lat="42.90114" lon="-0.20555">
        <ele>1356.5</ele>
        <time>2026-07-15T13:19:35Z</time>
      </trkpt>
      <trkpt lat="42.90114" lon="-0.20555">
        <ele>1356.5</ele>
        <time>2026-07-15T13:19:35Z</time>
      </trkpt>
      <trkpt lat="42.90115" lon="-0.20556">
        <ele>1356.5</ele>
        <time>2026-07-15T13:19:36Z</time>
      </trkpt>
      <trkpt lat="42.90115" lon="-0.20556">
        <ele>1356.5</ele>
        <time>2026-07-15T13:19:36Z</time>
      </trkpt>
      <trkpt lat="42.90115" lon="-0.20556">
        <ele>1355.5</ele>
        <time>2026-07-15T13:19:37Z</time>
      </trkpt>
      <trkpt lat="42.90116" lon="-0.20555">
        <ele>1355.5</ele>
        <time>2026-07-15T13:19:38Z</time>
      </trkpt>
      <trkpt lat="42.90116" lon="-0.20555">
        <ele>1355.5</ele>
        <time>2026-07-15T13:19:38Z</time>
      </trkpt>
      <trkpt lat="42.90116" lon="-0.20554">
        <ele>1355.5</ele>
        <time>2026-07-15T13:19:39Z</time>
      </trkpt>
      <trkpt lat="42.90117" lon="-0.20554">
        <ele>1355.5</ele>
        <time>2026-07-15T13:19:39Z</time>
      </trkpt>
      <trkpt lat="42.90117" lon="-0.20553">
        <ele>1353.5</ele>
        <time>2026-07-15T13:19:40Z</time>
      </trkpt>
      <trkpt lat="42.90118" lon="-0.20553">
        <ele>1353.5</ele>
        <time>2026-07-15T13:19:41Z</time>
      </trkpt>
      <trkpt lat="42.90118" lon="-0.20554">
        <ele>1353.5</ele>
        <time>2026-07-15T13:19:41Z</time>
      </trkpt>
      <trkpt lat="42.90118" lon="-0.20554">
        <ele>1353.5</ele>
        <time>2026-07-15T13:19:42Z</time>
      </trkpt>
      <trkpt lat="42.90118" lon="-0.20555">
        <ele>1353.5</ele>
        <time>2026-07-15T13:19:42Z</time>
      </trkpt>
      <trkpt lat="42.90119" lon="-0.20555">
        <ele>1353.5</ele>
        <time>2026-07-15T13:19:43Z</time>
      </trkpt>
      <trkpt lat="42.9012" lon="-0.20555">
        <ele>1353.5</ele>
        <time>2026-07-15T13:19:44Z</time>
      </trkpt>
      <trkpt lat="42.9012" lon="-0.20554">
        <ele>1353.5</ele>
        <time>2026-07-15T13:19:44Z</time>
      </trkpt>
      <trkpt lat="42.90121" lon="-0.20554">
        <ele>1353.5</ele>
        <time>2026-07-15T13:19:45Z</time>
      </trkpt>
      <trkpt lat="42.90122" lon="-0.20552">
        <ele>1353.5</ele>
        <time>2026-07-15T13:19:46Z</time>
      </trkpt>
      <trkpt lat="42.90122" lon="-0.2055">
        <ele>1353.5</ele>
        <time>2026-07-15T13:19:47Z</time>
      </trkpt>
      <trkpt lat="42.90122" lon="-0.20549">
        <ele>1352.5</ele>
        <time>2026-07-15T13:19:48Z</time>
      </trkpt>
      <trkpt lat="42.90122" lon="-0.20548">
        <ele>1352.5</ele>
        <time>2026-07-15T13:19:49Z</time>
      </trkpt>
      <trkpt lat="42.90122" lon="-0.20547">
        <ele>1351.5</ele>
        <time>2026-07-15T13:19:49Z</time>
      </trkpt>
      <trkpt lat="42.90122" lon="-0.20546">
        <ele>1351.5</ele>
        <time>2026-07-15T13:19:50Z</time>
      </trkpt>
      <trkpt lat="42.90122" lon="-0.20545">
        <ele>1350.5</ele>
        <time>2026-07-15T13:19:50Z</time>
      </trkpt>
      <trkpt lat="42.90122" lon="-0.20544">
        <ele>1349.5</ele>
        <time>2026-07-15T13:19:51Z</time>
      </trkpt>
      <trkpt lat="42.90122" lon="-0.20543">
        <ele>1349.5</ele>
        <time>2026-07-15T13:19:52Z</time>
      </trkpt>
      <trkpt lat="42.90122" lon="-0.20542">
        <ele>1349.5</ele>
        <time>2026-07-15T13:19:52Z</time>
      </trkpt>
      <trkpt lat="42.90122" lon="-0.20541">
        <ele>1349.5</ele>
        <time>2026-07-15T13:19:53Z</time>
      </trkpt>
      <trkpt lat="42.90122" lon="-0.20541">
        <ele>1349.5</ele>
        <time>2026-07-15T13:19:54Z</time>
      </trkpt>
      <trkpt lat="42.90123" lon="-0.2054">
        <ele>1349.5</ele>
        <time>2026-07-15T13:19:54Z</time>
      </trkpt>
      <trkpt lat="42.90123" lon="-0.2054">
        <ele>1349.5</ele>
        <time>2026-07-15T13:19:55Z</time>
      </trkpt>
      <trkpt lat="42.90124" lon="-0.2054">
        <ele>1349.5</ele>
        <time>2026-07-15T13:19:56Z</time>
      </trkpt>
      <trkpt lat="42.90124" lon="-0.2054">
        <ele>1348.5</ele>
        <time>2026-07-15T13:19:56Z</time>
      </trkpt>
      <trkpt lat="42.90125" lon="-0.20539">
        <ele>1348.5</ele>
        <time>2026-07-15T13:19:57Z</time>
      </trkpt>
      <trkpt lat="42.90125" lon="-0.20539">
        <ele>1348.5</ele>
        <time>2026-07-15T13:19:58Z</time>
      </trkpt>
      <trkpt lat="42.90126" lon="-0.20539">
        <ele>1348.5</ele>
        <time>2026-07-15T13:19:58Z</time>
      </trkpt>
      <trkpt lat="42.90126" lon="-0.20538">
        <ele>1347.5</ele>
        <time>2026-07-15T13:19:59Z</time>
      </trkpt>
      <trkpt lat="42.90127" lon="-0.20538">
        <ele>1347.5</ele>
        <time>2026-07-15T13:20:00Z</time>
      </trkpt>
      <trkpt lat="42.90128" lon="-0.20538">
        <ele>1347.5</ele>
        <time>2026-07-15T13:20:00Z</time>
      </trkpt>
      <trkpt lat="42.90129" lon="-0.20538">
        <ele>1347.5</ele>
        <time>2026-07-15T13:20:01Z</time>
      </trkpt>
      <trkpt lat="42.90129" lon="-0.20539">
        <ele>1347.5</ele>
        <time>2026-07-15T13:20:02Z</time>
      </trkpt>
      <trkpt lat="42.9013" lon="-0.2054">
        <ele>1347.5</ele>
        <time>2026-07-15T13:20:02Z</time>
      </trkpt>
      <trkpt lat="42.9013" lon="-0.20542">
        <ele>1346.5</ele>
        <time>2026-07-15T13:20:03Z</time>
      </trkpt>
      <trkpt lat="42.90131" lon="-0.20543">
        <ele>1346.5</ele>
        <time>2026-07-15T13:20:03Z</time>
      </trkpt>
      <trkpt lat="42.90131" lon="-0.20544">
        <ele>1346.5</ele>
        <time>2026-07-15T13:20:04Z</time>
      </trkpt>
      <trkpt lat="42.90132" lon="-0.20545">
        <ele>1345.5</ele>
        <time>2026-07-15T13:20:05Z</time>
      </trkpt>
      <trkpt lat="42.90132" lon="-0.20546">
        <ele>1345.5</ele>
        <time>2026-07-15T13:20:05Z</time>
      </trkpt>
      <trkpt lat="42.90133" lon="-0.20547">
        <ele>1345.5</ele>
        <time>2026-07-15T13:20:06Z</time>
      </trkpt>
      <trkpt lat="42.90134" lon="-0.20548">
        <ele>1345.5</ele>
        <time>2026-07-15T13:20:07Z</time>
      </trkpt>
      <trkpt lat="42.90133" lon="-0.2055">
        <ele>1346.5</ele>
        <time>2026-07-15T13:20:07Z</time>
      </trkpt>
      <trkpt lat="42.90133" lon="-0.20551">
        <ele>1346.5</ele>
        <time>2026-07-15T13:20:08Z</time>
      </trkpt>
      <trkpt lat="42.90133" lon="-0.20553">
        <ele>1346.5</ele>
        <time>2026-07-15T13:20:09Z</time>
      </trkpt>
      <trkpt lat="42.90132" lon="-0.20555">
        <ele>1346.5</ele>
        <time>2026-07-15T13:20:10Z</time>
      </trkpt>
      <trkpt lat="42.90132" lon="-0.20557">
        <ele>1346.5</ele>
        <time>2026-07-15T13:20:11Z</time>
      </trkpt>
      <trkpt lat="42.90132" lon="-0.20558">
        <ele>1346.5</ele>
        <time>2026-07-15T13:20:11Z</time>
      </trkpt>
      <trkpt lat="42.90132" lon="-0.20559">
        <ele>1346.5</ele>
        <time>2026-07-15T13:20:12Z</time>
      </trkpt>
      <trkpt lat="42.90131" lon="-0.20561">
        <ele>1346.5</ele>
        <time>2026-07-15T13:20:13Z</time>
      </trkpt>
      <trkpt lat="42.90131" lon="-0.20563">
        <ele>1346.5</ele>
        <time>2026-07-15T13:20:14Z</time>
      </trkpt>
      <trkpt lat="42.90131" lon="-0.20564">
        <ele>1346.5</ele>
        <time>2026-07-15T13:20:15Z</time>
      </trkpt>
      <trkpt lat="42.90131" lon="-0.20565">
        <ele>1346.5</ele>
        <time>2026-07-15T13:20:15Z</time>
      </trkpt>
      <trkpt lat="42.90131" lon="-0.20566">
        <ele>1346.5</ele>
        <time>2026-07-15T13:20:16Z</time>
      </trkpt>
      <trkpt lat="42.90131" lon="-0.20566">
        <ele>1346.5</ele>
        <time>2026-07-15T13:20:16Z</time>
      </trkpt>
      <trkpt lat="42.90131" lon="-0.20567">
        <ele>1346.5</ele>
        <time>2026-07-15T13:20:17Z</time>
      </trkpt>
      <trkpt lat="42.90131" lon="-0.20568">
        <ele>1346.5</ele>
        <time>2026-07-15T13:20:18Z</time>
      </trkpt>
      <trkpt lat="42.90131" lon="-0.20568">
        <ele>1345.5</ele>
        <time>2026-07-15T13:20:18Z</time>
      </trkpt>
      <trkpt lat="42.90131" lon="-0.20568">
        <ele>1345.5</ele>
        <time>2026-07-15T13:20:19Z</time>
      </trkpt>
      <trkpt lat="42.90132" lon="-0.20569">
        <ele>1345.5</ele>
        <time>2026-07-15T13:20:20Z</time>
      </trkpt>
      <trkpt lat="42.90132" lon="-0.20569">
        <ele>1345.5</ele>
        <time>2026-07-15T13:20:20Z</time>
      </trkpt>
      <trkpt lat="42.90131" lon="-0.2057">
        <ele>1345.5</ele>
        <time>2026-07-15T13:20:21Z</time>
      </trkpt>
      <trkpt lat="42.90131" lon="-0.20571">
        <ele>1345.5</ele>
        <time>2026-07-15T13:20:22Z</time>
      </trkpt>
      <trkpt lat="42.90131" lon="-0.20572">
        <ele>1345.5</ele>
        <time>2026-07-15T13:20:23Z</time>
      </trkpt>
      <trkpt lat="42.90131" lon="-0.20573">
        <ele>1345.5</ele>
        <time>2026-07-15T13:20:23Z</time>
      </trkpt>
      <trkpt lat="42.90131" lon="-0.20574">
        <ele>1345.5</ele>
        <time>2026-07-15T13:20:24Z</time>
      </trkpt>
      <trkpt lat="42.90131" lon="-0.20575">
        <ele>1345.5</ele>
        <time>2026-07-15T13:20:25Z</time>
      </trkpt>
      <trkpt lat="42.90132" lon="-0.20576">
        <ele>1346.5</ele>
        <time>2026-07-15T13:20:25Z</time>
      </trkpt>
      <trkpt lat="42.90132" lon="-0.20576">
        <ele>1346.5</ele>
        <time>2026-07-15T13:20:26Z</time>
      </trkpt>
      <trkpt lat="42.90132" lon="-0.20577">
        <ele>1346.5</ele>
        <time>2026-07-15T13:20:26Z</time>
      </trkpt>
      <trkpt lat="42.90132" lon="-0.20578">
        <ele>1346.5</ele>
        <time>2026-07-15T13:20:27Z</time>
      </trkpt>
      <trkpt lat="42.90132" lon="-0.20578">
        <ele>1346.5</ele>
        <time>2026-07-15T13:20:27Z</time>
      </trkpt>
      <trkpt lat="42.90132" lon="-0.20579">
        <ele>1347.5</ele>
        <time>2026-07-15T13:20:28Z</time>
      </trkpt>
      <trkpt lat="42.90132" lon="-0.2058">
        <ele>1347.5</ele>
        <time>2026-07-15T13:20:29Z</time>
      </trkpt>
      <trkpt lat="42.90132" lon="-0.2058">
        <ele>1347.5</ele>
        <time>2026-07-15T13:20:29Z</time>
      </trkpt>
      <trkpt lat="42.90132" lon="-0.20581">
        <ele>1347.5</ele>
        <time>2026-07-15T13:20:30Z</time>
      </trkpt>
      <trkpt lat="42.90132" lon="-0.20582">
        <ele>1347.5</ele>
        <time>2026-07-15T13:20:30Z</time>
      </trkpt>
      <trkpt lat="42.90132" lon="-0.20583">
        <ele>1347.5</ele>
        <time>2026-07-15T13:20:31Z</time>
      </trkpt>
      <trkpt lat="42.90132" lon="-0.20584">
        <ele>1347.5</ele>
        <time>2026-07-15T13:20:31Z</time>
      </trkpt>
      <trkpt lat="42.90132" lon="-0.20584">
        <ele>1347.5</ele>
        <time>2026-07-15T13:20:32Z</time>
      </trkpt>
      <trkpt lat="42.90132" lon="-0.20585">
        <ele>1347.5</ele>
        <time>2026-07-15T13:20:33Z</time>
      </trkpt>
      <trkpt lat="42.90132" lon="-0.20585">
        <ele>1347.5</ele>
        <time>2026-07-15T13:20:33Z</time>
      </trkpt>
      <trkpt lat="42.90132" lon="-0.20585">
        <ele>1347.5</ele>
        <time>2026-07-15T13:20:34Z</time>
      </trkpt>
      <trkpt lat="42.90133" lon="-0.20586">
        <ele>1347.5</ele>
        <time>2026-07-15T13:20:34Z</time>
      </trkpt>
      <trkpt lat="42.90133" lon="-0.20587">
        <ele>1347.5</ele>
        <time>2026-07-15T13:20:35Z</time>
      </trkpt>
      <trkpt lat="42.90134" lon="-0.20587">
        <ele>1347.5</ele>
        <time>2026-07-15T13:20:36Z</time>
      </trkpt>
      <trkpt lat="42.90135" lon="-0.20587">
        <ele>1347.5</ele>
        <time>2026-07-15T13:20:37Z</time>
      </trkpt>
      <trkpt lat="42.90135" lon="-0.20587">
        <ele>1346.5</ele>
        <time>2026-07-15T13:20:37Z</time>
      </trkpt>
      <trkpt lat="42.90136" lon="-0.20587">
        <ele>1346.5</ele>
        <time>2026-07-15T13:20:38Z</time>
      </trkpt>
      <trkpt lat="42.90137" lon="-0.20586">
        <ele>1346.5</ele>
        <time>2026-07-15T13:20:38Z</time>
      </trkpt>
      <trkpt lat="42.90138" lon="-0.20586">
        <ele>1346.5</ele>
        <time>2026-07-15T13:20:39Z</time>
      </trkpt>
      <trkpt lat="42.90139" lon="-0.20586">
        <ele>1346.5</ele>
        <time>2026-07-15T13:20:40Z</time>
      </trkpt>
      <trkpt lat="42.9014" lon="-0.20586">
        <ele>1345.5</ele>
        <time>2026-07-15T13:20:40Z</time>
      </trkpt>
      <trkpt lat="42.9014" lon="-0.20587">
        <ele>1345.5</ele>
        <time>2026-07-15T13:20:41Z</time>
      </trkpt>
      <trkpt lat="42.90141" lon="-0.20587">
        <ele>1345.5</ele>
        <time>2026-07-15T13:20:42Z</time>
      </trkpt>
      <trkpt lat="42.90142" lon="-0.20587">
        <ele>1345.5</ele>
        <time>2026-07-15T13:20:43Z</time>
      </trkpt>
      <trkpt lat="42.90143" lon="-0.20587">
        <ele>1344.5</ele>
        <time>2026-07-15T13:20:44Z</time>
      </trkpt>
      <trkpt lat="42.90144" lon="-0.20587">
        <ele>1344.5</ele>
        <time>2026-07-15T13:20:44Z</time>
      </trkpt>
      <trkpt lat="42.90144" lon="-0.20587">
        <ele>1344.5</ele>
        <time>2026-07-15T13:20:45Z</time>
      </trkpt>
      <trkpt lat="42.90145" lon="-0.20587">
        <ele>1343.5</ele>
        <time>2026-07-15T13:20:45Z</time>
      </trkpt>
      <trkpt lat="42.90145" lon="-0.20588">
        <ele>1343.5</ele>
        <time>2026-07-15T13:20:46Z</time>
      </trkpt>
      <trkpt lat="42.90146" lon="-0.20589">
        <ele>1342.5</ele>
        <time>2026-07-15T13:20:46Z</time>
      </trkpt>
      <trkpt lat="42.90146" lon="-0.20589">
        <ele>1342.5</ele>
        <time>2026-07-15T13:20:47Z</time>
      </trkpt>
      <trkpt lat="42.90147" lon="-0.2059">
        <ele>1343.5</ele>
        <time>2026-07-15T13:20:47Z</time>
      </trkpt>
      <trkpt lat="42.90147" lon="-0.2059">
        <ele>1343.5</ele>
        <time>2026-07-15T13:20:48Z</time>
      </trkpt>
      <trkpt lat="42.90148" lon="-0.2059">
        <ele>1343.5</ele>
        <time>2026-07-15T13:20:49Z</time>
      </trkpt>
      <trkpt lat="42.90148" lon="-0.2059">
        <ele>1343.5</ele>
        <time>2026-07-15T13:20:49Z</time>
      </trkpt>
      <trkpt lat="42.90149" lon="-0.20591">
        <ele>1343.5</ele>
        <time>2026-07-15T13:20:49Z</time>
      </trkpt>
      <trkpt lat="42.90149" lon="-0.20591">
        <ele>1342.5</ele>
        <time>2026-07-15T13:20:50Z</time>
      </trkpt>
      <trkpt lat="42.9015" lon="-0.20592">
        <ele>1342.5</ele>
        <time>2026-07-15T13:20:51Z</time>
      </trkpt>
      <trkpt lat="42.9015" lon="-0.20592">
        <ele>1342.5</ele>
        <time>2026-07-15T13:20:51Z</time>
      </trkpt>
      <trkpt lat="42.90151" lon="-0.20592">
        <ele>1342.5</ele>
        <time>2026-07-15T13:20:52Z</time>
      </trkpt>
      <trkpt lat="42.90152" lon="-0.20593">
        <ele>1342.5</ele>
        <time>2026-07-15T13:20:53Z</time>
      </trkpt>
      <trkpt lat="42.90153" lon="-0.20594">
        <ele>1342.5</ele>
        <time>2026-07-15T13:20:54Z</time>
      </trkpt>
      <trkpt lat="42.90153" lon="-0.20594">
        <ele>1342.5</ele>
        <time>2026-07-15T13:20:54Z</time>
      </trkpt>
      <trkpt lat="42.90154" lon="-0.20594">
        <ele>1342.5</ele>
        <time>2026-07-15T13:20:55Z</time>
      </trkpt>
      <trkpt lat="42.90154" lon="-0.20595">
        <ele>1342.5</ele>
        <time>2026-07-15T13:20:55Z</time>
      </trkpt>
      <trkpt lat="42.90154" lon="-0.20596">
        <ele>1342.5</ele>
        <time>2026-07-15T13:20:56Z</time>
      </trkpt>
      <trkpt lat="42.90154" lon="-0.20597">
        <ele>1342.5</ele>
        <time>2026-07-15T13:20:56Z</time>
      </trkpt>
      <trkpt lat="42.90155" lon="-0.20598">
        <ele>1342.5</ele>
        <time>2026-07-15T13:20:57Z</time>
      </trkpt>
      <trkpt lat="42.90155" lon="-0.20598">
        <ele>1342.5</ele>
        <time>2026-07-15T13:20:57Z</time>
      </trkpt>
      <trkpt lat="42.90155" lon="-0.20599">
        <ele>1342.5</ele>
        <time>2026-07-15T13:20:58Z</time>
      </trkpt>
      <trkpt lat="42.90155" lon="-0.206">
        <ele>1342.5</ele>
        <time>2026-07-15T13:20:58Z</time>
      </trkpt>
      <trkpt lat="42.90155" lon="-0.20601">
        <ele>1342.5</ele>
        <time>2026-07-15T13:20:59Z</time>
      </trkpt>
      <trkpt lat="42.90155" lon="-0.20602">
        <ele>1341.5</ele>
        <time>2026-07-15T13:20:59Z</time>
      </trkpt>
      <trkpt lat="42.90155" lon="-0.20603">
        <ele>1341.5</ele>
        <time>2026-07-15T13:21:00Z</time>
      </trkpt>
      <trkpt lat="42.90155" lon="-0.20603">
        <ele>1341.5</ele>
        <time>2026-07-15T13:21:00Z</time>
      </trkpt>
      <trkpt lat="42.90155" lon="-0.20604">
        <ele>1341.5</ele>
        <time>2026-07-15T13:21:01Z</time>
      </trkpt>
      <trkpt lat="42.90155" lon="-0.20605">
        <ele>1341.5</ele>
        <time>2026-07-15T13:21:02Z</time>
      </trkpt>
      <trkpt lat="42.90155" lon="-0.20606">
        <ele>1341.5</ele>
        <time>2026-07-15T13:21:02Z</time>
      </trkpt>
      <trkpt lat="42.90155" lon="-0.20606">
        <ele>1341.5</ele>
        <time>2026-07-15T13:21:03Z</time>
      </trkpt>
      <trkpt lat="42.90155" lon="-0.20607">
        <ele>1341.5</ele>
        <time>2026-07-15T13:21:03Z</time>
      </trkpt>
      <trkpt lat="42.90156" lon="-0.20608">
        <ele>1341.5</ele>
        <time>2026-07-15T13:21:04Z</time>
      </trkpt>
      <trkpt lat="42.90156" lon="-0.20608">
        <ele>1339.5</ele>
        <time>2026-07-15T13:21:04Z</time>
      </trkpt>
      <trkpt lat="42.90156" lon="-0.20608">
        <ele>1339.5</ele>
        <time>2026-07-15T13:21:05Z</time>
      </trkpt>
      <trkpt lat="42.90157" lon="-0.20609">
        <ele>1339.5</ele>
        <time>2026-07-15T13:21:06Z</time>
      </trkpt>
      <trkpt lat="42.90157" lon="-0.2061">
        <ele>1338.5</ele>
        <time>2026-07-15T13:21:06Z</time>
      </trkpt>
      <trkpt lat="42.90158" lon="-0.20611">
        <ele>1338.5</ele>
        <time>2026-07-15T13:21:07Z</time>
      </trkpt>
      <trkpt lat="42.90158" lon="-0.20612">
        <ele>1338.5</ele>
        <time>2026-07-15T13:21:08Z</time>
      </trkpt>
      <trkpt lat="42.90158" lon="-0.20612">
        <ele>1337.5</ele>
        <time>2026-07-15T13:21:08Z</time>
      </trkpt>
      <trkpt lat="42.90159" lon="-0.20613">
        <ele>1337.5</ele>
        <time>2026-07-15T13:21:09Z</time>
      </trkpt>
      <trkpt lat="42.90159" lon="-0.20614">
        <ele>1337.5</ele>
        <time>2026-07-15T13:21:10Z</time>
      </trkpt>
      <trkpt lat="42.90159" lon="-0.20614">
        <ele>1336.5</ele>
        <time>2026-07-15T13:21:10Z</time>
      </trkpt>
      <trkpt lat="42.9016" lon="-0.20615">
        <ele>1336.5</ele>
        <time>2026-07-15T13:21:11Z</time>
      </trkpt>
      <trkpt lat="42.9016" lon="-0.20615">
        <ele>1337.5</ele>
        <time>2026-07-15T13:21:11Z</time>
      </trkpt>
      <trkpt lat="42.9016" lon="-0.20616">
        <ele>1338.5</ele>
        <time>2026-07-15T13:21:12Z</time>
      </trkpt>
      <trkpt lat="42.90161" lon="-0.20617">
        <ele>1338.5</ele>
        <time>2026-07-15T13:21:13Z</time>
      </trkpt>
      <trkpt lat="42.90161" lon="-0.20617">
        <ele>1337.5</ele>
        <time>2026-07-15T13:21:13Z</time>
      </trkpt>
      <trkpt lat="42.90161" lon="-0.20618">
        <ele>1337.5</ele>
        <time>2026-07-15T13:21:14Z</time>
      </trkpt>
      <trkpt lat="42.90161" lon="-0.20619">
        <ele>1337.5</ele>
        <time>2026-07-15T13:21:15Z</time>
      </trkpt>
      <trkpt lat="42.90161" lon="-0.20619">
        <ele>1337.5</ele>
        <time>2026-07-15T13:21:15Z</time>
      </trkpt>
      <trkpt lat="42.90161" lon="-0.2062">
        <ele>1336.5</ele>
        <time>2026-07-15T13:21:16Z</time>
      </trkpt>
      <trkpt lat="42.90161" lon="-0.20621">
        <ele>1336.5</ele>
        <time>2026-07-15T13:21:16Z</time>
      </trkpt>
      <trkpt lat="42.90161" lon="-0.20621">
        <ele>1337.5</ele>
        <time>2026-07-15T13:21:17Z</time>
      </trkpt>
      <trkpt lat="42.90162" lon="-0.20622">
        <ele>1337.5</ele>
        <time>2026-07-15T13:21:18Z</time>
      </trkpt>
      <trkpt lat="42.90162" lon="-0.20624">
        <ele>1337.5</ele>
        <time>2026-07-15T13:21:19Z</time>
      </trkpt>
      <trkpt lat="42.90162" lon="-0.20624">
        <ele>1337.5</ele>
        <time>2026-07-15T13:21:19Z</time>
      </trkpt>
      <trkpt lat="42.90162" lon="-0.20625">
        <ele>1337.5</ele>
        <time>2026-07-15T13:21:20Z</time>
      </trkpt>
      <trkpt lat="42.90163" lon="-0.20625">
        <ele>1336.5</ele>
        <time>2026-07-15T13:21:20Z</time>
      </trkpt>
      <trkpt lat="42.90163" lon="-0.20626">
        <ele>1336.5</ele>
        <time>2026-07-15T13:21:21Z</time>
      </trkpt>
      <trkpt lat="42.90164" lon="-0.20625">
        <ele>1336.5</ele>
        <time>2026-07-15T13:21:22Z</time>
      </trkpt>
      <trkpt lat="42.90165" lon="-0.20625">
        <ele>1335.5</ele>
        <time>2026-07-15T13:21:22Z</time>
      </trkpt>
      <trkpt lat="42.90165" lon="-0.20625">
        <ele>1335.5</ele>
        <time>2026-07-15T13:21:23Z</time>
      </trkpt>
      <trkpt lat="42.90166" lon="-0.20625">
        <ele>1335.5</ele>
        <time>2026-07-15T13:21:23Z</time>
      </trkpt>
      <trkpt lat="42.90167" lon="-0.20625">
        <ele>1335.5</ele>
        <time>2026-07-15T13:21:24Z</time>
      </trkpt>
      <trkpt lat="42.90168" lon="-0.20625">
        <ele>1335.5</ele>
        <time>2026-07-15T13:21:25Z</time>
      </trkpt>
      <trkpt lat="42.90168" lon="-0.20625">
        <ele>1336.5</ele>
        <time>2026-07-15T13:21:25Z</time>
      </trkpt>
      <trkpt lat="42.90169" lon="-0.20626">
        <ele>1336.5</ele>
        <time>2026-07-15T13:21:26Z</time>
      </trkpt>
      <trkpt lat="42.90169" lon="-0.20625">
        <ele>1336.5</ele>
        <time>2026-07-15T13:21:27Z</time>
      </trkpt>
      <trkpt lat="42.9017" lon="-0.20625">
        <ele>1336.5</ele>
        <time>2026-07-15T13:21:28Z</time>
      </trkpt>
      <trkpt lat="42.9017" lon="-0.20625">
        <ele>1337.5</ele>
        <time>2026-07-15T13:21:28Z</time>
      </trkpt>
      <trkpt lat="42.90171" lon="-0.20625">
        <ele>1337.5</ele>
        <time>2026-07-15T13:21:29Z</time>
      </trkpt>
      <trkpt lat="42.90171" lon="-0.20625">
        <ele>1336.5</ele>
        <time>2026-07-15T13:21:29Z</time>
      </trkpt>
      <trkpt lat="42.90172" lon="-0.20625">
        <ele>1336.5</ele>
        <time>2026-07-15T13:21:30Z</time>
      </trkpt>
      <trkpt lat="42.90172" lon="-0.20625">
        <ele>1336.5</ele>
        <time>2026-07-15T13:21:30Z</time>
      </trkpt>
      <trkpt lat="42.90172" lon="-0.20625">
        <ele>1336.5</ele>
        <time>2026-07-15T13:21:31Z</time>
      </trkpt>
      <trkpt lat="42.90173" lon="-0.20625">
        <ele>1335.5</ele>
        <time>2026-07-15T13:21:31Z</time>
      </trkpt>
      <trkpt lat="42.90174" lon="-0.20626">
        <ele>1334.5</ele>
        <time>2026-07-15T13:21:32Z</time>
      </trkpt>
      <trkpt lat="42.90174" lon="-0.20626">
        <ele>1334.5</ele>
        <time>2026-07-15T13:21:33Z</time>
      </trkpt>
      <trkpt lat="42.90175" lon="-0.20626">
        <ele>1334.5</ele>
        <time>2026-07-15T13:21:33Z</time>
      </trkpt>
      <trkpt lat="42.90175" lon="-0.20626">
        <ele>1334.5</ele>
        <time>2026-07-15T13:21:34Z</time>
      </trkpt>
      <trkpt lat="42.90176" lon="-0.20626">
        <ele>1334.5</ele>
        <time>2026-07-15T13:21:34Z</time>
      </trkpt>
      <trkpt lat="42.90177" lon="-0.20626">
        <ele>1334.5</ele>
        <time>2026-07-15T13:21:35Z</time>
      </trkpt>
      <trkpt lat="42.90178" lon="-0.20627">
        <ele>1334.5</ele>
        <time>2026-07-15T13:21:36Z</time>
      </trkpt>
      <trkpt lat="42.90178" lon="-0.20627">
        <ele>1334.5</ele>
        <time>2026-07-15T13:21:36Z</time>
      </trkpt>
      <trkpt lat="42.90179" lon="-0.20628">
        <ele>1334.5</ele>
        <time>2026-07-15T13:21:37Z</time>
      </trkpt>
      <trkpt lat="42.9018" lon="-0.20628">
        <ele>1334.5</ele>
        <time>2026-07-15T13:21:38Z</time>
      </trkpt>
      <trkpt lat="42.9018" lon="-0.20628">
        <ele>1334.5</ele>
        <time>2026-07-15T13:21:38Z</time>
      </trkpt>
      <trkpt lat="42.9018" lon="-0.20628">
        <ele>1334.5</ele>
        <time>2026-07-15T13:21:39Z</time>
      </trkpt>
      <trkpt lat="42.9018" lon="-0.20628">
        <ele>1334.5</ele>
        <time>2026-07-15T13:21:39Z</time>
      </trkpt>
      <trkpt lat="42.90181" lon="-0.20628">
        <ele>1333.5</ele>
        <time>2026-07-15T13:21:40Z</time>
      </trkpt>
      <trkpt lat="42.90181" lon="-0.20629">
        <ele>1333.5</ele>
        <time>2026-07-15T13:21:41Z</time>
      </trkpt>
      <trkpt lat="42.90182" lon="-0.20629">
        <ele>1334.5</ele>
        <time>2026-07-15T13:21:41Z</time>
      </trkpt>
      <trkpt lat="42.90182" lon="-0.20629">
        <ele>1334.5</ele>
        <time>2026-07-15T13:21:42Z</time>
      </trkpt>
      <trkpt lat="42.90183" lon="-0.2063">
        <ele>1334.5</ele>
        <time>2026-07-15T13:21:43Z</time>
      </trkpt>
      <trkpt lat="42.90183" lon="-0.2063">
        <ele>1334.5</ele>
        <time>2026-07-15T13:21:43Z</time>
      </trkpt>
      <trkpt lat="42.90184" lon="-0.2063">
        <ele>1334.5</ele>
        <time>2026-07-15T13:21:44Z</time>
      </trkpt>
      <trkpt lat="42.90185" lon="-0.2063">
        <ele>1334.5</ele>
        <time>2026-07-15T13:21:45Z</time>
      </trkpt>
      <trkpt lat="42.90185" lon="-0.2063">
        <ele>1335.5</ele>
        <time>2026-07-15T13:21:45Z</time>
      </trkpt>
      <trkpt lat="42.90186" lon="-0.2063">
        <ele>1335.5</ele>
        <time>2026-07-15T13:21:46Z</time>
      </trkpt>
      <trkpt lat="42.90186" lon="-0.2063">
        <ele>1334.5</ele>
        <time>2026-07-15T13:21:47Z</time>
      </trkpt>
      <trkpt lat="42.90186" lon="-0.2063">
        <ele>1333.5</ele>
        <time>2026-07-15T13:21:47Z</time>
      </trkpt>
      <trkpt lat="42.90187" lon="-0.2063">
        <ele>1333.5</ele>
        <time>2026-07-15T13:21:48Z</time>
      </trkpt>
      <trkpt lat="42.90187" lon="-0.2063">
        <ele>1333.5</ele>
        <time>2026-07-15T13:21:48Z</time>
      </trkpt>
      <trkpt lat="42.90188" lon="-0.2063">
        <ele>1333.5</ele>
        <time>2026-07-15T13:21:49Z</time>
      </trkpt>
      <trkpt lat="42.90189" lon="-0.20631">
        <ele>1332.5</ele>
        <time>2026-07-15T13:21:50Z</time>
      </trkpt>
      <trkpt lat="42.90189" lon="-0.20631">
        <ele>1332.5</ele>
        <time>2026-07-15T13:21:50Z</time>
      </trkpt>
      <trkpt lat="42.9019" lon="-0.20631">
        <ele>1332.5</ele>
        <time>2026-07-15T13:21:51Z</time>
      </trkpt>
      <trkpt lat="42.90191" lon="-0.20632">
        <ele>1332.5</ele>
        <time>2026-07-15T13:21:52Z</time>
      </trkpt>
      <trkpt lat="42.90192" lon="-0.20633">
        <ele>1331.5</ele>
        <time>2026-07-15T13:21:53Z</time>
      </trkpt>
      <trkpt lat="42.90192" lon="-0.20633">
        <ele>1330.5</ele>
        <time>2026-07-15T13:21:53Z</time>
      </trkpt>
      <trkpt lat="42.90192" lon="-0.20634">
        <ele>1330.5</ele>
        <time>2026-07-15T13:21:54Z</time>
      </trkpt>
      <trkpt lat="42.90193" lon="-0.20636">
        <ele>1330.5</ele>
        <time>2026-07-15T13:21:55Z</time>
      </trkpt>
      <trkpt lat="42.90194" lon="-0.20637">
        <ele>1330.5</ele>
        <time>2026-07-15T13:21:56Z</time>
      </trkpt>
      <trkpt lat="42.90194" lon="-0.20638">
        <ele>1329.5</ele>
        <time>2026-07-15T13:21:56Z</time>
      </trkpt>
      <trkpt lat="42.90194" lon="-0.20639">
        <ele>1329.5</ele>
        <time>2026-07-15T13:21:57Z</time>
      </trkpt>
      <trkpt lat="42.90194" lon="-0.2064">
        <ele>1330.5</ele>
        <time>2026-07-15T13:21:58Z</time>
      </trkpt>
      <trkpt lat="42.90194" lon="-0.20641">
        <ele>1329.5</ele>
        <time>2026-07-15T13:21:58Z</time>
      </trkpt>
      <trkpt lat="42.90195" lon="-0.20641">
        <ele>1329.5</ele>
        <time>2026-07-15T13:21:59Z</time>
      </trkpt>
      <trkpt lat="42.90195" lon="-0.20642">
        <ele>1328.5</ele>
        <time>2026-07-15T13:21:59Z</time>
      </trkpt>
      <trkpt lat="42.90195" lon="-0.20642">
        <ele>1328.5</ele>
        <time>2026-07-15T13:22:00Z</time>
      </trkpt>
      <trkpt lat="42.90195" lon="-0.20643">
        <ele>1329.5</ele>
        <time>2026-07-15T13:22:00Z</time>
      </trkpt>
      <trkpt lat="42.90196" lon="-0.20644">
        <ele>1329.5</ele>
        <time>2026-07-15T13:22:01Z</time>
      </trkpt>
      <trkpt lat="42.90196" lon="-0.20645">
        <ele>1329.5</ele>
        <time>2026-07-15T13:22:02Z</time>
      </trkpt>
      <trkpt lat="42.90196" lon="-0.20645">
        <ele>1328.5</ele>
        <time>2026-07-15T13:22:02Z</time>
      </trkpt>
      <trkpt lat="42.90197" lon="-0.20646">
        <ele>1328.5</ele>
        <time>2026-07-15T13:22:03Z</time>
      </trkpt>
      <trkpt lat="42.90197" lon="-0.20646">
        <ele>1329.5</ele>
        <time>2026-07-15T13:22:03Z</time>
      </trkpt>
      <trkpt lat="42.90197" lon="-0.20647">
        <ele>1329.5</ele>
        <time>2026-07-15T13:22:04Z</time>
      </trkpt>
      <trkpt lat="42.90197" lon="-0.20648">
        <ele>1329.5</ele>
        <time>2026-07-15T13:22:04Z</time>
      </trkpt>
      <trkpt lat="42.90197" lon="-0.20648">
        <ele>1328.5</ele>
        <time>2026-07-15T13:22:05Z</time>
      </trkpt>
      <trkpt lat="42.90198" lon="-0.20648">
        <ele>1328.5</ele>
        <time>2026-07-15T13:22:06Z</time>
      </trkpt>
      <trkpt lat="42.90198" lon="-0.20649">
        <ele>1328.5</ele>
        <time>2026-07-15T13:22:06Z</time>
      </trkpt>
      <trkpt lat="42.90198" lon="-0.2065">
        <ele>1328.5</ele>
        <time>2026-07-15T13:22:07Z</time>
      </trkpt>
      <trkpt lat="42.90199" lon="-0.2065">
        <ele>1327.5</ele>
        <time>2026-07-15T13:22:07Z</time>
      </trkpt>
      <trkpt lat="42.90199" lon="-0.20651">
        <ele>1327.5</ele>
        <time>2026-07-15T13:22:08Z</time>
      </trkpt>
      <trkpt lat="42.90199" lon="-0.20651">
        <ele>1327.5</ele>
        <time>2026-07-15T13:22:08Z</time>
      </trkpt>
      <trkpt lat="42.902" lon="-0.20652">
        <ele>1327.5</ele>
        <time>2026-07-15T13:22:09Z</time>
      </trkpt>
      <trkpt lat="42.902" lon="-0.20653">
        <ele>1327.5</ele>
        <time>2026-07-15T13:22:09Z</time>
      </trkpt>
      <trkpt lat="42.90201" lon="-0.20654">
        <ele>1327.5</ele>
        <time>2026-07-15T13:22:10Z</time>
      </trkpt>
      <trkpt lat="42.90201" lon="-0.20655">
        <ele>1327.5</ele>
        <time>2026-07-15T13:22:11Z</time>
      </trkpt>
      <trkpt lat="42.90201" lon="-0.20656">
        <ele>1325.5</ele>
        <time>2026-07-15T13:22:11Z</time>
      </trkpt>
      <trkpt lat="42.90201" lon="-0.20657">
        <ele>1325.5</ele>
        <time>2026-07-15T13:22:12Z</time>
      </trkpt>
      <trkpt lat="42.90201" lon="-0.20658">
        <ele>1325.5</ele>
        <time>2026-07-15T13:22:13Z</time>
      </trkpt>
      <trkpt lat="42.90201" lon="-0.20658">
        <ele>1325.5</ele>
        <time>2026-07-15T13:22:13Z</time>
      </trkpt>
      <trkpt lat="42.90201" lon="-0.20659">
        <ele>1324.5</ele>
        <time>2026-07-15T13:22:14Z</time>
      </trkpt>
      <trkpt lat="42.90201" lon="-0.2066">
        <ele>1324.5</ele>
        <time>2026-07-15T13:22:15Z</time>
      </trkpt>
      <trkpt lat="42.90201" lon="-0.2066">
        <ele>1324.5</ele>
        <time>2026-07-15T13:22:15Z</time>
      </trkpt>
      <trkpt lat="42.90201" lon="-0.20661">
        <ele>1324.5</ele>
        <time>2026-07-15T13:22:16Z</time>
      </trkpt>
      <trkpt lat="42.90202" lon="-0.20662">
        <ele>1324.5</ele>
        <time>2026-07-15T13:22:17Z</time>
      </trkpt>
      <trkpt lat="42.90202" lon="-0.20663">
        <ele>1323.5</ele>
        <time>2026-07-15T13:22:17Z</time>
      </trkpt>
      <trkpt lat="42.90202" lon="-0.20664">
        <ele>1323.5</ele>
        <time>2026-07-15T13:22:18Z</time>
      </trkpt>
      <trkpt lat="42.90202" lon="-0.20664">
        <ele>1323.5</ele>
        <time>2026-07-15T13:22:19Z</time>
      </trkpt>
      <trkpt lat="42.90203" lon="-0.20666">
        <ele>1323.5</ele>
        <time>2026-07-15T13:22:20Z</time>
      </trkpt>
      <trkpt lat="42.90203" lon="-0.20667">
        <ele>1322.5</ele>
        <time>2026-07-15T13:22:21Z</time>
      </trkpt>
      <trkpt lat="42.90203" lon="-0.20668">
        <ele>1322.5</ele>
        <time>2026-07-15T13:22:21Z</time>
      </trkpt>
      <trkpt lat="42.90204" lon="-0.20668">
        <ele>1322.5</ele>
        <time>2026-07-15T13:22:22Z</time>
      </trkpt>
      <trkpt lat="42.90204" lon="-0.2067">
        <ele>1321.5</ele>
        <time>2026-07-15T13:22:23Z</time>
      </trkpt>
      <trkpt lat="42.90204" lon="-0.20671">
        <ele>1321.5</ele>
        <time>2026-07-15T13:22:23Z</time>
      </trkpt>
      <trkpt lat="42.90204" lon="-0.20672">
        <ele>1321.5</ele>
        <time>2026-07-15T13:22:24Z</time>
      </trkpt>
      <trkpt lat="42.90205" lon="-0.20672">
        <ele>1321.5</ele>
        <time>2026-07-15T13:22:24Z</time>
      </trkpt>
      <trkpt lat="42.90205" lon="-0.20673">
        <ele>1321.5</ele>
        <time>2026-07-15T13:22:25Z</time>
      </trkpt>
      <trkpt lat="42.90206" lon="-0.20673">
        <ele>1322.5</ele>
        <time>2026-07-15T13:22:26Z</time>
      </trkpt>
      <trkpt lat="42.90206" lon="-0.20673">
        <ele>1322.5</ele>
        <time>2026-07-15T13:22:26Z</time>
      </trkpt>
      <trkpt lat="42.90206" lon="-0.20674">
        <ele>1322.5</ele>
        <time>2026-07-15T13:22:27Z</time>
      </trkpt>
      <trkpt lat="42.90207" lon="-0.20675">
        <ele>1321.5</ele>
        <time>2026-07-15T13:22:28Z</time>
      </trkpt>
      <trkpt lat="42.90207" lon="-0.20675">
        <ele>1320.5</ele>
        <time>2026-07-15T13:22:28Z</time>
      </trkpt>
      <trkpt lat="42.90207" lon="-0.20676">
        <ele>1320.5</ele>
        <time>2026-07-15T13:22:29Z</time>
      </trkpt>
      <trkpt lat="42.90207" lon="-0.20675">
        <ele>1320.5</ele>
        <time>2026-07-15T13:22:29Z</time>
      </trkpt>
      <trkpt lat="42.90208" lon="-0.20676">
        <ele>1320.5</ele>
        <time>2026-07-15T13:22:30Z</time>
      </trkpt>
      <trkpt lat="42.90208" lon="-0.20676">
        <ele>1320.5</ele>
        <time>2026-07-15T13:22:30Z</time>
      </trkpt>
      <trkpt lat="42.90208" lon="-0.20677">
        <ele>1320.5</ele>
        <time>2026-07-15T13:22:31Z</time>
      </trkpt>
      <trkpt lat="42.90208" lon="-0.20677">
        <ele>1320.5</ele>
        <time>2026-07-15T13:22:31Z</time>
      </trkpt>
      <trkpt lat="42.90208" lon="-0.20678">
        <ele>1320.5</ele>
        <time>2026-07-15T13:22:32Z</time>
      </trkpt>
      <trkpt lat="42.90208" lon="-0.20678">
        <ele>1320.5</ele>
        <time>2026-07-15T13:22:32Z</time>
      </trkpt>
      <trkpt lat="42.90208" lon="-0.20679">
        <ele>1320.5</ele>
        <time>2026-07-15T13:22:33Z</time>
      </trkpt>
      <trkpt lat="42.90208" lon="-0.20679">
        <ele>1319.5</ele>
        <time>2026-07-15T13:22:34Z</time>
      </trkpt>
      <trkpt lat="42.90208" lon="-0.2068">
        <ele>1319.5</ele>
        <time>2026-07-15T13:22:34Z</time>
      </trkpt>
      <trkpt lat="42.90209" lon="-0.20681">
        <ele>1319.5</ele>
        <time>2026-07-15T13:22:35Z</time>
      </trkpt>
      <trkpt lat="42.90209" lon="-0.20682">
        <ele>1319.5</ele>
        <time>2026-07-15T13:22:36Z</time>
      </trkpt>
      <trkpt lat="42.90209" lon="-0.20683">
        <ele>1318.5</ele>
        <time>2026-07-15T13:22:36Z</time>
      </trkpt>
      <trkpt lat="42.90209" lon="-0.20684">
        <ele>1318.5</ele>
        <time>2026-07-15T13:22:37Z</time>
      </trkpt>
      <trkpt lat="42.90209" lon="-0.20685">
        <ele>1318.5</ele>
        <time>2026-07-15T13:22:37Z</time>
      </trkpt>
      <trkpt lat="42.9021" lon="-0.20686">
        <ele>1318.5</ele>
        <time>2026-07-15T13:22:38Z</time>
      </trkpt>
      <trkpt lat="42.9021" lon="-0.20687">
        <ele>1318.5</ele>
        <time>2026-07-15T13:22:38Z</time>
      </trkpt>
      <trkpt lat="42.9021" lon="-0.20688">
        <ele>1318.5</ele>
        <time>2026-07-15T13:22:39Z</time>
      </trkpt>
      <trkpt lat="42.9021" lon="-0.20689">
        <ele>1318.5</ele>
        <time>2026-07-15T13:22:40Z</time>
      </trkpt>
      <trkpt lat="42.9021" lon="-0.2069">
        <ele>1317.5</ele>
        <time>2026-07-15T13:22:40Z</time>
      </trkpt>
      <trkpt lat="42.9021" lon="-0.20691">
        <ele>1317.5</ele>
        <time>2026-07-15T13:22:41Z</time>
      </trkpt>
      <trkpt lat="42.90211" lon="-0.20692">
        <ele>1317.5</ele>
        <time>2026-07-15T13:22:42Z</time>
      </trkpt>
      <trkpt lat="42.90211" lon="-0.20693">
        <ele>1317.5</ele>
        <time>2026-07-15T13:22:42Z</time>
      </trkpt>
      <trkpt lat="42.90211" lon="-0.20693">
        <ele>1316.5</ele>
        <time>2026-07-15T13:22:43Z</time>
      </trkpt>
      <trkpt lat="42.90211" lon="-0.20694">
        <ele>1316.5</ele>
        <time>2026-07-15T13:22:44Z</time>
      </trkpt>
      <trkpt lat="42.90211" lon="-0.20694">
        <ele>1316.5</ele>
        <time>2026-07-15T13:22:45Z</time>
      </trkpt>
      <trkpt lat="42.90211" lon="-0.20695">
        <ele>1315.5</ele>
        <time>2026-07-15T13:22:45Z</time>
      </trkpt>
      <trkpt lat="42.90211" lon="-0.20696">
        <ele>1315.5</ele>
        <time>2026-07-15T13:22:46Z</time>
      </trkpt>
      <trkpt lat="42.90211" lon="-0.20696">
        <ele>1314.5</ele>
        <time>2026-07-15T13:22:46Z</time>
      </trkpt>
      <trkpt lat="42.90212" lon="-0.20697">
        <ele>1314.5</ele>
        <time>2026-07-15T13:22:46Z</time>
      </trkpt>
      <trkpt lat="42.90212" lon="-0.20697">
        <ele>1314.5</ele>
        <time>2026-07-15T13:22:47Z</time>
      </trkpt>
      <trkpt lat="42.90212" lon="-0.20698">
        <ele>1314.5</ele>
        <time>2026-07-15T13:22:48Z</time>
      </trkpt>
      <trkpt lat="42.90212" lon="-0.20699">
        <ele>1314.5</ele>
        <time>2026-07-15T13:22:48Z</time>
      </trkpt>
      <trkpt lat="42.90212" lon="-0.20699">
        <ele>1314.5</ele>
        <time>2026-07-15T13:22:49Z</time>
      </trkpt>
      <trkpt lat="42.90213" lon="-0.207">
        <ele>1314.5</ele>
        <time>2026-07-15T13:22:49Z</time>
      </trkpt>
      <trkpt lat="42.90213" lon="-0.207">
        <ele>1314.5</ele>
        <time>2026-07-15T13:22:50Z</time>
      </trkpt>
      <trkpt lat="42.90213" lon="-0.20701">
        <ele>1313.5</ele>
        <time>2026-07-15T13:22:50Z</time>
      </trkpt>
      <trkpt lat="42.90213" lon="-0.20701">
        <ele>1313.5</ele>
        <time>2026-07-15T13:22:51Z</time>
      </trkpt>
      <trkpt lat="42.90214" lon="-0.20702">
        <ele>1313.5</ele>
        <time>2026-07-15T13:22:51Z</time>
      </trkpt>
      <trkpt lat="42.90214" lon="-0.20702">
        <ele>1313.5</ele>
        <time>2026-07-15T13:22:52Z</time>
      </trkpt>
      <trkpt lat="42.90214" lon="-0.20703">
        <ele>1313.5</ele>
        <time>2026-07-15T13:22:52Z</time>
      </trkpt>
      <trkpt lat="42.90214" lon="-0.20703">
        <ele>1313.5</ele>
        <time>2026-07-15T13:22:53Z</time>
      </trkpt>
      <trkpt lat="42.90214" lon="-0.20703">
        <ele>1314.5</ele>
        <time>2026-07-15T13:22:53Z</time>
      </trkpt>
      <trkpt lat="42.90215" lon="-0.20704">
        <ele>1314.5</ele>
        <time>2026-07-15T13:22:54Z</time>
      </trkpt>
      <trkpt lat="42.90215" lon="-0.20704">
        <ele>1313.5</ele>
        <time>2026-07-15T13:22:54Z</time>
      </trkpt>
      <trkpt lat="42.90215" lon="-0.20705">
        <ele>1313.5</ele>
        <time>2026-07-15T13:22:55Z</time>
      </trkpt>
      <trkpt lat="42.90215" lon="-0.20706">
        <ele>1313.5</ele>
        <time>2026-07-15T13:22:56Z</time>
      </trkpt>
      <trkpt lat="42.90216" lon="-0.20707">
        <ele>1313.5</ele>
        <time>2026-07-15T13:22:56Z</time>
      </trkpt>
      <trkpt lat="42.90216" lon="-0.20708">
        <ele>1313.5</ele>
        <time>2026-07-15T13:22:57Z</time>
      </trkpt>
      <trkpt lat="42.90216" lon="-0.20709">
        <ele>1313.5</ele>
        <time>2026-07-15T13:22:58Z</time>
      </trkpt>
      <trkpt lat="42.90217" lon="-0.2071">
        <ele>1313.5</ele>
        <time>2026-07-15T13:22:59Z</time>
      </trkpt>
      <trkpt lat="42.90217" lon="-0.20711">
        <ele>1313.5</ele>
        <time>2026-07-15T13:22:59Z</time>
      </trkpt>
      <trkpt lat="42.90217" lon="-0.20712">
        <ele>1313.5</ele>
        <time>2026-07-15T13:23:00Z</time>
      </trkpt>
      <trkpt lat="42.90218" lon="-0.20713">
        <ele>1312.5</ele>
        <time>2026-07-15T13:23:01Z</time>
      </trkpt>
      <trkpt lat="42.90219" lon="-0.20714">
        <ele>1312.5</ele>
        <time>2026-07-15T13:23:02Z</time>
      </trkpt>
      <trkpt lat="42.90219" lon="-0.20715">
        <ele>1312.5</ele>
        <time>2026-07-15T13:23:02Z</time>
      </trkpt>
      <trkpt lat="42.9022" lon="-0.20716">
        <ele>1312.5</ele>
        <time>2026-07-15T13:23:03Z</time>
      </trkpt>
      <trkpt lat="42.9022" lon="-0.20716">
        <ele>1311.5</ele>
        <time>2026-07-15T13:23:04Z</time>
      </trkpt>
      <trkpt lat="42.9022" lon="-0.20717">
        <ele>1311.5</ele>
        <time>2026-07-15T13:23:04Z</time>
      </trkpt>
      <trkpt lat="42.90221" lon="-0.20717">
        <ele>1311.5</ele>
        <time>2026-07-15T13:23:05Z</time>
      </trkpt>
      <trkpt lat="42.90221" lon="-0.20719">
        <ele>1310.5</ele>
        <time>2026-07-15T13:23:06Z</time>
      </trkpt>
      <trkpt lat="42.90221" lon="-0.20719">
        <ele>1310.5</ele>
        <time>2026-07-15T13:23:06Z</time>
      </trkpt>
      <trkpt lat="42.90221" lon="-0.20719">
        <ele>1311.5</ele>
        <time>2026-07-15T13:23:07Z</time>
      </trkpt>
      <trkpt lat="42.90221" lon="-0.2072">
        <ele>1311.5</ele>
        <time>2026-07-15T13:23:07Z</time>
      </trkpt>
      <trkpt lat="42.90222" lon="-0.20721">
        <ele>1311.5</ele>
        <time>2026-07-15T13:23:08Z</time>
      </trkpt>
      <trkpt lat="42.90222" lon="-0.20721">
        <ele>1311.5</ele>
        <time>2026-07-15T13:23:08Z</time>
      </trkpt>
      <trkpt lat="42.90223" lon="-0.20722">
        <ele>1311.5</ele>
        <time>2026-07-15T13:23:09Z</time>
      </trkpt>
      <trkpt lat="42.90223" lon="-0.20724">
        <ele>1310.5</ele>
        <time>2026-07-15T13:23:10Z</time>
      </trkpt>
      <trkpt lat="42.90223" lon="-0.20725">
        <ele>1310.5</ele>
        <time>2026-07-15T13:23:11Z</time>
      </trkpt>
      <trkpt lat="42.90223" lon="-0.20726">
        <ele>1310.5</ele>
        <time>2026-07-15T13:23:12Z</time>
      </trkpt>
      <trkpt lat="42.90223" lon="-0.20726">
        <ele>1309.5</ele>
        <time>2026-07-15T13:23:12Z</time>
      </trkpt>
      <trkpt lat="42.90224" lon="-0.20727">
        <ele>1309.5</ele>
        <time>2026-07-15T13:23:13Z</time>
      </trkpt>
      <trkpt lat="42.90224" lon="-0.20727">
        <ele>1308.5</ele>
        <time>2026-07-15T13:23:13Z</time>
      </trkpt>
      <trkpt lat="42.90224" lon="-0.20728">
        <ele>1308.5</ele>
        <time>2026-07-15T13:23:14Z</time>
      </trkpt>
      <trkpt lat="42.90224" lon="-0.20728">
        <ele>1308.5</ele>
        <time>2026-07-15T13:23:14Z</time>
      </trkpt>
      <trkpt lat="42.90224" lon="-0.20729">
        <ele>1308.5</ele>
        <time>2026-07-15T13:23:15Z</time>
      </trkpt>
      <trkpt lat="42.90224" lon="-0.20731">
        <ele>1307.5</ele>
        <time>2026-07-15T13:23:16Z</time>
      </trkpt>
      <trkpt lat="42.90224" lon="-0.20731">
        <ele>1306.5</ele>
        <time>2026-07-15T13:23:17Z</time>
      </trkpt>
      <trkpt lat="42.90225" lon="-0.20731">
        <ele>1306.5</ele>
        <time>2026-07-15T13:23:17Z</time>
      </trkpt>
      <trkpt lat="42.90225" lon="-0.20732">
        <ele>1306.5</ele>
        <time>2026-07-15T13:23:18Z</time>
      </trkpt>
      <trkpt lat="42.90225" lon="-0.20732">
        <ele>1306.5</ele>
        <time>2026-07-15T13:23:18Z</time>
      </trkpt>
      <trkpt lat="42.90226" lon="-0.20733">
        <ele>1306.5</ele>
        <time>2026-07-15T13:23:19Z</time>
      </trkpt>
      <trkpt lat="42.90226" lon="-0.20733">
        <ele>1305.5</ele>
        <time>2026-07-15T13:23:19Z</time>
      </trkpt>
      <trkpt lat="42.90226" lon="-0.20734">
        <ele>1305.5</ele>
        <time>2026-07-15T13:23:20Z</time>
      </trkpt>
      <trkpt lat="42.90227" lon="-0.20734">
        <ele>1305.5</ele>
        <time>2026-07-15T13:23:20Z</time>
      </trkpt>
      <trkpt lat="42.90227" lon="-0.20735">
        <ele>1305.5</ele>
        <time>2026-07-15T13:23:21Z</time>
      </trkpt>
      <trkpt lat="42.90227" lon="-0.20735">
        <ele>1304.5</ele>
        <time>2026-07-15T13:23:21Z</time>
      </trkpt>
      <trkpt lat="42.90228" lon="-0.20736">
        <ele>1304.5</ele>
        <time>2026-07-15T13:23:22Z</time>
      </trkpt>
      <trkpt lat="42.90228" lon="-0.20736">
        <ele>1305.5</ele>
        <time>2026-07-15T13:23:22Z</time>
      </trkpt>
      <trkpt lat="42.90228" lon="-0.20737">
        <ele>1305.5</ele>
        <time>2026-07-15T13:23:23Z</time>
      </trkpt>
      <trkpt lat="42.90228" lon="-0.20737">
        <ele>1305.5</ele>
        <time>2026-07-15T13:23:23Z</time>
      </trkpt>
      <trkpt lat="42.90228" lon="-0.20738">
        <ele>1305.5</ele>
        <time>2026-07-15T13:23:24Z</time>
      </trkpt>
      <trkpt lat="42.90229" lon="-0.20739">
        <ele>1305.5</ele>
        <time>2026-07-15T13:23:24Z</time>
      </trkpt>
      <trkpt lat="42.90229" lon="-0.2074">
        <ele>1303.5</ele>
        <time>2026-07-15T13:23:25Z</time>
      </trkpt>
      <trkpt lat="42.90229" lon="-0.2074">
        <ele>1303.5</ele>
        <time>2026-07-15T13:23:25Z</time>
      </trkpt>
      <trkpt lat="42.9023" lon="-0.20741">
        <ele>1303.5</ele>
        <time>2026-07-15T13:23:26Z</time>
      </trkpt>
      <trkpt lat="42.9023" lon="-0.20742">
        <ele>1303.5</ele>
        <time>2026-07-15T13:23:26Z</time>
      </trkpt>
      <trkpt lat="42.9023" lon="-0.20742">
        <ele>1303.5</ele>
        <time>2026-07-15T13:23:27Z</time>
      </trkpt>
      <trkpt lat="42.9023" lon="-0.20743">
        <ele>1303.5</ele>
        <time>2026-07-15T13:23:28Z</time>
      </trkpt>
      <trkpt lat="42.90231" lon="-0.20744">
        <ele>1302.5</ele>
        <time>2026-07-15T13:23:29Z</time>
      </trkpt>
      <trkpt lat="42.90231" lon="-0.20745">
        <ele>1302.5</ele>
        <time>2026-07-15T13:23:30Z</time>
      </trkpt>
      <trkpt lat="42.90231" lon="-0.20746">
        <ele>1303.5</ele>
        <time>2026-07-15T13:23:30Z</time>
      </trkpt>
      <trkpt lat="42.90231" lon="-0.20746">
        <ele>1303.5</ele>
        <time>2026-07-15T13:23:31Z</time>
      </trkpt>
      <trkpt lat="42.90232" lon="-0.20747">
        <ele>1303.5</ele>
        <time>2026-07-15T13:23:32Z</time>
      </trkpt>
      <trkpt lat="42.90232" lon="-0.20748">
        <ele>1303.5</ele>
        <time>2026-07-15T13:23:32Z</time>
      </trkpt>
      <trkpt lat="42.90232" lon="-0.20748">
        <ele>1303.5</ele>
        <time>2026-07-15T13:23:33Z</time>
      </trkpt>
      <trkpt lat="42.90233" lon="-0.2075">
        <ele>1302.5</ele>
        <time>2026-07-15T13:23:34Z</time>
      </trkpt>
      <trkpt lat="42.90234" lon="-0.2075">
        <ele>1302.5</ele>
        <time>2026-07-15T13:23:34Z</time>
      </trkpt>
      <trkpt lat="42.90234" lon="-0.20751">
        <ele>1302.5</ele>
        <time>2026-07-15T13:23:35Z</time>
      </trkpt>
      <trkpt lat="42.90234" lon="-0.20751">
        <ele>1301.5</ele>
        <time>2026-07-15T13:23:35Z</time>
      </trkpt>
      <trkpt lat="42.90235" lon="-0.20752">
        <ele>1301.5</ele>
        <time>2026-07-15T13:23:36Z</time>
      </trkpt>
      <trkpt lat="42.90235" lon="-0.20753">
        <ele>1301.5</ele>
        <time>2026-07-15T13:23:36Z</time>
      </trkpt>
      <trkpt lat="42.90235" lon="-0.20753">
        <ele>1301.5</ele>
        <time>2026-07-15T13:23:37Z</time>
      </trkpt>
      <trkpt lat="42.90236" lon="-0.20754">
        <ele>1301.5</ele>
        <time>2026-07-15T13:23:37Z</time>
      </trkpt>
      <trkpt lat="42.90236" lon="-0.20754">
        <ele>1301.5</ele>
        <time>2026-07-15T13:23:38Z</time>
      </trkpt>
      <trkpt lat="42.90237" lon="-0.20755">
        <ele>1301.5</ele>
        <time>2026-07-15T13:23:39Z</time>
      </trkpt>
      <trkpt lat="42.90238" lon="-0.20755">
        <ele>1301.5</ele>
        <time>2026-07-15T13:23:39Z</time>
      </trkpt>
      <trkpt lat="42.90238" lon="-0.20756">
        <ele>1301.5</ele>
        <time>2026-07-15T13:23:40Z</time>
      </trkpt>
      <trkpt lat="42.90238" lon="-0.20756">
        <ele>1301.5</ele>
        <time>2026-07-15T13:23:40Z</time>
      </trkpt>
      <trkpt lat="42.90239" lon="-0.20757">
        <ele>1301.5</ele>
        <time>2026-07-15T13:23:41Z</time>
      </trkpt>
      <trkpt lat="42.90239" lon="-0.20757">
        <ele>1300.5</ele>
        <time>2026-07-15T13:23:41Z</time>
      </trkpt>
      <trkpt lat="42.90239" lon="-0.20757">
        <ele>1300.5</ele>
        <time>2026-07-15T13:23:42Z</time>
      </trkpt>
      <trkpt lat="42.9024" lon="-0.20758">
        <ele>1300.5</ele>
        <time>2026-07-15T13:23:43Z</time>
      </trkpt>
      <trkpt lat="42.90241" lon="-0.20758">
        <ele>1301.5</ele>
        <time>2026-07-15T13:23:43Z</time>
      </trkpt>
      <trkpt lat="42.90241" lon="-0.20758">
        <ele>1300.5</ele>
        <time>2026-07-15T13:23:44Z</time>
      </trkpt>
      <trkpt lat="42.90242" lon="-0.20759">
        <ele>1300.5</ele>
        <time>2026-07-15T13:23:45Z</time>
      </trkpt>
      <trkpt lat="42.90242" lon="-0.20759">
        <ele>1300.5</ele>
        <time>2026-07-15T13:23:45Z</time>
      </trkpt>
      <trkpt lat="42.90243" lon="-0.2076">
        <ele>1300.5</ele>
        <time>2026-07-15T13:23:46Z</time>
      </trkpt>
      <trkpt lat="42.90244" lon="-0.2076">
        <ele>1300.5</ele>
        <time>2026-07-15T13:23:46Z</time>
      </trkpt>
      <trkpt lat="42.90244" lon="-0.20761">
        <ele>1300.5</ele>
        <time>2026-07-15T13:23:47Z</time>
      </trkpt>
      <trkpt lat="42.90245" lon="-0.20761">
        <ele>1300.5</ele>
        <time>2026-07-15T13:23:47Z</time>
      </trkpt>
      <trkpt lat="42.90245" lon="-0.20761">
        <ele>1299.5</ele>
        <time>2026-07-15T13:23:48Z</time>
      </trkpt>
      <trkpt lat="42.90245" lon="-0.20762">
        <ele>1299.5</ele>
        <time>2026-07-15T13:23:49Z</time>
      </trkpt>
      <trkpt lat="42.90246" lon="-0.20761">
        <ele>1298.5</ele>
        <time>2026-07-15T13:23:49Z</time>
      </trkpt>
      <trkpt lat="42.90246" lon="-0.20762">
        <ele>1298.5</ele>
        <time>2026-07-15T13:23:50Z</time>
      </trkpt>
      <trkpt lat="42.90247" lon="-0.20762">
        <ele>1298.5</ele>
        <time>2026-07-15T13:23:51Z</time>
      </trkpt>
      <trkpt lat="42.90247" lon="-0.20762">
        <ele>1298.5</ele>
        <time>2026-07-15T13:23:51Z</time>
      </trkpt>
      <trkpt lat="42.90248" lon="-0.20762">
        <ele>1298.5</ele>
        <time>2026-07-15T13:23:52Z</time>
      </trkpt>
      <trkpt lat="42.90248" lon="-0.20762">
        <ele>1297.5</ele>
        <time>2026-07-15T13:23:52Z</time>
      </trkpt>
      <trkpt lat="42.90249" lon="-0.20762">
        <ele>1297.5</ele>
        <time>2026-07-15T13:23:53Z</time>
      </trkpt>
      <trkpt lat="42.90249" lon="-0.20762">
        <ele>1296.5</ele>
        <time>2026-07-15T13:23:53Z</time>
      </trkpt>
      <trkpt lat="42.90249" lon="-0.20762">
        <ele>1296.5</ele>
        <time>2026-07-15T13:23:54Z</time>
      </trkpt>
      <trkpt lat="42.9025" lon="-0.20763">
        <ele>1296.5</ele>
        <time>2026-07-15T13:23:54Z</time>
      </trkpt>
      <trkpt lat="42.9025" lon="-0.20763">
        <ele>1295.5</ele>
        <time>2026-07-15T13:23:55Z</time>
      </trkpt>
      <trkpt lat="42.90251" lon="-0.20763">
        <ele>1295.5</ele>
        <time>2026-07-15T13:23:56Z</time>
      </trkpt>
      <trkpt lat="42.90251" lon="-0.20763">
        <ele>1295.5</ele>
        <time>2026-07-15T13:23:56Z</time>
      </trkpt>
      <trkpt lat="42.90252" lon="-0.20763">
        <ele>1295.5</ele>
        <time>2026-07-15T13:23:57Z</time>
      </trkpt>
      <trkpt lat="42.90252" lon="-0.20763">
        <ele>1295.5</ele>
        <time>2026-07-15T13:23:57Z</time>
      </trkpt>
      <trkpt lat="42.90252" lon="-0.20763">
        <ele>1295.5</ele>
        <time>2026-07-15T13:23:58Z</time>
      </trkpt>
      <trkpt lat="42.90253" lon="-0.20763">
        <ele>1295.5</ele>
        <time>2026-07-15T13:23:59Z</time>
      </trkpt>
      <trkpt lat="42.90254" lon="-0.20763">
        <ele>1295.5</ele>
        <time>2026-07-15T13:23:59Z</time>
      </trkpt>
      <trkpt lat="42.90255" lon="-0.20764">
        <ele>1295.5</ele>
        <time>2026-07-15T13:24:00Z</time>
      </trkpt>
      <trkpt lat="42.90256" lon="-0.20764">
        <ele>1295.5</ele>
        <time>2026-07-15T13:24:01Z</time>
      </trkpt>
      <trkpt lat="42.90256" lon="-0.20764">
        <ele>1293.5</ele>
        <time>2026-07-15T13:24:02Z</time>
      </trkpt>
      <trkpt lat="42.90257" lon="-0.20765">
        <ele>1293.5</ele>
        <time>2026-07-15T13:24:03Z</time>
      </trkpt>
      <trkpt lat="42.90257" lon="-0.20765">
        <ele>1293.5</ele>
        <time>2026-07-15T13:24:04Z</time>
      </trkpt>
      <trkpt lat="42.90257" lon="-0.20765">
        <ele>1293.5</ele>
        <time>2026-07-15T13:24:04Z</time>
      </trkpt>
      <trkpt lat="42.90258" lon="-0.20765">
        <ele>1293.5</ele>
        <time>2026-07-15T13:24:05Z</time>
      </trkpt>
      <trkpt lat="42.90258" lon="-0.20765">
        <ele>1293.5</ele>
        <time>2026-07-15T13:24:06Z</time>
      </trkpt>
      <trkpt lat="42.90258" lon="-0.20766">
        <ele>1293.5</ele>
        <time>2026-07-15T13:24:06Z</time>
      </trkpt>
      <trkpt lat="42.90259" lon="-0.20766">
        <ele>1293.5</ele>
        <time>2026-07-15T13:24:07Z</time>
      </trkpt>
      <trkpt lat="42.90259" lon="-0.20766">
        <ele>1293.5</ele>
        <time>2026-07-15T13:24:07Z</time>
      </trkpt>
      <trkpt lat="42.9026" lon="-0.20765">
        <ele>1293.5</ele>
        <time>2026-07-15T13:24:07Z</time>
      </trkpt>
      <trkpt lat="42.9026" lon="-0.20765">
        <ele>1293.5</ele>
        <time>2026-07-15T13:24:08Z</time>
      </trkpt>
      <trkpt lat="42.9026" lon="-0.20765">
        <ele>1291.5</ele>
        <time>2026-07-15T13:24:08Z</time>
      </trkpt>
      <trkpt lat="42.9026" lon="-0.20764">
        <ele>1291.5</ele>
        <time>2026-07-15T13:24:09Z</time>
      </trkpt>
      <trkpt lat="42.9026" lon="-0.20764">
        <ele>1290.5</ele>
        <time>2026-07-15T13:24:10Z</time>
      </trkpt>
      <trkpt lat="42.9026" lon="-0.20764">
        <ele>1289.5</ele>
        <time>2026-07-15T13:24:10Z</time>
      </trkpt>
      <trkpt lat="42.90259" lon="-0.20764">
        <ele>1289.5</ele>
        <time>2026-07-15T13:24:11Z</time>
      </trkpt>
      <trkpt lat="42.90259" lon="-0.20764">
        <ele>1289.5</ele>
        <time>2026-07-15T13:24:11Z</time>
      </trkpt>
      <trkpt lat="42.9026" lon="-0.20764">
        <ele>1289.5</ele>
        <time>2026-07-15T13:24:12Z</time>
      </trkpt>
      <trkpt lat="42.90259" lon="-0.20763">
        <ele>1289.5</ele>
        <time>2026-07-15T13:24:12Z</time>
      </trkpt>
      <trkpt lat="42.9026" lon="-0.20763">
        <ele>1288.5</ele>
        <time>2026-07-15T13:24:13Z</time>
      </trkpt>
      <trkpt lat="42.9026" lon="-0.20762">
        <ele>1288.5</ele>
        <time>2026-07-15T13:24:14Z</time>
      </trkpt>
      <trkpt lat="42.90261" lon="-0.20762">
        <ele>1288.5</ele>
        <time>2026-07-15T13:24:14Z</time>
      </trkpt>
      <trkpt lat="42.90261" lon="-0.20762">
        <ele>1289.5</ele>
        <time>2026-07-15T13:24:15Z</time>
      </trkpt>
      <trkpt lat="42.90262" lon="-0.20762">
        <ele>1289.5</ele>
        <time>2026-07-15T13:24:16Z</time>
      </trkpt>
      <trkpt lat="42.90262" lon="-0.20761">
        <ele>1288.5</ele>
        <time>2026-07-15T13:24:17Z</time>
      </trkpt>
      <trkpt lat="42.90263" lon="-0.20761">
        <ele>1288.5</ele>
        <time>2026-07-15T13:24:17Z</time>
      </trkpt>
      <trkpt lat="42.90263" lon="-0.20761">
        <ele>1287.5</ele>
        <time>2026-07-15T13:24:18Z</time>
      </trkpt>
      <trkpt lat="42.90263" lon="-0.20761">
        <ele>1287.5</ele>
        <time>2026-07-15T13:24:18Z</time>
      </trkpt>
      <trkpt lat="42.90264" lon="-0.20761">
        <ele>1287.5</ele>
        <time>2026-07-15T13:24:19Z</time>
      </trkpt>
      <trkpt lat="42.90264" lon="-0.20761">
        <ele>1287.5</ele>
        <time>2026-07-15T13:24:19Z</time>
      </trkpt>
      <trkpt lat="42.90265" lon="-0.20761">
        <ele>1287.5</ele>
        <time>2026-07-15T13:24:20Z</time>
      </trkpt>
      <trkpt lat="42.90266" lon="-0.20761">
        <ele>1287.5</ele>
        <time>2026-07-15T13:24:21Z</time>
      </trkpt>
      <trkpt lat="42.90266" lon="-0.20762">
        <ele>1286.5</ele>
        <time>2026-07-15T13:24:21Z</time>
      </trkpt>
      <trkpt lat="42.90267" lon="-0.20762">
        <ele>1286.5</ele>
        <time>2026-07-15T13:24:22Z</time>
      </trkpt>
      <trkpt lat="42.90267" lon="-0.20763">
        <ele>1286.5</ele>
        <time>2026-07-15T13:24:22Z</time>
      </trkpt>
      <trkpt lat="42.90269" lon="-0.20764">
        <ele>1285.5</ele>
        <time>2026-07-15T13:24:24Z</time>
      </trkpt>
      <trkpt lat="42.90269" lon="-0.20764">
        <ele>1285.5</ele>
        <time>2026-07-15T13:24:24Z</time>
      </trkpt>
      <trkpt lat="42.90269" lon="-0.20764">
        <ele>1285.5</ele>
        <time>2026-07-15T13:24:25Z</time>
      </trkpt>
      <trkpt lat="42.9027" lon="-0.20765">
        <ele>1285.5</ele>
        <time>2026-07-15T13:24:25Z</time>
      </trkpt>
      <trkpt lat="42.9027" lon="-0.20765">
        <ele>1285.5</ele>
        <time>2026-07-15T13:24:26Z</time>
      </trkpt>
      <trkpt lat="42.90271" lon="-0.20766">
        <ele>1284.5</ele>
        <time>2026-07-15T13:24:27Z</time>
      </trkpt>
      <trkpt lat="42.90271" lon="-0.20766">
        <ele>1284.5</ele>
        <time>2026-07-15T13:24:27Z</time>
      </trkpt>
      <trkpt lat="42.90272" lon="-0.20766">
        <ele>1284.5</ele>
        <time>2026-07-15T13:24:28Z</time>
      </trkpt>
      <trkpt lat="42.90272" lon="-0.20766">
        <ele>1283.5</ele>
        <time>2026-07-15T13:24:29Z</time>
      </trkpt>
      <trkpt lat="42.90272" lon="-0.20766">
        <ele>1282.5</ele>
        <time>2026-07-15T13:24:29Z</time>
      </trkpt>
      <trkpt lat="42.90273" lon="-0.20766">
        <ele>1282.5</ele>
        <time>2026-07-15T13:24:30Z</time>
      </trkpt>
      <trkpt lat="42.90273" lon="-0.20765">
        <ele>1282.5</ele>
        <time>2026-07-15T13:24:30Z</time>
      </trkpt>
      <trkpt lat="42.90274" lon="-0.20765">
        <ele>1282.5</ele>
        <time>2026-07-15T13:24:31Z</time>
      </trkpt>
      <trkpt lat="42.90275" lon="-0.20765">
        <ele>1282.5</ele>
        <time>2026-07-15T13:24:32Z</time>
      </trkpt>
      <trkpt lat="42.90275" lon="-0.20765">
        <ele>1281.5</ele>
        <time>2026-07-15T13:24:32Z</time>
      </trkpt>
      <trkpt lat="42.90275" lon="-0.20766">
        <ele>1280.5</ele>
        <time>2026-07-15T13:24:33Z</time>
      </trkpt>
      <trkpt lat="42.90275" lon="-0.20766">
        <ele>1280.5</ele>
        <time>2026-07-15T13:24:34Z</time>
      </trkpt>
      <trkpt lat="42.90276" lon="-0.20766">
        <ele>1280.5</ele>
        <time>2026-07-15T13:24:34Z</time>
      </trkpt>
      <trkpt lat="42.90276" lon="-0.20767">
        <ele>1280.5</ele>
        <time>2026-07-15T13:24:35Z</time>
      </trkpt>
      <trkpt lat="42.90275" lon="-0.20768">
        <ele>1280.5</ele>
        <time>2026-07-15T13:24:35Z</time>
      </trkpt>
      <trkpt lat="42.90275" lon="-0.20768">
        <ele>1279.5</ele>
        <time>2026-07-15T13:24:36Z</time>
      </trkpt>
      <trkpt lat="42.90276" lon="-0.20769">
        <ele>1279.5</ele>
        <time>2026-07-15T13:24:37Z</time>
      </trkpt>
      <trkpt lat="42.90276" lon="-0.20769">
        <ele>1279.5</ele>
        <time>2026-07-15T13:24:37Z</time>
      </trkpt>
      <trkpt lat="42.90277" lon="-0.20769">
        <ele>1279.5</ele>
        <time>2026-07-15T13:24:38Z</time>
      </trkpt>
      <trkpt lat="42.90278" lon="-0.20769">
        <ele>1279.5</ele>
        <time>2026-07-15T13:24:38Z</time>
      </trkpt>
      <trkpt lat="42.90279" lon="-0.20769">
        <ele>1279.5</ele>
        <time>2026-07-15T13:24:39Z</time>
      </trkpt>
      <trkpt lat="42.9028" lon="-0.20769">
        <ele>1279.5</ele>
        <time>2026-07-15T13:24:40Z</time>
      </trkpt>
      <trkpt lat="42.90281" lon="-0.2077">
        <ele>1279.5</ele>
        <time>2026-07-15T13:24:40Z</time>
      </trkpt>
      <trkpt lat="42.9028" lon="-0.2077">
        <ele>1279.5</ele>
        <time>2026-07-15T13:24:41Z</time>
      </trkpt>
      <trkpt lat="42.9028" lon="-0.2077">
        <ele>1279.5</ele>
        <time>2026-07-15T13:24:41Z</time>
      </trkpt>
      <trkpt lat="42.9028" lon="-0.20769">
        <ele>1278.5</ele>
        <time>2026-07-15T13:24:42Z</time>
      </trkpt>
      <trkpt lat="42.9028" lon="-0.20769">
        <ele>1278.5</ele>
        <time>2026-07-15T13:24:43Z</time>
      </trkpt>
      <trkpt lat="42.9028" lon="-0.20769">
        <ele>1278.5</ele>
        <time>2026-07-15T13:24:43Z</time>
      </trkpt>
      <trkpt lat="42.9028" lon="-0.20769">
        <ele>1278.5</ele>
        <time>2026-07-15T13:24:44Z</time>
      </trkpt>
      <trkpt lat="42.9028" lon="-0.20768">
        <ele>1278.5</ele>
        <time>2026-07-15T13:24:44Z</time>
      </trkpt>
      <trkpt lat="42.90281" lon="-0.20768">
        <ele>1278.5</ele>
        <time>2026-07-15T13:24:45Z</time>
      </trkpt>
      <trkpt lat="42.9028" lon="-0.20767">
        <ele>1278.5</ele>
        <time>2026-07-15T13:24:45Z</time>
      </trkpt>
      <trkpt lat="42.9028" lon="-0.20766">
        <ele>1277.5</ele>
        <time>2026-07-15T13:24:46Z</time>
      </trkpt>
      <trkpt lat="42.90281" lon="-0.20765">
        <ele>1277.5</ele>
        <time>2026-07-15T13:24:47Z</time>
      </trkpt>
      <trkpt lat="42.9028" lon="-0.20763">
        <ele>1278.5</ele>
        <time>2026-07-15T13:24:47Z</time>
      </trkpt>
      <trkpt lat="42.9028" lon="-0.20762">
        <ele>1278.5</ele>
        <time>2026-07-15T13:24:48Z</time>
      </trkpt>
      <trkpt lat="42.9028" lon="-0.20761">
        <ele>1278.5</ele>
        <time>2026-07-15T13:24:48Z</time>
      </trkpt>
      <trkpt lat="42.9028" lon="-0.2076">
        <ele>1279.5</ele>
        <time>2026-07-15T13:24:49Z</time>
      </trkpt>
      <trkpt lat="42.9028" lon="-0.20759">
        <ele>1279.5</ele>
        <time>2026-07-15T13:24:50Z</time>
      </trkpt>
      <trkpt lat="42.9028" lon="-0.20758">
        <ele>1279.5</ele>
        <time>2026-07-15T13:24:50Z</time>
      </trkpt>
      <trkpt lat="42.90279" lon="-0.20756">
        <ele>1279.5</ele>
        <time>2026-07-15T13:24:51Z</time>
      </trkpt>
      <trkpt lat="42.90279" lon="-0.20756">
        <ele>1278.5</ele>
        <time>2026-07-15T13:24:51Z</time>
      </trkpt>
      <trkpt lat="42.90279" lon="-0.20754">
        <ele>1278.5</ele>
        <time>2026-07-15T13:24:52Z</time>
      </trkpt>
      <trkpt lat="42.90278" lon="-0.20753">
        <ele>1278.5</ele>
        <time>2026-07-15T13:24:53Z</time>
      </trkpt>
      <trkpt lat="42.90278" lon="-0.20752">
        <ele>1279.5</ele>
        <time>2026-07-15T13:24:53Z</time>
      </trkpt>
      <trkpt lat="42.90278" lon="-0.20751">
        <ele>1279.5</ele>
        <time>2026-07-15T13:24:54Z</time>
      </trkpt>
      <trkpt lat="42.90278" lon="-0.2075">
        <ele>1278.5</ele>
        <time>2026-07-15T13:24:54Z</time>
      </trkpt>
      <trkpt lat="42.90278" lon="-0.20749">
        <ele>1278.5</ele>
        <time>2026-07-15T13:24:55Z</time>
      </trkpt>
      <trkpt lat="42.90279" lon="-0.20748">
        <ele>1278.5</ele>
        <time>2026-07-15T13:24:55Z</time>
      </trkpt>
      <trkpt lat="42.90279" lon="-0.20748">
        <ele>1278.5</ele>
        <time>2026-07-15T13:24:56Z</time>
      </trkpt>
      <trkpt lat="42.9028" lon="-0.20747">
        <ele>1278.5</ele>
        <time>2026-07-15T13:24:57Z</time>
      </trkpt>
      <trkpt lat="42.9028" lon="-0.20747">
        <ele>1277.5</ele>
        <time>2026-07-15T13:24:57Z</time>
      </trkpt>
      <trkpt lat="42.90281" lon="-0.20746">
        <ele>1277.5</ele>
        <time>2026-07-15T13:24:57Z</time>
      </trkpt>
      <trkpt lat="42.90282" lon="-0.20746">
        <ele>1277.5</ele>
        <time>2026-07-15T13:24:58Z</time>
      </trkpt>
      <trkpt lat="42.90283" lon="-0.20746">
        <ele>1277.5</ele>
        <time>2026-07-15T13:24:59Z</time>
      </trkpt>
      <trkpt lat="42.90284" lon="-0.20746">
        <ele>1276.5</ele>
        <time>2026-07-15T13:25:00Z</time>
      </trkpt>
      <trkpt lat="42.90286" lon="-0.20746">
        <ele>1275.5</ele>
        <time>2026-07-15T13:25:01Z</time>
      </trkpt>
      <trkpt lat="42.90288" lon="-0.20746">
        <ele>1274.5</ele>
        <time>2026-07-15T13:25:02Z</time>
      </trkpt>
      <trkpt lat="42.90288" lon="-0.20747">
        <ele>1274.5</ele>
        <time>2026-07-15T13:25:03Z</time>
      </trkpt>
      <trkpt lat="42.90289" lon="-0.20748">
        <ele>1274.5</ele>
        <time>2026-07-15T13:25:03Z</time>
      </trkpt>
      <trkpt lat="42.9029" lon="-0.20748">
        <ele>1274.5</ele>
        <time>2026-07-15T13:25:04Z</time>
      </trkpt>
      <trkpt lat="42.9029" lon="-0.20748">
        <ele>1274.5</ele>
        <time>2026-07-15T13:25:04Z</time>
      </trkpt>
      <trkpt lat="42.90291" lon="-0.20747">
        <ele>1274.5</ele>
        <time>2026-07-15T13:25:05Z</time>
      </trkpt>
      <trkpt lat="42.90292" lon="-0.20747">
        <ele>1273.5</ele>
        <time>2026-07-15T13:25:06Z</time>
      </trkpt>
      <trkpt lat="42.90293" lon="-0.20747">
        <ele>1273.5</ele>
        <time>2026-07-15T13:25:07Z</time>
      </trkpt>
      <trkpt lat="42.90293" lon="-0.20748">
        <ele>1273.5</ele>
        <time>2026-07-15T13:25:08Z</time>
      </trkpt>
      <trkpt lat="42.90293" lon="-0.20749">
        <ele>1273.5</ele>
        <time>2026-07-15T13:25:08Z</time>
      </trkpt>
      <trkpt lat="42.90294" lon="-0.20749">
        <ele>1273.5</ele>
        <time>2026-07-15T13:25:09Z</time>
      </trkpt>
      <trkpt lat="42.90294" lon="-0.2075">
        <ele>1272.5</ele>
        <time>2026-07-15T13:25:09Z</time>
      </trkpt>
      <trkpt lat="42.90294" lon="-0.2075">
        <ele>1271.5</ele>
        <time>2026-07-15T13:25:10Z</time>
      </trkpt>
      <trkpt lat="42.90295" lon="-0.20751">
        <ele>1271.5</ele>
        <time>2026-07-15T13:25:11Z</time>
      </trkpt>
      <trkpt lat="42.90295" lon="-0.20751">
        <ele>1271.5</ele>
        <time>2026-07-15T13:25:11Z</time>
      </trkpt>
      <trkpt lat="42.90296" lon="-0.20752">
        <ele>1271.5</ele>
        <time>2026-07-15T13:25:12Z</time>
      </trkpt>
      <trkpt lat="42.90296" lon="-0.20752">
        <ele>1271.5</ele>
        <time>2026-07-15T13:25:13Z</time>
      </trkpt>
      <trkpt lat="42.90296" lon="-0.20753">
        <ele>1271.5</ele>
        <time>2026-07-15T13:25:13Z</time>
      </trkpt>
      <trkpt lat="42.90297" lon="-0.20753">
        <ele>1271.5</ele>
        <time>2026-07-15T13:25:14Z</time>
      </trkpt>
      <trkpt lat="42.90297" lon="-0.20753">
        <ele>1271.5</ele>
        <time>2026-07-15T13:25:14Z</time>
      </trkpt>
      <trkpt lat="42.90298" lon="-0.20753">
        <ele>1271.5</ele>
        <time>2026-07-15T13:25:15Z</time>
      </trkpt>
      <trkpt lat="42.90298" lon="-0.20752">
        <ele>1271.5</ele>
        <time>2026-07-15T13:25:16Z</time>
      </trkpt>
      <trkpt lat="42.90297" lon="-0.20751">
        <ele>1271.5</ele>
        <time>2026-07-15T13:25:16Z</time>
      </trkpt>
      <trkpt lat="42.90297" lon="-0.2075">
        <ele>1271.5</ele>
        <time>2026-07-15T13:25:17Z</time>
      </trkpt>
      <trkpt lat="42.90297" lon="-0.2075">
        <ele>1271.5</ele>
        <time>2026-07-15T13:25:17Z</time>
      </trkpt>
      <trkpt lat="42.90298" lon="-0.2075">
        <ele>1271.5</ele>
        <time>2026-07-15T13:25:18Z</time>
      </trkpt>
      <trkpt lat="42.90298" lon="-0.2075">
        <ele>1271.5</ele>
        <time>2026-07-15T13:25:18Z</time>
      </trkpt>
      <trkpt lat="42.90298" lon="-0.2075">
        <ele>1270.5</ele>
        <time>2026-07-15T13:25:19Z</time>
      </trkpt>
      <trkpt lat="42.90299" lon="-0.2075">
        <ele>1270.5</ele>
        <time>2026-07-15T13:25:20Z</time>
      </trkpt>
      <trkpt lat="42.903" lon="-0.2075">
        <ele>1270.5</ele>
        <time>2026-07-15T13:25:21Z</time>
      </trkpt>
      <trkpt lat="42.903" lon="-0.20749">
        <ele>1270.5</ele>
        <time>2026-07-15T13:25:22Z</time>
      </trkpt>
      <trkpt lat="42.903" lon="-0.20749">
        <ele>1270.5</ele>
        <time>2026-07-15T13:25:22Z</time>
      </trkpt>
      <trkpt lat="42.90301" lon="-0.20749">
        <ele>1270.5</ele>
        <time>2026-07-15T13:25:23Z</time>
      </trkpt>
      <trkpt lat="42.90302" lon="-0.20749">
        <ele>1270.5</ele>
        <time>2026-07-15T13:25:24Z</time>
      </trkpt>
      <trkpt lat="42.90302" lon="-0.20748">
        <ele>1269.5</ele>
        <time>2026-07-15T13:25:25Z</time>
      </trkpt>
      <trkpt lat="42.90303" lon="-0.20748">
        <ele>1269.5</ele>
        <time>2026-07-15T13:25:25Z</time>
      </trkpt>
      <trkpt lat="42.90303" lon="-0.20747">
        <ele>1269.5</ele>
        <time>2026-07-15T13:25:26Z</time>
      </trkpt>
      <trkpt lat="42.90303" lon="-0.20746">
        <ele>1269.5</ele>
        <time>2026-07-15T13:25:27Z</time>
      </trkpt>
      <trkpt lat="42.90304" lon="-0.20746">
        <ele>1268.5</ele>
        <time>2026-07-15T13:25:28Z</time>
      </trkpt>
      <trkpt lat="42.90304" lon="-0.20746">
        <ele>1268.5</ele>
        <time>2026-07-15T13:25:28Z</time>
      </trkpt>
      <trkpt lat="42.90305" lon="-0.20746">
        <ele>1268.5</ele>
        <time>2026-07-15T13:25:29Z</time>
      </trkpt>
      <trkpt lat="42.90306" lon="-0.20746">
        <ele>1268.5</ele>
        <time>2026-07-15T13:25:30Z</time>
      </trkpt>
      <trkpt lat="42.90306" lon="-0.20745">
        <ele>1268.5</ele>
        <time>2026-07-15T13:25:31Z</time>
      </trkpt>
      <trkpt lat="42.90306" lon="-0.20744">
        <ele>1268.5</ele>
        <time>2026-07-15T13:25:32Z</time>
      </trkpt>
      <trkpt lat="42.90306" lon="-0.20744">
        <ele>1268.5</ele>
        <time>2026-07-15T13:25:32Z</time>
      </trkpt>
      <trkpt lat="42.90307" lon="-0.20744">
        <ele>1268.5</ele>
        <time>2026-07-15T13:25:33Z</time>
      </trkpt>
      <trkpt lat="42.90307" lon="-0.20743">
        <ele>1268.5</ele>
        <time>2026-07-15T13:25:34Z</time>
      </trkpt>
      <trkpt lat="42.90307" lon="-0.20743">
        <ele>1268.5</ele>
        <time>2026-07-15T13:25:35Z</time>
      </trkpt>
      <trkpt lat="42.90306" lon="-0.20743">
        <ele>1267.5</ele>
        <time>2026-07-15T13:25:35Z</time>
      </trkpt>
      <trkpt lat="42.90306" lon="-0.20744">
        <ele>1267.5</ele>
        <time>2026-07-15T13:25:36Z</time>
      </trkpt>
      <trkpt lat="42.90306" lon="-0.20744">
        <ele>1267.5</ele>
        <time>2026-07-15T13:25:37Z</time>
      </trkpt>
      <trkpt lat="42.90307" lon="-0.20745">
        <ele>1267.5</ele>
        <time>2026-07-15T13:25:37Z</time>
      </trkpt>
      <trkpt lat="42.90307" lon="-0.20746">
        <ele>1267.5</ele>
        <time>2026-07-15T13:25:38Z</time>
      </trkpt>
      <trkpt lat="42.90307" lon="-0.20747">
        <ele>1267.5</ele>
        <time>2026-07-15T13:25:39Z</time>
      </trkpt>
      <trkpt lat="42.90307" lon="-0.20748">
        <ele>1266.5</ele>
        <time>2026-07-15T13:25:39Z</time>
      </trkpt>
      <trkpt lat="42.90306" lon="-0.20749">
        <ele>1266.5</ele>
        <time>2026-07-15T13:25:40Z</time>
      </trkpt>
      <trkpt lat="42.90306" lon="-0.2075">
        <ele>1265.5</ele>
        <time>2026-07-15T13:25:41Z</time>
      </trkpt>
      <trkpt lat="42.90306" lon="-0.2075">
        <ele>1265.5</ele>
        <time>2026-07-15T13:25:41Z</time>
      </trkpt>
      <trkpt lat="42.90306" lon="-0.20751">
        <ele>1265.5</ele>
        <time>2026-07-15T13:25:42Z</time>
      </trkpt>
      <trkpt lat="42.90306" lon="-0.20752">
        <ele>1264.5</ele>
        <time>2026-07-15T13:25:42Z</time>
      </trkpt>
      <trkpt lat="42.90307" lon="-0.20752">
        <ele>1264.5</ele>
        <time>2026-07-15T13:25:43Z</time>
      </trkpt>
      <trkpt lat="42.90307" lon="-0.20751">
        <ele>1264.5</ele>
        <time>2026-07-15T13:25:44Z</time>
      </trkpt>
      <trkpt lat="42.90308" lon="-0.2075">
        <ele>1263.5</ele>
        <time>2026-07-15T13:25:44Z</time>
      </trkpt>
      <trkpt lat="42.90308" lon="-0.2075">
        <ele>1263.5</ele>
        <time>2026-07-15T13:25:45Z</time>
      </trkpt>
      <trkpt lat="42.90309" lon="-0.20749">
        <ele>1262.5</ele>
        <time>2026-07-15T13:25:45Z</time>
      </trkpt>
      <trkpt lat="42.90309" lon="-0.20748">
        <ele>1262.5</ele>
        <time>2026-07-15T13:25:46Z</time>
      </trkpt>
      <trkpt lat="42.90309" lon="-0.20747">
        <ele>1262.5</ele>
        <time>2026-07-15T13:25:47Z</time>
      </trkpt>
      <trkpt lat="42.90309" lon="-0.20746">
        <ele>1262.5</ele>
        <time>2026-07-15T13:25:47Z</time>
      </trkpt>
      <trkpt lat="42.90309" lon="-0.20745">
        <ele>1262.5</ele>
        <time>2026-07-15T13:25:48Z</time>
      </trkpt>
      <trkpt lat="42.90309" lon="-0.20744">
        <ele>1262.5</ele>
        <time>2026-07-15T13:25:48Z</time>
      </trkpt>
      <trkpt lat="42.9031" lon="-0.20743">
        <ele>1262.5</ele>
        <time>2026-07-15T13:25:49Z</time>
      </trkpt>
      <trkpt lat="42.9031" lon="-0.20742">
        <ele>1261.5</ele>
        <time>2026-07-15T13:25:49Z</time>
      </trkpt>
      <trkpt lat="42.9031" lon="-0.20741">
        <ele>1261.5</ele>
        <time>2026-07-15T13:25:50Z</time>
      </trkpt>
      <trkpt lat="42.90311" lon="-0.2074">
        <ele>1260.5</ele>
        <time>2026-07-15T13:25:51Z</time>
      </trkpt>
      <trkpt lat="42.90311" lon="-0.2074">
        <ele>1260.5</ele>
        <time>2026-07-15T13:25:51Z</time>
      </trkpt>
      <trkpt lat="42.90311" lon="-0.20739">
        <ele>1260.5</ele>
        <time>2026-07-15T13:25:52Z</time>
      </trkpt>
      <trkpt lat="42.90311" lon="-0.20738">
        <ele>1260.5</ele>
        <time>2026-07-15T13:25:52Z</time>
      </trkpt>
      <trkpt lat="42.90312" lon="-0.20737">
        <ele>1260.5</ele>
        <time>2026-07-15T13:25:53Z</time>
      </trkpt>
      <trkpt lat="42.90311" lon="-0.20737">
        <ele>1260.5</ele>
        <time>2026-07-15T13:25:53Z</time>
      </trkpt>
      <trkpt lat="42.90312" lon="-0.20736">
        <ele>1260.5</ele>
        <time>2026-07-15T13:25:54Z</time>
      </trkpt>
      <trkpt lat="42.90312" lon="-0.20735">
        <ele>1260.5</ele>
        <time>2026-07-15T13:25:55Z</time>
      </trkpt>
      <trkpt lat="42.90312" lon="-0.20734">
        <ele>1259.5</ele>
        <time>2026-07-15T13:25:55Z</time>
      </trkpt>
      <trkpt lat="42.90312" lon="-0.20733">
        <ele>1259.5</ele>
        <time>2026-07-15T13:25:56Z</time>
      </trkpt>
      <trkpt lat="42.90312" lon="-0.20732">
        <ele>1259.5</ele>
        <time>2026-07-15T13:25:56Z</time>
      </trkpt>
      <trkpt lat="42.90312" lon="-0.20731">
        <ele>1259.5</ele>
        <time>2026-07-15T13:25:57Z</time>
      </trkpt>
      <trkpt lat="42.90312" lon="-0.2073">
        <ele>1259.5</ele>
        <time>2026-07-15T13:25:57Z</time>
      </trkpt>
      <trkpt lat="42.90313" lon="-0.20729">
        <ele>1259.5</ele>
        <time>2026-07-15T13:25:58Z</time>
      </trkpt>
      <trkpt lat="42.90314" lon="-0.20728">
        <ele>1259.5</ele>
        <time>2026-07-15T13:25:59Z</time>
      </trkpt>
      <trkpt lat="42.90315" lon="-0.20728">
        <ele>1259.5</ele>
        <time>2026-07-15T13:25:59Z</time>
      </trkpt>
      <trkpt lat="42.90315" lon="-0.20729">
        <ele>1260.5</ele>
        <time>2026-07-15T13:26:00Z</time>
      </trkpt>
      <trkpt lat="42.90316" lon="-0.20729">
        <ele>1260.5</ele>
        <time>2026-07-15T13:26:00Z</time>
      </trkpt>
      <trkpt lat="42.90316" lon="-0.2073">
        <ele>1260.5</ele>
        <time>2026-07-15T13:26:01Z</time>
      </trkpt>
      <trkpt lat="42.90317" lon="-0.20731">
        <ele>1258.5</ele>
        <time>2026-07-15T13:26:02Z</time>
      </trkpt>
      <trkpt lat="42.90317" lon="-0.20731">
        <ele>1259.5</ele>
        <time>2026-07-15T13:26:02Z</time>
      </trkpt>
      <trkpt lat="42.90318" lon="-0.20732">
        <ele>1259.5</ele>
        <time>2026-07-15T13:26:03Z</time>
      </trkpt>
      <trkpt lat="42.90319" lon="-0.20732">
        <ele>1259.5</ele>
        <time>2026-07-15T13:26:03Z</time>
      </trkpt>
      <trkpt lat="42.90319" lon="-0.20732">
        <ele>1259.5</ele>
        <time>2026-07-15T13:26:04Z</time>
      </trkpt>
      <trkpt lat="42.9032" lon="-0.20733">
        <ele>1259.5</ele>
        <time>2026-07-15T13:26:05Z</time>
      </trkpt>
      <trkpt lat="42.9032" lon="-0.20733">
        <ele>1258.5</ele>
        <time>2026-07-15T13:26:05Z</time>
      </trkpt>
      <trkpt lat="42.9032" lon="-0.20733">
        <ele>1258.5</ele>
        <time>2026-07-15T13:26:06Z</time>
      </trkpt>
      <trkpt lat="42.90321" lon="-0.20733">
        <ele>1258.5</ele>
        <time>2026-07-15T13:26:06Z</time>
      </trkpt>
      <trkpt lat="42.90322" lon="-0.20732">
        <ele>1258.5</ele>
        <time>2026-07-15T13:26:07Z</time>
      </trkpt>
      <trkpt lat="42.90322" lon="-0.20732">
        <ele>1258.5</ele>
        <time>2026-07-15T13:26:07Z</time>
      </trkpt>
      <trkpt lat="42.90323" lon="-0.20732">
        <ele>1258.5</ele>
        <time>2026-07-15T13:26:08Z</time>
      </trkpt>
      <trkpt lat="42.90324" lon="-0.20732">
        <ele>1258.5</ele>
        <time>2026-07-15T13:26:08Z</time>
      </trkpt>
      <trkpt lat="42.90325" lon="-0.20732">
        <ele>1258.5</ele>
        <time>2026-07-15T13:26:09Z</time>
      </trkpt>
      <trkpt lat="42.90325" lon="-0.20732">
        <ele>1258.5</ele>
        <time>2026-07-15T13:26:09Z</time>
      </trkpt>
      <trkpt lat="42.90326" lon="-0.20732">
        <ele>1258.5</ele>
        <time>2026-07-15T13:26:10Z</time>
      </trkpt>
      <trkpt lat="42.90326" lon="-0.20733">
        <ele>1257.5</ele>
        <time>2026-07-15T13:26:10Z</time>
      </trkpt>
      <trkpt lat="42.90327" lon="-0.20733">
        <ele>1257.5</ele>
        <time>2026-07-15T13:26:11Z</time>
      </trkpt>
      <trkpt lat="42.90327" lon="-0.20733">
        <ele>1257.5</ele>
        <time>2026-07-15T13:26:11Z</time>
      </trkpt>
      <trkpt lat="42.90328" lon="-0.20733">
        <ele>1257.5</ele>
        <time>2026-07-15T13:26:12Z</time>
      </trkpt>
      <trkpt lat="42.90328" lon="-0.20734">
        <ele>1258.5</ele>
        <time>2026-07-15T13:26:13Z</time>
      </trkpt>
      <trkpt lat="42.90328" lon="-0.20735">
        <ele>1257.5</ele>
        <time>2026-07-15T13:26:14Z</time>
      </trkpt>
      <trkpt lat="42.90329" lon="-0.20737">
        <ele>1257.5</ele>
        <time>2026-07-15T13:26:15Z</time>
      </trkpt>
      <trkpt lat="42.9033" lon="-0.20738">
        <ele>1257.5</ele>
        <time>2026-07-15T13:26:16Z</time>
      </trkpt>
      <trkpt lat="42.9033" lon="-0.2074">
        <ele>1257.5</ele>
        <time>2026-07-15T13:26:17Z</time>
      </trkpt>
      <trkpt lat="42.9033" lon="-0.20741">
        <ele>1257.5</ele>
        <time>2026-07-15T13:26:17Z</time>
      </trkpt>
      <trkpt lat="42.90331" lon="-0.20742">
        <ele>1257.5</ele>
        <time>2026-07-15T13:26:18Z</time>
      </trkpt>
      <trkpt lat="42.90332" lon="-0.20743">
        <ele>1258.5</ele>
        <time>2026-07-15T13:26:19Z</time>
      </trkpt>
      <trkpt lat="42.90332" lon="-0.20744">
        <ele>1258.5</ele>
        <time>2026-07-15T13:26:20Z</time>
      </trkpt>
      <trkpt lat="42.90333" lon="-0.20744">
        <ele>1258.5</ele>
        <time>2026-07-15T13:26:20Z</time>
      </trkpt>
      <trkpt lat="42.90334" lon="-0.20745">
        <ele>1258.5</ele>
        <time>2026-07-15T13:26:21Z</time>
      </trkpt>
      <trkpt lat="42.90334" lon="-0.20745">
        <ele>1258.5</ele>
        <time>2026-07-15T13:26:21Z</time>
      </trkpt>
      <trkpt lat="42.90335" lon="-0.20745">
        <ele>1258.5</ele>
        <time>2026-07-15T13:26:22Z</time>
      </trkpt>
      <trkpt lat="42.90335" lon="-0.20745">
        <ele>1257.5</ele>
        <time>2026-07-15T13:26:22Z</time>
      </trkpt>
      <trkpt lat="42.90335" lon="-0.20745">
        <ele>1258.5</ele>
        <time>2026-07-15T13:26:23Z</time>
      </trkpt>
      <trkpt lat="42.90336" lon="-0.20746">
        <ele>1258.5</ele>
        <time>2026-07-15T13:26:24Z</time>
      </trkpt>
      <trkpt lat="42.90337" lon="-0.20747">
        <ele>1258.5</ele>
        <time>2026-07-15T13:26:25Z</time>
      </trkpt>
      <trkpt lat="42.90338" lon="-0.20747">
        <ele>1258.5</ele>
        <time>2026-07-15T13:26:26Z</time>
      </trkpt>
      <trkpt lat="42.90338" lon="-0.20747">
        <ele>1257.5</ele>
        <time>2026-07-15T13:26:26Z</time>
      </trkpt>
      <trkpt lat="42.90339" lon="-0.20748">
        <ele>1257.5</ele>
        <time>2026-07-15T13:26:27Z</time>
      </trkpt>
      <trkpt lat="42.90339" lon="-0.20748">
        <ele>1257.5</ele>
        <time>2026-07-15T13:26:27Z</time>
      </trkpt>
      <trkpt lat="42.90339" lon="-0.20749">
        <ele>1257.5</ele>
        <time>2026-07-15T13:26:28Z</time>
      </trkpt>
      <trkpt lat="42.9034" lon="-0.20749">
        <ele>1256.5</ele>
        <time>2026-07-15T13:26:28Z</time>
      </trkpt>
      <trkpt lat="42.9034" lon="-0.20749">
        <ele>1256.5</ele>
        <time>2026-07-15T13:26:29Z</time>
      </trkpt>
      <trkpt lat="42.90341" lon="-0.2075">
        <ele>1256.5</ele>
        <time>2026-07-15T13:26:29Z</time>
      </trkpt>
      <trkpt lat="42.90341" lon="-0.2075">
        <ele>1256.5</ele>
        <time>2026-07-15T13:26:30Z</time>
      </trkpt>
      <trkpt lat="42.90341" lon="-0.2075">
        <ele>1256.5</ele>
        <time>2026-07-15T13:26:30Z</time>
      </trkpt>
      <trkpt lat="42.90342" lon="-0.20751">
        <ele>1256.5</ele>
        <time>2026-07-15T13:26:31Z</time>
      </trkpt>
      <trkpt lat="42.90342" lon="-0.20751">
        <ele>1255.5</ele>
        <time>2026-07-15T13:26:31Z</time>
      </trkpt>
      <trkpt lat="42.90343" lon="-0.20752">
        <ele>1255.5</ele>
        <time>2026-07-15T13:26:32Z</time>
      </trkpt>
      <trkpt lat="42.90343" lon="-0.20752">
        <ele>1256.5</ele>
        <time>2026-07-15T13:26:32Z</time>
      </trkpt>
      <trkpt lat="42.90344" lon="-0.20753">
        <ele>1256.5</ele>
        <time>2026-07-15T13:26:33Z</time>
      </trkpt>
      <trkpt lat="42.90344" lon="-0.20753">
        <ele>1256.5</ele>
        <time>2026-07-15T13:26:33Z</time>
      </trkpt>
      <trkpt lat="42.90345" lon="-0.20753">
        <ele>1255.5</ele>
        <time>2026-07-15T13:26:34Z</time>
      </trkpt>
      <trkpt lat="42.90346" lon="-0.20754">
        <ele>1255.5</ele>
        <time>2026-07-15T13:26:35Z</time>
      </trkpt>
      <trkpt lat="42.90346" lon="-0.20754">
        <ele>1255.5</ele>
        <time>2026-07-15T13:26:35Z</time>
      </trkpt>
      <trkpt lat="42.90347" lon="-0.20755">
        <ele>1255.5</ele>
        <time>2026-07-15T13:26:36Z</time>
      </trkpt>
      <trkpt lat="42.90347" lon="-0.20755">
        <ele>1255.5</ele>
        <time>2026-07-15T13:26:37Z</time>
      </trkpt>
      <trkpt lat="42.90347" lon="-0.20756">
        <ele>1254.5</ele>
        <time>2026-07-15T13:26:37Z</time>
      </trkpt>
      <trkpt lat="42.90348" lon="-0.20756">
        <ele>1254.5</ele>
        <time>2026-07-15T13:26:38Z</time>
      </trkpt>
      <trkpt lat="42.90348" lon="-0.20757">
        <ele>1253.5</ele>
        <time>2026-07-15T13:26:38Z</time>
      </trkpt>
      <trkpt lat="42.90349" lon="-0.20757">
        <ele>1253.5</ele>
        <time>2026-07-15T13:26:39Z</time>
      </trkpt>
      <trkpt lat="42.90349" lon="-0.20758">
        <ele>1253.5</ele>
        <time>2026-07-15T13:26:39Z</time>
      </trkpt>
      <trkpt lat="42.90349" lon="-0.20759">
        <ele>1253.5</ele>
        <time>2026-07-15T13:26:40Z</time>
      </trkpt>
      <trkpt lat="42.9035" lon="-0.2076">
        <ele>1252.5</ele>
        <time>2026-07-15T13:26:41Z</time>
      </trkpt>
      <trkpt lat="42.9035" lon="-0.2076">
        <ele>1252.5</ele>
        <time>2026-07-15T13:26:41Z</time>
      </trkpt>
      <trkpt lat="42.9035" lon="-0.20761">
        <ele>1252.5</ele>
        <time>2026-07-15T13:26:42Z</time>
      </trkpt>
      <trkpt lat="42.90351" lon="-0.20761">
        <ele>1253.5</ele>
        <time>2026-07-15T13:26:42Z</time>
      </trkpt>
      <trkpt lat="42.90351" lon="-0.20762">
        <ele>1253.5</ele>
        <time>2026-07-15T13:26:43Z</time>
      </trkpt>
      <trkpt lat="42.90351" lon="-0.20763">
        <ele>1253.5</ele>
        <time>2026-07-15T13:26:43Z</time>
      </trkpt>
      <trkpt lat="42.90351" lon="-0.20764">
        <ele>1253.5</ele>
        <time>2026-07-15T13:26:44Z</time>
      </trkpt>
      <trkpt lat="42.90351" lon="-0.20764">
        <ele>1253.5</ele>
        <time>2026-07-15T13:26:44Z</time>
      </trkpt>
      <trkpt lat="42.90352" lon="-0.20765">
        <ele>1253.5</ele>
        <time>2026-07-15T13:26:45Z</time>
      </trkpt>
      <trkpt lat="42.90352" lon="-0.20766">
        <ele>1252.5</ele>
        <time>2026-07-15T13:26:46Z</time>
      </trkpt>
      <trkpt lat="42.90352" lon="-0.20766">
        <ele>1252.5</ele>
        <time>2026-07-15T13:26:47Z</time>
      </trkpt>
      <trkpt lat="42.90352" lon="-0.20767">
        <ele>1251.5</ele>
        <time>2026-07-15T13:26:47Z</time>
      </trkpt>
      <trkpt lat="42.90352" lon="-0.20767">
        <ele>1251.5</ele>
        <time>2026-07-15T13:26:48Z</time>
      </trkpt>
      <trkpt lat="42.90352" lon="-0.20768">
        <ele>1251.5</ele>
        <time>2026-07-15T13:26:48Z</time>
      </trkpt>
      <trkpt lat="42.90353" lon="-0.20768">
        <ele>1251.5</ele>
        <time>2026-07-15T13:26:49Z</time>
      </trkpt>
      <trkpt lat="42.90353" lon="-0.20769">
        <ele>1251.5</ele>
        <time>2026-07-15T13:26:49Z</time>
      </trkpt>
      <trkpt lat="42.90353" lon="-0.20769">
        <ele>1251.5</ele>
        <time>2026-07-15T13:26:50Z</time>
      </trkpt>
      <trkpt lat="42.90354" lon="-0.2077">
        <ele>1250.5</ele>
        <time>2026-07-15T13:26:50Z</time>
      </trkpt>
      <trkpt lat="42.90354" lon="-0.2077">
        <ele>1250.5</ele>
        <time>2026-07-15T13:26:51Z</time>
      </trkpt>
      <trkpt lat="42.90355" lon="-0.20771">
        <ele>1249.5</ele>
        <time>2026-07-15T13:26:51Z</time>
      </trkpt>
      <trkpt lat="42.90355" lon="-0.20771">
        <ele>1249.5</ele>
        <time>2026-07-15T13:26:52Z</time>
      </trkpt>
      <trkpt lat="42.90356" lon="-0.20771">
        <ele>1250.5</ele>
        <time>2026-07-15T13:26:52Z</time>
      </trkpt>
      <trkpt lat="42.90357" lon="-0.20771">
        <ele>1250.5</ele>
        <time>2026-07-15T13:26:53Z</time>
      </trkpt>
      <trkpt lat="42.90358" lon="-0.2077">
        <ele>1249.5</ele>
        <time>2026-07-15T13:26:53Z</time>
      </trkpt>
      <trkpt lat="42.90358" lon="-0.2077">
        <ele>1249.5</ele>
        <time>2026-07-15T13:26:54Z</time>
      </trkpt>
      <trkpt lat="42.90359" lon="-0.2077">
        <ele>1248.5</ele>
        <time>2026-07-15T13:26:55Z</time>
      </trkpt>
      <trkpt lat="42.9036" lon="-0.2077">
        <ele>1248.5</ele>
        <time>2026-07-15T13:26:55Z</time>
      </trkpt>
      <trkpt lat="42.9036" lon="-0.2077">
        <ele>1248.5</ele>
        <time>2026-07-15T13:26:56Z</time>
      </trkpt>
      <trkpt lat="42.90361" lon="-0.20769">
        <ele>1247.5</ele>
        <time>2026-07-15T13:26:56Z</time>
      </trkpt>
      <trkpt lat="42.90362" lon="-0.20769">
        <ele>1247.5</ele>
        <time>2026-07-15T13:26:57Z</time>
      </trkpt>
      <trkpt lat="42.90362" lon="-0.20769">
        <ele>1246.5</ele>
        <time>2026-07-15T13:26:57Z</time>
      </trkpt>
      <trkpt lat="42.90363" lon="-0.20769">
        <ele>1246.5</ele>
        <time>2026-07-15T13:26:58Z</time>
      </trkpt>
      <trkpt lat="42.90364" lon="-0.20769">
        <ele>1246.5</ele>
        <time>2026-07-15T13:26:58Z</time>
      </trkpt>
      <trkpt lat="42.90364" lon="-0.20768">
        <ele>1246.5</ele>
        <time>2026-07-15T13:26:59Z</time>
      </trkpt>
      <trkpt lat="42.90365" lon="-0.20768">
        <ele>1246.5</ele>
        <time>2026-07-15T13:26:59Z</time>
      </trkpt>
      <trkpt lat="42.90365" lon="-0.20768">
        <ele>1246.5</ele>
        <time>2026-07-15T13:27:00Z</time>
      </trkpt>
      <trkpt lat="42.90366" lon="-0.20767">
        <ele>1245.5</ele>
        <time>2026-07-15T13:27:00Z</time>
      </trkpt>
      <trkpt lat="42.90366" lon="-0.20767">
        <ele>1245.5</ele>
        <time>2026-07-15T13:27:01Z</time>
      </trkpt>
      <trkpt lat="42.90367" lon="-0.20765">
        <ele>1244.5</ele>
        <time>2026-07-15T13:27:02Z</time>
      </trkpt>
      <trkpt lat="42.90367" lon="-0.20764">
        <ele>1244.5</ele>
        <time>2026-07-15T13:27:03Z</time>
      </trkpt>
      <trkpt lat="42.90368" lon="-0.20764">
        <ele>1243.5</ele>
        <time>2026-07-15T13:27:03Z</time>
      </trkpt>
      <trkpt lat="42.90368" lon="-0.20762">
        <ele>1243.5</ele>
        <time>2026-07-15T13:27:04Z</time>
      </trkpt>
      <trkpt lat="42.90369" lon="-0.20761">
        <ele>1244.5</ele>
        <time>2026-07-15T13:27:05Z</time>
      </trkpt>
      <trkpt lat="42.90369" lon="-0.2076">
        <ele>1244.5</ele>
        <time>2026-07-15T13:27:05Z</time>
      </trkpt>
      <trkpt lat="42.9037" lon="-0.2076">
        <ele>1244.5</ele>
        <time>2026-07-15T13:27:06Z</time>
      </trkpt>
      <trkpt lat="42.9037" lon="-0.2076">
        <ele>1244.5</ele>
        <time>2026-07-15T13:27:06Z</time>
      </trkpt>
      <trkpt lat="42.90371" lon="-0.20759">
        <ele>1244.5</ele>
        <time>2026-07-15T13:27:07Z</time>
      </trkpt>
      <trkpt lat="42.90371" lon="-0.20759">
        <ele>1244.5</ele>
        <time>2026-07-15T13:27:08Z</time>
      </trkpt>
      <trkpt lat="42.90372" lon="-0.20757">
        <ele>1244.5</ele>
        <time>2026-07-15T13:27:09Z</time>
      </trkpt>
      <trkpt lat="42.90373" lon="-0.20756">
        <ele>1244.5</ele>
        <time>2026-07-15T13:27:10Z</time>
      </trkpt>
      <trkpt lat="42.90373" lon="-0.20755">
        <ele>1244.5</ele>
        <time>2026-07-15T13:27:10Z</time>
      </trkpt>
      <trkpt lat="42.90374" lon="-0.20754">
        <ele>1244.5</ele>
        <time>2026-07-15T13:27:11Z</time>
      </trkpt>
      <trkpt lat="42.90374" lon="-0.20754">
        <ele>1244.5</ele>
        <time>2026-07-15T13:27:11Z</time>
      </trkpt>
      <trkpt lat="42.90375" lon="-0.20753">
        <ele>1244.5</ele>
        <time>2026-07-15T13:27:12Z</time>
      </trkpt>
      <trkpt lat="42.90376" lon="-0.20752">
        <ele>1244.5</ele>
        <time>2026-07-15T13:27:13Z</time>
      </trkpt>
      <trkpt lat="42.90376" lon="-0.2075">
        <ele>1244.5</ele>
        <time>2026-07-15T13:27:14Z</time>
      </trkpt>
      <trkpt lat="42.90376" lon="-0.2075">
        <ele>1244.5</ele>
        <time>2026-07-15T13:27:14Z</time>
      </trkpt>
      <trkpt lat="42.90376" lon="-0.20749">
        <ele>1244.5</ele>
        <time>2026-07-15T13:27:15Z</time>
      </trkpt>
      <trkpt lat="42.90376" lon="-0.20748">
        <ele>1244.5</ele>
        <time>2026-07-15T13:27:15Z</time>
      </trkpt>
      <trkpt lat="42.90376" lon="-0.20747">
        <ele>1244.5</ele>
        <time>2026-07-15T13:27:16Z</time>
      </trkpt>
      <trkpt lat="42.90376" lon="-0.20747">
        <ele>1244.5</ele>
        <time>2026-07-15T13:27:17Z</time>
      </trkpt>
      <trkpt lat="42.90377" lon="-0.20747">
        <ele>1244.5</ele>
        <time>2026-07-15T13:27:18Z</time>
      </trkpt>
      <trkpt lat="42.90377" lon="-0.20747">
        <ele>1244.5</ele>
        <time>2026-07-15T13:27:18Z</time>
      </trkpt>
      <trkpt lat="42.90377" lon="-0.20747">
        <ele>1244.5</ele>
        <time>2026-07-15T13:27:19Z</time>
      </trkpt>
      <trkpt lat="42.90378" lon="-0.20746">
        <ele>1244.5</ele>
        <time>2026-07-15T13:27:20Z</time>
      </trkpt>
      <trkpt lat="42.90378" lon="-0.20746">
        <ele>1243.5</ele>
        <time>2026-07-15T13:27:20Z</time>
      </trkpt>
      <trkpt lat="42.90378" lon="-0.20745">
        <ele>1243.5</ele>
        <time>2026-07-15T13:27:21Z</time>
      </trkpt>
      <trkpt lat="42.90377" lon="-0.20745">
        <ele>1243.5</ele>
        <time>2026-07-15T13:27:21Z</time>
      </trkpt>
      <trkpt lat="42.90377" lon="-0.20744">
        <ele>1243.5</ele>
        <time>2026-07-15T13:27:22Z</time>
      </trkpt>
      <trkpt lat="42.90377" lon="-0.20743">
        <ele>1242.5</ele>
        <time>2026-07-15T13:27:22Z</time>
      </trkpt>
      <trkpt lat="42.90378" lon="-0.20742">
        <ele>1242.5</ele>
        <time>2026-07-15T13:27:23Z</time>
      </trkpt>
      <trkpt lat="42.90378" lon="-0.20742">
        <ele>1240.5</ele>
        <time>2026-07-15T13:27:23Z</time>
      </trkpt>
      <trkpt lat="42.90378" lon="-0.20741">
        <ele>1240.5</ele>
        <time>2026-07-15T13:27:24Z</time>
      </trkpt>
      <trkpt lat="42.90379" lon="-0.2074">
        <ele>1240.5</ele>
        <time>2026-07-15T13:27:25Z</time>
      </trkpt>
      <trkpt lat="42.90379" lon="-0.2074">
        <ele>1240.5</ele>
        <time>2026-07-15T13:27:26Z</time>
      </trkpt>
      <trkpt lat="42.9038" lon="-0.20739">
        <ele>1240.5</ele>
        <time>2026-07-15T13:27:26Z</time>
      </trkpt>
      <trkpt lat="42.9038" lon="-0.20739">
        <ele>1239.5</ele>
        <time>2026-07-15T13:27:27Z</time>
      </trkpt>
      <trkpt lat="42.9038" lon="-0.20739">
        <ele>1239.5</ele>
        <time>2026-07-15T13:27:27Z</time>
      </trkpt>
      <trkpt lat="42.90381" lon="-0.20738">
        <ele>1239.5</ele>
        <time>2026-07-15T13:27:28Z</time>
      </trkpt>
      <trkpt lat="42.90381" lon="-0.20739">
        <ele>1239.5</ele>
        <time>2026-07-15T13:27:28Z</time>
      </trkpt>
      <trkpt lat="42.90382" lon="-0.20738">
        <ele>1239.5</ele>
        <time>2026-07-15T13:27:29Z</time>
      </trkpt>
      <trkpt lat="42.90382" lon="-0.20738">
        <ele>1239.5</ele>
        <time>2026-07-15T13:27:29Z</time>
      </trkpt>
      <trkpt lat="42.90383" lon="-0.20738">
        <ele>1239.5</ele>
        <time>2026-07-15T13:27:30Z</time>
      </trkpt>
      <trkpt lat="42.90383" lon="-0.20739">
        <ele>1239.5</ele>
        <time>2026-07-15T13:27:30Z</time>
      </trkpt>
      <trkpt lat="42.90384" lon="-0.20738">
        <ele>1239.5</ele>
        <time>2026-07-15T13:27:31Z</time>
      </trkpt>
      <trkpt lat="42.90384" lon="-0.20738">
        <ele>1240.5</ele>
        <time>2026-07-15T13:27:32Z</time>
      </trkpt>
      <trkpt lat="42.90384" lon="-0.20737">
        <ele>1239.5</ele>
        <time>2026-07-15T13:27:32Z</time>
      </trkpt>
      <trkpt lat="42.90384" lon="-0.20737">
        <ele>1238.5</ele>
        <time>2026-07-15T13:27:33Z</time>
      </trkpt>
      <trkpt lat="42.90384" lon="-0.20736">
        <ele>1238.5</ele>
        <time>2026-07-15T13:27:34Z</time>
      </trkpt>
      <trkpt lat="42.90384" lon="-0.20736">
        <ele>1238.5</ele>
        <time>2026-07-15T13:27:34Z</time>
      </trkpt>
      <trkpt lat="42.90384" lon="-0.20735">
        <ele>1238.5</ele>
        <time>2026-07-15T13:27:35Z</time>
      </trkpt>
      <trkpt lat="42.90385" lon="-0.20734">
        <ele>1237.5</ele>
        <time>2026-07-15T13:27:35Z</time>
      </trkpt>
      <trkpt lat="42.90385" lon="-0.20734">
        <ele>1237.5</ele>
        <time>2026-07-15T13:27:36Z</time>
      </trkpt>
      <trkpt lat="42.90386" lon="-0.20733">
        <ele>1237.5</ele>
        <time>2026-07-15T13:27:36Z</time>
      </trkpt>
      <trkpt lat="42.90386" lon="-0.20733">
        <ele>1237.5</ele>
        <time>2026-07-15T13:27:37Z</time>
      </trkpt>
      <trkpt lat="42.90387" lon="-0.20733">
        <ele>1237.5</ele>
        <time>2026-07-15T13:27:37Z</time>
      </trkpt>
      <trkpt lat="42.90388" lon="-0.20733">
        <ele>1237.5</ele>
        <time>2026-07-15T13:27:38Z</time>
      </trkpt>
      <trkpt lat="42.90389" lon="-0.20734">
        <ele>1237.5</ele>
        <time>2026-07-15T13:27:38Z</time>
      </trkpt>
      <trkpt lat="42.90389" lon="-0.20735">
        <ele>1237.5</ele>
        <time>2026-07-15T13:27:39Z</time>
      </trkpt>
      <trkpt lat="42.9039" lon="-0.20735">
        <ele>1237.5</ele>
        <time>2026-07-15T13:27:40Z</time>
      </trkpt>
      <trkpt lat="42.90391" lon="-0.20735">
        <ele>1237.5</ele>
        <time>2026-07-15T13:27:41Z</time>
      </trkpt>
      <trkpt lat="42.90392" lon="-0.20734">
        <ele>1237.5</ele>
        <time>2026-07-15T13:27:42Z</time>
      </trkpt>
      <trkpt lat="42.90392" lon="-0.20733">
        <ele>1237.5</ele>
        <time>2026-07-15T13:27:43Z</time>
      </trkpt>
      <trkpt lat="42.90391" lon="-0.20732">
        <ele>1236.5</ele>
        <time>2026-07-15T13:27:44Z</time>
      </trkpt>
      <trkpt lat="42.90391" lon="-0.20732">
        <ele>1237.5</ele>
        <time>2026-07-15T13:27:44Z</time>
      </trkpt>
      <trkpt lat="42.90391" lon="-0.20731">
        <ele>1236.5</ele>
        <time>2026-07-15T13:27:45Z</time>
      </trkpt>
      <trkpt lat="42.90391" lon="-0.2073">
        <ele>1236.5</ele>
        <time>2026-07-15T13:27:46Z</time>
      </trkpt>
      <trkpt lat="42.90391" lon="-0.2073">
        <ele>1236.5</ele>
        <time>2026-07-15T13:27:46Z</time>
      </trkpt>
      <trkpt lat="42.90391" lon="-0.2073">
        <ele>1236.5</ele>
        <time>2026-07-15T13:27:47Z</time>
      </trkpt>
      <trkpt lat="42.90392" lon="-0.2073">
        <ele>1236.5</ele>
        <time>2026-07-15T13:27:47Z</time>
      </trkpt>
      <trkpt lat="42.90392" lon="-0.20729">
        <ele>1236.5</ele>
        <time>2026-07-15T13:27:48Z</time>
      </trkpt>
      <trkpt lat="42.90392" lon="-0.20729">
        <ele>1236.5</ele>
        <time>2026-07-15T13:27:49Z</time>
      </trkpt>
      <trkpt lat="42.90393" lon="-0.20729">
        <ele>1236.5</ele>
        <time>2026-07-15T13:27:49Z</time>
      </trkpt>
      <trkpt lat="42.90393" lon="-0.20729">
        <ele>1236.5</ele>
        <time>2026-07-15T13:27:50Z</time>
      </trkpt>
      <trkpt lat="42.90392" lon="-0.20728">
        <ele>1235.5</ele>
        <time>2026-07-15T13:27:51Z</time>
      </trkpt>
      <trkpt lat="42.90392" lon="-0.20728">
        <ele>1235.5</ele>
        <time>2026-07-15T13:27:51Z</time>
      </trkpt>
      <trkpt lat="42.90391" lon="-0.20728">
        <ele>1235.5</ele>
        <time>2026-07-15T13:27:52Z</time>
      </trkpt>
      <trkpt lat="42.9039" lon="-0.20727">
        <ele>1235.5</ele>
        <time>2026-07-15T13:27:52Z</time>
      </trkpt>
      <trkpt lat="42.9039" lon="-0.20726">
        <ele>1235.5</ele>
        <time>2026-07-15T13:27:53Z</time>
      </trkpt>
      <trkpt lat="42.9039" lon="-0.20725">
        <ele>1235.5</ele>
        <time>2026-07-15T13:27:54Z</time>
      </trkpt>
      <trkpt lat="42.9039" lon="-0.20723">
        <ele>1235.5</ele>
        <time>2026-07-15T13:27:55Z</time>
      </trkpt>
      <trkpt lat="42.90391" lon="-0.20722">
        <ele>1236.5</ele>
        <time>2026-07-15T13:27:56Z</time>
      </trkpt>
      <trkpt lat="42.90391" lon="-0.20721">
        <ele>1235.5</ele>
        <time>2026-07-15T13:27:57Z</time>
      </trkpt>
      <trkpt lat="42.90391" lon="-0.2072">
        <ele>1234.5</ele>
        <time>2026-07-15T13:27:58Z</time>
      </trkpt>
      <trkpt lat="42.90392" lon="-0.20719">
        <ele>1234.5</ele>
        <time>2026-07-15T13:27:59Z</time>
      </trkpt>
      <trkpt lat="42.90392" lon="-0.20719">
        <ele>1234.5</ele>
        <time>2026-07-15T13:27:59Z</time>
      </trkpt>
      <trkpt lat="42.90393" lon="-0.20718">
        <ele>1234.5</ele>
        <time>2026-07-15T13:28:00Z</time>
      </trkpt>
      <trkpt lat="42.90393" lon="-0.20718">
        <ele>1235.5</ele>
        <time>2026-07-15T13:28:01Z</time>
      </trkpt>
      <trkpt lat="42.90394" lon="-0.20718">
        <ele>1234.5</ele>
        <time>2026-07-15T13:28:01Z</time>
      </trkpt>
      <trkpt lat="42.90394" lon="-0.20718">
        <ele>1234.5</ele>
        <time>2026-07-15T13:28:02Z</time>
      </trkpt>
      <trkpt lat="42.90395" lon="-0.20718">
        <ele>1233.5</ele>
        <time>2026-07-15T13:28:02Z</time>
      </trkpt>
      <trkpt lat="42.90395" lon="-0.20718">
        <ele>1233.5</ele>
        <time>2026-07-15T13:28:03Z</time>
      </trkpt>
      <trkpt lat="42.90396" lon="-0.20718">
        <ele>1232.5</ele>
        <time>2026-07-15T13:28:03Z</time>
      </trkpt>
      <trkpt lat="42.90397" lon="-0.20718">
        <ele>1232.5</ele>
        <time>2026-07-15T13:28:04Z</time>
      </trkpt>
      <trkpt lat="42.90398" lon="-0.20719">
        <ele>1233.5</ele>
        <time>2026-07-15T13:28:04Z</time>
      </trkpt>
      <trkpt lat="42.90399" lon="-0.2072">
        <ele>1232.5</ele>
        <time>2026-07-15T13:28:05Z</time>
      </trkpt>
      <trkpt lat="42.904" lon="-0.20721">
        <ele>1232.5</ele>
        <time>2026-07-15T13:28:06Z</time>
      </trkpt>
      <trkpt lat="42.90401" lon="-0.20722">
        <ele>1232.5</ele>
        <time>2026-07-15T13:28:06Z</time>
      </trkpt>
      <trkpt lat="42.90401" lon="-0.20723">
        <ele>1232.5</ele>
        <time>2026-07-15T13:28:07Z</time>
      </trkpt>
      <trkpt lat="42.90402" lon="-0.20725">
        <ele>1232.5</ele>
        <time>2026-07-15T13:28:08Z</time>
      </trkpt>
      <trkpt lat="42.90403" lon="-0.20727">
        <ele>1232.5</ele>
        <time>2026-07-15T13:28:09Z</time>
      </trkpt>
      <trkpt lat="42.90403" lon="-0.20728">
        <ele>1232.5</ele>
        <time>2026-07-15T13:28:09Z</time>
      </trkpt>
      <trkpt lat="42.90404" lon="-0.20729">
        <ele>1232.5</ele>
        <time>2026-07-15T13:28:10Z</time>
      </trkpt>
      <trkpt lat="42.90404" lon="-0.20731">
        <ele>1232.5</ele>
        <time>2026-07-15T13:28:10Z</time>
      </trkpt>
      <trkpt lat="42.90405" lon="-0.20731">
        <ele>1232.5</ele>
        <time>2026-07-15T13:28:11Z</time>
      </trkpt>
      <trkpt lat="42.90405" lon="-0.20734">
        <ele>1232.5</ele>
        <time>2026-07-15T13:28:12Z</time>
      </trkpt>
      <trkpt lat="42.90405" lon="-0.20735">
        <ele>1232.5</ele>
        <time>2026-07-15T13:28:12Z</time>
      </trkpt>
      <trkpt lat="42.90406" lon="-0.20736">
        <ele>1232.5</ele>
        <time>2026-07-15T13:28:13Z</time>
      </trkpt>
      <trkpt lat="42.90406" lon="-0.20738">
        <ele>1232.5</ele>
        <time>2026-07-15T13:28:14Z</time>
      </trkpt>
      <trkpt lat="42.90406" lon="-0.20739">
        <ele>1232.5</ele>
        <time>2026-07-15T13:28:14Z</time>
      </trkpt>
      <trkpt lat="42.90407" lon="-0.2074">
        <ele>1232.5</ele>
        <time>2026-07-15T13:28:15Z</time>
      </trkpt>
      <trkpt lat="42.90407" lon="-0.20741">
        <ele>1232.5</ele>
        <time>2026-07-15T13:28:15Z</time>
      </trkpt>
      <trkpt lat="42.90407" lon="-0.20742">
        <ele>1232.5</ele>
        <time>2026-07-15T13:28:16Z</time>
      </trkpt>
      <trkpt lat="42.90407" lon="-0.20743">
        <ele>1232.5</ele>
        <time>2026-07-15T13:28:17Z</time>
      </trkpt>
      <trkpt lat="42.90408" lon="-0.20743">
        <ele>1232.5</ele>
        <time>2026-07-15T13:28:17Z</time>
      </trkpt>
      <trkpt lat="42.90408" lon="-0.20744">
        <ele>1232.5</ele>
        <time>2026-07-15T13:28:18Z</time>
      </trkpt>
      <trkpt lat="42.90409" lon="-0.20745">
        <ele>1233.5</ele>
        <time>2026-07-15T13:28:18Z</time>
      </trkpt>
      <trkpt lat="42.90409" lon="-0.20745">
        <ele>1233.5</ele>
        <time>2026-07-15T13:28:19Z</time>
      </trkpt>
      <trkpt lat="42.9041" lon="-0.20746">
        <ele>1234.5</ele>
        <time>2026-07-15T13:28:19Z</time>
      </trkpt>
      <trkpt lat="42.90411" lon="-0.20747">
        <ele>1232.5</ele>
        <time>2026-07-15T13:28:20Z</time>
      </trkpt>
      <trkpt lat="42.90411" lon="-0.20747">
        <ele>1232.5</ele>
        <time>2026-07-15T13:28:21Z</time>
      </trkpt>
      <trkpt lat="42.90412" lon="-0.20747">
        <ele>1232.5</ele>
        <time>2026-07-15T13:28:21Z</time>
      </trkpt>
      <trkpt lat="42.90413" lon="-0.20748">
        <ele>1232.5</ele>
        <time>2026-07-15T13:28:22Z</time>
      </trkpt>
      <trkpt lat="42.90413" lon="-0.20748">
        <ele>1233.5</ele>
        <time>2026-07-15T13:28:22Z</time>
      </trkpt>
      <trkpt lat="42.90414" lon="-0.20748">
        <ele>1232.5</ele>
        <time>2026-07-15T13:28:23Z</time>
      </trkpt>
      <trkpt lat="42.90415" lon="-0.20748">
        <ele>1232.5</ele>
        <time>2026-07-15T13:28:24Z</time>
      </trkpt>
      <trkpt lat="42.90416" lon="-0.20748">
        <ele>1232.5</ele>
        <time>2026-07-15T13:28:25Z</time>
      </trkpt>
      <trkpt lat="42.90417" lon="-0.20748">
        <ele>1233.5</ele>
        <time>2026-07-15T13:28:26Z</time>
      </trkpt>
      <trkpt lat="42.90418" lon="-0.20747">
        <ele>1233.5</ele>
        <time>2026-07-15T13:28:26Z</time>
      </trkpt>
      <trkpt lat="42.90418" lon="-0.20748">
        <ele>1233.5</ele>
        <time>2026-07-15T13:28:27Z</time>
      </trkpt>
      <trkpt lat="42.90419" lon="-0.20747">
        <ele>1233.5</ele>
        <time>2026-07-15T13:28:27Z</time>
      </trkpt>
      <trkpt lat="42.9042" lon="-0.20748">
        <ele>1233.5</ele>
        <time>2026-07-15T13:28:28Z</time>
      </trkpt>
      <trkpt lat="42.9042" lon="-0.20747">
        <ele>1233.5</ele>
        <time>2026-07-15T13:28:28Z</time>
      </trkpt>
      <trkpt lat="42.90421" lon="-0.20748">
        <ele>1233.5</ele>
        <time>2026-07-15T13:28:29Z</time>
      </trkpt>
      <trkpt lat="42.90421" lon="-0.20747">
        <ele>1232.5</ele>
        <time>2026-07-15T13:28:29Z</time>
      </trkpt>
      <trkpt lat="42.90422" lon="-0.20747">
        <ele>1232.5</ele>
        <time>2026-07-15T13:28:30Z</time>
      </trkpt>
      <trkpt lat="42.90423" lon="-0.20747">
        <ele>1232.5</ele>
        <time>2026-07-15T13:28:31Z</time>
      </trkpt>
      <trkpt lat="42.90423" lon="-0.20746">
        <ele>1232.5</ele>
        <time>2026-07-15T13:28:31Z</time>
      </trkpt>
      <trkpt lat="42.90424" lon="-0.20747">
        <ele>1232.5</ele>
        <time>2026-07-15T13:28:32Z</time>
      </trkpt>
      <trkpt lat="42.90425" lon="-0.20747">
        <ele>1232.5</ele>
        <time>2026-07-15T13:28:33Z</time>
      </trkpt>
      <trkpt lat="42.90426" lon="-0.20747">
        <ele>1232.5</ele>
        <time>2026-07-15T13:28:34Z</time>
      </trkpt>
      <trkpt lat="42.90427" lon="-0.20747">
        <ele>1232.5</ele>
        <time>2026-07-15T13:28:34Z</time>
      </trkpt>
      <trkpt lat="42.90427" lon="-0.20747">
        <ele>1231.5</ele>
        <time>2026-07-15T13:28:35Z</time>
      </trkpt>
      <trkpt lat="42.90427" lon="-0.20747">
        <ele>1231.5</ele>
        <time>2026-07-15T13:28:36Z</time>
      </trkpt>
      <trkpt lat="42.90428" lon="-0.20747">
        <ele>1231.5</ele>
        <time>2026-07-15T13:28:36Z</time>
      </trkpt>
      <trkpt lat="42.90428" lon="-0.20747">
        <ele>1231.5</ele>
        <time>2026-07-15T13:28:37Z</time>
      </trkpt>
      <trkpt lat="42.90429" lon="-0.20747">
        <ele>1231.5</ele>
        <time>2026-07-15T13:28:37Z</time>
      </trkpt>
      <trkpt lat="42.9043" lon="-0.20746">
        <ele>1231.5</ele>
        <time>2026-07-15T13:28:38Z</time>
      </trkpt>
      <trkpt lat="42.9043" lon="-0.20746">
        <ele>1231.5</ele>
        <time>2026-07-15T13:28:39Z</time>
      </trkpt>
      <trkpt lat="42.90431" lon="-0.20746">
        <ele>1230.5</ele>
        <time>2026-07-15T13:28:39Z</time>
      </trkpt>
      <trkpt lat="42.90432" lon="-0.20746">
        <ele>1230.5</ele>
        <time>2026-07-15T13:28:40Z</time>
      </trkpt>
      <trkpt lat="42.90432" lon="-0.20746">
        <ele>1230.5</ele>
        <time>2026-07-15T13:28:40Z</time>
      </trkpt>
      <trkpt lat="42.90433" lon="-0.20745">
        <ele>1229.5</ele>
        <time>2026-07-15T13:28:41Z</time>
      </trkpt>
      <trkpt lat="42.90434" lon="-0.20744">
        <ele>1229.5</ele>
        <time>2026-07-15T13:28:42Z</time>
      </trkpt>
      <trkpt lat="42.90434" lon="-0.20743">
        <ele>1229.5</ele>
        <time>2026-07-15T13:28:42Z</time>
      </trkpt>
      <trkpt lat="42.90434" lon="-0.20741">
        <ele>1229.5</ele>
        <time>2026-07-15T13:28:43Z</time>
      </trkpt>
      <trkpt lat="42.90435" lon="-0.2074">
        <ele>1229.5</ele>
        <time>2026-07-15T13:28:44Z</time>
      </trkpt>
      <trkpt lat="42.90435" lon="-0.20739">
        <ele>1229.5</ele>
        <time>2026-07-15T13:28:44Z</time>
      </trkpt>
      <trkpt lat="42.90435" lon="-0.20738">
        <ele>1228.5</ele>
        <time>2026-07-15T13:28:45Z</time>
      </trkpt>
      <trkpt lat="42.90436" lon="-0.20737">
        <ele>1228.5</ele>
        <time>2026-07-15T13:28:46Z</time>
      </trkpt>
      <trkpt lat="42.90436" lon="-0.20736">
        <ele>1227.5</ele>
        <time>2026-07-15T13:28:46Z</time>
      </trkpt>
      <trkpt lat="42.90436" lon="-0.20735">
        <ele>1227.5</ele>
        <time>2026-07-15T13:28:47Z</time>
      </trkpt>
      <trkpt lat="42.90436" lon="-0.20733">
        <ele>1226.5</ele>
        <time>2026-07-15T13:28:48Z</time>
      </trkpt>
      <trkpt lat="42.90436" lon="-0.20732">
        <ele>1225.5</ele>
        <time>2026-07-15T13:28:48Z</time>
      </trkpt>
      <trkpt lat="42.90436" lon="-0.20732">
        <ele>1225.5</ele>
        <time>2026-07-15T13:28:49Z</time>
      </trkpt>
      <trkpt lat="42.90436" lon="-0.20731">
        <ele>1224.5</ele>
        <time>2026-07-15T13:28:50Z</time>
      </trkpt>
      <trkpt lat="42.90437" lon="-0.20731">
        <ele>1223.5</ele>
        <time>2026-07-15T13:28:50Z</time>
      </trkpt>
      <trkpt lat="42.90437" lon="-0.20731">
        <ele>1223.5</ele>
        <time>2026-07-15T13:28:51Z</time>
      </trkpt>
      <trkpt lat="42.90438" lon="-0.20731">
        <ele>1224.5</ele>
        <time>2026-07-15T13:28:51Z</time>
      </trkpt>
      <trkpt lat="42.90438" lon="-0.20731">
        <ele>1224.5</ele>
        <time>2026-07-15T13:28:52Z</time>
      </trkpt>
      <trkpt lat="42.90439" lon="-0.20731">
        <ele>1224.5</ele>
        <time>2026-07-15T13:28:52Z</time>
      </trkpt>
      <trkpt lat="42.9044" lon="-0.20731">
        <ele>1224.5</ele>
        <time>2026-07-15T13:28:53Z</time>
      </trkpt>
      <trkpt lat="42.90441" lon="-0.20732">
        <ele>1223.5</ele>
        <time>2026-07-15T13:28:54Z</time>
      </trkpt>
      <trkpt lat="42.90442" lon="-0.20733">
        <ele>1223.5</ele>
        <time>2026-07-15T13:28:55Z</time>
      </trkpt>
      <trkpt lat="42.90443" lon="-0.20735">
        <ele>1224.5</ele>
        <time>2026-07-15T13:28:56Z</time>
      </trkpt>
      <trkpt lat="42.90444" lon="-0.20736">
        <ele>1223.5</ele>
        <time>2026-07-15T13:28:56Z</time>
      </trkpt>
      <trkpt lat="42.90445" lon="-0.20736">
        <ele>1223.5</ele>
        <time>2026-07-15T13:28:57Z</time>
      </trkpt>
      <trkpt lat="42.90445" lon="-0.20738">
        <ele>1223.5</ele>
        <time>2026-07-15T13:28:58Z</time>
      </trkpt>
      <trkpt lat="42.90446" lon="-0.20738">
        <ele>1223.5</ele>
        <time>2026-07-15T13:28:58Z</time>
      </trkpt>
      <trkpt lat="42.90446" lon="-0.20739">
        <ele>1223.5</ele>
        <time>2026-07-15T13:28:59Z</time>
      </trkpt>
      <trkpt lat="42.90447" lon="-0.2074">
        <ele>1223.5</ele>
        <time>2026-07-15T13:29:00Z</time>
      </trkpt>
      <trkpt lat="42.90448" lon="-0.2074">
        <ele>1222.5</ele>
        <time>2026-07-15T13:29:00Z</time>
      </trkpt>
      <trkpt lat="42.90448" lon="-0.2074">
        <ele>1222.5</ele>
        <time>2026-07-15T13:29:01Z</time>
      </trkpt>
      <trkpt lat="42.90449" lon="-0.20741">
        <ele>1221.5</ele>
        <time>2026-07-15T13:29:01Z</time>
      </trkpt>
      <trkpt lat="42.9045" lon="-0.20741">
        <ele>1221.5</ele>
        <time>2026-07-15T13:29:02Z</time>
      </trkpt>
      <trkpt lat="42.9045" lon="-0.20741">
        <ele>1221.5</ele>
        <time>2026-07-15T13:29:02Z</time>
      </trkpt>
      <trkpt lat="42.90451" lon="-0.20741">
        <ele>1220.5</ele>
        <time>2026-07-15T13:29:03Z</time>
      </trkpt>
      <trkpt lat="42.90452" lon="-0.20741">
        <ele>1220.5</ele>
        <time>2026-07-15T13:29:04Z</time>
      </trkpt>
      <trkpt lat="42.90453" lon="-0.20741">
        <ele>1220.5</ele>
        <time>2026-07-15T13:29:04Z</time>
      </trkpt>
      <trkpt lat="42.90453" lon="-0.20741">
        <ele>1220.5</ele>
        <time>2026-07-15T13:29:05Z</time>
      </trkpt>
      <trkpt lat="42.90454" lon="-0.2074">
        <ele>1220.5</ele>
        <time>2026-07-15T13:29:06Z</time>
      </trkpt>
      <trkpt lat="42.90456" lon="-0.2074">
        <ele>1220.5</ele>
        <time>2026-07-15T13:29:07Z</time>
      </trkpt>
      <trkpt lat="42.90456" lon="-0.2074">
        <ele>1220.5</ele>
        <time>2026-07-15T13:29:08Z</time>
      </trkpt>
      <trkpt lat="42.90457" lon="-0.20741">
        <ele>1220.5</ele>
        <time>2026-07-15T13:29:09Z</time>
      </trkpt>
      <trkpt lat="42.90457" lon="-0.20741">
        <ele>1220.5</ele>
        <time>2026-07-15T13:29:09Z</time>
      </trkpt>
      <trkpt lat="42.90458" lon="-0.2074">
        <ele>1220.5</ele>
        <time>2026-07-15T13:29:10Z</time>
      </trkpt>
      <trkpt lat="42.90459" lon="-0.2074">
        <ele>1221.5</ele>
        <time>2026-07-15T13:29:11Z</time>
      </trkpt>
      <trkpt lat="42.90459" lon="-0.2074">
        <ele>1221.5</ele>
        <time>2026-07-15T13:29:12Z</time>
      </trkpt>
      <trkpt lat="42.9046" lon="-0.20741">
        <ele>1221.5</ele>
        <time>2026-07-15T13:29:12Z</time>
      </trkpt>
      <trkpt lat="42.9046" lon="-0.20741">
        <ele>1221.5</ele>
        <time>2026-07-15T13:29:13Z</time>
      </trkpt>
      <trkpt lat="42.9046" lon="-0.20743">
        <ele>1221.5</ele>
        <time>2026-07-15T13:29:14Z</time>
      </trkpt>
      <trkpt lat="42.90461" lon="-0.20743">
        <ele>1221.5</ele>
        <time>2026-07-15T13:29:14Z</time>
      </trkpt>
      <trkpt lat="42.90461" lon="-0.20744">
        <ele>1221.5</ele>
        <time>2026-07-15T13:29:15Z</time>
      </trkpt>
      <trkpt lat="42.90461" lon="-0.20744">
        <ele>1221.5</ele>
        <time>2026-07-15T13:29:15Z</time>
      </trkpt>
      <trkpt lat="42.90462" lon="-0.20745">
        <ele>1222.5</ele>
        <time>2026-07-15T13:29:16Z</time>
      </trkpt>
      <trkpt lat="42.90462" lon="-0.20745">
        <ele>1222.5</ele>
        <time>2026-07-15T13:29:17Z</time>
      </trkpt>
      <trkpt lat="42.90462" lon="-0.20745">
        <ele>1222.5</ele>
        <time>2026-07-15T13:29:17Z</time>
      </trkpt>
      <trkpt lat="42.90463" lon="-0.20745">
        <ele>1222.5</ele>
        <time>2026-07-15T13:29:18Z</time>
      </trkpt>
      <trkpt lat="42.90463" lon="-0.20745">
        <ele>1221.5</ele>
        <time>2026-07-15T13:29:18Z</time>
      </trkpt>
      <trkpt lat="42.90464" lon="-0.20745">
        <ele>1221.5</ele>
        <time>2026-07-15T13:29:19Z</time>
      </trkpt>
      <trkpt lat="42.90464" lon="-0.20745">
        <ele>1222.5</ele>
        <time>2026-07-15T13:29:19Z</time>
      </trkpt>
      <trkpt lat="42.90465" lon="-0.20746">
        <ele>1222.5</ele>
        <time>2026-07-15T13:29:20Z</time>
      </trkpt>
      <trkpt lat="42.90465" lon="-0.20745">
        <ele>1222.5</ele>
        <time>2026-07-15T13:29:21Z</time>
      </trkpt>
      <trkpt lat="42.90466" lon="-0.20745">
        <ele>1221.5</ele>
        <time>2026-07-15T13:29:22Z</time>
      </trkpt>
      <trkpt lat="42.90467" lon="-0.20744">
        <ele>1220.5</ele>
        <time>2026-07-15T13:29:22Z</time>
      </trkpt>
      <trkpt lat="42.90467" lon="-0.20744">
        <ele>1220.5</ele>
        <time>2026-07-15T13:29:23Z</time>
      </trkpt>
      <trkpt lat="42.90468" lon="-0.20744">
        <ele>1220.5</ele>
        <time>2026-07-15T13:29:24Z</time>
      </trkpt>
      <trkpt lat="42.90469" lon="-0.20744">
        <ele>1220.5</ele>
        <time>2026-07-15T13:29:25Z</time>
      </trkpt>
      <trkpt lat="42.9047" lon="-0.20744">
        <ele>1220.5</ele>
        <time>2026-07-15T13:29:26Z</time>
      </trkpt>
      <trkpt lat="42.90471" lon="-0.20745">
        <ele>1219.5</ele>
        <time>2026-07-15T13:29:26Z</time>
      </trkpt>
      <trkpt lat="42.90471" lon="-0.20745">
        <ele>1219.5</ele>
        <time>2026-07-15T13:29:27Z</time>
      </trkpt>
      <trkpt lat="42.90472" lon="-0.20745">
        <ele>1219.5</ele>
        <time>2026-07-15T13:29:27Z</time>
      </trkpt>
      <trkpt lat="42.90472" lon="-0.20745">
        <ele>1219.5</ele>
        <time>2026-07-15T13:29:28Z</time>
      </trkpt>
      <trkpt lat="42.90472" lon="-0.20745">
        <ele>1219.5</ele>
        <time>2026-07-15T13:29:29Z</time>
      </trkpt>
      <trkpt lat="42.90472" lon="-0.20746">
        <ele>1219.5</ele>
        <time>2026-07-15T13:29:29Z</time>
      </trkpt>
      <trkpt lat="42.90473" lon="-0.20746">
        <ele>1219.5</ele>
        <time>2026-07-15T13:29:30Z</time>
      </trkpt>
      <trkpt lat="42.90474" lon="-0.20747">
        <ele>1218.5</ele>
        <time>2026-07-15T13:29:30Z</time>
      </trkpt>
      <trkpt lat="42.90474" lon="-0.20747">
        <ele>1218.5</ele>
        <time>2026-07-15T13:29:31Z</time>
      </trkpt>
      <trkpt lat="42.90474" lon="-0.20748">
        <ele>1218.5</ele>
        <time>2026-07-15T13:29:32Z</time>
      </trkpt>
      <trkpt lat="42.90474" lon="-0.20748">
        <ele>1218.5</ele>
        <time>2026-07-15T13:29:32Z</time>
      </trkpt>
      <trkpt lat="42.90475" lon="-0.20749">
        <ele>1218.5</ele>
        <time>2026-07-15T13:29:33Z</time>
      </trkpt>
      <trkpt lat="42.90475" lon="-0.20749">
        <ele>1218.5</ele>
        <time>2026-07-15T13:29:34Z</time>
      </trkpt>
      <trkpt lat="42.90475" lon="-0.2075">
        <ele>1218.5</ele>
        <time>2026-07-15T13:29:34Z</time>
      </trkpt>
      <trkpt lat="42.90476" lon="-0.2075">
        <ele>1218.5</ele>
        <time>2026-07-15T13:29:35Z</time>
      </trkpt>
      <trkpt lat="42.90476" lon="-0.20751">
        <ele>1218.5</ele>
        <time>2026-07-15T13:29:35Z</time>
      </trkpt>
      <trkpt lat="42.90476" lon="-0.20751">
        <ele>1218.5</ele>
        <time>2026-07-15T13:29:36Z</time>
      </trkpt>
      <trkpt lat="42.90477" lon="-0.20751">
        <ele>1219.5</ele>
        <time>2026-07-15T13:29:37Z</time>
      </trkpt>
      <trkpt lat="42.90478" lon="-0.20751">
        <ele>1219.5</ele>
        <time>2026-07-15T13:29:38Z</time>
      </trkpt>
      <trkpt lat="42.90478" lon="-0.2075">
        <ele>1218.5</ele>
        <time>2026-07-15T13:29:38Z</time>
      </trkpt>
      <trkpt lat="42.90478" lon="-0.2075">
        <ele>1218.5</ele>
        <time>2026-07-15T13:29:39Z</time>
      </trkpt>
      <trkpt lat="42.90478" lon="-0.20749">
        <ele>1218.5</ele>
        <time>2026-07-15T13:29:39Z</time>
      </trkpt>
      <trkpt lat="42.90479" lon="-0.20748">
        <ele>1218.5</ele>
        <time>2026-07-15T13:29:40Z</time>
      </trkpt>
      <trkpt lat="42.90479" lon="-0.20746">
        <ele>1219.5</ele>
        <time>2026-07-15T13:29:41Z</time>
      </trkpt>
      <trkpt lat="42.90479" lon="-0.20744">
        <ele>1218.5</ele>
        <time>2026-07-15T13:29:41Z</time>
      </trkpt>
      <trkpt lat="42.9048" lon="-0.20744">
        <ele>1218.5</ele>
        <time>2026-07-15T13:29:42Z</time>
      </trkpt>
      <trkpt lat="42.9048" lon="-0.20743">
        <ele>1218.5</ele>
        <time>2026-07-15T13:29:43Z</time>
      </trkpt>
      <trkpt lat="42.90481" lon="-0.20741">
        <ele>1218.5</ele>
        <time>2026-07-15T13:29:43Z</time>
      </trkpt>
      <trkpt lat="42.90481" lon="-0.2074">
        <ele>1217.5</ele>
        <time>2026-07-15T13:29:44Z</time>
      </trkpt>
      <trkpt lat="42.90482" lon="-0.20739">
        <ele>1217.5</ele>
        <time>2026-07-15T13:29:45Z</time>
      </trkpt>
      <trkpt lat="42.90482" lon="-0.20738">
        <ele>1217.5</ele>
        <time>2026-07-15T13:29:45Z</time>
      </trkpt>
      <trkpt lat="42.90482" lon="-0.20737">
        <ele>1217.5</ele>
        <time>2026-07-15T13:29:46Z</time>
      </trkpt>
      <trkpt lat="42.90482" lon="-0.20735">
        <ele>1217.5</ele>
        <time>2026-07-15T13:29:47Z</time>
      </trkpt>
      <trkpt lat="42.90482" lon="-0.20734">
        <ele>1217.5</ele>
        <time>2026-07-15T13:29:47Z</time>
      </trkpt>
      <trkpt lat="42.90483" lon="-0.20733">
        <ele>1217.5</ele>
        <time>2026-07-15T13:29:48Z</time>
      </trkpt>
      <trkpt lat="42.90483" lon="-0.20732">
        <ele>1216.5</ele>
        <time>2026-07-15T13:29:48Z</time>
      </trkpt>
      <trkpt lat="42.90482" lon="-0.2073">
        <ele>1215.5</ele>
        <time>2026-07-15T13:29:49Z</time>
      </trkpt>
      <trkpt lat="42.90483" lon="-0.20728">
        <ele>1215.5</ele>
        <time>2026-07-15T13:29:50Z</time>
      </trkpt>
      <trkpt lat="42.90482" lon="-0.20727">
        <ele>1215.5</ele>
        <time>2026-07-15T13:29:51Z</time>
      </trkpt>
      <trkpt lat="42.90483" lon="-0.20726">
        <ele>1215.5</ele>
        <time>2026-07-15T13:29:52Z</time>
      </trkpt>
      <trkpt lat="42.90483" lon="-0.20725">
        <ele>1215.5</ele>
        <time>2026-07-15T13:29:52Z</time>
      </trkpt>
      <trkpt lat="42.90483" lon="-0.20725">
        <ele>1215.5</ele>
        <time>2026-07-15T13:29:53Z</time>
      </trkpt>
      <trkpt lat="42.90483" lon="-0.20725">
        <ele>1215.5</ele>
        <time>2026-07-15T13:29:53Z</time>
      </trkpt>
      <trkpt lat="42.90484" lon="-0.20724">
        <ele>1215.5</ele>
        <time>2026-07-15T13:29:54Z</time>
      </trkpt>
      <trkpt lat="42.90484" lon="-0.20724">
        <ele>1215.5</ele>
        <time>2026-07-15T13:29:54Z</time>
      </trkpt>
      <trkpt lat="42.90485" lon="-0.20724">
        <ele>1215.5</ele>
        <time>2026-07-15T13:29:55Z</time>
      </trkpt>
      <trkpt lat="42.90485" lon="-0.20725">
        <ele>1215.5</ele>
        <time>2026-07-15T13:29:56Z</time>
      </trkpt>
      <trkpt lat="42.90486" lon="-0.20725">
        <ele>1215.5</ele>
        <time>2026-07-15T13:29:56Z</time>
      </trkpt>
      <trkpt lat="42.90486" lon="-0.20725">
        <ele>1215.5</ele>
        <time>2026-07-15T13:29:57Z</time>
      </trkpt>
      <trkpt lat="42.90487" lon="-0.20726">
        <ele>1214.5</ele>
        <time>2026-07-15T13:29:57Z</time>
      </trkpt>
      <trkpt lat="42.90488" lon="-0.20727">
        <ele>1214.5</ele>
        <time>2026-07-15T13:29:58Z</time>
      </trkpt>
      <trkpt lat="42.90488" lon="-0.20727">
        <ele>1214.5</ele>
        <time>2026-07-15T13:29:58Z</time>
      </trkpt>
      <trkpt lat="42.90489" lon="-0.20728">
        <ele>1214.5</ele>
        <time>2026-07-15T13:29:59Z</time>
      </trkpt>
      <trkpt lat="42.90489" lon="-0.20728">
        <ele>1213.5</ele>
        <time>2026-07-15T13:30:00Z</time>
      </trkpt>
      <trkpt lat="42.9049" lon="-0.20728">
        <ele>1212.5</ele>
        <time>2026-07-15T13:30:01Z</time>
      </trkpt>
      <trkpt lat="42.90491" lon="-0.20728">
        <ele>1211.5</ele>
        <time>2026-07-15T13:30:01Z</time>
      </trkpt>
      <trkpt lat="42.90492" lon="-0.20728">
        <ele>1210.5</ele>
        <time>2026-07-15T13:30:02Z</time>
      </trkpt>
      <trkpt lat="42.90493" lon="-0.20728">
        <ele>1210.5</ele>
        <time>2026-07-15T13:30:03Z</time>
      </trkpt>
      <trkpt lat="42.90494" lon="-0.20728">
        <ele>1210.5</ele>
        <time>2026-07-15T13:30:03Z</time>
      </trkpt>
      <trkpt lat="42.90494" lon="-0.20728">
        <ele>1210.5</ele>
        <time>2026-07-15T13:30:04Z</time>
      </trkpt>
      <trkpt lat="42.90495" lon="-0.20728">
        <ele>1209.5</ele>
        <time>2026-07-15T13:30:05Z</time>
      </trkpt>
      <trkpt lat="42.90495" lon="-0.20728">
        <ele>1209.5</ele>
        <time>2026-07-15T13:30:05Z</time>
      </trkpt>
      <trkpt lat="42.90497" lon="-0.20728">
        <ele>1209.5</ele>
        <time>2026-07-15T13:30:06Z</time>
      </trkpt>
      <trkpt lat="42.90497" lon="-0.20728">
        <ele>1208.5</ele>
        <time>2026-07-15T13:30:07Z</time>
      </trkpt>
      <trkpt lat="42.90497" lon="-0.20728">
        <ele>1207.5</ele>
        <time>2026-07-15T13:30:07Z</time>
      </trkpt>
      <trkpt lat="42.90498" lon="-0.20727">
        <ele>1207.5</ele>
        <time>2026-07-15T13:30:08Z</time>
      </trkpt>
      <trkpt lat="42.90499" lon="-0.20727">
        <ele>1208.5</ele>
        <time>2026-07-15T13:30:09Z</time>
      </trkpt>
      <trkpt lat="42.90499" lon="-0.20727">
        <ele>1208.5</ele>
        <time>2026-07-15T13:30:10Z</time>
      </trkpt>
      <trkpt lat="42.905" lon="-0.20726">
        <ele>1208.5</ele>
        <time>2026-07-15T13:30:10Z</time>
      </trkpt>
      <trkpt lat="42.905" lon="-0.20726">
        <ele>1208.5</ele>
        <time>2026-07-15T13:30:11Z</time>
      </trkpt>
      <trkpt lat="42.905" lon="-0.20725">
        <ele>1207.5</ele>
        <time>2026-07-15T13:30:11Z</time>
      </trkpt>
      <trkpt lat="42.90501" lon="-0.20724">
        <ele>1207.5</ele>
        <time>2026-07-15T13:30:12Z</time>
      </trkpt>
      <trkpt lat="42.90501" lon="-0.20723">
        <ele>1208.5</ele>
        <time>2026-07-15T13:30:12Z</time>
      </trkpt>
      <trkpt lat="42.90501" lon="-0.20723">
        <ele>1208.5</ele>
        <time>2026-07-15T13:30:13Z</time>
      </trkpt>
      <trkpt lat="42.90502" lon="-0.20722">
        <ele>1208.5</ele>
        <time>2026-07-15T13:30:13Z</time>
      </trkpt>
      <trkpt lat="42.90502" lon="-0.20722">
        <ele>1208.5</ele>
        <time>2026-07-15T13:30:14Z</time>
      </trkpt>
      <trkpt lat="42.90503" lon="-0.20722">
        <ele>1208.5</ele>
        <time>2026-07-15T13:30:15Z</time>
      </trkpt>
      <trkpt lat="42.90503" lon="-0.20723">
        <ele>1208.5</ele>
        <time>2026-07-15T13:30:16Z</time>
      </trkpt>
      <trkpt lat="42.90504" lon="-0.20723">
        <ele>1208.5</ele>
        <time>2026-07-15T13:30:16Z</time>
      </trkpt>
      <trkpt lat="42.90504" lon="-0.20723">
        <ele>1209.5</ele>
        <time>2026-07-15T13:30:17Z</time>
      </trkpt>
      <trkpt lat="42.90505" lon="-0.20723">
        <ele>1209.5</ele>
        <time>2026-07-15T13:30:18Z</time>
      </trkpt>
      <trkpt lat="42.90506" lon="-0.20723">
        <ele>1209.5</ele>
        <time>2026-07-15T13:30:18Z</time>
      </trkpt>
      <trkpt lat="42.90506" lon="-0.20723">
        <ele>1209.5</ele>
        <time>2026-07-15T13:30:19Z</time>
      </trkpt>
      <trkpt lat="42.90507" lon="-0.20723">
        <ele>1209.5</ele>
        <time>2026-07-15T13:30:19Z</time>
      </trkpt>
      <trkpt lat="42.90507" lon="-0.20723">
        <ele>1209.5</ele>
        <time>2026-07-15T13:30:20Z</time>
      </trkpt>
      <trkpt lat="42.90508" lon="-0.20722">
        <ele>1209.5</ele>
        <time>2026-07-15T13:30:20Z</time>
      </trkpt>
      <trkpt lat="42.90508" lon="-0.20722">
        <ele>1209.5</ele>
        <time>2026-07-15T13:30:21Z</time>
      </trkpt>
      <trkpt lat="42.90509" lon="-0.20721">
        <ele>1209.5</ele>
        <time>2026-07-15T13:30:22Z</time>
      </trkpt>
      <trkpt lat="42.90508" lon="-0.2072">
        <ele>1209.5</ele>
        <time>2026-07-15T13:30:23Z</time>
      </trkpt>
      <trkpt lat="42.90508" lon="-0.20718">
        <ele>1209.5</ele>
        <time>2026-07-15T13:30:24Z</time>
      </trkpt>
      <trkpt lat="42.90507" lon="-0.20716">
        <ele>1208.5</ele>
        <time>2026-07-15T13:30:25Z</time>
      </trkpt>
      <trkpt lat="42.90506" lon="-0.20715">
        <ele>1207.5</ele>
        <time>2026-07-15T13:30:25Z</time>
      </trkpt>
      <trkpt lat="42.90506" lon="-0.20714">
        <ele>1207.5</ele>
        <time>2026-07-15T13:30:26Z</time>
      </trkpt>
      <trkpt lat="42.90504" lon="-0.20711">
        <ele>1206.5</ele>
        <time>2026-07-15T13:30:27Z</time>
      </trkpt>
      <trkpt lat="42.90505" lon="-0.20709">
        <ele>1206.5</ele>
        <time>2026-07-15T13:30:28Z</time>
      </trkpt>
      <trkpt lat="42.90504" lon="-0.20707">
        <ele>1206.5</ele>
        <time>2026-07-15T13:30:29Z</time>
      </trkpt>
      <trkpt lat="42.90503" lon="-0.20705">
        <ele>1206.5</ele>
        <time>2026-07-15T13:30:30Z</time>
      </trkpt>
      <trkpt lat="42.90502" lon="-0.20705">
        <ele>1206.5</ele>
        <time>2026-07-15T13:30:30Z</time>
      </trkpt>
      <trkpt lat="42.90501" lon="-0.20704">
        <ele>1206.5</ele>
        <time>2026-07-15T13:30:31Z</time>
      </trkpt>
      <trkpt lat="42.90501" lon="-0.20704">
        <ele>1205.5</ele>
        <time>2026-07-15T13:30:31Z</time>
      </trkpt>
      <trkpt lat="42.905" lon="-0.20704">
        <ele>1204.5</ele>
        <time>2026-07-15T13:30:32Z</time>
      </trkpt>
      <trkpt lat="42.90499" lon="-0.20703">
        <ele>1204.5</ele>
        <time>2026-07-15T13:30:33Z</time>
      </trkpt>
      <trkpt lat="42.90498" lon="-0.20703">
        <ele>1204.5</ele>
        <time>2026-07-15T13:30:34Z</time>
      </trkpt>
      <trkpt lat="42.90498" lon="-0.20702">
        <ele>1203.5</ele>
        <time>2026-07-15T13:30:35Z</time>
      </trkpt>
      <trkpt lat="42.90498" lon="-0.20702">
        <ele>1202.5</ele>
        <time>2026-07-15T13:30:36Z</time>
      </trkpt>
      <trkpt lat="42.90498" lon="-0.20701">
        <ele>1202.5</ele>
        <time>2026-07-15T13:30:36Z</time>
      </trkpt>
      <trkpt lat="42.90497" lon="-0.207">
        <ele>1202.5</ele>
        <time>2026-07-15T13:30:37Z</time>
      </trkpt>
      <trkpt lat="42.90497" lon="-0.207">
        <ele>1201.5</ele>
        <time>2026-07-15T13:30:37Z</time>
      </trkpt>
      <trkpt lat="42.90497" lon="-0.20699">
        <ele>1201.5</ele>
        <time>2026-07-15T13:30:38Z</time>
      </trkpt>
      <trkpt lat="42.90497" lon="-0.20697">
        <ele>1201.5</ele>
        <time>2026-07-15T13:30:39Z</time>
      </trkpt>
      <trkpt lat="42.90497" lon="-0.20696">
        <ele>1202.5</ele>
        <time>2026-07-15T13:30:40Z</time>
      </trkpt>
      <trkpt lat="42.90497" lon="-0.20694">
        <ele>1201.5</ele>
        <time>2026-07-15T13:30:41Z</time>
      </trkpt>
      <trkpt lat="42.90498" lon="-0.20693">
        <ele>1200.5</ele>
        <time>2026-07-15T13:30:42Z</time>
      </trkpt>
      <trkpt lat="42.90499" lon="-0.20692">
        <ele>1200.5</ele>
        <time>2026-07-15T13:30:43Z</time>
      </trkpt>
      <trkpt lat="42.90498" lon="-0.20691">
        <ele>1200.5</ele>
        <time>2026-07-15T13:30:43Z</time>
      </trkpt>
      <trkpt lat="42.90498" lon="-0.20691">
        <ele>1200.5</ele>
        <time>2026-07-15T13:30:44Z</time>
      </trkpt>
      <trkpt lat="42.90498" lon="-0.2069">
        <ele>1200.5</ele>
        <time>2026-07-15T13:30:45Z</time>
      </trkpt>
      <trkpt lat="42.90498" lon="-0.20689">
        <ele>1200.5</ele>
        <time>2026-07-15T13:30:45Z</time>
      </trkpt>
      <trkpt lat="42.90497" lon="-0.20688">
        <ele>1200.5</ele>
        <time>2026-07-15T13:30:46Z</time>
      </trkpt>
      <trkpt lat="42.90497" lon="-0.20688">
        <ele>1200.5</ele>
        <time>2026-07-15T13:30:46Z</time>
      </trkpt>
      <trkpt lat="42.90497" lon="-0.20687">
        <ele>1200.5</ele>
        <time>2026-07-15T13:30:47Z</time>
      </trkpt>
      <trkpt lat="42.90496" lon="-0.20687">
        <ele>1199.5</ele>
        <time>2026-07-15T13:30:47Z</time>
      </trkpt>
      <trkpt lat="42.90496" lon="-0.20686">
        <ele>1199.5</ele>
        <time>2026-07-15T13:30:48Z</time>
      </trkpt>
      <trkpt lat="42.90496" lon="-0.20686">
        <ele>1199.5</ele>
        <time>2026-07-15T13:30:48Z</time>
      </trkpt>
      <trkpt lat="42.90496" lon="-0.20685">
        <ele>1199.5</ele>
        <time>2026-07-15T13:30:49Z</time>
      </trkpt>
      <trkpt lat="42.90496" lon="-0.20684">
        <ele>1199.5</ele>
        <time>2026-07-15T13:30:50Z</time>
      </trkpt>
      <trkpt lat="42.90496" lon="-0.20683">
        <ele>1198.5</ele>
        <time>2026-07-15T13:30:51Z</time>
      </trkpt>
      <trkpt lat="42.90496" lon="-0.20682">
        <ele>1198.5</ele>
        <time>2026-07-15T13:30:51Z</time>
      </trkpt>
      <trkpt lat="42.90495" lon="-0.20682">
        <ele>1197.5</ele>
        <time>2026-07-15T13:30:52Z</time>
      </trkpt>
      <trkpt lat="42.90495" lon="-0.20681">
        <ele>1197.5</ele>
        <time>2026-07-15T13:30:53Z</time>
      </trkpt>
      <trkpt lat="42.90495" lon="-0.20681">
        <ele>1197.5</ele>
        <time>2026-07-15T13:30:53Z</time>
      </trkpt>
      <trkpt lat="42.90495" lon="-0.2068">
        <ele>1197.5</ele>
        <time>2026-07-15T13:30:54Z</time>
      </trkpt>
      <trkpt lat="42.90495" lon="-0.2068">
        <ele>1196.5</ele>
        <time>2026-07-15T13:30:54Z</time>
      </trkpt>
      <trkpt lat="42.90496" lon="-0.20679">
        <ele>1196.5</ele>
        <time>2026-07-15T13:30:55Z</time>
      </trkpt>
      <trkpt lat="42.90496" lon="-0.20678">
        <ele>1196.5</ele>
        <time>2026-07-15T13:30:56Z</time>
      </trkpt>
      <trkpt lat="42.90496" lon="-0.20677">
        <ele>1195.5</ele>
        <time>2026-07-15T13:30:56Z</time>
      </trkpt>
      <trkpt lat="42.90496" lon="-0.20676">
        <ele>1195.5</ele>
        <time>2026-07-15T13:30:57Z</time>
      </trkpt>
      <trkpt lat="42.90497" lon="-0.20675">
        <ele>1195.5</ele>
        <time>2026-07-15T13:30:58Z</time>
      </trkpt>
      <trkpt lat="42.90497" lon="-0.20674">
        <ele>1194.5</ele>
        <time>2026-07-15T13:30:58Z</time>
      </trkpt>
      <trkpt lat="42.90498" lon="-0.20673">
        <ele>1194.5</ele>
        <time>2026-07-15T13:30:59Z</time>
      </trkpt>
      <trkpt lat="42.90499" lon="-0.20672">
        <ele>1194.5</ele>
        <time>2026-07-15T13:30:59Z</time>
      </trkpt>
      <trkpt lat="42.90499" lon="-0.20671">
        <ele>1194.5</ele>
        <time>2026-07-15T13:31:00Z</time>
      </trkpt>
      <trkpt lat="42.905" lon="-0.2067">
        <ele>1194.5</ele>
        <time>2026-07-15T13:31:00Z</time>
      </trkpt>
      <trkpt lat="42.905" lon="-0.20669">
        <ele>1194.5</ele>
        <time>2026-07-15T13:31:01Z</time>
      </trkpt>
      <trkpt lat="42.905" lon="-0.20669">
        <ele>1194.5</ele>
        <time>2026-07-15T13:31:01Z</time>
      </trkpt>
      <trkpt lat="42.90501" lon="-0.20668">
        <ele>1194.5</ele>
        <time>2026-07-15T13:31:02Z</time>
      </trkpt>
      <trkpt lat="42.90501" lon="-0.20667">
        <ele>1193.5</ele>
        <time>2026-07-15T13:31:02Z</time>
      </trkpt>
      <trkpt lat="42.90501" lon="-0.20666">
        <ele>1193.5</ele>
        <time>2026-07-15T13:31:03Z</time>
      </trkpt>
      <trkpt lat="42.90502" lon="-0.20665">
        <ele>1193.5</ele>
        <time>2026-07-15T13:31:04Z</time>
      </trkpt>
      <trkpt lat="42.90502" lon="-0.20665">
        <ele>1192.5</ele>
        <time>2026-07-15T13:31:04Z</time>
      </trkpt>
      <trkpt lat="42.90502" lon="-0.20664">
        <ele>1192.5</ele>
        <time>2026-07-15T13:31:05Z</time>
      </trkpt>
      <trkpt lat="42.90503" lon="-0.20663">
        <ele>1192.5</ele>
        <time>2026-07-15T13:31:05Z</time>
      </trkpt>
      <trkpt lat="42.90503" lon="-0.20662">
        <ele>1192.5</ele>
        <time>2026-07-15T13:31:06Z</time>
      </trkpt>
      <trkpt lat="42.90503" lon="-0.20662">
        <ele>1192.5</ele>
        <time>2026-07-15T13:31:06Z</time>
      </trkpt>
      <trkpt lat="42.90503" lon="-0.20661">
        <ele>1192.5</ele>
        <time>2026-07-15T13:31:07Z</time>
      </trkpt>
      <trkpt lat="42.90504" lon="-0.2066">
        <ele>1192.5</ele>
        <time>2026-07-15T13:31:08Z</time>
      </trkpt>
      <trkpt lat="42.90504" lon="-0.2066">
        <ele>1192.5</ele>
        <time>2026-07-15T13:31:08Z</time>
      </trkpt>
      <trkpt lat="42.90505" lon="-0.2066">
        <ele>1192.5</ele>
        <time>2026-07-15T13:31:09Z</time>
      </trkpt>
      <trkpt lat="42.90505" lon="-0.20659">
        <ele>1192.5</ele>
        <time>2026-07-15T13:31:09Z</time>
      </trkpt>
      <trkpt lat="42.90506" lon="-0.20659">
        <ele>1192.5</ele>
        <time>2026-07-15T13:31:10Z</time>
      </trkpt>
      <trkpt lat="42.90507" lon="-0.2066">
        <ele>1192.5</ele>
        <time>2026-07-15T13:31:10Z</time>
      </trkpt>
      <trkpt lat="42.90508" lon="-0.2066">
        <ele>1192.5</ele>
        <time>2026-07-15T13:31:11Z</time>
      </trkpt>
      <trkpt lat="42.90509" lon="-0.20661">
        <ele>1191.5</ele>
        <time>2026-07-15T13:31:12Z</time>
      </trkpt>
      <trkpt lat="42.9051" lon="-0.20662">
        <ele>1192.5</ele>
        <time>2026-07-15T13:31:12Z</time>
      </trkpt>
      <trkpt lat="42.90511" lon="-0.20663">
        <ele>1192.5</ele>
        <time>2026-07-15T13:31:13Z</time>
      </trkpt>
      <trkpt lat="42.90512" lon="-0.20663">
        <ele>1192.5</ele>
        <time>2026-07-15T13:31:13Z</time>
      </trkpt>
      <trkpt lat="42.90513" lon="-0.20663">
        <ele>1192.5</ele>
        <time>2026-07-15T13:31:14Z</time>
      </trkpt>
      <trkpt lat="42.90513" lon="-0.20662">
        <ele>1192.5</ele>
        <time>2026-07-15T13:31:14Z</time>
      </trkpt>
      <trkpt lat="42.90513" lon="-0.20661">
        <ele>1192.5</ele>
        <time>2026-07-15T13:31:15Z</time>
      </trkpt>
      <trkpt lat="42.90514" lon="-0.20661">
        <ele>1191.5</ele>
        <time>2026-07-15T13:31:15Z</time>
      </trkpt>
      <trkpt lat="42.90515" lon="-0.20661">
        <ele>1191.5</ele>
        <time>2026-07-15T13:31:16Z</time>
      </trkpt>
      <trkpt lat="42.90515" lon="-0.20661">
        <ele>1191.5</ele>
        <time>2026-07-15T13:31:16Z</time>
      </trkpt>
      <trkpt lat="42.90516" lon="-0.20662">
        <ele>1191.5</ele>
        <time>2026-07-15T13:31:17Z</time>
      </trkpt>
      <trkpt lat="42.90517" lon="-0.20662">
        <ele>1191.5</ele>
        <time>2026-07-15T13:31:18Z</time>
      </trkpt>
      <trkpt lat="42.90518" lon="-0.20662">
        <ele>1190.5</ele>
        <time>2026-07-15T13:31:19Z</time>
      </trkpt>
      <trkpt lat="42.90519" lon="-0.20663">
        <ele>1190.5</ele>
        <time>2026-07-15T13:31:19Z</time>
      </trkpt>
      <trkpt lat="42.90519" lon="-0.20663">
        <ele>1190.5</ele>
        <time>2026-07-15T13:31:20Z</time>
      </trkpt>
      <trkpt lat="42.9052" lon="-0.20664">
        <ele>1190.5</ele>
        <time>2026-07-15T13:31:20Z</time>
      </trkpt>
      <trkpt lat="42.9052" lon="-0.20664">
        <ele>1190.5</ele>
        <time>2026-07-15T13:31:21Z</time>
      </trkpt>
      <trkpt lat="42.9052" lon="-0.20664">
        <ele>1189.5</ele>
        <time>2026-07-15T13:31:21Z</time>
      </trkpt>
      <trkpt lat="42.90521" lon="-0.20664">
        <ele>1189.5</ele>
        <time>2026-07-15T13:31:22Z</time>
      </trkpt>
      <trkpt lat="42.90522" lon="-0.20664">
        <ele>1189.5</ele>
        <time>2026-07-15T13:31:22Z</time>
      </trkpt>
      <trkpt lat="42.90522" lon="-0.20664">
        <ele>1189.5</ele>
        <time>2026-07-15T13:31:23Z</time>
      </trkpt>
      <trkpt lat="42.90523" lon="-0.20664">
        <ele>1189.5</ele>
        <time>2026-07-15T13:31:24Z</time>
      </trkpt>
      <trkpt lat="42.90524" lon="-0.20665">
        <ele>1189.5</ele>
        <time>2026-07-15T13:31:24Z</time>
      </trkpt>
      <trkpt lat="42.90524" lon="-0.20665">
        <ele>1189.5</ele>
        <time>2026-07-15T13:31:25Z</time>
      </trkpt>
      <trkpt lat="42.90525" lon="-0.20666">
        <ele>1188.5</ele>
        <time>2026-07-15T13:31:25Z</time>
      </trkpt>
      <trkpt lat="42.90525" lon="-0.20666">
        <ele>1188.5</ele>
        <time>2026-07-15T13:31:26Z</time>
      </trkpt>
      <trkpt lat="42.90525" lon="-0.20667">
        <ele>1188.5</ele>
        <time>2026-07-15T13:31:27Z</time>
      </trkpt>
      <trkpt lat="42.90527" lon="-0.20666">
        <ele>1188.5</ele>
        <time>2026-07-15T13:31:28Z</time>
      </trkpt>
      <trkpt lat="42.90527" lon="-0.20666">
        <ele>1187.5</ele>
        <time>2026-07-15T13:31:28Z</time>
      </trkpt>
      <trkpt lat="42.90527" lon="-0.20666">
        <ele>1188.5</ele>
        <time>2026-07-15T13:31:29Z</time>
      </trkpt>
      <trkpt lat="42.90527" lon="-0.20666">
        <ele>1188.5</ele>
        <time>2026-07-15T13:31:29Z</time>
      </trkpt>
      <trkpt lat="42.90528" lon="-0.20665">
        <ele>1188.5</ele>
        <time>2026-07-15T13:31:30Z</time>
      </trkpt>
      <trkpt lat="42.90528" lon="-0.20666">
        <ele>1188.5</ele>
        <time>2026-07-15T13:31:31Z</time>
      </trkpt>
      <trkpt lat="42.90528" lon="-0.20666">
        <ele>1187.5</ele>
        <time>2026-07-15T13:31:31Z</time>
      </trkpt>
      <trkpt lat="42.90529" lon="-0.20666">
        <ele>1187.5</ele>
        <time>2026-07-15T13:31:32Z</time>
      </trkpt>
      <trkpt lat="42.90529" lon="-0.20665">
        <ele>1187.5</ele>
        <time>2026-07-15T13:31:32Z</time>
      </trkpt>
      <trkpt lat="42.90529" lon="-0.20665">
        <ele>1187.5</ele>
        <time>2026-07-15T13:31:33Z</time>
      </trkpt>
      <trkpt lat="42.90529" lon="-0.20664">
        <ele>1187.5</ele>
        <time>2026-07-15T13:31:33Z</time>
      </trkpt>
      <trkpt lat="42.90529" lon="-0.20663">
        <ele>1187.5</ele>
        <time>2026-07-15T13:31:34Z</time>
      </trkpt>
      <trkpt lat="42.90529" lon="-0.20662">
        <ele>1187.5</ele>
        <time>2026-07-15T13:31:34Z</time>
      </trkpt>
      <trkpt lat="42.9053" lon="-0.20661">
        <ele>1187.5</ele>
        <time>2026-07-15T13:31:35Z</time>
      </trkpt>
      <trkpt lat="42.9053" lon="-0.20661">
        <ele>1187.5</ele>
        <time>2026-07-15T13:31:36Z</time>
      </trkpt>
      <trkpt lat="42.90531" lon="-0.2066">
        <ele>1187.5</ele>
        <time>2026-07-15T13:31:36Z</time>
      </trkpt>
      <trkpt lat="42.90531" lon="-0.20659">
        <ele>1187.5</ele>
        <time>2026-07-15T13:31:37Z</time>
      </trkpt>
      <trkpt lat="42.90532" lon="-0.20658">
        <ele>1188.5</ele>
        <time>2026-07-15T13:31:37Z</time>
      </trkpt>
      <trkpt lat="42.90532" lon="-0.20657">
        <ele>1188.5</ele>
        <time>2026-07-15T13:31:38Z</time>
      </trkpt>
      <trkpt lat="42.90532" lon="-0.20656">
        <ele>1188.5</ele>
        <time>2026-07-15T13:31:38Z</time>
      </trkpt>
      <trkpt lat="42.90533" lon="-0.20656">
        <ele>1188.5</ele>
        <time>2026-07-15T13:31:39Z</time>
      </trkpt>
      <trkpt lat="42.90533" lon="-0.20655">
        <ele>1188.5</ele>
        <time>2026-07-15T13:31:39Z</time>
      </trkpt>
      <trkpt lat="42.90533" lon="-0.20654">
        <ele>1188.5</ele>
        <time>2026-07-15T13:31:40Z</time>
      </trkpt>
      <trkpt lat="42.90534" lon="-0.20654">
        <ele>1187.5</ele>
        <time>2026-07-15T13:31:40Z</time>
      </trkpt>
      <trkpt lat="42.90534" lon="-0.20653">
        <ele>1187.5</ele>
        <time>2026-07-15T13:31:41Z</time>
      </trkpt>
      <trkpt lat="42.90534" lon="-0.20653">
        <ele>1187.5</ele>
        <time>2026-07-15T13:31:42Z</time>
      </trkpt>
      <trkpt lat="42.90534" lon="-0.20652">
        <ele>1187.5</ele>
        <time>2026-07-15T13:31:42Z</time>
      </trkpt>
      <trkpt lat="42.90534" lon="-0.20651">
        <ele>1186.5</ele>
        <time>2026-07-15T13:31:43Z</time>
      </trkpt>
      <trkpt lat="42.90534" lon="-0.2065">
        <ele>1187.5</ele>
        <time>2026-07-15T13:31:43Z</time>
      </trkpt>
      <trkpt lat="42.90535" lon="-0.2065">
        <ele>1187.5</ele>
        <time>2026-07-15T13:31:44Z</time>
      </trkpt>
      <trkpt lat="42.90535" lon="-0.20649">
        <ele>1187.5</ele>
        <time>2026-07-15T13:31:45Z</time>
      </trkpt>
      <trkpt lat="42.90536" lon="-0.20648">
        <ele>1186.5</ele>
        <time>2026-07-15T13:31:46Z</time>
      </trkpt>
      <trkpt lat="42.90536" lon="-0.20648">
        <ele>1187.5</ele>
        <time>2026-07-15T13:31:46Z</time>
      </trkpt>
      <trkpt lat="42.90537" lon="-0.20648">
        <ele>1187.5</ele>
        <time>2026-07-15T13:31:47Z</time>
      </trkpt>
      <trkpt lat="42.90537" lon="-0.20647">
        <ele>1186.5</ele>
        <time>2026-07-15T13:31:47Z</time>
      </trkpt>
      <trkpt lat="42.90538" lon="-0.20647">
        <ele>1186.5</ele>
        <time>2026-07-15T13:31:48Z</time>
      </trkpt>
      <trkpt lat="42.90538" lon="-0.20647">
        <ele>1186.5</ele>
        <time>2026-07-15T13:31:48Z</time>
      </trkpt>
      <trkpt lat="42.90538" lon="-0.20646">
        <ele>1186.5</ele>
        <time>2026-07-15T13:31:49Z</time>
      </trkpt>
      <trkpt lat="42.90538" lon="-0.20646">
        <ele>1186.5</ele>
        <time>2026-07-15T13:31:50Z</time>
      </trkpt>
      <trkpt lat="42.90539" lon="-0.20646">
        <ele>1186.5</ele>
        <time>2026-07-15T13:31:50Z</time>
      </trkpt>
      <trkpt lat="42.90539" lon="-0.20645">
        <ele>1186.5</ele>
        <time>2026-07-15T13:31:51Z</time>
      </trkpt>
      <trkpt lat="42.90539" lon="-0.20644">
        <ele>1187.5</ele>
        <time>2026-07-15T13:31:51Z</time>
      </trkpt>
      <trkpt lat="42.9054" lon="-0.20644">
        <ele>1187.5</ele>
        <time>2026-07-15T13:31:52Z</time>
      </trkpt>
      <trkpt lat="42.9054" lon="-0.20643">
        <ele>1187.5</ele>
        <time>2026-07-15T13:31:52Z</time>
      </trkpt>
      <trkpt lat="42.90541" lon="-0.20643">
        <ele>1187.5</ele>
        <time>2026-07-15T13:31:53Z</time>
      </trkpt>
      <trkpt lat="42.90541" lon="-0.20642">
        <ele>1188.5</ele>
        <time>2026-07-15T13:31:53Z</time>
      </trkpt>
      <trkpt lat="42.90541" lon="-0.20641">
        <ele>1187.5</ele>
        <time>2026-07-15T13:31:54Z</time>
      </trkpt>
      <trkpt lat="42.90542" lon="-0.20641">
        <ele>1187.5</ele>
        <time>2026-07-15T13:31:55Z</time>
      </trkpt>
      <trkpt lat="42.90542" lon="-0.2064">
        <ele>1187.5</ele>
        <time>2026-07-15T13:31:55Z</time>
      </trkpt>
      <trkpt lat="42.90543" lon="-0.20639">
        <ele>1187.5</ele>
        <time>2026-07-15T13:31:56Z</time>
      </trkpt>
      <trkpt lat="42.90543" lon="-0.20638">
        <ele>1187.5</ele>
        <time>2026-07-15T13:31:56Z</time>
      </trkpt>
      <trkpt lat="42.90544" lon="-0.20638">
        <ele>1187.5</ele>
        <time>2026-07-15T13:31:57Z</time>
      </trkpt>
      <trkpt lat="42.90544" lon="-0.20637">
        <ele>1187.5</ele>
        <time>2026-07-15T13:31:58Z</time>
      </trkpt>
      <trkpt lat="42.90545" lon="-0.20636">
        <ele>1187.5</ele>
        <time>2026-07-15T13:31:58Z</time>
      </trkpt>
      <trkpt lat="42.90545" lon="-0.20635">
        <ele>1187.5</ele>
        <time>2026-07-15T13:31:59Z</time>
      </trkpt>
      <trkpt lat="42.90545" lon="-0.20635">
        <ele>1187.5</ele>
        <time>2026-07-15T13:32:00Z</time>
      </trkpt>
      <trkpt lat="42.90546" lon="-0.20634">
        <ele>1187.5</ele>
        <time>2026-07-15T13:32:00Z</time>
      </trkpt>
      <trkpt lat="42.90546" lon="-0.20633">
        <ele>1186.5</ele>
        <time>2026-07-15T13:32:01Z</time>
      </trkpt>
      <trkpt lat="42.90546" lon="-0.20632">
        <ele>1186.5</ele>
        <time>2026-07-15T13:32:01Z</time>
      </trkpt>
      <trkpt lat="42.90546" lon="-0.20631">
        <ele>1186.5</ele>
        <time>2026-07-15T13:32:02Z</time>
      </trkpt>
      <trkpt lat="42.90546" lon="-0.2063">
        <ele>1185.5</ele>
        <time>2026-07-15T13:32:02Z</time>
      </trkpt>
      <trkpt lat="42.90546" lon="-0.20629">
        <ele>1185.5</ele>
        <time>2026-07-15T13:32:03Z</time>
      </trkpt>
      <trkpt lat="42.90546" lon="-0.20629">
        <ele>1184.5</ele>
        <time>2026-07-15T13:32:03Z</time>
      </trkpt>
      <trkpt lat="42.90546" lon="-0.20628">
        <ele>1184.5</ele>
        <time>2026-07-15T13:32:04Z</time>
      </trkpt>
      <trkpt lat="42.90546" lon="-0.20627">
        <ele>1184.5</ele>
        <time>2026-07-15T13:32:05Z</time>
      </trkpt>
      <trkpt lat="42.90546" lon="-0.20627">
        <ele>1184.5</ele>
        <time>2026-07-15T13:32:05Z</time>
      </trkpt>
      <trkpt lat="42.90546" lon="-0.20626">
        <ele>1184.5</ele>
        <time>2026-07-15T13:32:06Z</time>
      </trkpt>
      <trkpt lat="42.90546" lon="-0.20625">
        <ele>1184.5</ele>
        <time>2026-07-15T13:32:07Z</time>
      </trkpt>
      <trkpt lat="42.90546" lon="-0.20624">
        <ele>1183.5</ele>
        <time>2026-07-15T13:32:08Z</time>
      </trkpt>
      <trkpt lat="42.90546" lon="-0.20623">
        <ele>1183.5</ele>
        <time>2026-07-15T13:32:08Z</time>
      </trkpt>
      <trkpt lat="42.90547" lon="-0.20622">
        <ele>1182.5</ele>
        <time>2026-07-15T13:32:09Z</time>
      </trkpt>
      <trkpt lat="42.90547" lon="-0.20622">
        <ele>1182.5</ele>
        <time>2026-07-15T13:32:09Z</time>
      </trkpt>
      <trkpt lat="42.90547" lon="-0.20621">
        <ele>1182.5</ele>
        <time>2026-07-15T13:32:10Z</time>
      </trkpt>
      <trkpt lat="42.90547" lon="-0.2062">
        <ele>1182.5</ele>
        <time>2026-07-15T13:32:10Z</time>
      </trkpt>
      <trkpt lat="42.90548" lon="-0.2062">
        <ele>1182.5</ele>
        <time>2026-07-15T13:32:11Z</time>
      </trkpt>
      <trkpt lat="42.90548" lon="-0.20619">
        <ele>1182.5</ele>
        <time>2026-07-15T13:32:11Z</time>
      </trkpt>
      <trkpt lat="42.90548" lon="-0.20617">
        <ele>1182.5</ele>
        <time>2026-07-15T13:32:12Z</time>
      </trkpt>
      <trkpt lat="42.90548" lon="-0.20616">
        <ele>1183.5</ele>
        <time>2026-07-15T13:32:13Z</time>
      </trkpt>
      <trkpt lat="42.90548" lon="-0.20615">
        <ele>1183.5</ele>
        <time>2026-07-15T13:32:14Z</time>
      </trkpt>
      <trkpt lat="42.90548" lon="-0.20614">
        <ele>1183.5</ele>
        <time>2026-07-15T13:32:14Z</time>
      </trkpt>
      <trkpt lat="42.90548" lon="-0.20613">
        <ele>1183.5</ele>
        <time>2026-07-15T13:32:15Z</time>
      </trkpt>
      <trkpt lat="42.90548" lon="-0.20612">
        <ele>1183.5</ele>
        <time>2026-07-15T13:32:16Z</time>
      </trkpt>
      <trkpt lat="42.90548" lon="-0.20611">
        <ele>1182.5</ele>
        <time>2026-07-15T13:32:16Z</time>
      </trkpt>
      <trkpt lat="42.90547" lon="-0.2061">
        <ele>1182.5</ele>
        <time>2026-07-15T13:32:17Z</time>
      </trkpt>
      <trkpt lat="42.90547" lon="-0.20609">
        <ele>1182.5</ele>
        <time>2026-07-15T13:32:18Z</time>
      </trkpt>
      <trkpt lat="42.90546" lon="-0.20608">
        <ele>1182.5</ele>
        <time>2026-07-15T13:32:19Z</time>
      </trkpt>
      <trkpt lat="42.90546" lon="-0.20608">
        <ele>1182.5</ele>
        <time>2026-07-15T13:32:19Z</time>
      </trkpt>
      <trkpt lat="42.90546" lon="-0.20607">
        <ele>1182.5</ele>
        <time>2026-07-15T13:32:20Z</time>
      </trkpt>
      <trkpt lat="42.90546" lon="-0.20607">
        <ele>1181.5</ele>
        <time>2026-07-15T13:32:20Z</time>
      </trkpt>
      <trkpt lat="42.90545" lon="-0.20606">
        <ele>1181.5</ele>
        <time>2026-07-15T13:32:21Z</time>
      </trkpt>
      <trkpt lat="42.90545" lon="-0.20605">
        <ele>1181.5</ele>
        <time>2026-07-15T13:32:21Z</time>
      </trkpt>
      <trkpt lat="42.90545" lon="-0.20605">
        <ele>1181.5</ele>
        <time>2026-07-15T13:32:22Z</time>
      </trkpt>
      <trkpt lat="42.90545" lon="-0.20604">
        <ele>1181.5</ele>
        <time>2026-07-15T13:32:23Z</time>
      </trkpt>
      <trkpt lat="42.90545" lon="-0.20603">
        <ele>1181.5</ele>
        <time>2026-07-15T13:32:24Z</time>
      </trkpt>
      <trkpt lat="42.90545" lon="-0.20602">
        <ele>1180.5</ele>
        <time>2026-07-15T13:32:24Z</time>
      </trkpt>
      <trkpt lat="42.90545" lon="-0.20602">
        <ele>1180.5</ele>
        <time>2026-07-15T13:32:25Z</time>
      </trkpt>
      <trkpt lat="42.90545" lon="-0.20601">
        <ele>1180.5</ele>
        <time>2026-07-15T13:32:26Z</time>
      </trkpt>
      <trkpt lat="42.90545" lon="-0.20601">
        <ele>1180.5</ele>
        <time>2026-07-15T13:32:26Z</time>
      </trkpt>
      <trkpt lat="42.90545" lon="-0.206">
        <ele>1180.5</ele>
        <time>2026-07-15T13:32:27Z</time>
      </trkpt>
      <trkpt lat="42.90545" lon="-0.206">
        <ele>1179.5</ele>
        <time>2026-07-15T13:32:27Z</time>
      </trkpt>
      <trkpt lat="42.90545" lon="-0.20599">
        <ele>1179.5</ele>
        <time>2026-07-15T13:32:28Z</time>
      </trkpt>
      <trkpt lat="42.90545" lon="-0.20598">
        <ele>1179.5</ele>
        <time>2026-07-15T13:32:28Z</time>
      </trkpt>
      <trkpt lat="42.90546" lon="-0.20598">
        <ele>1180.5</ele>
        <time>2026-07-15T13:32:29Z</time>
      </trkpt>
      <trkpt lat="42.90546" lon="-0.20597">
        <ele>1180.5</ele>
        <time>2026-07-15T13:32:30Z</time>
      </trkpt>
      <trkpt lat="42.90547" lon="-0.20597">
        <ele>1180.5</ele>
        <time>2026-07-15T13:32:30Z</time>
      </trkpt>
      <trkpt lat="42.90548" lon="-0.20596">
        <ele>1180.5</ele>
        <time>2026-07-15T13:32:31Z</time>
      </trkpt>
      <trkpt lat="42.90549" lon="-0.20596">
        <ele>1180.5</ele>
        <time>2026-07-15T13:32:32Z</time>
      </trkpt>
      <trkpt lat="42.90551" lon="-0.20597">
        <ele>1180.5</ele>
        <time>2026-07-15T13:32:32Z</time>
      </trkpt>
      <trkpt lat="42.90551" lon="-0.20596">
        <ele>1180.5</ele>
        <time>2026-07-15T13:32:33Z</time>
      </trkpt>
      <trkpt lat="42.90553" lon="-0.20597">
        <ele>1179.5</ele>
        <time>2026-07-15T13:32:33Z</time>
      </trkpt>
      <trkpt lat="42.90554" lon="-0.20598">
        <ele>1179.5</ele>
        <time>2026-07-15T13:32:34Z</time>
      </trkpt>
      <trkpt lat="42.90555" lon="-0.20598">
        <ele>1179.5</ele>
        <time>2026-07-15T13:32:34Z</time>
      </trkpt>
      <trkpt lat="42.90556" lon="-0.20599">
        <ele>1179.5</ele>
        <time>2026-07-15T13:32:35Z</time>
      </trkpt>
      <trkpt lat="42.90557" lon="-0.206">
        <ele>1179.5</ele>
        <time>2026-07-15T13:32:36Z</time>
      </trkpt>
      <trkpt lat="42.90558" lon="-0.206">
        <ele>1179.5</ele>
        <time>2026-07-15T13:32:36Z</time>
      </trkpt>
      <trkpt lat="42.90558" lon="-0.206">
        <ele>1179.5</ele>
        <time>2026-07-15T13:32:37Z</time>
      </trkpt>
      <trkpt lat="42.90559" lon="-0.206">
        <ele>1179.5</ele>
        <time>2026-07-15T13:32:37Z</time>
      </trkpt>
      <trkpt lat="42.9056" lon="-0.206">
        <ele>1179.5</ele>
        <time>2026-07-15T13:32:38Z</time>
      </trkpt>
      <trkpt lat="42.9056" lon="-0.206">
        <ele>1179.5</ele>
        <time>2026-07-15T13:32:39Z</time>
      </trkpt>
      <trkpt lat="42.9056" lon="-0.20599">
        <ele>1179.5</ele>
        <time>2026-07-15T13:32:39Z</time>
      </trkpt>
      <trkpt lat="42.90561" lon="-0.20598">
        <ele>1179.5</ele>
        <time>2026-07-15T13:32:40Z</time>
      </trkpt>
      <trkpt lat="42.90561" lon="-0.20598">
        <ele>1179.5</ele>
        <time>2026-07-15T13:32:40Z</time>
      </trkpt>
      <trkpt lat="42.90561" lon="-0.20597">
        <ele>1179.5</ele>
        <time>2026-07-15T13:32:41Z</time>
      </trkpt>
      <trkpt lat="42.90561" lon="-0.20596">
        <ele>1179.5</ele>
        <time>2026-07-15T13:32:41Z</time>
      </trkpt>
      <trkpt lat="42.90562" lon="-0.20596">
        <ele>1179.5</ele>
        <time>2026-07-15T13:32:42Z</time>
      </trkpt>
      <trkpt lat="42.90562" lon="-0.20595">
        <ele>1179.5</ele>
        <time>2026-07-15T13:32:42Z</time>
      </trkpt>
      <trkpt lat="42.90562" lon="-0.20594">
        <ele>1179.5</ele>
        <time>2026-07-15T13:32:43Z</time>
      </trkpt>
      <trkpt lat="42.90562" lon="-0.20593">
        <ele>1179.5</ele>
        <time>2026-07-15T13:32:43Z</time>
      </trkpt>
      <trkpt lat="42.90562" lon="-0.20592">
        <ele>1179.5</ele>
        <time>2026-07-15T13:32:44Z</time>
      </trkpt>
      <trkpt lat="42.90562" lon="-0.20591">
        <ele>1179.5</ele>
        <time>2026-07-15T13:32:45Z</time>
      </trkpt>
      <trkpt lat="42.90562" lon="-0.2059">
        <ele>1178.5</ele>
        <time>2026-07-15T13:32:45Z</time>
      </trkpt>
      <trkpt lat="42.90562" lon="-0.2059">
        <ele>1178.5</ele>
        <time>2026-07-15T13:32:46Z</time>
      </trkpt>
      <trkpt lat="42.90563" lon="-0.20589">
        <ele>1178.5</ele>
        <time>2026-07-15T13:32:46Z</time>
      </trkpt>
      <trkpt lat="42.90563" lon="-0.20589">
        <ele>1177.5</ele>
        <time>2026-07-15T13:32:47Z</time>
      </trkpt>
      <trkpt lat="42.90564" lon="-0.20588">
        <ele>1177.5</ele>
        <time>2026-07-15T13:32:48Z</time>
      </trkpt>
      <trkpt lat="42.90564" lon="-0.20588">
        <ele>1176.5</ele>
        <time>2026-07-15T13:32:48Z</time>
      </trkpt>
      <trkpt lat="42.90564" lon="-0.20587">
        <ele>1176.5</ele>
        <time>2026-07-15T13:32:49Z</time>
      </trkpt>
      <trkpt lat="42.90564" lon="-0.20586">
        <ele>1176.5</ele>
        <time>2026-07-15T13:32:50Z</time>
      </trkpt>
      <trkpt lat="42.90564" lon="-0.20585">
        <ele>1176.5</ele>
        <time>2026-07-15T13:32:50Z</time>
      </trkpt>
      <trkpt lat="42.90564" lon="-0.20585">
        <ele>1176.5</ele>
        <time>2026-07-15T13:32:51Z</time>
      </trkpt>
      <trkpt lat="42.90565" lon="-0.20585">
        <ele>1176.5</ele>
        <time>2026-07-15T13:32:51Z</time>
      </trkpt>
      <trkpt lat="42.90565" lon="-0.20584">
        <ele>1176.5</ele>
        <time>2026-07-15T13:32:52Z</time>
      </trkpt>
      <trkpt lat="42.90565" lon="-0.20584">
        <ele>1176.5</ele>
        <time>2026-07-15T13:32:53Z</time>
      </trkpt>
      <trkpt lat="42.90565" lon="-0.20583">
        <ele>1176.5</ele>
        <time>2026-07-15T13:32:53Z</time>
      </trkpt>
      <trkpt lat="42.90565" lon="-0.20583">
        <ele>1176.5</ele>
        <time>2026-07-15T13:32:54Z</time>
      </trkpt>
      <trkpt lat="42.90565" lon="-0.20582">
        <ele>1176.5</ele>
        <time>2026-07-15T13:32:55Z</time>
      </trkpt>
      <trkpt lat="42.90565" lon="-0.20582">
        <ele>1176.5</ele>
        <time>2026-07-15T13:32:55Z</time>
      </trkpt>
      <trkpt lat="42.90566" lon="-0.20581">
        <ele>1176.5</ele>
        <time>2026-07-15T13:32:56Z</time>
      </trkpt>
      <trkpt lat="42.90565" lon="-0.2058">
        <ele>1176.5</ele>
        <time>2026-07-15T13:32:56Z</time>
      </trkpt>
      <trkpt lat="42.90566" lon="-0.20579">
        <ele>1176.5</ele>
        <time>2026-07-15T13:32:57Z</time>
      </trkpt>
      <trkpt lat="42.90566" lon="-0.20578">
        <ele>1176.5</ele>
        <time>2026-07-15T13:32:57Z</time>
      </trkpt>
      <trkpt lat="42.90566" lon="-0.20578">
        <ele>1175.5</ele>
        <time>2026-07-15T13:32:58Z</time>
      </trkpt>
      <trkpt lat="42.90566" lon="-0.20576">
        <ele>1175.5</ele>
        <time>2026-07-15T13:32:59Z</time>
      </trkpt>
      <trkpt lat="42.90566" lon="-0.20576">
        <ele>1175.5</ele>
        <time>2026-07-15T13:33:00Z</time>
      </trkpt>
      <trkpt lat="42.90566" lon="-0.20576">
        <ele>1175.5</ele>
        <time>2026-07-15T13:33:00Z</time>
      </trkpt>
      <trkpt lat="42.90566" lon="-0.20576">
        <ele>1175.5</ele>
        <time>2026-07-15T13:33:01Z</time>
      </trkpt>
      <trkpt lat="42.90567" lon="-0.20576">
        <ele>1175.5</ele>
        <time>2026-07-15T13:33:01Z</time>
      </trkpt>
      <trkpt lat="42.90567" lon="-0.20575">
        <ele>1175.5</ele>
        <time>2026-07-15T13:33:02Z</time>
      </trkpt>
      <trkpt lat="42.90567" lon="-0.20575">
        <ele>1174.5</ele>
        <time>2026-07-15T13:33:02Z</time>
      </trkpt>
      <trkpt lat="42.90567" lon="-0.20574">
        <ele>1175.5</ele>
        <time>2026-07-15T13:33:03Z</time>
      </trkpt>
      <trkpt lat="42.90568" lon="-0.20574">
        <ele>1175.5</ele>
        <time>2026-07-15T13:33:04Z</time>
      </trkpt>
      <trkpt lat="42.90568" lon="-0.20573">
        <ele>1175.5</ele>
        <time>2026-07-15T13:33:04Z</time>
      </trkpt>
      <trkpt lat="42.90568" lon="-0.20572">
        <ele>1174.5</ele>
        <time>2026-07-15T13:33:05Z</time>
      </trkpt>
      <trkpt lat="42.90568" lon="-0.20572">
        <ele>1175.5</ele>
        <time>2026-07-15T13:33:05Z</time>
      </trkpt>
      <trkpt lat="42.90568" lon="-0.20571">
        <ele>1175.5</ele>
        <time>2026-07-15T13:33:06Z</time>
      </trkpt>
      <trkpt lat="42.90568" lon="-0.2057">
        <ele>1174.5</ele>
        <time>2026-07-15T13:33:06Z</time>
      </trkpt>
      <trkpt lat="42.90568" lon="-0.2057">
        <ele>1174.5</ele>
        <time>2026-07-15T13:33:07Z</time>
      </trkpt>
      <trkpt lat="42.90569" lon="-0.20569">
        <ele>1174.5</ele>
        <time>2026-07-15T13:33:08Z</time>
      </trkpt>
      <trkpt lat="42.90569" lon="-0.2057">
        <ele>1174.5</ele>
        <time>2026-07-15T13:33:08Z</time>
      </trkpt>
      <trkpt lat="42.90569" lon="-0.20569">
        <ele>1174.5</ele>
        <time>2026-07-15T13:33:09Z</time>
      </trkpt>
      <trkpt lat="42.90569" lon="-0.20568">
        <ele>1174.5</ele>
        <time>2026-07-15T13:33:10Z</time>
      </trkpt>
      <trkpt lat="42.9057" lon="-0.20568">
        <ele>1173.5</ele>
        <time>2026-07-15T13:33:11Z</time>
      </trkpt>
      <trkpt lat="42.9057" lon="-0.20568">
        <ele>1173.5</ele>
        <time>2026-07-15T13:33:11Z</time>
      </trkpt>
      <trkpt lat="42.90571" lon="-0.20568">
        <ele>1173.5</ele>
        <time>2026-07-15T13:33:12Z</time>
      </trkpt>
      <trkpt lat="42.90571" lon="-0.20567">
        <ele>1173.5</ele>
        <time>2026-07-15T13:33:12Z</time>
      </trkpt>
      <trkpt lat="42.90572" lon="-0.20567">
        <ele>1173.5</ele>
        <time>2026-07-15T13:33:13Z</time>
      </trkpt>
      <trkpt lat="42.90573" lon="-0.20568">
        <ele>1173.5</ele>
        <time>2026-07-15T13:33:14Z</time>
      </trkpt>
      <trkpt lat="42.90573" lon="-0.20568">
        <ele>1173.5</ele>
        <time>2026-07-15T13:33:15Z</time>
      </trkpt>
      <trkpt lat="42.90574" lon="-0.20568">
        <ele>1173.5</ele>
        <time>2026-07-15T13:33:16Z</time>
      </trkpt>
      <trkpt lat="42.90574" lon="-0.20567">
        <ele>1173.5</ele>
        <time>2026-07-15T13:33:16Z</time>
      </trkpt>
      <trkpt lat="42.90574" lon="-0.20567">
        <ele>1173.5</ele>
        <time>2026-07-15T13:33:17Z</time>
      </trkpt>
      <trkpt lat="42.90574" lon="-0.20567">
        <ele>1174.5</ele>
        <time>2026-07-15T13:33:18Z</time>
      </trkpt>
      <trkpt lat="42.90574" lon="-0.20567">
        <ele>1173.5</ele>
        <time>2026-07-15T13:33:19Z</time>
      </trkpt>
      <trkpt lat="42.90574" lon="-0.20567">
        <ele>1173.5</ele>
        <time>2026-07-15T13:33:20Z</time>
      </trkpt>
      <trkpt lat="42.90574" lon="-0.20567">
        <ele>1173.5</ele>
        <time>2026-07-15T13:33:21Z</time>
      </trkpt>
      <trkpt lat="42.90574" lon="-0.20567">
        <ele>1173.5</ele>
        <time>2026-07-15T13:33:22Z</time>
      </trkpt>
      <trkpt lat="42.90574" lon="-0.20567">
        <ele>1172.5</ele>
        <time>2026-07-15T13:33:23Z</time>
      </trkpt>
      <trkpt lat="42.90574" lon="-0.20568">
        <ele>1174.5</ele>
        <time>2026-07-15T13:33:24Z</time>
      </trkpt>
      <trkpt lat="42.90574" lon="-0.20568">
        <ele>1174.5</ele>
        <time>2026-07-15T13:33:25Z</time>
      </trkpt>
      <trkpt lat="42.90574" lon="-0.20568">
        <ele>1173.5</ele>
        <time>2026-07-15T13:33:26Z</time>
      </trkpt>
      <trkpt lat="42.90574" lon="-0.20567">
        <ele>1173.5</ele>
        <time>2026-07-15T13:33:27Z</time>
      </trkpt>
      <trkpt lat="42.90574" lon="-0.20567">
        <ele>1173.5</ele>
        <time>2026-07-15T13:33:28Z</time>
      </trkpt>
      <trkpt lat="42.90574" lon="-0.20567">
        <ele>1174.5</ele>
        <time>2026-07-15T13:33:29Z</time>
      </trkpt>
      <trkpt lat="42.90574" lon="-0.20567">
        <ele>1174.5</ele>
        <time>2026-07-15T13:33:30Z</time>
      </trkpt>
      <trkpt lat="42.90574" lon="-0.20567">
        <ele>1174.5</ele>
        <time>2026-07-15T13:33:31Z</time>
      </trkpt>
      <trkpt lat="42.90574" lon="-0.20567">
        <ele>1174.5</ele>
        <time>2026-07-15T13:33:32Z</time>
      </trkpt>
      <trkpt lat="42.90574" lon="-0.20567">
        <ele>1174.5</ele>
        <time>2026-07-15T13:33:33Z</time>
      </trkpt>
      <trkpt lat="42.90575" lon="-0.20567">
        <ele>1174.5</ele>
        <time>2026-07-15T13:33:34Z</time>
      </trkpt>
      <trkpt lat="42.90575" lon="-0.20567">
        <ele>1173.5</ele>
        <time>2026-07-15T13:33:35Z</time>
      </trkpt>
      <trkpt lat="42.90575" lon="-0.20567">
        <ele>1173.5</ele>
        <time>2026-07-15T13:33:36Z</time>
      </trkpt>
      <trkpt lat="42.90575" lon="-0.20567">
        <ele>1174.5</ele>
        <time>2026-07-15T13:33:37Z</time>
      </trkpt>
      <trkpt lat="42.90575" lon="-0.20567">
        <ele>1174.5</ele>
        <time>2026-07-15T13:33:38Z</time>
      </trkpt>
      <trkpt lat="42.90575" lon="-0.20567">
        <ele>1174.5</ele>
        <time>2026-07-15T13:33:39Z</time>
      </trkpt>
      <trkpt lat="42.90575" lon="-0.20567">
        <ele>1174.5</ele>
        <time>2026-07-15T13:33:40Z</time>
      </trkpt>
      <trkpt lat="42.90575" lon="-0.20567">
        <ele>1174.5</ele>
        <time>2026-07-15T13:33:41Z</time>
      </trkpt>
      <trkpt lat="42.90575" lon="-0.20567">
        <ele>1174.5</ele>
        <time>2026-07-15T13:33:42Z</time>
      </trkpt>
      <trkpt lat="42.90575" lon="-0.20567">
        <ele>1175.5</ele>
        <time>2026-07-15T13:33:43Z</time>
      </trkpt>
      <trkpt lat="42.90576" lon="-0.20567">
        <ele>1175.5</ele>
        <time>2026-07-15T13:33:44Z</time>
      </trkpt>
      <trkpt lat="42.90576" lon="-0.20568">
        <ele>1175.5</ele>
        <time>2026-07-15T13:33:45Z</time>
      </trkpt>
      <trkpt lat="42.90576" lon="-0.20567">
        <ele>1175.5</ele>
        <time>2026-07-15T13:33:46Z</time>
      </trkpt>
      <trkpt lat="42.90577" lon="-0.20567">
        <ele>1175.5</ele>
        <time>2026-07-15T13:33:47Z</time>
      </trkpt>
      <trkpt lat="42.90577" lon="-0.20567">
        <ele>1175.5</ele>
        <time>2026-07-15T13:33:47Z</time>
      </trkpt>
      <trkpt lat="42.90577" lon="-0.20567">
        <ele>1175.5</ele>
        <time>2026-07-15T13:33:48Z</time>
      </trkpt>
      <trkpt lat="42.90577" lon="-0.20567">
        <ele>1175.5</ele>
        <time>2026-07-15T13:33:49Z</time>
      </trkpt>
      <trkpt lat="42.90577" lon="-0.20568">
        <ele>1175.5</ele>
        <time>2026-07-15T13:33:50Z</time>
      </trkpt>
      <trkpt lat="42.90577" lon="-0.20567">
        <ele>1175.5</ele>
        <time>2026-07-15T13:33:51Z</time>
      </trkpt>
      <trkpt lat="42.90577" lon="-0.20567">
        <ele>1175.5</ele>
        <time>2026-07-15T13:33:52Z</time>
      </trkpt>
      <trkpt lat="42.90577" lon="-0.20567">
        <ele>1175.5</ele>
        <time>2026-07-15T13:33:53Z</time>
      </trkpt>
      <trkpt lat="42.90577" lon="-0.20567">
        <ele>1175.5</ele>
        <time>2026-07-15T13:33:54Z</time>
      </trkpt>
      <trkpt lat="42.90577" lon="-0.20567">
        <ele>1175.5</ele>
        <time>2026-07-15T13:33:55Z</time>
      </trkpt>
      <trkpt lat="42.90578" lon="-0.20567">
        <ele>1176.5</ele>
        <time>2026-07-15T13:33:56Z</time>
      </trkpt>
      <trkpt lat="42.90578" lon="-0.20567">
        <ele>1176.5</ele>
        <time>2026-07-15T13:33:57Z</time>
      </trkpt>
      <trkpt lat="42.9058" lon="-0.20567">
        <ele>1176.5</ele>
        <time>2026-07-15T13:33:58Z</time>
      </trkpt>
      <trkpt lat="42.9058" lon="-0.20568">
        <ele>1177.5</ele>
        <time>2026-07-15T13:33:59Z</time>
      </trkpt>
      <trkpt lat="42.90581" lon="-0.20568">
        <ele>1177.5</ele>
        <time>2026-07-15T13:34:00Z</time>
      </trkpt>
      <trkpt lat="42.90581" lon="-0.20568">
        <ele>1177.5</ele>
        <time>2026-07-15T13:34:01Z</time>
      </trkpt>
      <trkpt lat="42.90582" lon="-0.20569">
        <ele>1177.5</ele>
        <time>2026-07-15T13:34:02Z</time>
      </trkpt>
      <trkpt lat="42.90582" lon="-0.20569">
        <ele>1177.5</ele>
        <time>2026-07-15T13:34:03Z</time>
      </trkpt>
      <trkpt lat="42.90582" lon="-0.20569">
        <ele>1177.5</ele>
        <time>2026-07-15T13:34:04Z</time>
      </trkpt>
      <trkpt lat="42.90582" lon="-0.2057">
        <ele>1177.5</ele>
        <time>2026-07-15T13:34:05Z</time>
      </trkpt>
      <trkpt lat="42.90583" lon="-0.2057">
        <ele>1177.5</ele>
        <time>2026-07-15T13:34:06Z</time>
      </trkpt>
      <trkpt lat="42.90583" lon="-0.2057">
        <ele>1177.5</ele>
        <time>2026-07-15T13:34:07Z</time>
      </trkpt>
      <trkpt lat="42.90583" lon="-0.2057">
        <ele>1177.5</ele>
        <time>2026-07-15T13:34:08Z</time>
      </trkpt>
      <trkpt lat="42.90583" lon="-0.2057">
        <ele>1178.5</ele>
        <time>2026-07-15T13:34:09Z</time>
      </trkpt>
      <trkpt lat="42.90584" lon="-0.2057">
        <ele>1178.5</ele>
        <time>2026-07-15T13:34:10Z</time>
      </trkpt>
      <trkpt lat="42.90584" lon="-0.2057">
        <ele>1178.5</ele>
        <time>2026-07-15T13:34:11Z</time>
      </trkpt>
      <trkpt lat="42.90584" lon="-0.2057">
        <ele>1179.5</ele>
        <time>2026-07-15T13:34:12Z</time>
      </trkpt>
      <trkpt lat="42.90584" lon="-0.2057">
        <ele>1179.5</ele>
        <time>2026-07-15T13:34:13Z</time>
      </trkpt>
      <trkpt lat="42.90584" lon="-0.2057">
        <ele>1179.5</ele>
        <time>2026-07-15T13:34:14Z</time>
      </trkpt>
      <trkpt lat="42.90584" lon="-0.2057">
        <ele>1179.5</ele>
        <time>2026-07-15T13:34:15Z</time>
      </trkpt>
      <trkpt lat="42.90584" lon="-0.2057">
        <ele>1179.5</ele>
        <time>2026-07-15T13:34:16Z</time>
      </trkpt>
      <trkpt lat="42.90584" lon="-0.2057">
        <ele>1179.5</ele>
        <time>2026-07-15T13:34:17Z</time>
      </trkpt>
      <trkpt lat="42.90584" lon="-0.20569">
        <ele>1179.5</ele>
        <time>2026-07-15T13:34:18Z</time>
      </trkpt>
      <trkpt lat="42.90584" lon="-0.20569">
        <ele>1180.5</ele>
        <time>2026-07-15T13:34:19Z</time>
      </trkpt>
      <trkpt lat="42.90585" lon="-0.20569">
        <ele>1180.5</ele>
        <time>2026-07-15T13:34:20Z</time>
      </trkpt>
      <trkpt lat="42.90585" lon="-0.20569">
        <ele>1180.5</ele>
        <time>2026-07-15T13:34:21Z</time>
      </trkpt>
      <trkpt lat="42.90585" lon="-0.20569">
        <ele>1180.5</ele>
        <time>2026-07-15T13:34:22Z</time>
      </trkpt>
      <trkpt lat="42.90585" lon="-0.20569">
        <ele>1180.5</ele>
        <time>2026-07-15T13:34:23Z</time>
      </trkpt>
      <trkpt lat="42.90585" lon="-0.20569">
        <ele>1180.5</ele>
        <time>2026-07-15T13:34:24Z</time>
      </trkpt>
      <trkpt lat="42.90585" lon="-0.20569">
        <ele>1180.5</ele>
        <time>2026-07-15T13:34:25Z</time>
      </trkpt>
      <trkpt lat="42.90585" lon="-0.20568">
        <ele>1180.5</ele>
        <time>2026-07-15T13:34:26Z</time>
      </trkpt>
      <trkpt lat="42.90585" lon="-0.20568">
        <ele>1180.5</ele>
        <time>2026-07-15T13:34:27Z</time>
      </trkpt>
      <trkpt lat="42.90585" lon="-0.20568">
        <ele>1180.5</ele>
        <time>2026-07-15T13:34:28Z</time>
      </trkpt>
      <trkpt lat="42.90585" lon="-0.20568">
        <ele>1181.5</ele>
        <time>2026-07-15T13:34:29Z</time>
      </trkpt>
      <trkpt lat="42.90585" lon="-0.20568">
        <ele>1181.5</ele>
        <time>2026-07-15T13:34:30Z</time>
      </trkpt>
      <trkpt lat="42.90586" lon="-0.20568">
        <ele>1180.5</ele>
        <time>2026-07-15T13:34:31Z</time>
      </trkpt>
      <trkpt lat="42.90586" lon="-0.20568">
        <ele>1180.5</ele>
        <time>2026-07-15T13:34:32Z</time>
      </trkpt>
      <trkpt lat="42.90586" lon="-0.20568">
        <ele>1180.5</ele>
        <time>2026-07-15T13:34:33Z</time>
      </trkpt>
      <trkpt lat="42.90586" lon="-0.20568">
        <ele>1180.5</ele>
        <time>2026-07-15T13:34:34Z</time>
      </trkpt>
      <trkpt lat="42.90586" lon="-0.20569">
        <ele>1180.5</ele>
        <time>2026-07-15T13:34:35Z</time>
      </trkpt>
      <trkpt lat="42.90587" lon="-0.20569">
        <ele>1180.5</ele>
        <time>2026-07-15T13:34:36Z</time>
      </trkpt>
      <trkpt lat="42.90587" lon="-0.20569">
        <ele>1180.5</ele>
        <time>2026-07-15T13:34:37Z</time>
      </trkpt>
      <trkpt lat="42.90588" lon="-0.20569">
        <ele>1180.5</ele>
        <time>2026-07-15T13:34:38Z</time>
      </trkpt>
      <trkpt lat="42.90588" lon="-0.20569">
        <ele>1179.5</ele>
        <time>2026-07-15T13:34:39Z</time>
      </trkpt>
      <trkpt lat="42.90588" lon="-0.20569">
        <ele>1179.5</ele>
        <time>2026-07-15T13:34:40Z</time>
      </trkpt>
      <trkpt lat="42.90588" lon="-0.20569">
        <ele>1179.5</ele>
        <time>2026-07-15T13:34:41Z</time>
      </trkpt>
      <trkpt lat="42.90588" lon="-0.2057">
        <ele>1179.5</ele>
        <time>2026-07-15T13:34:42Z</time>
      </trkpt>
      <trkpt lat="42.90588" lon="-0.2057">
        <ele>1179.5</ele>
        <time>2026-07-15T13:34:43Z</time>
      </trkpt>
      <trkpt lat="42.90589" lon="-0.2057">
        <ele>1179.5</ele>
        <time>2026-07-15T13:34:44Z</time>
      </trkpt>
      <trkpt lat="42.90589" lon="-0.2057">
        <ele>1179.5</ele>
        <time>2026-07-15T13:34:45Z</time>
      </trkpt>
      <trkpt lat="42.90589" lon="-0.2057">
        <ele>1180.5</ele>
        <time>2026-07-15T13:34:46Z</time>
      </trkpt>
      <trkpt lat="42.90589" lon="-0.2057">
        <ele>1180.5</ele>
        <time>2026-07-15T13:34:47Z</time>
      </trkpt>
      <trkpt lat="42.90589" lon="-0.2057">
        <ele>1181.5</ele>
        <time>2026-07-15T13:34:48Z</time>
      </trkpt>
      <trkpt lat="42.90589" lon="-0.2057">
        <ele>1181.5</ele>
        <time>2026-07-15T13:34:49Z</time>
      </trkpt>
      <trkpt lat="42.90589" lon="-0.2057">
        <ele>1181.5</ele>
        <time>2026-07-15T13:34:50Z</time>
      </trkpt>
      <trkpt lat="42.9059" lon="-0.2057">
        <ele>1181.5</ele>
        <time>2026-07-15T13:34:51Z</time>
      </trkpt>
      <trkpt lat="42.9059" lon="-0.2057">
        <ele>1181.5</ele>
        <time>2026-07-15T13:34:52Z</time>
      </trkpt>
      <trkpt lat="42.9059" lon="-0.2057">
        <ele>1181.5</ele>
        <time>2026-07-15T13:34:53Z</time>
      </trkpt>
      <trkpt lat="42.9059" lon="-0.2057">
        <ele>1181.5</ele>
        <time>2026-07-15T13:34:54Z</time>
      </trkpt>
      <trkpt lat="42.9059" lon="-0.2057">
        <ele>1181.5</ele>
        <time>2026-07-15T13:34:55Z</time>
      </trkpt>
      <trkpt lat="42.9059" lon="-0.2057">
        <ele>1181.5</ele>
        <time>2026-07-15T13:34:56Z</time>
      </trkpt>
      <trkpt lat="42.9059" lon="-0.2057">
        <ele>1181.5</ele>
        <time>2026-07-15T13:34:57Z</time>
      </trkpt>
      <trkpt lat="42.9059" lon="-0.2057">
        <ele>1181.5</ele>
        <time>2026-07-15T13:34:58Z</time>
      </trkpt>
      <trkpt lat="42.9059" lon="-0.2057">
        <ele>1181.5</ele>
        <time>2026-07-15T13:34:59Z</time>
      </trkpt>
      <trkpt lat="42.9059" lon="-0.2057">
        <ele>1181.5</ele>
        <time>2026-07-15T13:35:00Z</time>
      </trkpt>
      <trkpt lat="42.9059" lon="-0.2057">
        <ele>1181.5</ele>
        <time>2026-07-15T13:35:01Z</time>
      </trkpt>
      <trkpt lat="42.9059" lon="-0.2057">
        <ele>1181.5</ele>
        <time>2026-07-15T13:35:02Z</time>
      </trkpt>
      <trkpt lat="42.9059" lon="-0.2057">
        <ele>1180.5</ele>
        <time>2026-07-15T13:35:03Z</time>
      </trkpt>
      <trkpt lat="42.90591" lon="-0.2057">
        <ele>1180.5</ele>
        <time>2026-07-15T13:35:04Z</time>
      </trkpt>
      <trkpt lat="42.90591" lon="-0.2057">
        <ele>1180.5</ele>
        <time>2026-07-15T13:35:05Z</time>
      </trkpt>
      <trkpt lat="42.90591" lon="-0.2057">
        <ele>1180.5</ele>
        <time>2026-07-15T13:35:06Z</time>
      </trkpt>
      <trkpt lat="42.90591" lon="-0.2057">
        <ele>1180.5</ele>
        <time>2026-07-15T13:35:07Z</time>
      </trkpt>
      <trkpt lat="42.90591" lon="-0.2057">
        <ele>1180.5</ele>
        <time>2026-07-15T13:35:08Z</time>
      </trkpt>
      <trkpt lat="42.90591" lon="-0.2057">
        <ele>1180.5</ele>
        <time>2026-07-15T13:35:09Z</time>
      </trkpt>
      <trkpt lat="42.90591" lon="-0.2057">
        <ele>1180.5</ele>
        <time>2026-07-15T13:35:10Z</time>
      </trkpt>
      <trkpt lat="42.90591" lon="-0.2057">
        <ele>1180.5</ele>
        <time>2026-07-15T13:35:11Z</time>
      </trkpt>
      <trkpt lat="42.90591" lon="-0.2057">
        <ele>1180.5</ele>
        <time>2026-07-15T13:35:12Z</time>
      </trkpt>
      <trkpt lat="42.90591" lon="-0.2057">
        <ele>1180.5</ele>
        <time>2026-07-15T13:35:13Z</time>
      </trkpt>
      <trkpt lat="42.90591" lon="-0.2057">
        <ele>1180.5</ele>
        <time>2026-07-15T13:35:14Z</time>
      </trkpt>
      <trkpt lat="42.90591" lon="-0.2057">
        <ele>1180.5</ele>
        <time>2026-07-15T13:35:15Z</time>
      </trkpt>
      <trkpt lat="42.90591" lon="-0.2057">
        <ele>1180.5</ele>
        <time>2026-07-15T13:35:16Z</time>
      </trkpt>
      <trkpt lat="42.90591" lon="-0.2057">
        <ele>1180.5</ele>
        <time>2026-07-15T13:35:17Z</time>
      </trkpt>
      <trkpt lat="42.90591" lon="-0.2057">
        <ele>1180.5</ele>
        <time>2026-07-15T13:35:18Z</time>
      </trkpt>
      <trkpt lat="42.90591" lon="-0.2057">
        <ele>1180.5</ele>
        <time>2026-07-15T13:35:19Z</time>
      </trkpt>
      <trkpt lat="42.90591" lon="-0.2057">
        <ele>1180.5</ele>
        <time>2026-07-15T13:35:20Z</time>
      </trkpt>
      <trkpt lat="42.90591" lon="-0.2057">
        <ele>1180.5</ele>
        <time>2026-07-15T13:35:21Z</time>
      </trkpt>
      <trkpt lat="42.90591" lon="-0.2057">
        <ele>1180.5</ele>
        <time>2026-07-15T13:35:22Z</time>
      </trkpt>
      <trkpt lat="42.90591" lon="-0.2057">
        <ele>1180.5</ele>
        <time>2026-07-15T13:35:23Z</time>
      </trkpt>
      <trkpt lat="42.90591" lon="-0.2057">
        <ele>1180.5</ele>
        <time>2026-07-15T13:35:24Z</time>
      </trkpt>
      <trkpt lat="42.90591" lon="-0.2057">
        <ele>1179.5</ele>
        <time>2026-07-15T13:35:25Z</time>
      </trkpt>
      <trkpt lat="42.90591" lon="-0.2057">
        <ele>1179.5</ele>
        <time>2026-07-15T13:35:26Z</time>
      </trkpt>
      <trkpt lat="42.90591" lon="-0.20571">
        <ele>1179.5</ele>
        <time>2026-07-15T13:35:27Z</time>
      </trkpt>
      <trkpt lat="42.90591" lon="-0.20571">
        <ele>1179.5</ele>
        <time>2026-07-15T13:35:28Z</time>
      </trkpt>
      <trkpt lat="42.90591" lon="-0.20571">
        <ele>1179.5</ele>
        <time>2026-07-15T13:35:29Z</time>
      </trkpt>
      <trkpt lat="42.90591" lon="-0.20571">
        <ele>1179.5</ele>
        <time>2026-07-15T13:35:30Z</time>
      </trkpt>
      <trkpt lat="42.90591" lon="-0.20571">
        <ele>1179.5</ele>
        <time>2026-07-15T13:35:31Z</time>
      </trkpt>
      <trkpt lat="42.90591" lon="-0.20571">
        <ele>1179.5</ele>
        <time>2026-07-15T13:35:32Z</time>
      </trkpt>
      <trkpt lat="42.90591" lon="-0.20571">
        <ele>1179.5</ele>
        <time>2026-07-15T13:35:33Z</time>
      </trkpt>
      <trkpt lat="42.90591" lon="-0.20571">
        <ele>1179.5</ele>
        <time>2026-07-15T13:35:34Z</time>
      </trkpt>
      <trkpt lat="42.90591" lon="-0.20571">
        <ele>1179.5</ele>
        <time>2026-07-15T13:35:35Z</time>
      </trkpt>
      <trkpt lat="42.90591" lon="-0.20571">
        <ele>1179.5</ele>
        <time>2026-07-15T13:35:36Z</time>
      </trkpt>
      <trkpt lat="42.9059" lon="-0.20571">
        <ele>1179.5</ele>
        <time>2026-07-15T13:35:37Z</time>
      </trkpt>
      <trkpt lat="42.9059" lon="-0.20571">
        <ele>1179.5</ele>
        <time>2026-07-15T13:35:38Z</time>
      </trkpt>
      <trkpt lat="42.9059" lon="-0.20571">
        <ele>1179.5</ele>
        <time>2026-07-15T13:35:39Z</time>
      </trkpt>
      <trkpt lat="42.9059" lon="-0.2057">
        <ele>1179.5</ele>
        <time>2026-07-15T13:35:40Z</time>
      </trkpt>
      <trkpt lat="42.9059" lon="-0.2057">
        <ele>1179.5</ele>
        <time>2026-07-15T13:35:41Z</time>
      </trkpt>
      <trkpt lat="42.9059" lon="-0.2057">
        <ele>1179.5</ele>
        <time>2026-07-15T13:35:42Z</time>
      </trkpt>
      <trkpt lat="42.9059" lon="-0.2057">
        <ele>1179.5</ele>
        <time>2026-07-15T13:35:43Z</time>
      </trkpt>
      <trkpt lat="42.9059" lon="-0.2057">
        <ele>1179.5</ele>
        <time>2026-07-15T13:35:44Z</time>
      </trkpt>
      <trkpt lat="42.9059" lon="-0.2057">
        <ele>1179.5</ele>
        <time>2026-07-15T13:35:45Z</time>
      </trkpt>
      <trkpt lat="42.9059" lon="-0.2057">
        <ele>1180.5</ele>
        <time>2026-07-15T13:35:46Z</time>
      </trkpt>
      <trkpt lat="42.90589" lon="-0.2057">
        <ele>1179.5</ele>
        <time>2026-07-15T13:35:47Z</time>
      </trkpt>
      <trkpt lat="42.90589" lon="-0.2057">
        <ele>1180.5</ele>
        <time>2026-07-15T13:35:48Z</time>
      </trkpt>
      <trkpt lat="42.90589" lon="-0.2057">
        <ele>1180.5</ele>
        <time>2026-07-15T13:35:49Z</time>
      </trkpt>
      <trkpt lat="42.90589" lon="-0.2057">
        <ele>1180.5</ele>
        <time>2026-07-15T13:35:50Z</time>
      </trkpt>
      <trkpt lat="42.90589" lon="-0.2057">
        <ele>1179.5</ele>
        <time>2026-07-15T13:35:51Z</time>
      </trkpt>
      <trkpt lat="42.90589" lon="-0.2057">
        <ele>1179.5</ele>
        <time>2026-07-15T13:35:52Z</time>
      </trkpt>
      <trkpt lat="42.90589" lon="-0.20569">
        <ele>1179.5</ele>
        <time>2026-07-15T13:35:53Z</time>
      </trkpt>
      <trkpt lat="42.90589" lon="-0.20569">
        <ele>1179.5</ele>
        <time>2026-07-15T13:35:54Z</time>
      </trkpt>
      <trkpt lat="42.90589" lon="-0.20569">
        <ele>1179.5</ele>
        <time>2026-07-15T13:35:55Z</time>
      </trkpt>
      <trkpt lat="42.90588" lon="-0.20569">
        <ele>1180.5</ele>
        <time>2026-07-15T13:35:56Z</time>
      </trkpt>
      <trkpt lat="42.90588" lon="-0.20569">
        <ele>1180.5</ele>
        <time>2026-07-15T13:35:57Z</time>
      </trkpt>
      <trkpt lat="42.90588" lon="-0.20569">
        <ele>1180.5</ele>
        <time>2026-07-15T13:35:58Z</time>
      </trkpt>
      <trkpt lat="42.90589" lon="-0.20569">
        <ele>1180.5</ele>
        <time>2026-07-15T13:35:59Z</time>
      </trkpt>
      <trkpt lat="42.90589" lon="-0.20569">
        <ele>1180.5</ele>
        <time>2026-07-15T13:36:00Z</time>
      </trkpt>
    </trkseg>
  </trk>
</gpx>